<?xml version="1.0" encoding="UTF-8"?>
<gpx creator="Garmin Connect" version="1.1"
  xsi:schemaLocation="http://www.topografix.com/GPX/1/1 http://www.topografix.com/GPX/11.xsd"
  xmlns:ns3="http://www.garmin.com/xmlschemas/TrackPointExtension/v1"
  xmlns="http://www.topografix.com/GPX/1/1"
  xmlns:xsi="http://www.w3.org/2001/XMLSchema-instance" xmlns:ns2="http://www.garmin.com/xmlschemas/GpxExtensions/v3">
  <metadata>
    <link href="connect.garmin.com">
      <text>Garmin Connect</text>
    </link>
    <time>2026-06-19T07:29:25.000Z</time>
  </metadata>
  <trk>
    <name>Plav Mountainbiken</name>
    <type>mountain_biking</type>
    <trkseg>
      <trkpt lat="42.52973620779812335968017578125" lon="19.97265796177089214324951171875">
        <ele>1215.800048828125</ele>
        <time>2026-06-19T07:29:25.000Z</time>
        <extensions>
          <ns3:TrackPointExtension>
            <ns3:atemp>27.0</ns3:atemp>
          </ns3:TrackPointExtension>
        </extensions>
      </trkpt>
      <trkpt lat="42.52984986640512943267822265625" lon="19.97275468893349170684814453125">
        <ele>1217.199951171875</ele>
        <time>2026-06-19T07:29:26.000Z</time>
        <extensions>
          <ns3:TrackPointExtension>
            <ns3:atemp>27.0</ns3:atemp>
          </ns3:TrackPointExtension>
        </extensions>
      </trkpt>
      <trkpt lat="42.5298740901052951812744140625" lon="19.97278310358524322509765625">
        <ele>1217.199951171875</ele>
        <time>2026-06-19T07:29:27.000Z</time>
        <extensions>
          <ns3:TrackPointExtension>
            <ns3:atemp>27.0</ns3:atemp>
          </ns3:TrackPointExtension>
        </extensions>
      </trkpt>
      <trkpt lat="42.5298365391790866851806640625" lon="19.97272065840661525726318359375">
        <ele>1217.199951171875</ele>
        <time>2026-06-19T07:29:28.000Z</time>
        <extensions>
          <ns3:TrackPointExtension>
            <ns3:atemp>27.0</ns3:atemp>
          </ns3:TrackPointExtension>
        </extensions>
      </trkpt>
      <trkpt lat="42.52983125858008861541748046875" lon="19.97268528677523136138916015625">
        <ele>1217.199951171875</ele>
        <time>2026-06-19T07:29:29.000Z</time>
        <extensions>
          <ns3:TrackPointExtension>
            <ns3:atemp>27.0</ns3:atemp>
          </ns3:TrackPointExtension>
        </extensions>
      </trkpt>
      <trkpt lat="42.52983125858008861541748046875" lon="19.972676821053028106689453125">
        <ele>1217.199951171875</ele>
        <time>2026-06-19T07:29:30.000Z</time>
        <extensions>
          <ns3:TrackPointExtension>
            <ns3:atemp>27.0</ns3:atemp>
          </ns3:TrackPointExtension>
        </extensions>
      </trkpt>
      <trkpt lat="42.52983125858008861541748046875" lon="19.972676821053028106689453125">
        <ele>1217.199951171875</ele>
        <time>2026-06-19T07:29:31.000Z</time>
        <extensions>
          <ns3:TrackPointExtension>
            <ns3:atemp>27.0</ns3:atemp>
          </ns3:TrackPointExtension>
        </extensions>
      </trkpt>
      <trkpt lat="42.52985087223351001739501953125" lon="19.97267388738691806793212890625">
        <ele>1217.199951171875</ele>
        <time>2026-06-19T07:29:32.000Z</time>
        <extensions>
          <ns3:TrackPointExtension>
            <ns3:atemp>27.0</ns3:atemp>
          </ns3:TrackPointExtension>
        </extensions>
      </trkpt>
      <trkpt lat="42.5298579968512058258056640625" lon="19.97267338447272777557373046875">
        <ele>1217.199951171875</ele>
        <time>2026-06-19T07:29:33.000Z</time>
        <extensions>
          <ns3:TrackPointExtension>
            <ns3:atemp>27.0</ns3:atemp>
          </ns3:TrackPointExtension>
        </extensions>
      </trkpt>
      <trkpt lat="42.52986160106956958770751953125" lon="19.97267246246337890625">
        <ele>1217.199951171875</ele>
        <time>2026-06-19T07:29:34.000Z</time>
        <extensions>
          <ns3:TrackPointExtension>
            <ns3:atemp>27.0</ns3:atemp>
          </ns3:TrackPointExtension>
        </extensions>
      </trkpt>
      <trkpt lat="42.529869563877582550048828125" lon="19.97267983853816986083984375">
        <ele>1217.199951171875</ele>
        <time>2026-06-19T07:29:35.000Z</time>
        <extensions>
          <ns3:TrackPointExtension>
            <ns3:atemp>27.0</ns3:atemp>
          </ns3:TrackPointExtension>
        </extensions>
      </trkpt>
      <trkpt lat="42.52986855804920196533203125" lon="19.97267003171145915985107421875">
        <ele>1217.199951171875</ele>
        <time>2026-06-19T07:29:36.000Z</time>
        <extensions>
          <ns3:TrackPointExtension>
            <ns3:atemp>27.0</ns3:atemp>
          </ns3:TrackPointExtension>
        </extensions>
      </trkpt>
      <trkpt lat="42.52986880950629711151123046875" lon="19.972659386694431304931640625">
        <ele>1217.199951171875</ele>
        <time>2026-06-19T07:29:37.000Z</time>
        <extensions>
          <ns3:TrackPointExtension>
            <ns3:atemp>26.0</ns3:atemp>
          </ns3:TrackPointExtension>
        </extensions>
      </trkpt>
      <trkpt lat="42.52987769432365894317626953125" lon="19.9726521782577037811279296875">
        <ele>1217.199951171875</ele>
        <time>2026-06-19T07:29:38.000Z</time>
        <extensions>
          <ns3:TrackPointExtension>
            <ns3:atemp>26.0</ns3:atemp>
          </ns3:TrackPointExtension>
        </extensions>
      </trkpt>
      <trkpt lat="42.529891021549701690673828125" lon="19.97265041805803775787353515625">
        <ele>1217.199951171875</ele>
        <time>2026-06-19T07:29:39.000Z</time>
        <extensions>
          <ns3:TrackPointExtension>
            <ns3:atemp>26.0</ns3:atemp>
          </ns3:TrackPointExtension>
        </extensions>
      </trkpt>
      <trkpt lat="42.5299042649567127227783203125" lon="19.9726491607725620269775390625">
        <ele>1217.199951171875</ele>
        <time>2026-06-19T07:29:40.000Z</time>
        <extensions>
          <ns3:TrackPointExtension>
            <ns3:atemp>26.0</ns3:atemp>
          </ns3:TrackPointExtension>
        </extensions>
      </trkpt>
      <trkpt lat="42.529915831983089447021484375" lon="19.97265175916254520416259765625">
        <ele>1217.199951171875</ele>
        <time>2026-06-19T07:29:41.000Z</time>
        <extensions>
          <ns3:TrackPointExtension>
            <ns3:atemp>26.0</ns3:atemp>
          </ns3:TrackPointExtension>
        </extensions>
      </trkpt>
      <trkpt lat="42.5299227051436901092529296875" lon="19.97265578247606754302978515625">
        <ele>1217.199951171875</ele>
        <time>2026-06-19T07:29:42.000Z</time>
        <extensions>
          <ns3:TrackPointExtension>
            <ns3:atemp>26.0</ns3:atemp>
          </ns3:TrackPointExtension>
        </extensions>
      </trkpt>
      <trkpt lat="42.5299230404198169708251953125" lon="19.9726595543324947357177734375">
        <ele>1217.199951171875</ele>
        <time>2026-06-19T07:29:43.000Z</time>
        <extensions>
          <ns3:TrackPointExtension>
            <ns3:atemp>26.0</ns3:atemp>
          </ns3:TrackPointExtension>
        </extensions>
      </trkpt>
      <trkpt lat="42.52992044202983379364013671875" lon="19.9726629070937633514404296875">
        <ele>1217.199951171875</ele>
        <time>2026-06-19T07:29:44.000Z</time>
        <extensions>
          <ns3:TrackPointExtension>
            <ns3:atemp>26.0</ns3:atemp>
          </ns3:TrackPointExtension>
        </extensions>
      </trkpt>
      <trkpt lat="42.52991423942148685455322265625" lon="19.97266047634184360504150390625">
        <ele>1217.199951171875</ele>
        <time>2026-06-19T07:29:45.000Z</time>
        <extensions>
          <ns3:TrackPointExtension>
            <ns3:atemp>26.0</ns3:atemp>
          </ns3:TrackPointExtension>
        </extensions>
      </trkpt>
      <trkpt lat="42.5299025885760784149169921875" lon="19.97265033423900604248046875">
        <ele>1217.199951171875</ele>
        <time>2026-06-19T07:29:46.000Z</time>
        <extensions>
          <ns3:TrackPointExtension>
            <ns3:atemp>26.0</ns3:atemp>
          </ns3:TrackPointExtension>
        </extensions>
      </trkpt>
      <trkpt lat="42.52989462576806545257568359375" lon="19.9726523458957672119140625">
        <ele>1217.199951171875</ele>
        <time>2026-06-19T07:29:47.000Z</time>
        <extensions>
          <ns3:TrackPointExtension>
            <ns3:atemp>26.0</ns3:atemp>
          </ns3:TrackPointExtension>
        </extensions>
      </trkpt>
      <trkpt lat="42.529884986579418182373046875" lon="19.97264790348708629608154296875">
        <ele>1217.199951171875</ele>
        <time>2026-06-19T07:29:48.000Z</time>
        <extensions>
          <ns3:TrackPointExtension>
            <ns3:atemp>26.0</ns3:atemp>
          </ns3:TrackPointExtension>
        </extensions>
      </trkpt>
      <trkpt lat="42.52988054417073726654052734375" lon="19.97264052741229534149169921875">
        <ele>1217.199951171875</ele>
        <time>2026-06-19T07:29:49.000Z</time>
        <extensions>
          <ns3:TrackPointExtension>
            <ns3:atemp>26.0</ns3:atemp>
          </ns3:TrackPointExtension>
        </extensions>
      </trkpt>
      <trkpt lat="42.52987526357173919677734375" lon="19.97262963093817234039306640625">
        <ele>1217.199951171875</ele>
        <time>2026-06-19T07:29:50.000Z</time>
        <extensions>
          <ns3:TrackPointExtension>
            <ns3:atemp>26.0</ns3:atemp>
          </ns3:TrackPointExtension>
        </extensions>
      </trkpt>
      <trkpt lat="42.5298707373440265655517578125" lon="19.972623847424983978271484375">
        <ele>1217.199951171875</ele>
        <time>2026-06-19T07:29:51.000Z</time>
        <extensions>
          <ns3:TrackPointExtension>
            <ns3:atemp>26.0</ns3:atemp>
          </ns3:TrackPointExtension>
        </extensions>
      </trkpt>
      <trkpt lat="42.5298626907169818878173828125" lon="19.9726199917495250701904296875">
        <ele>1217.199951171875</ele>
        <time>2026-06-19T07:29:52.000Z</time>
        <extensions>
          <ns3:TrackPointExtension>
            <ns3:atemp>26.0</ns3:atemp>
          </ns3:TrackPointExtension>
        </extensions>
      </trkpt>
      <trkpt lat="42.52985925413668155670166015625" lon="19.97262393124401569366455078125">
        <ele>1217.199951171875</ele>
        <time>2026-06-19T07:29:53.000Z</time>
        <extensions>
          <ns3:TrackPointExtension>
            <ns3:atemp>26.0</ns3:atemp>
          </ns3:TrackPointExtension>
        </extensions>
      </trkpt>
      <trkpt lat="42.529861517250537872314453125" lon="19.97262619435787200927734375">
        <ele>1217.199951171875</ele>
        <time>2026-06-19T07:29:54.000Z</time>
        <extensions>
          <ns3:TrackPointExtension>
            <ns3:atemp>26.0</ns3:atemp>
          </ns3:TrackPointExtension>
        </extensions>
      </trkpt>
      <trkpt lat="42.52986445091664791107177734375" lon="19.9726293794810771942138671875">
        <ele>1217.199951171875</ele>
        <time>2026-06-19T07:29:55.000Z</time>
        <extensions>
          <ns3:TrackPointExtension>
            <ns3:atemp>26.0</ns3:atemp>
          </ns3:TrackPointExtension>
        </extensions>
      </trkpt>
      <trkpt lat="42.52986545674502849578857421875" lon="19.97262979857623577117919921875">
        <ele>1217.199951171875</ele>
        <time>2026-06-19T07:29:56.000Z</time>
        <extensions>
          <ns3:TrackPointExtension>
            <ns3:atemp>26.0</ns3:atemp>
          </ns3:TrackPointExtension>
        </extensions>
      </trkpt>
      <trkpt lat="42.5298687256872653961181640625" lon="19.9726323969662189483642578125">
        <ele>1217.199951171875</ele>
        <time>2026-06-19T07:29:57.000Z</time>
        <extensions>
          <ns3:TrackPointExtension>
            <ns3:atemp>26.0</ns3:atemp>
          </ns3:TrackPointExtension>
        </extensions>
      </trkpt>
      <trkpt lat="42.52986880950629711151123046875" lon="19.9726347438991069793701171875">
        <ele>1217.199951171875</ele>
        <time>2026-06-19T07:29:58.000Z</time>
        <extensions>
          <ns3:TrackPointExtension>
            <ns3:atemp>26.0</ns3:atemp>
          </ns3:TrackPointExtension>
        </extensions>
      </trkpt>
      <trkpt lat="42.5298687256872653961181640625" lon="19.9726397730410099029541015625">
        <ele>1217.199951171875</ele>
        <time>2026-06-19T07:29:59.000Z</time>
        <extensions>
          <ns3:TrackPointExtension>
            <ns3:atemp>26.0</ns3:atemp>
          </ns3:TrackPointExtension>
        </extensions>
      </trkpt>
      <trkpt lat="42.5298663787543773651123046875" lon="19.97264404781162738800048828125">
        <ele>1217.199951171875</ele>
        <time>2026-06-19T07:30:00.000Z</time>
        <extensions>
          <ns3:TrackPointExtension>
            <ns3:atemp>26.0</ns3:atemp>
          </ns3:TrackPointExtension>
        </extensions>
      </trkpt>
      <trkpt lat="42.52986453473567962646484375" lon="19.97264404781162738800048828125">
        <ele>1217.199951171875</ele>
        <time>2026-06-19T07:30:01.000Z</time>
        <extensions>
          <ns3:TrackPointExtension>
            <ns3:atemp>26.0</ns3:atemp>
          </ns3:TrackPointExtension>
        </extensions>
      </trkpt>
      <trkpt lat="42.5298734195530414581298828125" lon="19.9726468138396739959716796875">
        <ele>1217.199951171875</ele>
        <time>2026-06-19T07:30:02.000Z</time>
        <extensions>
          <ns3:TrackPointExtension>
            <ns3:atemp>26.0</ns3:atemp>
          </ns3:TrackPointExtension>
        </extensions>
      </trkpt>
      <trkpt lat="42.52987928688526153564453125" lon="19.97265175916254520416259765625">
        <ele>1217.199951171875</ele>
        <time>2026-06-19T07:30:03.000Z</time>
        <extensions>
          <ns3:TrackPointExtension>
            <ns3:atemp>26.0</ns3:atemp>
          </ns3:TrackPointExtension>
        </extensions>
      </trkpt>
      <trkpt lat="42.52987526357173919677734375" lon="19.97265846468508243560791015625">
        <ele>1217.199951171875</ele>
        <time>2026-06-19T07:30:04.000Z</time>
        <extensions>
          <ns3:TrackPointExtension>
            <ns3:atemp>26.0</ns3:atemp>
          </ns3:TrackPointExtension>
        </extensions>
      </trkpt>
      <trkpt lat="42.5298774428665637969970703125" lon="19.97266081161797046661376953125">
        <ele>1217.199951171875</ele>
        <time>2026-06-19T07:30:05.000Z</time>
        <extensions>
          <ns3:TrackPointExtension>
            <ns3:atemp>26.0</ns3:atemp>
          </ns3:TrackPointExtension>
        </extensions>
      </trkpt>
      <trkpt lat="42.52988540567457675933837890625" lon="19.97266240417957305908203125">
        <ele>1217.199951171875</ele>
        <time>2026-06-19T07:30:06.000Z</time>
        <extensions>
          <ns3:TrackPointExtension>
            <ns3:atemp>26.0</ns3:atemp>
          </ns3:TrackPointExtension>
        </extensions>
      </trkpt>
      <trkpt lat="42.52988465130329132080078125" lon="19.97266148217022418975830078125">
        <ele>1217.199951171875</ele>
        <time>2026-06-19T07:30:07.000Z</time>
        <extensions>
          <ns3:TrackPointExtension>
            <ns3:atemp>26.0</ns3:atemp>
          </ns3:TrackPointExtension>
        </extensions>
      </trkpt>
      <trkpt lat="42.52989060245454311370849609375" lon="19.97266919352114200592041015625">
        <ele>1217.199951171875</ele>
        <time>2026-06-19T07:30:08.000Z</time>
        <extensions>
          <ns3:TrackPointExtension>
            <ns3:atemp>26.0</ns3:atemp>
          </ns3:TrackPointExtension>
        </extensions>
      </trkpt>
      <trkpt lat="42.5298905186355113983154296875" lon="19.972672797739505767822265625">
        <ele>1217.199951171875</ele>
        <time>2026-06-19T07:30:09.000Z</time>
        <extensions>
          <ns3:TrackPointExtension>
            <ns3:atemp>26.0</ns3:atemp>
          </ns3:TrackPointExtension>
        </extensions>
      </trkpt>
      <trkpt lat="42.52989160828292369842529296875" lon="19.9726800061762332916259765625">
        <ele>1217.199951171875</ele>
        <time>2026-06-19T07:30:10.000Z</time>
        <extensions>
          <ns3:TrackPointExtension>
            <ns3:atemp>26.0</ns3:atemp>
          </ns3:TrackPointExtension>
        </extensions>
      </trkpt>
      <trkpt lat="42.52988331019878387451171875" lon="19.9726883880794048309326171875">
        <ele>1217.199951171875</ele>
        <time>2026-06-19T07:30:11.000Z</time>
        <extensions>
          <ns3:TrackPointExtension>
            <ns3:atemp>26.0</ns3:atemp>
          </ns3:TrackPointExtension>
        </extensions>
      </trkpt>
      <trkpt lat="42.52987232990562915802001953125" lon="19.97269350104033946990966796875">
        <ele>1217.199951171875</ele>
        <time>2026-06-19T07:30:12.000Z</time>
        <extensions>
          <ns3:TrackPointExtension>
            <ns3:atemp>26.0</ns3:atemp>
          </ns3:TrackPointExtension>
        </extensions>
      </trkpt>
      <trkpt lat="42.5298620201647281646728515625" lon="19.9727086722850799560546875">
        <ele>1217.199951171875</ele>
        <time>2026-06-19T07:30:13.000Z</time>
        <extensions>
          <ns3:TrackPointExtension>
            <ns3:atemp>26.0</ns3:atemp>
          </ns3:TrackPointExtension>
        </extensions>
      </trkpt>
      <trkpt lat="42.5298638641834259033203125" lon="19.972717054188251495361328125">
        <ele>1217.199951171875</ele>
        <time>2026-06-19T07:30:14.000Z</time>
        <extensions>
          <ns3:TrackPointExtension>
            <ns3:atemp>26.0</ns3:atemp>
          </ns3:TrackPointExtension>
        </extensions>
      </trkpt>
      <trkpt lat="42.52984953112900257110595703125" lon="19.9727299623191356658935546875">
        <ele>1217.199951171875</ele>
        <time>2026-06-19T07:30:15.000Z</time>
        <extensions>
          <ns3:TrackPointExtension>
            <ns3:atemp>26.0</ns3:atemp>
          </ns3:TrackPointExtension>
        </extensions>
      </trkpt>
      <trkpt lat="42.5298462621867656707763671875" lon="19.972731135785579681396484375">
        <ele>1217.4000244140625</ele>
        <time>2026-06-19T07:30:16.000Z</time>
        <extensions>
          <ns3:TrackPointExtension>
            <ns3:atemp>26.0</ns3:atemp>
          </ns3:TrackPointExtension>
        </extensions>
      </trkpt>
      <trkpt lat="42.52985120750963687896728515625" lon="19.9727289564907550811767578125">
        <ele>1217.4000244140625</ele>
        <time>2026-06-19T07:30:17.000Z</time>
        <extensions>
          <ns3:TrackPointExtension>
            <ns3:atemp>26.0</ns3:atemp>
          </ns3:TrackPointExtension>
        </extensions>
      </trkpt>
      <trkpt lat="42.52985120750963687896728515625" lon="19.9727289564907550811767578125">
        <ele>1217.5999755859375</ele>
        <time>2026-06-19T07:30:18.000Z</time>
        <extensions>
          <ns3:TrackPointExtension>
            <ns3:atemp>26.0</ns3:atemp>
          </ns3:TrackPointExtension>
        </extensions>
      </trkpt>
      <trkpt lat="42.52985120750963687896728515625" lon="19.9727289564907550811767578125">
        <ele>1217.800048828125</ele>
        <time>2026-06-19T07:30:19.000Z</time>
        <extensions>
          <ns3:TrackPointExtension>
            <ns3:atemp>26.0</ns3:atemp>
          </ns3:TrackPointExtension>
        </extensions>
      </trkpt>
      <trkpt lat="42.52985120750963687896728515625" lon="19.9727289564907550811767578125">
        <ele>1218</ele>
        <time>2026-06-19T07:30:20.000Z</time>
        <extensions>
          <ns3:TrackPointExtension>
            <ns3:atemp>26.0</ns3:atemp>
          </ns3:TrackPointExtension>
        </extensions>
      </trkpt>
      <trkpt lat="42.52985120750963687896728515625" lon="19.9727289564907550811767578125">
        <ele>1218.199951171875</ele>
        <time>2026-06-19T07:30:21.000Z</time>
        <extensions>
          <ns3:TrackPointExtension>
            <ns3:atemp>26.0</ns3:atemp>
          </ns3:TrackPointExtension>
        </extensions>
      </trkpt>
      <trkpt lat="42.52985120750963687896728515625" lon="19.9727289564907550811767578125">
        <ele>1218.199951171875</ele>
        <time>2026-06-19T07:30:22.000Z</time>
        <extensions>
          <ns3:TrackPointExtension>
            <ns3:atemp>26.0</ns3:atemp>
          </ns3:TrackPointExtension>
        </extensions>
      </trkpt>
      <trkpt lat="42.52985120750963687896728515625" lon="19.9727289564907550811767578125">
        <ele>1218</ele>
        <time>2026-06-19T07:30:23.000Z</time>
        <extensions>
          <ns3:TrackPointExtension>
            <ns3:atemp>26.0</ns3:atemp>
          </ns3:TrackPointExtension>
        </extensions>
      </trkpt>
      <trkpt lat="42.52985254861414432525634765625" lon="19.9727306328713893890380859375">
        <ele>1218</ele>
        <time>2026-06-19T07:30:24.000Z</time>
        <extensions>
          <ns3:TrackPointExtension>
            <ns3:atemp>26.0</ns3:atemp>
          </ns3:TrackPointExtension>
        </extensions>
      </trkpt>
      <trkpt lat="42.52984919585287570953369140625" lon="19.97275100089609622955322265625">
        <ele>1217.800048828125</ele>
        <time>2026-06-19T07:30:25.000Z</time>
        <extensions>
          <ns3:TrackPointExtension>
            <ns3:atemp>26.0</ns3:atemp>
          </ns3:TrackPointExtension>
        </extensions>
      </trkpt>
      <trkpt lat="42.52984265796840190887451171875" lon="19.97276944108307361602783203125">
        <ele>1217.800048828125</ele>
        <time>2026-06-19T07:30:26.000Z</time>
        <extensions>
          <ns3:TrackPointExtension>
            <ns3:atemp>26.0</ns3:atemp>
          </ns3:TrackPointExtension>
        </extensions>
      </trkpt>
      <trkpt lat="42.52983645536005496978759765625" lon="19.9727872945368289947509765625">
        <ele>1217.800048828125</ele>
        <time>2026-06-19T07:30:27.000Z</time>
        <extensions>
          <ns3:TrackPointExtension>
            <ns3:atemp>26.0</ns3:atemp>
          </ns3:TrackPointExtension>
        </extensions>
      </trkpt>
      <trkpt lat="42.52982572652399539947509765625" lon="19.97279944829642772674560546875">
        <ele>1217.800048828125</ele>
        <time>2026-06-19T07:30:28.000Z</time>
        <extensions>
          <ns3:TrackPointExtension>
            <ns3:atemp>26.0</ns3:atemp>
          </ns3:TrackPointExtension>
        </extensions>
      </trkpt>
      <trkpt lat="42.52982153557240962982177734375" lon="19.9728151224553585052490234375">
        <ele>1218</ele>
        <time>2026-06-19T07:30:29.000Z</time>
        <extensions>
          <ns3:TrackPointExtension>
            <ns3:atemp>26.0</ns3:atemp>
          </ns3:TrackPointExtension>
        </extensions>
      </trkpt>
      <trkpt lat="42.5298130698502063751220703125" lon="19.9728295393288135528564453125">
        <ele>1218.199951171875</ele>
        <time>2026-06-19T07:30:30.000Z</time>
        <extensions>
          <ns3:TrackPointExtension>
            <ns3:atemp>26.0</ns3:atemp>
          </ns3:TrackPointExtension>
        </extensions>
      </trkpt>
      <trkpt lat="42.52980686724185943603515625" lon="19.9728454649448394775390625">
        <ele>1218.199951171875</ele>
        <time>2026-06-19T07:30:31.000Z</time>
        <extensions>
          <ns3:TrackPointExtension>
            <ns3:atemp>26.0</ns3:atemp>
          </ns3:TrackPointExtension>
        </extensions>
      </trkpt>
      <trkpt lat="42.52979974262416362762451171875" lon="19.97286667115986347198486328125">
        <ele>1218.4000244140625</ele>
        <time>2026-06-19T07:30:32.000Z</time>
        <extensions>
          <ns3:TrackPointExtension>
            <ns3:atemp>26.0</ns3:atemp>
          </ns3:TrackPointExtension>
        </extensions>
      </trkpt>
      <trkpt lat="42.52978532575070858001708984375" lon="19.97289114631712436676025390625">
        <ele>1218.5999755859375</ele>
        <time>2026-06-19T07:30:33.000Z</time>
        <extensions>
          <ns3:TrackPointExtension>
            <ns3:atemp>26.0</ns3:atemp>
          </ns3:TrackPointExtension>
        </extensions>
      </trkpt>
      <trkpt lat="42.529776357114315032958984375" lon="19.9729140289127826690673828125">
        <ele>1218.800048828125</ele>
        <time>2026-06-19T07:30:34.000Z</time>
        <extensions>
          <ns3:TrackPointExtension>
            <ns3:atemp>26.0</ns3:atemp>
          </ns3:TrackPointExtension>
        </extensions>
      </trkpt>
      <trkpt lat="42.529768645763397216796875" lon="19.972934983670711517333984375">
        <ele>1219</ele>
        <time>2026-06-19T07:30:35.000Z</time>
        <extensions>
          <ns3:TrackPointExtension>
            <ns3:atemp>26.0</ns3:atemp>
          </ns3:TrackPointExtension>
        </extensions>
      </trkpt>
      <trkpt lat="42.52976353280246257781982421875" lon="19.9729572795331478118896484375">
        <ele>1219.4000244140625</ele>
        <time>2026-06-19T07:30:36.000Z</time>
        <extensions>
          <ns3:TrackPointExtension>
            <ns3:atemp>26.0</ns3:atemp>
          </ns3:TrackPointExtension>
        </extensions>
      </trkpt>
      <trkpt lat="42.5297605991363525390625" lon="19.97297546826303005218505859375">
        <ele>1219.800048828125</ele>
        <time>2026-06-19T07:30:37.000Z</time>
        <extensions>
          <ns3:TrackPointExtension>
            <ns3:atemp>25.0</ns3:atemp>
          </ns3:TrackPointExtension>
        </extensions>
      </trkpt>
      <trkpt lat="42.52975196577608585357666015625" lon="19.97299441136419773101806640625">
        <ele>1220</ele>
        <time>2026-06-19T07:30:38.000Z</time>
        <extensions>
          <ns3:TrackPointExtension>
            <ns3:atemp>26.0</ns3:atemp>
          </ns3:TrackPointExtension>
        </extensions>
      </trkpt>
      <trkpt lat="42.52974106930196285247802734375" lon="19.973011426627635955810546875">
        <ele>1220.4000244140625</ele>
        <time>2026-06-19T07:30:39.000Z</time>
        <extensions>
          <ns3:TrackPointExtension>
            <ns3:atemp>26.0</ns3:atemp>
          </ns3:TrackPointExtension>
        </extensions>
      </trkpt>
      <trkpt lat="42.5297342799603939056396484375" lon="19.97303028590977191925048828125">
        <ele>1220.800048828125</ele>
        <time>2026-06-19T07:30:40.000Z</time>
        <extensions>
          <ns3:TrackPointExtension>
            <ns3:atemp>26.0</ns3:atemp>
          </ns3:TrackPointExtension>
        </extensions>
      </trkpt>
      <trkpt lat="42.52972765825688838958740234375" lon="19.97305777855217456817626953125">
        <ele>1221</ele>
        <time>2026-06-19T07:30:41.000Z</time>
        <extensions>
          <ns3:TrackPointExtension>
            <ns3:atemp>26.0</ns3:atemp>
          </ns3:TrackPointExtension>
        </extensions>
      </trkpt>
      <trkpt lat="42.52972715534269809722900390625" lon="19.97308619320392608642578125">
        <ele>1221.4000244140625</ele>
        <time>2026-06-19T07:30:42.000Z</time>
        <extensions>
          <ns3:TrackPointExtension>
            <ns3:atemp>25.0</ns3:atemp>
          </ns3:TrackPointExtension>
        </extensions>
      </trkpt>
      <trkpt lat="42.5297262333333492279052734375" lon="19.97311259619891643524169921875">
        <ele>1221.5999755859375</ele>
        <time>2026-06-19T07:30:43.000Z</time>
        <extensions>
          <ns3:TrackPointExtension>
            <ns3:atemp>25.0</ns3:atemp>
          </ns3:TrackPointExtension>
        </extensions>
      </trkpt>
      <trkpt lat="42.5297295860946178436279296875" lon="19.97313539497554302215576171875">
        <ele>1221.800048828125</ele>
        <time>2026-06-19T07:30:44.000Z</time>
        <extensions>
          <ns3:TrackPointExtension>
            <ns3:atemp>25.0</ns3:atemp>
          </ns3:TrackPointExtension>
        </extensions>
      </trkpt>
      <trkpt lat="42.5297336094081401824951171875" lon="19.9731592833995819091796875">
        <ele>1222</ele>
        <time>2026-06-19T07:30:45.000Z</time>
        <extensions>
          <ns3:TrackPointExtension>
            <ns3:atemp>25.0</ns3:atemp>
          </ns3:TrackPointExtension>
        </extensions>
      </trkpt>
      <trkpt lat="42.52973444759845733642578125" lon="19.973176382482051849365234375">
        <ele>1222.199951171875</ele>
        <time>2026-06-19T07:30:46.000Z</time>
        <extensions>
          <ns3:TrackPointExtension>
            <ns3:atemp>25.0</ns3:atemp>
          </ns3:TrackPointExtension>
        </extensions>
      </trkpt>
      <trkpt lat="42.529736794531345367431640625" lon="19.973197840154170989990234375">
        <ele>1222.5999755859375</ele>
        <time>2026-06-19T07:30:47.000Z</time>
        <extensions>
          <ns3:TrackPointExtension>
            <ns3:atemp>25.0</ns3:atemp>
          </ns3:TrackPointExtension>
        </extensions>
      </trkpt>
      <trkpt lat="42.52973352558910846710205078125" lon="19.9732157774269580841064453125">
        <ele>1223</ele>
        <time>2026-06-19T07:30:48.000Z</time>
        <extensions>
          <ns3:TrackPointExtension>
            <ns3:atemp>25.0</ns3:atemp>
          </ns3:TrackPointExtension>
        </extensions>
      </trkpt>
      <trkpt lat="42.52973084338009357452392578125" lon="19.973233044147491455078125">
        <ele>1223.4000244140625</ele>
        <time>2026-06-19T07:30:49.000Z</time>
        <extensions>
          <ns3:TrackPointExtension>
            <ns3:atemp>25.0</ns3:atemp>
          </ns3:TrackPointExtension>
        </extensions>
      </trkpt>
      <trkpt lat="42.5297295860946178436279296875" lon="19.97325374744832515716552734375">
        <ele>1223.800048828125</ele>
        <time>2026-06-19T07:30:50.000Z</time>
        <extensions>
          <ns3:TrackPointExtension>
            <ns3:atemp>25.0</ns3:atemp>
          </ns3:TrackPointExtension>
        </extensions>
      </trkpt>
      <trkpt lat="42.52973034046590328216552734375" lon="19.97327134944498538970947265625">
        <ele>1224.199951171875</ele>
        <time>2026-06-19T07:30:51.000Z</time>
        <extensions>
          <ns3:TrackPointExtension>
            <ns3:atemp>25.0</ns3:atemp>
          </ns3:TrackPointExtension>
        </extensions>
      </trkpt>
      <trkpt lat="42.5297309271991252899169921875" lon="19.97328861616551876068115234375">
        <ele>1224.5999755859375</ele>
        <time>2026-06-19T07:30:52.000Z</time>
        <extensions>
          <ns3:TrackPointExtension>
            <ns3:atemp>25.0</ns3:atemp>
          </ns3:TrackPointExtension>
        </extensions>
      </trkpt>
      <trkpt lat="42.529731094837188720703125" lon="19.97330470941960811614990234375">
        <ele>1225</ele>
        <time>2026-06-19T07:30:53.000Z</time>
        <extensions>
          <ns3:TrackPointExtension>
            <ns3:atemp>25.0</ns3:atemp>
          </ns3:TrackPointExtension>
        </extensions>
      </trkpt>
      <trkpt lat="42.52973168157041072845458984375" lon="19.973320551216602325439453125">
        <ele>1225.4000244140625</ele>
        <time>2026-06-19T07:30:54.000Z</time>
        <extensions>
          <ns3:TrackPointExtension>
            <ns3:atemp>25.0</ns3:atemp>
          </ns3:TrackPointExtension>
        </extensions>
      </trkpt>
      <trkpt lat="42.52972832880914211273193359375" lon="19.97332985512912273406982421875">
        <ele>1225.5999755859375</ele>
        <time>2026-06-19T07:30:55.000Z</time>
        <extensions>
          <ns3:TrackPointExtension>
            <ns3:atemp>25.0</ns3:atemp>
          </ns3:TrackPointExtension>
        </extensions>
      </trkpt>
      <trkpt lat="42.52972581423819065093994140625" lon="19.9733470380306243896484375">
        <ele>1226</ele>
        <time>2026-06-19T07:30:56.000Z</time>
        <extensions>
          <ns3:TrackPointExtension>
            <ns3:atemp>25.0</ns3:atemp>
          </ns3:TrackPointExtension>
        </extensions>
      </trkpt>
      <trkpt lat="42.52972564660012722015380859375" lon="19.9733643047511577606201171875">
        <ele>1226.199951171875</ele>
        <time>2026-06-19T07:30:57.000Z</time>
        <extensions>
          <ns3:TrackPointExtension>
            <ns3:atemp>25.0</ns3:atemp>
          </ns3:TrackPointExtension>
        </extensions>
      </trkpt>
      <trkpt lat="42.52972598187625408172607421875" lon="19.9733807332813739776611328125">
        <ele>1226.5999755859375</ele>
        <time>2026-06-19T07:30:58.000Z</time>
        <extensions>
          <ns3:TrackPointExtension>
            <ns3:atemp>25.0</ns3:atemp>
          </ns3:TrackPointExtension>
        </extensions>
      </trkpt>
      <trkpt lat="42.5297242216765880584716796875" lon="19.97339707799255847930908203125">
        <ele>1226.800048828125</ele>
        <time>2026-06-19T07:30:59.000Z</time>
        <extensions>
          <ns3:TrackPointExtension>
            <ns3:atemp>25.0</ns3:atemp>
          </ns3:TrackPointExtension>
        </extensions>
      </trkpt>
      <trkpt lat="42.52972112037241458892822265625" lon="19.9734199605882167816162109375">
        <ele>1227.199951171875</ele>
        <time>2026-06-19T07:31:00.000Z</time>
        <extensions>
          <ns3:TrackPointExtension>
            <ns3:atemp>25.0</ns3:atemp>
          </ns3:TrackPointExtension>
        </extensions>
      </trkpt>
      <trkpt lat="42.5297190248966217041015625" lon="19.97344569303095340728759765625">
        <ele>1227.4000244140625</ele>
        <time>2026-06-19T07:31:01.000Z</time>
        <extensions>
          <ns3:TrackPointExtension>
            <ns3:atemp>25.0</ns3:atemp>
          </ns3:TrackPointExtension>
        </extensions>
      </trkpt>
      <trkpt lat="42.52971290610730648040771484375" lon="19.97347243130207061767578125">
        <ele>1227.5999755859375</ele>
        <time>2026-06-19T07:31:02.000Z</time>
        <extensions>
          <ns3:TrackPointExtension>
            <ns3:atemp>25.0</ns3:atemp>
          </ns3:TrackPointExtension>
        </extensions>
      </trkpt>
      <trkpt lat="42.5297064520418643951416015625" lon="19.9734950624406337738037109375">
        <ele>1227.800048828125</ele>
        <time>2026-06-19T07:31:03.000Z</time>
        <extensions>
          <ns3:TrackPointExtension>
            <ns3:atemp>25.0</ns3:atemp>
          </ns3:TrackPointExtension>
        </extensions>
      </trkpt>
      <trkpt lat="42.52970670349895954132080078125" lon="19.97351475991308689117431640625">
        <ele>1228.199951171875</ele>
        <time>2026-06-19T07:31:04.000Z</time>
        <extensions>
          <ns3:TrackPointExtension>
            <ns3:atemp>25.0</ns3:atemp>
          </ns3:TrackPointExtension>
        </extensions>
      </trkpt>
      <trkpt lat="42.52970050089061260223388671875" lon="19.97353923507034778594970703125">
        <ele>1228.5999755859375</ele>
        <time>2026-06-19T07:31:05.000Z</time>
        <extensions>
          <ns3:TrackPointExtension>
            <ns3:atemp>25.0</ns3:atemp>
          </ns3:TrackPointExtension>
        </extensions>
      </trkpt>
      <trkpt lat="42.52969195134937763214111328125" lon="19.97356371022760868072509765625">
        <ele>1228.800048828125</ele>
        <time>2026-06-19T07:31:06.000Z</time>
        <extensions>
          <ns3:TrackPointExtension>
            <ns3:atemp>25.0</ns3:atemp>
          </ns3:TrackPointExtension>
        </extensions>
      </trkpt>
      <trkpt lat="42.5296853296458721160888671875" lon="19.97359053231775760650634765625">
        <ele>1229.199951171875</ele>
        <time>2026-06-19T07:31:07.000Z</time>
        <extensions>
          <ns3:TrackPointExtension>
            <ns3:atemp>25.0</ns3:atemp>
          </ns3:TrackPointExtension>
        </extensions>
      </trkpt>
      <trkpt lat="42.5296776182949542999267578125" lon="19.97361634857952594757080078125">
        <ele>1229.4000244140625</ele>
        <time>2026-06-19T07:31:08.000Z</time>
        <extensions>
          <ns3:TrackPointExtension>
            <ns3:atemp>25.0</ns3:atemp>
          </ns3:TrackPointExtension>
        </extensions>
      </trkpt>
      <trkpt lat="42.52967066131532192230224609375" lon="19.9736352078616619110107421875">
        <ele>1229.800048828125</ele>
        <time>2026-06-19T07:31:09.000Z</time>
        <extensions>
          <ns3:TrackPointExtension>
            <ns3:atemp>25.0</ns3:atemp>
          </ns3:TrackPointExtension>
        </extensions>
      </trkpt>
      <trkpt lat="42.52966579981148242950439453125" lon="19.97366211377084255218505859375">
        <ele>1230</ele>
        <time>2026-06-19T07:31:10.000Z</time>
        <extensions>
          <ns3:TrackPointExtension>
            <ns3:atemp>25.0</ns3:atemp>
          </ns3:TrackPointExtension>
        </extensions>
      </trkpt>
      <trkpt lat="42.529656998813152313232421875" lon="19.97368675656616687774658203125">
        <ele>1230.4000244140625</ele>
        <time>2026-06-19T07:31:11.000Z</time>
        <extensions>
          <ns3:TrackPointExtension>
            <ns3:atemp>25.0</ns3:atemp>
          </ns3:TrackPointExtension>
        </extensions>
      </trkpt>
      <trkpt lat="42.52964484505355358123779296875" lon="19.97371072880923748016357421875">
        <ele>1230.5999755859375</ele>
        <time>2026-06-19T07:31:12.000Z</time>
        <extensions>
          <ns3:TrackPointExtension>
            <ns3:atemp>25.0</ns3:atemp>
          </ns3:TrackPointExtension>
        </extensions>
      </trkpt>
      <trkpt lat="42.52963311038911342620849609375" lon="19.97372967191040515899658203125">
        <ele>1230.800048828125</ele>
        <time>2026-06-19T07:31:13.000Z</time>
        <extensions>
          <ns3:TrackPointExtension>
            <ns3:atemp>25.0</ns3:atemp>
          </ns3:TrackPointExtension>
        </extensions>
      </trkpt>
      <trkpt lat="42.52962539903819561004638671875" lon="19.97374677099287509918212890625">
        <ele>1231</ele>
        <time>2026-06-19T07:31:14.000Z</time>
        <extensions>
          <ns3:TrackPointExtension>
            <ns3:atemp>25.0</ns3:atemp>
          </ns3:TrackPointExtension>
        </extensions>
      </trkpt>
      <trkpt lat="42.5296122394502162933349609375" lon="19.97376185841858386993408203125">
        <ele>1231.199951171875</ele>
        <time>2026-06-19T07:31:15.000Z</time>
        <extensions>
          <ns3:TrackPointExtension>
            <ns3:atemp>25.0</ns3:atemp>
          </ns3:TrackPointExtension>
        </extensions>
      </trkpt>
      <trkpt lat="42.52959975041449069976806640625" lon="19.973777197301387786865234375">
        <ele>1231.5999755859375</ele>
        <time>2026-06-19T07:31:16.000Z</time>
        <extensions>
          <ns3:TrackPointExtension>
            <ns3:atemp>25.0</ns3:atemp>
          </ns3:TrackPointExtension>
        </extensions>
      </trkpt>
      <trkpt lat="42.5295887701213359832763671875" lon="19.9737989902496337890625">
        <ele>1231.800048828125</ele>
        <time>2026-06-19T07:31:17.000Z</time>
        <extensions>
          <ns3:TrackPointExtension>
            <ns3:atemp>25.0</ns3:atemp>
          </ns3:TrackPointExtension>
        </extensions>
      </trkpt>
      <trkpt lat="42.5295807234942913055419921875" lon="19.97382086701691150665283203125">
        <ele>1232</ele>
        <time>2026-06-19T07:31:18.000Z</time>
        <extensions>
          <ns3:TrackPointExtension>
            <ns3:atemp>25.0</ns3:atemp>
          </ns3:TrackPointExtension>
        </extensions>
      </trkpt>
      <trkpt lat="42.52957242541015148162841796875" lon="19.97383796609938144683837890625">
        <ele>1232.199951171875</ele>
        <time>2026-06-19T07:31:19.000Z</time>
        <extensions>
          <ns3:TrackPointExtension>
            <ns3:atemp>25.0</ns3:atemp>
          </ns3:TrackPointExtension>
        </extensions>
      </trkpt>
      <trkpt lat="42.52956680953502655029296875" lon="19.97385422699153423309326171875">
        <ele>1232.4000244140625</ele>
        <time>2026-06-19T07:31:20.000Z</time>
        <extensions>
          <ns3:TrackPointExtension>
            <ns3:atemp>25.0</ns3:atemp>
          </ns3:TrackPointExtension>
        </extensions>
      </trkpt>
      <trkpt lat="42.529567144811153411865234375" lon="19.97387484647333621978759765625">
        <ele>1232.5999755859375</ele>
        <time>2026-06-19T07:31:21.000Z</time>
        <extensions>
          <ns3:TrackPointExtension>
            <ns3:atemp>25.0</ns3:atemp>
          </ns3:TrackPointExtension>
        </extensions>
      </trkpt>
      <trkpt lat="42.5295609422028064727783203125" lon="19.9739000760018825531005859375">
        <ele>1232.800048828125</ele>
        <time>2026-06-19T07:31:22.000Z</time>
        <extensions>
          <ns3:TrackPointExtension>
            <ns3:atemp>25.0</ns3:atemp>
          </ns3:TrackPointExtension>
        </extensions>
      </trkpt>
      <trkpt lat="42.529553063213825225830078125" lon="19.97391440905630588531494140625">
        <ele>1233</ele>
        <time>2026-06-19T07:31:23.000Z</time>
        <extensions>
          <ns3:TrackPointExtension>
            <ns3:atemp>25.0</ns3:atemp>
          </ns3:TrackPointExtension>
        </extensions>
      </trkpt>
      <trkpt lat="42.52955339848995208740234375" lon="19.97393486090004444122314453125">
        <ele>1233.199951171875</ele>
        <time>2026-06-19T07:31:24.000Z</time>
        <extensions>
          <ns3:TrackPointExtension>
            <ns3:atemp>25.0</ns3:atemp>
          </ns3:TrackPointExtension>
        </extensions>
      </trkpt>
      <trkpt lat="42.5295492075383663177490234375" lon="19.97395455837249755859375">
        <ele>1233.4000244140625</ele>
        <time>2026-06-19T07:31:25.000Z</time>
        <extensions>
          <ns3:TrackPointExtension>
            <ns3:atemp>25.0</ns3:atemp>
          </ns3:TrackPointExtension>
        </extensions>
      </trkpt>
      <trkpt lat="42.52953805960714817047119140625" lon="19.973973333835601806640625">
        <ele>1233.800048828125</ele>
        <time>2026-06-19T07:31:26.000Z</time>
        <extensions>
          <ns3:TrackPointExtension>
            <ns3:atemp>25.0</ns3:atemp>
          </ns3:TrackPointExtension>
        </extensions>
      </trkpt>
      <trkpt lat="42.52952163107693195343017578125" lon="19.97399001382291316986083984375">
        <ele>1234</ele>
        <time>2026-06-19T07:31:27.000Z</time>
        <extensions>
          <ns3:TrackPointExtension>
            <ns3:atemp>25.0</ns3:atemp>
          </ns3:TrackPointExtension>
        </extensions>
      </trkpt>
      <trkpt lat="42.52950134687125682830810546875" lon="19.97399806044995784759521484375">
        <ele>1234.199951171875</ele>
        <time>2026-06-19T07:31:28.000Z</time>
        <extensions>
          <ns3:TrackPointExtension>
            <ns3:atemp>25.0</ns3:atemp>
          </ns3:TrackPointExtension>
        </extensions>
      </trkpt>
      <trkpt lat="42.52948508597910404205322265625" lon="19.97399856336414813995361328125">
        <ele>1234.5999755859375</ele>
        <time>2026-06-19T07:31:29.000Z</time>
        <extensions>
          <ns3:TrackPointExtension>
            <ns3:atemp>25.0</ns3:atemp>
          </ns3:TrackPointExtension>
        </extensions>
      </trkpt>
      <trkpt lat="42.52946882508695125579833984375" lon="19.97399009764194488525390625">
        <ele>1234.800048828125</ele>
        <time>2026-06-19T07:31:30.000Z</time>
        <extensions>
          <ns3:TrackPointExtension>
            <ns3:atemp>25.0</ns3:atemp>
          </ns3:TrackPointExtension>
        </extensions>
      </trkpt>
      <trkpt lat="42.529453821480274200439453125" lon="19.97397668659687042236328125">
        <ele>1235</ele>
        <time>2026-06-19T07:31:31.000Z</time>
        <extensions>
          <ns3:TrackPointExtension>
            <ns3:atemp>25.0</ns3:atemp>
          </ns3:TrackPointExtension>
        </extensions>
      </trkpt>
      <trkpt lat="42.52944602631032466888427734375" lon="19.973957240581512451171875">
        <ele>1235.199951171875</ele>
        <time>2026-06-19T07:31:32.000Z</time>
        <extensions>
          <ns3:TrackPointExtension>
            <ns3:atemp>25.0</ns3:atemp>
          </ns3:TrackPointExtension>
        </extensions>
      </trkpt>
      <trkpt lat="42.52943764440715312957763671875" lon="19.97393670491874217987060546875">
        <ele>1235.5999755859375</ele>
        <time>2026-06-19T07:31:33.000Z</time>
        <extensions>
          <ns3:TrackPointExtension>
            <ns3:atemp>25.0</ns3:atemp>
          </ns3:TrackPointExtension>
        </extensions>
      </trkpt>
      <trkpt lat="42.5294298492372035980224609375" lon="19.97392161749303340911865234375">
        <ele>1235.800048828125</ele>
        <time>2026-06-19T07:31:34.000Z</time>
        <extensions>
          <ns3:TrackPointExtension>
            <ns3:atemp>25.0</ns3:atemp>
          </ns3:TrackPointExtension>
        </extensions>
      </trkpt>
      <trkpt lat="42.52942708320915699005126953125" lon="19.973905272781848907470703125">
        <ele>1236</ele>
        <time>2026-06-19T07:31:35.000Z</time>
        <extensions>
          <ns3:TrackPointExtension>
            <ns3:atemp>25.0</ns3:atemp>
          </ns3:TrackPointExtension>
        </extensions>
      </trkpt>
      <trkpt lat="42.5294278375804424285888671875" lon="19.97388792224228382110595703125">
        <ele>1236.199951171875</ele>
        <time>2026-06-19T07:31:36.000Z</time>
        <extensions>
          <ns3:TrackPointExtension>
            <ns3:atemp>25.0</ns3:atemp>
          </ns3:TrackPointExtension>
        </extensions>
      </trkpt>
      <trkpt lat="42.5294298492372035980224609375" lon="19.97386646457016468048095703125">
        <ele>1236.4000244140625</ele>
        <time>2026-06-19T07:31:37.000Z</time>
        <extensions>
          <ns3:TrackPointExtension>
            <ns3:atemp>25.0</ns3:atemp>
          </ns3:TrackPointExtension>
        </extensions>
      </trkpt>
      <trkpt lat="42.529434375464916229248046875" lon="19.973842911422252655029296875">
        <ele>1236.5999755859375</ele>
        <time>2026-06-19T07:31:38.000Z</time>
        <extensions>
          <ns3:TrackPointExtension>
            <ns3:atemp>25.0</ns3:atemp>
          </ns3:TrackPointExtension>
        </extensions>
      </trkpt>
      <trkpt lat="42.52943672239780426025390625" lon="19.9738222919404506683349609375">
        <ele>1236.800048828125</ele>
        <time>2026-06-19T07:31:39.000Z</time>
        <extensions>
          <ns3:TrackPointExtension>
            <ns3:atemp>25.0</ns3:atemp>
          </ns3:TrackPointExtension>
        </extensions>
      </trkpt>
      <trkpt lat="42.52944451756775379180908203125" lon="19.97379697859287261962890625">
        <ele>1237</ele>
        <time>2026-06-19T07:31:40.000Z</time>
        <extensions>
          <ns3:TrackPointExtension>
            <ns3:atemp>25.0</ns3:atemp>
          </ns3:TrackPointExtension>
        </extensions>
      </trkpt>
      <trkpt lat="42.52945340238511562347412109375" lon="19.97377459891140460968017578125">
        <ele>1237.199951171875</ele>
        <time>2026-06-19T07:31:41.000Z</time>
        <extensions>
          <ns3:TrackPointExtension>
            <ns3:atemp>25.0</ns3:atemp>
          </ns3:TrackPointExtension>
        </extensions>
      </trkpt>
      <trkpt lat="42.529457509517669677734375" lon="19.97375414706766605377197265625">
        <ele>1237.4000244140625</ele>
        <time>2026-06-19T07:31:42.000Z</time>
        <extensions>
          <ns3:TrackPointExtension>
            <ns3:atemp>25.0</ns3:atemp>
          </ns3:TrackPointExtension>
        </extensions>
      </trkpt>
      <trkpt lat="42.5294580124318599700927734375" lon="19.97373352758586406707763671875">
        <ele>1237.800048828125</ele>
        <time>2026-06-19T07:31:43.000Z</time>
        <extensions>
          <ns3:TrackPointExtension>
            <ns3:atemp>25.0</ns3:atemp>
          </ns3:TrackPointExtension>
        </extensions>
      </trkpt>
      <trkpt lat="42.529457844793796539306640625" lon="19.97370754368603229522705078125">
        <ele>1237.800048828125</ele>
        <time>2026-06-19T07:31:44.000Z</time>
        <extensions>
          <ns3:TrackPointExtension>
            <ns3:atemp>25.0</ns3:atemp>
          </ns3:TrackPointExtension>
        </extensions>
      </trkpt>
      <trkpt lat="42.52945323474705219268798828125" lon="19.9736796319484710693359375">
        <ele>1238</ele>
        <time>2026-06-19T07:31:45.000Z</time>
        <extensions>
          <ns3:TrackPointExtension>
            <ns3:atemp>25.0</ns3:atemp>
          </ns3:TrackPointExtension>
        </extensions>
      </trkpt>
      <trkpt lat="42.52944937907159328460693359375" lon="19.97365884482860565185546875">
        <ele>1238.199951171875</ele>
        <time>2026-06-19T07:31:46.000Z</time>
        <extensions>
          <ns3:TrackPointExtension>
            <ns3:atemp>25.0</ns3:atemp>
          </ns3:TrackPointExtension>
        </extensions>
      </trkpt>
      <trkpt lat="42.52943412400782108306884765625" lon="19.97363596223294734954833984375">
        <ele>1238.4000244140625</ele>
        <time>2026-06-19T07:31:47.000Z</time>
        <extensions>
          <ns3:TrackPointExtension>
            <ns3:atemp>25.0</ns3:atemp>
          </ns3:TrackPointExtension>
        </extensions>
      </trkpt>
      <trkpt lat="42.52941853366792201995849609375" lon="19.97362456284463405609130859375">
        <ele>1238.800048828125</ele>
        <time>2026-06-19T07:31:48.000Z</time>
        <extensions>
          <ns3:TrackPointExtension>
            <ns3:atemp>25.0</ns3:atemp>
          </ns3:TrackPointExtension>
        </extensions>
      </trkpt>
      <trkpt lat="42.52940327860414981842041015625" lon="19.97362590394914150238037109375">
        <ele>1239</ele>
        <time>2026-06-19T07:31:49.000Z</time>
        <extensions>
          <ns3:TrackPointExtension>
            <ns3:atemp>25.0</ns3:atemp>
          </ns3:TrackPointExtension>
        </extensions>
      </trkpt>
      <trkpt lat="42.52938835881650447845458984375" lon="19.9736264906823635101318359375">
        <ele>1239.199951171875</ele>
        <time>2026-06-19T07:31:50.000Z</time>
        <extensions>
          <ns3:TrackPointExtension>
            <ns3:atemp>25.0</ns3:atemp>
          </ns3:TrackPointExtension>
        </extensions>
      </trkpt>
      <trkpt lat="42.52937637269496917724609375" lon="19.9736285023391246795654296875">
        <ele>1239.199951171875</ele>
        <time>2026-06-19T07:31:51.000Z</time>
        <extensions>
          <ns3:TrackPointExtension>
            <ns3:atemp>25.0</ns3:atemp>
          </ns3:TrackPointExtension>
        </extensions>
      </trkpt>
      <trkpt lat="42.52937226556241512298583984375" lon="19.9736393988132476806640625">
        <ele>1239.4000244140625</ele>
        <time>2026-06-19T07:31:52.000Z</time>
        <extensions>
          <ns3:TrackPointExtension>
            <ns3:atemp>25.0</ns3:atemp>
          </ns3:TrackPointExtension>
        </extensions>
      </trkpt>
      <trkpt lat="42.52936405129730701446533203125" lon="19.97365775518119335174560546875">
        <ele>1239.4000244140625</ele>
        <time>2026-06-19T07:31:53.000Z</time>
        <extensions>
          <ns3:TrackPointExtension>
            <ns3:atemp>25.0</ns3:atemp>
          </ns3:TrackPointExtension>
        </extensions>
      </trkpt>
      <trkpt lat="42.5293596088886260986328125" lon="19.9736794643104076385498046875">
        <ele>1239.5999755859375</ele>
        <time>2026-06-19T07:31:54.000Z</time>
        <extensions>
          <ns3:TrackPointExtension>
            <ns3:atemp>25.0</ns3:atemp>
          </ns3:TrackPointExtension>
        </extensions>
      </trkpt>
      <trkpt lat="42.52935600467026233673095703125" lon="19.9736975692212581634521484375">
        <ele>1239.5999755859375</ele>
        <time>2026-06-19T07:31:55.000Z</time>
        <extensions>
          <ns3:TrackPointExtension>
            <ns3:atemp>25.0</ns3:atemp>
          </ns3:TrackPointExtension>
        </extensions>
      </trkpt>
      <trkpt lat="42.529351897537708282470703125" lon="19.97371039353311061859130859375">
        <ele>1239.800048828125</ele>
        <time>2026-06-19T07:31:56.000Z</time>
        <extensions>
          <ns3:TrackPointExtension>
            <ns3:atemp>25.0</ns3:atemp>
          </ns3:TrackPointExtension>
        </extensions>
      </trkpt>
      <trkpt lat="42.5293513946235179901123046875" lon="19.973719529807567596435546875">
        <ele>1240</ele>
        <time>2026-06-19T07:31:57.000Z</time>
        <extensions>
          <ns3:TrackPointExtension>
            <ns3:atemp>25.0</ns3:atemp>
          </ns3:TrackPointExtension>
        </extensions>
      </trkpt>
      <trkpt lat="42.52935047261416912078857421875" lon="19.97373403050005435943603515625">
        <ele>1240.4000244140625</ele>
        <time>2026-06-19T07:31:58.000Z</time>
        <extensions>
          <ns3:TrackPointExtension>
            <ns3:atemp>25.0</ns3:atemp>
          </ns3:TrackPointExtension>
        </extensions>
      </trkpt>
      <trkpt lat="42.52934896387159824371337890625" lon="19.9737468548119068145751953125">
        <ele>1240.5999755859375</ele>
        <time>2026-06-19T07:31:59.000Z</time>
        <extensions>
          <ns3:TrackPointExtension>
            <ns3:atemp>25.0</ns3:atemp>
          </ns3:TrackPointExtension>
        </extensions>
      </trkpt>
      <trkpt lat="42.52934544347226619720458984375" lon="19.97376102022826671600341796875">
        <ele>1241</ele>
        <time>2026-06-19T07:32:00.000Z</time>
        <extensions>
          <ns3:TrackPointExtension>
            <ns3:atemp>25.0</ns3:atemp>
          </ns3:TrackPointExtension>
        </extensions>
      </trkpt>
      <trkpt lat="42.5293381512165069580078125" lon="19.97377493418753147125244140625">
        <ele>1241.199951171875</ele>
        <time>2026-06-19T07:32:01.000Z</time>
        <extensions>
          <ns3:TrackPointExtension>
            <ns3:atemp>25.0</ns3:atemp>
          </ns3:TrackPointExtension>
        </extensions>
      </trkpt>
      <trkpt lat="42.52933002077043056488037109375" lon="19.97379370965063571929931640625">
        <ele>1241.5999755859375</ele>
        <time>2026-06-19T07:32:02.000Z</time>
        <extensions>
          <ns3:TrackPointExtension>
            <ns3:atemp>25.0</ns3:atemp>
          </ns3:TrackPointExtension>
        </extensions>
      </trkpt>
      <trkpt lat="42.52932800911366939544677734375" lon="19.973808713257312774658203125">
        <ele>1241.800048828125</ele>
        <time>2026-06-19T07:32:03.000Z</time>
        <extensions>
          <ns3:TrackPointExtension>
            <ns3:atemp>25.0</ns3:atemp>
          </ns3:TrackPointExtension>
        </extensions>
      </trkpt>
      <trkpt lat="42.5293222256004810333251953125" lon="19.973826147615909576416015625">
        <ele>1242.199951171875</ele>
        <time>2026-06-19T07:32:04.000Z</time>
        <extensions>
          <ns3:TrackPointExtension>
            <ns3:atemp>25.0</ns3:atemp>
          </ns3:TrackPointExtension>
        </extensions>
      </trkpt>
      <trkpt lat="42.52931577153503894805908203125" lon="19.97384768910706043243408203125">
        <ele>1242.4000244140625</ele>
        <time>2026-06-19T07:32:05.000Z</time>
        <extensions>
          <ns3:TrackPointExtension>
            <ns3:atemp>25.0</ns3:atemp>
          </ns3:TrackPointExtension>
        </extensions>
      </trkpt>
      <trkpt lat="42.52930319868028163909912109375" lon="19.97385942377150058746337890625">
        <ele>1242.800048828125</ele>
        <time>2026-06-19T07:32:06.000Z</time>
        <extensions>
          <ns3:TrackPointExtension>
            <ns3:atemp>25.0</ns3:atemp>
          </ns3:TrackPointExtension>
        </extensions>
      </trkpt>
      <trkpt lat="42.5292974151670932769775390625" lon="19.9738766066730022430419921875">
        <ele>1243</ele>
        <time>2026-06-19T07:32:07.000Z</time>
        <extensions>
          <ns3:TrackPointExtension>
            <ns3:atemp>25.0</ns3:atemp>
          </ns3:TrackPointExtension>
        </extensions>
      </trkpt>
      <trkpt lat="42.529297582805156707763671875" lon="19.973891191184520721435546875">
        <ele>1243.4000244140625</ele>
        <time>2026-06-19T07:32:08.000Z</time>
        <extensions>
          <ns3:TrackPointExtension>
            <ns3:atemp>25.0</ns3:atemp>
          </ns3:TrackPointExtension>
        </extensions>
      </trkpt>
      <trkpt lat="42.5292964093387126922607421875" lon="19.9739076197147369384765625">
        <ele>1243.5999755859375</ele>
        <time>2026-06-19T07:32:09.000Z</time>
        <extensions>
          <ns3:TrackPointExtension>
            <ns3:atemp>25.0</ns3:atemp>
          </ns3:TrackPointExtension>
        </extensions>
      </trkpt>
      <trkpt lat="42.52929833717644214630126953125" lon="19.973926730453968048095703125">
        <ele>1244</ele>
        <time>2026-06-19T07:32:10.000Z</time>
        <extensions>
          <ns3:TrackPointExtension>
            <ns3:atemp>25.0</ns3:atemp>
          </ns3:TrackPointExtension>
        </extensions>
      </trkpt>
      <trkpt lat="42.52929565496742725372314453125" lon="19.973946511745452880859375">
        <ele>1244.4000244140625</ele>
        <time>2026-06-19T07:32:11.000Z</time>
        <extensions>
          <ns3:TrackPointExtension>
            <ns3:atemp>25.0</ns3:atemp>
          </ns3:TrackPointExtension>
        </extensions>
      </trkpt>
      <trkpt lat="42.52929163165390491485595703125" lon="19.97396788559854030609130859375">
        <ele>1244.5999755859375</ele>
        <time>2026-06-19T07:32:12.000Z</time>
        <extensions>
          <ns3:TrackPointExtension>
            <ns3:atemp>25.0</ns3:atemp>
          </ns3:TrackPointExtension>
        </extensions>
      </trkpt>
      <trkpt lat="42.52928475849330425262451171875" lon="19.9739838950335979461669921875">
        <ele>1245</ele>
        <time>2026-06-19T07:32:13.000Z</time>
        <extensions>
          <ns3:TrackPointExtension>
            <ns3:atemp>25.0</ns3:atemp>
          </ns3:TrackPointExtension>
        </extensions>
      </trkpt>
      <trkpt lat="42.5292766280472278594970703125" lon="19.97399814426898956298828125">
        <ele>1245.199951171875</ele>
        <time>2026-06-19T07:32:14.000Z</time>
        <extensions>
          <ns3:TrackPointExtension>
            <ns3:atemp>25.0</ns3:atemp>
          </ns3:TrackPointExtension>
        </extensions>
      </trkpt>
      <trkpt lat="42.5292742811143398284912109375" lon="19.9740170873701572418212890625">
        <ele>1245.5999755859375</ele>
        <time>2026-06-19T07:32:15.000Z</time>
        <extensions>
          <ns3:TrackPointExtension>
            <ns3:atemp>25.0</ns3:atemp>
          </ns3:TrackPointExtension>
        </extensions>
      </trkpt>
      <trkpt lat="42.52927042543888092041015625" lon="19.9740355275571346282958984375">
        <ele>1246</ele>
        <time>2026-06-19T07:32:16.000Z</time>
        <extensions>
          <ns3:TrackPointExtension>
            <ns3:atemp>25.0</ns3:atemp>
          </ns3:TrackPointExtension>
        </extensions>
      </trkpt>
      <trkpt lat="42.5292658992111682891845703125" lon="19.9740564823150634765625">
        <ele>1246.199951171875</ele>
        <time>2026-06-19T07:32:17.000Z</time>
        <extensions>
          <ns3:TrackPointExtension>
            <ns3:atemp>25.0</ns3:atemp>
          </ns3:TrackPointExtension>
        </extensions>
      </trkpt>
      <trkpt lat="42.52925701439380645751953125" lon="19.9740754254162311553955078125">
        <ele>1246.5999755859375</ele>
        <time>2026-06-19T07:32:18.000Z</time>
        <extensions>
          <ns3:TrackPointExtension>
            <ns3:atemp>25.0</ns3:atemp>
          </ns3:TrackPointExtension>
        </extensions>
      </trkpt>
      <trkpt lat="42.52925056032836437225341796875" lon="19.97409545816481113433837890625">
        <ele>1246.800048828125</ele>
        <time>2026-06-19T07:32:19.000Z</time>
        <extensions>
          <ns3:TrackPointExtension>
            <ns3:atemp>25.0</ns3:atemp>
          </ns3:TrackPointExtension>
        </extensions>
      </trkpt>
      <trkpt lat="42.52923949621617794036865234375" lon="19.97411549091339111328125">
        <ele>1247.199951171875</ele>
        <time>2026-06-19T07:32:20.000Z</time>
        <extensions>
          <ns3:TrackPointExtension>
            <ns3:atemp>25.0</ns3:atemp>
          </ns3:TrackPointExtension>
        </extensions>
      </trkpt>
      <trkpt lat="42.52923446707427501678466796875" lon="19.974133260548114776611328125">
        <ele>1247.5999755859375</ele>
        <time>2026-06-19T07:32:21.000Z</time>
        <extensions>
          <ns3:TrackPointExtension>
            <ns3:atemp>25.0</ns3:atemp>
          </ns3:TrackPointExtension>
        </extensions>
      </trkpt>
      <trkpt lat="42.52922792918980121612548828125" lon="19.97414457611739635467529296875">
        <ele>1247.800048828125</ele>
        <time>2026-06-19T07:32:22.000Z</time>
        <extensions>
          <ns3:TrackPointExtension>
            <ns3:atemp>25.0</ns3:atemp>
          </ns3:TrackPointExtension>
        </extensions>
      </trkpt>
      <trkpt lat="42.5292209722101688385009765625" lon="19.97416184283792972564697265625">
        <ele>1248</ele>
        <time>2026-06-19T07:32:23.000Z</time>
        <extensions>
          <ns3:TrackPointExtension>
            <ns3:atemp>25.0</ns3:atemp>
          </ns3:TrackPointExtension>
        </extensions>
      </trkpt>
      <trkpt lat="42.529221139848232269287109375" lon="19.97417651116847991943359375">
        <ele>1248.199951171875</ele>
        <time>2026-06-19T07:32:24.000Z</time>
        <extensions>
          <ns3:TrackPointExtension>
            <ns3:atemp>25.0</ns3:atemp>
          </ns3:TrackPointExtension>
        </extensions>
      </trkpt>
      <trkpt lat="42.52921544015407562255859375" lon="19.97419469989836215972900390625">
        <ele>1248.4000244140625</ele>
        <time>2026-06-19T07:32:25.000Z</time>
        <extensions>
          <ns3:TrackPointExtension>
            <ns3:atemp>25.0</ns3:atemp>
          </ns3:TrackPointExtension>
        </extensions>
      </trkpt>
      <trkpt lat="42.52920697443187236785888671875" lon="19.97422018088400363922119140625">
        <ele>1248.5999755859375</ele>
        <time>2026-06-19T07:32:26.000Z</time>
        <extensions>
          <ns3:TrackPointExtension>
            <ns3:atemp>25.0</ns3:atemp>
          </ns3:TrackPointExtension>
        </extensions>
      </trkpt>
      <trkpt lat="42.5291961617767810821533203125" lon="19.974241554737091064453125">
        <ele>1249</ele>
        <time>2026-06-19T07:32:27.000Z</time>
        <extensions>
          <ns3:TrackPointExtension>
            <ns3:atemp>25.0</ns3:atemp>
          </ns3:TrackPointExtension>
        </extensions>
      </trkpt>
      <trkpt lat="42.529188282787799835205078125" lon="19.97425722889602184295654296875">
        <ele>1249.199951171875</ele>
        <time>2026-06-19T07:32:28.000Z</time>
        <extensions>
          <ns3:TrackPointExtension>
            <ns3:atemp>25.0</ns3:atemp>
          </ns3:TrackPointExtension>
        </extensions>
      </trkpt>
      <trkpt lat="42.529174201190471649169921875" lon="19.9742772616446018218994140625">
        <ele>1249.4000244140625</ele>
        <time>2026-06-19T07:32:29.000Z</time>
        <extensions>
          <ns3:TrackPointExtension>
            <ns3:atemp>25.0</ns3:atemp>
          </ns3:TrackPointExtension>
        </extensions>
      </trkpt>
      <trkpt lat="42.5291609577834606170654296875" lon="19.97428773902356624603271484375">
        <ele>1249.5999755859375</ele>
        <time>2026-06-19T07:32:30.000Z</time>
        <extensions>
          <ns3:TrackPointExtension>
            <ns3:atemp>25.0</ns3:atemp>
          </ns3:TrackPointExtension>
        </extensions>
      </trkpt>
      <trkpt lat="42.52915768884122371673583984375" lon="19.97430031187832355499267578125">
        <ele>1249.800048828125</ele>
        <time>2026-06-19T07:32:31.000Z</time>
        <extensions>
          <ns3:TrackPointExtension>
            <ns3:atemp>25.0</ns3:atemp>
          </ns3:TrackPointExtension>
        </extensions>
      </trkpt>
      <trkpt lat="42.52915333025157451629638671875" lon="19.97431757859885692596435546875">
        <ele>1250</ele>
        <time>2026-06-19T07:32:32.000Z</time>
        <extensions>
          <ns3:TrackPointExtension>
            <ns3:atemp>25.0</ns3:atemp>
          </ns3:TrackPointExtension>
        </extensions>
      </trkpt>
      <trkpt lat="42.5291441939771175384521484375" lon="19.97433434240520000457763671875">
        <ele>1250.4000244140625</ele>
        <time>2026-06-19T07:32:33.000Z</time>
        <extensions>
          <ns3:TrackPointExtension>
            <ns3:atemp>25.0</ns3:atemp>
          </ns3:TrackPointExtension>
        </extensions>
      </trkpt>
      <trkpt lat="42.52914293669164180755615234375" lon="19.97435395605862140655517578125">
        <ele>1250.800048828125</ele>
        <time>2026-06-19T07:32:34.000Z</time>
        <extensions>
          <ns3:TrackPointExtension>
            <ns3:atemp>25.0</ns3:atemp>
          </ns3:TrackPointExtension>
        </extensions>
      </trkpt>
      <trkpt lat="42.5291297771036624908447265625" lon="19.9743687920272350311279296875">
        <ele>1251</ele>
        <time>2026-06-19T07:32:35.000Z</time>
        <extensions>
          <ns3:TrackPointExtension>
            <ns3:atemp>25.0</ns3:atemp>
          </ns3:TrackPointExtension>
        </extensions>
      </trkpt>
      <trkpt lat="42.52912701107561588287353515625" lon="19.97438563965260982513427734375">
        <ele>1251.199951171875</ele>
        <time>2026-06-19T07:32:36.000Z</time>
        <extensions>
          <ns3:TrackPointExtension>
            <ns3:atemp>25.0</ns3:atemp>
          </ns3:TrackPointExtension>
        </extensions>
      </trkpt>
      <trkpt lat="42.5291208922863006591796875" lon="19.97440407983958721160888671875">
        <ele>1251.4000244140625</ele>
        <time>2026-06-19T07:32:37.000Z</time>
        <extensions>
          <ns3:TrackPointExtension>
            <ns3:atemp>25.0</ns3:atemp>
          </ns3:TrackPointExtension>
        </extensions>
      </trkpt>
      <trkpt lat="42.529114522039890289306640625" lon="19.974423609673976898193359375">
        <ele>1251.5999755859375</ele>
        <time>2026-06-19T07:32:38.000Z</time>
        <extensions>
          <ns3:TrackPointExtension>
            <ns3:atemp>25.0</ns3:atemp>
          </ns3:TrackPointExtension>
        </extensions>
      </trkpt>
      <trkpt lat="42.52911259420216083526611328125" lon="19.97444448061287403106689453125">
        <ele>1252</ele>
        <time>2026-06-19T07:32:39.000Z</time>
        <extensions>
          <ns3:TrackPointExtension>
            <ns3:atemp>25.0</ns3:atemp>
          </ns3:TrackPointExtension>
        </extensions>
      </trkpt>
      <trkpt lat="42.52911292947828769683837890625" lon="19.9744596518576145172119140625">
        <ele>1252.199951171875</ele>
        <time>2026-06-19T07:32:40.000Z</time>
        <extensions>
          <ns3:TrackPointExtension>
            <ns3:atemp>25.0</ns3:atemp>
          </ns3:TrackPointExtension>
        </extensions>
      </trkpt>
      <trkpt lat="42.52910957671701908111572265625" lon="19.97447432018816471099853515625">
        <ele>1252.4000244140625</ele>
        <time>2026-06-19T07:32:41.000Z</time>
        <extensions>
          <ns3:TrackPointExtension>
            <ns3:atemp>25.0</ns3:atemp>
          </ns3:TrackPointExtension>
        </extensions>
      </trkpt>
      <trkpt lat="42.52910203300416469573974609375" lon="19.97448756359517574310302734375">
        <ele>1252.800048828125</ele>
        <time>2026-06-19T07:32:42.000Z</time>
        <extensions>
          <ns3:TrackPointExtension>
            <ns3:atemp>25.0</ns3:atemp>
          </ns3:TrackPointExtension>
        </extensions>
      </trkpt>
      <trkpt lat="42.529092393815517425537109375" lon="19.974502734839916229248046875">
        <ele>1253</ele>
        <time>2026-06-19T07:32:43.000Z</time>
        <extensions>
          <ns3:TrackPointExtension>
            <ns3:atemp>25.0</ns3:atemp>
          </ns3:TrackPointExtension>
        </extensions>
      </trkpt>
      <trkpt lat="42.52908744849264621734619140625" lon="19.9745206721127033233642578125">
        <ele>1253.4000244140625</ele>
        <time>2026-06-19T07:32:44.000Z</time>
        <extensions>
          <ns3:TrackPointExtension>
            <ns3:atemp>25.0</ns3:atemp>
          </ns3:TrackPointExtension>
        </extensions>
      </trkpt>
      <trkpt lat="42.5290751270949840545654296875" lon="19.97453936375677585601806640625">
        <ele>1253.5999755859375</ele>
        <time>2026-06-19T07:32:45.000Z</time>
        <extensions>
          <ns3:TrackPointExtension>
            <ns3:atemp>25.0</ns3:atemp>
          </ns3:TrackPointExtension>
        </extensions>
      </trkpt>
      <trkpt lat="42.5290694274008274078369140625" lon="19.974559731781482696533203125">
        <ele>1253.800048828125</ele>
        <time>2026-06-19T07:32:46.000Z</time>
        <extensions>
          <ns3:TrackPointExtension>
            <ns3:atemp>25.0</ns3:atemp>
          </ns3:TrackPointExtension>
        </extensions>
      </trkpt>
      <trkpt lat="42.52905987203121185302734375" lon="19.97457339428365230560302734375">
        <ele>1254</ele>
        <time>2026-06-19T07:32:47.000Z</time>
        <extensions>
          <ns3:TrackPointExtension>
            <ns3:atemp>25.0</ns3:atemp>
          </ns3:TrackPointExtension>
        </extensions>
      </trkpt>
      <trkpt lat="42.52904637716710567474365234375" lon="19.97458948753774166107177734375">
        <ele>1254</ele>
        <time>2026-06-19T07:32:48.000Z</time>
        <extensions>
          <ns3:TrackPointExtension>
            <ns3:atemp>25.0</ns3:atemp>
          </ns3:TrackPointExtension>
        </extensions>
      </trkpt>
      <trkpt lat="42.52903849817812442779541015625" lon="19.974609352648258209228515625">
        <ele>1254.199951171875</ele>
        <time>2026-06-19T07:32:49.000Z</time>
        <extensions>
          <ns3:TrackPointExtension>
            <ns3:atemp>25.0</ns3:atemp>
          </ns3:TrackPointExtension>
        </extensions>
      </trkpt>
      <trkpt lat="42.52903439104557037353515625" lon="19.9746358394622802734375">
        <ele>1254.5999755859375</ele>
        <time>2026-06-19T07:32:50.000Z</time>
        <extensions>
          <ns3:TrackPointExtension>
            <ns3:atemp>25.0</ns3:atemp>
          </ns3:TrackPointExtension>
        </extensions>
      </trkpt>
      <trkpt lat="42.52903112210333347320556640625" lon="19.9746648408472537994384765625">
        <ele>1254.800048828125</ele>
        <time>2026-06-19T07:32:51.000Z</time>
        <extensions>
          <ns3:TrackPointExtension>
            <ns3:atemp>25.0</ns3:atemp>
          </ns3:TrackPointExtension>
        </extensions>
      </trkpt>
      <trkpt lat="42.5290275178849697113037109375" lon="19.97468613088130950927734375">
        <ele>1255</ele>
        <time>2026-06-19T07:32:52.000Z</time>
        <extensions>
          <ns3:TrackPointExtension>
            <ns3:atemp>25.0</ns3:atemp>
          </ns3:TrackPointExtension>
        </extensions>
      </trkpt>
      <trkpt lat="42.5290261767804622650146484375" lon="19.97471840120851993560791015625">
        <ele>1255.199951171875</ele>
        <time>2026-06-19T07:32:53.000Z</time>
        <extensions>
          <ns3:TrackPointExtension>
            <ns3:atemp>25.0</ns3:atemp>
          </ns3:TrackPointExtension>
        </extensions>
      </trkpt>
      <trkpt lat="42.52902642823755741119384765625" lon="19.9747446365654468536376953125">
        <ele>1255.4000244140625</ele>
        <time>2026-06-19T07:32:54.000Z</time>
        <extensions>
          <ns3:TrackPointExtension>
            <ns3:atemp>25.0</ns3:atemp>
          </ns3:TrackPointExtension>
        </extensions>
      </trkpt>
      <trkpt lat="42.52902559004724025726318359375" lon="19.97477388940751552581787109375">
        <ele>1255.800048828125</ele>
        <time>2026-06-19T07:32:55.000Z</time>
        <extensions>
          <ns3:TrackPointExtension>
            <ns3:atemp>25.0</ns3:atemp>
          </ns3:TrackPointExtension>
        </extensions>
      </trkpt>
      <trkpt lat="42.529022656381130218505859375" lon="19.97479886747896671295166015625">
        <ele>1256</ele>
        <time>2026-06-19T07:32:56.000Z</time>
        <extensions>
          <ns3:TrackPointExtension>
            <ns3:atemp>24.0</ns3:atemp>
          </ns3:TrackPointExtension>
        </extensions>
      </trkpt>
      <trkpt lat="42.52901293337345123291015625" lon="19.9748264439404010772705078125">
        <ele>1256.199951171875</ele>
        <time>2026-06-19T07:32:57.000Z</time>
        <extensions>
          <ns3:TrackPointExtension>
            <ns3:atemp>24.0</ns3:atemp>
          </ns3:TrackPointExtension>
        </extensions>
      </trkpt>
      <trkpt lat="42.52900220453739166259765625" lon="19.97484530322253704071044921875">
        <ele>1256.4000244140625</ele>
        <time>2026-06-19T07:32:58.000Z</time>
        <extensions>
          <ns3:TrackPointExtension>
            <ns3:atemp>24.0</ns3:atemp>
          </ns3:TrackPointExtension>
        </extensions>
      </trkpt>
      <trkpt lat="42.52899591811001300811767578125" lon="19.97486340813338756561279296875">
        <ele>1256.5999755859375</ele>
        <time>2026-06-19T07:32:59.000Z</time>
        <extensions>
          <ns3:TrackPointExtension>
            <ns3:atemp>24.0</ns3:atemp>
          </ns3:TrackPointExtension>
        </extensions>
      </trkpt>
      <trkpt lat="42.5289881229400634765625" lon="19.97488285414874553680419921875">
        <ele>1257</ele>
        <time>2026-06-19T07:33:00.000Z</time>
        <extensions>
          <ns3:TrackPointExtension>
            <ns3:atemp>24.0</ns3:atemp>
          </ns3:TrackPointExtension>
        </extensions>
      </trkpt>
      <trkpt lat="42.528980411589145660400390625" lon="19.9748985283076763153076171875">
        <ele>1257.199951171875</ele>
        <time>2026-06-19T07:33:01.000Z</time>
        <extensions>
          <ns3:TrackPointExtension>
            <ns3:atemp>24.0</ns3:atemp>
          </ns3:TrackPointExtension>
        </extensions>
      </trkpt>
      <trkpt lat="42.52897278405725955963134765625" lon="19.9749159626662731170654296875">
        <ele>1257.5999755859375</ele>
        <time>2026-06-19T07:33:02.000Z</time>
        <extensions>
          <ns3:TrackPointExtension>
            <ns3:atemp>24.0</ns3:atemp>
          </ns3:TrackPointExtension>
        </extensions>
      </trkpt>
      <trkpt lat="42.52896255813539028167724609375" lon="19.97493297792971134185791015625">
        <ele>1257.800048828125</ele>
        <time>2026-06-19T07:33:03.000Z</time>
        <extensions>
          <ns3:TrackPointExtension>
            <ns3:atemp>24.0</ns3:atemp>
          </ns3:TrackPointExtension>
        </extensions>
      </trkpt>
      <trkpt lat="42.52895501442253589630126953125" lon="19.974954016506671905517578125">
        <ele>1258</ele>
        <time>2026-06-19T07:33:04.000Z</time>
        <extensions>
          <ns3:TrackPointExtension>
            <ns3:atemp>24.0</ns3:atemp>
          </ns3:TrackPointExtension>
        </extensions>
      </trkpt>
      <trkpt lat="42.52894830889999866485595703125" lon="19.9749763123691082000732421875">
        <ele>1258.199951171875</ele>
        <time>2026-06-19T07:33:05.000Z</time>
        <extensions>
          <ns3:TrackPointExtension>
            <ns3:atemp>24.0</ns3:atemp>
          </ns3:TrackPointExtension>
        </extensions>
      </trkpt>
      <trkpt lat="42.52893841825425624847412109375" lon="19.97499349527060985565185546875">
        <ele>1258.4000244140625</ele>
        <time>2026-06-19T07:33:06.000Z</time>
        <extensions>
          <ns3:TrackPointExtension>
            <ns3:atemp>24.0</ns3:atemp>
          </ns3:TrackPointExtension>
        </extensions>
      </trkpt>
      <trkpt lat="42.52892785705626010894775390625" lon="19.97500338591635227203369140625">
        <ele>1258.5999755859375</ele>
        <time>2026-06-19T07:33:07.000Z</time>
        <extensions>
          <ns3:TrackPointExtension>
            <ns3:atemp>24.0</ns3:atemp>
          </ns3:TrackPointExtension>
        </extensions>
      </trkpt>
      <trkpt lat="42.5289162062108516693115234375" lon="19.97502048499882221221923828125">
        <ele>1258.800048828125</ele>
        <time>2026-06-19T07:33:08.000Z</time>
        <extensions>
          <ns3:TrackPointExtension>
            <ns3:atemp>24.0</ns3:atemp>
          </ns3:TrackPointExtension>
        </extensions>
      </trkpt>
      <trkpt lat="42.52890908159315586090087890625" lon="19.97503926046192646026611328125">
        <ele>1259</ele>
        <time>2026-06-19T07:33:09.000Z</time>
        <extensions>
          <ns3:TrackPointExtension>
            <ns3:atemp>24.0</ns3:atemp>
          </ns3:TrackPointExtension>
        </extensions>
      </trkpt>
      <trkpt lat="42.52890271134674549102783203125" lon="19.975044541060924530029296875">
        <ele>1259.199951171875</ele>
        <time>2026-06-19T07:33:10.000Z</time>
        <extensions>
          <ns3:TrackPointExtension>
            <ns3:atemp>24.0</ns3:atemp>
          </ns3:TrackPointExtension>
        </extensions>
      </trkpt>
      <trkpt lat="42.528902627527713775634765625" lon="19.9750463850796222686767578125">
        <ele>1259.4000244140625</ele>
        <time>2026-06-19T07:33:11.000Z</time>
        <extensions>
          <ns3:TrackPointExtension>
            <ns3:atemp>24.0</ns3:atemp>
          </ns3:TrackPointExtension>
        </extensions>
      </trkpt>
      <trkpt lat="42.528902627527713775634765625" lon="19.97504663653671741485595703125">
        <ele>1259.5999755859375</ele>
        <time>2026-06-19T07:33:12.000Z</time>
        <extensions>
          <ns3:TrackPointExtension>
            <ns3:atemp>24.0</ns3:atemp>
          </ns3:TrackPointExtension>
        </extensions>
      </trkpt>
      <trkpt lat="42.52890237607061862945556640625" lon="19.97504713945090770721435546875">
        <ele>1259.800048828125</ele>
        <time>2026-06-19T07:33:13.000Z</time>
        <extensions>
          <ns3:TrackPointExtension>
            <ns3:atemp>24.0</ns3:atemp>
          </ns3:TrackPointExtension>
        </extensions>
      </trkpt>
      <trkpt lat="42.528895922005176544189453125" lon="19.9750649929046630859375">
        <ele>1259.800048828125</ele>
        <time>2026-06-19T07:33:14.000Z</time>
        <extensions>
          <ns3:TrackPointExtension>
            <ns3:atemp>24.0</ns3:atemp>
          </ns3:TrackPointExtension>
        </extensions>
      </trkpt>
      <trkpt lat="42.5288920663297176361083984375" lon="19.97507211752235889434814453125">
        <ele>1260</ele>
        <time>2026-06-19T07:33:15.000Z</time>
        <extensions>
          <ns3:TrackPointExtension>
            <ns3:atemp>24.0</ns3:atemp>
          </ns3:TrackPointExtension>
        </extensions>
      </trkpt>
      <trkpt lat="42.52888619899749755859375" lon="19.97507764957845211029052734375">
        <ele>1260</ele>
        <time>2026-06-19T07:33:16.000Z</time>
        <extensions>
          <ns3:TrackPointExtension>
            <ns3:atemp>24.0</ns3:atemp>
          </ns3:TrackPointExtension>
        </extensions>
      </trkpt>
      <trkpt lat="42.5288816727697849273681640625" lon="19.97509055770933628082275390625">
        <ele>1260.199951171875</ele>
        <time>2026-06-19T07:33:17.000Z</time>
        <extensions>
          <ns3:TrackPointExtension>
            <ns3:atemp>24.0</ns3:atemp>
          </ns3:TrackPointExtension>
        </extensions>
      </trkpt>
      <trkpt lat="42.52887882292270660400390625" lon="19.97510053217411041259765625">
        <ele>1260.4000244140625</ele>
        <time>2026-06-19T07:33:18.000Z</time>
        <extensions>
          <ns3:TrackPointExtension>
            <ns3:atemp>24.0</ns3:atemp>
          </ns3:TrackPointExtension>
        </extensions>
      </trkpt>
      <trkpt lat="42.52887706272304058074951171875" lon="19.97509994544088840484619140625">
        <ele>1260.5999755859375</ele>
        <time>2026-06-19T07:33:19.000Z</time>
        <extensions>
          <ns3:TrackPointExtension>
            <ns3:atemp>24.0</ns3:atemp>
          </ns3:TrackPointExtension>
        </extensions>
      </trkpt>
      <trkpt lat="42.52887723036110401153564453125" lon="19.97510681860148906707763671875">
        <ele>1260.5999755859375</ele>
        <time>2026-06-19T07:33:20.000Z</time>
        <extensions>
          <ns3:TrackPointExtension>
            <ns3:atemp>24.0</ns3:atemp>
          </ns3:TrackPointExtension>
        </extensions>
      </trkpt>
      <trkpt lat="42.5288773141801357269287109375" lon="19.97510681860148906707763671875">
        <ele>1260.800048828125</ele>
        <time>2026-06-19T07:33:21.000Z</time>
        <extensions>
          <ns3:TrackPointExtension>
            <ns3:atemp>24.0</ns3:atemp>
          </ns3:TrackPointExtension>
        </extensions>
      </trkpt>
      <trkpt lat="42.5288773141801357269287109375" lon="19.97510681860148906707763671875">
        <ele>1261</ele>
        <time>2026-06-19T07:33:22.000Z</time>
        <extensions>
          <ns3:TrackPointExtension>
            <ns3:atemp>24.0</ns3:atemp>
          </ns3:TrackPointExtension>
        </extensions>
      </trkpt>
      <trkpt lat="42.5288773141801357269287109375" lon="19.97510681860148906707763671875">
        <ele>1261</ele>
        <time>2026-06-19T07:33:23.000Z</time>
        <extensions>
          <ns3:TrackPointExtension>
            <ns3:atemp>24.0</ns3:atemp>
          </ns3:TrackPointExtension>
        </extensions>
      </trkpt>
      <trkpt lat="42.5288773141801357269287109375" lon="19.9751077406108379364013671875">
        <ele>1261</ele>
        <time>2026-06-19T07:33:24.000Z</time>
        <extensions>
          <ns3:TrackPointExtension>
            <ns3:atemp>24.0</ns3:atemp>
          </ns3:TrackPointExtension>
        </extensions>
      </trkpt>
      <trkpt lat="42.52887354232370853424072265625" lon="19.975121319293975830078125">
        <ele>1261</ele>
        <time>2026-06-19T07:33:25.000Z</time>
        <extensions>
          <ns3:TrackPointExtension>
            <ns3:atemp>24.0</ns3:atemp>
          </ns3:TrackPointExtension>
        </extensions>
      </trkpt>
      <trkpt lat="42.52886985428631305694580078125" lon="19.975132048130035400390625">
        <ele>1261</ele>
        <time>2026-06-19T07:33:26.000Z</time>
        <extensions>
          <ns3:TrackPointExtension>
            <ns3:atemp>24.0</ns3:atemp>
          </ns3:TrackPointExtension>
        </extensions>
      </trkpt>
      <trkpt lat="42.5288655795156955718994140625" lon="19.9751508235931396484375">
        <ele>1261</ele>
        <time>2026-06-19T07:33:27.000Z</time>
        <extensions>
          <ns3:TrackPointExtension>
            <ns3:atemp>24.0</ns3:atemp>
          </ns3:TrackPointExtension>
        </extensions>
      </trkpt>
      <trkpt lat="42.52885602414608001708984375" lon="19.975171275436878204345703125">
        <ele>1261</ele>
        <time>2026-06-19T07:33:28.000Z</time>
        <extensions>
          <ns3:TrackPointExtension>
            <ns3:atemp>24.0</ns3:atemp>
          </ns3:TrackPointExtension>
        </extensions>
      </trkpt>
      <trkpt lat="42.52884554676711559295654296875" lon="19.9751905538141727447509765625">
        <ele>1261</ele>
        <time>2026-06-19T07:33:29.000Z</time>
        <extensions>
          <ns3:TrackPointExtension>
            <ns3:atemp>24.0</ns3:atemp>
          </ns3:TrackPointExtension>
        </extensions>
      </trkpt>
      <trkpt lat="42.52883599139750003814697265625" lon="19.97520916163921356201171875">
        <ele>1261</ele>
        <time>2026-06-19T07:33:30.000Z</time>
        <extensions>
          <ns3:TrackPointExtension>
            <ns3:atemp>24.0</ns3:atemp>
          </ns3:TrackPointExtension>
        </extensions>
      </trkpt>
      <trkpt lat="42.52883632667362689971923828125" lon="19.97522517107427120208740234375">
        <ele>1261.199951171875</ele>
        <time>2026-06-19T07:33:31.000Z</time>
        <extensions>
          <ns3:TrackPointExtension>
            <ns3:atemp>24.0</ns3:atemp>
          </ns3:TrackPointExtension>
        </extensions>
      </trkpt>
      <trkpt lat="42.52882526256144046783447265625" lon="19.9752364866435527801513671875">
        <ele>1261.199951171875</ele>
        <time>2026-06-19T07:33:32.000Z</time>
        <extensions>
          <ns3:TrackPointExtension>
            <ns3:atemp>24.0</ns3:atemp>
          </ns3:TrackPointExtension>
        </extensions>
      </trkpt>
      <trkpt lat="42.52882123924791812896728515625" lon="19.975253753364086151123046875">
        <ele>1261.4000244140625</ele>
        <time>2026-06-19T07:33:33.000Z</time>
        <extensions>
          <ns3:TrackPointExtension>
            <ns3:atemp>24.0</ns3:atemp>
          </ns3:TrackPointExtension>
        </extensions>
      </trkpt>
      <trkpt lat="42.528819479048252105712890625" lon="19.9752700142562389373779296875">
        <ele>1261.4000244140625</ele>
        <time>2026-06-19T07:33:34.000Z</time>
        <extensions>
          <ns3:TrackPointExtension>
            <ns3:atemp>24.0</ns3:atemp>
          </ns3:TrackPointExtension>
        </extensions>
      </trkpt>
      <trkpt lat="42.52881503663957118988037109375" lon="19.97528937645256519317626953125">
        <ele>1261.800048828125</ele>
        <time>2026-06-19T07:33:35.000Z</time>
        <extensions>
          <ns3:TrackPointExtension>
            <ns3:atemp>24.0</ns3:atemp>
          </ns3:TrackPointExtension>
        </extensions>
      </trkpt>
      <trkpt lat="42.52881151624023914337158203125" lon="19.97530798427760601043701171875">
        <ele>1262</ele>
        <time>2026-06-19T07:33:36.000Z</time>
        <extensions>
          <ns3:TrackPointExtension>
            <ns3:atemp>24.0</ns3:atemp>
          </ns3:TrackPointExtension>
        </extensions>
      </trkpt>
      <trkpt lat="42.528808079659938812255859375" lon="19.97533229179680347442626953125">
        <ele>1262.199951171875</ele>
        <time>2026-06-19T07:33:37.000Z</time>
        <extensions>
          <ns3:TrackPointExtension>
            <ns3:atemp>24.0</ns3:atemp>
          </ns3:TrackPointExtension>
        </extensions>
      </trkpt>
      <trkpt lat="42.52880615182220935821533203125" lon="19.97535425238311290740966796875">
        <ele>1262.4000244140625</ele>
        <time>2026-06-19T07:33:38.000Z</time>
        <extensions>
          <ns3:TrackPointExtension>
            <ns3:atemp>24.0</ns3:atemp>
          </ns3:TrackPointExtension>
        </extensions>
      </trkpt>
      <trkpt lat="42.52880983985960483551025390625" lon="19.9753789789974689483642578125">
        <ele>1262.5999755859375</ele>
        <time>2026-06-19T07:33:39.000Z</time>
        <extensions>
          <ns3:TrackPointExtension>
            <ns3:atemp>24.0</ns3:atemp>
          </ns3:TrackPointExtension>
        </extensions>
      </trkpt>
      <trkpt lat="42.52880749292671680450439453125" lon="19.975399933755397796630859375">
        <ele>1262.800048828125</ele>
        <time>2026-06-19T07:33:40.000Z</time>
        <extensions>
          <ns3:TrackPointExtension>
            <ns3:atemp>24.0</ns3:atemp>
          </ns3:TrackPointExtension>
        </extensions>
      </trkpt>
      <trkpt lat="42.52880363725125789642333984375" lon="19.97541493736207485198974609375">
        <ele>1263.199951171875</ele>
        <time>2026-06-19T07:33:41.000Z</time>
        <extensions>
          <ns3:TrackPointExtension>
            <ns3:atemp>24.0</ns3:atemp>
          </ns3:TrackPointExtension>
        </extensions>
      </trkpt>
      <trkpt lat="42.52879978157579898834228515625" lon="19.975438155233860015869140625">
        <ele>1263.4000244140625</ele>
        <time>2026-06-19T07:33:42.000Z</time>
        <extensions>
          <ns3:TrackPointExtension>
            <ns3:atemp>24.0</ns3:atemp>
          </ns3:TrackPointExtension>
        </extensions>
      </trkpt>
      <trkpt lat="42.52878963947296142578125" lon="19.975456260144710540771484375">
        <ele>1263.800048828125</ele>
        <time>2026-06-19T07:33:43.000Z</time>
        <extensions>
          <ns3:TrackPointExtension>
            <ns3:atemp>24.0</ns3:atemp>
          </ns3:TrackPointExtension>
        </extensions>
      </trkpt>
      <trkpt lat="42.5287790782749652862548828125" lon="19.97547042556107044219970703125">
        <ele>1264</ele>
        <time>2026-06-19T07:33:44.000Z</time>
        <extensions>
          <ns3:TrackPointExtension>
            <ns3:atemp>24.0</ns3:atemp>
          </ns3:TrackPointExtension>
        </extensions>
      </trkpt>
      <trkpt lat="42.52877078019082546234130859375" lon="19.97548702172935009002685546875">
        <ele>1264.199951171875</ele>
        <time>2026-06-19T07:33:45.000Z</time>
        <extensions>
          <ns3:TrackPointExtension>
            <ns3:atemp>24.0</ns3:atemp>
          </ns3:TrackPointExtension>
        </extensions>
      </trkpt>
      <trkpt lat="42.52876524813473224639892578125" lon="19.975507557392120361328125">
        <ele>1264.4000244140625</ele>
        <time>2026-06-19T07:33:46.000Z</time>
        <extensions>
          <ns3:TrackPointExtension>
            <ns3:atemp>24.0</ns3:atemp>
          </ns3:TrackPointExtension>
        </extensions>
      </trkpt>
      <trkpt lat="42.52875921316444873809814453125" lon="19.97552775777876377105712890625">
        <ele>1264.800048828125</ele>
        <time>2026-06-19T07:33:47.000Z</time>
        <extensions>
          <ns3:TrackPointExtension>
            <ns3:atemp>24.0</ns3:atemp>
          </ns3:TrackPointExtension>
        </extensions>
      </trkpt>
      <trkpt lat="42.52875150181353092193603515625" lon="19.9755499698221683502197265625">
        <ele>1265</ele>
        <time>2026-06-19T07:33:48.000Z</time>
        <extensions>
          <ns3:TrackPointExtension>
            <ns3:atemp>24.0</ns3:atemp>
          </ns3:TrackPointExtension>
        </extensions>
      </trkpt>
      <trkpt lat="42.5287438742816448211669921875" lon="19.9755680747330188751220703125">
        <ele>1265.199951171875</ele>
        <time>2026-06-19T07:33:49.000Z</time>
        <extensions>
          <ns3:TrackPointExtension>
            <ns3:atemp>24.0</ns3:atemp>
          </ns3:TrackPointExtension>
        </extensions>
      </trkpt>
      <trkpt lat="42.5287354923784732818603515625" lon="19.9755866825580596923828125">
        <ele>1265.5999755859375</ele>
        <time>2026-06-19T07:33:50.000Z</time>
        <extensions>
          <ns3:TrackPointExtension>
            <ns3:atemp>24.0</ns3:atemp>
          </ns3:TrackPointExtension>
        </extensions>
      </trkpt>
      <trkpt lat="42.5287306308746337890625" lon="19.9756108224391937255859375">
        <ele>1265.800048828125</ele>
        <time>2026-06-19T07:33:51.000Z</time>
        <extensions>
          <ns3:TrackPointExtension>
            <ns3:atemp>24.0</ns3:atemp>
          </ns3:TrackPointExtension>
        </extensions>
      </trkpt>
      <trkpt lat="42.52872593700885772705078125" lon="19.9756341241300106048583984375">
        <ele>1266</ele>
        <time>2026-06-19T07:33:52.000Z</time>
        <extensions>
          <ns3:TrackPointExtension>
            <ns3:atemp>24.0</ns3:atemp>
          </ns3:TrackPointExtension>
        </extensions>
      </trkpt>
      <trkpt lat="42.52871747128665447235107421875" lon="19.97565398924052715301513671875">
        <ele>1266.4000244140625</ele>
        <time>2026-06-19T07:33:53.000Z</time>
        <extensions>
          <ns3:TrackPointExtension>
            <ns3:atemp>24.0</ns3:atemp>
          </ns3:TrackPointExtension>
        </extensions>
      </trkpt>
      <trkpt lat="42.52870573662221431732177734375" lon="19.97567494399845600128173828125">
        <ele>1266.5999755859375</ele>
        <time>2026-06-19T07:33:54.000Z</time>
        <extensions>
          <ns3:TrackPointExtension>
            <ns3:atemp>24.0</ns3:atemp>
          </ns3:TrackPointExtension>
        </extensions>
      </trkpt>
      <trkpt lat="42.5286966003477573394775390625" lon="19.97569506056606769561767578125">
        <ele>1266.800048828125</ele>
        <time>2026-06-19T07:33:55.000Z</time>
        <extensions>
          <ns3:TrackPointExtension>
            <ns3:atemp>24.0</ns3:atemp>
          </ns3:TrackPointExtension>
        </extensions>
      </trkpt>
      <trkpt lat="42.528687380254268646240234375" lon="19.975716769695281982421875">
        <ele>1267</ele>
        <time>2026-06-19T07:33:56.000Z</time>
        <extensions>
          <ns3:TrackPointExtension>
            <ns3:atemp>24.0</ns3:atemp>
          </ns3:TrackPointExtension>
        </extensions>
      </trkpt>
      <trkpt lat="42.52867204137146472930908203125" lon="19.9757323600351810455322265625">
        <ele>1267.199951171875</ele>
        <time>2026-06-19T07:33:57.000Z</time>
        <extensions>
          <ns3:TrackPointExtension>
            <ns3:atemp>24.0</ns3:atemp>
          </ns3:TrackPointExtension>
        </extensions>
      </trkpt>
      <trkpt lat="42.528659887611865997314453125" lon="19.97574769891798496246337890625">
        <ele>1267.4000244140625</ele>
        <time>2026-06-19T07:33:58.000Z</time>
        <extensions>
          <ns3:TrackPointExtension>
            <ns3:atemp>24.0</ns3:atemp>
          </ns3:TrackPointExtension>
        </extensions>
      </trkpt>
      <trkpt lat="42.52864656038582324981689453125" lon="19.975759349763393402099609375">
        <ele>1267.5999755859375</ele>
        <time>2026-06-19T07:33:59.000Z</time>
        <extensions>
          <ns3:TrackPointExtension>
            <ns3:atemp>24.0</ns3:atemp>
          </ns3:TrackPointExtension>
        </extensions>
      </trkpt>
      <trkpt lat="42.52862870693206787109375" lon="19.97576479800045490264892578125">
        <ele>1267.800048828125</ele>
        <time>2026-06-19T07:34:00.000Z</time>
        <extensions>
          <ns3:TrackPointExtension>
            <ns3:atemp>24.0</ns3:atemp>
          </ns3:TrackPointExtension>
        </extensions>
      </trkpt>
      <trkpt lat="42.52861403860151767730712890625" lon="19.9757618643343448638916015625">
        <ele>1268</ele>
        <time>2026-06-19T07:34:01.000Z</time>
        <extensions>
          <ns3:TrackPointExtension>
            <ns3:atemp>24.0</ns3:atemp>
          </ns3:TrackPointExtension>
        </extensions>
      </trkpt>
      <trkpt lat="42.5286057405173778533935546875" lon="19.9757476150989532470703125">
        <ele>1268</ele>
        <time>2026-06-19T07:34:02.000Z</time>
        <extensions>
          <ns3:TrackPointExtension>
            <ns3:atemp>24.0</ns3:atemp>
          </ns3:TrackPointExtension>
        </extensions>
      </trkpt>
      <trkpt lat="42.528592161834239959716796875" lon="19.97573462314903736114501953125">
        <ele>1268.199951171875</ele>
        <time>2026-06-19T07:34:03.000Z</time>
        <extensions>
          <ns3:TrackPointExtension>
            <ns3:atemp>24.0</ns3:atemp>
          </ns3:TrackPointExtension>
        </extensions>
      </trkpt>
      <trkpt lat="42.5285816006362438201904296875" lon="19.97571869753301143646240234375">
        <ele>1268.4000244140625</ele>
        <time>2026-06-19T07:34:04.000Z</time>
        <extensions>
          <ns3:TrackPointExtension>
            <ns3:atemp>24.0</ns3:atemp>
          </ns3:TrackPointExtension>
        </extensions>
      </trkpt>
      <trkpt lat="42.52857615239918231964111328125" lon="19.97569958679378032684326171875">
        <ele>1268.5999755859375</ele>
        <time>2026-06-19T07:34:05.000Z</time>
        <extensions>
          <ns3:TrackPointExtension>
            <ns3:atemp>24.0</ns3:atemp>
          </ns3:TrackPointExtension>
        </extensions>
      </trkpt>
      <trkpt lat="42.528573386371135711669921875" lon="19.97567678801715373992919921875">
        <ele>1268.800048828125</ele>
        <time>2026-06-19T07:34:06.000Z</time>
        <extensions>
          <ns3:TrackPointExtension>
            <ns3:atemp>24.0</ns3:atemp>
          </ns3:TrackPointExtension>
        </extensions>
      </trkpt>
      <trkpt lat="42.5285705365240573883056640625" lon="19.9756502173840999603271484375">
        <ele>1268.800048828125</ele>
        <time>2026-06-19T07:34:07.000Z</time>
        <extensions>
          <ns3:TrackPointExtension>
            <ns3:atemp>24.0</ns3:atemp>
          </ns3:TrackPointExtension>
        </extensions>
      </trkpt>
      <trkpt lat="42.528569363057613372802734375" lon="19.97562180273234844207763671875">
        <ele>1269</ele>
        <time>2026-06-19T07:34:08.000Z</time>
        <extensions>
          <ns3:TrackPointExtension>
            <ns3:atemp>24.0</ns3:atemp>
          </ns3:TrackPointExtension>
        </extensions>
      </trkpt>
      <trkpt lat="42.52857162617146968841552734375" lon="19.97559816576540470123291015625">
        <ele>1269.4000244140625</ele>
        <time>2026-06-19T07:34:09.000Z</time>
        <extensions>
          <ns3:TrackPointExtension>
            <ns3:atemp>24.0</ns3:atemp>
          </ns3:TrackPointExtension>
        </extensions>
      </trkpt>
      <trkpt lat="42.52857883460819721221923828125" lon="19.9755707569420337677001953125">
        <ele>1269.5999755859375</ele>
        <time>2026-06-19T07:34:10.000Z</time>
        <extensions>
          <ns3:TrackPointExtension>
            <ns3:atemp>24.0</ns3:atemp>
          </ns3:TrackPointExtension>
        </extensions>
      </trkpt>
      <trkpt lat="42.52858336083590984344482421875" lon="19.97554569505155086517333984375">
        <ele>1269.800048828125</ele>
        <time>2026-06-19T07:34:11.000Z</time>
        <extensions>
          <ns3:TrackPointExtension>
            <ns3:atemp>24.0</ns3:atemp>
          </ns3:TrackPointExtension>
        </extensions>
      </trkpt>
      <trkpt lat="42.52858503721654415130615234375" lon="19.97552163898944854736328125">
        <ele>1270</ele>
        <time>2026-06-19T07:34:12.000Z</time>
        <extensions>
          <ns3:TrackPointExtension>
            <ns3:atemp>24.0</ns3:atemp>
          </ns3:TrackPointExtension>
        </extensions>
      </trkpt>
      <trkpt lat="42.52857816405594348907470703125" lon="19.9754953198134899139404296875">
        <ele>1270.4000244140625</ele>
        <time>2026-06-19T07:34:13.000Z</time>
        <extensions>
          <ns3:TrackPointExtension>
            <ns3:atemp>24.0</ns3:atemp>
          </ns3:TrackPointExtension>
        </extensions>
      </trkpt>
      <trkpt lat="42.52856592647731304168701171875" lon="19.9754745326936244964599609375">
        <ele>1270.5999755859375</ele>
        <time>2026-06-19T07:34:14.000Z</time>
        <extensions>
          <ns3:TrackPointExtension>
            <ns3:atemp>24.0</ns3:atemp>
          </ns3:TrackPointExtension>
        </extensions>
      </trkpt>
      <trkpt lat="42.52855201251804828643798828125" lon="19.97546573169529438018798828125">
        <ele>1270.800048828125</ele>
        <time>2026-06-19T07:34:15.000Z</time>
        <extensions>
          <ns3:TrackPointExtension>
            <ns3:atemp>24.0</ns3:atemp>
          </ns3:TrackPointExtension>
        </extensions>
      </trkpt>
      <trkpt lat="42.52853826619684696197509765625" lon="19.97547444887459278106689453125">
        <ele>1271</ele>
        <time>2026-06-19T07:34:16.000Z</time>
        <extensions>
          <ns3:TrackPointExtension>
            <ns3:atemp>24.0</ns3:atemp>
          </ns3:TrackPointExtension>
        </extensions>
      </trkpt>
      <trkpt lat="42.52852770499885082244873046875" lon="19.97548551298677921295166015625">
        <ele>1271.199951171875</ele>
        <time>2026-06-19T07:34:17.000Z</time>
        <extensions>
          <ns3:TrackPointExtension>
            <ns3:atemp>24.0</ns3:atemp>
          </ns3:TrackPointExtension>
        </extensions>
      </trkpt>
      <trkpt lat="42.5285178981721401214599609375" lon="19.975497163832187652587890625">
        <ele>1271.4000244140625</ele>
        <time>2026-06-19T07:34:18.000Z</time>
        <extensions>
          <ns3:TrackPointExtension>
            <ns3:atemp>24.0</ns3:atemp>
          </ns3:TrackPointExtension>
        </extensions>
      </trkpt>
      <trkpt lat="42.52851161174476146697998046875" lon="19.97551065869629383087158203125">
        <ele>1271.5999755859375</ele>
        <time>2026-06-19T07:34:19.000Z</time>
        <extensions>
          <ns3:TrackPointExtension>
            <ns3:atemp>24.0</ns3:atemp>
          </ns3:TrackPointExtension>
        </extensions>
      </trkpt>
      <trkpt lat="42.5285081751644611358642578125" lon="19.97553127817809581756591796875">
        <ele>1271.800048828125</ele>
        <time>2026-06-19T07:34:20.000Z</time>
        <extensions>
          <ns3:TrackPointExtension>
            <ns3:atemp>24.0</ns3:atemp>
          </ns3:TrackPointExtension>
        </extensions>
      </trkpt>
      <trkpt lat="42.528506331145763397216796875" lon="19.9755536578595638275146484375">
        <ele>1272</ele>
        <time>2026-06-19T07:34:21.000Z</time>
        <extensions>
          <ns3:TrackPointExtension>
            <ns3:atemp>24.0</ns3:atemp>
          </ns3:TrackPointExtension>
        </extensions>
      </trkpt>
      <trkpt lat="42.5285011343657970428466796875" lon="19.97556497342884540557861328125">
        <ele>1272.199951171875</ele>
        <time>2026-06-19T07:34:22.000Z</time>
        <extensions>
          <ns3:TrackPointExtension>
            <ns3:atemp>24.0</ns3:atemp>
          </ns3:TrackPointExtension>
        </extensions>
      </trkpt>
      <trkpt lat="42.52849350683391094207763671875" lon="19.9755717627704143524169921875">
        <ele>1272.4000244140625</ele>
        <time>2026-06-19T07:34:23.000Z</time>
        <extensions>
          <ns3:TrackPointExtension>
            <ns3:atemp>24.0</ns3:atemp>
          </ns3:TrackPointExtension>
        </extensions>
      </trkpt>
      <trkpt lat="42.5284837000072002410888671875" lon="19.9755838327109813690185546875">
        <ele>1272.800048828125</ele>
        <time>2026-06-19T07:34:24.000Z</time>
        <extensions>
          <ns3:TrackPointExtension>
            <ns3:atemp>24.0</ns3:atemp>
          </ns3:TrackPointExtension>
        </extensions>
      </trkpt>
      <trkpt lat="42.528477497398853302001953125" lon="19.97559808194637298583984375">
        <ele>1273</ele>
        <time>2026-06-19T07:34:25.000Z</time>
        <extensions>
          <ns3:TrackPointExtension>
            <ns3:atemp>24.0</ns3:atemp>
          </ns3:TrackPointExtension>
        </extensions>
      </trkpt>
      <trkpt lat="42.5284719653427600860595703125" lon="19.97560939751565456390380859375">
        <ele>1273.199951171875</ele>
        <time>2026-06-19T07:34:26.000Z</time>
        <extensions>
          <ns3:TrackPointExtension>
            <ns3:atemp>24.0</ns3:atemp>
          </ns3:TrackPointExtension>
        </extensions>
      </trkpt>
      <trkpt lat="42.52846718765795230865478515625" lon="19.97562213800847530364990234375">
        <ele>1273.4000244140625</ele>
        <time>2026-06-19T07:34:27.000Z</time>
        <extensions>
          <ns3:TrackPointExtension>
            <ns3:atemp>24.0</ns3:atemp>
          </ns3:TrackPointExtension>
        </extensions>
      </trkpt>
      <trkpt lat="42.52846215851604938507080078125" lon="19.97564108110964298248291015625">
        <ele>1273.5999755859375</ele>
        <time>2026-06-19T07:34:28.000Z</time>
        <extensions>
          <ns3:TrackPointExtension>
            <ns3:atemp>24.0</ns3:atemp>
          </ns3:TrackPointExtension>
        </extensions>
      </trkpt>
      <trkpt lat="42.528458051383495330810546875" lon="19.97566304169595241546630859375">
        <ele>1273.800048828125</ele>
        <time>2026-06-19T07:34:29.000Z</time>
        <extensions>
          <ns3:TrackPointExtension>
            <ns3:atemp>24.0</ns3:atemp>
          </ns3:TrackPointExtension>
        </extensions>
      </trkpt>
      <trkpt lat="42.5284555368125438690185546875" lon="19.9756872653961181640625">
        <ele>1274</ele>
        <time>2026-06-19T07:34:30.000Z</time>
        <extensions>
          <ns3:TrackPointExtension>
            <ns3:atemp>24.0</ns3:atemp>
          </ns3:TrackPointExtension>
        </extensions>
      </trkpt>
      <trkpt lat="42.52845478244125843048095703125" lon="19.9757105670869350433349609375">
        <ele>1274.199951171875</ele>
        <time>2026-06-19T07:34:31.000Z</time>
        <extensions>
          <ns3:TrackPointExtension>
            <ns3:atemp>24.0</ns3:atemp>
          </ns3:TrackPointExtension>
        </extensions>
      </trkpt>
      <trkpt lat="42.52845562063157558441162109375" lon="19.97573554515838623046875">
        <ele>1274.4000244140625</ele>
        <time>2026-06-19T07:34:32.000Z</time>
        <extensions>
          <ns3:TrackPointExtension>
            <ns3:atemp>24.0</ns3:atemp>
          </ns3:TrackPointExtension>
        </extensions>
      </trkpt>
      <trkpt lat="42.52845042385160923004150390625" lon="19.97575943358242511749267578125">
        <ele>1274.5999755859375</ele>
        <time>2026-06-19T07:34:33.000Z</time>
        <extensions>
          <ns3:TrackPointExtension>
            <ns3:atemp>24.0</ns3:atemp>
          </ns3:TrackPointExtension>
        </extensions>
      </trkpt>
      <trkpt lat="42.52844656817615032196044921875" lon="19.975781142711639404296875">
        <ele>1274.800048828125</ele>
        <time>2026-06-19T07:34:34.000Z</time>
        <extensions>
          <ns3:TrackPointExtension>
            <ns3:atemp>24.0</ns3:atemp>
          </ns3:TrackPointExtension>
        </extensions>
      </trkpt>
      <trkpt lat="42.52844271250069141387939453125" lon="19.97580301947891712188720703125">
        <ele>1275</ele>
        <time>2026-06-19T07:34:35.000Z</time>
        <extensions>
          <ns3:TrackPointExtension>
            <ns3:atemp>24.0</ns3:atemp>
          </ns3:TrackPointExtension>
        </extensions>
      </trkpt>
      <trkpt lat="42.52843349240720272064208984375" lon="19.97582338750362396240234375">
        <ele>1275.4000244140625</ele>
        <time>2026-06-19T07:34:36.000Z</time>
        <extensions>
          <ns3:TrackPointExtension>
            <ns3:atemp>24.0</ns3:atemp>
          </ns3:TrackPointExtension>
        </extensions>
      </trkpt>
      <trkpt lat="42.5284226797521114349365234375" lon="19.97583989985287189483642578125">
        <ele>1275.5999755859375</ele>
        <time>2026-06-19T07:34:37.000Z</time>
        <extensions>
          <ns3:TrackPointExtension>
            <ns3:atemp>24.0</ns3:atemp>
          </ns3:TrackPointExtension>
        </extensions>
      </trkpt>
      <trkpt lat="42.528409101068973541259765625" lon="19.97585423290729522705078125">
        <ele>1276</ele>
        <time>2026-06-19T07:34:38.000Z</time>
        <extensions>
          <ns3:TrackPointExtension>
            <ns3:atemp>24.0</ns3:atemp>
          </ns3:TrackPointExtension>
        </extensions>
      </trkpt>
      <trkpt lat="42.5283901579678058624267578125" lon="19.9758654646575450897216796875">
        <ele>1276.199951171875</ele>
        <time>2026-06-19T07:34:39.000Z</time>
        <extensions>
          <ns3:TrackPointExtension>
            <ns3:atemp>24.0</ns3:atemp>
          </ns3:TrackPointExtension>
        </extensions>
      </trkpt>
      <trkpt lat="42.52837297506630420684814453125" lon="19.97586839832365512847900390625">
        <ele>1276.4000244140625</ele>
        <time>2026-06-19T07:34:40.000Z</time>
        <extensions>
          <ns3:TrackPointExtension>
            <ns3:atemp>24.0</ns3:atemp>
          </ns3:TrackPointExtension>
        </extensions>
      </trkpt>
      <trkpt lat="42.528357803821563720703125" lon="19.9758611060678958892822265625">
        <ele>1276.800048828125</ele>
        <time>2026-06-19T07:34:41.000Z</time>
        <extensions>
          <ns3:TrackPointExtension>
            <ns3:atemp>24.0</ns3:atemp>
          </ns3:TrackPointExtension>
        </extensions>
      </trkpt>
      <trkpt lat="42.52834238111972808837890625" lon="19.97585096396505832672119140625">
        <ele>1277</ele>
        <time>2026-06-19T07:34:42.000Z</time>
        <extensions>
          <ns3:TrackPointExtension>
            <ns3:atemp>24.0</ns3:atemp>
          </ns3:TrackPointExtension>
        </extensions>
      </trkpt>
      <trkpt lat="42.5283267907798290252685546875" lon="19.97583587653934955596923828125">
        <ele>1277.199951171875</ele>
        <time>2026-06-19T07:34:43.000Z</time>
        <extensions>
          <ns3:TrackPointExtension>
            <ns3:atemp>23.0</ns3:atemp>
          </ns3:TrackPointExtension>
        </extensions>
      </trkpt>
      <trkpt lat="42.5283180736005306243896484375" lon="19.975820370018482208251953125">
        <ele>1277.4000244140625</ele>
        <time>2026-06-19T07:34:44.000Z</time>
        <extensions>
          <ns3:TrackPointExtension>
            <ns3:atemp>23.0</ns3:atemp>
          </ns3:TrackPointExtension>
        </extensions>
      </trkpt>
      <trkpt lat="42.52831379882991313934326171875" lon="19.975797235965728759765625">
        <ele>1277.5999755859375</ele>
        <time>2026-06-19T07:34:45.000Z</time>
        <extensions>
          <ns3:TrackPointExtension>
            <ns3:atemp>24.0</ns3:atemp>
          </ns3:TrackPointExtension>
        </extensions>
      </trkpt>
      <trkpt lat="42.52831421792507171630859375" lon="19.97576848603785037994384765625">
        <ele>1277.800048828125</ele>
        <time>2026-06-19T07:34:46.000Z</time>
        <extensions>
          <ns3:TrackPointExtension>
            <ns3:atemp>23.0</ns3:atemp>
          </ns3:TrackPointExtension>
        </extensions>
      </trkpt>
      <trkpt lat="42.528318576514720916748046875" lon="19.97574954293668270111083984375">
        <ele>1278</ele>
        <time>2026-06-19T07:34:47.000Z</time>
        <extensions>
          <ns3:TrackPointExtension>
            <ns3:atemp>24.0</ns3:atemp>
          </ns3:TrackPointExtension>
        </extensions>
      </trkpt>
      <trkpt lat="42.52831798978149890899658203125" lon="19.975730516016483306884765625">
        <ele>1278.199951171875</ele>
        <time>2026-06-19T07:34:48.000Z</time>
        <extensions>
          <ns3:TrackPointExtension>
            <ns3:atemp>23.0</ns3:atemp>
          </ns3:TrackPointExtension>
        </extensions>
      </trkpt>
      <trkpt lat="42.52832301892340183258056640625" lon="19.97570679523050785064697265625">
        <ele>1278.4000244140625</ele>
        <time>2026-06-19T07:34:49.000Z</time>
        <extensions>
          <ns3:TrackPointExtension>
            <ns3:atemp>23.0</ns3:atemp>
          </ns3:TrackPointExtension>
        </extensions>
      </trkpt>
      <trkpt lat="42.52832251600921154022216796875" lon="19.9756872653961181640625">
        <ele>1278.5999755859375</ele>
        <time>2026-06-19T07:34:50.000Z</time>
        <extensions>
          <ns3:TrackPointExtension>
            <ns3:atemp>23.0</ns3:atemp>
          </ns3:TrackPointExtension>
        </extensions>
      </trkpt>
      <trkpt lat="42.52832268364727497100830078125" lon="19.97567008249461650848388671875">
        <ele>1278.800048828125</ele>
        <time>2026-06-19T07:34:51.000Z</time>
        <extensions>
          <ns3:TrackPointExtension>
            <ns3:atemp>23.0</ns3:atemp>
          </ns3:TrackPointExtension>
        </extensions>
      </trkpt>
      <trkpt lat="42.52832620404660701751708984375" lon="19.97565013356506824493408203125">
        <ele>1279.199951171875</ele>
        <time>2026-06-19T07:34:52.000Z</time>
        <extensions>
          <ns3:TrackPointExtension>
            <ns3:atemp>23.0</ns3:atemp>
          </ns3:TrackPointExtension>
        </extensions>
      </trkpt>
      <trkpt lat="42.528334669768810272216796875" lon="19.97563303448259830474853515625">
        <ele>1279.4000244140625</ele>
        <time>2026-06-19T07:34:53.000Z</time>
        <extensions>
          <ns3:TrackPointExtension>
            <ns3:atemp>23.0</ns3:atemp>
          </ns3:TrackPointExtension>
        </extensions>
      </trkpt>
      <trkpt lat="42.52834045328199863433837890625" lon="19.9756108224391937255859375">
        <ele>1279.4000244140625</ele>
        <time>2026-06-19T07:34:54.000Z</time>
        <extensions>
          <ns3:TrackPointExtension>
            <ns3:atemp>23.0</ns3:atemp>
          </ns3:TrackPointExtension>
        </extensions>
      </trkpt>
      <trkpt lat="42.52833961509168148040771484375" lon="19.97559112496674060821533203125">
        <ele>1279.800048828125</ele>
        <time>2026-06-19T07:34:55.000Z</time>
        <extensions>
          <ns3:TrackPointExtension>
            <ns3:atemp>23.0</ns3:atemp>
          </ns3:TrackPointExtension>
        </extensions>
      </trkpt>
      <trkpt lat="42.5283388607203960418701171875" lon="19.9755744449794292449951171875">
        <ele>1280</ele>
        <time>2026-06-19T07:34:56.000Z</time>
        <extensions>
          <ns3:TrackPointExtension>
            <ns3:atemp>23.0</ns3:atemp>
          </ns3:TrackPointExtension>
        </extensions>
      </trkpt>
      <trkpt lat="42.52833626233041286468505859375" lon="19.9755606986582279205322265625">
        <ele>1280.199951171875</ele>
        <time>2026-06-19T07:34:57.000Z</time>
        <extensions>
          <ns3:TrackPointExtension>
            <ns3:atemp>23.0</ns3:atemp>
          </ns3:TrackPointExtension>
        </extensions>
      </trkpt>
      <trkpt lat="42.52833475358784198760986328125" lon="19.97554242610931396484375">
        <ele>1280.4000244140625</ele>
        <time>2026-06-19T07:34:58.000Z</time>
        <extensions>
          <ns3:TrackPointExtension>
            <ns3:atemp>23.0</ns3:atemp>
          </ns3:TrackPointExtension>
        </extensions>
      </trkpt>
      <trkpt lat="42.52833626233041286468505859375" lon="19.9755196273326873779296875">
        <ele>1280.5999755859375</ele>
        <time>2026-06-19T07:34:59.000Z</time>
        <extensions>
          <ns3:TrackPointExtension>
            <ns3:atemp>23.0</ns3:atemp>
          </ns3:TrackPointExtension>
        </extensions>
      </trkpt>
      <trkpt lat="42.52833609469234943389892578125" lon="19.975499175488948822021484375">
        <ele>1281</ele>
        <time>2026-06-19T07:35:00.000Z</time>
        <extensions>
          <ns3:TrackPointExtension>
            <ns3:atemp>23.0</ns3:atemp>
          </ns3:TrackPointExtension>
        </extensions>
      </trkpt>
      <trkpt lat="42.52833031117916107177734375" lon="19.97547897510230541229248046875">
        <ele>1281.199951171875</ele>
        <time>2026-06-19T07:35:01.000Z</time>
        <extensions>
          <ns3:TrackPointExtension>
            <ns3:atemp>23.0</ns3:atemp>
          </ns3:TrackPointExtension>
        </extensions>
      </trkpt>
      <trkpt lat="42.5283261202275753021240234375" lon="19.97545751743018627166748046875">
        <ele>1281.4000244140625</ele>
        <time>2026-06-19T07:35:02.000Z</time>
        <extensions>
          <ns3:TrackPointExtension>
            <ns3:atemp>23.0</ns3:atemp>
          </ns3:TrackPointExtension>
        </extensions>
      </trkpt>
      <trkpt lat="42.52832670696079730987548828125" lon="19.97542885132133960723876953125">
        <ele>1281.800048828125</ele>
        <time>2026-06-19T07:35:03.000Z</time>
        <extensions>
          <ns3:TrackPointExtension>
            <ns3:atemp>23.0</ns3:atemp>
          </ns3:TrackPointExtension>
        </extensions>
      </trkpt>
      <trkpt lat="42.52832436002790927886962890625" lon="19.975403286516666412353515625">
        <ele>1282</ele>
        <time>2026-06-19T07:35:04.000Z</time>
        <extensions>
          <ns3:TrackPointExtension>
            <ns3:atemp>23.0</ns3:atemp>
          </ns3:TrackPointExtension>
        </extensions>
      </trkpt>
      <trkpt lat="42.528319917619228363037109375" lon="19.97537948191165924072265625">
        <ele>1282.199951171875</ele>
        <time>2026-06-19T07:35:05.000Z</time>
        <extensions>
          <ns3:TrackPointExtension>
            <ns3:atemp>23.0</ns3:atemp>
          </ns3:TrackPointExtension>
        </extensions>
      </trkpt>
      <trkpt lat="42.5283190794289112091064453125" lon="19.97534922324120998382568359375">
        <ele>1282.5999755859375</ele>
        <time>2026-06-19T07:35:06.000Z</time>
        <extensions>
          <ns3:TrackPointExtension>
            <ns3:atemp>23.0</ns3:atemp>
          </ns3:TrackPointExtension>
        </extensions>
      </trkpt>
      <trkpt lat="42.52831027843058109283447265625" lon="19.97532390989363193511962890625">
        <ele>1282.800048828125</ele>
        <time>2026-06-19T07:35:07.000Z</time>
        <extensions>
          <ns3:TrackPointExtension>
            <ns3:atemp>23.0</ns3:atemp>
          </ns3:TrackPointExtension>
        </extensions>
      </trkpt>
      <trkpt lat="42.52829552628099918365478515625" lon="19.9753115884959697723388671875">
        <ele>1283</ele>
        <time>2026-06-19T07:35:08.000Z</time>
        <extensions>
          <ns3:TrackPointExtension>
            <ns3:atemp>23.0</ns3:atemp>
          </ns3:TrackPointExtension>
        </extensions>
      </trkpt>
      <trkpt lat="42.52828094176948070526123046875" lon="19.97530295513570308685302734375">
        <ele>1283.199951171875</ele>
        <time>2026-06-19T07:35:09.000Z</time>
        <extensions>
          <ns3:TrackPointExtension>
            <ns3:atemp>23.0</ns3:atemp>
          </ns3:TrackPointExtension>
        </extensions>
      </trkpt>
      <trkpt lat="42.5282654352486133575439453125" lon="19.9753018654882907867431640625">
        <ele>1283.4000244140625</ele>
        <time>2026-06-19T07:35:10.000Z</time>
        <extensions>
          <ns3:TrackPointExtension>
            <ns3:atemp>23.0</ns3:atemp>
          </ns3:TrackPointExtension>
        </extensions>
      </trkpt>
      <trkpt lat="42.52825479023158550262451171875" lon="19.97531251050531864166259765625">
        <ele>1283.5999755859375</ele>
        <time>2026-06-19T07:35:11.000Z</time>
        <extensions>
          <ns3:TrackPointExtension>
            <ns3:atemp>23.0</ns3:atemp>
          </ns3:TrackPointExtension>
        </extensions>
      </trkpt>
      <trkpt lat="42.5282464921474456787109375" lon="19.97532810084521770477294921875">
        <ele>1283.800048828125</ele>
        <time>2026-06-19T07:35:12.000Z</time>
        <extensions>
          <ns3:TrackPointExtension>
            <ns3:atemp>23.0</ns3:atemp>
          </ns3:TrackPointExtension>
        </extensions>
      </trkpt>
      <trkpt lat="42.528240792453289031982421875" lon="19.9753504805266857147216796875">
        <ele>1284</ele>
        <time>2026-06-19T07:35:13.000Z</time>
        <extensions>
          <ns3:TrackPointExtension>
            <ns3:atemp>23.0</ns3:atemp>
          </ns3:TrackPointExtension>
        </extensions>
      </trkpt>
      <trkpt lat="42.52823584713041782379150390625" lon="19.975372441112995147705078125">
        <ele>1284.199951171875</ele>
        <time>2026-06-19T07:35:14.000Z</time>
        <extensions>
          <ns3:TrackPointExtension>
            <ns3:atemp>23.0</ns3:atemp>
          </ns3:TrackPointExtension>
        </extensions>
      </trkpt>
      <trkpt lat="42.52823383547365665435791015625" lon="19.97539197094738483428955078125">
        <ele>1284.4000244140625</ele>
        <time>2026-06-19T07:35:15.000Z</time>
        <extensions>
          <ns3:TrackPointExtension>
            <ns3:atemp>23.0</ns3:atemp>
          </ns3:TrackPointExtension>
        </extensions>
      </trkpt>
      <trkpt lat="42.52822947688400745391845703125" lon="19.9754150211811065673828125">
        <ele>1284.5999755859375</ele>
        <time>2026-06-19T07:35:16.000Z</time>
        <extensions>
          <ns3:TrackPointExtension>
            <ns3:atemp>23.0</ns3:atemp>
          </ns3:TrackPointExtension>
        </extensions>
      </trkpt>
      <trkpt lat="42.52822377718985080718994140625" lon="19.97544310055673122406005859375">
        <ele>1284.800048828125</ele>
        <time>2026-06-19T07:35:17.000Z</time>
        <extensions>
          <ns3:TrackPointExtension>
            <ns3:atemp>23.0</ns3:atemp>
          </ns3:TrackPointExtension>
        </extensions>
      </trkpt>
      <trkpt lat="42.52822478301823139190673828125" lon="19.97547260485589504241943359375">
        <ele>1285</ele>
        <time>2026-06-19T07:35:18.000Z</time>
        <extensions>
          <ns3:TrackPointExtension>
            <ns3:atemp>23.0</ns3:atemp>
          </ns3:TrackPointExtension>
        </extensions>
      </trkpt>
      <trkpt lat="42.5282201729714870452880859375" lon="19.975496828556060791015625">
        <ele>1285.4000244140625</ele>
        <time>2026-06-19T07:35:19.000Z</time>
        <extensions>
          <ns3:TrackPointExtension>
            <ns3:atemp>23.0</ns3:atemp>
          </ns3:TrackPointExtension>
        </extensions>
      </trkpt>
      <trkpt lat="42.52822126261889934539794921875" lon="19.97552289627492427825927734375">
        <ele>1285.5999755859375</ele>
        <time>2026-06-19T07:35:20.000Z</time>
        <extensions>
          <ns3:TrackPointExtension>
            <ns3:atemp>23.0</ns3:atemp>
          </ns3:TrackPointExtension>
        </extensions>
      </trkpt>
      <trkpt lat="42.5282168202102184295654296875" lon="19.97555290348827838897705078125">
        <ele>1285.800048828125</ele>
        <time>2026-06-19T07:35:21.000Z</time>
        <extensions>
          <ns3:TrackPointExtension>
            <ns3:atemp>23.0</ns3:atemp>
          </ns3:TrackPointExtension>
        </extensions>
      </trkpt>
      <trkpt lat="42.52821237780153751373291015625" lon="19.975580982863903045654296875">
        <ele>1285.800048828125</ele>
        <time>2026-06-19T07:35:22.000Z</time>
        <extensions>
          <ns3:TrackPointExtension>
            <ns3:atemp>23.0</ns3:atemp>
          </ns3:TrackPointExtension>
        </extensions>
      </trkpt>
      <trkpt lat="42.52820265479385852813720703125" lon="19.97560210525989532470703125">
        <ele>1286</ele>
        <time>2026-06-19T07:35:23.000Z</time>
        <extensions>
          <ns3:TrackPointExtension>
            <ns3:atemp>23.0</ns3:atemp>
          </ns3:TrackPointExtension>
        </extensions>
      </trkpt>
      <trkpt lat="42.52819745801389217376708984375" lon="19.9756280891597270965576171875">
        <ele>1286.199951171875</ele>
        <time>2026-06-19T07:35:24.000Z</time>
        <extensions>
          <ns3:TrackPointExtension>
            <ns3:atemp>23.0</ns3:atemp>
          </ns3:TrackPointExtension>
        </extensions>
      </trkpt>
      <trkpt lat="42.528186142444610595703125" lon="19.9756512232124805450439453125">
        <ele>1286.4000244140625</ele>
        <time>2026-06-19T07:35:25.000Z</time>
        <extensions>
          <ns3:TrackPointExtension>
            <ns3:atemp>23.0</ns3:atemp>
          </ns3:TrackPointExtension>
        </extensions>
      </trkpt>
      <trkpt lat="42.52817650325596332550048828125" lon="19.97566924430429935455322265625">
        <ele>1286.5999755859375</ele>
        <time>2026-06-19T07:35:26.000Z</time>
        <extensions>
          <ns3:TrackPointExtension>
            <ns3:atemp>23.0</ns3:atemp>
          </ns3:TrackPointExtension>
        </extensions>
      </trkpt>
      <trkpt lat="42.5281692110002040863037109375" lon="19.97569137252867221832275390625">
        <ele>1286.800048828125</ele>
        <time>2026-06-19T07:35:27.000Z</time>
        <extensions>
          <ns3:TrackPointExtension>
            <ns3:atemp>23.0</ns3:atemp>
          </ns3:TrackPointExtension>
        </extensions>
      </trkpt>
      <trkpt lat="42.528161667287349700927734375" lon="19.9757149256765842437744140625">
        <ele>1286.800048828125</ele>
        <time>2026-06-19T07:35:28.000Z</time>
        <extensions>
          <ns3:TrackPointExtension>
            <ns3:atemp>23.0</ns3:atemp>
          </ns3:TrackPointExtension>
        </extensions>
      </trkpt>
      <trkpt lat="42.52815973944962024688720703125" lon="19.9757430888712406158447265625">
        <ele>1287</ele>
        <time>2026-06-19T07:35:29.000Z</time>
        <extensions>
          <ns3:TrackPointExtension>
            <ns3:atemp>23.0</ns3:atemp>
          </ns3:TrackPointExtension>
        </extensions>
      </trkpt>
      <trkpt lat="42.52815102227032184600830078125" lon="19.97576974332332611083984375">
        <ele>1287.199951171875</ele>
        <time>2026-06-19T07:35:30.000Z</time>
        <extensions>
          <ns3:TrackPointExtension>
            <ns3:atemp>23.0</ns3:atemp>
          </ns3:TrackPointExtension>
        </extensions>
      </trkpt>
      <trkpt lat="42.52814984880387783050537109375" lon="19.9758071266114711761474609375">
        <ele>1287.4000244140625</ele>
        <time>2026-06-19T07:35:31.000Z</time>
        <extensions>
          <ns3:TrackPointExtension>
            <ns3:atemp>23.0</ns3:atemp>
          </ns3:TrackPointExtension>
        </extensions>
      </trkpt>
      <trkpt lat="42.5281551294028759002685546875" lon="19.97583772055804729461669921875">
        <ele>1287.5999755859375</ele>
        <time>2026-06-19T07:35:32.000Z</time>
        <extensions>
          <ns3:TrackPointExtension>
            <ns3:atemp>23.0</ns3:atemp>
          </ns3:TrackPointExtension>
        </extensions>
      </trkpt>
      <trkpt lat="42.52815864980220794677734375" lon="19.9758627824485301971435546875">
        <ele>1288</ele>
        <time>2026-06-19T07:35:33.000Z</time>
        <extensions>
          <ns3:TrackPointExtension>
            <ns3:atemp>23.0</ns3:atemp>
          </ns3:TrackPointExtension>
        </extensions>
      </trkpt>
      <trkpt lat="42.52815906889736652374267578125" lon="19.97588734142482280731201171875">
        <ele>1288.199951171875</ele>
        <time>2026-06-19T07:35:34.000Z</time>
        <extensions>
          <ns3:TrackPointExtension>
            <ns3:atemp>23.0</ns3:atemp>
          </ns3:TrackPointExtension>
        </extensions>
      </trkpt>
      <trkpt lat="42.52815554849803447723388671875" lon="19.975916929543018341064453125">
        <ele>1288.4000244140625</ele>
        <time>2026-06-19T07:35:35.000Z</time>
        <extensions>
          <ns3:TrackPointExtension>
            <ns3:atemp>23.0</ns3:atemp>
          </ns3:TrackPointExtension>
        </extensions>
      </trkpt>
      <trkpt lat="42.528154291212558746337890625" lon="19.97595305554568767547607421875">
        <ele>1288.800048828125</ele>
        <time>2026-06-19T07:35:36.000Z</time>
        <extensions>
          <ns3:TrackPointExtension>
            <ns3:atemp>23.0</ns3:atemp>
          </ns3:TrackPointExtension>
        </extensions>
      </trkpt>
      <trkpt lat="42.528151609003543853759765625" lon="19.97598088346421718597412109375">
        <ele>1289</ele>
        <time>2026-06-19T07:35:37.000Z</time>
        <extensions>
          <ns3:TrackPointExtension>
            <ns3:atemp>23.0</ns3:atemp>
          </ns3:TrackPointExtension>
        </extensions>
      </trkpt>
      <trkpt lat="42.5281557999551296234130859375" lon="19.9760062806308269500732421875">
        <ele>1289.199951171875</ele>
        <time>2026-06-19T07:35:38.000Z</time>
        <extensions>
          <ns3:TrackPointExtension>
            <ns3:atemp>23.0</ns3:atemp>
          </ns3:TrackPointExtension>
        </extensions>
      </trkpt>
      <trkpt lat="42.52815655432641506195068359375" lon="19.97602983377873897552490234375">
        <ele>1289.4000244140625</ele>
        <time>2026-06-19T07:35:39.000Z</time>
        <extensions>
          <ns3:TrackPointExtension>
            <ns3:atemp>23.0</ns3:atemp>
          </ns3:TrackPointExtension>
        </extensions>
      </trkpt>
      <trkpt lat="42.528150938451290130615234375" lon="19.97605246491730213165283203125">
        <ele>1289.5999755859375</ele>
        <time>2026-06-19T07:35:40.000Z</time>
        <extensions>
          <ns3:TrackPointExtension>
            <ns3:atemp>23.0</ns3:atemp>
          </ns3:TrackPointExtension>
        </extensions>
      </trkpt>
      <trkpt lat="42.52815336920320987701416015625" lon="19.976067803800106048583984375">
        <ele>1290</ele>
        <time>2026-06-19T07:35:41.000Z</time>
        <extensions>
          <ns3:TrackPointExtension>
            <ns3:atemp>23.0</ns3:atemp>
          </ns3:TrackPointExtension>
        </extensions>
      </trkpt>
      <trkpt lat="42.528158314526081085205078125" lon="19.9760880880057811737060546875">
        <ele>1290.199951171875</ele>
        <time>2026-06-19T07:35:42.000Z</time>
        <extensions>
          <ns3:TrackPointExtension>
            <ns3:atemp>23.0</ns3:atemp>
          </ns3:TrackPointExtension>
        </extensions>
      </trkpt>
      <trkpt lat="42.5281579792499542236328125" lon="19.97611164115369319915771484375">
        <ele>1290.5999755859375</ele>
        <time>2026-06-19T07:35:43.000Z</time>
        <extensions>
          <ns3:TrackPointExtension>
            <ns3:atemp>23.0</ns3:atemp>
          </ns3:TrackPointExtension>
        </extensions>
      </trkpt>
      <trkpt lat="42.52815487794578075408935546875" lon="19.97613762505352497100830078125">
        <ele>1290.800048828125</ele>
        <time>2026-06-19T07:35:44.000Z</time>
        <extensions>
          <ns3:TrackPointExtension>
            <ns3:atemp>23.0</ns3:atemp>
          </ns3:TrackPointExtension>
        </extensions>
      </trkpt>
      <trkpt lat="42.52815663814544677734375" lon="19.9761641956865787506103515625">
        <ele>1291</ele>
        <time>2026-06-19T07:35:45.000Z</time>
        <extensions>
          <ns3:TrackPointExtension>
            <ns3:atemp>23.0</ns3:atemp>
          </ns3:TrackPointExtension>
        </extensions>
      </trkpt>
      <trkpt lat="42.52815672196447849273681640625" lon="19.9761880002915859222412109375">
        <ele>1291.199951171875</ele>
        <time>2026-06-19T07:35:46.000Z</time>
        <extensions>
          <ns3:TrackPointExtension>
            <ns3:atemp>23.0</ns3:atemp>
          </ns3:TrackPointExtension>
        </extensions>
      </trkpt>
      <trkpt lat="42.528160996735095977783203125" lon="19.97621406801044940948486328125">
        <ele>1291.4000244140625</ele>
        <time>2026-06-19T07:35:47.000Z</time>
        <extensions>
          <ns3:TrackPointExtension>
            <ns3:atemp>23.0</ns3:atemp>
          </ns3:TrackPointExtension>
        </extensions>
      </trkpt>
      <trkpt lat="42.5281594879925251007080078125" lon="19.976241476833820343017578125">
        <ele>1291.5999755859375</ele>
        <time>2026-06-19T07:35:48.000Z</time>
        <extensions>
          <ns3:TrackPointExtension>
            <ns3:atemp>23.0</ns3:atemp>
          </ns3:TrackPointExtension>
        </extensions>
      </trkpt>
      <trkpt lat="42.52816024236381053924560546875" lon="19.97626326978206634521484375">
        <ele>1291.800048828125</ele>
        <time>2026-06-19T07:35:49.000Z</time>
        <extensions>
          <ns3:TrackPointExtension>
            <ns3:atemp>23.0</ns3:atemp>
          </ns3:TrackPointExtension>
        </extensions>
      </trkpt>
      <trkpt lat="42.52815672196447849273681640625" lon="19.9762936122715473175048828125">
        <ele>1292</ele>
        <time>2026-06-19T07:35:50.000Z</time>
        <extensions>
          <ns3:TrackPointExtension>
            <ns3:atemp>23.0</ns3:atemp>
          </ns3:TrackPointExtension>
        </extensions>
      </trkpt>
      <trkpt lat="42.52815420739352703094482421875" lon="19.97631423175334930419921875">
        <ele>1292.199951171875</ele>
        <time>2026-06-19T07:35:51.000Z</time>
        <extensions>
          <ns3:TrackPointExtension>
            <ns3:atemp>23.0</ns3:atemp>
          </ns3:TrackPointExtension>
        </extensions>
      </trkpt>
      <trkpt lat="42.52814850769937038421630859375" lon="19.9763368628919124603271484375">
        <ele>1292.4000244140625</ele>
        <time>2026-06-19T07:35:52.000Z</time>
        <extensions>
          <ns3:TrackPointExtension>
            <ns3:atemp>23.0</ns3:atemp>
          </ns3:TrackPointExtension>
        </extensions>
      </trkpt>
      <trkpt lat="42.52814465202391147613525390625" lon="19.97636376880109310150146484375">
        <ele>1292.5999755859375</ele>
        <time>2026-06-19T07:35:53.000Z</time>
        <extensions>
          <ns3:TrackPointExtension>
            <ns3:atemp>23.0</ns3:atemp>
          </ns3:TrackPointExtension>
        </extensions>
      </trkpt>
      <trkpt lat="42.5281407125294208526611328125" lon="19.976387657225131988525390625">
        <ele>1292.800048828125</ele>
        <time>2026-06-19T07:35:54.000Z</time>
        <extensions>
          <ns3:TrackPointExtension>
            <ns3:atemp>23.0</ns3:atemp>
          </ns3:TrackPointExtension>
        </extensions>
      </trkpt>
      <trkpt lat="42.52813895232975482940673828125" lon="19.97641087509691715240478515625">
        <ele>1293</ele>
        <time>2026-06-19T07:35:55.000Z</time>
        <extensions>
          <ns3:TrackPointExtension>
            <ns3:atemp>23.0</ns3:atemp>
          </ns3:TrackPointExtension>
        </extensions>
      </trkpt>
      <trkpt lat="42.5281311571598052978515625" lon="19.9764347635209560394287109375">
        <ele>1293.199951171875</ele>
        <time>2026-06-19T07:35:56.000Z</time>
        <extensions>
          <ns3:TrackPointExtension>
            <ns3:atemp>23.0</ns3:atemp>
          </ns3:TrackPointExtension>
        </extensions>
      </trkpt>
      <trkpt lat="42.52812805585563182830810546875" lon="19.9764597415924072265625">
        <ele>1293.4000244140625</ele>
        <time>2026-06-19T07:35:57.000Z</time>
        <extensions>
          <ns3:TrackPointExtension>
            <ns3:atemp>23.0</ns3:atemp>
          </ns3:TrackPointExtension>
        </extensions>
      </trkpt>
      <trkpt lat="42.5281226076185703277587890625" lon="19.9764749966561794281005859375">
        <ele>1293.5999755859375</ele>
        <time>2026-06-19T07:35:58.000Z</time>
        <extensions>
          <ns3:TrackPointExtension>
            <ns3:atemp>23.0</ns3:atemp>
          </ns3:TrackPointExtension>
        </extensions>
      </trkpt>
      <trkpt lat="42.52811598591506481170654296875" lon="19.9764967896044254302978515625">
        <ele>1293.800048828125</ele>
        <time>2026-06-19T07:35:59.000Z</time>
        <extensions>
          <ns3:TrackPointExtension>
            <ns3:atemp>23.0</ns3:atemp>
          </ns3:TrackPointExtension>
        </extensions>
      </trkpt>
      <trkpt lat="42.52810894511640071868896484375" lon="19.97652051039040088653564453125">
        <ele>1293.800048828125</ele>
        <time>2026-06-19T07:36:00.000Z</time>
        <extensions>
          <ns3:TrackPointExtension>
            <ns3:atemp>23.0</ns3:atemp>
          </ns3:TrackPointExtension>
        </extensions>
      </trkpt>
      <trkpt lat="42.5281058438122272491455078125" lon="19.976550601422786712646484375">
        <ele>1294</ele>
        <time>2026-06-19T07:36:01.000Z</time>
        <extensions>
          <ns3:TrackPointExtension>
            <ns3:atemp>23.0</ns3:atemp>
          </ns3:TrackPointExtension>
        </extensions>
      </trkpt>
      <trkpt lat="42.52809788100421428680419921875" lon="19.97658312320709228515625">
        <ele>1294</ele>
        <time>2026-06-19T07:36:02.000Z</time>
        <extensions>
          <ns3:TrackPointExtension>
            <ns3:atemp>23.0</ns3:atemp>
          </ns3:TrackPointExtension>
        </extensions>
      </trkpt>
      <trkpt lat="42.52809352241456508636474609375" lon="19.97660231776535511016845703125">
        <ele>1294.199951171875</ele>
        <time>2026-06-19T07:36:03.000Z</time>
        <extensions>
          <ns3:TrackPointExtension>
            <ns3:atemp>23.0</ns3:atemp>
          </ns3:TrackPointExtension>
        </extensions>
      </trkpt>
      <trkpt lat="42.5280884094536304473876953125" lon="19.97661807574331760406494140625">
        <ele>1294.199951171875</ele>
        <time>2026-06-19T07:36:04.000Z</time>
        <extensions>
          <ns3:TrackPointExtension>
            <ns3:atemp>23.0</ns3:atemp>
          </ns3:TrackPointExtension>
        </extensions>
      </trkpt>
      <trkpt lat="42.52808530814945697784423828125" lon="19.97663752175867557525634765625">
        <ele>1294.4000244140625</ele>
        <time>2026-06-19T07:36:05.000Z</time>
        <extensions>
          <ns3:TrackPointExtension>
            <ns3:atemp>23.0</ns3:atemp>
          </ns3:TrackPointExtension>
        </extensions>
      </trkpt>
      <trkpt lat="42.5280796922743320465087890625" lon="19.9766593985259532928466796875">
        <ele>1294.5999755859375</ele>
        <time>2026-06-19T07:36:06.000Z</time>
        <extensions>
          <ns3:TrackPointExtension>
            <ns3:atemp>23.0</ns3:atemp>
          </ns3:TrackPointExtension>
        </extensions>
      </trkpt>
      <trkpt lat="42.52807524986565113067626953125" lon="19.97668328694999217987060546875">
        <ele>1294.800048828125</ele>
        <time>2026-06-19T07:36:07.000Z</time>
        <extensions>
          <ns3:TrackPointExtension>
            <ns3:atemp>23.0</ns3:atemp>
          </ns3:TrackPointExtension>
        </extensions>
      </trkpt>
      <trkpt lat="42.5280753336846828460693359375" lon="19.97670390643179416656494140625">
        <ele>1295</ele>
        <time>2026-06-19T07:36:08.000Z</time>
        <extensions>
          <ns3:TrackPointExtension>
            <ns3:atemp>23.0</ns3:atemp>
          </ns3:TrackPointExtension>
        </extensions>
      </trkpt>
      <trkpt lat="42.5280763395130634307861328125" lon="19.97671916149556636810302734375">
        <ele>1295.199951171875</ele>
        <time>2026-06-19T07:36:09.000Z</time>
        <extensions>
          <ns3:TrackPointExtension>
            <ns3:atemp>23.0</ns3:atemp>
          </ns3:TrackPointExtension>
        </extensions>
      </trkpt>
      <trkpt lat="42.52807642333209514617919921875" lon="19.9767194129526615142822265625">
        <ele>1295.199951171875</ele>
        <time>2026-06-19T07:36:10.000Z</time>
        <extensions>
          <ns3:TrackPointExtension>
            <ns3:atemp>23.0</ns3:atemp>
          </ns3:TrackPointExtension>
        </extensions>
      </trkpt>
      <trkpt lat="42.52807642333209514617919921875" lon="19.9767194129526615142822265625">
        <ele>1295.4000244140625</ele>
        <time>2026-06-19T07:36:11.000Z</time>
        <extensions>
          <ns3:TrackPointExtension>
            <ns3:atemp>23.0</ns3:atemp>
          </ns3:TrackPointExtension>
        </extensions>
      </trkpt>
      <trkpt lat="42.52807642333209514617919921875" lon="19.9767194129526615142822265625">
        <ele>1295.4000244140625</ele>
        <time>2026-06-19T07:36:12.000Z</time>
        <extensions>
          <ns3:TrackPointExtension>
            <ns3:atemp>23.0</ns3:atemp>
          </ns3:TrackPointExtension>
        </extensions>
      </trkpt>
      <trkpt lat="42.5280766747891902923583984375" lon="19.97672067023813724517822265625">
        <ele>1295.4000244140625</ele>
        <time>2026-06-19T07:36:13.000Z</time>
        <extensions>
          <ns3:TrackPointExtension>
            <ns3:atemp>23.0</ns3:atemp>
          </ns3:TrackPointExtension>
        </extensions>
      </trkpt>
      <trkpt lat="42.52807575277984142303466796875" lon="19.97675168327987194061279296875">
        <ele>1295.4000244140625</ele>
        <time>2026-06-19T07:36:14.000Z</time>
        <extensions>
          <ns3:TrackPointExtension>
            <ns3:atemp>23.0</ns3:atemp>
          </ns3:TrackPointExtension>
        </extensions>
      </trkpt>
      <trkpt lat="42.5280760042369365692138671875" lon="19.97676542960107326507568359375">
        <ele>1295.4000244140625</ele>
        <time>2026-06-19T07:36:15.000Z</time>
        <extensions>
          <ns3:TrackPointExtension>
            <ns3:atemp>23.0</ns3:atemp>
          </ns3:TrackPointExtension>
        </extensions>
      </trkpt>
      <trkpt lat="42.5280723161995410919189453125" lon="19.97677557170391082763671875">
        <ele>1295.5999755859375</ele>
        <time>2026-06-19T07:36:16.000Z</time>
        <extensions>
          <ns3:TrackPointExtension>
            <ns3:atemp>23.0</ns3:atemp>
          </ns3:TrackPointExtension>
        </extensions>
      </trkpt>
      <trkpt lat="42.52807424403727054595947265625" lon="19.97678655199706554412841796875">
        <ele>1295.800048828125</ele>
        <time>2026-06-19T07:36:17.000Z</time>
        <extensions>
          <ns3:TrackPointExtension>
            <ns3:atemp>23.0</ns3:atemp>
          </ns3:TrackPointExtension>
        </extensions>
      </trkpt>
      <trkpt lat="42.52807390876114368438720703125" lon="19.97680013068020343780517578125">
        <ele>1296</ele>
        <time>2026-06-19T07:36:18.000Z</time>
        <extensions>
          <ns3:TrackPointExtension>
            <ns3:atemp>23.0</ns3:atemp>
          </ns3:TrackPointExtension>
        </extensions>
      </trkpt>
      <trkpt lat="42.52807013690471649169921875" lon="19.976814128458499908447265625">
        <ele>1296</ele>
        <time>2026-06-19T07:36:19.000Z</time>
        <extensions>
          <ns3:TrackPointExtension>
            <ns3:atemp>23.0</ns3:atemp>
          </ns3:TrackPointExtension>
        </extensions>
      </trkpt>
      <trkpt lat="42.52807055599987506866455078125" lon="19.9768136255443096160888671875">
        <ele>1296.199951171875</ele>
        <time>2026-06-19T07:36:20.000Z</time>
        <extensions>
          <ns3:TrackPointExtension>
            <ns3:atemp>23.0</ns3:atemp>
          </ns3:TrackPointExtension>
        </extensions>
      </trkpt>
      <trkpt lat="42.52807055599987506866455078125" lon="19.976813793182373046875">
        <ele>1296.199951171875</ele>
        <time>2026-06-19T07:36:21.000Z</time>
        <extensions>
          <ns3:TrackPointExtension>
            <ns3:atemp>23.0</ns3:atemp>
          </ns3:TrackPointExtension>
        </extensions>
      </trkpt>
      <trkpt lat="42.5280682928860187530517578125" lon="19.9768287129700183868408203125">
        <ele>1296.4000244140625</ele>
        <time>2026-06-19T07:36:22.000Z</time>
        <extensions>
          <ns3:TrackPointExtension>
            <ns3:atemp>23.0</ns3:atemp>
          </ns3:TrackPointExtension>
        </extensions>
      </trkpt>
      <trkpt lat="42.528066448867321014404296875" lon="19.9768421240150928497314453125">
        <ele>1296.5999755859375</ele>
        <time>2026-06-19T07:36:23.000Z</time>
        <extensions>
          <ns3:TrackPointExtension>
            <ns3:atemp>23.0</ns3:atemp>
          </ns3:TrackPointExtension>
        </extensions>
      </trkpt>
      <trkpt lat="42.5280639342963695526123046875" lon="19.97685075737535953521728515625">
        <ele>1296.800048828125</ele>
        <time>2026-06-19T07:36:24.000Z</time>
        <extensions>
          <ns3:TrackPointExtension>
            <ns3:atemp>22.0</ns3:atemp>
          </ns3:TrackPointExtension>
        </extensions>
      </trkpt>
      <trkpt lat="42.528067119419574737548828125" lon="19.976846985518932342529296875">
        <ele>1297</ele>
        <time>2026-06-19T07:36:25.000Z</time>
        <extensions>
          <ns3:TrackPointExtension>
            <ns3:atemp>22.0</ns3:atemp>
          </ns3:TrackPointExtension>
        </extensions>
      </trkpt>
      <trkpt lat="42.528067119419574737548828125" lon="19.976846985518932342529296875">
        <ele>1297.199951171875</ele>
        <time>2026-06-19T07:36:26.000Z</time>
        <extensions>
          <ns3:TrackPointExtension>
            <ns3:atemp>22.0</ns3:atemp>
          </ns3:TrackPointExtension>
        </extensions>
      </trkpt>
      <trkpt lat="42.528067119419574737548828125" lon="19.976846985518932342529296875">
        <ele>1297.4000244140625</ele>
        <time>2026-06-19T07:36:27.000Z</time>
        <extensions>
          <ns3:TrackPointExtension>
            <ns3:atemp>22.0</ns3:atemp>
          </ns3:TrackPointExtension>
        </extensions>
      </trkpt>
      <trkpt lat="42.528067119419574737548828125" lon="19.976846985518932342529296875">
        <ele>1297.4000244140625</ele>
        <time>2026-06-19T07:36:28.000Z</time>
        <extensions>
          <ns3:TrackPointExtension>
            <ns3:atemp>22.0</ns3:atemp>
          </ns3:TrackPointExtension>
        </extensions>
      </trkpt>
      <trkpt lat="42.528067119419574737548828125" lon="19.976846985518932342529296875">
        <ele>1297.5999755859375</ele>
        <time>2026-06-19T07:36:29.000Z</time>
        <extensions>
          <ns3:TrackPointExtension>
            <ns3:atemp>22.0</ns3:atemp>
          </ns3:TrackPointExtension>
        </extensions>
      </trkpt>
      <trkpt lat="42.528067789971828460693359375" lon="19.97684941627085208892822265625">
        <ele>1297.5999755859375</ele>
        <time>2026-06-19T07:36:30.000Z</time>
        <extensions>
          <ns3:TrackPointExtension>
            <ns3:atemp>22.0</ns3:atemp>
          </ns3:TrackPointExtension>
        </extensions>
      </trkpt>
      <trkpt lat="42.52806535921990871429443359375" lon="19.9768779985606670379638671875">
        <ele>1297.800048828125</ele>
        <time>2026-06-19T07:36:31.000Z</time>
        <extensions>
          <ns3:TrackPointExtension>
            <ns3:atemp>22.0</ns3:atemp>
          </ns3:TrackPointExtension>
        </extensions>
      </trkpt>
      <trkpt lat="42.52805647440254688262939453125" lon="19.9769048206508159637451171875">
        <ele>1297.800048828125</ele>
        <time>2026-06-19T07:36:32.000Z</time>
        <extensions>
          <ns3:TrackPointExtension>
            <ns3:atemp>22.0</ns3:atemp>
          </ns3:TrackPointExtension>
        </extensions>
      </trkpt>
      <trkpt lat="42.5280471704900264739990234375" lon="19.97692041099071502685546875">
        <ele>1297.800048828125</ele>
        <time>2026-06-19T07:36:33.000Z</time>
        <extensions>
          <ns3:TrackPointExtension>
            <ns3:atemp>22.0</ns3:atemp>
          </ns3:TrackPointExtension>
        </extensions>
      </trkpt>
      <trkpt lat="42.5280361063778400421142578125" lon="19.97693222947418689727783203125">
        <ele>1298</ele>
        <time>2026-06-19T07:36:34.000Z</time>
        <extensions>
          <ns3:TrackPointExtension>
            <ns3:atemp>22.0</ns3:atemp>
          </ns3:TrackPointExtension>
        </extensions>
      </trkpt>
      <trkpt lat="42.52802177332341670989990234375" lon="19.97694899328052997589111328125">
        <ele>1298.199951171875</ele>
        <time>2026-06-19T07:36:35.000Z</time>
        <extensions>
          <ns3:TrackPointExtension>
            <ns3:atemp>22.0</ns3:atemp>
          </ns3:TrackPointExtension>
        </extensions>
      </trkpt>
      <trkpt lat="42.52800769172608852386474609375" lon="19.97696676291525363922119140625">
        <ele>1298.4000244140625</ele>
        <time>2026-06-19T07:36:36.000Z</time>
        <extensions>
          <ns3:TrackPointExtension>
            <ns3:atemp>22.0</ns3:atemp>
          </ns3:TrackPointExtension>
        </extensions>
      </trkpt>
      <trkpt lat="42.52798807807266712188720703125" lon="19.97698168270289897918701171875">
        <ele>1298.5999755859375</ele>
        <time>2026-06-19T07:36:37.000Z</time>
        <extensions>
          <ns3:TrackPointExtension>
            <ns3:atemp>22.0</ns3:atemp>
          </ns3:TrackPointExtension>
        </extensions>
      </trkpt>
      <trkpt lat="42.52797131426632404327392578125" lon="19.976993165910243988037109375">
        <ele>1298.800048828125</ele>
        <time>2026-06-19T07:36:38.000Z</time>
        <extensions>
          <ns3:TrackPointExtension>
            <ns3:atemp>22.0</ns3:atemp>
          </ns3:TrackPointExtension>
        </extensions>
      </trkpt>
      <trkpt lat="42.5279532931745052337646484375" lon="19.9770040623843669891357421875">
        <ele>1299</ele>
        <time>2026-06-19T07:36:39.000Z</time>
        <extensions>
          <ns3:TrackPointExtension>
            <ns3:atemp>22.0</ns3:atemp>
          </ns3:TrackPointExtension>
        </extensions>
      </trkpt>
      <trkpt lat="42.5279378704726696014404296875" lon="19.9770090915262699127197265625">
        <ele>1299.199951171875</ele>
        <time>2026-06-19T07:36:40.000Z</time>
        <extensions>
          <ns3:TrackPointExtension>
            <ns3:atemp>22.0</ns3:atemp>
          </ns3:TrackPointExtension>
        </extensions>
      </trkpt>
      <trkpt lat="42.52792152576148509979248046875" lon="19.9770178087055683135986328125">
        <ele>1299.4000244140625</ele>
        <time>2026-06-19T07:36:41.000Z</time>
        <extensions>
          <ns3:TrackPointExtension>
            <ns3:atemp>22.0</ns3:atemp>
          </ns3:TrackPointExtension>
        </extensions>
      </trkpt>
      <trkpt lat="42.527904845774173736572265625" lon="19.977022670209407806396484375">
        <ele>1299.5999755859375</ele>
        <time>2026-06-19T07:36:42.000Z</time>
        <extensions>
          <ns3:TrackPointExtension>
            <ns3:atemp>22.0</ns3:atemp>
          </ns3:TrackPointExtension>
        </extensions>
      </trkpt>
      <trkpt lat="42.52788732759654521942138671875" lon="19.9770248495042324066162109375">
        <ele>1300</ele>
        <time>2026-06-19T07:36:43.000Z</time>
        <extensions>
          <ns3:TrackPointExtension>
            <ns3:atemp>22.0</ns3:atemp>
          </ns3:TrackPointExtension>
        </extensions>
      </trkpt>
      <trkpt lat="42.52786620520055294036865234375" lon="19.977020658552646636962890625">
        <ele>1300.199951171875</ele>
        <time>2026-06-19T07:36:44.000Z</time>
        <extensions>
          <ns3:TrackPointExtension>
            <ns3:atemp>22.0</ns3:atemp>
          </ns3:TrackPointExtension>
        </extensions>
      </trkpt>
      <trkpt lat="42.52784893848001956939697265625" lon="19.977017305791378021240234375">
        <ele>1300.4000244140625</ele>
        <time>2026-06-19T07:36:45.000Z</time>
        <extensions>
          <ns3:TrackPointExtension>
            <ns3:atemp>22.0</ns3:atemp>
          </ns3:TrackPointExtension>
        </extensions>
      </trkpt>
      <trkpt lat="42.52783502452075481414794921875" lon="19.9770064093172550201416015625">
        <ele>1300.5999755859375</ele>
        <time>2026-06-19T07:36:46.000Z</time>
        <extensions>
          <ns3:TrackPointExtension>
            <ns3:atemp>22.0</ns3:atemp>
          </ns3:TrackPointExtension>
        </extensions>
      </trkpt>
      <trkpt lat="42.52782479859888553619384765625" lon="19.9769953452050685882568359375">
        <ele>1300.800048828125</ele>
        <time>2026-06-19T07:36:47.000Z</time>
        <extensions>
          <ns3:TrackPointExtension>
            <ns3:atemp>22.0</ns3:atemp>
          </ns3:TrackPointExtension>
        </extensions>
      </trkpt>
      <trkpt lat="42.5278200209140777587890625" lon="19.97698369435966014862060546875">
        <ele>1300.800048828125</ele>
        <time>2026-06-19T07:36:48.000Z</time>
        <extensions>
          <ns3:TrackPointExtension>
            <ns3:atemp>22.0</ns3:atemp>
          </ns3:TrackPointExtension>
        </extensions>
      </trkpt>
      <trkpt lat="42.527813650667667388916015625" lon="19.976968355476856231689453125">
        <ele>1301</ele>
        <time>2026-06-19T07:36:49.000Z</time>
        <extensions>
          <ns3:TrackPointExtension>
            <ns3:atemp>22.0</ns3:atemp>
          </ns3:TrackPointExtension>
        </extensions>
      </trkpt>
      <trkpt lat="42.527808956801891326904296875" lon="19.976947568356990814208984375">
        <ele>1301</ele>
        <time>2026-06-19T07:36:50.000Z</time>
        <extensions>
          <ns3:TrackPointExtension>
            <ns3:atemp>22.0</ns3:atemp>
          </ns3:TrackPointExtension>
        </extensions>
      </trkpt>
      <trkpt lat="42.52781004644930362701416015625" lon="19.97692602686583995819091796875">
        <ele>1301.199951171875</ele>
        <time>2026-06-19T07:36:51.000Z</time>
        <extensions>
          <ns3:TrackPointExtension>
            <ns3:atemp>22.0</ns3:atemp>
          </ns3:TrackPointExtension>
        </extensions>
      </trkpt>
      <trkpt lat="42.5278198532760143280029296875" lon="19.97691378928720951080322265625">
        <ele>1301.4000244140625</ele>
        <time>2026-06-19T07:36:52.000Z</time>
        <extensions>
          <ns3:TrackPointExtension>
            <ns3:atemp>22.0</ns3:atemp>
          </ns3:TrackPointExtension>
        </extensions>
      </trkpt>
      <trkpt lat="42.52783250994980335235595703125" lon="19.9769034795463085174560546875">
        <ele>1301.5999755859375</ele>
        <time>2026-06-19T07:36:53.000Z</time>
        <extensions>
          <ns3:TrackPointExtension>
            <ns3:atemp>22.0</ns3:atemp>
          </ns3:TrackPointExtension>
        </extensions>
      </trkpt>
      <trkpt lat="42.52783812582492828369140625" lon="19.9768954329192638397216796875">
        <ele>1301.5999755859375</ele>
        <time>2026-06-19T07:36:54.000Z</time>
        <extensions>
          <ns3:TrackPointExtension>
            <ns3:atemp>22.0</ns3:atemp>
          </ns3:TrackPointExtension>
        </extensions>
      </trkpt>
      <trkpt lat="42.5278416462242603302001953125" lon="19.9768830277025699615478515625">
        <ele>1301.4000244140625</ele>
        <time>2026-06-19T07:36:55.000Z</time>
        <extensions>
          <ns3:TrackPointExtension>
            <ns3:atemp>22.0</ns3:atemp>
          </ns3:TrackPointExtension>
        </extensions>
      </trkpt>
      <trkpt lat="42.527848184108734130859375" lon="19.976865090429782867431640625">
        <ele>1301.4000244140625</ele>
        <time>2026-06-19T07:36:56.000Z</time>
        <extensions>
          <ns3:TrackPointExtension>
            <ns3:atemp>22.0</ns3:atemp>
          </ns3:TrackPointExtension>
        </extensions>
      </trkpt>
      <trkpt lat="42.5278533808887004852294921875" lon="19.97684690169990062713623046875">
        <ele>1301.4000244140625</ele>
        <time>2026-06-19T07:36:57.000Z</time>
        <extensions>
          <ns3:TrackPointExtension>
            <ns3:atemp>22.0</ns3:atemp>
          </ns3:TrackPointExtension>
        </extensions>
      </trkpt>
      <trkpt lat="42.52785882912576198577880859375" lon="19.97683030553162097930908203125">
        <ele>1301.4000244140625</ele>
        <time>2026-06-19T07:36:58.000Z</time>
        <extensions>
          <ns3:TrackPointExtension>
            <ns3:atemp>22.0</ns3:atemp>
          </ns3:TrackPointExtension>
        </extensions>
      </trkpt>
      <trkpt lat="42.52786385826766490936279296875" lon="19.9768129549920558929443359375">
        <ele>1301.800048828125</ele>
        <time>2026-06-19T07:36:59.000Z</time>
        <extensions>
          <ns3:TrackPointExtension>
            <ns3:atemp>22.0</ns3:atemp>
          </ns3:TrackPointExtension>
        </extensions>
      </trkpt>
      <trkpt lat="42.52786821685731410980224609375" lon="19.97679577209055423736572265625">
        <ele>1302</ele>
        <time>2026-06-19T07:37:00.000Z</time>
        <extensions>
          <ns3:TrackPointExtension>
            <ns3:atemp>22.0</ns3:atemp>
          </ns3:TrackPointExtension>
        </extensions>
      </trkpt>
      <trkpt lat="42.527870647609233856201171875" lon="19.976773895323276519775390625">
        <ele>1302.4000244140625</ele>
        <time>2026-06-19T07:37:01.000Z</time>
        <extensions>
          <ns3:TrackPointExtension>
            <ns3:atemp>22.0</ns3:atemp>
          </ns3:TrackPointExtension>
        </extensions>
      </trkpt>
      <trkpt lat="42.52787509001791477203369140625" lon="19.97674464248120784759521484375">
        <ele>1302.5999755859375</ele>
        <time>2026-06-19T07:37:02.000Z</time>
        <extensions>
          <ns3:TrackPointExtension>
            <ns3:atemp>22.0</ns3:atemp>
          </ns3:TrackPointExtension>
        </extensions>
      </trkpt>
      <trkpt lat="42.52787961624562740325927734375" lon="19.976718239486217498779296875">
        <ele>1303</ele>
        <time>2026-06-19T07:37:03.000Z</time>
        <extensions>
          <ns3:TrackPointExtension>
            <ns3:atemp>22.0</ns3:atemp>
          </ns3:TrackPointExtension>
        </extensions>
      </trkpt>
      <trkpt lat="42.52787995152175426483154296875" lon="19.9766865558922290802001953125">
        <ele>1303.199951171875</ele>
        <time>2026-06-19T07:37:04.000Z</time>
        <extensions>
          <ns3:TrackPointExtension>
            <ns3:atemp>22.0</ns3:atemp>
          </ns3:TrackPointExtension>
        </extensions>
      </trkpt>
      <trkpt lat="42.5278812088072299957275390625" lon="19.9766630865633487701416015625">
        <ele>1303.4000244140625</ele>
        <time>2026-06-19T07:37:05.000Z</time>
        <extensions>
          <ns3:TrackPointExtension>
            <ns3:atemp>22.0</ns3:atemp>
          </ns3:TrackPointExtension>
        </extensions>
      </trkpt>
      <trkpt lat="42.52787701785564422607421875" lon="19.976636432111263275146484375">
        <ele>1303.5999755859375</ele>
        <time>2026-06-19T07:37:06.000Z</time>
        <extensions>
          <ns3:TrackPointExtension>
            <ns3:atemp>22.0</ns3:atemp>
          </ns3:TrackPointExtension>
        </extensions>
      </trkpt>
      <trkpt lat="42.527876012027263641357421875" lon="19.97661304660141468048095703125">
        <ele>1303.800048828125</ele>
        <time>2026-06-19T07:37:07.000Z</time>
        <extensions>
          <ns3:TrackPointExtension>
            <ns3:atemp>22.0</ns3:atemp>
          </ns3:TrackPointExtension>
        </extensions>
      </trkpt>
      <trkpt lat="42.52787140198051929473876953125" lon="19.9765883199870586395263671875">
        <ele>1304</ele>
        <time>2026-06-19T07:37:08.000Z</time>
        <extensions>
          <ns3:TrackPointExtension>
            <ns3:atemp>22.0</ns3:atemp>
          </ns3:TrackPointExtension>
        </extensions>
      </trkpt>
      <trkpt lat="42.52786670811474323272705078125" lon="19.9765656888484954833984375">
        <ele>1304.199951171875</ele>
        <time>2026-06-19T07:37:09.000Z</time>
        <extensions>
          <ns3:TrackPointExtension>
            <ns3:atemp>22.0</ns3:atemp>
          </ns3:TrackPointExtension>
        </extensions>
      </trkpt>
      <trkpt lat="42.52785849384963512420654296875" lon="19.97654129751026630401611328125">
        <ele>1304.4000244140625</ele>
        <time>2026-06-19T07:37:10.000Z</time>
        <extensions>
          <ns3:TrackPointExtension>
            <ns3:atemp>22.0</ns3:atemp>
          </ns3:TrackPointExtension>
        </extensions>
      </trkpt>
      <trkpt lat="42.52785245887935161590576171875" lon="19.9765182472765445709228515625">
        <ele>1304.5999755859375</ele>
        <time>2026-06-19T07:37:11.000Z</time>
        <extensions>
          <ns3:TrackPointExtension>
            <ns3:atemp>22.0</ns3:atemp>
          </ns3:TrackPointExtension>
        </extensions>
      </trkpt>
      <trkpt lat="42.5278433226048946380615234375" lon="19.97649737633764743804931640625">
        <ele>1304.5999755859375</ele>
        <time>2026-06-19T07:37:12.000Z</time>
        <extensions>
          <ns3:TrackPointExtension>
            <ns3:atemp>22.0</ns3:atemp>
          </ns3:TrackPointExtension>
        </extensions>
      </trkpt>
      <trkpt lat="42.527838461101055145263671875" lon="19.9764733202755451202392578125">
        <ele>1304.800048828125</ele>
        <time>2026-06-19T07:37:13.000Z</time>
        <extensions>
          <ns3:TrackPointExtension>
            <ns3:atemp>22.0</ns3:atemp>
          </ns3:TrackPointExtension>
        </extensions>
      </trkpt>
      <trkpt lat="42.5278346054255962371826171875" lon="19.97644641436636447906494140625">
        <ele>1305</ele>
        <time>2026-06-19T07:37:14.000Z</time>
        <extensions>
          <ns3:TrackPointExtension>
            <ns3:atemp>22.0</ns3:atemp>
          </ns3:TrackPointExtension>
        </extensions>
      </trkpt>
      <trkpt lat="42.52782873809337615966796875" lon="19.97642294503748416900634765625">
        <ele>1305.4000244140625</ele>
        <time>2026-06-19T07:37:15.000Z</time>
        <extensions>
          <ns3:TrackPointExtension>
            <ns3:atemp>22.0</ns3:atemp>
          </ns3:TrackPointExtension>
        </extensions>
      </trkpt>
      <trkpt lat="42.52782513387501239776611328125" lon="19.97640081681311130523681640625">
        <ele>1305.5999755859375</ele>
        <time>2026-06-19T07:37:16.000Z</time>
        <extensions>
          <ns3:TrackPointExtension>
            <ns3:atemp>22.0</ns3:atemp>
          </ns3:TrackPointExtension>
        </extensions>
      </trkpt>
      <trkpt lat="42.52781800925731658935546875" lon="19.97638321481645107269287109375">
        <ele>1305.800048828125</ele>
        <time>2026-06-19T07:37:17.000Z</time>
        <extensions>
          <ns3:TrackPointExtension>
            <ns3:atemp>22.0</ns3:atemp>
          </ns3:TrackPointExtension>
        </extensions>
      </trkpt>
      <trkpt lat="42.52780652604997158050537109375" lon="19.9763633497059345245361328125">
        <ele>1306</ele>
        <time>2026-06-19T07:37:18.000Z</time>
        <extensions>
          <ns3:TrackPointExtension>
            <ns3:atemp>22.0</ns3:atemp>
          </ns3:TrackPointExtension>
        </extensions>
      </trkpt>
      <trkpt lat="42.52779378555715084075927734375" lon="19.9763586558401584625244140625">
        <ele>1306.199951171875</ele>
        <time>2026-06-19T07:37:19.000Z</time>
        <extensions>
          <ns3:TrackPointExtension>
            <ns3:atemp>22.0</ns3:atemp>
          </ns3:TrackPointExtension>
        </extensions>
      </trkpt>
      <trkpt lat="42.52778020687401294708251953125" lon="19.97636360116302967071533203125">
        <ele>1306.4000244140625</ele>
        <time>2026-06-19T07:37:20.000Z</time>
        <extensions>
          <ns3:TrackPointExtension>
            <ns3:atemp>22.0</ns3:atemp>
          </ns3:TrackPointExtension>
        </extensions>
      </trkpt>
      <trkpt lat="42.5277729146182537078857421875" lon="19.97637852095067501068115234375">
        <ele>1306.800048828125</ele>
        <time>2026-06-19T07:37:21.000Z</time>
        <extensions>
          <ns3:TrackPointExtension>
            <ns3:atemp>22.0</ns3:atemp>
          </ns3:TrackPointExtension>
        </extensions>
      </trkpt>
      <trkpt lat="42.52777132205665111541748046875" lon="19.9763913452625274658203125">
        <ele>1307</ele>
        <time>2026-06-19T07:37:22.000Z</time>
        <extensions>
          <ns3:TrackPointExtension>
            <ns3:atemp>22.0</ns3:atemp>
          </ns3:TrackPointExtension>
        </extensions>
      </trkpt>
      <trkpt lat="42.527766041457653045654296875" lon="19.9764045886695384979248046875">
        <ele>1307.199951171875</ele>
        <time>2026-06-19T07:37:23.000Z</time>
        <extensions>
          <ns3:TrackPointExtension>
            <ns3:atemp>22.0</ns3:atemp>
          </ns3:TrackPointExtension>
        </extensions>
      </trkpt>
      <trkpt lat="42.527759335935115814208984375" lon="19.97642277739942073822021484375">
        <ele>1307.199951171875</ele>
        <time>2026-06-19T07:37:24.000Z</time>
        <extensions>
          <ns3:TrackPointExtension>
            <ns3:atemp>22.0</ns3:atemp>
          </ns3:TrackPointExtension>
        </extensions>
      </trkpt>
      <trkpt lat="42.52775363624095916748046875" lon="19.97643484733998775482177734375">
        <ele>1307.4000244140625</ele>
        <time>2026-06-19T07:37:25.000Z</time>
        <extensions>
          <ns3:TrackPointExtension>
            <ns3:atemp>22.0</ns3:atemp>
          </ns3:TrackPointExtension>
        </extensions>
      </trkpt>
      <trkpt lat="42.5277481041848659515380859375" lon="19.97644926421344280242919921875">
        <ele>1307.5999755859375</ele>
        <time>2026-06-19T07:37:26.000Z</time>
        <extensions>
          <ns3:TrackPointExtension>
            <ns3:atemp>22.0</ns3:atemp>
          </ns3:TrackPointExtension>
        </extensions>
      </trkpt>
      <trkpt lat="42.5277397222816944122314453125" lon="19.97646368108689785003662109375">
        <ele>1307.5999755859375</ele>
        <time>2026-06-19T07:37:27.000Z</time>
        <extensions>
          <ns3:TrackPointExtension>
            <ns3:atemp>22.0</ns3:atemp>
          </ns3:TrackPointExtension>
        </extensions>
      </trkpt>
      <trkpt lat="42.5277373753488063812255859375" lon="19.9764771759510040283203125">
        <ele>1307.800048828125</ele>
        <time>2026-06-19T07:37:28.000Z</time>
        <extensions>
          <ns3:TrackPointExtension>
            <ns3:atemp>22.0</ns3:atemp>
          </ns3:TrackPointExtension>
        </extensions>
      </trkpt>
      <trkpt lat="42.5277367047965526580810546875" lon="19.97648991644382476806640625">
        <ele>1308</ele>
        <time>2026-06-19T07:37:29.000Z</time>
        <extensions>
          <ns3:TrackPointExtension>
            <ns3:atemp>22.0</ns3:atemp>
          </ns3:TrackPointExtension>
        </extensions>
      </trkpt>
      <trkpt lat="42.5277346931397914886474609375" lon="19.9765118770301342010498046875">
        <ele>1308.199951171875</ele>
        <time>2026-06-19T07:37:30.000Z</time>
        <extensions>
          <ns3:TrackPointExtension>
            <ns3:atemp>22.0</ns3:atemp>
          </ns3:TrackPointExtension>
        </extensions>
      </trkpt>
      <trkpt lat="42.52773662097752094268798828125" lon="19.97653643600642681121826171875">
        <ele>1308.4000244140625</ele>
        <time>2026-06-19T07:37:31.000Z</time>
        <extensions>
          <ns3:TrackPointExtension>
            <ns3:atemp>22.0</ns3:atemp>
          </ns3:TrackPointExtension>
        </extensions>
      </trkpt>
      <trkpt lat="42.527735866606235504150390625" lon="19.97655806131660938262939453125">
        <ele>1308.5999755859375</ele>
        <time>2026-06-19T07:37:32.000Z</time>
        <extensions>
          <ns3:TrackPointExtension>
            <ns3:atemp>22.0</ns3:atemp>
          </ns3:TrackPointExtension>
        </extensions>
      </trkpt>
      <trkpt lat="42.52773243002593517303466796875" lon="19.97657432220876216888427734375">
        <ele>1308.800048828125</ele>
        <time>2026-06-19T07:37:33.000Z</time>
        <extensions>
          <ns3:TrackPointExtension>
            <ns3:atemp>22.0</ns3:atemp>
          </ns3:TrackPointExtension>
        </extensions>
      </trkpt>
      <trkpt lat="42.52773125655949115753173828125" lon="19.976590164005756378173828125">
        <ele>1309</ele>
        <time>2026-06-19T07:37:34.000Z</time>
        <extensions>
          <ns3:TrackPointExtension>
            <ns3:atemp>22.0</ns3:atemp>
          </ns3:TrackPointExtension>
        </extensions>
      </trkpt>
      <trkpt lat="42.52772589214146137237548828125" lon="19.9766087718307971954345703125">
        <ele>1309.4000244140625</ele>
        <time>2026-06-19T07:37:35.000Z</time>
        <extensions>
          <ns3:TrackPointExtension>
            <ns3:atemp>22.0</ns3:atemp>
          </ns3:TrackPointExtension>
        </extensions>
      </trkpt>
      <trkpt lat="42.527721114456653594970703125" lon="19.97663014568388462066650390625">
        <ele>1309.5999755859375</ele>
        <time>2026-06-19T07:37:36.000Z</time>
        <extensions>
          <ns3:TrackPointExtension>
            <ns3:atemp>22.0</ns3:atemp>
          </ns3:TrackPointExtension>
        </extensions>
      </trkpt>
      <trkpt lat="42.5277095474302768707275390625" lon="19.97664875350892543792724609375">
        <ele>1309.800048828125</ele>
        <time>2026-06-19T07:37:37.000Z</time>
        <extensions>
          <ns3:TrackPointExtension>
            <ns3:atemp>22.0</ns3:atemp>
          </ns3:TrackPointExtension>
        </extensions>
      </trkpt>
      <trkpt lat="42.5277035124599933624267578125" lon="19.97666836716234683990478515625">
        <ele>1310</ele>
        <time>2026-06-19T07:37:38.000Z</time>
        <extensions>
          <ns3:TrackPointExtension>
            <ns3:atemp>22.0</ns3:atemp>
          </ns3:TrackPointExtension>
        </extensions>
      </trkpt>
      <trkpt lat="42.5276968069374561309814453125" lon="19.9766872264444828033447265625">
        <ele>1310.199951171875</ele>
        <time>2026-06-19T07:37:39.000Z</time>
        <extensions>
          <ns3:TrackPointExtension>
            <ns3:atemp>22.0</ns3:atemp>
          </ns3:TrackPointExtension>
        </extensions>
      </trkpt>
      <trkpt lat="42.52768197096884250640869140625" lon="19.9766971170902252197265625">
        <ele>1310.4000244140625</ele>
        <time>2026-06-19T07:37:40.000Z</time>
        <extensions>
          <ns3:TrackPointExtension>
            <ns3:atemp>22.0</ns3:atemp>
          </ns3:TrackPointExtension>
        </extensions>
      </trkpt>
      <trkpt lat="42.5276644527912139892578125" lon="19.97671027667820453643798828125">
        <ele>1310.5999755859375</ele>
        <time>2026-06-19T07:37:41.000Z</time>
        <extensions>
          <ns3:TrackPointExtension>
            <ns3:atemp>22.0</ns3:atemp>
          </ns3:TrackPointExtension>
        </extensions>
      </trkpt>
      <trkpt lat="42.5276537239551544189453125" lon="19.9767227657139301300048828125">
        <ele>1310.800048828125</ele>
        <time>2026-06-19T07:37:42.000Z</time>
        <extensions>
          <ns3:TrackPointExtension>
            <ns3:atemp>22.0</ns3:atemp>
          </ns3:TrackPointExtension>
        </extensions>
      </trkpt>
      <trkpt lat="42.52763570286333560943603515625" lon="19.97673676349222660064697265625">
        <ele>1311</ele>
        <time>2026-06-19T07:37:43.000Z</time>
        <extensions>
          <ns3:TrackPointExtension>
            <ns3:atemp>22.0</ns3:atemp>
          </ns3:TrackPointExtension>
        </extensions>
      </trkpt>
      <trkpt lat="42.52762195654213428497314453125" lon="19.976749420166015625">
        <ele>1311</ele>
        <time>2026-06-19T07:37:44.000Z</time>
        <extensions>
          <ns3:TrackPointExtension>
            <ns3:atemp>22.0</ns3:atemp>
          </ns3:TrackPointExtension>
        </extensions>
      </trkpt>
      <trkpt lat="42.52760611474514007568359375" lon="19.9767601490020751953125">
        <ele>1311.199951171875</ele>
        <time>2026-06-19T07:37:45.000Z</time>
        <extensions>
          <ns3:TrackPointExtension>
            <ns3:atemp>22.0</ns3:atemp>
          </ns3:TrackPointExtension>
        </extensions>
      </trkpt>
      <trkpt lat="42.5275911949574947357177734375" lon="19.976772554218769073486328125">
        <ele>1311.4000244140625</ele>
        <time>2026-06-19T07:37:46.000Z</time>
        <extensions>
          <ns3:TrackPointExtension>
            <ns3:atemp>22.0</ns3:atemp>
          </ns3:TrackPointExtension>
        </extensions>
      </trkpt>
      <trkpt lat="42.52757795155048370361328125" lon="19.976783953607082366943359375">
        <ele>1311.5999755859375</ele>
        <time>2026-06-19T07:37:47.000Z</time>
        <extensions>
          <ns3:TrackPointExtension>
            <ns3:atemp>22.0</ns3:atemp>
          </ns3:TrackPointExtension>
        </extensions>
      </trkpt>
      <trkpt lat="42.5275673903524875640869140625" lon="19.9767945148050785064697265625">
        <ele>1311.800048828125</ele>
        <time>2026-06-19T07:37:48.000Z</time>
        <extensions>
          <ns3:TrackPointExtension>
            <ns3:atemp>22.0</ns3:atemp>
          </ns3:TrackPointExtension>
        </extensions>
      </trkpt>
      <trkpt lat="42.5275571644306182861328125" lon="19.97680767439305782318115234375">
        <ele>1312</ele>
        <time>2026-06-19T07:37:49.000Z</time>
        <extensions>
          <ns3:TrackPointExtension>
            <ns3:atemp>22.0</ns3:atemp>
          </ns3:TrackPointExtension>
        </extensions>
      </trkpt>
      <trkpt lat="42.5275439210236072540283203125" lon="19.97681488282978534698486328125">
        <ele>1312.199951171875</ele>
        <time>2026-06-19T07:37:50.000Z</time>
        <extensions>
          <ns3:TrackPointExtension>
            <ns3:atemp>22.0</ns3:atemp>
          </ns3:TrackPointExtension>
        </extensions>
      </trkpt>
      <trkpt lat="42.527527995407581329345703125" lon="19.9768186546862125396728515625">
        <ele>1312.4000244140625</ele>
        <time>2026-06-19T07:37:51.000Z</time>
        <extensions>
          <ns3:TrackPointExtension>
            <ns3:atemp>22.0</ns3:atemp>
          </ns3:TrackPointExtension>
        </extensions>
      </trkpt>
      <trkpt lat="42.52751131542026996612548828125" lon="19.97682477347552776336669921875">
        <ele>1312.5999755859375</ele>
        <time>2026-06-19T07:37:52.000Z</time>
        <extensions>
          <ns3:TrackPointExtension>
            <ns3:atemp>22.0</ns3:atemp>
          </ns3:TrackPointExtension>
        </extensions>
      </trkpt>
      <trkpt lat="42.52749186940491199493408203125" lon="19.97682644985616207122802734375">
        <ele>1312.800048828125</ele>
        <time>2026-06-19T07:37:53.000Z</time>
        <extensions>
          <ns3:TrackPointExtension>
            <ns3:atemp>22.0</ns3:atemp>
          </ns3:TrackPointExtension>
        </extensions>
      </trkpt>
      <trkpt lat="42.5274711661040782928466796875" lon="19.9768256954848766326904296875">
        <ele>1313</ele>
        <time>2026-06-19T07:37:54.000Z</time>
        <extensions>
          <ns3:TrackPointExtension>
            <ns3:atemp>22.0</ns3:atemp>
          </ns3:TrackPointExtension>
        </extensions>
      </trkpt>
      <trkpt lat="42.52745280973613262176513671875" lon="19.97682225890457630157470703125">
        <ele>1313.199951171875</ele>
        <time>2026-06-19T07:37:55.000Z</time>
        <extensions>
          <ns3:TrackPointExtension>
            <ns3:atemp>22.0</ns3:atemp>
          </ns3:TrackPointExtension>
        </extensions>
      </trkpt>
      <trkpt lat="42.5274376384913921356201171875" lon="19.9768179841339588165283203125">
        <ele>1313.4000244140625</ele>
        <time>2026-06-19T07:37:56.000Z</time>
        <extensions>
          <ns3:TrackPointExtension>
            <ns3:atemp>22.0</ns3:atemp>
          </ns3:TrackPointExtension>
        </extensions>
      </trkpt>
      <trkpt lat="42.52742104232311248779296875" lon="19.9768178164958953857421875">
        <ele>1313.5999755859375</ele>
        <time>2026-06-19T07:37:57.000Z</time>
        <extensions>
          <ns3:TrackPointExtension>
            <ns3:atemp>22.0</ns3:atemp>
          </ns3:TrackPointExtension>
        </extensions>
      </trkpt>
      <trkpt lat="42.52740704454481601715087890625" lon="19.97681538574397563934326171875">
        <ele>1314</ele>
        <time>2026-06-19T07:37:58.000Z</time>
        <extensions>
          <ns3:TrackPointExtension>
            <ns3:atemp>22.0</ns3:atemp>
          </ns3:TrackPointExtension>
        </extensions>
      </trkpt>
      <trkpt lat="42.52739480696618556976318359375" lon="19.97680851258337497711181640625">
        <ele>1314.199951171875</ele>
        <time>2026-06-19T07:37:59.000Z</time>
        <extensions>
          <ns3:TrackPointExtension>
            <ns3:atemp>22.0</ns3:atemp>
          </ns3:TrackPointExtension>
        </extensions>
      </trkpt>
      <trkpt lat="42.52738080918788909912109375" lon="19.97679409570991992950439453125">
        <ele>1314.4000244140625</ele>
        <time>2026-06-19T07:38:00.000Z</time>
        <extensions>
          <ns3:TrackPointExtension>
            <ns3:atemp>22.0</ns3:atemp>
          </ns3:TrackPointExtension>
        </extensions>
      </trkpt>
      <trkpt lat="42.52737008035182952880859375" lon="19.976775236427783966064453125">
        <ele>1314.5999755859375</ele>
        <time>2026-06-19T07:38:01.000Z</time>
        <extensions>
          <ns3:TrackPointExtension>
            <ns3:atemp>22.0</ns3:atemp>
          </ns3:TrackPointExtension>
        </extensions>
      </trkpt>
      <trkpt lat="42.52737100236117839813232421875" lon="19.976757802069187164306640625">
        <ele>1314.5999755859375</ele>
        <time>2026-06-19T07:38:02.000Z</time>
        <extensions>
          <ns3:TrackPointExtension>
            <ns3:atemp>22.0</ns3:atemp>
          </ns3:TrackPointExtension>
        </extensions>
      </trkpt>
      <trkpt lat="42.52737267874181270599365234375" lon="19.97674338519573211669921875">
        <ele>1314.800048828125</ele>
        <time>2026-06-19T07:38:03.000Z</time>
        <extensions>
          <ns3:TrackPointExtension>
            <ns3:atemp>22.0</ns3:atemp>
          </ns3:TrackPointExtension>
        </extensions>
      </trkpt>
      <trkpt lat="42.52737276256084442138671875" lon="19.97673022560775279998779296875">
        <ele>1315</ele>
        <time>2026-06-19T07:38:04.000Z</time>
        <extensions>
          <ns3:TrackPointExtension>
            <ns3:atemp>22.0</ns3:atemp>
          </ns3:TrackPointExtension>
        </extensions>
      </trkpt>
      <trkpt lat="42.5273732654750347137451171875" lon="19.9767137132585048675537109375">
        <ele>1315</ele>
        <time>2026-06-19T07:38:05.000Z</time>
        <extensions>
          <ns3:TrackPointExtension>
            <ns3:atemp>22.0</ns3:atemp>
          </ns3:TrackPointExtension>
        </extensions>
      </trkpt>
      <trkpt lat="42.527376450598239898681640625" lon="19.9767046608030796051025390625">
        <ele>1315.199951171875</ele>
        <time>2026-06-19T07:38:06.000Z</time>
        <extensions>
          <ns3:TrackPointExtension>
            <ns3:atemp>22.0</ns3:atemp>
          </ns3:TrackPointExtension>
        </extensions>
      </trkpt>
      <trkpt lat="42.527385838329792022705078125" lon="19.976696781814098358154296875">
        <ele>1315.199951171875</ele>
        <time>2026-06-19T07:38:07.000Z</time>
        <extensions>
          <ns3:TrackPointExtension>
            <ns3:atemp>22.0</ns3:atemp>
          </ns3:TrackPointExtension>
        </extensions>
      </trkpt>
      <trkpt lat="42.52739313058555126190185546875" lon="19.97668278403580188751220703125">
        <ele>1315.199951171875</ele>
        <time>2026-06-19T07:38:08.000Z</time>
        <extensions>
          <ns3:TrackPointExtension>
            <ns3:atemp>22.0</ns3:atemp>
          </ns3:TrackPointExtension>
        </extensions>
      </trkpt>
      <trkpt lat="42.527398578822612762451171875" lon="19.97666937299072742462158203125">
        <ele>1315.199951171875</ele>
        <time>2026-06-19T07:38:09.000Z</time>
        <extensions>
          <ns3:TrackPointExtension>
            <ns3:atemp>22.0</ns3:atemp>
          </ns3:TrackPointExtension>
        </extensions>
      </trkpt>
      <trkpt lat="42.52741106785833835601806640625" lon="19.976659901440143585205078125">
        <ele>1315.4000244140625</ele>
        <time>2026-06-19T07:38:10.000Z</time>
        <extensions>
          <ns3:TrackPointExtension>
            <ns3:atemp>22.0</ns3:atemp>
          </ns3:TrackPointExtension>
        </extensions>
      </trkpt>
      <trkpt lat="42.52742280252277851104736328125" lon="19.97664288617670536041259765625">
        <ele>1315.4000244140625</ele>
        <time>2026-06-19T07:38:11.000Z</time>
        <extensions>
          <ns3:TrackPointExtension>
            <ns3:atemp>22.0</ns3:atemp>
          </ns3:TrackPointExtension>
        </extensions>
      </trkpt>
      <trkpt lat="42.52743135206401348114013671875" lon="19.9766171537339687347412109375">
        <ele>1315.5999755859375</ele>
        <time>2026-06-19T07:38:12.000Z</time>
        <extensions>
          <ns3:TrackPointExtension>
            <ns3:atemp>22.0</ns3:atemp>
          </ns3:TrackPointExtension>
        </extensions>
      </trkpt>
      <trkpt lat="42.527442164719104766845703125" lon="19.976592175662517547607421875">
        <ele>1315.800048828125</ele>
        <time>2026-06-19T07:38:13.000Z</time>
        <extensions>
          <ns3:TrackPointExtension>
            <ns3:atemp>22.0</ns3:atemp>
          </ns3:TrackPointExtension>
        </extensions>
      </trkpt>
      <trkpt lat="42.52745398320257663726806640625" lon="19.9765742383897304534912109375">
        <ele>1316.199951171875</ele>
        <time>2026-06-19T07:38:14.000Z</time>
        <extensions>
          <ns3:TrackPointExtension>
            <ns3:atemp>22.0</ns3:atemp>
          </ns3:TrackPointExtension>
        </extensions>
      </trkpt>
      <trkpt lat="42.52746270038187503814697265625" lon="19.97655906714498996734619140625">
        <ele>1316.4000244140625</ele>
        <time>2026-06-19T07:38:15.000Z</time>
        <extensions>
          <ns3:TrackPointExtension>
            <ns3:atemp>22.0</ns3:atemp>
          </ns3:TrackPointExtension>
        </extensions>
      </trkpt>
      <trkpt lat="42.52747259102761745452880859375" lon="19.97654515318572521209716796875">
        <ele>1316.5999755859375</ele>
        <time>2026-06-19T07:38:16.000Z</time>
        <extensions>
          <ns3:TrackPointExtension>
            <ns3:atemp>22.0</ns3:atemp>
          </ns3:TrackPointExtension>
        </extensions>
      </trkpt>
      <trkpt lat="42.52748281694948673248291015625" lon="19.976527802646160125732421875">
        <ele>1316.800048828125</ele>
        <time>2026-06-19T07:38:17.000Z</time>
        <extensions>
          <ns3:TrackPointExtension>
            <ns3:atemp>22.0</ns3:atemp>
          </ns3:TrackPointExtension>
        </extensions>
      </trkpt>
      <trkpt lat="42.52748566679656505584716796875" lon="19.97651548124849796295166015625">
        <ele>1317</ele>
        <time>2026-06-19T07:38:18.000Z</time>
        <extensions>
          <ns3:TrackPointExtension>
            <ns3:atemp>22.0</ns3:atemp>
          </ns3:TrackPointExtension>
        </extensions>
      </trkpt>
      <trkpt lat="42.527498491108417510986328125" lon="19.9765021540224552154541015625">
        <ele>1317.199951171875</ele>
        <time>2026-06-19T07:38:19.000Z</time>
        <extensions>
          <ns3:TrackPointExtension>
            <ns3:atemp>22.0</ns3:atemp>
          </ns3:TrackPointExtension>
        </extensions>
      </trkpt>
      <trkpt lat="42.52750829793512821197509765625" lon="19.97648513875901699066162109375">
        <ele>1317.4000244140625</ele>
        <time>2026-06-19T07:38:20.000Z</time>
        <extensions>
          <ns3:TrackPointExtension>
            <ns3:atemp>22.0</ns3:atemp>
          </ns3:TrackPointExtension>
        </extensions>
      </trkpt>
      <trkpt lat="42.52751416526734828948974609375" lon="19.97646384872496128082275390625">
        <ele>1317.5999755859375</ele>
        <time>2026-06-19T07:38:21.000Z</time>
        <extensions>
          <ns3:TrackPointExtension>
            <ns3:atemp>22.0</ns3:atemp>
          </ns3:TrackPointExtension>
        </extensions>
      </trkpt>
      <trkpt lat="42.5275140814483165740966796875" lon="19.97644389979541301727294921875">
        <ele>1317.800048828125</ele>
        <time>2026-06-19T07:38:22.000Z</time>
        <extensions>
          <ns3:TrackPointExtension>
            <ns3:atemp>22.0</ns3:atemp>
          </ns3:TrackPointExtension>
        </extensions>
      </trkpt>
      <trkpt lat="42.52751483581960201263427734375" lon="19.976425208151340484619140625">
        <ele>1318</ele>
        <time>2026-06-19T07:38:23.000Z</time>
        <extensions>
          <ns3:TrackPointExtension>
            <ns3:atemp>22.0</ns3:atemp>
          </ns3:TrackPointExtension>
        </extensions>
      </trkpt>
      <trkpt lat="42.5275130756199359893798828125" lon="19.97640718705952167510986328125">
        <ele>1318</ele>
        <time>2026-06-19T07:38:24.000Z</time>
        <extensions>
          <ns3:TrackPointExtension>
            <ns3:atemp>22.0</ns3:atemp>
          </ns3:TrackPointExtension>
        </extensions>
      </trkpt>
      <trkpt lat="42.52751315943896770477294921875" lon="19.97638396918773651123046875">
        <ele>1318.199951171875</ele>
        <time>2026-06-19T07:38:25.000Z</time>
        <extensions>
          <ns3:TrackPointExtension>
            <ns3:atemp>22.0</ns3:atemp>
          </ns3:TrackPointExtension>
        </extensions>
      </trkpt>
      <trkpt lat="42.52751684747636318206787109375" lon="19.97636695392429828643798828125">
        <ele>1318.4000244140625</ele>
        <time>2026-06-19T07:38:26.000Z</time>
        <extensions>
          <ns3:TrackPointExtension>
            <ns3:atemp>22.0</ns3:atemp>
          </ns3:TrackPointExtension>
        </extensions>
      </trkpt>
      <trkpt lat="42.5275248102843761444091796875" lon="19.9763532914221286773681640625">
        <ele>1318.4000244140625</ele>
        <time>2026-06-19T07:38:27.000Z</time>
        <extensions>
          <ns3:TrackPointExtension>
            <ns3:atemp>22.0</ns3:atemp>
          </ns3:TrackPointExtension>
        </extensions>
      </trkpt>
      <trkpt lat="42.52753042615950107574462890625" lon="19.9763378687202930450439453125">
        <ele>1318.5999755859375</ele>
        <time>2026-06-19T07:38:28.000Z</time>
        <extensions>
          <ns3:TrackPointExtension>
            <ns3:atemp>22.0</ns3:atemp>
          </ns3:TrackPointExtension>
        </extensions>
      </trkpt>
      <trkpt lat="42.52753436565399169921875" lon="19.97632185928523540496826171875">
        <ele>1318.5999755859375</ele>
        <time>2026-06-19T07:38:29.000Z</time>
        <extensions>
          <ns3:TrackPointExtension>
            <ns3:atemp>22.0</ns3:atemp>
          </ns3:TrackPointExtension>
        </extensions>
      </trkpt>
      <trkpt lat="42.52753771841526031494140625" lon="19.97631113044917583465576171875">
        <ele>1318.5999755859375</ele>
        <time>2026-06-19T07:38:30.000Z</time>
        <extensions>
          <ns3:TrackPointExtension>
            <ns3:atemp>22.0</ns3:atemp>
          </ns3:TrackPointExtension>
        </extensions>
      </trkpt>
      <trkpt lat="42.52753713168203830718994140625" lon="19.97629344463348388671875">
        <ele>1318.5999755859375</ele>
        <time>2026-06-19T07:38:31.000Z</time>
        <extensions>
          <ns3:TrackPointExtension>
            <ns3:atemp>22.0</ns3:atemp>
          </ns3:TrackPointExtension>
        </extensions>
      </trkpt>
      <trkpt lat="42.52753436565399169921875" lon="19.97627844102680683135986328125">
        <ele>1318.800048828125</ele>
        <time>2026-06-19T07:38:32.000Z</time>
        <extensions>
          <ns3:TrackPointExtension>
            <ns3:atemp>22.0</ns3:atemp>
          </ns3:TrackPointExtension>
        </extensions>
      </trkpt>
      <trkpt lat="42.52753227017819881439208984375" lon="19.976258911192417144775390625">
        <ele>1318.800048828125</ele>
        <time>2026-06-19T07:38:33.000Z</time>
        <extensions>
          <ns3:TrackPointExtension>
            <ns3:atemp>22.0</ns3:atemp>
          </ns3:TrackPointExtension>
        </extensions>
      </trkpt>
      <trkpt lat="42.5275308452546596527099609375" lon="19.97623954899609088897705078125">
        <ele>1319</ele>
        <time>2026-06-19T07:38:34.000Z</time>
        <extensions>
          <ns3:TrackPointExtension>
            <ns3:atemp>22.0</ns3:atemp>
          </ns3:TrackPointExtension>
        </extensions>
      </trkpt>
      <trkpt lat="42.5275311805307865142822265625" lon="19.97621909715235233306884765625">
        <ele>1319</ele>
        <time>2026-06-19T07:38:35.000Z</time>
        <extensions>
          <ns3:TrackPointExtension>
            <ns3:atemp>22.0</ns3:atemp>
          </ns3:TrackPointExtension>
        </extensions>
      </trkpt>
      <trkpt lat="42.52753092907369136810302734375" lon="19.97619428671896457672119140625">
        <ele>1319.199951171875</ele>
        <time>2026-06-19T07:38:36.000Z</time>
        <extensions>
          <ns3:TrackPointExtension>
            <ns3:atemp>22.0</ns3:atemp>
          </ns3:TrackPointExtension>
        </extensions>
      </trkpt>
      <trkpt lat="42.527534030377864837646484375" lon="19.9761740863323211669921875">
        <ele>1319.4000244140625</ele>
        <time>2026-06-19T07:38:37.000Z</time>
        <extensions>
          <ns3:TrackPointExtension>
            <ns3:atemp>22.0</ns3:atemp>
          </ns3:TrackPointExtension>
        </extensions>
      </trkpt>
      <trkpt lat="42.5275382213294506072998046875" lon="19.97615656815469264984130859375">
        <ele>1319.5999755859375</ele>
        <time>2026-06-19T07:38:38.000Z</time>
        <extensions>
          <ns3:TrackPointExtension>
            <ns3:atemp>22.0</ns3:atemp>
          </ns3:TrackPointExtension>
        </extensions>
      </trkpt>
      <trkpt lat="42.5275425799190998077392578125" lon="19.97613125480711460113525390625">
        <ele>1320</ele>
        <time>2026-06-19T07:38:39.000Z</time>
        <extensions>
          <ns3:TrackPointExtension>
            <ns3:atemp>22.0</ns3:atemp>
          </ns3:TrackPointExtension>
        </extensions>
      </trkpt>
      <trkpt lat="42.52754400484263896942138671875" lon="19.9761078692972660064697265625">
        <ele>1320.199951171875</ele>
        <time>2026-06-19T07:38:40.000Z</time>
        <extensions>
          <ns3:TrackPointExtension>
            <ns3:atemp>22.0</ns3:atemp>
          </ns3:TrackPointExtension>
        </extensions>
      </trkpt>
      <trkpt lat="42.52754920162260532379150390625" lon="19.97608356177806854248046875">
        <ele>1320.4000244140625</ele>
        <time>2026-06-19T07:38:41.000Z</time>
        <extensions>
          <ns3:TrackPointExtension>
            <ns3:atemp>22.0</ns3:atemp>
          </ns3:TrackPointExtension>
        </extensions>
      </trkpt>
      <trkpt lat="42.52755247056484222412109375" lon="19.97605732642114162445068359375">
        <ele>1320.5999755859375</ele>
        <time>2026-06-19T07:38:42.000Z</time>
        <extensions>
          <ns3:TrackPointExtension>
            <ns3:atemp>22.0</ns3:atemp>
          </ns3:TrackPointExtension>
        </extensions>
      </trkpt>
      <trkpt lat="42.527556829154491424560546875" lon="19.97603938914835453033447265625">
        <ele>1320.800048828125</ele>
        <time>2026-06-19T07:38:43.000Z</time>
        <extensions>
          <ns3:TrackPointExtension>
            <ns3:atemp>22.0</ns3:atemp>
          </ns3:TrackPointExtension>
        </extensions>
      </trkpt>
      <trkpt lat="42.5275623612105846405029296875" lon="19.9760200269520282745361328125">
        <ele>1321</ele>
        <time>2026-06-19T07:38:44.000Z</time>
        <extensions>
          <ns3:TrackPointExtension>
            <ns3:atemp>22.0</ns3:atemp>
          </ns3:TrackPointExtension>
        </extensions>
      </trkpt>
      <trkpt lat="42.52756747417151927947998046875" lon="19.97599161230027675628662109375">
        <ele>1321.199951171875</ele>
        <time>2026-06-19T07:38:45.000Z</time>
        <extensions>
          <ns3:TrackPointExtension>
            <ns3:atemp>22.0</ns3:atemp>
          </ns3:TrackPointExtension>
        </extensions>
      </trkpt>
      <trkpt lat="42.5275697372853755950927734375" lon="19.9759569950401782989501953125">
        <ele>1321.4000244140625</ele>
        <time>2026-06-19T07:38:46.000Z</time>
        <extensions>
          <ns3:TrackPointExtension>
            <ns3:atemp>22.0</ns3:atemp>
          </ns3:TrackPointExtension>
        </extensions>
      </trkpt>
      <trkpt lat="42.52756630070507526397705078125" lon="19.97593360953032970428466796875">
        <ele>1321.5999755859375</ele>
        <time>2026-06-19T07:38:47.000Z</time>
        <extensions>
          <ns3:TrackPointExtension>
            <ns3:atemp>22.0</ns3:atemp>
          </ns3:TrackPointExtension>
        </extensions>
      </trkpt>
      <trkpt lat="42.527565546333789825439453125" lon="19.97590661980211734771728515625">
        <ele>1321.800048828125</ele>
        <time>2026-06-19T07:38:48.000Z</time>
        <extensions>
          <ns3:TrackPointExtension>
            <ns3:atemp>22.0</ns3:atemp>
          </ns3:TrackPointExtension>
        </extensions>
      </trkpt>
      <trkpt lat="42.527564875781536102294921875" lon="19.97588499449193477630615234375">
        <ele>1322</ele>
        <time>2026-06-19T07:38:49.000Z</time>
        <extensions>
          <ns3:TrackPointExtension>
            <ns3:atemp>22.0</ns3:atemp>
          </ns3:TrackPointExtension>
        </extensions>
      </trkpt>
      <trkpt lat="42.52755649387836456298828125" lon="19.97586429119110107421875">
        <ele>1322.199951171875</ele>
        <time>2026-06-19T07:38:50.000Z</time>
        <extensions>
          <ns3:TrackPointExtension>
            <ns3:atemp>22.0</ns3:atemp>
          </ns3:TrackPointExtension>
        </extensions>
      </trkpt>
      <trkpt lat="42.5275502912700176239013671875" lon="19.97585020959377288818359375">
        <ele>1322.4000244140625</ele>
        <time>2026-06-19T07:38:51.000Z</time>
        <extensions>
          <ns3:TrackPointExtension>
            <ns3:atemp>22.0</ns3:atemp>
          </ns3:TrackPointExtension>
        </extensions>
      </trkpt>
      <trkpt lat="42.5275412388145923614501953125" lon="19.9758443422615528106689453125">
        <ele>1322.5999755859375</ele>
        <time>2026-06-19T07:38:52.000Z</time>
        <extensions>
          <ns3:TrackPointExtension>
            <ns3:atemp>22.0</ns3:atemp>
          </ns3:TrackPointExtension>
        </extensions>
      </trkpt>
      <trkpt lat="42.52752833068370819091796875" lon="19.97584023512899875640869140625">
        <ele>1323</ele>
        <time>2026-06-19T07:38:53.000Z</time>
        <extensions>
          <ns3:TrackPointExtension>
            <ns3:atemp>22.0</ns3:atemp>
          </ns3:TrackPointExtension>
        </extensions>
      </trkpt>
      <trkpt lat="42.52751517109572887420654296875" lon="19.975841157138347625732421875">
        <ele>1323.199951171875</ele>
        <time>2026-06-19T07:38:54.000Z</time>
        <extensions>
          <ns3:TrackPointExtension>
            <ns3:atemp>22.0</ns3:atemp>
          </ns3:TrackPointExtension>
        </extensions>
      </trkpt>
      <trkpt lat="42.52750662155449390411376953125" lon="19.97584752738475799560546875">
        <ele>1323.4000244140625</ele>
        <time>2026-06-19T07:38:55.000Z</time>
        <extensions>
          <ns3:TrackPointExtension>
            <ns3:atemp>22.0</ns3:atemp>
          </ns3:TrackPointExtension>
        </extensions>
      </trkpt>
      <trkpt lat="42.5275010056793689727783203125" lon="19.97585599310696125030517578125">
        <ele>1323.4000244140625</ele>
        <time>2026-06-19T07:38:56.000Z</time>
        <extensions>
          <ns3:TrackPointExtension>
            <ns3:atemp>22.0</ns3:atemp>
          </ns3:TrackPointExtension>
        </extensions>
      </trkpt>
      <trkpt lat="42.52748969011008739471435546875" lon="19.9758602678775787353515625">
        <ele>1323.5999755859375</ele>
        <time>2026-06-19T07:38:57.000Z</time>
        <extensions>
          <ns3:TrackPointExtension>
            <ns3:atemp>22.0</ns3:atemp>
          </ns3:TrackPointExtension>
        </extensions>
      </trkpt>
      <trkpt lat="42.52748415805399417877197265625" lon="19.97586764395236968994140625">
        <ele>1323.800048828125</ele>
        <time>2026-06-19T07:38:58.000Z</time>
        <extensions>
          <ns3:TrackPointExtension>
            <ns3:atemp>22.0</ns3:atemp>
          </ns3:TrackPointExtension>
        </extensions>
      </trkpt>
      <trkpt lat="42.5274725072085857391357421875" lon="19.97588046826422214508056640625">
        <ele>1323.800048828125</ele>
        <time>2026-06-19T07:38:59.000Z</time>
        <extensions>
          <ns3:TrackPointExtension>
            <ns3:atemp>22.0</ns3:atemp>
          </ns3:TrackPointExtension>
        </extensions>
      </trkpt>
      <trkpt lat="42.5274631194770336151123046875" lon="19.9758912809193134307861328125">
        <ele>1324</ele>
        <time>2026-06-19T07:39:00.000Z</time>
        <extensions>
          <ns3:TrackPointExtension>
            <ns3:atemp>22.0</ns3:atemp>
          </ns3:TrackPointExtension>
        </extensions>
      </trkpt>
      <trkpt lat="42.52745482139289379119873046875" lon="19.9759040214121341705322265625">
        <ele>1324.199951171875</ele>
        <time>2026-06-19T07:39:01.000Z</time>
        <extensions>
          <ns3:TrackPointExtension>
            <ns3:atemp>22.0</ns3:atemp>
          </ns3:TrackPointExtension>
        </extensions>
      </trkpt>
      <trkpt lat="42.527451552450656890869140625" lon="19.97592656873166561126708984375">
        <ele>1324.199951171875</ele>
        <time>2026-06-19T07:39:02.000Z</time>
        <extensions>
          <ns3:TrackPointExtension>
            <ns3:atemp>22.0</ns3:atemp>
          </ns3:TrackPointExtension>
        </extensions>
      </trkpt>
      <trkpt lat="42.52744342200458049774169921875" lon="19.9759415723383426666259765625">
        <ele>1324.4000244140625</ele>
        <time>2026-06-19T07:39:03.000Z</time>
        <extensions>
          <ns3:TrackPointExtension>
            <ns3:atemp>22.0</ns3:atemp>
          </ns3:TrackPointExtension>
        </extensions>
      </trkpt>
      <trkpt lat="42.5274366326630115509033203125" lon="19.97595624066889286041259765625">
        <ele>1324.5999755859375</ele>
        <time>2026-06-19T07:39:04.000Z</time>
        <extensions>
          <ns3:TrackPointExtension>
            <ns3:atemp>22.0</ns3:atemp>
          </ns3:TrackPointExtension>
        </extensions>
      </trkpt>
      <trkpt lat="42.52742665819823741912841796875" lon="19.97597048990428447723388671875">
        <ele>1324.800048828125</ele>
        <time>2026-06-19T07:39:05.000Z</time>
        <extensions>
          <ns3:TrackPointExtension>
            <ns3:atemp>22.0</ns3:atemp>
          </ns3:TrackPointExtension>
        </extensions>
      </trkpt>
      <trkpt lat="42.52742196433246135711669921875" lon="19.97597970999777317047119140625">
        <ele>1325</ele>
        <time>2026-06-19T07:39:06.000Z</time>
        <extensions>
          <ns3:TrackPointExtension>
            <ns3:atemp>22.0</ns3:atemp>
          </ns3:TrackPointExtension>
        </extensions>
      </trkpt>
      <trkpt lat="42.5274101458489894866943359375" lon="19.97599496506154537200927734375">
        <ele>1325.199951171875</ele>
        <time>2026-06-19T07:39:07.000Z</time>
        <extensions>
          <ns3:TrackPointExtension>
            <ns3:atemp>22.0</ns3:atemp>
          </ns3:TrackPointExtension>
        </extensions>
      </trkpt>
      <trkpt lat="42.527398578822612762451171875" lon="19.9760076217353343963623046875">
        <ele>1325.4000244140625</ele>
        <time>2026-06-19T07:39:08.000Z</time>
        <extensions>
          <ns3:TrackPointExtension>
            <ns3:atemp>22.0</ns3:atemp>
          </ns3:TrackPointExtension>
        </extensions>
      </trkpt>
      <trkpt lat="42.52738726325333118438720703125" lon="19.9760263971984386444091796875">
        <ele>1325.5999755859375</ele>
        <time>2026-06-19T07:39:09.000Z</time>
        <extensions>
          <ns3:TrackPointExtension>
            <ns3:atemp>22.0</ns3:atemp>
          </ns3:TrackPointExtension>
        </extensions>
      </trkpt>
      <trkpt lat="42.5273759476840496063232421875" lon="19.976047687232494354248046875">
        <ele>1325.800048828125</ele>
        <time>2026-06-19T07:39:10.000Z</time>
        <extensions>
          <ns3:TrackPointExtension>
            <ns3:atemp>22.0</ns3:atemp>
          </ns3:TrackPointExtension>
        </extensions>
      </trkpt>
      <trkpt lat="42.5273675657808780670166015625" lon="19.97606344521045684814453125">
        <ele>1326.199951171875</ele>
        <time>2026-06-19T07:39:11.000Z</time>
        <extensions>
          <ns3:TrackPointExtension>
            <ns3:atemp>22.0</ns3:atemp>
          </ns3:TrackPointExtension>
        </extensions>
      </trkpt>
      <trkpt lat="42.52735407091677188873291015625" lon="19.9760721623897552490234375">
        <ele>1326.4000244140625</ele>
        <time>2026-06-19T07:39:12.000Z</time>
        <extensions>
          <ns3:TrackPointExtension>
            <ns3:atemp>22.0</ns3:atemp>
          </ns3:TrackPointExtension>
        </extensions>
      </trkpt>
      <trkpt lat="42.52734015695750713348388671875" lon="19.97608314268290996551513671875">
        <ele>1326.5999755859375</ele>
        <time>2026-06-19T07:39:13.000Z</time>
        <extensions>
          <ns3:TrackPointExtension>
            <ns3:atemp>22.0</ns3:atemp>
          </ns3:TrackPointExtension>
        </extensions>
      </trkpt>
      <trkpt lat="42.527332864701747894287109375" lon="19.97609370388090610504150390625">
        <ele>1327</ele>
        <time>2026-06-19T07:39:14.000Z</time>
        <extensions>
          <ns3:TrackPointExtension>
            <ns3:atemp>22.0</ns3:atemp>
          </ns3:TrackPointExtension>
        </extensions>
      </trkpt>
      <trkpt lat="42.527324818074703216552734375" lon="19.9761075340211391448974609375">
        <ele>1327.199951171875</ele>
        <time>2026-06-19T07:39:15.000Z</time>
        <extensions>
          <ns3:TrackPointExtension>
            <ns3:atemp>22.0</ns3:atemp>
          </ns3:TrackPointExtension>
        </extensions>
      </trkpt>
      <trkpt lat="42.5273155979812145233154296875" lon="19.9761226214468479156494140625">
        <ele>1327.4000244140625</ele>
        <time>2026-06-19T07:39:16.000Z</time>
        <extensions>
          <ns3:TrackPointExtension>
            <ns3:atemp>22.0</ns3:atemp>
          </ns3:TrackPointExtension>
        </extensions>
      </trkpt>
      <trkpt lat="42.5273068808019161224365234375" lon="19.976132847368717193603515625">
        <ele>1327.800048828125</ele>
        <time>2026-06-19T07:39:17.000Z</time>
        <extensions>
          <ns3:TrackPointExtension>
            <ns3:atemp>22.0</ns3:atemp>
          </ns3:TrackPointExtension>
        </extensions>
      </trkpt>
      <trkpt lat="42.52729673869907855987548828125" lon="19.97614885680377483367919921875">
        <ele>1328.199951171875</ele>
        <time>2026-06-19T07:39:18.000Z</time>
        <extensions>
          <ns3:TrackPointExtension>
            <ns3:atemp>22.0</ns3:atemp>
          </ns3:TrackPointExtension>
        </extensions>
      </trkpt>
      <trkpt lat="42.52728961408138275146484375" lon="19.97616595588624477386474609375">
        <ele>1328.4000244140625</ele>
        <time>2026-06-19T07:39:19.000Z</time>
        <extensions>
          <ns3:TrackPointExtension>
            <ns3:atemp>22.0</ns3:atemp>
          </ns3:TrackPointExtension>
        </extensions>
      </trkpt>
      <trkpt lat="42.52727477811276912689208984375" lon="19.97618439607322216033935546875">
        <ele>1328.5999755859375</ele>
        <time>2026-06-19T07:39:20.000Z</time>
        <extensions>
          <ns3:TrackPointExtension>
            <ns3:atemp>22.0</ns3:atemp>
          </ns3:TrackPointExtension>
        </extensions>
      </trkpt>
      <trkpt lat="42.52726404927670955657958984375" lon="19.9762004055082798004150390625">
        <ele>1328.800048828125</ele>
        <time>2026-06-19T07:39:21.000Z</time>
        <extensions>
          <ns3:TrackPointExtension>
            <ns3:atemp>22.0</ns3:atemp>
          </ns3:TrackPointExtension>
        </extensions>
      </trkpt>
      <trkpt lat="42.52724359743297100067138671875" lon="19.976215325295925140380859375">
        <ele>1329</ele>
        <time>2026-06-19T07:39:22.000Z</time>
        <extensions>
          <ns3:TrackPointExtension>
            <ns3:atemp>22.0</ns3:atemp>
          </ns3:TrackPointExtension>
        </extensions>
      </trkpt>
      <trkpt lat="42.5272213853895664215087890625" lon="19.9762278981506824493408203125">
        <ele>1329.199951171875</ele>
        <time>2026-06-19T07:39:23.000Z</time>
        <extensions>
          <ns3:TrackPointExtension>
            <ns3:atemp>22.0</ns3:atemp>
          </ns3:TrackPointExtension>
        </extensions>
      </trkpt>
      <trkpt lat="42.52720520831644535064697265625" lon="19.97623653151094913482666015625">
        <ele>1329.4000244140625</ele>
        <time>2026-06-19T07:39:24.000Z</time>
        <extensions>
          <ns3:TrackPointExtension>
            <ns3:atemp>22.0</ns3:atemp>
          </ns3:TrackPointExtension>
        </extensions>
      </trkpt>
      <trkpt lat="42.527188695967197418212890625" lon="19.97623971663415431976318359375">
        <ele>1329.5999755859375</ele>
        <time>2026-06-19T07:39:25.000Z</time>
        <extensions>
          <ns3:TrackPointExtension>
            <ns3:atemp>22.0</ns3:atemp>
          </ns3:TrackPointExtension>
        </extensions>
      </trkpt>
      <trkpt lat="42.5271709263324737548828125" lon="19.97624541632831096649169921875">
        <ele>1329.800048828125</ele>
        <time>2026-06-19T07:39:26.000Z</time>
        <extensions>
          <ns3:TrackPointExtension>
            <ns3:atemp>22.0</ns3:atemp>
          </ns3:TrackPointExtension>
        </extensions>
      </trkpt>
      <trkpt lat="42.527157850563526153564453125" lon="19.9762594141066074371337890625">
        <ele>1330</ele>
        <time>2026-06-19T07:39:27.000Z</time>
        <extensions>
          <ns3:TrackPointExtension>
            <ns3:atemp>22.0</ns3:atemp>
          </ns3:TrackPointExtension>
        </extensions>
      </trkpt>
      <trkpt lat="42.52714184112846851348876953125" lon="19.9762694723904132843017578125">
        <ele>1330.199951171875</ele>
        <time>2026-06-19T07:39:28.000Z</time>
        <extensions>
          <ns3:TrackPointExtension>
            <ns3:atemp>22.0</ns3:atemp>
          </ns3:TrackPointExtension>
        </extensions>
      </trkpt>
      <trkpt lat="42.5271258316934108734130859375" lon="19.97627961449325084686279296875">
        <ele>1330.4000244140625</ele>
        <time>2026-06-19T07:39:29.000Z</time>
        <extensions>
          <ns3:TrackPointExtension>
            <ns3:atemp>22.0</ns3:atemp>
          </ns3:TrackPointExtension>
        </extensions>
      </trkpt>
      <trkpt lat="42.5271104089915752410888671875" lon="19.9762902595102787017822265625">
        <ele>1330.5999755859375</ele>
        <time>2026-06-19T07:39:30.000Z</time>
        <extensions>
          <ns3:TrackPointExtension>
            <ns3:atemp>22.0</ns3:atemp>
          </ns3:TrackPointExtension>
        </extensions>
      </trkpt>
      <trkpt lat="42.5270919688045978546142578125" lon="19.97629470191895961761474609375">
        <ele>1330.800048828125</ele>
        <time>2026-06-19T07:39:31.000Z</time>
        <extensions>
          <ns3:TrackPointExtension>
            <ns3:atemp>22.0</ns3:atemp>
          </ns3:TrackPointExtension>
        </extensions>
      </trkpt>
      <trkpt lat="42.52707310952246189117431640625" lon="19.97630559839308261871337890625">
        <ele>1331</ele>
        <time>2026-06-19T07:39:32.000Z</time>
        <extensions>
          <ns3:TrackPointExtension>
            <ns3:atemp>22.0</ns3:atemp>
          </ns3:TrackPointExtension>
        </extensions>
      </trkpt>
      <trkpt lat="42.52706229686737060546875" lon="19.9763167463243007659912109375">
        <ele>1331.199951171875</ele>
        <time>2026-06-19T07:39:33.000Z</time>
        <extensions>
          <ns3:TrackPointExtension>
            <ns3:atemp>22.0</ns3:atemp>
          </ns3:TrackPointExtension>
        </extensions>
      </trkpt>
      <trkpt lat="42.5270470418035984039306640625" lon="19.97632772661745548248291015625">
        <ele>1331.4000244140625</ele>
        <time>2026-06-19T07:39:34.000Z</time>
        <extensions>
          <ns3:TrackPointExtension>
            <ns3:atemp>22.0</ns3:atemp>
          </ns3:TrackPointExtension>
        </extensions>
      </trkpt>
      <trkpt lat="42.52703270874917507171630859375" lon="19.97634247876703739166259765625">
        <ele>1331.5999755859375</ele>
        <time>2026-06-19T07:39:35.000Z</time>
        <extensions>
          <ns3:TrackPointExtension>
            <ns3:atemp>22.0</ns3:atemp>
          </ns3:TrackPointExtension>
        </extensions>
      </trkpt>
      <trkpt lat="42.52701410092413425445556640625" lon="19.9763573147356510162353515625">
        <ele>1331.5999755859375</ele>
        <time>2026-06-19T07:39:36.000Z</time>
        <extensions>
          <ns3:TrackPointExtension>
            <ns3:atemp>22.0</ns3:atemp>
          </ns3:TrackPointExtension>
        </extensions>
      </trkpt>
      <trkpt lat="42.52699901349842548370361328125" lon="19.9763703905045986175537109375">
        <ele>1332</ele>
        <time>2026-06-19T07:39:37.000Z</time>
        <extensions>
          <ns3:TrackPointExtension>
            <ns3:atemp>22.0</ns3:atemp>
          </ns3:TrackPointExtension>
        </extensions>
      </trkpt>
      <trkpt lat="42.52698308788239955902099609375" lon="19.9763841368257999420166015625">
        <ele>1332.199951171875</ele>
        <time>2026-06-19T07:39:38.000Z</time>
        <extensions>
          <ns3:TrackPointExtension>
            <ns3:atemp>22.0</ns3:atemp>
          </ns3:TrackPointExtension>
        </extensions>
      </trkpt>
      <trkpt lat="42.52696934156119823455810546875" lon="19.9763992242515087127685546875">
        <ele>1332.4000244140625</ele>
        <time>2026-06-19T07:39:39.000Z</time>
        <extensions>
          <ns3:TrackPointExtension>
            <ns3:atemp>22.0</ns3:atemp>
          </ns3:TrackPointExtension>
        </extensions>
      </trkpt>
      <trkpt lat="42.52695375122129917144775390625" lon="19.97640970163047313690185546875">
        <ele>1332.5999755859375</ele>
        <time>2026-06-19T07:39:40.000Z</time>
        <extensions>
          <ns3:TrackPointExtension>
            <ns3:atemp>22.0</ns3:atemp>
          </ns3:TrackPointExtension>
        </extensions>
      </trkpt>
      <trkpt lat="42.52693849615752696990966796875" lon="19.976415149867534637451171875">
        <ele>1332.800048828125</ele>
        <time>2026-06-19T07:39:41.000Z</time>
        <extensions>
          <ns3:TrackPointExtension>
            <ns3:atemp>22.0</ns3:atemp>
          </ns3:TrackPointExtension>
        </extensions>
      </trkpt>
      <trkpt lat="42.526925168931484222412109375" lon="19.9764277227222919464111328125">
        <ele>1333</ele>
        <time>2026-06-19T07:39:42.000Z</time>
        <extensions>
          <ns3:TrackPointExtension>
            <ns3:atemp>22.0</ns3:atemp>
          </ns3:TrackPointExtension>
        </extensions>
      </trkpt>
      <trkpt lat="42.52691284753382205963134765625" lon="19.97644205577671527862548828125">
        <ele>1333.4000244140625</ele>
        <time>2026-06-19T07:39:43.000Z</time>
        <extensions>
          <ns3:TrackPointExtension>
            <ns3:atemp>22.0</ns3:atemp>
          </ns3:TrackPointExtension>
        </extensions>
      </trkpt>
      <trkpt lat="42.5269045494496822357177734375" lon="19.9764639325439929962158203125">
        <ele>1333.5999755859375</ele>
        <time>2026-06-19T07:39:44.000Z</time>
        <extensions>
          <ns3:TrackPointExtension>
            <ns3:atemp>22.0</ns3:atemp>
          </ns3:TrackPointExtension>
        </extensions>
      </trkpt>
      <trkpt lat="42.5268995203077793121337890625" lon="19.9764870665967464447021484375">
        <ele>1333.800048828125</ele>
        <time>2026-06-19T07:39:45.000Z</time>
        <extensions>
          <ns3:TrackPointExtension>
            <ns3:atemp>22.0</ns3:atemp>
          </ns3:TrackPointExtension>
        </extensions>
      </trkpt>
      <trkpt lat="42.5268911384046077728271484375" lon="19.9765068478882312774658203125">
        <ele>1334</ele>
        <time>2026-06-19T07:39:46.000Z</time>
        <extensions>
          <ns3:TrackPointExtension>
            <ns3:atemp>22.0</ns3:atemp>
          </ns3:TrackPointExtension>
        </extensions>
      </trkpt>
      <trkpt lat="42.52687931992113590240478515625" lon="19.9765222705900669097900390625">
        <ele>1334.199951171875</ele>
        <time>2026-06-19T07:39:47.000Z</time>
        <extensions>
          <ns3:TrackPointExtension>
            <ns3:atemp>22.0</ns3:atemp>
          </ns3:TrackPointExtension>
        </extensions>
      </trkpt>
      <trkpt lat="42.52686582505702972412109375" lon="19.97653727419674396514892578125">
        <ele>1334.4000244140625</ele>
        <time>2026-06-19T07:39:48.000Z</time>
        <extensions>
          <ns3:TrackPointExtension>
            <ns3:atemp>22.0</ns3:atemp>
          </ns3:TrackPointExtension>
        </extensions>
      </trkpt>
      <trkpt lat="42.5268589518964290618896484375" lon="19.9765588156878948211669921875">
        <ele>1334.5999755859375</ele>
        <time>2026-06-19T07:39:49.000Z</time>
        <extensions>
          <ns3:TrackPointExtension>
            <ns3:atemp>22.0</ns3:atemp>
          </ns3:TrackPointExtension>
        </extensions>
      </trkpt>
      <trkpt lat="42.526848725974559783935546875" lon="19.9765836261212825775146484375">
        <ele>1334.800048828125</ele>
        <time>2026-06-19T07:39:50.000Z</time>
        <extensions>
          <ns3:TrackPointExtension>
            <ns3:atemp>22.0</ns3:atemp>
          </ns3:TrackPointExtension>
        </extensions>
      </trkpt>
      <trkpt lat="42.52684109844267368316650390625" lon="19.9766077660024166107177734375">
        <ele>1335</ele>
        <time>2026-06-19T07:39:51.000Z</time>
        <extensions>
          <ns3:TrackPointExtension>
            <ns3:atemp>22.0</ns3:atemp>
          </ns3:TrackPointExtension>
        </extensions>
      </trkpt>
      <trkpt lat="42.52682953141629695892333984375" lon="19.97663475573062896728515625">
        <ele>1335.4000244140625</ele>
        <time>2026-06-19T07:39:52.000Z</time>
        <extensions>
          <ns3:TrackPointExtension>
            <ns3:atemp>22.0</ns3:atemp>
          </ns3:TrackPointExtension>
        </extensions>
      </trkpt>
      <trkpt lat="42.526819221675395965576171875" lon="19.97665478847920894622802734375">
        <ele>1335.5999755859375</ele>
        <time>2026-06-19T07:39:53.000Z</time>
        <extensions>
          <ns3:TrackPointExtension>
            <ns3:atemp>22.0</ns3:atemp>
          </ns3:TrackPointExtension>
        </extensions>
      </trkpt>
      <trkpt lat="42.5268088281154632568359375" lon="19.9766771681606769561767578125">
        <ele>1335.800048828125</ele>
        <time>2026-06-19T07:39:54.000Z</time>
        <extensions>
          <ns3:TrackPointExtension>
            <ns3:atemp>22.0</ns3:atemp>
          </ns3:TrackPointExtension>
        </extensions>
      </trkpt>
      <trkpt lat="42.526803128421306610107421875" lon="19.97669870965182781219482421875">
        <ele>1336</ele>
        <time>2026-06-19T07:39:55.000Z</time>
        <extensions>
          <ns3:TrackPointExtension>
            <ns3:atemp>22.0</ns3:atemp>
          </ns3:TrackPointExtension>
        </extensions>
      </trkpt>
      <trkpt lat="42.52679415978491306304931640625" lon="19.9767197482287883758544921875">
        <ele>1336.4000244140625</ele>
        <time>2026-06-19T07:39:56.000Z</time>
        <extensions>
          <ns3:TrackPointExtension>
            <ns3:atemp>22.0</ns3:atemp>
          </ns3:TrackPointExtension>
        </extensions>
      </trkpt>
      <trkpt lat="42.52678669989109039306640625" lon="19.976737685501575469970703125">
        <ele>1336.5999755859375</ele>
        <time>2026-06-19T07:39:57.000Z</time>
        <extensions>
          <ns3:TrackPointExtension>
            <ns3:atemp>22.0</ns3:atemp>
          </ns3:TrackPointExtension>
        </extensions>
      </trkpt>
      <trkpt lat="42.52677462995052337646484375" lon="19.9767561256885528564453125">
        <ele>1336.800048828125</ele>
        <time>2026-06-19T07:39:58.000Z</time>
        <extensions>
          <ns3:TrackPointExtension>
            <ns3:atemp>22.0</ns3:atemp>
          </ns3:TrackPointExtension>
        </extensions>
      </trkpt>
      <trkpt lat="42.52676599659025669097900390625" lon="19.976773895323276519775390625">
        <ele>1337</ele>
        <time>2026-06-19T07:39:59.000Z</time>
        <extensions>
          <ns3:TrackPointExtension>
            <ns3:atemp>22.0</ns3:atemp>
          </ns3:TrackPointExtension>
        </extensions>
      </trkpt>
      <trkpt lat="42.52675275318324565887451171875" lon="19.976790659129619598388671875">
        <ele>1337.199951171875</ele>
        <time>2026-06-19T07:40:00.000Z</time>
        <extensions>
          <ns3:TrackPointExtension>
            <ns3:atemp>22.0</ns3:atemp>
          </ns3:TrackPointExtension>
        </extensions>
      </trkpt>
      <trkpt lat="42.52674252726137638092041015625" lon="19.97680365107953548431396484375">
        <ele>1337.4000244140625</ele>
        <time>2026-06-19T07:40:01.000Z</time>
        <extensions>
          <ns3:TrackPointExtension>
            <ns3:atemp>22.0</ns3:atemp>
          </ns3:TrackPointExtension>
        </extensions>
      </trkpt>
      <trkpt lat="42.52672961913049221038818359375" lon="19.97681672684848308563232421875">
        <ele>1337.800048828125</ele>
        <time>2026-06-19T07:40:02.000Z</time>
        <extensions>
          <ns3:TrackPointExtension>
            <ns3:atemp>22.0</ns3:atemp>
          </ns3:TrackPointExtension>
        </extensions>
      </trkpt>
      <trkpt lat="42.52672232687473297119140625" lon="19.97683592140674591064453125">
        <ele>1338</ele>
        <time>2026-06-19T07:40:03.000Z</time>
        <extensions>
          <ns3:TrackPointExtension>
            <ns3:atemp>22.0</ns3:atemp>
          </ns3:TrackPointExtension>
        </extensions>
      </trkpt>
      <trkpt lat="42.526709251105785369873046875" lon="19.9768548645079135894775390625">
        <ele>1338</ele>
        <time>2026-06-19T07:40:04.000Z</time>
        <extensions>
          <ns3:TrackPointExtension>
            <ns3:atemp>22.0</ns3:atemp>
          </ns3:TrackPointExtension>
        </extensions>
      </trkpt>
      <trkpt lat="42.5267000310122966766357421875" lon="19.97687506489455699920654296875">
        <ele>1338.199951171875</ele>
        <time>2026-06-19T07:40:05.000Z</time>
        <extensions>
          <ns3:TrackPointExtension>
            <ns3:atemp>22.0</ns3:atemp>
          </ns3:TrackPointExtension>
        </extensions>
      </trkpt>
      <trkpt lat="42.52668687142431735992431640625" lon="19.97689233161509037017822265625">
        <ele>1338.4000244140625</ele>
        <time>2026-06-19T07:40:06.000Z</time>
        <extensions>
          <ns3:TrackPointExtension>
            <ns3:atemp>22.0</ns3:atemp>
          </ns3:TrackPointExtension>
        </extensions>
      </trkpt>
      <trkpt lat="42.5266745500266551971435546875" lon="19.97691043652594089508056640625">
        <ele>1338.5999755859375</ele>
        <time>2026-06-19T07:40:07.000Z</time>
        <extensions>
          <ns3:TrackPointExtension>
            <ns3:atemp>22.0</ns3:atemp>
          </ns3:TrackPointExtension>
        </extensions>
      </trkpt>
      <trkpt lat="42.52666658721864223480224609375" lon="19.97692820616066455841064453125">
        <ele>1338.800048828125</ele>
        <time>2026-06-19T07:40:08.000Z</time>
        <extensions>
          <ns3:TrackPointExtension>
            <ns3:atemp>22.0</ns3:atemp>
          </ns3:TrackPointExtension>
        </extensions>
      </trkpt>
      <trkpt lat="42.52665971405804157257080078125" lon="19.97694480232894420623779296875">
        <ele>1339</ele>
        <time>2026-06-19T07:40:09.000Z</time>
        <extensions>
          <ns3:TrackPointExtension>
            <ns3:atemp>22.0</ns3:atemp>
          </ns3:TrackPointExtension>
        </extensions>
      </trkpt>
      <trkpt lat="42.52665049396455287933349609375" lon="19.97695905156433582305908203125">
        <ele>1339.4000244140625</ele>
        <time>2026-06-19T07:40:10.000Z</time>
        <extensions>
          <ns3:TrackPointExtension>
            <ns3:atemp>22.0</ns3:atemp>
          </ns3:TrackPointExtension>
        </extensions>
      </trkpt>
      <trkpt lat="42.52663557417690753936767578125" lon="19.97697665356099605560302734375">
        <ele>1339.5999755859375</ele>
        <time>2026-06-19T07:40:11.000Z</time>
        <extensions>
          <ns3:TrackPointExtension>
            <ns3:atemp>22.0</ns3:atemp>
          </ns3:TrackPointExtension>
        </extensions>
      </trkpt>
      <trkpt lat="42.52662266604602336883544921875" lon="19.9769916571676731109619140625">
        <ele>1339.800048828125</ele>
        <time>2026-06-19T07:40:12.000Z</time>
        <extensions>
          <ns3:TrackPointExtension>
            <ns3:atemp>22.0</ns3:atemp>
          </ns3:TrackPointExtension>
        </extensions>
      </trkpt>
      <trkpt lat="42.52661461941897869110107421875" lon="19.977011270821094512939453125">
        <ele>1340.199951171875</ele>
        <time>2026-06-19T07:40:13.000Z</time>
        <extensions>
          <ns3:TrackPointExtension>
            <ns3:atemp>22.0</ns3:atemp>
          </ns3:TrackPointExtension>
        </extensions>
      </trkpt>
      <trkpt lat="42.52659835852682590484619140625" lon="19.97702904045581817626953125">
        <ele>1340.4000244140625</ele>
        <time>2026-06-19T07:40:14.000Z</time>
        <extensions>
          <ns3:TrackPointExtension>
            <ns3:atemp>22.0</ns3:atemp>
          </ns3:TrackPointExtension>
        </extensions>
      </trkpt>
      <trkpt lat="42.52657807432115077972412109375" lon="19.97704647481441497802734375">
        <ele>1340.5999755859375</ele>
        <time>2026-06-19T07:40:15.000Z</time>
        <extensions>
          <ns3:TrackPointExtension>
            <ns3:atemp>22.0</ns3:atemp>
          </ns3:TrackPointExtension>
        </extensions>
      </trkpt>
      <trkpt lat="42.5265605561435222625732421875" lon="19.9770727939903736114501953125">
        <ele>1340.800048828125</ele>
        <time>2026-06-19T07:40:16.000Z</time>
        <extensions>
          <ns3:TrackPointExtension>
            <ns3:atemp>22.0</ns3:atemp>
          </ns3:TrackPointExtension>
        </extensions>
      </trkpt>
      <trkpt lat="42.5265484862029552459716796875" lon="19.97709416784346103668212890625">
        <ele>1341</ele>
        <time>2026-06-19T07:40:17.000Z</time>
        <extensions>
          <ns3:TrackPointExtension>
            <ns3:atemp>22.0</ns3:atemp>
          </ns3:TrackPointExtension>
        </extensions>
      </trkpt>
      <trkpt lat="42.52653297968208789825439453125" lon="19.9771066568791866302490234375">
        <ele>1341.4000244140625</ele>
        <time>2026-06-19T07:40:18.000Z</time>
        <extensions>
          <ns3:TrackPointExtension>
            <ns3:atemp>22.0</ns3:atemp>
          </ns3:TrackPointExtension>
        </extensions>
      </trkpt>
      <trkpt lat="42.52651638351380825042724609375" lon="19.97712425887584686279296875">
        <ele>1341.5999755859375</ele>
        <time>2026-06-19T07:40:19.000Z</time>
        <extensions>
          <ns3:TrackPointExtension>
            <ns3:atemp>22.0</ns3:atemp>
          </ns3:TrackPointExtension>
        </extensions>
      </trkpt>
      <trkpt lat="42.5265072472393512725830078125" lon="19.9771435372531414031982421875">
        <ele>1341.800048828125</ele>
        <time>2026-06-19T07:40:20.000Z</time>
        <extensions>
          <ns3:TrackPointExtension>
            <ns3:atemp>22.0</ns3:atemp>
          </ns3:TrackPointExtension>
        </extensions>
      </trkpt>
      <trkpt lat="42.526500038802623748779296875" lon="19.97716340236365795135498046875">
        <ele>1342.199951171875</ele>
        <time>2026-06-19T07:40:21.000Z</time>
        <extensions>
          <ns3:TrackPointExtension>
            <ns3:atemp>22.0</ns3:atemp>
          </ns3:TrackPointExtension>
        </extensions>
      </trkpt>
      <trkpt lat="42.52649056725203990936279296875" lon="19.977180249989032745361328125">
        <ele>1342.4000244140625</ele>
        <time>2026-06-19T07:40:22.000Z</time>
        <extensions>
          <ns3:TrackPointExtension>
            <ns3:atemp>22.0</ns3:atemp>
          </ns3:TrackPointExtension>
        </extensions>
      </trkpt>
      <trkpt lat="42.526481933891773223876953125" lon="19.9772028811275959014892578125">
        <ele>1342.5999755859375</ele>
        <time>2026-06-19T07:40:23.000Z</time>
        <extensions>
          <ns3:TrackPointExtension>
            <ns3:atemp>22.0</ns3:atemp>
          </ns3:TrackPointExtension>
        </extensions>
      </trkpt>
      <trkpt lat="42.5264720432460308074951171875" lon="19.9772280268371105194091796875">
        <ele>1343</ele>
        <time>2026-06-19T07:40:24.000Z</time>
        <extensions>
          <ns3:TrackPointExtension>
            <ns3:atemp>21.0</ns3:atemp>
          </ns3:TrackPointExtension>
        </extensions>
      </trkpt>
      <trkpt lat="42.52646483480930328369140625" lon="19.9772469699382781982421875">
        <ele>1343.199951171875</ele>
        <time>2026-06-19T07:40:25.000Z</time>
        <extensions>
          <ns3:TrackPointExtension>
            <ns3:atemp>21.0</ns3:atemp>
          </ns3:TrackPointExtension>
        </extensions>
      </trkpt>
      <trkpt lat="42.5264520943164825439453125" lon="19.97726817615330219268798828125">
        <ele>1343.4000244140625</ele>
        <time>2026-06-19T07:40:26.000Z</time>
        <extensions>
          <ns3:TrackPointExtension>
            <ns3:atemp>21.0</ns3:atemp>
          </ns3:TrackPointExtension>
        </extensions>
      </trkpt>
      <trkpt lat="42.5264385156333446502685546875" lon="19.97727940790355205535888671875">
        <ele>1343.5999755859375</ele>
        <time>2026-06-19T07:40:27.000Z</time>
        <extensions>
          <ns3:TrackPointExtension>
            <ns3:atemp>21.0</ns3:atemp>
          </ns3:TrackPointExtension>
        </extensions>
      </trkpt>
      <trkpt lat="42.526421248912811279296875" lon="19.97729592025279998779296875">
        <ele>1343.800048828125</ele>
        <time>2026-06-19T07:40:28.000Z</time>
        <extensions>
          <ns3:TrackPointExtension>
            <ns3:atemp>21.0</ns3:atemp>
          </ns3:TrackPointExtension>
        </extensions>
      </trkpt>
      <trkpt lat="42.5264029763638973236083984375" lon="19.9773074872791767120361328125">
        <ele>1344</ele>
        <time>2026-06-19T07:40:29.000Z</time>
        <extensions>
          <ns3:TrackPointExtension>
            <ns3:atemp>21.0</ns3:atemp>
          </ns3:TrackPointExtension>
        </extensions>
      </trkpt>
      <trkpt lat="42.52638478763401508331298828125" lon="19.97732031159102916717529296875">
        <ele>1344.4000244140625</ele>
        <time>2026-06-19T07:40:30.000Z</time>
        <extensions>
          <ns3:TrackPointExtension>
            <ns3:atemp>21.0</ns3:atemp>
          </ns3:TrackPointExtension>
        </extensions>
      </trkpt>
      <trkpt lat="42.52636785618960857391357421875" lon="19.97733405791223049163818359375">
        <ele>1344.5999755859375</ele>
        <time>2026-06-19T07:40:31.000Z</time>
        <extensions>
          <ns3:TrackPointExtension>
            <ns3:atemp>21.0</ns3:atemp>
          </ns3:TrackPointExtension>
        </extensions>
      </trkpt>
      <trkpt lat="42.526353187859058380126953125" lon="19.97734394855797290802001953125">
        <ele>1345</ele>
        <time>2026-06-19T07:40:32.000Z</time>
        <extensions>
          <ns3:TrackPointExtension>
            <ns3:atemp>21.0</ns3:atemp>
          </ns3:TrackPointExtension>
        </extensions>
      </trkpt>
      <trkpt lat="42.5263375975191593170166015625" lon="19.97734629549086093902587890625">
        <ele>1345.199951171875</ele>
        <time>2026-06-19T07:40:33.000Z</time>
        <extensions>
          <ns3:TrackPointExtension>
            <ns3:atemp>21.0</ns3:atemp>
          </ns3:TrackPointExtension>
        </extensions>
      </trkpt>
      <trkpt lat="42.52632142044603824615478515625" lon="19.9773410148918628692626953125">
        <ele>1345.4000244140625</ele>
        <time>2026-06-19T07:40:34.000Z</time>
        <extensions>
          <ns3:TrackPointExtension>
            <ns3:atemp>21.0</ns3:atemp>
          </ns3:TrackPointExtension>
        </extensions>
      </trkpt>
      <trkpt lat="42.526306249201297760009765625" lon="19.9773379974067211151123046875">
        <ele>1345.5999755859375</ele>
        <time>2026-06-19T07:40:35.000Z</time>
        <extensions>
          <ns3:TrackPointExtension>
            <ns3:atemp>21.0</ns3:atemp>
          </ns3:TrackPointExtension>
        </extensions>
      </trkpt>
      <trkpt lat="42.52629191614687442779541015625" lon="19.97733883559703826904296875">
        <ele>1345.800048828125</ele>
        <time>2026-06-19T07:40:36.000Z</time>
        <extensions>
          <ns3:TrackPointExtension>
            <ns3:atemp>21.0</ns3:atemp>
          </ns3:TrackPointExtension>
        </extensions>
      </trkpt>
      <trkpt lat="42.526278756558895111083984375" lon="19.9773322977125644683837890625">
        <ele>1345.800048828125</ele>
        <time>2026-06-19T07:40:37.000Z</time>
        <extensions>
          <ns3:TrackPointExtension>
            <ns3:atemp>21.0</ns3:atemp>
          </ns3:TrackPointExtension>
        </extensions>
      </trkpt>
      <trkpt lat="42.52626609988510608673095703125" lon="19.97732383199036121368408203125">
        <ele>1346</ele>
        <time>2026-06-19T07:40:38.000Z</time>
        <extensions>
          <ns3:TrackPointExtension>
            <ns3:atemp>21.0</ns3:atemp>
          </ns3:TrackPointExtension>
        </extensions>
      </trkpt>
      <trkpt lat="42.526261992752552032470703125" lon="19.977304302155971527099609375">
        <ele>1346.199951171875</ele>
        <time>2026-06-19T07:40:39.000Z</time>
        <extensions>
          <ns3:TrackPointExtension>
            <ns3:atemp>21.0</ns3:atemp>
          </ns3:TrackPointExtension>
        </extensions>
      </trkpt>
      <trkpt lat="42.52626107074320316314697265625" lon="19.9772830121219158172607421875">
        <ele>1346.4000244140625</ele>
        <time>2026-06-19T07:40:40.000Z</time>
        <extensions>
          <ns3:TrackPointExtension>
            <ns3:atemp>21.0</ns3:atemp>
          </ns3:TrackPointExtension>
        </extensions>
      </trkpt>
      <trkpt lat="42.52626341767609119415283203125" lon="19.97727840207517147064208984375">
        <ele>1346.5999755859375</ele>
        <time>2026-06-19T07:40:41.000Z</time>
        <extensions>
          <ns3:TrackPointExtension>
            <ns3:atemp>21.0</ns3:atemp>
          </ns3:TrackPointExtension>
        </extensions>
      </trkpt>
      <trkpt lat="42.52627037465572357177734375" lon="19.97727848589420318603515625">
        <ele>1347</ele>
        <time>2026-06-19T07:40:42.000Z</time>
        <extensions>
          <ns3:TrackPointExtension>
            <ns3:atemp>21.0</ns3:atemp>
          </ns3:TrackPointExtension>
        </extensions>
      </trkpt>
      <trkpt lat="42.526272721588611602783203125" lon="19.97726775705814361572265625">
        <ele>1347.199951171875</ele>
        <time>2026-06-19T07:40:43.000Z</time>
        <extensions>
          <ns3:TrackPointExtension>
            <ns3:atemp>21.0</ns3:atemp>
          </ns3:TrackPointExtension>
        </extensions>
      </trkpt>
      <trkpt lat="42.52627280540764331817626953125" lon="19.97726767323911190032958984375">
        <ele>1347.4000244140625</ele>
        <time>2026-06-19T07:40:44.000Z</time>
        <extensions>
          <ns3:TrackPointExtension>
            <ns3:atemp>21.0</ns3:atemp>
          </ns3:TrackPointExtension>
        </extensions>
      </trkpt>
      <trkpt lat="42.52628386951982975006103515625" lon="19.9772555194795131683349609375">
        <ele>1347.4000244140625</ele>
        <time>2026-06-19T07:40:45.000Z</time>
        <extensions>
          <ns3:TrackPointExtension>
            <ns3:atemp>21.0</ns3:atemp>
          </ns3:TrackPointExtension>
        </extensions>
      </trkpt>
      <trkpt lat="42.5262844562530517578125" lon="19.97724303044378757476806640625">
        <ele>1347.4000244140625</ele>
        <time>2026-06-19T07:40:46.000Z</time>
        <extensions>
          <ns3:TrackPointExtension>
            <ns3:atemp>21.0</ns3:atemp>
          </ns3:TrackPointExtension>
        </extensions>
      </trkpt>
      <trkpt lat="42.52628646790981292724609375" lon="19.9772260151803493499755859375">
        <ele>1347.4000244140625</ele>
        <time>2026-06-19T07:40:47.000Z</time>
        <extensions>
          <ns3:TrackPointExtension>
            <ns3:atemp>21.0</ns3:atemp>
          </ns3:TrackPointExtension>
        </extensions>
      </trkpt>
      <trkpt lat="42.52628856338560581207275390625" lon="19.9772062338888645172119140625">
        <ele>1347.4000244140625</ele>
        <time>2026-06-19T07:40:48.000Z</time>
        <extensions>
          <ns3:TrackPointExtension>
            <ns3:atemp>21.0</ns3:atemp>
          </ns3:TrackPointExtension>
        </extensions>
      </trkpt>
      <trkpt lat="42.526294179260730743408203125" lon="19.97718653641641139984130859375">
        <ele>1347.4000244140625</ele>
        <time>2026-06-19T07:40:49.000Z</time>
        <extensions>
          <ns3:TrackPointExtension>
            <ns3:atemp>21.0</ns3:atemp>
          </ns3:TrackPointExtension>
        </extensions>
      </trkpt>
      <trkpt lat="42.5263007171452045440673828125" lon="19.97717245481908321380615234375">
        <ele>1347.5999755859375</ele>
        <time>2026-06-19T07:40:50.000Z</time>
        <extensions>
          <ns3:TrackPointExtension>
            <ns3:atemp>21.0</ns3:atemp>
          </ns3:TrackPointExtension>
        </extensions>
      </trkpt>
      <trkpt lat="42.526308260858058929443359375" lon="19.977154769003391265869140625">
        <ele>1347.800048828125</ele>
        <time>2026-06-19T07:40:51.000Z</time>
        <extensions>
          <ns3:TrackPointExtension>
            <ns3:atemp>21.0</ns3:atemp>
          </ns3:TrackPointExtension>
        </extensions>
      </trkpt>
      <trkpt lat="42.52631521783769130706787109375" lon="19.97713389806449413299560546875">
        <ele>1348</ele>
        <time>2026-06-19T07:40:52.000Z</time>
        <extensions>
          <ns3:TrackPointExtension>
            <ns3:atemp>21.0</ns3:atemp>
          </ns3:TrackPointExtension>
        </extensions>
      </trkpt>
      <trkpt lat="42.5263228453695774078369140625" lon="19.9771180562674999237060546875">
        <ele>1348.199951171875</ele>
        <time>2026-06-19T07:40:53.000Z</time>
        <extensions>
          <ns3:TrackPointExtension>
            <ns3:atemp>21.0</ns3:atemp>
          </ns3:TrackPointExtension>
        </extensions>
      </trkpt>
      <trkpt lat="42.52633315511047840118408203125" lon="19.97709450311958789825439453125">
        <ele>1348.4000244140625</ele>
        <time>2026-06-19T07:40:54.000Z</time>
        <extensions>
          <ns3:TrackPointExtension>
            <ns3:atemp>21.0</ns3:atemp>
          </ns3:TrackPointExtension>
        </extensions>
      </trkpt>
      <trkpt lat="42.52634681761264801025390625" lon="19.97707539238035678863525390625">
        <ele>1348.4000244140625</ele>
        <time>2026-06-19T07:40:55.000Z</time>
        <extensions>
          <ns3:TrackPointExtension>
            <ns3:atemp>21.0</ns3:atemp>
          </ns3:TrackPointExtension>
        </extensions>
      </trkpt>
      <trkpt lat="42.52635796554386615753173828125" lon="19.97706265188753604888916015625">
        <ele>1348.5999755859375</ele>
        <time>2026-06-19T07:40:56.000Z</time>
        <extensions>
          <ns3:TrackPointExtension>
            <ns3:atemp>21.0</ns3:atemp>
          </ns3:TrackPointExtension>
        </extensions>
      </trkpt>
      <trkpt lat="42.5263657607138156890869140625" lon="19.9770449660718441009521484375">
        <ele>1348.5999755859375</ele>
        <time>2026-06-19T07:40:57.000Z</time>
        <extensions>
          <ns3:TrackPointExtension>
            <ns3:atemp>21.0</ns3:atemp>
          </ns3:TrackPointExtension>
        </extensions>
      </trkpt>
      <trkpt lat="42.52637187950313091278076171875" lon="19.97702828608453273773193359375">
        <ele>1348.800048828125</ele>
        <time>2026-06-19T07:40:58.000Z</time>
        <extensions>
          <ns3:TrackPointExtension>
            <ns3:atemp>21.0</ns3:atemp>
          </ns3:TrackPointExtension>
        </extensions>
      </trkpt>
      <trkpt lat="42.526377327740192413330078125" lon="19.9770054034888744354248046875">
        <ele>1349</ele>
        <time>2026-06-19T07:40:59.000Z</time>
        <extensions>
          <ns3:TrackPointExtension>
            <ns3:atemp>21.0</ns3:atemp>
          </ns3:TrackPointExtension>
        </extensions>
      </trkpt>
      <trkpt lat="42.52638394944369792938232421875" lon="19.97698344290256500244140625">
        <ele>1349.199951171875</ele>
        <time>2026-06-19T07:41:00.000Z</time>
        <extensions>
          <ns3:TrackPointExtension>
            <ns3:atemp>21.0</ns3:atemp>
          </ns3:TrackPointExtension>
        </extensions>
      </trkpt>
      <trkpt lat="42.526388727128505706787109375" lon="19.976960979402065277099609375">
        <ele>1349.4000244140625</ele>
        <time>2026-06-19T07:41:01.000Z</time>
        <extensions>
          <ns3:TrackPointExtension>
            <ns3:atemp>21.0</ns3:atemp>
          </ns3:TrackPointExtension>
        </extensions>
      </trkpt>
      <trkpt lat="42.52639300189912319183349609375" lon="19.9769427068531513214111328125">
        <ele>1349.800048828125</ele>
        <time>2026-06-19T07:41:02.000Z</time>
        <extensions>
          <ns3:TrackPointExtension>
            <ns3:atemp>21.0</ns3:atemp>
          </ns3:TrackPointExtension>
        </extensions>
      </trkpt>
      <trkpt lat="42.5263962708413600921630859375" lon="19.97692703269422054290771484375">
        <ele>1350.199951171875</ele>
        <time>2026-06-19T07:41:03.000Z</time>
        <extensions>
          <ns3:TrackPointExtension>
            <ns3:atemp>21.0</ns3:atemp>
          </ns3:TrackPointExtension>
        </extensions>
      </trkpt>
      <trkpt lat="42.5263996236026287078857421875" lon="19.97690725140273571014404296875">
        <ele>1350.4000244140625</ele>
        <time>2026-06-19T07:41:04.000Z</time>
        <extensions>
          <ns3:TrackPointExtension>
            <ns3:atemp>21.0</ns3:atemp>
          </ns3:TrackPointExtension>
        </extensions>
      </trkpt>
      <trkpt lat="42.5263992883265018463134765625" lon="19.97688612900674343109130859375">
        <ele>1350.800048828125</ele>
        <time>2026-06-19T07:41:05.000Z</time>
        <extensions>
          <ns3:TrackPointExtension>
            <ns3:atemp>21.0</ns3:atemp>
          </ns3:TrackPointExtension>
        </extensions>
      </trkpt>
      <trkpt lat="42.52639752812683582305908203125" lon="19.97686249203979969024658203125">
        <ele>1351.199951171875</ele>
        <time>2026-06-19T07:41:06.000Z</time>
        <extensions>
          <ns3:TrackPointExtension>
            <ns3:atemp>21.0</ns3:atemp>
          </ns3:TrackPointExtension>
        </extensions>
      </trkpt>
      <trkpt lat="42.5263976119458675384521484375" lon="19.97684254311025142669677734375">
        <ele>1351.4000244140625</ele>
        <time>2026-06-19T07:41:07.000Z</time>
        <extensions>
          <ns3:TrackPointExtension>
            <ns3:atemp>21.0</ns3:atemp>
          </ns3:TrackPointExtension>
        </extensions>
      </trkpt>
      <trkpt lat="42.52639551647007465362548828125" lon="19.97681689448654651641845703125">
        <ele>1351.4000244140625</ele>
        <time>2026-06-19T07:41:08.000Z</time>
        <extensions>
          <ns3:TrackPointExtension>
            <ns3:atemp>21.0</ns3:atemp>
          </ns3:TrackPointExtension>
        </extensions>
      </trkpt>
      <trkpt lat="42.52639350481331348419189453125" lon="19.9767935089766979217529296875">
        <ele>1351.4000244140625</ele>
        <time>2026-06-19T07:41:09.000Z</time>
        <extensions>
          <ns3:TrackPointExtension>
            <ns3:atemp>21.0</ns3:atemp>
          </ns3:TrackPointExtension>
        </extensions>
      </trkpt>
      <trkpt lat="42.52639719285070896148681640625" lon="19.9767680279910564422607421875">
        <ele>1351.5999755859375</ele>
        <time>2026-06-19T07:41:10.000Z</time>
        <extensions>
          <ns3:TrackPointExtension>
            <ns3:atemp>21.0</ns3:atemp>
          </ns3:TrackPointExtension>
        </extensions>
      </trkpt>
      <trkpt lat="42.52639836631715297698974609375" lon="19.97674548067152500152587890625">
        <ele>1351.5999755859375</ele>
        <time>2026-06-19T07:41:11.000Z</time>
        <extensions>
          <ns3:TrackPointExtension>
            <ns3:atemp>21.0</ns3:atemp>
          </ns3:TrackPointExtension>
        </extensions>
      </trkpt>
      <trkpt lat="42.526402808725833892822265625" lon="19.97672268189489841461181640625">
        <ele>1351.800048828125</ele>
        <time>2026-06-19T07:41:12.000Z</time>
        <extensions>
          <ns3:TrackPointExtension>
            <ns3:atemp>21.0</ns3:atemp>
          </ns3:TrackPointExtension>
        </extensions>
      </trkpt>
      <trkpt lat="42.52640725113451480865478515625" lon="19.9766899086534976959228515625">
        <ele>1352.199951171875</ele>
        <time>2026-06-19T07:41:13.000Z</time>
        <extensions>
          <ns3:TrackPointExtension>
            <ns3:atemp>21.0</ns3:atemp>
          </ns3:TrackPointExtension>
        </extensions>
      </trkpt>
      <trkpt lat="42.52641630358994007110595703125" lon="19.9766694568097591400146484375">
        <ele>1352.5999755859375</ele>
        <time>2026-06-19T07:41:14.000Z</time>
        <extensions>
          <ns3:TrackPointExtension>
            <ns3:atemp>21.0</ns3:atemp>
          </ns3:TrackPointExtension>
        </extensions>
      </trkpt>
      <trkpt lat="42.52642267383635044097900390625" lon="19.97664548456668853759765625">
        <ele>1352.800048828125</ele>
        <time>2026-06-19T07:41:15.000Z</time>
        <extensions>
          <ns3:TrackPointExtension>
            <ns3:atemp>21.0</ns3:atemp>
          </ns3:TrackPointExtension>
        </extensions>
      </trkpt>
      <trkpt lat="42.52642820589244365692138671875" lon="19.9766208417713642120361328125">
        <ele>1353.199951171875</ele>
        <time>2026-06-19T07:41:16.000Z</time>
        <extensions>
          <ns3:TrackPointExtension>
            <ns3:atemp>21.0</ns3:atemp>
          </ns3:TrackPointExtension>
        </extensions>
      </trkpt>
      <trkpt lat="42.52642803825438022613525390625" lon="19.9765977077186107635498046875">
        <ele>1353.4000244140625</ele>
        <time>2026-06-19T07:41:17.000Z</time>
        <extensions>
          <ns3:TrackPointExtension>
            <ns3:atemp>21.0</ns3:atemp>
          </ns3:TrackPointExtension>
        </extensions>
      </trkpt>
      <trkpt lat="42.5264314748346805572509765625" lon="19.9765685386955738067626953125">
        <ele>1353.5999755859375</ele>
        <time>2026-06-19T07:41:18.000Z</time>
        <extensions>
          <ns3:TrackPointExtension>
            <ns3:atemp>21.0</ns3:atemp>
          </ns3:TrackPointExtension>
        </extensions>
      </trkpt>
      <trkpt lat="42.52643742598593235015869140625" lon="19.97654263861477375030517578125">
        <ele>1353.800048828125</ele>
        <time>2026-06-19T07:41:19.000Z</time>
        <extensions>
          <ns3:TrackPointExtension>
            <ns3:atemp>21.0</ns3:atemp>
          </ns3:TrackPointExtension>
        </extensions>
      </trkpt>
      <trkpt lat="42.526443712413311004638671875" lon="19.97651405632495880126953125">
        <ele>1354.199951171875</ele>
        <time>2026-06-19T07:41:20.000Z</time>
        <extensions>
          <ns3:TrackPointExtension>
            <ns3:atemp>21.0</ns3:atemp>
          </ns3:TrackPointExtension>
        </extensions>
      </trkpt>
      <trkpt lat="42.52644999884068965911865234375" lon="19.9764867313206195831298828125">
        <ele>1354.4000244140625</ele>
        <time>2026-06-19T07:41:21.000Z</time>
        <extensions>
          <ns3:TrackPointExtension>
            <ns3:atemp>21.0</ns3:atemp>
          </ns3:TrackPointExtension>
        </extensions>
      </trkpt>
      <trkpt lat="42.5264569558203220367431640625" lon="19.97646301053464412689208984375">
        <ele>1354.800048828125</ele>
        <time>2026-06-19T07:41:22.000Z</time>
        <extensions>
          <ns3:TrackPointExtension>
            <ns3:atemp>21.0</ns3:atemp>
          </ns3:TrackPointExtension>
        </extensions>
      </trkpt>
      <trkpt lat="42.52646558918058872222900390625" lon="19.9764364399015903472900390625">
        <ele>1355</ele>
        <time>2026-06-19T07:41:23.000Z</time>
        <extensions>
          <ns3:TrackPointExtension>
            <ns3:atemp>21.0</ns3:atemp>
          </ns3:TrackPointExtension>
        </extensions>
      </trkpt>
      <trkpt lat="42.52647732384502887725830078125" lon="19.9764129705727100372314453125">
        <ele>1355.4000244140625</ele>
        <time>2026-06-19T07:41:24.000Z</time>
        <extensions>
          <ns3:TrackPointExtension>
            <ns3:atemp>21.0</ns3:atemp>
          </ns3:TrackPointExtension>
        </extensions>
      </trkpt>
      <trkpt lat="42.52648671157658100128173828125" lon="19.97638941742479801177978515625">
        <ele>1355.800048828125</ele>
        <time>2026-06-19T07:41:25.000Z</time>
        <extensions>
          <ns3:TrackPointExtension>
            <ns3:atemp>21.0</ns3:atemp>
          </ns3:TrackPointExtension>
        </extensions>
      </trkpt>
      <trkpt lat="42.5264938361942768096923828125" lon="19.97636628337204456329345703125">
        <ele>1356.199951171875</ele>
        <time>2026-06-19T07:41:26.000Z</time>
        <extensions>
          <ns3:TrackPointExtension>
            <ns3:atemp>21.0</ns3:atemp>
          </ns3:TrackPointExtension>
        </extensions>
      </trkpt>
      <trkpt lat="42.526496686041355133056640625" lon="19.97633946128189563751220703125">
        <ele>1356.4000244140625</ele>
        <time>2026-06-19T07:41:27.000Z</time>
        <extensions>
          <ns3:TrackPointExtension>
            <ns3:atemp>21.0</ns3:atemp>
          </ns3:TrackPointExtension>
        </extensions>
      </trkpt>
      <trkpt lat="42.52649827860295772552490234375" lon="19.9763174168765544891357421875">
        <ele>1356.800048828125</ele>
        <time>2026-06-19T07:41:28.000Z</time>
        <extensions>
          <ns3:TrackPointExtension>
            <ns3:atemp>21.0</ns3:atemp>
          </ns3:TrackPointExtension>
        </extensions>
      </trkpt>
      <trkpt lat="42.52650431357324123382568359375" lon="19.97629336081445217132568359375">
        <ele>1357</ele>
        <time>2026-06-19T07:41:29.000Z</time>
        <extensions>
          <ns3:TrackPointExtension>
            <ns3:atemp>21.0</ns3:atemp>
          </ns3:TrackPointExtension>
        </extensions>
      </trkpt>
      <trkpt lat="42.52651185728609561920166015625" lon="19.9762674607336521148681640625">
        <ele>1357.4000244140625</ele>
        <time>2026-06-19T07:41:30.000Z</time>
        <extensions>
          <ns3:TrackPointExtension>
            <ns3:atemp>21.0</ns3:atemp>
          </ns3:TrackPointExtension>
        </extensions>
      </trkpt>
      <trkpt lat="42.5265196524560451507568359375" lon="19.9762416444718837738037109375">
        <ele>1357.5999755859375</ele>
        <time>2026-06-19T07:41:31.000Z</time>
        <extensions>
          <ns3:TrackPointExtension>
            <ns3:atemp>21.0</ns3:atemp>
          </ns3:TrackPointExtension>
        </extensions>
      </trkpt>
      <trkpt lat="42.52652510069310665130615234375" lon="19.97622563503682613372802734375">
        <ele>1357.800048828125</ele>
        <time>2026-06-19T07:41:32.000Z</time>
        <extensions>
          <ns3:TrackPointExtension>
            <ns3:atemp>21.0</ns3:atemp>
          </ns3:TrackPointExtension>
        </extensions>
      </trkpt>
      <trkpt lat="42.5265364162623882293701171875" lon="19.97620518319308757781982421875">
        <ele>1358</ele>
        <time>2026-06-19T07:41:33.000Z</time>
        <extensions>
          <ns3:TrackPointExtension>
            <ns3:atemp>21.0</ns3:atemp>
          </ns3:TrackPointExtension>
        </extensions>
      </trkpt>
      <trkpt lat="42.5265447981655597686767578125" lon="19.976187162101268768310546875">
        <ele>1358</ele>
        <time>2026-06-19T07:41:34.000Z</time>
        <extensions>
          <ns3:TrackPointExtension>
            <ns3:atemp>21.0</ns3:atemp>
          </ns3:TrackPointExtension>
        </extensions>
      </trkpt>
      <trkpt lat="42.52655426971614360809326171875" lon="19.97616402804851531982421875">
        <ele>1358.199951171875</ele>
        <time>2026-06-19T07:41:35.000Z</time>
        <extensions>
          <ns3:TrackPointExtension>
            <ns3:atemp>21.0</ns3:atemp>
          </ns3:TrackPointExtension>
        </extensions>
      </trkpt>
      <trkpt lat="42.52656030468642711639404296875" lon="19.9761424027383327484130859375">
        <ele>1358.199951171875</ele>
        <time>2026-06-19T07:41:36.000Z</time>
        <extensions>
          <ns3:TrackPointExtension>
            <ns3:atemp>21.0</ns3:atemp>
          </ns3:TrackPointExtension>
        </extensions>
      </trkpt>
      <trkpt lat="42.52656147815287113189697265625" lon="19.976121447980403900146484375">
        <ele>1358.5999755859375</ele>
        <time>2026-06-19T07:41:37.000Z</time>
        <extensions>
          <ns3:TrackPointExtension>
            <ns3:atemp>21.0</ns3:atemp>
          </ns3:TrackPointExtension>
        </extensions>
      </trkpt>
      <trkpt lat="42.5265719555318355560302734375" lon="19.9760989844799041748046875">
        <ele>1358.800048828125</ele>
        <time>2026-06-19T07:41:38.000Z</time>
        <extensions>
          <ns3:TrackPointExtension>
            <ns3:atemp>21.0</ns3:atemp>
          </ns3:TrackPointExtension>
        </extensions>
      </trkpt>
      <trkpt lat="42.52657857723534107208251953125" lon="19.976074509322643280029296875">
        <ele>1359</ele>
        <time>2026-06-19T07:41:39.000Z</time>
        <extensions>
          <ns3:TrackPointExtension>
            <ns3:atemp>21.0</ns3:atemp>
          </ns3:TrackPointExtension>
        </extensions>
      </trkpt>
      <trkpt lat="42.526587210595607757568359375" lon="19.976049363613128662109375">
        <ele>1359.199951171875</ele>
        <time>2026-06-19T07:41:40.000Z</time>
        <extensions>
          <ns3:TrackPointExtension>
            <ns3:atemp>21.0</ns3:atemp>
          </ns3:TrackPointExtension>
        </extensions>
      </trkpt>
      <trkpt lat="42.5265944190323352813720703125" lon="19.976022876799106597900390625">
        <ele>1359.4000244140625</ele>
        <time>2026-06-19T07:41:41.000Z</time>
        <extensions>
          <ns3:TrackPointExtension>
            <ns3:atemp>21.0</ns3:atemp>
          </ns3:TrackPointExtension>
        </extensions>
      </trkpt>
      <trkpt lat="42.52660154365003108978271484375" lon="19.97599731199443340301513671875">
        <ele>1359.4000244140625</ele>
        <time>2026-06-19T07:41:42.000Z</time>
        <extensions>
          <ns3:TrackPointExtension>
            <ns3:atemp>21.0</ns3:atemp>
          </ns3:TrackPointExtension>
        </extensions>
      </trkpt>
      <trkpt lat="42.52660967409610748291015625" lon="19.97596998699009418487548828125">
        <ele>1359.5999755859375</ele>
        <time>2026-06-19T07:41:43.000Z</time>
        <extensions>
          <ns3:TrackPointExtension>
            <ns3:atemp>21.0</ns3:atemp>
          </ns3:TrackPointExtension>
        </extensions>
      </trkpt>
      <trkpt lat="42.5266168825328350067138671875" lon="19.975947774946689605712890625">
        <ele>1359.800048828125</ele>
        <time>2026-06-19T07:41:44.000Z</time>
        <extensions>
          <ns3:TrackPointExtension>
            <ns3:atemp>21.0</ns3:atemp>
          </ns3:TrackPointExtension>
        </extensions>
      </trkpt>
      <trkpt lat="42.52662199549376964569091796875" lon="19.97592841275036334991455078125">
        <ele>1359.800048828125</ele>
        <time>2026-06-19T07:41:45.000Z</time>
        <extensions>
          <ns3:TrackPointExtension>
            <ns3:atemp>21.0</ns3:atemp>
          </ns3:TrackPointExtension>
        </extensions>
      </trkpt>
      <trkpt lat="42.52662803046405315399169921875" lon="19.97590494342148303985595703125">
        <ele>1360</ele>
        <time>2026-06-19T07:41:46.000Z</time>
        <extensions>
          <ns3:TrackPointExtension>
            <ns3:atemp>21.0</ns3:atemp>
          </ns3:TrackPointExtension>
        </extensions>
      </trkpt>
      <trkpt lat="42.52664026804268360137939453125" lon="19.9758785404264926910400390625">
        <ele>1360.199951171875</ele>
        <time>2026-06-19T07:41:47.000Z</time>
        <extensions>
          <ns3:TrackPointExtension>
            <ns3:atemp>21.0</ns3:atemp>
          </ns3:TrackPointExtension>
        </extensions>
      </trkpt>
      <trkpt lat="42.52664948813617229461669921875" lon="19.975856579840183258056640625">
        <ele>1360.199951171875</ele>
        <time>2026-06-19T07:41:48.000Z</time>
        <extensions>
          <ns3:TrackPointExtension>
            <ns3:atemp>21.0</ns3:atemp>
          </ns3:TrackPointExtension>
        </extensions>
      </trkpt>
      <trkpt lat="42.52665669657289981842041015625" lon="19.97584040276706218719482421875">
        <ele>1360.5999755859375</ele>
        <time>2026-06-19T07:41:49.000Z</time>
        <extensions>
          <ns3:TrackPointExtension>
            <ns3:atemp>21.0</ns3:atemp>
          </ns3:TrackPointExtension>
        </extensions>
      </trkpt>
      <trkpt lat="42.52666323445737361907958984375" lon="19.9758198671042919158935546875">
        <ele>1360.800048828125</ele>
        <time>2026-06-19T07:41:50.000Z</time>
        <extensions>
          <ns3:TrackPointExtension>
            <ns3:atemp>21.0</ns3:atemp>
          </ns3:TrackPointExtension>
        </extensions>
      </trkpt>
      <trkpt lat="42.5266675092279911041259765625" lon="19.9757953919470310211181640625">
        <ele>1361</ele>
        <time>2026-06-19T07:41:51.000Z</time>
        <extensions>
          <ns3:TrackPointExtension>
            <ns3:atemp>21.0</ns3:atemp>
          </ns3:TrackPointExtension>
        </extensions>
      </trkpt>
      <trkpt lat="42.5266785733401775360107421875" lon="19.97577468864619731903076171875">
        <ele>1361.199951171875</ele>
        <time>2026-06-19T07:41:52.000Z</time>
        <extensions>
          <ns3:TrackPointExtension>
            <ns3:atemp>21.0</ns3:atemp>
          </ns3:TrackPointExtension>
        </extensions>
      </trkpt>
      <trkpt lat="42.52668821252882480621337890625" lon="19.9757487885653972625732421875">
        <ele>1361.5999755859375</ele>
        <time>2026-06-19T07:41:53.000Z</time>
        <extensions>
          <ns3:TrackPointExtension>
            <ns3:atemp>21.0</ns3:atemp>
          </ns3:TrackPointExtension>
        </extensions>
      </trkpt>
      <trkpt lat="42.526697851717472076416015625" lon="19.97572548687458038330078125">
        <ele>1361.800048828125</ele>
        <time>2026-06-19T07:41:54.000Z</time>
        <extensions>
          <ns3:TrackPointExtension>
            <ns3:atemp>21.0</ns3:atemp>
          </ns3:TrackPointExtension>
        </extensions>
      </trkpt>
      <trkpt lat="42.5267095863819122314453125" lon="19.9756978265941143035888671875">
        <ele>1362</ele>
        <time>2026-06-19T07:41:55.000Z</time>
        <extensions>
          <ns3:TrackPointExtension>
            <ns3:atemp>21.0</ns3:atemp>
          </ns3:TrackPointExtension>
        </extensions>
      </trkpt>
      <trkpt lat="42.526719979941844940185546875" lon="19.97566471807658672332763671875">
        <ele>1362.199951171875</ele>
        <time>2026-06-19T07:41:56.000Z</time>
        <extensions>
          <ns3:TrackPointExtension>
            <ns3:atemp>21.0</ns3:atemp>
          </ns3:TrackPointExtension>
        </extensions>
      </trkpt>
      <trkpt lat="42.5267292000353336334228515625" lon="19.9756378121674060821533203125">
        <ele>1362.5999755859375</ele>
        <time>2026-06-19T07:41:57.000Z</time>
        <extensions>
          <ns3:TrackPointExtension>
            <ns3:atemp>21.0</ns3:atemp>
          </ns3:TrackPointExtension>
        </extensions>
      </trkpt>
      <trkpt lat="42.52673900686204433441162109375" lon="19.9756133370101451873779296875">
        <ele>1362.800048828125</ele>
        <time>2026-06-19T07:41:58.000Z</time>
        <extensions>
          <ns3:TrackPointExtension>
            <ns3:atemp>21.0</ns3:atemp>
          </ns3:TrackPointExtension>
        </extensions>
      </trkpt>
      <trkpt lat="42.5267516635358333587646484375" lon="19.97559296898543834686279296875">
        <ele>1363</ele>
        <time>2026-06-19T07:41:59.000Z</time>
        <extensions>
          <ns3:TrackPointExtension>
            <ns3:atemp>21.0</ns3:atemp>
          </ns3:TrackPointExtension>
        </extensions>
      </trkpt>
      <trkpt lat="42.52676230855286121368408203125" lon="19.97557302005589008331298828125">
        <ele>1363.199951171875</ele>
        <time>2026-06-19T07:42:00.000Z</time>
        <extensions>
          <ns3:TrackPointExtension>
            <ns3:atemp>21.0</ns3:atemp>
          </ns3:TrackPointExtension>
        </extensions>
      </trkpt>
      <trkpt lat="42.5267727859318256378173828125" lon="19.9755506403744220733642578125">
        <ele>1363.5999755859375</ele>
        <time>2026-06-19T07:42:01.000Z</time>
        <extensions>
          <ns3:TrackPointExtension>
            <ns3:atemp>21.0</ns3:atemp>
          </ns3:TrackPointExtension>
        </extensions>
      </trkpt>
      <trkpt lat="42.5267779827117919921875" lon="19.975526332855224609375">
        <ele>1363.800048828125</ele>
        <time>2026-06-19T07:42:02.000Z</time>
        <extensions>
          <ns3:TrackPointExtension>
            <ns3:atemp>21.0</ns3:atemp>
          </ns3:TrackPointExtension>
        </extensions>
      </trkpt>
      <trkpt lat="42.52678192220628261566162109375" lon="19.975502192974090576171875">
        <ele>1364</ele>
        <time>2026-06-19T07:42:03.000Z</time>
        <extensions>
          <ns3:TrackPointExtension>
            <ns3:atemp>21.0</ns3:atemp>
          </ns3:TrackPointExtension>
        </extensions>
      </trkpt>
      <trkpt lat="42.526787035167217254638671875" lon="19.9754802323877811431884765625">
        <ele>1364.199951171875</ele>
        <time>2026-06-19T07:42:04.000Z</time>
        <extensions>
          <ns3:TrackPointExtension>
            <ns3:atemp>21.0</ns3:atemp>
          </ns3:TrackPointExtension>
        </extensions>
      </trkpt>
      <trkpt lat="42.52679181285202503204345703125" lon="19.9754544161260128021240234375">
        <ele>1364.4000244140625</ele>
        <time>2026-06-19T07:42:05.000Z</time>
        <extensions>
          <ns3:TrackPointExtension>
            <ns3:atemp>21.0</ns3:atemp>
          </ns3:TrackPointExtension>
        </extensions>
      </trkpt>
      <trkpt lat="42.52679466269910335540771484375" lon="19.9754297733306884765625">
        <ele>1364.5999755859375</ele>
        <time>2026-06-19T07:42:06.000Z</time>
        <extensions>
          <ns3:TrackPointExtension>
            <ns3:atemp>21.0</ns3:atemp>
          </ns3:TrackPointExtension>
        </extensions>
      </trkpt>
      <trkpt lat="42.5267949141561985015869140625" lon="19.97540538199245929718017578125">
        <ele>1364.800048828125</ele>
        <time>2026-06-19T07:42:07.000Z</time>
        <extensions>
          <ns3:TrackPointExtension>
            <ns3:atemp>21.0</ns3:atemp>
          </ns3:TrackPointExtension>
        </extensions>
      </trkpt>
      <trkpt lat="42.5268007814884185791015625" lon="19.9753779731690883636474609375">
        <ele>1365</ele>
        <time>2026-06-19T07:42:08.000Z</time>
        <extensions>
          <ns3:TrackPointExtension>
            <ns3:atemp>21.0</ns3:atemp>
          </ns3:TrackPointExtension>
        </extensions>
      </trkpt>
      <trkpt lat="42.526807487010955810546875" lon="19.9753511510789394378662109375">
        <ele>1365</ele>
        <time>2026-06-19T07:42:09.000Z</time>
        <extensions>
          <ns3:TrackPointExtension>
            <ns3:atemp>21.0</ns3:atemp>
          </ns3:TrackPointExtension>
        </extensions>
      </trkpt>
      <trkpt lat="42.5268150307238101959228515625" lon="19.9753243289887905120849609375">
        <ele>1365.199951171875</ele>
        <time>2026-06-19T07:42:10.000Z</time>
        <extensions>
          <ns3:TrackPointExtension>
            <ns3:atemp>21.0</ns3:atemp>
          </ns3:TrackPointExtension>
        </extensions>
      </trkpt>
      <trkpt lat="42.52682567574083805084228515625" lon="19.9752995185554027557373046875">
        <ele>1365.4000244140625</ele>
        <time>2026-06-19T07:42:11.000Z</time>
        <extensions>
          <ns3:TrackPointExtension>
            <ns3:atemp>21.0</ns3:atemp>
          </ns3:TrackPointExtension>
        </extensions>
      </trkpt>
      <trkpt lat="42.52683321945369243621826171875" lon="19.97527982108294963836669921875">
        <ele>1365.5999755859375</ele>
        <time>2026-06-19T07:42:12.000Z</time>
        <extensions>
          <ns3:TrackPointExtension>
            <ns3:atemp>21.0</ns3:atemp>
          </ns3:TrackPointExtension>
        </extensions>
      </trkpt>
      <trkpt lat="42.52684528939425945281982421875" lon="19.9752535857260227203369140625">
        <ele>1365.800048828125</ele>
        <time>2026-06-19T07:42:13.000Z</time>
        <extensions>
          <ns3:TrackPointExtension>
            <ns3:atemp>21.0</ns3:atemp>
          </ns3:TrackPointExtension>
        </extensions>
      </trkpt>
      <trkpt lat="42.52685777842998504638671875" lon="19.97522927820682525634765625">
        <ele>1365.800048828125</ele>
        <time>2026-06-19T07:42:14.000Z</time>
        <extensions>
          <ns3:TrackPointExtension>
            <ns3:atemp>21.0</ns3:atemp>
          </ns3:TrackPointExtension>
        </extensions>
      </trkpt>
      <trkpt lat="42.526872195303440093994140625" lon="19.9752059765160083770751953125">
        <ele>1365.800048828125</ele>
        <time>2026-06-19T07:42:15.000Z</time>
        <extensions>
          <ns3:TrackPointExtension>
            <ns3:atemp>21.0</ns3:atemp>
          </ns3:TrackPointExtension>
        </extensions>
      </trkpt>
      <trkpt lat="42.52687948755919933319091796875" lon="19.975184686481952667236328125">
        <ele>1365.800048828125</ele>
        <time>2026-06-19T07:42:16.000Z</time>
        <extensions>
          <ns3:TrackPointExtension>
            <ns3:atemp>21.0</ns3:atemp>
          </ns3:TrackPointExtension>
        </extensions>
      </trkpt>
      <trkpt lat="42.52688837237656116485595703125" lon="19.97516633011400699615478515625">
        <ele>1365.800048828125</ele>
        <time>2026-06-19T07:42:17.000Z</time>
        <extensions>
          <ns3:TrackPointExtension>
            <ns3:atemp>21.0</ns3:atemp>
          </ns3:TrackPointExtension>
        </extensions>
      </trkpt>
      <trkpt lat="42.52690027467906475067138671875" lon="19.975147135555744171142578125">
        <ele>1366</ele>
        <time>2026-06-19T07:42:18.000Z</time>
        <extensions>
          <ns3:TrackPointExtension>
            <ns3:atemp>21.0</ns3:atemp>
          </ns3:TrackPointExtension>
        </extensions>
      </trkpt>
      <trkpt lat="42.52691117115318775177001953125" lon="19.9751258455216884613037109375">
        <ele>1366.199951171875</ele>
        <time>2026-06-19T07:42:19.000Z</time>
        <extensions>
          <ns3:TrackPointExtension>
            <ns3:atemp>21.0</ns3:atemp>
          </ns3:TrackPointExtension>
        </extensions>
      </trkpt>
      <trkpt lat="42.52691921778023242950439453125" lon="19.97511017136275768280029296875">
        <ele>1366.4000244140625</ele>
        <time>2026-06-19T07:42:20.000Z</time>
        <extensions>
          <ns3:TrackPointExtension>
            <ns3:atemp>21.0</ns3:atemp>
          </ns3:TrackPointExtension>
        </extensions>
      </trkpt>
      <trkpt lat="42.52692676149308681488037109375" lon="19.9750904738903045654296875">
        <ele>1366.5999755859375</ele>
        <time>2026-06-19T07:42:21.000Z</time>
        <extensions>
          <ns3:TrackPointExtension>
            <ns3:atemp>21.0</ns3:atemp>
          </ns3:TrackPointExtension>
        </extensions>
      </trkpt>
      <trkpt lat="42.52693396992981433868408203125" lon="19.97507379390299320220947265625">
        <ele>1367</ele>
        <time>2026-06-19T07:42:22.000Z</time>
        <extensions>
          <ns3:TrackPointExtension>
            <ns3:atemp>21.0</ns3:atemp>
          </ns3:TrackPointExtension>
        </extensions>
      </trkpt>
      <trkpt lat="42.5269414298236370086669921875" lon="19.9750473909080028533935546875">
        <ele>1367.199951171875</ele>
        <time>2026-06-19T07:42:23.000Z</time>
        <extensions>
          <ns3:TrackPointExtension>
            <ns3:atemp>21.0</ns3:atemp>
          </ns3:TrackPointExtension>
        </extensions>
      </trkpt>
      <trkpt lat="42.52694687806069850921630859375" lon="19.97502501122653484344482421875">
        <ele>1367.4000244140625</ele>
        <time>2026-06-19T07:42:24.000Z</time>
        <extensions>
          <ns3:TrackPointExtension>
            <ns3:atemp>21.0</ns3:atemp>
          </ns3:TrackPointExtension>
        </extensions>
      </trkpt>
      <trkpt lat="42.5269534997642040252685546875" lon="19.97500472702085971832275390625">
        <ele>1367.5999755859375</ele>
        <time>2026-06-19T07:42:25.000Z</time>
        <extensions>
          <ns3:TrackPointExtension>
            <ns3:atemp>21.0</ns3:atemp>
          </ns3:TrackPointExtension>
        </extensions>
      </trkpt>
      <trkpt lat="42.52695995382964611053466796875" lon="19.97498259879648685455322265625">
        <ele>1367.800048828125</ele>
        <time>2026-06-19T07:42:26.000Z</time>
        <extensions>
          <ns3:TrackPointExtension>
            <ns3:atemp>21.0</ns3:atemp>
          </ns3:TrackPointExtension>
        </extensions>
      </trkpt>
      <trkpt lat="42.52696481533348560333251953125" lon="19.97495829127728939056396484375">
        <ele>1368</ele>
        <time>2026-06-19T07:42:27.000Z</time>
        <extensions>
          <ns3:TrackPointExtension>
            <ns3:atemp>21.0</ns3:atemp>
          </ns3:TrackPointExtension>
        </extensions>
      </trkpt>
      <trkpt lat="42.52696774899959564208984375" lon="19.97493691742420196533203125">
        <ele>1368.4000244140625</ele>
        <time>2026-06-19T07:42:28.000Z</time>
        <extensions>
          <ns3:TrackPointExtension>
            <ns3:atemp>21.0</ns3:atemp>
          </ns3:TrackPointExtension>
        </extensions>
      </trkpt>
      <trkpt lat="42.526972107589244842529296875" lon="19.97491403482854366302490234375">
        <ele>1368.5999755859375</ele>
        <time>2026-06-19T07:42:29.000Z</time>
        <extensions>
          <ns3:TrackPointExtension>
            <ns3:atemp>21.0</ns3:atemp>
          </ns3:TrackPointExtension>
        </extensions>
      </trkpt>
      <trkpt lat="42.526977472007274627685546875" lon="19.9748924933373928070068359375">
        <ele>1368.800048828125</ele>
        <time>2026-06-19T07:42:30.000Z</time>
        <extensions>
          <ns3:TrackPointExtension>
            <ns3:atemp>21.0</ns3:atemp>
          </ns3:TrackPointExtension>
        </extensions>
      </trkpt>
      <trkpt lat="42.5269783101975917816162109375" lon="19.974870868027210235595703125">
        <ele>1369</ele>
        <time>2026-06-19T07:42:31.000Z</time>
        <extensions>
          <ns3:TrackPointExtension>
            <ns3:atemp>21.0</ns3:atemp>
          </ns3:TrackPointExtension>
        </extensions>
      </trkpt>
      <trkpt lat="42.5269816629588603973388671875" lon="19.97484899125993251800537109375">
        <ele>1369.199951171875</ele>
        <time>2026-06-19T07:42:32.000Z</time>
        <extensions>
          <ns3:TrackPointExtension>
            <ns3:atemp>21.0</ns3:atemp>
          </ns3:TrackPointExtension>
        </extensions>
      </trkpt>
      <trkpt lat="42.526979483664035797119140625" lon="19.97482652775943279266357421875">
        <ele>1369.4000244140625</ele>
        <time>2026-06-19T07:42:33.000Z</time>
        <extensions>
          <ns3:TrackPointExtension>
            <ns3:atemp>21.0</ns3:atemp>
          </ns3:TrackPointExtension>
        </extensions>
      </trkpt>
      <trkpt lat="42.52698375843465328216552734375" lon="19.97480012476444244384765625">
        <ele>1369.5999755859375</ele>
        <time>2026-06-19T07:42:34.000Z</time>
        <extensions>
          <ns3:TrackPointExtension>
            <ns3:atemp>21.0</ns3:atemp>
          </ns3:TrackPointExtension>
        </extensions>
      </trkpt>
      <trkpt lat="42.52698543481528759002685546875" lon="19.97477707453072071075439453125">
        <ele>1369.800048828125</ele>
        <time>2026-06-19T07:42:35.000Z</time>
        <extensions>
          <ns3:TrackPointExtension>
            <ns3:atemp>21.0</ns3:atemp>
          </ns3:TrackPointExtension>
        </extensions>
      </trkpt>
      <trkpt lat="42.526991553604602813720703125" lon="19.974746815860271453857421875">
        <ele>1370</ele>
        <time>2026-06-19T07:42:36.000Z</time>
        <extensions>
          <ns3:TrackPointExtension>
            <ns3:atemp>21.0</ns3:atemp>
          </ns3:TrackPointExtension>
        </extensions>
      </trkpt>
      <trkpt lat="42.526993565261363983154296875" lon="19.97471521608531475067138671875">
        <ele>1370.4000244140625</ele>
        <time>2026-06-19T07:42:37.000Z</time>
        <extensions>
          <ns3:TrackPointExtension>
            <ns3:atemp>21.0</ns3:atemp>
          </ns3:TrackPointExtension>
        </extensions>
      </trkpt>
      <trkpt lat="42.52699767239391803741455078125" lon="19.97468370012938976287841796875">
        <ele>1370.5999755859375</ele>
        <time>2026-06-19T07:42:38.000Z</time>
        <extensions>
          <ns3:TrackPointExtension>
            <ns3:atemp>21.0</ns3:atemp>
          </ns3:TrackPointExtension>
        </extensions>
      </trkpt>
      <trkpt lat="42.5269980914890766143798828125" lon="19.9746588058769702911376953125">
        <ele>1370.800048828125</ele>
        <time>2026-06-19T07:42:39.000Z</time>
        <extensions>
          <ns3:TrackPointExtension>
            <ns3:atemp>21.0</ns3:atemp>
          </ns3:TrackPointExtension>
        </extensions>
      </trkpt>
      <trkpt lat="42.52700219862163066864013671875" lon="19.97463206760585308074951171875">
        <ele>1371</ele>
        <time>2026-06-19T07:42:40.000Z</time>
        <extensions>
          <ns3:TrackPointExtension>
            <ns3:atemp>21.0</ns3:atemp>
          </ns3:TrackPointExtension>
        </extensions>
      </trkpt>
      <trkpt lat="42.5270046293735504150390625" lon="19.974603317677974700927734375">
        <ele>1371.4000244140625</ele>
        <time>2026-06-19T07:42:41.000Z</time>
        <extensions>
          <ns3:TrackPointExtension>
            <ns3:atemp>21.0</ns3:atemp>
          </ns3:TrackPointExtension>
        </extensions>
      </trkpt>
      <trkpt lat="42.5270054675638675689697265625" lon="19.97457616031169891357421875">
        <ele>1371.5999755859375</ele>
        <time>2026-06-19T07:42:42.000Z</time>
        <extensions>
          <ns3:TrackPointExtension>
            <ns3:atemp>21.0</ns3:atemp>
          </ns3:TrackPointExtension>
        </extensions>
      </trkpt>
      <trkpt lat="42.5270044617354869842529296875" lon="19.97454724274575710296630859375">
        <ele>1371.800048828125</ele>
        <time>2026-06-19T07:42:43.000Z</time>
        <extensions>
          <ns3:TrackPointExtension>
            <ns3:atemp>21.0</ns3:atemp>
          </ns3:TrackPointExtension>
        </extensions>
      </trkpt>
      <trkpt lat="42.52700529992580413818359375" lon="19.9745272099971771240234375">
        <ele>1372</ele>
        <time>2026-06-19T07:42:44.000Z</time>
        <extensions>
          <ns3:TrackPointExtension>
            <ns3:atemp>21.0</ns3:atemp>
          </ns3:TrackPointExtension>
        </extensions>
      </trkpt>
      <trkpt lat="42.5270061381161212921142578125" lon="19.97449963353574275970458984375">
        <ele>1372.4000244140625</ele>
        <time>2026-06-19T07:42:45.000Z</time>
        <extensions>
          <ns3:TrackPointExtension>
            <ns3:atemp>21.0</ns3:atemp>
          </ns3:TrackPointExtension>
        </extensions>
      </trkpt>
      <trkpt lat="42.52700622193515300750732421875" lon="19.97446828521788120269775390625">
        <ele>1372.5999755859375</ele>
        <time>2026-06-19T07:42:46.000Z</time>
        <extensions>
          <ns3:TrackPointExtension>
            <ns3:atemp>21.0</ns3:atemp>
          </ns3:TrackPointExtension>
        </extensions>
      </trkpt>
      <trkpt lat="42.52700638957321643829345703125" lon="19.97443391941487789154052734375">
        <ele>1372.800048828125</ele>
        <time>2026-06-19T07:42:47.000Z</time>
        <extensions>
          <ns3:TrackPointExtension>
            <ns3:atemp>21.0</ns3:atemp>
          </ns3:TrackPointExtension>
        </extensions>
      </trkpt>
      <trkpt lat="42.52700689248740673065185546875" lon="19.9744039960205554962158203125">
        <ele>1373</ele>
        <time>2026-06-19T07:42:48.000Z</time>
        <extensions>
          <ns3:TrackPointExtension>
            <ns3:atemp>21.0</ns3:atemp>
          </ns3:TrackPointExtension>
        </extensions>
      </trkpt>
      <trkpt lat="42.52700588665902614593505859375" lon="19.97436937876045703887939453125">
        <ele>1373.199951171875</ele>
        <time>2026-06-19T07:42:49.000Z</time>
        <extensions>
          <ns3:TrackPointExtension>
            <ns3:atemp>21.0</ns3:atemp>
          </ns3:TrackPointExtension>
        </extensions>
      </trkpt>
      <trkpt lat="42.5269980914890766143798828125" lon="19.97434104792773723602294921875">
        <ele>1373.5999755859375</ele>
        <time>2026-06-19T07:42:50.000Z</time>
        <extensions>
          <ns3:TrackPointExtension>
            <ns3:atemp>21.0</ns3:atemp>
          </ns3:TrackPointExtension>
        </extensions>
      </trkpt>
      <trkpt lat="42.526986189186573028564453125" lon="19.97432042844593524932861328125">
        <ele>1373.800048828125</ele>
        <time>2026-06-19T07:42:51.000Z</time>
        <extensions>
          <ns3:TrackPointExtension>
            <ns3:atemp>21.0</ns3:atemp>
          </ns3:TrackPointExtension>
        </extensions>
      </trkpt>
      <trkpt lat="42.526968419551849365234375" lon="19.974302910268306732177734375">
        <ele>1373.800048828125</ele>
        <time>2026-06-19T07:42:52.000Z</time>
        <extensions>
          <ns3:TrackPointExtension>
            <ns3:atemp>21.0</ns3:atemp>
          </ns3:TrackPointExtension>
        </extensions>
      </trkpt>
      <trkpt lat="42.52695743925869464874267578125" lon="19.97428991831839084625244140625">
        <ele>1374</ele>
        <time>2026-06-19T07:42:53.000Z</time>
        <extensions>
          <ns3:TrackPointExtension>
            <ns3:atemp>21.0</ns3:atemp>
          </ns3:TrackPointExtension>
        </extensions>
      </trkpt>
      <trkpt lat="42.5269417650997638702392578125" lon="19.97428421862423419952392578125">
        <ele>1374.199951171875</ele>
        <time>2026-06-19T07:42:54.000Z</time>
        <extensions>
          <ns3:TrackPointExtension>
            <ns3:atemp>21.0</ns3:atemp>
          </ns3:TrackPointExtension>
        </extensions>
      </trkpt>
      <trkpt lat="42.52692692913115024566650390625" lon="19.97427969239652156829833984375">
        <ele>1374.199951171875</ele>
        <time>2026-06-19T07:42:55.000Z</time>
        <extensions>
          <ns3:TrackPointExtension>
            <ns3:atemp>21.0</ns3:atemp>
          </ns3:TrackPointExtension>
        </extensions>
      </trkpt>
      <trkpt lat="42.52691267989575862884521484375" lon="19.97427642345428466796875">
        <ele>1374.4000244140625</ele>
        <time>2026-06-19T07:42:56.000Z</time>
        <extensions>
          <ns3:TrackPointExtension>
            <ns3:atemp>21.0</ns3:atemp>
          </ns3:TrackPointExtension>
        </extensions>
      </trkpt>
      <trkpt lat="42.526898682117462158203125" lon="19.97427214868366718292236328125">
        <ele>1374.5999755859375</ele>
        <time>2026-06-19T07:42:57.000Z</time>
        <extensions>
          <ns3:TrackPointExtension>
            <ns3:atemp>21.0</ns3:atemp>
          </ns3:TrackPointExtension>
        </extensions>
      </trkpt>
      <trkpt lat="42.5268840976059436798095703125" lon="19.9742715619504451751708984375">
        <ele>1374.800048828125</ele>
        <time>2026-06-19T07:42:58.000Z</time>
        <extensions>
          <ns3:TrackPointExtension>
            <ns3:atemp>21.0</ns3:atemp>
          </ns3:TrackPointExtension>
        </extensions>
      </trkpt>
      <trkpt lat="42.5268680043518543243408203125" lon="19.97427298687398433685302734375">
        <ele>1374.800048828125</ele>
        <time>2026-06-19T07:42:59.000Z</time>
        <extensions>
          <ns3:TrackPointExtension>
            <ns3:atemp>21.0</ns3:atemp>
          </ns3:TrackPointExtension>
        </extensions>
      </trkpt>
      <trkpt lat="42.5268549285829067230224609375" lon="19.9742729030549526214599609375">
        <ele>1375</ele>
        <time>2026-06-19T07:43:00.000Z</time>
        <extensions>
          <ns3:TrackPointExtension>
            <ns3:atemp>21.0</ns3:atemp>
          </ns3:TrackPointExtension>
        </extensions>
      </trkpt>
      <trkpt lat="42.52684227190911769866943359375" lon="19.97427307069301605224609375">
        <ele>1375</ele>
        <time>2026-06-19T07:43:01.000Z</time>
        <extensions>
          <ns3:TrackPointExtension>
            <ns3:atemp>21.0</ns3:atemp>
          </ns3:TrackPointExtension>
        </extensions>
      </trkpt>
      <trkpt lat="42.52682902850210666656494140625" lon="19.9742775969207286834716796875">
        <ele>1375.199951171875</ele>
        <time>2026-06-19T07:43:02.000Z</time>
        <extensions>
          <ns3:TrackPointExtension>
            <ns3:atemp>21.0</ns3:atemp>
          </ns3:TrackPointExtension>
        </extensions>
      </trkpt>
      <trkpt lat="42.5268193893134593963623046875" lon="19.97428455390036106109619140625">
        <ele>1375.199951171875</ele>
        <time>2026-06-19T07:43:03.000Z</time>
        <extensions>
          <ns3:TrackPointExtension>
            <ns3:atemp>21.0</ns3:atemp>
          </ns3:TrackPointExtension>
        </extensions>
      </trkpt>
      <trkpt lat="42.526804469525814056396484375" lon="19.97428916394710540771484375">
        <ele>1375.199951171875</ele>
        <time>2026-06-19T07:43:04.000Z</time>
        <extensions>
          <ns3:TrackPointExtension>
            <ns3:atemp>21.0</ns3:atemp>
          </ns3:TrackPointExtension>
        </extensions>
      </trkpt>
      <trkpt lat="42.52678401768207550048828125" lon="19.974296875298023223876953125">
        <ele>1375.4000244140625</ele>
        <time>2026-06-19T07:43:05.000Z</time>
        <extensions>
          <ns3:TrackPointExtension>
            <ns3:atemp>21.0</ns3:atemp>
          </ns3:TrackPointExtension>
        </extensions>
      </trkpt>
      <trkpt lat="42.52676180563867092132568359375" lon="19.9743050895631313323974609375">
        <ele>1375.5999755859375</ele>
        <time>2026-06-19T07:43:06.000Z</time>
        <extensions>
          <ns3:TrackPointExtension>
            <ns3:atemp>21.0</ns3:atemp>
          </ns3:TrackPointExtension>
        </extensions>
      </trkpt>
      <trkpt lat="42.52674470655620098114013671875" lon="19.9743168242275714874267578125">
        <ele>1375.800048828125</ele>
        <time>2026-06-19T07:43:07.000Z</time>
        <extensions>
          <ns3:TrackPointExtension>
            <ns3:atemp>21.0</ns3:atemp>
          </ns3:TrackPointExtension>
        </extensions>
      </trkpt>
      <trkpt lat="42.52672324888408184051513671875" lon="19.97432562522590160369873046875">
        <ele>1375.800048828125</ele>
        <time>2026-06-19T07:43:08.000Z</time>
        <extensions>
          <ns3:TrackPointExtension>
            <ns3:atemp>21.0</ns3:atemp>
          </ns3:TrackPointExtension>
        </extensions>
      </trkpt>
      <trkpt lat="42.52670011483132839202880859375" lon="19.97433769516646862030029296875">
        <ele>1376</ele>
        <time>2026-06-19T07:43:09.000Z</time>
        <extensions>
          <ns3:TrackPointExtension>
            <ns3:atemp>21.0</ns3:atemp>
          </ns3:TrackPointExtension>
        </extensions>
      </trkpt>
      <trkpt lat="42.52667647786438465118408203125" lon="19.9743476696312427520751953125">
        <ele>1376.199951171875</ele>
        <time>2026-06-19T07:43:10.000Z</time>
        <extensions>
          <ns3:TrackPointExtension>
            <ns3:atemp>21.0</ns3:atemp>
          </ns3:TrackPointExtension>
        </extensions>
      </trkpt>
      <trkpt lat="42.52665049396455287933349609375" lon="19.974357895553112030029296875">
        <ele>1376.4000244140625</ele>
        <time>2026-06-19T07:43:11.000Z</time>
        <extensions>
          <ns3:TrackPointExtension>
            <ns3:atemp>21.0</ns3:atemp>
          </ns3:TrackPointExtension>
        </extensions>
      </trkpt>
      <trkpt lat="42.526629455387592315673828125" lon="19.9743640981614589691162109375">
        <ele>1376.5999755859375</ele>
        <time>2026-06-19T07:43:12.000Z</time>
        <extensions>
          <ns3:TrackPointExtension>
            <ns3:atemp>21.0</ns3:atemp>
          </ns3:TrackPointExtension>
        </extensions>
      </trkpt>
      <trkpt lat="42.52661059610545635223388671875" lon="19.97437491081655025482177734375">
        <ele>1376.800048828125</ele>
        <time>2026-06-19T07:43:13.000Z</time>
        <extensions>
          <ns3:TrackPointExtension>
            <ns3:atemp>21.0</ns3:atemp>
          </ns3:TrackPointExtension>
        </extensions>
      </trkpt>
      <trkpt lat="42.5265924073755741119384765625" lon="19.97438681311905384063720703125">
        <ele>1377</ele>
        <time>2026-06-19T07:43:14.000Z</time>
        <extensions>
          <ns3:TrackPointExtension>
            <ns3:atemp>21.0</ns3:atemp>
          </ns3:TrackPointExtension>
        </extensions>
      </trkpt>
      <trkpt lat="42.52657187171280384063720703125" lon="19.974396787583827972412109375">
        <ele>1377.199951171875</ele>
        <time>2026-06-19T07:43:15.000Z</time>
        <extensions>
          <ns3:TrackPointExtension>
            <ns3:atemp>21.0</ns3:atemp>
          </ns3:TrackPointExtension>
        </extensions>
      </trkpt>
      <trkpt lat="42.5265521742403507232666015625" lon="19.97440424747765064239501953125">
        <ele>1377.4000244140625</ele>
        <time>2026-06-19T07:43:16.000Z</time>
        <extensions>
          <ns3:TrackPointExtension>
            <ns3:atemp>21.0</ns3:atemp>
          </ns3:TrackPointExtension>
        </extensions>
      </trkpt>
      <trkpt lat="42.5265310518443584442138671875" lon="19.974413551390171051025390625">
        <ele>1377.5999755859375</ele>
        <time>2026-06-19T07:43:17.000Z</time>
        <extensions>
          <ns3:TrackPointExtension>
            <ns3:atemp>21.0</ns3:atemp>
          </ns3:TrackPointExtension>
        </extensions>
      </trkpt>
      <trkpt lat="42.52651168964803218841552734375" lon="19.97442252002656459808349609375">
        <ele>1377.800048828125</ele>
        <time>2026-06-19T07:43:18.000Z</time>
        <extensions>
          <ns3:TrackPointExtension>
            <ns3:atemp>21.0</ns3:atemp>
          </ns3:TrackPointExtension>
        </extensions>
      </trkpt>
      <trkpt lat="42.52649073489010334014892578125" lon="19.97442989610135555267333984375">
        <ele>1378</ele>
        <time>2026-06-19T07:43:19.000Z</time>
        <extensions>
          <ns3:TrackPointExtension>
            <ns3:atemp>21.0</ns3:atemp>
          </ns3:TrackPointExtension>
        </extensions>
      </trkpt>
      <trkpt lat="42.52646743319928646087646484375" lon="19.9744345061480998992919921875">
        <ele>1378.199951171875</ele>
        <time>2026-06-19T07:43:20.000Z</time>
        <extensions>
          <ns3:TrackPointExtension>
            <ns3:atemp>21.0</ns3:atemp>
          </ns3:TrackPointExtension>
        </extensions>
      </trkpt>
      <trkpt lat="42.5264408625662326812744140625" lon="19.97444464825093746185302734375">
        <ele>1378.4000244140625</ele>
        <time>2026-06-19T07:43:21.000Z</time>
        <extensions>
          <ns3:TrackPointExtension>
            <ns3:atemp>21.0</ns3:atemp>
          </ns3:TrackPointExtension>
        </extensions>
      </trkpt>
      <trkpt lat="42.52641680650413036346435546875" lon="19.97445101849734783172607421875">
        <ele>1378.5999755859375</ele>
        <time>2026-06-19T07:43:22.000Z</time>
        <extensions>
          <ns3:TrackPointExtension>
            <ns3:atemp>21.0</ns3:atemp>
          </ns3:TrackPointExtension>
        </extensions>
      </trkpt>
      <trkpt lat="42.52638981677591800689697265625" lon="19.9744616635143756866455078125">
        <ele>1378.5999755859375</ele>
        <time>2026-06-19T07:43:23.000Z</time>
        <extensions>
          <ns3:TrackPointExtension>
            <ns3:atemp>21.0</ns3:atemp>
          </ns3:TrackPointExtension>
        </extensions>
      </trkpt>
      <trkpt lat="42.52636265940964221954345703125" lon="19.97446945868432521820068359375">
        <ele>1378.800048828125</ele>
        <time>2026-06-19T07:43:24.000Z</time>
        <extensions>
          <ns3:TrackPointExtension>
            <ns3:atemp>21.0</ns3:atemp>
          </ns3:TrackPointExtension>
        </extensions>
      </trkpt>
      <trkpt lat="42.52633466385304927825927734375" lon="19.97447264380753040313720703125">
        <ele>1379</ele>
        <time>2026-06-19T07:43:25.000Z</time>
        <extensions>
          <ns3:TrackPointExtension>
            <ns3:atemp>21.0</ns3:atemp>
          </ns3:TrackPointExtension>
        </extensions>
      </trkpt>
      <trkpt lat="42.5263097696006298065185546875" lon="19.97447968460619449615478515625">
        <ele>1379</ele>
        <time>2026-06-19T07:43:26.000Z</time>
        <extensions>
          <ns3:TrackPointExtension>
            <ns3:atemp>21.0</ns3:atemp>
          </ns3:TrackPointExtension>
        </extensions>
      </trkpt>
      <trkpt lat="42.52628554590046405792236328125" lon="19.974484629929065704345703125">
        <ele>1379</ele>
        <time>2026-06-19T07:43:27.000Z</time>
        <extensions>
          <ns3:TrackPointExtension>
            <ns3:atemp>21.0</ns3:atemp>
          </ns3:TrackPointExtension>
        </extensions>
      </trkpt>
      <trkpt lat="42.52626056782901287078857421875" lon="19.97449276037514209747314453125">
        <ele>1379.199951171875</ele>
        <time>2026-06-19T07:43:28.000Z</time>
        <extensions>
          <ns3:TrackPointExtension>
            <ns3:atemp>21.0</ns3:atemp>
          </ns3:TrackPointExtension>
        </extensions>
      </trkpt>
      <trkpt lat="42.52623626030981540679931640625" lon="19.974504075944423675537109375">
        <ele>1379.199951171875</ele>
        <time>2026-06-19T07:43:29.000Z</time>
        <extensions>
          <ns3:TrackPointExtension>
            <ns3:atemp>21.0</ns3:atemp>
          </ns3:TrackPointExtension>
        </extensions>
      </trkpt>
      <trkpt lat="42.5262108631432056427001953125" lon="19.97450617142021656036376953125">
        <ele>1379.4000244140625</ele>
        <time>2026-06-19T07:43:30.000Z</time>
        <extensions>
          <ns3:TrackPointExtension>
            <ns3:atemp>21.0</ns3:atemp>
          </ns3:TrackPointExtension>
        </extensions>
      </trkpt>
      <trkpt lat="42.526185214519500732421875" lon="19.97451019473373889923095703125">
        <ele>1379.4000244140625</ele>
        <time>2026-06-19T07:43:31.000Z</time>
        <extensions>
          <ns3:TrackPointExtension>
            <ns3:atemp>21.0</ns3:atemp>
          </ns3:TrackPointExtension>
        </extensions>
      </trkpt>
      <trkpt lat="42.52615596167743206024169921875" lon="19.97451312839984893798828125">
        <ele>1379.5999755859375</ele>
        <time>2026-06-19T07:43:32.000Z</time>
        <extensions>
          <ns3:TrackPointExtension>
            <ns3:atemp>21.0</ns3:atemp>
          </ns3:TrackPointExtension>
        </extensions>
      </trkpt>
      <trkpt lat="42.5261273793876171112060546875" lon="19.974513463675975799560546875">
        <ele>1379.800048828125</ele>
        <time>2026-06-19T07:43:33.000Z</time>
        <extensions>
          <ns3:TrackPointExtension>
            <ns3:atemp>21.0</ns3:atemp>
          </ns3:TrackPointExtension>
        </extensions>
      </trkpt>
      <trkpt lat="42.52610432915389537811279296875" lon="19.97451053000986576080322265625">
        <ele>1379.800048828125</ele>
        <time>2026-06-19T07:43:34.000Z</time>
        <extensions>
          <ns3:TrackPointExtension>
            <ns3:atemp>21.0</ns3:atemp>
          </ns3:TrackPointExtension>
        </extensions>
      </trkpt>
      <trkpt lat="42.526079602539539337158203125" lon="19.97450801543891429901123046875">
        <ele>1380</ele>
        <time>2026-06-19T07:43:35.000Z</time>
        <extensions>
          <ns3:TrackPointExtension>
            <ns3:atemp>21.0</ns3:atemp>
          </ns3:TrackPointExtension>
        </extensions>
      </trkpt>
      <trkpt lat="42.5260603241622447967529296875" lon="19.97450432740151882171630859375">
        <ele>1380</ele>
        <time>2026-06-19T07:43:36.000Z</time>
        <extensions>
          <ns3:TrackPointExtension>
            <ns3:atemp>21.0</ns3:atemp>
          </ns3:TrackPointExtension>
        </extensions>
      </trkpt>
      <trkpt lat="42.52603090368211269378662109375" lon="19.97450265102088451385498046875">
        <ele>1380</ele>
        <time>2026-06-19T07:43:37.000Z</time>
        <extensions>
          <ns3:TrackPointExtension>
            <ns3:atemp>21.0</ns3:atemp>
          </ns3:TrackPointExtension>
        </extensions>
      </trkpt>
      <trkpt lat="42.52599754370748996734619140625" lon="19.97449846006929874420166015625">
        <ele>1380.199951171875</ele>
        <time>2026-06-19T07:43:38.000Z</time>
        <extensions>
          <ns3:TrackPointExtension>
            <ns3:atemp>21.0</ns3:atemp>
          </ns3:TrackPointExtension>
        </extensions>
      </trkpt>
      <trkpt lat="42.525962926447391510009765625" lon="19.9745039083063602447509765625">
        <ele>1380.199951171875</ele>
        <time>2026-06-19T07:43:39.000Z</time>
        <extensions>
          <ns3:TrackPointExtension>
            <ns3:atemp>21.0</ns3:atemp>
          </ns3:TrackPointExtension>
        </extensions>
      </trkpt>
      <trkpt lat="42.52593719400465488433837890625" lon="19.9745039083063602447509765625">
        <ele>1380.199951171875</ele>
        <time>2026-06-19T07:43:40.000Z</time>
        <extensions>
          <ns3:TrackPointExtension>
            <ns3:atemp>21.0</ns3:atemp>
          </ns3:TrackPointExtension>
        </extensions>
      </trkpt>
      <trkpt lat="42.52590953372418880462646484375" lon="19.97450617142021656036376953125">
        <ele>1380.4000244140625</ele>
        <time>2026-06-19T07:43:41.000Z</time>
        <extensions>
          <ns3:TrackPointExtension>
            <ns3:atemp>21.0</ns3:atemp>
          </ns3:TrackPointExtension>
        </extensions>
      </trkpt>
      <trkpt lat="42.525877766311168670654296875" lon="19.97450751252472400665283203125">
        <ele>1380.4000244140625</ele>
        <time>2026-06-19T07:43:42.000Z</time>
        <extensions>
          <ns3:TrackPointExtension>
            <ns3:atemp>21.0</ns3:atemp>
          </ns3:TrackPointExtension>
        </extensions>
      </trkpt>
      <trkpt lat="42.52585002221167087554931640625" lon="19.97450374066829681396484375">
        <ele>1380.4000244140625</ele>
        <time>2026-06-19T07:43:43.000Z</time>
        <extensions>
          <ns3:TrackPointExtension>
            <ns3:atemp>21.0</ns3:atemp>
          </ns3:TrackPointExtension>
        </extensions>
      </trkpt>
      <trkpt lat="42.52582135610282421112060546875" lon="19.97450969181954860687255859375">
        <ele>1380.4000244140625</ele>
        <time>2026-06-19T07:43:44.000Z</time>
        <extensions>
          <ns3:TrackPointExtension>
            <ns3:atemp>21.0</ns3:atemp>
          </ns3:TrackPointExtension>
        </extensions>
      </trkpt>
      <trkpt lat="42.5257927738130092620849609375" lon="19.9745136313140392303466796875">
        <ele>1380.4000244140625</ele>
        <time>2026-06-19T07:43:45.000Z</time>
        <extensions>
          <ns3:TrackPointExtension>
            <ns3:atemp>21.0</ns3:atemp>
          </ns3:TrackPointExtension>
        </extensions>
      </trkpt>
      <trkpt lat="42.5257627665996551513671875" lon="19.97451958246529102325439453125">
        <ele>1380.4000244140625</ele>
        <time>2026-06-19T07:43:46.000Z</time>
        <extensions>
          <ns3:TrackPointExtension>
            <ns3:atemp>21.0</ns3:atemp>
          </ns3:TrackPointExtension>
        </extensions>
      </trkpt>
      <trkpt lat="42.52573736943304538726806640625" lon="19.9745223484933376312255859375">
        <ele>1380.4000244140625</ele>
        <time>2026-06-19T07:43:47.000Z</time>
        <extensions>
          <ns3:TrackPointExtension>
            <ns3:atemp>21.0</ns3:atemp>
          </ns3:TrackPointExtension>
        </extensions>
      </trkpt>
      <trkpt lat="42.5257143191993236541748046875" lon="19.97452612034976482391357421875">
        <ele>1380.4000244140625</ele>
        <time>2026-06-19T07:43:48.000Z</time>
        <extensions>
          <ns3:TrackPointExtension>
            <ns3:atemp>21.0</ns3:atemp>
          </ns3:TrackPointExtension>
        </extensions>
      </trkpt>
      <trkpt lat="42.5256918556988239288330078125" lon="19.9745267070829868316650390625">
        <ele>1380.4000244140625</ele>
        <time>2026-06-19T07:43:49.000Z</time>
        <extensions>
          <ns3:TrackPointExtension>
            <ns3:atemp>21.0</ns3:atemp>
          </ns3:TrackPointExtension>
        </extensions>
      </trkpt>
      <trkpt lat="42.52566914074122905731201171875" lon="19.97452519834041595458984375">
        <ele>1380.199951171875</ele>
        <time>2026-06-19T07:43:50.000Z</time>
        <extensions>
          <ns3:TrackPointExtension>
            <ns3:atemp>21.0</ns3:atemp>
          </ns3:TrackPointExtension>
        </extensions>
      </trkpt>
      <trkpt lat="42.52565153874456882476806640625" lon="19.97452259995043277740478515625">
        <ele>1380.199951171875</ele>
        <time>2026-06-19T07:43:51.000Z</time>
        <extensions>
          <ns3:TrackPointExtension>
            <ns3:atemp>21.0</ns3:atemp>
          </ns3:TrackPointExtension>
        </extensions>
      </trkpt>
      <trkpt lat="42.52563645131886005401611328125" lon="19.97451673261821269989013671875">
        <ele>1380.199951171875</ele>
        <time>2026-06-19T07:43:52.000Z</time>
        <extensions>
          <ns3:TrackPointExtension>
            <ns3:atemp>21.0</ns3:atemp>
          </ns3:TrackPointExtension>
        </extensions>
      </trkpt>
      <trkpt lat="42.52561415545642375946044921875" lon="19.97451622970402240753173828125">
        <ele>1380.199951171875</ele>
        <time>2026-06-19T07:43:53.000Z</time>
        <extensions>
          <ns3:TrackPointExtension>
            <ns3:atemp>21.0</ns3:atemp>
          </ns3:TrackPointExtension>
        </extensions>
      </trkpt>
      <trkpt lat="42.52559118904173374176025390625" lon="19.97452377341687679290771484375">
        <ele>1380.199951171875</ele>
        <time>2026-06-19T07:43:54.000Z</time>
        <extensions>
          <ns3:TrackPointExtension>
            <ns3:atemp>21.0</ns3:atemp>
          </ns3:TrackPointExtension>
        </extensions>
      </trkpt>
      <trkpt lat="42.52556134946644306182861328125" lon="19.97452746145427227020263671875">
        <ele>1380.199951171875</ele>
        <time>2026-06-19T07:43:55.000Z</time>
        <extensions>
          <ns3:TrackPointExtension>
            <ns3:atemp>21.0</ns3:atemp>
          </ns3:TrackPointExtension>
        </extensions>
      </trkpt>
      <trkpt lat="42.52553167752921581268310546875" lon="19.97452251613140106201171875">
        <ele>1380.199951171875</ele>
        <time>2026-06-19T07:43:56.000Z</time>
        <extensions>
          <ns3:TrackPointExtension>
            <ns3:atemp>21.0</ns3:atemp>
          </ns3:TrackPointExtension>
        </extensions>
      </trkpt>
      <trkpt lat="42.52550485543906688690185546875" lon="19.9745186604559421539306640625">
        <ele>1380.199951171875</ele>
        <time>2026-06-19T07:43:57.000Z</time>
        <extensions>
          <ns3:TrackPointExtension>
            <ns3:atemp>21.0</ns3:atemp>
          </ns3:TrackPointExtension>
        </extensions>
      </trkpt>
      <trkpt lat="42.52547870390117168426513671875" lon="19.9745136313140392303466796875">
        <ele>1380.199951171875</ele>
        <time>2026-06-19T07:43:58.000Z</time>
        <extensions>
          <ns3:TrackPointExtension>
            <ns3:atemp>21.0</ns3:atemp>
          </ns3:TrackPointExtension>
        </extensions>
      </trkpt>
      <trkpt lat="42.52545364201068878173828125" lon="19.974510110914707183837890625">
        <ele>1380.199951171875</ele>
        <time>2026-06-19T07:43:59.000Z</time>
        <extensions>
          <ns3:TrackPointExtension>
            <ns3:atemp>21.0</ns3:atemp>
          </ns3:TrackPointExtension>
        </extensions>
      </trkpt>
      <trkpt lat="42.525415085256099700927734375" lon="19.97450499795377254486083984375">
        <ele>1380.199951171875</ele>
        <time>2026-06-19T07:44:00.000Z</time>
        <extensions>
          <ns3:TrackPointExtension>
            <ns3:atemp>21.0</ns3:atemp>
          </ns3:TrackPointExtension>
        </extensions>
      </trkpt>
      <trkpt lat="42.52538331784307956695556640625" lon="19.97449846006929874420166015625">
        <ele>1380.199951171875</ele>
        <time>2026-06-19T07:44:01.000Z</time>
        <extensions>
          <ns3:TrackPointExtension>
            <ns3:atemp>21.0</ns3:atemp>
          </ns3:TrackPointExtension>
        </extensions>
      </trkpt>
      <trkpt lat="42.52534677274525165557861328125" lon="19.9744938500225543975830078125">
        <ele>1380.199951171875</ele>
        <time>2026-06-19T07:44:02.000Z</time>
        <extensions>
          <ns3:TrackPointExtension>
            <ns3:atemp>21.0</ns3:atemp>
          </ns3:TrackPointExtension>
        </extensions>
      </trkpt>
      <trkpt lat="42.525308132171630859375" lon="19.9744928441941738128662109375">
        <ele>1380</ele>
        <time>2026-06-19T07:44:03.000Z</time>
        <extensions>
          <ns3:TrackPointExtension>
            <ns3:atemp>21.0</ns3:atemp>
          </ns3:TrackPointExtension>
        </extensions>
      </trkpt>
      <trkpt lat="42.5252700783312320709228515625" lon="19.974482618272304534912109375">
        <ele>1380</ele>
        <time>2026-06-19T07:44:04.000Z</time>
        <extensions>
          <ns3:TrackPointExtension>
            <ns3:atemp>21.0</ns3:atemp>
          </ns3:TrackPointExtension>
        </extensions>
      </trkpt>
      <trkpt lat="42.52523261122405529022216796875" lon="19.9744720570743083953857421875">
        <ele>1379.800048828125</ele>
        <time>2026-06-19T07:44:05.000Z</time>
        <extensions>
          <ns3:TrackPointExtension>
            <ns3:atemp>21.0</ns3:atemp>
          </ns3:TrackPointExtension>
        </extensions>
      </trkpt>
      <trkpt lat="42.525197826325893402099609375" lon="19.97445881366729736328125">
        <ele>1379.5999755859375</ele>
        <time>2026-06-19T07:44:06.000Z</time>
        <extensions>
          <ns3:TrackPointExtension>
            <ns3:atemp>21.0</ns3:atemp>
          </ns3:TrackPointExtension>
        </extensions>
      </trkpt>
      <trkpt lat="42.52515952102839946746826171875" lon="19.9744509346783161163330078125">
        <ele>1379.4000244140625</ele>
        <time>2026-06-19T07:44:07.000Z</time>
        <extensions>
          <ns3:TrackPointExtension>
            <ns3:atemp>21.0</ns3:atemp>
          </ns3:TrackPointExtension>
        </extensions>
      </trkpt>
      <trkpt lat="42.52511844970285892486572265625" lon="19.9744418822228908538818359375">
        <ele>1379</ele>
        <time>2026-06-19T07:44:08.000Z</time>
        <extensions>
          <ns3:TrackPointExtension>
            <ns3:atemp>21.0</ns3:atemp>
          </ns3:TrackPointExtension>
        </extensions>
      </trkpt>
      <trkpt lat="42.52508559264242649078369140625" lon="19.974432326853275299072265625">
        <ele>1379</ele>
        <time>2026-06-19T07:44:09.000Z</time>
        <extensions>
          <ns3:TrackPointExtension>
            <ns3:atemp>21.0</ns3:atemp>
          </ns3:TrackPointExtension>
        </extensions>
      </trkpt>
      <trkpt lat="42.52506262622773647308349609375" lon="19.9744338355958461761474609375">
        <ele>1378.800048828125</ele>
        <time>2026-06-19T07:44:10.000Z</time>
        <extensions>
          <ns3:TrackPointExtension>
            <ns3:atemp>21.0</ns3:atemp>
          </ns3:TrackPointExtension>
        </extensions>
      </trkpt>
      <trkpt lat="42.52503932453691959381103515625" lon="19.97443073429167270660400390625">
        <ele>1378.800048828125</ele>
        <time>2026-06-19T07:44:11.000Z</time>
        <extensions>
          <ns3:TrackPointExtension>
            <ns3:atemp>21.0</ns3:atemp>
          </ns3:TrackPointExtension>
        </extensions>
      </trkpt>
      <trkpt lat="42.52501551993191242218017578125" lon="19.97443400323390960693359375">
        <ele>1378.5999755859375</ele>
        <time>2026-06-19T07:44:12.000Z</time>
        <extensions>
          <ns3:TrackPointExtension>
            <ns3:atemp>21.0</ns3:atemp>
          </ns3:TrackPointExtension>
        </extensions>
      </trkpt>
      <trkpt lat="42.5249958224594593048095703125" lon="19.97443693690001964569091796875">
        <ele>1378.5999755859375</ele>
        <time>2026-06-19T07:44:13.000Z</time>
        <extensions>
          <ns3:TrackPointExtension>
            <ns3:atemp>21.0</ns3:atemp>
          </ns3:TrackPointExtension>
        </extensions>
      </trkpt>
      <trkpt lat="42.52498048357665538787841796875" lon="19.9744257889688014984130859375">
        <ele>1378.5999755859375</ele>
        <time>2026-06-19T07:44:14.000Z</time>
        <extensions>
          <ns3:TrackPointExtension>
            <ns3:atemp>21.0</ns3:atemp>
          </ns3:TrackPointExtension>
        </extensions>
      </trkpt>
      <trkpt lat="42.5249653123319149017333984375" lon="19.9744091928005218505859375">
        <ele>1378.5999755859375</ele>
        <time>2026-06-19T07:44:15.000Z</time>
        <extensions>
          <ns3:TrackPointExtension>
            <ns3:atemp>21.0</ns3:atemp>
          </ns3:TrackPointExtension>
        </extensions>
      </trkpt>
      <trkpt lat="42.5249472074210643768310546875" lon="19.9743962846696376800537109375">
        <ele>1378.4000244140625</ele>
        <time>2026-06-19T07:44:16.000Z</time>
        <extensions>
          <ns3:TrackPointExtension>
            <ns3:atemp>21.0</ns3:atemp>
          </ns3:TrackPointExtension>
        </extensions>
      </trkpt>
      <trkpt lat="42.52492449246346950531005859375" lon="19.97438907623291015625">
        <ele>1378.4000244140625</ele>
        <time>2026-06-19T07:44:17.000Z</time>
        <extensions>
          <ns3:TrackPointExtension>
            <ns3:atemp>21.0</ns3:atemp>
          </ns3:TrackPointExtension>
        </extensions>
      </trkpt>
      <trkpt lat="42.52489482052624225616455078125" lon="19.97438195161521434783935546875">
        <ele>1378.4000244140625</ele>
        <time>2026-06-19T07:44:18.000Z</time>
        <extensions>
          <ns3:TrackPointExtension>
            <ns3:atemp>21.0</ns3:atemp>
          </ns3:TrackPointExtension>
        </extensions>
      </trkpt>
      <trkpt lat="42.52487285993993282318115234375" lon="19.9743741564452648162841796875">
        <ele>1378.4000244140625</ele>
        <time>2026-06-19T07:44:19.000Z</time>
        <extensions>
          <ns3:TrackPointExtension>
            <ns3:atemp>21.0</ns3:atemp>
          </ns3:TrackPointExtension>
        </extensions>
      </trkpt>
      <trkpt lat="42.5248467922210693359375" lon="19.974371306598186492919921875">
        <ele>1378.4000244140625</ele>
        <time>2026-06-19T07:44:20.000Z</time>
        <extensions>
          <ns3:TrackPointExtension>
            <ns3:atemp>21.0</ns3:atemp>
          </ns3:TrackPointExtension>
        </extensions>
      </trkpt>
      <trkpt lat="42.52481804229319095611572265625" lon="19.97436468489468097686767578125">
        <ele>1378.5999755859375</ele>
        <time>2026-06-19T07:44:21.000Z</time>
        <extensions>
          <ns3:TrackPointExtension>
            <ns3:atemp>21.0</ns3:atemp>
          </ns3:TrackPointExtension>
        </extensions>
      </trkpt>
      <trkpt lat="42.5247862748801708221435546875" lon="19.9743597395718097686767578125">
        <ele>1378.5999755859375</ele>
        <time>2026-06-19T07:44:22.000Z</time>
        <extensions>
          <ns3:TrackPointExtension>
            <ns3:atemp>21.0</ns3:atemp>
          </ns3:TrackPointExtension>
        </extensions>
      </trkpt>
      <trkpt lat="42.52475886605679988861083984375" lon="19.9743607454001903533935546875">
        <ele>1378.800048828125</ele>
        <time>2026-06-19T07:44:23.000Z</time>
        <extensions>
          <ns3:TrackPointExtension>
            <ns3:atemp>21.0</ns3:atemp>
          </ns3:TrackPointExtension>
        </extensions>
      </trkpt>
      <trkpt lat="42.52473455853760242462158203125" lon="19.9743587337434291839599609375">
        <ele>1378.800048828125</ele>
        <time>2026-06-19T07:44:24.000Z</time>
        <extensions>
          <ns3:TrackPointExtension>
            <ns3:atemp>21.0</ns3:atemp>
          </ns3:TrackPointExtension>
        </extensions>
      </trkpt>
      <trkpt lat="42.52470890991389751434326171875" lon="19.97435831464827060699462890625">
        <ele>1379</ele>
        <time>2026-06-19T07:44:25.000Z</time>
        <extensions>
          <ns3:TrackPointExtension>
            <ns3:atemp>20.0</ns3:atemp>
          </ns3:TrackPointExtension>
        </extensions>
      </trkpt>
      <trkpt lat="42.52468175254762172698974609375" lon="19.9743550457060337066650390625">
        <ele>1379.199951171875</ele>
        <time>2026-06-19T07:44:26.000Z</time>
        <extensions>
          <ns3:TrackPointExtension>
            <ns3:atemp>20.0</ns3:atemp>
          </ns3:TrackPointExtension>
        </extensions>
      </trkpt>
      <trkpt lat="42.52465275116264820098876953125" lon="19.97435563243925571441650390625">
        <ele>1379.199951171875</ele>
        <time>2026-06-19T07:44:27.000Z</time>
        <extensions>
          <ns3:TrackPointExtension>
            <ns3:atemp>20.0</ns3:atemp>
          </ns3:TrackPointExtension>
        </extensions>
      </trkpt>
      <trkpt lat="42.52462257631123065948486328125" lon="19.9743583984673023223876953125">
        <ele>1379.4000244140625</ele>
        <time>2026-06-19T07:44:28.000Z</time>
        <extensions>
          <ns3:TrackPointExtension>
            <ns3:atemp>20.0</ns3:atemp>
          </ns3:TrackPointExtension>
        </extensions>
      </trkpt>
      <trkpt lat="42.52459743060171604156494140625" lon="19.974365271627902984619140625">
        <ele>1379.800048828125</ele>
        <time>2026-06-19T07:44:29.000Z</time>
        <extensions>
          <ns3:TrackPointExtension>
            <ns3:atemp>20.0</ns3:atemp>
          </ns3:TrackPointExtension>
        </extensions>
      </trkpt>
      <trkpt lat="42.5245723687112331390380859375" lon="19.97436233796179294586181640625">
        <ele>1379.800048828125</ele>
        <time>2026-06-19T07:44:30.000Z</time>
        <extensions>
          <ns3:TrackPointExtension>
            <ns3:atemp>20.0</ns3:atemp>
          </ns3:TrackPointExtension>
        </extensions>
      </trkpt>
      <trkpt lat="42.524541355669498443603515625" lon="19.97436954639852046966552734375">
        <ele>1380</ele>
        <time>2026-06-19T07:44:31.000Z</time>
        <extensions>
          <ns3:TrackPointExtension>
            <ns3:atemp>20.0</ns3:atemp>
          </ns3:TrackPointExtension>
        </extensions>
      </trkpt>
      <trkpt lat="42.52451595850288867950439453125" lon="19.9743728153407573699951171875">
        <ele>1380.199951171875</ele>
        <time>2026-06-19T07:44:32.000Z</time>
        <extensions>
          <ns3:TrackPointExtension>
            <ns3:atemp>20.0</ns3:atemp>
          </ns3:TrackPointExtension>
        </extensions>
      </trkpt>
      <trkpt lat="42.5244895555078983306884765625" lon="19.97437507845461368560791015625">
        <ele>1380.4000244140625</ele>
        <time>2026-06-19T07:44:33.000Z</time>
        <extensions>
          <ns3:TrackPointExtension>
            <ns3:atemp>20.0</ns3:atemp>
          </ns3:TrackPointExtension>
        </extensions>
      </trkpt>
      <trkpt lat="42.5244645774364471435546875" lon="19.97437105514109134674072265625">
        <ele>1380.4000244140625</ele>
        <time>2026-06-19T07:44:34.000Z</time>
        <extensions>
          <ns3:TrackPointExtension>
            <ns3:atemp>20.0</ns3:atemp>
          </ns3:TrackPointExtension>
        </extensions>
      </trkpt>
      <trkpt lat="42.52444068901240825653076171875" lon="19.9743662774562835693359375">
        <ele>1380.5999755859375</ele>
        <time>2026-06-19T07:44:35.000Z</time>
        <extensions>
          <ns3:TrackPointExtension>
            <ns3:atemp>20.0</ns3:atemp>
          </ns3:TrackPointExtension>
        </extensions>
      </trkpt>
      <trkpt lat="42.52441571094095706939697265625" lon="19.9743609130382537841796875">
        <ele>1380.800048828125</ele>
        <time>2026-06-19T07:44:36.000Z</time>
        <extensions>
          <ns3:TrackPointExtension>
            <ns3:atemp>20.0</ns3:atemp>
          </ns3:TrackPointExtension>
        </extensions>
      </trkpt>
      <trkpt lat="42.52439157105982303619384765625" lon="19.9743580631911754608154296875">
        <ele>1381.199951171875</ele>
        <time>2026-06-19T07:44:37.000Z</time>
        <extensions>
          <ns3:TrackPointExtension>
            <ns3:atemp>20.0</ns3:atemp>
          </ns3:TrackPointExtension>
        </extensions>
      </trkpt>
      <trkpt lat="42.524367012083530426025390625" lon="19.97436149977147579193115234375">
        <ele>1381.4000244140625</ele>
        <time>2026-06-19T07:44:38.000Z</time>
        <extensions>
          <ns3:TrackPointExtension>
            <ns3:atemp>20.0</ns3:atemp>
          </ns3:TrackPointExtension>
        </extensions>
      </trkpt>
      <trkpt lat="42.524342201650142669677734375" lon="19.9743617512285709381103515625">
        <ele>1381.5999755859375</ele>
        <time>2026-06-19T07:44:39.000Z</time>
        <extensions>
          <ns3:TrackPointExtension>
            <ns3:atemp>20.0</ns3:atemp>
          </ns3:TrackPointExtension>
        </extensions>
      </trkpt>
      <trkpt lat="42.5243182294070720672607421875" lon="19.9743609130382537841796875">
        <ele>1381.800048828125</ele>
        <time>2026-06-19T07:44:40.000Z</time>
        <extensions>
          <ns3:TrackPointExtension>
            <ns3:atemp>20.0</ns3:atemp>
          </ns3:TrackPointExtension>
        </extensions>
      </trkpt>
      <trkpt lat="42.52429266460239887237548828125" lon="19.97435932047665119171142578125">
        <ele>1382</ele>
        <time>2026-06-19T07:44:41.000Z</time>
        <extensions>
          <ns3:TrackPointExtension>
            <ns3:atemp>20.0</ns3:atemp>
          </ns3:TrackPointExtension>
        </extensions>
      </trkpt>
      <trkpt lat="42.52426215447485446929931640625" lon="19.97435043565928936004638671875">
        <ele>1382.199951171875</ele>
        <time>2026-06-19T07:44:42.000Z</time>
        <extensions>
          <ns3:TrackPointExtension>
            <ns3:atemp>20.0</ns3:atemp>
          </ns3:TrackPointExtension>
        </extensions>
      </trkpt>
      <trkpt lat="42.524232901632785797119140625" lon="19.97434473596513271331787109375">
        <ele>1382.199951171875</ele>
        <time>2026-06-19T07:44:43.000Z</time>
        <extensions>
          <ns3:TrackPointExtension>
            <ns3:atemp>20.0</ns3:atemp>
          </ns3:TrackPointExtension>
        </extensions>
      </trkpt>
      <trkpt lat="42.524201385676860809326171875" lon="19.97433618642389774322509765625">
        <ele>1382.4000244140625</ele>
        <time>2026-06-19T07:44:44.000Z</time>
        <extensions>
          <ns3:TrackPointExtension>
            <ns3:atemp>20.0</ns3:atemp>
          </ns3:TrackPointExtension>
        </extensions>
      </trkpt>
      <trkpt lat="42.52417732961475849151611328125" lon="19.97433501295745372772216796875">
        <ele>1382.5999755859375</ele>
        <time>2026-06-19T07:44:45.000Z</time>
        <extensions>
          <ns3:TrackPointExtension>
            <ns3:atemp>20.0</ns3:atemp>
          </ns3:TrackPointExtension>
        </extensions>
      </trkpt>
      <trkpt lat="42.5241569615900516510009765625" lon="19.974339790642261505126953125">
        <ele>1382.5999755859375</ele>
        <time>2026-06-19T07:44:46.000Z</time>
        <extensions>
          <ns3:TrackPointExtension>
            <ns3:atemp>20.0</ns3:atemp>
          </ns3:TrackPointExtension>
        </extensions>
      </trkpt>
      <trkpt lat="42.524133659899234771728515625" lon="19.974343143403530120849609375">
        <ele>1382.5999755859375</ele>
        <time>2026-06-19T07:44:47.000Z</time>
        <extensions>
          <ns3:TrackPointExtension>
            <ns3:atemp>20.0</ns3:atemp>
          </ns3:TrackPointExtension>
        </extensions>
      </trkpt>
      <trkpt lat="42.524114549160003662109375" lon="19.9743392877280712127685546875">
        <ele>1382.800048828125</ele>
        <time>2026-06-19T07:44:48.000Z</time>
        <extensions>
          <ns3:TrackPointExtension>
            <ns3:atemp>20.0</ns3:atemp>
          </ns3:TrackPointExtension>
        </extensions>
      </trkpt>
      <trkpt lat="42.52409267239272594451904296875" lon="19.97433166019618511199951171875">
        <ele>1382.800048828125</ele>
        <time>2026-06-19T07:44:49.000Z</time>
        <extensions>
          <ns3:TrackPointExtension>
            <ns3:atemp>20.0</ns3:atemp>
          </ns3:TrackPointExtension>
        </extensions>
      </trkpt>
      <trkpt lat="42.52406668849289417266845703125" lon="19.9743292294442653656005859375">
        <ele>1382.800048828125</ele>
        <time>2026-06-19T07:44:50.000Z</time>
        <extensions>
          <ns3:TrackPointExtension>
            <ns3:atemp>20.0</ns3:atemp>
          </ns3:TrackPointExtension>
        </extensions>
      </trkpt>
      <trkpt lat="42.524037100374698638916015625" lon="19.974323026835918426513671875">
        <ele>1383</ele>
        <time>2026-06-19T07:44:51.000Z</time>
        <extensions>
          <ns3:TrackPointExtension>
            <ns3:atemp>20.0</ns3:atemp>
          </ns3:TrackPointExtension>
        </extensions>
      </trkpt>
      <trkpt lat="42.52400499768555164337158203125" lon="19.9743206799030303955078125">
        <ele>1383</ele>
        <time>2026-06-19T07:44:52.000Z</time>
        <extensions>
          <ns3:TrackPointExtension>
            <ns3:atemp>20.0</ns3:atemp>
          </ns3:TrackPointExtension>
        </extensions>
      </trkpt>
      <trkpt lat="42.5239764153957366943359375" lon="19.97431506402790546417236328125">
        <ele>1383</ele>
        <time>2026-06-19T07:44:53.000Z</time>
        <extensions>
          <ns3:TrackPointExtension>
            <ns3:atemp>20.0</ns3:atemp>
          </ns3:TrackPointExtension>
        </extensions>
      </trkpt>
      <trkpt lat="42.5239487551152706146240234375" lon="19.97431137599050998687744140625">
        <ele>1383</ele>
        <time>2026-06-19T07:44:54.000Z</time>
        <extensions>
          <ns3:TrackPointExtension>
            <ns3:atemp>20.0</ns3:atemp>
          </ns3:TrackPointExtension>
        </extensions>
      </trkpt>
      <trkpt lat="42.52392319031059741973876953125" lon="19.9743091128766536712646484375">
        <ele>1383.199951171875</ele>
        <time>2026-06-19T07:44:55.000Z</time>
        <extensions>
          <ns3:TrackPointExtension>
            <ns3:atemp>20.0</ns3:atemp>
          </ns3:TrackPointExtension>
        </extensions>
      </trkpt>
      <trkpt lat="42.5238941051065921783447265625" lon="19.97430969960987567901611328125">
        <ele>1383.199951171875</ele>
        <time>2026-06-19T07:44:56.000Z</time>
        <extensions>
          <ns3:TrackPointExtension>
            <ns3:atemp>20.0</ns3:atemp>
          </ns3:TrackPointExtension>
        </extensions>
      </trkpt>
      <trkpt lat="42.52386703155934810638427734375" lon="19.97430299408733844757080078125">
        <ele>1383.199951171875</ele>
        <time>2026-06-19T07:44:57.000Z</time>
        <extensions>
          <ns3:TrackPointExtension>
            <ns3:atemp>20.0</ns3:atemp>
          </ns3:TrackPointExtension>
        </extensions>
      </trkpt>
      <trkpt lat="42.5238382816314697265625" lon="19.9742957018315792083740234375">
        <ele>1383.4000244140625</ele>
        <time>2026-06-19T07:44:58.000Z</time>
        <extensions>
          <ns3:TrackPointExtension>
            <ns3:atemp>20.0</ns3:atemp>
          </ns3:TrackPointExtension>
        </extensions>
      </trkpt>
      <trkpt lat="42.5238109566271305084228515625" lon="19.974290840327739715576171875">
        <ele>1383.4000244140625</ele>
        <time>2026-06-19T07:44:59.000Z</time>
        <extensions>
          <ns3:TrackPointExtension>
            <ns3:atemp>20.0</ns3:atemp>
          </ns3:TrackPointExtension>
        </extensions>
      </trkpt>
      <trkpt lat="42.5237784348428249359130859375" lon="19.97428824193775653839111328125">
        <ele>1383.5999755859375</ele>
        <time>2026-06-19T07:45:00.000Z</time>
        <extensions>
          <ns3:TrackPointExtension>
            <ns3:atemp>20.0</ns3:atemp>
          </ns3:TrackPointExtension>
        </extensions>
      </trkpt>
      <trkpt lat="42.523743398487567901611328125" lon="19.974288158118724822998046875">
        <ele>1383.5999755859375</ele>
        <time>2026-06-19T07:45:01.000Z</time>
        <extensions>
          <ns3:TrackPointExtension>
            <ns3:atemp>20.0</ns3:atemp>
          </ns3:TrackPointExtension>
        </extensions>
      </trkpt>
      <trkpt lat="42.523715905845165252685546875" lon="19.97428790666162967681884765625">
        <ele>1383.5999755859375</ele>
        <time>2026-06-19T07:45:02.000Z</time>
        <extensions>
          <ns3:TrackPointExtension>
            <ns3:atemp>20.0</ns3:atemp>
          </ns3:TrackPointExtension>
        </extensions>
      </trkpt>
      <trkpt lat="42.52368799410760402679443359375" lon="19.97428757138550281524658203125">
        <ele>1383.800048828125</ele>
        <time>2026-06-19T07:45:03.000Z</time>
        <extensions>
          <ns3:TrackPointExtension>
            <ns3:atemp>20.0</ns3:atemp>
          </ns3:TrackPointExtension>
        </extensions>
      </trkpt>
      <trkpt lat="42.5236540473997592926025390625" lon="19.97428019531071186065673828125">
        <ele>1383.800048828125</ele>
        <time>2026-06-19T07:45:04.000Z</time>
        <extensions>
          <ns3:TrackPointExtension>
            <ns3:atemp>20.0</ns3:atemp>
          </ns3:TrackPointExtension>
        </extensions>
      </trkpt>
      <trkpt lat="42.5236185081303119659423828125" lon="19.97427801601588726043701171875">
        <ele>1384</ele>
        <time>2026-06-19T07:45:05.000Z</time>
        <extensions>
          <ns3:TrackPointExtension>
            <ns3:atemp>20.0</ns3:atemp>
          </ns3:TrackPointExtension>
        </extensions>
      </trkpt>
      <trkpt lat="42.52358070574700832366943359375" lon="19.97427441179752349853515625">
        <ele>1384</ele>
        <time>2026-06-19T07:45:06.000Z</time>
        <extensions>
          <ns3:TrackPointExtension>
            <ns3:atemp>20.0</ns3:atemp>
          </ns3:TrackPointExtension>
        </extensions>
      </trkpt>
      <trkpt lat="42.523542903363704681396484375" lon="19.97426368296146392822265625">
        <ele>1384</ele>
        <time>2026-06-19T07:45:07.000Z</time>
        <extensions>
          <ns3:TrackPointExtension>
            <ns3:atemp>20.0</ns3:atemp>
          </ns3:TrackPointExtension>
        </extensions>
      </trkpt>
      <trkpt lat="42.52350895665585994720458984375" lon="19.9742517806589603424072265625">
        <ele>1384</ele>
        <time>2026-06-19T07:45:08.000Z</time>
        <extensions>
          <ns3:TrackPointExtension>
            <ns3:atemp>20.0</ns3:atemp>
          </ns3:TrackPointExtension>
        </extensions>
      </trkpt>
      <trkpt lat="42.5234770216047763824462890625" lon="19.97423929162323474884033203125">
        <ele>1384</ele>
        <time>2026-06-19T07:45:09.000Z</time>
        <extensions>
          <ns3:TrackPointExtension>
            <ns3:atemp>20.0</ns3:atemp>
          </ns3:TrackPointExtension>
        </extensions>
      </trkpt>
      <trkpt lat="42.5234515406191349029541015625" lon="19.9742246232926845550537109375">
        <ele>1384</ele>
        <time>2026-06-19T07:45:10.000Z</time>
        <extensions>
          <ns3:TrackPointExtension>
            <ns3:atemp>20.0</ns3:atemp>
          </ns3:TrackPointExtension>
        </extensions>
      </trkpt>
      <trkpt lat="42.52342496998608112335205078125" lon="19.97421112842857837677001953125">
        <ele>1384</ele>
        <time>2026-06-19T07:45:11.000Z</time>
        <extensions>
          <ns3:TrackPointExtension>
            <ns3:atemp>20.0</ns3:atemp>
          </ns3:TrackPointExtension>
        </extensions>
      </trkpt>
      <trkpt lat="42.52340317703783512115478515625" lon="19.97420526109635829925537109375">
        <ele>1384</ele>
        <time>2026-06-19T07:45:12.000Z</time>
        <extensions>
          <ns3:TrackPointExtension>
            <ns3:atemp>20.0</ns3:atemp>
          </ns3:TrackPointExtension>
        </extensions>
      </trkpt>
      <trkpt lat="42.52338222227990627288818359375" lon="19.974200315773487091064453125">
        <ele>1384</ele>
        <time>2026-06-19T07:45:13.000Z</time>
        <extensions>
          <ns3:TrackPointExtension>
            <ns3:atemp>20.0</ns3:atemp>
          </ns3:TrackPointExtension>
        </extensions>
      </trkpt>
      <trkpt lat="42.52336545847356319427490234375" lon="19.97420425526797771453857421875">
        <ele>1384</ele>
        <time>2026-06-19T07:45:14.000Z</time>
        <extensions>
          <ns3:TrackPointExtension>
            <ns3:atemp>20.0</ns3:atemp>
          </ns3:TrackPointExtension>
        </extensions>
      </trkpt>
      <trkpt lat="42.5233419053256511688232421875" lon="19.97420693747699260711669921875">
        <ele>1384</ele>
        <time>2026-06-19T07:45:15.000Z</time>
        <extensions>
          <ns3:TrackPointExtension>
            <ns3:atemp>20.0</ns3:atemp>
          </ns3:TrackPointExtension>
        </extensions>
      </trkpt>
      <trkpt lat="42.523320950567722320556640625" lon="19.9741999804973602294921875">
        <ele>1384</ele>
        <time>2026-06-19T07:45:16.000Z</time>
        <extensions>
          <ns3:TrackPointExtension>
            <ns3:atemp>20.0</ns3:atemp>
          </ns3:TrackPointExtension>
        </extensions>
      </trkpt>
      <trkpt lat="42.52328968606889247894287109375" lon="19.97419620864093303680419921875">
        <ele>1384</ele>
        <time>2026-06-19T07:45:17.000Z</time>
        <extensions>
          <ns3:TrackPointExtension>
            <ns3:atemp>20.0</ns3:atemp>
          </ns3:TrackPointExtension>
        </extensions>
      </trkpt>
      <trkpt lat="42.52326219342648983001708984375" lon="19.97418950311839580535888671875">
        <ele>1384.199951171875</ele>
        <time>2026-06-19T07:45:18.000Z</time>
        <extensions>
          <ns3:TrackPointExtension>
            <ns3:atemp>20.0</ns3:atemp>
          </ns3:TrackPointExtension>
        </extensions>
      </trkpt>
      <trkpt lat="42.5232312642037868499755859375" lon="19.97417625971138477325439453125">
        <ele>1384.199951171875</ele>
        <time>2026-06-19T07:45:19.000Z</time>
        <extensions>
          <ns3:TrackPointExtension>
            <ns3:atemp>20.0</ns3:atemp>
          </ns3:TrackPointExtension>
        </extensions>
      </trkpt>
      <trkpt lat="42.523204274475574493408203125" lon="19.97416854836046695709228515625">
        <ele>1384.4000244140625</ele>
        <time>2026-06-19T07:45:20.000Z</time>
        <extensions>
          <ns3:TrackPointExtension>
            <ns3:atemp>20.0</ns3:atemp>
          </ns3:TrackPointExtension>
        </extensions>
      </trkpt>
      <trkpt lat="42.5231752730906009674072265625" lon="19.9741552211344242095947265625">
        <ele>1384.4000244140625</ele>
        <time>2026-06-19T07:45:21.000Z</time>
        <extensions>
          <ns3:TrackPointExtension>
            <ns3:atemp>20.0</ns3:atemp>
          </ns3:TrackPointExtension>
        </extensions>
      </trkpt>
      <trkpt lat="42.52314317040145397186279296875" lon="19.97415379621088504791259765625">
        <ele>1384.4000244140625</ele>
        <time>2026-06-19T07:45:22.000Z</time>
        <extensions>
          <ns3:TrackPointExtension>
            <ns3:atemp>20.0</ns3:atemp>
          </ns3:TrackPointExtension>
        </extensions>
      </trkpt>
      <trkpt lat="42.52310813404619693756103515625" lon="19.9741495214402675628662109375">
        <ele>1384.4000244140625</ele>
        <time>2026-06-19T07:45:23.000Z</time>
        <extensions>
          <ns3:TrackPointExtension>
            <ns3:atemp>20.0</ns3:atemp>
          </ns3:TrackPointExtension>
        </extensions>
      </trkpt>
      <trkpt lat="42.5230767019093036651611328125" lon="19.9741382896900177001953125">
        <ele>1384.4000244140625</ele>
        <time>2026-06-19T07:45:24.000Z</time>
        <extensions>
          <ns3:TrackPointExtension>
            <ns3:atemp>20.0</ns3:atemp>
          </ns3:TrackPointExtension>
        </extensions>
      </trkpt>
      <trkpt lat="42.52304443158209323883056640625" lon="19.97413317672908306121826171875">
        <ele>1384.4000244140625</ele>
        <time>2026-06-19T07:45:25.000Z</time>
        <extensions>
          <ns3:TrackPointExtension>
            <ns3:atemp>20.0</ns3:atemp>
          </ns3:TrackPointExtension>
        </extensions>
      </trkpt>
      <trkpt lat="42.5230109877884387969970703125" lon="19.9741240404546260833740234375">
        <ele>1384.5999755859375</ele>
        <time>2026-06-19T07:45:26.000Z</time>
        <extensions>
          <ns3:TrackPointExtension>
            <ns3:atemp>20.0</ns3:atemp>
          </ns3:TrackPointExtension>
        </extensions>
      </trkpt>
      <trkpt lat="42.52298525534570217132568359375" lon="19.974113143980503082275390625">
        <ele>1384.5999755859375</ele>
        <time>2026-06-19T07:45:27.000Z</time>
        <extensions>
          <ns3:TrackPointExtension>
            <ns3:atemp>20.0</ns3:atemp>
          </ns3:TrackPointExtension>
        </extensions>
      </trkpt>
      <trkpt lat="42.52295960672199726104736328125" lon="19.97410115785896778106689453125">
        <ele>1384.5999755859375</ele>
        <time>2026-06-19T07:45:28.000Z</time>
        <extensions>
          <ns3:TrackPointExtension>
            <ns3:atemp>20.0</ns3:atemp>
          </ns3:TrackPointExtension>
        </extensions>
      </trkpt>
      <trkpt lat="42.5229338742792606353759765625" lon="19.97408808209002017974853515625">
        <ele>1384.800048828125</ele>
        <time>2026-06-19T07:45:29.000Z</time>
        <extensions>
          <ns3:TrackPointExtension>
            <ns3:atemp>20.0</ns3:atemp>
          </ns3:TrackPointExtension>
        </extensions>
      </trkpt>
      <trkpt lat="42.5229047052562236785888671875" lon="19.97407182119786739349365234375">
        <ele>1384.800048828125</ele>
        <time>2026-06-19T07:45:30.000Z</time>
        <extensions>
          <ns3:TrackPointExtension>
            <ns3:atemp>20.0</ns3:atemp>
          </ns3:TrackPointExtension>
        </extensions>
      </trkpt>
      <trkpt lat="42.52287738025188446044921875" lon="19.97405488975346088409423828125">
        <ele>1384.800048828125</ele>
        <time>2026-06-19T07:45:31.000Z</time>
        <extensions>
          <ns3:TrackPointExtension>
            <ns3:atemp>20.0</ns3:atemp>
          </ns3:TrackPointExtension>
        </extensions>
      </trkpt>
      <trkpt lat="42.52285365946590900421142578125" lon="19.97403167188167572021484375">
        <ele>1385</ele>
        <time>2026-06-19T07:45:32.000Z</time>
        <extensions>
          <ns3:TrackPointExtension>
            <ns3:atemp>20.0</ns3:atemp>
          </ns3:TrackPointExtension>
        </extensions>
      </trkpt>
      <trkpt lat="42.52282935194671154022216796875" lon="19.974007196724414825439453125">
        <ele>1385</ele>
        <time>2026-06-19T07:45:33.000Z</time>
        <extensions>
          <ns3:TrackPointExtension>
            <ns3:atemp>20.0</ns3:atemp>
          </ns3:TrackPointExtension>
        </extensions>
      </trkpt>
      <trkpt lat="42.52280638553202152252197265625" lon="19.973976351320743560791015625">
        <ele>1385</ele>
        <time>2026-06-19T07:45:34.000Z</time>
        <extensions>
          <ns3:TrackPointExtension>
            <ns3:atemp>20.0</ns3:atemp>
          </ns3:TrackPointExtension>
        </extensions>
      </trkpt>
      <trkpt lat="42.522789873182773590087890625" lon="19.97394525445997714996337890625">
        <ele>1385</ele>
        <time>2026-06-19T07:45:35.000Z</time>
        <extensions>
          <ns3:TrackPointExtension>
            <ns3:atemp>20.0</ns3:atemp>
          </ns3:TrackPointExtension>
        </extensions>
      </trkpt>
      <trkpt lat="42.52277269028127193450927734375" lon="19.9739077873528003692626953125">
        <ele>1385</ele>
        <time>2026-06-19T07:45:36.000Z</time>
        <extensions>
          <ns3:TrackPointExtension>
            <ns3:atemp>20.0</ns3:atemp>
          </ns3:TrackPointExtension>
        </extensions>
      </trkpt>
      <trkpt lat="42.52275978215038776397705078125" lon="19.973881803452968597412109375">
        <ele>1385</ele>
        <time>2026-06-19T07:45:37.000Z</time>
        <extensions>
          <ns3:TrackPointExtension>
            <ns3:atemp>20.0</ns3:atemp>
          </ns3:TrackPointExtension>
        </extensions>
      </trkpt>
      <trkpt lat="42.52275290898978710174560546875" lon="19.9738564901053905487060546875">
        <ele>1385</ele>
        <time>2026-06-19T07:45:38.000Z</time>
        <extensions>
          <ns3:TrackPointExtension>
            <ns3:atemp>20.0</ns3:atemp>
          </ns3:TrackPointExtension>
        </extensions>
      </trkpt>
      <trkpt lat="42.52274938859045505523681640625" lon="19.97383394278585910797119140625">
        <ele>1385</ele>
        <time>2026-06-19T07:45:39.000Z</time>
        <extensions>
          <ns3:TrackPointExtension>
            <ns3:atemp>20.0</ns3:atemp>
          </ns3:TrackPointExtension>
        </extensions>
      </trkpt>
      <trkpt lat="42.52274167723953723907470703125" lon="19.9738092161715030670166015625">
        <ele>1385.199951171875</ele>
        <time>2026-06-19T07:45:40.000Z</time>
        <extensions>
          <ns3:TrackPointExtension>
            <ns3:atemp>20.0</ns3:atemp>
          </ns3:TrackPointExtension>
        </extensions>
      </trkpt>
      <trkpt lat="42.52273882739245891571044921875" lon="19.97378499247133731842041015625">
        <ele>1385.199951171875</ele>
        <time>2026-06-19T07:45:41.000Z</time>
        <extensions>
          <ns3:TrackPointExtension>
            <ns3:atemp>20.0</ns3:atemp>
          </ns3:TrackPointExtension>
        </extensions>
      </trkpt>
      <trkpt lat="42.5227306969463825225830078125" lon="19.97376034967601299285888671875">
        <ele>1385.4000244140625</ele>
        <time>2026-06-19T07:45:42.000Z</time>
        <extensions>
          <ns3:TrackPointExtension>
            <ns3:atemp>20.0</ns3:atemp>
          </ns3:TrackPointExtension>
        </extensions>
      </trkpt>
      <trkpt lat="42.52271736972033977508544921875" lon="19.9737332761287689208984375">
        <ele>1385.5999755859375</ele>
        <time>2026-06-19T07:45:43.000Z</time>
        <extensions>
          <ns3:TrackPointExtension>
            <ns3:atemp>20.0</ns3:atemp>
          </ns3:TrackPointExtension>
        </extensions>
      </trkpt>
      <trkpt lat="42.5227115862071514129638671875" lon="19.9737082980573177337646484375">
        <ele>1385.5999755859375</ele>
        <time>2026-06-19T07:45:44.000Z</time>
        <extensions>
          <ns3:TrackPointExtension>
            <ns3:atemp>20.0</ns3:atemp>
          </ns3:TrackPointExtension>
        </extensions>
      </trkpt>
      <trkpt lat="42.52270429395139217376708984375" lon="19.973684661090373992919921875">
        <ele>1385.5999755859375</ele>
        <time>2026-06-19T07:45:45.000Z</time>
        <extensions>
          <ns3:TrackPointExtension>
            <ns3:atemp>20.0</ns3:atemp>
          </ns3:TrackPointExtension>
        </extensions>
      </trkpt>
      <trkpt lat="42.52269708551466464996337890625" lon="19.97366211377084255218505859375">
        <ele>1385.800048828125</ele>
        <time>2026-06-19T07:45:46.000Z</time>
        <extensions>
          <ns3:TrackPointExtension>
            <ns3:atemp>20.0</ns3:atemp>
          </ns3:TrackPointExtension>
        </extensions>
      </trkpt>
      <trkpt lat="42.52269172109663486480712890625" lon="19.97364266775548458099365234375">
        <ele>1385.800048828125</ele>
        <time>2026-06-19T07:45:47.000Z</time>
        <extensions>
          <ns3:TrackPointExtension>
            <ns3:atemp>20.0</ns3:atemp>
          </ns3:TrackPointExtension>
        </extensions>
      </trkpt>
      <trkpt lat="42.5226827524602413177490234375" lon="19.97361567802727222442626953125">
        <ele>1386</ele>
        <time>2026-06-19T07:45:48.000Z</time>
        <extensions>
          <ns3:TrackPointExtension>
            <ns3:atemp>20.0</ns3:atemp>
          </ns3:TrackPointExtension>
        </extensions>
      </trkpt>
      <trkpt lat="42.522675879299640655517578125" lon="19.97359556145966053009033203125">
        <ele>1386.199951171875</ele>
        <time>2026-06-19T07:45:49.000Z</time>
        <extensions>
          <ns3:TrackPointExtension>
            <ns3:atemp>20.0</ns3:atemp>
          </ns3:TrackPointExtension>
        </extensions>
      </trkpt>
      <trkpt lat="42.52266280353069305419921875" lon="19.97357913292944431304931640625">
        <ele>1386.199951171875</ele>
        <time>2026-06-19T07:45:50.000Z</time>
        <extensions>
          <ns3:TrackPointExtension>
            <ns3:atemp>20.0</ns3:atemp>
          </ns3:TrackPointExtension>
        </extensions>
      </trkpt>
      <trkpt lat="42.52264939248561859130859375" lon="19.9735604412853717803955078125">
        <ele>1386.4000244140625</ele>
        <time>2026-06-19T07:45:51.000Z</time>
        <extensions>
          <ns3:TrackPointExtension>
            <ns3:atemp>20.0</ns3:atemp>
          </ns3:TrackPointExtension>
        </extensions>
      </trkpt>
      <trkpt lat="42.52263103611767292022705078125" lon="19.97354258783161640167236328125">
        <ele>1386.5999755859375</ele>
        <time>2026-06-19T07:45:52.000Z</time>
        <extensions>
          <ns3:TrackPointExtension>
            <ns3:atemp>20.0</ns3:atemp>
          </ns3:TrackPointExtension>
        </extensions>
      </trkpt>
      <trkpt lat="42.5226143561303615570068359375" lon="19.97352330945432186126708984375">
        <ele>1386.800048828125</ele>
        <time>2026-06-19T07:45:53.000Z</time>
        <extensions>
          <ns3:TrackPointExtension>
            <ns3:atemp>20.0</ns3:atemp>
          </ns3:TrackPointExtension>
        </extensions>
      </trkpt>
      <trkpt lat="42.52259650267660617828369140625" lon="19.97350486926734447479248046875">
        <ele>1387</ele>
        <time>2026-06-19T07:45:54.000Z</time>
        <extensions>
          <ns3:TrackPointExtension>
            <ns3:atemp>20.0</ns3:atemp>
          </ns3:TrackPointExtension>
        </extensions>
      </trkpt>
      <trkpt lat="42.52257965505123138427734375" lon="19.97349229641258716583251953125">
        <ele>1387.199951171875</ele>
        <time>2026-06-19T07:45:55.000Z</time>
        <extensions>
          <ns3:TrackPointExtension>
            <ns3:atemp>20.0</ns3:atemp>
          </ns3:TrackPointExtension>
        </extensions>
      </trkpt>
      <trkpt lat="42.52256624400615692138671875" lon="19.97347653843462467193603515625">
        <ele>1387.4000244140625</ele>
        <time>2026-06-19T07:45:56.000Z</time>
        <extensions>
          <ns3:TrackPointExtension>
            <ns3:atemp>20.0</ns3:atemp>
          </ns3:TrackPointExtension>
        </extensions>
      </trkpt>
      <trkpt lat="42.52254880964756011962890625" lon="19.97346513904631137847900390625">
        <ele>1387.5999755859375</ele>
        <time>2026-06-19T07:45:57.000Z</time>
        <extensions>
          <ns3:TrackPointExtension>
            <ns3:atemp>20.0</ns3:atemp>
          </ns3:TrackPointExtension>
        </extensions>
      </trkpt>
      <trkpt lat="42.52253447659313678741455078125" lon="19.9734516441822052001953125">
        <ele>1387.800048828125</ele>
        <time>2026-06-19T07:45:58.000Z</time>
        <extensions>
          <ns3:TrackPointExtension>
            <ns3:atemp>20.0</ns3:atemp>
          </ns3:TrackPointExtension>
        </extensions>
      </trkpt>
      <trkpt lat="42.522522322833538055419921875" lon="19.9734384007751941680908203125">
        <ele>1388</ele>
        <time>2026-06-19T07:45:59.000Z</time>
        <extensions>
          <ns3:TrackPointExtension>
            <ns3:atemp>20.0</ns3:atemp>
          </ns3:TrackPointExtension>
        </extensions>
      </trkpt>
      <trkpt lat="42.5225074030458927154541015625" lon="19.973423816263675689697265625">
        <ele>1388.4000244140625</ele>
        <time>2026-06-19T07:46:00.000Z</time>
        <extensions>
          <ns3:TrackPointExtension>
            <ns3:atemp>20.0</ns3:atemp>
          </ns3:TrackPointExtension>
        </extensions>
      </trkpt>
      <trkpt lat="42.52249374054372310638427734375" lon="19.973413087427616119384765625">
        <ele>1388.4000244140625</ele>
        <time>2026-06-19T07:46:01.000Z</time>
        <extensions>
          <ns3:TrackPointExtension>
            <ns3:atemp>20.0</ns3:atemp>
          </ns3:TrackPointExtension>
        </extensions>
      </trkpt>
      <trkpt lat="42.5224785692989826202392578125" lon="19.97340395115315914154052734375">
        <ele>1388.5999755859375</ele>
        <time>2026-06-19T07:46:02.000Z</time>
        <extensions>
          <ns3:TrackPointExtension>
            <ns3:atemp>20.0</ns3:atemp>
          </ns3:TrackPointExtension>
        </extensions>
      </trkpt>
      <trkpt lat="42.5224634818732738494873046875" lon="19.97339590452611446380615234375">
        <ele>1388.800048828125</ele>
        <time>2026-06-19T07:46:03.000Z</time>
        <extensions>
          <ns3:TrackPointExtension>
            <ns3:atemp>20.0</ns3:atemp>
          </ns3:TrackPointExtension>
        </extensions>
      </trkpt>
      <trkpt lat="42.52244445495307445526123046875" lon="19.97338735498487949371337890625">
        <ele>1389</ele>
        <time>2026-06-19T07:46:04.000Z</time>
        <extensions>
          <ns3:TrackPointExtension>
            <ns3:atemp>20.0</ns3:atemp>
          </ns3:TrackPointExtension>
        </extensions>
      </trkpt>
      <trkpt lat="42.522426433861255645751953125" lon="19.97338484041392803192138671875">
        <ele>1389.199951171875</ele>
        <time>2026-06-19T07:46:05.000Z</time>
        <extensions>
          <ns3:TrackPointExtension>
            <ns3:atemp>20.0</ns3:atemp>
          </ns3:TrackPointExtension>
        </extensions>
      </trkpt>
      <trkpt lat="42.52241260372102260589599609375" lon="19.97337964363396167755126953125">
        <ele>1389.4000244140625</ele>
        <time>2026-06-19T07:46:06.000Z</time>
        <extensions>
          <ns3:TrackPointExtension>
            <ns3:atemp>20.0</ns3:atemp>
          </ns3:TrackPointExtension>
        </extensions>
      </trkpt>
      <trkpt lat="42.5223934091627597808837890625" lon="19.973370842635631561279296875">
        <ele>1389.5999755859375</ele>
        <time>2026-06-19T07:46:07.000Z</time>
        <extensions>
          <ns3:TrackPointExtension>
            <ns3:atemp>20.0</ns3:atemp>
          </ns3:TrackPointExtension>
        </extensions>
      </trkpt>
      <trkpt lat="42.5223805010318756103515625" lon="19.9733653105795383453369140625">
        <ele>1389.800048828125</ele>
        <time>2026-06-19T07:46:08.000Z</time>
        <extensions>
          <ns3:TrackPointExtension>
            <ns3:atemp>20.0</ns3:atemp>
          </ns3:TrackPointExtension>
        </extensions>
      </trkpt>
      <trkpt lat="42.5223622284829616546630859375" lon="19.97335818596184253692626953125">
        <ele>1390</ele>
        <time>2026-06-19T07:46:09.000Z</time>
        <extensions>
          <ns3:TrackPointExtension>
            <ns3:atemp>20.0</ns3:atemp>
          </ns3:TrackPointExtension>
        </extensions>
      </trkpt>
      <trkpt lat="42.52234638668596744537353515625" lon="19.97335533611476421356201171875">
        <ele>1390.199951171875</ele>
        <time>2026-06-19T07:46:10.000Z</time>
        <extensions>
          <ns3:TrackPointExtension>
            <ns3:atemp>20.0</ns3:atemp>
          </ns3:TrackPointExtension>
        </extensions>
      </trkpt>
      <trkpt lat="42.52233096398413181304931640625" lon="19.9733505584299564361572265625">
        <ele>1390.4000244140625</ele>
        <time>2026-06-19T07:46:11.000Z</time>
        <extensions>
          <ns3:TrackPointExtension>
            <ns3:atemp>20.0</ns3:atemp>
          </ns3:TrackPointExtension>
        </extensions>
      </trkpt>
      <trkpt lat="42.52230615355074405670166015625" lon="19.97334829531610012054443359375">
        <ele>1390.5999755859375</ele>
        <time>2026-06-19T07:46:12.000Z</time>
        <extensions>
          <ns3:TrackPointExtension>
            <ns3:atemp>20.0</ns3:atemp>
          </ns3:TrackPointExtension>
        </extensions>
      </trkpt>
      <trkpt lat="42.5222812592983245849609375" lon="19.97335365973412990570068359375">
        <ele>1390.800048828125</ele>
        <time>2026-06-19T07:46:13.000Z</time>
        <extensions>
          <ns3:TrackPointExtension>
            <ns3:atemp>20.0</ns3:atemp>
          </ns3:TrackPointExtension>
        </extensions>
      </trkpt>
      <trkpt lat="42.52225435338914394378662109375" lon="19.973352067172527313232421875">
        <ele>1391</ele>
        <time>2026-06-19T07:46:14.000Z</time>
        <extensions>
          <ns3:TrackPointExtension>
            <ns3:atemp>20.0</ns3:atemp>
          </ns3:TrackPointExtension>
        </extensions>
      </trkpt>
      <trkpt lat="42.52223038114607334136962890625" lon="19.9733498878777027130126953125">
        <ele>1391.199951171875</ele>
        <time>2026-06-19T07:46:15.000Z</time>
        <extensions>
          <ns3:TrackPointExtension>
            <ns3:atemp>20.0</ns3:atemp>
          </ns3:TrackPointExtension>
        </extensions>
      </trkpt>
      <trkpt lat="42.52221244387328624725341796875" lon="19.973350726068019866943359375">
        <ele>1391.4000244140625</ele>
        <time>2026-06-19T07:46:16.000Z</time>
        <extensions>
          <ns3:TrackPointExtension>
            <ns3:atemp>20.0</ns3:atemp>
          </ns3:TrackPointExtension>
        </extensions>
      </trkpt>
      <trkpt lat="42.522196434438228607177734375" lon="19.9733529053628444671630859375">
        <ele>1391.5999755859375</ele>
        <time>2026-06-19T07:46:17.000Z</time>
        <extensions>
          <ns3:TrackPointExtension>
            <ns3:atemp>20.0</ns3:atemp>
          </ns3:TrackPointExtension>
        </extensions>
      </trkpt>
      <trkpt lat="42.52218025736510753631591796875" lon="19.97335449792444705963134765625">
        <ele>1391.800048828125</ele>
        <time>2026-06-19T07:46:18.000Z</time>
        <extensions>
          <ns3:TrackPointExtension>
            <ns3:atemp>20.0</ns3:atemp>
          </ns3:TrackPointExtension>
        </extensions>
      </trkpt>
      <trkpt lat="42.5221644155681133270263671875" lon="19.97335751540958881378173828125">
        <ele>1392</ele>
        <time>2026-06-19T07:46:19.000Z</time>
        <extensions>
          <ns3:TrackPointExtension>
            <ns3:atemp>20.0</ns3:atemp>
          </ns3:TrackPointExtension>
        </extensions>
      </trkpt>
      <trkpt lat="42.522146813571453094482421875" lon="19.9733606167137622833251953125">
        <ele>1392.199951171875</ele>
        <time>2026-06-19T07:46:20.000Z</time>
        <extensions>
          <ns3:TrackPointExtension>
            <ns3:atemp>20.0</ns3:atemp>
          </ns3:TrackPointExtension>
        </extensions>
      </trkpt>
      <trkpt lat="42.5221302174031734466552734375" lon="19.9733636341989040374755859375">
        <ele>1392.4000244140625</ele>
        <time>2026-06-19T07:46:21.000Z</time>
        <extensions>
          <ns3:TrackPointExtension>
            <ns3:atemp>20.0</ns3:atemp>
          </ns3:TrackPointExtension>
        </extensions>
      </trkpt>
      <trkpt lat="42.522114627063274383544921875" lon="19.97336489148437976837158203125">
        <ele>1392.5999755859375</ele>
        <time>2026-06-19T07:46:22.000Z</time>
        <extensions>
          <ns3:TrackPointExtension>
            <ns3:atemp>20.0</ns3:atemp>
          </ns3:TrackPointExtension>
        </extensions>
      </trkpt>
      <trkpt lat="42.52209459431469440460205078125" lon="19.973368160426616668701171875">
        <ele>1392.800048828125</ele>
        <time>2026-06-19T07:46:23.000Z</time>
        <extensions>
          <ns3:TrackPointExtension>
            <ns3:atemp>20.0</ns3:atemp>
          </ns3:TrackPointExtension>
        </extensions>
      </trkpt>
      <trkpt lat="42.52207162790000438690185546875" lon="19.9733684957027435302734375">
        <ele>1393</ele>
        <time>2026-06-19T07:46:24.000Z</time>
        <extensions>
          <ns3:TrackPointExtension>
            <ns3:atemp>20.0</ns3:atemp>
          </ns3:TrackPointExtension>
        </extensions>
      </trkpt>
      <trkpt lat="42.52205268479883670806884765625" lon="19.973371513187885284423828125">
        <ele>1393.199951171875</ele>
        <time>2026-06-19T07:46:25.000Z</time>
        <extensions>
          <ns3:TrackPointExtension>
            <ns3:atemp>20.0</ns3:atemp>
          </ns3:TrackPointExtension>
        </extensions>
      </trkpt>
      <trkpt lat="42.52203122712671756744384765625" lon="19.97337427921593189239501953125">
        <ele>1393.4000244140625</ele>
        <time>2026-06-19T07:46:26.000Z</time>
        <extensions>
          <ns3:TrackPointExtension>
            <ns3:atemp>20.0</ns3:atemp>
          </ns3:TrackPointExtension>
        </extensions>
      </trkpt>
      <trkpt lat="42.5220088474452495574951171875" lon="19.9733787216246128082275390625">
        <ele>1393.5999755859375</ele>
        <time>2026-06-19T07:46:27.000Z</time>
        <extensions>
          <ns3:TrackPointExtension>
            <ns3:atemp>20.0</ns3:atemp>
          </ns3:TrackPointExtension>
        </extensions>
      </trkpt>
      <trkpt lat="42.5219821929931640625" lon="19.97338869608938694000244140625">
        <ele>1393.800048828125</ele>
        <time>2026-06-19T07:46:28.000Z</time>
        <extensions>
          <ns3:TrackPointExtension>
            <ns3:atemp>20.0</ns3:atemp>
          </ns3:TrackPointExtension>
        </extensions>
      </trkpt>
      <trkpt lat="42.52196283079683780670166015625" lon="19.9733954854309558868408203125">
        <ele>1394</ele>
        <time>2026-06-19T07:46:29.000Z</time>
        <extensions>
          <ns3:TrackPointExtension>
            <ns3:atemp>20.0</ns3:atemp>
          </ns3:TrackPointExtension>
        </extensions>
      </trkpt>
      <trkpt lat="42.5219458155333995819091796875" lon="19.9734006822109222412109375">
        <ele>1394.199951171875</ele>
        <time>2026-06-19T07:46:30.000Z</time>
        <extensions>
          <ns3:TrackPointExtension>
            <ns3:atemp>20.0</ns3:atemp>
          </ns3:TrackPointExtension>
        </extensions>
      </trkpt>
      <trkpt lat="42.52193324267864227294921875" lon="19.9734045378863811492919921875">
        <ele>1394.4000244140625</ele>
        <time>2026-06-19T07:46:31.000Z</time>
        <extensions>
          <ns3:TrackPointExtension>
            <ns3:atemp>20.0</ns3:atemp>
          </ns3:TrackPointExtension>
        </extensions>
      </trkpt>
      <trkpt lat="42.5219139643013477325439453125" lon="19.97341350652277469635009765625">
        <ele>1394.5999755859375</ele>
        <time>2026-06-19T07:46:32.000Z</time>
        <extensions>
          <ns3:TrackPointExtension>
            <ns3:atemp>20.0</ns3:atemp>
          </ns3:TrackPointExtension>
        </extensions>
      </trkpt>
      <trkpt lat="42.521898709237575531005859375" lon="19.9734223075211048126220703125">
        <ele>1394.800048828125</ele>
        <time>2026-06-19T07:46:33.000Z</time>
        <extensions>
          <ns3:TrackPointExtension>
            <ns3:atemp>20.0</ns3:atemp>
          </ns3:TrackPointExtension>
        </extensions>
      </trkpt>
      <trkpt lat="42.5218831188976764678955078125" lon="19.9734293483197689056396484375">
        <ele>1395</ele>
        <time>2026-06-19T07:46:34.000Z</time>
        <extensions>
          <ns3:TrackPointExtension>
            <ns3:atemp>20.0</ns3:atemp>
          </ns3:TrackPointExtension>
        </extensions>
      </trkpt>
      <trkpt lat="42.5218687020242214202880859375" lon="19.973436556756496429443359375">
        <ele>1395.199951171875</ele>
        <time>2026-06-19T07:46:35.000Z</time>
        <extensions>
          <ns3:TrackPointExtension>
            <ns3:atemp>20.0</ns3:atemp>
          </ns3:TrackPointExtension>
        </extensions>
      </trkpt>
      <trkpt lat="42.52185344696044921875" lon="19.97344468720257282257080078125">
        <ele>1395.5999755859375</ele>
        <time>2026-06-19T07:46:36.000Z</time>
        <extensions>
          <ns3:TrackPointExtension>
            <ns3:atemp>20.0</ns3:atemp>
          </ns3:TrackPointExtension>
        </extensions>
      </trkpt>
      <trkpt lat="42.52183542586863040924072265625" lon="19.97345742769539356231689453125">
        <ele>1395.800048828125</ele>
        <time>2026-06-19T07:46:37.000Z</time>
        <extensions>
          <ns3:TrackPointExtension>
            <ns3:atemp>20.0</ns3:atemp>
          </ns3:TrackPointExtension>
        </extensions>
      </trkpt>
      <trkpt lat="42.52181581221520900726318359375" lon="19.9734712578356266021728515625">
        <ele>1396</ele>
        <time>2026-06-19T07:46:38.000Z</time>
        <extensions>
          <ns3:TrackPointExtension>
            <ns3:atemp>20.0</ns3:atemp>
          </ns3:TrackPointExtension>
        </extensions>
      </trkpt>
      <trkpt lat="42.521796785295009613037109375" lon="19.97347905300557613372802734375">
        <ele>1396.199951171875</ele>
        <time>2026-06-19T07:46:39.000Z</time>
        <extensions>
          <ns3:TrackPointExtension>
            <ns3:atemp>20.0</ns3:atemp>
          </ns3:TrackPointExtension>
        </extensions>
      </trkpt>
      <trkpt lat="42.52178111113607883453369140625" lon="19.97348626144230365753173828125">
        <ele>1396.4000244140625</ele>
        <time>2026-06-19T07:46:40.000Z</time>
        <extensions>
          <ns3:TrackPointExtension>
            <ns3:atemp>20.0</ns3:atemp>
          </ns3:TrackPointExtension>
        </extensions>
      </trkpt>
      <trkpt lat="42.52176485024392604827880859375" lon="19.97349346987903118133544921875">
        <ele>1396.5999755859375</ele>
        <time>2026-06-19T07:46:41.000Z</time>
        <extensions>
          <ns3:TrackPointExtension>
            <ns3:atemp>20.0</ns3:atemp>
          </ns3:TrackPointExtension>
        </extensions>
      </trkpt>
      <trkpt lat="42.52175076864659786224365234375" lon="19.97350134886801242828369140625">
        <ele>1396.800048828125</ele>
        <time>2026-06-19T07:46:42.000Z</time>
        <extensions>
          <ns3:TrackPointExtension>
            <ns3:atemp>20.0</ns3:atemp>
          </ns3:TrackPointExtension>
        </extensions>
      </trkpt>
      <trkpt lat="42.5217359326779842376708984375" lon="19.97351191006600856781005859375">
        <ele>1397</ele>
        <time>2026-06-19T07:46:43.000Z</time>
        <extensions>
          <ns3:TrackPointExtension>
            <ns3:atemp>20.0</ns3:atemp>
          </ns3:TrackPointExtension>
        </extensions>
      </trkpt>
      <trkpt lat="42.52171791158616542816162109375" lon="19.97351207770407199859619140625">
        <ele>1397.199951171875</ele>
        <time>2026-06-19T07:46:44.000Z</time>
        <extensions>
          <ns3:TrackPointExtension>
            <ns3:atemp>20.0</ns3:atemp>
          </ns3:TrackPointExtension>
        </extensions>
      </trkpt>
      <trkpt lat="42.52169393934309482574462890625" lon="19.97351811267435550689697265625">
        <ele>1397.4000244140625</ele>
        <time>2026-06-19T07:46:45.000Z</time>
        <extensions>
          <ns3:TrackPointExtension>
            <ns3:atemp>20.0</ns3:atemp>
          </ns3:TrackPointExtension>
        </extensions>
      </trkpt>
      <trkpt lat="42.52167667262256145477294921875" lon="19.97353001497685909271240234375">
        <ele>1397.5999755859375</ele>
        <time>2026-06-19T07:46:46.000Z</time>
        <extensions>
          <ns3:TrackPointExtension>
            <ns3:atemp>20.0</ns3:atemp>
          </ns3:TrackPointExtension>
        </extensions>
      </trkpt>
      <trkpt lat="42.5216527841985225677490234375" lon="19.973553232848644256591796875">
        <ele>1397.800048828125</ele>
        <time>2026-06-19T07:46:47.000Z</time>
        <extensions>
          <ns3:TrackPointExtension>
            <ns3:atemp>20.0</ns3:atemp>
          </ns3:TrackPointExtension>
        </extensions>
      </trkpt>
      <trkpt lat="42.52163417637348175048828125" lon="19.97357125394046306610107421875">
        <ele>1398</ele>
        <time>2026-06-19T07:46:48.000Z</time>
        <extensions>
          <ns3:TrackPointExtension>
            <ns3:atemp>20.0</ns3:atemp>
          </ns3:TrackPointExtension>
        </extensions>
      </trkpt>
      <trkpt lat="42.52161598764359951019287109375" lon="19.9735852517187595367431640625">
        <ele>1398.199951171875</ele>
        <time>2026-06-19T07:46:49.000Z</time>
        <extensions>
          <ns3:TrackPointExtension>
            <ns3:atemp>20.0</ns3:atemp>
          </ns3:TrackPointExtension>
        </extensions>
      </trkpt>
      <trkpt lat="42.52160157077014446258544921875" lon="19.973597824573516845703125">
        <ele>1398.4000244140625</ele>
        <time>2026-06-19T07:46:50.000Z</time>
        <extensions>
          <ns3:TrackPointExtension>
            <ns3:atemp>20.0</ns3:atemp>
          </ns3:TrackPointExtension>
        </extensions>
      </trkpt>
      <trkpt lat="42.52158765681087970733642578125" lon="19.9736179411411285400390625">
        <ele>1398.5999755859375</ele>
        <time>2026-06-19T07:46:51.000Z</time>
        <extensions>
          <ns3:TrackPointExtension>
            <ns3:atemp>20.0</ns3:atemp>
          </ns3:TrackPointExtension>
        </extensions>
      </trkpt>
      <trkpt lat="42.5215736590325832366943359375" lon="19.97363395057618618011474609375">
        <ele>1398.800048828125</ele>
        <time>2026-06-19T07:46:52.000Z</time>
        <extensions>
          <ns3:TrackPointExtension>
            <ns3:atemp>20.0</ns3:atemp>
          </ns3:TrackPointExtension>
        </extensions>
      </trkpt>
      <trkpt lat="42.5215585716068744659423828125" lon="19.97365540824830532073974609375">
        <ele>1398.800048828125</ele>
        <time>2026-06-19T07:46:53.000Z</time>
        <extensions>
          <ns3:TrackPointExtension>
            <ns3:atemp>20.0</ns3:atemp>
          </ns3:TrackPointExtension>
        </extensions>
      </trkpt>
      <trkpt lat="42.52154432237148284912109375" lon="19.97367049567401409149169921875">
        <ele>1399</ele>
        <time>2026-06-19T07:46:54.000Z</time>
        <extensions>
          <ns3:TrackPointExtension>
            <ns3:atemp>20.0</ns3:atemp>
          </ns3:TrackPointExtension>
        </extensions>
      </trkpt>
      <trkpt lat="42.52152881585061550140380859375" lon="19.97368424199521541595458984375">
        <ele>1399.199951171875</ele>
        <time>2026-06-19T07:46:55.000Z</time>
        <extensions>
          <ns3:TrackPointExtension>
            <ns3:atemp>20.0</ns3:atemp>
          </ns3:TrackPointExtension>
        </extensions>
      </trkpt>
      <trkpt lat="42.52151054330170154571533203125" lon="19.9737002514302730560302734375">
        <ele>1399.4000244140625</ele>
        <time>2026-06-19T07:46:56.000Z</time>
        <extensions>
          <ns3:TrackPointExtension>
            <ns3:atemp>20.0</ns3:atemp>
          </ns3:TrackPointExtension>
        </extensions>
      </trkpt>
      <trkpt lat="42.5214908458292484283447265625" lon="19.9737136624753475189208984375">
        <ele>1399.5999755859375</ele>
        <time>2026-06-19T07:46:57.000Z</time>
        <extensions>
          <ns3:TrackPointExtension>
            <ns3:atemp>20.0</ns3:atemp>
          </ns3:TrackPointExtension>
        </extensions>
      </trkpt>
      <trkpt lat="42.52147458493709564208984375" lon="19.9737267382442951202392578125">
        <ele>1399.800048828125</ele>
        <time>2026-06-19T07:46:58.000Z</time>
        <extensions>
          <ns3:TrackPointExtension>
            <ns3:atemp>20.0</ns3:atemp>
          </ns3:TrackPointExtension>
        </extensions>
      </trkpt>
      <trkpt lat="42.52146176062524318695068359375" lon="19.97374157421290874481201171875">
        <ele>1400</ele>
        <time>2026-06-19T07:46:59.000Z</time>
        <extensions>
          <ns3:TrackPointExtension>
            <ns3:atemp>20.0</ns3:atemp>
          </ns3:TrackPointExtension>
        </extensions>
      </trkpt>
      <trkpt lat="42.5214502774178981781005859375" lon="19.97375917620956897735595703125">
        <ele>1400.199951171875</ele>
        <time>2026-06-19T07:47:00.000Z</time>
        <extensions>
          <ns3:TrackPointExtension>
            <ns3:atemp>20.0</ns3:atemp>
          </ns3:TrackPointExtension>
        </extensions>
      </trkpt>
      <trkpt lat="42.52143544144928455352783203125" lon="19.97377409599721431732177734375">
        <ele>1400.4000244140625</ele>
        <time>2026-06-19T07:47:01.000Z</time>
        <extensions>
          <ns3:TrackPointExtension>
            <ns3:atemp>19.0</ns3:atemp>
          </ns3:TrackPointExtension>
        </extensions>
      </trkpt>
      <trkpt lat="42.52142387442290782928466796875" lon="19.973783902823925018310546875">
        <ele>1400.5999755859375</ele>
        <time>2026-06-19T07:47:02.000Z</time>
        <extensions>
          <ns3:TrackPointExtension>
            <ns3:atemp>19.0</ns3:atemp>
          </ns3:TrackPointExtension>
        </extensions>
      </trkpt>
      <trkpt lat="42.5214095413684844970703125" lon="19.97379697859287261962890625">
        <ele>1400.800048828125</ele>
        <time>2026-06-19T07:47:03.000Z</time>
        <extensions>
          <ns3:TrackPointExtension>
            <ns3:atemp>19.0</ns3:atemp>
          </ns3:TrackPointExtension>
        </extensions>
      </trkpt>
      <trkpt lat="42.5213952921330928802490234375" lon="19.9738102219998836517333984375">
        <ele>1401</ele>
        <time>2026-06-19T07:47:04.000Z</time>
        <extensions>
          <ns3:TrackPointExtension>
            <ns3:atemp>19.0</ns3:atemp>
          </ns3:TrackPointExtension>
        </extensions>
      </trkpt>
      <trkpt lat="42.5213795341551303863525390625" lon="19.9738232977688312530517578125">
        <ele>1401.199951171875</ele>
        <time>2026-06-19T07:47:05.000Z</time>
        <extensions>
          <ns3:TrackPointExtension>
            <ns3:atemp>19.0</ns3:atemp>
          </ns3:TrackPointExtension>
        </extensions>
      </trkpt>
      <trkpt lat="42.52136235125362873077392578125" lon="19.9738380499184131622314453125">
        <ele>1401.4000244140625</ele>
        <time>2026-06-19T07:47:06.000Z</time>
        <extensions>
          <ns3:TrackPointExtension>
            <ns3:atemp>19.0</ns3:atemp>
          </ns3:TrackPointExtension>
        </extensions>
      </trkpt>
      <trkpt lat="42.5213439948856830596923828125" lon="19.9738564901053905487060546875">
        <ele>1401.5999755859375</ele>
        <time>2026-06-19T07:47:07.000Z</time>
        <extensions>
          <ns3:TrackPointExtension>
            <ns3:atemp>19.0</ns3:atemp>
          </ns3:TrackPointExtension>
        </extensions>
      </trkpt>
      <trkpt lat="42.52132664434611797332763671875" lon="19.9738742597401142120361328125">
        <ele>1401.800048828125</ele>
        <time>2026-06-19T07:47:08.000Z</time>
        <extensions>
          <ns3:TrackPointExtension>
            <ns3:atemp>19.0</ns3:atemp>
          </ns3:TrackPointExtension>
        </extensions>
      </trkpt>
      <trkpt lat="42.52130887471139430999755859375" lon="19.97389060445129871368408203125">
        <ele>1402</ele>
        <time>2026-06-19T07:47:09.000Z</time>
        <extensions>
          <ns3:TrackPointExtension>
            <ns3:atemp>19.0</ns3:atemp>
          </ns3:TrackPointExtension>
        </extensions>
      </trkpt>
      <trkpt lat="42.52129227854311466217041015625" lon="19.97390870936214923858642578125">
        <ele>1402.199951171875</ele>
        <time>2026-06-19T07:47:10.000Z</time>
        <extensions>
          <ns3:TrackPointExtension>
            <ns3:atemp>19.0</ns3:atemp>
          </ns3:TrackPointExtension>
        </extensions>
      </trkpt>
      <trkpt lat="42.521276772022247314453125" lon="19.97392036020755767822265625">
        <ele>1402.4000244140625</ele>
        <time>2026-06-19T07:47:11.000Z</time>
        <extensions>
          <ns3:TrackPointExtension>
            <ns3:atemp>19.0</ns3:atemp>
          </ns3:TrackPointExtension>
        </extensions>
      </trkpt>
      <trkpt lat="42.521261684596538543701171875" lon="19.9739376269280910491943359375">
        <ele>1402.800048828125</ele>
        <time>2026-06-19T07:47:12.000Z</time>
        <extensions>
          <ns3:TrackPointExtension>
            <ns3:atemp>19.0</ns3:atemp>
          </ns3:TrackPointExtension>
        </extensions>
      </trkpt>
      <trkpt lat="42.52124651335179805755615234375" lon="19.9739473499357700347900390625">
        <ele>1403</ele>
        <time>2026-06-19T07:47:13.000Z</time>
        <extensions>
          <ns3:TrackPointExtension>
            <ns3:atemp>19.0</ns3:atemp>
          </ns3:TrackPointExtension>
        </extensions>
      </trkpt>
      <trkpt lat="42.521232850849628448486328125" lon="19.9739557318389415740966796875">
        <ele>1403.199951171875</ele>
        <time>2026-06-19T07:47:14.000Z</time>
        <extensions>
          <ns3:TrackPointExtension>
            <ns3:atemp>19.0</ns3:atemp>
          </ns3:TrackPointExtension>
        </extensions>
      </trkpt>
      <trkpt lat="42.521216757595539093017578125" lon="19.9739667959511280059814453125">
        <ele>1403.4000244140625</ele>
        <time>2026-06-19T07:47:15.000Z</time>
        <extensions>
          <ns3:TrackPointExtension>
            <ns3:atemp>19.0</ns3:atemp>
          </ns3:TrackPointExtension>
        </extensions>
      </trkpt>
      <trkpt lat="42.52119806595146656036376953125" lon="19.9739771895110607147216796875">
        <ele>1403.800048828125</ele>
        <time>2026-06-19T07:47:16.000Z</time>
        <extensions>
          <ns3:TrackPointExtension>
            <ns3:atemp>19.0</ns3:atemp>
          </ns3:TrackPointExtension>
        </extensions>
      </trkpt>
      <trkpt lat="42.521179206669330596923828125" lon="19.9739929474890232086181640625">
        <ele>1404</ele>
        <time>2026-06-19T07:47:17.000Z</time>
        <extensions>
          <ns3:TrackPointExtension>
            <ns3:atemp>19.0</ns3:atemp>
          </ns3:TrackPointExtension>
        </extensions>
      </trkpt>
      <trkpt lat="42.52116185612976551055908203125" lon="19.97400577180087566375732421875">
        <ele>1404.199951171875</ele>
        <time>2026-06-19T07:47:18.000Z</time>
        <extensions>
          <ns3:TrackPointExtension>
            <ns3:atemp>19.0</ns3:atemp>
          </ns3:TrackPointExtension>
        </extensions>
      </trkpt>
      <trkpt lat="42.52114475704729557037353515625" lon="19.97402002103626728057861328125">
        <ele>1404.4000244140625</ele>
        <time>2026-06-19T07:47:19.000Z</time>
        <extensions>
          <ns3:TrackPointExtension>
            <ns3:atemp>19.0</ns3:atemp>
          </ns3:TrackPointExtension>
        </extensions>
      </trkpt>
      <trkpt lat="42.52112514339387416839599609375" lon="19.9740417301654815673828125">
        <ele>1404.5999755859375</ele>
        <time>2026-06-19T07:47:20.000Z</time>
        <extensions>
          <ns3:TrackPointExtension>
            <ns3:atemp>19.0</ns3:atemp>
          </ns3:TrackPointExtension>
        </extensions>
      </trkpt>
      <trkpt lat="42.52110569737851619720458984375" lon="19.97405975125730037689208984375">
        <ele>1404.5999755859375</ele>
        <time>2026-06-19T07:47:21.000Z</time>
        <extensions>
          <ns3:TrackPointExtension>
            <ns3:atemp>19.0</ns3:atemp>
          </ns3:TrackPointExtension>
        </extensions>
      </trkpt>
      <trkpt lat="42.52108692191541194915771484375" lon="19.9740764312446117401123046875">
        <ele>1404.800048828125</ele>
        <time>2026-06-19T07:47:22.000Z</time>
        <extensions>
          <ns3:TrackPointExtension>
            <ns3:atemp>19.0</ns3:atemp>
          </ns3:TrackPointExtension>
        </extensions>
      </trkpt>
      <trkpt lat="42.5210724212229251861572265625" lon="19.97409093193709850311279296875">
        <ele>1405</ele>
        <time>2026-06-19T07:47:23.000Z</time>
        <extensions>
          <ns3:TrackPointExtension>
            <ns3:atemp>19.0</ns3:atemp>
          </ns3:TrackPointExtension>
        </extensions>
      </trkpt>
      <trkpt lat="42.5210556574165821075439453125" lon="19.9741079472005367279052734375">
        <ele>1405</ele>
        <time>2026-06-19T07:47:24.000Z</time>
        <extensions>
          <ns3:TrackPointExtension>
            <ns3:atemp>19.0</ns3:atemp>
          </ns3:TrackPointExtension>
        </extensions>
      </trkpt>
      <trkpt lat="42.5210429169237613677978515625" lon="19.974124543368816375732421875">
        <ele>1405.199951171875</ele>
        <time>2026-06-19T07:47:25.000Z</time>
        <extensions>
          <ns3:TrackPointExtension>
            <ns3:atemp>19.0</ns3:atemp>
          </ns3:TrackPointExtension>
        </extensions>
      </trkpt>
      <trkpt lat="42.521030344069004058837890625" lon="19.97414030134677886962890625">
        <ele>1405.5999755859375</ele>
        <time>2026-06-19T07:47:26.000Z</time>
        <extensions>
          <ns3:TrackPointExtension>
            <ns3:atemp>19.0</ns3:atemp>
          </ns3:TrackPointExtension>
        </extensions>
      </trkpt>
      <trkpt lat="42.52101768739521503448486328125" lon="19.97415463440120220184326171875">
        <ele>1405.800048828125</ele>
        <time>2026-06-19T07:47:27.000Z</time>
        <extensions>
          <ns3:TrackPointExtension>
            <ns3:atemp>19.0</ns3:atemp>
          </ns3:TrackPointExtension>
        </extensions>
      </trkpt>
      <trkpt lat="42.5210072100162506103515625" lon="19.974163435399532318115234375">
        <ele>1406</ele>
        <time>2026-06-19T07:47:28.000Z</time>
        <extensions>
          <ns3:TrackPointExtension>
            <ns3:atemp>19.0</ns3:atemp>
          </ns3:TrackPointExtension>
        </extensions>
      </trkpt>
      <trkpt lat="42.520994134247303009033203125" lon="19.974171482026576995849609375">
        <ele>1406.199951171875</ele>
        <time>2026-06-19T07:47:29.000Z</time>
        <extensions>
          <ns3:TrackPointExtension>
            <ns3:atemp>19.0</ns3:atemp>
          </ns3:TrackPointExtension>
        </extensions>
      </trkpt>
      <trkpt lat="42.52097929827868938446044921875" lon="19.97418724000453948974609375">
        <ele>1406.5999755859375</ele>
        <time>2026-06-19T07:47:30.000Z</time>
        <extensions>
          <ns3:TrackPointExtension>
            <ns3:atemp>19.0</ns3:atemp>
          </ns3:TrackPointExtension>
        </extensions>
      </trkpt>
      <trkpt lat="42.5209607742726802825927734375" lon="19.97420341707766056060791015625">
        <ele>1406.800048828125</ele>
        <time>2026-06-19T07:47:31.000Z</time>
        <extensions>
          <ns3:TrackPointExtension>
            <ns3:atemp>19.0</ns3:atemp>
          </ns3:TrackPointExtension>
        </extensions>
      </trkpt>
      <trkpt lat="42.52094292081892490386962890625" lon="19.97421951033174991607666015625">
        <ele>1407</ele>
        <time>2026-06-19T07:47:32.000Z</time>
        <extensions>
          <ns3:TrackPointExtension>
            <ns3:atemp>19.0</ns3:atemp>
          </ns3:TrackPointExtension>
        </extensions>
      </trkpt>
      <trkpt lat="42.52092649228870868682861328125" lon="19.97423551976680755615234375">
        <ele>1407</ele>
        <time>2026-06-19T07:47:33.000Z</time>
        <extensions>
          <ns3:TrackPointExtension>
            <ns3:atemp>19.0</ns3:atemp>
          </ns3:TrackPointExtension>
        </extensions>
      </trkpt>
      <trkpt lat="42.5209074653685092926025390625" lon="19.974253959953784942626953125">
        <ele>1407.199951171875</ele>
        <time>2026-06-19T07:47:34.000Z</time>
        <extensions>
          <ns3:TrackPointExtension>
            <ns3:atemp>19.0</ns3:atemp>
          </ns3:TrackPointExtension>
        </extensions>
      </trkpt>
      <trkpt lat="42.5208891928195953369140625" lon="19.9742697179317474365234375">
        <ele>1407.199951171875</ele>
        <time>2026-06-19T07:47:35.000Z</time>
        <extensions>
          <ns3:TrackPointExtension>
            <ns3:atemp>19.0</ns3:atemp>
          </ns3:TrackPointExtension>
        </extensions>
      </trkpt>
      <trkpt lat="42.52087167464196681976318359375" lon="19.974288828670978546142578125">
        <ele>1407.4000244140625</ele>
        <time>2026-06-19T07:47:36.000Z</time>
        <extensions>
          <ns3:TrackPointExtension>
            <ns3:atemp>19.0</ns3:atemp>
          </ns3:TrackPointExtension>
        </extensions>
      </trkpt>
      <trkpt lat="42.520856671035289764404296875" lon="19.974306933581829071044921875">
        <ele>1407.5999755859375</ele>
        <time>2026-06-19T07:47:37.000Z</time>
        <extensions>
          <ns3:TrackPointExtension>
            <ns3:atemp>19.0</ns3:atemp>
          </ns3:TrackPointExtension>
        </extensions>
      </trkpt>
      <trkpt lat="42.520840577781200408935546875" lon="19.9743252061307430267333984375">
        <ele>1407.800048828125</ele>
        <time>2026-06-19T07:47:38.000Z</time>
        <extensions>
          <ns3:TrackPointExtension>
            <ns3:atemp>19.0</ns3:atemp>
          </ns3:TrackPointExtension>
        </extensions>
      </trkpt>
      <trkpt lat="42.52082691527903079986572265625" lon="19.9743409641087055206298828125">
        <ele>1408.199951171875</ele>
        <time>2026-06-19T07:47:39.000Z</time>
        <extensions>
          <ns3:TrackPointExtension>
            <ns3:atemp>19.0</ns3:atemp>
          </ns3:TrackPointExtension>
        </extensions>
      </trkpt>
      <trkpt lat="42.5208114087581634521484375" lon="19.97435563243925571441650390625">
        <ele>1408.4000244140625</ele>
        <time>2026-06-19T07:47:40.000Z</time>
        <extensions>
          <ns3:TrackPointExtension>
            <ns3:atemp>19.0</ns3:atemp>
          </ns3:TrackPointExtension>
        </extensions>
      </trkpt>
      <trkpt lat="42.52079808153212070465087890625" lon="19.9743684567511081695556640625">
        <ele>1408.5999755859375</ele>
        <time>2026-06-19T07:47:41.000Z</time>
        <extensions>
          <ns3:TrackPointExtension>
            <ns3:atemp>19.0</ns3:atemp>
          </ns3:TrackPointExtension>
        </extensions>
      </trkpt>
      <trkpt lat="42.52077855169773101806640625" lon="19.97438706457614898681640625">
        <ele>1408.800048828125</ele>
        <time>2026-06-19T07:47:42.000Z</time>
        <extensions>
          <ns3:TrackPointExtension>
            <ns3:atemp>19.0</ns3:atemp>
          </ns3:TrackPointExtension>
        </extensions>
      </trkpt>
      <trkpt lat="42.52076053060591220855712890625" lon="19.97440625913441181182861328125">
        <ele>1409</ele>
        <time>2026-06-19T07:47:43.000Z</time>
        <extensions>
          <ns3:TrackPointExtension>
            <ns3:atemp>19.0</ns3:atemp>
          </ns3:TrackPointExtension>
        </extensions>
      </trkpt>
      <trkpt lat="42.52073957584798336029052734375" lon="19.97442302294075489044189453125">
        <ele>1409.199951171875</ele>
        <time>2026-06-19T07:47:44.000Z</time>
        <extensions>
          <ns3:TrackPointExtension>
            <ns3:atemp>19.0</ns3:atemp>
          </ns3:TrackPointExtension>
        </extensions>
      </trkpt>
      <trkpt lat="42.52071954309940338134765625" lon="19.97443668544292449951171875">
        <ele>1409.4000244140625</ele>
        <time>2026-06-19T07:47:45.000Z</time>
        <extensions>
          <ns3:TrackPointExtension>
            <ns3:atemp>19.0</ns3:atemp>
          </ns3:TrackPointExtension>
        </extensions>
      </trkpt>
      <trkpt lat="42.52069850452244281768798828125" lon="19.97444531880319118499755859375">
        <ele>1409.5999755859375</ele>
        <time>2026-06-19T07:47:46.000Z</time>
        <extensions>
          <ns3:TrackPointExtension>
            <ns3:atemp>19.0</ns3:atemp>
          </ns3:TrackPointExtension>
        </extensions>
      </trkpt>
      <trkpt lat="42.5206818245351314544677734375" lon="19.9744536168873310089111328125">
        <ele>1409.800048828125</ele>
        <time>2026-06-19T07:47:47.000Z</time>
        <extensions>
          <ns3:TrackPointExtension>
            <ns3:atemp>19.0</ns3:atemp>
          </ns3:TrackPointExtension>
        </extensions>
      </trkpt>
      <trkpt lat="42.520665563642978668212890625" lon="19.9744603224098682403564453125">
        <ele>1410</ele>
        <time>2026-06-19T07:47:48.000Z</time>
        <extensions>
          <ns3:TrackPointExtension>
            <ns3:atemp>19.0</ns3:atemp>
          </ns3:TrackPointExtension>
        </extensions>
      </trkpt>
      <trkpt lat="42.52065022476017475128173828125" lon="19.9744687043130397796630859375">
        <ele>1410.199951171875</ele>
        <time>2026-06-19T07:47:49.000Z</time>
        <extensions>
          <ns3:TrackPointExtension>
            <ns3:atemp>19.0</ns3:atemp>
          </ns3:TrackPointExtension>
        </extensions>
      </trkpt>
      <trkpt lat="42.52063496969640254974365234375" lon="19.974476583302021026611328125">
        <ele>1410.4000244140625</ele>
        <time>2026-06-19T07:47:50.000Z</time>
        <extensions>
          <ns3:TrackPointExtension>
            <ns3:atemp>19.0</ns3:atemp>
          </ns3:TrackPointExtension>
        </extensions>
      </trkpt>
      <trkpt lat="42.52061485312879085540771484375" lon="19.97448555193841457366943359375">
        <ele>1410.5999755859375</ele>
        <time>2026-06-19T07:47:51.000Z</time>
        <extensions>
          <ns3:TrackPointExtension>
            <ns3:atemp>19.0</ns3:atemp>
          </ns3:TrackPointExtension>
        </extensions>
      </trkpt>
      <trkpt lat="42.520601190626621246337890625" lon="19.97449728660285472869873046875">
        <ele>1410.800048828125</ele>
        <time>2026-06-19T07:47:52.000Z</time>
        <extensions>
          <ns3:TrackPointExtension>
            <ns3:atemp>19.0</ns3:atemp>
          </ns3:TrackPointExtension>
        </extensions>
      </trkpt>
      <trkpt lat="42.52058970741927623748779296875" lon="19.97450868599116802215576171875">
        <ele>1411</ele>
        <time>2026-06-19T07:47:53.000Z</time>
        <extensions>
          <ns3:TrackPointExtension>
            <ns3:atemp>19.0</ns3:atemp>
          </ns3:TrackPointExtension>
        </extensions>
      </trkpt>
      <trkpt lat="42.52057461999356746673583984375" lon="19.97451706789433956146240234375">
        <ele>1411.199951171875</ele>
        <time>2026-06-19T07:47:54.000Z</time>
        <extensions>
          <ns3:TrackPointExtension>
            <ns3:atemp>19.0</ns3:atemp>
          </ns3:TrackPointExtension>
        </extensions>
      </trkpt>
      <trkpt lat="42.52055835910141468048095703125" lon="19.97452109120786190032958984375">
        <ele>1411.5999755859375</ele>
        <time>2026-06-19T07:47:55.000Z</time>
        <extensions>
          <ns3:TrackPointExtension>
            <ns3:atemp>19.0</ns3:atemp>
          </ns3:TrackPointExtension>
        </extensions>
      </trkpt>
      <trkpt lat="42.520544864237308502197265625" lon="19.9745303951203823089599609375">
        <ele>1411.800048828125</ele>
        <time>2026-06-19T07:47:56.000Z</time>
        <extensions>
          <ns3:TrackPointExtension>
            <ns3:atemp>19.0</ns3:atemp>
          </ns3:TrackPointExtension>
        </extensions>
      </trkpt>
      <trkpt lat="42.52052851952612400054931640625" lon="19.9745411239564418792724609375">
        <ele>1412</ele>
        <time>2026-06-19T07:47:57.000Z</time>
        <extensions>
          <ns3:TrackPointExtension>
            <ns3:atemp>19.0</ns3:atemp>
          </ns3:TrackPointExtension>
        </extensions>
      </trkpt>
      <trkpt lat="42.520510666072368621826171875" lon="19.97454464435577392578125">
        <ele>1412.4000244140625</ele>
        <time>2026-06-19T07:47:58.000Z</time>
        <extensions>
          <ns3:TrackPointExtension>
            <ns3:atemp>19.0</ns3:atemp>
          </ns3:TrackPointExtension>
        </extensions>
      </trkpt>
      <trkpt lat="42.5204922258853912353515625" lon="19.9745515175163745880126953125">
        <ele>1412.5999755859375</ele>
        <time>2026-06-19T07:47:59.000Z</time>
        <extensions>
          <ns3:TrackPointExtension>
            <ns3:atemp>19.0</ns3:atemp>
          </ns3:TrackPointExtension>
        </extensions>
      </trkpt>
      <trkpt lat="42.5204742886126041412353515625" lon="19.97456970624625682830810546875">
        <ele>1412.800048828125</ele>
        <time>2026-06-19T07:48:00.000Z</time>
        <extensions>
          <ns3:TrackPointExtension>
            <ns3:atemp>19.0</ns3:atemp>
          </ns3:TrackPointExtension>
        </extensions>
      </trkpt>
      <trkpt lat="42.52045962028205394744873046875" lon="19.974587894976139068603515625">
        <ele>1413</ele>
        <time>2026-06-19T07:48:01.000Z</time>
        <extensions>
          <ns3:TrackPointExtension>
            <ns3:atemp>19.0</ns3:atemp>
          </ns3:TrackPointExtension>
        </extensions>
      </trkpt>
      <trkpt lat="42.520439587533473968505859375" lon="19.9745961092412471771240234375">
        <ele>1413.199951171875</ele>
        <time>2026-06-19T07:48:02.000Z</time>
        <extensions>
          <ns3:TrackPointExtension>
            <ns3:atemp>19.0</ns3:atemp>
          </ns3:TrackPointExtension>
        </extensions>
      </trkpt>
      <trkpt lat="42.52042173407971858978271484375" lon="19.974598623812198638916015625">
        <ele>1413.4000244140625</ele>
        <time>2026-06-19T07:48:03.000Z</time>
        <extensions>
          <ns3:TrackPointExtension>
            <ns3:atemp>19.0</ns3:atemp>
          </ns3:TrackPointExtension>
        </extensions>
      </trkpt>
      <trkpt lat="42.52040362916886806488037109375" lon="19.9746036529541015625">
        <ele>1413.5999755859375</ele>
        <time>2026-06-19T07:48:04.000Z</time>
        <extensions>
          <ns3:TrackPointExtension>
            <ns3:atemp>19.0</ns3:atemp>
          </ns3:TrackPointExtension>
        </extensions>
      </trkpt>
      <trkpt lat="42.5203861109912395477294921875" lon="19.97460407204926013946533203125">
        <ele>1413.800048828125</ele>
        <time>2026-06-19T07:48:05.000Z</time>
        <extensions>
          <ns3:TrackPointExtension>
            <ns3:atemp>19.0</ns3:atemp>
          </ns3:TrackPointExtension>
        </extensions>
      </trkpt>
      <trkpt lat="42.5203673355281352996826171875" lon="19.97461429797112941741943359375">
        <ele>1414</ele>
        <time>2026-06-19T07:48:06.000Z</time>
        <extensions>
          <ns3:TrackPointExtension>
            <ns3:atemp>19.0</ns3:atemp>
          </ns3:TrackPointExtension>
        </extensions>
      </trkpt>
      <trkpt lat="42.52035099081695079803466796875" lon="19.9746256135404109954833984375">
        <ele>1414.4000244140625</ele>
        <time>2026-06-19T07:48:07.000Z</time>
        <extensions>
          <ns3:TrackPointExtension>
            <ns3:atemp>19.0</ns3:atemp>
          </ns3:TrackPointExtension>
        </extensions>
      </trkpt>
      <trkpt lat="42.520331628620624542236328125" lon="19.97463592328131198883056640625">
        <ele>1414.5999755859375</ele>
        <time>2026-06-19T07:48:08.000Z</time>
        <extensions>
          <ns3:TrackPointExtension>
            <ns3:atemp>19.0</ns3:atemp>
          </ns3:TrackPointExtension>
        </extensions>
      </trkpt>
      <trkpt lat="42.52031796611845493316650390625" lon="19.97464195825159549713134765625">
        <ele>1414.800048828125</ele>
        <time>2026-06-19T07:48:09.000Z</time>
        <extensions>
          <ns3:TrackPointExtension>
            <ns3:atemp>19.0</ns3:atemp>
          </ns3:TrackPointExtension>
        </extensions>
      </trkpt>
      <trkpt lat="42.52030606381595134735107421875" lon="19.97465134598314762115478515625">
        <ele>1415</ele>
        <time>2026-06-19T07:48:10.000Z</time>
        <extensions>
          <ns3:TrackPointExtension>
            <ns3:atemp>19.0</ns3:atemp>
          </ns3:TrackPointExtension>
        </extensions>
      </trkpt>
      <trkpt lat="42.52028762362897396087646484375" lon="19.974660314619541168212890625">
        <ele>1415.199951171875</ele>
        <time>2026-06-19T07:48:11.000Z</time>
        <extensions>
          <ns3:TrackPointExtension>
            <ns3:atemp>19.0</ns3:atemp>
          </ns3:TrackPointExtension>
        </extensions>
      </trkpt>
      <trkpt lat="42.520267926156520843505859375" lon="19.97467112727463245391845703125">
        <ele>1415.4000244140625</ele>
        <time>2026-06-19T07:48:12.000Z</time>
        <extensions>
          <ns3:TrackPointExtension>
            <ns3:atemp>19.0</ns3:atemp>
          </ns3:TrackPointExtension>
        </extensions>
      </trkpt>
      <trkpt lat="42.520252503454685211181640625" lon="19.97467800043523311614990234375">
        <ele>1415.5999755859375</ele>
        <time>2026-06-19T07:48:13.000Z</time>
        <extensions>
          <ns3:TrackPointExtension>
            <ns3:atemp>19.0</ns3:atemp>
          </ns3:TrackPointExtension>
        </extensions>
      </trkpt>
      <trkpt lat="42.5202362425625324249267578125" lon="19.97468604706227779388427734375">
        <ele>1416</ele>
        <time>2026-06-19T07:48:14.000Z</time>
        <extensions>
          <ns3:TrackPointExtension>
            <ns3:atemp>19.0</ns3:atemp>
          </ns3:TrackPointExtension>
        </extensions>
      </trkpt>
      <trkpt lat="42.5202214904129505157470703125" lon="19.9747037328779697418212890625">
        <ele>1416.199951171875</ele>
        <time>2026-06-19T07:48:15.000Z</time>
        <extensions>
          <ns3:TrackPointExtension>
            <ns3:atemp>19.0</ns3:atemp>
          </ns3:TrackPointExtension>
        </extensions>
      </trkpt>
      <trkpt lat="42.5202047266066074371337890625" lon="19.97471974231302738189697265625">
        <ele>1416.4000244140625</ele>
        <time>2026-06-19T07:48:16.000Z</time>
        <extensions>
          <ns3:TrackPointExtension>
            <ns3:atemp>19.0</ns3:atemp>
          </ns3:TrackPointExtension>
        </extensions>
      </trkpt>
      <trkpt lat="42.52018469385802745819091796875" lon="19.97472695074975490570068359375">
        <ele>1416.5999755859375</ele>
        <time>2026-06-19T07:48:17.000Z</time>
        <extensions>
          <ns3:TrackPointExtension>
            <ns3:atemp>19.0</ns3:atemp>
          </ns3:TrackPointExtension>
        </extensions>
      </trkpt>
      <trkpt lat="42.52016541548073291778564453125" lon="19.974738098680973052978515625">
        <ele>1416.800048828125</ele>
        <time>2026-06-19T07:48:18.000Z</time>
        <extensions>
          <ns3:TrackPointExtension>
            <ns3:atemp>19.0</ns3:atemp>
          </ns3:TrackPointExtension>
        </extensions>
      </trkpt>
      <trkpt lat="42.52014295198023319244384765625" lon="19.97475008480250835418701171875">
        <ele>1416.800048828125</ele>
        <time>2026-06-19T07:48:19.000Z</time>
        <extensions>
          <ns3:TrackPointExtension>
            <ns3:atemp>19.0</ns3:atemp>
          </ns3:TrackPointExtension>
        </extensions>
      </trkpt>
      <trkpt lat="42.52012099139392375946044921875" lon="19.9747667647898197174072265625">
        <ele>1416.800048828125</ele>
        <time>2026-06-19T07:48:20.000Z</time>
        <extensions>
          <ns3:TrackPointExtension>
            <ns3:atemp>19.0</ns3:atemp>
          </ns3:TrackPointExtension>
        </extensions>
      </trkpt>
      <trkpt lat="42.5201007910072803497314453125" lon="19.97478227131068706512451171875">
        <ele>1417</ele>
        <time>2026-06-19T07:48:21.000Z</time>
        <extensions>
          <ns3:TrackPointExtension>
            <ns3:atemp>19.0</ns3:atemp>
          </ns3:TrackPointExtension>
        </extensions>
      </trkpt>
      <trkpt lat="42.52008117735385894775390625" lon="19.9747992865741252899169921875">
        <ele>1417</ele>
        <time>2026-06-19T07:48:22.000Z</time>
        <extensions>
          <ns3:TrackPointExtension>
            <ns3:atemp>19.0</ns3:atemp>
          </ns3:TrackPointExtension>
        </extensions>
      </trkpt>
      <trkpt lat="42.52006215043365955352783203125" lon="19.97481621801853179931640625">
        <ele>1417.199951171875</ele>
        <time>2026-06-19T07:48:23.000Z</time>
        <extensions>
          <ns3:TrackPointExtension>
            <ns3:atemp>19.0</ns3:atemp>
          </ns3:TrackPointExtension>
        </extensions>
      </trkpt>
      <trkpt lat="42.52004723064601421356201171875" lon="19.97483004815876483917236328125">
        <ele>1417.5999755859375</ele>
        <time>2026-06-19T07:48:24.000Z</time>
        <extensions>
          <ns3:TrackPointExtension>
            <ns3:atemp>19.0</ns3:atemp>
          </ns3:TrackPointExtension>
        </extensions>
      </trkpt>
      <trkpt lat="42.52002543769776821136474609375" lon="19.9748422019183635711669921875">
        <ele>1417.800048828125</ele>
        <time>2026-06-19T07:48:25.000Z</time>
        <extensions>
          <ns3:TrackPointExtension>
            <ns3:atemp>19.0</ns3:atemp>
          </ns3:TrackPointExtension>
        </extensions>
      </trkpt>
      <trkpt lat="42.52000741660594940185546875" lon="19.974849410355091094970703125">
        <ele>1418.199951171875</ele>
        <time>2026-06-19T07:48:26.000Z</time>
        <extensions>
          <ns3:TrackPointExtension>
            <ns3:atemp>19.0</ns3:atemp>
          </ns3:TrackPointExtension>
        </extensions>
      </trkpt>
      <trkpt lat="42.5199888087809085845947265625" lon="19.97485418803989887237548828125">
        <ele>1418.4000244140625</ele>
        <time>2026-06-19T07:48:27.000Z</time>
        <extensions>
          <ns3:TrackPointExtension>
            <ns3:atemp>19.0</ns3:atemp>
          </ns3:TrackPointExtension>
        </extensions>
      </trkpt>
      <trkpt lat="42.51996726728975772857666015625" lon="19.97485603205859661102294921875">
        <ele>1418.5999755859375</ele>
        <time>2026-06-19T07:48:28.000Z</time>
        <extensions>
          <ns3:TrackPointExtension>
            <ns3:atemp>19.0</ns3:atemp>
          </ns3:TrackPointExtension>
        </extensions>
      </trkpt>
      <trkpt lat="42.519946061074733734130859375" lon="19.97485301457345485687255859375">
        <ele>1418.800048828125</ele>
        <time>2026-06-19T07:48:29.000Z</time>
        <extensions>
          <ns3:TrackPointExtension>
            <ns3:atemp>19.0</ns3:atemp>
          </ns3:TrackPointExtension>
        </extensions>
      </trkpt>
      <trkpt lat="42.51992485485970973968505859375" lon="19.97484915889799594879150390625">
        <ele>1419.199951171875</ele>
        <time>2026-06-19T07:48:30.000Z</time>
        <extensions>
          <ns3:TrackPointExtension>
            <ns3:atemp>19.0</ns3:atemp>
          </ns3:TrackPointExtension>
        </extensions>
      </trkpt>
      <trkpt lat="42.5199036486446857452392578125" lon="19.97484706342220306396484375">
        <ele>1419.4000244140625</ele>
        <time>2026-06-19T07:48:31.000Z</time>
        <extensions>
          <ns3:TrackPointExtension>
            <ns3:atemp>19.0</ns3:atemp>
          </ns3:TrackPointExtension>
        </extensions>
      </trkpt>
      <trkpt lat="42.5198868848383426666259765625" lon="19.974845387041568756103515625">
        <ele>1419.5999755859375</ele>
        <time>2026-06-19T07:48:32.000Z</time>
        <extensions>
          <ns3:TrackPointExtension>
            <ns3:atemp>19.0</ns3:atemp>
          </ns3:TrackPointExtension>
        </extensions>
      </trkpt>
      <trkpt lat="42.51986819319427013397216796875" lon="19.97484144754707813262939453125">
        <ele>1419.800048828125</ele>
        <time>2026-06-19T07:48:33.000Z</time>
        <extensions>
          <ns3:TrackPointExtension>
            <ns3:atemp>19.0</ns3:atemp>
          </ns3:TrackPointExtension>
        </extensions>
      </trkpt>
      <trkpt lat="42.51985075883567333221435546875" lon="19.9748368375003337860107421875">
        <ele>1420</ele>
        <time>2026-06-19T07:48:34.000Z</time>
        <extensions>
          <ns3:TrackPointExtension>
            <ns3:atemp>19.0</ns3:atemp>
          </ns3:TrackPointExtension>
        </extensions>
      </trkpt>
      <trkpt lat="42.51983198337256908416748046875" lon="19.97483507730066776275634765625">
        <ele>1420.199951171875</ele>
        <time>2026-06-19T07:48:35.000Z</time>
        <extensions>
          <ns3:TrackPointExtension>
            <ns3:atemp>19.0</ns3:atemp>
          </ns3:TrackPointExtension>
        </extensions>
      </trkpt>
      <trkpt lat="42.51981488429009914398193359375" lon="19.97483205981552600860595703125">
        <ele>1420.4000244140625</ele>
        <time>2026-06-19T07:48:36.000Z</time>
        <extensions>
          <ns3:TrackPointExtension>
            <ns3:atemp>19.0</ns3:atemp>
          </ns3:TrackPointExtension>
        </extensions>
      </trkpt>
      <trkpt lat="42.51979711465537548065185546875" lon="19.9748297967016696929931640625">
        <ele>1420.5999755859375</ele>
        <time>2026-06-19T07:48:37.000Z</time>
        <extensions>
          <ns3:TrackPointExtension>
            <ns3:atemp>19.0</ns3:atemp>
          </ns3:TrackPointExtension>
        </extensions>
      </trkpt>
      <trkpt lat="42.51977733336389064788818359375" lon="19.97483323328197002410888671875">
        <ele>1420.800048828125</ele>
        <time>2026-06-19T07:48:38.000Z</time>
        <extensions>
          <ns3:TrackPointExtension>
            <ns3:atemp>19.0</ns3:atemp>
          </ns3:TrackPointExtension>
        </extensions>
      </trkpt>
      <trkpt lat="42.5197564624249935150146484375" lon="19.97483608312904834747314453125">
        <ele>1421</ele>
        <time>2026-06-19T07:48:39.000Z</time>
        <extensions>
          <ns3:TrackPointExtension>
            <ns3:atemp>19.0</ns3:atemp>
          </ns3:TrackPointExtension>
        </extensions>
      </trkpt>
      <trkpt lat="42.51973609440028667449951171875" lon="19.9748385138809680938720703125">
        <ele>1421.4000244140625</ele>
        <time>2026-06-19T07:48:40.000Z</time>
        <extensions>
          <ns3:TrackPointExtension>
            <ns3:atemp>19.0</ns3:atemp>
          </ns3:TrackPointExtension>
        </extensions>
      </trkpt>
      <trkpt lat="42.51971530728042125701904296875" lon="19.9748410284519195556640625">
        <ele>1421.5999755859375</ele>
        <time>2026-06-19T07:48:41.000Z</time>
        <extensions>
          <ns3:TrackPointExtension>
            <ns3:atemp>19.0</ns3:atemp>
          </ns3:TrackPointExtension>
        </extensions>
      </trkpt>
      <trkpt lat="42.519694268703460693359375" lon="19.97484614141285419464111328125">
        <ele>1421.800048828125</ele>
        <time>2026-06-19T07:48:42.000Z</time>
        <extensions>
          <ns3:TrackPointExtension>
            <ns3:atemp>19.0</ns3:atemp>
          </ns3:TrackPointExtension>
        </extensions>
      </trkpt>
      <trkpt lat="42.51967616379261016845703125" lon="19.9748529307544231414794921875">
        <ele>1422</ele>
        <time>2026-06-19T07:48:43.000Z</time>
        <extensions>
          <ns3:TrackPointExtension>
            <ns3:atemp>19.0</ns3:atemp>
          </ns3:TrackPointExtension>
        </extensions>
      </trkpt>
      <trkpt lat="42.519657053053379058837890625" lon="19.97485888190567493438720703125">
        <ele>1422.199951171875</ele>
        <time>2026-06-19T07:48:44.000Z</time>
        <extensions>
          <ns3:TrackPointExtension>
            <ns3:atemp>19.0</ns3:atemp>
          </ns3:TrackPointExtension>
        </extensions>
      </trkpt>
      <trkpt lat="42.519642300903797149658203125" lon="19.9748663417994976043701171875">
        <ele>1422.5999755859375</ele>
        <time>2026-06-19T07:48:45.000Z</time>
        <extensions>
          <ns3:TrackPointExtension>
            <ns3:atemp>19.0</ns3:atemp>
          </ns3:TrackPointExtension>
        </extensions>
      </trkpt>
      <trkpt lat="42.5196277163922786712646484375" lon="19.97487313114106655120849609375">
        <ele>1422.800048828125</ele>
        <time>2026-06-19T07:48:46.000Z</time>
        <extensions>
          <ns3:TrackPointExtension>
            <ns3:atemp>19.0</ns3:atemp>
          </ns3:TrackPointExtension>
        </extensions>
      </trkpt>
      <trkpt lat="42.51961313188076019287109375" lon="19.9748831056058406829833984375">
        <ele>1423</ele>
        <time>2026-06-19T07:48:47.000Z</time>
        <extensions>
          <ns3:TrackPointExtension>
            <ns3:atemp>19.0</ns3:atemp>
          </ns3:TrackPointExtension>
        </extensions>
      </trkpt>
      <trkpt lat="42.51959846355020999908447265625" lon="19.9748931638896465301513671875">
        <ele>1423.199951171875</ele>
        <time>2026-06-19T07:48:48.000Z</time>
        <extensions>
          <ns3:TrackPointExtension>
            <ns3:atemp>19.0</ns3:atemp>
          </ns3:TrackPointExtension>
        </extensions>
      </trkpt>
      <trkpt lat="42.519585974514484405517578125" lon="19.97489995323121547698974609375">
        <ele>1423.5999755859375</ele>
        <time>2026-06-19T07:48:49.000Z</time>
        <extensions>
          <ns3:TrackPointExtension>
            <ns3:atemp>19.0</ns3:atemp>
          </ns3:TrackPointExtension>
        </extensions>
      </trkpt>
      <trkpt lat="42.519570887088775634765625" lon="19.97490984387695789337158203125">
        <ele>1423.800048828125</ele>
        <time>2026-06-19T07:48:50.000Z</time>
        <extensions>
          <ns3:TrackPointExtension>
            <ns3:atemp>19.0</ns3:atemp>
          </ns3:TrackPointExtension>
        </extensions>
      </trkpt>
      <trkpt lat="42.5195620022714138031005859375" lon="19.97491755522787570953369140625">
        <ele>1424</ele>
        <time>2026-06-19T07:48:51.000Z</time>
        <extensions>
          <ns3:TrackPointExtension>
            <ns3:atemp>19.0</ns3:atemp>
          </ns3:TrackPointExtension>
        </extensions>
      </trkpt>
      <trkpt lat="42.51954850740730762481689453125" lon="19.97492761351168155670166015625">
        <ele>1424.199951171875</ele>
        <time>2026-06-19T07:48:52.000Z</time>
        <extensions>
          <ns3:TrackPointExtension>
            <ns3:atemp>19.0</ns3:atemp>
          </ns3:TrackPointExtension>
        </extensions>
      </trkpt>
      <trkpt lat="42.51953559927642345428466796875" lon="19.97493959963321685791015625">
        <ele>1424.4000244140625</ele>
        <time>2026-06-19T07:48:53.000Z</time>
        <extensions>
          <ns3:TrackPointExtension>
            <ns3:atemp>19.0</ns3:atemp>
          </ns3:TrackPointExtension>
        </extensions>
      </trkpt>
      <trkpt lat="42.51951657235622406005859375" lon="19.9749511666595935821533203125">
        <ele>1424.800048828125</ele>
        <time>2026-06-19T07:48:54.000Z</time>
        <extensions>
          <ns3:TrackPointExtension>
            <ns3:atemp>19.0</ns3:atemp>
          </ns3:TrackPointExtension>
        </extensions>
      </trkpt>
      <trkpt lat="42.51950358040630817413330078125" lon="19.97497052885591983795166015625">
        <ele>1425</ele>
        <time>2026-06-19T07:48:55.000Z</time>
        <extensions>
          <ns3:TrackPointExtension>
            <ns3:atemp>19.0</ns3:atemp>
          </ns3:TrackPointExtension>
        </extensions>
      </trkpt>
      <trkpt lat="42.51948581077158451080322265625" lon="19.974987208843231201171875">
        <ele>1425.199951171875</ele>
        <time>2026-06-19T07:48:56.000Z</time>
        <extensions>
          <ns3:TrackPointExtension>
            <ns3:atemp>19.0</ns3:atemp>
          </ns3:TrackPointExtension>
        </extensions>
      </trkpt>
      <trkpt lat="42.51946385018527507781982421875" lon="19.97499634511768817901611328125">
        <ele>1425.5999755859375</ele>
        <time>2026-06-19T07:48:57.000Z</time>
        <extensions>
          <ns3:TrackPointExtension>
            <ns3:atemp>19.0</ns3:atemp>
          </ns3:TrackPointExtension>
        </extensions>
      </trkpt>
      <trkpt lat="42.519447840750217437744140625" lon="19.97500489465892314910888671875">
        <ele>1425.800048828125</ele>
        <time>2026-06-19T07:48:58.000Z</time>
        <extensions>
          <ns3:TrackPointExtension>
            <ns3:atemp>19.0</ns3:atemp>
          </ns3:TrackPointExtension>
        </extensions>
      </trkpt>
      <trkpt lat="42.51943434588611125946044921875" lon="19.9750182218849658966064453125">
        <ele>1426</ele>
        <time>2026-06-19T07:48:59.000Z</time>
        <extensions>
          <ns3:TrackPointExtension>
            <ns3:atemp>19.0</ns3:atemp>
          </ns3:TrackPointExtension>
        </extensions>
      </trkpt>
      <trkpt lat="42.51942026428878307342529296875" lon="19.9750353209674358367919921875">
        <ele>1426.4000244140625</ele>
        <time>2026-06-19T07:49:00.000Z</time>
        <extensions>
          <ns3:TrackPointExtension>
            <ns3:atemp>19.0</ns3:atemp>
          </ns3:TrackPointExtension>
        </extensions>
      </trkpt>
      <trkpt lat="42.5194044224917888641357421875" lon="19.97505032457411289215087890625">
        <ele>1426.5999755859375</ele>
        <time>2026-06-19T07:49:01.000Z</time>
        <extensions>
          <ns3:TrackPointExtension>
            <ns3:atemp>19.0</ns3:atemp>
          </ns3:TrackPointExtension>
        </extensions>
      </trkpt>
      <trkpt lat="42.51939143054187297821044921875" lon="19.97506541199982166290283203125">
        <ele>1426.800048828125</ele>
        <time>2026-06-19T07:49:02.000Z</time>
        <extensions>
          <ns3:TrackPointExtension>
            <ns3:atemp>19.0</ns3:atemp>
          </ns3:TrackPointExtension>
        </extensions>
      </trkpt>
      <trkpt lat="42.51937852241098880767822265625" lon="19.97507563792169094085693359375">
        <ele>1427</ele>
        <time>2026-06-19T07:49:03.000Z</time>
        <extensions>
          <ns3:TrackPointExtension>
            <ns3:atemp>19.0</ns3:atemp>
          </ns3:TrackPointExtension>
        </extensions>
      </trkpt>
      <trkpt lat="42.51936326734721660614013671875" lon="19.97508787550032138824462890625">
        <ele>1427.199951171875</ele>
        <time>2026-06-19T07:49:04.000Z</time>
        <extensions>
          <ns3:TrackPointExtension>
            <ns3:atemp>19.0</ns3:atemp>
          </ns3:TrackPointExtension>
        </extensions>
      </trkpt>
      <trkpt lat="42.51934834755957126617431640625" lon="19.97510246001183986663818359375">
        <ele>1427.4000244140625</ele>
        <time>2026-06-19T07:49:05.000Z</time>
        <extensions>
          <ns3:TrackPointExtension>
            <ns3:atemp>19.0</ns3:atemp>
          </ns3:TrackPointExtension>
        </extensions>
      </trkpt>
      <trkpt lat="42.519334517419338226318359375" lon="19.9751174636185169219970703125">
        <ele>1427.5999755859375</ele>
        <time>2026-06-19T07:49:06.000Z</time>
        <extensions>
          <ns3:TrackPointExtension>
            <ns3:atemp>19.0</ns3:atemp>
          </ns3:TrackPointExtension>
        </extensions>
      </trkpt>
      <trkpt lat="42.519314400851726531982421875" lon="19.97513565234839916229248046875">
        <ele>1428</ele>
        <time>2026-06-19T07:49:07.000Z</time>
        <extensions>
          <ns3:TrackPointExtension>
            <ns3:atemp>19.0</ns3:atemp>
          </ns3:TrackPointExtension>
        </extensions>
      </trkpt>
      <trkpt lat="42.51929931342601776123046875" lon="19.97514705173671245574951171875">
        <ele>1428.199951171875</ele>
        <time>2026-06-19T07:49:08.000Z</time>
        <extensions>
          <ns3:TrackPointExtension>
            <ns3:atemp>19.0</ns3:atemp>
          </ns3:TrackPointExtension>
        </extensions>
      </trkpt>
      <trkpt lat="42.5192813761532306671142578125" lon="19.9751607142388820648193359375">
        <ele>1428.4000244140625</ele>
        <time>2026-06-19T07:49:09.000Z</time>
        <extensions>
          <ns3:TrackPointExtension>
            <ns3:atemp>19.0</ns3:atemp>
          </ns3:TrackPointExtension>
        </extensions>
      </trkpt>
      <trkpt lat="42.5192632712423801422119140625" lon="19.9751734547317028045654296875">
        <ele>1428.5999755859375</ele>
        <time>2026-06-19T07:49:10.000Z</time>
        <extensions>
          <ns3:TrackPointExtension>
            <ns3:atemp>19.0</ns3:atemp>
          </ns3:TrackPointExtension>
        </extensions>
      </trkpt>
      <trkpt lat="42.51925027929246425628662109375" lon="19.9751841835677623748779296875">
        <ele>1428.800048828125</ele>
        <time>2026-06-19T07:49:11.000Z</time>
        <extensions>
          <ns3:TrackPointExtension>
            <ns3:atemp>19.0</ns3:atemp>
          </ns3:TrackPointExtension>
        </extensions>
      </trkpt>
      <trkpt lat="42.51923653297126293182373046875" lon="19.9752006120979785919189453125">
        <ele>1429</ele>
        <time>2026-06-19T07:49:12.000Z</time>
        <extensions>
          <ns3:TrackPointExtension>
            <ns3:atemp>19.0</ns3:atemp>
          </ns3:TrackPointExtension>
        </extensions>
      </trkpt>
      <trkpt lat="42.51922245137393474578857421875" lon="19.9752106703817844390869140625">
        <ele>1429.199951171875</ele>
        <time>2026-06-19T07:49:13.000Z</time>
        <extensions>
          <ns3:TrackPointExtension>
            <ns3:atemp>19.0</ns3:atemp>
          </ns3:TrackPointExtension>
        </extensions>
      </trkpt>
      <trkpt lat="42.51920904032886028289794921875" lon="19.9752183817327022552490234375">
        <ele>1429.4000244140625</ele>
        <time>2026-06-19T07:49:14.000Z</time>
        <extensions>
          <ns3:TrackPointExtension>
            <ns3:atemp>19.0</ns3:atemp>
          </ns3:TrackPointExtension>
        </extensions>
      </trkpt>
      <trkpt lat="42.51919596455991268157958984375" lon="19.975231625139713287353515625">
        <ele>1429.5999755859375</ele>
        <time>2026-06-19T07:49:15.000Z</time>
        <extensions>
          <ns3:TrackPointExtension>
            <ns3:atemp>19.0</ns3:atemp>
          </ns3:TrackPointExtension>
        </extensions>
      </trkpt>
      <trkpt lat="42.51918640919029712677001953125" lon="19.975243024528026580810546875">
        <ele>1429.800048828125</ele>
        <time>2026-06-19T07:49:16.000Z</time>
        <extensions>
          <ns3:TrackPointExtension>
            <ns3:atemp>19.0</ns3:atemp>
          </ns3:TrackPointExtension>
        </extensions>
      </trkpt>
      <trkpt lat="42.51917433924973011016845703125" lon="19.97525484301149845123291015625">
        <ele>1430</ele>
        <time>2026-06-19T07:49:17.000Z</time>
        <extensions>
          <ns3:TrackPointExtension>
            <ns3:atemp>19.0</ns3:atemp>
          </ns3:TrackPointExtension>
        </extensions>
      </trkpt>
      <trkpt lat="42.51916646026074886322021484375" lon="19.97527009807527065277099609375">
        <ele>1430</ele>
        <time>2026-06-19T07:49:18.000Z</time>
        <extensions>
          <ns3:TrackPointExtension>
            <ns3:atemp>19.0</ns3:atemp>
          </ns3:TrackPointExtension>
        </extensions>
      </trkpt>
      <trkpt lat="42.5191613472998142242431640625" lon="19.97529390268027782440185546875">
        <ele>1430.199951171875</ele>
        <time>2026-06-19T07:49:19.000Z</time>
        <extensions>
          <ns3:TrackPointExtension>
            <ns3:atemp>19.0</ns3:atemp>
          </ns3:TrackPointExtension>
        </extensions>
      </trkpt>
      <trkpt lat="42.519150115549564361572265625" lon="19.97530882246792316436767578125">
        <ele>1430.4000244140625</ele>
        <time>2026-06-19T07:49:20.000Z</time>
        <extensions>
          <ns3:TrackPointExtension>
            <ns3:atemp>19.0</ns3:atemp>
          </ns3:TrackPointExtension>
        </extensions>
      </trkpt>
      <trkpt lat="42.51913209445774555206298828125" lon="19.97532005421817302703857421875">
        <ele>1430.5999755859375</ele>
        <time>2026-06-19T07:49:21.000Z</time>
        <extensions>
          <ns3:TrackPointExtension>
            <ns3:atemp>19.0</ns3:atemp>
          </ns3:TrackPointExtension>
        </extensions>
      </trkpt>
      <trkpt lat="42.51911533065140247344970703125" lon="19.97533162124454975128173828125">
        <ele>1430.5999755859375</ele>
        <time>2026-06-19T07:49:22.000Z</time>
        <extensions>
          <ns3:TrackPointExtension>
            <ns3:atemp>19.0</ns3:atemp>
          </ns3:TrackPointExtension>
        </extensions>
      </trkpt>
      <trkpt lat="42.5190983153879642486572265625" lon="19.975342936813831329345703125">
        <ele>1430.800048828125</ele>
        <time>2026-06-19T07:49:23.000Z</time>
        <extensions>
          <ns3:TrackPointExtension>
            <ns3:atemp>19.0</ns3:atemp>
          </ns3:TrackPointExtension>
        </extensions>
      </trkpt>
      <trkpt lat="42.51908004283905029296875" lon="19.97535794042050838470458984375">
        <ele>1431</ele>
        <time>2026-06-19T07:49:24.000Z</time>
        <extensions>
          <ns3:TrackPointExtension>
            <ns3:atemp>19.0</ns3:atemp>
          </ns3:TrackPointExtension>
        </extensions>
      </trkpt>
      <trkpt lat="42.51906503923237323760986328125" lon="19.975371770560741424560546875">
        <ele>1431.199951171875</ele>
        <time>2026-06-19T07:49:25.000Z</time>
        <extensions>
          <ns3:TrackPointExtension>
            <ns3:atemp>19.0</ns3:atemp>
          </ns3:TrackPointExtension>
        </extensions>
      </trkpt>
      <trkpt lat="42.51904408447444438934326171875" lon="19.97538618743419647216796875">
        <ele>1431.4000244140625</ele>
        <time>2026-06-19T07:49:26.000Z</time>
        <extensions>
          <ns3:TrackPointExtension>
            <ns3:atemp>19.0</ns3:atemp>
          </ns3:TrackPointExtension>
        </extensions>
      </trkpt>
      <trkpt lat="42.51902949996292591094970703125" lon="19.9753980897367000579833984375">
        <ele>1431.5999755859375</ele>
        <time>2026-06-19T07:49:27.000Z</time>
        <extensions>
          <ns3:TrackPointExtension>
            <ns3:atemp>19.0</ns3:atemp>
          </ns3:TrackPointExtension>
        </extensions>
      </trkpt>
      <trkpt lat="42.51901566982269287109375" lon="19.975414685904979705810546875">
        <ele>1431.800048828125</ele>
        <time>2026-06-19T07:49:28.000Z</time>
        <extensions>
          <ns3:TrackPointExtension>
            <ns3:atemp>19.0</ns3:atemp>
          </ns3:TrackPointExtension>
        </extensions>
      </trkpt>
      <trkpt lat="42.5189987383782863616943359375" lon="19.97542885132133960723876953125">
        <ele>1431.800048828125</ele>
        <time>2026-06-19T07:49:29.000Z</time>
        <extensions>
          <ns3:TrackPointExtension>
            <ns3:atemp>19.0</ns3:atemp>
          </ns3:TrackPointExtension>
        </extensions>
      </trkpt>
      <trkpt lat="42.51898356713354587554931640625" lon="19.975440502166748046875">
        <ele>1432</ele>
        <time>2026-06-19T07:49:30.000Z</time>
        <extensions>
          <ns3:TrackPointExtension>
            <ns3:atemp>19.0</ns3:atemp>
          </ns3:TrackPointExtension>
        </extensions>
      </trkpt>
      <trkpt lat="42.51897065900266170501708984375" lon="19.975458271801471710205078125">
        <ele>1432</ele>
        <time>2026-06-19T07:49:31.000Z</time>
        <extensions>
          <ns3:TrackPointExtension>
            <ns3:atemp>19.0</ns3:atemp>
          </ns3:TrackPointExtension>
        </extensions>
      </trkpt>
      <trkpt lat="42.51895959489047527313232421875" lon="19.9754691682755947113037109375">
        <ele>1432.199951171875</ele>
        <time>2026-06-19T07:49:32.000Z</time>
        <extensions>
          <ns3:TrackPointExtension>
            <ns3:atemp>19.0</ns3:atemp>
          </ns3:TrackPointExtension>
        </extensions>
      </trkpt>
      <trkpt lat="42.51894987188279628753662109375" lon="19.9754842557013034820556640625">
        <ele>1432.4000244140625</ele>
        <time>2026-06-19T07:49:33.000Z</time>
        <extensions>
          <ns3:TrackPointExtension>
            <ns3:atemp>19.0</ns3:atemp>
          </ns3:TrackPointExtension>
        </extensions>
      </trkpt>
      <trkpt lat="42.51893914304673671722412109375" lon="19.975502528250217437744140625">
        <ele>1432.5999755859375</ele>
        <time>2026-06-19T07:49:34.000Z</time>
        <extensions>
          <ns3:TrackPointExtension>
            <ns3:atemp>19.0</ns3:atemp>
          </ns3:TrackPointExtension>
        </extensions>
      </trkpt>
      <trkpt lat="42.5189286656677722930908203125" lon="19.97552298009395599365234375">
        <ele>1432.800048828125</ele>
        <time>2026-06-19T07:49:35.000Z</time>
        <extensions>
          <ns3:TrackPointExtension>
            <ns3:atemp>19.0</ns3:atemp>
          </ns3:TrackPointExtension>
        </extensions>
      </trkpt>
      <trkpt lat="42.51891550607979297637939453125" lon="19.9755389057099819183349609375">
        <ele>1433</ele>
        <time>2026-06-19T07:49:36.000Z</time>
        <extensions>
          <ns3:TrackPointExtension>
            <ns3:atemp>19.0</ns3:atemp>
          </ns3:TrackPointExtension>
        </extensions>
      </trkpt>
      <trkpt lat="42.51890427432954311370849609375" lon="19.97555474750697612762451171875">
        <ele>1433</ele>
        <time>2026-06-19T07:49:37.000Z</time>
        <extensions>
          <ns3:TrackPointExtension>
            <ns3:atemp>19.0</ns3:atemp>
          </ns3:TrackPointExtension>
        </extensions>
      </trkpt>
      <trkpt lat="42.51889471895992755889892578125" lon="19.975573606789112091064453125">
        <ele>1433.199951171875</ele>
        <time>2026-06-19T07:49:38.000Z</time>
        <extensions>
          <ns3:TrackPointExtension>
            <ns3:atemp>19.0</ns3:atemp>
          </ns3:TrackPointExtension>
        </extensions>
      </trkpt>
      <trkpt lat="42.51888583414256572723388671875" lon="19.9755891971290111541748046875">
        <ele>1433.199951171875</ele>
        <time>2026-06-19T07:49:39.000Z</time>
        <extensions>
          <ns3:TrackPointExtension>
            <ns3:atemp>19.0</ns3:atemp>
          </ns3:TrackPointExtension>
        </extensions>
      </trkpt>
      <trkpt lat="42.51887108199298381805419921875" lon="19.97560973279178142547607421875">
        <ele>1433.4000244140625</ele>
        <time>2026-06-19T07:49:40.000Z</time>
        <extensions>
          <ns3:TrackPointExtension>
            <ns3:atemp>19.0</ns3:atemp>
          </ns3:TrackPointExtension>
        </extensions>
      </trkpt>
      <trkpt lat="42.51886035315692424774169921875" lon="19.975627921521663665771484375">
        <ele>1433.4000244140625</ele>
        <time>2026-06-19T07:49:41.000Z</time>
        <extensions>
          <ns3:TrackPointExtension>
            <ns3:atemp>19.0</ns3:atemp>
          </ns3:TrackPointExtension>
        </extensions>
      </trkpt>
      <trkpt lat="42.5188481993973255157470703125" lon="19.975649379193782806396484375">
        <ele>1433.5999755859375</ele>
        <time>2026-06-19T07:49:42.000Z</time>
        <extensions>
          <ns3:TrackPointExtension>
            <ns3:atemp>19.0</ns3:atemp>
          </ns3:TrackPointExtension>
        </extensions>
      </trkpt>
      <trkpt lat="42.5188344530761241912841796875" lon="19.97567477636039257049560546875">
        <ele>1433.800048828125</ele>
        <time>2026-06-19T07:49:43.000Z</time>
        <extensions>
          <ns3:TrackPointExtension>
            <ns3:atemp>19.0</ns3:atemp>
          </ns3:TrackPointExtension>
        </extensions>
      </trkpt>
      <trkpt lat="42.5188257358968257904052734375" lon="19.975704364478588104248046875">
        <ele>1433.800048828125</ele>
        <time>2026-06-19T07:49:44.000Z</time>
        <extensions>
          <ns3:TrackPointExtension>
            <ns3:atemp>19.0</ns3:atemp>
          </ns3:TrackPointExtension>
        </extensions>
      </trkpt>
      <trkpt lat="42.51882229931652545928955078125" lon="19.97572456486523151397705078125">
        <ele>1434</ele>
        <time>2026-06-19T07:49:45.000Z</time>
        <extensions>
          <ns3:TrackPointExtension>
            <ns3:atemp>19.0</ns3:atemp>
          </ns3:TrackPointExtension>
        </extensions>
      </trkpt>
      <trkpt lat="42.518816851079463958740234375" lon="19.97575356625020503997802734375">
        <ele>1434.199951171875</ele>
        <time>2026-06-19T07:49:46.000Z</time>
        <extensions>
          <ns3:TrackPointExtension>
            <ns3:atemp>19.0</ns3:atemp>
          </ns3:TrackPointExtension>
        </extensions>
      </trkpt>
      <trkpt lat="42.5188104808330535888671875" lon="19.97577837668359279632568359375">
        <ele>1434.4000244140625</ele>
        <time>2026-06-19T07:49:47.000Z</time>
        <extensions>
          <ns3:TrackPointExtension>
            <ns3:atemp>19.0</ns3:atemp>
          </ns3:TrackPointExtension>
        </extensions>
      </trkpt>
      <trkpt lat="42.51880536787211894989013671875" lon="19.97579413466155529022216796875">
        <ele>1434.5999755859375</ele>
        <time>2026-06-19T07:49:48.000Z</time>
        <extensions>
          <ns3:TrackPointExtension>
            <ns3:atemp>19.0</ns3:atemp>
          </ns3:TrackPointExtension>
        </extensions>
      </trkpt>
      <trkpt lat="42.51879983581602573394775390625" lon="19.97581860981881618499755859375">
        <ele>1434.800048828125</ele>
        <time>2026-06-19T07:49:49.000Z</time>
        <extensions>
          <ns3:TrackPointExtension>
            <ns3:atemp>19.0</ns3:atemp>
          </ns3:TrackPointExtension>
        </extensions>
      </trkpt>
      <trkpt lat="42.51879296265542507171630859375" lon="19.9758374691009521484375">
        <ele>1435</ele>
        <time>2026-06-19T07:49:50.000Z</time>
        <extensions>
          <ns3:TrackPointExtension>
            <ns3:atemp>19.0</ns3:atemp>
          </ns3:TrackPointExtension>
        </extensions>
      </trkpt>
      <trkpt lat="42.5187863409519195556640625" lon="19.975857250392436981201171875">
        <ele>1435.199951171875</ele>
        <time>2026-06-19T07:49:51.000Z</time>
        <extensions>
          <ns3:TrackPointExtension>
            <ns3:atemp>19.0</ns3:atemp>
          </ns3:TrackPointExtension>
        </extensions>
      </trkpt>
      <trkpt lat="42.5187821500003337860107421875" lon="19.97587627731263637542724609375">
        <ele>1435.4000244140625</ele>
        <time>2026-06-19T07:49:52.000Z</time>
        <extensions>
          <ns3:TrackPointExtension>
            <ns3:atemp>19.0</ns3:atemp>
          </ns3:TrackPointExtension>
        </extensions>
      </trkpt>
      <trkpt lat="42.51877720467746257781982421875" lon="19.975900165736675262451171875">
        <ele>1435.5999755859375</ele>
        <time>2026-06-19T07:49:53.000Z</time>
        <extensions>
          <ns3:TrackPointExtension>
            <ns3:atemp>19.0</ns3:atemp>
          </ns3:TrackPointExtension>
        </extensions>
      </trkpt>
      <trkpt lat="42.518767900764942169189453125" lon="19.97591818682849407196044921875">
        <ele>1436</ele>
        <time>2026-06-19T07:49:54.000Z</time>
        <extensions>
          <ns3:TrackPointExtension>
            <ns3:atemp>19.0</ns3:atemp>
          </ns3:TrackPointExtension>
        </extensions>
      </trkpt>
      <trkpt lat="42.5187637098133563995361328125" lon="19.97593344189226627349853515625">
        <ele>1436.199951171875</ele>
        <time>2026-06-19T07:49:55.000Z</time>
        <extensions>
          <ns3:TrackPointExtension>
            <ns3:atemp>19.0</ns3:atemp>
          </ns3:TrackPointExtension>
        </extensions>
      </trkpt>
      <trkpt lat="42.51875524409115314483642578125" lon="19.97595305554568767547607421875">
        <ele>1436.4000244140625</ele>
        <time>2026-06-19T07:49:56.000Z</time>
        <extensions>
          <ns3:TrackPointExtension>
            <ns3:atemp>19.0</ns3:atemp>
          </ns3:TrackPointExtension>
        </extensions>
      </trkpt>
      <trkpt lat="42.5187506340444087982177734375" lon="19.97597417794167995452880859375">
        <ele>1436.5999755859375</ele>
        <time>2026-06-19T07:49:57.000Z</time>
        <extensions>
          <ns3:TrackPointExtension>
            <ns3:atemp>19.0</ns3:atemp>
          </ns3:TrackPointExtension>
        </extensions>
      </trkpt>
      <trkpt lat="42.51874811947345733642578125" lon="19.97599764727056026458740234375">
        <ele>1437</ele>
        <time>2026-06-19T07:49:58.000Z</time>
        <extensions>
          <ns3:TrackPointExtension>
            <ns3:atemp>19.0</ns3:atemp>
          </ns3:TrackPointExtension>
        </extensions>
      </trkpt>
      <trkpt lat="42.518749125301837921142578125" lon="19.97601642273366451263427734375">
        <ele>1437.4000244140625</ele>
        <time>2026-06-19T07:49:59.000Z</time>
        <extensions>
          <ns3:TrackPointExtension>
            <ns3:atemp>19.0</ns3:atemp>
          </ns3:TrackPointExtension>
        </extensions>
      </trkpt>
      <trkpt lat="42.5187442637979984283447265625" lon="19.97603871859610080718994140625">
        <ele>1437.5999755859375</ele>
        <time>2026-06-19T07:50:00.000Z</time>
        <extensions>
          <ns3:TrackPointExtension>
            <ns3:atemp>19.0</ns3:atemp>
          </ns3:TrackPointExtension>
        </extensions>
      </trkpt>
      <trkpt lat="42.5187425874173641204833984375" lon="19.97605430893599987030029296875">
        <ele>1437.800048828125</ele>
        <time>2026-06-19T07:50:01.000Z</time>
        <extensions>
          <ns3:TrackPointExtension>
            <ns3:atemp>19.0</ns3:atemp>
          </ns3:TrackPointExtension>
        </extensions>
      </trkpt>
      <trkpt lat="42.51873780973255634307861328125" lon="19.97607576660811901092529296875">
        <ele>1438.199951171875</ele>
        <time>2026-06-19T07:50:02.000Z</time>
        <extensions>
          <ns3:TrackPointExtension>
            <ns3:atemp>19.0</ns3:atemp>
          </ns3:TrackPointExtension>
        </extensions>
      </trkpt>
      <trkpt lat="42.518731690943241119384765625" lon="19.97609839774668216705322265625">
        <ele>1438.4000244140625</ele>
        <time>2026-06-19T07:50:03.000Z</time>
        <extensions>
          <ns3:TrackPointExtension>
            <ns3:atemp>19.0</ns3:atemp>
          </ns3:TrackPointExtension>
        </extensions>
      </trkpt>
      <trkpt lat="42.5187261588871479034423828125" lon="19.97612454928457736968994140625">
        <ele>1438.800048828125</ele>
        <time>2026-06-19T07:50:04.000Z</time>
        <extensions>
          <ns3:TrackPointExtension>
            <ns3:atemp>19.0</ns3:atemp>
          </ns3:TrackPointExtension>
        </extensions>
      </trkpt>
      <trkpt lat="42.51871786080300807952880859375" lon="19.97614257037639617919921875">
        <ele>1439</ele>
        <time>2026-06-19T07:50:05.000Z</time>
        <extensions>
          <ns3:TrackPointExtension>
            <ns3:atemp>19.0</ns3:atemp>
          </ns3:TrackPointExtension>
        </extensions>
      </trkpt>
      <trkpt lat="42.51871082000434398651123046875" lon="19.97616536915302276611328125">
        <ele>1439.199951171875</ele>
        <time>2026-06-19T07:50:06.000Z</time>
        <extensions>
          <ns3:TrackPointExtension>
            <ns3:atemp>19.0</ns3:atemp>
          </ns3:TrackPointExtension>
        </extensions>
      </trkpt>
      <trkpt lat="42.518701516091823577880859375" lon="19.97618959285318851470947265625">
        <ele>1439.5999755859375</ele>
        <time>2026-06-19T07:50:07.000Z</time>
        <extensions>
          <ns3:TrackPointExtension>
            <ns3:atemp>19.0</ns3:atemp>
          </ns3:TrackPointExtension>
        </extensions>
      </trkpt>
      <trkpt lat="42.51869355328381061553955078125" lon="19.97621842660009860992431640625">
        <ele>1439.800048828125</ele>
        <time>2026-06-19T07:50:08.000Z</time>
        <extensions>
          <ns3:TrackPointExtension>
            <ns3:atemp>19.0</ns3:atemp>
          </ns3:TrackPointExtension>
        </extensions>
      </trkpt>
      <trkpt lat="42.51869053579866886138916015625" lon="19.97624373994767665863037109375">
        <ele>1440</ele>
        <time>2026-06-19T07:50:09.000Z</time>
        <extensions>
          <ns3:TrackPointExtension>
            <ns3:atemp>19.0</ns3:atemp>
          </ns3:TrackPointExtension>
        </extensions>
      </trkpt>
      <trkpt lat="42.51868533901870250701904296875" lon="19.9762666225433349609375">
        <ele>1440.199951171875</ele>
        <time>2026-06-19T07:50:10.000Z</time>
        <extensions>
          <ns3:TrackPointExtension>
            <ns3:atemp>19.0</ns3:atemp>
          </ns3:TrackPointExtension>
        </extensions>
      </trkpt>
      <trkpt lat="42.51868014223873615264892578125" lon="19.97628875076770782470703125">
        <ele>1440.4000244140625</ele>
        <time>2026-06-19T07:50:11.000Z</time>
        <extensions>
          <ns3:TrackPointExtension>
            <ns3:atemp>19.0</ns3:atemp>
          </ns3:TrackPointExtension>
        </extensions>
      </trkpt>
      <trkpt lat="42.51867511309683322906494140625" lon="19.9763110466301441192626953125">
        <ele>1440.5999755859375</ele>
        <time>2026-06-19T07:50:12.000Z</time>
        <extensions>
          <ns3:TrackPointExtension>
            <ns3:atemp>19.0</ns3:atemp>
          </ns3:TrackPointExtension>
        </extensions>
      </trkpt>
      <trkpt lat="42.51866706646978855133056640625" lon="19.97633543796837329864501953125">
        <ele>1440.800048828125</ele>
        <time>2026-06-19T07:50:13.000Z</time>
        <extensions>
          <ns3:TrackPointExtension>
            <ns3:atemp>19.0</ns3:atemp>
          </ns3:TrackPointExtension>
        </extensions>
      </trkpt>
      <trkpt lat="42.518655247986316680908203125" lon="19.97636226005852222442626953125">
        <ele>1440.800048828125</ele>
        <time>2026-06-19T07:50:14.000Z</time>
        <extensions>
          <ns3:TrackPointExtension>
            <ns3:atemp>19.0</ns3:atemp>
          </ns3:TrackPointExtension>
        </extensions>
      </trkpt>
      <trkpt lat="42.51864225603640079498291015625" lon="19.976380951702594757080078125">
        <ele>1441</ele>
        <time>2026-06-19T07:50:15.000Z</time>
        <extensions>
          <ns3:TrackPointExtension>
            <ns3:atemp>19.0</ns3:atemp>
          </ns3:TrackPointExtension>
        </extensions>
      </trkpt>
      <trkpt lat="42.51862850971519947052001953125" lon="19.9763982184231281280517578125">
        <ele>1441.199951171875</ele>
        <time>2026-06-19T07:50:16.000Z</time>
        <extensions>
          <ns3:TrackPointExtension>
            <ns3:atemp>19.0</ns3:atemp>
          </ns3:TrackPointExtension>
        </extensions>
      </trkpt>
      <trkpt lat="42.5186145119369029998779296875" lon="19.976413808763027191162109375">
        <ele>1441.4000244140625</ele>
        <time>2026-06-19T07:50:17.000Z</time>
        <extensions>
          <ns3:TrackPointExtension>
            <ns3:atemp>19.0</ns3:atemp>
          </ns3:TrackPointExtension>
        </extensions>
      </trkpt>
      <trkpt lat="42.5185994245111942291259765625" lon="19.9764315783977508544921875">
        <ele>1441.4000244140625</ele>
        <time>2026-06-19T07:50:18.000Z</time>
        <extensions>
          <ns3:TrackPointExtension>
            <ns3:atemp>19.0</ns3:atemp>
          </ns3:TrackPointExtension>
        </extensions>
      </trkpt>
      <trkpt lat="42.51858584582805633544921875" lon="19.976448006927967071533203125">
        <ele>1441.5999755859375</ele>
        <time>2026-06-19T07:50:19.000Z</time>
        <extensions>
          <ns3:TrackPointExtension>
            <ns3:atemp>19.0</ns3:atemp>
          </ns3:TrackPointExtension>
        </extensions>
      </trkpt>
      <trkpt lat="42.51857033930718898773193359375" lon="19.97646938078105449676513671875">
        <ele>1441.800048828125</ele>
        <time>2026-06-19T07:50:20.000Z</time>
        <extensions>
          <ns3:TrackPointExtension>
            <ns3:atemp>19.0</ns3:atemp>
          </ns3:TrackPointExtension>
        </extensions>
      </trkpt>
      <trkpt lat="42.5185608677566051483154296875" lon="19.97649385593831539154052734375">
        <ele>1441.800048828125</ele>
        <time>2026-06-19T07:50:21.000Z</time>
        <extensions>
          <ns3:TrackPointExtension>
            <ns3:atemp>19.0</ns3:atemp>
          </ns3:TrackPointExtension>
        </extensions>
      </trkpt>
      <trkpt lat="42.5185503065586090087890625" lon="19.97652604244649410247802734375">
        <ele>1442</ele>
        <time>2026-06-19T07:50:22.000Z</time>
        <extensions>
          <ns3:TrackPointExtension>
            <ns3:atemp>19.0</ns3:atemp>
          </ns3:TrackPointExtension>
        </extensions>
      </trkpt>
      <trkpt lat="42.518537901341915130615234375" lon="19.9765521101653575897216796875">
        <ele>1442</ele>
        <time>2026-06-19T07:50:23.000Z</time>
        <extensions>
          <ns3:TrackPointExtension>
            <ns3:atemp>19.0</ns3:atemp>
          </ns3:TrackPointExtension>
        </extensions>
      </trkpt>
      <trkpt lat="42.5185256637632846832275390625" lon="19.97657733969390392303466796875">
        <ele>1442</ele>
        <time>2026-06-19T07:50:24.000Z</time>
        <extensions>
          <ns3:TrackPointExtension>
            <ns3:atemp>19.0</ns3:atemp>
          </ns3:TrackPointExtension>
        </extensions>
      </trkpt>
      <trkpt lat="42.51851342618465423583984375" lon="19.9765951931476593017578125">
        <ele>1442.199951171875</ele>
        <time>2026-06-19T07:50:25.000Z</time>
        <extensions>
          <ns3:TrackPointExtension>
            <ns3:atemp>19.0</ns3:atemp>
          </ns3:TrackPointExtension>
        </extensions>
      </trkpt>
      <trkpt lat="42.51850110478699207305908203125" lon="19.9766131304204463958740234375">
        <ele>1442.199951171875</ele>
        <time>2026-06-19T07:50:26.000Z</time>
        <extensions>
          <ns3:TrackPointExtension>
            <ns3:atemp>19.0</ns3:atemp>
          </ns3:TrackPointExtension>
        </extensions>
      </trkpt>
      <trkpt lat="42.5184911303222179412841796875" lon="19.97662964276969432830810546875">
        <ele>1442.4000244140625</ele>
        <time>2026-06-19T07:50:27.000Z</time>
        <extensions>
          <ns3:TrackPointExtension>
            <ns3:atemp>19.0</ns3:atemp>
          </ns3:TrackPointExtension>
        </extensions>
      </trkpt>
      <trkpt lat="42.5184805691242218017578125" lon="19.9766513518989086151123046875">
        <ele>1442.4000244140625</ele>
        <time>2026-06-19T07:50:28.000Z</time>
        <extensions>
          <ns3:TrackPointExtension>
            <ns3:atemp>19.0</ns3:atemp>
          </ns3:TrackPointExtension>
        </extensions>
      </trkpt>
      <trkpt lat="42.5184696726500988006591796875" lon="19.97667524032294750213623046875">
        <ele>1442.4000244140625</ele>
        <time>2026-06-19T07:50:29.000Z</time>
        <extensions>
          <ns3:TrackPointExtension>
            <ns3:atemp>19.0</ns3:atemp>
          </ns3:TrackPointExtension>
        </extensions>
      </trkpt>
      <trkpt lat="42.51845768652856349945068359375" lon="19.97669820673763751983642578125">
        <ele>1442.4000244140625</ele>
        <time>2026-06-19T07:50:30.000Z</time>
        <extensions>
          <ns3:TrackPointExtension>
            <ns3:atemp>19.0</ns3:atemp>
          </ns3:TrackPointExtension>
        </extensions>
      </trkpt>
      <trkpt lat="42.518444359302520751953125" lon="19.97671899385750293731689453125">
        <ele>1442.5999755859375</ele>
        <time>2026-06-19T07:50:31.000Z</time>
        <extensions>
          <ns3:TrackPointExtension>
            <ns3:atemp>19.0</ns3:atemp>
          </ns3:TrackPointExtension>
        </extensions>
      </trkpt>
      <trkpt lat="42.51843170262873172760009765625" lon="19.97674338519573211669921875">
        <ele>1442.5999755859375</ele>
        <time>2026-06-19T07:50:32.000Z</time>
        <extensions>
          <ns3:TrackPointExtension>
            <ns3:atemp>19.0</ns3:atemp>
          </ns3:TrackPointExtension>
        </extensions>
      </trkpt>
      <trkpt lat="42.5184269249439239501953125" lon="19.9767660163342952728271484375">
        <ele>1442.800048828125</ele>
        <time>2026-06-19T07:50:33.000Z</time>
        <extensions>
          <ns3:TrackPointExtension>
            <ns3:atemp>19.0</ns3:atemp>
          </ns3:TrackPointExtension>
        </extensions>
      </trkpt>
      <trkpt lat="42.51842063851654529571533203125" lon="19.9767883121967315673828125">
        <ele>1442.800048828125</ele>
        <time>2026-06-19T07:50:34.000Z</time>
        <extensions>
          <ns3:TrackPointExtension>
            <ns3:atemp>19.0</ns3:atemp>
          </ns3:TrackPointExtension>
        </extensions>
      </trkpt>
      <trkpt lat="42.51841208897531032562255859375" lon="19.976811110973358154296875">
        <ele>1443</ele>
        <time>2026-06-19T07:50:35.000Z</time>
        <extensions>
          <ns3:TrackPointExtension>
            <ns3:atemp>19.0</ns3:atemp>
          </ns3:TrackPointExtension>
        </extensions>
      </trkpt>
      <trkpt lat="42.518409155309200286865234375" lon="19.9768310599029064178466796875">
        <ele>1443.4000244140625</ele>
        <time>2026-06-19T07:50:36.000Z</time>
        <extensions>
          <ns3:TrackPointExtension>
            <ns3:atemp>19.0</ns3:atemp>
          </ns3:TrackPointExtension>
        </extensions>
      </trkpt>
      <trkpt lat="42.5184049643576145172119140625" lon="19.9768518470227718353271484375">
        <ele>1443.5999755859375</ele>
        <time>2026-06-19T07:50:37.000Z</time>
        <extensions>
          <ns3:TrackPointExtension>
            <ns3:atemp>19.0</ns3:atemp>
          </ns3:TrackPointExtension>
        </extensions>
      </trkpt>
      <trkpt lat="42.5184006057679653167724609375" lon="19.97687690891325473785400390625">
        <ele>1443.5999755859375</ele>
        <time>2026-06-19T07:50:38.000Z</time>
        <extensions>
          <ns3:TrackPointExtension>
            <ns3:atemp>19.0</ns3:atemp>
          </ns3:TrackPointExtension>
        </extensions>
      </trkpt>
      <trkpt lat="42.5183942355215549468994140625" lon="19.9769007973372936248779296875">
        <ele>1443.800048828125</ele>
        <time>2026-06-19T07:50:39.000Z</time>
        <extensions>
          <ns3:TrackPointExtension>
            <ns3:atemp>19.0</ns3:atemp>
          </ns3:TrackPointExtension>
        </extensions>
      </trkpt>
      <trkpt lat="42.51838576979935169219970703125" lon="19.97692267410457134246826171875">
        <ele>1443.800048828125</ele>
        <time>2026-06-19T07:50:40.000Z</time>
        <extensions>
          <ns3:TrackPointExtension>
            <ns3:atemp>19.0</ns3:atemp>
          </ns3:TrackPointExtension>
        </extensions>
      </trkpt>
      <trkpt lat="42.51837906427681446075439453125" lon="19.976944215595722198486328125">
        <ele>1444</ele>
        <time>2026-06-19T07:50:41.000Z</time>
        <extensions>
          <ns3:TrackPointExtension>
            <ns3:atemp>19.0</ns3:atemp>
          </ns3:TrackPointExtension>
        </extensions>
      </trkpt>
      <trkpt lat="42.518372274935245513916015625" lon="19.97696676291525363922119140625">
        <ele>1444.199951171875</ele>
        <time>2026-06-19T07:50:42.000Z</time>
        <extensions>
          <ns3:TrackPointExtension>
            <ns3:atemp>19.0</ns3:atemp>
          </ns3:TrackPointExtension>
        </extensions>
      </trkpt>
      <trkpt lat="42.51836498267948627471923828125" lon="19.97698922641575336456298828125">
        <ele>1444.4000244140625</ele>
        <time>2026-06-19T07:50:43.000Z</time>
        <extensions>
          <ns3:TrackPointExtension>
            <ns3:atemp>19.0</ns3:atemp>
          </ns3:TrackPointExtension>
        </extensions>
      </trkpt>
      <trkpt lat="42.51835844479501247406005859375" lon="19.97701336629688739776611328125">
        <ele>1444.5999755859375</ele>
        <time>2026-06-19T07:50:44.000Z</time>
        <extensions>
          <ns3:TrackPointExtension>
            <ns3:atemp>19.0</ns3:atemp>
          </ns3:TrackPointExtension>
        </extensions>
      </trkpt>
      <trkpt lat="42.5183513201773166656494140625" lon="19.977035410702228546142578125">
        <ele>1444.800048828125</ele>
        <time>2026-06-19T07:50:45.000Z</time>
        <extensions>
          <ns3:TrackPointExtension>
            <ns3:atemp>19.0</ns3:atemp>
          </ns3:TrackPointExtension>
        </extensions>
      </trkpt>
      <trkpt lat="42.5183439441025257110595703125" lon="19.97705661691725254058837890625">
        <ele>1445</ele>
        <time>2026-06-19T07:50:46.000Z</time>
        <extensions>
          <ns3:TrackPointExtension>
            <ns3:atemp>19.0</ns3:atemp>
          </ns3:TrackPointExtension>
        </extensions>
      </trkpt>
      <trkpt lat="42.51834042370319366455078125" lon="19.9770828522741794586181640625">
        <ele>1445.199951171875</ele>
        <time>2026-06-19T07:50:47.000Z</time>
        <extensions>
          <ns3:TrackPointExtension>
            <ns3:atemp>19.0</ns3:atemp>
          </ns3:TrackPointExtension>
        </extensions>
      </trkpt>
      <trkpt lat="42.5183375738561153411865234375" lon="19.9771026335656642913818359375">
        <ele>1445.5999755859375</ele>
        <time>2026-06-19T07:50:48.000Z</time>
        <extensions>
          <ns3:TrackPointExtension>
            <ns3:atemp>19.0</ns3:atemp>
          </ns3:TrackPointExtension>
        </extensions>
      </trkpt>
      <trkpt lat="42.51833849586546421051025390625" lon="19.97712249867618083953857421875">
        <ele>1445.800048828125</ele>
        <time>2026-06-19T07:50:49.000Z</time>
        <extensions>
          <ns3:TrackPointExtension>
            <ns3:atemp>19.0</ns3:atemp>
          </ns3:TrackPointExtension>
        </extensions>
      </trkpt>
      <trkpt lat="42.51833849586546421051025390625" lon="19.97714647091925144195556640625">
        <ele>1445.800048828125</ele>
        <time>2026-06-19T07:50:50.000Z</time>
        <extensions>
          <ns3:TrackPointExtension>
            <ns3:atemp>19.0</ns3:atemp>
          </ns3:TrackPointExtension>
        </extensions>
      </trkpt>
      <trkpt lat="42.5183372385799884796142578125" lon="19.97716809622943401336669921875">
        <ele>1446</ele>
        <time>2026-06-19T07:50:51.000Z</time>
        <extensions>
          <ns3:TrackPointExtension>
            <ns3:atemp>19.0</ns3:atemp>
          </ns3:TrackPointExtension>
        </extensions>
      </trkpt>
      <trkpt lat="42.51833380199968814849853515625" lon="19.9771933257579803466796875">
        <ele>1446.199951171875</ele>
        <time>2026-06-19T07:50:52.000Z</time>
        <extensions>
          <ns3:TrackPointExtension>
            <ns3:atemp>19.0</ns3:atemp>
          </ns3:TrackPointExtension>
        </extensions>
      </trkpt>
      <trkpt lat="42.5183285214006900787353515625" lon="19.97721813619136810302734375">
        <ele>1446.4000244140625</ele>
        <time>2026-06-19T07:50:53.000Z</time>
        <extensions>
          <ns3:TrackPointExtension>
            <ns3:atemp>19.0</ns3:atemp>
          </ns3:TrackPointExtension>
        </extensions>
      </trkpt>
      <trkpt lat="42.51832340843975543975830078125" lon="19.9772416055202484130859375">
        <ele>1446.800048828125</ele>
        <time>2026-06-19T07:50:54.000Z</time>
        <extensions>
          <ns3:TrackPointExtension>
            <ns3:atemp>19.0</ns3:atemp>
          </ns3:TrackPointExtension>
        </extensions>
      </trkpt>
      <trkpt lat="42.5183169543743133544921875" lon="19.97726297937333583831787109375">
        <ele>1447</ele>
        <time>2026-06-19T07:50:55.000Z</time>
        <extensions>
          <ns3:TrackPointExtension>
            <ns3:atemp>19.0</ns3:atemp>
          </ns3:TrackPointExtension>
        </extensions>
      </trkpt>
      <trkpt lat="42.51831184141337871551513671875" lon="19.97728376649320125579833984375">
        <ele>1447.199951171875</ele>
        <time>2026-06-19T07:50:56.000Z</time>
        <extensions>
          <ns3:TrackPointExtension>
            <ns3:atemp>19.0</ns3:atemp>
          </ns3:TrackPointExtension>
        </extensions>
      </trkpt>
      <trkpt lat="42.5183107517659664154052734375" lon="19.977306313812732696533203125">
        <ele>1447.4000244140625</ele>
        <time>2026-06-19T07:50:57.000Z</time>
        <extensions>
          <ns3:TrackPointExtension>
            <ns3:atemp>19.0</ns3:atemp>
          </ns3:TrackPointExtension>
        </extensions>
      </trkpt>
      <trkpt lat="42.51830832101404666900634765625" lon="19.97732852585613727569580078125">
        <ele>1447.5999755859375</ele>
        <time>2026-06-19T07:50:58.000Z</time>
        <extensions>
          <ns3:TrackPointExtension>
            <ns3:atemp>19.0</ns3:atemp>
          </ns3:TrackPointExtension>
        </extensions>
      </trkpt>
      <trkpt lat="42.5183053873479366302490234375" lon="19.9773440323770046234130859375">
        <ele>1448</ele>
        <time>2026-06-19T07:50:59.000Z</time>
        <extensions>
          <ns3:TrackPointExtension>
            <ns3:atemp>19.0</ns3:atemp>
          </ns3:TrackPointExtension>
        </extensions>
      </trkpt>
      <trkpt lat="42.5183037109673023223876953125" lon="19.977360628545284271240234375">
        <ele>1448.4000244140625</ele>
        <time>2026-06-19T07:51:00.000Z</time>
        <extensions>
          <ns3:TrackPointExtension>
            <ns3:atemp>19.0</ns3:atemp>
          </ns3:TrackPointExtension>
        </extensions>
      </trkpt>
      <trkpt lat="42.51830295659601688385009765625" lon="19.97738434933125972747802734375">
        <ele>1448.5999755859375</ele>
        <time>2026-06-19T07:51:01.000Z</time>
        <extensions>
          <ns3:TrackPointExtension>
            <ns3:atemp>19.0</ns3:atemp>
          </ns3:TrackPointExtension>
        </extensions>
      </trkpt>
      <trkpt lat="42.51829910092055797576904296875" lon="19.97741200961172580718994140625">
        <ele>1449</ele>
        <time>2026-06-19T07:51:02.000Z</time>
        <extensions>
          <ns3:TrackPointExtension>
            <ns3:atemp>19.0</ns3:atemp>
          </ns3:TrackPointExtension>
        </extensions>
      </trkpt>
      <trkpt lat="42.5182953290641307830810546875" lon="19.97743380255997180938720703125">
        <ele>1449.199951171875</ele>
        <time>2026-06-19T07:51:03.000Z</time>
        <extensions>
          <ns3:TrackPointExtension>
            <ns3:atemp>19.0</ns3:atemp>
          </ns3:TrackPointExtension>
        </extensions>
      </trkpt>
      <trkpt lat="42.5182846002280712127685546875" lon="19.977449141442775726318359375">
        <ele>1449.5999755859375</ele>
        <time>2026-06-19T07:51:04.000Z</time>
        <extensions>
          <ns3:TrackPointExtension>
            <ns3:atemp>19.0</ns3:atemp>
          </ns3:TrackPointExtension>
        </extensions>
      </trkpt>
      <trkpt lat="42.5182742066681385040283203125" lon="19.9774687550961971282958984375">
        <ele>1449.800048828125</ele>
        <time>2026-06-19T07:51:05.000Z</time>
        <extensions>
          <ns3:TrackPointExtension>
            <ns3:atemp>19.0</ns3:atemp>
          </ns3:TrackPointExtension>
        </extensions>
      </trkpt>
      <trkpt lat="42.51826389692723751068115234375" lon="19.97748426161706447601318359375">
        <ele>1450</ele>
        <time>2026-06-19T07:51:06.000Z</time>
        <extensions>
          <ns3:TrackPointExtension>
            <ns3:atemp>19.0</ns3:atemp>
          </ns3:TrackPointExtension>
        </extensions>
      </trkpt>
      <trkpt lat="42.5182584486901760101318359375" lon="19.97750119306147098541259765625">
        <ele>1450.4000244140625</ele>
        <time>2026-06-19T07:51:07.000Z</time>
        <extensions>
          <ns3:TrackPointExtension>
            <ns3:atemp>19.0</ns3:atemp>
          </ns3:TrackPointExtension>
        </extensions>
      </trkpt>
      <trkpt lat="42.51825593411922454833984375" lon="19.97752080671489238739013671875">
        <ele>1450.5999755859375</ele>
        <time>2026-06-19T07:51:08.000Z</time>
        <extensions>
          <ns3:TrackPointExtension>
            <ns3:atemp>19.0</ns3:atemp>
          </ns3:TrackPointExtension>
        </extensions>
      </trkpt>
      <trkpt lat="42.518252916634082794189453125" lon="19.97754645533859729766845703125">
        <ele>1450.800048828125</ele>
        <time>2026-06-19T07:51:09.000Z</time>
        <extensions>
          <ns3:TrackPointExtension>
            <ns3:atemp>19.0</ns3:atemp>
          </ns3:TrackPointExtension>
        </extensions>
      </trkpt>
      <trkpt lat="42.51824981532990932464599609375" lon="19.97756590135395526885986328125">
        <ele>1451.199951171875</ele>
        <time>2026-06-19T07:51:10.000Z</time>
        <extensions>
          <ns3:TrackPointExtension>
            <ns3:atemp>19.0</ns3:atemp>
          </ns3:TrackPointExtension>
        </extensions>
      </trkpt>
      <trkpt lat="42.518245875835418701171875" lon="19.9775901250541210174560546875">
        <ele>1451.4000244140625</ele>
        <time>2026-06-19T07:51:11.000Z</time>
        <extensions>
          <ns3:TrackPointExtension>
            <ns3:atemp>19.0</ns3:atemp>
          </ns3:TrackPointExtension>
        </extensions>
      </trkpt>
      <trkpt lat="42.51824445091187953948974609375" lon="19.97761015780270099639892578125">
        <ele>1451.5999755859375</ele>
        <time>2026-06-19T07:51:12.000Z</time>
        <extensions>
          <ns3:TrackPointExtension>
            <ns3:atemp>19.0</ns3:atemp>
          </ns3:TrackPointExtension>
        </extensions>
      </trkpt>
      <trkpt lat="42.5182416848838329315185546875" lon="19.97763915918767452239990234375">
        <ele>1452</ele>
        <time>2026-06-19T07:51:13.000Z</time>
        <extensions>
          <ns3:TrackPointExtension>
            <ns3:atemp>19.0</ns3:atemp>
          </ns3:TrackPointExtension>
        </extensions>
      </trkpt>
      <trkpt lat="42.5182403437793254852294921875" lon="19.9776652269065380096435546875">
        <ele>1452</ele>
        <time>2026-06-19T07:51:14.000Z</time>
        <extensions>
          <ns3:TrackPointExtension>
            <ns3:atemp>19.0</ns3:atemp>
          </ns3:TrackPointExtension>
        </extensions>
      </trkpt>
      <trkpt lat="42.5182400085031986236572265625" lon="19.97768375091254711151123046875">
        <ele>1452.199951171875</ele>
        <time>2026-06-19T07:51:15.000Z</time>
        <extensions>
          <ns3:TrackPointExtension>
            <ns3:atemp>19.0</ns3:atemp>
          </ns3:TrackPointExtension>
        </extensions>
      </trkpt>
      <trkpt lat="42.51823673956096172332763671875" lon="19.9777027778327465057373046875">
        <ele>1452.5999755859375</ele>
        <time>2026-06-19T07:51:16.000Z</time>
        <extensions>
          <ns3:TrackPointExtension>
            <ns3:atemp>19.0</ns3:atemp>
          </ns3:TrackPointExtension>
        </extensions>
      </trkpt>
      <trkpt lat="42.5182326324284076690673828125" lon="19.9777255766093730926513671875">
        <ele>1452.800048828125</ele>
        <time>2026-06-19T07:51:17.000Z</time>
        <extensions>
          <ns3:TrackPointExtension>
            <ns3:atemp>19.0</ns3:atemp>
          </ns3:TrackPointExtension>
        </extensions>
      </trkpt>
      <trkpt lat="42.51823238097131252288818359375" lon="19.97774259187281131744384765625">
        <ele>1453.199951171875</ele>
        <time>2026-06-19T07:51:18.000Z</time>
        <extensions>
          <ns3:TrackPointExtension>
            <ns3:atemp>19.0</ns3:atemp>
          </ns3:TrackPointExtension>
        </extensions>
      </trkpt>
      <trkpt lat="42.5182333029806613922119140625" lon="19.97775885276496410369873046875">
        <ele>1453.4000244140625</ele>
        <time>2026-06-19T07:51:19.000Z</time>
        <extensions>
          <ns3:TrackPointExtension>
            <ns3:atemp>19.0</ns3:atemp>
          </ns3:TrackPointExtension>
        </extensions>
      </trkpt>
      <trkpt lat="42.51822802238166332244873046875" lon="19.9777765385806560516357421875">
        <ele>1453.800048828125</ele>
        <time>2026-06-19T07:51:20.000Z</time>
        <extensions>
          <ns3:TrackPointExtension>
            <ns3:atemp>19.0</ns3:atemp>
          </ns3:TrackPointExtension>
        </extensions>
      </trkpt>
      <trkpt lat="42.51822450198233127593994140625" lon="19.97779824770987033843994140625">
        <ele>1454</ele>
        <time>2026-06-19T07:51:21.000Z</time>
        <extensions>
          <ns3:TrackPointExtension>
            <ns3:atemp>19.0</ns3:atemp>
          </ns3:TrackPointExtension>
        </extensions>
      </trkpt>
      <trkpt lat="42.518221400678157806396484375" lon="19.97781735844910144805908203125">
        <ele>1454.199951171875</ele>
        <time>2026-06-19T07:51:22.000Z</time>
        <extensions>
          <ns3:TrackPointExtension>
            <ns3:atemp>19.0</ns3:atemp>
          </ns3:TrackPointExtension>
        </extensions>
      </trkpt>
      <trkpt lat="42.5182185508310794830322265625" lon="19.97784317471086978912353515625">
        <ele>1454.4000244140625</ele>
        <time>2026-06-19T07:51:23.000Z</time>
        <extensions>
          <ns3:TrackPointExtension>
            <ns3:atemp>19.0</ns3:atemp>
          </ns3:TrackPointExtension>
        </extensions>
      </trkpt>
      <trkpt lat="42.51821100711822509765625" lon="19.97786278836429119110107421875">
        <ele>1454.800048828125</ele>
        <time>2026-06-19T07:51:24.000Z</time>
        <extensions>
          <ns3:TrackPointExtension>
            <ns3:atemp>19.0</ns3:atemp>
          </ns3:TrackPointExtension>
        </extensions>
      </trkpt>
      <trkpt lat="42.5182056427001953125" lon="19.97788407839834690093994140625">
        <ele>1455</ele>
        <time>2026-06-19T07:51:25.000Z</time>
        <extensions>
          <ns3:TrackPointExtension>
            <ns3:atemp>19.0</ns3:atemp>
          </ns3:TrackPointExtension>
        </extensions>
      </trkpt>
      <trkpt lat="42.51820237375795841217041015625" lon="19.9779046140611171722412109375">
        <ele>1455.199951171875</ele>
        <time>2026-06-19T07:51:26.000Z</time>
        <extensions>
          <ns3:TrackPointExtension>
            <ns3:atemp>19.0</ns3:atemp>
          </ns3:TrackPointExtension>
        </extensions>
      </trkpt>
      <trkpt lat="42.5182017870247364044189453125" lon="19.977923221886157989501953125">
        <ele>1455.4000244140625</ele>
        <time>2026-06-19T07:51:27.000Z</time>
        <extensions>
          <ns3:TrackPointExtension>
            <ns3:atemp>19.0</ns3:atemp>
          </ns3:TrackPointExtension>
        </extensions>
      </trkpt>
      <trkpt lat="42.518199272453784942626953125" lon="19.97794442810118198394775390625">
        <ele>1455.800048828125</ele>
        <time>2026-06-19T07:51:28.000Z</time>
        <extensions>
          <ns3:TrackPointExtension>
            <ns3:atemp>19.0</ns3:atemp>
          </ns3:TrackPointExtension>
        </extensions>
      </trkpt>
      <trkpt lat="42.5182004459202289581298828125" lon="19.9779706634581089019775390625">
        <ele>1456</ele>
        <time>2026-06-19T07:51:29.000Z</time>
        <extensions>
          <ns3:TrackPointExtension>
            <ns3:atemp>19.0</ns3:atemp>
          </ns3:TrackPointExtension>
        </extensions>
      </trkpt>
      <trkpt lat="42.51819348894059658050537109375" lon="19.97799421660602092742919921875">
        <ele>1456.199951171875</ele>
        <time>2026-06-19T07:51:30.000Z</time>
        <extensions>
          <ns3:TrackPointExtension>
            <ns3:atemp>19.0</ns3:atemp>
          </ns3:TrackPointExtension>
        </extensions>
      </trkpt>
      <trkpt lat="42.51819214783608913421630859375" lon="19.97801450081169605255126953125">
        <ele>1456.4000244140625</ele>
        <time>2026-06-19T07:51:31.000Z</time>
        <extensions>
          <ns3:TrackPointExtension>
            <ns3:atemp>19.0</ns3:atemp>
          </ns3:TrackPointExtension>
        </extensions>
      </trkpt>
      <trkpt lat="42.5181897170841693878173828125" lon="19.97803646139800548553466796875">
        <ele>1456.800048828125</ele>
        <time>2026-06-19T07:51:32.000Z</time>
        <extensions>
          <ns3:TrackPointExtension>
            <ns3:atemp>19.0</ns3:atemp>
          </ns3:TrackPointExtension>
        </extensions>
      </trkpt>
      <trkpt lat="42.51818628050386905670166015625" lon="19.97805775143206119537353515625">
        <ele>1457</ele>
        <time>2026-06-19T07:51:33.000Z</time>
        <extensions>
          <ns3:TrackPointExtension>
            <ns3:atemp>19.0</ns3:atemp>
          </ns3:TrackPointExtension>
        </extensions>
      </trkpt>
      <trkpt lat="42.5181853584945201873779296875" lon="19.97807987965643405914306640625">
        <ele>1457.199951171875</ele>
        <time>2026-06-19T07:51:34.000Z</time>
        <extensions>
          <ns3:TrackPointExtension>
            <ns3:atemp>19.0</ns3:atemp>
          </ns3:TrackPointExtension>
        </extensions>
      </trkpt>
      <trkpt lat="42.5181850232183933258056640625" lon="19.97810661792755126953125">
        <ele>1457.4000244140625</ele>
        <time>2026-06-19T07:51:35.000Z</time>
        <extensions>
          <ns3:TrackPointExtension>
            <ns3:atemp>19.0</ns3:atemp>
          </ns3:TrackPointExtension>
        </extensions>
      </trkpt>
      <trkpt lat="42.51818393357098102569580078125" lon="19.97812430374324321746826171875">
        <ele>1457.5999755859375</ele>
        <time>2026-06-19T07:51:36.000Z</time>
        <extensions>
          <ns3:TrackPointExtension>
            <ns3:atemp>19.0</ns3:atemp>
          </ns3:TrackPointExtension>
        </extensions>
      </trkpt>
      <trkpt lat="42.51818242482841014862060546875" lon="19.97814257629215717315673828125">
        <ele>1458</ele>
        <time>2026-06-19T07:51:37.000Z</time>
        <extensions>
          <ns3:TrackPointExtension>
            <ns3:atemp>19.0</ns3:atemp>
          </ns3:TrackPointExtension>
        </extensions>
      </trkpt>
      <trkpt lat="42.51818108372390270233154296875" lon="19.97816286049783229827880859375">
        <ele>1458.199951171875</ele>
        <time>2026-06-19T07:51:38.000Z</time>
        <extensions>
          <ns3:TrackPointExtension>
            <ns3:atemp>19.0</ns3:atemp>
          </ns3:TrackPointExtension>
        </extensions>
      </trkpt>
      <trkpt lat="42.51817504875361919403076171875" lon="19.97818532399833202362060546875">
        <ele>1458.4000244140625</ele>
        <time>2026-06-19T07:51:39.000Z</time>
        <extensions>
          <ns3:TrackPointExtension>
            <ns3:atemp>19.0</ns3:atemp>
          </ns3:TrackPointExtension>
        </extensions>
      </trkpt>
      <trkpt lat="42.51817571930587291717529296875" lon="19.978207536041736602783203125">
        <ele>1458.800048828125</ele>
        <time>2026-06-19T07:51:40.000Z</time>
        <extensions>
          <ns3:TrackPointExtension>
            <ns3:atemp>19.0</ns3:atemp>
          </ns3:TrackPointExtension>
        </extensions>
      </trkpt>
      <trkpt lat="42.5181739591062068939208984375" lon="19.9782378785312175750732421875">
        <ele>1459</ele>
        <time>2026-06-19T07:51:41.000Z</time>
        <extensions>
          <ns3:TrackPointExtension>
            <ns3:atemp>19.0</ns3:atemp>
          </ns3:TrackPointExtension>
        </extensions>
      </trkpt>
      <trkpt lat="42.518173791468143463134765625" lon="19.97825757600367069244384765625">
        <ele>1459.199951171875</ele>
        <time>2026-06-19T07:51:42.000Z</time>
        <extensions>
          <ns3:TrackPointExtension>
            <ns3:atemp>19.0</ns3:atemp>
          </ns3:TrackPointExtension>
        </extensions>
      </trkpt>
      <trkpt lat="42.51817052252590656280517578125" lon="19.978285320103168487548828125">
        <ele>1459.5999755859375</ele>
        <time>2026-06-19T07:51:43.000Z</time>
        <extensions>
          <ns3:TrackPointExtension>
            <ns3:atemp>19.0</ns3:atemp>
          </ns3:TrackPointExtension>
        </extensions>
      </trkpt>
      <trkpt lat="42.5181722827255725860595703125" lon="19.9783091247081756591796875">
        <ele>1459.800048828125</ele>
        <time>2026-06-19T07:51:44.000Z</time>
        <extensions>
          <ns3:TrackPointExtension>
            <ns3:atemp>19.0</ns3:atemp>
          </ns3:TrackPointExtension>
        </extensions>
      </trkpt>
      <trkpt lat="42.51817052252590656280517578125" lon="19.97833955101668834686279296875">
        <ele>1460.199951171875</ele>
        <time>2026-06-19T07:51:45.000Z</time>
        <extensions>
          <ns3:TrackPointExtension>
            <ns3:atemp>19.0</ns3:atemp>
          </ns3:TrackPointExtension>
        </extensions>
      </trkpt>
      <trkpt lat="42.51817286945879459381103515625" lon="19.97836771421134471893310546875">
        <ele>1460.4000244140625</ele>
        <time>2026-06-19T07:51:46.000Z</time>
        <extensions>
          <ns3:TrackPointExtension>
            <ns3:atemp>19.0</ns3:atemp>
          </ns3:TrackPointExtension>
        </extensions>
      </trkpt>
      <trkpt lat="42.5181796588003635406494140625" lon="19.97839051298797130584716796875">
        <ele>1460.5999755859375</ele>
        <time>2026-06-19T07:51:47.000Z</time>
        <extensions>
          <ns3:TrackPointExtension>
            <ns3:atemp>19.0</ns3:atemp>
          </ns3:TrackPointExtension>
        </extensions>
      </trkpt>
      <trkpt lat="42.51819265075027942657470703125" lon="19.9784189276397228240966796875">
        <ele>1461</ele>
        <time>2026-06-19T07:51:48.000Z</time>
        <extensions>
          <ns3:TrackPointExtension>
            <ns3:atemp>19.0</ns3:atemp>
          </ns3:TrackPointExtension>
        </extensions>
      </trkpt>
      <trkpt lat="42.51820237375795841217041015625" lon="19.97844097204506397247314453125">
        <ele>1461.199951171875</ele>
        <time>2026-06-19T07:51:49.000Z</time>
        <extensions>
          <ns3:TrackPointExtension>
            <ns3:atemp>19.0</ns3:atemp>
          </ns3:TrackPointExtension>
        </extensions>
      </trkpt>
      <trkpt lat="42.51821679063141345977783203125" lon="19.97845756821334362030029296875">
        <ele>1461.4000244140625</ele>
        <time>2026-06-19T07:51:50.000Z</time>
        <extensions>
          <ns3:TrackPointExtension>
            <ns3:atemp>19.0</ns3:atemp>
          </ns3:TrackPointExtension>
        </extensions>
      </trkpt>
      <trkpt lat="42.51822617836296558380126953125" lon="19.9784638546407222747802734375">
        <ele>1461.800048828125</ele>
        <time>2026-06-19T07:51:51.000Z</time>
        <extensions>
          <ns3:TrackPointExtension>
            <ns3:atemp>19.0</ns3:atemp>
          </ns3:TrackPointExtension>
        </extensions>
      </trkpt>
      <trkpt lat="42.51823539845645427703857421875" lon="19.97846628539264202117919921875">
        <ele>1462</ele>
        <time>2026-06-19T07:51:52.000Z</time>
        <extensions>
          <ns3:TrackPointExtension>
            <ns3:atemp>19.0</ns3:atemp>
          </ns3:TrackPointExtension>
        </extensions>
      </trkpt>
      <trkpt lat="42.518247552216053009033203125" lon="19.97847047634422779083251953125">
        <ele>1462.199951171875</ele>
        <time>2026-06-19T07:51:53.000Z</time>
        <extensions>
          <ns3:TrackPointExtension>
            <ns3:atemp>19.0</ns3:atemp>
          </ns3:TrackPointExtension>
        </extensions>
      </trkpt>
      <trkpt lat="42.51826372928917407989501953125" lon="19.9784695543348789215087890625">
        <ele>1462.4000244140625</ele>
        <time>2026-06-19T07:51:54.000Z</time>
        <extensions>
          <ns3:TrackPointExtension>
            <ns3:atemp>19.0</ns3:atemp>
          </ns3:TrackPointExtension>
        </extensions>
      </trkpt>
      <trkpt lat="42.51827596686780452728271484375" lon="19.97846729122102260589599609375">
        <ele>1462.5999755859375</ele>
        <time>2026-06-19T07:51:55.000Z</time>
        <extensions>
          <ns3:TrackPointExtension>
            <ns3:atemp>19.0</ns3:atemp>
          </ns3:TrackPointExtension>
        </extensions>
      </trkpt>
      <trkpt lat="42.51829004846513271331787109375" lon="19.97845740057528018951416015625">
        <ele>1463</ele>
        <time>2026-06-19T07:51:56.000Z</time>
        <extensions>
          <ns3:TrackPointExtension>
            <ns3:atemp>19.0</ns3:atemp>
          </ns3:TrackPointExtension>
        </extensions>
      </trkpt>
      <trkpt lat="42.5182928144931793212890625" lon="19.97843745164573192596435546875">
        <ele>1463.4000244140625</ele>
        <time>2026-06-19T07:51:57.000Z</time>
        <extensions>
          <ns3:TrackPointExtension>
            <ns3:atemp>19.0</ns3:atemp>
          </ns3:TrackPointExtension>
        </extensions>
      </trkpt>
      <trkpt lat="42.5182939879596233367919921875" lon="19.97841683216392993927001953125">
        <ele>1463.5999755859375</ele>
        <time>2026-06-19T07:51:58.000Z</time>
        <extensions>
          <ns3:TrackPointExtension>
            <ns3:atemp>19.0</ns3:atemp>
          </ns3:TrackPointExtension>
        </extensions>
      </trkpt>
      <trkpt lat="42.51828954555094242095947265625" lon="19.97839537449181079864501953125">
        <ele>1463.800048828125</ele>
        <time>2026-06-19T07:51:59.000Z</time>
        <extensions>
          <ns3:TrackPointExtension>
            <ns3:atemp>19.0</ns3:atemp>
          </ns3:TrackPointExtension>
        </extensions>
      </trkpt>
      <trkpt lat="42.51829323358833789825439453125" lon="19.97837483882904052734375">
        <ele>1464</ele>
        <time>2026-06-19T07:52:00.000Z</time>
        <extensions>
          <ns3:TrackPointExtension>
            <ns3:atemp>19.0</ns3:atemp>
          </ns3:TrackPointExtension>
        </extensions>
      </trkpt>
      <trkpt lat="42.5183003582060337066650390625" lon="19.97835715301334857940673828125">
        <ele>1464.199951171875</ele>
        <time>2026-06-19T07:52:01.000Z</time>
        <extensions>
          <ns3:TrackPointExtension>
            <ns3:atemp>19.0</ns3:atemp>
          </ns3:TrackPointExtension>
        </extensions>
      </trkpt>
      <trkpt lat="42.518301196396350860595703125" lon="19.978340975940227508544921875">
        <ele>1464.4000244140625</ele>
        <time>2026-06-19T07:52:02.000Z</time>
        <extensions>
          <ns3:TrackPointExtension>
            <ns3:atemp>19.0</ns3:atemp>
          </ns3:TrackPointExtension>
        </extensions>
      </trkpt>
      <trkpt lat="42.51830823719501495361328125" lon="19.9783200211822986602783203125">
        <ele>1464.800048828125</ele>
        <time>2026-06-19T07:52:03.000Z</time>
        <extensions>
          <ns3:TrackPointExtension>
            <ns3:atemp>19.0</ns3:atemp>
          </ns3:TrackPointExtension>
        </extensions>
      </trkpt>
      <trkpt lat="42.5183141045272350311279296875" lon="19.97829797677695751190185546875">
        <ele>1465.199951171875</ele>
        <time>2026-06-19T07:52:04.000Z</time>
        <extensions>
          <ns3:TrackPointExtension>
            <ns3:atemp>19.0</ns3:atemp>
          </ns3:TrackPointExtension>
        </extensions>
      </trkpt>
      <trkpt lat="42.518321312963962554931640625" lon="19.97827283106744289398193359375">
        <ele>1465.4000244140625</ele>
        <time>2026-06-19T07:52:05.000Z</time>
        <extensions>
          <ns3:TrackPointExtension>
            <ns3:atemp>19.0</ns3:atemp>
          </ns3:TrackPointExtension>
        </extensions>
      </trkpt>
      <trkpt lat="42.51833044923841953277587890625" lon="19.97824483551084995269775390625">
        <ele>1465.5999755859375</ele>
        <time>2026-06-19T07:52:06.000Z</time>
        <extensions>
          <ns3:TrackPointExtension>
            <ns3:atemp>19.0</ns3:atemp>
          </ns3:TrackPointExtension>
        </extensions>
      </trkpt>
      <trkpt lat="42.518341429531574249267578125" lon="19.97821482829749584197998046875">
        <ele>1465.800048828125</ele>
        <time>2026-06-19T07:52:07.000Z</time>
        <extensions>
          <ns3:TrackPointExtension>
            <ns3:atemp>19.0</ns3:atemp>
          </ns3:TrackPointExtension>
        </extensions>
      </trkpt>
      <trkpt lat="42.51835207454860210418701171875" lon="19.97818909585475921630859375">
        <ele>1466.199951171875</ele>
        <time>2026-06-19T07:52:08.000Z</time>
        <extensions>
          <ns3:TrackPointExtension>
            <ns3:atemp>19.0</ns3:atemp>
          </ns3:TrackPointExtension>
        </extensions>
      </trkpt>
      <trkpt lat="42.51836196519434452056884765625" lon="19.97816872783005237579345703125">
        <ele>1466.4000244140625</ele>
        <time>2026-06-19T07:52:09.000Z</time>
        <extensions>
          <ns3:TrackPointExtension>
            <ns3:atemp>19.0</ns3:atemp>
          </ns3:TrackPointExtension>
        </extensions>
      </trkpt>
      <trkpt lat="42.51837152056396007537841796875" lon="19.9781503714621067047119140625">
        <ele>1466.800048828125</ele>
        <time>2026-06-19T07:52:10.000Z</time>
        <extensions>
          <ns3:TrackPointExtension>
            <ns3:atemp>19.0</ns3:atemp>
          </ns3:TrackPointExtension>
        </extensions>
      </trkpt>
      <trkpt lat="42.51837554387748241424560546875" lon="19.97813084162771701812744140625">
        <ele>1467</ele>
        <time>2026-06-19T07:52:11.000Z</time>
        <extensions>
          <ns3:TrackPointExtension>
            <ns3:atemp>19.0</ns3:atemp>
          </ns3:TrackPointExtension>
        </extensions>
      </trkpt>
      <trkpt lat="42.51838409341871738433837890625" lon="19.9781051091849803924560546875">
        <ele>1467.199951171875</ele>
        <time>2026-06-19T07:52:12.000Z</time>
        <extensions>
          <ns3:TrackPointExtension>
            <ns3:atemp>19.0</ns3:atemp>
          </ns3:TrackPointExtension>
        </extensions>
      </trkpt>
      <trkpt lat="42.51839297823607921600341796875" lon="19.97808180749416351318359375">
        <ele>1467.4000244140625</ele>
        <time>2026-06-19T07:52:13.000Z</time>
        <extensions>
          <ns3:TrackPointExtension>
            <ns3:atemp>19.0</ns3:atemp>
          </ns3:TrackPointExtension>
        </extensions>
      </trkpt>
      <trkpt lat="42.51840739510953426361083984375" lon="19.97805993072688579559326171875">
        <ele>1467.4000244140625</ele>
        <time>2026-06-19T07:52:14.000Z</time>
        <extensions>
          <ns3:TrackPointExtension>
            <ns3:atemp>19.0</ns3:atemp>
          </ns3:TrackPointExtension>
        </extensions>
      </trkpt>
      <trkpt lat="42.5184187106788158416748046875" lon="19.97804400511085987091064453125">
        <ele>1467.5999755859375</ele>
        <time>2026-06-19T07:52:15.000Z</time>
        <extensions>
          <ns3:TrackPointExtension>
            <ns3:atemp>19.0</ns3:atemp>
          </ns3:TrackPointExtension>
        </extensions>
      </trkpt>
      <trkpt lat="42.51843287609517574310302734375" lon="19.97803227044641971588134765625">
        <ele>1467.5999755859375</ele>
        <time>2026-06-19T07:52:16.000Z</time>
        <extensions>
          <ns3:TrackPointExtension>
            <ns3:atemp>19.0</ns3:atemp>
          </ns3:TrackPointExtension>
        </extensions>
      </trkpt>
      <trkpt lat="42.51844796352088451385498046875" lon="19.97802011668682098388671875">
        <ele>1467.800048828125</ele>
        <time>2026-06-19T07:52:17.000Z</time>
        <extensions>
          <ns3:TrackPointExtension>
            <ns3:atemp>19.0</ns3:atemp>
          </ns3:TrackPointExtension>
        </extensions>
      </trkpt>
      <trkpt lat="42.51846053637564182281494140625" lon="19.9780058674514293670654296875">
        <ele>1467.800048828125</ele>
        <time>2026-06-19T07:52:18.000Z</time>
        <extensions>
          <ns3:TrackPointExtension>
            <ns3:atemp>19.0</ns3:atemp>
          </ns3:TrackPointExtension>
        </extensions>
      </trkpt>
      <trkpt lat="42.518472857773303985595703125" lon="19.9779907800257205963134765625">
        <ele>1467.800048828125</ele>
        <time>2026-06-19T07:52:19.000Z</time>
        <extensions>
          <ns3:TrackPointExtension>
            <ns3:atemp>19.0</ns3:atemp>
          </ns3:TrackPointExtension>
        </extensions>
      </trkpt>
      <trkpt lat="42.518486939370632171630859375" lon="19.97797694988548755645751953125">
        <ele>1467.800048828125</ele>
        <time>2026-06-19T07:52:20.000Z</time>
        <extensions>
          <ns3:TrackPointExtension>
            <ns3:atemp>19.0</ns3:atemp>
          </ns3:TrackPointExtension>
        </extensions>
      </trkpt>
      <trkpt lat="42.5185020267963409423828125" lon="19.97796001844108104705810546875">
        <ele>1468</ele>
        <time>2026-06-19T07:52:21.000Z</time>
        <extensions>
          <ns3:TrackPointExtension>
            <ns3:atemp>19.0</ns3:atemp>
          </ns3:TrackPointExtension>
        </extensions>
      </trkpt>
      <trkpt lat="42.51851468347012996673583984375" lon="19.97794291935861110687255859375">
        <ele>1468</ele>
        <time>2026-06-19T07:52:22.000Z</time>
        <extensions>
          <ns3:TrackPointExtension>
            <ns3:atemp>19.0</ns3:atemp>
          </ns3:TrackPointExtension>
        </extensions>
      </trkpt>
      <trkpt lat="42.51852625049650669097900390625" lon="19.97792221605777740478515625">
        <ele>1468</ele>
        <time>2026-06-19T07:52:23.000Z</time>
        <extensions>
          <ns3:TrackPointExtension>
            <ns3:atemp>19.0</ns3:atemp>
          </ns3:TrackPointExtension>
        </extensions>
      </trkpt>
      <trkpt lat="42.5185410864651203155517578125" lon="19.9779036082327365875244140625">
        <ele>1468.199951171875</ele>
        <time>2026-06-19T07:52:24.000Z</time>
        <extensions>
          <ns3:TrackPointExtension>
            <ns3:atemp>19.0</ns3:atemp>
          </ns3:TrackPointExtension>
        </extensions>
      </trkpt>
      <trkpt lat="42.51855826936662197113037109375" lon="19.9778851680457592010498046875">
        <ele>1468.199951171875</ele>
        <time>2026-06-19T07:52:25.000Z</time>
        <extensions>
          <ns3:TrackPointExtension>
            <ns3:atemp>19.0</ns3:atemp>
          </ns3:TrackPointExtension>
        </extensions>
      </trkpt>
      <trkpt lat="42.518568076193332672119140625" lon="19.97786588966846466064453125">
        <ele>1468.4000244140625</ele>
        <time>2026-06-19T07:52:26.000Z</time>
        <extensions>
          <ns3:TrackPointExtension>
            <ns3:atemp>19.0</ns3:atemp>
          </ns3:TrackPointExtension>
        </extensions>
      </trkpt>
      <trkpt lat="42.5185816548764705657958984375" lon="19.977846108376979827880859375">
        <ele>1468.4000244140625</ele>
        <time>2026-06-19T07:52:27.000Z</time>
        <extensions>
          <ns3:TrackPointExtension>
            <ns3:atemp>19.0</ns3:atemp>
          </ns3:TrackPointExtension>
        </extensions>
      </trkpt>
      <trkpt lat="42.5185960717499256134033203125" lon="19.97782976366579532623291015625">
        <ele>1468.5999755859375</ele>
        <time>2026-06-19T07:52:28.000Z</time>
        <extensions>
          <ns3:TrackPointExtension>
            <ns3:atemp>19.0</ns3:atemp>
          </ns3:TrackPointExtension>
        </extensions>
      </trkpt>
      <trkpt lat="42.5186101533472537994384765625" lon="19.97781568206846714019775390625">
        <ele>1468.5999755859375</ele>
        <time>2026-06-19T07:52:29.000Z</time>
        <extensions>
          <ns3:TrackPointExtension>
            <ns3:atemp>19.0</ns3:atemp>
          </ns3:TrackPointExtension>
        </extensions>
      </trkpt>
      <trkpt lat="42.51861945725977420806884765625" lon="19.97780478559434413909912109375">
        <ele>1468.800048828125</ele>
        <time>2026-06-19T07:52:30.000Z</time>
        <extensions>
          <ns3:TrackPointExtension>
            <ns3:atemp>19.0</ns3:atemp>
          </ns3:TrackPointExtension>
        </extensions>
      </trkpt>
      <trkpt lat="42.51863035373389720916748046875" lon="19.977792464196681976318359375">
        <ele>1468.800048828125</ele>
        <time>2026-06-19T07:52:31.000Z</time>
        <extensions>
          <ns3:TrackPointExtension>
            <ns3:atemp>19.0</ns3:atemp>
          </ns3:TrackPointExtension>
        </extensions>
      </trkpt>
      <trkpt lat="42.5186436809599399566650390625" lon="19.97777846641838550567626953125">
        <ele>1468.800048828125</ele>
        <time>2026-06-19T07:52:32.000Z</time>
        <extensions>
          <ns3:TrackPointExtension>
            <ns3:atemp>19.0</ns3:atemp>
          </ns3:TrackPointExtension>
        </extensions>
      </trkpt>
      <trkpt lat="42.5186574272811412811279296875" lon="19.9777619540691375732421875">
        <ele>1469</ele>
        <time>2026-06-19T07:52:33.000Z</time>
        <extensions>
          <ns3:TrackPointExtension>
            <ns3:atemp>19.0</ns3:atemp>
          </ns3:TrackPointExtension>
        </extensions>
      </trkpt>
      <trkpt lat="42.5186731852591037750244140625" lon="19.97774653136730194091796875">
        <ele>1469</ele>
        <time>2026-06-19T07:52:34.000Z</time>
        <extensions>
          <ns3:TrackPointExtension>
            <ns3:atemp>19.0</ns3:atemp>
          </ns3:TrackPointExtension>
        </extensions>
      </trkpt>
      <trkpt lat="42.51868852414190769195556640625" lon="19.97772951610386371612548828125">
        <ele>1469.199951171875</ele>
        <time>2026-06-19T07:52:35.000Z</time>
        <extensions>
          <ns3:TrackPointExtension>
            <ns3:atemp>19.0</ns3:atemp>
          </ns3:TrackPointExtension>
        </extensions>
      </trkpt>
      <trkpt lat="42.518699504435062408447265625" lon="19.97770822606980800628662109375">
        <ele>1469.4000244140625</ele>
        <time>2026-06-19T07:52:36.000Z</time>
        <extensions>
          <ns3:TrackPointExtension>
            <ns3:atemp>19.0</ns3:atemp>
          </ns3:TrackPointExtension>
        </extensions>
      </trkpt>
      <trkpt lat="42.5187117420136928558349609375" lon="19.977690540254116058349609375">
        <ele>1469.4000244140625</ele>
        <time>2026-06-19T07:52:37.000Z</time>
        <extensions>
          <ns3:TrackPointExtension>
            <ns3:atemp>19.0</ns3:atemp>
          </ns3:TrackPointExtension>
        </extensions>
      </trkpt>
      <trkpt lat="42.5187261588871479034423828125" lon="19.97767411172389984130859375">
        <ele>1469.5999755859375</ele>
        <time>2026-06-19T07:52:38.000Z</time>
        <extensions>
          <ns3:TrackPointExtension>
            <ns3:atemp>19.0</ns3:atemp>
          </ns3:TrackPointExtension>
        </extensions>
      </trkpt>
      <trkpt lat="42.51873931847512722015380859375" lon="19.97765692882239818572998046875">
        <ele>1469.5999755859375</ele>
        <time>2026-06-19T07:52:39.000Z</time>
        <extensions>
          <ns3:TrackPointExtension>
            <ns3:atemp>19.0</ns3:atemp>
          </ns3:TrackPointExtension>
        </extensions>
      </trkpt>
      <trkpt lat="42.51875080168247222900390625" lon="19.97763798572123050689697265625">
        <ele>1469.800048828125</ele>
        <time>2026-06-19T07:52:40.000Z</time>
        <extensions>
          <ns3:TrackPointExtension>
            <ns3:atemp>19.0</ns3:atemp>
          </ns3:TrackPointExtension>
        </extensions>
      </trkpt>
      <trkpt lat="42.51876295544207096099853515625" lon="19.97761954553425312042236328125">
        <ele>1470</ele>
        <time>2026-06-19T07:52:41.000Z</time>
        <extensions>
          <ns3:TrackPointExtension>
            <ns3:atemp>19.0</ns3:atemp>
          </ns3:TrackPointExtension>
        </extensions>
      </trkpt>
      <trkpt lat="42.51877519302070140838623046875" lon="19.977605380117893218994140625">
        <ele>1470.199951171875</ele>
        <time>2026-06-19T07:52:42.000Z</time>
        <extensions>
          <ns3:TrackPointExtension>
            <ns3:atemp>19.0</ns3:atemp>
          </ns3:TrackPointExtension>
        </extensions>
      </trkpt>
      <trkpt lat="42.5187925435602664947509765625" lon="19.97759406454861164093017578125">
        <ele>1470.199951171875</ele>
        <time>2026-06-19T07:52:43.000Z</time>
        <extensions>
          <ns3:TrackPointExtension>
            <ns3:atemp>19.0</ns3:atemp>
          </ns3:TrackPointExtension>
        </extensions>
      </trkpt>
      <trkpt lat="42.51880855299532413482666015625" lon="19.9775849282741546630859375">
        <ele>1470.4000244140625</ele>
        <time>2026-06-19T07:52:44.000Z</time>
        <extensions>
          <ns3:TrackPointExtension>
            <ns3:atemp>19.0</ns3:atemp>
          </ns3:TrackPointExtension>
        </extensions>
      </trkpt>
      <trkpt lat="42.51882498152554035186767578125" lon="19.9775787256658077239990234375">
        <ele>1470.5999755859375</ele>
        <time>2026-06-19T07:52:45.000Z</time>
        <extensions>
          <ns3:TrackPointExtension>
            <ns3:atemp>19.0</ns3:atemp>
          </ns3:TrackPointExtension>
        </extensions>
      </trkpt>
      <trkpt lat="42.51884308643639087677001953125" lon="19.9775804020464420318603515625">
        <ele>1471</ele>
        <time>2026-06-19T07:52:46.000Z</time>
        <extensions>
          <ns3:TrackPointExtension>
            <ns3:atemp>19.0</ns3:atemp>
          </ns3:TrackPointExtension>
        </extensions>
      </trkpt>
      <trkpt lat="42.5188616104423999786376953125" lon="19.97758216224610805511474609375">
        <ele>1471.199951171875</ele>
        <time>2026-06-19T07:52:47.000Z</time>
        <extensions>
          <ns3:TrackPointExtension>
            <ns3:atemp>19.0</ns3:atemp>
          </ns3:TrackPointExtension>
        </extensions>
      </trkpt>
      <trkpt lat="42.5188775360584259033203125" lon="19.97759104706346988677978515625">
        <ele>1471.4000244140625</ele>
        <time>2026-06-19T07:52:48.000Z</time>
        <extensions>
          <ns3:TrackPointExtension>
            <ns3:atemp>19.0</ns3:atemp>
          </ns3:TrackPointExtension>
        </extensions>
      </trkpt>
      <trkpt lat="42.5188857503235340118408203125" lon="19.97760278172791004180908203125">
        <ele>1471.800048828125</ele>
        <time>2026-06-19T07:52:49.000Z</time>
        <extensions>
          <ns3:TrackPointExtension>
            <ns3:atemp>19.0</ns3:atemp>
          </ns3:TrackPointExtension>
        </extensions>
      </trkpt>
      <trkpt lat="42.51889086328446865081787109375" lon="19.97761568985879421234130859375">
        <ele>1472.199951171875</ele>
        <time>2026-06-19T07:52:50.000Z</time>
        <extensions>
          <ns3:TrackPointExtension>
            <ns3:atemp>19.0</ns3:atemp>
          </ns3:TrackPointExtension>
        </extensions>
      </trkpt>
      <trkpt lat="42.5188934616744518280029296875" lon="19.97763697989284992218017578125">
        <ele>1472.5999755859375</ele>
        <time>2026-06-19T07:52:51.000Z</time>
        <extensions>
          <ns3:TrackPointExtension>
            <ns3:atemp>19.0</ns3:atemp>
          </ns3:TrackPointExtension>
        </extensions>
      </trkpt>
      <trkpt lat="42.518893294036388397216796875" lon="19.9776534922420978546142578125">
        <ele>1473</ele>
        <time>2026-06-19T07:52:52.000Z</time>
        <extensions>
          <ns3:TrackPointExtension>
            <ns3:atemp>19.0</ns3:atemp>
          </ns3:TrackPointExtension>
        </extensions>
      </trkpt>
      <trkpt lat="42.51889438368380069732666015625" lon="19.97767235152423381805419921875">
        <ele>1473.5999755859375</ele>
        <time>2026-06-19T07:52:53.000Z</time>
        <extensions>
          <ns3:TrackPointExtension>
            <ns3:atemp>19.0</ns3:atemp>
          </ns3:TrackPointExtension>
        </extensions>
      </trkpt>
      <trkpt lat="42.51889136619865894317626953125" lon="19.9776868522167205810546875">
        <ele>1474</ele>
        <time>2026-06-19T07:52:54.000Z</time>
        <extensions>
          <ns3:TrackPointExtension>
            <ns3:atemp>19.0</ns3:atemp>
          </ns3:TrackPointExtension>
        </extensions>
      </trkpt>
      <trkpt lat="42.518883906304836273193359375" lon="19.9777007661759853363037109375">
        <ele>1474.4000244140625</ele>
        <time>2026-06-19T07:52:55.000Z</time>
        <extensions>
          <ns3:TrackPointExtension>
            <ns3:atemp>19.0</ns3:atemp>
          </ns3:TrackPointExtension>
        </extensions>
      </trkpt>
      <trkpt lat="42.51887954771518707275390625" lon="19.97771694324910640716552734375">
        <ele>1474.5999755859375</ele>
        <time>2026-06-19T07:52:56.000Z</time>
        <extensions>
          <ns3:TrackPointExtension>
            <ns3:atemp>19.0</ns3:atemp>
          </ns3:TrackPointExtension>
        </extensions>
      </trkpt>
      <trkpt lat="42.51887694932520389556884765625" lon="19.97773714363574981689453125">
        <ele>1475</ele>
        <time>2026-06-19T07:52:57.000Z</time>
        <extensions>
          <ns3:TrackPointExtension>
            <ns3:atemp>19.0</ns3:atemp>
          </ns3:TrackPointExtension>
        </extensions>
      </trkpt>
      <trkpt lat="42.51887150108814239501953125" lon="19.97776086442172527313232421875">
        <ele>1475.199951171875</ele>
        <time>2026-06-19T07:52:58.000Z</time>
        <extensions>
          <ns3:TrackPointExtension>
            <ns3:atemp>19.0</ns3:atemp>
          </ns3:TrackPointExtension>
        </extensions>
      </trkpt>
      <trkpt lat="42.518866471946239471435546875" lon="19.97778064571321010589599609375">
        <ele>1475.4000244140625</ele>
        <time>2026-06-19T07:52:59.000Z</time>
        <extensions>
          <ns3:TrackPointExtension>
            <ns3:atemp>19.0</ns3:atemp>
          </ns3:TrackPointExtension>
        </extensions>
      </trkpt>
      <trkpt lat="42.51885917969048023223876953125" lon="19.9778050370514392852783203125">
        <ele>1475.5999755859375</ele>
        <time>2026-06-19T07:53:00.000Z</time>
        <extensions>
          <ns3:TrackPointExtension>
            <ns3:atemp>19.0</ns3:atemp>
          </ns3:TrackPointExtension>
        </extensions>
      </trkpt>
      <trkpt lat="42.518849708139896392822265625" lon="19.9778278358280658721923828125">
        <ele>1475.800048828125</ele>
        <time>2026-06-19T07:53:01.000Z</time>
        <extensions>
          <ns3:TrackPointExtension>
            <ns3:atemp>19.0</ns3:atemp>
          </ns3:TrackPointExtension>
        </extensions>
      </trkpt>
      <trkpt lat="42.51884157769381999969482421875" lon="19.9778486229479312896728515625">
        <ele>1476</ele>
        <time>2026-06-19T07:53:02.000Z</time>
        <extensions>
          <ns3:TrackPointExtension>
            <ns3:atemp>19.0</ns3:atemp>
          </ns3:TrackPointExtension>
        </extensions>
      </trkpt>
      <trkpt lat="42.51883470453321933746337890625" lon="19.9778734333813190460205078125">
        <ele>1476.4000244140625</ele>
        <time>2026-06-19T07:53:03.000Z</time>
        <extensions>
          <ns3:TrackPointExtension>
            <ns3:atemp>19.0</ns3:atemp>
          </ns3:TrackPointExtension>
        </extensions>
      </trkpt>
      <trkpt lat="42.518829591572284698486328125" lon="19.9778995849192142486572265625">
        <ele>1476.5999755859375</ele>
        <time>2026-06-19T07:53:04.000Z</time>
        <extensions>
          <ns3:TrackPointExtension>
            <ns3:atemp>19.0</ns3:atemp>
          </ns3:TrackPointExtension>
        </extensions>
      </trkpt>
      <trkpt lat="42.51882313750684261322021484375" lon="19.97792447917163372039794921875">
        <ele>1476.800048828125</ele>
        <time>2026-06-19T07:53:05.000Z</time>
        <extensions>
          <ns3:TrackPointExtension>
            <ns3:atemp>19.0</ns3:atemp>
          </ns3:TrackPointExtension>
        </extensions>
      </trkpt>
      <trkpt lat="42.51881861127912998199462890625" lon="19.9779492057859897613525390625">
        <ele>1477.199951171875</ele>
        <time>2026-06-19T07:53:06.000Z</time>
        <extensions>
          <ns3:TrackPointExtension>
            <ns3:atemp>19.0</ns3:atemp>
          </ns3:TrackPointExtension>
        </extensions>
      </trkpt>
      <trkpt lat="42.5188158452510833740234375" lon="19.97797410003840923309326171875">
        <ele>1477.4000244140625</ele>
        <time>2026-06-19T07:53:07.000Z</time>
        <extensions>
          <ns3:TrackPointExtension>
            <ns3:atemp>19.0</ns3:atemp>
          </ns3:TrackPointExtension>
        </extensions>
      </trkpt>
      <trkpt lat="42.51881827600300312042236328125" lon="19.9780005030333995819091796875">
        <ele>1477.5999755859375</ele>
        <time>2026-06-19T07:53:08.000Z</time>
        <extensions>
          <ns3:TrackPointExtension>
            <ns3:atemp>19.0</ns3:atemp>
          </ns3:TrackPointExtension>
        </extensions>
      </trkpt>
      <trkpt lat="42.51881777308881282806396484375" lon="19.9780266545712947845458984375">
        <ele>1477.800048828125</ele>
        <time>2026-06-19T07:53:09.000Z</time>
        <extensions>
          <ns3:TrackPointExtension>
            <ns3:atemp>19.0</ns3:atemp>
          </ns3:TrackPointExtension>
        </extensions>
      </trkpt>
      <trkpt lat="42.51881274394690990447998046875" lon="19.978049285709857940673828125">
        <ele>1478</ele>
        <time>2026-06-19T07:53:10.000Z</time>
        <extensions>
          <ns3:TrackPointExtension>
            <ns3:atemp>19.0</ns3:atemp>
          </ns3:TrackPointExtension>
        </extensions>
      </trkpt>
      <trkpt lat="42.51880436204373836517333984375" lon="19.97807149775326251983642578125">
        <ele>1478.199951171875</ele>
        <time>2026-06-19T07:53:11.000Z</time>
        <extensions>
          <ns3:TrackPointExtension>
            <ns3:atemp>19.0</ns3:atemp>
          </ns3:TrackPointExtension>
        </extensions>
      </trkpt>
      <trkpt lat="42.51880067400634288787841796875" lon="19.97809664346277713775634765625">
        <ele>1478.4000244140625</ele>
        <time>2026-06-19T07:53:12.000Z</time>
        <extensions>
          <ns3:TrackPointExtension>
            <ns3:atemp>19.0</ns3:atemp>
          </ns3:TrackPointExtension>
        </extensions>
      </trkpt>
      <trkpt lat="42.5187970697879791259765625" lon="19.97812380082905292510986328125">
        <ele>1478.5999755859375</ele>
        <time>2026-06-19T07:53:13.000Z</time>
        <extensions>
          <ns3:TrackPointExtension>
            <ns3:atemp>19.0</ns3:atemp>
          </ns3:TrackPointExtension>
        </extensions>
      </trkpt>
      <trkpt lat="42.5187942199409008026123046875" lon="19.97815112583339214324951171875">
        <ele>1478.800048828125</ele>
        <time>2026-06-19T07:53:14.000Z</time>
        <extensions>
          <ns3:TrackPointExtension>
            <ns3:atemp>19.0</ns3:atemp>
          </ns3:TrackPointExtension>
        </extensions>
      </trkpt>
      <trkpt lat="42.51879346556961536407470703125" lon="19.9781792052090167999267578125">
        <ele>1479</ele>
        <time>2026-06-19T07:53:15.000Z</time>
        <extensions>
          <ns3:TrackPointExtension>
            <ns3:atemp>19.0</ns3:atemp>
          </ns3:TrackPointExtension>
        </extensions>
      </trkpt>
      <trkpt lat="42.5187942199409008026123046875" lon="19.978206865489482879638671875">
        <ele>1479.199951171875</ele>
        <time>2026-06-19T07:53:16.000Z</time>
        <extensions>
          <ns3:TrackPointExtension>
            <ns3:atemp>19.0</ns3:atemp>
          </ns3:TrackPointExtension>
        </extensions>
      </trkpt>
      <trkpt lat="42.51879380084574222564697265625" lon="19.97823427431285381317138671875">
        <ele>1479.4000244140625</ele>
        <time>2026-06-19T07:53:17.000Z</time>
        <extensions>
          <ns3:TrackPointExtension>
            <ns3:atemp>19.0</ns3:atemp>
          </ns3:TrackPointExtension>
        </extensions>
      </trkpt>
      <trkpt lat="42.5187912024557590484619140625" lon="19.97825573198497295379638671875">
        <ele>1479.5999755859375</ele>
        <time>2026-06-19T07:53:18.000Z</time>
        <extensions>
          <ns3:TrackPointExtension>
            <ns3:atemp>19.0</ns3:atemp>
          </ns3:TrackPointExtension>
        </extensions>
      </trkpt>
      <trkpt lat="42.518790699541568756103515625" lon="19.9782801233232021331787109375">
        <ele>1479.800048828125</ele>
        <time>2026-06-19T07:53:19.000Z</time>
        <extensions>
          <ns3:TrackPointExtension>
            <ns3:atemp>19.0</ns3:atemp>
          </ns3:TrackPointExtension>
        </extensions>
      </trkpt>
      <trkpt lat="42.51878960989415645599365234375" lon="19.9783045984804630279541015625">
        <ele>1479.800048828125</ele>
        <time>2026-06-19T07:53:20.000Z</time>
        <extensions>
          <ns3:TrackPointExtension>
            <ns3:atemp>19.0</ns3:atemp>
          </ns3:TrackPointExtension>
        </extensions>
      </trkpt>
      <trkpt lat="42.5187905319035053253173828125" lon="19.9783324263989925384521484375">
        <ele>1480</ele>
        <time>2026-06-19T07:53:21.000Z</time>
        <extensions>
          <ns3:TrackPointExtension>
            <ns3:atemp>19.0</ns3:atemp>
          </ns3:TrackPointExtension>
        </extensions>
      </trkpt>
      <trkpt lat="42.5187908671796321868896484375" lon="19.9783569015562534332275390625">
        <ele>1480.199951171875</ele>
        <time>2026-06-19T07:53:22.000Z</time>
        <extensions>
          <ns3:TrackPointExtension>
            <ns3:atemp>19.0</ns3:atemp>
          </ns3:TrackPointExtension>
        </extensions>
      </trkpt>
      <trkpt lat="42.518787346780300140380859375" lon="19.97837416827678680419921875">
        <ele>1480.4000244140625</ele>
        <time>2026-06-19T07:53:23.000Z</time>
        <extensions>
          <ns3:TrackPointExtension>
            <ns3:atemp>19.0</ns3:atemp>
          </ns3:TrackPointExtension>
        </extensions>
      </trkpt>
      <trkpt lat="42.5187814794480800628662109375" lon="19.97839202173054218292236328125">
        <ele>1480.5999755859375</ele>
        <time>2026-06-19T07:53:24.000Z</time>
        <extensions>
          <ns3:TrackPointExtension>
            <ns3:atemp>19.0</ns3:atemp>
          </ns3:TrackPointExtension>
        </extensions>
      </trkpt>
      <trkpt lat="42.5187791325151920318603515625" lon="19.978413395583629608154296875">
        <ele>1480.800048828125</ele>
        <time>2026-06-19T07:53:25.000Z</time>
        <extensions>
          <ns3:TrackPointExtension>
            <ns3:atemp>19.0</ns3:atemp>
          </ns3:TrackPointExtension>
        </extensions>
      </trkpt>
      <trkpt lat="42.5187784619629383087158203125" lon="19.978441558778285980224609375">
        <ele>1481</ele>
        <time>2026-06-19T07:53:26.000Z</time>
        <extensions>
          <ns3:TrackPointExtension>
            <ns3:atemp>19.0</ns3:atemp>
          </ns3:TrackPointExtension>
        </extensions>
      </trkpt>
      <trkpt lat="42.5187764503061771392822265625" lon="19.9784641899168491363525390625">
        <ele>1481.199951171875</ele>
        <time>2026-06-19T07:53:27.000Z</time>
        <extensions>
          <ns3:TrackPointExtension>
            <ns3:atemp>19.0</ns3:atemp>
          </ns3:TrackPointExtension>
        </extensions>
      </trkpt>
      <trkpt lat="42.51877385191619396209716796875" lon="19.97848606668412685394287109375">
        <ele>1481.4000244140625</ele>
        <time>2026-06-19T07:53:28.000Z</time>
        <extensions>
          <ns3:TrackPointExtension>
            <ns3:atemp>19.0</ns3:atemp>
          </ns3:TrackPointExtension>
        </extensions>
      </trkpt>
      <trkpt lat="42.518772594630718231201171875" lon="19.9785101227462291717529296875">
        <ele>1481.5999755859375</ele>
        <time>2026-06-19T07:53:29.000Z</time>
        <extensions>
          <ns3:TrackPointExtension>
            <ns3:atemp>19.0</ns3:atemp>
          </ns3:TrackPointExtension>
        </extensions>
      </trkpt>
      <trkpt lat="42.5187687389552593231201171875" lon="19.97853099368512630462646484375">
        <ele>1481.800048828125</ele>
        <time>2026-06-19T07:53:30.000Z</time>
        <extensions>
          <ns3:TrackPointExtension>
            <ns3:atemp>19.0</ns3:atemp>
          </ns3:TrackPointExtension>
        </extensions>
      </trkpt>
      <trkpt lat="42.51876421272754669189453125" lon="19.9785553850233554840087890625">
        <ele>1482</ele>
        <time>2026-06-19T07:53:31.000Z</time>
        <extensions>
          <ns3:TrackPointExtension>
            <ns3:atemp>19.0</ns3:atemp>
          </ns3:TrackPointExtension>
        </extensions>
      </trkpt>
      <trkpt lat="42.518761195242404937744140625" lon="19.9785795249044895172119140625">
        <ele>1482.4000244140625</ele>
        <time>2026-06-19T07:53:32.000Z</time>
        <extensions>
          <ns3:TrackPointExtension>
            <ns3:atemp>19.0</ns3:atemp>
          </ns3:TrackPointExtension>
        </extensions>
      </trkpt>
      <trkpt lat="42.5187573395669460296630859375" lon="19.9785996414721012115478515625">
        <ele>1482.5999755859375</ele>
        <time>2026-06-19T07:53:33.000Z</time>
        <extensions>
          <ns3:TrackPointExtension>
            <ns3:atemp>19.0</ns3:atemp>
          </ns3:TrackPointExtension>
        </extensions>
      </trkpt>
      <trkpt lat="42.51875474117696285247802734375" lon="19.978623948991298675537109375">
        <ele>1482.800048828125</ele>
        <time>2026-06-19T07:53:34.000Z</time>
        <extensions>
          <ns3:TrackPointExtension>
            <ns3:atemp>19.0</ns3:atemp>
          </ns3:TrackPointExtension>
        </extensions>
      </trkpt>
      <trkpt lat="42.51875122077763080596923828125" lon="19.97864733450114727020263671875">
        <ele>1483.199951171875</ele>
        <time>2026-06-19T07:53:35.000Z</time>
        <extensions>
          <ns3:TrackPointExtension>
            <ns3:atemp>19.0</ns3:atemp>
          </ns3:TrackPointExtension>
        </extensions>
      </trkpt>
      <trkpt lat="42.518747113645076751708984375" lon="19.97866845689713954925537109375">
        <ele>1483.4000244140625</ele>
        <time>2026-06-19T07:53:36.000Z</time>
        <extensions>
          <ns3:TrackPointExtension>
            <ns3:atemp>19.0</ns3:atemp>
          </ns3:TrackPointExtension>
        </extensions>
      </trkpt>
      <trkpt lat="42.518741749227046966552734375" lon="19.97869259677827358245849609375">
        <ele>1483.5999755859375</ele>
        <time>2026-06-19T07:53:37.000Z</time>
        <extensions>
          <ns3:TrackPointExtension>
            <ns3:atemp>19.0</ns3:atemp>
          </ns3:TrackPointExtension>
        </extensions>
      </trkpt>
      <trkpt lat="42.51873747445642948150634765625" lon="19.97871891595423221588134765625">
        <ele>1483.800048828125</ele>
        <time>2026-06-19T07:53:38.000Z</time>
        <extensions>
          <ns3:TrackPointExtension>
            <ns3:atemp>19.0</ns3:atemp>
          </ns3:TrackPointExtension>
        </extensions>
      </trkpt>
      <trkpt lat="42.5187358818948268890380859375" lon="19.978742636740207672119140625">
        <ele>1484</ele>
        <time>2026-06-19T07:53:39.000Z</time>
        <extensions>
          <ns3:TrackPointExtension>
            <ns3:atemp>19.0</ns3:atemp>
          </ns3:TrackPointExtension>
        </extensions>
      </trkpt>
      <trkpt lat="42.5187308527529239654541015625" lon="19.9787582270801067352294921875">
        <ele>1484.199951171875</ele>
        <time>2026-06-19T07:53:40.000Z</time>
        <extensions>
          <ns3:TrackPointExtension>
            <ns3:atemp>19.0</ns3:atemp>
          </ns3:TrackPointExtension>
        </extensions>
      </trkpt>
      <trkpt lat="42.5187273323535919189453125" lon="19.9787780083715915679931640625">
        <ele>1484.5999755859375</ele>
        <time>2026-06-19T07:53:41.000Z</time>
        <extensions>
          <ns3:TrackPointExtension>
            <ns3:atemp>19.0</ns3:atemp>
          </ns3:TrackPointExtension>
        </extensions>
      </trkpt>
      <trkpt lat="42.51872506923973560333251953125" lon="19.97879887931048870086669921875">
        <ele>1484.800048828125</ele>
        <time>2026-06-19T07:53:42.000Z</time>
        <extensions>
          <ns3:TrackPointExtension>
            <ns3:atemp>19.0</ns3:atemp>
          </ns3:TrackPointExtension>
        </extensions>
      </trkpt>
      <trkpt lat="42.51871936954557895660400390625" lon="19.978821761906147003173828125">
        <ele>1485</ele>
        <time>2026-06-19T07:53:43.000Z</time>
        <extensions>
          <ns3:TrackPointExtension>
            <ns3:atemp>19.0</ns3:atemp>
          </ns3:TrackPointExtension>
        </extensions>
      </trkpt>
      <trkpt lat="42.51871534623205661773681640625" lon="19.97884732671082019805908203125">
        <ele>1485.199951171875</ele>
        <time>2026-06-19T07:53:44.000Z</time>
        <extensions>
          <ns3:TrackPointExtension>
            <ns3:atemp>19.0</ns3:atemp>
          </ns3:TrackPointExtension>
        </extensions>
      </trkpt>
      <trkpt lat="42.51871031709015369415283203125" lon="19.978874735534191131591796875">
        <ele>1485.4000244140625</ele>
        <time>2026-06-19T07:53:45.000Z</time>
        <extensions>
          <ns3:TrackPointExtension>
            <ns3:atemp>19.0</ns3:atemp>
          </ns3:TrackPointExtension>
        </extensions>
      </trkpt>
      <trkpt lat="42.5187050364911556243896484375" lon="19.97889929451048374176025390625">
        <ele>1485.800048828125</ele>
        <time>2026-06-19T07:53:46.000Z</time>
        <extensions>
          <ns3:TrackPointExtension>
            <ns3:atemp>19.0</ns3:atemp>
          </ns3:TrackPointExtension>
        </extensions>
      </trkpt>
      <trkpt lat="42.5187010131776332855224609375" lon="19.97892427258193492889404296875">
        <ele>1486</ele>
        <time>2026-06-19T07:53:47.000Z</time>
        <extensions>
          <ns3:TrackPointExtension>
            <ns3:atemp>19.0</ns3:atemp>
          </ns3:TrackPointExtension>
        </extensions>
      </trkpt>
      <trkpt lat="42.5186963193118572235107421875" lon="19.97894623316824436187744140625">
        <ele>1486.199951171875</ele>
        <time>2026-06-19T07:53:48.000Z</time>
        <extensions>
          <ns3:TrackPointExtension>
            <ns3:atemp>19.0</ns3:atemp>
          </ns3:TrackPointExtension>
        </extensions>
      </trkpt>
      <trkpt lat="42.51869321800768375396728515625" lon="19.97896685265004634857177734375">
        <ele>1486.4000244140625</ele>
        <time>2026-06-19T07:53:49.000Z</time>
        <extensions>
          <ns3:TrackPointExtension>
            <ns3:atemp>19.0</ns3:atemp>
          </ns3:TrackPointExtension>
        </extensions>
      </trkpt>
      <trkpt lat="42.51868902705609798431396484375" lon="19.97898814268410205841064453125">
        <ele>1486.5999755859375</ele>
        <time>2026-06-19T07:53:50.000Z</time>
        <extensions>
          <ns3:TrackPointExtension>
            <ns3:atemp>19.0</ns3:atemp>
          </ns3:TrackPointExtension>
        </extensions>
      </trkpt>
      <trkpt lat="42.51868483610451221466064453125" lon="19.9790103547275066375732421875">
        <ele>1486.800048828125</ele>
        <time>2026-06-19T07:53:51.000Z</time>
        <extensions>
          <ns3:TrackPointExtension>
            <ns3:atemp>19.0</ns3:atemp>
          </ns3:TrackPointExtension>
        </extensions>
      </trkpt>
      <trkpt lat="42.51867997460067272186279296875" lon="19.979031980037689208984375">
        <ele>1487</ele>
        <time>2026-06-19T07:53:52.000Z</time>
        <extensions>
          <ns3:TrackPointExtension>
            <ns3:atemp>19.0</ns3:atemp>
          </ns3:TrackPointExtension>
        </extensions>
      </trkpt>
      <trkpt lat="42.518674023449420928955078125" lon="19.9790549464523792266845703125">
        <ele>1487</ele>
        <time>2026-06-19T07:53:53.000Z</time>
        <extensions>
          <ns3:TrackPointExtension>
            <ns3:atemp>19.0</ns3:atemp>
          </ns3:TrackPointExtension>
        </extensions>
      </trkpt>
      <trkpt lat="42.51867293380200862884521484375" lon="19.97907598502933979034423828125">
        <ele>1487.199951171875</ele>
        <time>2026-06-19T07:53:54.000Z</time>
        <extensions>
          <ns3:TrackPointExtension>
            <ns3:atemp>19.0</ns3:atemp>
          </ns3:TrackPointExtension>
        </extensions>
      </trkpt>
      <trkpt lat="42.518669664859771728515625" lon="19.979096017777919769287109375">
        <ele>1487.4000244140625</ele>
        <time>2026-06-19T07:53:55.000Z</time>
        <extensions>
          <ns3:TrackPointExtension>
            <ns3:atemp>19.0</ns3:atemp>
          </ns3:TrackPointExtension>
        </extensions>
      </trkpt>
      <trkpt lat="42.5186656415462493896484375" lon="19.97911420650780200958251953125">
        <ele>1487.5999755859375</ele>
        <time>2026-06-19T07:53:56.000Z</time>
        <extensions>
          <ns3:TrackPointExtension>
            <ns3:atemp>19.0</ns3:atemp>
          </ns3:TrackPointExtension>
        </extensions>
      </trkpt>
      <trkpt lat="42.518659941852092742919921875" lon="19.97913323342800140380859375">
        <ele>1487.800048828125</ele>
        <time>2026-06-19T07:53:57.000Z</time>
        <extensions>
          <ns3:TrackPointExtension>
            <ns3:atemp>19.0</ns3:atemp>
          </ns3:TrackPointExtension>
        </extensions>
      </trkpt>
      <trkpt lat="42.51865449361503124237060546875" lon="19.97915334999561309814453125">
        <ele>1488.199951171875</ele>
        <time>2026-06-19T07:53:58.000Z</time>
        <extensions>
          <ns3:TrackPointExtension>
            <ns3:atemp>19.0</ns3:atemp>
          </ns3:TrackPointExtension>
        </extensions>
      </trkpt>
      <trkpt lat="42.51865080557763576507568359375" lon="19.97917338274419307708740234375">
        <ele>1488.4000244140625</ele>
        <time>2026-06-19T07:53:59.000Z</time>
        <extensions>
          <ns3:TrackPointExtension>
            <ns3:atemp>19.0</ns3:atemp>
          </ns3:TrackPointExtension>
        </extensions>
      </trkpt>
      <trkpt lat="42.5186493806540966033935546875" lon="19.97919869609177112579345703125">
        <ele>1488.5999755859375</ele>
        <time>2026-06-19T07:54:00.000Z</time>
        <extensions>
          <ns3:TrackPointExtension>
            <ns3:atemp>19.0</ns3:atemp>
          </ns3:TrackPointExtension>
        </extensions>
      </trkpt>
      <trkpt lat="42.51864242367446422576904296875" lon="19.979219399392604827880859375">
        <ele>1488.800048828125</ele>
        <time>2026-06-19T07:54:01.000Z</time>
        <extensions>
          <ns3:TrackPointExtension>
            <ns3:atemp>19.0</ns3:atemp>
          </ns3:TrackPointExtension>
        </extensions>
      </trkpt>
      <trkpt lat="42.51863923855125904083251953125" lon="19.9792437069118022918701171875">
        <ele>1489</ele>
        <time>2026-06-19T07:54:02.000Z</time>
        <extensions>
          <ns3:TrackPointExtension>
            <ns3:atemp>19.0</ns3:atemp>
          </ns3:TrackPointExtension>
        </extensions>
      </trkpt>
      <trkpt lat="42.51863437704741954803466796875" lon="19.97926533222198486328125">
        <ele>1489.199951171875</ele>
        <time>2026-06-19T07:54:03.000Z</time>
        <extensions>
          <ns3:TrackPointExtension>
            <ns3:atemp>19.0</ns3:atemp>
          </ns3:TrackPointExtension>
        </extensions>
      </trkpt>
      <trkpt lat="42.518631778657436370849609375" lon="19.97928838245570659637451171875">
        <ele>1489.4000244140625</ele>
        <time>2026-06-19T07:54:04.000Z</time>
        <extensions>
          <ns3:TrackPointExtension>
            <ns3:atemp>19.0</ns3:atemp>
          </ns3:TrackPointExtension>
        </extensions>
      </trkpt>
      <trkpt lat="42.51862876117229461669921875" lon="19.9793134443461894989013671875">
        <ele>1489.5999755859375</ele>
        <time>2026-06-19T07:54:05.000Z</time>
        <extensions>
          <ns3:TrackPointExtension>
            <ns3:atemp>19.0</ns3:atemp>
          </ns3:TrackPointExtension>
        </extensions>
      </trkpt>
      <trkpt lat="42.518626749515533447265625" lon="19.97934051789343357086181640625">
        <ele>1489.800048828125</ele>
        <time>2026-06-19T07:54:06.000Z</time>
        <extensions>
          <ns3:TrackPointExtension>
            <ns3:atemp>19.0</ns3:atemp>
          </ns3:TrackPointExtension>
        </extensions>
      </trkpt>
      <trkpt lat="42.518623732030391693115234375" lon="19.97936331667006015777587890625">
        <ele>1490</ele>
        <time>2026-06-19T07:54:07.000Z</time>
        <extensions>
          <ns3:TrackPointExtension>
            <ns3:atemp>19.0</ns3:atemp>
          </ns3:TrackPointExtension>
        </extensions>
      </trkpt>
      <trkpt lat="42.518621049821376800537109375" lon="19.9793838523328304290771484375">
        <ele>1490.199951171875</ele>
        <time>2026-06-19T07:54:08.000Z</time>
        <extensions>
          <ns3:TrackPointExtension>
            <ns3:atemp>19.0</ns3:atemp>
          </ns3:TrackPointExtension>
        </extensions>
      </trkpt>
      <trkpt lat="42.518620379269123077392578125" lon="19.97940589673817157745361328125">
        <ele>1490.4000244140625</ele>
        <time>2026-06-19T07:54:09.000Z</time>
        <extensions>
          <ns3:TrackPointExtension>
            <ns3:atemp>19.0</ns3:atemp>
          </ns3:TrackPointExtension>
        </extensions>
      </trkpt>
      <trkpt lat="42.51861509867012500762939453125" lon="19.979429952800273895263671875">
        <ele>1490.5999755859375</ele>
        <time>2026-06-19T07:54:10.000Z</time>
        <extensions>
          <ns3:TrackPointExtension>
            <ns3:atemp>19.0</ns3:atemp>
          </ns3:TrackPointExtension>
        </extensions>
      </trkpt>
      <trkpt lat="42.5186088122427463531494140625" lon="19.97945283539593219757080078125">
        <ele>1490.800048828125</ele>
        <time>2026-06-19T07:54:11.000Z</time>
        <extensions>
          <ns3:TrackPointExtension>
            <ns3:atemp>19.0</ns3:atemp>
          </ns3:TrackPointExtension>
        </extensions>
      </trkpt>
      <trkpt lat="42.51860487274825572967529296875" lon="19.97947789728641510009765625">
        <ele>1491</ele>
        <time>2026-06-19T07:54:12.000Z</time>
        <extensions>
          <ns3:TrackPointExtension>
            <ns3:atemp>19.0</ns3:atemp>
          </ns3:TrackPointExtension>
        </extensions>
      </trkpt>
      <trkpt lat="42.51859917305409908294677734375" lon="19.9794971756637096405029296875">
        <ele>1491.199951171875</ele>
        <time>2026-06-19T07:54:13.000Z</time>
        <extensions>
          <ns3:TrackPointExtension>
            <ns3:atemp>19.0</ns3:atemp>
          </ns3:TrackPointExtension>
        </extensions>
      </trkpt>
      <trkpt lat="42.51859263516962528228759765625" lon="19.979518465697765350341796875">
        <ele>1491.199951171875</ele>
        <time>2026-06-19T07:54:14.000Z</time>
        <extensions>
          <ns3:TrackPointExtension>
            <ns3:atemp>19.0</ns3:atemp>
          </ns3:TrackPointExtension>
        </extensions>
      </trkpt>
      <trkpt lat="42.51858852803707122802734375" lon="19.9795390851795673370361328125">
        <ele>1491.4000244140625</ele>
        <time>2026-06-19T07:54:15.000Z</time>
        <extensions>
          <ns3:TrackPointExtension>
            <ns3:atemp>19.0</ns3:atemp>
          </ns3:TrackPointExtension>
        </extensions>
      </trkpt>
      <trkpt lat="42.51858358271420001983642578125" lon="19.9795628897845745086669921875">
        <ele>1491.5999755859375</ele>
        <time>2026-06-19T07:54:16.000Z</time>
        <extensions>
          <ns3:TrackPointExtension>
            <ns3:atemp>19.0</ns3:atemp>
          </ns3:TrackPointExtension>
        </extensions>
      </trkpt>
      <trkpt lat="42.51857955940067768096923828125" lon="19.97958878986537456512451171875">
        <ele>1491.800048828125</ele>
        <time>2026-06-19T07:54:17.000Z</time>
        <extensions>
          <ns3:TrackPointExtension>
            <ns3:atemp>19.0</ns3:atemp>
          </ns3:TrackPointExtension>
        </extensions>
      </trkpt>
      <trkpt lat="42.51857603900134563446044921875" lon="19.97961209155619144439697265625">
        <ele>1491.800048828125</ele>
        <time>2026-06-19T07:54:18.000Z</time>
        <extensions>
          <ns3:TrackPointExtension>
            <ns3:atemp>19.0</ns3:atemp>
          </ns3:TrackPointExtension>
        </extensions>
      </trkpt>
      <trkpt lat="42.5185715965926647186279296875" lon="19.97964176349341869354248046875">
        <ele>1492</ele>
        <time>2026-06-19T07:54:19.000Z</time>
        <extensions>
          <ns3:TrackPointExtension>
            <ns3:atemp>19.0</ns3:atemp>
          </ns3:TrackPointExtension>
        </extensions>
      </trkpt>
      <trkpt lat="42.51856765709817409515380859375" lon="19.9796663224697113037109375">
        <ele>1492</ele>
        <time>2026-06-19T07:54:20.000Z</time>
        <extensions>
          <ns3:TrackPointExtension>
            <ns3:atemp>19.0</ns3:atemp>
          </ns3:TrackPointExtension>
        </extensions>
      </trkpt>
      <trkpt lat="42.51856304705142974853515625" lon="19.97968736104667186737060546875">
        <ele>1492.199951171875</ele>
        <time>2026-06-19T07:54:21.000Z</time>
        <extensions>
          <ns3:TrackPointExtension>
            <ns3:atemp>19.0</ns3:atemp>
          </ns3:TrackPointExtension>
        </extensions>
      </trkpt>
      <trkpt lat="42.518560700118541717529296875" lon="19.97970781289041042327880859375">
        <ele>1492.4000244140625</ele>
        <time>2026-06-19T07:54:22.000Z</time>
        <extensions>
          <ns3:TrackPointExtension>
            <ns3:atemp>19.0</ns3:atemp>
          </ns3:TrackPointExtension>
        </extensions>
      </trkpt>
      <trkpt lat="42.5185575149953365325927734375" lon="19.979734718799591064453125">
        <ele>1492.4000244140625</ele>
        <time>2026-06-19T07:54:23.000Z</time>
        <extensions>
          <ns3:TrackPointExtension>
            <ns3:atemp>19.0</ns3:atemp>
          </ns3:TrackPointExtension>
        </extensions>
      </trkpt>
      <trkpt lat="42.51855432987213134765625" lon="19.97975994832813739776611328125">
        <ele>1492.5999755859375</ele>
        <time>2026-06-19T07:54:24.000Z</time>
        <extensions>
          <ns3:TrackPointExtension>
            <ns3:atemp>19.0</ns3:atemp>
          </ns3:TrackPointExtension>
        </extensions>
      </trkpt>
      <trkpt lat="42.51854921691119670867919921875" lon="19.97978006489574909210205078125">
        <ele>1492.800048828125</ele>
        <time>2026-06-19T07:54:25.000Z</time>
        <extensions>
          <ns3:TrackPointExtension>
            <ns3:atemp>19.0</ns3:atemp>
          </ns3:TrackPointExtension>
        </extensions>
      </trkpt>
      <trkpt lat="42.5185441039502620697021484375" lon="19.97980252839624881744384765625">
        <ele>1493</ele>
        <time>2026-06-19T07:54:26.000Z</time>
        <extensions>
          <ns3:TrackPointExtension>
            <ns3:atemp>19.0</ns3:atemp>
          </ns3:TrackPointExtension>
        </extensions>
      </trkpt>
      <trkpt lat="42.51854049973189830780029296875" lon="19.9798274226486682891845703125">
        <ele>1493</ele>
        <time>2026-06-19T07:54:27.000Z</time>
        <extensions>
          <ns3:TrackPointExtension>
            <ns3:atemp>19.0</ns3:atemp>
          </ns3:TrackPointExtension>
        </extensions>
      </trkpt>
      <trkpt lat="42.51853714697062969207763671875" lon="19.97985231690108776092529296875">
        <ele>1493.199951171875</ele>
        <time>2026-06-19T07:54:28.000Z</time>
        <extensions>
          <ns3:TrackPointExtension>
            <ns3:atemp>19.0</ns3:atemp>
          </ns3:TrackPointExtension>
        </extensions>
      </trkpt>
      <trkpt lat="42.5185347162187099456787109375" lon="19.979878552258014678955078125">
        <ele>1493.4000244140625</ele>
        <time>2026-06-19T07:54:29.000Z</time>
        <extensions>
          <ns3:TrackPointExtension>
            <ns3:atemp>19.0</ns3:atemp>
          </ns3:TrackPointExtension>
        </extensions>
      </trkpt>
      <trkpt lat="42.51853060908615589141845703125" lon="19.97990629635751247406005859375">
        <ele>1493.4000244140625</ele>
        <time>2026-06-19T07:54:30.000Z</time>
        <extensions>
          <ns3:TrackPointExtension>
            <ns3:atemp>19.0</ns3:atemp>
          </ns3:TrackPointExtension>
        </extensions>
      </trkpt>
      <trkpt lat="42.51852557994425296783447265625" lon="19.9799286760389804840087890625">
        <ele>1493.5999755859375</ele>
        <time>2026-06-19T07:54:31.000Z</time>
        <extensions>
          <ns3:TrackPointExtension>
            <ns3:atemp>19.0</ns3:atemp>
          </ns3:TrackPointExtension>
        </extensions>
      </trkpt>
      <trkpt lat="42.51852147281169891357421875" lon="19.97994770295917987823486328125">
        <ele>1494</ele>
        <time>2026-06-19T07:54:32.000Z</time>
        <extensions>
          <ns3:TrackPointExtension>
            <ns3:atemp>19.0</ns3:atemp>
          </ns3:TrackPointExtension>
        </extensions>
      </trkpt>
      <trkpt lat="42.518517114222049713134765625" lon="19.97997318394482135772705078125">
        <ele>1494.199951171875</ele>
        <time>2026-06-19T07:54:33.000Z</time>
        <extensions>
          <ns3:TrackPointExtension>
            <ns3:atemp>19.0</ns3:atemp>
          </ns3:TrackPointExtension>
        </extensions>
      </trkpt>
      <trkpt lat="42.51851166598498821258544921875" lon="19.97999447397887706756591796875">
        <ele>1494.4000244140625</ele>
        <time>2026-06-19T07:54:34.000Z</time>
        <extensions>
          <ns3:TrackPointExtension>
            <ns3:atemp>19.0</ns3:atemp>
          </ns3:TrackPointExtension>
        </extensions>
      </trkpt>
      <trkpt lat="42.51850663684308528900146484375" lon="19.980019368231296539306640625">
        <ele>1494.4000244140625</ele>
        <time>2026-06-19T07:54:35.000Z</time>
        <extensions>
          <ns3:TrackPointExtension>
            <ns3:atemp>19.0</ns3:atemp>
          </ns3:TrackPointExtension>
        </extensions>
      </trkpt>
      <trkpt lat="42.518500350415706634521484375" lon="19.9800456874072551727294921875">
        <ele>1494.5999755859375</ele>
        <time>2026-06-19T07:54:36.000Z</time>
        <extensions>
          <ns3:TrackPointExtension>
            <ns3:atemp>19.0</ns3:atemp>
          </ns3:TrackPointExtension>
        </extensions>
      </trkpt>
      <trkpt lat="42.5184944830834865570068359375" lon="19.98007066547870635986328125">
        <ele>1494.5999755859375</ele>
        <time>2026-06-19T07:54:37.000Z</time>
        <extensions>
          <ns3:TrackPointExtension>
            <ns3:atemp>19.0</ns3:atemp>
          </ns3:TrackPointExtension>
        </extensions>
      </trkpt>
      <trkpt lat="42.5184894539415836334228515625" lon="19.9800956435501575469970703125">
        <ele>1494.800048828125</ele>
        <time>2026-06-19T07:54:38.000Z</time>
        <extensions>
          <ns3:TrackPointExtension>
            <ns3:atemp>19.0</ns3:atemp>
          </ns3:TrackPointExtension>
        </extensions>
      </trkpt>
      <trkpt lat="42.5184857659041881561279296875" lon="19.9801191128790378570556640625">
        <ele>1494.800048828125</ele>
        <time>2026-06-19T07:54:39.000Z</time>
        <extensions>
          <ns3:TrackPointExtension>
            <ns3:atemp>19.0</ns3:atemp>
          </ns3:TrackPointExtension>
        </extensions>
      </trkpt>
      <trkpt lat="42.518480904400348663330078125" lon="19.98014601878821849822998046875">
        <ele>1495</ele>
        <time>2026-06-19T07:54:40.000Z</time>
        <extensions>
          <ns3:TrackPointExtension>
            <ns3:atemp>19.0</ns3:atemp>
          </ns3:TrackPointExtension>
        </extensions>
      </trkpt>
      <trkpt lat="42.51847310923039913177490234375" lon="19.98017124831676483154296875">
        <ele>1495.199951171875</ele>
        <time>2026-06-19T07:54:41.000Z</time>
        <extensions>
          <ns3:TrackPointExtension>
            <ns3:atemp>19.0</ns3:atemp>
          </ns3:TrackPointExtension>
        </extensions>
      </trkpt>
      <trkpt lat="42.518470846116542816162109375" lon="19.98020217753946781158447265625">
        <ele>1495.199951171875</ele>
        <time>2026-06-19T07:54:42.000Z</time>
        <extensions>
          <ns3:TrackPointExtension>
            <ns3:atemp>19.0</ns3:atemp>
          </ns3:TrackPointExtension>
        </extensions>
      </trkpt>
      <trkpt lat="42.5184720195829868316650390625" lon="19.980226568877696990966796875">
        <ele>1495.4000244140625</ele>
        <time>2026-06-19T07:54:43.000Z</time>
        <extensions>
          <ns3:TrackPointExtension>
            <ns3:atemp>19.0</ns3:atemp>
          </ns3:TrackPointExtension>
        </extensions>
      </trkpt>
      <trkpt lat="42.51847126521170139312744140625" lon="19.980252049863338470458984375">
        <ele>1495.4000244140625</ele>
        <time>2026-06-19T07:54:44.000Z</time>
        <extensions>
          <ns3:TrackPointExtension>
            <ns3:atemp>19.0</ns3:atemp>
          </ns3:TrackPointExtension>
        </extensions>
      </trkpt>
      <trkpt lat="42.51846657134592533111572265625" lon="19.98027258552610874176025390625">
        <ele>1495.5999755859375</ele>
        <time>2026-06-19T07:54:45.000Z</time>
        <extensions>
          <ns3:TrackPointExtension>
            <ns3:atemp>19.0</ns3:atemp>
          </ns3:TrackPointExtension>
        </extensions>
      </trkpt>
      <trkpt lat="42.518454752862453460693359375" lon="19.9802887625992298126220703125">
        <ele>1495.800048828125</ele>
        <time>2026-06-19T07:54:46.000Z</time>
        <extensions>
          <ns3:TrackPointExtension>
            <ns3:atemp>19.0</ns3:atemp>
          </ns3:TrackPointExtension>
        </extensions>
      </trkpt>
      <trkpt lat="42.51844544894993305206298828125" lon="19.9803031794726848602294921875">
        <ele>1496</ele>
        <time>2026-06-19T07:54:47.000Z</time>
        <extensions>
          <ns3:TrackPointExtension>
            <ns3:atemp>19.0</ns3:atemp>
          </ns3:TrackPointExtension>
        </extensions>
      </trkpt>
      <trkpt lat="42.5184348039329051971435546875" lon="19.98031969182193279266357421875">
        <ele>1496</ele>
        <time>2026-06-19T07:54:48.000Z</time>
        <extensions>
          <ns3:TrackPointExtension>
            <ns3:atemp>19.0</ns3:atemp>
          </ns3:TrackPointExtension>
        </extensions>
      </trkpt>
      <trkpt lat="42.5184190459549427032470703125" lon="19.98033427633345127105712890625">
        <ele>1496.199951171875</ele>
        <time>2026-06-19T07:54:49.000Z</time>
        <extensions>
          <ns3:TrackPointExtension>
            <ns3:atemp>19.0</ns3:atemp>
          </ns3:TrackPointExtension>
        </extensions>
      </trkpt>
      <trkpt lat="42.518405802547931671142578125" lon="19.98035422526299953460693359375">
        <ele>1496.199951171875</ele>
        <time>2026-06-19T07:54:50.000Z</time>
        <extensions>
          <ns3:TrackPointExtension>
            <ns3:atemp>19.0</ns3:atemp>
          </ns3:TrackPointExtension>
        </extensions>
      </trkpt>
      <trkpt lat="42.5183898769319057464599609375" lon="19.98038004152476787567138671875">
        <ele>1496.4000244140625</ele>
        <time>2026-06-19T07:54:51.000Z</time>
        <extensions>
          <ns3:TrackPointExtension>
            <ns3:atemp>19.0</ns3:atemp>
          </ns3:TrackPointExtension>
        </extensions>
      </trkpt>
      <trkpt lat="42.51837805844843387603759765625" lon="19.98040384612977504730224609375">
        <ele>1496.5999755859375</ele>
        <time>2026-06-19T07:54:52.000Z</time>
        <extensions>
          <ns3:TrackPointExtension>
            <ns3:atemp>19.0</ns3:atemp>
          </ns3:TrackPointExtension>
        </extensions>
      </trkpt>
      <trkpt lat="42.518368922173976898193359375" lon="19.98042882420122623443603515625">
        <ele>1496.800048828125</ele>
        <time>2026-06-19T07:54:53.000Z</time>
        <extensions>
          <ns3:TrackPointExtension>
            <ns3:atemp>19.0</ns3:atemp>
          </ns3:TrackPointExtension>
        </extensions>
      </trkpt>
      <trkpt lat="42.51836213283240795135498046875" lon="19.9804490245878696441650390625">
        <ele>1497</ele>
        <time>2026-06-19T07:54:54.000Z</time>
        <extensions>
          <ns3:TrackPointExtension>
            <ns3:atemp>19.0</ns3:atemp>
          </ns3:TrackPointExtension>
        </extensions>
      </trkpt>
      <trkpt lat="42.5183506496250629425048828125" lon="19.98046553693711757659912109375">
        <ele>1497.199951171875</ele>
        <time>2026-06-19T07:54:55.000Z</time>
        <extensions>
          <ns3:TrackPointExtension>
            <ns3:atemp>19.0</ns3:atemp>
          </ns3:TrackPointExtension>
        </extensions>
      </trkpt>
      <trkpt lat="42.51834352500736713409423828125" lon="19.980485402047634124755859375">
        <ele>1497.4000244140625</ele>
        <time>2026-06-19T07:54:56.000Z</time>
        <extensions>
          <ns3:TrackPointExtension>
            <ns3:atemp>19.0</ns3:atemp>
          </ns3:TrackPointExtension>
        </extensions>
      </trkpt>
      <trkpt lat="42.51833799295127391815185546875" lon="19.98050845228135585784912109375">
        <ele>1497.5999755859375</ele>
        <time>2026-06-19T07:54:57.000Z</time>
        <extensions>
          <ns3:TrackPointExtension>
            <ns3:atemp>19.0</ns3:atemp>
          </ns3:TrackPointExtension>
        </extensions>
      </trkpt>
      <trkpt lat="42.5183322094380855560302734375" lon="19.9805304966866970062255859375">
        <ele>1497.800048828125</ele>
        <time>2026-06-19T07:54:58.000Z</time>
        <extensions>
          <ns3:TrackPointExtension>
            <ns3:atemp>19.0</ns3:atemp>
          </ns3:TrackPointExtension>
        </extensions>
      </trkpt>
      <trkpt lat="42.51832609064877033233642578125" lon="19.98055606149137020111083984375">
        <ele>1498</ele>
        <time>2026-06-19T07:54:59.000Z</time>
        <extensions>
          <ns3:TrackPointExtension>
            <ns3:atemp>19.0</ns3:atemp>
          </ns3:TrackPointExtension>
        </extensions>
      </trkpt>
      <trkpt lat="42.51831955276429653167724609375" lon="19.98058028519153594970703125">
        <ele>1498.199951171875</ele>
        <time>2026-06-19T07:55:00.000Z</time>
        <extensions>
          <ns3:TrackPointExtension>
            <ns3:atemp>19.0</ns3:atemp>
          </ns3:TrackPointExtension>
        </extensions>
      </trkpt>
      <trkpt lat="42.5183137692511081695556640625" lon="19.98060652054846286773681640625">
        <ele>1498.4000244140625</ele>
        <time>2026-06-19T07:55:01.000Z</time>
        <extensions>
          <ns3:TrackPointExtension>
            <ns3:atemp>19.0</ns3:atemp>
          </ns3:TrackPointExtension>
        </extensions>
      </trkpt>
      <trkpt lat="42.518304884433746337890625" lon="19.98063795268535614013671875">
        <ele>1498.5999755859375</ele>
        <time>2026-06-19T07:55:02.000Z</time>
        <extensions>
          <ns3:TrackPointExtension>
            <ns3:atemp>19.0</ns3:atemp>
          </ns3:TrackPointExtension>
        </extensions>
      </trkpt>
      <trkpt lat="42.5183008611202239990234375" lon="19.98065781779587268829345703125">
        <ele>1498.800048828125</ele>
        <time>2026-06-19T07:55:03.000Z</time>
        <extensions>
          <ns3:TrackPointExtension>
            <ns3:atemp>19.0</ns3:atemp>
          </ns3:TrackPointExtension>
        </extensions>
      </trkpt>
      <trkpt lat="42.5182933174073696136474609375" lon="19.980684556066989898681640625">
        <ele>1499</ele>
        <time>2026-06-19T07:55:04.000Z</time>
        <extensions>
          <ns3:TrackPointExtension>
            <ns3:atemp>19.0</ns3:atemp>
          </ns3:TrackPointExtension>
        </extensions>
      </trkpt>
      <trkpt lat="42.5182923115789890289306640625" lon="19.9807122163474559783935546875">
        <ele>1499.199951171875</ele>
        <time>2026-06-19T07:55:05.000Z</time>
        <extensions>
          <ns3:TrackPointExtension>
            <ns3:atemp>19.0</ns3:atemp>
          </ns3:TrackPointExtension>
        </extensions>
      </trkpt>
      <trkpt lat="42.51829138956964015960693359375" lon="19.98073593713343143463134765625">
        <ele>1499.4000244140625</ele>
        <time>2026-06-19T07:55:06.000Z</time>
        <extensions>
          <ns3:TrackPointExtension>
            <ns3:atemp>19.0</ns3:atemp>
          </ns3:TrackPointExtension>
        </extensions>
      </trkpt>
      <trkpt lat="42.51828837208449840545654296875" lon="19.98075856827199459075927734375">
        <ele>1499.5999755859375</ele>
        <time>2026-06-19T07:55:07.000Z</time>
        <extensions>
          <ns3:TrackPointExtension>
            <ns3:atemp>19.0</ns3:atemp>
          </ns3:TrackPointExtension>
        </extensions>
      </trkpt>
      <trkpt lat="42.518282420933246612548828125" lon="19.98078220523893833160400390625">
        <ele>1499.5999755859375</ele>
        <time>2026-06-19T07:55:08.000Z</time>
        <extensions>
          <ns3:TrackPointExtension>
            <ns3:atemp>19.0</ns3:atemp>
          </ns3:TrackPointExtension>
        </extensions>
      </trkpt>
      <trkpt lat="42.51827764324843883514404296875" lon="19.9808077700436115264892578125">
        <ele>1499.800048828125</ele>
        <time>2026-06-19T07:55:09.000Z</time>
        <extensions>
          <ns3:TrackPointExtension>
            <ns3:atemp>19.0</ns3:atemp>
          </ns3:TrackPointExtension>
        </extensions>
      </trkpt>
      <trkpt lat="42.518274374306201934814453125" lon="19.980834759771823883056640625">
        <ele>1499.800048828125</ele>
        <time>2026-06-19T07:55:10.000Z</time>
        <extensions>
          <ns3:TrackPointExtension>
            <ns3:atemp>19.0</ns3:atemp>
          </ns3:TrackPointExtension>
        </extensions>
      </trkpt>
      <trkpt lat="42.51827160827815532684326171875" lon="19.98086619190871715545654296875">
        <ele>1500</ele>
        <time>2026-06-19T07:55:11.000Z</time>
        <extensions>
          <ns3:TrackPointExtension>
            <ns3:atemp>19.0</ns3:atemp>
          </ns3:TrackPointExtension>
        </extensions>
      </trkpt>
      <trkpt lat="42.5182688422501087188720703125" lon="19.98089904896914958953857421875">
        <ele>1500</ele>
        <time>2026-06-19T07:55:12.000Z</time>
        <extensions>
          <ns3:TrackPointExtension>
            <ns3:atemp>19.0</ns3:atemp>
          </ns3:TrackPointExtension>
        </extensions>
      </trkpt>
      <trkpt lat="42.51826398074626922607421875" lon="19.98093240894377231597900390625">
        <ele>1500.199951171875</ele>
        <time>2026-06-19T07:55:13.000Z</time>
        <extensions>
          <ns3:TrackPointExtension>
            <ns3:atemp>19.0</ns3:atemp>
          </ns3:TrackPointExtension>
        </extensions>
      </trkpt>
      <trkpt lat="42.51826121471822261810302734375" lon="19.98095805756747722625732421875">
        <ele>1500.5999755859375</ele>
        <time>2026-06-19T07:55:14.000Z</time>
        <extensions>
          <ns3:TrackPointExtension>
            <ns3:atemp>19.0</ns3:atemp>
          </ns3:TrackPointExtension>
        </extensions>
      </trkpt>
      <trkpt lat="42.51825752668082714080810546875" lon="19.98098663985729217529296875">
        <ele>1500.800048828125</ele>
        <time>2026-06-19T07:55:15.000Z</time>
        <extensions>
          <ns3:TrackPointExtension>
            <ns3:atemp>19.0</ns3:atemp>
          </ns3:TrackPointExtension>
        </extensions>
      </trkpt>
      <trkpt lat="42.518254928290843963623046875" lon="19.98101823963224887847900390625">
        <ele>1501</ele>
        <time>2026-06-19T07:55:16.000Z</time>
        <extensions>
          <ns3:TrackPointExtension>
            <ns3:atemp>19.0</ns3:atemp>
          </ns3:TrackPointExtension>
        </extensions>
      </trkpt>
      <trkpt lat="42.51825383864343166351318359375" lon="19.98104020021855831146240234375">
        <ele>1501.199951171875</ele>
        <time>2026-06-19T07:55:17.000Z</time>
        <extensions>
          <ns3:TrackPointExtension>
            <ns3:atemp>19.0</ns3:atemp>
          </ns3:TrackPointExtension>
        </extensions>
      </trkpt>
      <trkpt lat="42.5182530842721462249755859375" lon="19.9810610711574554443359375">
        <ele>1501.4000244140625</ele>
        <time>2026-06-19T07:55:18.000Z</time>
        <extensions>
          <ns3:TrackPointExtension>
            <ns3:atemp>19.0</ns3:atemp>
          </ns3:TrackPointExtension>
        </extensions>
      </trkpt>
      <trkpt lat="42.51825132407248020172119140625" lon="19.9810897372663021087646484375">
        <ele>1501.5999755859375</ele>
        <time>2026-06-19T07:55:19.000Z</time>
        <extensions>
          <ns3:TrackPointExtension>
            <ns3:atemp>19.0</ns3:atemp>
          </ns3:TrackPointExtension>
        </extensions>
      </trkpt>
      <trkpt lat="42.51824629493057727813720703125" lon="19.98112083412706851959228515625">
        <ele>1501.800048828125</ele>
        <time>2026-06-19T07:55:20.000Z</time>
        <extensions>
          <ns3:TrackPointExtension>
            <ns3:atemp>19.0</ns3:atemp>
          </ns3:TrackPointExtension>
        </extensions>
      </trkpt>
      <trkpt lat="42.51823891885578632354736328125" lon="19.9811470694839954376220703125">
        <ele>1502</ele>
        <time>2026-06-19T07:55:21.000Z</time>
        <extensions>
          <ns3:TrackPointExtension>
            <ns3:atemp>19.0</ns3:atemp>
          </ns3:TrackPointExtension>
        </extensions>
      </trkpt>
      <trkpt lat="42.51823204569518566131591796875" lon="19.98117129318416118621826171875">
        <ele>1502.199951171875</ele>
        <time>2026-06-19T07:55:22.000Z</time>
        <extensions>
          <ns3:TrackPointExtension>
            <ns3:atemp>19.0</ns3:atemp>
          </ns3:TrackPointExtension>
        </extensions>
      </trkpt>
      <trkpt lat="42.518224753439426422119140625" lon="19.98119593597948551177978515625">
        <ele>1502.5999755859375</ele>
        <time>2026-06-19T07:55:23.000Z</time>
        <extensions>
          <ns3:TrackPointExtension>
            <ns3:atemp>19.0</ns3:atemp>
          </ns3:TrackPointExtension>
        </extensions>
      </trkpt>
      <trkpt lat="42.51821896992623805999755859375" lon="19.98121756128966808319091796875">
        <ele>1502.800048828125</ele>
        <time>2026-06-19T07:55:24.000Z</time>
        <extensions>
          <ns3:TrackPointExtension>
            <ns3:atemp>19.0</ns3:atemp>
          </ns3:TrackPointExtension>
        </extensions>
      </trkpt>
      <trkpt lat="42.51821310259401798248291015625" lon="19.9812409467995166778564453125">
        <ele>1503.199951171875</ele>
        <time>2026-06-19T07:55:25.000Z</time>
        <extensions>
          <ns3:TrackPointExtension>
            <ns3:atemp>19.0</ns3:atemp>
          </ns3:TrackPointExtension>
        </extensions>
      </trkpt>
      <trkpt lat="42.51820924691855907440185546875" lon="19.98126332648098468780517578125">
        <ele>1503.5999755859375</ele>
        <time>2026-06-19T07:55:26.000Z</time>
        <extensions>
          <ns3:TrackPointExtension>
            <ns3:atemp>19.0</ns3:atemp>
          </ns3:TrackPointExtension>
        </extensions>
      </trkpt>
      <trkpt lat="42.51820421777665615081787109375" lon="19.9812875501811504364013671875">
        <ele>1504</ele>
        <time>2026-06-19T07:55:27.000Z</time>
        <extensions>
          <ns3:TrackPointExtension>
            <ns3:atemp>19.0</ns3:atemp>
          </ns3:TrackPointExtension>
        </extensions>
      </trkpt>
      <trkpt lat="42.51820027828216552734375" lon="19.98131227679550647735595703125">
        <ele>1504.4000244140625</ele>
        <time>2026-06-19T07:55:28.000Z</time>
        <extensions>
          <ns3:TrackPointExtension>
            <ns3:atemp>19.0</ns3:atemp>
          </ns3:TrackPointExtension>
        </extensions>
      </trkpt>
      <trkpt lat="42.5181957520544528961181640625" lon="19.9813304655253887176513671875">
        <ele>1504.5999755859375</ele>
        <time>2026-06-19T07:55:29.000Z</time>
        <extensions>
          <ns3:TrackPointExtension>
            <ns3:atemp>19.0</ns3:atemp>
          </ns3:TrackPointExtension>
        </extensions>
      </trkpt>
      <trkpt lat="42.51819365657866001129150390625" lon="19.981353767216205596923828125">
        <ele>1504.800048828125</ele>
        <time>2026-06-19T07:55:30.000Z</time>
        <extensions>
          <ns3:TrackPointExtension>
            <ns3:atemp>19.0</ns3:atemp>
          </ns3:TrackPointExtension>
        </extensions>
      </trkpt>
      <trkpt lat="42.51819147728383541107177734375" lon="19.98137882910668849945068359375">
        <ele>1505.199951171875</ele>
        <time>2026-06-19T07:55:31.000Z</time>
        <extensions>
          <ns3:TrackPointExtension>
            <ns3:atemp>19.0</ns3:atemp>
          </ns3:TrackPointExtension>
        </extensions>
      </trkpt>
      <trkpt lat="42.518188543617725372314453125" lon="19.98140037059783935546875">
        <ele>1505.4000244140625</ele>
        <time>2026-06-19T07:55:32.000Z</time>
        <extensions>
          <ns3:TrackPointExtension>
            <ns3:atemp>19.0</ns3:atemp>
          </ns3:TrackPointExtension>
        </extensions>
      </trkpt>
      <trkpt lat="42.5181860290467739105224609375" lon="19.9814230017364025115966796875">
        <ele>1505.5999755859375</ele>
        <time>2026-06-19T07:55:33.000Z</time>
        <extensions>
          <ns3:TrackPointExtension>
            <ns3:atemp>19.0</ns3:atemp>
          </ns3:TrackPointExtension>
        </extensions>
      </trkpt>
      <trkpt lat="42.51818208955228328704833984375" lon="19.981445968151092529296875">
        <ele>1505.800048828125</ele>
        <time>2026-06-19T07:55:34.000Z</time>
        <extensions>
          <ns3:TrackPointExtension>
            <ns3:atemp>19.0</ns3:atemp>
          </ns3:TrackPointExtension>
        </extensions>
      </trkpt>
      <trkpt lat="42.518176473677158355712890625" lon="19.981466419994831085205078125">
        <ele>1506</ele>
        <time>2026-06-19T07:55:35.000Z</time>
        <extensions>
          <ns3:TrackPointExtension>
            <ns3:atemp>19.0</ns3:atemp>
          </ns3:TrackPointExtension>
        </extensions>
      </trkpt>
      <trkpt lat="42.518173120915889739990234375" lon="19.98148829676210880279541015625">
        <ele>1506.4000244140625</ele>
        <time>2026-06-19T07:55:36.000Z</time>
        <extensions>
          <ns3:TrackPointExtension>
            <ns3:atemp>19.0</ns3:atemp>
          </ns3:TrackPointExtension>
        </extensions>
      </trkpt>
      <trkpt lat="42.5181667506694793701171875" lon="19.9815135262906551361083984375">
        <ele>1506.5999755859375</ele>
        <time>2026-06-19T07:55:37.000Z</time>
        <extensions>
          <ns3:TrackPointExtension>
            <ns3:atemp>19.0</ns3:atemp>
          </ns3:TrackPointExtension>
        </extensions>
      </trkpt>
      <trkpt lat="42.51816431991755962371826171875" lon="19.98153422959148883819580078125">
        <ele>1507</ele>
        <time>2026-06-19T07:55:38.000Z</time>
        <extensions>
          <ns3:TrackPointExtension>
            <ns3:atemp>19.0</ns3:atemp>
          </ns3:TrackPointExtension>
        </extensions>
      </trkpt>
      <trkpt lat="42.51816230826079845428466796875" lon="19.9815601296722888946533203125">
        <ele>1507.4000244140625</ele>
        <time>2026-06-19T07:55:39.000Z</time>
        <extensions>
          <ns3:TrackPointExtension>
            <ns3:atemp>19.0</ns3:atemp>
          </ns3:TrackPointExtension>
        </extensions>
      </trkpt>
      <trkpt lat="42.51815929077565670013427734375" lon="19.981585778295993804931640625">
        <ele>1507.5999755859375</ele>
        <time>2026-06-19T07:55:40.000Z</time>
        <extensions>
          <ns3:TrackPointExtension>
            <ns3:atemp>19.0</ns3:atemp>
          </ns3:TrackPointExtension>
        </extensions>
      </trkpt>
      <trkpt lat="42.51815224997699260711669921875" lon="19.9816109240055084228515625">
        <ele>1508</ele>
        <time>2026-06-19T07:55:41.000Z</time>
        <extensions>
          <ns3:TrackPointExtension>
            <ns3:atemp>19.0</ns3:atemp>
          </ns3:TrackPointExtension>
        </extensions>
      </trkpt>
      <trkpt lat="42.5181404314935207366943359375" lon="19.981638081371784210205078125">
        <ele>1508.199951171875</ele>
        <time>2026-06-19T07:55:42.000Z</time>
        <extensions>
          <ns3:TrackPointExtension>
            <ns3:atemp>19.0</ns3:atemp>
          </ns3:TrackPointExtension>
        </extensions>
      </trkpt>
      <trkpt lat="42.51812727190554141998291015625" lon="19.98166129924356937408447265625">
        <ele>1508.4000244140625</ele>
        <time>2026-06-19T07:55:43.000Z</time>
        <extensions>
          <ns3:TrackPointExtension>
            <ns3:atemp>19.0</ns3:atemp>
          </ns3:TrackPointExtension>
        </extensions>
      </trkpt>
      <trkpt lat="42.51812073402106761932373046875" lon="19.981683678925037384033203125">
        <ele>1508.5999755859375</ele>
        <time>2026-06-19T07:55:44.000Z</time>
        <extensions>
          <ns3:TrackPointExtension>
            <ns3:atemp>19.0</ns3:atemp>
          </ns3:TrackPointExtension>
        </extensions>
      </trkpt>
      <trkpt lat="42.5181122682988643646240234375" lon="19.981707148253917694091796875">
        <ele>1509</ele>
        <time>2026-06-19T07:55:45.000Z</time>
        <extensions>
          <ns3:TrackPointExtension>
            <ns3:atemp>19.0</ns3:atemp>
          </ns3:TrackPointExtension>
        </extensions>
      </trkpt>
      <trkpt lat="42.5181015394628047943115234375" lon="19.98173086903989315032958984375">
        <ele>1509.199951171875</ele>
        <time>2026-06-19T07:55:46.000Z</time>
        <extensions>
          <ns3:TrackPointExtension>
            <ns3:atemp>19.0</ns3:atemp>
          </ns3:TrackPointExtension>
        </extensions>
      </trkpt>
      <trkpt lat="42.5180876255035400390625" lon="19.981752075254917144775390625">
        <ele>1509.4000244140625</ele>
        <time>2026-06-19T07:55:47.000Z</time>
        <extensions>
          <ns3:TrackPointExtension>
            <ns3:atemp>19.0</ns3:atemp>
          </ns3:TrackPointExtension>
        </extensions>
      </trkpt>
      <trkpt lat="42.51807815395295619964599609375" lon="19.98177479021251201629638671875">
        <ele>1509.800048828125</ele>
        <time>2026-06-19T07:55:48.000Z</time>
        <extensions>
          <ns3:TrackPointExtension>
            <ns3:atemp>19.0</ns3:atemp>
          </ns3:TrackPointExtension>
        </extensions>
      </trkpt>
      <trkpt lat="42.5180701911449432373046875" lon="19.98179532587528228759765625">
        <ele>1510</ele>
        <time>2026-06-19T07:55:49.000Z</time>
        <extensions>
          <ns3:TrackPointExtension>
            <ns3:atemp>19.0</ns3:atemp>
          </ns3:TrackPointExtension>
        </extensions>
      </trkpt>
      <trkpt lat="42.51805703155696392059326171875" lon="19.9818125925958156585693359375">
        <ele>1510.199951171875</ele>
        <time>2026-06-19T07:55:50.000Z</time>
        <extensions>
          <ns3:TrackPointExtension>
            <ns3:atemp>19.0</ns3:atemp>
          </ns3:TrackPointExtension>
        </extensions>
      </trkpt>
      <trkpt lat="42.5180428661406040191650390625" lon="19.98183631338179111480712890625">
        <ele>1510.4000244140625</ele>
        <time>2026-06-19T07:55:51.000Z</time>
        <extensions>
          <ns3:TrackPointExtension>
            <ns3:atemp>19.0</ns3:atemp>
          </ns3:TrackPointExtension>
        </extensions>
      </trkpt>
      <trkpt lat="42.51802928745746612548828125" lon="19.98186103999614715576171875">
        <ele>1510.5999755859375</ele>
        <time>2026-06-19T07:55:52.000Z</time>
        <extensions>
          <ns3:TrackPointExtension>
            <ns3:atemp>19.0</ns3:atemp>
          </ns3:TrackPointExtension>
        </extensions>
      </trkpt>
      <trkpt lat="42.5180150382220745086669921875" lon="19.9818840064108371734619140625">
        <ele>1510.800048828125</ele>
        <time>2026-06-19T07:55:53.000Z</time>
        <extensions>
          <ns3:TrackPointExtension>
            <ns3:atemp>19.0</ns3:atemp>
          </ns3:TrackPointExtension>
        </extensions>
      </trkpt>
      <trkpt lat="42.51800674013793468475341796875" lon="19.98190755955874919891357421875">
        <ele>1511.199951171875</ele>
        <time>2026-06-19T07:55:54.000Z</time>
        <extensions>
          <ns3:TrackPointExtension>
            <ns3:atemp>19.0</ns3:atemp>
          </ns3:TrackPointExtension>
        </extensions>
      </trkpt>
      <trkpt lat="42.51799307763576507568359375" lon="19.9819319508969783782958984375">
        <ele>1511.4000244140625</ele>
        <time>2026-06-19T07:55:55.000Z</time>
        <extensions>
          <ns3:TrackPointExtension>
            <ns3:atemp>19.0</ns3:atemp>
          </ns3:TrackPointExtension>
        </extensions>
      </trkpt>
      <trkpt lat="42.5179831869900226593017578125" lon="19.981951899826526641845703125">
        <ele>1511.5999755859375</ele>
        <time>2026-06-19T07:55:56.000Z</time>
        <extensions>
          <ns3:TrackPointExtension>
            <ns3:atemp>19.0</ns3:atemp>
          </ns3:TrackPointExtension>
        </extensions>
      </trkpt>
      <trkpt lat="42.5179763138294219970703125" lon="19.9819735251367092132568359375">
        <ele>1511.800048828125</ele>
        <time>2026-06-19T07:55:57.000Z</time>
        <extensions>
          <ns3:TrackPointExtension>
            <ns3:atemp>19.0</ns3:atemp>
          </ns3:TrackPointExtension>
        </extensions>
      </trkpt>
      <trkpt lat="42.5179687701165676116943359375" lon="19.98199691064655780792236328125">
        <ele>1512</ele>
        <time>2026-06-19T07:55:58.000Z</time>
        <extensions>
          <ns3:TrackPointExtension>
            <ns3:atemp>20.0</ns3:atemp>
          </ns3:TrackPointExtension>
        </extensions>
      </trkpt>
      <trkpt lat="42.51796348951756954193115234375" lon="19.98201954178512096405029296875">
        <ele>1512.4000244140625</ele>
        <time>2026-06-19T07:55:59.000Z</time>
        <extensions>
          <ns3:TrackPointExtension>
            <ns3:atemp>20.0</ns3:atemp>
          </ns3:TrackPointExtension>
        </extensions>
      </trkpt>
      <trkpt lat="42.51795996911823749542236328125" lon="19.98204049654304981231689453125">
        <ele>1512.5999755859375</ele>
        <time>2026-06-19T07:56:00.000Z</time>
        <extensions>
          <ns3:TrackPointExtension>
            <ns3:atemp>20.0</ns3:atemp>
          </ns3:TrackPointExtension>
        </extensions>
      </trkpt>
      <trkpt lat="42.51795711927115917205810546875" lon="19.9820650555193424224853515625">
        <ele>1513</ele>
        <time>2026-06-19T07:56:01.000Z</time>
        <extensions>
          <ns3:TrackPointExtension>
            <ns3:atemp>20.0</ns3:atemp>
          </ns3:TrackPointExtension>
        </extensions>
      </trkpt>
      <trkpt lat="42.51794991083443164825439453125" lon="19.982093386352062225341796875">
        <ele>1513.199951171875</ele>
        <time>2026-06-19T07:56:02.000Z</time>
        <extensions>
          <ns3:TrackPointExtension>
            <ns3:atemp>20.0</ns3:atemp>
          </ns3:TrackPointExtension>
        </extensions>
      </trkpt>
      <trkpt lat="42.517945468425750732421875" lon="19.98211744241416454315185546875">
        <ele>1513.4000244140625</ele>
        <time>2026-06-19T07:56:03.000Z</time>
        <extensions>
          <ns3:TrackPointExtension>
            <ns3:atemp>20.0</ns3:atemp>
          </ns3:TrackPointExtension>
        </extensions>
      </trkpt>
      <trkpt lat="42.51794152893126010894775390625" lon="19.98214510269463062286376953125">
        <ele>1513.5999755859375</ele>
        <time>2026-06-19T07:56:04.000Z</time>
        <extensions>
          <ns3:TrackPointExtension>
            <ns3:atemp>20.0</ns3:atemp>
          </ns3:TrackPointExtension>
        </extensions>
      </trkpt>
      <trkpt lat="42.51793649978935718536376953125" lon="19.982175529003143310546875">
        <ele>1514</ele>
        <time>2026-06-19T07:56:05.000Z</time>
        <extensions>
          <ns3:TrackPointExtension>
            <ns3:atemp>20.0</ns3:atemp>
          </ns3:TrackPointExtension>
        </extensions>
      </trkpt>
      <trkpt lat="42.5179332308471202850341796875" lon="19.9822038598358631134033203125">
        <ele>1514.199951171875</ele>
        <time>2026-06-19T07:56:06.000Z</time>
        <extensions>
          <ns3:TrackPointExtension>
            <ns3:atemp>20.0</ns3:atemp>
          </ns3:TrackPointExtension>
        </extensions>
      </trkpt>
      <trkpt lat="42.51792510040104389190673828125" lon="19.9822310172021389007568359375">
        <ele>1514.4000244140625</ele>
        <time>2026-06-19T07:56:07.000Z</time>
        <extensions>
          <ns3:TrackPointExtension>
            <ns3:atemp>20.0</ns3:atemp>
          </ns3:TrackPointExtension>
        </extensions>
      </trkpt>
      <trkpt lat="42.51791537739336490631103515625" lon="19.98226161114871501922607421875">
        <ele>1514.5999755859375</ele>
        <time>2026-06-19T07:56:08.000Z</time>
        <extensions>
          <ns3:TrackPointExtension>
            <ns3:atemp>20.0</ns3:atemp>
          </ns3:TrackPointExtension>
        </extensions>
      </trkpt>
      <trkpt lat="42.51790397800505161285400390625" lon="19.98228860087692737579345703125">
        <ele>1514.800048828125</ele>
        <time>2026-06-19T07:56:09.000Z</time>
        <extensions>
          <ns3:TrackPointExtension>
            <ns3:atemp>20.0</ns3:atemp>
          </ns3:TrackPointExtension>
        </extensions>
      </trkpt>
      <trkpt lat="42.5178903155028820037841796875" lon="19.98231475241482257843017578125">
        <ele>1514.800048828125</ele>
        <time>2026-06-19T07:56:10.000Z</time>
        <extensions>
          <ns3:TrackPointExtension>
            <ns3:atemp>20.0</ns3:atemp>
          </ns3:TrackPointExtension>
        </extensions>
      </trkpt>
      <trkpt lat="42.5178799219429492950439453125" lon="19.982340820133686065673828125">
        <ele>1515</ele>
        <time>2026-06-19T07:56:11.000Z</time>
        <extensions>
          <ns3:TrackPointExtension>
            <ns3:atemp>20.0</ns3:atemp>
          </ns3:TrackPointExtension>
        </extensions>
      </trkpt>
      <trkpt lat="42.51787078566849231719970703125" lon="19.98237024061381816864013671875">
        <ele>1515.199951171875</ele>
        <time>2026-06-19T07:56:12.000Z</time>
        <extensions>
          <ns3:TrackPointExtension>
            <ns3:atemp>20.0</ns3:atemp>
          </ns3:TrackPointExtension>
        </extensions>
      </trkpt>
      <trkpt lat="42.51785888336598873138427734375" lon="19.9824010021984577178955078125">
        <ele>1515.199951171875</ele>
        <time>2026-06-19T07:56:13.000Z</time>
        <extensions>
          <ns3:TrackPointExtension>
            <ns3:atemp>20.0</ns3:atemp>
          </ns3:TrackPointExtension>
        </extensions>
      </trkpt>
      <trkpt lat="42.51785586588084697723388671875" lon="19.98242706991732120513916015625">
        <ele>1515.4000244140625</ele>
        <time>2026-06-19T07:56:14.000Z</time>
        <extensions>
          <ns3:TrackPointExtension>
            <ns3:atemp>20.0</ns3:atemp>
          </ns3:TrackPointExtension>
        </extensions>
      </trkpt>
      <trkpt lat="42.51784631051123142242431640625" lon="19.9824479408562183380126953125">
        <ele>1515.4000244140625</ele>
        <time>2026-06-19T07:56:15.000Z</time>
        <extensions>
          <ns3:TrackPointExtension>
            <ns3:atemp>20.0</ns3:atemp>
          </ns3:TrackPointExtension>
        </extensions>
      </trkpt>
      <trkpt lat="42.51783885061740875244140625" lon="19.98247048817574977874755859375">
        <ele>1515.4000244140625</ele>
        <time>2026-06-19T07:56:16.000Z</time>
        <extensions>
          <ns3:TrackPointExtension>
            <ns3:atemp>20.0</ns3:atemp>
          </ns3:TrackPointExtension>
        </extensions>
      </trkpt>
      <trkpt lat="42.51782770268619060516357421875" lon="19.98249513097107410430908203125">
        <ele>1515.4000244140625</ele>
        <time>2026-06-19T07:56:17.000Z</time>
        <extensions>
          <ns3:TrackPointExtension>
            <ns3:atemp>20.0</ns3:atemp>
          </ns3:TrackPointExtension>
        </extensions>
      </trkpt>
      <trkpt lat="42.51781831495463848114013671875" lon="19.98251792974770069122314453125">
        <ele>1515.4000244140625</ele>
        <time>2026-06-19T07:56:18.000Z</time>
        <extensions>
          <ns3:TrackPointExtension>
            <ns3:atemp>20.0</ns3:atemp>
          </ns3:TrackPointExtension>
        </extensions>
      </trkpt>
      <trkpt lat="42.51780331134796142578125" lon="19.98254190199077129364013671875">
        <ele>1515.5999755859375</ele>
        <time>2026-06-19T07:56:19.000Z</time>
        <extensions>
          <ns3:TrackPointExtension>
            <ns3:atemp>20.0</ns3:atemp>
          </ns3:TrackPointExtension>
        </extensions>
      </trkpt>
      <trkpt lat="42.51779434271156787872314453125" lon="19.98256537131965160369873046875">
        <ele>1515.5999755859375</ele>
        <time>2026-06-19T07:56:20.000Z</time>
        <extensions>
          <ns3:TrackPointExtension>
            <ns3:atemp>20.0</ns3:atemp>
          </ns3:TrackPointExtension>
        </extensions>
      </trkpt>
      <trkpt lat="42.517782188951969146728515625" lon="19.9825924448668956756591796875">
        <ele>1515.5999755859375</ele>
        <time>2026-06-19T07:56:21.000Z</time>
        <extensions>
          <ns3:TrackPointExtension>
            <ns3:atemp>20.0</ns3:atemp>
          </ns3:TrackPointExtension>
        </extensions>
      </trkpt>
      <trkpt lat="42.51777338795363903045654296875" lon="19.982625134289264678955078125">
        <ele>1515.5999755859375</ele>
        <time>2026-06-19T07:56:22.000Z</time>
        <extensions>
          <ns3:TrackPointExtension>
            <ns3:atemp>20.0</ns3:atemp>
          </ns3:TrackPointExtension>
        </extensions>
      </trkpt>
      <trkpt lat="42.51775964163243770599365234375" lon="19.982654638588428497314453125">
        <ele>1515.800048828125</ele>
        <time>2026-06-19T07:56:23.000Z</time>
        <extensions>
          <ns3:TrackPointExtension>
            <ns3:atemp>20.0</ns3:atemp>
          </ns3:TrackPointExtension>
        </extensions>
      </trkpt>
      <trkpt lat="42.51775042153894901275634765625" lon="19.9826879985630512237548828125">
        <ele>1515.800048828125</ele>
        <time>2026-06-19T07:56:24.000Z</time>
        <extensions>
          <ns3:TrackPointExtension>
            <ns3:atemp>20.0</ns3:atemp>
          </ns3:TrackPointExtension>
        </extensions>
      </trkpt>
      <trkpt lat="42.51773835159838199615478515625" lon="19.98272529803216457366943359375">
        <ele>1515.800048828125</ele>
        <time>2026-06-19T07:56:25.000Z</time>
        <extensions>
          <ns3:TrackPointExtension>
            <ns3:atemp>20.0</ns3:atemp>
          </ns3:TrackPointExtension>
        </extensions>
      </trkpt>
      <trkpt lat="42.5177246890962123870849609375" lon="19.9827589094638824462890625">
        <ele>1516</ele>
        <time>2026-06-19T07:56:26.000Z</time>
        <extensions>
          <ns3:TrackPointExtension>
            <ns3:atemp>20.0</ns3:atemp>
          </ns3:TrackPointExtension>
        </extensions>
      </trkpt>
      <trkpt lat="42.517709769308567047119140625" lon="19.9827922694385051727294921875">
        <ele>1516</ele>
        <time>2026-06-19T07:56:27.000Z</time>
        <extensions>
          <ns3:TrackPointExtension>
            <ns3:atemp>20.0</ns3:atemp>
          </ns3:TrackPointExtension>
        </extensions>
      </trkpt>
      <trkpt lat="42.51769660972058773040771484375" lon="19.9828174151480197906494140625">
        <ele>1516.199951171875</ele>
        <time>2026-06-19T07:56:28.000Z</time>
        <extensions>
          <ns3:TrackPointExtension>
            <ns3:atemp>20.0</ns3:atemp>
          </ns3:TrackPointExtension>
        </extensions>
      </trkpt>
      <trkpt lat="42.517688311636447906494140625" lon="19.98284406960010528564453125">
        <ele>1516.4000244140625</ele>
        <time>2026-06-19T07:56:29.000Z</time>
        <extensions>
          <ns3:TrackPointExtension>
            <ns3:atemp>20.0</ns3:atemp>
          </ns3:TrackPointExtension>
        </extensions>
      </trkpt>
      <trkpt lat="42.517677247524261474609375" lon="19.9828656949102878570556640625">
        <ele>1516.4000244140625</ele>
        <time>2026-06-19T07:56:30.000Z</time>
        <extensions>
          <ns3:TrackPointExtension>
            <ns3:atemp>20.0</ns3:atemp>
          </ns3:TrackPointExtension>
        </extensions>
      </trkpt>
      <trkpt lat="42.5176646746695041656494140625" lon="19.98289025388658046722412109375">
        <ele>1516.5999755859375</ele>
        <time>2026-06-19T07:56:31.000Z</time>
        <extensions>
          <ns3:TrackPointExtension>
            <ns3:atemp>20.0</ns3:atemp>
          </ns3:TrackPointExtension>
        </extensions>
      </trkpt>
      <trkpt lat="42.51765201799571514129638671875" lon="19.98291707597672939300537109375">
        <ele>1516.5999755859375</ele>
        <time>2026-06-19T07:56:32.000Z</time>
        <extensions>
          <ns3:TrackPointExtension>
            <ns3:atemp>20.0</ns3:atemp>
          </ns3:TrackPointExtension>
        </extensions>
      </trkpt>
      <trkpt lat="42.51763642765581607818603515625" lon="19.982942976057529449462890625">
        <ele>1516.800048828125</ele>
        <time>2026-06-19T07:56:33.000Z</time>
        <extensions>
          <ns3:TrackPointExtension>
            <ns3:atemp>20.0</ns3:atemp>
          </ns3:TrackPointExtension>
        </extensions>
      </trkpt>
      <trkpt lat="42.51761865802109241485595703125" lon="19.982969798147678375244140625">
        <ele>1516.800048828125</ele>
        <time>2026-06-19T07:56:34.000Z</time>
        <extensions>
          <ns3:TrackPointExtension>
            <ns3:atemp>20.0</ns3:atemp>
          </ns3:TrackPointExtension>
        </extensions>
      </trkpt>
      <trkpt lat="42.5175989605486392974853515625" lon="19.9829971231520175933837890625">
        <ele>1517</ele>
        <time>2026-06-19T07:56:35.000Z</time>
        <extensions>
          <ns3:TrackPointExtension>
            <ns3:atemp>20.0</ns3:atemp>
          </ns3:TrackPointExtension>
        </extensions>
      </trkpt>
      <trkpt lat="42.51758328638970851898193359375" lon="19.9830150604248046875">
        <ele>1517.199951171875</ele>
        <time>2026-06-19T07:56:36.000Z</time>
        <extensions>
          <ns3:TrackPointExtension>
            <ns3:atemp>20.0</ns3:atemp>
          </ns3:TrackPointExtension>
        </extensions>
      </trkpt>
      <trkpt lat="42.51757037825882434844970703125" lon="19.98303542844951152801513671875">
        <ele>1517.199951171875</ele>
        <time>2026-06-19T07:56:37.000Z</time>
        <extensions>
          <ns3:TrackPointExtension>
            <ns3:atemp>20.0</ns3:atemp>
          </ns3:TrackPointExtension>
        </extensions>
      </trkpt>
      <trkpt lat="42.5175630860030651092529296875" lon="19.983053617179393768310546875">
        <ele>1517.4000244140625</ele>
        <time>2026-06-19T07:56:38.000Z</time>
        <extensions>
          <ns3:TrackPointExtension>
            <ns3:atemp>20.0</ns3:atemp>
          </ns3:TrackPointExtension>
        </extensions>
      </trkpt>
      <trkpt lat="42.5175516866147518157958984375" lon="19.9830695427954196929931640625">
        <ele>1517.5999755859375</ele>
        <time>2026-06-19T07:56:39.000Z</time>
        <extensions>
          <ns3:TrackPointExtension>
            <ns3:atemp>20.0</ns3:atemp>
          </ns3:TrackPointExtension>
        </extensions>
      </trkpt>
      <trkpt lat="42.51754003576934337615966796875" lon="19.98308538459241390228271484375">
        <ele>1517.800048828125</ele>
        <time>2026-06-19T07:56:40.000Z</time>
        <extensions>
          <ns3:TrackPointExtension>
            <ns3:atemp>20.0</ns3:atemp>
          </ns3:TrackPointExtension>
        </extensions>
      </trkpt>
      <trkpt lat="42.51752595417201519012451171875" lon="19.983101226389408111572265625">
        <ele>1518</ele>
        <time>2026-06-19T07:56:41.000Z</time>
        <extensions>
          <ns3:TrackPointExtension>
            <ns3:atemp>20.0</ns3:atemp>
          </ns3:TrackPointExtension>
        </extensions>
      </trkpt>
      <trkpt lat="42.5175215117633342742919921875" lon="19.9831154756247997283935546875">
        <ele>1518</ele>
        <time>2026-06-19T07:56:42.000Z</time>
        <extensions>
          <ns3:TrackPointExtension>
            <ns3:atemp>20.0</ns3:atemp>
          </ns3:TrackPointExtension>
        </extensions>
      </trkpt>
      <trkpt lat="42.51751857809722423553466796875" lon="19.983129389584064483642578125">
        <ele>1518.199951171875</ele>
        <time>2026-06-19T07:56:43.000Z</time>
        <extensions>
          <ns3:TrackPointExtension>
            <ns3:atemp>20.0</ns3:atemp>
          </ns3:TrackPointExtension>
        </extensions>
      </trkpt>
      <trkpt lat="42.51751857809722423553466796875" lon="19.983129389584064483642578125">
        <ele>1518.4000244140625</ele>
        <time>2026-06-19T07:56:44.000Z</time>
        <extensions>
          <ns3:TrackPointExtension>
            <ns3:atemp>20.0</ns3:atemp>
          </ns3:TrackPointExtension>
        </extensions>
      </trkpt>
      <trkpt lat="42.51751857809722423553466796875" lon="19.983129389584064483642578125">
        <ele>1518.5999755859375</ele>
        <time>2026-06-19T07:56:45.000Z</time>
        <extensions>
          <ns3:TrackPointExtension>
            <ns3:atemp>20.0</ns3:atemp>
          </ns3:TrackPointExtension>
        </extensions>
      </trkpt>
      <trkpt lat="42.51751857809722423553466796875" lon="19.983129389584064483642578125">
        <ele>1518.5999755859375</ele>
        <time>2026-06-19T07:56:46.000Z</time>
        <extensions>
          <ns3:TrackPointExtension>
            <ns3:atemp>20.0</ns3:atemp>
          </ns3:TrackPointExtension>
        </extensions>
      </trkpt>
      <trkpt lat="42.51751857809722423553466796875" lon="19.983129389584064483642578125">
        <ele>1518.800048828125</ele>
        <time>2026-06-19T07:56:47.000Z</time>
        <extensions>
          <ns3:TrackPointExtension>
            <ns3:atemp>20.0</ns3:atemp>
          </ns3:TrackPointExtension>
        </extensions>
      </trkpt>
      <trkpt lat="42.51751857809722423553466796875" lon="19.983129389584064483642578125">
        <ele>1518.800048828125</ele>
        <time>2026-06-19T07:56:48.000Z</time>
        <extensions>
          <ns3:TrackPointExtension>
            <ns3:atemp>20.0</ns3:atemp>
          </ns3:TrackPointExtension>
        </extensions>
      </trkpt>
      <trkpt lat="42.51751857809722423553466796875" lon="19.983129389584064483642578125">
        <ele>1518.800048828125</ele>
        <time>2026-06-19T07:56:49.000Z</time>
        <extensions>
          <ns3:TrackPointExtension>
            <ns3:atemp>20.0</ns3:atemp>
          </ns3:TrackPointExtension>
        </extensions>
      </trkpt>
      <trkpt lat="42.5175178237259387969970703125" lon="19.98313182033598423004150390625">
        <ele>1518.800048828125</ele>
        <time>2026-06-19T07:56:50.000Z</time>
        <extensions>
          <ns3:TrackPointExtension>
            <ns3:atemp>20.0</ns3:atemp>
          </ns3:TrackPointExtension>
        </extensions>
      </trkpt>
      <trkpt lat="42.51750768162310123443603515625" lon="19.9831500090658664703369140625">
        <ele>1518.800048828125</ele>
        <time>2026-06-19T07:56:51.000Z</time>
        <extensions>
          <ns3:TrackPointExtension>
            <ns3:atemp>20.0</ns3:atemp>
          </ns3:TrackPointExtension>
        </extensions>
      </trkpt>
      <trkpt lat="42.5174940191209316253662109375" lon="19.9831585586071014404296875">
        <ele>1518.5999755859375</ele>
        <time>2026-06-19T07:56:52.000Z</time>
        <extensions>
          <ns3:TrackPointExtension>
            <ns3:atemp>20.0</ns3:atemp>
          </ns3:TrackPointExtension>
        </extensions>
      </trkpt>
      <trkpt lat="42.5174812786281108856201171875" lon="19.9831634201109409332275390625">
        <ele>1518.5999755859375</ele>
        <time>2026-06-19T07:56:53.000Z</time>
        <extensions>
          <ns3:TrackPointExtension>
            <ns3:atemp>20.0</ns3:atemp>
          </ns3:TrackPointExtension>
        </extensions>
      </trkpt>
      <trkpt lat="42.517459653317928314208984375" lon="19.98317959718406200408935546875">
        <ele>1518.5999755859375</ele>
        <time>2026-06-19T07:56:54.000Z</time>
        <extensions>
          <ns3:TrackPointExtension>
            <ns3:atemp>20.0</ns3:atemp>
          </ns3:TrackPointExtension>
        </extensions>
      </trkpt>
      <trkpt lat="42.51743786036968231201171875" lon="19.98319602571427822113037109375">
        <ele>1518.4000244140625</ele>
        <time>2026-06-19T07:56:55.000Z</time>
        <extensions>
          <ns3:TrackPointExtension>
            <ns3:atemp>20.0</ns3:atemp>
          </ns3:TrackPointExtension>
        </extensions>
      </trkpt>
      <trkpt lat="42.51741665415465831756591796875" lon="19.983210526406764984130859375">
        <ele>1518.4000244140625</ele>
        <time>2026-06-19T07:56:56.000Z</time>
        <extensions>
          <ns3:TrackPointExtension>
            <ns3:atemp>20.0</ns3:atemp>
          </ns3:TrackPointExtension>
        </extensions>
      </trkpt>
      <trkpt lat="42.517395280301570892333984375" lon="19.98322972096502780914306640625">
        <ele>1518.4000244140625</ele>
        <time>2026-06-19T07:56:57.000Z</time>
        <extensions>
          <ns3:TrackPointExtension>
            <ns3:atemp>20.0</ns3:atemp>
          </ns3:TrackPointExtension>
        </extensions>
      </trkpt>
      <trkpt lat="42.5173733197152614593505859375" lon="19.98325101099908351898193359375">
        <ele>1518.5999755859375</ele>
        <time>2026-06-19T07:56:58.000Z</time>
        <extensions>
          <ns3:TrackPointExtension>
            <ns3:atemp>20.0</ns3:atemp>
          </ns3:TrackPointExtension>
        </extensions>
      </trkpt>
      <trkpt lat="42.51734926365315914154052734375" lon="19.98327791690826416015625">
        <ele>1518.5999755859375</ele>
        <time>2026-06-19T07:56:59.000Z</time>
        <extensions>
          <ns3:TrackPointExtension>
            <ns3:atemp>20.0</ns3:atemp>
          </ns3:TrackPointExtension>
        </extensions>
      </trkpt>
      <trkpt lat="42.5173300690948963165283203125" lon="19.98330633156001567840576171875">
        <ele>1518.5999755859375</ele>
        <time>2026-06-19T07:57:00.000Z</time>
        <extensions>
          <ns3:TrackPointExtension>
            <ns3:atemp>20.0</ns3:atemp>
          </ns3:TrackPointExtension>
        </extensions>
      </trkpt>
      <trkpt lat="42.5173099525272846221923828125" lon="19.98333332128822803497314453125">
        <ele>1518.800048828125</ele>
        <time>2026-06-19T07:57:01.000Z</time>
        <extensions>
          <ns3:TrackPointExtension>
            <ns3:atemp>20.0</ns3:atemp>
          </ns3:TrackPointExtension>
        </extensions>
      </trkpt>
      <trkpt lat="42.5172843039035797119140625" lon="19.98336835764348506927490234375">
        <ele>1518.800048828125</ele>
        <time>2026-06-19T07:57:02.000Z</time>
        <extensions>
          <ns3:TrackPointExtension>
            <ns3:atemp>20.0</ns3:atemp>
          </ns3:TrackPointExtension>
        </extensions>
      </trkpt>
      <trkpt lat="42.5172630138695240020751953125" lon="19.98338998295366764068603515625">
        <ele>1518.800048828125</ele>
        <time>2026-06-19T07:57:03.000Z</time>
        <extensions>
          <ns3:TrackPointExtension>
            <ns3:atemp>20.0</ns3:atemp>
          </ns3:TrackPointExtension>
        </extensions>
      </trkpt>
      <trkpt lat="42.51723803579807281494140625" lon="19.98341311700642108917236328125">
        <ele>1518.800048828125</ele>
        <time>2026-06-19T07:57:04.000Z</time>
        <extensions>
          <ns3:TrackPointExtension>
            <ns3:atemp>20.0</ns3:atemp>
          </ns3:TrackPointExtension>
        </extensions>
      </trkpt>
      <trkpt lat="42.51721582375466823577880859375" lon="19.98342652805149555206298828125">
        <ele>1518.800048828125</ele>
        <time>2026-06-19T07:57:05.000Z</time>
        <extensions>
          <ns3:TrackPointExtension>
            <ns3:atemp>20.0</ns3:atemp>
          </ns3:TrackPointExtension>
        </extensions>
      </trkpt>
      <trkpt lat="42.51719176769256591796875" lon="19.983443878591060638427734375">
        <ele>1518.800048828125</ele>
        <time>2026-06-19T07:57:06.000Z</time>
        <extensions>
          <ns3:TrackPointExtension>
            <ns3:atemp>20.0</ns3:atemp>
          </ns3:TrackPointExtension>
        </extensions>
      </trkpt>
      <trkpt lat="42.517163939774036407470703125" lon="19.98345687054097652435302734375">
        <ele>1519</ele>
        <time>2026-06-19T07:57:07.000Z</time>
        <extensions>
          <ns3:TrackPointExtension>
            <ns3:atemp>20.0</ns3:atemp>
          </ns3:TrackPointExtension>
        </extensions>
      </trkpt>
      <trkpt lat="42.51714340411126613616943359375" lon="19.9834722094237804412841796875">
        <ele>1519.199951171875</ele>
        <time>2026-06-19T07:57:08.000Z</time>
        <extensions>
          <ns3:TrackPointExtension>
            <ns3:atemp>20.0</ns3:atemp>
          </ns3:TrackPointExtension>
        </extensions>
      </trkpt>
      <trkpt lat="42.51712462864816188812255859375" lon="19.9834866262972354888916015625">
        <ele>1519.199951171875</ele>
        <time>2026-06-19T07:57:09.000Z</time>
        <extensions>
          <ns3:TrackPointExtension>
            <ns3:atemp>20.0</ns3:atemp>
          </ns3:TrackPointExtension>
        </extensions>
      </trkpt>
      <trkpt lat="42.51710526645183563232421875" lon="19.9835000373423099517822265625">
        <ele>1519.4000244140625</ele>
        <time>2026-06-19T07:57:10.000Z</time>
        <extensions>
          <ns3:TrackPointExtension>
            <ns3:atemp>20.0</ns3:atemp>
          </ns3:TrackPointExtension>
        </extensions>
      </trkpt>
      <trkpt lat="42.5170802883803844451904296875" lon="19.98351235873997211456298828125">
        <ele>1519.5999755859375</ele>
        <time>2026-06-19T07:57:11.000Z</time>
        <extensions>
          <ns3:TrackPointExtension>
            <ns3:atemp>20.0</ns3:atemp>
          </ns3:TrackPointExtension>
        </extensions>
      </trkpt>
      <trkpt lat="42.5170548073947429656982421875" lon="19.98352409340441226959228515625">
        <ele>1519.800048828125</ele>
        <time>2026-06-19T07:57:12.000Z</time>
        <extensions>
          <ns3:TrackPointExtension>
            <ns3:atemp>20.0</ns3:atemp>
          </ns3:TrackPointExtension>
        </extensions>
      </trkpt>
      <trkpt lat="42.51703058369457721710205078125" lon="19.98353683389723300933837890625">
        <ele>1520</ele>
        <time>2026-06-19T07:57:13.000Z</time>
        <extensions>
          <ns3:TrackPointExtension>
            <ns3:atemp>20.0</ns3:atemp>
          </ns3:TrackPointExtension>
        </extensions>
      </trkpt>
      <trkpt lat="42.51701180823147296905517578125" lon="19.98353867791593074798583984375">
        <ele>1520.199951171875</ele>
        <time>2026-06-19T07:57:14.000Z</time>
        <extensions>
          <ns3:TrackPointExtension>
            <ns3:atemp>20.0</ns3:atemp>
          </ns3:TrackPointExtension>
        </extensions>
      </trkpt>
      <trkpt lat="42.51699336804449558258056640625" lon="19.98353985138237476348876953125">
        <ele>1520.4000244140625</ele>
        <time>2026-06-19T07:57:15.000Z</time>
        <extensions>
          <ns3:TrackPointExtension>
            <ns3:atemp>20.0</ns3:atemp>
          </ns3:TrackPointExtension>
        </extensions>
      </trkpt>
      <trkpt lat="42.5169719941914081573486328125" lon="19.9835429526865482330322265625">
        <ele>1520.5999755859375</ele>
        <time>2026-06-19T07:57:16.000Z</time>
        <extensions>
          <ns3:TrackPointExtension>
            <ns3:atemp>20.0</ns3:atemp>
          </ns3:TrackPointExtension>
        </extensions>
      </trkpt>
      <trkpt lat="42.51695506274700164794921875" lon="19.98354923911392688751220703125">
        <ele>1520.800048828125</ele>
        <time>2026-06-19T07:57:17.000Z</time>
        <extensions>
          <ns3:TrackPointExtension>
            <ns3:atemp>20.0</ns3:atemp>
          </ns3:TrackPointExtension>
        </extensions>
      </trkpt>
      <trkpt lat="42.5169418193399906158447265625" lon="19.98356097377836704254150390625">
        <ele>1521</ele>
        <time>2026-06-19T07:57:18.000Z</time>
        <extensions>
          <ns3:TrackPointExtension>
            <ns3:atemp>20.0</ns3:atemp>
          </ns3:TrackPointExtension>
        </extensions>
      </trkpt>
      <trkpt lat="42.5169275701045989990234375" lon="19.98357270844280719757080078125">
        <ele>1521.199951171875</ele>
        <time>2026-06-19T07:57:19.000Z</time>
        <extensions>
          <ns3:TrackPointExtension>
            <ns3:atemp>20.0</ns3:atemp>
          </ns3:TrackPointExtension>
        </extensions>
      </trkpt>
      <trkpt lat="42.51691105775535106658935546875" lon="19.98358209617435932159423828125">
        <ele>1521.4000244140625</ele>
        <time>2026-06-19T07:57:20.000Z</time>
        <extensions>
          <ns3:TrackPointExtension>
            <ns3:atemp>20.0</ns3:atemp>
          </ns3:TrackPointExtension>
        </extensions>
      </trkpt>
      <trkpt lat="42.51689479686319828033447265625" lon="19.9835949204862117767333984375">
        <ele>1521.5999755859375</ele>
        <time>2026-06-19T07:57:21.000Z</time>
        <extensions>
          <ns3:TrackPointExtension>
            <ns3:atemp>20.0</ns3:atemp>
          </ns3:TrackPointExtension>
        </extensions>
      </trkpt>
      <trkpt lat="42.51688071526587009429931640625" lon="19.9836073257029056549072265625">
        <ele>1521.800048828125</ele>
        <time>2026-06-19T07:57:22.000Z</time>
        <extensions>
          <ns3:TrackPointExtension>
            <ns3:atemp>20.0</ns3:atemp>
          </ns3:TrackPointExtension>
        </extensions>
      </trkpt>
      <trkpt lat="42.51687166281044483184814453125" lon="19.98361981473863124847412109375">
        <ele>1522</ele>
        <time>2026-06-19T07:57:23.000Z</time>
        <extensions>
          <ns3:TrackPointExtension>
            <ns3:atemp>20.0</ns3:atemp>
          </ns3:TrackPointExtension>
        </extensions>
      </trkpt>
      <trkpt lat="42.51686210744082927703857421875" lon="19.98362987302243709564208984375">
        <ele>1522.199951171875</ele>
        <time>2026-06-19T07:57:24.000Z</time>
        <extensions>
          <ns3:TrackPointExtension>
            <ns3:atemp>20.0</ns3:atemp>
          </ns3:TrackPointExtension>
        </extensions>
      </trkpt>
      <trkpt lat="42.51684953458607196807861328125" lon="19.98364445753395557403564453125">
        <ele>1522.4000244140625</ele>
        <time>2026-06-19T07:57:25.000Z</time>
        <extensions>
          <ns3:TrackPointExtension>
            <ns3:atemp>20.0</ns3:atemp>
          </ns3:TrackPointExtension>
        </extensions>
      </trkpt>
      <trkpt lat="42.51683142967522144317626953125" lon="19.98365434817969799041748046875">
        <ele>1522.800048828125</ele>
        <time>2026-06-19T07:57:26.000Z</time>
        <extensions>
          <ns3:TrackPointExtension>
            <ns3:atemp>20.0</ns3:atemp>
          </ns3:TrackPointExtension>
        </extensions>
      </trkpt>
      <trkpt lat="42.51681081019341945648193359375" lon="19.98365853913128376007080078125">
        <ele>1523</ele>
        <time>2026-06-19T07:57:27.000Z</time>
        <extensions>
          <ns3:TrackPointExtension>
            <ns3:atemp>20.0</ns3:atemp>
          </ns3:TrackPointExtension>
        </extensions>
      </trkpt>
      <trkpt lat="42.51679220236837863922119140625" lon="19.98366842977702617645263671875">
        <ele>1523.199951171875</ele>
        <time>2026-06-19T07:57:28.000Z</time>
        <extensions>
          <ns3:TrackPointExtension>
            <ns3:atemp>20.0</ns3:atemp>
          </ns3:TrackPointExtension>
        </extensions>
      </trkpt>
      <trkpt lat="42.51677644439041614532470703125" lon="19.9836740456521511077880859375">
        <ele>1523.4000244140625</ele>
        <time>2026-06-19T07:57:29.000Z</time>
        <extensions>
          <ns3:TrackPointExtension>
            <ns3:atemp>20.0</ns3:atemp>
          </ns3:TrackPointExtension>
        </extensions>
      </trkpt>
      <trkpt lat="42.51676018349826335906982421875" lon="19.9836827628314495086669921875">
        <ele>1523.5999755859375</ele>
        <time>2026-06-19T07:57:30.000Z</time>
        <extensions>
          <ns3:TrackPointExtension>
            <ns3:atemp>20.0</ns3:atemp>
          </ns3:TrackPointExtension>
        </extensions>
      </trkpt>
      <trkpt lat="42.5167443417012691497802734375" lon="19.98369659297168254852294921875">
        <ele>1523.800048828125</ele>
        <time>2026-06-19T07:57:31.000Z</time>
        <extensions>
          <ns3:TrackPointExtension>
            <ns3:atemp>20.0</ns3:atemp>
          </ns3:TrackPointExtension>
        </extensions>
      </trkpt>
      <trkpt lat="42.51673336140811443328857421875" lon="19.9837095849215984344482421875">
        <ele>1524</ele>
        <time>2026-06-19T07:57:32.000Z</time>
        <extensions>
          <ns3:TrackPointExtension>
            <ns3:atemp>20.0</ns3:atemp>
          </ns3:TrackPointExtension>
        </extensions>
      </trkpt>
      <trkpt lat="42.51671944744884967803955078125" lon="19.98372341506183147430419921875">
        <ele>1524.4000244140625</ele>
        <time>2026-06-19T07:57:33.000Z</time>
        <extensions>
          <ns3:TrackPointExtension>
            <ns3:atemp>20.0</ns3:atemp>
          </ns3:TrackPointExtension>
        </extensions>
      </trkpt>
      <trkpt lat="42.51670964062213897705078125" lon="19.98374135233461856842041015625">
        <ele>1524.5999755859375</ele>
        <time>2026-06-19T07:57:34.000Z</time>
        <extensions>
          <ns3:TrackPointExtension>
            <ns3:atemp>20.0</ns3:atemp>
          </ns3:TrackPointExtension>
        </extensions>
      </trkpt>
      <trkpt lat="42.5166900269687175750732421875" lon="19.98375526629388332366943359375">
        <ele>1524.800048828125</ele>
        <time>2026-06-19T07:57:35.000Z</time>
        <extensions>
          <ns3:TrackPointExtension>
            <ns3:atemp>20.0</ns3:atemp>
          </ns3:TrackPointExtension>
        </extensions>
      </trkpt>
      <trkpt lat="42.51667317934334278106689453125" lon="19.98376934789121150970458984375">
        <ele>1525</ele>
        <time>2026-06-19T07:57:36.000Z</time>
        <extensions>
          <ns3:TrackPointExtension>
            <ns3:atemp>20.0</ns3:atemp>
          </ns3:TrackPointExtension>
        </extensions>
      </trkpt>
      <trkpt lat="42.5166618637740612030029296875" lon="19.98377890326082706451416015625">
        <ele>1525.199951171875</ele>
        <time>2026-06-19T07:57:37.000Z</time>
        <extensions>
          <ns3:TrackPointExtension>
            <ns3:atemp>20.0</ns3:atemp>
          </ns3:TrackPointExtension>
        </extensions>
      </trkpt>
      <trkpt lat="42.5166568346321582794189453125" lon="19.98378284275531768798828125">
        <ele>1525.4000244140625</ele>
        <time>2026-06-19T07:57:38.000Z</time>
        <extensions>
          <ns3:TrackPointExtension>
            <ns3:atemp>20.0</ns3:atemp>
          </ns3:TrackPointExtension>
        </extensions>
      </trkpt>
      <trkpt lat="42.51665675081312656402587890625" lon="19.9837835133075714111328125">
        <ele>1525.800048828125</ele>
        <time>2026-06-19T07:57:39.000Z</time>
        <extensions>
          <ns3:TrackPointExtension>
            <ns3:atemp>20.0</ns3:atemp>
          </ns3:TrackPointExtension>
        </extensions>
      </trkpt>
      <trkpt lat="42.51665675081312656402587890625" lon="19.9837835133075714111328125">
        <ele>1525.800048828125</ele>
        <time>2026-06-19T07:57:40.000Z</time>
        <extensions>
          <ns3:TrackPointExtension>
            <ns3:atemp>20.0</ns3:atemp>
          </ns3:TrackPointExtension>
        </extensions>
      </trkpt>
      <trkpt lat="42.51665624789893627166748046875" lon="19.9837843514978885650634765625">
        <ele>1526.199951171875</ele>
        <time>2026-06-19T07:57:41.000Z</time>
        <extensions>
          <ns3:TrackPointExtension>
            <ns3:atemp>20.0</ns3:atemp>
          </ns3:TrackPointExtension>
        </extensions>
      </trkpt>
      <trkpt lat="42.51665675081312656402587890625" lon="19.9837835133075714111328125">
        <ele>1526.199951171875</ele>
        <time>2026-06-19T07:57:42.000Z</time>
        <extensions>
          <ns3:TrackPointExtension>
            <ns3:atemp>20.0</ns3:atemp>
          </ns3:TrackPointExtension>
        </extensions>
      </trkpt>
      <trkpt lat="42.51664794981479644775390625" lon="19.98379751108586788177490234375">
        <ele>1526.4000244140625</ele>
        <time>2026-06-19T07:57:43.000Z</time>
        <extensions>
          <ns3:TrackPointExtension>
            <ns3:atemp>20.0</ns3:atemp>
          </ns3:TrackPointExtension>
        </extensions>
      </trkpt>
      <trkpt lat="42.51664794981479644775390625" lon="19.98379784636199474334716796875">
        <ele>1526.4000244140625</ele>
        <time>2026-06-19T07:57:44.000Z</time>
        <extensions>
          <ns3:TrackPointExtension>
            <ns3:atemp>20.0</ns3:atemp>
          </ns3:TrackPointExtension>
        </extensions>
      </trkpt>
      <trkpt lat="42.51663764007389545440673828125" lon="19.9838121794164180755615234375">
        <ele>1526.4000244140625</ele>
        <time>2026-06-19T07:57:45.000Z</time>
        <extensions>
          <ns3:TrackPointExtension>
            <ns3:atemp>20.0</ns3:atemp>
          </ns3:TrackPointExtension>
        </extensions>
      </trkpt>
      <trkpt lat="42.51662674359977245330810546875" lon="19.9838245846331119537353515625">
        <ele>1526.4000244140625</ele>
        <time>2026-06-19T07:57:46.000Z</time>
        <extensions>
          <ns3:TrackPointExtension>
            <ns3:atemp>20.0</ns3:atemp>
          </ns3:TrackPointExtension>
        </extensions>
      </trkpt>
      <trkpt lat="42.51661869697272777557373046875" lon="19.9838359840214252471923828125">
        <ele>1526.5999755859375</ele>
        <time>2026-06-19T07:57:47.000Z</time>
        <extensions>
          <ns3:TrackPointExtension>
            <ns3:atemp>20.0</ns3:atemp>
          </ns3:TrackPointExtension>
        </extensions>
      </trkpt>
      <trkpt lat="42.5166068784892559051513671875" lon="19.9838447012007236480712890625">
        <ele>1526.5999755859375</ele>
        <time>2026-06-19T07:57:48.000Z</time>
        <extensions>
          <ns3:TrackPointExtension>
            <ns3:atemp>20.0</ns3:atemp>
          </ns3:TrackPointExtension>
        </extensions>
      </trkpt>
      <trkpt lat="42.51659003086388111114501953125" lon="19.98385702259838581085205078125">
        <ele>1526.800048828125</ele>
        <time>2026-06-19T07:57:49.000Z</time>
        <extensions>
          <ns3:TrackPointExtension>
            <ns3:atemp>20.0</ns3:atemp>
          </ns3:TrackPointExtension>
        </extensions>
      </trkpt>
      <trkpt lat="42.51657108776271343231201171875" lon="19.98387177474796772003173828125">
        <ele>1526.800048828125</ele>
        <time>2026-06-19T07:57:50.000Z</time>
        <extensions>
          <ns3:TrackPointExtension>
            <ns3:atemp>20.0</ns3:atemp>
          </ns3:TrackPointExtension>
        </extensions>
      </trkpt>
      <trkpt lat="42.5165559165179729461669921875" lon="19.98388937674462795257568359375">
        <ele>1527</ele>
        <time>2026-06-19T07:57:51.000Z</time>
        <extensions>
          <ns3:TrackPointExtension>
            <ns3:atemp>20.0</ns3:atemp>
          </ns3:TrackPointExtension>
        </extensions>
      </trkpt>
      <trkpt lat="42.5165371410548686981201171875" lon="19.98391024768352508544921875">
        <ele>1527.199951171875</ele>
        <time>2026-06-19T07:57:52.000Z</time>
        <extensions>
          <ns3:TrackPointExtension>
            <ns3:atemp>20.0</ns3:atemp>
          </ns3:TrackPointExtension>
        </extensions>
      </trkpt>
      <trkpt lat="42.51651945523917675018310546875" lon="19.9839241616427898406982421875">
        <ele>1527.4000244140625</ele>
        <time>2026-06-19T07:57:53.000Z</time>
        <extensions>
          <ns3:TrackPointExtension>
            <ns3:atemp>20.0</ns3:atemp>
          </ns3:TrackPointExtension>
        </extensions>
      </trkpt>
      <trkpt lat="42.51650420017540454864501953125" lon="19.98394033871591091156005859375">
        <ele>1527.5999755859375</ele>
        <time>2026-06-19T07:57:54.000Z</time>
        <extensions>
          <ns3:TrackPointExtension>
            <ns3:atemp>20.0</ns3:atemp>
          </ns3:TrackPointExtension>
        </extensions>
      </trkpt>
      <trkpt lat="42.51648659817874431610107421875" lon="19.98395257629454135894775390625">
        <ele>1528</ele>
        <time>2026-06-19T07:57:55.000Z</time>
        <extensions>
          <ns3:TrackPointExtension>
            <ns3:atemp>20.0</ns3:atemp>
          </ns3:TrackPointExtension>
        </extensions>
      </trkpt>
      <trkpt lat="42.516469247639179229736328125" lon="19.98396246694028377532958984375">
        <ele>1528.199951171875</ele>
        <time>2026-06-19T07:57:56.000Z</time>
        <extensions>
          <ns3:TrackPointExtension>
            <ns3:atemp>20.0</ns3:atemp>
          </ns3:TrackPointExtension>
        </extensions>
      </trkpt>
      <trkpt lat="42.5164501368999481201171875" lon="19.9839717708528041839599609375">
        <ele>1528.5999755859375</ele>
        <time>2026-06-19T07:57:57.000Z</time>
        <extensions>
          <ns3:TrackPointExtension>
            <ns3:atemp>20.0</ns3:atemp>
          </ns3:TrackPointExtension>
        </extensions>
      </trkpt>
      <trkpt lat="42.51642943359911441802978515625" lon="19.98397839255630970001220703125">
        <ele>1528.800048828125</ele>
        <time>2026-06-19T07:57:58.000Z</time>
        <extensions>
          <ns3:TrackPointExtension>
            <ns3:atemp>20.0</ns3:atemp>
          </ns3:TrackPointExtension>
        </extensions>
      </trkpt>
      <trkpt lat="42.5164107419550418853759765625" lon="19.983985014259815216064453125">
        <ele>1529</ele>
        <time>2026-06-19T07:57:59.000Z</time>
        <extensions>
          <ns3:TrackPointExtension>
            <ns3:atemp>20.0</ns3:atemp>
          </ns3:TrackPointExtension>
        </extensions>
      </trkpt>
      <trkpt lat="42.51639238558709621429443359375" lon="19.98399599455296993255615234375">
        <ele>1529.4000244140625</ele>
        <time>2026-06-19T07:58:00.000Z</time>
        <extensions>
          <ns3:TrackPointExtension>
            <ns3:atemp>20.0</ns3:atemp>
          </ns3:TrackPointExtension>
        </extensions>
      </trkpt>
      <trkpt lat="42.516370676457881927490234375" lon="19.9840061366558074951171875">
        <ele>1529.5999755859375</ele>
        <time>2026-06-19T07:58:01.000Z</time>
        <extensions>
          <ns3:TrackPointExtension>
            <ns3:atemp>20.0</ns3:atemp>
          </ns3:TrackPointExtension>
        </extensions>
      </trkpt>
      <trkpt lat="42.5163537450134754180908203125" lon="19.98401158489286899566650390625">
        <ele>1529.800048828125</ele>
        <time>2026-06-19T07:58:02.000Z</time>
        <extensions>
          <ns3:TrackPointExtension>
            <ns3:atemp>20.0</ns3:atemp>
          </ns3:TrackPointExtension>
        </extensions>
      </trkpt>
      <trkpt lat="42.516339831054210662841796875" lon="19.98401778750121593475341796875">
        <ele>1530.199951171875</ele>
        <time>2026-06-19T07:58:03.000Z</time>
        <extensions>
          <ns3:TrackPointExtension>
            <ns3:atemp>20.0</ns3:atemp>
          </ns3:TrackPointExtension>
        </extensions>
      </trkpt>
      <trkpt lat="42.51632600091397762298583984375" lon="19.984025917947292327880859375">
        <ele>1530.4000244140625</ele>
        <time>2026-06-19T07:58:04.000Z</time>
        <extensions>
          <ns3:TrackPointExtension>
            <ns3:atemp>20.0</ns3:atemp>
          </ns3:TrackPointExtension>
        </extensions>
      </trkpt>
      <trkpt lat="42.51631359569728374481201171875" lon="19.9840294383466243743896484375">
        <ele>1530.5999755859375</ele>
        <time>2026-06-19T07:58:05.000Z</time>
        <extensions>
          <ns3:TrackPointExtension>
            <ns3:atemp>20.0</ns3:atemp>
          </ns3:TrackPointExtension>
        </extensions>
      </trkpt>
      <trkpt lat="42.51630336977541446685791015625" lon="19.98403807170689105987548828125">
        <ele>1530.800048828125</ele>
        <time>2026-06-19T07:58:06.000Z</time>
        <extensions>
          <ns3:TrackPointExtension>
            <ns3:atemp>20.0</ns3:atemp>
          </ns3:TrackPointExtension>
        </extensions>
      </trkpt>
      <trkpt lat="42.5162863545119762420654296875" lon="19.98404729180037975311279296875">
        <ele>1531</ele>
        <time>2026-06-19T07:58:07.000Z</time>
        <extensions>
          <ns3:TrackPointExtension>
            <ns3:atemp>20.0</ns3:atemp>
          </ns3:TrackPointExtension>
        </extensions>
      </trkpt>
      <trkpt lat="42.51626975834369659423828125" lon="19.9840570986270904541015625">
        <ele>1531.4000244140625</ele>
        <time>2026-06-19T07:58:08.000Z</time>
        <extensions>
          <ns3:TrackPointExtension>
            <ns3:atemp>20.0</ns3:atemp>
          </ns3:TrackPointExtension>
        </extensions>
      </trkpt>
      <trkpt lat="42.51625190488994121551513671875" lon="19.984063468873500823974609375">
        <ele>1531.5999755859375</ele>
        <time>2026-06-19T07:58:09.000Z</time>
        <extensions>
          <ns3:TrackPointExtension>
            <ns3:atemp>20.0</ns3:atemp>
          </ns3:TrackPointExtension>
        </extensions>
      </trkpt>
      <trkpt lat="42.5162330456078052520751953125" lon="19.98407076112926006317138671875">
        <ele>1531.800048828125</ele>
        <time>2026-06-19T07:58:10.000Z</time>
        <extensions>
          <ns3:TrackPointExtension>
            <ns3:atemp>20.0</ns3:atemp>
          </ns3:TrackPointExtension>
        </extensions>
      </trkpt>
      <trkpt lat="42.51621435396373271942138671875" lon="19.98408048413693904876708984375">
        <ele>1532</ele>
        <time>2026-06-19T07:58:11.000Z</time>
        <extensions>
          <ns3:TrackPointExtension>
            <ns3:atemp>20.0</ns3:atemp>
          </ns3:TrackPointExtension>
        </extensions>
      </trkpt>
      <trkpt lat="42.51619675196707248687744140625" lon="19.98408752493560314178466796875">
        <ele>1532.4000244140625</ele>
        <time>2026-06-19T07:58:12.000Z</time>
        <extensions>
          <ns3:TrackPointExtension>
            <ns3:atemp>20.0</ns3:atemp>
          </ns3:TrackPointExtension>
        </extensions>
      </trkpt>
      <trkpt lat="42.51617982052266597747802734375" lon="19.98409674502909183502197265625">
        <ele>1532.5999755859375</ele>
        <time>2026-06-19T07:58:13.000Z</time>
        <extensions>
          <ns3:TrackPointExtension>
            <ns3:atemp>20.0</ns3:atemp>
          </ns3:TrackPointExtension>
        </extensions>
      </trkpt>
      <trkpt lat="42.51616406254470348358154296875" lon="19.98411007225513458251953125">
        <ele>1532.800048828125</ele>
        <time>2026-06-19T07:58:14.000Z</time>
        <extensions>
          <ns3:TrackPointExtension>
            <ns3:atemp>20.0</ns3:atemp>
          </ns3:TrackPointExtension>
        </extensions>
      </trkpt>
      <trkpt lat="42.51614629290997982025146484375" lon="19.98412423767149448394775390625">
        <ele>1533.199951171875</ele>
        <time>2026-06-19T07:58:15.000Z</time>
        <extensions>
          <ns3:TrackPointExtension>
            <ns3:atemp>20.0</ns3:atemp>
          </ns3:TrackPointExtension>
        </extensions>
      </trkpt>
      <trkpt lat="42.5161291100084781646728515625" lon="19.9841363914310932159423828125">
        <ele>1533.4000244140625</ele>
        <time>2026-06-19T07:58:16.000Z</time>
        <extensions>
          <ns3:TrackPointExtension>
            <ns3:atemp>20.0</ns3:atemp>
          </ns3:TrackPointExtension>
        </extensions>
      </trkpt>
      <trkpt lat="42.5161116756498813629150390625" lon="19.98415022157132625579833984375">
        <ele>1533.5999755859375</ele>
        <time>2026-06-19T07:58:17.000Z</time>
        <extensions>
          <ns3:TrackPointExtension>
            <ns3:atemp>20.0</ns3:atemp>
          </ns3:TrackPointExtension>
        </extensions>
      </trkpt>
      <trkpt lat="42.51609549857676029205322265625" lon="19.98416396789252758026123046875">
        <ele>1533.800048828125</ele>
        <time>2026-06-19T07:58:18.000Z</time>
        <extensions>
          <ns3:TrackPointExtension>
            <ns3:atemp>20.0</ns3:atemp>
          </ns3:TrackPointExtension>
        </extensions>
      </trkpt>
      <trkpt lat="42.51608334481716156005859375" lon="19.98418240807950496673583984375">
        <ele>1534</ele>
        <time>2026-06-19T07:58:19.000Z</time>
        <extensions>
          <ns3:TrackPointExtension>
            <ns3:atemp>20.0</ns3:atemp>
          </ns3:TrackPointExtension>
        </extensions>
      </trkpt>
      <trkpt lat="42.5160684250295162200927734375" lon="19.98419917188584804534912109375">
        <ele>1534.4000244140625</ele>
        <time>2026-06-19T07:58:20.000Z</time>
        <extensions>
          <ns3:TrackPointExtension>
            <ns3:atemp>20.0</ns3:atemp>
          </ns3:TrackPointExtension>
        </extensions>
      </trkpt>
      <trkpt lat="42.51605518162250518798828125" lon="19.98420931398868560791015625">
        <ele>1534.5999755859375</ele>
        <time>2026-06-19T07:58:21.000Z</time>
        <extensions>
          <ns3:TrackPointExtension>
            <ns3:atemp>20.0</ns3:atemp>
          </ns3:TrackPointExtension>
        </extensions>
      </trkpt>
      <trkpt lat="42.51603967510163784027099609375" lon="19.98422532342374324798583984375">
        <ele>1535</ele>
        <time>2026-06-19T07:58:22.000Z</time>
        <extensions>
          <ns3:TrackPointExtension>
            <ns3:atemp>20.0</ns3:atemp>
          </ns3:TrackPointExtension>
        </extensions>
      </trkpt>
      <trkpt lat="42.5160276889801025390625" lon="19.98424527235329151153564453125">
        <ele>1535.199951171875</ele>
        <time>2026-06-19T07:58:23.000Z</time>
        <extensions>
          <ns3:TrackPointExtension>
            <ns3:atemp>20.0</ns3:atemp>
          </ns3:TrackPointExtension>
        </extensions>
      </trkpt>
      <trkpt lat="42.516016624867916107177734375" lon="19.9842698313295841217041015625">
        <ele>1535.4000244140625</ele>
        <time>2026-06-19T07:58:24.000Z</time>
        <extensions>
          <ns3:TrackPointExtension>
            <ns3:atemp>20.0</ns3:atemp>
          </ns3:TrackPointExtension>
        </extensions>
      </trkpt>
      <trkpt lat="42.51600313000380992889404296875" lon="19.984297491610050201416015625">
        <ele>1535.5999755859375</ele>
        <time>2026-06-19T07:58:25.000Z</time>
        <extensions>
          <ns3:TrackPointExtension>
            <ns3:atemp>20.0</ns3:atemp>
          </ns3:TrackPointExtension>
        </extensions>
      </trkpt>
      <trkpt lat="42.51599407754838466644287109375" lon="19.9843194521963596343994140625">
        <ele>1535.800048828125</ele>
        <time>2026-06-19T07:58:26.000Z</time>
        <extensions>
          <ns3:TrackPointExtension>
            <ns3:atemp>20.0</ns3:atemp>
          </ns3:TrackPointExtension>
        </extensions>
      </trkpt>
      <trkpt lat="42.51598276197910308837890625" lon="19.98434116132557392120361328125">
        <ele>1536</ele>
        <time>2026-06-19T07:58:27.000Z</time>
        <extensions>
          <ns3:TrackPointExtension>
            <ns3:atemp>20.0</ns3:atemp>
          </ns3:TrackPointExtension>
        </extensions>
      </trkpt>
      <trkpt lat="42.51598142087459564208984375" lon="19.9843647144734859466552734375">
        <ele>1536.199951171875</ele>
        <time>2026-06-19T07:58:28.000Z</time>
        <extensions>
          <ns3:TrackPointExtension>
            <ns3:atemp>20.0</ns3:atemp>
          </ns3:TrackPointExtension>
        </extensions>
      </trkpt>
      <trkpt lat="42.51597739756107330322265625" lon="19.98438927344977855682373046875">
        <ele>1536.4000244140625</ele>
        <time>2026-06-19T07:58:29.000Z</time>
        <extensions>
          <ns3:TrackPointExtension>
            <ns3:atemp>20.0</ns3:atemp>
          </ns3:TrackPointExtension>
        </extensions>
      </trkpt>
      <trkpt lat="42.51597379334270954132080078125" lon="19.98441257514059543609619140625">
        <ele>1536.5999755859375</ele>
        <time>2026-06-19T07:58:30.000Z</time>
        <extensions>
          <ns3:TrackPointExtension>
            <ns3:atemp>20.0</ns3:atemp>
          </ns3:TrackPointExtension>
        </extensions>
      </trkpt>
      <trkpt lat="42.51596541143953800201416015625" lon="19.98443118296563625335693359375">
        <ele>1536.800048828125</ele>
        <time>2026-06-19T07:58:31.000Z</time>
        <extensions>
          <ns3:TrackPointExtension>
            <ns3:atemp>20.0</ns3:atemp>
          </ns3:TrackPointExtension>
        </extensions>
      </trkpt>
      <trkpt lat="42.51596138812601566314697265625" lon="19.98445264063775539398193359375">
        <ele>1537</ele>
        <time>2026-06-19T07:58:32.000Z</time>
        <extensions>
          <ns3:TrackPointExtension>
            <ns3:atemp>20.0</ns3:atemp>
          </ns3:TrackPointExtension>
        </extensions>
      </trkpt>
      <trkpt lat="42.515959627926349639892578125" lon="19.9844701588153839111328125">
        <ele>1537.199951171875</ele>
        <time>2026-06-19T07:58:33.000Z</time>
        <extensions>
          <ns3:TrackPointExtension>
            <ns3:atemp>20.0</ns3:atemp>
          </ns3:TrackPointExtension>
        </extensions>
      </trkpt>
      <trkpt lat="42.5159551016986370086669921875" lon="19.98448281548917293548583984375">
        <ele>1537.4000244140625</ele>
        <time>2026-06-19T07:58:34.000Z</time>
        <extensions>
          <ns3:TrackPointExtension>
            <ns3:atemp>20.0</ns3:atemp>
          </ns3:TrackPointExtension>
        </extensions>
      </trkpt>
      <trkpt lat="42.51595233567059040069580078125" lon="19.98450544662773609161376953125">
        <ele>1537.5999755859375</ele>
        <time>2026-06-19T07:58:35.000Z</time>
        <extensions>
          <ns3:TrackPointExtension>
            <ns3:atemp>20.0</ns3:atemp>
          </ns3:TrackPointExtension>
        </extensions>
      </trkpt>
      <trkpt lat="42.5159457139670848846435546875" lon="19.9845286644995212554931640625">
        <ele>1538</ele>
        <time>2026-06-19T07:58:36.000Z</time>
        <extensions>
          <ns3:TrackPointExtension>
            <ns3:atemp>20.0</ns3:atemp>
          </ns3:TrackPointExtension>
        </extensions>
      </trkpt>
      <trkpt lat="42.5159406848251819610595703125" lon="19.98455506749451160430908203125">
        <ele>1538.199951171875</ele>
        <time>2026-06-19T07:58:37.000Z</time>
        <extensions>
          <ns3:TrackPointExtension>
            <ns3:atemp>20.0</ns3:atemp>
          </ns3:TrackPointExtension>
        </extensions>
      </trkpt>
      <trkpt lat="42.51593221910297870635986328125" lon="19.9845826439559459686279296875">
        <ele>1538.4000244140625</ele>
        <time>2026-06-19T07:58:38.000Z</time>
        <extensions>
          <ns3:TrackPointExtension>
            <ns3:atemp>20.0</ns3:atemp>
          </ns3:TrackPointExtension>
        </extensions>
      </trkpt>
      <trkpt lat="42.515928447246551513671875" lon="19.9846081249415874481201171875">
        <ele>1538.5999755859375</ele>
        <time>2026-06-19T07:58:39.000Z</time>
        <extensions>
          <ns3:TrackPointExtension>
            <ns3:atemp>20.0</ns3:atemp>
          </ns3:TrackPointExtension>
        </extensions>
      </trkpt>
      <trkpt lat="42.515922077000141143798828125" lon="19.98463083989918231964111328125">
        <ele>1538.800048828125</ele>
        <time>2026-06-19T07:58:40.000Z</time>
        <extensions>
          <ns3:TrackPointExtension>
            <ns3:atemp>20.0</ns3:atemp>
          </ns3:TrackPointExtension>
        </extensions>
      </trkpt>
      <trkpt lat="42.515916042029857635498046875" lon="19.98465833254158496856689453125">
        <ele>1539</ele>
        <time>2026-06-19T07:58:41.000Z</time>
        <extensions>
          <ns3:TrackPointExtension>
            <ns3:atemp>20.0</ns3:atemp>
          </ns3:TrackPointExtension>
        </extensions>
      </trkpt>
      <trkpt lat="42.5159098394215106964111328125" lon="19.98468196950852870941162109375">
        <ele>1539.199951171875</ele>
        <time>2026-06-19T07:58:42.000Z</time>
        <extensions>
          <ns3:TrackPointExtension>
            <ns3:atemp>20.0</ns3:atemp>
          </ns3:TrackPointExtension>
        </extensions>
      </trkpt>
      <trkpt lat="42.51589885912835597991943359375" lon="19.984702505171298980712890625">
        <ele>1539.5999755859375</ele>
        <time>2026-06-19T07:58:43.000Z</time>
        <extensions>
          <ns3:TrackPointExtension>
            <ns3:atemp>20.0</ns3:atemp>
          </ns3:TrackPointExtension>
        </extensions>
      </trkpt>
      <trkpt lat="42.51589550636708736419677734375" lon="19.98472136445343494415283203125">
        <ele>1539.800048828125</ele>
        <time>2026-06-19T07:58:44.000Z</time>
        <extensions>
          <ns3:TrackPointExtension>
            <ns3:atemp>20.0</ns3:atemp>
          </ns3:TrackPointExtension>
        </extensions>
      </trkpt>
      <trkpt lat="42.515881843864917755126953125" lon="19.984739720821380615234375">
        <ele>1540</ele>
        <time>2026-06-19T07:58:45.000Z</time>
        <extensions>
          <ns3:TrackPointExtension>
            <ns3:atemp>20.0</ns3:atemp>
          </ns3:TrackPointExtension>
        </extensions>
      </trkpt>
      <trkpt lat="42.51587337814271450042724609375" lon="19.984760843217372894287109375">
        <ele>1540.199951171875</ele>
        <time>2026-06-19T07:58:46.000Z</time>
        <extensions>
          <ns3:TrackPointExtension>
            <ns3:atemp>20.0</ns3:atemp>
          </ns3:TrackPointExtension>
        </extensions>
      </trkpt>
      <trkpt lat="42.5158618949353694915771484375" lon="19.98477995395660400390625">
        <ele>1540.4000244140625</ele>
        <time>2026-06-19T07:58:47.000Z</time>
        <extensions>
          <ns3:TrackPointExtension>
            <ns3:atemp>20.0</ns3:atemp>
          </ns3:TrackPointExtension>
        </extensions>
      </trkpt>
      <trkpt lat="42.5158488191664218902587890625" lon="19.98480266891419887542724609375">
        <ele>1540.5999755859375</ele>
        <time>2026-06-19T07:58:48.000Z</time>
        <extensions>
          <ns3:TrackPointExtension>
            <ns3:atemp>20.0</ns3:atemp>
          </ns3:TrackPointExtension>
        </extensions>
      </trkpt>
      <trkpt lat="42.5158350728452205657958984375" lon="19.98482756316661834716796875">
        <ele>1540.5999755859375</ele>
        <time>2026-06-19T07:58:49.000Z</time>
        <extensions>
          <ns3:TrackPointExtension>
            <ns3:atemp>20.0</ns3:atemp>
          </ns3:TrackPointExtension>
        </extensions>
      </trkpt>
      <trkpt lat="42.51581822521984577178955078125" lon="19.98484943993389606475830078125">
        <ele>1540.800048828125</ele>
        <time>2026-06-19T07:58:50.000Z</time>
        <extensions>
          <ns3:TrackPointExtension>
            <ns3:atemp>20.0</ns3:atemp>
          </ns3:TrackPointExtension>
        </extensions>
      </trkpt>
      <trkpt lat="42.51580682583153247833251953125" lon="19.98487140052020549774169921875">
        <ele>1541</ele>
        <time>2026-06-19T07:58:51.000Z</time>
        <extensions>
          <ns3:TrackPointExtension>
            <ns3:atemp>20.0</ns3:atemp>
          </ns3:TrackPointExtension>
        </extensions>
      </trkpt>
      <trkpt lat="42.51579442061483860015869140625" lon="19.98489084653556346893310546875">
        <ele>1541.199951171875</ele>
        <time>2026-06-19T07:58:52.000Z</time>
        <extensions>
          <ns3:TrackPointExtension>
            <ns3:atemp>20.0</ns3:atemp>
          </ns3:TrackPointExtension>
        </extensions>
      </trkpt>
      <trkpt lat="42.5157820992171764373779296875" lon="19.9849118851125240325927734375">
        <ele>1541.4000244140625</ele>
        <time>2026-06-19T07:58:53.000Z</time>
        <extensions>
          <ns3:TrackPointExtension>
            <ns3:atemp>20.0</ns3:atemp>
          </ns3:TrackPointExtension>
        </extensions>
      </trkpt>
      <trkpt lat="42.51576793380081653594970703125" lon="19.984936527907848358154296875">
        <ele>1541.5999755859375</ele>
        <time>2026-06-19T07:58:54.000Z</time>
        <extensions>
          <ns3:TrackPointExtension>
            <ns3:atemp>20.0</ns3:atemp>
          </ns3:TrackPointExtension>
        </extensions>
      </trkpt>
      <trkpt lat="42.51575385220348834991455078125" lon="19.98495907522737979888916015625">
        <ele>1542</ele>
        <time>2026-06-19T07:58:55.000Z</time>
        <extensions>
          <ns3:TrackPointExtension>
            <ns3:atemp>20.0</ns3:atemp>
          </ns3:TrackPointExtension>
        </extensions>
      </trkpt>
      <trkpt lat="42.5157482363283634185791015625" lon="19.9849770963191986083984375">
        <ele>1542.199951171875</ele>
        <time>2026-06-19T07:58:56.000Z</time>
        <extensions>
          <ns3:TrackPointExtension>
            <ns3:atemp>20.0</ns3:atemp>
          </ns3:TrackPointExtension>
        </extensions>
      </trkpt>
      <trkpt lat="42.51574404537677764892578125" lon="19.9850027449429035186767578125">
        <ele>1542.4000244140625</ele>
        <time>2026-06-19T07:58:57.000Z</time>
        <extensions>
          <ns3:TrackPointExtension>
            <ns3:atemp>20.0</ns3:atemp>
          </ns3:TrackPointExtension>
        </extensions>
      </trkpt>
      <trkpt lat="42.51574806869029998779296875" lon="19.98502462171018123626708984375">
        <ele>1542.5999755859375</ele>
        <time>2026-06-19T07:58:58.000Z</time>
        <extensions>
          <ns3:TrackPointExtension>
            <ns3:atemp>20.0</ns3:atemp>
          </ns3:TrackPointExtension>
        </extensions>
      </trkpt>
      <trkpt lat="42.51575686968863010406494140625" lon="19.98503803275525569915771484375">
        <ele>1542.800048828125</ele>
        <time>2026-06-19T07:58:59.000Z</time>
        <extensions>
          <ns3:TrackPointExtension>
            <ns3:atemp>19.0</ns3:atemp>
          </ns3:TrackPointExtension>
        </extensions>
      </trkpt>
      <trkpt lat="42.5157663412392139434814453125" lon="19.9850416369736194610595703125">
        <ele>1543</ele>
        <time>2026-06-19T07:59:00.000Z</time>
        <extensions>
          <ns3:TrackPointExtension>
            <ns3:atemp>20.0</ns3:atemp>
          </ns3:TrackPointExtension>
        </extensions>
      </trkpt>
      <trkpt lat="42.51577614806592464447021484375" lon="19.98504021205008029937744140625">
        <ele>1543.4000244140625</ele>
        <time>2026-06-19T07:59:01.000Z</time>
        <extensions>
          <ns3:TrackPointExtension>
            <ns3:atemp>19.0</ns3:atemp>
          </ns3:TrackPointExtension>
        </extensions>
      </trkpt>
      <trkpt lat="42.5157864578068256378173828125" lon="19.9850332550704479217529296875">
        <ele>1543.800048828125</ele>
        <time>2026-06-19T07:59:02.000Z</time>
        <extensions>
          <ns3:TrackPointExtension>
            <ns3:atemp>19.0</ns3:atemp>
          </ns3:TrackPointExtension>
        </extensions>
      </trkpt>
      <trkpt lat="42.51579492352902889251708984375" lon="19.9850262142717838287353515625">
        <ele>1544</ele>
        <time>2026-06-19T07:59:03.000Z</time>
        <extensions>
          <ns3:TrackPointExtension>
            <ns3:atemp>19.0</ns3:atemp>
          </ns3:TrackPointExtension>
        </extensions>
      </trkpt>
      <trkpt lat="42.5158055685460567474365234375" lon="19.98501523397862911224365234375">
        <ele>1544.199951171875</ele>
        <time>2026-06-19T07:59:04.000Z</time>
        <extensions>
          <ns3:TrackPointExtension>
            <ns3:atemp>19.0</ns3:atemp>
          </ns3:TrackPointExtension>
        </extensions>
      </trkpt>
      <trkpt lat="42.51582057215273380279541015625" lon="19.98500249348580837249755859375">
        <ele>1544.5999755859375</ele>
        <time>2026-06-19T07:59:05.000Z</time>
        <extensions>
          <ns3:TrackPointExtension>
            <ns3:atemp>19.0</ns3:atemp>
          </ns3:TrackPointExtension>
        </extensions>
      </trkpt>
      <trkpt lat="42.5158323906362056732177734375" lon="19.98499159701168537139892578125">
        <ele>1544.800048828125</ele>
        <time>2026-06-19T07:59:06.000Z</time>
        <extensions>
          <ns3:TrackPointExtension>
            <ns3:atemp>20.0</ns3:atemp>
          </ns3:TrackPointExtension>
        </extensions>
      </trkpt>
      <trkpt lat="42.51584555022418498992919921875" lon="19.98498153872787952423095703125">
        <ele>1545</ele>
        <time>2026-06-19T07:59:07.000Z</time>
        <extensions>
          <ns3:TrackPointExtension>
            <ns3:atemp>20.0</ns3:atemp>
          </ns3:TrackPointExtension>
        </extensions>
      </trkpt>
      <trkpt lat="42.51585762016475200653076171875" lon="19.984974749386310577392578125">
        <ele>1545.4000244140625</ele>
        <time>2026-06-19T07:59:08.000Z</time>
        <extensions>
          <ns3:TrackPointExtension>
            <ns3:atemp>20.0</ns3:atemp>
          </ns3:TrackPointExtension>
        </extensions>
      </trkpt>
      <trkpt lat="42.515871115028858184814453125" lon="19.98496796004474163055419921875">
        <ele>1545.5999755859375</ele>
        <time>2026-06-19T07:59:09.000Z</time>
        <extensions>
          <ns3:TrackPointExtension>
            <ns3:atemp>20.0</ns3:atemp>
          </ns3:TrackPointExtension>
        </extensions>
      </trkpt>
      <trkpt lat="42.515883855521678924560546875" lon="19.98496301472187042236328125">
        <ele>1546</ele>
        <time>2026-06-19T07:59:10.000Z</time>
        <extensions>
          <ns3:TrackPointExtension>
            <ns3:atemp>19.0</ns3:atemp>
          </ns3:TrackPointExtension>
        </extensions>
      </trkpt>
      <trkpt lat="42.5158970989286899566650390625" lon="19.98495656065642833709716796875">
        <ele>1546.199951171875</ele>
        <time>2026-06-19T07:59:11.000Z</time>
        <extensions>
          <ns3:TrackPointExtension>
            <ns3:atemp>19.0</ns3:atemp>
          </ns3:TrackPointExtension>
        </extensions>
      </trkpt>
      <trkpt lat="42.51591168344020843505859375" lon="19.984947256743907928466796875">
        <ele>1546.5999755859375</ele>
        <time>2026-06-19T07:59:12.000Z</time>
        <extensions>
          <ns3:TrackPointExtension>
            <ns3:atemp>19.0</ns3:atemp>
          </ns3:TrackPointExtension>
        </extensions>
      </trkpt>
      <trkpt lat="42.51592936925590038299560546875" lon="19.9849377013742923736572265625">
        <ele>1546.800048828125</ele>
        <time>2026-06-19T07:59:13.000Z</time>
        <extensions>
          <ns3:TrackPointExtension>
            <ns3:atemp>19.0</ns3:atemp>
          </ns3:TrackPointExtension>
        </extensions>
      </trkpt>
      <trkpt lat="42.515950240194797515869140625" lon="19.9849239550530910491943359375">
        <ele>1547.199951171875</ele>
        <time>2026-06-19T07:59:14.000Z</time>
        <extensions>
          <ns3:TrackPointExtension>
            <ns3:atemp>19.0</ns3:atemp>
          </ns3:TrackPointExtension>
        </extensions>
      </trkpt>
      <trkpt lat="42.51596507616341114044189453125" lon="19.984906017780303955078125">
        <ele>1547.5999755859375</ele>
        <time>2026-06-19T07:59:15.000Z</time>
        <extensions>
          <ns3:TrackPointExtension>
            <ns3:atemp>19.0</ns3:atemp>
          </ns3:TrackPointExtension>
        </extensions>
      </trkpt>
      <trkpt lat="42.51598334871232509613037109375" lon="19.984887577593326568603515625">
        <ele>1547.800048828125</ele>
        <time>2026-06-19T07:59:16.000Z</time>
        <extensions>
          <ns3:TrackPointExtension>
            <ns3:atemp>19.0</ns3:atemp>
          </ns3:TrackPointExtension>
        </extensions>
      </trkpt>
      <trkpt lat="42.51599826849997043609619140625" lon="19.98486645519733428955078125">
        <ele>1548</ele>
        <time>2026-06-19T07:59:17.000Z</time>
        <extensions>
          <ns3:TrackPointExtension>
            <ns3:atemp>19.0</ns3:atemp>
          </ns3:TrackPointExtension>
        </extensions>
      </trkpt>
      <trkpt lat="42.516009248793125152587890625" lon="19.984854720532894134521484375">
        <ele>1548.4000244140625</ele>
        <time>2026-06-19T07:59:18.000Z</time>
        <extensions>
          <ns3:TrackPointExtension>
            <ns3:atemp>19.0</ns3:atemp>
          </ns3:TrackPointExtension>
        </extensions>
      </trkpt>
      <trkpt lat="42.51601838506758213043212890625" lon="19.9848429858684539794921875">
        <ele>1548.5999755859375</ele>
        <time>2026-06-19T07:59:19.000Z</time>
        <extensions>
          <ns3:TrackPointExtension>
            <ns3:atemp>19.0</ns3:atemp>
          </ns3:TrackPointExtension>
        </extensions>
      </trkpt>
      <trkpt lat="42.5160263478755950927734375" lon="19.9848284013569355010986328125">
        <ele>1549</ele>
        <time>2026-06-19T07:59:20.000Z</time>
        <extensions>
          <ns3:TrackPointExtension>
            <ns3:atemp>19.0</ns3:atemp>
          </ns3:TrackPointExtension>
        </extensions>
      </trkpt>
      <trkpt lat="42.5160375796258449554443359375" lon="19.98481012880802154541015625">
        <ele>1549.4000244140625</ele>
        <time>2026-06-19T07:59:21.000Z</time>
        <extensions>
          <ns3:TrackPointExtension>
            <ns3:atemp>19.0</ns3:atemp>
          </ns3:TrackPointExtension>
        </extensions>
      </trkpt>
      <trkpt lat="42.51604688353836536407470703125" lon="19.9847948737442493438720703125">
        <ele>1549.5999755859375</ele>
        <time>2026-06-19T07:59:22.000Z</time>
        <extensions>
          <ns3:TrackPointExtension>
            <ns3:atemp>19.0</ns3:atemp>
          </ns3:TrackPointExtension>
        </extensions>
      </trkpt>
      <trkpt lat="42.51605593599379062652587890625" lon="19.98478137888014316558837890625">
        <ele>1549.800048828125</ele>
        <time>2026-06-19T07:59:23.000Z</time>
        <extensions>
          <ns3:TrackPointExtension>
            <ns3:atemp>19.0</ns3:atemp>
          </ns3:TrackPointExtension>
        </extensions>
      </trkpt>
      <trkpt lat="42.5160674192011356353759765625" lon="19.9847667105495929718017578125">
        <ele>1550</ele>
        <time>2026-06-19T07:59:24.000Z</time>
        <extensions>
          <ns3:TrackPointExtension>
            <ns3:atemp>19.0</ns3:atemp>
          </ns3:TrackPointExtension>
        </extensions>
      </trkpt>
      <trkpt lat="42.516077645123004913330078125" lon="19.98475288040935993194580078125">
        <ele>1550.199951171875</ele>
        <time>2026-06-19T07:59:25.000Z</time>
        <extensions>
          <ns3:TrackPointExtension>
            <ns3:atemp>19.0</ns3:atemp>
          </ns3:TrackPointExtension>
        </extensions>
      </trkpt>
      <trkpt lat="42.5160922296345233917236328125" lon="19.98473343439400196075439453125">
        <ele>1550.4000244140625</ele>
        <time>2026-06-19T07:59:26.000Z</time>
        <extensions>
          <ns3:TrackPointExtension>
            <ns3:atemp>19.0</ns3:atemp>
          </ns3:TrackPointExtension>
        </extensions>
      </trkpt>
      <trkpt lat="42.51610890962183475494384765625" lon="19.984715245664119720458984375">
        <ele>1550.5999755859375</ele>
        <time>2026-06-19T07:59:27.000Z</time>
        <extensions>
          <ns3:TrackPointExtension>
            <ns3:atemp>19.0</ns3:atemp>
          </ns3:TrackPointExtension>
        </extensions>
      </trkpt>
      <trkpt lat="42.51611846499145030975341796875" lon="19.98469806276261806488037109375">
        <ele>1551</ele>
        <time>2026-06-19T07:59:28.000Z</time>
        <extensions>
          <ns3:TrackPointExtension>
            <ns3:atemp>19.0</ns3:atemp>
          </ns3:TrackPointExtension>
        </extensions>
      </trkpt>
      <trkpt lat="42.51613221131265163421630859375" lon="19.98468674719333648681640625">
        <ele>1551.199951171875</ele>
        <time>2026-06-19T07:59:29.000Z</time>
        <extensions>
          <ns3:TrackPointExtension>
            <ns3:atemp>19.0</ns3:atemp>
          </ns3:TrackPointExtension>
        </extensions>
      </trkpt>
      <trkpt lat="42.51614193432033061981201171875" lon="19.98467040248215198516845703125">
        <ele>1551.4000244140625</ele>
        <time>2026-06-19T07:59:30.000Z</time>
        <extensions>
          <ns3:TrackPointExtension>
            <ns3:atemp>19.0</ns3:atemp>
          </ns3:TrackPointExtension>
        </extensions>
      </trkpt>
      <trkpt lat="42.51615936867892742156982421875" lon="19.98466570861637592315673828125">
        <ele>1551.5999755859375</ele>
        <time>2026-06-19T07:59:31.000Z</time>
        <extensions>
          <ns3:TrackPointExtension>
            <ns3:atemp>19.0</ns3:atemp>
          </ns3:TrackPointExtension>
        </extensions>
      </trkpt>
      <trkpt lat="42.51617495901882648468017578125" lon="19.98465380631387233734130859375">
        <ele>1551.800048828125</ele>
        <time>2026-06-19T07:59:32.000Z</time>
        <extensions>
          <ns3:TrackPointExtension>
            <ns3:atemp>19.0</ns3:atemp>
          </ns3:TrackPointExtension>
        </extensions>
      </trkpt>
      <trkpt lat="42.5161871127784252166748046875" lon="19.9846443347632884979248046875">
        <ele>1552.199951171875</ele>
        <time>2026-06-19T07:59:33.000Z</time>
        <extensions>
          <ns3:TrackPointExtension>
            <ns3:atemp>19.0</ns3:atemp>
          </ns3:TrackPointExtension>
        </extensions>
      </trkpt>
      <trkpt lat="42.51620060764253139495849609375" lon="19.98463444411754608154296875">
        <ele>1552.4000244140625</ele>
        <time>2026-06-19T07:59:34.000Z</time>
        <extensions>
          <ns3:TrackPointExtension>
            <ns3:atemp>19.0</ns3:atemp>
          </ns3:TrackPointExtension>
        </extensions>
      </trkpt>
      <trkpt lat="42.51621209084987640380859375" lon="19.98462715186178684234619140625">
        <ele>1552.5999755859375</ele>
        <time>2026-06-19T07:59:35.000Z</time>
        <extensions>
          <ns3:TrackPointExtension>
            <ns3:atemp>19.0</ns3:atemp>
          </ns3:TrackPointExtension>
        </extensions>
      </trkpt>
      <trkpt lat="42.5162350572645664215087890625" lon="19.98461474664509296417236328125">
        <ele>1552.800048828125</ele>
        <time>2026-06-19T07:59:36.000Z</time>
        <extensions>
          <ns3:TrackPointExtension>
            <ns3:atemp>19.0</ns3:atemp>
          </ns3:TrackPointExtension>
        </extensions>
      </trkpt>
      <trkpt lat="42.5162491388618946075439453125" lon="19.9846087954938411712646484375">
        <ele>1553</ele>
        <time>2026-06-19T07:59:37.000Z</time>
        <extensions>
          <ns3:TrackPointExtension>
            <ns3:atemp>19.0</ns3:atemp>
          </ns3:TrackPointExtension>
        </extensions>
      </trkpt>
      <trkpt lat="42.51626950688660144805908203125" lon="19.98459546826779842376708984375">
        <ele>1553.199951171875</ele>
        <time>2026-06-19T07:59:38.000Z</time>
        <extensions>
          <ns3:TrackPointExtension>
            <ns3:atemp>19.0</ns3:atemp>
          </ns3:TrackPointExtension>
        </extensions>
      </trkpt>
      <trkpt lat="42.5162843428552150726318359375" lon="19.9845789559185504913330078125">
        <ele>1553.4000244140625</ele>
        <time>2026-06-19T07:59:39.000Z</time>
        <extensions>
          <ns3:TrackPointExtension>
            <ns3:atemp>19.0</ns3:atemp>
          </ns3:TrackPointExtension>
        </extensions>
      </trkpt>
      <trkpt lat="42.51629817299544811248779296875" lon="19.984566383063793182373046875">
        <ele>1553.5999755859375</ele>
        <time>2026-06-19T07:59:40.000Z</time>
        <extensions>
          <ns3:TrackPointExtension>
            <ns3:atemp>19.0</ns3:atemp>
          </ns3:TrackPointExtension>
        </extensions>
      </trkpt>
      <trkpt lat="42.5163106620311737060546875" lon="19.98456026427447795867919921875">
        <ele>1553.800048828125</ele>
        <time>2026-06-19T07:59:41.000Z</time>
        <extensions>
          <ns3:TrackPointExtension>
            <ns3:atemp>19.0</ns3:atemp>
          </ns3:TrackPointExtension>
        </extensions>
      </trkpt>
      <trkpt lat="42.5163259170949459075927734375" lon="19.98455288819968700408935546875">
        <ele>1554</ele>
        <time>2026-06-19T07:59:42.000Z</time>
        <extensions>
          <ns3:TrackPointExtension>
            <ns3:atemp>19.0</ns3:atemp>
          </ns3:TrackPointExtension>
        </extensions>
      </trkpt>
      <trkpt lat="42.516343854367733001708984375" lon="19.984544925391674041748046875">
        <ele>1554.199951171875</ele>
        <time>2026-06-19T07:59:43.000Z</time>
        <extensions>
          <ns3:TrackPointExtension>
            <ns3:atemp>19.0</ns3:atemp>
          </ns3:TrackPointExtension>
        </extensions>
      </trkpt>
      <trkpt lat="42.516363300383090972900390625" lon="19.98453763313591480255126953125">
        <ele>1554.5999755859375</ele>
        <time>2026-06-19T07:59:44.000Z</time>
        <extensions>
          <ns3:TrackPointExtension>
            <ns3:atemp>19.0</ns3:atemp>
          </ns3:TrackPointExtension>
        </extensions>
      </trkpt>
      <trkpt lat="42.5163862667977809906005859375" lon="19.984539560973644256591796875">
        <ele>1554.800048828125</ele>
        <time>2026-06-19T07:59:45.000Z</time>
        <extensions>
          <ns3:TrackPointExtension>
            <ns3:atemp>19.0</ns3:atemp>
          </ns3:TrackPointExtension>
        </extensions>
      </trkpt>
      <trkpt lat="42.51640043221414089202880859375" lon="19.984546937048435211181640625">
        <ele>1555</ele>
        <time>2026-06-19T07:59:46.000Z</time>
        <extensions>
          <ns3:TrackPointExtension>
            <ns3:atemp>19.0</ns3:atemp>
          </ns3:TrackPointExtension>
        </extensions>
      </trkpt>
      <trkpt lat="42.51640789210796356201171875" lon="19.984563700854778289794921875">
        <ele>1555.199951171875</ele>
        <time>2026-06-19T07:59:47.000Z</time>
        <extensions>
          <ns3:TrackPointExtension>
            <ns3:atemp>19.0</ns3:atemp>
          </ns3:TrackPointExtension>
        </extensions>
      </trkpt>
      <trkpt lat="42.5164110772311687469482421875" lon="19.98457836918532848358154296875">
        <ele>1555.4000244140625</ele>
        <time>2026-06-19T07:59:48.000Z</time>
        <extensions>
          <ns3:TrackPointExtension>
            <ns3:atemp>19.0</ns3:atemp>
          </ns3:TrackPointExtension>
        </extensions>
      </trkpt>
      <trkpt lat="42.51641401089727878570556640625" lon="19.9845943786203861236572265625">
        <ele>1555.5999755859375</ele>
        <time>2026-06-19T07:59:49.000Z</time>
        <extensions>
          <ns3:TrackPointExtension>
            <ns3:atemp>19.0</ns3:atemp>
          </ns3:TrackPointExtension>
        </extensions>
      </trkpt>
      <trkpt lat="42.51640923321247100830078125" lon="19.9846111424267292022705078125">
        <ele>1555.800048828125</ele>
        <time>2026-06-19T07:59:50.000Z</time>
        <extensions>
          <ns3:TrackPointExtension>
            <ns3:atemp>19.0</ns3:atemp>
          </ns3:TrackPointExtension>
        </extensions>
      </trkpt>
      <trkpt lat="42.5164053775370121002197265625" lon="19.98463385738432407379150390625">
        <ele>1556</ele>
        <time>2026-06-19T07:59:51.000Z</time>
        <extensions>
          <ns3:TrackPointExtension>
            <ns3:atemp>19.0</ns3:atemp>
          </ns3:TrackPointExtension>
        </extensions>
      </trkpt>
      <trkpt lat="42.5163953192532062530517578125" lon="19.98465816490352153778076171875">
        <ele>1556.4000244140625</ele>
        <time>2026-06-19T07:59:52.000Z</time>
        <extensions>
          <ns3:TrackPointExtension>
            <ns3:atemp>19.0</ns3:atemp>
          </ns3:TrackPointExtension>
        </extensions>
      </trkpt>
      <trkpt lat="42.51638970337808132171630859375" lon="19.98467207886278629302978515625">
        <ele>1556.5999755859375</ele>
        <time>2026-06-19T07:59:53.000Z</time>
        <extensions>
          <ns3:TrackPointExtension>
            <ns3:atemp>19.0</ns3:atemp>
          </ns3:TrackPointExtension>
        </extensions>
      </trkpt>
      <trkpt lat="42.5163778848946094512939453125" lon="19.9846852384507656097412109375">
        <ele>1557</ele>
        <time>2026-06-19T07:59:54.000Z</time>
        <extensions>
          <ns3:TrackPointExtension>
            <ns3:atemp>19.0</ns3:atemp>
          </ns3:TrackPointExtension>
        </extensions>
      </trkpt>
      <trkpt lat="42.516368329524993896484375" lon="19.9846979789435863494873046875">
        <ele>1557.199951171875</ele>
        <time>2026-06-19T07:59:55.000Z</time>
        <extensions>
          <ns3:TrackPointExtension>
            <ns3:atemp>19.0</ns3:atemp>
          </ns3:TrackPointExtension>
        </extensions>
      </trkpt>
      <trkpt lat="42.51636053435504436492919921875" lon="19.98471759259700775146484375">
        <ele>1557.5999755859375</ele>
        <time>2026-06-19T07:59:56.000Z</time>
        <extensions>
          <ns3:TrackPointExtension>
            <ns3:atemp>19.0</ns3:atemp>
          </ns3:TrackPointExtension>
        </extensions>
      </trkpt>
      <trkpt lat="42.51634846441447734832763671875" lon="19.9847392179071903228759765625">
        <ele>1557.800048828125</ele>
        <time>2026-06-19T07:59:57.000Z</time>
        <extensions>
          <ns3:TrackPointExtension>
            <ns3:atemp>19.0</ns3:atemp>
          </ns3:TrackPointExtension>
        </extensions>
      </trkpt>
      <trkpt lat="42.5163423456251621246337890625" lon="19.984758831560611724853515625">
        <ele>1558</ele>
        <time>2026-06-19T07:59:58.000Z</time>
        <extensions>
          <ns3:TrackPointExtension>
            <ns3:atemp>19.0</ns3:atemp>
          </ns3:TrackPointExtension>
        </extensions>
      </trkpt>
      <trkpt lat="42.5163306109607219696044921875" lon="19.9847764335572719573974609375">
        <ele>1558.199951171875</ele>
        <time>2026-06-19T07:59:59.000Z</time>
        <extensions>
          <ns3:TrackPointExtension>
            <ns3:atemp>19.0</ns3:atemp>
          </ns3:TrackPointExtension>
        </extensions>
      </trkpt>
      <trkpt lat="42.516322396695613861083984375" lon="19.98479126952588558197021484375">
        <ele>1558.4000244140625</ele>
        <time>2026-06-19T08:00:00.000Z</time>
        <extensions>
          <ns3:TrackPointExtension>
            <ns3:atemp>19.0</ns3:atemp>
          </ns3:TrackPointExtension>
        </extensions>
      </trkpt>
      <trkpt lat="42.51631242223083972930908203125" lon="19.98481121845543384552001953125">
        <ele>1558.5999755859375</ele>
        <time>2026-06-19T08:00:01.000Z</time>
        <extensions>
          <ns3:TrackPointExtension>
            <ns3:atemp>19.0</ns3:atemp>
          </ns3:TrackPointExtension>
        </extensions>
      </trkpt>
      <trkpt lat="42.5163068063557147979736328125" lon="19.98483468778431415557861328125">
        <ele>1558.800048828125</ele>
        <time>2026-06-19T08:00:02.000Z</time>
        <extensions>
          <ns3:TrackPointExtension>
            <ns3:atemp>19.0</ns3:atemp>
          </ns3:TrackPointExtension>
        </extensions>
      </trkpt>
      <trkpt lat="42.5163011066615581512451171875" lon="19.9848562292754650115966796875">
        <ele>1559.199951171875</ele>
        <time>2026-06-19T08:00:03.000Z</time>
        <extensions>
          <ns3:TrackPointExtension>
            <ns3:atemp>19.0</ns3:atemp>
          </ns3:TrackPointExtension>
        </extensions>
      </trkpt>
      <trkpt lat="42.51629331149160861968994140625" lon="19.984871484339237213134765625">
        <ele>1559.4000244140625</ele>
        <time>2026-06-19T08:00:04.000Z</time>
        <extensions>
          <ns3:TrackPointExtension>
            <ns3:atemp>19.0</ns3:atemp>
          </ns3:TrackPointExtension>
        </extensions>
      </trkpt>
      <trkpt lat="42.51628451049327850341796875" lon="19.98488984070718288421630859375">
        <ele>1559.5999755859375</ele>
        <time>2026-06-19T08:00:05.000Z</time>
        <extensions>
          <ns3:TrackPointExtension>
            <ns3:atemp>19.0</ns3:atemp>
          </ns3:TrackPointExtension>
        </extensions>
      </trkpt>
      <trkpt lat="42.516282163560390472412109375" lon="19.9849159084260463714599609375">
        <ele>1559.800048828125</ele>
        <time>2026-06-19T08:00:06.000Z</time>
        <extensions>
          <ns3:TrackPointExtension>
            <ns3:atemp>19.0</ns3:atemp>
          </ns3:TrackPointExtension>
        </extensions>
      </trkpt>
      <trkpt lat="42.51627855934202671051025390625" lon="19.9849470891058444976806640625">
        <ele>1560</ele>
        <time>2026-06-19T08:00:07.000Z</time>
        <extensions>
          <ns3:TrackPointExtension>
            <ns3:atemp>19.0</ns3:atemp>
          </ns3:TrackPointExtension>
        </extensions>
      </trkpt>
      <trkpt lat="42.51627034507691860198974609375" lon="19.9849775992333889007568359375">
        <ele>1560</ele>
        <time>2026-06-19T08:00:08.000Z</time>
        <extensions>
          <ns3:TrackPointExtension>
            <ns3:atemp>19.0</ns3:atemp>
          </ns3:TrackPointExtension>
        </extensions>
      </trkpt>
      <trkpt lat="42.5162635557353496551513671875" lon="19.9850050918757915496826171875">
        <ele>1560.199951171875</ele>
        <time>2026-06-19T08:00:09.000Z</time>
        <extensions>
          <ns3:TrackPointExtension>
            <ns3:atemp>19.0</ns3:atemp>
          </ns3:TrackPointExtension>
        </extensions>
      </trkpt>
      <trkpt lat="42.5162597000598907470703125" lon="19.98502847738564014434814453125">
        <ele>1560.199951171875</ele>
        <time>2026-06-19T08:00:10.000Z</time>
        <extensions>
          <ns3:TrackPointExtension>
            <ns3:atemp>19.0</ns3:atemp>
          </ns3:TrackPointExtension>
        </extensions>
      </trkpt>
      <trkpt lat="42.51625291071832180023193359375" lon="19.98504641465842723846435546875">
        <ele>1560.5999755859375</ele>
        <time>2026-06-19T08:00:11.000Z</time>
        <extensions>
          <ns3:TrackPointExtension>
            <ns3:atemp>19.0</ns3:atemp>
          </ns3:TrackPointExtension>
        </extensions>
      </trkpt>
      <trkpt lat="42.51624184660613536834716796875" lon="19.98506493866443634033203125">
        <ele>1560.800048828125</ele>
        <time>2026-06-19T08:00:12.000Z</time>
        <extensions>
          <ns3:TrackPointExtension>
            <ns3:atemp>19.0</ns3:atemp>
          </ns3:TrackPointExtension>
        </extensions>
      </trkpt>
      <trkpt lat="42.5162323750555515289306640625" lon="19.98508295975625514984130859375">
        <ele>1561</ele>
        <time>2026-06-19T08:00:13.000Z</time>
        <extensions>
          <ns3:TrackPointExtension>
            <ns3:atemp>19.0</ns3:atemp>
          </ns3:TrackPointExtension>
        </extensions>
      </trkpt>
      <trkpt lat="42.51622323878109455108642578125" lon="19.985099472105503082275390625">
        <ele>1561.199951171875</ele>
        <time>2026-06-19T08:00:14.000Z</time>
        <extensions>
          <ns3:TrackPointExtension>
            <ns3:atemp>19.0</ns3:atemp>
          </ns3:TrackPointExtension>
        </extensions>
      </trkpt>
      <trkpt lat="42.51621016301214694976806640625" lon="19.985117577016353607177734375">
        <ele>1561.5999755859375</ele>
        <time>2026-06-19T08:00:15.000Z</time>
        <extensions>
          <ns3:TrackPointExtension>
            <ns3:atemp>19.0</ns3:atemp>
          </ns3:TrackPointExtension>
        </extensions>
      </trkpt>
      <trkpt lat="42.51619624905288219451904296875" lon="19.98512939549982547760009765625">
        <ele>1561.800048828125</ele>
        <time>2026-06-19T08:00:16.000Z</time>
        <extensions>
          <ns3:TrackPointExtension>
            <ns3:atemp>19.0</ns3:atemp>
          </ns3:TrackPointExtension>
        </extensions>
      </trkpt>
      <trkpt lat="42.5161819159984588623046875" lon="19.98514314182102680206298828125">
        <ele>1562</ele>
        <time>2026-06-19T08:00:17.000Z</time>
        <extensions>
          <ns3:TrackPointExtension>
            <ns3:atemp>19.0</ns3:atemp>
          </ns3:TrackPointExtension>
        </extensions>
      </trkpt>
      <trkpt lat="42.51617060042917728424072265625" lon="19.98515705578029155731201171875">
        <ele>1562.199951171875</ele>
        <time>2026-06-19T08:00:18.000Z</time>
        <extensions>
          <ns3:TrackPointExtension>
            <ns3:atemp>19.0</ns3:atemp>
          </ns3:TrackPointExtension>
        </extensions>
      </trkpt>
      <trkpt lat="42.5161586143076419830322265625" lon="19.985168874263763427734375">
        <ele>1562.4000244140625</ele>
        <time>2026-06-19T08:00:19.000Z</time>
        <extensions>
          <ns3:TrackPointExtension>
            <ns3:atemp>19.0</ns3:atemp>
          </ns3:TrackPointExtension>
        </extensions>
      </trkpt>
      <trkpt lat="42.516145370900630950927734375" lon="19.985181279480457305908203125">
        <ele>1562.5999755859375</ele>
        <time>2026-06-19T08:00:20.000Z</time>
        <extensions>
          <ns3:TrackPointExtension>
            <ns3:atemp>19.0</ns3:atemp>
          </ns3:TrackPointExtension>
        </extensions>
      </trkpt>
      <trkpt lat="42.5161324627697467803955078125" lon="19.98519594781100749969482421875">
        <ele>1562.800048828125</ele>
        <time>2026-06-19T08:00:21.000Z</time>
        <extensions>
          <ns3:TrackPointExtension>
            <ns3:atemp>19.0</ns3:atemp>
          </ns3:TrackPointExtension>
        </extensions>
      </trkpt>
      <trkpt lat="42.516120560467243194580078125" lon="19.98521153815090656280517578125">
        <ele>1563.199951171875</ele>
        <time>2026-06-19T08:00:22.000Z</time>
        <extensions>
          <ns3:TrackPointExtension>
            <ns3:atemp>19.0</ns3:atemp>
          </ns3:TrackPointExtension>
        </extensions>
      </trkpt>
      <trkpt lat="42.5161103345453739166259765625" lon="19.9852260388433933258056640625">
        <ele>1563.4000244140625</ele>
        <time>2026-06-19T08:00:23.000Z</time>
        <extensions>
          <ns3:TrackPointExtension>
            <ns3:atemp>19.0</ns3:atemp>
          </ns3:TrackPointExtension>
        </extensions>
      </trkpt>
      <trkpt lat="42.516100108623504638671875" lon="19.98524062335491180419921875">
        <ele>1563.5999755859375</ele>
        <time>2026-06-19T08:00:24.000Z</time>
        <extensions>
          <ns3:TrackPointExtension>
            <ns3:atemp>19.0</ns3:atemp>
          </ns3:TrackPointExtension>
        </extensions>
      </trkpt>
      <trkpt lat="42.51608669757843017578125" lon="19.9852592311799526214599609375">
        <ele>1564</ele>
        <time>2026-06-19T08:00:25.000Z</time>
        <extensions>
          <ns3:TrackPointExtension>
            <ns3:atemp>19.0</ns3:atemp>
          </ns3:TrackPointExtension>
        </extensions>
      </trkpt>
      <trkpt lat="42.51607135869562625885009765625" lon="19.98527775518596172332763671875">
        <ele>1564.199951171875</ele>
        <time>2026-06-19T08:00:26.000Z</time>
        <extensions>
          <ns3:TrackPointExtension>
            <ns3:atemp>19.0</ns3:atemp>
          </ns3:TrackPointExtension>
        </extensions>
      </trkpt>
      <trkpt lat="42.51605845056474208831787109375" lon="19.98529418371617794036865234375">
        <ele>1564.5999755859375</ele>
        <time>2026-06-19T08:00:27.000Z</time>
        <extensions>
          <ns3:TrackPointExtension>
            <ns3:atemp>19.0</ns3:atemp>
          </ns3:TrackPointExtension>
        </extensions>
      </trkpt>
      <trkpt lat="42.5160486437380313873291015625" lon="19.98530960641801357269287109375">
        <ele>1564.800048828125</ele>
        <time>2026-06-19T08:00:28.000Z</time>
        <extensions>
          <ns3:TrackPointExtension>
            <ns3:atemp>19.0</ns3:atemp>
          </ns3:TrackPointExtension>
        </extensions>
      </trkpt>
      <trkpt lat="42.51603380776941776275634765625" lon="19.98532511293888092041015625">
        <ele>1565</ele>
        <time>2026-06-19T08:00:29.000Z</time>
        <extensions>
          <ns3:TrackPointExtension>
            <ns3:atemp>19.0</ns3:atemp>
          </ns3:TrackPointExtension>
        </extensions>
      </trkpt>
      <trkpt lat="42.5160194747149944305419921875" lon="19.985343553125858306884765625">
        <ele>1565</ele>
        <time>2026-06-19T08:00:30.000Z</time>
        <extensions>
          <ns3:TrackPointExtension>
            <ns3:atemp>19.0</ns3:atemp>
          </ns3:TrackPointExtension>
        </extensions>
      </trkpt>
      <trkpt lat="42.5160090811550617218017578125" lon="19.985365010797977447509765625">
        <ele>1565.199951171875</ele>
        <time>2026-06-19T08:00:31.000Z</time>
        <extensions>
          <ns3:TrackPointExtension>
            <ns3:atemp>19.0</ns3:atemp>
          </ns3:TrackPointExtension>
        </extensions>
      </trkpt>
      <trkpt lat="42.51599994488060474395751953125" lon="19.98538437299430370330810546875">
        <ele>1565.4000244140625</ele>
        <time>2026-06-19T08:00:32.000Z</time>
        <extensions>
          <ns3:TrackPointExtension>
            <ns3:atemp>19.0</ns3:atemp>
          </ns3:TrackPointExtension>
        </extensions>
      </trkpt>
      <trkpt lat="42.5159913115203380584716796875" lon="19.985394179821014404296875">
        <ele>1565.5999755859375</ele>
        <time>2026-06-19T08:00:33.000Z</time>
        <extensions>
          <ns3:TrackPointExtension>
            <ns3:atemp>19.0</ns3:atemp>
          </ns3:TrackPointExtension>
        </extensions>
      </trkpt>
      <trkpt lat="42.51598603092133998870849609375" lon="19.9854147993028163909912109375">
        <ele>1565.800048828125</ele>
        <time>2026-06-19T08:00:34.000Z</time>
        <extensions>
          <ns3:TrackPointExtension>
            <ns3:atemp>19.0</ns3:atemp>
          </ns3:TrackPointExtension>
        </extensions>
      </trkpt>
      <trkpt lat="42.515978403389453887939453125" lon="19.985434748232364654541015625">
        <ele>1566</ele>
        <time>2026-06-19T08:00:35.000Z</time>
        <extensions>
          <ns3:TrackPointExtension>
            <ns3:atemp>19.0</ns3:atemp>
          </ns3:TrackPointExtension>
        </extensions>
      </trkpt>
      <trkpt lat="42.51596993766725063323974609375" lon="19.9854513444006443023681640625">
        <ele>1566.199951171875</ele>
        <time>2026-06-19T08:00:36.000Z</time>
        <extensions>
          <ns3:TrackPointExtension>
            <ns3:atemp>19.0</ns3:atemp>
          </ns3:TrackPointExtension>
        </extensions>
      </trkpt>
      <trkpt lat="42.5159651599824428558349609375" lon="19.98546659946441650390625">
        <ele>1566.199951171875</ele>
        <time>2026-06-19T08:00:37.000Z</time>
        <extensions>
          <ns3:TrackPointExtension>
            <ns3:atemp>19.0</ns3:atemp>
          </ns3:TrackPointExtension>
        </extensions>
      </trkpt>
      <trkpt lat="42.51595233567059040069580078125" lon="19.9854835309088230133056640625">
        <ele>1566.4000244140625</ele>
        <time>2026-06-19T08:00:38.000Z</time>
        <extensions>
          <ns3:TrackPointExtension>
            <ns3:atemp>19.0</ns3:atemp>
          </ns3:TrackPointExtension>
        </extensions>
      </trkpt>
      <trkpt lat="42.51593942753970623016357421875" lon="19.98550155200064182281494140625">
        <ele>1566.5999755859375</ele>
        <time>2026-06-19T08:00:39.000Z</time>
        <extensions>
          <ns3:TrackPointExtension>
            <ns3:atemp>19.0</ns3:atemp>
          </ns3:TrackPointExtension>
        </extensions>
      </trkpt>
      <trkpt lat="42.51592936925590038299560546875" lon="19.9855214171111583709716796875">
        <ele>1566.800048828125</ele>
        <time>2026-06-19T08:00:40.000Z</time>
        <extensions>
          <ns3:TrackPointExtension>
            <ns3:atemp>19.0</ns3:atemp>
          </ns3:TrackPointExtension>
        </extensions>
      </trkpt>
      <trkpt lat="42.51592165790498256683349609375" lon="19.98554279096424579620361328125">
        <ele>1567</ele>
        <time>2026-06-19T08:00:41.000Z</time>
        <extensions>
          <ns3:TrackPointExtension>
            <ns3:atemp>19.0</ns3:atemp>
          </ns3:TrackPointExtension>
        </extensions>
      </trkpt>
      <trkpt lat="42.51591394655406475067138671875" lon="19.98556173406541347503662109375">
        <ele>1567.199951171875</ele>
        <time>2026-06-19T08:00:42.000Z</time>
        <extensions>
          <ns3:TrackPointExtension>
            <ns3:atemp>19.0</ns3:atemp>
          </ns3:TrackPointExtension>
        </extensions>
      </trkpt>
      <trkpt lat="42.51590631902217864990234375" lon="19.98558067716658115386962890625">
        <ele>1567.4000244140625</ele>
        <time>2026-06-19T08:00:43.000Z</time>
        <extensions>
          <ns3:TrackPointExtension>
            <ns3:atemp>19.0</ns3:atemp>
          </ns3:TrackPointExtension>
        </extensions>
      </trkpt>
      <trkpt lat="42.51590087078511714935302734375" lon="19.98559878207743167877197265625">
        <ele>1567.5999755859375</ele>
        <time>2026-06-19T08:00:44.000Z</time>
        <extensions>
          <ns3:TrackPointExtension>
            <ns3:atemp>19.0</ns3:atemp>
          </ns3:TrackPointExtension>
        </extensions>
      </trkpt>
      <trkpt lat="42.5158930756151676177978515625" lon="19.98562091030180454254150390625">
        <ele>1567.800048828125</ele>
        <time>2026-06-19T08:00:45.000Z</time>
        <extensions>
          <ns3:TrackPointExtension>
            <ns3:atemp>19.0</ns3:atemp>
          </ns3:TrackPointExtension>
        </extensions>
      </trkpt>
      <trkpt lat="42.51589098013937473297119140625" lon="19.98564505018293857574462890625">
        <ele>1568</ele>
        <time>2026-06-19T08:00:46.000Z</time>
        <extensions>
          <ns3:TrackPointExtension>
            <ns3:atemp>19.0</ns3:atemp>
          </ns3:TrackPointExtension>
        </extensions>
      </trkpt>
      <trkpt lat="42.5158820115029811859130859375" lon="19.985672123730182647705078125">
        <ele>1568</ele>
        <time>2026-06-19T08:00:47.000Z</time>
        <extensions>
          <ns3:TrackPointExtension>
            <ns3:atemp>19.0</ns3:atemp>
          </ns3:TrackPointExtension>
        </extensions>
      </trkpt>
      <trkpt lat="42.5158766470849514007568359375" lon="19.9856950901448726654052734375">
        <ele>1568.199951171875</ele>
        <time>2026-06-19T08:00:48.000Z</time>
        <extensions>
          <ns3:TrackPointExtension>
            <ns3:atemp>19.0</ns3:atemp>
          </ns3:TrackPointExtension>
        </extensions>
      </trkpt>
      <trkpt lat="42.51586767844855785369873046875" lon="19.98571805655956268310546875">
        <ele>1568.4000244140625</ele>
        <time>2026-06-19T08:00:49.000Z</time>
        <extensions>
          <ns3:TrackPointExtension>
            <ns3:atemp>19.0</ns3:atemp>
          </ns3:TrackPointExtension>
        </extensions>
      </trkpt>
      <trkpt lat="42.5158655829727649688720703125" lon="19.98573591001331806182861328125">
        <ele>1568.5999755859375</ele>
        <time>2026-06-19T08:00:50.000Z</time>
        <extensions>
          <ns3:TrackPointExtension>
            <ns3:atemp>19.0</ns3:atemp>
          </ns3:TrackPointExtension>
        </extensions>
      </trkpt>
      <trkpt lat="42.51586080528795719146728515625" lon="19.98575535602867603302001953125">
        <ele>1568.800048828125</ele>
        <time>2026-06-19T08:00:51.000Z</time>
        <extensions>
          <ns3:TrackPointExtension>
            <ns3:atemp>19.0</ns3:atemp>
          </ns3:TrackPointExtension>
        </extensions>
      </trkpt>
      <trkpt lat="42.51585577614605426788330078125" lon="19.98577463440597057342529296875">
        <ele>1569</ele>
        <time>2026-06-19T08:00:52.000Z</time>
        <extensions>
          <ns3:TrackPointExtension>
            <ns3:atemp>19.0</ns3:atemp>
          </ns3:TrackPointExtension>
        </extensions>
      </trkpt>
      <trkpt lat="42.51585158519446849822998046875" lon="19.985790811479091644287109375">
        <ele>1569.199951171875</ele>
        <time>2026-06-19T08:00:53.000Z</time>
        <extensions>
          <ns3:TrackPointExtension>
            <ns3:atemp>19.0</ns3:atemp>
          </ns3:TrackPointExtension>
        </extensions>
      </trkpt>
      <trkpt lat="42.51584923826158046722412109375" lon="19.98581302352249622344970703125">
        <ele>1569.4000244140625</ele>
        <time>2026-06-19T08:00:54.000Z</time>
        <extensions>
          <ns3:TrackPointExtension>
            <ns3:atemp>19.0</ns3:atemp>
          </ns3:TrackPointExtension>
        </extensions>
      </trkpt>
      <trkpt lat="42.515842281281948089599609375" lon="19.985834397375583648681640625">
        <ele>1569.5999755859375</ele>
        <time>2026-06-19T08:00:55.000Z</time>
        <extensions>
          <ns3:TrackPointExtension>
            <ns3:atemp>19.0</ns3:atemp>
          </ns3:TrackPointExtension>
        </extensions>
      </trkpt>
      <trkpt lat="42.5158340670168399810791015625" lon="19.98585560359060764312744140625">
        <ele>1569.800048828125</ele>
        <time>2026-06-19T08:00:56.000Z</time>
        <extensions>
          <ns3:TrackPointExtension>
            <ns3:atemp>19.0</ns3:atemp>
          </ns3:TrackPointExtension>
        </extensions>
      </trkpt>
      <trkpt lat="42.5158273614943027496337890625" lon="19.985873959958553314208984375">
        <ele>1570</ele>
        <time>2026-06-19T08:00:57.000Z</time>
        <extensions>
          <ns3:TrackPointExtension>
            <ns3:atemp>19.0</ns3:atemp>
          </ns3:TrackPointExtension>
        </extensions>
      </trkpt>
      <trkpt lat="42.515819482505321502685546875" lon="19.98589399270713329315185546875">
        <ele>1570.199951171875</ele>
        <time>2026-06-19T08:00:58.000Z</time>
        <extensions>
          <ns3:TrackPointExtension>
            <ns3:atemp>19.0</ns3:atemp>
          </ns3:TrackPointExtension>
        </extensions>
      </trkpt>
      <trkpt lat="42.5158126093447208404541015625" lon="19.98591645620763301849365234375">
        <ele>1570.4000244140625</ele>
        <time>2026-06-19T08:00:59.000Z</time>
        <extensions>
          <ns3:TrackPointExtension>
            <ns3:atemp>19.0</ns3:atemp>
          </ns3:TrackPointExtension>
        </extensions>
      </trkpt>
      <trkpt lat="42.51580632291734218597412109375" lon="19.98593506403267383575439453125">
        <ele>1570.4000244140625</ele>
        <time>2026-06-19T08:01:00.000Z</time>
        <extensions>
          <ns3:TrackPointExtension>
            <ns3:atemp>19.0</ns3:atemp>
          </ns3:TrackPointExtension>
        </extensions>
      </trkpt>
      <trkpt lat="42.51580129377543926239013671875" lon="19.98595585115253925323486328125">
        <ele>1570.5999755859375</ele>
        <time>2026-06-19T08:01:01.000Z</time>
        <extensions>
          <ns3:TrackPointExtension>
            <ns3:atemp>19.0</ns3:atemp>
          </ns3:TrackPointExtension>
        </extensions>
      </trkpt>
      <trkpt lat="42.515798695385456085205078125" lon="19.98597462661564350128173828125">
        <ele>1570.800048828125</ele>
        <time>2026-06-19T08:01:02.000Z</time>
        <extensions>
          <ns3:TrackPointExtension>
            <ns3:atemp>19.0</ns3:atemp>
          </ns3:TrackPointExtension>
        </extensions>
      </trkpt>
      <trkpt lat="42.51579408533871173858642578125" lon="19.9859941564500331878662109375">
        <ele>1571</ele>
        <time>2026-06-19T08:01:03.000Z</time>
        <extensions>
          <ns3:TrackPointExtension>
            <ns3:atemp>19.0</ns3:atemp>
          </ns3:TrackPointExtension>
        </extensions>
      </trkpt>
      <trkpt lat="42.5157894752919673919677734375" lon="19.98601737432181835174560546875">
        <ele>1571.199951171875</ele>
        <time>2026-06-19T08:01:04.000Z</time>
        <extensions>
          <ns3:TrackPointExtension>
            <ns3:atemp>19.0</ns3:atemp>
          </ns3:TrackPointExtension>
        </extensions>
      </trkpt>
      <trkpt lat="42.5157834403216838836669921875" lon="19.98604151420295238494873046875">
        <ele>1571.199951171875</ele>
        <time>2026-06-19T08:01:05.000Z</time>
        <extensions>
          <ns3:TrackPointExtension>
            <ns3:atemp>19.0</ns3:atemp>
          </ns3:TrackPointExtension>
        </extensions>
      </trkpt>
      <trkpt lat="42.51578218303620815277099609375" lon="19.986067079007625579833984375">
        <ele>1571.4000244140625</ele>
        <time>2026-06-19T08:01:06.000Z</time>
        <extensions>
          <ns3:TrackPointExtension>
            <ns3:atemp>19.0</ns3:atemp>
          </ns3:TrackPointExtension>
        </extensions>
      </trkpt>
      <trkpt lat="42.515777908265590667724609375" lon="19.9860913865268230438232421875">
        <ele>1571.5999755859375</ele>
        <time>2026-06-19T08:01:07.000Z</time>
        <extensions>
          <ns3:TrackPointExtension>
            <ns3:atemp>19.0</ns3:atemp>
          </ns3:TrackPointExtension>
        </extensions>
      </trkpt>
      <trkpt lat="42.51577556133270263671875" lon="19.9861104972660541534423828125">
        <ele>1571.800048828125</ele>
        <time>2026-06-19T08:01:08.000Z</time>
        <extensions>
          <ns3:TrackPointExtension>
            <ns3:atemp>19.0</ns3:atemp>
          </ns3:TrackPointExtension>
        </extensions>
      </trkpt>
      <trkpt lat="42.5157720409333705902099609375" lon="19.986132793128490447998046875">
        <ele>1572</ele>
        <time>2026-06-19T08:01:09.000Z</time>
        <extensions>
          <ns3:TrackPointExtension>
            <ns3:atemp>19.0</ns3:atemp>
          </ns3:TrackPointExtension>
        </extensions>
      </trkpt>
      <trkpt lat="42.5157688558101654052734375" lon="19.9861564300954341888427734375">
        <ele>1572.199951171875</ele>
        <time>2026-06-19T08:01:10.000Z</time>
        <extensions>
          <ns3:TrackPointExtension>
            <ns3:atemp>19.0</ns3:atemp>
          </ns3:TrackPointExtension>
        </extensions>
      </trkpt>
      <trkpt lat="42.515765167772769927978515625" lon="19.98618543148040771484375">
        <ele>1572.4000244140625</ele>
        <time>2026-06-19T08:01:11.000Z</time>
        <extensions>
          <ns3:TrackPointExtension>
            <ns3:atemp>19.0</ns3:atemp>
          </ns3:TrackPointExtension>
        </extensions>
      </trkpt>
      <trkpt lat="42.51575921662151813507080078125" lon="19.9862060509622097015380859375">
        <ele>1572.5999755859375</ele>
        <time>2026-06-19T08:01:12.000Z</time>
        <extensions>
          <ns3:TrackPointExtension>
            <ns3:atemp>19.0</ns3:atemp>
          </ns3:TrackPointExtension>
        </extensions>
      </trkpt>
      <trkpt lat="42.51575477421283721923828125" lon="19.98623077757656574249267578125">
        <ele>1572.800048828125</ele>
        <time>2026-06-19T08:01:13.000Z</time>
        <extensions>
          <ns3:TrackPointExtension>
            <ns3:atemp>19.0</ns3:atemp>
          </ns3:TrackPointExtension>
        </extensions>
      </trkpt>
      <trkpt lat="42.51574228517711162567138671875" lon="19.98625810258090496063232421875">
        <ele>1573</ele>
        <time>2026-06-19T08:01:14.000Z</time>
        <extensions>
          <ns3:TrackPointExtension>
            <ns3:atemp>19.0</ns3:atemp>
          </ns3:TrackPointExtension>
        </extensions>
      </trkpt>
      <trkpt lat="42.515728287398815155029296875" lon="19.98626715503633022308349609375">
        <ele>1573.199951171875</ele>
        <time>2026-06-19T08:01:15.000Z</time>
        <extensions>
          <ns3:TrackPointExtension>
            <ns3:atemp>19.0</ns3:atemp>
          </ns3:TrackPointExtension>
        </extensions>
      </trkpt>
      <trkpt lat="42.51571345143020153045654296875" lon="19.9862808175384998321533203125">
        <ele>1573.4000244140625</ele>
        <time>2026-06-19T08:01:16.000Z</time>
        <extensions>
          <ns3:TrackPointExtension>
            <ns3:atemp>19.0</ns3:atemp>
          </ns3:TrackPointExtension>
        </extensions>
      </trkpt>
      <trkpt lat="42.51569517888128757476806640625" lon="19.986288361251354217529296875">
        <ele>1573.5999755859375</ele>
        <time>2026-06-19T08:01:17.000Z</time>
        <extensions>
          <ns3:TrackPointExtension>
            <ns3:atemp>19.0</ns3:atemp>
          </ns3:TrackPointExtension>
        </extensions>
      </trkpt>
      <trkpt lat="42.51567891798913478851318359375" lon="19.98629800044000148773193359375">
        <ele>1573.800048828125</ele>
        <time>2026-06-19T08:01:18.000Z</time>
        <extensions>
          <ns3:TrackPointExtension>
            <ns3:atemp>19.0</ns3:atemp>
          </ns3:TrackPointExtension>
        </extensions>
      </trkpt>
      <trkpt lat="42.5156634114682674407958984375" lon="19.9863052926957607269287109375">
        <ele>1574</ele>
        <time>2026-06-19T08:01:19.000Z</time>
        <extensions>
          <ns3:TrackPointExtension>
            <ns3:atemp>19.0</ns3:atemp>
          </ns3:TrackPointExtension>
        </extensions>
      </trkpt>
      <trkpt lat="42.515653185546398162841796875" lon="19.986311830580234527587890625">
        <ele>1574.199951171875</ele>
        <time>2026-06-19T08:01:20.000Z</time>
        <extensions>
          <ns3:TrackPointExtension>
            <ns3:atemp>19.0</ns3:atemp>
          </ns3:TrackPointExtension>
        </extensions>
      </trkpt>
      <trkpt lat="42.5156375952064990997314453125" lon="19.98631509952247142791748046875">
        <ele>1574.4000244140625</ele>
        <time>2026-06-19T08:01:21.000Z</time>
        <extensions>
          <ns3:TrackPointExtension>
            <ns3:atemp>19.0</ns3:atemp>
          </ns3:TrackPointExtension>
        </extensions>
      </trkpt>
      <trkpt lat="42.51562326215207576751708984375" lon="19.9863180331885814666748046875">
        <ele>1574.5999755859375</ele>
        <time>2026-06-19T08:01:22.000Z</time>
        <extensions>
          <ns3:TrackPointExtension>
            <ns3:atemp>19.0</ns3:atemp>
          </ns3:TrackPointExtension>
        </extensions>
      </trkpt>
      <trkpt lat="42.51561127603054046630859375" lon="19.98632130213081836700439453125">
        <ele>1574.800048828125</ele>
        <time>2026-06-19T08:01:23.000Z</time>
        <extensions>
          <ns3:TrackPointExtension>
            <ns3:atemp>19.0</ns3:atemp>
          </ns3:TrackPointExtension>
        </extensions>
      </trkpt>
      <trkpt lat="42.51559627242386341094970703125" lon="19.98632230795919895172119140625">
        <ele>1575</ele>
        <time>2026-06-19T08:01:24.000Z</time>
        <extensions>
          <ns3:TrackPointExtension>
            <ns3:atemp>19.0</ns3:atemp>
          </ns3:TrackPointExtension>
        </extensions>
      </trkpt>
      <trkpt lat="42.51558445394039154052734375" lon="19.986327923834323883056640625">
        <ele>1575.4000244140625</ele>
        <time>2026-06-19T08:01:25.000Z</time>
        <extensions>
          <ns3:TrackPointExtension>
            <ns3:atemp>19.0</ns3:atemp>
          </ns3:TrackPointExtension>
        </extensions>
      </trkpt>
      <trkpt lat="42.51557045616209506988525390625" lon="19.9863321147859096527099609375">
        <ele>1575.5999755859375</ele>
        <time>2026-06-19T08:01:26.000Z</time>
        <extensions>
          <ns3:TrackPointExtension>
            <ns3:atemp>19.0</ns3:atemp>
          </ns3:TrackPointExtension>
        </extensions>
      </trkpt>
      <trkpt lat="42.515553273260593414306640625" lon="19.986343346536159515380859375">
        <ele>1575.800048828125</ele>
        <time>2026-06-19T08:01:27.000Z</time>
        <extensions>
          <ns3:TrackPointExtension>
            <ns3:atemp>19.0</ns3:atemp>
          </ns3:TrackPointExtension>
        </extensions>
      </trkpt>
      <trkpt lat="42.5155360065400600433349609375" lon="19.9863557517528533935546875">
        <ele>1576</ele>
        <time>2026-06-19T08:01:28.000Z</time>
        <extensions>
          <ns3:TrackPointExtension>
            <ns3:atemp>19.0</ns3:atemp>
          </ns3:TrackPointExtension>
        </extensions>
      </trkpt>
      <trkpt lat="42.51551873981952667236328125" lon="19.98636488802731037139892578125">
        <ele>1576.199951171875</ele>
        <time>2026-06-19T08:01:29.000Z</time>
        <extensions>
          <ns3:TrackPointExtension>
            <ns3:atemp>19.0</ns3:atemp>
          </ns3:TrackPointExtension>
        </extensions>
      </trkpt>
      <trkpt lat="42.5155034847557544708251953125" lon="19.9863753654062747955322265625">
        <ele>1576.4000244140625</ele>
        <time>2026-06-19T08:01:30.000Z</time>
        <extensions>
          <ns3:TrackPointExtension>
            <ns3:atemp>19.0</ns3:atemp>
          </ns3:TrackPointExtension>
        </extensions>
      </trkpt>
      <trkpt lat="42.515488564968109130859375" lon="19.98639204539358615875244140625">
        <ele>1576.5999755859375</ele>
        <time>2026-06-19T08:01:31.000Z</time>
        <extensions>
          <ns3:TrackPointExtension>
            <ns3:atemp>19.0</ns3:atemp>
          </ns3:TrackPointExtension>
        </extensions>
      </trkpt>
      <trkpt lat="42.5154773332178592681884765625" lon="19.98640880919992923736572265625">
        <ele>1576.800048828125</ele>
        <time>2026-06-19T08:01:32.000Z</time>
        <extensions>
          <ns3:TrackPointExtension>
            <ns3:atemp>19.0</ns3:atemp>
          </ns3:TrackPointExtension>
        </extensions>
      </trkpt>
      <trkpt lat="42.51546165905892848968505859375" lon="19.98642507009208202362060546875">
        <ele>1577.199951171875</ele>
        <time>2026-06-19T08:01:33.000Z</time>
        <extensions>
          <ns3:TrackPointExtension>
            <ns3:atemp>19.0</ns3:atemp>
          </ns3:TrackPointExtension>
        </extensions>
      </trkpt>
      <trkpt lat="42.515451014041900634765625" lon="19.98644451610743999481201171875">
        <ele>1577.4000244140625</ele>
        <time>2026-06-19T08:01:34.000Z</time>
        <extensions>
          <ns3:TrackPointExtension>
            <ns3:atemp>19.0</ns3:atemp>
          </ns3:TrackPointExtension>
        </extensions>
      </trkpt>
      <trkpt lat="42.5154431350529193878173828125" lon="19.98646463267505168914794921875">
        <ele>1577.5999755859375</ele>
        <time>2026-06-19T08:01:35.000Z</time>
        <extensions>
          <ns3:TrackPointExtension>
            <ns3:atemp>19.0</ns3:atemp>
          </ns3:TrackPointExtension>
        </extensions>
      </trkpt>
      <trkpt lat="42.51543232239782810211181640625" lon="19.98648776672780513763427734375">
        <ele>1577.800048828125</ele>
        <time>2026-06-19T08:01:36.000Z</time>
        <extensions>
          <ns3:TrackPointExtension>
            <ns3:atemp>19.0</ns3:atemp>
          </ns3:TrackPointExtension>
        </extensions>
      </trkpt>
      <trkpt lat="42.51542159356176853179931640625" lon="19.98650570400059223175048828125">
        <ele>1578</ele>
        <time>2026-06-19T08:01:37.000Z</time>
        <extensions>
          <ns3:TrackPointExtension>
            <ns3:atemp>19.0</ns3:atemp>
          </ns3:TrackPointExtension>
        </extensions>
      </trkpt>
      <trkpt lat="42.5154072605073451995849609375" lon="19.9865195341408252716064453125">
        <ele>1578.199951171875</ele>
        <time>2026-06-19T08:01:38.000Z</time>
        <extensions>
          <ns3:TrackPointExtension>
            <ns3:atemp>19.0</ns3:atemp>
          </ns3:TrackPointExtension>
        </extensions>
      </trkpt>
      <trkpt lat="42.51539426855742931365966796875" lon="19.98653772287070751190185546875">
        <ele>1578.5999755859375</ele>
        <time>2026-06-19T08:01:39.000Z</time>
        <extensions>
          <ns3:TrackPointExtension>
            <ns3:atemp>19.0</ns3:atemp>
          </ns3:TrackPointExtension>
        </extensions>
      </trkpt>
      <trkpt lat="42.51538052223622798919677734375" lon="19.98655482195317745208740234375">
        <ele>1578.800048828125</ele>
        <time>2026-06-19T08:01:40.000Z</time>
        <extensions>
          <ns3:TrackPointExtension>
            <ns3:atemp>19.0</ns3:atemp>
          </ns3:TrackPointExtension>
        </extensions>
      </trkpt>
      <trkpt lat="42.51536585390567779541015625" lon="19.986572004854679107666015625">
        <ele>1579.199951171875</ele>
        <time>2026-06-19T08:01:41.000Z</time>
        <extensions>
          <ns3:TrackPointExtension>
            <ns3:atemp>19.0</ns3:atemp>
          </ns3:TrackPointExtension>
        </extensions>
      </trkpt>
      <trkpt lat="42.5153526104986667633056640625" lon="19.98659245669841766357421875">
        <ele>1579.4000244140625</ele>
        <time>2026-06-19T08:01:42.000Z</time>
        <extensions>
          <ns3:TrackPointExtension>
            <ns3:atemp>19.0</ns3:atemp>
          </ns3:TrackPointExtension>
        </extensions>
      </trkpt>
      <trkpt lat="42.51533576287329196929931640625" lon="19.98660854995250701904296875">
        <ele>1579.5999755859375</ele>
        <time>2026-06-19T08:01:43.000Z</time>
        <extensions>
          <ns3:TrackPointExtension>
            <ns3:atemp>19.0</ns3:atemp>
          </ns3:TrackPointExtension>
        </extensions>
      </trkpt>
      <trkpt lat="42.51532184891402721405029296875" lon="19.9866248108446598052978515625">
        <ele>1579.800048828125</ele>
        <time>2026-06-19T08:01:44.000Z</time>
        <extensions>
          <ns3:TrackPointExtension>
            <ns3:atemp>19.0</ns3:atemp>
          </ns3:TrackPointExtension>
        </extensions>
      </trkpt>
      <trkpt lat="42.51531028188765048980712890625" lon="19.9866375513374805450439453125">
        <ele>1580.199951171875</ele>
        <time>2026-06-19T08:01:45.000Z</time>
        <extensions>
          <ns3:TrackPointExtension>
            <ns3:atemp>19.0</ns3:atemp>
          </ns3:TrackPointExtension>
        </extensions>
      </trkpt>
      <trkpt lat="42.5152993015944957733154296875" lon="19.9866549856960773468017578125">
        <ele>1580.4000244140625</ele>
        <time>2026-06-19T08:01:46.000Z</time>
        <extensions>
          <ns3:TrackPointExtension>
            <ns3:atemp>19.0</ns3:atemp>
          </ns3:TrackPointExtension>
        </extensions>
      </trkpt>
      <trkpt lat="42.51529100351035594940185546875" lon="19.9866690672934055328369140625">
        <ele>1580.5999755859375</ele>
        <time>2026-06-19T08:01:47.000Z</time>
        <extensions>
          <ns3:TrackPointExtension>
            <ns3:atemp>19.0</ns3:atemp>
          </ns3:TrackPointExtension>
        </extensions>
      </trkpt>
      <trkpt lat="42.51527859829366207122802734375" lon="19.9866794608533382415771484375">
        <ele>1580.800048828125</ele>
        <time>2026-06-19T08:01:48.000Z</time>
        <extensions>
          <ns3:TrackPointExtension>
            <ns3:atemp>19.0</ns3:atemp>
          </ns3:TrackPointExtension>
        </extensions>
      </trkpt>
      <trkpt lat="42.51527256332337856292724609375" lon="19.98669228516519069671630859375">
        <ele>1581</ele>
        <time>2026-06-19T08:01:49.000Z</time>
        <extensions>
          <ns3:TrackPointExtension>
            <ns3:atemp>19.0</ns3:atemp>
          </ns3:TrackPointExtension>
        </extensions>
      </trkpt>
      <trkpt lat="42.51526384614408016204833984375" lon="19.986710809171199798583984375">
        <ele>1581.199951171875</ele>
        <time>2026-06-19T08:01:50.000Z</time>
        <extensions>
          <ns3:TrackPointExtension>
            <ns3:atemp>19.0</ns3:atemp>
          </ns3:TrackPointExtension>
        </extensions>
      </trkpt>
      <trkpt lat="42.51525244675576686859130859375" lon="19.9867223761975765228271484375">
        <ele>1581.4000244140625</ele>
        <time>2026-06-19T08:01:51.000Z</time>
        <extensions>
          <ns3:TrackPointExtension>
            <ns3:atemp>19.0</ns3:atemp>
          </ns3:TrackPointExtension>
        </extensions>
      </trkpt>
      <trkpt lat="42.5152439810335636138916015625" lon="19.98673168011009693145751953125">
        <ele>1581.800048828125</ele>
        <time>2026-06-19T08:01:52.000Z</time>
        <extensions>
          <ns3:TrackPointExtension>
            <ns3:atemp>19.0</ns3:atemp>
          </ns3:TrackPointExtension>
        </extensions>
      </trkpt>
      <trkpt lat="42.51523082144558429718017578125" lon="19.98674391768872737884521484375">
        <ele>1582</ele>
        <time>2026-06-19T08:01:53.000Z</time>
        <extensions>
          <ns3:TrackPointExtension>
            <ns3:atemp>19.0</ns3:atemp>
          </ns3:TrackPointExtension>
        </extensions>
      </trkpt>
      <trkpt lat="42.51521673984825611114501953125" lon="19.9867595918476581573486328125">
        <ele>1582.199951171875</ele>
        <time>2026-06-19T08:01:54.000Z</time>
        <extensions>
          <ns3:TrackPointExtension>
            <ns3:atemp>19.0</ns3:atemp>
          </ns3:TrackPointExtension>
        </extensions>
      </trkpt>
      <trkpt lat="42.5152002274990081787109375" lon="19.98677560128271579742431640625">
        <ele>1582.4000244140625</ele>
        <time>2026-06-19T08:01:55.000Z</time>
        <extensions>
          <ns3:TrackPointExtension>
            <ns3:atemp>19.0</ns3:atemp>
          </ns3:TrackPointExtension>
        </extensions>
      </trkpt>
      <trkpt lat="42.51518522389233112335205078125" lon="19.986791275441646575927734375">
        <ele>1582.5999755859375</ele>
        <time>2026-06-19T08:01:56.000Z</time>
        <extensions>
          <ns3:TrackPointExtension>
            <ns3:atemp>19.0</ns3:atemp>
          </ns3:TrackPointExtension>
        </extensions>
      </trkpt>
      <trkpt lat="42.51517063938081264495849609375" lon="19.98680795542895793914794921875">
        <ele>1582.800048828125</ele>
        <time>2026-06-19T08:01:57.000Z</time>
        <extensions>
          <ns3:TrackPointExtension>
            <ns3:atemp>19.0</ns3:atemp>
          </ns3:TrackPointExtension>
        </extensions>
      </trkpt>
      <trkpt lat="42.5151588208973407745361328125" lon="19.98682220466434955596923828125">
        <ele>1583</ele>
        <time>2026-06-19T08:01:58.000Z</time>
        <extensions>
          <ns3:TrackPointExtension>
            <ns3:atemp>19.0</ns3:atemp>
          </ns3:TrackPointExtension>
        </extensions>
      </trkpt>
      <trkpt lat="42.51514649949967861175537109375" lon="19.98684064485132694244384765625">
        <ele>1583.199951171875</ele>
        <time>2026-06-19T08:01:59.000Z</time>
        <extensions>
          <ns3:TrackPointExtension>
            <ns3:atemp>19.0</ns3:atemp>
          </ns3:TrackPointExtension>
        </extensions>
      </trkpt>
      <trkpt lat="42.51513292081654071807861328125" lon="19.98686134815216064453125">
        <ele>1583.199951171875</ele>
        <time>2026-06-19T08:02:00.000Z</time>
        <extensions>
          <ns3:TrackPointExtension>
            <ns3:atemp>19.0</ns3:atemp>
          </ns3:TrackPointExtension>
        </extensions>
      </trkpt>
      <trkpt lat="42.51512101851403713226318359375" lon="19.98688506893813610076904296875">
        <ele>1583.4000244140625</ele>
        <time>2026-06-19T08:02:01.000Z</time>
        <extensions>
          <ns3:TrackPointExtension>
            <ns3:atemp>19.0</ns3:atemp>
          </ns3:TrackPointExtension>
        </extensions>
      </trkpt>
      <trkpt lat="42.51510836184024810791015625" lon="19.9869067780673503875732421875">
        <ele>1583.5999755859375</ele>
        <time>2026-06-19T08:02:02.000Z</time>
        <extensions>
          <ns3:TrackPointExtension>
            <ns3:atemp>19.0</ns3:atemp>
          </ns3:TrackPointExtension>
        </extensions>
      </trkpt>
      <trkpt lat="42.5151008181273937225341796875" lon="19.98692748136818408966064453125">
        <ele>1583.5999755859375</ele>
        <time>2026-06-19T08:02:03.000Z</time>
        <extensions>
          <ns3:TrackPointExtension>
            <ns3:atemp>19.0</ns3:atemp>
          </ns3:TrackPointExtension>
        </extensions>
      </trkpt>
      <trkpt lat="42.5150917656719684600830078125" lon="19.9869513697922229766845703125">
        <ele>1583.5999755859375</ele>
        <time>2026-06-19T08:02:04.000Z</time>
        <extensions>
          <ns3:TrackPointExtension>
            <ns3:atemp>19.0</ns3:atemp>
          </ns3:TrackPointExtension>
        </extensions>
      </trkpt>
      <trkpt lat="42.51508078537881374359130859375" lon="19.98697006143629550933837890625">
        <ele>1583.800048828125</ele>
        <time>2026-06-19T08:02:05.000Z</time>
        <extensions>
          <ns3:TrackPointExtension>
            <ns3:atemp>19.0</ns3:atemp>
          </ns3:TrackPointExtension>
        </extensions>
      </trkpt>
      <trkpt lat="42.5150642730295658111572265625" lon="19.9869859032332897186279296875">
        <ele>1583.800048828125</ele>
        <time>2026-06-19T08:02:06.000Z</time>
        <extensions>
          <ns3:TrackPointExtension>
            <ns3:atemp>19.0</ns3:atemp>
          </ns3:TrackPointExtension>
        </extensions>
      </trkpt>
      <trkpt lat="42.5150478444993495941162109375" lon="19.98700224794447422027587890625">
        <ele>1583.800048828125</ele>
        <time>2026-06-19T08:02:07.000Z</time>
        <extensions>
          <ns3:TrackPointExtension>
            <ns3:atemp>19.0</ns3:atemp>
          </ns3:TrackPointExtension>
        </extensions>
      </trkpt>
      <trkpt lat="42.51503518782556056976318359375" lon="19.9870110489428043365478515625">
        <ele>1584</ele>
        <time>2026-06-19T08:02:08.000Z</time>
        <extensions>
          <ns3:TrackPointExtension>
            <ns3:atemp>19.0</ns3:atemp>
          </ns3:TrackPointExtension>
        </extensions>
      </trkpt>
      <trkpt lat="42.51502010039985179901123046875" lon="19.98701700009405612945556640625">
        <ele>1584</ele>
        <time>2026-06-19T08:02:09.000Z</time>
        <extensions>
          <ns3:TrackPointExtension>
            <ns3:atemp>19.0</ns3:atemp>
          </ns3:TrackPointExtension>
        </extensions>
      </trkpt>
      <trkpt lat="42.5150042586028575897216796875" lon="19.98701683245599269866943359375">
        <ele>1584</ele>
        <time>2026-06-19T08:02:10.000Z</time>
        <extensions>
          <ns3:TrackPointExtension>
            <ns3:atemp>19.0</ns3:atemp>
          </ns3:TrackPointExtension>
        </extensions>
      </trkpt>
      <trkpt lat="42.514986656606197357177734375" lon="19.98700861819088459014892578125">
        <ele>1584.199951171875</ele>
        <time>2026-06-19T08:02:11.000Z</time>
        <extensions>
          <ns3:TrackPointExtension>
            <ns3:atemp>19.0</ns3:atemp>
          </ns3:TrackPointExtension>
        </extensions>
      </trkpt>
      <trkpt lat="42.5149693898856639862060546875" lon="19.986999146640300750732421875">
        <ele>1584.199951171875</ele>
        <time>2026-06-19T08:02:12.000Z</time>
        <extensions>
          <ns3:TrackPointExtension>
            <ns3:atemp>19.0</ns3:atemp>
          </ns3:TrackPointExtension>
        </extensions>
      </trkpt>
      <trkpt lat="42.51495405100286006927490234375" lon="19.9869889207184314727783203125">
        <ele>1584.4000244140625</ele>
        <time>2026-06-19T08:02:13.000Z</time>
        <extensions>
          <ns3:TrackPointExtension>
            <ns3:atemp>19.0</ns3:atemp>
          </ns3:TrackPointExtension>
        </extensions>
      </trkpt>
      <trkpt lat="42.51493577845394611358642578125" lon="19.98698213137686252593994140625">
        <ele>1584.5999755859375</ele>
        <time>2026-06-19T08:02:14.000Z</time>
        <extensions>
          <ns3:TrackPointExtension>
            <ns3:atemp>19.0</ns3:atemp>
          </ns3:TrackPointExtension>
        </extensions>
      </trkpt>
      <trkpt lat="42.514920271933078765869140625" lon="19.9869708158075809478759765625">
        <ele>1584.800048828125</ele>
        <time>2026-06-19T08:02:15.000Z</time>
        <extensions>
          <ns3:TrackPointExtension>
            <ns3:atemp>19.0</ns3:atemp>
          </ns3:TrackPointExtension>
        </extensions>
      </trkpt>
      <trkpt lat="42.5149026699364185333251953125" lon="19.98696285299956798553466796875">
        <ele>1584.800048828125</ele>
        <time>2026-06-19T08:02:16.000Z</time>
        <extensions>
          <ns3:TrackPointExtension>
            <ns3:atemp>19.0</ns3:atemp>
          </ns3:TrackPointExtension>
        </extensions>
      </trkpt>
      <trkpt lat="42.51488749869167804718017578125" lon="19.98695262707769870758056640625">
        <ele>1585</ele>
        <time>2026-06-19T08:02:17.000Z</time>
        <extensions>
          <ns3:TrackPointExtension>
            <ns3:atemp>19.0</ns3:atemp>
          </ns3:TrackPointExtension>
        </extensions>
      </trkpt>
      <trkpt lat="42.5148694775998592376708984375" lon="19.9869443289935588836669921875">
        <ele>1585.4000244140625</ele>
        <time>2026-06-19T08:02:18.000Z</time>
        <extensions>
          <ns3:TrackPointExtension>
            <ns3:atemp>19.0</ns3:atemp>
          </ns3:TrackPointExtension>
        </extensions>
      </trkpt>
      <trkpt lat="42.51484994776546955108642578125" lon="19.98693301342427730560302734375">
        <ele>1585.5999755859375</ele>
        <time>2026-06-19T08:02:19.000Z</time>
        <extensions>
          <ns3:TrackPointExtension>
            <ns3:atemp>19.0</ns3:atemp>
          </ns3:TrackPointExtension>
        </extensions>
      </trkpt>
      <trkpt lat="42.5148352794349193572998046875" lon="19.98692295514047145843505859375">
        <ele>1585.800048828125</ele>
        <time>2026-06-19T08:02:20.000Z</time>
        <extensions>
          <ns3:TrackPointExtension>
            <ns3:atemp>19.0</ns3:atemp>
          </ns3:TrackPointExtension>
        </extensions>
      </trkpt>
      <trkpt lat="42.5148193538188934326171875" lon="19.98690895736217498779296875">
        <ele>1586</ele>
        <time>2026-06-19T08:02:21.000Z</time>
        <extensions>
          <ns3:TrackPointExtension>
            <ns3:atemp>19.0</ns3:atemp>
          </ns3:TrackPointExtension>
        </extensions>
      </trkpt>
      <trkpt lat="42.51480116508901119232177734375" lon="19.986901916563510894775390625">
        <ele>1586.199951171875</ele>
        <time>2026-06-19T08:02:22.000Z</time>
        <extensions>
          <ns3:TrackPointExtension>
            <ns3:atemp>19.0</ns3:atemp>
          </ns3:TrackPointExtension>
        </extensions>
      </trkpt>
      <trkpt lat="42.51478423364460468292236328125" lon="19.986892528831958770751953125">
        <ele>1586.4000244140625</ele>
        <time>2026-06-19T08:02:23.000Z</time>
        <extensions>
          <ns3:TrackPointExtension>
            <ns3:atemp>19.0</ns3:atemp>
          </ns3:TrackPointExtension>
        </extensions>
      </trkpt>
      <trkpt lat="42.5147685594856739044189453125" lon="19.986884482204914093017578125">
        <ele>1586.4000244140625</ele>
        <time>2026-06-19T08:02:24.000Z</time>
        <extensions>
          <ns3:TrackPointExtension>
            <ns3:atemp>19.0</ns3:atemp>
          </ns3:TrackPointExtension>
        </extensions>
      </trkpt>
      <trkpt lat="42.51475296914577484130859375" lon="19.98688154853880405426025390625">
        <ele>1586.5999755859375</ele>
        <time>2026-06-19T08:02:25.000Z</time>
        <extensions>
          <ns3:TrackPointExtension>
            <ns3:atemp>19.0</ns3:atemp>
          </ns3:TrackPointExtension>
        </extensions>
      </trkpt>
      <trkpt lat="42.51473729498684406280517578125" lon="19.98687811195850372314453125">
        <ele>1586.800048828125</ele>
        <time>2026-06-19T08:02:26.000Z</time>
        <extensions>
          <ns3:TrackPointExtension>
            <ns3:atemp>19.0</ns3:atemp>
          </ns3:TrackPointExtension>
        </extensions>
      </trkpt>
      <trkpt lat="42.51471784897148609161376953125" lon="19.9868665449321269989013671875">
        <ele>1586.800048828125</ele>
        <time>2026-06-19T08:02:27.000Z</time>
        <extensions>
          <ns3:TrackPointExtension>
            <ns3:atemp>19.0</ns3:atemp>
          </ns3:TrackPointExtension>
        </extensions>
      </trkpt>
      <trkpt lat="42.51469572074711322784423828125" lon="19.98686059378087520599365234375">
        <ele>1587</ele>
        <time>2026-06-19T08:02:28.000Z</time>
        <extensions>
          <ns3:TrackPointExtension>
            <ns3:atemp>19.0</ns3:atemp>
          </ns3:TrackPointExtension>
        </extensions>
      </trkpt>
      <trkpt lat="42.51467325724661350250244140625" lon="19.98685589991509914398193359375">
        <ele>1587.199951171875</ele>
        <time>2026-06-19T08:02:29.000Z</time>
        <extensions>
          <ns3:TrackPointExtension>
            <ns3:atemp>19.0</ns3:atemp>
          </ns3:TrackPointExtension>
        </extensions>
      </trkpt>
      <trkpt lat="42.51464894972741603851318359375" lon="19.98684969730675220489501953125">
        <ele>1587.199951171875</ele>
        <time>2026-06-19T08:02:30.000Z</time>
        <extensions>
          <ns3:TrackPointExtension>
            <ns3:atemp>19.0</ns3:atemp>
          </ns3:TrackPointExtension>
        </extensions>
      </trkpt>
      <trkpt lat="42.51461307518184185028076171875" lon="19.9868413992226123809814453125">
        <ele>1587.4000244140625</ele>
        <time>2026-06-19T08:02:31.000Z</time>
        <extensions>
          <ns3:TrackPointExtension>
            <ns3:atemp>19.0</ns3:atemp>
          </ns3:TrackPointExtension>
        </extensions>
      </trkpt>
      <trkpt lat="42.5145865045487880706787109375" lon="19.9868407286703586578369140625">
        <ele>1587.4000244140625</ele>
        <time>2026-06-19T08:02:32.000Z</time>
        <extensions>
          <ns3:TrackPointExtension>
            <ns3:atemp>19.0</ns3:atemp>
          </ns3:TrackPointExtension>
        </extensions>
      </trkpt>
      <trkpt lat="42.51456311903893947601318359375" lon="19.986830167472362518310546875">
        <ele>1587.5999755859375</ele>
        <time>2026-06-19T08:02:33.000Z</time>
        <extensions>
          <ns3:TrackPointExtension>
            <ns3:atemp>19.0</ns3:atemp>
          </ns3:TrackPointExtension>
        </extensions>
      </trkpt>
      <trkpt lat="42.514540068805217742919921875" lon="19.98682371340692043304443359375">
        <ele>1587.800048828125</ele>
        <time>2026-06-19T08:02:34.000Z</time>
        <extensions>
          <ns3:TrackPointExtension>
            <ns3:atemp>19.0</ns3:atemp>
          </ns3:TrackPointExtension>
        </extensions>
      </trkpt>
      <trkpt lat="42.51451349817216396331787109375" lon="19.98681667260825634002685546875">
        <ele>1587.800048828125</ele>
        <time>2026-06-19T08:02:35.000Z</time>
        <extensions>
          <ns3:TrackPointExtension>
            <ns3:atemp>19.0</ns3:atemp>
          </ns3:TrackPointExtension>
        </extensions>
      </trkpt>
      <trkpt lat="42.51448801718652248382568359375" lon="19.98680275864899158477783203125">
        <ele>1587.800048828125</ele>
        <time>2026-06-19T08:02:36.000Z</time>
        <extensions>
          <ns3:TrackPointExtension>
            <ns3:atemp>19.0</ns3:atemp>
          </ns3:TrackPointExtension>
        </extensions>
      </trkpt>
      <trkpt lat="42.514466308057308197021484375" lon="19.9867904372513294219970703125">
        <ele>1588</ele>
        <time>2026-06-19T08:02:37.000Z</time>
        <extensions>
          <ns3:TrackPointExtension>
            <ns3:atemp>19.0</ns3:atemp>
          </ns3:TrackPointExtension>
        </extensions>
      </trkpt>
      <trkpt lat="42.51444585621356964111328125" lon="19.98677995987236499786376953125">
        <ele>1588</ele>
        <time>2026-06-19T08:02:38.000Z</time>
        <extensions>
          <ns3:TrackPointExtension>
            <ns3:atemp>19.0</ns3:atemp>
          </ns3:TrackPointExtension>
        </extensions>
      </trkpt>
      <trkpt lat="42.514424063265323638916015625" lon="19.98676571063697338104248046875">
        <ele>1588.199951171875</ele>
        <time>2026-06-19T08:02:39.000Z</time>
        <extensions>
          <ns3:TrackPointExtension>
            <ns3:atemp>19.0</ns3:atemp>
          </ns3:TrackPointExtension>
        </extensions>
      </trkpt>
      <trkpt lat="42.51440403051674365997314453125" lon="19.98675146140158176422119140625">
        <ele>1588.4000244140625</ele>
        <time>2026-06-19T08:02:40.000Z</time>
        <extensions>
          <ns3:TrackPointExtension>
            <ns3:atemp>19.0</ns3:atemp>
          </ns3:TrackPointExtension>
        </extensions>
      </trkpt>
      <trkpt lat="42.51438844017684459686279296875" lon="19.98673235066235065460205078125">
        <ele>1588.5999755859375</ele>
        <time>2026-06-19T08:02:41.000Z</time>
        <extensions>
          <ns3:TrackPointExtension>
            <ns3:atemp>19.0</ns3:atemp>
          </ns3:TrackPointExtension>
        </extensions>
      </trkpt>
      <trkpt lat="42.5143699161708354949951171875" lon="19.98671173118054866790771484375">
        <ele>1588.5999755859375</ele>
        <time>2026-06-19T08:02:42.000Z</time>
        <extensions>
          <ns3:TrackPointExtension>
            <ns3:atemp>19.0</ns3:atemp>
          </ns3:TrackPointExtension>
        </extensions>
      </trkpt>
      <trkpt lat="42.51435390673577785491943359375" lon="19.98669345863163471221923828125">
        <ele>1588.5999755859375</ele>
        <time>2026-06-19T08:02:43.000Z</time>
        <extensions>
          <ns3:TrackPointExtension>
            <ns3:atemp>19.0</ns3:atemp>
          </ns3:TrackPointExtension>
        </extensions>
      </trkpt>
      <trkpt lat="42.51433831639587879180908203125" lon="19.9866734258830547332763671875">
        <ele>1588.5999755859375</ele>
        <time>2026-06-19T08:02:44.000Z</time>
        <extensions>
          <ns3:TrackPointExtension>
            <ns3:atemp>19.0</ns3:atemp>
          </ns3:TrackPointExtension>
        </extensions>
      </trkpt>
      <trkpt lat="42.51431979238986968994140625" lon="19.98665339313447475433349609375">
        <ele>1588.5999755859375</ele>
        <time>2026-06-19T08:02:45.000Z</time>
        <extensions>
          <ns3:TrackPointExtension>
            <ns3:atemp>19.0</ns3:atemp>
          </ns3:TrackPointExtension>
        </extensions>
      </trkpt>
      <trkpt lat="42.51430235803127288818359375" lon="19.9866293370723724365234375">
        <ele>1588.800048828125</ele>
        <time>2026-06-19T08:02:46.000Z</time>
        <extensions>
          <ns3:TrackPointExtension>
            <ns3:atemp>19.0</ns3:atemp>
          </ns3:TrackPointExtension>
        </extensions>
      </trkpt>
      <trkpt lat="42.51428366638720035552978515625" lon="19.9866057001054286956787109375">
        <ele>1588.800048828125</ele>
        <time>2026-06-19T08:02:47.000Z</time>
        <extensions>
          <ns3:TrackPointExtension>
            <ns3:atemp>19.0</ns3:atemp>
          </ns3:TrackPointExtension>
        </extensions>
      </trkpt>
      <trkpt lat="42.51426589675247669219970703125" lon="19.98658214695751667022705078125">
        <ele>1588.800048828125</ele>
        <time>2026-06-19T08:02:48.000Z</time>
        <extensions>
          <ns3:TrackPointExtension>
            <ns3:atemp>19.0</ns3:atemp>
          </ns3:TrackPointExtension>
        </extensions>
      </trkpt>
      <trkpt lat="42.5142498873174190521240234375" lon="19.98656001873314380645751953125">
        <ele>1589</ele>
        <time>2026-06-19T08:02:49.000Z</time>
        <extensions>
          <ns3:TrackPointExtension>
            <ns3:atemp>19.0</ns3:atemp>
          </ns3:TrackPointExtension>
        </extensions>
      </trkpt>
      <trkpt lat="42.514232285320758819580078125" lon="19.986537806689739227294921875">
        <ele>1589</ele>
        <time>2026-06-19T08:02:50.000Z</time>
        <extensions>
          <ns3:TrackPointExtension>
            <ns3:atemp>19.0</ns3:atemp>
          </ns3:TrackPointExtension>
        </extensions>
      </trkpt>
      <trkpt lat="42.51421527005732059478759765625" lon="19.98651324771344661712646484375">
        <ele>1589.199951171875</ele>
        <time>2026-06-19T08:02:51.000Z</time>
        <extensions>
          <ns3:TrackPointExtension>
            <ns3:atemp>19.0</ns3:atemp>
          </ns3:TrackPointExtension>
        </extensions>
      </trkpt>
      <trkpt lat="42.51420311629772186279296875" lon="19.986492209136486053466796875">
        <ele>1589.199951171875</ele>
        <time>2026-06-19T08:02:52.000Z</time>
        <extensions>
          <ns3:TrackPointExtension>
            <ns3:atemp>19.0</ns3:atemp>
          </ns3:TrackPointExtension>
        </extensions>
      </trkpt>
      <trkpt lat="42.5141885317862033843994140625" lon="19.98646932654082775115966796875">
        <ele>1589.4000244140625</ele>
        <time>2026-06-19T08:02:53.000Z</time>
        <extensions>
          <ns3:TrackPointExtension>
            <ns3:atemp>19.0</ns3:atemp>
          </ns3:TrackPointExtension>
        </extensions>
      </trkpt>
      <trkpt lat="42.51417436636984348297119140625" lon="19.9864491261541843414306640625">
        <ele>1589.4000244140625</ele>
        <time>2026-06-19T08:02:54.000Z</time>
        <extensions>
          <ns3:TrackPointExtension>
            <ns3:atemp>19.0</ns3:atemp>
          </ns3:TrackPointExtension>
        </extensions>
      </trkpt>
      <trkpt lat="42.514158189296722412109375" lon="19.98642473481595516204833984375">
        <ele>1589.4000244140625</ele>
        <time>2026-06-19T08:02:55.000Z</time>
        <extensions>
          <ns3:TrackPointExtension>
            <ns3:atemp>19.0</ns3:atemp>
          </ns3:TrackPointExtension>
        </extensions>
      </trkpt>
      <trkpt lat="42.51414301805198192596435546875" lon="19.98640193603932857513427734375">
        <ele>1589.199951171875</ele>
        <time>2026-06-19T08:02:56.000Z</time>
        <extensions>
          <ns3:TrackPointExtension>
            <ns3:atemp>19.0</ns3:atemp>
          </ns3:TrackPointExtension>
        </extensions>
      </trkpt>
      <trkpt lat="42.51413245685398578643798828125" lon="19.98637762852013111114501953125">
        <ele>1589.4000244140625</ele>
        <time>2026-06-19T08:02:57.000Z</time>
        <extensions>
          <ns3:TrackPointExtension>
            <ns3:atemp>19.0</ns3:atemp>
          </ns3:TrackPointExtension>
        </extensions>
      </trkpt>
      <trkpt lat="42.51411996781826019287109375" lon="19.9863562546670436859130859375">
        <ele>1589.5999755859375</ele>
        <time>2026-06-19T08:02:58.000Z</time>
        <extensions>
          <ns3:TrackPointExtension>
            <ns3:atemp>19.0</ns3:atemp>
          </ns3:TrackPointExtension>
        </extensions>
      </trkpt>
      <trkpt lat="42.51411099918186664581298828125" lon="19.98633068986237049102783203125">
        <ele>1589.800048828125</ele>
        <time>2026-06-19T08:02:59.000Z</time>
        <extensions>
          <ns3:TrackPointExtension>
            <ns3:atemp>19.0</ns3:atemp>
          </ns3:TrackPointExtension>
        </extensions>
      </trkpt>
      <trkpt lat="42.51409859396517276763916015625" lon="19.98630671761929988861083984375">
        <ele>1590</ele>
        <time>2026-06-19T08:03:00.000Z</time>
        <extensions>
          <ns3:TrackPointExtension>
            <ns3:atemp>19.0</ns3:atemp>
          </ns3:TrackPointExtension>
        </extensions>
      </trkpt>
      <trkpt lat="42.51409172080457210540771484375" lon="19.98627620749175548553466796875">
        <ele>1590.199951171875</ele>
        <time>2026-06-19T08:03:01.000Z</time>
        <extensions>
          <ns3:TrackPointExtension>
            <ns3:atemp>19.0</ns3:atemp>
          </ns3:TrackPointExtension>
        </extensions>
      </trkpt>
      <trkpt lat="42.51408216543495655059814453125" lon="19.98625391162931919097900390625">
        <ele>1590.4000244140625</ele>
        <time>2026-06-19T08:03:02.000Z</time>
        <extensions>
          <ns3:TrackPointExtension>
            <ns3:atemp>19.0</ns3:atemp>
          </ns3:TrackPointExtension>
        </extensions>
      </trkpt>
      <trkpt lat="42.51407571136951446533203125" lon="19.98622633516788482666015625">
        <ele>1590.5999755859375</ele>
        <time>2026-06-19T08:03:03.000Z</time>
        <extensions>
          <ns3:TrackPointExtension>
            <ns3:atemp>19.0</ns3:atemp>
          </ns3:TrackPointExtension>
        </extensions>
      </trkpt>
      <trkpt lat="42.5140674971044063568115234375" lon="19.98620462603867053985595703125">
        <ele>1590.800048828125</ele>
        <time>2026-06-19T08:03:04.000Z</time>
        <extensions>
          <ns3:TrackPointExtension>
            <ns3:atemp>19.0</ns3:atemp>
          </ns3:TrackPointExtension>
        </extensions>
      </trkpt>
      <trkpt lat="42.514062635600566864013671875" lon="19.9861782230436801910400390625">
        <ele>1591</ele>
        <time>2026-06-19T08:03:05.000Z</time>
        <extensions>
          <ns3:TrackPointExtension>
            <ns3:atemp>19.0</ns3:atemp>
          </ns3:TrackPointExtension>
        </extensions>
      </trkpt>
      <trkpt lat="42.51405349932610988616943359375" lon="19.98614863492548465728759765625">
        <ele>1591</ele>
        <time>2026-06-19T08:03:06.000Z</time>
        <extensions>
          <ns3:TrackPointExtension>
            <ns3:atemp>19.0</ns3:atemp>
          </ns3:TrackPointExtension>
        </extensions>
      </trkpt>
      <trkpt lat="42.5140473805367946624755859375" lon="19.9861182086169719696044921875">
        <ele>1591.199951171875</ele>
        <time>2026-06-19T08:03:07.000Z</time>
        <extensions>
          <ns3:TrackPointExtension>
            <ns3:atemp>19.0</ns3:atemp>
          </ns3:TrackPointExtension>
        </extensions>
      </trkpt>
      <trkpt lat="42.51404260285198688507080078125" lon="19.98608442954719066619873046875">
        <ele>1591.4000244140625</ele>
        <time>2026-06-19T08:03:08.000Z</time>
        <extensions>
          <ns3:TrackPointExtension>
            <ns3:atemp>19.0</ns3:atemp>
          </ns3:TrackPointExtension>
        </extensions>
      </trkpt>
      <trkpt lat="42.51403992064297199249267578125" lon="19.98605526052415370941162109375">
        <ele>1591.5999755859375</ele>
        <time>2026-06-19T08:03:09.000Z</time>
        <extensions>
          <ns3:TrackPointExtension>
            <ns3:atemp>19.0</ns3:atemp>
          </ns3:TrackPointExtension>
        </extensions>
      </trkpt>
      <trkpt lat="42.51403748989105224609375" lon="19.9860270135104656219482421875">
        <ele>1591.5999755859375</ele>
        <time>2026-06-19T08:03:10.000Z</time>
        <extensions>
          <ns3:TrackPointExtension>
            <ns3:atemp>19.0</ns3:atemp>
          </ns3:TrackPointExtension>
        </extensions>
      </trkpt>
      <trkpt lat="42.5140436924993991851806640625" lon="19.9859981797635555267333984375">
        <ele>1591.800048828125</ele>
        <time>2026-06-19T08:03:11.000Z</time>
        <extensions>
          <ns3:TrackPointExtension>
            <ns3:atemp>19.0</ns3:atemp>
          </ns3:TrackPointExtension>
        </extensions>
      </trkpt>
      <trkpt lat="42.514047883450984954833984375" lon="19.9859695136547088623046875">
        <ele>1592</ele>
        <time>2026-06-19T08:03:12.000Z</time>
        <extensions>
          <ns3:TrackPointExtension>
            <ns3:atemp>19.0</ns3:atemp>
          </ns3:TrackPointExtension>
        </extensions>
      </trkpt>
      <trkpt lat="42.514054588973522186279296875" lon="19.9859426915645599365234375">
        <ele>1592.199951171875</ele>
        <time>2026-06-19T08:03:13.000Z</time>
        <extensions>
          <ns3:TrackPointExtension>
            <ns3:atemp>19.0</ns3:atemp>
          </ns3:TrackPointExtension>
        </extensions>
      </trkpt>
      <trkpt lat="42.51406188122928142547607421875" lon="19.9859197251498699188232421875">
        <ele>1592.4000244140625</ele>
        <time>2026-06-19T08:03:14.000Z</time>
        <extensions>
          <ns3:TrackPointExtension>
            <ns3:atemp>19.0</ns3:atemp>
          </ns3:TrackPointExtension>
        </extensions>
      </trkpt>
      <trkpt lat="42.5140688382089138031005859375" lon="19.985896088182926177978515625">
        <ele>1592.800048828125</ele>
        <time>2026-06-19T08:03:15.000Z</time>
        <extensions>
          <ns3:TrackPointExtension>
            <ns3:atemp>19.0</ns3:atemp>
          </ns3:TrackPointExtension>
        </extensions>
      </trkpt>
      <trkpt lat="42.5140758790075778961181640625" lon="19.98587069101631641387939453125">
        <ele>1593.199951171875</ele>
        <time>2026-06-19T08:03:16.000Z</time>
        <extensions>
          <ns3:TrackPointExtension>
            <ns3:atemp>19.0</ns3:atemp>
          </ns3:TrackPointExtension>
        </extensions>
      </trkpt>
      <trkpt lat="42.5140782259404659271240234375" lon="19.9858466349542140960693359375">
        <ele>1593.4000244140625</ele>
        <time>2026-06-19T08:03:17.000Z</time>
        <extensions>
          <ns3:TrackPointExtension>
            <ns3:atemp>19.0</ns3:atemp>
          </ns3:TrackPointExtension>
        </extensions>
      </trkpt>
      <trkpt lat="42.51408266834914684295654296875" lon="19.985823668539524078369140625">
        <ele>1593.5999755859375</ele>
        <time>2026-06-19T08:03:18.000Z</time>
        <extensions>
          <ns3:TrackPointExtension>
            <ns3:atemp>19.0</ns3:atemp>
          </ns3:TrackPointExtension>
        </extensions>
      </trkpt>
      <trkpt lat="42.51408350653946399688720703125" lon="19.9858030490577220916748046875">
        <ele>1593.800048828125</ele>
        <time>2026-06-19T08:03:19.000Z</time>
        <extensions>
          <ns3:TrackPointExtension>
            <ns3:atemp>19.0</ns3:atemp>
          </ns3:TrackPointExtension>
        </extensions>
      </trkpt>
      <trkpt lat="42.51408048905432224273681640625" lon="19.9857799150049686431884765625">
        <ele>1593.800048828125</ele>
        <time>2026-06-19T08:03:20.000Z</time>
        <extensions>
          <ns3:TrackPointExtension>
            <ns3:atemp>19.0</ns3:atemp>
          </ns3:TrackPointExtension>
        </extensions>
      </trkpt>
      <trkpt lat="42.51408250071108341217041015625" lon="19.9857571162283420562744140625">
        <ele>1594</ele>
        <time>2026-06-19T08:03:21.000Z</time>
        <extensions>
          <ns3:TrackPointExtension>
            <ns3:atemp>19.0</ns3:atemp>
          </ns3:TrackPointExtension>
        </extensions>
      </trkpt>
      <trkpt lat="42.5140849314630031585693359375" lon="19.98573708347976207733154296875">
        <ele>1594.199951171875</ele>
        <time>2026-06-19T08:03:22.000Z</time>
        <extensions>
          <ns3:TrackPointExtension>
            <ns3:atemp>19.0</ns3:atemp>
          </ns3:TrackPointExtension>
        </extensions>
      </trkpt>
      <trkpt lat="42.51408518292009830474853515625" lon="19.9857152067124843597412109375">
        <ele>1594.4000244140625</ele>
        <time>2026-06-19T08:03:23.000Z</time>
        <extensions>
          <ns3:TrackPointExtension>
            <ns3:atemp>19.0</ns3:atemp>
          </ns3:TrackPointExtension>
        </extensions>
      </trkpt>
      <trkpt lat="42.514086775481700897216796875" lon="19.9856927432119846343994140625">
        <ele>1594.5999755859375</ele>
        <time>2026-06-19T08:03:24.000Z</time>
        <extensions>
          <ns3:TrackPointExtension>
            <ns3:atemp>19.0</ns3:atemp>
          </ns3:TrackPointExtension>
        </extensions>
      </trkpt>
      <trkpt lat="42.51408602111041545867919921875" lon="19.98566952534019947052001953125">
        <ele>1595</ele>
        <time>2026-06-19T08:03:25.000Z</time>
        <extensions>
          <ns3:TrackPointExtension>
            <ns3:atemp>19.0</ns3:atemp>
          </ns3:TrackPointExtension>
        </extensions>
      </trkpt>
      <trkpt lat="42.51408635638654232025146484375" lon="19.98564756475389003753662109375">
        <ele>1595.4000244140625</ele>
        <time>2026-06-19T08:03:26.000Z</time>
        <extensions>
          <ns3:TrackPointExtension>
            <ns3:atemp>19.0</ns3:atemp>
          </ns3:TrackPointExtension>
        </extensions>
      </trkpt>
      <trkpt lat="42.5140872783958911895751953125" lon="19.98562744818627834320068359375">
        <ele>1595.5999755859375</ele>
        <time>2026-06-19T08:03:27.000Z</time>
        <extensions>
          <ns3:TrackPointExtension>
            <ns3:atemp>19.0</ns3:atemp>
          </ns3:TrackPointExtension>
        </extensions>
      </trkpt>
      <trkpt lat="42.5140882842242717742919921875" lon="19.98560481704771518707275390625">
        <ele>1596</ele>
        <time>2026-06-19T08:03:28.000Z</time>
        <extensions>
          <ns3:TrackPointExtension>
            <ns3:atemp>19.0</ns3:atemp>
          </ns3:TrackPointExtension>
        </extensions>
      </trkpt>
      <trkpt lat="42.51408618874847888946533203125" lon="19.98558185063302516937255859375">
        <ele>1596.5999755859375</ele>
        <time>2026-06-19T08:03:29.000Z</time>
        <extensions>
          <ns3:TrackPointExtension>
            <ns3:atemp>19.0</ns3:atemp>
          </ns3:TrackPointExtension>
        </extensions>
      </trkpt>
      <trkpt lat="42.51408241689205169677734375" lon="19.98556123115122318267822265625">
        <ele>1596.800048828125</ele>
        <time>2026-06-19T08:03:30.000Z</time>
        <extensions>
          <ns3:TrackPointExtension>
            <ns3:atemp>19.0</ns3:atemp>
          </ns3:TrackPointExtension>
        </extensions>
      </trkpt>
      <trkpt lat="42.51408082433044910430908203125" lon="19.9855442158877849578857421875">
        <ele>1597.199951171875</ele>
        <time>2026-06-19T08:03:31.000Z</time>
        <extensions>
          <ns3:TrackPointExtension>
            <ns3:atemp>19.0</ns3:atemp>
          </ns3:TrackPointExtension>
        </extensions>
      </trkpt>
      <trkpt lat="42.51407629810273647308349609375" lon="19.98552761971950531005859375">
        <ele>1597.5999755859375</ele>
        <time>2026-06-19T08:03:32.000Z</time>
        <extensions>
          <ns3:TrackPointExtension>
            <ns3:atemp>19.0</ns3:atemp>
          </ns3:TrackPointExtension>
        </extensions>
      </trkpt>
      <trkpt lat="42.5140725262463092803955078125" lon="19.98550482094287872314453125">
        <ele>1597.800048828125</ele>
        <time>2026-06-19T08:03:33.000Z</time>
        <extensions>
          <ns3:TrackPointExtension>
            <ns3:atemp>19.0</ns3:atemp>
          </ns3:TrackPointExtension>
        </extensions>
      </trkpt>
      <trkpt lat="42.5140644796192646026611328125" lon="19.985484369099140167236328125">
        <ele>1598</ele>
        <time>2026-06-19T08:03:34.000Z</time>
        <extensions>
          <ns3:TrackPointExtension>
            <ns3:atemp>19.0</ns3:atemp>
          </ns3:TrackPointExtension>
        </extensions>
      </trkpt>
      <trkpt lat="42.51405266113579273223876953125" lon="19.98546735383570194244384765625">
        <ele>1598.4000244140625</ele>
        <time>2026-06-19T08:03:35.000Z</time>
        <extensions>
          <ns3:TrackPointExtension>
            <ns3:atemp>19.0</ns3:atemp>
          </ns3:TrackPointExtension>
        </extensions>
      </trkpt>
      <trkpt lat="42.51404293812811374664306640625" lon="19.9854523502290248870849609375">
        <ele>1598.800048828125</ele>
        <time>2026-06-19T08:03:36.000Z</time>
        <extensions>
          <ns3:TrackPointExtension>
            <ns3:atemp>19.0</ns3:atemp>
          </ns3:TrackPointExtension>
        </extensions>
      </trkpt>
      <trkpt lat="42.51403371803462505340576171875" lon="19.98543784953653812408447265625">
        <ele>1599</ele>
        <time>2026-06-19T08:03:37.000Z</time>
        <extensions>
          <ns3:TrackPointExtension>
            <ns3:atemp>19.0</ns3:atemp>
          </ns3:TrackPointExtension>
        </extensions>
      </trkpt>
      <trkpt lat="42.51402332447469234466552734375" lon="19.98542544431984424591064453125">
        <ele>1599.4000244140625</ele>
        <time>2026-06-19T08:03:38.000Z</time>
        <extensions>
          <ns3:TrackPointExtension>
            <ns3:atemp>19.0</ns3:atemp>
          </ns3:TrackPointExtension>
        </extensions>
      </trkpt>
      <trkpt lat="42.51401494257152080535888671875" lon="19.98540851287543773651123046875">
        <ele>1599.5999755859375</ele>
        <time>2026-06-19T08:03:39.000Z</time>
        <extensions>
          <ns3:TrackPointExtension>
            <ns3:atemp>19.0</ns3:atemp>
          </ns3:TrackPointExtension>
        </extensions>
      </trkpt>
      <trkpt lat="42.5140098296105861663818359375" lon="19.9853950180113315582275390625">
        <ele>1600</ele>
        <time>2026-06-19T08:03:40.000Z</time>
        <extensions>
          <ns3:TrackPointExtension>
            <ns3:atemp>19.0</ns3:atemp>
          </ns3:TrackPointExtension>
        </extensions>
      </trkpt>
      <trkpt lat="42.51400555483996868133544921875" lon="19.9853849597275257110595703125">
        <ele>1600.4000244140625</ele>
        <time>2026-06-19T08:03:41.000Z</time>
        <extensions>
          <ns3:TrackPointExtension>
            <ns3:atemp>19.0</ns3:atemp>
          </ns3:TrackPointExtension>
        </extensions>
      </trkpt>
      <trkpt lat="42.5140054710209369659423828125" lon="19.98538286425173282623291015625">
        <ele>1600.800048828125</ele>
        <time>2026-06-19T08:03:42.000Z</time>
        <extensions>
          <ns3:TrackPointExtension>
            <ns3:atemp>19.0</ns3:atemp>
          </ns3:TrackPointExtension>
        </extensions>
      </trkpt>
      <trkpt lat="42.5140054710209369659423828125" lon="19.98538286425173282623291015625">
        <ele>1601</ele>
        <time>2026-06-19T08:03:43.000Z</time>
        <extensions>
          <ns3:TrackPointExtension>
            <ns3:atemp>19.0</ns3:atemp>
          </ns3:TrackPointExtension>
        </extensions>
      </trkpt>
      <trkpt lat="42.5140054710209369659423828125" lon="19.98538286425173282623291015625">
        <ele>1601.4000244140625</ele>
        <time>2026-06-19T08:03:44.000Z</time>
        <extensions>
          <ns3:TrackPointExtension>
            <ns3:atemp>19.0</ns3:atemp>
          </ns3:TrackPointExtension>
        </extensions>
      </trkpt>
      <trkpt lat="42.5140054710209369659423828125" lon="19.98538286425173282623291015625">
        <ele>1601.5999755859375</ele>
        <time>2026-06-19T08:03:45.000Z</time>
        <extensions>
          <ns3:TrackPointExtension>
            <ns3:atemp>19.0</ns3:atemp>
          </ns3:TrackPointExtension>
        </extensions>
      </trkpt>
      <trkpt lat="42.5140054710209369659423828125" lon="19.98538286425173282623291015625">
        <ele>1601.800048828125</ele>
        <time>2026-06-19T08:03:46.000Z</time>
        <extensions>
          <ns3:TrackPointExtension>
            <ns3:atemp>19.0</ns3:atemp>
          </ns3:TrackPointExtension>
        </extensions>
      </trkpt>
      <trkpt lat="42.5140054710209369659423828125" lon="19.98538286425173282623291015625">
        <ele>1602</ele>
        <time>2026-06-19T08:03:47.000Z</time>
        <extensions>
          <ns3:TrackPointExtension>
            <ns3:atemp>19.0</ns3:atemp>
          </ns3:TrackPointExtension>
        </extensions>
      </trkpt>
      <trkpt lat="42.5140054710209369659423828125" lon="19.98538286425173282623291015625">
        <ele>1602</ele>
        <time>2026-06-19T08:03:48.000Z</time>
        <extensions>
          <ns3:TrackPointExtension>
            <ns3:atemp>19.0</ns3:atemp>
          </ns3:TrackPointExtension>
        </extensions>
      </trkpt>
      <trkpt lat="42.5140054710209369659423828125" lon="19.98538286425173282623291015625">
        <ele>1602.199951171875</ele>
        <time>2026-06-19T08:03:49.000Z</time>
        <extensions>
          <ns3:TrackPointExtension>
            <ns3:atemp>19.0</ns3:atemp>
          </ns3:TrackPointExtension>
        </extensions>
      </trkpt>
      <trkpt lat="42.5140054710209369659423828125" lon="19.98538286425173282623291015625">
        <ele>1602.199951171875</ele>
        <time>2026-06-19T08:03:50.000Z</time>
        <extensions>
          <ns3:TrackPointExtension>
            <ns3:atemp>19.0</ns3:atemp>
          </ns3:TrackPointExtension>
        </extensions>
      </trkpt>
      <trkpt lat="42.5140054710209369659423828125" lon="19.98538286425173282623291015625">
        <ele>1602.199951171875</ele>
        <time>2026-06-19T08:03:51.000Z</time>
        <extensions>
          <ns3:TrackPointExtension>
            <ns3:atemp>19.0</ns3:atemp>
          </ns3:TrackPointExtension>
        </extensions>
      </trkpt>
      <trkpt lat="42.5140054710209369659423828125" lon="19.98538286425173282623291015625">
        <ele>1602.199951171875</ele>
        <time>2026-06-19T08:03:52.000Z</time>
        <extensions>
          <ns3:TrackPointExtension>
            <ns3:atemp>19.0</ns3:atemp>
          </ns3:TrackPointExtension>
        </extensions>
      </trkpt>
      <trkpt lat="42.5140054710209369659423828125" lon="19.98538286425173282623291015625">
        <ele>1602</ele>
        <time>2026-06-19T08:03:53.000Z</time>
        <extensions>
          <ns3:TrackPointExtension>
            <ns3:atemp>19.0</ns3:atemp>
          </ns3:TrackPointExtension>
        </extensions>
      </trkpt>
      <trkpt lat="42.5140054710209369659423828125" lon="19.98538286425173282623291015625">
        <ele>1602</ele>
        <time>2026-06-19T08:03:54.000Z</time>
        <extensions>
          <ns3:TrackPointExtension>
            <ns3:atemp>19.0</ns3:atemp>
          </ns3:TrackPointExtension>
        </extensions>
      </trkpt>
      <trkpt lat="42.5140054710209369659423828125" lon="19.98538286425173282623291015625">
        <ele>1601.800048828125</ele>
        <time>2026-06-19T08:03:55.000Z</time>
        <extensions>
          <ns3:TrackPointExtension>
            <ns3:atemp>19.0</ns3:atemp>
          </ns3:TrackPointExtension>
        </extensions>
      </trkpt>
      <trkpt lat="42.5140054710209369659423828125" lon="19.98538286425173282623291015625">
        <ele>1601.800048828125</ele>
        <time>2026-06-19T08:03:56.000Z</time>
        <extensions>
          <ns3:TrackPointExtension>
            <ns3:atemp>19.0</ns3:atemp>
          </ns3:TrackPointExtension>
        </extensions>
      </trkpt>
      <trkpt lat="42.5140054710209369659423828125" lon="19.98538286425173282623291015625">
        <ele>1601.800048828125</ele>
        <time>2026-06-19T08:03:57.000Z</time>
        <extensions>
          <ns3:TrackPointExtension>
            <ns3:atemp>19.0</ns3:atemp>
          </ns3:TrackPointExtension>
        </extensions>
      </trkpt>
      <trkpt lat="42.5140054710209369659423828125" lon="19.98538286425173282623291015625">
        <ele>1601.5999755859375</ele>
        <time>2026-06-19T08:03:58.000Z</time>
        <extensions>
          <ns3:TrackPointExtension>
            <ns3:atemp>19.0</ns3:atemp>
          </ns3:TrackPointExtension>
        </extensions>
      </trkpt>
      <trkpt lat="42.5140054710209369659423828125" lon="19.98538286425173282623291015625">
        <ele>1601.5999755859375</ele>
        <time>2026-06-19T08:03:59.000Z</time>
        <extensions>
          <ns3:TrackPointExtension>
            <ns3:atemp>19.0</ns3:atemp>
          </ns3:TrackPointExtension>
        </extensions>
      </trkpt>
      <trkpt lat="42.5140054710209369659423828125" lon="19.98538286425173282623291015625">
        <ele>1601.4000244140625</ele>
        <time>2026-06-19T08:04:00.000Z</time>
        <extensions>
          <ns3:TrackPointExtension>
            <ns3:atemp>19.0</ns3:atemp>
          </ns3:TrackPointExtension>
        </extensions>
      </trkpt>
      <trkpt lat="42.5140054710209369659423828125" lon="19.98538286425173282623291015625">
        <ele>1601.199951171875</ele>
        <time>2026-06-19T08:04:01.000Z</time>
        <extensions>
          <ns3:TrackPointExtension>
            <ns3:atemp>19.0</ns3:atemp>
          </ns3:TrackPointExtension>
        </extensions>
      </trkpt>
      <trkpt lat="42.5140054710209369659423828125" lon="19.98538286425173282623291015625">
        <ele>1601</ele>
        <time>2026-06-19T08:04:02.000Z</time>
        <extensions>
          <ns3:TrackPointExtension>
            <ns3:atemp>19.0</ns3:atemp>
          </ns3:TrackPointExtension>
        </extensions>
      </trkpt>
      <trkpt lat="42.5140054710209369659423828125" lon="19.98538286425173282623291015625">
        <ele>1601</ele>
        <time>2026-06-19T08:04:03.000Z</time>
        <extensions>
          <ns3:TrackPointExtension>
            <ns3:atemp>19.0</ns3:atemp>
          </ns3:TrackPointExtension>
        </extensions>
      </trkpt>
      <trkpt lat="42.5140054710209369659423828125" lon="19.98538286425173282623291015625">
        <ele>1601</ele>
        <time>2026-06-19T08:04:04.000Z</time>
        <extensions>
          <ns3:TrackPointExtension>
            <ns3:atemp>19.0</ns3:atemp>
          </ns3:TrackPointExtension>
        </extensions>
      </trkpt>
      <trkpt lat="42.5140054710209369659423828125" lon="19.98538286425173282623291015625">
        <ele>1601</ele>
        <time>2026-06-19T08:04:05.000Z</time>
        <extensions>
          <ns3:TrackPointExtension>
            <ns3:atemp>19.0</ns3:atemp>
          </ns3:TrackPointExtension>
        </extensions>
      </trkpt>
      <trkpt lat="42.5140054710209369659423828125" lon="19.98538286425173282623291015625">
        <ele>1601</ele>
        <time>2026-06-19T08:04:06.000Z</time>
        <extensions>
          <ns3:TrackPointExtension>
            <ns3:atemp>19.0</ns3:atemp>
          </ns3:TrackPointExtension>
        </extensions>
      </trkpt>
      <trkpt lat="42.5140054710209369659423828125" lon="19.98538286425173282623291015625">
        <ele>1601</ele>
        <time>2026-06-19T08:04:07.000Z</time>
        <extensions>
          <ns3:TrackPointExtension>
            <ns3:atemp>19.0</ns3:atemp>
          </ns3:TrackPointExtension>
        </extensions>
      </trkpt>
      <trkpt lat="42.5140054710209369659423828125" lon="19.98538286425173282623291015625">
        <ele>1601.199951171875</ele>
        <time>2026-06-19T08:04:08.000Z</time>
        <extensions>
          <ns3:TrackPointExtension>
            <ns3:atemp>19.0</ns3:atemp>
          </ns3:TrackPointExtension>
        </extensions>
      </trkpt>
      <trkpt lat="42.5140054710209369659423828125" lon="19.98538286425173282623291015625">
        <ele>1601</ele>
        <time>2026-06-19T08:04:09.000Z</time>
        <extensions>
          <ns3:TrackPointExtension>
            <ns3:atemp>19.0</ns3:atemp>
          </ns3:TrackPointExtension>
        </extensions>
      </trkpt>
      <trkpt lat="42.5140054710209369659423828125" lon="19.98538286425173282623291015625">
        <ele>1601</ele>
        <time>2026-06-19T08:04:10.000Z</time>
        <extensions>
          <ns3:TrackPointExtension>
            <ns3:atemp>19.0</ns3:atemp>
          </ns3:TrackPointExtension>
        </extensions>
      </trkpt>
      <trkpt lat="42.5140054710209369659423828125" lon="19.98538286425173282623291015625">
        <ele>1600.800048828125</ele>
        <time>2026-06-19T08:04:11.000Z</time>
        <extensions>
          <ns3:TrackPointExtension>
            <ns3:atemp>19.0</ns3:atemp>
          </ns3:TrackPointExtension>
        </extensions>
      </trkpt>
      <trkpt lat="42.5140054710209369659423828125" lon="19.98538286425173282623291015625">
        <ele>1600.5999755859375</ele>
        <time>2026-06-19T08:04:12.000Z</time>
        <extensions>
          <ns3:TrackPointExtension>
            <ns3:atemp>19.0</ns3:atemp>
          </ns3:TrackPointExtension>
        </extensions>
      </trkpt>
      <trkpt lat="42.5140054710209369659423828125" lon="19.98538286425173282623291015625">
        <ele>1600.5999755859375</ele>
        <time>2026-06-19T08:04:13.000Z</time>
        <extensions>
          <ns3:TrackPointExtension>
            <ns3:atemp>19.0</ns3:atemp>
          </ns3:TrackPointExtension>
        </extensions>
      </trkpt>
      <trkpt lat="42.5140054710209369659423828125" lon="19.98538286425173282623291015625">
        <ele>1600.5999755859375</ele>
        <time>2026-06-19T08:04:14.000Z</time>
        <extensions>
          <ns3:TrackPointExtension>
            <ns3:atemp>19.0</ns3:atemp>
          </ns3:TrackPointExtension>
        </extensions>
      </trkpt>
      <trkpt lat="42.5140054710209369659423828125" lon="19.98538286425173282623291015625">
        <ele>1600.4000244140625</ele>
        <time>2026-06-19T08:04:15.000Z</time>
        <extensions>
          <ns3:TrackPointExtension>
            <ns3:atemp>19.0</ns3:atemp>
          </ns3:TrackPointExtension>
        </extensions>
      </trkpt>
      <trkpt lat="42.5140054710209369659423828125" lon="19.98538286425173282623291015625">
        <ele>1600.4000244140625</ele>
        <time>2026-06-19T08:04:16.000Z</time>
        <extensions>
          <ns3:TrackPointExtension>
            <ns3:atemp>19.0</ns3:atemp>
          </ns3:TrackPointExtension>
        </extensions>
      </trkpt>
      <trkpt lat="42.5140054710209369659423828125" lon="19.98538286425173282623291015625">
        <ele>1600.4000244140625</ele>
        <time>2026-06-19T08:04:17.000Z</time>
        <extensions>
          <ns3:TrackPointExtension>
            <ns3:atemp>19.0</ns3:atemp>
          </ns3:TrackPointExtension>
        </extensions>
      </trkpt>
      <trkpt lat="42.5140054710209369659423828125" lon="19.98538286425173282623291015625">
        <ele>1600.5999755859375</ele>
        <time>2026-06-19T08:04:18.000Z</time>
        <extensions>
          <ns3:TrackPointExtension>
            <ns3:atemp>19.0</ns3:atemp>
          </ns3:TrackPointExtension>
        </extensions>
      </trkpt>
      <trkpt lat="42.5140054710209369659423828125" lon="19.98538286425173282623291015625">
        <ele>1600.5999755859375</ele>
        <time>2026-06-19T08:04:19.000Z</time>
        <extensions>
          <ns3:TrackPointExtension>
            <ns3:atemp>19.0</ns3:atemp>
          </ns3:TrackPointExtension>
        </extensions>
      </trkpt>
      <trkpt lat="42.5140054710209369659423828125" lon="19.98538286425173282623291015625">
        <ele>1600.5999755859375</ele>
        <time>2026-06-19T08:04:20.000Z</time>
        <extensions>
          <ns3:TrackPointExtension>
            <ns3:atemp>19.0</ns3:atemp>
          </ns3:TrackPointExtension>
        </extensions>
      </trkpt>
      <trkpt lat="42.5140054710209369659423828125" lon="19.98538286425173282623291015625">
        <ele>1600.5999755859375</ele>
        <time>2026-06-19T08:04:21.000Z</time>
        <extensions>
          <ns3:TrackPointExtension>
            <ns3:atemp>19.0</ns3:atemp>
          </ns3:TrackPointExtension>
        </extensions>
      </trkpt>
      <trkpt lat="42.5140054710209369659423828125" lon="19.98538286425173282623291015625">
        <ele>1600.5999755859375</ele>
        <time>2026-06-19T08:04:22.000Z</time>
        <extensions>
          <ns3:TrackPointExtension>
            <ns3:atemp>19.0</ns3:atemp>
          </ns3:TrackPointExtension>
        </extensions>
      </trkpt>
      <trkpt lat="42.5140054710209369659423828125" lon="19.98538286425173282623291015625">
        <ele>1600.5999755859375</ele>
        <time>2026-06-19T08:04:23.000Z</time>
        <extensions>
          <ns3:TrackPointExtension>
            <ns3:atemp>19.0</ns3:atemp>
          </ns3:TrackPointExtension>
        </extensions>
      </trkpt>
      <trkpt lat="42.5140054710209369659423828125" lon="19.98538286425173282623291015625">
        <ele>1600.800048828125</ele>
        <time>2026-06-19T08:04:24.000Z</time>
        <extensions>
          <ns3:TrackPointExtension>
            <ns3:atemp>19.0</ns3:atemp>
          </ns3:TrackPointExtension>
        </extensions>
      </trkpt>
      <trkpt lat="42.5140054710209369659423828125" lon="19.98538286425173282623291015625">
        <ele>1600.800048828125</ele>
        <time>2026-06-19T08:04:25.000Z</time>
        <extensions>
          <ns3:TrackPointExtension>
            <ns3:atemp>19.0</ns3:atemp>
          </ns3:TrackPointExtension>
        </extensions>
      </trkpt>
      <trkpt lat="42.5140054710209369659423828125" lon="19.98538286425173282623291015625">
        <ele>1600.800048828125</ele>
        <time>2026-06-19T08:04:26.000Z</time>
        <extensions>
          <ns3:TrackPointExtension>
            <ns3:atemp>19.0</ns3:atemp>
          </ns3:TrackPointExtension>
        </extensions>
      </trkpt>
      <trkpt lat="42.5140054710209369659423828125" lon="19.98538286425173282623291015625">
        <ele>1601</ele>
        <time>2026-06-19T08:04:27.000Z</time>
        <extensions>
          <ns3:TrackPointExtension>
            <ns3:atemp>19.0</ns3:atemp>
          </ns3:TrackPointExtension>
        </extensions>
      </trkpt>
      <trkpt lat="42.5140054710209369659423828125" lon="19.98538286425173282623291015625">
        <ele>1601</ele>
        <time>2026-06-19T08:04:28.000Z</time>
        <extensions>
          <ns3:TrackPointExtension>
            <ns3:atemp>19.0</ns3:atemp>
          </ns3:TrackPointExtension>
        </extensions>
      </trkpt>
      <trkpt lat="42.5140054710209369659423828125" lon="19.98538286425173282623291015625">
        <ele>1601</ele>
        <time>2026-06-19T08:04:29.000Z</time>
        <extensions>
          <ns3:TrackPointExtension>
            <ns3:atemp>19.0</ns3:atemp>
          </ns3:TrackPointExtension>
        </extensions>
      </trkpt>
      <trkpt lat="42.5140054710209369659423828125" lon="19.98538286425173282623291015625">
        <ele>1601</ele>
        <time>2026-06-19T08:04:30.000Z</time>
        <extensions>
          <ns3:TrackPointExtension>
            <ns3:atemp>19.0</ns3:atemp>
          </ns3:TrackPointExtension>
        </extensions>
      </trkpt>
      <trkpt lat="42.5140054710209369659423828125" lon="19.98538286425173282623291015625">
        <ele>1601</ele>
        <time>2026-06-19T08:04:31.000Z</time>
        <extensions>
          <ns3:TrackPointExtension>
            <ns3:atemp>19.0</ns3:atemp>
          </ns3:TrackPointExtension>
        </extensions>
      </trkpt>
      <trkpt lat="42.5140054710209369659423828125" lon="19.98538286425173282623291015625">
        <ele>1600.800048828125</ele>
        <time>2026-06-19T08:04:32.000Z</time>
        <extensions>
          <ns3:TrackPointExtension>
            <ns3:atemp>19.0</ns3:atemp>
          </ns3:TrackPointExtension>
        </extensions>
      </trkpt>
      <trkpt lat="42.5140054710209369659423828125" lon="19.98538286425173282623291015625">
        <ele>1600.800048828125</ele>
        <time>2026-06-19T08:04:33.000Z</time>
        <extensions>
          <ns3:TrackPointExtension>
            <ns3:atemp>19.0</ns3:atemp>
          </ns3:TrackPointExtension>
        </extensions>
      </trkpt>
      <trkpt lat="42.5140054710209369659423828125" lon="19.98538286425173282623291015625">
        <ele>1600.800048828125</ele>
        <time>2026-06-19T08:04:34.000Z</time>
        <extensions>
          <ns3:TrackPointExtension>
            <ns3:atemp>19.0</ns3:atemp>
          </ns3:TrackPointExtension>
        </extensions>
      </trkpt>
      <trkpt lat="42.5140054710209369659423828125" lon="19.98538286425173282623291015625">
        <ele>1600.5999755859375</ele>
        <time>2026-06-19T08:04:35.000Z</time>
        <extensions>
          <ns3:TrackPointExtension>
            <ns3:atemp>19.0</ns3:atemp>
          </ns3:TrackPointExtension>
        </extensions>
      </trkpt>
      <trkpt lat="42.5140054710209369659423828125" lon="19.98538286425173282623291015625">
        <ele>1600.5999755859375</ele>
        <time>2026-06-19T08:04:36.000Z</time>
        <extensions>
          <ns3:TrackPointExtension>
            <ns3:atemp>19.0</ns3:atemp>
          </ns3:TrackPointExtension>
        </extensions>
      </trkpt>
      <trkpt lat="42.5140054710209369659423828125" lon="19.98538286425173282623291015625">
        <ele>1600.5999755859375</ele>
        <time>2026-06-19T08:04:37.000Z</time>
        <extensions>
          <ns3:TrackPointExtension>
            <ns3:atemp>19.0</ns3:atemp>
          </ns3:TrackPointExtension>
        </extensions>
      </trkpt>
      <trkpt lat="42.5140054710209369659423828125" lon="19.98538286425173282623291015625">
        <ele>1600.5999755859375</ele>
        <time>2026-06-19T08:04:38.000Z</time>
        <extensions>
          <ns3:TrackPointExtension>
            <ns3:atemp>19.0</ns3:atemp>
          </ns3:TrackPointExtension>
        </extensions>
      </trkpt>
      <trkpt lat="42.5140054710209369659423828125" lon="19.98538286425173282623291015625">
        <ele>1600.5999755859375</ele>
        <time>2026-06-19T08:04:39.000Z</time>
        <extensions>
          <ns3:TrackPointExtension>
            <ns3:atemp>19.0</ns3:atemp>
          </ns3:TrackPointExtension>
        </extensions>
      </trkpt>
      <trkpt lat="42.5140054710209369659423828125" lon="19.98538286425173282623291015625">
        <ele>1600.5999755859375</ele>
        <time>2026-06-19T08:04:40.000Z</time>
        <extensions>
          <ns3:TrackPointExtension>
            <ns3:atemp>19.0</ns3:atemp>
          </ns3:TrackPointExtension>
        </extensions>
      </trkpt>
      <trkpt lat="42.5140054710209369659423828125" lon="19.98538286425173282623291015625">
        <ele>1600.800048828125</ele>
        <time>2026-06-19T08:04:41.000Z</time>
        <extensions>
          <ns3:TrackPointExtension>
            <ns3:atemp>19.0</ns3:atemp>
          </ns3:TrackPointExtension>
        </extensions>
      </trkpt>
      <trkpt lat="42.5140054710209369659423828125" lon="19.98538286425173282623291015625">
        <ele>1600.800048828125</ele>
        <time>2026-06-19T08:04:42.000Z</time>
        <extensions>
          <ns3:TrackPointExtension>
            <ns3:atemp>19.0</ns3:atemp>
          </ns3:TrackPointExtension>
        </extensions>
      </trkpt>
      <trkpt lat="42.5140054710209369659423828125" lon="19.98538286425173282623291015625">
        <ele>1601</ele>
        <time>2026-06-19T08:04:43.000Z</time>
        <extensions>
          <ns3:TrackPointExtension>
            <ns3:atemp>19.0</ns3:atemp>
          </ns3:TrackPointExtension>
        </extensions>
      </trkpt>
      <trkpt lat="42.5140054710209369659423828125" lon="19.98538286425173282623291015625">
        <ele>1601</ele>
        <time>2026-06-19T08:04:44.000Z</time>
        <extensions>
          <ns3:TrackPointExtension>
            <ns3:atemp>19.0</ns3:atemp>
          </ns3:TrackPointExtension>
        </extensions>
      </trkpt>
      <trkpt lat="42.5140054710209369659423828125" lon="19.98538286425173282623291015625">
        <ele>1601</ele>
        <time>2026-06-19T08:04:45.000Z</time>
        <extensions>
          <ns3:TrackPointExtension>
            <ns3:atemp>19.0</ns3:atemp>
          </ns3:TrackPointExtension>
        </extensions>
      </trkpt>
      <trkpt lat="42.5140054710209369659423828125" lon="19.98538286425173282623291015625">
        <ele>1601</ele>
        <time>2026-06-19T08:04:46.000Z</time>
        <extensions>
          <ns3:TrackPointExtension>
            <ns3:atemp>19.0</ns3:atemp>
          </ns3:TrackPointExtension>
        </extensions>
      </trkpt>
      <trkpt lat="42.5140054710209369659423828125" lon="19.98538286425173282623291015625">
        <ele>1601</ele>
        <time>2026-06-19T08:04:47.000Z</time>
        <extensions>
          <ns3:TrackPointExtension>
            <ns3:atemp>19.0</ns3:atemp>
          </ns3:TrackPointExtension>
        </extensions>
      </trkpt>
      <trkpt lat="42.5140054710209369659423828125" lon="19.98538286425173282623291015625">
        <ele>1601</ele>
        <time>2026-06-19T08:04:48.000Z</time>
        <extensions>
          <ns3:TrackPointExtension>
            <ns3:atemp>19.0</ns3:atemp>
          </ns3:TrackPointExtension>
        </extensions>
      </trkpt>
      <trkpt lat="42.5140054710209369659423828125" lon="19.98538286425173282623291015625">
        <ele>1601.199951171875</ele>
        <time>2026-06-19T08:04:49.000Z</time>
        <extensions>
          <ns3:TrackPointExtension>
            <ns3:atemp>19.0</ns3:atemp>
          </ns3:TrackPointExtension>
        </extensions>
      </trkpt>
      <trkpt lat="42.5140054710209369659423828125" lon="19.98538286425173282623291015625">
        <ele>1601.199951171875</ele>
        <time>2026-06-19T08:04:50.000Z</time>
        <extensions>
          <ns3:TrackPointExtension>
            <ns3:atemp>19.0</ns3:atemp>
          </ns3:TrackPointExtension>
        </extensions>
      </trkpt>
      <trkpt lat="42.5140054710209369659423828125" lon="19.98538286425173282623291015625">
        <ele>1601.199951171875</ele>
        <time>2026-06-19T08:04:51.000Z</time>
        <extensions>
          <ns3:TrackPointExtension>
            <ns3:atemp>19.0</ns3:atemp>
          </ns3:TrackPointExtension>
        </extensions>
      </trkpt>
      <trkpt lat="42.5140054710209369659423828125" lon="19.98538286425173282623291015625">
        <ele>1601.4000244140625</ele>
        <time>2026-06-19T08:04:52.000Z</time>
        <extensions>
          <ns3:TrackPointExtension>
            <ns3:atemp>19.0</ns3:atemp>
          </ns3:TrackPointExtension>
        </extensions>
      </trkpt>
      <trkpt lat="42.5140054710209369659423828125" lon="19.98538286425173282623291015625">
        <ele>1601.4000244140625</ele>
        <time>2026-06-19T08:04:53.000Z</time>
        <extensions>
          <ns3:TrackPointExtension>
            <ns3:atemp>19.0</ns3:atemp>
          </ns3:TrackPointExtension>
        </extensions>
      </trkpt>
      <trkpt lat="42.5140054710209369659423828125" lon="19.98538286425173282623291015625">
        <ele>1601.5999755859375</ele>
        <time>2026-06-19T08:04:54.000Z</time>
        <extensions>
          <ns3:TrackPointExtension>
            <ns3:atemp>19.0</ns3:atemp>
          </ns3:TrackPointExtension>
        </extensions>
      </trkpt>
      <trkpt lat="42.5140054710209369659423828125" lon="19.98538286425173282623291015625">
        <ele>1601.5999755859375</ele>
        <time>2026-06-19T08:04:55.000Z</time>
        <extensions>
          <ns3:TrackPointExtension>
            <ns3:atemp>19.0</ns3:atemp>
          </ns3:TrackPointExtension>
        </extensions>
      </trkpt>
      <trkpt lat="42.5140054710209369659423828125" lon="19.98538286425173282623291015625">
        <ele>1601.5999755859375</ele>
        <time>2026-06-19T08:04:56.000Z</time>
        <extensions>
          <ns3:TrackPointExtension>
            <ns3:atemp>19.0</ns3:atemp>
          </ns3:TrackPointExtension>
        </extensions>
      </trkpt>
      <trkpt lat="42.5140054710209369659423828125" lon="19.98538286425173282623291015625">
        <ele>1601.5999755859375</ele>
        <time>2026-06-19T08:04:57.000Z</time>
        <extensions>
          <ns3:TrackPointExtension>
            <ns3:atemp>19.0</ns3:atemp>
          </ns3:TrackPointExtension>
        </extensions>
      </trkpt>
      <trkpt lat="42.5140054710209369659423828125" lon="19.98538286425173282623291015625">
        <ele>1601.5999755859375</ele>
        <time>2026-06-19T08:04:58.000Z</time>
        <extensions>
          <ns3:TrackPointExtension>
            <ns3:atemp>19.0</ns3:atemp>
          </ns3:TrackPointExtension>
        </extensions>
      </trkpt>
      <trkpt lat="42.5140054710209369659423828125" lon="19.98538286425173282623291015625">
        <ele>1601.4000244140625</ele>
        <time>2026-06-19T08:04:59.000Z</time>
        <extensions>
          <ns3:TrackPointExtension>
            <ns3:atemp>19.0</ns3:atemp>
          </ns3:TrackPointExtension>
        </extensions>
      </trkpt>
      <trkpt lat="42.5140054710209369659423828125" lon="19.98538286425173282623291015625">
        <ele>1601.4000244140625</ele>
        <time>2026-06-19T08:05:00.000Z</time>
        <extensions>
          <ns3:TrackPointExtension>
            <ns3:atemp>19.0</ns3:atemp>
          </ns3:TrackPointExtension>
        </extensions>
      </trkpt>
      <trkpt lat="42.5140054710209369659423828125" lon="19.98538286425173282623291015625">
        <ele>1601.4000244140625</ele>
        <time>2026-06-19T08:05:01.000Z</time>
        <extensions>
          <ns3:TrackPointExtension>
            <ns3:atemp>19.0</ns3:atemp>
          </ns3:TrackPointExtension>
        </extensions>
      </trkpt>
      <trkpt lat="42.5140054710209369659423828125" lon="19.98538286425173282623291015625">
        <ele>1601.4000244140625</ele>
        <time>2026-06-19T08:05:02.000Z</time>
        <extensions>
          <ns3:TrackPointExtension>
            <ns3:atemp>19.0</ns3:atemp>
          </ns3:TrackPointExtension>
        </extensions>
      </trkpt>
      <trkpt lat="42.5140054710209369659423828125" lon="19.98538286425173282623291015625">
        <ele>1601.4000244140625</ele>
        <time>2026-06-19T08:05:03.000Z</time>
        <extensions>
          <ns3:TrackPointExtension>
            <ns3:atemp>19.0</ns3:atemp>
          </ns3:TrackPointExtension>
        </extensions>
      </trkpt>
      <trkpt lat="42.5140068121254444122314453125" lon="19.98537817038595676422119140625">
        <ele>1601.4000244140625</ele>
        <time>2026-06-19T08:05:04.000Z</time>
        <extensions>
          <ns3:TrackPointExtension>
            <ns3:atemp>19.0</ns3:atemp>
          </ns3:TrackPointExtension>
        </extensions>
      </trkpt>
      <trkpt lat="42.51401309855282306671142578125" lon="19.98536693863570690155029296875">
        <ele>1601.4000244140625</ele>
        <time>2026-06-19T08:05:05.000Z</time>
        <extensions>
          <ns3:TrackPointExtension>
            <ns3:atemp>19.0</ns3:atemp>
          </ns3:TrackPointExtension>
        </extensions>
      </trkpt>
      <trkpt lat="42.5140054710209369659423828125" lon="19.98538286425173282623291015625">
        <ele>1601.5999755859375</ele>
        <time>2026-06-19T08:05:06.000Z</time>
        <extensions>
          <ns3:TrackPointExtension>
            <ns3:atemp>19.0</ns3:atemp>
          </ns3:TrackPointExtension>
        </extensions>
      </trkpt>
      <trkpt lat="42.5140054710209369659423828125" lon="19.98538286425173282623291015625">
        <ele>1601.5999755859375</ele>
        <time>2026-06-19T08:05:07.000Z</time>
        <extensions>
          <ns3:TrackPointExtension>
            <ns3:atemp>19.0</ns3:atemp>
          </ns3:TrackPointExtension>
        </extensions>
      </trkpt>
      <trkpt lat="42.5140054710209369659423828125" lon="19.98538286425173282623291015625">
        <ele>1601.5999755859375</ele>
        <time>2026-06-19T08:05:08.000Z</time>
        <extensions>
          <ns3:TrackPointExtension>
            <ns3:atemp>19.0</ns3:atemp>
          </ns3:TrackPointExtension>
        </extensions>
      </trkpt>
      <trkpt lat="42.5140054710209369659423828125" lon="19.98538286425173282623291015625">
        <ele>1601.5999755859375</ele>
        <time>2026-06-19T08:05:09.000Z</time>
        <extensions>
          <ns3:TrackPointExtension>
            <ns3:atemp>19.0</ns3:atemp>
          </ns3:TrackPointExtension>
        </extensions>
      </trkpt>
      <trkpt lat="42.5140054710209369659423828125" lon="19.98538286425173282623291015625">
        <ele>1601.5999755859375</ele>
        <time>2026-06-19T08:05:10.000Z</time>
        <extensions>
          <ns3:TrackPointExtension>
            <ns3:atemp>19.0</ns3:atemp>
          </ns3:TrackPointExtension>
        </extensions>
      </trkpt>
      <trkpt lat="42.5140054710209369659423828125" lon="19.98538286425173282623291015625">
        <ele>1601.5999755859375</ele>
        <time>2026-06-19T08:05:11.000Z</time>
        <extensions>
          <ns3:TrackPointExtension>
            <ns3:atemp>19.0</ns3:atemp>
          </ns3:TrackPointExtension>
        </extensions>
      </trkpt>
      <trkpt lat="42.5140054710209369659423828125" lon="19.98538286425173282623291015625">
        <ele>1601.5999755859375</ele>
        <time>2026-06-19T08:05:12.000Z</time>
        <extensions>
          <ns3:TrackPointExtension>
            <ns3:atemp>19.0</ns3:atemp>
          </ns3:TrackPointExtension>
        </extensions>
      </trkpt>
      <trkpt lat="42.5140054710209369659423828125" lon="19.98538286425173282623291015625">
        <ele>1601.5999755859375</ele>
        <time>2026-06-19T08:05:13.000Z</time>
        <extensions>
          <ns3:TrackPointExtension>
            <ns3:atemp>19.0</ns3:atemp>
          </ns3:TrackPointExtension>
        </extensions>
      </trkpt>
      <trkpt lat="42.51401125453412532806396484375" lon="19.98537003993988037109375">
        <ele>1601.5999755859375</ele>
        <time>2026-06-19T08:05:14.000Z</time>
        <extensions>
          <ns3:TrackPointExtension>
            <ns3:atemp>19.0</ns3:atemp>
          </ns3:TrackPointExtension>
        </extensions>
      </trkpt>
      <trkpt lat="42.51400723122060298919677734375" lon="19.98537682928144931793212890625">
        <ele>1601.800048828125</ele>
        <time>2026-06-19T08:05:15.000Z</time>
        <extensions>
          <ns3:TrackPointExtension>
            <ns3:atemp>19.0</ns3:atemp>
          </ns3:TrackPointExtension>
        </extensions>
      </trkpt>
      <trkpt lat="42.5140066444873809814453125" lon="19.9853658489882946014404296875">
        <ele>1601.800048828125</ele>
        <time>2026-06-19T08:05:16.000Z</time>
        <extensions>
          <ns3:TrackPointExtension>
            <ns3:atemp>19.0</ns3:atemp>
          </ns3:TrackPointExtension>
        </extensions>
      </trkpt>
      <trkpt lat="42.5140037946403026580810546875" lon="19.985357634723186492919921875">
        <ele>1602</ele>
        <time>2026-06-19T08:05:17.000Z</time>
        <extensions>
          <ns3:TrackPointExtension>
            <ns3:atemp>19.0</ns3:atemp>
          </ns3:TrackPointExtension>
        </extensions>
      </trkpt>
      <trkpt lat="42.514002621173858642578125" lon="19.985345900058746337890625">
        <ele>1602.199951171875</ele>
        <time>2026-06-19T08:05:18.000Z</time>
        <extensions>
          <ns3:TrackPointExtension>
            <ns3:atemp>19.0</ns3:atemp>
          </ns3:TrackPointExtension>
        </extensions>
      </trkpt>
      <trkpt lat="42.5140034593641757965087890625" lon="19.98533659614622592926025390625">
        <ele>1602.199951171875</ele>
        <time>2026-06-19T08:05:19.000Z</time>
        <extensions>
          <ns3:TrackPointExtension>
            <ns3:atemp>19.0</ns3:atemp>
          </ns3:TrackPointExtension>
        </extensions>
      </trkpt>
      <trkpt lat="42.51400404609739780426025390625" lon="19.98532184399664402008056640625">
        <ele>1602</ele>
        <time>2026-06-19T08:05:20.000Z</time>
        <extensions>
          <ns3:TrackPointExtension>
            <ns3:atemp>19.0</ns3:atemp>
          </ns3:TrackPointExtension>
        </extensions>
      </trkpt>
      <trkpt lat="42.51400488428771495819091796875" lon="19.985307343304157257080078125">
        <ele>1602</ele>
        <time>2026-06-19T08:05:21.000Z</time>
        <extensions>
          <ns3:TrackPointExtension>
            <ns3:atemp>19.0</ns3:atemp>
          </ns3:TrackPointExtension>
        </extensions>
      </trkpt>
      <trkpt lat="42.514008991420269012451171875" lon="19.985287226736545562744140625">
        <ele>1601.800048828125</ele>
        <time>2026-06-19T08:05:22.000Z</time>
        <extensions>
          <ns3:TrackPointExtension>
            <ns3:atemp>19.0</ns3:atemp>
          </ns3:TrackPointExtension>
        </extensions>
      </trkpt>
      <trkpt lat="42.51401175744831562042236328125" lon="19.98526342213153839111328125">
        <ele>1601.800048828125</ele>
        <time>2026-06-19T08:05:23.000Z</time>
        <extensions>
          <ns3:TrackPointExtension>
            <ns3:atemp>19.0</ns3:atemp>
          </ns3:TrackPointExtension>
        </extensions>
      </trkpt>
      <trkpt lat="42.5140198878943920135498046875" lon="19.9852397851645946502685546875">
        <ele>1601.5999755859375</ele>
        <time>2026-06-19T08:05:24.000Z</time>
        <extensions>
          <ns3:TrackPointExtension>
            <ns3:atemp>19.0</ns3:atemp>
          </ns3:TrackPointExtension>
        </extensions>
      </trkpt>
      <trkpt lat="42.51402634195983409881591796875" lon="19.985221512615680694580078125">
        <ele>1601.4000244140625</ele>
        <time>2026-06-19T08:05:25.000Z</time>
        <extensions>
          <ns3:TrackPointExtension>
            <ns3:atemp>19.0</ns3:atemp>
          </ns3:TrackPointExtension>
        </extensions>
      </trkpt>
      <trkpt lat="42.51403187401592731475830078125" lon="19.98520332388579845428466796875">
        <ele>1601.199951171875</ele>
        <time>2026-06-19T08:05:26.000Z</time>
        <extensions>
          <ns3:TrackPointExtension>
            <ns3:atemp>19.0</ns3:atemp>
          </ns3:TrackPointExtension>
        </extensions>
      </trkpt>
      <trkpt lat="42.51403740607202053070068359375" lon="19.9851864762604236602783203125">
        <ele>1601.199951171875</ele>
        <time>2026-06-19T08:05:27.000Z</time>
        <extensions>
          <ns3:TrackPointExtension>
            <ns3:atemp>19.0</ns3:atemp>
          </ns3:TrackPointExtension>
        </extensions>
      </trkpt>
      <trkpt lat="42.51404377631843090057373046875" lon="19.985167868435382843017578125">
        <ele>1601.199951171875</ele>
        <time>2026-06-19T08:05:28.000Z</time>
        <extensions>
          <ns3:TrackPointExtension>
            <ns3:atemp>19.0</ns3:atemp>
          </ns3:TrackPointExtension>
        </extensions>
      </trkpt>
      <trkpt lat="42.514053918421268463134765625" lon="19.985151775181293487548828125">
        <ele>1601.4000244140625</ele>
        <time>2026-06-19T08:05:29.000Z</time>
        <extensions>
          <ns3:TrackPointExtension>
            <ns3:atemp>19.0</ns3:atemp>
          </ns3:TrackPointExtension>
        </extensions>
      </trkpt>
      <trkpt lat="42.51406305469572544097900390625" lon="19.9851331673562526702880859375">
        <ele>1601.800048828125</ele>
        <time>2026-06-19T08:05:30.000Z</time>
        <extensions>
          <ns3:TrackPointExtension>
            <ns3:atemp>19.0</ns3:atemp>
          </ns3:TrackPointExtension>
        </extensions>
      </trkpt>
      <trkpt lat="42.514076046645641326904296875" lon="19.9851150624454021453857421875">
        <ele>1602</ele>
        <time>2026-06-19T08:05:31.000Z</time>
        <extensions>
          <ns3:TrackPointExtension>
            <ns3:atemp>19.0</ns3:atemp>
          </ns3:TrackPointExtension>
        </extensions>
      </trkpt>
      <trkpt lat="42.51408484764397144317626953125" lon="19.9850966222584247589111328125">
        <ele>1602.199951171875</ele>
        <time>2026-06-19T08:05:32.000Z</time>
        <extensions>
          <ns3:TrackPointExtension>
            <ns3:atemp>19.0</ns3:atemp>
          </ns3:TrackPointExtension>
        </extensions>
      </trkpt>
      <trkpt lat="42.514094822108745574951171875" lon="19.98508103191852569580078125">
        <ele>1602.5999755859375</ele>
        <time>2026-06-19T08:05:33.000Z</time>
        <extensions>
          <ns3:TrackPointExtension>
            <ns3:atemp>19.0</ns3:atemp>
          </ns3:TrackPointExtension>
        </extensions>
      </trkpt>
      <trkpt lat="42.51410295255482196807861328125" lon="19.98506150208413600921630859375">
        <ele>1602.800048828125</ele>
        <time>2026-06-19T08:05:34.000Z</time>
        <extensions>
          <ns3:TrackPointExtension>
            <ns3:atemp>19.0</ns3:atemp>
          </ns3:TrackPointExtension>
        </extensions>
      </trkpt>
      <trkpt lat="42.5141053833067417144775390625" lon="19.98504138551652431488037109375">
        <ele>1603.4000244140625</ele>
        <time>2026-06-19T08:05:35.000Z</time>
        <extensions>
          <ns3:TrackPointExtension>
            <ns3:atemp>19.0</ns3:atemp>
          </ns3:TrackPointExtension>
        </extensions>
      </trkpt>
      <trkpt lat="42.51410496421158313751220703125" lon="19.9850174970924854278564453125">
        <ele>1604</ele>
        <time>2026-06-19T08:05:36.000Z</time>
        <extensions>
          <ns3:TrackPointExtension>
            <ns3:atemp>19.0</ns3:atemp>
          </ns3:TrackPointExtension>
        </extensions>
      </trkpt>
      <trkpt lat="42.51410613767802715301513671875" lon="19.9849923513829708099365234375">
        <ele>1604.4000244140625</ele>
        <time>2026-06-19T08:05:37.000Z</time>
        <extensions>
          <ns3:TrackPointExtension>
            <ns3:atemp>19.0</ns3:atemp>
          </ns3:TrackPointExtension>
        </extensions>
      </trkpt>
      <trkpt lat="42.5140973366796970367431640625" lon="19.98497080989181995391845703125">
        <ele>1605</ele>
        <time>2026-06-19T08:05:38.000Z</time>
        <extensions>
          <ns3:TrackPointExtension>
            <ns3:atemp>19.0</ns3:atemp>
          </ns3:TrackPointExtension>
        </extensions>
      </trkpt>
      <trkpt lat="42.5140845961868762969970703125" lon="19.98495228588581085205078125">
        <ele>1605.199951171875</ele>
        <time>2026-06-19T08:05:39.000Z</time>
        <extensions>
          <ns3:TrackPointExtension>
            <ns3:atemp>19.0</ns3:atemp>
          </ns3:TrackPointExtension>
        </extensions>
      </trkpt>
      <trkpt lat="42.51407110132277011871337890625" lon="19.9849363602697849273681640625">
        <ele>1605.5999755859375</ele>
        <time>2026-06-19T08:05:40.000Z</time>
        <extensions>
          <ns3:TrackPointExtension>
            <ns3:atemp>19.0</ns3:atemp>
          </ns3:TrackPointExtension>
        </extensions>
      </trkpt>
      <trkpt lat="42.5140567682683467864990234375" lon="19.98492152430117130279541015625">
        <ele>1606</ele>
        <time>2026-06-19T08:05:41.000Z</time>
        <extensions>
          <ns3:TrackPointExtension>
            <ns3:atemp>19.0</ns3:atemp>
          </ns3:TrackPointExtension>
        </extensions>
      </trkpt>
      <trkpt lat="42.51404218375682830810546875" lon="19.9849098734557628631591796875">
        <ele>1606.4000244140625</ele>
        <time>2026-06-19T08:05:42.000Z</time>
        <extensions>
          <ns3:TrackPointExtension>
            <ns3:atemp>19.0</ns3:atemp>
          </ns3:TrackPointExtension>
        </extensions>
      </trkpt>
      <trkpt lat="42.514024414122104644775390625" lon="19.9848951213061809539794921875">
        <ele>1606.5999755859375</ele>
        <time>2026-06-19T08:05:43.000Z</time>
        <extensions>
          <ns3:TrackPointExtension>
            <ns3:atemp>19.0</ns3:atemp>
          </ns3:TrackPointExtension>
        </extensions>
      </trkpt>
      <trkpt lat="42.51400790177285671234130859375" lon="19.984878860414028167724609375">
        <ele>1606.800048828125</ele>
        <time>2026-06-19T08:05:44.000Z</time>
        <extensions>
          <ns3:TrackPointExtension>
            <ns3:atemp>19.0</ns3:atemp>
          </ns3:TrackPointExtension>
        </extensions>
      </trkpt>
      <trkpt lat="42.513988874852657318115234375" lon="19.9848672933876514434814453125">
        <ele>1607</ele>
        <time>2026-06-19T08:05:45.000Z</time>
        <extensions>
          <ns3:TrackPointExtension>
            <ns3:atemp>19.0</ns3:atemp>
          </ns3:TrackPointExtension>
        </extensions>
      </trkpt>
      <trkpt lat="42.51397118903696537017822265625" lon="19.98485899530351161956787109375">
        <ele>1607.199951171875</ele>
        <time>2026-06-19T08:05:46.000Z</time>
        <extensions>
          <ns3:TrackPointExtension>
            <ns3:atemp>19.0</ns3:atemp>
          </ns3:TrackPointExtension>
        </extensions>
      </trkpt>
      <trkpt lat="42.51395643688738346099853515625" lon="19.9848404712975025177001953125">
        <ele>1607.4000244140625</ele>
        <time>2026-06-19T08:05:47.000Z</time>
        <extensions>
          <ns3:TrackPointExtension>
            <ns3:atemp>19.0</ns3:atemp>
          </ns3:TrackPointExtension>
        </extensions>
      </trkpt>
      <trkpt lat="42.51394285820424556732177734375" lon="19.98481960035860538482666015625">
        <ele>1607.4000244140625</ele>
        <time>2026-06-19T08:05:48.000Z</time>
        <extensions>
          <ns3:TrackPointExtension>
            <ns3:atemp>19.0</ns3:atemp>
          </ns3:TrackPointExtension>
        </extensions>
      </trkpt>
      <trkpt lat="42.5139296986162662506103515625" lon="19.98480300419032573699951171875">
        <ele>1607.5999755859375</ele>
        <time>2026-06-19T08:05:49.000Z</time>
        <extensions>
          <ns3:TrackPointExtension>
            <ns3:atemp>19.0</ns3:atemp>
          </ns3:TrackPointExtension>
        </extensions>
      </trkpt>
      <trkpt lat="42.51391477882862091064453125" lon="19.98478976078331470489501953125">
        <ele>1607.5999755859375</ele>
        <time>2026-06-19T08:05:50.000Z</time>
        <extensions>
          <ns3:TrackPointExtension>
            <ns3:atemp>19.0</ns3:atemp>
          </ns3:TrackPointExtension>
        </extensions>
      </trkpt>
      <trkpt lat="42.5138991884887218475341796875" lon="19.98477903194725513458251953125">
        <ele>1607.800048828125</ele>
        <time>2026-06-19T08:05:51.000Z</time>
        <extensions>
          <ns3:TrackPointExtension>
            <ns3:atemp>19.0</ns3:atemp>
          </ns3:TrackPointExtension>
        </extensions>
      </trkpt>
      <trkpt lat="42.5138832628726959228515625" lon="19.98476855456829071044921875">
        <ele>1608</ele>
        <time>2026-06-19T08:05:52.000Z</time>
        <extensions>
          <ns3:TrackPointExtension>
            <ns3:atemp>19.0</ns3:atemp>
          </ns3:TrackPointExtension>
        </extensions>
      </trkpt>
      <trkpt lat="42.51386943273246288299560546875" lon="19.984754137694835662841796875">
        <ele>1608.199951171875</ele>
        <time>2026-06-19T08:05:53.000Z</time>
        <extensions>
          <ns3:TrackPointExtension>
            <ns3:atemp>19.0</ns3:atemp>
          </ns3:TrackPointExtension>
        </extensions>
      </trkpt>
      <trkpt lat="42.51385509967803955078125" lon="19.9847365356981754302978515625">
        <ele>1608.4000244140625</ele>
        <time>2026-06-19T08:05:54.000Z</time>
        <extensions>
          <ns3:TrackPointExtension>
            <ns3:atemp>19.0</ns3:atemp>
          </ns3:TrackPointExtension>
        </extensions>
      </trkpt>
      <trkpt lat="42.51384194009006023406982421875" lon="19.984723962843418121337890625">
        <ele>1608.5999755859375</ele>
        <time>2026-06-19T08:05:55.000Z</time>
        <extensions>
          <ns3:TrackPointExtension>
            <ns3:atemp>19.0</ns3:atemp>
          </ns3:TrackPointExtension>
        </extensions>
      </trkpt>
      <trkpt lat="42.51383255235850811004638671875" lon="19.98471080325543880462646484375">
        <ele>1609</ele>
        <time>2026-06-19T08:05:56.000Z</time>
        <extensions>
          <ns3:TrackPointExtension>
            <ns3:atemp>19.0</ns3:atemp>
          </ns3:TrackPointExtension>
        </extensions>
      </trkpt>
      <trkpt lat="42.5138193927705287933349609375" lon="19.9846954643726348876953125">
        <ele>1609.199951171875</ele>
        <time>2026-06-19T08:05:57.000Z</time>
        <extensions>
          <ns3:TrackPointExtension>
            <ns3:atemp>19.0</ns3:atemp>
          </ns3:TrackPointExtension>
        </extensions>
      </trkpt>
      <trkpt lat="42.51380690373480319976806640625" lon="19.984679035842418670654296875">
        <ele>1609.5999755859375</ele>
        <time>2026-06-19T08:05:58.000Z</time>
        <extensions>
          <ns3:TrackPointExtension>
            <ns3:atemp>19.0</ns3:atemp>
          </ns3:TrackPointExtension>
        </extensions>
      </trkpt>
      <trkpt lat="42.51379366032779216766357421875" lon="19.98466118238866329193115234375">
        <ele>1609.800048828125</ele>
        <time>2026-06-19T08:05:59.000Z</time>
        <extensions>
          <ns3:TrackPointExtension>
            <ns3:atemp>19.0</ns3:atemp>
          </ns3:TrackPointExtension>
        </extensions>
      </trkpt>
      <trkpt lat="42.51378024928271770477294921875" lon="19.98464341275393962860107421875">
        <ele>1610</ele>
        <time>2026-06-19T08:06:00.000Z</time>
        <extensions>
          <ns3:TrackPointExtension>
            <ns3:atemp>19.0</ns3:atemp>
          </ns3:TrackPointExtension>
        </extensions>
      </trkpt>
      <trkpt lat="42.51376750878989696502685546875" lon="19.9846257269382476806640625">
        <ele>1610.199951171875</ele>
        <time>2026-06-19T08:06:01.000Z</time>
        <extensions>
          <ns3:TrackPointExtension>
            <ns3:atemp>19.0</ns3:atemp>
          </ns3:TrackPointExtension>
        </extensions>
      </trkpt>
      <trkpt lat="42.51376130618155002593994140625" lon="19.98460628092288970947265625">
        <ele>1610.4000244140625</ele>
        <time>2026-06-19T08:06:02.000Z</time>
        <extensions>
          <ns3:TrackPointExtension>
            <ns3:atemp>19.0</ns3:atemp>
          </ns3:TrackPointExtension>
        </extensions>
      </trkpt>
      <trkpt lat="42.51375116407871246337890625" lon="19.98458792455494403839111328125">
        <ele>1610.5999755859375</ele>
        <time>2026-06-19T08:06:03.000Z</time>
        <extensions>
          <ns3:TrackPointExtension>
            <ns3:atemp>19.0</ns3:atemp>
          </ns3:TrackPointExtension>
        </extensions>
      </trkpt>
      <trkpt lat="42.51373775303363800048828125" lon="19.98457032255828380584716796875">
        <ele>1610.800048828125</ele>
        <time>2026-06-19T08:06:04.000Z</time>
        <extensions>
          <ns3:TrackPointExtension>
            <ns3:atemp>19.0</ns3:atemp>
          </ns3:TrackPointExtension>
        </extensions>
      </trkpt>
      <trkpt lat="42.51372425816953182220458984375" lon="19.98455221764743328094482421875">
        <ele>1611</ele>
        <time>2026-06-19T08:06:05.000Z</time>
        <extensions>
          <ns3:TrackPointExtension>
            <ns3:atemp>19.0</ns3:atemp>
          </ns3:TrackPointExtension>
        </extensions>
      </trkpt>
      <trkpt lat="42.51371436752378940582275390625" lon="19.98453528620302677154541015625">
        <ele>1611.199951171875</ele>
        <time>2026-06-19T08:06:06.000Z</time>
        <extensions>
          <ns3:TrackPointExtension>
            <ns3:atemp>19.0</ns3:atemp>
          </ns3:TrackPointExtension>
        </extensions>
      </trkpt>
      <trkpt lat="42.513702549040317535400390625" lon="19.98451718129217624664306640625">
        <ele>1611.4000244140625</ele>
        <time>2026-06-19T08:06:07.000Z</time>
        <extensions>
          <ns3:TrackPointExtension>
            <ns3:atemp>19.0</ns3:atemp>
          </ns3:TrackPointExtension>
        </extensions>
      </trkpt>
      <trkpt lat="42.51369123347103595733642578125" lon="19.9845041893422603607177734375">
        <ele>1611.5999755859375</ele>
        <time>2026-06-19T08:06:08.000Z</time>
        <extensions>
          <ns3:TrackPointExtension>
            <ns3:atemp>19.0</ns3:atemp>
          </ns3:TrackPointExtension>
        </extensions>
      </trkpt>
      <trkpt lat="42.5136829353868961334228515625" lon="19.98449220322072505950927734375">
        <ele>1611.800048828125</ele>
        <time>2026-06-19T08:06:09.000Z</time>
        <extensions>
          <ns3:TrackPointExtension>
            <ns3:atemp>19.0</ns3:atemp>
          </ns3:TrackPointExtension>
        </extensions>
      </trkpt>
      <trkpt lat="42.5136742182075977325439453125" lon="19.98447560705244541168212890625">
        <ele>1612</ele>
        <time>2026-06-19T08:06:10.000Z</time>
        <extensions>
          <ns3:TrackPointExtension>
            <ns3:atemp>19.0</ns3:atemp>
          </ns3:TrackPointExtension>
        </extensions>
      </trkpt>
      <trkpt lat="42.5136644951999187469482421875" lon="19.9844612739980220794677734375">
        <ele>1612.4000244140625</ele>
        <time>2026-06-19T08:06:11.000Z</time>
        <extensions>
          <ns3:TrackPointExtension>
            <ns3:atemp>19.0</ns3:atemp>
          </ns3:TrackPointExtension>
        </extensions>
      </trkpt>
      <trkpt lat="42.51365418545901775360107421875" lon="19.98444727621972560882568359375">
        <ele>1612.5999755859375</ele>
        <time>2026-06-19T08:06:12.000Z</time>
        <extensions>
          <ns3:TrackPointExtension>
            <ns3:atemp>19.0</ns3:atemp>
          </ns3:TrackPointExtension>
        </extensions>
      </trkpt>
      <trkpt lat="42.5136427022516727447509765625" lon="19.98443327844142913818359375">
        <ele>1612.800048828125</ele>
        <time>2026-06-19T08:06:13.000Z</time>
        <extensions>
          <ns3:TrackPointExtension>
            <ns3:atemp>19.0</ns3:atemp>
          </ns3:TrackPointExtension>
        </extensions>
      </trkpt>
      <trkpt lat="42.5136286206543445587158203125" lon="19.9844180233776569366455078125">
        <ele>1613</ele>
        <time>2026-06-19T08:06:14.000Z</time>
        <extensions>
          <ns3:TrackPointExtension>
            <ns3:atemp>19.0</ns3:atemp>
          </ns3:TrackPointExtension>
        </extensions>
      </trkpt>
      <trkpt lat="42.51361546106636524200439453125" lon="19.984403438866138458251953125">
        <ele>1613.199951171875</ele>
        <time>2026-06-19T08:06:15.000Z</time>
        <extensions>
          <ns3:TrackPointExtension>
            <ns3:atemp>19.0</ns3:atemp>
          </ns3:TrackPointExtension>
        </extensions>
      </trkpt>
      <trkpt lat="42.51360121183097362518310546875" lon="19.98438726179301738739013671875">
        <ele>1613.4000244140625</ele>
        <time>2026-06-19T08:06:16.000Z</time>
        <extensions>
          <ns3:TrackPointExtension>
            <ns3:atemp>19.0</ns3:atemp>
          </ns3:TrackPointExtension>
        </extensions>
      </trkpt>
      <trkpt lat="42.513585202395915985107421875" lon="19.98437133617699146270751953125">
        <ele>1613.800048828125</ele>
        <time>2026-06-19T08:06:17.000Z</time>
        <extensions>
          <ns3:TrackPointExtension>
            <ns3:atemp>19.0</ns3:atemp>
          </ns3:TrackPointExtension>
        </extensions>
      </trkpt>
      <trkpt lat="42.5135686062276363372802734375" lon="19.98435893096029758453369140625">
        <ele>1614</ele>
        <time>2026-06-19T08:06:18.000Z</time>
        <extensions>
          <ns3:TrackPointExtension>
            <ns3:atemp>19.0</ns3:atemp>
          </ns3:TrackPointExtension>
        </extensions>
      </trkpt>
      <trkpt lat="42.513552345335483551025390625" lon="19.9843476153910160064697265625">
        <ele>1614.199951171875</ele>
        <time>2026-06-19T08:06:19.000Z</time>
        <extensions>
          <ns3:TrackPointExtension>
            <ns3:atemp>19.0</ns3:atemp>
          </ns3:TrackPointExtension>
        </extensions>
      </trkpt>
      <trkpt lat="42.5135387666523456573486328125" lon="19.98433579690754413604736328125">
        <ele>1614.4000244140625</ele>
        <time>2026-06-19T08:06:20.000Z</time>
        <extensions>
          <ns3:TrackPointExtension>
            <ns3:atemp>19.0</ns3:atemp>
          </ns3:TrackPointExtension>
        </extensions>
      </trkpt>
      <trkpt lat="42.5135243497788906097412109375" lon="19.9843244813382625579833984375">
        <ele>1614.5999755859375</ele>
        <time>2026-06-19T08:06:21.000Z</time>
        <extensions>
          <ns3:TrackPointExtension>
            <ns3:atemp>19.0</ns3:atemp>
          </ns3:TrackPointExtension>
        </extensions>
      </trkpt>
      <trkpt lat="42.513509094715118408203125" lon="19.9843130819499492645263671875">
        <ele>1614.800048828125</ele>
        <time>2026-06-19T08:06:22.000Z</time>
        <extensions>
          <ns3:TrackPointExtension>
            <ns3:atemp>19.0</ns3:atemp>
          </ns3:TrackPointExtension>
        </extensions>
      </trkpt>
      <trkpt lat="42.5134968571364879608154296875" lon="19.98430511914193630218505859375">
        <ele>1615</ele>
        <time>2026-06-19T08:06:23.000Z</time>
        <extensions>
          <ns3:TrackPointExtension>
            <ns3:atemp>19.0</ns3:atemp>
          </ns3:TrackPointExtension>
        </extensions>
      </trkpt>
      <trkpt lat="42.5134844519197940826416015625" lon="19.98429405502974987030029296875">
        <ele>1615.199951171875</ele>
        <time>2026-06-19T08:06:24.000Z</time>
        <extensions>
          <ns3:TrackPointExtension>
            <ns3:atemp>19.0</ns3:atemp>
          </ns3:TrackPointExtension>
        </extensions>
      </trkpt>
      <trkpt lat="42.51347062177956104278564453125" lon="19.984281398355960845947265625">
        <ele>1615.4000244140625</ele>
        <time>2026-06-19T08:06:25.000Z</time>
        <extensions>
          <ns3:TrackPointExtension>
            <ns3:atemp>19.0</ns3:atemp>
          </ns3:TrackPointExtension>
        </extensions>
      </trkpt>
      <trkpt lat="42.51345570199191570281982421875" lon="19.984270669519901275634765625">
        <ele>1615.5999755859375</ele>
        <time>2026-06-19T08:06:26.000Z</time>
        <extensions>
          <ns3:TrackPointExtension>
            <ns3:atemp>19.0</ns3:atemp>
          </ns3:TrackPointExtension>
        </extensions>
      </trkpt>
      <trkpt lat="42.5134432129561901092529296875" lon="19.984255246818065643310546875">
        <ele>1615.800048828125</ele>
        <time>2026-06-19T08:06:27.000Z</time>
        <extensions>
          <ns3:TrackPointExtension>
            <ns3:atemp>19.0</ns3:atemp>
          </ns3:TrackPointExtension>
        </extensions>
      </trkpt>
      <trkpt lat="42.5134299695491790771484375" lon="19.98424745164811611175537109375">
        <ele>1616</ele>
        <time>2026-06-19T08:06:28.000Z</time>
        <extensions>
          <ns3:TrackPointExtension>
            <ns3:atemp>19.0</ns3:atemp>
          </ns3:TrackPointExtension>
        </extensions>
      </trkpt>
      <trkpt lat="42.51341261900961399078369140625" lon="19.98423906974494457244873046875">
        <ele>1616.4000244140625</ele>
        <time>2026-06-19T08:06:29.000Z</time>
        <extensions>
          <ns3:TrackPointExtension>
            <ns3:atemp>19.0</ns3:atemp>
          </ns3:TrackPointExtension>
        </extensions>
      </trkpt>
      <trkpt lat="42.5133986212313175201416015625" lon="19.9842299334704875946044921875">
        <ele>1616.5999755859375</ele>
        <time>2026-06-19T08:06:30.000Z</time>
        <extensions>
          <ns3:TrackPointExtension>
            <ns3:atemp>19.0</ns3:atemp>
          </ns3:TrackPointExtension>
        </extensions>
      </trkpt>
      <trkpt lat="42.51338261179625988006591796875" lon="19.984218366444110870361328125">
        <ele>1616.800048828125</ele>
        <time>2026-06-19T08:06:31.000Z</time>
        <extensions>
          <ns3:TrackPointExtension>
            <ns3:atemp>19.0</ns3:atemp>
          </ns3:TrackPointExtension>
        </extensions>
      </trkpt>
      <trkpt lat="42.5133684463798999786376953125" lon="19.9842084757983684539794921875">
        <ele>1617</ele>
        <time>2026-06-19T08:06:32.000Z</time>
        <extensions>
          <ns3:TrackPointExtension>
            <ns3:atemp>19.0</ns3:atemp>
          </ns3:TrackPointExtension>
        </extensions>
      </trkpt>
      <trkpt lat="42.51335344277322292327880859375" lon="19.9841997586190700531005859375">
        <ele>1617.199951171875</ele>
        <time>2026-06-19T08:06:33.000Z</time>
        <extensions>
          <ns3:TrackPointExtension>
            <ns3:atemp>19.0</ns3:atemp>
          </ns3:TrackPointExtension>
        </extensions>
      </trkpt>
      <trkpt lat="42.51333684660494327545166015625" lon="19.984190873801708221435546875">
        <ele>1617.4000244140625</ele>
        <time>2026-06-19T08:06:34.000Z</time>
        <extensions>
          <ns3:TrackPointExtension>
            <ns3:atemp>19.0</ns3:atemp>
          </ns3:TrackPointExtension>
        </extensions>
      </trkpt>
      <trkpt lat="42.513320334255695343017578125" lon="19.984184838831424713134765625">
        <ele>1617.5999755859375</ele>
        <time>2026-06-19T08:06:35.000Z</time>
        <extensions>
          <ns3:TrackPointExtension>
            <ns3:atemp>19.0</ns3:atemp>
          </ns3:TrackPointExtension>
        </extensions>
      </trkpt>
      <trkpt lat="42.51330315135419368743896484375" lon="19.98418039642274379730224609375">
        <ele>1617.5999755859375</ele>
        <time>2026-06-19T08:06:36.000Z</time>
        <extensions>
          <ns3:TrackPointExtension>
            <ns3:atemp>19.0</ns3:atemp>
          </ns3:TrackPointExtension>
        </extensions>
      </trkpt>
      <trkpt lat="42.5132851302623748779296875" lon="19.98417519964277744293212890625">
        <ele>1617.800048828125</ele>
        <time>2026-06-19T08:06:37.000Z</time>
        <extensions>
          <ns3:TrackPointExtension>
            <ns3:atemp>19.0</ns3:atemp>
          </ns3:TrackPointExtension>
        </extensions>
      </trkpt>
      <trkpt lat="42.5132678635418415069580078125" lon="19.9841712601482868194580078125">
        <ele>1617.800048828125</ele>
        <time>2026-06-19T08:06:38.000Z</time>
        <extensions>
          <ns3:TrackPointExtension>
            <ns3:atemp>19.0</ns3:atemp>
          </ns3:TrackPointExtension>
        </extensions>
      </trkpt>
      <trkpt lat="42.51325151883065700531005859375" lon="19.98417000286281108856201171875">
        <ele>1618</ele>
        <time>2026-06-19T08:06:39.000Z</time>
        <extensions>
          <ns3:TrackPointExtension>
            <ns3:atemp>19.0</ns3:atemp>
          </ns3:TrackPointExtension>
        </extensions>
      </trkpt>
      <trkpt lat="42.51323324628174304962158203125" lon="19.9841699190437793731689453125">
        <ele>1618</ele>
        <time>2026-06-19T08:06:40.000Z</time>
        <extensions>
          <ns3:TrackPointExtension>
            <ns3:atemp>19.0</ns3:atemp>
          </ns3:TrackPointExtension>
        </extensions>
      </trkpt>
      <trkpt lat="42.51321815885603427886962890625" lon="19.98416933231055736541748046875">
        <ele>1618.199951171875</ele>
        <time>2026-06-19T08:06:41.000Z</time>
        <extensions>
          <ns3:TrackPointExtension>
            <ns3:atemp>19.0</ns3:atemp>
          </ns3:TrackPointExtension>
        </extensions>
      </trkpt>
      <trkpt lat="42.51319770701229572296142578125" lon="19.98416765592992305755615234375">
        <ele>1618.199951171875</ele>
        <time>2026-06-19T08:06:42.000Z</time>
        <extensions>
          <ns3:TrackPointExtension>
            <ns3:atemp>19.0</ns3:atemp>
          </ns3:TrackPointExtension>
        </extensions>
      </trkpt>
      <trkpt lat="42.513181529939174652099609375" lon="19.98417042195796966552734375">
        <ele>1618.4000244140625</ele>
        <time>2026-06-19T08:06:43.000Z</time>
        <extensions>
          <ns3:TrackPointExtension>
            <ns3:atemp>19.0</ns3:atemp>
          </ns3:TrackPointExtension>
        </extensions>
      </trkpt>
      <trkpt lat="42.51316518522799015045166015625" lon="19.98417000286281108856201171875">
        <ele>1618.4000244140625</ele>
        <time>2026-06-19T08:06:44.000Z</time>
        <extensions>
          <ns3:TrackPointExtension>
            <ns3:atemp>19.0</ns3:atemp>
          </ns3:TrackPointExtension>
        </extensions>
      </trkpt>
      <trkpt lat="42.5131471641361713409423828125" lon="19.98416899703443050384521484375">
        <ele>1618.5999755859375</ele>
        <time>2026-06-19T08:06:45.000Z</time>
        <extensions>
          <ns3:TrackPointExtension>
            <ns3:atemp>19.0</ns3:atemp>
          </ns3:TrackPointExtension>
        </extensions>
      </trkpt>
      <trkpt lat="42.5131314061582088470458984375" lon="19.98416815884411334991455078125">
        <ele>1618.800048828125</ele>
        <time>2026-06-19T08:06:46.000Z</time>
        <extensions>
          <ns3:TrackPointExtension>
            <ns3:atemp>19.0</ns3:atemp>
          </ns3:TrackPointExtension>
        </extensions>
      </trkpt>
      <trkpt lat="42.51311480998992919921875" lon="19.98417033813893795013427734375">
        <ele>1618.800048828125</ele>
        <time>2026-06-19T08:06:47.000Z</time>
        <extensions>
          <ns3:TrackPointExtension>
            <ns3:atemp>19.0</ns3:atemp>
          </ns3:TrackPointExtension>
        </extensions>
      </trkpt>
      <trkpt lat="42.513096369802951812744140625" lon="19.9841722659766674041748046875">
        <ele>1619</ele>
        <time>2026-06-19T08:06:48.000Z</time>
        <extensions>
          <ns3:TrackPointExtension>
            <ns3:atemp>19.0</ns3:atemp>
          </ns3:TrackPointExtension>
        </extensions>
      </trkpt>
      <trkpt lat="42.51307784579694271087646484375" lon="19.98417419381439685821533203125">
        <ele>1619.199951171875</ele>
        <time>2026-06-19T08:06:49.000Z</time>
        <extensions>
          <ns3:TrackPointExtension>
            <ns3:atemp>19.0</ns3:atemp>
          </ns3:TrackPointExtension>
        </extensions>
      </trkpt>
      <trkpt lat="42.5130640156567096710205078125" lon="19.984175451099872589111328125">
        <ele>1619.4000244140625</ele>
        <time>2026-06-19T08:06:50.000Z</time>
        <extensions>
          <ns3:TrackPointExtension>
            <ns3:atemp>19.0</ns3:atemp>
          </ns3:TrackPointExtension>
        </extensions>
      </trkpt>
      <trkpt lat="42.51305068843066692352294921875" lon="19.98417687602341175079345703125">
        <ele>1619.5999755859375</ele>
        <time>2026-06-19T08:06:51.000Z</time>
        <extensions>
          <ns3:TrackPointExtension>
            <ns3:atemp>19.0</ns3:atemp>
          </ns3:TrackPointExtension>
        </extensions>
      </trkpt>
      <trkpt lat="42.513034343719482421875" lon="19.9841742776334285736083984375">
        <ele>1619.800048828125</ele>
        <time>2026-06-19T08:06:52.000Z</time>
        <extensions>
          <ns3:TrackPointExtension>
            <ns3:atemp>19.0</ns3:atemp>
          </ns3:TrackPointExtension>
        </extensions>
      </trkpt>
      <trkpt lat="42.5130167417228221893310546875" lon="19.98417042195796966552734375">
        <ele>1620</ele>
        <time>2026-06-19T08:06:53.000Z</time>
        <extensions>
          <ns3:TrackPointExtension>
            <ns3:atemp>19.0</ns3:atemp>
          </ns3:TrackPointExtension>
        </extensions>
      </trkpt>
      <trkpt lat="42.5129979662597179412841796875" lon="19.98416639864444732666015625">
        <ele>1620</ele>
        <time>2026-06-19T08:06:54.000Z</time>
        <extensions>
          <ns3:TrackPointExtension>
            <ns3:atemp>19.0</ns3:atemp>
          </ns3:TrackPointExtension>
        </extensions>
      </trkpt>
      <trkpt lat="42.5129825435578823089599609375" lon="19.9841642193496227264404296875">
        <ele>1620.199951171875</ele>
        <time>2026-06-19T08:06:55.000Z</time>
        <extensions>
          <ns3:TrackPointExtension>
            <ns3:atemp>19.0</ns3:atemp>
          </ns3:TrackPointExtension>
        </extensions>
      </trkpt>
      <trkpt lat="42.51296737231314182281494140625" lon="19.984158016741275787353515625">
        <ele>1620.4000244140625</ele>
        <time>2026-06-19T08:06:56.000Z</time>
        <extensions>
          <ns3:TrackPointExtension>
            <ns3:atemp>19.0</ns3:atemp>
          </ns3:TrackPointExtension>
        </extensions>
      </trkpt>
      <trkpt lat="42.512951530516147613525390625" lon="19.98415173031389713287353515625">
        <ele>1620.5999755859375</ele>
        <time>2026-06-19T08:06:57.000Z</time>
        <extensions>
          <ns3:TrackPointExtension>
            <ns3:atemp>19.0</ns3:atemp>
          </ns3:TrackPointExtension>
        </extensions>
      </trkpt>
      <trkpt lat="42.512938790023326873779296875" lon="19.9841498024761676788330078125">
        <ele>1620.800048828125</ele>
        <time>2026-06-19T08:06:58.000Z</time>
        <extensions>
          <ns3:TrackPointExtension>
            <ns3:atemp>19.0</ns3:atemp>
          </ns3:TrackPointExtension>
        </extensions>
      </trkpt>
      <trkpt lat="42.51292495988309383392333984375" lon="19.98414536006748676300048828125">
        <ele>1621</ele>
        <time>2026-06-19T08:06:59.000Z</time>
        <extensions>
          <ns3:TrackPointExtension>
            <ns3:atemp>19.0</ns3:atemp>
          </ns3:TrackPointExtension>
        </extensions>
      </trkpt>
      <trkpt lat="42.5129111297428607940673828125" lon="19.984141252934932708740234375">
        <ele>1621.4000244140625</ele>
        <time>2026-06-19T08:07:00.000Z</time>
        <extensions>
          <ns3:TrackPointExtension>
            <ns3:atemp>19.0</ns3:atemp>
          </ns3:TrackPointExtension>
        </extensions>
      </trkpt>
      <trkpt lat="42.512900568544864654541015625" lon="19.98413647525012493133544921875">
        <ele>1621.5999755859375</ele>
        <time>2026-06-19T08:07:01.000Z</time>
        <extensions>
          <ns3:TrackPointExtension>
            <ns3:atemp>19.0</ns3:atemp>
          </ns3:TrackPointExtension>
        </extensions>
      </trkpt>
      <trkpt lat="42.51288590021431446075439453125" lon="19.98412842862308025360107421875">
        <ele>1621.800048828125</ele>
        <time>2026-06-19T08:07:02.000Z</time>
        <extensions>
          <ns3:TrackPointExtension>
            <ns3:atemp>19.0</ns3:atemp>
          </ns3:TrackPointExtension>
        </extensions>
      </trkpt>
      <trkpt lat="42.5128702260553836822509765625" lon="19.9841201305389404296875">
        <ele>1622</ele>
        <time>2026-06-19T08:07:03.000Z</time>
        <extensions>
          <ns3:TrackPointExtension>
            <ns3:atemp>19.0</ns3:atemp>
          </ns3:TrackPointExtension>
        </extensions>
      </trkpt>
      <trkpt lat="42.51285404898226261138916015625" lon="19.98411518521606922149658203125">
        <ele>1622.4000244140625</ele>
        <time>2026-06-19T08:07:04.000Z</time>
        <extensions>
          <ns3:TrackPointExtension>
            <ns3:atemp>19.0</ns3:atemp>
          </ns3:TrackPointExtension>
        </extensions>
      </trkpt>
      <trkpt lat="42.51283862628042697906494140625" lon="19.98411065898835659027099609375">
        <ele>1622.5999755859375</ele>
        <time>2026-06-19T08:07:05.000Z</time>
        <extensions>
          <ns3:TrackPointExtension>
            <ns3:atemp>19.0</ns3:atemp>
          </ns3:TrackPointExtension>
        </extensions>
      </trkpt>
      <trkpt lat="42.51282454468309879302978515625" lon="19.9841015227138996124267578125">
        <ele>1622.800048828125</ele>
        <time>2026-06-19T08:07:06.000Z</time>
        <extensions>
          <ns3:TrackPointExtension>
            <ns3:atemp>19.0</ns3:atemp>
          </ns3:TrackPointExtension>
        </extensions>
      </trkpt>
      <trkpt lat="42.51280912198126316070556640625" lon="19.98409305699169635772705078125">
        <ele>1623</ele>
        <time>2026-06-19T08:07:07.000Z</time>
        <extensions>
          <ns3:TrackPointExtension>
            <ns3:atemp>19.0</ns3:atemp>
          </ns3:TrackPointExtension>
        </extensions>
      </trkpt>
      <trkpt lat="42.512792609632015228271484375" lon="19.984086267650127410888671875">
        <ele>1623.199951171875</ele>
        <time>2026-06-19T08:07:08.000Z</time>
        <extensions>
          <ns3:TrackPointExtension>
            <ns3:atemp>19.0</ns3:atemp>
          </ns3:TrackPointExtension>
        </extensions>
      </trkpt>
      <trkpt lat="42.51277743838727474212646484375" lon="19.98407998122274875640869140625">
        <ele>1623.5999755859375</ele>
        <time>2026-06-19T08:07:09.000Z</time>
        <extensions>
          <ns3:TrackPointExtension>
            <ns3:atemp>19.0</ns3:atemp>
          </ns3:TrackPointExtension>
        </extensions>
      </trkpt>
      <trkpt lat="42.51276302151381969451904296875" lon="19.98407159931957721710205078125">
        <ele>1623.800048828125</ele>
        <time>2026-06-19T08:07:10.000Z</time>
        <extensions>
          <ns3:TrackPointExtension>
            <ns3:atemp>19.0</ns3:atemp>
          </ns3:TrackPointExtension>
        </extensions>
      </trkpt>
      <trkpt lat="42.5127486884593963623046875" lon="19.98406455852091312408447265625">
        <ele>1624</ele>
        <time>2026-06-19T08:07:11.000Z</time>
        <extensions>
          <ns3:TrackPointExtension>
            <ns3:atemp>19.0</ns3:atemp>
          </ns3:TrackPointExtension>
        </extensions>
      </trkpt>
      <trkpt lat="42.51273217611014842987060546875" lon="19.984058775007724761962890625">
        <ele>1624.4000244140625</ele>
        <time>2026-06-19T08:07:12.000Z</time>
        <extensions>
          <ns3:TrackPointExtension>
            <ns3:atemp>19.0</ns3:atemp>
          </ns3:TrackPointExtension>
        </extensions>
      </trkpt>
      <trkpt lat="42.51271675340831279754638671875" lon="19.9840508960187435150146484375">
        <ele>1624.5999755859375</ele>
        <time>2026-06-19T08:07:13.000Z</time>
        <extensions>
          <ns3:TrackPointExtension>
            <ns3:atemp>19.0</ns3:atemp>
          </ns3:TrackPointExtension>
        </extensions>
      </trkpt>
      <trkpt lat="42.51270367763936519622802734375" lon="19.9840398319065570831298828125">
        <ele>1624.800048828125</ele>
        <time>2026-06-19T08:07:14.000Z</time>
        <extensions>
          <ns3:TrackPointExtension>
            <ns3:atemp>19.0</ns3:atemp>
          </ns3:TrackPointExtension>
        </extensions>
      </trkpt>
      <trkpt lat="42.5126918591558933258056640625" lon="19.9840301088988780975341796875">
        <ele>1625.199951171875</ele>
        <time>2026-06-19T08:07:15.000Z</time>
        <extensions>
          <ns3:TrackPointExtension>
            <ns3:atemp>19.0</ns3:atemp>
          </ns3:TrackPointExtension>
        </extensions>
      </trkpt>
      <trkpt lat="42.51267719082534313201904296875" lon="19.9840193800628185272216796875">
        <ele>1625.4000244140625</ele>
        <time>2026-06-19T08:07:16.000Z</time>
        <extensions>
          <ns3:TrackPointExtension>
            <ns3:atemp>19.0</ns3:atemp>
          </ns3:TrackPointExtension>
        </extensions>
      </trkpt>
      <trkpt lat="42.5126600079238414764404296875" lon="19.98400873504579067230224609375">
        <ele>1625.5999755859375</ele>
        <time>2026-06-19T08:07:17.000Z</time>
        <extensions>
          <ns3:TrackPointExtension>
            <ns3:atemp>19.0</ns3:atemp>
          </ns3:TrackPointExtension>
        </extensions>
      </trkpt>
      <trkpt lat="42.51264399848878383636474609375" lon="19.98399985022842884063720703125">
        <ele>1625.800048828125</ele>
        <time>2026-06-19T08:07:18.000Z</time>
        <extensions>
          <ns3:TrackPointExtension>
            <ns3:atemp>19.0</ns3:atemp>
          </ns3:TrackPointExtension>
        </extensions>
      </trkpt>
      <trkpt lat="42.512630335986614227294921875" lon="19.983988702297210693359375">
        <ele>1626</ele>
        <time>2026-06-19T08:07:19.000Z</time>
        <extensions>
          <ns3:TrackPointExtension>
            <ns3:atemp>19.0</ns3:atemp>
          </ns3:TrackPointExtension>
        </extensions>
      </trkpt>
      <trkpt lat="42.512613572180271148681640625" lon="19.98397872783243656158447265625">
        <ele>1626</ele>
        <time>2026-06-19T08:07:20.000Z</time>
        <extensions>
          <ns3:TrackPointExtension>
            <ns3:atemp>19.0</ns3:atemp>
          </ns3:TrackPointExtension>
        </extensions>
      </trkpt>
      <trkpt lat="42.51260007731616497039794921875" lon="19.98396749608218669891357421875">
        <ele>1626.199951171875</ele>
        <time>2026-06-19T08:07:21.000Z</time>
        <extensions>
          <ns3:TrackPointExtension>
            <ns3:atemp>19.0</ns3:atemp>
          </ns3:TrackPointExtension>
        </extensions>
      </trkpt>
      <trkpt lat="42.51258700154721736907958984375" lon="19.98396364040672779083251953125">
        <ele>1626.4000244140625</ele>
        <time>2026-06-19T08:07:22.000Z</time>
        <extensions>
          <ns3:TrackPointExtension>
            <ns3:atemp>19.0</ns3:atemp>
          </ns3:TrackPointExtension>
        </extensions>
      </trkpt>
      <trkpt lat="42.51257526688277721405029296875" lon="19.9839597009122371673583984375">
        <ele>1626.5999755859375</ele>
        <time>2026-06-19T08:07:23.000Z</time>
        <extensions>
          <ns3:TrackPointExtension>
            <ns3:atemp>19.0</ns3:atemp>
          </ns3:TrackPointExtension>
        </extensions>
      </trkpt>
      <trkpt lat="42.5125607661902904510498046875" lon="19.98395089991390705108642578125">
        <ele>1626.800048828125</ele>
        <time>2026-06-19T08:07:24.000Z</time>
        <extensions>
          <ns3:TrackPointExtension>
            <ns3:atemp>19.0</ns3:atemp>
          </ns3:TrackPointExtension>
        </extensions>
      </trkpt>
      <trkpt lat="42.5125423260033130645751953125" lon="19.9839417636394500732421875">
        <ele>1627</ele>
        <time>2026-06-19T08:07:25.000Z</time>
        <extensions>
          <ns3:TrackPointExtension>
            <ns3:atemp>19.0</ns3:atemp>
          </ns3:TrackPointExtension>
        </extensions>
      </trkpt>
      <trkpt lat="42.51252396963536739349365234375" lon="19.9839322082698345184326171875">
        <ele>1627.4000244140625</ele>
        <time>2026-06-19T08:07:26.000Z</time>
        <extensions>
          <ns3:TrackPointExtension>
            <ns3:atemp>19.0</ns3:atemp>
          </ns3:TrackPointExtension>
        </extensions>
      </trkpt>
      <trkpt lat="42.512507624924182891845703125" lon="19.98392474837601184844970703125">
        <ele>1627.5999755859375</ele>
        <time>2026-06-19T08:07:27.000Z</time>
        <extensions>
          <ns3:TrackPointExtension>
            <ns3:atemp>19.0</ns3:atemp>
          </ns3:TrackPointExtension>
        </extensions>
      </trkpt>
      <trkpt lat="42.5124927051365375518798828125" lon="19.983914606273174285888671875">
        <ele>1628</ele>
        <time>2026-06-19T08:07:28.000Z</time>
        <extensions>
          <ns3:TrackPointExtension>
            <ns3:atemp>19.0</ns3:atemp>
          </ns3:TrackPointExtension>
        </extensions>
      </trkpt>
      <trkpt lat="42.5124796293675899505615234375" lon="19.98390748165547847747802734375">
        <ele>1628.199951171875</ele>
        <time>2026-06-19T08:07:29.000Z</time>
        <extensions>
          <ns3:TrackPointExtension>
            <ns3:atemp>19.0</ns3:atemp>
          </ns3:TrackPointExtension>
        </extensions>
      </trkpt>
      <trkpt lat="42.5124657154083251953125" lon="19.98390220105648040771484375">
        <ele>1628.4000244140625</ele>
        <time>2026-06-19T08:07:30.000Z</time>
        <extensions>
          <ns3:TrackPointExtension>
            <ns3:atemp>19.0</ns3:atemp>
          </ns3:TrackPointExtension>
        </extensions>
      </trkpt>
      <trkpt lat="42.5124571658670902252197265625" lon="19.98389373533427715301513671875">
        <ele>1628.800048828125</ele>
        <time>2026-06-19T08:07:31.000Z</time>
        <extensions>
          <ns3:TrackPointExtension>
            <ns3:atemp>19.0</ns3:atemp>
          </ns3:TrackPointExtension>
        </extensions>
      </trkpt>
      <trkpt lat="42.5124442577362060546875" lon="19.98388384468853473663330078125">
        <ele>1629</ele>
        <time>2026-06-19T08:07:32.000Z</time>
        <extensions>
          <ns3:TrackPointExtension>
            <ns3:atemp>19.0</ns3:atemp>
          </ns3:TrackPointExtension>
        </extensions>
      </trkpt>
      <trkpt lat="42.51243227161467075347900390625" lon="19.98387646861374378204345703125">
        <ele>1629.4000244140625</ele>
        <time>2026-06-19T08:07:33.000Z</time>
        <extensions>
          <ns3:TrackPointExtension>
            <ns3:atemp>19.0</ns3:atemp>
          </ns3:TrackPointExtension>
        </extensions>
      </trkpt>
      <trkpt lat="42.51242456026375293731689453125" lon="19.9838718585669994354248046875">
        <ele>1629.5999755859375</ele>
        <time>2026-06-19T08:07:34.000Z</time>
        <extensions>
          <ns3:TrackPointExtension>
            <ns3:atemp>19.0</ns3:atemp>
          </ns3:TrackPointExtension>
        </extensions>
      </trkpt>
      <trkpt lat="42.51241802237927913665771484375" lon="19.98385769315063953399658203125">
        <ele>1630</ele>
        <time>2026-06-19T08:07:35.000Z</time>
        <extensions>
          <ns3:TrackPointExtension>
            <ns3:atemp>19.0</ns3:atemp>
          </ns3:TrackPointExtension>
        </extensions>
      </trkpt>
      <trkpt lat="42.51240695826709270477294921875" lon="19.98384042643010616302490234375">
        <ele>1630.199951171875</ele>
        <time>2026-06-19T08:07:36.000Z</time>
        <extensions>
          <ns3:TrackPointExtension>
            <ns3:atemp>19.0</ns3:atemp>
          </ns3:TrackPointExtension>
        </extensions>
      </trkpt>
      <trkpt lat="42.51239396631717681884765625" lon="19.9838302843272686004638671875">
        <ele>1630.4000244140625</ele>
        <time>2026-06-19T08:07:37.000Z</time>
        <extensions>
          <ns3:TrackPointExtension>
            <ns3:atemp>19.0</ns3:atemp>
          </ns3:TrackPointExtension>
        </extensions>
      </trkpt>
      <trkpt lat="42.51238114200532436370849609375" lon="19.98381444253027439117431640625">
        <ele>1630.800048828125</ele>
        <time>2026-06-19T08:07:38.000Z</time>
        <extensions>
          <ns3:TrackPointExtension>
            <ns3:atemp>19.0</ns3:atemp>
          </ns3:TrackPointExtension>
        </extensions>
      </trkpt>
      <trkpt lat="42.512370832264423370361328125" lon="19.983796589076519012451171875">
        <ele>1631</ele>
        <time>2026-06-19T08:07:39.000Z</time>
        <extensions>
          <ns3:TrackPointExtension>
            <ns3:atemp>19.0</ns3:atemp>
          </ns3:TrackPointExtension>
        </extensions>
      </trkpt>
      <trkpt lat="42.51236085779964923858642578125" lon="19.98377840034663677215576171875">
        <ele>1631.4000244140625</ele>
        <time>2026-06-19T08:07:40.000Z</time>
        <extensions>
          <ns3:TrackPointExtension>
            <ns3:atemp>19.0</ns3:atemp>
          </ns3:TrackPointExtension>
        </extensions>
      </trkpt>
      <trkpt lat="42.512349374592304229736328125" lon="19.98375736176967620849609375">
        <ele>1631.5999755859375</ele>
        <time>2026-06-19T08:07:41.000Z</time>
        <extensions>
          <ns3:TrackPointExtension>
            <ns3:atemp>19.0</ns3:atemp>
          </ns3:TrackPointExtension>
        </extensions>
      </trkpt>
      <trkpt lat="42.51233655028045177459716796875" lon="19.98374017886817455291748046875">
        <ele>1631.800048828125</ele>
        <time>2026-06-19T08:07:42.000Z</time>
        <extensions>
          <ns3:TrackPointExtension>
            <ns3:atemp>19.0</ns3:atemp>
          </ns3:TrackPointExtension>
        </extensions>
      </trkpt>
      <trkpt lat="42.5123217143118381500244140625" lon="19.98372978530824184417724609375">
        <ele>1631.800048828125</ele>
        <time>2026-06-19T08:07:43.000Z</time>
        <extensions>
          <ns3:TrackPointExtension>
            <ns3:atemp>19.0</ns3:atemp>
          </ns3:TrackPointExtension>
        </extensions>
      </trkpt>
      <trkpt lat="42.51231106929481029510498046875" lon="19.983718134462833404541015625">
        <ele>1631.800048828125</ele>
        <time>2026-06-19T08:07:44.000Z</time>
        <extensions>
          <ns3:TrackPointExtension>
            <ns3:atemp>19.0</ns3:atemp>
          </ns3:TrackPointExtension>
        </extensions>
      </trkpt>
      <trkpt lat="42.5123042799532413482666015625" lon="19.98370346613228321075439453125">
        <ele>1632</ele>
        <time>2026-06-19T08:07:45.000Z</time>
        <extensions>
          <ns3:TrackPointExtension>
            <ns3:atemp>19.0</ns3:atemp>
          </ns3:TrackPointExtension>
        </extensions>
      </trkpt>
      <trkpt lat="42.512296736240386962890625" lon="19.98369592241942882537841796875">
        <ele>1632</ele>
        <time>2026-06-19T08:07:46.000Z</time>
        <extensions>
          <ns3:TrackPointExtension>
            <ns3:atemp>19.0</ns3:atemp>
          </ns3:TrackPointExtension>
        </extensions>
      </trkpt>
      <trkpt lat="42.51228441484272480010986328125" lon="19.9836887978017330169677734375">
        <ele>1632</ele>
        <time>2026-06-19T08:07:47.000Z</time>
        <extensions>
          <ns3:TrackPointExtension>
            <ns3:atemp>19.0</ns3:atemp>
          </ns3:TrackPointExtension>
        </extensions>
      </trkpt>
      <trkpt lat="42.5122710876166820526123046875" lon="19.98368133790791034698486328125">
        <ele>1632</ele>
        <time>2026-06-19T08:07:48.000Z</time>
        <extensions>
          <ns3:TrackPointExtension>
            <ns3:atemp>19.0</ns3:atemp>
          </ns3:TrackPointExtension>
        </extensions>
      </trkpt>
      <trkpt lat="42.51225239597260951995849609375" lon="19.983682595193386077880859375">
        <ele>1632</ele>
        <time>2026-06-19T08:07:49.000Z</time>
        <extensions>
          <ns3:TrackPointExtension>
            <ns3:atemp>19.0</ns3:atemp>
          </ns3:TrackPointExtension>
        </extensions>
      </trkpt>
      <trkpt lat="42.51224451698362827301025390625" lon="19.98368494212627410888671875">
        <ele>1631.800048828125</ele>
        <time>2026-06-19T08:07:50.000Z</time>
        <extensions>
          <ns3:TrackPointExtension>
            <ns3:atemp>19.0</ns3:atemp>
          </ns3:TrackPointExtension>
        </extensions>
      </trkpt>
      <trkpt lat="42.51224803738296031951904296875" lon="19.9836904741823673248291015625">
        <ele>1631.800048828125</ele>
        <time>2026-06-19T08:07:51.000Z</time>
        <extensions>
          <ns3:TrackPointExtension>
            <ns3:atemp>19.0</ns3:atemp>
          </ns3:TrackPointExtension>
        </extensions>
      </trkpt>
      <trkpt lat="42.5122516416013240814208984375" lon="19.9836869537830352783203125">
        <ele>1632</ele>
        <time>2026-06-19T08:07:52.000Z</time>
        <extensions>
          <ns3:TrackPointExtension>
            <ns3:atemp>19.0</ns3:atemp>
          </ns3:TrackPointExtension>
        </extensions>
      </trkpt>
      <trkpt lat="42.5122516416013240814208984375" lon="19.9836869537830352783203125">
        <ele>1632</ele>
        <time>2026-06-19T08:07:53.000Z</time>
        <extensions>
          <ns3:TrackPointExtension>
            <ns3:atemp>19.0</ns3:atemp>
          </ns3:TrackPointExtension>
        </extensions>
      </trkpt>
      <trkpt lat="42.5122516416013240814208984375" lon="19.9836869537830352783203125">
        <ele>1631.800048828125</ele>
        <time>2026-06-19T08:07:54.000Z</time>
        <extensions>
          <ns3:TrackPointExtension>
            <ns3:atemp>19.0</ns3:atemp>
          </ns3:TrackPointExtension>
        </extensions>
      </trkpt>
      <trkpt lat="42.5122516416013240814208984375" lon="19.9836869537830352783203125">
        <ele>1631.800048828125</ele>
        <time>2026-06-19T08:07:55.000Z</time>
        <extensions>
          <ns3:TrackPointExtension>
            <ns3:atemp>19.0</ns3:atemp>
          </ns3:TrackPointExtension>
        </extensions>
      </trkpt>
      <trkpt lat="42.5122516416013240814208984375" lon="19.9836869537830352783203125">
        <ele>1631.5999755859375</ele>
        <time>2026-06-19T08:07:56.000Z</time>
        <extensions>
          <ns3:TrackPointExtension>
            <ns3:atemp>19.0</ns3:atemp>
          </ns3:TrackPointExtension>
        </extensions>
      </trkpt>
      <trkpt lat="42.5122516416013240814208984375" lon="19.9836869537830352783203125">
        <ele>1631.199951171875</ele>
        <time>2026-06-19T08:07:57.000Z</time>
        <extensions>
          <ns3:TrackPointExtension>
            <ns3:atemp>19.0</ns3:atemp>
          </ns3:TrackPointExtension>
        </extensions>
      </trkpt>
      <trkpt lat="42.5122516416013240814208984375" lon="19.9836869537830352783203125">
        <ele>1631</ele>
        <time>2026-06-19T08:07:58.000Z</time>
        <extensions>
          <ns3:TrackPointExtension>
            <ns3:atemp>19.0</ns3:atemp>
          </ns3:TrackPointExtension>
        </extensions>
      </trkpt>
      <trkpt lat="42.5122516416013240814208984375" lon="19.9836869537830352783203125">
        <ele>1630.800048828125</ele>
        <time>2026-06-19T08:07:59.000Z</time>
        <extensions>
          <ns3:TrackPointExtension>
            <ns3:atemp>19.0</ns3:atemp>
          </ns3:TrackPointExtension>
        </extensions>
      </trkpt>
      <trkpt lat="42.5122516416013240814208984375" lon="19.9836869537830352783203125">
        <ele>1630.800048828125</ele>
        <time>2026-06-19T08:08:00.000Z</time>
        <extensions>
          <ns3:TrackPointExtension>
            <ns3:atemp>19.0</ns3:atemp>
          </ns3:TrackPointExtension>
        </extensions>
      </trkpt>
      <trkpt lat="42.5122516416013240814208984375" lon="19.9836869537830352783203125">
        <ele>1630.800048828125</ele>
        <time>2026-06-19T08:08:01.000Z</time>
        <extensions>
          <ns3:TrackPointExtension>
            <ns3:atemp>19.0</ns3:atemp>
          </ns3:TrackPointExtension>
        </extensions>
      </trkpt>
      <trkpt lat="42.5122516416013240814208984375" lon="19.9836869537830352783203125">
        <ele>1630.800048828125</ele>
        <time>2026-06-19T08:08:02.000Z</time>
        <extensions>
          <ns3:TrackPointExtension>
            <ns3:atemp>19.0</ns3:atemp>
          </ns3:TrackPointExtension>
        </extensions>
      </trkpt>
      <trkpt lat="42.5122516416013240814208984375" lon="19.9836869537830352783203125">
        <ele>1630.800048828125</ele>
        <time>2026-06-19T08:08:03.000Z</time>
        <extensions>
          <ns3:TrackPointExtension>
            <ns3:atemp>19.0</ns3:atemp>
          </ns3:TrackPointExtension>
        </extensions>
      </trkpt>
      <trkpt lat="42.5122516416013240814208984375" lon="19.9836869537830352783203125">
        <ele>1630.800048828125</ele>
        <time>2026-06-19T08:08:04.000Z</time>
        <extensions>
          <ns3:TrackPointExtension>
            <ns3:atemp>19.0</ns3:atemp>
          </ns3:TrackPointExtension>
        </extensions>
      </trkpt>
      <trkpt lat="42.5122516416013240814208984375" lon="19.9836869537830352783203125">
        <ele>1630.800048828125</ele>
        <time>2026-06-19T08:08:05.000Z</time>
        <extensions>
          <ns3:TrackPointExtension>
            <ns3:atemp>19.0</ns3:atemp>
          </ns3:TrackPointExtension>
        </extensions>
      </trkpt>
      <trkpt lat="42.5122516416013240814208984375" lon="19.9836869537830352783203125">
        <ele>1630.800048828125</ele>
        <time>2026-06-19T08:08:06.000Z</time>
        <extensions>
          <ns3:TrackPointExtension>
            <ns3:atemp>19.0</ns3:atemp>
          </ns3:TrackPointExtension>
        </extensions>
      </trkpt>
      <trkpt lat="42.5122516416013240814208984375" lon="19.9836869537830352783203125">
        <ele>1630.800048828125</ele>
        <time>2026-06-19T08:08:07.000Z</time>
        <extensions>
          <ns3:TrackPointExtension>
            <ns3:atemp>19.0</ns3:atemp>
          </ns3:TrackPointExtension>
        </extensions>
      </trkpt>
      <trkpt lat="42.5122516416013240814208984375" lon="19.9836869537830352783203125">
        <ele>1630.5999755859375</ele>
        <time>2026-06-19T08:08:08.000Z</time>
        <extensions>
          <ns3:TrackPointExtension>
            <ns3:atemp>19.0</ns3:atemp>
          </ns3:TrackPointExtension>
        </extensions>
      </trkpt>
      <trkpt lat="42.5122516416013240814208984375" lon="19.9836869537830352783203125">
        <ele>1630.5999755859375</ele>
        <time>2026-06-19T08:08:09.000Z</time>
        <extensions>
          <ns3:TrackPointExtension>
            <ns3:atemp>19.0</ns3:atemp>
          </ns3:TrackPointExtension>
        </extensions>
      </trkpt>
      <trkpt lat="42.5122516416013240814208984375" lon="19.9836869537830352783203125">
        <ele>1630.5999755859375</ele>
        <time>2026-06-19T08:08:10.000Z</time>
        <extensions>
          <ns3:TrackPointExtension>
            <ns3:atemp>19.0</ns3:atemp>
          </ns3:TrackPointExtension>
        </extensions>
      </trkpt>
      <trkpt lat="42.5122516416013240814208984375" lon="19.9836869537830352783203125">
        <ele>1630.5999755859375</ele>
        <time>2026-06-19T08:08:11.000Z</time>
        <extensions>
          <ns3:TrackPointExtension>
            <ns3:atemp>19.0</ns3:atemp>
          </ns3:TrackPointExtension>
        </extensions>
      </trkpt>
      <trkpt lat="42.5122516416013240814208984375" lon="19.9836869537830352783203125">
        <ele>1630.5999755859375</ele>
        <time>2026-06-19T08:08:12.000Z</time>
        <extensions>
          <ns3:TrackPointExtension>
            <ns3:atemp>19.0</ns3:atemp>
          </ns3:TrackPointExtension>
        </extensions>
      </trkpt>
      <trkpt lat="42.5122516416013240814208984375" lon="19.9836869537830352783203125">
        <ele>1630.5999755859375</ele>
        <time>2026-06-19T08:08:13.000Z</time>
        <extensions>
          <ns3:TrackPointExtension>
            <ns3:atemp>19.0</ns3:atemp>
          </ns3:TrackPointExtension>
        </extensions>
      </trkpt>
      <trkpt lat="42.5122516416013240814208984375" lon="19.9836869537830352783203125">
        <ele>1630.5999755859375</ele>
        <time>2026-06-19T08:08:14.000Z</time>
        <extensions>
          <ns3:TrackPointExtension>
            <ns3:atemp>19.0</ns3:atemp>
          </ns3:TrackPointExtension>
        </extensions>
      </trkpt>
      <trkpt lat="42.5122516416013240814208984375" lon="19.9836869537830352783203125">
        <ele>1630.5999755859375</ele>
        <time>2026-06-19T08:08:15.000Z</time>
        <extensions>
          <ns3:TrackPointExtension>
            <ns3:atemp>19.0</ns3:atemp>
          </ns3:TrackPointExtension>
        </extensions>
      </trkpt>
      <trkpt lat="42.5122516416013240814208984375" lon="19.9836869537830352783203125">
        <ele>1630.5999755859375</ele>
        <time>2026-06-19T08:08:16.000Z</time>
        <extensions>
          <ns3:TrackPointExtension>
            <ns3:atemp>19.0</ns3:atemp>
          </ns3:TrackPointExtension>
        </extensions>
      </trkpt>
      <trkpt lat="42.5122516416013240814208984375" lon="19.9836869537830352783203125">
        <ele>1630.5999755859375</ele>
        <time>2026-06-19T08:08:17.000Z</time>
        <extensions>
          <ns3:TrackPointExtension>
            <ns3:atemp>19.0</ns3:atemp>
          </ns3:TrackPointExtension>
        </extensions>
      </trkpt>
      <trkpt lat="42.5122516416013240814208984375" lon="19.9836869537830352783203125">
        <ele>1630.5999755859375</ele>
        <time>2026-06-19T08:08:18.000Z</time>
        <extensions>
          <ns3:TrackPointExtension>
            <ns3:atemp>19.0</ns3:atemp>
          </ns3:TrackPointExtension>
        </extensions>
      </trkpt>
      <trkpt lat="42.5122516416013240814208984375" lon="19.9836869537830352783203125">
        <ele>1630.5999755859375</ele>
        <time>2026-06-19T08:08:19.000Z</time>
        <extensions>
          <ns3:TrackPointExtension>
            <ns3:atemp>19.0</ns3:atemp>
          </ns3:TrackPointExtension>
        </extensions>
      </trkpt>
      <trkpt lat="42.5122516416013240814208984375" lon="19.9836869537830352783203125">
        <ele>1630.5999755859375</ele>
        <time>2026-06-19T08:08:20.000Z</time>
        <extensions>
          <ns3:TrackPointExtension>
            <ns3:atemp>19.0</ns3:atemp>
          </ns3:TrackPointExtension>
        </extensions>
      </trkpt>
      <trkpt lat="42.5122516416013240814208984375" lon="19.9836869537830352783203125">
        <ele>1630.5999755859375</ele>
        <time>2026-06-19T08:08:21.000Z</time>
        <extensions>
          <ns3:TrackPointExtension>
            <ns3:atemp>19.0</ns3:atemp>
          </ns3:TrackPointExtension>
        </extensions>
      </trkpt>
      <trkpt lat="42.5122516416013240814208984375" lon="19.9836869537830352783203125">
        <ele>1630.4000244140625</ele>
        <time>2026-06-19T08:08:22.000Z</time>
        <extensions>
          <ns3:TrackPointExtension>
            <ns3:atemp>19.0</ns3:atemp>
          </ns3:TrackPointExtension>
        </extensions>
      </trkpt>
      <trkpt lat="42.5122516416013240814208984375" lon="19.9836869537830352783203125">
        <ele>1630.4000244140625</ele>
        <time>2026-06-19T08:08:23.000Z</time>
        <extensions>
          <ns3:TrackPointExtension>
            <ns3:atemp>19.0</ns3:atemp>
          </ns3:TrackPointExtension>
        </extensions>
      </trkpt>
      <trkpt lat="42.5122516416013240814208984375" lon="19.9836869537830352783203125">
        <ele>1630.5999755859375</ele>
        <time>2026-06-19T08:08:24.000Z</time>
        <extensions>
          <ns3:TrackPointExtension>
            <ns3:atemp>19.0</ns3:atemp>
          </ns3:TrackPointExtension>
        </extensions>
      </trkpt>
      <trkpt lat="42.5122516416013240814208984375" lon="19.9836869537830352783203125">
        <ele>1630.5999755859375</ele>
        <time>2026-06-19T08:08:25.000Z</time>
        <extensions>
          <ns3:TrackPointExtension>
            <ns3:atemp>19.0</ns3:atemp>
          </ns3:TrackPointExtension>
        </extensions>
      </trkpt>
      <trkpt lat="42.5122516416013240814208984375" lon="19.9836869537830352783203125">
        <ele>1630.5999755859375</ele>
        <time>2026-06-19T08:08:26.000Z</time>
        <extensions>
          <ns3:TrackPointExtension>
            <ns3:atemp>19.0</ns3:atemp>
          </ns3:TrackPointExtension>
        </extensions>
      </trkpt>
      <trkpt lat="42.5122516416013240814208984375" lon="19.9836869537830352783203125">
        <ele>1630.5999755859375</ele>
        <time>2026-06-19T08:08:27.000Z</time>
        <extensions>
          <ns3:TrackPointExtension>
            <ns3:atemp>19.0</ns3:atemp>
          </ns3:TrackPointExtension>
        </extensions>
      </trkpt>
      <trkpt lat="42.5122516416013240814208984375" lon="19.9836869537830352783203125">
        <ele>1630.800048828125</ele>
        <time>2026-06-19T08:08:28.000Z</time>
        <extensions>
          <ns3:TrackPointExtension>
            <ns3:atemp>19.0</ns3:atemp>
          </ns3:TrackPointExtension>
        </extensions>
      </trkpt>
      <trkpt lat="42.5122516416013240814208984375" lon="19.9836869537830352783203125">
        <ele>1630.800048828125</ele>
        <time>2026-06-19T08:08:29.000Z</time>
        <extensions>
          <ns3:TrackPointExtension>
            <ns3:atemp>19.0</ns3:atemp>
          </ns3:TrackPointExtension>
        </extensions>
      </trkpt>
      <trkpt lat="42.5122516416013240814208984375" lon="19.9836869537830352783203125">
        <ele>1631</ele>
        <time>2026-06-19T08:08:30.000Z</time>
        <extensions>
          <ns3:TrackPointExtension>
            <ns3:atemp>19.0</ns3:atemp>
          </ns3:TrackPointExtension>
        </extensions>
      </trkpt>
      <trkpt lat="42.5122516416013240814208984375" lon="19.9836869537830352783203125">
        <ele>1631</ele>
        <time>2026-06-19T08:08:31.000Z</time>
        <extensions>
          <ns3:TrackPointExtension>
            <ns3:atemp>19.0</ns3:atemp>
          </ns3:TrackPointExtension>
        </extensions>
      </trkpt>
      <trkpt lat="42.5122516416013240814208984375" lon="19.9836869537830352783203125">
        <ele>1631</ele>
        <time>2026-06-19T08:08:32.000Z</time>
        <extensions>
          <ns3:TrackPointExtension>
            <ns3:atemp>19.0</ns3:atemp>
          </ns3:TrackPointExtension>
        </extensions>
      </trkpt>
      <trkpt lat="42.5122516416013240814208984375" lon="19.9836869537830352783203125">
        <ele>1631</ele>
        <time>2026-06-19T08:08:33.000Z</time>
        <extensions>
          <ns3:TrackPointExtension>
            <ns3:atemp>19.0</ns3:atemp>
          </ns3:TrackPointExtension>
        </extensions>
      </trkpt>
      <trkpt lat="42.5122516416013240814208984375" lon="19.9836869537830352783203125">
        <ele>1631</ele>
        <time>2026-06-19T08:08:34.000Z</time>
        <extensions>
          <ns3:TrackPointExtension>
            <ns3:atemp>19.0</ns3:atemp>
          </ns3:TrackPointExtension>
        </extensions>
      </trkpt>
      <trkpt lat="42.5122516416013240814208984375" lon="19.9836869537830352783203125">
        <ele>1631</ele>
        <time>2026-06-19T08:08:35.000Z</time>
        <extensions>
          <ns3:TrackPointExtension>
            <ns3:atemp>19.0</ns3:atemp>
          </ns3:TrackPointExtension>
        </extensions>
      </trkpt>
      <trkpt lat="42.5122516416013240814208984375" lon="19.9836869537830352783203125">
        <ele>1631</ele>
        <time>2026-06-19T08:08:36.000Z</time>
        <extensions>
          <ns3:TrackPointExtension>
            <ns3:atemp>19.0</ns3:atemp>
          </ns3:TrackPointExtension>
        </extensions>
      </trkpt>
      <trkpt lat="42.5122516416013240814208984375" lon="19.9836869537830352783203125">
        <ele>1631</ele>
        <time>2026-06-19T08:08:37.000Z</time>
        <extensions>
          <ns3:TrackPointExtension>
            <ns3:atemp>19.0</ns3:atemp>
          </ns3:TrackPointExtension>
        </extensions>
      </trkpt>
      <trkpt lat="42.5122516416013240814208984375" lon="19.9836869537830352783203125">
        <ele>1631</ele>
        <time>2026-06-19T08:08:38.000Z</time>
        <extensions>
          <ns3:TrackPointExtension>
            <ns3:atemp>19.0</ns3:atemp>
          </ns3:TrackPointExtension>
        </extensions>
      </trkpt>
      <trkpt lat="42.5122516416013240814208984375" lon="19.9836869537830352783203125">
        <ele>1631</ele>
        <time>2026-06-19T08:08:39.000Z</time>
        <extensions>
          <ns3:TrackPointExtension>
            <ns3:atemp>19.0</ns3:atemp>
          </ns3:TrackPointExtension>
        </extensions>
      </trkpt>
      <trkpt lat="42.5122516416013240814208984375" lon="19.9836869537830352783203125">
        <ele>1631</ele>
        <time>2026-06-19T08:08:40.000Z</time>
        <extensions>
          <ns3:TrackPointExtension>
            <ns3:atemp>19.0</ns3:atemp>
          </ns3:TrackPointExtension>
        </extensions>
      </trkpt>
      <trkpt lat="42.5122516416013240814208984375" lon="19.9836869537830352783203125">
        <ele>1631</ele>
        <time>2026-06-19T08:08:41.000Z</time>
        <extensions>
          <ns3:TrackPointExtension>
            <ns3:atemp>19.0</ns3:atemp>
          </ns3:TrackPointExtension>
        </extensions>
      </trkpt>
      <trkpt lat="42.5122516416013240814208984375" lon="19.9836869537830352783203125">
        <ele>1631</ele>
        <time>2026-06-19T08:08:42.000Z</time>
        <extensions>
          <ns3:TrackPointExtension>
            <ns3:atemp>19.0</ns3:atemp>
          </ns3:TrackPointExtension>
        </extensions>
      </trkpt>
      <trkpt lat="42.5122516416013240814208984375" lon="19.9836869537830352783203125">
        <ele>1631</ele>
        <time>2026-06-19T08:08:43.000Z</time>
        <extensions>
          <ns3:TrackPointExtension>
            <ns3:atemp>19.0</ns3:atemp>
          </ns3:TrackPointExtension>
        </extensions>
      </trkpt>
      <trkpt lat="42.5122516416013240814208984375" lon="19.9836869537830352783203125">
        <ele>1631</ele>
        <time>2026-06-19T08:08:44.000Z</time>
        <extensions>
          <ns3:TrackPointExtension>
            <ns3:atemp>19.0</ns3:atemp>
          </ns3:TrackPointExtension>
        </extensions>
      </trkpt>
      <trkpt lat="42.5122516416013240814208984375" lon="19.9836869537830352783203125">
        <ele>1631</ele>
        <time>2026-06-19T08:08:45.000Z</time>
        <extensions>
          <ns3:TrackPointExtension>
            <ns3:atemp>19.0</ns3:atemp>
          </ns3:TrackPointExtension>
        </extensions>
      </trkpt>
      <trkpt lat="42.5122516416013240814208984375" lon="19.9836869537830352783203125">
        <ele>1631</ele>
        <time>2026-06-19T08:08:46.000Z</time>
        <extensions>
          <ns3:TrackPointExtension>
            <ns3:atemp>19.0</ns3:atemp>
          </ns3:TrackPointExtension>
        </extensions>
      </trkpt>
      <trkpt lat="42.5122516416013240814208984375" lon="19.9836869537830352783203125">
        <ele>1631</ele>
        <time>2026-06-19T08:08:47.000Z</time>
        <extensions>
          <ns3:TrackPointExtension>
            <ns3:atemp>19.0</ns3:atemp>
          </ns3:TrackPointExtension>
        </extensions>
      </trkpt>
      <trkpt lat="42.5122516416013240814208984375" lon="19.9836869537830352783203125">
        <ele>1631</ele>
        <time>2026-06-19T08:08:48.000Z</time>
        <extensions>
          <ns3:TrackPointExtension>
            <ns3:atemp>19.0</ns3:atemp>
          </ns3:TrackPointExtension>
        </extensions>
      </trkpt>
      <trkpt lat="42.5122516416013240814208984375" lon="19.9836869537830352783203125">
        <ele>1630.800048828125</ele>
        <time>2026-06-19T08:08:49.000Z</time>
        <extensions>
          <ns3:TrackPointExtension>
            <ns3:atemp>19.0</ns3:atemp>
          </ns3:TrackPointExtension>
        </extensions>
      </trkpt>
      <trkpt lat="42.5122516416013240814208984375" lon="19.9836869537830352783203125">
        <ele>1630.800048828125</ele>
        <time>2026-06-19T08:08:50.000Z</time>
        <extensions>
          <ns3:TrackPointExtension>
            <ns3:atemp>19.0</ns3:atemp>
          </ns3:TrackPointExtension>
        </extensions>
      </trkpt>
      <trkpt lat="42.5122516416013240814208984375" lon="19.9836869537830352783203125">
        <ele>1630.800048828125</ele>
        <time>2026-06-19T08:08:51.000Z</time>
        <extensions>
          <ns3:TrackPointExtension>
            <ns3:atemp>19.0</ns3:atemp>
          </ns3:TrackPointExtension>
        </extensions>
      </trkpt>
      <trkpt lat="42.5122516416013240814208984375" lon="19.9836869537830352783203125">
        <ele>1630.800048828125</ele>
        <time>2026-06-19T08:08:52.000Z</time>
        <extensions>
          <ns3:TrackPointExtension>
            <ns3:atemp>19.0</ns3:atemp>
          </ns3:TrackPointExtension>
        </extensions>
      </trkpt>
      <trkpt lat="42.5122516416013240814208984375" lon="19.9836869537830352783203125">
        <ele>1630.800048828125</ele>
        <time>2026-06-19T08:08:53.000Z</time>
        <extensions>
          <ns3:TrackPointExtension>
            <ns3:atemp>19.0</ns3:atemp>
          </ns3:TrackPointExtension>
        </extensions>
      </trkpt>
      <trkpt lat="42.5122516416013240814208984375" lon="19.9836869537830352783203125">
        <ele>1630.800048828125</ele>
        <time>2026-06-19T08:08:54.000Z</time>
        <extensions>
          <ns3:TrackPointExtension>
            <ns3:atemp>19.0</ns3:atemp>
          </ns3:TrackPointExtension>
        </extensions>
      </trkpt>
      <trkpt lat="42.5122516416013240814208984375" lon="19.9836869537830352783203125">
        <ele>1630.800048828125</ele>
        <time>2026-06-19T08:08:55.000Z</time>
        <extensions>
          <ns3:TrackPointExtension>
            <ns3:atemp>19.0</ns3:atemp>
          </ns3:TrackPointExtension>
        </extensions>
      </trkpt>
      <trkpt lat="42.5122516416013240814208984375" lon="19.9836869537830352783203125">
        <ele>1630.800048828125</ele>
        <time>2026-06-19T08:08:56.000Z</time>
        <extensions>
          <ns3:TrackPointExtension>
            <ns3:atemp>19.0</ns3:atemp>
          </ns3:TrackPointExtension>
        </extensions>
      </trkpt>
      <trkpt lat="42.5122516416013240814208984375" lon="19.9836869537830352783203125">
        <ele>1630.800048828125</ele>
        <time>2026-06-19T08:08:57.000Z</time>
        <extensions>
          <ns3:TrackPointExtension>
            <ns3:atemp>19.0</ns3:atemp>
          </ns3:TrackPointExtension>
        </extensions>
      </trkpt>
      <trkpt lat="42.5122516416013240814208984375" lon="19.9836869537830352783203125">
        <ele>1631</ele>
        <time>2026-06-19T08:08:58.000Z</time>
        <extensions>
          <ns3:TrackPointExtension>
            <ns3:atemp>19.0</ns3:atemp>
          </ns3:TrackPointExtension>
        </extensions>
      </trkpt>
      <trkpt lat="42.5122516416013240814208984375" lon="19.9836869537830352783203125">
        <ele>1631</ele>
        <time>2026-06-19T08:08:59.000Z</time>
        <extensions>
          <ns3:TrackPointExtension>
            <ns3:atemp>19.0</ns3:atemp>
          </ns3:TrackPointExtension>
        </extensions>
      </trkpt>
      <trkpt lat="42.5122516416013240814208984375" lon="19.9836869537830352783203125">
        <ele>1631</ele>
        <time>2026-06-19T08:09:00.000Z</time>
        <extensions>
          <ns3:TrackPointExtension>
            <ns3:atemp>19.0</ns3:atemp>
          </ns3:TrackPointExtension>
        </extensions>
      </trkpt>
      <trkpt lat="42.5122516416013240814208984375" lon="19.9836869537830352783203125">
        <ele>1631</ele>
        <time>2026-06-19T08:09:01.000Z</time>
        <extensions>
          <ns3:TrackPointExtension>
            <ns3:atemp>19.0</ns3:atemp>
          </ns3:TrackPointExtension>
        </extensions>
      </trkpt>
      <trkpt lat="42.5122516416013240814208984375" lon="19.9836869537830352783203125">
        <ele>1630.800048828125</ele>
        <time>2026-06-19T08:09:02.000Z</time>
        <extensions>
          <ns3:TrackPointExtension>
            <ns3:atemp>19.0</ns3:atemp>
          </ns3:TrackPointExtension>
        </extensions>
      </trkpt>
      <trkpt lat="42.5122516416013240814208984375" lon="19.9836869537830352783203125">
        <ele>1630.800048828125</ele>
        <time>2026-06-19T08:09:03.000Z</time>
        <extensions>
          <ns3:TrackPointExtension>
            <ns3:atemp>19.0</ns3:atemp>
          </ns3:TrackPointExtension>
        </extensions>
      </trkpt>
      <trkpt lat="42.5122516416013240814208984375" lon="19.9836869537830352783203125">
        <ele>1630.800048828125</ele>
        <time>2026-06-19T08:09:04.000Z</time>
        <extensions>
          <ns3:TrackPointExtension>
            <ns3:atemp>19.0</ns3:atemp>
          </ns3:TrackPointExtension>
        </extensions>
      </trkpt>
      <trkpt lat="42.5122516416013240814208984375" lon="19.9836869537830352783203125">
        <ele>1630.5999755859375</ele>
        <time>2026-06-19T08:09:05.000Z</time>
        <extensions>
          <ns3:TrackPointExtension>
            <ns3:atemp>19.0</ns3:atemp>
          </ns3:TrackPointExtension>
        </extensions>
      </trkpt>
      <trkpt lat="42.5122516416013240814208984375" lon="19.9836869537830352783203125">
        <ele>1630.5999755859375</ele>
        <time>2026-06-19T08:09:06.000Z</time>
        <extensions>
          <ns3:TrackPointExtension>
            <ns3:atemp>19.0</ns3:atemp>
          </ns3:TrackPointExtension>
        </extensions>
      </trkpt>
      <trkpt lat="42.5122516416013240814208984375" lon="19.9836869537830352783203125">
        <ele>1630.5999755859375</ele>
        <time>2026-06-19T08:09:07.000Z</time>
        <extensions>
          <ns3:TrackPointExtension>
            <ns3:atemp>19.0</ns3:atemp>
          </ns3:TrackPointExtension>
        </extensions>
      </trkpt>
      <trkpt lat="42.5122516416013240814208984375" lon="19.9836869537830352783203125">
        <ele>1630.5999755859375</ele>
        <time>2026-06-19T08:09:08.000Z</time>
        <extensions>
          <ns3:TrackPointExtension>
            <ns3:atemp>19.0</ns3:atemp>
          </ns3:TrackPointExtension>
        </extensions>
      </trkpt>
      <trkpt lat="42.5122516416013240814208984375" lon="19.9836869537830352783203125">
        <ele>1630.5999755859375</ele>
        <time>2026-06-19T08:09:09.000Z</time>
        <extensions>
          <ns3:TrackPointExtension>
            <ns3:atemp>19.0</ns3:atemp>
          </ns3:TrackPointExtension>
        </extensions>
      </trkpt>
      <trkpt lat="42.5122516416013240814208984375" lon="19.9836869537830352783203125">
        <ele>1630.5999755859375</ele>
        <time>2026-06-19T08:09:10.000Z</time>
        <extensions>
          <ns3:TrackPointExtension>
            <ns3:atemp>19.0</ns3:atemp>
          </ns3:TrackPointExtension>
        </extensions>
      </trkpt>
      <trkpt lat="42.5122516416013240814208984375" lon="19.9836869537830352783203125">
        <ele>1630.800048828125</ele>
        <time>2026-06-19T08:09:11.000Z</time>
        <extensions>
          <ns3:TrackPointExtension>
            <ns3:atemp>19.0</ns3:atemp>
          </ns3:TrackPointExtension>
        </extensions>
      </trkpt>
      <trkpt lat="42.5122516416013240814208984375" lon="19.9836869537830352783203125">
        <ele>1630.800048828125</ele>
        <time>2026-06-19T08:09:12.000Z</time>
        <extensions>
          <ns3:TrackPointExtension>
            <ns3:atemp>19.0</ns3:atemp>
          </ns3:TrackPointExtension>
        </extensions>
      </trkpt>
      <trkpt lat="42.5122516416013240814208984375" lon="19.9836869537830352783203125">
        <ele>1630.800048828125</ele>
        <time>2026-06-19T08:09:13.000Z</time>
        <extensions>
          <ns3:TrackPointExtension>
            <ns3:atemp>19.0</ns3:atemp>
          </ns3:TrackPointExtension>
        </extensions>
      </trkpt>
      <trkpt lat="42.5122516416013240814208984375" lon="19.9836869537830352783203125">
        <ele>1631</ele>
        <time>2026-06-19T08:09:14.000Z</time>
        <extensions>
          <ns3:TrackPointExtension>
            <ns3:atemp>19.0</ns3:atemp>
          </ns3:TrackPointExtension>
        </extensions>
      </trkpt>
      <trkpt lat="42.5122516416013240814208984375" lon="19.9836869537830352783203125">
        <ele>1631</ele>
        <time>2026-06-19T08:09:15.000Z</time>
        <extensions>
          <ns3:TrackPointExtension>
            <ns3:atemp>19.0</ns3:atemp>
          </ns3:TrackPointExtension>
        </extensions>
      </trkpt>
      <trkpt lat="42.5122516416013240814208984375" lon="19.9836869537830352783203125">
        <ele>1631</ele>
        <time>2026-06-19T08:09:16.000Z</time>
        <extensions>
          <ns3:TrackPointExtension>
            <ns3:atemp>19.0</ns3:atemp>
          </ns3:TrackPointExtension>
        </extensions>
      </trkpt>
      <trkpt lat="42.5122516416013240814208984375" lon="19.9836869537830352783203125">
        <ele>1631</ele>
        <time>2026-06-19T08:09:17.000Z</time>
        <extensions>
          <ns3:TrackPointExtension>
            <ns3:atemp>19.0</ns3:atemp>
          </ns3:TrackPointExtension>
        </extensions>
      </trkpt>
      <trkpt lat="42.5122516416013240814208984375" lon="19.9836869537830352783203125">
        <ele>1631</ele>
        <time>2026-06-19T08:09:18.000Z</time>
        <extensions>
          <ns3:TrackPointExtension>
            <ns3:atemp>19.0</ns3:atemp>
          </ns3:TrackPointExtension>
        </extensions>
      </trkpt>
      <trkpt lat="42.5122516416013240814208984375" lon="19.9836869537830352783203125">
        <ele>1631</ele>
        <time>2026-06-19T08:09:19.000Z</time>
        <extensions>
          <ns3:TrackPointExtension>
            <ns3:atemp>19.0</ns3:atemp>
          </ns3:TrackPointExtension>
        </extensions>
      </trkpt>
      <trkpt lat="42.5122516416013240814208984375" lon="19.9836869537830352783203125">
        <ele>1631</ele>
        <time>2026-06-19T08:09:20.000Z</time>
        <extensions>
          <ns3:TrackPointExtension>
            <ns3:atemp>19.0</ns3:atemp>
          </ns3:TrackPointExtension>
        </extensions>
      </trkpt>
      <trkpt lat="42.5122516416013240814208984375" lon="19.9836869537830352783203125">
        <ele>1631</ele>
        <time>2026-06-19T08:09:21.000Z</time>
        <extensions>
          <ns3:TrackPointExtension>
            <ns3:atemp>19.0</ns3:atemp>
          </ns3:TrackPointExtension>
        </extensions>
      </trkpt>
      <trkpt lat="42.5122516416013240814208984375" lon="19.9836869537830352783203125">
        <ele>1631</ele>
        <time>2026-06-19T08:09:22.000Z</time>
        <extensions>
          <ns3:TrackPointExtension>
            <ns3:atemp>19.0</ns3:atemp>
          </ns3:TrackPointExtension>
        </extensions>
      </trkpt>
      <trkpt lat="42.5122516416013240814208984375" lon="19.9836869537830352783203125">
        <ele>1631</ele>
        <time>2026-06-19T08:09:23.000Z</time>
        <extensions>
          <ns3:TrackPointExtension>
            <ns3:atemp>19.0</ns3:atemp>
          </ns3:TrackPointExtension>
        </extensions>
      </trkpt>
      <trkpt lat="42.5122516416013240814208984375" lon="19.9836869537830352783203125">
        <ele>1631</ele>
        <time>2026-06-19T08:09:24.000Z</time>
        <extensions>
          <ns3:TrackPointExtension>
            <ns3:atemp>19.0</ns3:atemp>
          </ns3:TrackPointExtension>
        </extensions>
      </trkpt>
      <trkpt lat="42.5122516416013240814208984375" lon="19.9836869537830352783203125">
        <ele>1631</ele>
        <time>2026-06-19T08:09:25.000Z</time>
        <extensions>
          <ns3:TrackPointExtension>
            <ns3:atemp>19.0</ns3:atemp>
          </ns3:TrackPointExtension>
        </extensions>
      </trkpt>
      <trkpt lat="42.5122516416013240814208984375" lon="19.9836869537830352783203125">
        <ele>1631</ele>
        <time>2026-06-19T08:09:26.000Z</time>
        <extensions>
          <ns3:TrackPointExtension>
            <ns3:atemp>19.0</ns3:atemp>
          </ns3:TrackPointExtension>
        </extensions>
      </trkpt>
      <trkpt lat="42.5122516416013240814208984375" lon="19.9836869537830352783203125">
        <ele>1630.800048828125</ele>
        <time>2026-06-19T08:09:27.000Z</time>
        <extensions>
          <ns3:TrackPointExtension>
            <ns3:atemp>20.0</ns3:atemp>
          </ns3:TrackPointExtension>
        </extensions>
      </trkpt>
      <trkpt lat="42.5122516416013240814208984375" lon="19.9836869537830352783203125">
        <ele>1630.800048828125</ele>
        <time>2026-06-19T08:09:28.000Z</time>
        <extensions>
          <ns3:TrackPointExtension>
            <ns3:atemp>19.0</ns3:atemp>
          </ns3:TrackPointExtension>
        </extensions>
      </trkpt>
      <trkpt lat="42.5122516416013240814208984375" lon="19.9836869537830352783203125">
        <ele>1630.800048828125</ele>
        <time>2026-06-19T08:09:29.000Z</time>
        <extensions>
          <ns3:TrackPointExtension>
            <ns3:atemp>19.0</ns3:atemp>
          </ns3:TrackPointExtension>
        </extensions>
      </trkpt>
      <trkpt lat="42.5122516416013240814208984375" lon="19.9836869537830352783203125">
        <ele>1631</ele>
        <time>2026-06-19T08:09:30.000Z</time>
        <extensions>
          <ns3:TrackPointExtension>
            <ns3:atemp>19.0</ns3:atemp>
          </ns3:TrackPointExtension>
        </extensions>
      </trkpt>
      <trkpt lat="42.5122516416013240814208984375" lon="19.9836869537830352783203125">
        <ele>1631</ele>
        <time>2026-06-19T08:09:31.000Z</time>
        <extensions>
          <ns3:TrackPointExtension>
            <ns3:atemp>19.0</ns3:atemp>
          </ns3:TrackPointExtension>
        </extensions>
      </trkpt>
      <trkpt lat="42.5122516416013240814208984375" lon="19.9836869537830352783203125">
        <ele>1631</ele>
        <time>2026-06-19T08:09:32.000Z</time>
        <extensions>
          <ns3:TrackPointExtension>
            <ns3:atemp>19.0</ns3:atemp>
          </ns3:TrackPointExtension>
        </extensions>
      </trkpt>
      <trkpt lat="42.5122516416013240814208984375" lon="19.9836869537830352783203125">
        <ele>1631</ele>
        <time>2026-06-19T08:09:33.000Z</time>
        <extensions>
          <ns3:TrackPointExtension>
            <ns3:atemp>19.0</ns3:atemp>
          </ns3:TrackPointExtension>
        </extensions>
      </trkpt>
      <trkpt lat="42.5122516416013240814208984375" lon="19.9836869537830352783203125">
        <ele>1631</ele>
        <time>2026-06-19T08:09:34.000Z</time>
        <extensions>
          <ns3:TrackPointExtension>
            <ns3:atemp>19.0</ns3:atemp>
          </ns3:TrackPointExtension>
        </extensions>
      </trkpt>
      <trkpt lat="42.5122516416013240814208984375" lon="19.9836869537830352783203125">
        <ele>1631</ele>
        <time>2026-06-19T08:09:35.000Z</time>
        <extensions>
          <ns3:TrackPointExtension>
            <ns3:atemp>19.0</ns3:atemp>
          </ns3:TrackPointExtension>
        </extensions>
      </trkpt>
      <trkpt lat="42.5122516416013240814208984375" lon="19.9836869537830352783203125">
        <ele>1631</ele>
        <time>2026-06-19T08:09:36.000Z</time>
        <extensions>
          <ns3:TrackPointExtension>
            <ns3:atemp>19.0</ns3:atemp>
          </ns3:TrackPointExtension>
        </extensions>
      </trkpt>
      <trkpt lat="42.5122516416013240814208984375" lon="19.9836869537830352783203125">
        <ele>1631</ele>
        <time>2026-06-19T08:09:37.000Z</time>
        <extensions>
          <ns3:TrackPointExtension>
            <ns3:atemp>19.0</ns3:atemp>
          </ns3:TrackPointExtension>
        </extensions>
      </trkpt>
      <trkpt lat="42.5122516416013240814208984375" lon="19.9836869537830352783203125">
        <ele>1631</ele>
        <time>2026-06-19T08:09:38.000Z</time>
        <extensions>
          <ns3:TrackPointExtension>
            <ns3:atemp>19.0</ns3:atemp>
          </ns3:TrackPointExtension>
        </extensions>
      </trkpt>
      <trkpt lat="42.5122516416013240814208984375" lon="19.9836869537830352783203125">
        <ele>1631</ele>
        <time>2026-06-19T08:09:39.000Z</time>
        <extensions>
          <ns3:TrackPointExtension>
            <ns3:atemp>19.0</ns3:atemp>
          </ns3:TrackPointExtension>
        </extensions>
      </trkpt>
      <trkpt lat="42.5122516416013240814208984375" lon="19.9836869537830352783203125">
        <ele>1631</ele>
        <time>2026-06-19T08:09:40.000Z</time>
        <extensions>
          <ns3:TrackPointExtension>
            <ns3:atemp>20.0</ns3:atemp>
          </ns3:TrackPointExtension>
        </extensions>
      </trkpt>
      <trkpt lat="42.5122516416013240814208984375" lon="19.9836869537830352783203125">
        <ele>1631</ele>
        <time>2026-06-19T08:09:41.000Z</time>
        <extensions>
          <ns3:TrackPointExtension>
            <ns3:atemp>20.0</ns3:atemp>
          </ns3:TrackPointExtension>
        </extensions>
      </trkpt>
      <trkpt lat="42.5122516416013240814208984375" lon="19.9836869537830352783203125">
        <ele>1631</ele>
        <time>2026-06-19T08:09:42.000Z</time>
        <extensions>
          <ns3:TrackPointExtension>
            <ns3:atemp>20.0</ns3:atemp>
          </ns3:TrackPointExtension>
        </extensions>
      </trkpt>
      <trkpt lat="42.5122516416013240814208984375" lon="19.9836869537830352783203125">
        <ele>1631</ele>
        <time>2026-06-19T08:09:43.000Z</time>
        <extensions>
          <ns3:TrackPointExtension>
            <ns3:atemp>20.0</ns3:atemp>
          </ns3:TrackPointExtension>
        </extensions>
      </trkpt>
      <trkpt lat="42.5122516416013240814208984375" lon="19.9836869537830352783203125">
        <ele>1631</ele>
        <time>2026-06-19T08:09:44.000Z</time>
        <extensions>
          <ns3:TrackPointExtension>
            <ns3:atemp>20.0</ns3:atemp>
          </ns3:TrackPointExtension>
        </extensions>
      </trkpt>
      <trkpt lat="42.5122516416013240814208984375" lon="19.9836869537830352783203125">
        <ele>1631</ele>
        <time>2026-06-19T08:09:45.000Z</time>
        <extensions>
          <ns3:TrackPointExtension>
            <ns3:atemp>20.0</ns3:atemp>
          </ns3:TrackPointExtension>
        </extensions>
      </trkpt>
      <trkpt lat="42.5122516416013240814208984375" lon="19.9836869537830352783203125">
        <ele>1631</ele>
        <time>2026-06-19T08:09:46.000Z</time>
        <extensions>
          <ns3:TrackPointExtension>
            <ns3:atemp>20.0</ns3:atemp>
          </ns3:TrackPointExtension>
        </extensions>
      </trkpt>
      <trkpt lat="42.5122516416013240814208984375" lon="19.9836869537830352783203125">
        <ele>1631.199951171875</ele>
        <time>2026-06-19T08:09:47.000Z</time>
        <extensions>
          <ns3:TrackPointExtension>
            <ns3:atemp>20.0</ns3:atemp>
          </ns3:TrackPointExtension>
        </extensions>
      </trkpt>
      <trkpt lat="42.5122516416013240814208984375" lon="19.9836869537830352783203125">
        <ele>1631.199951171875</ele>
        <time>2026-06-19T08:09:48.000Z</time>
        <extensions>
          <ns3:TrackPointExtension>
            <ns3:atemp>20.0</ns3:atemp>
          </ns3:TrackPointExtension>
        </extensions>
      </trkpt>
      <trkpt lat="42.5122516416013240814208984375" lon="19.9836869537830352783203125">
        <ele>1631.199951171875</ele>
        <time>2026-06-19T08:09:49.000Z</time>
        <extensions>
          <ns3:TrackPointExtension>
            <ns3:atemp>20.0</ns3:atemp>
          </ns3:TrackPointExtension>
        </extensions>
      </trkpt>
      <trkpt lat="42.5122516416013240814208984375" lon="19.9836869537830352783203125">
        <ele>1631.199951171875</ele>
        <time>2026-06-19T08:09:50.000Z</time>
        <extensions>
          <ns3:TrackPointExtension>
            <ns3:atemp>20.0</ns3:atemp>
          </ns3:TrackPointExtension>
        </extensions>
      </trkpt>
      <trkpt lat="42.5122516416013240814208984375" lon="19.9836869537830352783203125">
        <ele>1631.199951171875</ele>
        <time>2026-06-19T08:09:51.000Z</time>
        <extensions>
          <ns3:TrackPointExtension>
            <ns3:atemp>20.0</ns3:atemp>
          </ns3:TrackPointExtension>
        </extensions>
      </trkpt>
      <trkpt lat="42.5122516416013240814208984375" lon="19.9836869537830352783203125">
        <ele>1631.199951171875</ele>
        <time>2026-06-19T08:09:52.000Z</time>
        <extensions>
          <ns3:TrackPointExtension>
            <ns3:atemp>20.0</ns3:atemp>
          </ns3:TrackPointExtension>
        </extensions>
      </trkpt>
      <trkpt lat="42.5122516416013240814208984375" lon="19.9836869537830352783203125">
        <ele>1631.199951171875</ele>
        <time>2026-06-19T08:09:53.000Z</time>
        <extensions>
          <ns3:TrackPointExtension>
            <ns3:atemp>20.0</ns3:atemp>
          </ns3:TrackPointExtension>
        </extensions>
      </trkpt>
      <trkpt lat="42.5122516416013240814208984375" lon="19.9836869537830352783203125">
        <ele>1631.199951171875</ele>
        <time>2026-06-19T08:09:54.000Z</time>
        <extensions>
          <ns3:TrackPointExtension>
            <ns3:atemp>20.0</ns3:atemp>
          </ns3:TrackPointExtension>
        </extensions>
      </trkpt>
      <trkpt lat="42.5122516416013240814208984375" lon="19.9836869537830352783203125">
        <ele>1631.199951171875</ele>
        <time>2026-06-19T08:09:55.000Z</time>
        <extensions>
          <ns3:TrackPointExtension>
            <ns3:atemp>20.0</ns3:atemp>
          </ns3:TrackPointExtension>
        </extensions>
      </trkpt>
      <trkpt lat="42.5122516416013240814208984375" lon="19.9836869537830352783203125">
        <ele>1631.4000244140625</ele>
        <time>2026-06-19T08:09:56.000Z</time>
        <extensions>
          <ns3:TrackPointExtension>
            <ns3:atemp>20.0</ns3:atemp>
          </ns3:TrackPointExtension>
        </extensions>
      </trkpt>
      <trkpt lat="42.5122516416013240814208984375" lon="19.9836869537830352783203125">
        <ele>1631.4000244140625</ele>
        <time>2026-06-19T08:09:57.000Z</time>
        <extensions>
          <ns3:TrackPointExtension>
            <ns3:atemp>20.0</ns3:atemp>
          </ns3:TrackPointExtension>
        </extensions>
      </trkpt>
      <trkpt lat="42.5122516416013240814208984375" lon="19.9836869537830352783203125">
        <ele>1631.199951171875</ele>
        <time>2026-06-19T08:09:58.000Z</time>
        <extensions>
          <ns3:TrackPointExtension>
            <ns3:atemp>20.0</ns3:atemp>
          </ns3:TrackPointExtension>
        </extensions>
      </trkpt>
      <trkpt lat="42.5122516416013240814208984375" lon="19.9836869537830352783203125">
        <ele>1631.199951171875</ele>
        <time>2026-06-19T08:09:59.000Z</time>
        <extensions>
          <ns3:TrackPointExtension>
            <ns3:atemp>20.0</ns3:atemp>
          </ns3:TrackPointExtension>
        </extensions>
      </trkpt>
      <trkpt lat="42.5122516416013240814208984375" lon="19.9836869537830352783203125">
        <ele>1631.199951171875</ele>
        <time>2026-06-19T08:10:00.000Z</time>
        <extensions>
          <ns3:TrackPointExtension>
            <ns3:atemp>20.0</ns3:atemp>
          </ns3:TrackPointExtension>
        </extensions>
      </trkpt>
      <trkpt lat="42.5122516416013240814208984375" lon="19.9836869537830352783203125">
        <ele>1631.199951171875</ele>
        <time>2026-06-19T08:10:01.000Z</time>
        <extensions>
          <ns3:TrackPointExtension>
            <ns3:atemp>20.0</ns3:atemp>
          </ns3:TrackPointExtension>
        </extensions>
      </trkpt>
      <trkpt lat="42.5122516416013240814208984375" lon="19.9836869537830352783203125">
        <ele>1631.199951171875</ele>
        <time>2026-06-19T08:10:02.000Z</time>
        <extensions>
          <ns3:TrackPointExtension>
            <ns3:atemp>20.0</ns3:atemp>
          </ns3:TrackPointExtension>
        </extensions>
      </trkpt>
      <trkpt lat="42.5122516416013240814208984375" lon="19.9836869537830352783203125">
        <ele>1631.4000244140625</ele>
        <time>2026-06-19T08:10:03.000Z</time>
        <extensions>
          <ns3:TrackPointExtension>
            <ns3:atemp>20.0</ns3:atemp>
          </ns3:TrackPointExtension>
        </extensions>
      </trkpt>
      <trkpt lat="42.5122516416013240814208984375" lon="19.9836869537830352783203125">
        <ele>1631.4000244140625</ele>
        <time>2026-06-19T08:10:04.000Z</time>
        <extensions>
          <ns3:TrackPointExtension>
            <ns3:atemp>20.0</ns3:atemp>
          </ns3:TrackPointExtension>
        </extensions>
      </trkpt>
      <trkpt lat="42.5122516416013240814208984375" lon="19.9836869537830352783203125">
        <ele>1631.5999755859375</ele>
        <time>2026-06-19T08:10:05.000Z</time>
        <extensions>
          <ns3:TrackPointExtension>
            <ns3:atemp>20.0</ns3:atemp>
          </ns3:TrackPointExtension>
        </extensions>
      </trkpt>
      <trkpt lat="42.5122516416013240814208984375" lon="19.9836869537830352783203125">
        <ele>1631.5999755859375</ele>
        <time>2026-06-19T08:10:06.000Z</time>
        <extensions>
          <ns3:TrackPointExtension>
            <ns3:atemp>20.0</ns3:atemp>
          </ns3:TrackPointExtension>
        </extensions>
      </trkpt>
      <trkpt lat="42.5122516416013240814208984375" lon="19.9836869537830352783203125">
        <ele>1631.5999755859375</ele>
        <time>2026-06-19T08:10:07.000Z</time>
        <extensions>
          <ns3:TrackPointExtension>
            <ns3:atemp>20.0</ns3:atemp>
          </ns3:TrackPointExtension>
        </extensions>
      </trkpt>
      <trkpt lat="42.5122516416013240814208984375" lon="19.9836869537830352783203125">
        <ele>1631.5999755859375</ele>
        <time>2026-06-19T08:10:08.000Z</time>
        <extensions>
          <ns3:TrackPointExtension>
            <ns3:atemp>20.0</ns3:atemp>
          </ns3:TrackPointExtension>
        </extensions>
      </trkpt>
      <trkpt lat="42.5122516416013240814208984375" lon="19.9836869537830352783203125">
        <ele>1631.5999755859375</ele>
        <time>2026-06-19T08:10:09.000Z</time>
        <extensions>
          <ns3:TrackPointExtension>
            <ns3:atemp>20.0</ns3:atemp>
          </ns3:TrackPointExtension>
        </extensions>
      </trkpt>
      <trkpt lat="42.5122516416013240814208984375" lon="19.9836869537830352783203125">
        <ele>1631.5999755859375</ele>
        <time>2026-06-19T08:10:10.000Z</time>
        <extensions>
          <ns3:TrackPointExtension>
            <ns3:atemp>20.0</ns3:atemp>
          </ns3:TrackPointExtension>
        </extensions>
      </trkpt>
      <trkpt lat="42.5122516416013240814208984375" lon="19.9836869537830352783203125">
        <ele>1631.5999755859375</ele>
        <time>2026-06-19T08:10:11.000Z</time>
        <extensions>
          <ns3:TrackPointExtension>
            <ns3:atemp>20.0</ns3:atemp>
          </ns3:TrackPointExtension>
        </extensions>
      </trkpt>
      <trkpt lat="42.5122516416013240814208984375" lon="19.9836869537830352783203125">
        <ele>1631.4000244140625</ele>
        <time>2026-06-19T08:10:12.000Z</time>
        <extensions>
          <ns3:TrackPointExtension>
            <ns3:atemp>20.0</ns3:atemp>
          </ns3:TrackPointExtension>
        </extensions>
      </trkpt>
      <trkpt lat="42.5122516416013240814208984375" lon="19.9836869537830352783203125">
        <ele>1631.4000244140625</ele>
        <time>2026-06-19T08:10:13.000Z</time>
        <extensions>
          <ns3:TrackPointExtension>
            <ns3:atemp>20.0</ns3:atemp>
          </ns3:TrackPointExtension>
        </extensions>
      </trkpt>
      <trkpt lat="42.5122516416013240814208984375" lon="19.9836869537830352783203125">
        <ele>1631.4000244140625</ele>
        <time>2026-06-19T08:10:14.000Z</time>
        <extensions>
          <ns3:TrackPointExtension>
            <ns3:atemp>20.0</ns3:atemp>
          </ns3:TrackPointExtension>
        </extensions>
      </trkpt>
      <trkpt lat="42.5122516416013240814208984375" lon="19.9836869537830352783203125">
        <ele>1631.4000244140625</ele>
        <time>2026-06-19T08:10:15.000Z</time>
        <extensions>
          <ns3:TrackPointExtension>
            <ns3:atemp>20.0</ns3:atemp>
          </ns3:TrackPointExtension>
        </extensions>
      </trkpt>
      <trkpt lat="42.5122516416013240814208984375" lon="19.9836869537830352783203125">
        <ele>1631.4000244140625</ele>
        <time>2026-06-19T08:10:16.000Z</time>
        <extensions>
          <ns3:TrackPointExtension>
            <ns3:atemp>20.0</ns3:atemp>
          </ns3:TrackPointExtension>
        </extensions>
      </trkpt>
      <trkpt lat="42.5122516416013240814208984375" lon="19.9836869537830352783203125">
        <ele>1631.4000244140625</ele>
        <time>2026-06-19T08:10:17.000Z</time>
        <extensions>
          <ns3:TrackPointExtension>
            <ns3:atemp>20.0</ns3:atemp>
          </ns3:TrackPointExtension>
        </extensions>
      </trkpt>
      <trkpt lat="42.5122516416013240814208984375" lon="19.9836869537830352783203125">
        <ele>1631.4000244140625</ele>
        <time>2026-06-19T08:10:18.000Z</time>
        <extensions>
          <ns3:TrackPointExtension>
            <ns3:atemp>20.0</ns3:atemp>
          </ns3:TrackPointExtension>
        </extensions>
      </trkpt>
      <trkpt lat="42.5122516416013240814208984375" lon="19.9836869537830352783203125">
        <ele>1631.5999755859375</ele>
        <time>2026-06-19T08:10:19.000Z</time>
        <extensions>
          <ns3:TrackPointExtension>
            <ns3:atemp>20.0</ns3:atemp>
          </ns3:TrackPointExtension>
        </extensions>
      </trkpt>
      <trkpt lat="42.5122516416013240814208984375" lon="19.9836869537830352783203125">
        <ele>1631.5999755859375</ele>
        <time>2026-06-19T08:10:20.000Z</time>
        <extensions>
          <ns3:TrackPointExtension>
            <ns3:atemp>20.0</ns3:atemp>
          </ns3:TrackPointExtension>
        </extensions>
      </trkpt>
      <trkpt lat="42.5122516416013240814208984375" lon="19.9836869537830352783203125">
        <ele>1631.5999755859375</ele>
        <time>2026-06-19T08:10:21.000Z</time>
        <extensions>
          <ns3:TrackPointExtension>
            <ns3:atemp>20.0</ns3:atemp>
          </ns3:TrackPointExtension>
        </extensions>
      </trkpt>
      <trkpt lat="42.5122516416013240814208984375" lon="19.9836869537830352783203125">
        <ele>1631.5999755859375</ele>
        <time>2026-06-19T08:10:22.000Z</time>
        <extensions>
          <ns3:TrackPointExtension>
            <ns3:atemp>20.0</ns3:atemp>
          </ns3:TrackPointExtension>
        </extensions>
      </trkpt>
      <trkpt lat="42.5122516416013240814208984375" lon="19.9836869537830352783203125">
        <ele>1631.5999755859375</ele>
        <time>2026-06-19T08:10:23.000Z</time>
        <extensions>
          <ns3:TrackPointExtension>
            <ns3:atemp>20.0</ns3:atemp>
          </ns3:TrackPointExtension>
        </extensions>
      </trkpt>
      <trkpt lat="42.5122516416013240814208984375" lon="19.9836869537830352783203125">
        <ele>1631.5999755859375</ele>
        <time>2026-06-19T08:10:24.000Z</time>
        <extensions>
          <ns3:TrackPointExtension>
            <ns3:atemp>20.0</ns3:atemp>
          </ns3:TrackPointExtension>
        </extensions>
      </trkpt>
      <trkpt lat="42.5122516416013240814208984375" lon="19.9836869537830352783203125">
        <ele>1631.800048828125</ele>
        <time>2026-06-19T08:10:25.000Z</time>
        <extensions>
          <ns3:TrackPointExtension>
            <ns3:atemp>20.0</ns3:atemp>
          </ns3:TrackPointExtension>
        </extensions>
      </trkpt>
      <trkpt lat="42.5122516416013240814208984375" lon="19.9836869537830352783203125">
        <ele>1631.800048828125</ele>
        <time>2026-06-19T08:10:26.000Z</time>
        <extensions>
          <ns3:TrackPointExtension>
            <ns3:atemp>20.0</ns3:atemp>
          </ns3:TrackPointExtension>
        </extensions>
      </trkpt>
      <trkpt lat="42.5122516416013240814208984375" lon="19.9836869537830352783203125">
        <ele>1631.800048828125</ele>
        <time>2026-06-19T08:10:27.000Z</time>
        <extensions>
          <ns3:TrackPointExtension>
            <ns3:atemp>20.0</ns3:atemp>
          </ns3:TrackPointExtension>
        </extensions>
      </trkpt>
      <trkpt lat="42.5122516416013240814208984375" lon="19.9836869537830352783203125">
        <ele>1631.800048828125</ele>
        <time>2026-06-19T08:10:28.000Z</time>
        <extensions>
          <ns3:TrackPointExtension>
            <ns3:atemp>20.0</ns3:atemp>
          </ns3:TrackPointExtension>
        </extensions>
      </trkpt>
      <trkpt lat="42.5122516416013240814208984375" lon="19.9836869537830352783203125">
        <ele>1631.800048828125</ele>
        <time>2026-06-19T08:10:29.000Z</time>
        <extensions>
          <ns3:TrackPointExtension>
            <ns3:atemp>20.0</ns3:atemp>
          </ns3:TrackPointExtension>
        </extensions>
      </trkpt>
      <trkpt lat="42.5122516416013240814208984375" lon="19.9836869537830352783203125">
        <ele>1631.800048828125</ele>
        <time>2026-06-19T08:10:30.000Z</time>
        <extensions>
          <ns3:TrackPointExtension>
            <ns3:atemp>20.0</ns3:atemp>
          </ns3:TrackPointExtension>
        </extensions>
      </trkpt>
      <trkpt lat="42.5122516416013240814208984375" lon="19.9836869537830352783203125">
        <ele>1631.800048828125</ele>
        <time>2026-06-19T08:10:31.000Z</time>
        <extensions>
          <ns3:TrackPointExtension>
            <ns3:atemp>20.0</ns3:atemp>
          </ns3:TrackPointExtension>
        </extensions>
      </trkpt>
      <trkpt lat="42.5122516416013240814208984375" lon="19.9836869537830352783203125">
        <ele>1631.800048828125</ele>
        <time>2026-06-19T08:10:32.000Z</time>
        <extensions>
          <ns3:TrackPointExtension>
            <ns3:atemp>20.0</ns3:atemp>
          </ns3:TrackPointExtension>
        </extensions>
      </trkpt>
      <trkpt lat="42.5122516416013240814208984375" lon="19.9836869537830352783203125">
        <ele>1631.800048828125</ele>
        <time>2026-06-19T08:10:33.000Z</time>
        <extensions>
          <ns3:TrackPointExtension>
            <ns3:atemp>20.0</ns3:atemp>
          </ns3:TrackPointExtension>
        </extensions>
      </trkpt>
      <trkpt lat="42.5122516416013240814208984375" lon="19.9836869537830352783203125">
        <ele>1631.800048828125</ele>
        <time>2026-06-19T08:10:34.000Z</time>
        <extensions>
          <ns3:TrackPointExtension>
            <ns3:atemp>20.0</ns3:atemp>
          </ns3:TrackPointExtension>
        </extensions>
      </trkpt>
      <trkpt lat="42.5122516416013240814208984375" lon="19.9836869537830352783203125">
        <ele>1631.800048828125</ele>
        <time>2026-06-19T08:10:35.000Z</time>
        <extensions>
          <ns3:TrackPointExtension>
            <ns3:atemp>20.0</ns3:atemp>
          </ns3:TrackPointExtension>
        </extensions>
      </trkpt>
      <trkpt lat="42.5122516416013240814208984375" lon="19.9836869537830352783203125">
        <ele>1631.800048828125</ele>
        <time>2026-06-19T08:10:36.000Z</time>
        <extensions>
          <ns3:TrackPointExtension>
            <ns3:atemp>20.0</ns3:atemp>
          </ns3:TrackPointExtension>
        </extensions>
      </trkpt>
      <trkpt lat="42.5122516416013240814208984375" lon="19.9836869537830352783203125">
        <ele>1631.800048828125</ele>
        <time>2026-06-19T08:10:37.000Z</time>
        <extensions>
          <ns3:TrackPointExtension>
            <ns3:atemp>20.0</ns3:atemp>
          </ns3:TrackPointExtension>
        </extensions>
      </trkpt>
      <trkpt lat="42.5122516416013240814208984375" lon="19.9836869537830352783203125">
        <ele>1631.800048828125</ele>
        <time>2026-06-19T08:10:38.000Z</time>
        <extensions>
          <ns3:TrackPointExtension>
            <ns3:atemp>20.0</ns3:atemp>
          </ns3:TrackPointExtension>
        </extensions>
      </trkpt>
      <trkpt lat="42.5122516416013240814208984375" lon="19.9836869537830352783203125">
        <ele>1631.800048828125</ele>
        <time>2026-06-19T08:10:39.000Z</time>
        <extensions>
          <ns3:TrackPointExtension>
            <ns3:atemp>20.0</ns3:atemp>
          </ns3:TrackPointExtension>
        </extensions>
      </trkpt>
      <trkpt lat="42.5122516416013240814208984375" lon="19.9836869537830352783203125">
        <ele>1631.800048828125</ele>
        <time>2026-06-19T08:10:40.000Z</time>
        <extensions>
          <ns3:TrackPointExtension>
            <ns3:atemp>20.0</ns3:atemp>
          </ns3:TrackPointExtension>
        </extensions>
      </trkpt>
      <trkpt lat="42.5122516416013240814208984375" lon="19.9836869537830352783203125">
        <ele>1631.800048828125</ele>
        <time>2026-06-19T08:10:41.000Z</time>
        <extensions>
          <ns3:TrackPointExtension>
            <ns3:atemp>20.0</ns3:atemp>
          </ns3:TrackPointExtension>
        </extensions>
      </trkpt>
      <trkpt lat="42.5122516416013240814208984375" lon="19.9836869537830352783203125">
        <ele>1632</ele>
        <time>2026-06-19T08:10:42.000Z</time>
        <extensions>
          <ns3:TrackPointExtension>
            <ns3:atemp>20.0</ns3:atemp>
          </ns3:TrackPointExtension>
        </extensions>
      </trkpt>
      <trkpt lat="42.5122516416013240814208984375" lon="19.9836869537830352783203125">
        <ele>1632</ele>
        <time>2026-06-19T08:10:43.000Z</time>
        <extensions>
          <ns3:TrackPointExtension>
            <ns3:atemp>20.0</ns3:atemp>
          </ns3:TrackPointExtension>
        </extensions>
      </trkpt>
      <trkpt lat="42.5122516416013240814208984375" lon="19.9836869537830352783203125">
        <ele>1632</ele>
        <time>2026-06-19T08:10:44.000Z</time>
        <extensions>
          <ns3:TrackPointExtension>
            <ns3:atemp>20.0</ns3:atemp>
          </ns3:TrackPointExtension>
        </extensions>
      </trkpt>
      <trkpt lat="42.5122516416013240814208984375" lon="19.9836869537830352783203125">
        <ele>1632</ele>
        <time>2026-06-19T08:10:45.000Z</time>
        <extensions>
          <ns3:TrackPointExtension>
            <ns3:atemp>20.0</ns3:atemp>
          </ns3:TrackPointExtension>
        </extensions>
      </trkpt>
      <trkpt lat="42.5122516416013240814208984375" lon="19.9836869537830352783203125">
        <ele>1631.800048828125</ele>
        <time>2026-06-19T08:10:46.000Z</time>
        <extensions>
          <ns3:TrackPointExtension>
            <ns3:atemp>20.0</ns3:atemp>
          </ns3:TrackPointExtension>
        </extensions>
      </trkpt>
      <trkpt lat="42.5122516416013240814208984375" lon="19.9836869537830352783203125">
        <ele>1631.800048828125</ele>
        <time>2026-06-19T08:10:47.000Z</time>
        <extensions>
          <ns3:TrackPointExtension>
            <ns3:atemp>20.0</ns3:atemp>
          </ns3:TrackPointExtension>
        </extensions>
      </trkpt>
      <trkpt lat="42.5122516416013240814208984375" lon="19.9836869537830352783203125">
        <ele>1631.800048828125</ele>
        <time>2026-06-19T08:10:48.000Z</time>
        <extensions>
          <ns3:TrackPointExtension>
            <ns3:atemp>20.0</ns3:atemp>
          </ns3:TrackPointExtension>
        </extensions>
      </trkpt>
      <trkpt lat="42.5122516416013240814208984375" lon="19.9836869537830352783203125">
        <ele>1631.800048828125</ele>
        <time>2026-06-19T08:10:49.000Z</time>
        <extensions>
          <ns3:TrackPointExtension>
            <ns3:atemp>20.0</ns3:atemp>
          </ns3:TrackPointExtension>
        </extensions>
      </trkpt>
      <trkpt lat="42.5122516416013240814208984375" lon="19.9836869537830352783203125">
        <ele>1631.800048828125</ele>
        <time>2026-06-19T08:10:50.000Z</time>
        <extensions>
          <ns3:TrackPointExtension>
            <ns3:atemp>20.0</ns3:atemp>
          </ns3:TrackPointExtension>
        </extensions>
      </trkpt>
      <trkpt lat="42.5122516416013240814208984375" lon="19.9836869537830352783203125">
        <ele>1631.800048828125</ele>
        <time>2026-06-19T08:10:51.000Z</time>
        <extensions>
          <ns3:TrackPointExtension>
            <ns3:atemp>20.0</ns3:atemp>
          </ns3:TrackPointExtension>
        </extensions>
      </trkpt>
      <trkpt lat="42.5122516416013240814208984375" lon="19.9836869537830352783203125">
        <ele>1631.800048828125</ele>
        <time>2026-06-19T08:10:52.000Z</time>
        <extensions>
          <ns3:TrackPointExtension>
            <ns3:atemp>20.0</ns3:atemp>
          </ns3:TrackPointExtension>
        </extensions>
      </trkpt>
      <trkpt lat="42.5122516416013240814208984375" lon="19.9836869537830352783203125">
        <ele>1632</ele>
        <time>2026-06-19T08:10:53.000Z</time>
        <extensions>
          <ns3:TrackPointExtension>
            <ns3:atemp>20.0</ns3:atemp>
          </ns3:TrackPointExtension>
        </extensions>
      </trkpt>
      <trkpt lat="42.5122516416013240814208984375" lon="19.9836869537830352783203125">
        <ele>1631.800048828125</ele>
        <time>2026-06-19T08:10:54.000Z</time>
        <extensions>
          <ns3:TrackPointExtension>
            <ns3:atemp>20.0</ns3:atemp>
          </ns3:TrackPointExtension>
        </extensions>
      </trkpt>
      <trkpt lat="42.5122516416013240814208984375" lon="19.9836869537830352783203125">
        <ele>1631.800048828125</ele>
        <time>2026-06-19T08:10:55.000Z</time>
        <extensions>
          <ns3:TrackPointExtension>
            <ns3:atemp>20.0</ns3:atemp>
          </ns3:TrackPointExtension>
        </extensions>
      </trkpt>
      <trkpt lat="42.5122516416013240814208984375" lon="19.9836869537830352783203125">
        <ele>1631.800048828125</ele>
        <time>2026-06-19T08:10:56.000Z</time>
        <extensions>
          <ns3:TrackPointExtension>
            <ns3:atemp>20.0</ns3:atemp>
          </ns3:TrackPointExtension>
        </extensions>
      </trkpt>
      <trkpt lat="42.5122516416013240814208984375" lon="19.9836869537830352783203125">
        <ele>1631.800048828125</ele>
        <time>2026-06-19T08:10:57.000Z</time>
        <extensions>
          <ns3:TrackPointExtension>
            <ns3:atemp>20.0</ns3:atemp>
          </ns3:TrackPointExtension>
        </extensions>
      </trkpt>
      <trkpt lat="42.5122516416013240814208984375" lon="19.9836869537830352783203125">
        <ele>1631.800048828125</ele>
        <time>2026-06-19T08:10:58.000Z</time>
        <extensions>
          <ns3:TrackPointExtension>
            <ns3:atemp>20.0</ns3:atemp>
          </ns3:TrackPointExtension>
        </extensions>
      </trkpt>
      <trkpt lat="42.5122516416013240814208984375" lon="19.9836869537830352783203125">
        <ele>1631.800048828125</ele>
        <time>2026-06-19T08:10:59.000Z</time>
        <extensions>
          <ns3:TrackPointExtension>
            <ns3:atemp>20.0</ns3:atemp>
          </ns3:TrackPointExtension>
        </extensions>
      </trkpt>
      <trkpt lat="42.5122516416013240814208984375" lon="19.9836869537830352783203125">
        <ele>1631.800048828125</ele>
        <time>2026-06-19T08:11:00.000Z</time>
        <extensions>
          <ns3:TrackPointExtension>
            <ns3:atemp>20.0</ns3:atemp>
          </ns3:TrackPointExtension>
        </extensions>
      </trkpt>
      <trkpt lat="42.5122516416013240814208984375" lon="19.9836869537830352783203125">
        <ele>1631.800048828125</ele>
        <time>2026-06-19T08:11:01.000Z</time>
        <extensions>
          <ns3:TrackPointExtension>
            <ns3:atemp>20.0</ns3:atemp>
          </ns3:TrackPointExtension>
        </extensions>
      </trkpt>
      <trkpt lat="42.5122516416013240814208984375" lon="19.9836869537830352783203125">
        <ele>1631.800048828125</ele>
        <time>2026-06-19T08:11:02.000Z</time>
        <extensions>
          <ns3:TrackPointExtension>
            <ns3:atemp>20.0</ns3:atemp>
          </ns3:TrackPointExtension>
        </extensions>
      </trkpt>
      <trkpt lat="42.5122516416013240814208984375" lon="19.9836869537830352783203125">
        <ele>1631.800048828125</ele>
        <time>2026-06-19T08:11:03.000Z</time>
        <extensions>
          <ns3:TrackPointExtension>
            <ns3:atemp>20.0</ns3:atemp>
          </ns3:TrackPointExtension>
        </extensions>
      </trkpt>
      <trkpt lat="42.5122516416013240814208984375" lon="19.9836869537830352783203125">
        <ele>1631.800048828125</ele>
        <time>2026-06-19T08:11:04.000Z</time>
        <extensions>
          <ns3:TrackPointExtension>
            <ns3:atemp>20.0</ns3:atemp>
          </ns3:TrackPointExtension>
        </extensions>
      </trkpt>
      <trkpt lat="42.5122516416013240814208984375" lon="19.9836869537830352783203125">
        <ele>1631.800048828125</ele>
        <time>2026-06-19T08:11:05.000Z</time>
        <extensions>
          <ns3:TrackPointExtension>
            <ns3:atemp>20.0</ns3:atemp>
          </ns3:TrackPointExtension>
        </extensions>
      </trkpt>
      <trkpt lat="42.5122516416013240814208984375" lon="19.9836869537830352783203125">
        <ele>1631.800048828125</ele>
        <time>2026-06-19T08:11:06.000Z</time>
        <extensions>
          <ns3:TrackPointExtension>
            <ns3:atemp>20.0</ns3:atemp>
          </ns3:TrackPointExtension>
        </extensions>
      </trkpt>
      <trkpt lat="42.5122516416013240814208984375" lon="19.9836869537830352783203125">
        <ele>1631.800048828125</ele>
        <time>2026-06-19T08:11:07.000Z</time>
        <extensions>
          <ns3:TrackPointExtension>
            <ns3:atemp>20.0</ns3:atemp>
          </ns3:TrackPointExtension>
        </extensions>
      </trkpt>
      <trkpt lat="42.5122516416013240814208984375" lon="19.9836869537830352783203125">
        <ele>1631.800048828125</ele>
        <time>2026-06-19T08:11:08.000Z</time>
        <extensions>
          <ns3:TrackPointExtension>
            <ns3:atemp>20.0</ns3:atemp>
          </ns3:TrackPointExtension>
        </extensions>
      </trkpt>
      <trkpt lat="42.5122516416013240814208984375" lon="19.9836869537830352783203125">
        <ele>1631.800048828125</ele>
        <time>2026-06-19T08:11:09.000Z</time>
        <extensions>
          <ns3:TrackPointExtension>
            <ns3:atemp>20.0</ns3:atemp>
          </ns3:TrackPointExtension>
        </extensions>
      </trkpt>
      <trkpt lat="42.5122516416013240814208984375" lon="19.9836869537830352783203125">
        <ele>1631.800048828125</ele>
        <time>2026-06-19T08:11:10.000Z</time>
        <extensions>
          <ns3:TrackPointExtension>
            <ns3:atemp>20.0</ns3:atemp>
          </ns3:TrackPointExtension>
        </extensions>
      </trkpt>
      <trkpt lat="42.5122516416013240814208984375" lon="19.9836869537830352783203125">
        <ele>1631.800048828125</ele>
        <time>2026-06-19T08:11:11.000Z</time>
        <extensions>
          <ns3:TrackPointExtension>
            <ns3:atemp>20.0</ns3:atemp>
          </ns3:TrackPointExtension>
        </extensions>
      </trkpt>
      <trkpt lat="42.5122516416013240814208984375" lon="19.9836869537830352783203125">
        <ele>1631.800048828125</ele>
        <time>2026-06-19T08:11:12.000Z</time>
        <extensions>
          <ns3:TrackPointExtension>
            <ns3:atemp>20.0</ns3:atemp>
          </ns3:TrackPointExtension>
        </extensions>
      </trkpt>
      <trkpt lat="42.5122516416013240814208984375" lon="19.9836869537830352783203125">
        <ele>1631.800048828125</ele>
        <time>2026-06-19T08:11:13.000Z</time>
        <extensions>
          <ns3:TrackPointExtension>
            <ns3:atemp>20.0</ns3:atemp>
          </ns3:TrackPointExtension>
        </extensions>
      </trkpt>
      <trkpt lat="42.5122516416013240814208984375" lon="19.9836869537830352783203125">
        <ele>1631.800048828125</ele>
        <time>2026-06-19T08:11:14.000Z</time>
        <extensions>
          <ns3:TrackPointExtension>
            <ns3:atemp>20.0</ns3:atemp>
          </ns3:TrackPointExtension>
        </extensions>
      </trkpt>
      <trkpt lat="42.5122516416013240814208984375" lon="19.9836869537830352783203125">
        <ele>1631.800048828125</ele>
        <time>2026-06-19T08:11:15.000Z</time>
        <extensions>
          <ns3:TrackPointExtension>
            <ns3:atemp>20.0</ns3:atemp>
          </ns3:TrackPointExtension>
        </extensions>
      </trkpt>
      <trkpt lat="42.5122516416013240814208984375" lon="19.9836869537830352783203125">
        <ele>1631.800048828125</ele>
        <time>2026-06-19T08:11:16.000Z</time>
        <extensions>
          <ns3:TrackPointExtension>
            <ns3:atemp>20.0</ns3:atemp>
          </ns3:TrackPointExtension>
        </extensions>
      </trkpt>
      <trkpt lat="42.5122516416013240814208984375" lon="19.9836869537830352783203125">
        <ele>1631.800048828125</ele>
        <time>2026-06-19T08:11:17.000Z</time>
        <extensions>
          <ns3:TrackPointExtension>
            <ns3:atemp>20.0</ns3:atemp>
          </ns3:TrackPointExtension>
        </extensions>
      </trkpt>
      <trkpt lat="42.5122516416013240814208984375" lon="19.9836869537830352783203125">
        <ele>1631.800048828125</ele>
        <time>2026-06-19T08:11:18.000Z</time>
        <extensions>
          <ns3:TrackPointExtension>
            <ns3:atemp>20.0</ns3:atemp>
          </ns3:TrackPointExtension>
        </extensions>
      </trkpt>
      <trkpt lat="42.5122516416013240814208984375" lon="19.9836869537830352783203125">
        <ele>1631.800048828125</ele>
        <time>2026-06-19T08:11:19.000Z</time>
        <extensions>
          <ns3:TrackPointExtension>
            <ns3:atemp>20.0</ns3:atemp>
          </ns3:TrackPointExtension>
        </extensions>
      </trkpt>
      <trkpt lat="42.5122516416013240814208984375" lon="19.9836869537830352783203125">
        <ele>1631.800048828125</ele>
        <time>2026-06-19T08:11:20.000Z</time>
        <extensions>
          <ns3:TrackPointExtension>
            <ns3:atemp>20.0</ns3:atemp>
          </ns3:TrackPointExtension>
        </extensions>
      </trkpt>
      <trkpt lat="42.5122516416013240814208984375" lon="19.9836869537830352783203125">
        <ele>1631.800048828125</ele>
        <time>2026-06-19T08:11:21.000Z</time>
        <extensions>
          <ns3:TrackPointExtension>
            <ns3:atemp>20.0</ns3:atemp>
          </ns3:TrackPointExtension>
        </extensions>
      </trkpt>
      <trkpt lat="42.5122516416013240814208984375" lon="19.9836869537830352783203125">
        <ele>1631.800048828125</ele>
        <time>2026-06-19T08:11:22.000Z</time>
        <extensions>
          <ns3:TrackPointExtension>
            <ns3:atemp>20.0</ns3:atemp>
          </ns3:TrackPointExtension>
        </extensions>
      </trkpt>
      <trkpt lat="42.5122516416013240814208984375" lon="19.9836869537830352783203125">
        <ele>1631.800048828125</ele>
        <time>2026-06-19T08:11:23.000Z</time>
        <extensions>
          <ns3:TrackPointExtension>
            <ns3:atemp>20.0</ns3:atemp>
          </ns3:TrackPointExtension>
        </extensions>
      </trkpt>
      <trkpt lat="42.5122516416013240814208984375" lon="19.9836869537830352783203125">
        <ele>1631.800048828125</ele>
        <time>2026-06-19T08:11:24.000Z</time>
        <extensions>
          <ns3:TrackPointExtension>
            <ns3:atemp>20.0</ns3:atemp>
          </ns3:TrackPointExtension>
        </extensions>
      </trkpt>
      <trkpt lat="42.5122516416013240814208984375" lon="19.9836869537830352783203125">
        <ele>1631.800048828125</ele>
        <time>2026-06-19T08:11:25.000Z</time>
        <extensions>
          <ns3:TrackPointExtension>
            <ns3:atemp>20.0</ns3:atemp>
          </ns3:TrackPointExtension>
        </extensions>
      </trkpt>
      <trkpt lat="42.5122516416013240814208984375" lon="19.9836869537830352783203125">
        <ele>1631.800048828125</ele>
        <time>2026-06-19T08:11:26.000Z</time>
        <extensions>
          <ns3:TrackPointExtension>
            <ns3:atemp>20.0</ns3:atemp>
          </ns3:TrackPointExtension>
        </extensions>
      </trkpt>
      <trkpt lat="42.5122516416013240814208984375" lon="19.9836869537830352783203125">
        <ele>1631.800048828125</ele>
        <time>2026-06-19T08:11:27.000Z</time>
        <extensions>
          <ns3:TrackPointExtension>
            <ns3:atemp>20.0</ns3:atemp>
          </ns3:TrackPointExtension>
        </extensions>
      </trkpt>
      <trkpt lat="42.5122516416013240814208984375" lon="19.9836869537830352783203125">
        <ele>1631.800048828125</ele>
        <time>2026-06-19T08:11:28.000Z</time>
        <extensions>
          <ns3:TrackPointExtension>
            <ns3:atemp>20.0</ns3:atemp>
          </ns3:TrackPointExtension>
        </extensions>
      </trkpt>
      <trkpt lat="42.5122516416013240814208984375" lon="19.9836869537830352783203125">
        <ele>1631.800048828125</ele>
        <time>2026-06-19T08:11:29.000Z</time>
        <extensions>
          <ns3:TrackPointExtension>
            <ns3:atemp>20.0</ns3:atemp>
          </ns3:TrackPointExtension>
        </extensions>
      </trkpt>
      <trkpt lat="42.5122516416013240814208984375" lon="19.9836869537830352783203125">
        <ele>1631.800048828125</ele>
        <time>2026-06-19T08:11:30.000Z</time>
        <extensions>
          <ns3:TrackPointExtension>
            <ns3:atemp>20.0</ns3:atemp>
          </ns3:TrackPointExtension>
        </extensions>
      </trkpt>
      <trkpt lat="42.5122516416013240814208984375" lon="19.9836869537830352783203125">
        <ele>1631.800048828125</ele>
        <time>2026-06-19T08:11:31.000Z</time>
        <extensions>
          <ns3:TrackPointExtension>
            <ns3:atemp>20.0</ns3:atemp>
          </ns3:TrackPointExtension>
        </extensions>
      </trkpt>
      <trkpt lat="42.5122516416013240814208984375" lon="19.9836869537830352783203125">
        <ele>1631.800048828125</ele>
        <time>2026-06-19T08:11:32.000Z</time>
        <extensions>
          <ns3:TrackPointExtension>
            <ns3:atemp>20.0</ns3:atemp>
          </ns3:TrackPointExtension>
        </extensions>
      </trkpt>
      <trkpt lat="42.5122516416013240814208984375" lon="19.9836869537830352783203125">
        <ele>1631.800048828125</ele>
        <time>2026-06-19T08:11:33.000Z</time>
        <extensions>
          <ns3:TrackPointExtension>
            <ns3:atemp>20.0</ns3:atemp>
          </ns3:TrackPointExtension>
        </extensions>
      </trkpt>
      <trkpt lat="42.5122516416013240814208984375" lon="19.9836869537830352783203125">
        <ele>1631.800048828125</ele>
        <time>2026-06-19T08:11:34.000Z</time>
        <extensions>
          <ns3:TrackPointExtension>
            <ns3:atemp>20.0</ns3:atemp>
          </ns3:TrackPointExtension>
        </extensions>
      </trkpt>
      <trkpt lat="42.5122516416013240814208984375" lon="19.9836869537830352783203125">
        <ele>1631.800048828125</ele>
        <time>2026-06-19T08:11:35.000Z</time>
        <extensions>
          <ns3:TrackPointExtension>
            <ns3:atemp>20.0</ns3:atemp>
          </ns3:TrackPointExtension>
        </extensions>
      </trkpt>
      <trkpt lat="42.5122516416013240814208984375" lon="19.9836869537830352783203125">
        <ele>1631.800048828125</ele>
        <time>2026-06-19T08:11:36.000Z</time>
        <extensions>
          <ns3:TrackPointExtension>
            <ns3:atemp>20.0</ns3:atemp>
          </ns3:TrackPointExtension>
        </extensions>
      </trkpt>
      <trkpt lat="42.5122516416013240814208984375" lon="19.9836869537830352783203125">
        <ele>1631.800048828125</ele>
        <time>2026-06-19T08:11:37.000Z</time>
        <extensions>
          <ns3:TrackPointExtension>
            <ns3:atemp>20.0</ns3:atemp>
          </ns3:TrackPointExtension>
        </extensions>
      </trkpt>
      <trkpt lat="42.5122516416013240814208984375" lon="19.9836869537830352783203125">
        <ele>1631.800048828125</ele>
        <time>2026-06-19T08:11:38.000Z</time>
        <extensions>
          <ns3:TrackPointExtension>
            <ns3:atemp>20.0</ns3:atemp>
          </ns3:TrackPointExtension>
        </extensions>
      </trkpt>
      <trkpt lat="42.5122516416013240814208984375" lon="19.9836869537830352783203125">
        <ele>1631.800048828125</ele>
        <time>2026-06-19T08:11:39.000Z</time>
        <extensions>
          <ns3:TrackPointExtension>
            <ns3:atemp>20.0</ns3:atemp>
          </ns3:TrackPointExtension>
        </extensions>
      </trkpt>
      <trkpt lat="42.5122516416013240814208984375" lon="19.9836869537830352783203125">
        <ele>1631.800048828125</ele>
        <time>2026-06-19T08:11:40.000Z</time>
        <extensions>
          <ns3:TrackPointExtension>
            <ns3:atemp>20.0</ns3:atemp>
          </ns3:TrackPointExtension>
        </extensions>
      </trkpt>
      <trkpt lat="42.5122516416013240814208984375" lon="19.9836869537830352783203125">
        <ele>1631.800048828125</ele>
        <time>2026-06-19T08:11:41.000Z</time>
        <extensions>
          <ns3:TrackPointExtension>
            <ns3:atemp>20.0</ns3:atemp>
          </ns3:TrackPointExtension>
        </extensions>
      </trkpt>
      <trkpt lat="42.5122516416013240814208984375" lon="19.9836869537830352783203125">
        <ele>1631.800048828125</ele>
        <time>2026-06-19T08:11:42.000Z</time>
        <extensions>
          <ns3:TrackPointExtension>
            <ns3:atemp>20.0</ns3:atemp>
          </ns3:TrackPointExtension>
        </extensions>
      </trkpt>
      <trkpt lat="42.5122516416013240814208984375" lon="19.9836869537830352783203125">
        <ele>1631.800048828125</ele>
        <time>2026-06-19T08:11:43.000Z</time>
        <extensions>
          <ns3:TrackPointExtension>
            <ns3:atemp>20.0</ns3:atemp>
          </ns3:TrackPointExtension>
        </extensions>
      </trkpt>
      <trkpt lat="42.5122516416013240814208984375" lon="19.9836869537830352783203125">
        <ele>1631.800048828125</ele>
        <time>2026-06-19T08:11:44.000Z</time>
        <extensions>
          <ns3:TrackPointExtension>
            <ns3:atemp>20.0</ns3:atemp>
          </ns3:TrackPointExtension>
        </extensions>
      </trkpt>
      <trkpt lat="42.5122516416013240814208984375" lon="19.9836869537830352783203125">
        <ele>1631.800048828125</ele>
        <time>2026-06-19T08:11:45.000Z</time>
        <extensions>
          <ns3:TrackPointExtension>
            <ns3:atemp>20.0</ns3:atemp>
          </ns3:TrackPointExtension>
        </extensions>
      </trkpt>
      <trkpt lat="42.5122516416013240814208984375" lon="19.9836869537830352783203125">
        <ele>1631.800048828125</ele>
        <time>2026-06-19T08:11:46.000Z</time>
        <extensions>
          <ns3:TrackPointExtension>
            <ns3:atemp>20.0</ns3:atemp>
          </ns3:TrackPointExtension>
        </extensions>
      </trkpt>
      <trkpt lat="42.5122516416013240814208984375" lon="19.9836869537830352783203125">
        <ele>1631.800048828125</ele>
        <time>2026-06-19T08:11:47.000Z</time>
        <extensions>
          <ns3:TrackPointExtension>
            <ns3:atemp>20.0</ns3:atemp>
          </ns3:TrackPointExtension>
        </extensions>
      </trkpt>
      <trkpt lat="42.5122516416013240814208984375" lon="19.9836869537830352783203125">
        <ele>1631.800048828125</ele>
        <time>2026-06-19T08:11:48.000Z</time>
        <extensions>
          <ns3:TrackPointExtension>
            <ns3:atemp>20.0</ns3:atemp>
          </ns3:TrackPointExtension>
        </extensions>
      </trkpt>
      <trkpt lat="42.5122516416013240814208984375" lon="19.9836869537830352783203125">
        <ele>1631.800048828125</ele>
        <time>2026-06-19T08:11:49.000Z</time>
        <extensions>
          <ns3:TrackPointExtension>
            <ns3:atemp>20.0</ns3:atemp>
          </ns3:TrackPointExtension>
        </extensions>
      </trkpt>
      <trkpt lat="42.5122516416013240814208984375" lon="19.9836869537830352783203125">
        <ele>1631.800048828125</ele>
        <time>2026-06-19T08:11:50.000Z</time>
        <extensions>
          <ns3:TrackPointExtension>
            <ns3:atemp>20.0</ns3:atemp>
          </ns3:TrackPointExtension>
        </extensions>
      </trkpt>
      <trkpt lat="42.5122516416013240814208984375" lon="19.9836869537830352783203125">
        <ele>1631.800048828125</ele>
        <time>2026-06-19T08:11:51.000Z</time>
        <extensions>
          <ns3:TrackPointExtension>
            <ns3:atemp>20.0</ns3:atemp>
          </ns3:TrackPointExtension>
        </extensions>
      </trkpt>
      <trkpt lat="42.5122516416013240814208984375" lon="19.9836869537830352783203125">
        <ele>1631.800048828125</ele>
        <time>2026-06-19T08:11:52.000Z</time>
        <extensions>
          <ns3:TrackPointExtension>
            <ns3:atemp>20.0</ns3:atemp>
          </ns3:TrackPointExtension>
        </extensions>
      </trkpt>
      <trkpt lat="42.5122516416013240814208984375" lon="19.9836869537830352783203125">
        <ele>1631.800048828125</ele>
        <time>2026-06-19T08:11:53.000Z</time>
        <extensions>
          <ns3:TrackPointExtension>
            <ns3:atemp>20.0</ns3:atemp>
          </ns3:TrackPointExtension>
        </extensions>
      </trkpt>
      <trkpt lat="42.5122516416013240814208984375" lon="19.9836869537830352783203125">
        <ele>1631.800048828125</ele>
        <time>2026-06-19T08:11:54.000Z</time>
        <extensions>
          <ns3:TrackPointExtension>
            <ns3:atemp>20.0</ns3:atemp>
          </ns3:TrackPointExtension>
        </extensions>
      </trkpt>
      <trkpt lat="42.5122516416013240814208984375" lon="19.9836869537830352783203125">
        <ele>1631.800048828125</ele>
        <time>2026-06-19T08:11:55.000Z</time>
        <extensions>
          <ns3:TrackPointExtension>
            <ns3:atemp>20.0</ns3:atemp>
          </ns3:TrackPointExtension>
        </extensions>
      </trkpt>
      <trkpt lat="42.5122516416013240814208984375" lon="19.9836869537830352783203125">
        <ele>1631.800048828125</ele>
        <time>2026-06-19T08:11:56.000Z</time>
        <extensions>
          <ns3:TrackPointExtension>
            <ns3:atemp>20.0</ns3:atemp>
          </ns3:TrackPointExtension>
        </extensions>
      </trkpt>
      <trkpt lat="42.5122516416013240814208984375" lon="19.9836869537830352783203125">
        <ele>1631.800048828125</ele>
        <time>2026-06-19T08:11:57.000Z</time>
        <extensions>
          <ns3:TrackPointExtension>
            <ns3:atemp>20.0</ns3:atemp>
          </ns3:TrackPointExtension>
        </extensions>
      </trkpt>
      <trkpt lat="42.5122516416013240814208984375" lon="19.9836869537830352783203125">
        <ele>1631.800048828125</ele>
        <time>2026-06-19T08:11:58.000Z</time>
        <extensions>
          <ns3:TrackPointExtension>
            <ns3:atemp>20.0</ns3:atemp>
          </ns3:TrackPointExtension>
        </extensions>
      </trkpt>
      <trkpt lat="42.5122516416013240814208984375" lon="19.9836869537830352783203125">
        <ele>1631.800048828125</ele>
        <time>2026-06-19T08:11:59.000Z</time>
        <extensions>
          <ns3:TrackPointExtension>
            <ns3:atemp>20.0</ns3:atemp>
          </ns3:TrackPointExtension>
        </extensions>
      </trkpt>
      <trkpt lat="42.5122516416013240814208984375" lon="19.9836869537830352783203125">
        <ele>1631.800048828125</ele>
        <time>2026-06-19T08:12:00.000Z</time>
        <extensions>
          <ns3:TrackPointExtension>
            <ns3:atemp>20.0</ns3:atemp>
          </ns3:TrackPointExtension>
        </extensions>
      </trkpt>
      <trkpt lat="42.5122516416013240814208984375" lon="19.9836869537830352783203125">
        <ele>1631.800048828125</ele>
        <time>2026-06-19T08:12:01.000Z</time>
        <extensions>
          <ns3:TrackPointExtension>
            <ns3:atemp>20.0</ns3:atemp>
          </ns3:TrackPointExtension>
        </extensions>
      </trkpt>
      <trkpt lat="42.5122516416013240814208984375" lon="19.9836869537830352783203125">
        <ele>1631.800048828125</ele>
        <time>2026-06-19T08:12:02.000Z</time>
        <extensions>
          <ns3:TrackPointExtension>
            <ns3:atemp>20.0</ns3:atemp>
          </ns3:TrackPointExtension>
        </extensions>
      </trkpt>
      <trkpt lat="42.5122516416013240814208984375" lon="19.9836869537830352783203125">
        <ele>1631.800048828125</ele>
        <time>2026-06-19T08:12:03.000Z</time>
        <extensions>
          <ns3:TrackPointExtension>
            <ns3:atemp>20.0</ns3:atemp>
          </ns3:TrackPointExtension>
        </extensions>
      </trkpt>
      <trkpt lat="42.5122516416013240814208984375" lon="19.9836869537830352783203125">
        <ele>1631.800048828125</ele>
        <time>2026-06-19T08:12:04.000Z</time>
        <extensions>
          <ns3:TrackPointExtension>
            <ns3:atemp>20.0</ns3:atemp>
          </ns3:TrackPointExtension>
        </extensions>
      </trkpt>
      <trkpt lat="42.5122516416013240814208984375" lon="19.9836869537830352783203125">
        <ele>1631.800048828125</ele>
        <time>2026-06-19T08:12:05.000Z</time>
        <extensions>
          <ns3:TrackPointExtension>
            <ns3:atemp>20.0</ns3:atemp>
          </ns3:TrackPointExtension>
        </extensions>
      </trkpt>
      <trkpt lat="42.5122516416013240814208984375" lon="19.9836869537830352783203125">
        <ele>1631.800048828125</ele>
        <time>2026-06-19T08:12:06.000Z</time>
        <extensions>
          <ns3:TrackPointExtension>
            <ns3:atemp>20.0</ns3:atemp>
          </ns3:TrackPointExtension>
        </extensions>
      </trkpt>
      <trkpt lat="42.5122516416013240814208984375" lon="19.9836869537830352783203125">
        <ele>1631.800048828125</ele>
        <time>2026-06-19T08:12:07.000Z</time>
        <extensions>
          <ns3:TrackPointExtension>
            <ns3:atemp>20.0</ns3:atemp>
          </ns3:TrackPointExtension>
        </extensions>
      </trkpt>
      <trkpt lat="42.5122516416013240814208984375" lon="19.9836869537830352783203125">
        <ele>1631.800048828125</ele>
        <time>2026-06-19T08:12:08.000Z</time>
        <extensions>
          <ns3:TrackPointExtension>
            <ns3:atemp>20.0</ns3:atemp>
          </ns3:TrackPointExtension>
        </extensions>
      </trkpt>
      <trkpt lat="42.5122516416013240814208984375" lon="19.9836869537830352783203125">
        <ele>1631.800048828125</ele>
        <time>2026-06-19T08:12:09.000Z</time>
        <extensions>
          <ns3:TrackPointExtension>
            <ns3:atemp>20.0</ns3:atemp>
          </ns3:TrackPointExtension>
        </extensions>
      </trkpt>
      <trkpt lat="42.5122516416013240814208984375" lon="19.9836869537830352783203125">
        <ele>1631.800048828125</ele>
        <time>2026-06-19T08:12:10.000Z</time>
        <extensions>
          <ns3:TrackPointExtension>
            <ns3:atemp>20.0</ns3:atemp>
          </ns3:TrackPointExtension>
        </extensions>
      </trkpt>
      <trkpt lat="42.5122516416013240814208984375" lon="19.9836869537830352783203125">
        <ele>1631.800048828125</ele>
        <time>2026-06-19T08:12:11.000Z</time>
        <extensions>
          <ns3:TrackPointExtension>
            <ns3:atemp>20.0</ns3:atemp>
          </ns3:TrackPointExtension>
        </extensions>
      </trkpt>
      <trkpt lat="42.5122516416013240814208984375" lon="19.9836869537830352783203125">
        <ele>1631.800048828125</ele>
        <time>2026-06-19T08:12:12.000Z</time>
        <extensions>
          <ns3:TrackPointExtension>
            <ns3:atemp>20.0</ns3:atemp>
          </ns3:TrackPointExtension>
        </extensions>
      </trkpt>
      <trkpt lat="42.5122516416013240814208984375" lon="19.9836869537830352783203125">
        <ele>1631.800048828125</ele>
        <time>2026-06-19T08:12:13.000Z</time>
        <extensions>
          <ns3:TrackPointExtension>
            <ns3:atemp>20.0</ns3:atemp>
          </ns3:TrackPointExtension>
        </extensions>
      </trkpt>
      <trkpt lat="42.5122516416013240814208984375" lon="19.9836869537830352783203125">
        <ele>1631.800048828125</ele>
        <time>2026-06-19T08:12:14.000Z</time>
        <extensions>
          <ns3:TrackPointExtension>
            <ns3:atemp>20.0</ns3:atemp>
          </ns3:TrackPointExtension>
        </extensions>
      </trkpt>
      <trkpt lat="42.5122516416013240814208984375" lon="19.9836869537830352783203125">
        <ele>1631.800048828125</ele>
        <time>2026-06-19T08:12:15.000Z</time>
        <extensions>
          <ns3:TrackPointExtension>
            <ns3:atemp>20.0</ns3:atemp>
          </ns3:TrackPointExtension>
        </extensions>
      </trkpt>
      <trkpt lat="42.5122516416013240814208984375" lon="19.9836869537830352783203125">
        <ele>1631.800048828125</ele>
        <time>2026-06-19T08:12:16.000Z</time>
        <extensions>
          <ns3:TrackPointExtension>
            <ns3:atemp>20.0</ns3:atemp>
          </ns3:TrackPointExtension>
        </extensions>
      </trkpt>
      <trkpt lat="42.5122516416013240814208984375" lon="19.9836869537830352783203125">
        <ele>1631.800048828125</ele>
        <time>2026-06-19T08:12:17.000Z</time>
        <extensions>
          <ns3:TrackPointExtension>
            <ns3:atemp>20.0</ns3:atemp>
          </ns3:TrackPointExtension>
        </extensions>
      </trkpt>
      <trkpt lat="42.5122516416013240814208984375" lon="19.9836869537830352783203125">
        <ele>1631.800048828125</ele>
        <time>2026-06-19T08:12:18.000Z</time>
        <extensions>
          <ns3:TrackPointExtension>
            <ns3:atemp>20.0</ns3:atemp>
          </ns3:TrackPointExtension>
        </extensions>
      </trkpt>
      <trkpt lat="42.5122516416013240814208984375" lon="19.9836869537830352783203125">
        <ele>1631.800048828125</ele>
        <time>2026-06-19T08:12:19.000Z</time>
        <extensions>
          <ns3:TrackPointExtension>
            <ns3:atemp>20.0</ns3:atemp>
          </ns3:TrackPointExtension>
        </extensions>
      </trkpt>
      <trkpt lat="42.5122516416013240814208984375" lon="19.9836869537830352783203125">
        <ele>1631.800048828125</ele>
        <time>2026-06-19T08:12:20.000Z</time>
        <extensions>
          <ns3:TrackPointExtension>
            <ns3:atemp>20.0</ns3:atemp>
          </ns3:TrackPointExtension>
        </extensions>
      </trkpt>
      <trkpt lat="42.5122516416013240814208984375" lon="19.9836869537830352783203125">
        <ele>1631.800048828125</ele>
        <time>2026-06-19T08:12:21.000Z</time>
        <extensions>
          <ns3:TrackPointExtension>
            <ns3:atemp>21.0</ns3:atemp>
          </ns3:TrackPointExtension>
        </extensions>
      </trkpt>
      <trkpt lat="42.5122516416013240814208984375" lon="19.9836869537830352783203125">
        <ele>1631.800048828125</ele>
        <time>2026-06-19T08:12:22.000Z</time>
        <extensions>
          <ns3:TrackPointExtension>
            <ns3:atemp>21.0</ns3:atemp>
          </ns3:TrackPointExtension>
        </extensions>
      </trkpt>
      <trkpt lat="42.5122516416013240814208984375" lon="19.9836869537830352783203125">
        <ele>1631.800048828125</ele>
        <time>2026-06-19T08:12:23.000Z</time>
        <extensions>
          <ns3:TrackPointExtension>
            <ns3:atemp>21.0</ns3:atemp>
          </ns3:TrackPointExtension>
        </extensions>
      </trkpt>
      <trkpt lat="42.5122516416013240814208984375" lon="19.9836869537830352783203125">
        <ele>1631.800048828125</ele>
        <time>2026-06-19T08:12:24.000Z</time>
        <extensions>
          <ns3:TrackPointExtension>
            <ns3:atemp>21.0</ns3:atemp>
          </ns3:TrackPointExtension>
        </extensions>
      </trkpt>
      <trkpt lat="42.5122516416013240814208984375" lon="19.9836869537830352783203125">
        <ele>1631.800048828125</ele>
        <time>2026-06-19T08:12:25.000Z</time>
        <extensions>
          <ns3:TrackPointExtension>
            <ns3:atemp>21.0</ns3:atemp>
          </ns3:TrackPointExtension>
        </extensions>
      </trkpt>
      <trkpt lat="42.5122516416013240814208984375" lon="19.9836869537830352783203125">
        <ele>1631.800048828125</ele>
        <time>2026-06-19T08:12:26.000Z</time>
        <extensions>
          <ns3:TrackPointExtension>
            <ns3:atemp>21.0</ns3:atemp>
          </ns3:TrackPointExtension>
        </extensions>
      </trkpt>
      <trkpt lat="42.5122516416013240814208984375" lon="19.9836869537830352783203125">
        <ele>1631.800048828125</ele>
        <time>2026-06-19T08:12:27.000Z</time>
        <extensions>
          <ns3:TrackPointExtension>
            <ns3:atemp>21.0</ns3:atemp>
          </ns3:TrackPointExtension>
        </extensions>
      </trkpt>
      <trkpt lat="42.5122516416013240814208984375" lon="19.9836869537830352783203125">
        <ele>1631.800048828125</ele>
        <time>2026-06-19T08:12:28.000Z</time>
        <extensions>
          <ns3:TrackPointExtension>
            <ns3:atemp>21.0</ns3:atemp>
          </ns3:TrackPointExtension>
        </extensions>
      </trkpt>
      <trkpt lat="42.5122516416013240814208984375" lon="19.9836869537830352783203125">
        <ele>1631.800048828125</ele>
        <time>2026-06-19T08:12:29.000Z</time>
        <extensions>
          <ns3:TrackPointExtension>
            <ns3:atemp>21.0</ns3:atemp>
          </ns3:TrackPointExtension>
        </extensions>
      </trkpt>
      <trkpt lat="42.5122516416013240814208984375" lon="19.9836869537830352783203125">
        <ele>1631.800048828125</ele>
        <time>2026-06-19T08:12:30.000Z</time>
        <extensions>
          <ns3:TrackPointExtension>
            <ns3:atemp>21.0</ns3:atemp>
          </ns3:TrackPointExtension>
        </extensions>
      </trkpt>
      <trkpt lat="42.5122516416013240814208984375" lon="19.9836869537830352783203125">
        <ele>1631.800048828125</ele>
        <time>2026-06-19T08:12:31.000Z</time>
        <extensions>
          <ns3:TrackPointExtension>
            <ns3:atemp>21.0</ns3:atemp>
          </ns3:TrackPointExtension>
        </extensions>
      </trkpt>
      <trkpt lat="42.5122516416013240814208984375" lon="19.9836869537830352783203125">
        <ele>1631.800048828125</ele>
        <time>2026-06-19T08:12:32.000Z</time>
        <extensions>
          <ns3:TrackPointExtension>
            <ns3:atemp>21.0</ns3:atemp>
          </ns3:TrackPointExtension>
        </extensions>
      </trkpt>
      <trkpt lat="42.5122516416013240814208984375" lon="19.9836869537830352783203125">
        <ele>1631.800048828125</ele>
        <time>2026-06-19T08:12:33.000Z</time>
        <extensions>
          <ns3:TrackPointExtension>
            <ns3:atemp>21.0</ns3:atemp>
          </ns3:TrackPointExtension>
        </extensions>
      </trkpt>
      <trkpt lat="42.5122516416013240814208984375" lon="19.9836869537830352783203125">
        <ele>1631.800048828125</ele>
        <time>2026-06-19T08:12:34.000Z</time>
        <extensions>
          <ns3:TrackPointExtension>
            <ns3:atemp>21.0</ns3:atemp>
          </ns3:TrackPointExtension>
        </extensions>
      </trkpt>
      <trkpt lat="42.5122516416013240814208984375" lon="19.9836869537830352783203125">
        <ele>1631.800048828125</ele>
        <time>2026-06-19T08:12:35.000Z</time>
        <extensions>
          <ns3:TrackPointExtension>
            <ns3:atemp>21.0</ns3:atemp>
          </ns3:TrackPointExtension>
        </extensions>
      </trkpt>
      <trkpt lat="42.5122516416013240814208984375" lon="19.9836869537830352783203125">
        <ele>1631.800048828125</ele>
        <time>2026-06-19T08:12:36.000Z</time>
        <extensions>
          <ns3:TrackPointExtension>
            <ns3:atemp>21.0</ns3:atemp>
          </ns3:TrackPointExtension>
        </extensions>
      </trkpt>
      <trkpt lat="42.5122516416013240814208984375" lon="19.9836869537830352783203125">
        <ele>1631.800048828125</ele>
        <time>2026-06-19T08:12:37.000Z</time>
        <extensions>
          <ns3:TrackPointExtension>
            <ns3:atemp>21.0</ns3:atemp>
          </ns3:TrackPointExtension>
        </extensions>
      </trkpt>
      <trkpt lat="42.5122516416013240814208984375" lon="19.9836869537830352783203125">
        <ele>1631.800048828125</ele>
        <time>2026-06-19T08:12:38.000Z</time>
        <extensions>
          <ns3:TrackPointExtension>
            <ns3:atemp>21.0</ns3:atemp>
          </ns3:TrackPointExtension>
        </extensions>
      </trkpt>
      <trkpt lat="42.5122516416013240814208984375" lon="19.9836869537830352783203125">
        <ele>1631.800048828125</ele>
        <time>2026-06-19T08:12:39.000Z</time>
        <extensions>
          <ns3:TrackPointExtension>
            <ns3:atemp>21.0</ns3:atemp>
          </ns3:TrackPointExtension>
        </extensions>
      </trkpt>
      <trkpt lat="42.5122516416013240814208984375" lon="19.9836869537830352783203125">
        <ele>1631.800048828125</ele>
        <time>2026-06-19T08:12:40.000Z</time>
        <extensions>
          <ns3:TrackPointExtension>
            <ns3:atemp>21.0</ns3:atemp>
          </ns3:TrackPointExtension>
        </extensions>
      </trkpt>
      <trkpt lat="42.5122516416013240814208984375" lon="19.9836869537830352783203125">
        <ele>1631.800048828125</ele>
        <time>2026-06-19T08:12:41.000Z</time>
        <extensions>
          <ns3:TrackPointExtension>
            <ns3:atemp>21.0</ns3:atemp>
          </ns3:TrackPointExtension>
        </extensions>
      </trkpt>
      <trkpt lat="42.5122516416013240814208984375" lon="19.9836869537830352783203125">
        <ele>1631.800048828125</ele>
        <time>2026-06-19T08:12:42.000Z</time>
        <extensions>
          <ns3:TrackPointExtension>
            <ns3:atemp>21.0</ns3:atemp>
          </ns3:TrackPointExtension>
        </extensions>
      </trkpt>
      <trkpt lat="42.5122516416013240814208984375" lon="19.9836869537830352783203125">
        <ele>1631.800048828125</ele>
        <time>2026-06-19T08:12:43.000Z</time>
        <extensions>
          <ns3:TrackPointExtension>
            <ns3:atemp>21.0</ns3:atemp>
          </ns3:TrackPointExtension>
        </extensions>
      </trkpt>
      <trkpt lat="42.5122516416013240814208984375" lon="19.9836869537830352783203125">
        <ele>1631.800048828125</ele>
        <time>2026-06-19T08:12:44.000Z</time>
        <extensions>
          <ns3:TrackPointExtension>
            <ns3:atemp>21.0</ns3:atemp>
          </ns3:TrackPointExtension>
        </extensions>
      </trkpt>
      <trkpt lat="42.5122516416013240814208984375" lon="19.9836869537830352783203125">
        <ele>1631.800048828125</ele>
        <time>2026-06-19T08:12:45.000Z</time>
        <extensions>
          <ns3:TrackPointExtension>
            <ns3:atemp>21.0</ns3:atemp>
          </ns3:TrackPointExtension>
        </extensions>
      </trkpt>
      <trkpt lat="42.5122516416013240814208984375" lon="19.9836869537830352783203125">
        <ele>1631.800048828125</ele>
        <time>2026-06-19T08:12:46.000Z</time>
        <extensions>
          <ns3:TrackPointExtension>
            <ns3:atemp>21.0</ns3:atemp>
          </ns3:TrackPointExtension>
        </extensions>
      </trkpt>
      <trkpt lat="42.5122516416013240814208984375" lon="19.9836869537830352783203125">
        <ele>1631.800048828125</ele>
        <time>2026-06-19T08:12:47.000Z</time>
        <extensions>
          <ns3:TrackPointExtension>
            <ns3:atemp>21.0</ns3:atemp>
          </ns3:TrackPointExtension>
        </extensions>
      </trkpt>
      <trkpt lat="42.5122516416013240814208984375" lon="19.9836869537830352783203125">
        <ele>1631.800048828125</ele>
        <time>2026-06-19T08:12:48.000Z</time>
        <extensions>
          <ns3:TrackPointExtension>
            <ns3:atemp>21.0</ns3:atemp>
          </ns3:TrackPointExtension>
        </extensions>
      </trkpt>
      <trkpt lat="42.5122516416013240814208984375" lon="19.9836869537830352783203125">
        <ele>1631.800048828125</ele>
        <time>2026-06-19T08:12:49.000Z</time>
        <extensions>
          <ns3:TrackPointExtension>
            <ns3:atemp>21.0</ns3:atemp>
          </ns3:TrackPointExtension>
        </extensions>
      </trkpt>
      <trkpt lat="42.5122516416013240814208984375" lon="19.9836869537830352783203125">
        <ele>1631.800048828125</ele>
        <time>2026-06-19T08:12:50.000Z</time>
        <extensions>
          <ns3:TrackPointExtension>
            <ns3:atemp>21.0</ns3:atemp>
          </ns3:TrackPointExtension>
        </extensions>
      </trkpt>
      <trkpt lat="42.5122516416013240814208984375" lon="19.9836869537830352783203125">
        <ele>1631.800048828125</ele>
        <time>2026-06-19T08:12:51.000Z</time>
        <extensions>
          <ns3:TrackPointExtension>
            <ns3:atemp>21.0</ns3:atemp>
          </ns3:TrackPointExtension>
        </extensions>
      </trkpt>
      <trkpt lat="42.5122516416013240814208984375" lon="19.9836869537830352783203125">
        <ele>1631.800048828125</ele>
        <time>2026-06-19T08:12:52.000Z</time>
        <extensions>
          <ns3:TrackPointExtension>
            <ns3:atemp>21.0</ns3:atemp>
          </ns3:TrackPointExtension>
        </extensions>
      </trkpt>
      <trkpt lat="42.5122516416013240814208984375" lon="19.9836869537830352783203125">
        <ele>1631.800048828125</ele>
        <time>2026-06-19T08:12:53.000Z</time>
        <extensions>
          <ns3:TrackPointExtension>
            <ns3:atemp>21.0</ns3:atemp>
          </ns3:TrackPointExtension>
        </extensions>
      </trkpt>
      <trkpt lat="42.5122516416013240814208984375" lon="19.9836869537830352783203125">
        <ele>1631.800048828125</ele>
        <time>2026-06-19T08:12:54.000Z</time>
        <extensions>
          <ns3:TrackPointExtension>
            <ns3:atemp>21.0</ns3:atemp>
          </ns3:TrackPointExtension>
        </extensions>
      </trkpt>
      <trkpt lat="42.5122516416013240814208984375" lon="19.9836869537830352783203125">
        <ele>1631.800048828125</ele>
        <time>2026-06-19T08:12:55.000Z</time>
        <extensions>
          <ns3:TrackPointExtension>
            <ns3:atemp>21.0</ns3:atemp>
          </ns3:TrackPointExtension>
        </extensions>
      </trkpt>
      <trkpt lat="42.5122516416013240814208984375" lon="19.9836869537830352783203125">
        <ele>1631.800048828125</ele>
        <time>2026-06-19T08:12:56.000Z</time>
        <extensions>
          <ns3:TrackPointExtension>
            <ns3:atemp>21.0</ns3:atemp>
          </ns3:TrackPointExtension>
        </extensions>
      </trkpt>
      <trkpt lat="42.5122516416013240814208984375" lon="19.9836869537830352783203125">
        <ele>1631.800048828125</ele>
        <time>2026-06-19T08:12:57.000Z</time>
        <extensions>
          <ns3:TrackPointExtension>
            <ns3:atemp>21.0</ns3:atemp>
          </ns3:TrackPointExtension>
        </extensions>
      </trkpt>
      <trkpt lat="42.5122516416013240814208984375" lon="19.9836869537830352783203125">
        <ele>1631.800048828125</ele>
        <time>2026-06-19T08:12:58.000Z</time>
        <extensions>
          <ns3:TrackPointExtension>
            <ns3:atemp>21.0</ns3:atemp>
          </ns3:TrackPointExtension>
        </extensions>
      </trkpt>
      <trkpt lat="42.5122516416013240814208984375" lon="19.9836869537830352783203125">
        <ele>1631.800048828125</ele>
        <time>2026-06-19T08:12:59.000Z</time>
        <extensions>
          <ns3:TrackPointExtension>
            <ns3:atemp>21.0</ns3:atemp>
          </ns3:TrackPointExtension>
        </extensions>
      </trkpt>
      <trkpt lat="42.5122516416013240814208984375" lon="19.9836869537830352783203125">
        <ele>1631.800048828125</ele>
        <time>2026-06-19T08:13:00.000Z</time>
        <extensions>
          <ns3:TrackPointExtension>
            <ns3:atemp>21.0</ns3:atemp>
          </ns3:TrackPointExtension>
        </extensions>
      </trkpt>
      <trkpt lat="42.5122516416013240814208984375" lon="19.9836869537830352783203125">
        <ele>1631.800048828125</ele>
        <time>2026-06-19T08:13:01.000Z</time>
        <extensions>
          <ns3:TrackPointExtension>
            <ns3:atemp>21.0</ns3:atemp>
          </ns3:TrackPointExtension>
        </extensions>
      </trkpt>
      <trkpt lat="42.5122516416013240814208984375" lon="19.9836869537830352783203125">
        <ele>1631.800048828125</ele>
        <time>2026-06-19T08:13:02.000Z</time>
        <extensions>
          <ns3:TrackPointExtension>
            <ns3:atemp>21.0</ns3:atemp>
          </ns3:TrackPointExtension>
        </extensions>
      </trkpt>
      <trkpt lat="42.5122516416013240814208984375" lon="19.9836869537830352783203125">
        <ele>1631.800048828125</ele>
        <time>2026-06-19T08:13:03.000Z</time>
        <extensions>
          <ns3:TrackPointExtension>
            <ns3:atemp>21.0</ns3:atemp>
          </ns3:TrackPointExtension>
        </extensions>
      </trkpt>
      <trkpt lat="42.5122516416013240814208984375" lon="19.9836869537830352783203125">
        <ele>1631.800048828125</ele>
        <time>2026-06-19T08:13:04.000Z</time>
        <extensions>
          <ns3:TrackPointExtension>
            <ns3:atemp>21.0</ns3:atemp>
          </ns3:TrackPointExtension>
        </extensions>
      </trkpt>
      <trkpt lat="42.5122516416013240814208984375" lon="19.9836869537830352783203125">
        <ele>1631.800048828125</ele>
        <time>2026-06-19T08:13:05.000Z</time>
        <extensions>
          <ns3:TrackPointExtension>
            <ns3:atemp>21.0</ns3:atemp>
          </ns3:TrackPointExtension>
        </extensions>
      </trkpt>
      <trkpt lat="42.5122516416013240814208984375" lon="19.9836869537830352783203125">
        <ele>1631.800048828125</ele>
        <time>2026-06-19T08:13:06.000Z</time>
        <extensions>
          <ns3:TrackPointExtension>
            <ns3:atemp>21.0</ns3:atemp>
          </ns3:TrackPointExtension>
        </extensions>
      </trkpt>
      <trkpt lat="42.5122516416013240814208984375" lon="19.9836869537830352783203125">
        <ele>1631.800048828125</ele>
        <time>2026-06-19T08:13:07.000Z</time>
        <extensions>
          <ns3:TrackPointExtension>
            <ns3:atemp>21.0</ns3:atemp>
          </ns3:TrackPointExtension>
        </extensions>
      </trkpt>
      <trkpt lat="42.5122516416013240814208984375" lon="19.9836869537830352783203125">
        <ele>1631.800048828125</ele>
        <time>2026-06-19T08:13:08.000Z</time>
        <extensions>
          <ns3:TrackPointExtension>
            <ns3:atemp>21.0</ns3:atemp>
          </ns3:TrackPointExtension>
        </extensions>
      </trkpt>
      <trkpt lat="42.5122516416013240814208984375" lon="19.9836869537830352783203125">
        <ele>1631.800048828125</ele>
        <time>2026-06-19T08:13:09.000Z</time>
        <extensions>
          <ns3:TrackPointExtension>
            <ns3:atemp>21.0</ns3:atemp>
          </ns3:TrackPointExtension>
        </extensions>
      </trkpt>
      <trkpt lat="42.5122516416013240814208984375" lon="19.9836869537830352783203125">
        <ele>1631.800048828125</ele>
        <time>2026-06-19T08:13:10.000Z</time>
        <extensions>
          <ns3:TrackPointExtension>
            <ns3:atemp>21.0</ns3:atemp>
          </ns3:TrackPointExtension>
        </extensions>
      </trkpt>
      <trkpt lat="42.5122516416013240814208984375" lon="19.9836869537830352783203125">
        <ele>1631.800048828125</ele>
        <time>2026-06-19T08:13:11.000Z</time>
        <extensions>
          <ns3:TrackPointExtension>
            <ns3:atemp>21.0</ns3:atemp>
          </ns3:TrackPointExtension>
        </extensions>
      </trkpt>
      <trkpt lat="42.5122516416013240814208984375" lon="19.9836869537830352783203125">
        <ele>1631.800048828125</ele>
        <time>2026-06-19T08:13:12.000Z</time>
        <extensions>
          <ns3:TrackPointExtension>
            <ns3:atemp>21.0</ns3:atemp>
          </ns3:TrackPointExtension>
        </extensions>
      </trkpt>
      <trkpt lat="42.5122516416013240814208984375" lon="19.9836869537830352783203125">
        <ele>1631.800048828125</ele>
        <time>2026-06-19T08:13:13.000Z</time>
        <extensions>
          <ns3:TrackPointExtension>
            <ns3:atemp>21.0</ns3:atemp>
          </ns3:TrackPointExtension>
        </extensions>
      </trkpt>
      <trkpt lat="42.5122516416013240814208984375" lon="19.9836869537830352783203125">
        <ele>1631.800048828125</ele>
        <time>2026-06-19T08:13:14.000Z</time>
        <extensions>
          <ns3:TrackPointExtension>
            <ns3:atemp>21.0</ns3:atemp>
          </ns3:TrackPointExtension>
        </extensions>
      </trkpt>
      <trkpt lat="42.5122516416013240814208984375" lon="19.9836869537830352783203125">
        <ele>1631.800048828125</ele>
        <time>2026-06-19T08:13:15.000Z</time>
        <extensions>
          <ns3:TrackPointExtension>
            <ns3:atemp>21.0</ns3:atemp>
          </ns3:TrackPointExtension>
        </extensions>
      </trkpt>
      <trkpt lat="42.5122516416013240814208984375" lon="19.9836869537830352783203125">
        <ele>1631.800048828125</ele>
        <time>2026-06-19T08:13:16.000Z</time>
        <extensions>
          <ns3:TrackPointExtension>
            <ns3:atemp>21.0</ns3:atemp>
          </ns3:TrackPointExtension>
        </extensions>
      </trkpt>
      <trkpt lat="42.5122516416013240814208984375" lon="19.9836869537830352783203125">
        <ele>1631.800048828125</ele>
        <time>2026-06-19T08:13:17.000Z</time>
        <extensions>
          <ns3:TrackPointExtension>
            <ns3:atemp>21.0</ns3:atemp>
          </ns3:TrackPointExtension>
        </extensions>
      </trkpt>
      <trkpt lat="42.5122516416013240814208984375" lon="19.9836869537830352783203125">
        <ele>1631.800048828125</ele>
        <time>2026-06-19T08:13:18.000Z</time>
        <extensions>
          <ns3:TrackPointExtension>
            <ns3:atemp>21.0</ns3:atemp>
          </ns3:TrackPointExtension>
        </extensions>
      </trkpt>
      <trkpt lat="42.5122516416013240814208984375" lon="19.9836869537830352783203125">
        <ele>1631.800048828125</ele>
        <time>2026-06-19T08:13:19.000Z</time>
        <extensions>
          <ns3:TrackPointExtension>
            <ns3:atemp>21.0</ns3:atemp>
          </ns3:TrackPointExtension>
        </extensions>
      </trkpt>
      <trkpt lat="42.5122516416013240814208984375" lon="19.9836869537830352783203125">
        <ele>1631.800048828125</ele>
        <time>2026-06-19T08:13:20.000Z</time>
        <extensions>
          <ns3:TrackPointExtension>
            <ns3:atemp>21.0</ns3:atemp>
          </ns3:TrackPointExtension>
        </extensions>
      </trkpt>
      <trkpt lat="42.5122516416013240814208984375" lon="19.9836869537830352783203125">
        <ele>1631.800048828125</ele>
        <time>2026-06-19T08:13:21.000Z</time>
        <extensions>
          <ns3:TrackPointExtension>
            <ns3:atemp>21.0</ns3:atemp>
          </ns3:TrackPointExtension>
        </extensions>
      </trkpt>
      <trkpt lat="42.5122516416013240814208984375" lon="19.9836869537830352783203125">
        <ele>1631.800048828125</ele>
        <time>2026-06-19T08:13:22.000Z</time>
        <extensions>
          <ns3:TrackPointExtension>
            <ns3:atemp>21.0</ns3:atemp>
          </ns3:TrackPointExtension>
        </extensions>
      </trkpt>
      <trkpt lat="42.5122516416013240814208984375" lon="19.9836869537830352783203125">
        <ele>1631.800048828125</ele>
        <time>2026-06-19T08:13:23.000Z</time>
        <extensions>
          <ns3:TrackPointExtension>
            <ns3:atemp>21.0</ns3:atemp>
          </ns3:TrackPointExtension>
        </extensions>
      </trkpt>
      <trkpt lat="42.5122516416013240814208984375" lon="19.9836869537830352783203125">
        <ele>1631.800048828125</ele>
        <time>2026-06-19T08:13:24.000Z</time>
        <extensions>
          <ns3:TrackPointExtension>
            <ns3:atemp>21.0</ns3:atemp>
          </ns3:TrackPointExtension>
        </extensions>
      </trkpt>
      <trkpt lat="42.5122516416013240814208984375" lon="19.9836869537830352783203125">
        <ele>1631.800048828125</ele>
        <time>2026-06-19T08:13:25.000Z</time>
        <extensions>
          <ns3:TrackPointExtension>
            <ns3:atemp>21.0</ns3:atemp>
          </ns3:TrackPointExtension>
        </extensions>
      </trkpt>
      <trkpt lat="42.5122516416013240814208984375" lon="19.9836869537830352783203125">
        <ele>1631.800048828125</ele>
        <time>2026-06-19T08:13:26.000Z</time>
        <extensions>
          <ns3:TrackPointExtension>
            <ns3:atemp>21.0</ns3:atemp>
          </ns3:TrackPointExtension>
        </extensions>
      </trkpt>
      <trkpt lat="42.5122516416013240814208984375" lon="19.9836869537830352783203125">
        <ele>1631.800048828125</ele>
        <time>2026-06-19T08:13:27.000Z</time>
        <extensions>
          <ns3:TrackPointExtension>
            <ns3:atemp>21.0</ns3:atemp>
          </ns3:TrackPointExtension>
        </extensions>
      </trkpt>
      <trkpt lat="42.5122516416013240814208984375" lon="19.9836869537830352783203125">
        <ele>1631.800048828125</ele>
        <time>2026-06-19T08:13:28.000Z</time>
        <extensions>
          <ns3:TrackPointExtension>
            <ns3:atemp>21.0</ns3:atemp>
          </ns3:TrackPointExtension>
        </extensions>
      </trkpt>
      <trkpt lat="42.5122516416013240814208984375" lon="19.9836869537830352783203125">
        <ele>1631.800048828125</ele>
        <time>2026-06-19T08:13:29.000Z</time>
        <extensions>
          <ns3:TrackPointExtension>
            <ns3:atemp>21.0</ns3:atemp>
          </ns3:TrackPointExtension>
        </extensions>
      </trkpt>
      <trkpt lat="42.5122516416013240814208984375" lon="19.9836869537830352783203125">
        <ele>1631.800048828125</ele>
        <time>2026-06-19T08:13:30.000Z</time>
        <extensions>
          <ns3:TrackPointExtension>
            <ns3:atemp>21.0</ns3:atemp>
          </ns3:TrackPointExtension>
        </extensions>
      </trkpt>
      <trkpt lat="42.5122516416013240814208984375" lon="19.9836869537830352783203125">
        <ele>1631.800048828125</ele>
        <time>2026-06-19T08:13:31.000Z</time>
        <extensions>
          <ns3:TrackPointExtension>
            <ns3:atemp>21.0</ns3:atemp>
          </ns3:TrackPointExtension>
        </extensions>
      </trkpt>
      <trkpt lat="42.5122516416013240814208984375" lon="19.9836869537830352783203125">
        <ele>1631.800048828125</ele>
        <time>2026-06-19T08:13:32.000Z</time>
        <extensions>
          <ns3:TrackPointExtension>
            <ns3:atemp>21.0</ns3:atemp>
          </ns3:TrackPointExtension>
        </extensions>
      </trkpt>
      <trkpt lat="42.5122516416013240814208984375" lon="19.9836869537830352783203125">
        <ele>1631.800048828125</ele>
        <time>2026-06-19T08:13:33.000Z</time>
        <extensions>
          <ns3:TrackPointExtension>
            <ns3:atemp>21.0</ns3:atemp>
          </ns3:TrackPointExtension>
        </extensions>
      </trkpt>
      <trkpt lat="42.5122516416013240814208984375" lon="19.9836869537830352783203125">
        <ele>1631.800048828125</ele>
        <time>2026-06-19T08:13:34.000Z</time>
        <extensions>
          <ns3:TrackPointExtension>
            <ns3:atemp>21.0</ns3:atemp>
          </ns3:TrackPointExtension>
        </extensions>
      </trkpt>
      <trkpt lat="42.5122516416013240814208984375" lon="19.9836869537830352783203125">
        <ele>1631.800048828125</ele>
        <time>2026-06-19T08:13:35.000Z</time>
        <extensions>
          <ns3:TrackPointExtension>
            <ns3:atemp>21.0</ns3:atemp>
          </ns3:TrackPointExtension>
        </extensions>
      </trkpt>
      <trkpt lat="42.5122516416013240814208984375" lon="19.9836869537830352783203125">
        <ele>1631.800048828125</ele>
        <time>2026-06-19T08:13:36.000Z</time>
        <extensions>
          <ns3:TrackPointExtension>
            <ns3:atemp>21.0</ns3:atemp>
          </ns3:TrackPointExtension>
        </extensions>
      </trkpt>
      <trkpt lat="42.5122516416013240814208984375" lon="19.9836869537830352783203125">
        <ele>1631.800048828125</ele>
        <time>2026-06-19T08:13:37.000Z</time>
        <extensions>
          <ns3:TrackPointExtension>
            <ns3:atemp>21.0</ns3:atemp>
          </ns3:TrackPointExtension>
        </extensions>
      </trkpt>
      <trkpt lat="42.5122516416013240814208984375" lon="19.9836869537830352783203125">
        <ele>1631.800048828125</ele>
        <time>2026-06-19T08:13:38.000Z</time>
        <extensions>
          <ns3:TrackPointExtension>
            <ns3:atemp>21.0</ns3:atemp>
          </ns3:TrackPointExtension>
        </extensions>
      </trkpt>
      <trkpt lat="42.5122516416013240814208984375" lon="19.9836869537830352783203125">
        <ele>1631.800048828125</ele>
        <time>2026-06-19T08:13:39.000Z</time>
        <extensions>
          <ns3:TrackPointExtension>
            <ns3:atemp>21.0</ns3:atemp>
          </ns3:TrackPointExtension>
        </extensions>
      </trkpt>
      <trkpt lat="42.5122516416013240814208984375" lon="19.9836869537830352783203125">
        <ele>1631.800048828125</ele>
        <time>2026-06-19T08:13:40.000Z</time>
        <extensions>
          <ns3:TrackPointExtension>
            <ns3:atemp>21.0</ns3:atemp>
          </ns3:TrackPointExtension>
        </extensions>
      </trkpt>
      <trkpt lat="42.5122516416013240814208984375" lon="19.9836869537830352783203125">
        <ele>1631.800048828125</ele>
        <time>2026-06-19T08:13:41.000Z</time>
        <extensions>
          <ns3:TrackPointExtension>
            <ns3:atemp>21.0</ns3:atemp>
          </ns3:TrackPointExtension>
        </extensions>
      </trkpt>
      <trkpt lat="42.5122516416013240814208984375" lon="19.9836869537830352783203125">
        <ele>1631.800048828125</ele>
        <time>2026-06-19T08:13:42.000Z</time>
        <extensions>
          <ns3:TrackPointExtension>
            <ns3:atemp>21.0</ns3:atemp>
          </ns3:TrackPointExtension>
        </extensions>
      </trkpt>
      <trkpt lat="42.5122516416013240814208984375" lon="19.9836869537830352783203125">
        <ele>1631.800048828125</ele>
        <time>2026-06-19T08:13:43.000Z</time>
        <extensions>
          <ns3:TrackPointExtension>
            <ns3:atemp>21.0</ns3:atemp>
          </ns3:TrackPointExtension>
        </extensions>
      </trkpt>
      <trkpt lat="42.5122516416013240814208984375" lon="19.9836869537830352783203125">
        <ele>1631.800048828125</ele>
        <time>2026-06-19T08:13:44.000Z</time>
        <extensions>
          <ns3:TrackPointExtension>
            <ns3:atemp>21.0</ns3:atemp>
          </ns3:TrackPointExtension>
        </extensions>
      </trkpt>
      <trkpt lat="42.5122516416013240814208984375" lon="19.9836869537830352783203125">
        <ele>1631.800048828125</ele>
        <time>2026-06-19T08:13:45.000Z</time>
        <extensions>
          <ns3:TrackPointExtension>
            <ns3:atemp>21.0</ns3:atemp>
          </ns3:TrackPointExtension>
        </extensions>
      </trkpt>
      <trkpt lat="42.5122516416013240814208984375" lon="19.9836869537830352783203125">
        <ele>1631.800048828125</ele>
        <time>2026-06-19T08:13:46.000Z</time>
        <extensions>
          <ns3:TrackPointExtension>
            <ns3:atemp>21.0</ns3:atemp>
          </ns3:TrackPointExtension>
        </extensions>
      </trkpt>
      <trkpt lat="42.5122516416013240814208984375" lon="19.9836869537830352783203125">
        <ele>1631.800048828125</ele>
        <time>2026-06-19T08:13:47.000Z</time>
        <extensions>
          <ns3:TrackPointExtension>
            <ns3:atemp>21.0</ns3:atemp>
          </ns3:TrackPointExtension>
        </extensions>
      </trkpt>
      <trkpt lat="42.5122516416013240814208984375" lon="19.9836869537830352783203125">
        <ele>1631.800048828125</ele>
        <time>2026-06-19T08:13:48.000Z</time>
        <extensions>
          <ns3:TrackPointExtension>
            <ns3:atemp>21.0</ns3:atemp>
          </ns3:TrackPointExtension>
        </extensions>
      </trkpt>
      <trkpt lat="42.5122516416013240814208984375" lon="19.9836869537830352783203125">
        <ele>1631.800048828125</ele>
        <time>2026-06-19T08:13:49.000Z</time>
        <extensions>
          <ns3:TrackPointExtension>
            <ns3:atemp>21.0</ns3:atemp>
          </ns3:TrackPointExtension>
        </extensions>
      </trkpt>
      <trkpt lat="42.5122516416013240814208984375" lon="19.9836869537830352783203125">
        <ele>1631.800048828125</ele>
        <time>2026-06-19T08:13:50.000Z</time>
        <extensions>
          <ns3:TrackPointExtension>
            <ns3:atemp>21.0</ns3:atemp>
          </ns3:TrackPointExtension>
        </extensions>
      </trkpt>
      <trkpt lat="42.5122516416013240814208984375" lon="19.9836869537830352783203125">
        <ele>1631.800048828125</ele>
        <time>2026-06-19T08:13:51.000Z</time>
        <extensions>
          <ns3:TrackPointExtension>
            <ns3:atemp>21.0</ns3:atemp>
          </ns3:TrackPointExtension>
        </extensions>
      </trkpt>
      <trkpt lat="42.5122516416013240814208984375" lon="19.9836869537830352783203125">
        <ele>1631.800048828125</ele>
        <time>2026-06-19T08:13:52.000Z</time>
        <extensions>
          <ns3:TrackPointExtension>
            <ns3:atemp>21.0</ns3:atemp>
          </ns3:TrackPointExtension>
        </extensions>
      </trkpt>
      <trkpt lat="42.5122516416013240814208984375" lon="19.9836869537830352783203125">
        <ele>1631.800048828125</ele>
        <time>2026-06-19T08:13:53.000Z</time>
        <extensions>
          <ns3:TrackPointExtension>
            <ns3:atemp>21.0</ns3:atemp>
          </ns3:TrackPointExtension>
        </extensions>
      </trkpt>
      <trkpt lat="42.5122516416013240814208984375" lon="19.9836869537830352783203125">
        <ele>1631.800048828125</ele>
        <time>2026-06-19T08:13:54.000Z</time>
        <extensions>
          <ns3:TrackPointExtension>
            <ns3:atemp>21.0</ns3:atemp>
          </ns3:TrackPointExtension>
        </extensions>
      </trkpt>
      <trkpt lat="42.5122516416013240814208984375" lon="19.9836869537830352783203125">
        <ele>1631.800048828125</ele>
        <time>2026-06-19T08:13:55.000Z</time>
        <extensions>
          <ns3:TrackPointExtension>
            <ns3:atemp>21.0</ns3:atemp>
          </ns3:TrackPointExtension>
        </extensions>
      </trkpt>
      <trkpt lat="42.5122516416013240814208984375" lon="19.9836869537830352783203125">
        <ele>1631.800048828125</ele>
        <time>2026-06-19T08:13:56.000Z</time>
        <extensions>
          <ns3:TrackPointExtension>
            <ns3:atemp>21.0</ns3:atemp>
          </ns3:TrackPointExtension>
        </extensions>
      </trkpt>
      <trkpt lat="42.5122516416013240814208984375" lon="19.9836869537830352783203125">
        <ele>1631.800048828125</ele>
        <time>2026-06-19T08:13:57.000Z</time>
        <extensions>
          <ns3:TrackPointExtension>
            <ns3:atemp>21.0</ns3:atemp>
          </ns3:TrackPointExtension>
        </extensions>
      </trkpt>
      <trkpt lat="42.5122516416013240814208984375" lon="19.9836869537830352783203125">
        <ele>1631.800048828125</ele>
        <time>2026-06-19T08:13:58.000Z</time>
        <extensions>
          <ns3:TrackPointExtension>
            <ns3:atemp>21.0</ns3:atemp>
          </ns3:TrackPointExtension>
        </extensions>
      </trkpt>
      <trkpt lat="42.5122516416013240814208984375" lon="19.9836869537830352783203125">
        <ele>1631.800048828125</ele>
        <time>2026-06-19T08:13:59.000Z</time>
        <extensions>
          <ns3:TrackPointExtension>
            <ns3:atemp>21.0</ns3:atemp>
          </ns3:TrackPointExtension>
        </extensions>
      </trkpt>
      <trkpt lat="42.5122516416013240814208984375" lon="19.9836869537830352783203125">
        <ele>1631.800048828125</ele>
        <time>2026-06-19T08:14:00.000Z</time>
        <extensions>
          <ns3:TrackPointExtension>
            <ns3:atemp>21.0</ns3:atemp>
          </ns3:TrackPointExtension>
        </extensions>
      </trkpt>
      <trkpt lat="42.5122516416013240814208984375" lon="19.9836869537830352783203125">
        <ele>1631.800048828125</ele>
        <time>2026-06-19T08:14:01.000Z</time>
        <extensions>
          <ns3:TrackPointExtension>
            <ns3:atemp>21.0</ns3:atemp>
          </ns3:TrackPointExtension>
        </extensions>
      </trkpt>
      <trkpt lat="42.5122516416013240814208984375" lon="19.9836869537830352783203125">
        <ele>1631.800048828125</ele>
        <time>2026-06-19T08:14:02.000Z</time>
        <extensions>
          <ns3:TrackPointExtension>
            <ns3:atemp>21.0</ns3:atemp>
          </ns3:TrackPointExtension>
        </extensions>
      </trkpt>
      <trkpt lat="42.5122516416013240814208984375" lon="19.9836869537830352783203125">
        <ele>1631.800048828125</ele>
        <time>2026-06-19T08:14:03.000Z</time>
        <extensions>
          <ns3:TrackPointExtension>
            <ns3:atemp>21.0</ns3:atemp>
          </ns3:TrackPointExtension>
        </extensions>
      </trkpt>
      <trkpt lat="42.5122516416013240814208984375" lon="19.9836869537830352783203125">
        <ele>1631.800048828125</ele>
        <time>2026-06-19T08:14:04.000Z</time>
        <extensions>
          <ns3:TrackPointExtension>
            <ns3:atemp>21.0</ns3:atemp>
          </ns3:TrackPointExtension>
        </extensions>
      </trkpt>
      <trkpt lat="42.5122516416013240814208984375" lon="19.9836869537830352783203125">
        <ele>1631.800048828125</ele>
        <time>2026-06-19T08:14:05.000Z</time>
        <extensions>
          <ns3:TrackPointExtension>
            <ns3:atemp>21.0</ns3:atemp>
          </ns3:TrackPointExtension>
        </extensions>
      </trkpt>
      <trkpt lat="42.5122516416013240814208984375" lon="19.9836869537830352783203125">
        <ele>1631.800048828125</ele>
        <time>2026-06-19T08:14:06.000Z</time>
        <extensions>
          <ns3:TrackPointExtension>
            <ns3:atemp>21.0</ns3:atemp>
          </ns3:TrackPointExtension>
        </extensions>
      </trkpt>
      <trkpt lat="42.5122516416013240814208984375" lon="19.9836869537830352783203125">
        <ele>1631.800048828125</ele>
        <time>2026-06-19T08:14:07.000Z</time>
        <extensions>
          <ns3:TrackPointExtension>
            <ns3:atemp>21.0</ns3:atemp>
          </ns3:TrackPointExtension>
        </extensions>
      </trkpt>
      <trkpt lat="42.5122516416013240814208984375" lon="19.9836869537830352783203125">
        <ele>1631.800048828125</ele>
        <time>2026-06-19T08:14:08.000Z</time>
        <extensions>
          <ns3:TrackPointExtension>
            <ns3:atemp>21.0</ns3:atemp>
          </ns3:TrackPointExtension>
        </extensions>
      </trkpt>
      <trkpt lat="42.5122516416013240814208984375" lon="19.9836869537830352783203125">
        <ele>1631.800048828125</ele>
        <time>2026-06-19T08:14:09.000Z</time>
        <extensions>
          <ns3:TrackPointExtension>
            <ns3:atemp>21.0</ns3:atemp>
          </ns3:TrackPointExtension>
        </extensions>
      </trkpt>
      <trkpt lat="42.5122516416013240814208984375" lon="19.9836869537830352783203125">
        <ele>1631.800048828125</ele>
        <time>2026-06-19T08:14:10.000Z</time>
        <extensions>
          <ns3:TrackPointExtension>
            <ns3:atemp>21.0</ns3:atemp>
          </ns3:TrackPointExtension>
        </extensions>
      </trkpt>
      <trkpt lat="42.5122516416013240814208984375" lon="19.9836869537830352783203125">
        <ele>1631.800048828125</ele>
        <time>2026-06-19T08:14:11.000Z</time>
        <extensions>
          <ns3:TrackPointExtension>
            <ns3:atemp>21.0</ns3:atemp>
          </ns3:TrackPointExtension>
        </extensions>
      </trkpt>
      <trkpt lat="42.5122516416013240814208984375" lon="19.9836869537830352783203125">
        <ele>1631.800048828125</ele>
        <time>2026-06-19T08:14:12.000Z</time>
        <extensions>
          <ns3:TrackPointExtension>
            <ns3:atemp>21.0</ns3:atemp>
          </ns3:TrackPointExtension>
        </extensions>
      </trkpt>
      <trkpt lat="42.5122516416013240814208984375" lon="19.9836869537830352783203125">
        <ele>1631.800048828125</ele>
        <time>2026-06-19T08:14:13.000Z</time>
        <extensions>
          <ns3:TrackPointExtension>
            <ns3:atemp>21.0</ns3:atemp>
          </ns3:TrackPointExtension>
        </extensions>
      </trkpt>
      <trkpt lat="42.5122516416013240814208984375" lon="19.9836869537830352783203125">
        <ele>1631.800048828125</ele>
        <time>2026-06-19T08:14:14.000Z</time>
        <extensions>
          <ns3:TrackPointExtension>
            <ns3:atemp>21.0</ns3:atemp>
          </ns3:TrackPointExtension>
        </extensions>
      </trkpt>
      <trkpt lat="42.5122516416013240814208984375" lon="19.9836869537830352783203125">
        <ele>1631.800048828125</ele>
        <time>2026-06-19T08:14:15.000Z</time>
        <extensions>
          <ns3:TrackPointExtension>
            <ns3:atemp>21.0</ns3:atemp>
          </ns3:TrackPointExtension>
        </extensions>
      </trkpt>
      <trkpt lat="42.5122516416013240814208984375" lon="19.9836869537830352783203125">
        <ele>1631.800048828125</ele>
        <time>2026-06-19T08:14:16.000Z</time>
        <extensions>
          <ns3:TrackPointExtension>
            <ns3:atemp>21.0</ns3:atemp>
          </ns3:TrackPointExtension>
        </extensions>
      </trkpt>
      <trkpt lat="42.5122516416013240814208984375" lon="19.9836869537830352783203125">
        <ele>1631.800048828125</ele>
        <time>2026-06-19T08:14:17.000Z</time>
        <extensions>
          <ns3:TrackPointExtension>
            <ns3:atemp>21.0</ns3:atemp>
          </ns3:TrackPointExtension>
        </extensions>
      </trkpt>
      <trkpt lat="42.5122516416013240814208984375" lon="19.9836869537830352783203125">
        <ele>1631.800048828125</ele>
        <time>2026-06-19T08:14:18.000Z</time>
        <extensions>
          <ns3:TrackPointExtension>
            <ns3:atemp>21.0</ns3:atemp>
          </ns3:TrackPointExtension>
        </extensions>
      </trkpt>
      <trkpt lat="42.5122516416013240814208984375" lon="19.9836869537830352783203125">
        <ele>1631.800048828125</ele>
        <time>2026-06-19T08:14:19.000Z</time>
        <extensions>
          <ns3:TrackPointExtension>
            <ns3:atemp>21.0</ns3:atemp>
          </ns3:TrackPointExtension>
        </extensions>
      </trkpt>
      <trkpt lat="42.5122516416013240814208984375" lon="19.9836869537830352783203125">
        <ele>1631.800048828125</ele>
        <time>2026-06-19T08:14:20.000Z</time>
        <extensions>
          <ns3:TrackPointExtension>
            <ns3:atemp>21.0</ns3:atemp>
          </ns3:TrackPointExtension>
        </extensions>
      </trkpt>
      <trkpt lat="42.5122516416013240814208984375" lon="19.9836869537830352783203125">
        <ele>1631.800048828125</ele>
        <time>2026-06-19T08:14:21.000Z</time>
        <extensions>
          <ns3:TrackPointExtension>
            <ns3:atemp>21.0</ns3:atemp>
          </ns3:TrackPointExtension>
        </extensions>
      </trkpt>
      <trkpt lat="42.5122516416013240814208984375" lon="19.9836869537830352783203125">
        <ele>1631.800048828125</ele>
        <time>2026-06-19T08:14:22.000Z</time>
        <extensions>
          <ns3:TrackPointExtension>
            <ns3:atemp>21.0</ns3:atemp>
          </ns3:TrackPointExtension>
        </extensions>
      </trkpt>
      <trkpt lat="42.5122516416013240814208984375" lon="19.9836869537830352783203125">
        <ele>1631.800048828125</ele>
        <time>2026-06-19T08:14:23.000Z</time>
        <extensions>
          <ns3:TrackPointExtension>
            <ns3:atemp>21.0</ns3:atemp>
          </ns3:TrackPointExtension>
        </extensions>
      </trkpt>
      <trkpt lat="42.5122516416013240814208984375" lon="19.9836869537830352783203125">
        <ele>1631.800048828125</ele>
        <time>2026-06-19T08:14:24.000Z</time>
        <extensions>
          <ns3:TrackPointExtension>
            <ns3:atemp>21.0</ns3:atemp>
          </ns3:TrackPointExtension>
        </extensions>
      </trkpt>
      <trkpt lat="42.5122516416013240814208984375" lon="19.9836869537830352783203125">
        <ele>1631.800048828125</ele>
        <time>2026-06-19T08:14:25.000Z</time>
        <extensions>
          <ns3:TrackPointExtension>
            <ns3:atemp>21.0</ns3:atemp>
          </ns3:TrackPointExtension>
        </extensions>
      </trkpt>
      <trkpt lat="42.5122516416013240814208984375" lon="19.9836869537830352783203125">
        <ele>1631.800048828125</ele>
        <time>2026-06-19T08:14:26.000Z</time>
        <extensions>
          <ns3:TrackPointExtension>
            <ns3:atemp>21.0</ns3:atemp>
          </ns3:TrackPointExtension>
        </extensions>
      </trkpt>
      <trkpt lat="42.5122516416013240814208984375" lon="19.9836869537830352783203125">
        <ele>1631.800048828125</ele>
        <time>2026-06-19T08:14:27.000Z</time>
        <extensions>
          <ns3:TrackPointExtension>
            <ns3:atemp>21.0</ns3:atemp>
          </ns3:TrackPointExtension>
        </extensions>
      </trkpt>
      <trkpt lat="42.5122516416013240814208984375" lon="19.9836869537830352783203125">
        <ele>1631.800048828125</ele>
        <time>2026-06-19T08:14:28.000Z</time>
        <extensions>
          <ns3:TrackPointExtension>
            <ns3:atemp>21.0</ns3:atemp>
          </ns3:TrackPointExtension>
        </extensions>
      </trkpt>
      <trkpt lat="42.5122516416013240814208984375" lon="19.9836869537830352783203125">
        <ele>1631.800048828125</ele>
        <time>2026-06-19T08:14:29.000Z</time>
        <extensions>
          <ns3:TrackPointExtension>
            <ns3:atemp>21.0</ns3:atemp>
          </ns3:TrackPointExtension>
        </extensions>
      </trkpt>
      <trkpt lat="42.5122516416013240814208984375" lon="19.9836869537830352783203125">
        <ele>1631.800048828125</ele>
        <time>2026-06-19T08:14:30.000Z</time>
        <extensions>
          <ns3:TrackPointExtension>
            <ns3:atemp>21.0</ns3:atemp>
          </ns3:TrackPointExtension>
        </extensions>
      </trkpt>
      <trkpt lat="42.5122516416013240814208984375" lon="19.9836869537830352783203125">
        <ele>1631.800048828125</ele>
        <time>2026-06-19T08:14:31.000Z</time>
        <extensions>
          <ns3:TrackPointExtension>
            <ns3:atemp>21.0</ns3:atemp>
          </ns3:TrackPointExtension>
        </extensions>
      </trkpt>
      <trkpt lat="42.5122516416013240814208984375" lon="19.9836869537830352783203125">
        <ele>1631.800048828125</ele>
        <time>2026-06-19T08:14:32.000Z</time>
        <extensions>
          <ns3:TrackPointExtension>
            <ns3:atemp>21.0</ns3:atemp>
          </ns3:TrackPointExtension>
        </extensions>
      </trkpt>
      <trkpt lat="42.5122516416013240814208984375" lon="19.9836869537830352783203125">
        <ele>1631.800048828125</ele>
        <time>2026-06-19T08:14:33.000Z</time>
        <extensions>
          <ns3:TrackPointExtension>
            <ns3:atemp>21.0</ns3:atemp>
          </ns3:TrackPointExtension>
        </extensions>
      </trkpt>
      <trkpt lat="42.5122516416013240814208984375" lon="19.9836869537830352783203125">
        <ele>1631.800048828125</ele>
        <time>2026-06-19T08:14:34.000Z</time>
        <extensions>
          <ns3:TrackPointExtension>
            <ns3:atemp>21.0</ns3:atemp>
          </ns3:TrackPointExtension>
        </extensions>
      </trkpt>
      <trkpt lat="42.5122516416013240814208984375" lon="19.9836869537830352783203125">
        <ele>1631.800048828125</ele>
        <time>2026-06-19T08:14:35.000Z</time>
        <extensions>
          <ns3:TrackPointExtension>
            <ns3:atemp>21.0</ns3:atemp>
          </ns3:TrackPointExtension>
        </extensions>
      </trkpt>
      <trkpt lat="42.5122516416013240814208984375" lon="19.9836869537830352783203125">
        <ele>1631.800048828125</ele>
        <time>2026-06-19T08:14:36.000Z</time>
        <extensions>
          <ns3:TrackPointExtension>
            <ns3:atemp>21.0</ns3:atemp>
          </ns3:TrackPointExtension>
        </extensions>
      </trkpt>
      <trkpt lat="42.5122516416013240814208984375" lon="19.9836869537830352783203125">
        <ele>1631.800048828125</ele>
        <time>2026-06-19T08:14:37.000Z</time>
        <extensions>
          <ns3:TrackPointExtension>
            <ns3:atemp>21.0</ns3:atemp>
          </ns3:TrackPointExtension>
        </extensions>
      </trkpt>
      <trkpt lat="42.5122516416013240814208984375" lon="19.9836869537830352783203125">
        <ele>1631.800048828125</ele>
        <time>2026-06-19T08:14:38.000Z</time>
        <extensions>
          <ns3:TrackPointExtension>
            <ns3:atemp>21.0</ns3:atemp>
          </ns3:TrackPointExtension>
        </extensions>
      </trkpt>
      <trkpt lat="42.5122516416013240814208984375" lon="19.9836869537830352783203125">
        <ele>1631.800048828125</ele>
        <time>2026-06-19T08:14:39.000Z</time>
        <extensions>
          <ns3:TrackPointExtension>
            <ns3:atemp>21.0</ns3:atemp>
          </ns3:TrackPointExtension>
        </extensions>
      </trkpt>
      <trkpt lat="42.5122516416013240814208984375" lon="19.9836869537830352783203125">
        <ele>1631.800048828125</ele>
        <time>2026-06-19T08:14:40.000Z</time>
        <extensions>
          <ns3:TrackPointExtension>
            <ns3:atemp>21.0</ns3:atemp>
          </ns3:TrackPointExtension>
        </extensions>
      </trkpt>
      <trkpt lat="42.5122516416013240814208984375" lon="19.9836869537830352783203125">
        <ele>1631.800048828125</ele>
        <time>2026-06-19T08:14:41.000Z</time>
        <extensions>
          <ns3:TrackPointExtension>
            <ns3:atemp>21.0</ns3:atemp>
          </ns3:TrackPointExtension>
        </extensions>
      </trkpt>
      <trkpt lat="42.5122516416013240814208984375" lon="19.9836869537830352783203125">
        <ele>1631.800048828125</ele>
        <time>2026-06-19T08:14:42.000Z</time>
        <extensions>
          <ns3:TrackPointExtension>
            <ns3:atemp>21.0</ns3:atemp>
          </ns3:TrackPointExtension>
        </extensions>
      </trkpt>
      <trkpt lat="42.5122516416013240814208984375" lon="19.9836869537830352783203125">
        <ele>1631.800048828125</ele>
        <time>2026-06-19T08:14:43.000Z</time>
        <extensions>
          <ns3:TrackPointExtension>
            <ns3:atemp>21.0</ns3:atemp>
          </ns3:TrackPointExtension>
        </extensions>
      </trkpt>
      <trkpt lat="42.5122516416013240814208984375" lon="19.9836869537830352783203125">
        <ele>1631.800048828125</ele>
        <time>2026-06-19T08:14:44.000Z</time>
        <extensions>
          <ns3:TrackPointExtension>
            <ns3:atemp>21.0</ns3:atemp>
          </ns3:TrackPointExtension>
        </extensions>
      </trkpt>
      <trkpt lat="42.5122516416013240814208984375" lon="19.9836869537830352783203125">
        <ele>1631.800048828125</ele>
        <time>2026-06-19T08:14:45.000Z</time>
        <extensions>
          <ns3:TrackPointExtension>
            <ns3:atemp>21.0</ns3:atemp>
          </ns3:TrackPointExtension>
        </extensions>
      </trkpt>
      <trkpt lat="42.5122516416013240814208984375" lon="19.9836869537830352783203125">
        <ele>1631.800048828125</ele>
        <time>2026-06-19T08:14:46.000Z</time>
        <extensions>
          <ns3:TrackPointExtension>
            <ns3:atemp>21.0</ns3:atemp>
          </ns3:TrackPointExtension>
        </extensions>
      </trkpt>
      <trkpt lat="42.5122516416013240814208984375" lon="19.9836869537830352783203125">
        <ele>1631.800048828125</ele>
        <time>2026-06-19T08:14:47.000Z</time>
        <extensions>
          <ns3:TrackPointExtension>
            <ns3:atemp>21.0</ns3:atemp>
          </ns3:TrackPointExtension>
        </extensions>
      </trkpt>
      <trkpt lat="42.5122516416013240814208984375" lon="19.9836869537830352783203125">
        <ele>1631.800048828125</ele>
        <time>2026-06-19T08:14:48.000Z</time>
        <extensions>
          <ns3:TrackPointExtension>
            <ns3:atemp>21.0</ns3:atemp>
          </ns3:TrackPointExtension>
        </extensions>
      </trkpt>
      <trkpt lat="42.5122516416013240814208984375" lon="19.9836869537830352783203125">
        <ele>1631.800048828125</ele>
        <time>2026-06-19T08:14:49.000Z</time>
        <extensions>
          <ns3:TrackPointExtension>
            <ns3:atemp>21.0</ns3:atemp>
          </ns3:TrackPointExtension>
        </extensions>
      </trkpt>
      <trkpt lat="42.5122516416013240814208984375" lon="19.9836869537830352783203125">
        <ele>1631.800048828125</ele>
        <time>2026-06-19T08:14:50.000Z</time>
        <extensions>
          <ns3:TrackPointExtension>
            <ns3:atemp>21.0</ns3:atemp>
          </ns3:TrackPointExtension>
        </extensions>
      </trkpt>
      <trkpt lat="42.5122516416013240814208984375" lon="19.9836869537830352783203125">
        <ele>1631.800048828125</ele>
        <time>2026-06-19T08:14:51.000Z</time>
        <extensions>
          <ns3:TrackPointExtension>
            <ns3:atemp>21.0</ns3:atemp>
          </ns3:TrackPointExtension>
        </extensions>
      </trkpt>
      <trkpt lat="42.5122516416013240814208984375" lon="19.9836869537830352783203125">
        <ele>1631.800048828125</ele>
        <time>2026-06-19T08:14:52.000Z</time>
        <extensions>
          <ns3:TrackPointExtension>
            <ns3:atemp>21.0</ns3:atemp>
          </ns3:TrackPointExtension>
        </extensions>
      </trkpt>
      <trkpt lat="42.5122516416013240814208984375" lon="19.9836869537830352783203125">
        <ele>1631.800048828125</ele>
        <time>2026-06-19T08:14:53.000Z</time>
        <extensions>
          <ns3:TrackPointExtension>
            <ns3:atemp>21.0</ns3:atemp>
          </ns3:TrackPointExtension>
        </extensions>
      </trkpt>
      <trkpt lat="42.5122516416013240814208984375" lon="19.9836869537830352783203125">
        <ele>1631.800048828125</ele>
        <time>2026-06-19T08:14:54.000Z</time>
        <extensions>
          <ns3:TrackPointExtension>
            <ns3:atemp>21.0</ns3:atemp>
          </ns3:TrackPointExtension>
        </extensions>
      </trkpt>
      <trkpt lat="42.5122516416013240814208984375" lon="19.9836869537830352783203125">
        <ele>1631.800048828125</ele>
        <time>2026-06-19T08:14:55.000Z</time>
        <extensions>
          <ns3:TrackPointExtension>
            <ns3:atemp>21.0</ns3:atemp>
          </ns3:TrackPointExtension>
        </extensions>
      </trkpt>
      <trkpt lat="42.5122516416013240814208984375" lon="19.9836869537830352783203125">
        <ele>1631.800048828125</ele>
        <time>2026-06-19T08:14:56.000Z</time>
        <extensions>
          <ns3:TrackPointExtension>
            <ns3:atemp>22.0</ns3:atemp>
          </ns3:TrackPointExtension>
        </extensions>
      </trkpt>
      <trkpt lat="42.5122516416013240814208984375" lon="19.9836869537830352783203125">
        <ele>1631.800048828125</ele>
        <time>2026-06-19T08:14:57.000Z</time>
        <extensions>
          <ns3:TrackPointExtension>
            <ns3:atemp>22.0</ns3:atemp>
          </ns3:TrackPointExtension>
        </extensions>
      </trkpt>
      <trkpt lat="42.5122516416013240814208984375" lon="19.9836869537830352783203125">
        <ele>1631.800048828125</ele>
        <time>2026-06-19T08:14:58.000Z</time>
        <extensions>
          <ns3:TrackPointExtension>
            <ns3:atemp>22.0</ns3:atemp>
          </ns3:TrackPointExtension>
        </extensions>
      </trkpt>
      <trkpt lat="42.5122516416013240814208984375" lon="19.9836869537830352783203125">
        <ele>1631.800048828125</ele>
        <time>2026-06-19T08:14:59.000Z</time>
        <extensions>
          <ns3:TrackPointExtension>
            <ns3:atemp>22.0</ns3:atemp>
          </ns3:TrackPointExtension>
        </extensions>
      </trkpt>
      <trkpt lat="42.5122516416013240814208984375" lon="19.9836869537830352783203125">
        <ele>1631.800048828125</ele>
        <time>2026-06-19T08:15:00.000Z</time>
        <extensions>
          <ns3:TrackPointExtension>
            <ns3:atemp>22.0</ns3:atemp>
          </ns3:TrackPointExtension>
        </extensions>
      </trkpt>
      <trkpt lat="42.5122516416013240814208984375" lon="19.9836869537830352783203125">
        <ele>1631.800048828125</ele>
        <time>2026-06-19T08:15:01.000Z</time>
        <extensions>
          <ns3:TrackPointExtension>
            <ns3:atemp>22.0</ns3:atemp>
          </ns3:TrackPointExtension>
        </extensions>
      </trkpt>
      <trkpt lat="42.5122516416013240814208984375" lon="19.9836869537830352783203125">
        <ele>1631.800048828125</ele>
        <time>2026-06-19T08:15:02.000Z</time>
        <extensions>
          <ns3:TrackPointExtension>
            <ns3:atemp>22.0</ns3:atemp>
          </ns3:TrackPointExtension>
        </extensions>
      </trkpt>
      <trkpt lat="42.5122516416013240814208984375" lon="19.9836869537830352783203125">
        <ele>1631.800048828125</ele>
        <time>2026-06-19T08:15:03.000Z</time>
        <extensions>
          <ns3:TrackPointExtension>
            <ns3:atemp>22.0</ns3:atemp>
          </ns3:TrackPointExtension>
        </extensions>
      </trkpt>
      <trkpt lat="42.5122516416013240814208984375" lon="19.9836869537830352783203125">
        <ele>1631.800048828125</ele>
        <time>2026-06-19T08:15:04.000Z</time>
        <extensions>
          <ns3:TrackPointExtension>
            <ns3:atemp>22.0</ns3:atemp>
          </ns3:TrackPointExtension>
        </extensions>
      </trkpt>
      <trkpt lat="42.5122516416013240814208984375" lon="19.9836869537830352783203125">
        <ele>1631.800048828125</ele>
        <time>2026-06-19T08:15:05.000Z</time>
        <extensions>
          <ns3:TrackPointExtension>
            <ns3:atemp>22.0</ns3:atemp>
          </ns3:TrackPointExtension>
        </extensions>
      </trkpt>
      <trkpt lat="42.5122516416013240814208984375" lon="19.9836869537830352783203125">
        <ele>1631.800048828125</ele>
        <time>2026-06-19T08:15:06.000Z</time>
        <extensions>
          <ns3:TrackPointExtension>
            <ns3:atemp>22.0</ns3:atemp>
          </ns3:TrackPointExtension>
        </extensions>
      </trkpt>
      <trkpt lat="42.5122516416013240814208984375" lon="19.9836869537830352783203125">
        <ele>1631.800048828125</ele>
        <time>2026-06-19T08:15:07.000Z</time>
        <extensions>
          <ns3:TrackPointExtension>
            <ns3:atemp>22.0</ns3:atemp>
          </ns3:TrackPointExtension>
        </extensions>
      </trkpt>
      <trkpt lat="42.5122516416013240814208984375" lon="19.9836869537830352783203125">
        <ele>1631.800048828125</ele>
        <time>2026-06-19T08:15:08.000Z</time>
        <extensions>
          <ns3:TrackPointExtension>
            <ns3:atemp>22.0</ns3:atemp>
          </ns3:TrackPointExtension>
        </extensions>
      </trkpt>
      <trkpt lat="42.5122516416013240814208984375" lon="19.9836869537830352783203125">
        <ele>1631.800048828125</ele>
        <time>2026-06-19T08:15:09.000Z</time>
        <extensions>
          <ns3:TrackPointExtension>
            <ns3:atemp>22.0</ns3:atemp>
          </ns3:TrackPointExtension>
        </extensions>
      </trkpt>
      <trkpt lat="42.5122516416013240814208984375" lon="19.9836869537830352783203125">
        <ele>1631.800048828125</ele>
        <time>2026-06-19T08:15:10.000Z</time>
        <extensions>
          <ns3:TrackPointExtension>
            <ns3:atemp>22.0</ns3:atemp>
          </ns3:TrackPointExtension>
        </extensions>
      </trkpt>
      <trkpt lat="42.5122516416013240814208984375" lon="19.9836869537830352783203125">
        <ele>1631.800048828125</ele>
        <time>2026-06-19T08:15:11.000Z</time>
        <extensions>
          <ns3:TrackPointExtension>
            <ns3:atemp>22.0</ns3:atemp>
          </ns3:TrackPointExtension>
        </extensions>
      </trkpt>
      <trkpt lat="42.5122516416013240814208984375" lon="19.9836869537830352783203125">
        <ele>1631.800048828125</ele>
        <time>2026-06-19T08:15:12.000Z</time>
        <extensions>
          <ns3:TrackPointExtension>
            <ns3:atemp>22.0</ns3:atemp>
          </ns3:TrackPointExtension>
        </extensions>
      </trkpt>
      <trkpt lat="42.5122516416013240814208984375" lon="19.9836869537830352783203125">
        <ele>1631.800048828125</ele>
        <time>2026-06-19T08:15:13.000Z</time>
        <extensions>
          <ns3:TrackPointExtension>
            <ns3:atemp>22.0</ns3:atemp>
          </ns3:TrackPointExtension>
        </extensions>
      </trkpt>
      <trkpt lat="42.5122516416013240814208984375" lon="19.9836869537830352783203125">
        <ele>1631.800048828125</ele>
        <time>2026-06-19T08:15:14.000Z</time>
        <extensions>
          <ns3:TrackPointExtension>
            <ns3:atemp>22.0</ns3:atemp>
          </ns3:TrackPointExtension>
        </extensions>
      </trkpt>
      <trkpt lat="42.5122516416013240814208984375" lon="19.9836869537830352783203125">
        <ele>1631.800048828125</ele>
        <time>2026-06-19T08:15:15.000Z</time>
        <extensions>
          <ns3:TrackPointExtension>
            <ns3:atemp>22.0</ns3:atemp>
          </ns3:TrackPointExtension>
        </extensions>
      </trkpt>
      <trkpt lat="42.5122516416013240814208984375" lon="19.9836869537830352783203125">
        <ele>1631.800048828125</ele>
        <time>2026-06-19T08:15:16.000Z</time>
        <extensions>
          <ns3:TrackPointExtension>
            <ns3:atemp>22.0</ns3:atemp>
          </ns3:TrackPointExtension>
        </extensions>
      </trkpt>
      <trkpt lat="42.5122516416013240814208984375" lon="19.9836869537830352783203125">
        <ele>1631.800048828125</ele>
        <time>2026-06-19T08:15:17.000Z</time>
        <extensions>
          <ns3:TrackPointExtension>
            <ns3:atemp>22.0</ns3:atemp>
          </ns3:TrackPointExtension>
        </extensions>
      </trkpt>
      <trkpt lat="42.5122516416013240814208984375" lon="19.9836869537830352783203125">
        <ele>1631.800048828125</ele>
        <time>2026-06-19T08:15:18.000Z</time>
        <extensions>
          <ns3:TrackPointExtension>
            <ns3:atemp>22.0</ns3:atemp>
          </ns3:TrackPointExtension>
        </extensions>
      </trkpt>
      <trkpt lat="42.5122516416013240814208984375" lon="19.9836869537830352783203125">
        <ele>1631.800048828125</ele>
        <time>2026-06-19T08:15:19.000Z</time>
        <extensions>
          <ns3:TrackPointExtension>
            <ns3:atemp>22.0</ns3:atemp>
          </ns3:TrackPointExtension>
        </extensions>
      </trkpt>
      <trkpt lat="42.5122516416013240814208984375" lon="19.9836869537830352783203125">
        <ele>1631.800048828125</ele>
        <time>2026-06-19T08:15:20.000Z</time>
        <extensions>
          <ns3:TrackPointExtension>
            <ns3:atemp>22.0</ns3:atemp>
          </ns3:TrackPointExtension>
        </extensions>
      </trkpt>
      <trkpt lat="42.5122516416013240814208984375" lon="19.9836869537830352783203125">
        <ele>1631.800048828125</ele>
        <time>2026-06-19T08:15:21.000Z</time>
        <extensions>
          <ns3:TrackPointExtension>
            <ns3:atemp>22.0</ns3:atemp>
          </ns3:TrackPointExtension>
        </extensions>
      </trkpt>
      <trkpt lat="42.5122516416013240814208984375" lon="19.9836869537830352783203125">
        <ele>1631.800048828125</ele>
        <time>2026-06-19T08:15:22.000Z</time>
        <extensions>
          <ns3:TrackPointExtension>
            <ns3:atemp>22.0</ns3:atemp>
          </ns3:TrackPointExtension>
        </extensions>
      </trkpt>
      <trkpt lat="42.5122516416013240814208984375" lon="19.9836869537830352783203125">
        <ele>1631.800048828125</ele>
        <time>2026-06-19T08:15:23.000Z</time>
        <extensions>
          <ns3:TrackPointExtension>
            <ns3:atemp>22.0</ns3:atemp>
          </ns3:TrackPointExtension>
        </extensions>
      </trkpt>
      <trkpt lat="42.5122516416013240814208984375" lon="19.9836869537830352783203125">
        <ele>1631.800048828125</ele>
        <time>2026-06-19T08:15:24.000Z</time>
        <extensions>
          <ns3:TrackPointExtension>
            <ns3:atemp>22.0</ns3:atemp>
          </ns3:TrackPointExtension>
        </extensions>
      </trkpt>
      <trkpt lat="42.5122516416013240814208984375" lon="19.9836869537830352783203125">
        <ele>1631.800048828125</ele>
        <time>2026-06-19T08:15:25.000Z</time>
        <extensions>
          <ns3:TrackPointExtension>
            <ns3:atemp>22.0</ns3:atemp>
          </ns3:TrackPointExtension>
        </extensions>
      </trkpt>
      <trkpt lat="42.5122516416013240814208984375" lon="19.9836869537830352783203125">
        <ele>1631.800048828125</ele>
        <time>2026-06-19T08:15:26.000Z</time>
        <extensions>
          <ns3:TrackPointExtension>
            <ns3:atemp>22.0</ns3:atemp>
          </ns3:TrackPointExtension>
        </extensions>
      </trkpt>
      <trkpt lat="42.5122516416013240814208984375" lon="19.9836869537830352783203125">
        <ele>1631.800048828125</ele>
        <time>2026-06-19T08:15:27.000Z</time>
        <extensions>
          <ns3:TrackPointExtension>
            <ns3:atemp>22.0</ns3:atemp>
          </ns3:TrackPointExtension>
        </extensions>
      </trkpt>
      <trkpt lat="42.5122516416013240814208984375" lon="19.9836869537830352783203125">
        <ele>1631.800048828125</ele>
        <time>2026-06-19T08:15:28.000Z</time>
        <extensions>
          <ns3:TrackPointExtension>
            <ns3:atemp>22.0</ns3:atemp>
          </ns3:TrackPointExtension>
        </extensions>
      </trkpt>
      <trkpt lat="42.5122516416013240814208984375" lon="19.9836869537830352783203125">
        <ele>1631.800048828125</ele>
        <time>2026-06-19T08:15:29.000Z</time>
        <extensions>
          <ns3:TrackPointExtension>
            <ns3:atemp>22.0</ns3:atemp>
          </ns3:TrackPointExtension>
        </extensions>
      </trkpt>
      <trkpt lat="42.5122516416013240814208984375" lon="19.9836869537830352783203125">
        <ele>1631.800048828125</ele>
        <time>2026-06-19T08:15:30.000Z</time>
        <extensions>
          <ns3:TrackPointExtension>
            <ns3:atemp>22.0</ns3:atemp>
          </ns3:TrackPointExtension>
        </extensions>
      </trkpt>
      <trkpt lat="42.5122516416013240814208984375" lon="19.9836869537830352783203125">
        <ele>1631.800048828125</ele>
        <time>2026-06-19T08:15:31.000Z</time>
        <extensions>
          <ns3:TrackPointExtension>
            <ns3:atemp>22.0</ns3:atemp>
          </ns3:TrackPointExtension>
        </extensions>
      </trkpt>
      <trkpt lat="42.5122516416013240814208984375" lon="19.9836869537830352783203125">
        <ele>1631.800048828125</ele>
        <time>2026-06-19T08:15:32.000Z</time>
        <extensions>
          <ns3:TrackPointExtension>
            <ns3:atemp>22.0</ns3:atemp>
          </ns3:TrackPointExtension>
        </extensions>
      </trkpt>
      <trkpt lat="42.5122516416013240814208984375" lon="19.9836869537830352783203125">
        <ele>1631.800048828125</ele>
        <time>2026-06-19T08:15:33.000Z</time>
        <extensions>
          <ns3:TrackPointExtension>
            <ns3:atemp>22.0</ns3:atemp>
          </ns3:TrackPointExtension>
        </extensions>
      </trkpt>
      <trkpt lat="42.5122516416013240814208984375" lon="19.9836869537830352783203125">
        <ele>1631.800048828125</ele>
        <time>2026-06-19T08:15:34.000Z</time>
        <extensions>
          <ns3:TrackPointExtension>
            <ns3:atemp>22.0</ns3:atemp>
          </ns3:TrackPointExtension>
        </extensions>
      </trkpt>
      <trkpt lat="42.5122516416013240814208984375" lon="19.9836869537830352783203125">
        <ele>1631.800048828125</ele>
        <time>2026-06-19T08:15:35.000Z</time>
        <extensions>
          <ns3:TrackPointExtension>
            <ns3:atemp>22.0</ns3:atemp>
          </ns3:TrackPointExtension>
        </extensions>
      </trkpt>
      <trkpt lat="42.5122516416013240814208984375" lon="19.9836869537830352783203125">
        <ele>1631.800048828125</ele>
        <time>2026-06-19T08:15:36.000Z</time>
        <extensions>
          <ns3:TrackPointExtension>
            <ns3:atemp>22.0</ns3:atemp>
          </ns3:TrackPointExtension>
        </extensions>
      </trkpt>
      <trkpt lat="42.5122516416013240814208984375" lon="19.9836869537830352783203125">
        <ele>1631.800048828125</ele>
        <time>2026-06-19T08:15:37.000Z</time>
        <extensions>
          <ns3:TrackPointExtension>
            <ns3:atemp>22.0</ns3:atemp>
          </ns3:TrackPointExtension>
        </extensions>
      </trkpt>
      <trkpt lat="42.5122516416013240814208984375" lon="19.9836869537830352783203125">
        <ele>1631.800048828125</ele>
        <time>2026-06-19T08:15:38.000Z</time>
        <extensions>
          <ns3:TrackPointExtension>
            <ns3:atemp>22.0</ns3:atemp>
          </ns3:TrackPointExtension>
        </extensions>
      </trkpt>
      <trkpt lat="42.5122516416013240814208984375" lon="19.9836869537830352783203125">
        <ele>1631.800048828125</ele>
        <time>2026-06-19T08:15:39.000Z</time>
        <extensions>
          <ns3:TrackPointExtension>
            <ns3:atemp>22.0</ns3:atemp>
          </ns3:TrackPointExtension>
        </extensions>
      </trkpt>
      <trkpt lat="42.5122516416013240814208984375" lon="19.9836869537830352783203125">
        <ele>1631.800048828125</ele>
        <time>2026-06-19T08:15:40.000Z</time>
        <extensions>
          <ns3:TrackPointExtension>
            <ns3:atemp>22.0</ns3:atemp>
          </ns3:TrackPointExtension>
        </extensions>
      </trkpt>
      <trkpt lat="42.5122516416013240814208984375" lon="19.9836869537830352783203125">
        <ele>1631.800048828125</ele>
        <time>2026-06-19T08:15:41.000Z</time>
        <extensions>
          <ns3:TrackPointExtension>
            <ns3:atemp>22.0</ns3:atemp>
          </ns3:TrackPointExtension>
        </extensions>
      </trkpt>
      <trkpt lat="42.5122516416013240814208984375" lon="19.9836869537830352783203125">
        <ele>1631.800048828125</ele>
        <time>2026-06-19T08:15:42.000Z</time>
        <extensions>
          <ns3:TrackPointExtension>
            <ns3:atemp>22.0</ns3:atemp>
          </ns3:TrackPointExtension>
        </extensions>
      </trkpt>
      <trkpt lat="42.5122516416013240814208984375" lon="19.9836869537830352783203125">
        <ele>1631.800048828125</ele>
        <time>2026-06-19T08:15:43.000Z</time>
        <extensions>
          <ns3:TrackPointExtension>
            <ns3:atemp>22.0</ns3:atemp>
          </ns3:TrackPointExtension>
        </extensions>
      </trkpt>
      <trkpt lat="42.5122516416013240814208984375" lon="19.9836869537830352783203125">
        <ele>1631.800048828125</ele>
        <time>2026-06-19T08:15:44.000Z</time>
        <extensions>
          <ns3:TrackPointExtension>
            <ns3:atemp>22.0</ns3:atemp>
          </ns3:TrackPointExtension>
        </extensions>
      </trkpt>
      <trkpt lat="42.5122516416013240814208984375" lon="19.9836869537830352783203125">
        <ele>1631.800048828125</ele>
        <time>2026-06-19T08:15:45.000Z</time>
        <extensions>
          <ns3:TrackPointExtension>
            <ns3:atemp>22.0</ns3:atemp>
          </ns3:TrackPointExtension>
        </extensions>
      </trkpt>
      <trkpt lat="42.5122516416013240814208984375" lon="19.9836869537830352783203125">
        <ele>1631.800048828125</ele>
        <time>2026-06-19T08:15:46.000Z</time>
        <extensions>
          <ns3:TrackPointExtension>
            <ns3:atemp>22.0</ns3:atemp>
          </ns3:TrackPointExtension>
        </extensions>
      </trkpt>
      <trkpt lat="42.5122516416013240814208984375" lon="19.9836869537830352783203125">
        <ele>1631.800048828125</ele>
        <time>2026-06-19T08:15:47.000Z</time>
        <extensions>
          <ns3:TrackPointExtension>
            <ns3:atemp>22.0</ns3:atemp>
          </ns3:TrackPointExtension>
        </extensions>
      </trkpt>
      <trkpt lat="42.5122516416013240814208984375" lon="19.9836869537830352783203125">
        <ele>1631.800048828125</ele>
        <time>2026-06-19T08:15:48.000Z</time>
        <extensions>
          <ns3:TrackPointExtension>
            <ns3:atemp>22.0</ns3:atemp>
          </ns3:TrackPointExtension>
        </extensions>
      </trkpt>
      <trkpt lat="42.5122516416013240814208984375" lon="19.9836869537830352783203125">
        <ele>1631.800048828125</ele>
        <time>2026-06-19T08:15:49.000Z</time>
        <extensions>
          <ns3:TrackPointExtension>
            <ns3:atemp>22.0</ns3:atemp>
          </ns3:TrackPointExtension>
        </extensions>
      </trkpt>
      <trkpt lat="42.5122516416013240814208984375" lon="19.9836869537830352783203125">
        <ele>1631.800048828125</ele>
        <time>2026-06-19T08:15:50.000Z</time>
        <extensions>
          <ns3:TrackPointExtension>
            <ns3:atemp>22.0</ns3:atemp>
          </ns3:TrackPointExtension>
        </extensions>
      </trkpt>
      <trkpt lat="42.5122516416013240814208984375" lon="19.9836869537830352783203125">
        <ele>1631.800048828125</ele>
        <time>2026-06-19T08:15:51.000Z</time>
        <extensions>
          <ns3:TrackPointExtension>
            <ns3:atemp>22.0</ns3:atemp>
          </ns3:TrackPointExtension>
        </extensions>
      </trkpt>
      <trkpt lat="42.5122516416013240814208984375" lon="19.9836869537830352783203125">
        <ele>1631.800048828125</ele>
        <time>2026-06-19T08:15:52.000Z</time>
        <extensions>
          <ns3:TrackPointExtension>
            <ns3:atemp>22.0</ns3:atemp>
          </ns3:TrackPointExtension>
        </extensions>
      </trkpt>
      <trkpt lat="42.5122516416013240814208984375" lon="19.9836869537830352783203125">
        <ele>1631.800048828125</ele>
        <time>2026-06-19T08:15:53.000Z</time>
        <extensions>
          <ns3:TrackPointExtension>
            <ns3:atemp>22.0</ns3:atemp>
          </ns3:TrackPointExtension>
        </extensions>
      </trkpt>
      <trkpt lat="42.5122516416013240814208984375" lon="19.9836869537830352783203125">
        <ele>1631.800048828125</ele>
        <time>2026-06-19T08:15:54.000Z</time>
        <extensions>
          <ns3:TrackPointExtension>
            <ns3:atemp>22.0</ns3:atemp>
          </ns3:TrackPointExtension>
        </extensions>
      </trkpt>
      <trkpt lat="42.5122516416013240814208984375" lon="19.9836869537830352783203125">
        <ele>1631.800048828125</ele>
        <time>2026-06-19T08:15:55.000Z</time>
        <extensions>
          <ns3:TrackPointExtension>
            <ns3:atemp>22.0</ns3:atemp>
          </ns3:TrackPointExtension>
        </extensions>
      </trkpt>
      <trkpt lat="42.5122516416013240814208984375" lon="19.9836869537830352783203125">
        <ele>1631.800048828125</ele>
        <time>2026-06-19T08:15:56.000Z</time>
        <extensions>
          <ns3:TrackPointExtension>
            <ns3:atemp>22.0</ns3:atemp>
          </ns3:TrackPointExtension>
        </extensions>
      </trkpt>
      <trkpt lat="42.5122516416013240814208984375" lon="19.9836869537830352783203125">
        <ele>1631.800048828125</ele>
        <time>2026-06-19T08:15:57.000Z</time>
        <extensions>
          <ns3:TrackPointExtension>
            <ns3:atemp>22.0</ns3:atemp>
          </ns3:TrackPointExtension>
        </extensions>
      </trkpt>
      <trkpt lat="42.5122516416013240814208984375" lon="19.9836869537830352783203125">
        <ele>1631.800048828125</ele>
        <time>2026-06-19T08:15:58.000Z</time>
        <extensions>
          <ns3:TrackPointExtension>
            <ns3:atemp>22.0</ns3:atemp>
          </ns3:TrackPointExtension>
        </extensions>
      </trkpt>
      <trkpt lat="42.5122516416013240814208984375" lon="19.9836869537830352783203125">
        <ele>1631.800048828125</ele>
        <time>2026-06-19T08:15:59.000Z</time>
        <extensions>
          <ns3:TrackPointExtension>
            <ns3:atemp>22.0</ns3:atemp>
          </ns3:TrackPointExtension>
        </extensions>
      </trkpt>
      <trkpt lat="42.5122516416013240814208984375" lon="19.9836869537830352783203125">
        <ele>1631.800048828125</ele>
        <time>2026-06-19T08:16:00.000Z</time>
        <extensions>
          <ns3:TrackPointExtension>
            <ns3:atemp>22.0</ns3:atemp>
          </ns3:TrackPointExtension>
        </extensions>
      </trkpt>
      <trkpt lat="42.5122516416013240814208984375" lon="19.9836869537830352783203125">
        <ele>1631.800048828125</ele>
        <time>2026-06-19T08:16:01.000Z</time>
        <extensions>
          <ns3:TrackPointExtension>
            <ns3:atemp>22.0</ns3:atemp>
          </ns3:TrackPointExtension>
        </extensions>
      </trkpt>
      <trkpt lat="42.5122516416013240814208984375" lon="19.9836869537830352783203125">
        <ele>1631.800048828125</ele>
        <time>2026-06-19T08:16:02.000Z</time>
        <extensions>
          <ns3:TrackPointExtension>
            <ns3:atemp>22.0</ns3:atemp>
          </ns3:TrackPointExtension>
        </extensions>
      </trkpt>
      <trkpt lat="42.5122516416013240814208984375" lon="19.9836869537830352783203125">
        <ele>1631.800048828125</ele>
        <time>2026-06-19T08:16:03.000Z</time>
        <extensions>
          <ns3:TrackPointExtension>
            <ns3:atemp>22.0</ns3:atemp>
          </ns3:TrackPointExtension>
        </extensions>
      </trkpt>
      <trkpt lat="42.5122516416013240814208984375" lon="19.9836869537830352783203125">
        <ele>1631.800048828125</ele>
        <time>2026-06-19T08:16:04.000Z</time>
        <extensions>
          <ns3:TrackPointExtension>
            <ns3:atemp>22.0</ns3:atemp>
          </ns3:TrackPointExtension>
        </extensions>
      </trkpt>
      <trkpt lat="42.5122516416013240814208984375" lon="19.9836869537830352783203125">
        <ele>1631.800048828125</ele>
        <time>2026-06-19T08:16:05.000Z</time>
        <extensions>
          <ns3:TrackPointExtension>
            <ns3:atemp>22.0</ns3:atemp>
          </ns3:TrackPointExtension>
        </extensions>
      </trkpt>
      <trkpt lat="42.5122516416013240814208984375" lon="19.9836869537830352783203125">
        <ele>1631.800048828125</ele>
        <time>2026-06-19T08:16:06.000Z</time>
        <extensions>
          <ns3:TrackPointExtension>
            <ns3:atemp>22.0</ns3:atemp>
          </ns3:TrackPointExtension>
        </extensions>
      </trkpt>
      <trkpt lat="42.5122516416013240814208984375" lon="19.9836869537830352783203125">
        <ele>1631.800048828125</ele>
        <time>2026-06-19T08:16:07.000Z</time>
        <extensions>
          <ns3:TrackPointExtension>
            <ns3:atemp>22.0</ns3:atemp>
          </ns3:TrackPointExtension>
        </extensions>
      </trkpt>
      <trkpt lat="42.5122516416013240814208984375" lon="19.9836869537830352783203125">
        <ele>1631.800048828125</ele>
        <time>2026-06-19T08:16:08.000Z</time>
        <extensions>
          <ns3:TrackPointExtension>
            <ns3:atemp>22.0</ns3:atemp>
          </ns3:TrackPointExtension>
        </extensions>
      </trkpt>
      <trkpt lat="42.5122516416013240814208984375" lon="19.9836869537830352783203125">
        <ele>1631.800048828125</ele>
        <time>2026-06-19T08:16:09.000Z</time>
        <extensions>
          <ns3:TrackPointExtension>
            <ns3:atemp>22.0</ns3:atemp>
          </ns3:TrackPointExtension>
        </extensions>
      </trkpt>
      <trkpt lat="42.5122516416013240814208984375" lon="19.9836869537830352783203125">
        <ele>1631.800048828125</ele>
        <time>2026-06-19T08:16:10.000Z</time>
        <extensions>
          <ns3:TrackPointExtension>
            <ns3:atemp>22.0</ns3:atemp>
          </ns3:TrackPointExtension>
        </extensions>
      </trkpt>
      <trkpt lat="42.5122516416013240814208984375" lon="19.9836869537830352783203125">
        <ele>1631.800048828125</ele>
        <time>2026-06-19T08:16:11.000Z</time>
        <extensions>
          <ns3:TrackPointExtension>
            <ns3:atemp>22.0</ns3:atemp>
          </ns3:TrackPointExtension>
        </extensions>
      </trkpt>
      <trkpt lat="42.5122516416013240814208984375" lon="19.9836869537830352783203125">
        <ele>1631.800048828125</ele>
        <time>2026-06-19T08:16:12.000Z</time>
        <extensions>
          <ns3:TrackPointExtension>
            <ns3:atemp>22.0</ns3:atemp>
          </ns3:TrackPointExtension>
        </extensions>
      </trkpt>
      <trkpt lat="42.5122516416013240814208984375" lon="19.9836869537830352783203125">
        <ele>1631.800048828125</ele>
        <time>2026-06-19T08:16:13.000Z</time>
        <extensions>
          <ns3:TrackPointExtension>
            <ns3:atemp>22.0</ns3:atemp>
          </ns3:TrackPointExtension>
        </extensions>
      </trkpt>
      <trkpt lat="42.5122516416013240814208984375" lon="19.9836869537830352783203125">
        <ele>1631.800048828125</ele>
        <time>2026-06-19T08:16:14.000Z</time>
        <extensions>
          <ns3:TrackPointExtension>
            <ns3:atemp>22.0</ns3:atemp>
          </ns3:TrackPointExtension>
        </extensions>
      </trkpt>
      <trkpt lat="42.5122516416013240814208984375" lon="19.9836869537830352783203125">
        <ele>1631.800048828125</ele>
        <time>2026-06-19T08:16:15.000Z</time>
        <extensions>
          <ns3:TrackPointExtension>
            <ns3:atemp>22.0</ns3:atemp>
          </ns3:TrackPointExtension>
        </extensions>
      </trkpt>
      <trkpt lat="42.5122516416013240814208984375" lon="19.9836869537830352783203125">
        <ele>1631.800048828125</ele>
        <time>2026-06-19T08:16:16.000Z</time>
        <extensions>
          <ns3:TrackPointExtension>
            <ns3:atemp>22.0</ns3:atemp>
          </ns3:TrackPointExtension>
        </extensions>
      </trkpt>
      <trkpt lat="42.5122516416013240814208984375" lon="19.9836869537830352783203125">
        <ele>1631.800048828125</ele>
        <time>2026-06-19T08:16:17.000Z</time>
        <extensions>
          <ns3:TrackPointExtension>
            <ns3:atemp>22.0</ns3:atemp>
          </ns3:TrackPointExtension>
        </extensions>
      </trkpt>
      <trkpt lat="42.5122516416013240814208984375" lon="19.9836869537830352783203125">
        <ele>1631.800048828125</ele>
        <time>2026-06-19T08:16:18.000Z</time>
        <extensions>
          <ns3:TrackPointExtension>
            <ns3:atemp>22.0</ns3:atemp>
          </ns3:TrackPointExtension>
        </extensions>
      </trkpt>
      <trkpt lat="42.5122516416013240814208984375" lon="19.9836869537830352783203125">
        <ele>1631.800048828125</ele>
        <time>2026-06-19T08:16:19.000Z</time>
        <extensions>
          <ns3:TrackPointExtension>
            <ns3:atemp>22.0</ns3:atemp>
          </ns3:TrackPointExtension>
        </extensions>
      </trkpt>
      <trkpt lat="42.5122516416013240814208984375" lon="19.9836869537830352783203125">
        <ele>1631.800048828125</ele>
        <time>2026-06-19T08:16:20.000Z</time>
        <extensions>
          <ns3:TrackPointExtension>
            <ns3:atemp>22.0</ns3:atemp>
          </ns3:TrackPointExtension>
        </extensions>
      </trkpt>
      <trkpt lat="42.5122516416013240814208984375" lon="19.9836869537830352783203125">
        <ele>1631.800048828125</ele>
        <time>2026-06-19T08:16:21.000Z</time>
        <extensions>
          <ns3:TrackPointExtension>
            <ns3:atemp>22.0</ns3:atemp>
          </ns3:TrackPointExtension>
        </extensions>
      </trkpt>
      <trkpt lat="42.5122516416013240814208984375" lon="19.9836869537830352783203125">
        <ele>1631.800048828125</ele>
        <time>2026-06-19T08:16:22.000Z</time>
        <extensions>
          <ns3:TrackPointExtension>
            <ns3:atemp>22.0</ns3:atemp>
          </ns3:TrackPointExtension>
        </extensions>
      </trkpt>
      <trkpt lat="42.5122516416013240814208984375" lon="19.9836869537830352783203125">
        <ele>1631.800048828125</ele>
        <time>2026-06-19T08:16:23.000Z</time>
        <extensions>
          <ns3:TrackPointExtension>
            <ns3:atemp>22.0</ns3:atemp>
          </ns3:TrackPointExtension>
        </extensions>
      </trkpt>
      <trkpt lat="42.5122516416013240814208984375" lon="19.9836869537830352783203125">
        <ele>1631.800048828125</ele>
        <time>2026-06-19T08:16:24.000Z</time>
        <extensions>
          <ns3:TrackPointExtension>
            <ns3:atemp>22.0</ns3:atemp>
          </ns3:TrackPointExtension>
        </extensions>
      </trkpt>
      <trkpt lat="42.5122516416013240814208984375" lon="19.9836869537830352783203125">
        <ele>1631.800048828125</ele>
        <time>2026-06-19T08:16:25.000Z</time>
        <extensions>
          <ns3:TrackPointExtension>
            <ns3:atemp>22.0</ns3:atemp>
          </ns3:TrackPointExtension>
        </extensions>
      </trkpt>
      <trkpt lat="42.5122516416013240814208984375" lon="19.9836869537830352783203125">
        <ele>1631.800048828125</ele>
        <time>2026-06-19T08:16:26.000Z</time>
        <extensions>
          <ns3:TrackPointExtension>
            <ns3:atemp>22.0</ns3:atemp>
          </ns3:TrackPointExtension>
        </extensions>
      </trkpt>
      <trkpt lat="42.5122516416013240814208984375" lon="19.9836869537830352783203125">
        <ele>1631.800048828125</ele>
        <time>2026-06-19T08:16:27.000Z</time>
        <extensions>
          <ns3:TrackPointExtension>
            <ns3:atemp>22.0</ns3:atemp>
          </ns3:TrackPointExtension>
        </extensions>
      </trkpt>
      <trkpt lat="42.5122516416013240814208984375" lon="19.9836869537830352783203125">
        <ele>1631.800048828125</ele>
        <time>2026-06-19T08:16:28.000Z</time>
        <extensions>
          <ns3:TrackPointExtension>
            <ns3:atemp>22.0</ns3:atemp>
          </ns3:TrackPointExtension>
        </extensions>
      </trkpt>
      <trkpt lat="42.5122516416013240814208984375" lon="19.9836869537830352783203125">
        <ele>1631.800048828125</ele>
        <time>2026-06-19T08:16:29.000Z</time>
        <extensions>
          <ns3:TrackPointExtension>
            <ns3:atemp>22.0</ns3:atemp>
          </ns3:TrackPointExtension>
        </extensions>
      </trkpt>
      <trkpt lat="42.5122516416013240814208984375" lon="19.9836869537830352783203125">
        <ele>1631.800048828125</ele>
        <time>2026-06-19T08:16:30.000Z</time>
        <extensions>
          <ns3:TrackPointExtension>
            <ns3:atemp>22.0</ns3:atemp>
          </ns3:TrackPointExtension>
        </extensions>
      </trkpt>
      <trkpt lat="42.5122516416013240814208984375" lon="19.9836869537830352783203125">
        <ele>1631.800048828125</ele>
        <time>2026-06-19T08:16:31.000Z</time>
        <extensions>
          <ns3:TrackPointExtension>
            <ns3:atemp>22.0</ns3:atemp>
          </ns3:TrackPointExtension>
        </extensions>
      </trkpt>
      <trkpt lat="42.5122516416013240814208984375" lon="19.9836869537830352783203125">
        <ele>1631.800048828125</ele>
        <time>2026-06-19T08:16:32.000Z</time>
        <extensions>
          <ns3:TrackPointExtension>
            <ns3:atemp>22.0</ns3:atemp>
          </ns3:TrackPointExtension>
        </extensions>
      </trkpt>
      <trkpt lat="42.5122516416013240814208984375" lon="19.9836869537830352783203125">
        <ele>1631.800048828125</ele>
        <time>2026-06-19T08:16:33.000Z</time>
        <extensions>
          <ns3:TrackPointExtension>
            <ns3:atemp>22.0</ns3:atemp>
          </ns3:TrackPointExtension>
        </extensions>
      </trkpt>
      <trkpt lat="42.5122516416013240814208984375" lon="19.9836869537830352783203125">
        <ele>1631.800048828125</ele>
        <time>2026-06-19T08:16:34.000Z</time>
        <extensions>
          <ns3:TrackPointExtension>
            <ns3:atemp>22.0</ns3:atemp>
          </ns3:TrackPointExtension>
        </extensions>
      </trkpt>
      <trkpt lat="42.5122516416013240814208984375" lon="19.9836869537830352783203125">
        <ele>1631.800048828125</ele>
        <time>2026-06-19T08:16:35.000Z</time>
        <extensions>
          <ns3:TrackPointExtension>
            <ns3:atemp>22.0</ns3:atemp>
          </ns3:TrackPointExtension>
        </extensions>
      </trkpt>
      <trkpt lat="42.5122516416013240814208984375" lon="19.9836869537830352783203125">
        <ele>1631.800048828125</ele>
        <time>2026-06-19T08:16:36.000Z</time>
        <extensions>
          <ns3:TrackPointExtension>
            <ns3:atemp>22.0</ns3:atemp>
          </ns3:TrackPointExtension>
        </extensions>
      </trkpt>
      <trkpt lat="42.5122516416013240814208984375" lon="19.9836869537830352783203125">
        <ele>1631.800048828125</ele>
        <time>2026-06-19T08:16:37.000Z</time>
        <extensions>
          <ns3:TrackPointExtension>
            <ns3:atemp>22.0</ns3:atemp>
          </ns3:TrackPointExtension>
        </extensions>
      </trkpt>
      <trkpt lat="42.5122516416013240814208984375" lon="19.9836869537830352783203125">
        <ele>1631.800048828125</ele>
        <time>2026-06-19T08:16:38.000Z</time>
        <extensions>
          <ns3:TrackPointExtension>
            <ns3:atemp>22.0</ns3:atemp>
          </ns3:TrackPointExtension>
        </extensions>
      </trkpt>
      <trkpt lat="42.5122516416013240814208984375" lon="19.9836869537830352783203125">
        <ele>1631.800048828125</ele>
        <time>2026-06-19T08:16:39.000Z</time>
        <extensions>
          <ns3:TrackPointExtension>
            <ns3:atemp>22.0</ns3:atemp>
          </ns3:TrackPointExtension>
        </extensions>
      </trkpt>
      <trkpt lat="42.5122516416013240814208984375" lon="19.9836869537830352783203125">
        <ele>1631.800048828125</ele>
        <time>2026-06-19T08:16:40.000Z</time>
        <extensions>
          <ns3:TrackPointExtension>
            <ns3:atemp>22.0</ns3:atemp>
          </ns3:TrackPointExtension>
        </extensions>
      </trkpt>
      <trkpt lat="42.5122516416013240814208984375" lon="19.9836869537830352783203125">
        <ele>1631.800048828125</ele>
        <time>2026-06-19T08:16:41.000Z</time>
        <extensions>
          <ns3:TrackPointExtension>
            <ns3:atemp>22.0</ns3:atemp>
          </ns3:TrackPointExtension>
        </extensions>
      </trkpt>
      <trkpt lat="42.5122516416013240814208984375" lon="19.9836869537830352783203125">
        <ele>1631.800048828125</ele>
        <time>2026-06-19T08:16:42.000Z</time>
        <extensions>
          <ns3:TrackPointExtension>
            <ns3:atemp>22.0</ns3:atemp>
          </ns3:TrackPointExtension>
        </extensions>
      </trkpt>
      <trkpt lat="42.5122516416013240814208984375" lon="19.9836869537830352783203125">
        <ele>1631.800048828125</ele>
        <time>2026-06-19T08:16:43.000Z</time>
        <extensions>
          <ns3:TrackPointExtension>
            <ns3:atemp>22.0</ns3:atemp>
          </ns3:TrackPointExtension>
        </extensions>
      </trkpt>
      <trkpt lat="42.5122516416013240814208984375" lon="19.9836869537830352783203125">
        <ele>1631.800048828125</ele>
        <time>2026-06-19T08:16:44.000Z</time>
        <extensions>
          <ns3:TrackPointExtension>
            <ns3:atemp>22.0</ns3:atemp>
          </ns3:TrackPointExtension>
        </extensions>
      </trkpt>
      <trkpt lat="42.5122516416013240814208984375" lon="19.9836869537830352783203125">
        <ele>1631.800048828125</ele>
        <time>2026-06-19T08:16:45.000Z</time>
        <extensions>
          <ns3:TrackPointExtension>
            <ns3:atemp>22.0</ns3:atemp>
          </ns3:TrackPointExtension>
        </extensions>
      </trkpt>
      <trkpt lat="42.5122516416013240814208984375" lon="19.9836869537830352783203125">
        <ele>1631.800048828125</ele>
        <time>2026-06-19T08:16:46.000Z</time>
        <extensions>
          <ns3:TrackPointExtension>
            <ns3:atemp>22.0</ns3:atemp>
          </ns3:TrackPointExtension>
        </extensions>
      </trkpt>
      <trkpt lat="42.5122516416013240814208984375" lon="19.9836869537830352783203125">
        <ele>1631.800048828125</ele>
        <time>2026-06-19T08:16:47.000Z</time>
        <extensions>
          <ns3:TrackPointExtension>
            <ns3:atemp>22.0</ns3:atemp>
          </ns3:TrackPointExtension>
        </extensions>
      </trkpt>
      <trkpt lat="42.5122516416013240814208984375" lon="19.9836869537830352783203125">
        <ele>1631.800048828125</ele>
        <time>2026-06-19T08:16:48.000Z</time>
        <extensions>
          <ns3:TrackPointExtension>
            <ns3:atemp>22.0</ns3:atemp>
          </ns3:TrackPointExtension>
        </extensions>
      </trkpt>
      <trkpt lat="42.5122516416013240814208984375" lon="19.9836869537830352783203125">
        <ele>1631.800048828125</ele>
        <time>2026-06-19T08:16:49.000Z</time>
        <extensions>
          <ns3:TrackPointExtension>
            <ns3:atemp>22.0</ns3:atemp>
          </ns3:TrackPointExtension>
        </extensions>
      </trkpt>
      <trkpt lat="42.5122516416013240814208984375" lon="19.9836869537830352783203125">
        <ele>1631.800048828125</ele>
        <time>2026-06-19T08:16:50.000Z</time>
        <extensions>
          <ns3:TrackPointExtension>
            <ns3:atemp>22.0</ns3:atemp>
          </ns3:TrackPointExtension>
        </extensions>
      </trkpt>
      <trkpt lat="42.5122516416013240814208984375" lon="19.9836869537830352783203125">
        <ele>1631.800048828125</ele>
        <time>2026-06-19T08:16:51.000Z</time>
        <extensions>
          <ns3:TrackPointExtension>
            <ns3:atemp>22.0</ns3:atemp>
          </ns3:TrackPointExtension>
        </extensions>
      </trkpt>
      <trkpt lat="42.5122516416013240814208984375" lon="19.9836869537830352783203125">
        <ele>1631.800048828125</ele>
        <time>2026-06-19T08:16:52.000Z</time>
        <extensions>
          <ns3:TrackPointExtension>
            <ns3:atemp>22.0</ns3:atemp>
          </ns3:TrackPointExtension>
        </extensions>
      </trkpt>
      <trkpt lat="42.5122516416013240814208984375" lon="19.9836869537830352783203125">
        <ele>1631.800048828125</ele>
        <time>2026-06-19T08:16:53.000Z</time>
        <extensions>
          <ns3:TrackPointExtension>
            <ns3:atemp>22.0</ns3:atemp>
          </ns3:TrackPointExtension>
        </extensions>
      </trkpt>
      <trkpt lat="42.5122516416013240814208984375" lon="19.9836869537830352783203125">
        <ele>1631.800048828125</ele>
        <time>2026-06-19T08:16:54.000Z</time>
        <extensions>
          <ns3:TrackPointExtension>
            <ns3:atemp>22.0</ns3:atemp>
          </ns3:TrackPointExtension>
        </extensions>
      </trkpt>
      <trkpt lat="42.5122516416013240814208984375" lon="19.9836869537830352783203125">
        <ele>1631.800048828125</ele>
        <time>2026-06-19T08:16:55.000Z</time>
        <extensions>
          <ns3:TrackPointExtension>
            <ns3:atemp>22.0</ns3:atemp>
          </ns3:TrackPointExtension>
        </extensions>
      </trkpt>
      <trkpt lat="42.5122516416013240814208984375" lon="19.9836869537830352783203125">
        <ele>1631.800048828125</ele>
        <time>2026-06-19T08:16:56.000Z</time>
        <extensions>
          <ns3:TrackPointExtension>
            <ns3:atemp>22.0</ns3:atemp>
          </ns3:TrackPointExtension>
        </extensions>
      </trkpt>
      <trkpt lat="42.5122516416013240814208984375" lon="19.9836869537830352783203125">
        <ele>1631.800048828125</ele>
        <time>2026-06-19T08:16:57.000Z</time>
        <extensions>
          <ns3:TrackPointExtension>
            <ns3:atemp>22.0</ns3:atemp>
          </ns3:TrackPointExtension>
        </extensions>
      </trkpt>
      <trkpt lat="42.5122516416013240814208984375" lon="19.9836869537830352783203125">
        <ele>1631.800048828125</ele>
        <time>2026-06-19T08:16:58.000Z</time>
        <extensions>
          <ns3:TrackPointExtension>
            <ns3:atemp>22.0</ns3:atemp>
          </ns3:TrackPointExtension>
        </extensions>
      </trkpt>
      <trkpt lat="42.5122516416013240814208984375" lon="19.9836869537830352783203125">
        <ele>1631.800048828125</ele>
        <time>2026-06-19T08:16:59.000Z</time>
        <extensions>
          <ns3:TrackPointExtension>
            <ns3:atemp>22.0</ns3:atemp>
          </ns3:TrackPointExtension>
        </extensions>
      </trkpt>
      <trkpt lat="42.5122516416013240814208984375" lon="19.9836869537830352783203125">
        <ele>1631.800048828125</ele>
        <time>2026-06-19T08:17:00.000Z</time>
        <extensions>
          <ns3:TrackPointExtension>
            <ns3:atemp>22.0</ns3:atemp>
          </ns3:TrackPointExtension>
        </extensions>
      </trkpt>
      <trkpt lat="42.5122516416013240814208984375" lon="19.9836869537830352783203125">
        <ele>1631.800048828125</ele>
        <time>2026-06-19T08:17:01.000Z</time>
        <extensions>
          <ns3:TrackPointExtension>
            <ns3:atemp>22.0</ns3:atemp>
          </ns3:TrackPointExtension>
        </extensions>
      </trkpt>
      <trkpt lat="42.5122516416013240814208984375" lon="19.9836869537830352783203125">
        <ele>1631.800048828125</ele>
        <time>2026-06-19T08:17:02.000Z</time>
        <extensions>
          <ns3:TrackPointExtension>
            <ns3:atemp>22.0</ns3:atemp>
          </ns3:TrackPointExtension>
        </extensions>
      </trkpt>
      <trkpt lat="42.5122516416013240814208984375" lon="19.9836869537830352783203125">
        <ele>1631.800048828125</ele>
        <time>2026-06-19T08:17:03.000Z</time>
        <extensions>
          <ns3:TrackPointExtension>
            <ns3:atemp>22.0</ns3:atemp>
          </ns3:TrackPointExtension>
        </extensions>
      </trkpt>
      <trkpt lat="42.5122516416013240814208984375" lon="19.9836869537830352783203125">
        <ele>1631.800048828125</ele>
        <time>2026-06-19T08:17:04.000Z</time>
        <extensions>
          <ns3:TrackPointExtension>
            <ns3:atemp>22.0</ns3:atemp>
          </ns3:TrackPointExtension>
        </extensions>
      </trkpt>
      <trkpt lat="42.5122516416013240814208984375" lon="19.9836869537830352783203125">
        <ele>1631.800048828125</ele>
        <time>2026-06-19T08:17:05.000Z</time>
        <extensions>
          <ns3:TrackPointExtension>
            <ns3:atemp>22.0</ns3:atemp>
          </ns3:TrackPointExtension>
        </extensions>
      </trkpt>
      <trkpt lat="42.5122516416013240814208984375" lon="19.9836869537830352783203125">
        <ele>1631.800048828125</ele>
        <time>2026-06-19T08:17:06.000Z</time>
        <extensions>
          <ns3:TrackPointExtension>
            <ns3:atemp>22.0</ns3:atemp>
          </ns3:TrackPointExtension>
        </extensions>
      </trkpt>
      <trkpt lat="42.5122516416013240814208984375" lon="19.9836869537830352783203125">
        <ele>1631.800048828125</ele>
        <time>2026-06-19T08:17:07.000Z</time>
        <extensions>
          <ns3:TrackPointExtension>
            <ns3:atemp>22.0</ns3:atemp>
          </ns3:TrackPointExtension>
        </extensions>
      </trkpt>
      <trkpt lat="42.5122516416013240814208984375" lon="19.9836869537830352783203125">
        <ele>1631.800048828125</ele>
        <time>2026-06-19T08:17:08.000Z</time>
        <extensions>
          <ns3:TrackPointExtension>
            <ns3:atemp>22.0</ns3:atemp>
          </ns3:TrackPointExtension>
        </extensions>
      </trkpt>
      <trkpt lat="42.5122516416013240814208984375" lon="19.9836869537830352783203125">
        <ele>1631.800048828125</ele>
        <time>2026-06-19T08:17:09.000Z</time>
        <extensions>
          <ns3:TrackPointExtension>
            <ns3:atemp>22.0</ns3:atemp>
          </ns3:TrackPointExtension>
        </extensions>
      </trkpt>
      <trkpt lat="42.5122516416013240814208984375" lon="19.9836869537830352783203125">
        <ele>1631.800048828125</ele>
        <time>2026-06-19T08:17:10.000Z</time>
        <extensions>
          <ns3:TrackPointExtension>
            <ns3:atemp>22.0</ns3:atemp>
          </ns3:TrackPointExtension>
        </extensions>
      </trkpt>
      <trkpt lat="42.5122516416013240814208984375" lon="19.9836869537830352783203125">
        <ele>1631.800048828125</ele>
        <time>2026-06-19T08:17:11.000Z</time>
        <extensions>
          <ns3:TrackPointExtension>
            <ns3:atemp>22.0</ns3:atemp>
          </ns3:TrackPointExtension>
        </extensions>
      </trkpt>
      <trkpt lat="42.5122516416013240814208984375" lon="19.9836869537830352783203125">
        <ele>1631.800048828125</ele>
        <time>2026-06-19T08:17:12.000Z</time>
        <extensions>
          <ns3:TrackPointExtension>
            <ns3:atemp>22.0</ns3:atemp>
          </ns3:TrackPointExtension>
        </extensions>
      </trkpt>
      <trkpt lat="42.5122516416013240814208984375" lon="19.9836869537830352783203125">
        <ele>1631.800048828125</ele>
        <time>2026-06-19T08:17:13.000Z</time>
        <extensions>
          <ns3:TrackPointExtension>
            <ns3:atemp>22.0</ns3:atemp>
          </ns3:TrackPointExtension>
        </extensions>
      </trkpt>
      <trkpt lat="42.5122516416013240814208984375" lon="19.9836869537830352783203125">
        <ele>1631.800048828125</ele>
        <time>2026-06-19T08:17:14.000Z</time>
        <extensions>
          <ns3:TrackPointExtension>
            <ns3:atemp>22.0</ns3:atemp>
          </ns3:TrackPointExtension>
        </extensions>
      </trkpt>
      <trkpt lat="42.5122516416013240814208984375" lon="19.9836869537830352783203125">
        <ele>1631.800048828125</ele>
        <time>2026-06-19T08:17:15.000Z</time>
        <extensions>
          <ns3:TrackPointExtension>
            <ns3:atemp>22.0</ns3:atemp>
          </ns3:TrackPointExtension>
        </extensions>
      </trkpt>
      <trkpt lat="42.5122516416013240814208984375" lon="19.9836869537830352783203125">
        <ele>1631.800048828125</ele>
        <time>2026-06-19T08:17:16.000Z</time>
        <extensions>
          <ns3:TrackPointExtension>
            <ns3:atemp>22.0</ns3:atemp>
          </ns3:TrackPointExtension>
        </extensions>
      </trkpt>
      <trkpt lat="42.5122516416013240814208984375" lon="19.9836869537830352783203125">
        <ele>1631.800048828125</ele>
        <time>2026-06-19T08:17:17.000Z</time>
        <extensions>
          <ns3:TrackPointExtension>
            <ns3:atemp>22.0</ns3:atemp>
          </ns3:TrackPointExtension>
        </extensions>
      </trkpt>
      <trkpt lat="42.5122516416013240814208984375" lon="19.9836869537830352783203125">
        <ele>1631.800048828125</ele>
        <time>2026-06-19T08:17:18.000Z</time>
        <extensions>
          <ns3:TrackPointExtension>
            <ns3:atemp>22.0</ns3:atemp>
          </ns3:TrackPointExtension>
        </extensions>
      </trkpt>
      <trkpt lat="42.5122516416013240814208984375" lon="19.9836869537830352783203125">
        <ele>1631.800048828125</ele>
        <time>2026-06-19T08:17:19.000Z</time>
        <extensions>
          <ns3:TrackPointExtension>
            <ns3:atemp>22.0</ns3:atemp>
          </ns3:TrackPointExtension>
        </extensions>
      </trkpt>
      <trkpt lat="42.5122516416013240814208984375" lon="19.9836869537830352783203125">
        <ele>1631.800048828125</ele>
        <time>2026-06-19T08:17:20.000Z</time>
        <extensions>
          <ns3:TrackPointExtension>
            <ns3:atemp>22.0</ns3:atemp>
          </ns3:TrackPointExtension>
        </extensions>
      </trkpt>
      <trkpt lat="42.5122516416013240814208984375" lon="19.9836869537830352783203125">
        <ele>1631.800048828125</ele>
        <time>2026-06-19T08:17:21.000Z</time>
        <extensions>
          <ns3:TrackPointExtension>
            <ns3:atemp>22.0</ns3:atemp>
          </ns3:TrackPointExtension>
        </extensions>
      </trkpt>
      <trkpt lat="42.5122516416013240814208984375" lon="19.9836869537830352783203125">
        <ele>1631.800048828125</ele>
        <time>2026-06-19T08:17:22.000Z</time>
        <extensions>
          <ns3:TrackPointExtension>
            <ns3:atemp>22.0</ns3:atemp>
          </ns3:TrackPointExtension>
        </extensions>
      </trkpt>
      <trkpt lat="42.5122516416013240814208984375" lon="19.9836869537830352783203125">
        <ele>1631.800048828125</ele>
        <time>2026-06-19T08:17:23.000Z</time>
        <extensions>
          <ns3:TrackPointExtension>
            <ns3:atemp>22.0</ns3:atemp>
          </ns3:TrackPointExtension>
        </extensions>
      </trkpt>
      <trkpt lat="42.5122516416013240814208984375" lon="19.9836869537830352783203125">
        <ele>1631.800048828125</ele>
        <time>2026-06-19T08:17:24.000Z</time>
        <extensions>
          <ns3:TrackPointExtension>
            <ns3:atemp>22.0</ns3:atemp>
          </ns3:TrackPointExtension>
        </extensions>
      </trkpt>
      <trkpt lat="42.5122516416013240814208984375" lon="19.9836869537830352783203125">
        <ele>1631.800048828125</ele>
        <time>2026-06-19T08:17:25.000Z</time>
        <extensions>
          <ns3:TrackPointExtension>
            <ns3:atemp>22.0</ns3:atemp>
          </ns3:TrackPointExtension>
        </extensions>
      </trkpt>
      <trkpt lat="42.5122516416013240814208984375" lon="19.9836869537830352783203125">
        <ele>1631.800048828125</ele>
        <time>2026-06-19T08:17:26.000Z</time>
        <extensions>
          <ns3:TrackPointExtension>
            <ns3:atemp>22.0</ns3:atemp>
          </ns3:TrackPointExtension>
        </extensions>
      </trkpt>
      <trkpt lat="42.5122516416013240814208984375" lon="19.9836869537830352783203125">
        <ele>1631.800048828125</ele>
        <time>2026-06-19T08:17:27.000Z</time>
        <extensions>
          <ns3:TrackPointExtension>
            <ns3:atemp>22.0</ns3:atemp>
          </ns3:TrackPointExtension>
        </extensions>
      </trkpt>
      <trkpt lat="42.5122516416013240814208984375" lon="19.9836869537830352783203125">
        <ele>1631.800048828125</ele>
        <time>2026-06-19T08:17:28.000Z</time>
        <extensions>
          <ns3:TrackPointExtension>
            <ns3:atemp>22.0</ns3:atemp>
          </ns3:TrackPointExtension>
        </extensions>
      </trkpt>
      <trkpt lat="42.5122516416013240814208984375" lon="19.9836869537830352783203125">
        <ele>1631.800048828125</ele>
        <time>2026-06-19T08:17:29.000Z</time>
        <extensions>
          <ns3:TrackPointExtension>
            <ns3:atemp>22.0</ns3:atemp>
          </ns3:TrackPointExtension>
        </extensions>
      </trkpt>
      <trkpt lat="42.5122516416013240814208984375" lon="19.9836869537830352783203125">
        <ele>1631.800048828125</ele>
        <time>2026-06-19T08:17:30.000Z</time>
        <extensions>
          <ns3:TrackPointExtension>
            <ns3:atemp>22.0</ns3:atemp>
          </ns3:TrackPointExtension>
        </extensions>
      </trkpt>
      <trkpt lat="42.5122516416013240814208984375" lon="19.9836869537830352783203125">
        <ele>1631.800048828125</ele>
        <time>2026-06-19T08:17:31.000Z</time>
        <extensions>
          <ns3:TrackPointExtension>
            <ns3:atemp>22.0</ns3:atemp>
          </ns3:TrackPointExtension>
        </extensions>
      </trkpt>
      <trkpt lat="42.5122516416013240814208984375" lon="19.9836869537830352783203125">
        <ele>1631.800048828125</ele>
        <time>2026-06-19T08:17:32.000Z</time>
        <extensions>
          <ns3:TrackPointExtension>
            <ns3:atemp>22.0</ns3:atemp>
          </ns3:TrackPointExtension>
        </extensions>
      </trkpt>
      <trkpt lat="42.5122516416013240814208984375" lon="19.9836869537830352783203125">
        <ele>1631.800048828125</ele>
        <time>2026-06-19T08:17:33.000Z</time>
        <extensions>
          <ns3:TrackPointExtension>
            <ns3:atemp>22.0</ns3:atemp>
          </ns3:TrackPointExtension>
        </extensions>
      </trkpt>
      <trkpt lat="42.5122516416013240814208984375" lon="19.9836869537830352783203125">
        <ele>1631.800048828125</ele>
        <time>2026-06-19T08:17:34.000Z</time>
        <extensions>
          <ns3:TrackPointExtension>
            <ns3:atemp>22.0</ns3:atemp>
          </ns3:TrackPointExtension>
        </extensions>
      </trkpt>
      <trkpt lat="42.5122516416013240814208984375" lon="19.9836869537830352783203125">
        <ele>1631.800048828125</ele>
        <time>2026-06-19T08:17:35.000Z</time>
        <extensions>
          <ns3:TrackPointExtension>
            <ns3:atemp>22.0</ns3:atemp>
          </ns3:TrackPointExtension>
        </extensions>
      </trkpt>
      <trkpt lat="42.5122516416013240814208984375" lon="19.9836869537830352783203125">
        <ele>1631.800048828125</ele>
        <time>2026-06-19T08:17:36.000Z</time>
        <extensions>
          <ns3:TrackPointExtension>
            <ns3:atemp>22.0</ns3:atemp>
          </ns3:TrackPointExtension>
        </extensions>
      </trkpt>
      <trkpt lat="42.5122516416013240814208984375" lon="19.9836869537830352783203125">
        <ele>1631.800048828125</ele>
        <time>2026-06-19T08:17:37.000Z</time>
        <extensions>
          <ns3:TrackPointExtension>
            <ns3:atemp>22.0</ns3:atemp>
          </ns3:TrackPointExtension>
        </extensions>
      </trkpt>
      <trkpt lat="42.5122516416013240814208984375" lon="19.9836869537830352783203125">
        <ele>1631.800048828125</ele>
        <time>2026-06-19T08:17:38.000Z</time>
        <extensions>
          <ns3:TrackPointExtension>
            <ns3:atemp>22.0</ns3:atemp>
          </ns3:TrackPointExtension>
        </extensions>
      </trkpt>
      <trkpt lat="42.5122516416013240814208984375" lon="19.9836869537830352783203125">
        <ele>1631.800048828125</ele>
        <time>2026-06-19T08:17:39.000Z</time>
        <extensions>
          <ns3:TrackPointExtension>
            <ns3:atemp>22.0</ns3:atemp>
          </ns3:TrackPointExtension>
        </extensions>
      </trkpt>
      <trkpt lat="42.5122516416013240814208984375" lon="19.9836869537830352783203125">
        <ele>1631.800048828125</ele>
        <time>2026-06-19T08:17:40.000Z</time>
        <extensions>
          <ns3:TrackPointExtension>
            <ns3:atemp>22.0</ns3:atemp>
          </ns3:TrackPointExtension>
        </extensions>
      </trkpt>
      <trkpt lat="42.5122516416013240814208984375" lon="19.9836869537830352783203125">
        <ele>1631.800048828125</ele>
        <time>2026-06-19T08:17:41.000Z</time>
        <extensions>
          <ns3:TrackPointExtension>
            <ns3:atemp>22.0</ns3:atemp>
          </ns3:TrackPointExtension>
        </extensions>
      </trkpt>
      <trkpt lat="42.5122516416013240814208984375" lon="19.9836869537830352783203125">
        <ele>1631.800048828125</ele>
        <time>2026-06-19T08:17:42.000Z</time>
        <extensions>
          <ns3:TrackPointExtension>
            <ns3:atemp>22.0</ns3:atemp>
          </ns3:TrackPointExtension>
        </extensions>
      </trkpt>
      <trkpt lat="42.5122516416013240814208984375" lon="19.9836869537830352783203125">
        <ele>1631.800048828125</ele>
        <time>2026-06-19T08:17:43.000Z</time>
        <extensions>
          <ns3:TrackPointExtension>
            <ns3:atemp>22.0</ns3:atemp>
          </ns3:TrackPointExtension>
        </extensions>
      </trkpt>
      <trkpt lat="42.5122516416013240814208984375" lon="19.9836869537830352783203125">
        <ele>1631.800048828125</ele>
        <time>2026-06-19T08:17:44.000Z</time>
        <extensions>
          <ns3:TrackPointExtension>
            <ns3:atemp>22.0</ns3:atemp>
          </ns3:TrackPointExtension>
        </extensions>
      </trkpt>
      <trkpt lat="42.5122516416013240814208984375" lon="19.9836869537830352783203125">
        <ele>1631.800048828125</ele>
        <time>2026-06-19T08:17:45.000Z</time>
        <extensions>
          <ns3:TrackPointExtension>
            <ns3:atemp>22.0</ns3:atemp>
          </ns3:TrackPointExtension>
        </extensions>
      </trkpt>
      <trkpt lat="42.5122516416013240814208984375" lon="19.9836869537830352783203125">
        <ele>1631.800048828125</ele>
        <time>2026-06-19T08:17:46.000Z</time>
        <extensions>
          <ns3:TrackPointExtension>
            <ns3:atemp>22.0</ns3:atemp>
          </ns3:TrackPointExtension>
        </extensions>
      </trkpt>
      <trkpt lat="42.5122516416013240814208984375" lon="19.9836869537830352783203125">
        <ele>1631.800048828125</ele>
        <time>2026-06-19T08:17:47.000Z</time>
        <extensions>
          <ns3:TrackPointExtension>
            <ns3:atemp>22.0</ns3:atemp>
          </ns3:TrackPointExtension>
        </extensions>
      </trkpt>
      <trkpt lat="42.5122516416013240814208984375" lon="19.9836869537830352783203125">
        <ele>1631.800048828125</ele>
        <time>2026-06-19T08:17:48.000Z</time>
        <extensions>
          <ns3:TrackPointExtension>
            <ns3:atemp>22.0</ns3:atemp>
          </ns3:TrackPointExtension>
        </extensions>
      </trkpt>
      <trkpt lat="42.5122516416013240814208984375" lon="19.9836869537830352783203125">
        <ele>1631.800048828125</ele>
        <time>2026-06-19T08:17:49.000Z</time>
        <extensions>
          <ns3:TrackPointExtension>
            <ns3:atemp>22.0</ns3:atemp>
          </ns3:TrackPointExtension>
        </extensions>
      </trkpt>
      <trkpt lat="42.5122516416013240814208984375" lon="19.9836869537830352783203125">
        <ele>1631.800048828125</ele>
        <time>2026-06-19T08:17:50.000Z</time>
        <extensions>
          <ns3:TrackPointExtension>
            <ns3:atemp>22.0</ns3:atemp>
          </ns3:TrackPointExtension>
        </extensions>
      </trkpt>
      <trkpt lat="42.5122516416013240814208984375" lon="19.9836869537830352783203125">
        <ele>1631.800048828125</ele>
        <time>2026-06-19T08:17:51.000Z</time>
        <extensions>
          <ns3:TrackPointExtension>
            <ns3:atemp>22.0</ns3:atemp>
          </ns3:TrackPointExtension>
        </extensions>
      </trkpt>
      <trkpt lat="42.5122516416013240814208984375" lon="19.9836869537830352783203125">
        <ele>1631.800048828125</ele>
        <time>2026-06-19T08:17:52.000Z</time>
        <extensions>
          <ns3:TrackPointExtension>
            <ns3:atemp>22.0</ns3:atemp>
          </ns3:TrackPointExtension>
        </extensions>
      </trkpt>
      <trkpt lat="42.5122516416013240814208984375" lon="19.9836869537830352783203125">
        <ele>1631.800048828125</ele>
        <time>2026-06-19T08:17:53.000Z</time>
        <extensions>
          <ns3:TrackPointExtension>
            <ns3:atemp>22.0</ns3:atemp>
          </ns3:TrackPointExtension>
        </extensions>
      </trkpt>
      <trkpt lat="42.5122516416013240814208984375" lon="19.9836869537830352783203125">
        <ele>1631.800048828125</ele>
        <time>2026-06-19T08:17:54.000Z</time>
        <extensions>
          <ns3:TrackPointExtension>
            <ns3:atemp>23.0</ns3:atemp>
          </ns3:TrackPointExtension>
        </extensions>
      </trkpt>
      <trkpt lat="42.5122516416013240814208984375" lon="19.9836869537830352783203125">
        <ele>1631.800048828125</ele>
        <time>2026-06-19T08:17:55.000Z</time>
        <extensions>
          <ns3:TrackPointExtension>
            <ns3:atemp>23.0</ns3:atemp>
          </ns3:TrackPointExtension>
        </extensions>
      </trkpt>
      <trkpt lat="42.5122516416013240814208984375" lon="19.9836869537830352783203125">
        <ele>1631.800048828125</ele>
        <time>2026-06-19T08:17:56.000Z</time>
        <extensions>
          <ns3:TrackPointExtension>
            <ns3:atemp>22.0</ns3:atemp>
          </ns3:TrackPointExtension>
        </extensions>
      </trkpt>
      <trkpt lat="42.5122516416013240814208984375" lon="19.9836869537830352783203125">
        <ele>1631.800048828125</ele>
        <time>2026-06-19T08:17:57.000Z</time>
        <extensions>
          <ns3:TrackPointExtension>
            <ns3:atemp>22.0</ns3:atemp>
          </ns3:TrackPointExtension>
        </extensions>
      </trkpt>
      <trkpt lat="42.5122516416013240814208984375" lon="19.9836869537830352783203125">
        <ele>1631.800048828125</ele>
        <time>2026-06-19T08:17:58.000Z</time>
        <extensions>
          <ns3:TrackPointExtension>
            <ns3:atemp>23.0</ns3:atemp>
          </ns3:TrackPointExtension>
        </extensions>
      </trkpt>
      <trkpt lat="42.5122516416013240814208984375" lon="19.9836869537830352783203125">
        <ele>1631.800048828125</ele>
        <time>2026-06-19T08:17:59.000Z</time>
        <extensions>
          <ns3:TrackPointExtension>
            <ns3:atemp>23.0</ns3:atemp>
          </ns3:TrackPointExtension>
        </extensions>
      </trkpt>
      <trkpt lat="42.5122516416013240814208984375" lon="19.9836869537830352783203125">
        <ele>1631.800048828125</ele>
        <time>2026-06-19T08:18:00.000Z</time>
        <extensions>
          <ns3:TrackPointExtension>
            <ns3:atemp>23.0</ns3:atemp>
          </ns3:TrackPointExtension>
        </extensions>
      </trkpt>
      <trkpt lat="42.5122516416013240814208984375" lon="19.9836869537830352783203125">
        <ele>1631.800048828125</ele>
        <time>2026-06-19T08:18:01.000Z</time>
        <extensions>
          <ns3:TrackPointExtension>
            <ns3:atemp>23.0</ns3:atemp>
          </ns3:TrackPointExtension>
        </extensions>
      </trkpt>
      <trkpt lat="42.5122516416013240814208984375" lon="19.9836869537830352783203125">
        <ele>1631.800048828125</ele>
        <time>2026-06-19T08:18:02.000Z</time>
        <extensions>
          <ns3:TrackPointExtension>
            <ns3:atemp>23.0</ns3:atemp>
          </ns3:TrackPointExtension>
        </extensions>
      </trkpt>
      <trkpt lat="42.5122516416013240814208984375" lon="19.9836869537830352783203125">
        <ele>1631.800048828125</ele>
        <time>2026-06-19T08:18:03.000Z</time>
        <extensions>
          <ns3:TrackPointExtension>
            <ns3:atemp>23.0</ns3:atemp>
          </ns3:TrackPointExtension>
        </extensions>
      </trkpt>
      <trkpt lat="42.5122516416013240814208984375" lon="19.9836869537830352783203125">
        <ele>1631.800048828125</ele>
        <time>2026-06-19T08:18:04.000Z</time>
        <extensions>
          <ns3:TrackPointExtension>
            <ns3:atemp>23.0</ns3:atemp>
          </ns3:TrackPointExtension>
        </extensions>
      </trkpt>
      <trkpt lat="42.5122516416013240814208984375" lon="19.9836869537830352783203125">
        <ele>1631.800048828125</ele>
        <time>2026-06-19T08:18:05.000Z</time>
        <extensions>
          <ns3:TrackPointExtension>
            <ns3:atemp>23.0</ns3:atemp>
          </ns3:TrackPointExtension>
        </extensions>
      </trkpt>
      <trkpt lat="42.5122516416013240814208984375" lon="19.9836869537830352783203125">
        <ele>1631.800048828125</ele>
        <time>2026-06-19T08:18:06.000Z</time>
        <extensions>
          <ns3:TrackPointExtension>
            <ns3:atemp>23.0</ns3:atemp>
          </ns3:TrackPointExtension>
        </extensions>
      </trkpt>
      <trkpt lat="42.5122516416013240814208984375" lon="19.9836869537830352783203125">
        <ele>1631.800048828125</ele>
        <time>2026-06-19T08:18:07.000Z</time>
        <extensions>
          <ns3:TrackPointExtension>
            <ns3:atemp>23.0</ns3:atemp>
          </ns3:TrackPointExtension>
        </extensions>
      </trkpt>
      <trkpt lat="42.5122516416013240814208984375" lon="19.9836869537830352783203125">
        <ele>1631.800048828125</ele>
        <time>2026-06-19T08:18:08.000Z</time>
        <extensions>
          <ns3:TrackPointExtension>
            <ns3:atemp>23.0</ns3:atemp>
          </ns3:TrackPointExtension>
        </extensions>
      </trkpt>
      <trkpt lat="42.5122516416013240814208984375" lon="19.9836869537830352783203125">
        <ele>1631.800048828125</ele>
        <time>2026-06-19T08:18:09.000Z</time>
        <extensions>
          <ns3:TrackPointExtension>
            <ns3:atemp>23.0</ns3:atemp>
          </ns3:TrackPointExtension>
        </extensions>
      </trkpt>
      <trkpt lat="42.5122516416013240814208984375" lon="19.9836869537830352783203125">
        <ele>1631.800048828125</ele>
        <time>2026-06-19T08:18:10.000Z</time>
        <extensions>
          <ns3:TrackPointExtension>
            <ns3:atemp>23.0</ns3:atemp>
          </ns3:TrackPointExtension>
        </extensions>
      </trkpt>
      <trkpt lat="42.5122516416013240814208984375" lon="19.9836869537830352783203125">
        <ele>1631.800048828125</ele>
        <time>2026-06-19T08:18:11.000Z</time>
        <extensions>
          <ns3:TrackPointExtension>
            <ns3:atemp>23.0</ns3:atemp>
          </ns3:TrackPointExtension>
        </extensions>
      </trkpt>
      <trkpt lat="42.5122516416013240814208984375" lon="19.9836869537830352783203125">
        <ele>1631.800048828125</ele>
        <time>2026-06-19T08:18:12.000Z</time>
        <extensions>
          <ns3:TrackPointExtension>
            <ns3:atemp>23.0</ns3:atemp>
          </ns3:TrackPointExtension>
        </extensions>
      </trkpt>
      <trkpt lat="42.5122516416013240814208984375" lon="19.9836869537830352783203125">
        <ele>1631.800048828125</ele>
        <time>2026-06-19T08:18:13.000Z</time>
        <extensions>
          <ns3:TrackPointExtension>
            <ns3:atemp>23.0</ns3:atemp>
          </ns3:TrackPointExtension>
        </extensions>
      </trkpt>
      <trkpt lat="42.5122516416013240814208984375" lon="19.9836869537830352783203125">
        <ele>1631.800048828125</ele>
        <time>2026-06-19T08:18:14.000Z</time>
        <extensions>
          <ns3:TrackPointExtension>
            <ns3:atemp>23.0</ns3:atemp>
          </ns3:TrackPointExtension>
        </extensions>
      </trkpt>
      <trkpt lat="42.5122516416013240814208984375" lon="19.9836869537830352783203125">
        <ele>1631.800048828125</ele>
        <time>2026-06-19T08:18:15.000Z</time>
        <extensions>
          <ns3:TrackPointExtension>
            <ns3:atemp>23.0</ns3:atemp>
          </ns3:TrackPointExtension>
        </extensions>
      </trkpt>
      <trkpt lat="42.5122516416013240814208984375" lon="19.9836869537830352783203125">
        <ele>1631.800048828125</ele>
        <time>2026-06-19T08:18:16.000Z</time>
        <extensions>
          <ns3:TrackPointExtension>
            <ns3:atemp>23.0</ns3:atemp>
          </ns3:TrackPointExtension>
        </extensions>
      </trkpt>
      <trkpt lat="42.5122516416013240814208984375" lon="19.9836869537830352783203125">
        <ele>1631.800048828125</ele>
        <time>2026-06-19T08:18:17.000Z</time>
        <extensions>
          <ns3:TrackPointExtension>
            <ns3:atemp>23.0</ns3:atemp>
          </ns3:TrackPointExtension>
        </extensions>
      </trkpt>
      <trkpt lat="42.5122516416013240814208984375" lon="19.9836869537830352783203125">
        <ele>1631.800048828125</ele>
        <time>2026-06-19T08:18:18.000Z</time>
        <extensions>
          <ns3:TrackPointExtension>
            <ns3:atemp>23.0</ns3:atemp>
          </ns3:TrackPointExtension>
        </extensions>
      </trkpt>
      <trkpt lat="42.5122516416013240814208984375" lon="19.9836869537830352783203125">
        <ele>1631.800048828125</ele>
        <time>2026-06-19T08:18:19.000Z</time>
        <extensions>
          <ns3:TrackPointExtension>
            <ns3:atemp>23.0</ns3:atemp>
          </ns3:TrackPointExtension>
        </extensions>
      </trkpt>
      <trkpt lat="42.5122516416013240814208984375" lon="19.9836869537830352783203125">
        <ele>1631.800048828125</ele>
        <time>2026-06-19T08:18:20.000Z</time>
        <extensions>
          <ns3:TrackPointExtension>
            <ns3:atemp>23.0</ns3:atemp>
          </ns3:TrackPointExtension>
        </extensions>
      </trkpt>
      <trkpt lat="42.5122516416013240814208984375" lon="19.9836869537830352783203125">
        <ele>1631.800048828125</ele>
        <time>2026-06-19T08:18:21.000Z</time>
        <extensions>
          <ns3:TrackPointExtension>
            <ns3:atemp>23.0</ns3:atemp>
          </ns3:TrackPointExtension>
        </extensions>
      </trkpt>
      <trkpt lat="42.5122516416013240814208984375" lon="19.9836869537830352783203125">
        <ele>1631.800048828125</ele>
        <time>2026-06-19T08:18:22.000Z</time>
        <extensions>
          <ns3:TrackPointExtension>
            <ns3:atemp>23.0</ns3:atemp>
          </ns3:TrackPointExtension>
        </extensions>
      </trkpt>
      <trkpt lat="42.5122516416013240814208984375" lon="19.9836869537830352783203125">
        <ele>1631.800048828125</ele>
        <time>2026-06-19T08:18:23.000Z</time>
        <extensions>
          <ns3:TrackPointExtension>
            <ns3:atemp>23.0</ns3:atemp>
          </ns3:TrackPointExtension>
        </extensions>
      </trkpt>
      <trkpt lat="42.5122516416013240814208984375" lon="19.9836869537830352783203125">
        <ele>1631.800048828125</ele>
        <time>2026-06-19T08:18:24.000Z</time>
        <extensions>
          <ns3:TrackPointExtension>
            <ns3:atemp>23.0</ns3:atemp>
          </ns3:TrackPointExtension>
        </extensions>
      </trkpt>
      <trkpt lat="42.5122516416013240814208984375" lon="19.9836869537830352783203125">
        <ele>1631.800048828125</ele>
        <time>2026-06-19T08:18:25.000Z</time>
        <extensions>
          <ns3:TrackPointExtension>
            <ns3:atemp>23.0</ns3:atemp>
          </ns3:TrackPointExtension>
        </extensions>
      </trkpt>
      <trkpt lat="42.5122516416013240814208984375" lon="19.9836869537830352783203125">
        <ele>1631.800048828125</ele>
        <time>2026-06-19T08:18:26.000Z</time>
        <extensions>
          <ns3:TrackPointExtension>
            <ns3:atemp>23.0</ns3:atemp>
          </ns3:TrackPointExtension>
        </extensions>
      </trkpt>
      <trkpt lat="42.5122516416013240814208984375" lon="19.9836869537830352783203125">
        <ele>1631.800048828125</ele>
        <time>2026-06-19T08:18:27.000Z</time>
        <extensions>
          <ns3:TrackPointExtension>
            <ns3:atemp>23.0</ns3:atemp>
          </ns3:TrackPointExtension>
        </extensions>
      </trkpt>
      <trkpt lat="42.5122516416013240814208984375" lon="19.9836869537830352783203125">
        <ele>1631.800048828125</ele>
        <time>2026-06-19T08:18:28.000Z</time>
        <extensions>
          <ns3:TrackPointExtension>
            <ns3:atemp>23.0</ns3:atemp>
          </ns3:TrackPointExtension>
        </extensions>
      </trkpt>
      <trkpt lat="42.5122516416013240814208984375" lon="19.9836869537830352783203125">
        <ele>1631.800048828125</ele>
        <time>2026-06-19T08:18:29.000Z</time>
        <extensions>
          <ns3:TrackPointExtension>
            <ns3:atemp>23.0</ns3:atemp>
          </ns3:TrackPointExtension>
        </extensions>
      </trkpt>
      <trkpt lat="42.5122516416013240814208984375" lon="19.9836869537830352783203125">
        <ele>1631.800048828125</ele>
        <time>2026-06-19T08:18:30.000Z</time>
        <extensions>
          <ns3:TrackPointExtension>
            <ns3:atemp>23.0</ns3:atemp>
          </ns3:TrackPointExtension>
        </extensions>
      </trkpt>
      <trkpt lat="42.5122516416013240814208984375" lon="19.9836869537830352783203125">
        <ele>1631.800048828125</ele>
        <time>2026-06-19T08:18:31.000Z</time>
        <extensions>
          <ns3:TrackPointExtension>
            <ns3:atemp>23.0</ns3:atemp>
          </ns3:TrackPointExtension>
        </extensions>
      </trkpt>
      <trkpt lat="42.5122516416013240814208984375" lon="19.9836869537830352783203125">
        <ele>1631.800048828125</ele>
        <time>2026-06-19T08:18:32.000Z</time>
        <extensions>
          <ns3:TrackPointExtension>
            <ns3:atemp>23.0</ns3:atemp>
          </ns3:TrackPointExtension>
        </extensions>
      </trkpt>
      <trkpt lat="42.5122516416013240814208984375" lon="19.9836869537830352783203125">
        <ele>1631.800048828125</ele>
        <time>2026-06-19T08:18:33.000Z</time>
        <extensions>
          <ns3:TrackPointExtension>
            <ns3:atemp>23.0</ns3:atemp>
          </ns3:TrackPointExtension>
        </extensions>
      </trkpt>
      <trkpt lat="42.5122516416013240814208984375" lon="19.9836869537830352783203125">
        <ele>1631.800048828125</ele>
        <time>2026-06-19T08:18:34.000Z</time>
        <extensions>
          <ns3:TrackPointExtension>
            <ns3:atemp>23.0</ns3:atemp>
          </ns3:TrackPointExtension>
        </extensions>
      </trkpt>
      <trkpt lat="42.5122516416013240814208984375" lon="19.9836869537830352783203125">
        <ele>1631.800048828125</ele>
        <time>2026-06-19T08:18:35.000Z</time>
        <extensions>
          <ns3:TrackPointExtension>
            <ns3:atemp>23.0</ns3:atemp>
          </ns3:TrackPointExtension>
        </extensions>
      </trkpt>
      <trkpt lat="42.5122516416013240814208984375" lon="19.9836869537830352783203125">
        <ele>1631.800048828125</ele>
        <time>2026-06-19T08:18:36.000Z</time>
        <extensions>
          <ns3:TrackPointExtension>
            <ns3:atemp>23.0</ns3:atemp>
          </ns3:TrackPointExtension>
        </extensions>
      </trkpt>
      <trkpt lat="42.5122516416013240814208984375" lon="19.9836869537830352783203125">
        <ele>1631.800048828125</ele>
        <time>2026-06-19T08:18:37.000Z</time>
        <extensions>
          <ns3:TrackPointExtension>
            <ns3:atemp>23.0</ns3:atemp>
          </ns3:TrackPointExtension>
        </extensions>
      </trkpt>
      <trkpt lat="42.5122516416013240814208984375" lon="19.9836869537830352783203125">
        <ele>1631.800048828125</ele>
        <time>2026-06-19T08:18:38.000Z</time>
        <extensions>
          <ns3:TrackPointExtension>
            <ns3:atemp>23.0</ns3:atemp>
          </ns3:TrackPointExtension>
        </extensions>
      </trkpt>
      <trkpt lat="42.5122516416013240814208984375" lon="19.9836869537830352783203125">
        <ele>1631.800048828125</ele>
        <time>2026-06-19T08:18:39.000Z</time>
        <extensions>
          <ns3:TrackPointExtension>
            <ns3:atemp>23.0</ns3:atemp>
          </ns3:TrackPointExtension>
        </extensions>
      </trkpt>
      <trkpt lat="42.5122516416013240814208984375" lon="19.9836869537830352783203125">
        <ele>1631.800048828125</ele>
        <time>2026-06-19T08:18:40.000Z</time>
        <extensions>
          <ns3:TrackPointExtension>
            <ns3:atemp>23.0</ns3:atemp>
          </ns3:TrackPointExtension>
        </extensions>
      </trkpt>
      <trkpt lat="42.5122516416013240814208984375" lon="19.9836869537830352783203125">
        <ele>1631.800048828125</ele>
        <time>2026-06-19T08:18:41.000Z</time>
        <extensions>
          <ns3:TrackPointExtension>
            <ns3:atemp>23.0</ns3:atemp>
          </ns3:TrackPointExtension>
        </extensions>
      </trkpt>
      <trkpt lat="42.5122516416013240814208984375" lon="19.9836869537830352783203125">
        <ele>1631.800048828125</ele>
        <time>2026-06-19T08:18:42.000Z</time>
        <extensions>
          <ns3:TrackPointExtension>
            <ns3:atemp>23.0</ns3:atemp>
          </ns3:TrackPointExtension>
        </extensions>
      </trkpt>
      <trkpt lat="42.5122516416013240814208984375" lon="19.9836869537830352783203125">
        <ele>1631.800048828125</ele>
        <time>2026-06-19T08:18:43.000Z</time>
        <extensions>
          <ns3:TrackPointExtension>
            <ns3:atemp>23.0</ns3:atemp>
          </ns3:TrackPointExtension>
        </extensions>
      </trkpt>
      <trkpt lat="42.5122516416013240814208984375" lon="19.9836869537830352783203125">
        <ele>1631.800048828125</ele>
        <time>2026-06-19T08:18:44.000Z</time>
        <extensions>
          <ns3:TrackPointExtension>
            <ns3:atemp>23.0</ns3:atemp>
          </ns3:TrackPointExtension>
        </extensions>
      </trkpt>
      <trkpt lat="42.5122516416013240814208984375" lon="19.9836869537830352783203125">
        <ele>1631.800048828125</ele>
        <time>2026-06-19T08:18:45.000Z</time>
        <extensions>
          <ns3:TrackPointExtension>
            <ns3:atemp>23.0</ns3:atemp>
          </ns3:TrackPointExtension>
        </extensions>
      </trkpt>
      <trkpt lat="42.5122516416013240814208984375" lon="19.9836869537830352783203125">
        <ele>1631.800048828125</ele>
        <time>2026-06-19T08:18:46.000Z</time>
        <extensions>
          <ns3:TrackPointExtension>
            <ns3:atemp>23.0</ns3:atemp>
          </ns3:TrackPointExtension>
        </extensions>
      </trkpt>
      <trkpt lat="42.5122516416013240814208984375" lon="19.9836869537830352783203125">
        <ele>1631.800048828125</ele>
        <time>2026-06-19T08:18:47.000Z</time>
        <extensions>
          <ns3:TrackPointExtension>
            <ns3:atemp>23.0</ns3:atemp>
          </ns3:TrackPointExtension>
        </extensions>
      </trkpt>
      <trkpt lat="42.5122516416013240814208984375" lon="19.9836869537830352783203125">
        <ele>1631.800048828125</ele>
        <time>2026-06-19T08:18:48.000Z</time>
        <extensions>
          <ns3:TrackPointExtension>
            <ns3:atemp>23.0</ns3:atemp>
          </ns3:TrackPointExtension>
        </extensions>
      </trkpt>
      <trkpt lat="42.5122516416013240814208984375" lon="19.9836869537830352783203125">
        <ele>1631.800048828125</ele>
        <time>2026-06-19T08:18:49.000Z</time>
        <extensions>
          <ns3:TrackPointExtension>
            <ns3:atemp>23.0</ns3:atemp>
          </ns3:TrackPointExtension>
        </extensions>
      </trkpt>
      <trkpt lat="42.5122516416013240814208984375" lon="19.9836869537830352783203125">
        <ele>1631.800048828125</ele>
        <time>2026-06-19T08:18:50.000Z</time>
        <extensions>
          <ns3:TrackPointExtension>
            <ns3:atemp>23.0</ns3:atemp>
          </ns3:TrackPointExtension>
        </extensions>
      </trkpt>
      <trkpt lat="42.5122516416013240814208984375" lon="19.9836869537830352783203125">
        <ele>1631.800048828125</ele>
        <time>2026-06-19T08:18:51.000Z</time>
        <extensions>
          <ns3:TrackPointExtension>
            <ns3:atemp>23.0</ns3:atemp>
          </ns3:TrackPointExtension>
        </extensions>
      </trkpt>
      <trkpt lat="42.5122516416013240814208984375" lon="19.9836869537830352783203125">
        <ele>1631.800048828125</ele>
        <time>2026-06-19T08:18:52.000Z</time>
        <extensions>
          <ns3:TrackPointExtension>
            <ns3:atemp>23.0</ns3:atemp>
          </ns3:TrackPointExtension>
        </extensions>
      </trkpt>
      <trkpt lat="42.5122516416013240814208984375" lon="19.9836869537830352783203125">
        <ele>1631.800048828125</ele>
        <time>2026-06-19T08:18:53.000Z</time>
        <extensions>
          <ns3:TrackPointExtension>
            <ns3:atemp>23.0</ns3:atemp>
          </ns3:TrackPointExtension>
        </extensions>
      </trkpt>
      <trkpt lat="42.5122516416013240814208984375" lon="19.9836869537830352783203125">
        <ele>1631.800048828125</ele>
        <time>2026-06-19T08:18:54.000Z</time>
        <extensions>
          <ns3:TrackPointExtension>
            <ns3:atemp>23.0</ns3:atemp>
          </ns3:TrackPointExtension>
        </extensions>
      </trkpt>
      <trkpt lat="42.5122516416013240814208984375" lon="19.9836869537830352783203125">
        <ele>1631.800048828125</ele>
        <time>2026-06-19T08:18:55.000Z</time>
        <extensions>
          <ns3:TrackPointExtension>
            <ns3:atemp>23.0</ns3:atemp>
          </ns3:TrackPointExtension>
        </extensions>
      </trkpt>
      <trkpt lat="42.5122516416013240814208984375" lon="19.9836869537830352783203125">
        <ele>1631.800048828125</ele>
        <time>2026-06-19T08:18:56.000Z</time>
        <extensions>
          <ns3:TrackPointExtension>
            <ns3:atemp>23.0</ns3:atemp>
          </ns3:TrackPointExtension>
        </extensions>
      </trkpt>
      <trkpt lat="42.5122516416013240814208984375" lon="19.9836869537830352783203125">
        <ele>1631.800048828125</ele>
        <time>2026-06-19T08:18:57.000Z</time>
        <extensions>
          <ns3:TrackPointExtension>
            <ns3:atemp>23.0</ns3:atemp>
          </ns3:TrackPointExtension>
        </extensions>
      </trkpt>
      <trkpt lat="42.5122516416013240814208984375" lon="19.9836869537830352783203125">
        <ele>1631.800048828125</ele>
        <time>2026-06-19T08:18:58.000Z</time>
        <extensions>
          <ns3:TrackPointExtension>
            <ns3:atemp>23.0</ns3:atemp>
          </ns3:TrackPointExtension>
        </extensions>
      </trkpt>
      <trkpt lat="42.5122516416013240814208984375" lon="19.9836869537830352783203125">
        <ele>1631.800048828125</ele>
        <time>2026-06-19T08:18:59.000Z</time>
        <extensions>
          <ns3:TrackPointExtension>
            <ns3:atemp>23.0</ns3:atemp>
          </ns3:TrackPointExtension>
        </extensions>
      </trkpt>
      <trkpt lat="42.5122516416013240814208984375" lon="19.9836869537830352783203125">
        <ele>1631.800048828125</ele>
        <time>2026-06-19T08:19:00.000Z</time>
        <extensions>
          <ns3:TrackPointExtension>
            <ns3:atemp>23.0</ns3:atemp>
          </ns3:TrackPointExtension>
        </extensions>
      </trkpt>
      <trkpt lat="42.5122516416013240814208984375" lon="19.9836869537830352783203125">
        <ele>1631.800048828125</ele>
        <time>2026-06-19T08:19:01.000Z</time>
        <extensions>
          <ns3:TrackPointExtension>
            <ns3:atemp>23.0</ns3:atemp>
          </ns3:TrackPointExtension>
        </extensions>
      </trkpt>
      <trkpt lat="42.5122516416013240814208984375" lon="19.9836869537830352783203125">
        <ele>1631.800048828125</ele>
        <time>2026-06-19T08:19:02.000Z</time>
        <extensions>
          <ns3:TrackPointExtension>
            <ns3:atemp>23.0</ns3:atemp>
          </ns3:TrackPointExtension>
        </extensions>
      </trkpt>
      <trkpt lat="42.5122516416013240814208984375" lon="19.9836869537830352783203125">
        <ele>1631.800048828125</ele>
        <time>2026-06-19T08:19:03.000Z</time>
        <extensions>
          <ns3:TrackPointExtension>
            <ns3:atemp>23.0</ns3:atemp>
          </ns3:TrackPointExtension>
        </extensions>
      </trkpt>
      <trkpt lat="42.5122516416013240814208984375" lon="19.9836869537830352783203125">
        <ele>1631.800048828125</ele>
        <time>2026-06-19T08:19:04.000Z</time>
        <extensions>
          <ns3:TrackPointExtension>
            <ns3:atemp>23.0</ns3:atemp>
          </ns3:TrackPointExtension>
        </extensions>
      </trkpt>
      <trkpt lat="42.5122516416013240814208984375" lon="19.9836869537830352783203125">
        <ele>1631.800048828125</ele>
        <time>2026-06-19T08:19:05.000Z</time>
        <extensions>
          <ns3:TrackPointExtension>
            <ns3:atemp>23.0</ns3:atemp>
          </ns3:TrackPointExtension>
        </extensions>
      </trkpt>
      <trkpt lat="42.5122516416013240814208984375" lon="19.9836869537830352783203125">
        <ele>1631.800048828125</ele>
        <time>2026-06-19T08:19:06.000Z</time>
        <extensions>
          <ns3:TrackPointExtension>
            <ns3:atemp>23.0</ns3:atemp>
          </ns3:TrackPointExtension>
        </extensions>
      </trkpt>
      <trkpt lat="42.5122516416013240814208984375" lon="19.9836869537830352783203125">
        <ele>1631.800048828125</ele>
        <time>2026-06-19T08:19:07.000Z</time>
        <extensions>
          <ns3:TrackPointExtension>
            <ns3:atemp>23.0</ns3:atemp>
          </ns3:TrackPointExtension>
        </extensions>
      </trkpt>
      <trkpt lat="42.5122516416013240814208984375" lon="19.9836869537830352783203125">
        <ele>1631.800048828125</ele>
        <time>2026-06-19T08:19:08.000Z</time>
        <extensions>
          <ns3:TrackPointExtension>
            <ns3:atemp>23.0</ns3:atemp>
          </ns3:TrackPointExtension>
        </extensions>
      </trkpt>
      <trkpt lat="42.5122516416013240814208984375" lon="19.9836869537830352783203125">
        <ele>1631.800048828125</ele>
        <time>2026-06-19T08:19:09.000Z</time>
        <extensions>
          <ns3:TrackPointExtension>
            <ns3:atemp>23.0</ns3:atemp>
          </ns3:TrackPointExtension>
        </extensions>
      </trkpt>
      <trkpt lat="42.5122516416013240814208984375" lon="19.9836869537830352783203125">
        <ele>1631.800048828125</ele>
        <time>2026-06-19T08:19:10.000Z</time>
        <extensions>
          <ns3:TrackPointExtension>
            <ns3:atemp>23.0</ns3:atemp>
          </ns3:TrackPointExtension>
        </extensions>
      </trkpt>
      <trkpt lat="42.5122516416013240814208984375" lon="19.9836869537830352783203125">
        <ele>1631.800048828125</ele>
        <time>2026-06-19T08:19:11.000Z</time>
        <extensions>
          <ns3:TrackPointExtension>
            <ns3:atemp>23.0</ns3:atemp>
          </ns3:TrackPointExtension>
        </extensions>
      </trkpt>
      <trkpt lat="42.5122516416013240814208984375" lon="19.9836869537830352783203125">
        <ele>1631.800048828125</ele>
        <time>2026-06-19T08:19:12.000Z</time>
        <extensions>
          <ns3:TrackPointExtension>
            <ns3:atemp>23.0</ns3:atemp>
          </ns3:TrackPointExtension>
        </extensions>
      </trkpt>
      <trkpt lat="42.5122516416013240814208984375" lon="19.9836869537830352783203125">
        <ele>1631.800048828125</ele>
        <time>2026-06-19T08:19:13.000Z</time>
        <extensions>
          <ns3:TrackPointExtension>
            <ns3:atemp>23.0</ns3:atemp>
          </ns3:TrackPointExtension>
        </extensions>
      </trkpt>
      <trkpt lat="42.5122516416013240814208984375" lon="19.9836869537830352783203125">
        <ele>1631.800048828125</ele>
        <time>2026-06-19T08:19:14.000Z</time>
        <extensions>
          <ns3:TrackPointExtension>
            <ns3:atemp>23.0</ns3:atemp>
          </ns3:TrackPointExtension>
        </extensions>
      </trkpt>
      <trkpt lat="42.5122516416013240814208984375" lon="19.9836869537830352783203125">
        <ele>1631.800048828125</ele>
        <time>2026-06-19T08:19:15.000Z</time>
        <extensions>
          <ns3:TrackPointExtension>
            <ns3:atemp>23.0</ns3:atemp>
          </ns3:TrackPointExtension>
        </extensions>
      </trkpt>
      <trkpt lat="42.5122516416013240814208984375" lon="19.9836869537830352783203125">
        <ele>1631.800048828125</ele>
        <time>2026-06-19T08:19:16.000Z</time>
        <extensions>
          <ns3:TrackPointExtension>
            <ns3:atemp>23.0</ns3:atemp>
          </ns3:TrackPointExtension>
        </extensions>
      </trkpt>
      <trkpt lat="42.5122516416013240814208984375" lon="19.9836869537830352783203125">
        <ele>1631.800048828125</ele>
        <time>2026-06-19T08:19:17.000Z</time>
        <extensions>
          <ns3:TrackPointExtension>
            <ns3:atemp>23.0</ns3:atemp>
          </ns3:TrackPointExtension>
        </extensions>
      </trkpt>
      <trkpt lat="42.5122516416013240814208984375" lon="19.9836869537830352783203125">
        <ele>1631.800048828125</ele>
        <time>2026-06-19T08:19:18.000Z</time>
        <extensions>
          <ns3:TrackPointExtension>
            <ns3:atemp>23.0</ns3:atemp>
          </ns3:TrackPointExtension>
        </extensions>
      </trkpt>
      <trkpt lat="42.5122516416013240814208984375" lon="19.9836869537830352783203125">
        <ele>1631.800048828125</ele>
        <time>2026-06-19T08:19:19.000Z</time>
        <extensions>
          <ns3:TrackPointExtension>
            <ns3:atemp>23.0</ns3:atemp>
          </ns3:TrackPointExtension>
        </extensions>
      </trkpt>
      <trkpt lat="42.5122516416013240814208984375" lon="19.9836869537830352783203125">
        <ele>1631.800048828125</ele>
        <time>2026-06-19T08:19:20.000Z</time>
        <extensions>
          <ns3:TrackPointExtension>
            <ns3:atemp>23.0</ns3:atemp>
          </ns3:TrackPointExtension>
        </extensions>
      </trkpt>
      <trkpt lat="42.5122516416013240814208984375" lon="19.9836869537830352783203125">
        <ele>1631.800048828125</ele>
        <time>2026-06-19T08:19:21.000Z</time>
        <extensions>
          <ns3:TrackPointExtension>
            <ns3:atemp>23.0</ns3:atemp>
          </ns3:TrackPointExtension>
        </extensions>
      </trkpt>
      <trkpt lat="42.5122516416013240814208984375" lon="19.9836869537830352783203125">
        <ele>1631.800048828125</ele>
        <time>2026-06-19T08:19:22.000Z</time>
        <extensions>
          <ns3:TrackPointExtension>
            <ns3:atemp>23.0</ns3:atemp>
          </ns3:TrackPointExtension>
        </extensions>
      </trkpt>
      <trkpt lat="42.5122516416013240814208984375" lon="19.9836869537830352783203125">
        <ele>1631.800048828125</ele>
        <time>2026-06-19T08:19:23.000Z</time>
        <extensions>
          <ns3:TrackPointExtension>
            <ns3:atemp>23.0</ns3:atemp>
          </ns3:TrackPointExtension>
        </extensions>
      </trkpt>
      <trkpt lat="42.5122516416013240814208984375" lon="19.9836869537830352783203125">
        <ele>1631.800048828125</ele>
        <time>2026-06-19T08:19:24.000Z</time>
        <extensions>
          <ns3:TrackPointExtension>
            <ns3:atemp>23.0</ns3:atemp>
          </ns3:TrackPointExtension>
        </extensions>
      </trkpt>
      <trkpt lat="42.5122516416013240814208984375" lon="19.9836869537830352783203125">
        <ele>1631.800048828125</ele>
        <time>2026-06-19T08:19:25.000Z</time>
        <extensions>
          <ns3:TrackPointExtension>
            <ns3:atemp>23.0</ns3:atemp>
          </ns3:TrackPointExtension>
        </extensions>
      </trkpt>
      <trkpt lat="42.5122516416013240814208984375" lon="19.9836869537830352783203125">
        <ele>1631.800048828125</ele>
        <time>2026-06-19T08:19:26.000Z</time>
        <extensions>
          <ns3:TrackPointExtension>
            <ns3:atemp>23.0</ns3:atemp>
          </ns3:TrackPointExtension>
        </extensions>
      </trkpt>
      <trkpt lat="42.5122516416013240814208984375" lon="19.9836869537830352783203125">
        <ele>1631.800048828125</ele>
        <time>2026-06-19T08:19:27.000Z</time>
        <extensions>
          <ns3:TrackPointExtension>
            <ns3:atemp>23.0</ns3:atemp>
          </ns3:TrackPointExtension>
        </extensions>
      </trkpt>
      <trkpt lat="42.5122516416013240814208984375" lon="19.9836869537830352783203125">
        <ele>1631.800048828125</ele>
        <time>2026-06-19T08:19:28.000Z</time>
        <extensions>
          <ns3:TrackPointExtension>
            <ns3:atemp>23.0</ns3:atemp>
          </ns3:TrackPointExtension>
        </extensions>
      </trkpt>
      <trkpt lat="42.5122516416013240814208984375" lon="19.9836869537830352783203125">
        <ele>1631.800048828125</ele>
        <time>2026-06-19T08:19:29.000Z</time>
        <extensions>
          <ns3:TrackPointExtension>
            <ns3:atemp>23.0</ns3:atemp>
          </ns3:TrackPointExtension>
        </extensions>
      </trkpt>
      <trkpt lat="42.5122516416013240814208984375" lon="19.9836869537830352783203125">
        <ele>1631.800048828125</ele>
        <time>2026-06-19T08:19:30.000Z</time>
        <extensions>
          <ns3:TrackPointExtension>
            <ns3:atemp>23.0</ns3:atemp>
          </ns3:TrackPointExtension>
        </extensions>
      </trkpt>
      <trkpt lat="42.5122516416013240814208984375" lon="19.9836869537830352783203125">
        <ele>1631.800048828125</ele>
        <time>2026-06-19T08:19:31.000Z</time>
        <extensions>
          <ns3:TrackPointExtension>
            <ns3:atemp>23.0</ns3:atemp>
          </ns3:TrackPointExtension>
        </extensions>
      </trkpt>
      <trkpt lat="42.5122516416013240814208984375" lon="19.9836869537830352783203125">
        <ele>1631.800048828125</ele>
        <time>2026-06-19T08:19:32.000Z</time>
        <extensions>
          <ns3:TrackPointExtension>
            <ns3:atemp>23.0</ns3:atemp>
          </ns3:TrackPointExtension>
        </extensions>
      </trkpt>
      <trkpt lat="42.5122516416013240814208984375" lon="19.9836869537830352783203125">
        <ele>1631.800048828125</ele>
        <time>2026-06-19T08:19:33.000Z</time>
        <extensions>
          <ns3:TrackPointExtension>
            <ns3:atemp>23.0</ns3:atemp>
          </ns3:TrackPointExtension>
        </extensions>
      </trkpt>
      <trkpt lat="42.5122516416013240814208984375" lon="19.9836869537830352783203125">
        <ele>1631.800048828125</ele>
        <time>2026-06-19T08:19:34.000Z</time>
        <extensions>
          <ns3:TrackPointExtension>
            <ns3:atemp>23.0</ns3:atemp>
          </ns3:TrackPointExtension>
        </extensions>
      </trkpt>
      <trkpt lat="42.5122516416013240814208984375" lon="19.9836869537830352783203125">
        <ele>1631.800048828125</ele>
        <time>2026-06-19T08:19:35.000Z</time>
        <extensions>
          <ns3:TrackPointExtension>
            <ns3:atemp>23.0</ns3:atemp>
          </ns3:TrackPointExtension>
        </extensions>
      </trkpt>
      <trkpt lat="42.5122516416013240814208984375" lon="19.9836869537830352783203125">
        <ele>1631.800048828125</ele>
        <time>2026-06-19T08:19:36.000Z</time>
        <extensions>
          <ns3:TrackPointExtension>
            <ns3:atemp>23.0</ns3:atemp>
          </ns3:TrackPointExtension>
        </extensions>
      </trkpt>
      <trkpt lat="42.5122516416013240814208984375" lon="19.9836869537830352783203125">
        <ele>1631.800048828125</ele>
        <time>2026-06-19T08:19:37.000Z</time>
        <extensions>
          <ns3:TrackPointExtension>
            <ns3:atemp>23.0</ns3:atemp>
          </ns3:TrackPointExtension>
        </extensions>
      </trkpt>
      <trkpt lat="42.5122516416013240814208984375" lon="19.9836869537830352783203125">
        <ele>1631.800048828125</ele>
        <time>2026-06-19T08:19:38.000Z</time>
        <extensions>
          <ns3:TrackPointExtension>
            <ns3:atemp>23.0</ns3:atemp>
          </ns3:TrackPointExtension>
        </extensions>
      </trkpt>
      <trkpt lat="42.5122516416013240814208984375" lon="19.9836869537830352783203125">
        <ele>1631.800048828125</ele>
        <time>2026-06-19T08:19:39.000Z</time>
        <extensions>
          <ns3:TrackPointExtension>
            <ns3:atemp>23.0</ns3:atemp>
          </ns3:TrackPointExtension>
        </extensions>
      </trkpt>
      <trkpt lat="42.5122516416013240814208984375" lon="19.9836869537830352783203125">
        <ele>1631.800048828125</ele>
        <time>2026-06-19T08:19:40.000Z</time>
        <extensions>
          <ns3:TrackPointExtension>
            <ns3:atemp>23.0</ns3:atemp>
          </ns3:TrackPointExtension>
        </extensions>
      </trkpt>
      <trkpt lat="42.5122516416013240814208984375" lon="19.9836869537830352783203125">
        <ele>1631.800048828125</ele>
        <time>2026-06-19T08:19:41.000Z</time>
        <extensions>
          <ns3:TrackPointExtension>
            <ns3:atemp>23.0</ns3:atemp>
          </ns3:TrackPointExtension>
        </extensions>
      </trkpt>
      <trkpt lat="42.5122516416013240814208984375" lon="19.9836869537830352783203125">
        <ele>1631.800048828125</ele>
        <time>2026-06-19T08:19:42.000Z</time>
        <extensions>
          <ns3:TrackPointExtension>
            <ns3:atemp>23.0</ns3:atemp>
          </ns3:TrackPointExtension>
        </extensions>
      </trkpt>
      <trkpt lat="42.5122516416013240814208984375" lon="19.9836869537830352783203125">
        <ele>1631.800048828125</ele>
        <time>2026-06-19T08:19:43.000Z</time>
        <extensions>
          <ns3:TrackPointExtension>
            <ns3:atemp>23.0</ns3:atemp>
          </ns3:TrackPointExtension>
        </extensions>
      </trkpt>
      <trkpt lat="42.5122516416013240814208984375" lon="19.9836869537830352783203125">
        <ele>1631.800048828125</ele>
        <time>2026-06-19T08:19:44.000Z</time>
        <extensions>
          <ns3:TrackPointExtension>
            <ns3:atemp>23.0</ns3:atemp>
          </ns3:TrackPointExtension>
        </extensions>
      </trkpt>
      <trkpt lat="42.5122516416013240814208984375" lon="19.9836869537830352783203125">
        <ele>1631.800048828125</ele>
        <time>2026-06-19T08:19:45.000Z</time>
        <extensions>
          <ns3:TrackPointExtension>
            <ns3:atemp>23.0</ns3:atemp>
          </ns3:TrackPointExtension>
        </extensions>
      </trkpt>
      <trkpt lat="42.5122516416013240814208984375" lon="19.9836869537830352783203125">
        <ele>1631.800048828125</ele>
        <time>2026-06-19T08:19:46.000Z</time>
        <extensions>
          <ns3:TrackPointExtension>
            <ns3:atemp>23.0</ns3:atemp>
          </ns3:TrackPointExtension>
        </extensions>
      </trkpt>
      <trkpt lat="42.5122516416013240814208984375" lon="19.9836869537830352783203125">
        <ele>1631.800048828125</ele>
        <time>2026-06-19T08:19:47.000Z</time>
        <extensions>
          <ns3:TrackPointExtension>
            <ns3:atemp>23.0</ns3:atemp>
          </ns3:TrackPointExtension>
        </extensions>
      </trkpt>
      <trkpt lat="42.5122516416013240814208984375" lon="19.9836869537830352783203125">
        <ele>1631.800048828125</ele>
        <time>2026-06-19T08:19:48.000Z</time>
        <extensions>
          <ns3:TrackPointExtension>
            <ns3:atemp>23.0</ns3:atemp>
          </ns3:TrackPointExtension>
        </extensions>
      </trkpt>
      <trkpt lat="42.5122516416013240814208984375" lon="19.9836869537830352783203125">
        <ele>1631.800048828125</ele>
        <time>2026-06-19T08:19:49.000Z</time>
        <extensions>
          <ns3:TrackPointExtension>
            <ns3:atemp>23.0</ns3:atemp>
          </ns3:TrackPointExtension>
        </extensions>
      </trkpt>
      <trkpt lat="42.5122516416013240814208984375" lon="19.9836869537830352783203125">
        <ele>1631.800048828125</ele>
        <time>2026-06-19T08:19:50.000Z</time>
        <extensions>
          <ns3:TrackPointExtension>
            <ns3:atemp>23.0</ns3:atemp>
          </ns3:TrackPointExtension>
        </extensions>
      </trkpt>
      <trkpt lat="42.5122516416013240814208984375" lon="19.9836869537830352783203125">
        <ele>1631.800048828125</ele>
        <time>2026-06-19T08:19:51.000Z</time>
        <extensions>
          <ns3:TrackPointExtension>
            <ns3:atemp>23.0</ns3:atemp>
          </ns3:TrackPointExtension>
        </extensions>
      </trkpt>
      <trkpt lat="42.5122516416013240814208984375" lon="19.9836869537830352783203125">
        <ele>1631.800048828125</ele>
        <time>2026-06-19T08:19:52.000Z</time>
        <extensions>
          <ns3:TrackPointExtension>
            <ns3:atemp>23.0</ns3:atemp>
          </ns3:TrackPointExtension>
        </extensions>
      </trkpt>
      <trkpt lat="42.5122516416013240814208984375" lon="19.9836869537830352783203125">
        <ele>1631.800048828125</ele>
        <time>2026-06-19T08:19:53.000Z</time>
        <extensions>
          <ns3:TrackPointExtension>
            <ns3:atemp>23.0</ns3:atemp>
          </ns3:TrackPointExtension>
        </extensions>
      </trkpt>
      <trkpt lat="42.5122516416013240814208984375" lon="19.9836869537830352783203125">
        <ele>1631.800048828125</ele>
        <time>2026-06-19T08:19:54.000Z</time>
        <extensions>
          <ns3:TrackPointExtension>
            <ns3:atemp>23.0</ns3:atemp>
          </ns3:TrackPointExtension>
        </extensions>
      </trkpt>
      <trkpt lat="42.5122516416013240814208984375" lon="19.9836869537830352783203125">
        <ele>1631.800048828125</ele>
        <time>2026-06-19T08:19:55.000Z</time>
        <extensions>
          <ns3:TrackPointExtension>
            <ns3:atemp>23.0</ns3:atemp>
          </ns3:TrackPointExtension>
        </extensions>
      </trkpt>
      <trkpt lat="42.5122516416013240814208984375" lon="19.9836869537830352783203125">
        <ele>1631.800048828125</ele>
        <time>2026-06-19T08:19:56.000Z</time>
        <extensions>
          <ns3:TrackPointExtension>
            <ns3:atemp>23.0</ns3:atemp>
          </ns3:TrackPointExtension>
        </extensions>
      </trkpt>
      <trkpt lat="42.5122516416013240814208984375" lon="19.9836869537830352783203125">
        <ele>1631.800048828125</ele>
        <time>2026-06-19T08:19:57.000Z</time>
        <extensions>
          <ns3:TrackPointExtension>
            <ns3:atemp>23.0</ns3:atemp>
          </ns3:TrackPointExtension>
        </extensions>
      </trkpt>
      <trkpt lat="42.5122516416013240814208984375" lon="19.9836869537830352783203125">
        <ele>1631.800048828125</ele>
        <time>2026-06-19T08:19:58.000Z</time>
        <extensions>
          <ns3:TrackPointExtension>
            <ns3:atemp>23.0</ns3:atemp>
          </ns3:TrackPointExtension>
        </extensions>
      </trkpt>
      <trkpt lat="42.5122516416013240814208984375" lon="19.9836869537830352783203125">
        <ele>1631.800048828125</ele>
        <time>2026-06-19T08:19:59.000Z</time>
        <extensions>
          <ns3:TrackPointExtension>
            <ns3:atemp>23.0</ns3:atemp>
          </ns3:TrackPointExtension>
        </extensions>
      </trkpt>
      <trkpt lat="42.5122516416013240814208984375" lon="19.9836869537830352783203125">
        <ele>1631.800048828125</ele>
        <time>2026-06-19T08:20:00.000Z</time>
        <extensions>
          <ns3:TrackPointExtension>
            <ns3:atemp>23.0</ns3:atemp>
          </ns3:TrackPointExtension>
        </extensions>
      </trkpt>
      <trkpt lat="42.5122516416013240814208984375" lon="19.9836869537830352783203125">
        <ele>1631.800048828125</ele>
        <time>2026-06-19T08:20:01.000Z</time>
        <extensions>
          <ns3:TrackPointExtension>
            <ns3:atemp>23.0</ns3:atemp>
          </ns3:TrackPointExtension>
        </extensions>
      </trkpt>
      <trkpt lat="42.5122516416013240814208984375" lon="19.9836869537830352783203125">
        <ele>1631.800048828125</ele>
        <time>2026-06-19T08:20:02.000Z</time>
        <extensions>
          <ns3:TrackPointExtension>
            <ns3:atemp>23.0</ns3:atemp>
          </ns3:TrackPointExtension>
        </extensions>
      </trkpt>
      <trkpt lat="42.5122516416013240814208984375" lon="19.9836869537830352783203125">
        <ele>1631.800048828125</ele>
        <time>2026-06-19T08:20:03.000Z</time>
        <extensions>
          <ns3:TrackPointExtension>
            <ns3:atemp>23.0</ns3:atemp>
          </ns3:TrackPointExtension>
        </extensions>
      </trkpt>
      <trkpt lat="42.5122516416013240814208984375" lon="19.9836869537830352783203125">
        <ele>1631.800048828125</ele>
        <time>2026-06-19T08:20:04.000Z</time>
        <extensions>
          <ns3:TrackPointExtension>
            <ns3:atemp>23.0</ns3:atemp>
          </ns3:TrackPointExtension>
        </extensions>
      </trkpt>
      <trkpt lat="42.5122516416013240814208984375" lon="19.9836869537830352783203125">
        <ele>1631.800048828125</ele>
        <time>2026-06-19T08:20:05.000Z</time>
        <extensions>
          <ns3:TrackPointExtension>
            <ns3:atemp>23.0</ns3:atemp>
          </ns3:TrackPointExtension>
        </extensions>
      </trkpt>
      <trkpt lat="42.5122516416013240814208984375" lon="19.9836869537830352783203125">
        <ele>1631.800048828125</ele>
        <time>2026-06-19T08:20:06.000Z</time>
        <extensions>
          <ns3:TrackPointExtension>
            <ns3:atemp>23.0</ns3:atemp>
          </ns3:TrackPointExtension>
        </extensions>
      </trkpt>
      <trkpt lat="42.5122516416013240814208984375" lon="19.9836869537830352783203125">
        <ele>1631.800048828125</ele>
        <time>2026-06-19T08:20:07.000Z</time>
        <extensions>
          <ns3:TrackPointExtension>
            <ns3:atemp>23.0</ns3:atemp>
          </ns3:TrackPointExtension>
        </extensions>
      </trkpt>
      <trkpt lat="42.5122516416013240814208984375" lon="19.9836869537830352783203125">
        <ele>1631.800048828125</ele>
        <time>2026-06-19T08:20:08.000Z</time>
        <extensions>
          <ns3:TrackPointExtension>
            <ns3:atemp>23.0</ns3:atemp>
          </ns3:TrackPointExtension>
        </extensions>
      </trkpt>
      <trkpt lat="42.5122516416013240814208984375" lon="19.9836869537830352783203125">
        <ele>1631.800048828125</ele>
        <time>2026-06-19T08:20:09.000Z</time>
        <extensions>
          <ns3:TrackPointExtension>
            <ns3:atemp>23.0</ns3:atemp>
          </ns3:TrackPointExtension>
        </extensions>
      </trkpt>
      <trkpt lat="42.5122516416013240814208984375" lon="19.9836869537830352783203125">
        <ele>1631.800048828125</ele>
        <time>2026-06-19T08:20:10.000Z</time>
        <extensions>
          <ns3:TrackPointExtension>
            <ns3:atemp>23.0</ns3:atemp>
          </ns3:TrackPointExtension>
        </extensions>
      </trkpt>
      <trkpt lat="42.5122516416013240814208984375" lon="19.9836869537830352783203125">
        <ele>1631.800048828125</ele>
        <time>2026-06-19T08:20:11.000Z</time>
        <extensions>
          <ns3:TrackPointExtension>
            <ns3:atemp>23.0</ns3:atemp>
          </ns3:TrackPointExtension>
        </extensions>
      </trkpt>
      <trkpt lat="42.5122516416013240814208984375" lon="19.9836869537830352783203125">
        <ele>1631.800048828125</ele>
        <time>2026-06-19T08:20:12.000Z</time>
        <extensions>
          <ns3:TrackPointExtension>
            <ns3:atemp>23.0</ns3:atemp>
          </ns3:TrackPointExtension>
        </extensions>
      </trkpt>
      <trkpt lat="42.5122516416013240814208984375" lon="19.9836869537830352783203125">
        <ele>1631.800048828125</ele>
        <time>2026-06-19T08:20:13.000Z</time>
        <extensions>
          <ns3:TrackPointExtension>
            <ns3:atemp>23.0</ns3:atemp>
          </ns3:TrackPointExtension>
        </extensions>
      </trkpt>
      <trkpt lat="42.5122516416013240814208984375" lon="19.9836869537830352783203125">
        <ele>1631.800048828125</ele>
        <time>2026-06-19T08:20:14.000Z</time>
        <extensions>
          <ns3:TrackPointExtension>
            <ns3:atemp>23.0</ns3:atemp>
          </ns3:TrackPointExtension>
        </extensions>
      </trkpt>
      <trkpt lat="42.5122516416013240814208984375" lon="19.9836869537830352783203125">
        <ele>1631.800048828125</ele>
        <time>2026-06-19T08:20:15.000Z</time>
        <extensions>
          <ns3:TrackPointExtension>
            <ns3:atemp>23.0</ns3:atemp>
          </ns3:TrackPointExtension>
        </extensions>
      </trkpt>
      <trkpt lat="42.5122516416013240814208984375" lon="19.9836869537830352783203125">
        <ele>1631.800048828125</ele>
        <time>2026-06-19T08:20:16.000Z</time>
        <extensions>
          <ns3:TrackPointExtension>
            <ns3:atemp>23.0</ns3:atemp>
          </ns3:TrackPointExtension>
        </extensions>
      </trkpt>
      <trkpt lat="42.5122516416013240814208984375" lon="19.9836869537830352783203125">
        <ele>1631.800048828125</ele>
        <time>2026-06-19T08:20:17.000Z</time>
        <extensions>
          <ns3:TrackPointExtension>
            <ns3:atemp>23.0</ns3:atemp>
          </ns3:TrackPointExtension>
        </extensions>
      </trkpt>
      <trkpt lat="42.5122516416013240814208984375" lon="19.9836869537830352783203125">
        <ele>1631.800048828125</ele>
        <time>2026-06-19T08:20:18.000Z</time>
        <extensions>
          <ns3:TrackPointExtension>
            <ns3:atemp>23.0</ns3:atemp>
          </ns3:TrackPointExtension>
        </extensions>
      </trkpt>
      <trkpt lat="42.5122516416013240814208984375" lon="19.9836869537830352783203125">
        <ele>1631.800048828125</ele>
        <time>2026-06-19T08:20:19.000Z</time>
        <extensions>
          <ns3:TrackPointExtension>
            <ns3:atemp>23.0</ns3:atemp>
          </ns3:TrackPointExtension>
        </extensions>
      </trkpt>
      <trkpt lat="42.5122516416013240814208984375" lon="19.9836869537830352783203125">
        <ele>1631.800048828125</ele>
        <time>2026-06-19T08:20:20.000Z</time>
        <extensions>
          <ns3:TrackPointExtension>
            <ns3:atemp>23.0</ns3:atemp>
          </ns3:TrackPointExtension>
        </extensions>
      </trkpt>
      <trkpt lat="42.5122516416013240814208984375" lon="19.9836869537830352783203125">
        <ele>1631.800048828125</ele>
        <time>2026-06-19T08:20:21.000Z</time>
        <extensions>
          <ns3:TrackPointExtension>
            <ns3:atemp>23.0</ns3:atemp>
          </ns3:TrackPointExtension>
        </extensions>
      </trkpt>
      <trkpt lat="42.5122516416013240814208984375" lon="19.9836869537830352783203125">
        <ele>1631.800048828125</ele>
        <time>2026-06-19T08:20:22.000Z</time>
        <extensions>
          <ns3:TrackPointExtension>
            <ns3:atemp>23.0</ns3:atemp>
          </ns3:TrackPointExtension>
        </extensions>
      </trkpt>
      <trkpt lat="42.5122516416013240814208984375" lon="19.9836869537830352783203125">
        <ele>1631.800048828125</ele>
        <time>2026-06-19T08:20:23.000Z</time>
        <extensions>
          <ns3:TrackPointExtension>
            <ns3:atemp>23.0</ns3:atemp>
          </ns3:TrackPointExtension>
        </extensions>
      </trkpt>
      <trkpt lat="42.5122516416013240814208984375" lon="19.9836869537830352783203125">
        <ele>1631.800048828125</ele>
        <time>2026-06-19T08:20:24.000Z</time>
        <extensions>
          <ns3:TrackPointExtension>
            <ns3:atemp>23.0</ns3:atemp>
          </ns3:TrackPointExtension>
        </extensions>
      </trkpt>
      <trkpt lat="42.5122516416013240814208984375" lon="19.9836869537830352783203125">
        <ele>1631.800048828125</ele>
        <time>2026-06-19T08:20:25.000Z</time>
        <extensions>
          <ns3:TrackPointExtension>
            <ns3:atemp>23.0</ns3:atemp>
          </ns3:TrackPointExtension>
        </extensions>
      </trkpt>
      <trkpt lat="42.5122516416013240814208984375" lon="19.9836869537830352783203125">
        <ele>1631.800048828125</ele>
        <time>2026-06-19T08:20:26.000Z</time>
        <extensions>
          <ns3:TrackPointExtension>
            <ns3:atemp>23.0</ns3:atemp>
          </ns3:TrackPointExtension>
        </extensions>
      </trkpt>
      <trkpt lat="42.5122516416013240814208984375" lon="19.9836869537830352783203125">
        <ele>1631.800048828125</ele>
        <time>2026-06-19T08:20:27.000Z</time>
        <extensions>
          <ns3:TrackPointExtension>
            <ns3:atemp>23.0</ns3:atemp>
          </ns3:TrackPointExtension>
        </extensions>
      </trkpt>
      <trkpt lat="42.5122516416013240814208984375" lon="19.9836869537830352783203125">
        <ele>1631.800048828125</ele>
        <time>2026-06-19T08:20:28.000Z</time>
        <extensions>
          <ns3:TrackPointExtension>
            <ns3:atemp>23.0</ns3:atemp>
          </ns3:TrackPointExtension>
        </extensions>
      </trkpt>
      <trkpt lat="42.5122516416013240814208984375" lon="19.9836869537830352783203125">
        <ele>1631.800048828125</ele>
        <time>2026-06-19T08:20:29.000Z</time>
        <extensions>
          <ns3:TrackPointExtension>
            <ns3:atemp>23.0</ns3:atemp>
          </ns3:TrackPointExtension>
        </extensions>
      </trkpt>
      <trkpt lat="42.5122516416013240814208984375" lon="19.9836869537830352783203125">
        <ele>1631.800048828125</ele>
        <time>2026-06-19T08:20:30.000Z</time>
        <extensions>
          <ns3:TrackPointExtension>
            <ns3:atemp>23.0</ns3:atemp>
          </ns3:TrackPointExtension>
        </extensions>
      </trkpt>
      <trkpt lat="42.5122516416013240814208984375" lon="19.9836869537830352783203125">
        <ele>1631.800048828125</ele>
        <time>2026-06-19T08:20:31.000Z</time>
        <extensions>
          <ns3:TrackPointExtension>
            <ns3:atemp>23.0</ns3:atemp>
          </ns3:TrackPointExtension>
        </extensions>
      </trkpt>
      <trkpt lat="42.5122516416013240814208984375" lon="19.9836869537830352783203125">
        <ele>1631.800048828125</ele>
        <time>2026-06-19T08:20:32.000Z</time>
        <extensions>
          <ns3:TrackPointExtension>
            <ns3:atemp>23.0</ns3:atemp>
          </ns3:TrackPointExtension>
        </extensions>
      </trkpt>
      <trkpt lat="42.5122516416013240814208984375" lon="19.9836869537830352783203125">
        <ele>1631.800048828125</ele>
        <time>2026-06-19T08:20:33.000Z</time>
        <extensions>
          <ns3:TrackPointExtension>
            <ns3:atemp>23.0</ns3:atemp>
          </ns3:TrackPointExtension>
        </extensions>
      </trkpt>
      <trkpt lat="42.5122516416013240814208984375" lon="19.9836869537830352783203125">
        <ele>1631.800048828125</ele>
        <time>2026-06-19T08:20:34.000Z</time>
        <extensions>
          <ns3:TrackPointExtension>
            <ns3:atemp>23.0</ns3:atemp>
          </ns3:TrackPointExtension>
        </extensions>
      </trkpt>
      <trkpt lat="42.5122516416013240814208984375" lon="19.9836869537830352783203125">
        <ele>1631.800048828125</ele>
        <time>2026-06-19T08:20:35.000Z</time>
        <extensions>
          <ns3:TrackPointExtension>
            <ns3:atemp>23.0</ns3:atemp>
          </ns3:TrackPointExtension>
        </extensions>
      </trkpt>
      <trkpt lat="42.5122516416013240814208984375" lon="19.9836869537830352783203125">
        <ele>1631.800048828125</ele>
        <time>2026-06-19T08:20:36.000Z</time>
        <extensions>
          <ns3:TrackPointExtension>
            <ns3:atemp>23.0</ns3:atemp>
          </ns3:TrackPointExtension>
        </extensions>
      </trkpt>
      <trkpt lat="42.5122516416013240814208984375" lon="19.9836869537830352783203125">
        <ele>1631.800048828125</ele>
        <time>2026-06-19T08:20:37.000Z</time>
        <extensions>
          <ns3:TrackPointExtension>
            <ns3:atemp>23.0</ns3:atemp>
          </ns3:TrackPointExtension>
        </extensions>
      </trkpt>
      <trkpt lat="42.5122516416013240814208984375" lon="19.9836869537830352783203125">
        <ele>1631.800048828125</ele>
        <time>2026-06-19T08:20:38.000Z</time>
        <extensions>
          <ns3:TrackPointExtension>
            <ns3:atemp>23.0</ns3:atemp>
          </ns3:TrackPointExtension>
        </extensions>
      </trkpt>
      <trkpt lat="42.5122516416013240814208984375" lon="19.9836869537830352783203125">
        <ele>1631.800048828125</ele>
        <time>2026-06-19T08:20:39.000Z</time>
        <extensions>
          <ns3:TrackPointExtension>
            <ns3:atemp>23.0</ns3:atemp>
          </ns3:TrackPointExtension>
        </extensions>
      </trkpt>
      <trkpt lat="42.5122516416013240814208984375" lon="19.9836869537830352783203125">
        <ele>1631.800048828125</ele>
        <time>2026-06-19T08:20:40.000Z</time>
        <extensions>
          <ns3:TrackPointExtension>
            <ns3:atemp>23.0</ns3:atemp>
          </ns3:TrackPointExtension>
        </extensions>
      </trkpt>
      <trkpt lat="42.5122516416013240814208984375" lon="19.9836869537830352783203125">
        <ele>1631.800048828125</ele>
        <time>2026-06-19T08:20:41.000Z</time>
        <extensions>
          <ns3:TrackPointExtension>
            <ns3:atemp>23.0</ns3:atemp>
          </ns3:TrackPointExtension>
        </extensions>
      </trkpt>
      <trkpt lat="42.5122516416013240814208984375" lon="19.9836869537830352783203125">
        <ele>1631.800048828125</ele>
        <time>2026-06-19T08:20:42.000Z</time>
        <extensions>
          <ns3:TrackPointExtension>
            <ns3:atemp>23.0</ns3:atemp>
          </ns3:TrackPointExtension>
        </extensions>
      </trkpt>
      <trkpt lat="42.5122516416013240814208984375" lon="19.9836869537830352783203125">
        <ele>1631.800048828125</ele>
        <time>2026-06-19T08:20:43.000Z</time>
        <extensions>
          <ns3:TrackPointExtension>
            <ns3:atemp>23.0</ns3:atemp>
          </ns3:TrackPointExtension>
        </extensions>
      </trkpt>
      <trkpt lat="42.5122516416013240814208984375" lon="19.9836869537830352783203125">
        <ele>1631.800048828125</ele>
        <time>2026-06-19T08:20:44.000Z</time>
        <extensions>
          <ns3:TrackPointExtension>
            <ns3:atemp>23.0</ns3:atemp>
          </ns3:TrackPointExtension>
        </extensions>
      </trkpt>
      <trkpt lat="42.5122516416013240814208984375" lon="19.9836869537830352783203125">
        <ele>1631.800048828125</ele>
        <time>2026-06-19T08:20:45.000Z</time>
        <extensions>
          <ns3:TrackPointExtension>
            <ns3:atemp>23.0</ns3:atemp>
          </ns3:TrackPointExtension>
        </extensions>
      </trkpt>
      <trkpt lat="42.5122516416013240814208984375" lon="19.9836869537830352783203125">
        <ele>1631.800048828125</ele>
        <time>2026-06-19T08:20:46.000Z</time>
        <extensions>
          <ns3:TrackPointExtension>
            <ns3:atemp>23.0</ns3:atemp>
          </ns3:TrackPointExtension>
        </extensions>
      </trkpt>
      <trkpt lat="42.5122516416013240814208984375" lon="19.9836869537830352783203125">
        <ele>1631.800048828125</ele>
        <time>2026-06-19T08:20:47.000Z</time>
        <extensions>
          <ns3:TrackPointExtension>
            <ns3:atemp>23.0</ns3:atemp>
          </ns3:TrackPointExtension>
        </extensions>
      </trkpt>
      <trkpt lat="42.5122516416013240814208984375" lon="19.9836869537830352783203125">
        <ele>1631.800048828125</ele>
        <time>2026-06-19T08:20:48.000Z</time>
        <extensions>
          <ns3:TrackPointExtension>
            <ns3:atemp>23.0</ns3:atemp>
          </ns3:TrackPointExtension>
        </extensions>
      </trkpt>
      <trkpt lat="42.5122516416013240814208984375" lon="19.9836869537830352783203125">
        <ele>1631.800048828125</ele>
        <time>2026-06-19T08:20:49.000Z</time>
        <extensions>
          <ns3:TrackPointExtension>
            <ns3:atemp>23.0</ns3:atemp>
          </ns3:TrackPointExtension>
        </extensions>
      </trkpt>
      <trkpt lat="42.5122516416013240814208984375" lon="19.9836869537830352783203125">
        <ele>1631.800048828125</ele>
        <time>2026-06-19T08:20:50.000Z</time>
        <extensions>
          <ns3:TrackPointExtension>
            <ns3:atemp>23.0</ns3:atemp>
          </ns3:TrackPointExtension>
        </extensions>
      </trkpt>
      <trkpt lat="42.5122516416013240814208984375" lon="19.9836869537830352783203125">
        <ele>1631.800048828125</ele>
        <time>2026-06-19T08:20:51.000Z</time>
        <extensions>
          <ns3:TrackPointExtension>
            <ns3:atemp>23.0</ns3:atemp>
          </ns3:TrackPointExtension>
        </extensions>
      </trkpt>
      <trkpt lat="42.5122516416013240814208984375" lon="19.9836869537830352783203125">
        <ele>1631.800048828125</ele>
        <time>2026-06-19T08:20:52.000Z</time>
        <extensions>
          <ns3:TrackPointExtension>
            <ns3:atemp>23.0</ns3:atemp>
          </ns3:TrackPointExtension>
        </extensions>
      </trkpt>
      <trkpt lat="42.5122516416013240814208984375" lon="19.9836869537830352783203125">
        <ele>1631.800048828125</ele>
        <time>2026-06-19T08:20:53.000Z</time>
        <extensions>
          <ns3:TrackPointExtension>
            <ns3:atemp>23.0</ns3:atemp>
          </ns3:TrackPointExtension>
        </extensions>
      </trkpt>
      <trkpt lat="42.5122516416013240814208984375" lon="19.9836869537830352783203125">
        <ele>1631.800048828125</ele>
        <time>2026-06-19T08:20:54.000Z</time>
        <extensions>
          <ns3:TrackPointExtension>
            <ns3:atemp>23.0</ns3:atemp>
          </ns3:TrackPointExtension>
        </extensions>
      </trkpt>
      <trkpt lat="42.5122516416013240814208984375" lon="19.9836869537830352783203125">
        <ele>1631.800048828125</ele>
        <time>2026-06-19T08:20:55.000Z</time>
        <extensions>
          <ns3:TrackPointExtension>
            <ns3:atemp>23.0</ns3:atemp>
          </ns3:TrackPointExtension>
        </extensions>
      </trkpt>
      <trkpt lat="42.5122516416013240814208984375" lon="19.9836869537830352783203125">
        <ele>1631.800048828125</ele>
        <time>2026-06-19T08:20:56.000Z</time>
        <extensions>
          <ns3:TrackPointExtension>
            <ns3:atemp>23.0</ns3:atemp>
          </ns3:TrackPointExtension>
        </extensions>
      </trkpt>
      <trkpt lat="42.5122516416013240814208984375" lon="19.9836869537830352783203125">
        <ele>1631.800048828125</ele>
        <time>2026-06-19T08:20:57.000Z</time>
        <extensions>
          <ns3:TrackPointExtension>
            <ns3:atemp>23.0</ns3:atemp>
          </ns3:TrackPointExtension>
        </extensions>
      </trkpt>
      <trkpt lat="42.5122516416013240814208984375" lon="19.9836869537830352783203125">
        <ele>1631.800048828125</ele>
        <time>2026-06-19T08:20:58.000Z</time>
        <extensions>
          <ns3:TrackPointExtension>
            <ns3:atemp>23.0</ns3:atemp>
          </ns3:TrackPointExtension>
        </extensions>
      </trkpt>
      <trkpt lat="42.5122516416013240814208984375" lon="19.9836869537830352783203125">
        <ele>1631.800048828125</ele>
        <time>2026-06-19T08:20:59.000Z</time>
        <extensions>
          <ns3:TrackPointExtension>
            <ns3:atemp>23.0</ns3:atemp>
          </ns3:TrackPointExtension>
        </extensions>
      </trkpt>
      <trkpt lat="42.5122516416013240814208984375" lon="19.9836869537830352783203125">
        <ele>1631.800048828125</ele>
        <time>2026-06-19T08:21:00.000Z</time>
        <extensions>
          <ns3:TrackPointExtension>
            <ns3:atemp>23.0</ns3:atemp>
          </ns3:TrackPointExtension>
        </extensions>
      </trkpt>
      <trkpt lat="42.5122516416013240814208984375" lon="19.9836869537830352783203125">
        <ele>1631.800048828125</ele>
        <time>2026-06-19T08:21:01.000Z</time>
        <extensions>
          <ns3:TrackPointExtension>
            <ns3:atemp>23.0</ns3:atemp>
          </ns3:TrackPointExtension>
        </extensions>
      </trkpt>
      <trkpt lat="42.5122516416013240814208984375" lon="19.9836869537830352783203125">
        <ele>1631.800048828125</ele>
        <time>2026-06-19T08:21:02.000Z</time>
        <extensions>
          <ns3:TrackPointExtension>
            <ns3:atemp>23.0</ns3:atemp>
          </ns3:TrackPointExtension>
        </extensions>
      </trkpt>
      <trkpt lat="42.5122516416013240814208984375" lon="19.9836869537830352783203125">
        <ele>1631.800048828125</ele>
        <time>2026-06-19T08:21:03.000Z</time>
        <extensions>
          <ns3:TrackPointExtension>
            <ns3:atemp>23.0</ns3:atemp>
          </ns3:TrackPointExtension>
        </extensions>
      </trkpt>
      <trkpt lat="42.5122516416013240814208984375" lon="19.9836869537830352783203125">
        <ele>1631.800048828125</ele>
        <time>2026-06-19T08:21:04.000Z</time>
        <extensions>
          <ns3:TrackPointExtension>
            <ns3:atemp>23.0</ns3:atemp>
          </ns3:TrackPointExtension>
        </extensions>
      </trkpt>
      <trkpt lat="42.5122516416013240814208984375" lon="19.9836869537830352783203125">
        <ele>1631.800048828125</ele>
        <time>2026-06-19T08:21:05.000Z</time>
        <extensions>
          <ns3:TrackPointExtension>
            <ns3:atemp>23.0</ns3:atemp>
          </ns3:TrackPointExtension>
        </extensions>
      </trkpt>
      <trkpt lat="42.5122516416013240814208984375" lon="19.9836869537830352783203125">
        <ele>1631.800048828125</ele>
        <time>2026-06-19T08:21:06.000Z</time>
        <extensions>
          <ns3:TrackPointExtension>
            <ns3:atemp>23.0</ns3:atemp>
          </ns3:TrackPointExtension>
        </extensions>
      </trkpt>
      <trkpt lat="42.5122516416013240814208984375" lon="19.9836869537830352783203125">
        <ele>1631.800048828125</ele>
        <time>2026-06-19T08:21:07.000Z</time>
        <extensions>
          <ns3:TrackPointExtension>
            <ns3:atemp>23.0</ns3:atemp>
          </ns3:TrackPointExtension>
        </extensions>
      </trkpt>
      <trkpt lat="42.5122516416013240814208984375" lon="19.9836869537830352783203125">
        <ele>1631.800048828125</ele>
        <time>2026-06-19T08:21:08.000Z</time>
        <extensions>
          <ns3:TrackPointExtension>
            <ns3:atemp>23.0</ns3:atemp>
          </ns3:TrackPointExtension>
        </extensions>
      </trkpt>
      <trkpt lat="42.5122516416013240814208984375" lon="19.9836869537830352783203125">
        <ele>1631.800048828125</ele>
        <time>2026-06-19T08:21:09.000Z</time>
        <extensions>
          <ns3:TrackPointExtension>
            <ns3:atemp>23.0</ns3:atemp>
          </ns3:TrackPointExtension>
        </extensions>
      </trkpt>
      <trkpt lat="42.5122516416013240814208984375" lon="19.9836869537830352783203125">
        <ele>1631.800048828125</ele>
        <time>2026-06-19T08:21:10.000Z</time>
        <extensions>
          <ns3:TrackPointExtension>
            <ns3:atemp>23.0</ns3:atemp>
          </ns3:TrackPointExtension>
        </extensions>
      </trkpt>
      <trkpt lat="42.5122516416013240814208984375" lon="19.9836869537830352783203125">
        <ele>1631.800048828125</ele>
        <time>2026-06-19T08:21:11.000Z</time>
        <extensions>
          <ns3:TrackPointExtension>
            <ns3:atemp>23.0</ns3:atemp>
          </ns3:TrackPointExtension>
        </extensions>
      </trkpt>
      <trkpt lat="42.5122516416013240814208984375" lon="19.9836869537830352783203125">
        <ele>1631.800048828125</ele>
        <time>2026-06-19T08:21:12.000Z</time>
        <extensions>
          <ns3:TrackPointExtension>
            <ns3:atemp>23.0</ns3:atemp>
          </ns3:TrackPointExtension>
        </extensions>
      </trkpt>
      <trkpt lat="42.5122516416013240814208984375" lon="19.9836869537830352783203125">
        <ele>1631.800048828125</ele>
        <time>2026-06-19T08:21:13.000Z</time>
        <extensions>
          <ns3:TrackPointExtension>
            <ns3:atemp>23.0</ns3:atemp>
          </ns3:TrackPointExtension>
        </extensions>
      </trkpt>
      <trkpt lat="42.5122516416013240814208984375" lon="19.9836869537830352783203125">
        <ele>1631.800048828125</ele>
        <time>2026-06-19T08:21:14.000Z</time>
        <extensions>
          <ns3:TrackPointExtension>
            <ns3:atemp>23.0</ns3:atemp>
          </ns3:TrackPointExtension>
        </extensions>
      </trkpt>
      <trkpt lat="42.5122516416013240814208984375" lon="19.9836869537830352783203125">
        <ele>1631.800048828125</ele>
        <time>2026-06-19T08:21:15.000Z</time>
        <extensions>
          <ns3:TrackPointExtension>
            <ns3:atemp>23.0</ns3:atemp>
          </ns3:TrackPointExtension>
        </extensions>
      </trkpt>
      <trkpt lat="42.5122516416013240814208984375" lon="19.9836869537830352783203125">
        <ele>1631.800048828125</ele>
        <time>2026-06-19T08:21:16.000Z</time>
        <extensions>
          <ns3:TrackPointExtension>
            <ns3:atemp>23.0</ns3:atemp>
          </ns3:TrackPointExtension>
        </extensions>
      </trkpt>
      <trkpt lat="42.5122516416013240814208984375" lon="19.9836869537830352783203125">
        <ele>1631.800048828125</ele>
        <time>2026-06-19T08:21:17.000Z</time>
        <extensions>
          <ns3:TrackPointExtension>
            <ns3:atemp>23.0</ns3:atemp>
          </ns3:TrackPointExtension>
        </extensions>
      </trkpt>
      <trkpt lat="42.51224837265908718109130859375" lon="19.98369173146784305572509765625">
        <ele>1631.800048828125</ele>
        <time>2026-06-19T08:21:18.000Z</time>
        <extensions>
          <ns3:TrackPointExtension>
            <ns3:atemp>23.0</ns3:atemp>
          </ns3:TrackPointExtension>
        </extensions>
      </trkpt>
      <trkpt lat="42.51224510371685028076171875" lon="19.9836911447346210479736328125">
        <ele>1631.800048828125</ele>
        <time>2026-06-19T08:21:19.000Z</time>
        <extensions>
          <ns3:TrackPointExtension>
            <ns3:atemp>23.0</ns3:atemp>
          </ns3:TrackPointExtension>
        </extensions>
      </trkpt>
      <trkpt lat="42.5122516416013240814208984375" lon="19.9836869537830352783203125">
        <ele>1631.800048828125</ele>
        <time>2026-06-19T08:21:20.000Z</time>
        <extensions>
          <ns3:TrackPointExtension>
            <ns3:atemp>23.0</ns3:atemp>
          </ns3:TrackPointExtension>
        </extensions>
      </trkpt>
      <trkpt lat="42.5122516416013240814208984375" lon="19.9836869537830352783203125">
        <ele>1631.800048828125</ele>
        <time>2026-06-19T08:21:21.000Z</time>
        <extensions>
          <ns3:TrackPointExtension>
            <ns3:atemp>23.0</ns3:atemp>
          </ns3:TrackPointExtension>
        </extensions>
      </trkpt>
      <trkpt lat="42.5122516416013240814208984375" lon="19.9836869537830352783203125">
        <ele>1631.800048828125</ele>
        <time>2026-06-19T08:21:22.000Z</time>
        <extensions>
          <ns3:TrackPointExtension>
            <ns3:atemp>23.0</ns3:atemp>
          </ns3:TrackPointExtension>
        </extensions>
      </trkpt>
      <trkpt lat="42.5122516416013240814208984375" lon="19.9836869537830352783203125">
        <ele>1631.800048828125</ele>
        <time>2026-06-19T08:21:23.000Z</time>
        <extensions>
          <ns3:TrackPointExtension>
            <ns3:atemp>23.0</ns3:atemp>
          </ns3:TrackPointExtension>
        </extensions>
      </trkpt>
      <trkpt lat="42.5122516416013240814208984375" lon="19.9836869537830352783203125">
        <ele>1631.800048828125</ele>
        <time>2026-06-19T08:21:24.000Z</time>
        <extensions>
          <ns3:TrackPointExtension>
            <ns3:atemp>23.0</ns3:atemp>
          </ns3:TrackPointExtension>
        </extensions>
      </trkpt>
      <trkpt lat="42.5122516416013240814208984375" lon="19.9836869537830352783203125">
        <ele>1631.800048828125</ele>
        <time>2026-06-19T08:21:25.000Z</time>
        <extensions>
          <ns3:TrackPointExtension>
            <ns3:atemp>23.0</ns3:atemp>
          </ns3:TrackPointExtension>
        </extensions>
      </trkpt>
      <trkpt lat="42.5122516416013240814208984375" lon="19.9836869537830352783203125">
        <ele>1631.800048828125</ele>
        <time>2026-06-19T08:21:26.000Z</time>
        <extensions>
          <ns3:TrackPointExtension>
            <ns3:atemp>23.0</ns3:atemp>
          </ns3:TrackPointExtension>
        </extensions>
      </trkpt>
      <trkpt lat="42.5122516416013240814208984375" lon="19.9836869537830352783203125">
        <ele>1631.800048828125</ele>
        <time>2026-06-19T08:21:27.000Z</time>
        <extensions>
          <ns3:TrackPointExtension>
            <ns3:atemp>23.0</ns3:atemp>
          </ns3:TrackPointExtension>
        </extensions>
      </trkpt>
      <trkpt lat="42.5122516416013240814208984375" lon="19.9836869537830352783203125">
        <ele>1631.800048828125</ele>
        <time>2026-06-19T08:21:28.000Z</time>
        <extensions>
          <ns3:TrackPointExtension>
            <ns3:atemp>23.0</ns3:atemp>
          </ns3:TrackPointExtension>
        </extensions>
      </trkpt>
      <trkpt lat="42.5122516416013240814208984375" lon="19.9836869537830352783203125">
        <ele>1631.800048828125</ele>
        <time>2026-06-19T08:21:29.000Z</time>
        <extensions>
          <ns3:TrackPointExtension>
            <ns3:atemp>23.0</ns3:atemp>
          </ns3:TrackPointExtension>
        </extensions>
      </trkpt>
      <trkpt lat="42.5122516416013240814208984375" lon="19.9836869537830352783203125">
        <ele>1631.800048828125</ele>
        <time>2026-06-19T08:21:30.000Z</time>
        <extensions>
          <ns3:TrackPointExtension>
            <ns3:atemp>23.0</ns3:atemp>
          </ns3:TrackPointExtension>
        </extensions>
      </trkpt>
      <trkpt lat="42.5122516416013240814208984375" lon="19.9836869537830352783203125">
        <ele>1631.800048828125</ele>
        <time>2026-06-19T08:21:31.000Z</time>
        <extensions>
          <ns3:TrackPointExtension>
            <ns3:atemp>23.0</ns3:atemp>
          </ns3:TrackPointExtension>
        </extensions>
      </trkpt>
      <trkpt lat="42.5122516416013240814208984375" lon="19.9836869537830352783203125">
        <ele>1631.800048828125</ele>
        <time>2026-06-19T08:21:32.000Z</time>
        <extensions>
          <ns3:TrackPointExtension>
            <ns3:atemp>23.0</ns3:atemp>
          </ns3:TrackPointExtension>
        </extensions>
      </trkpt>
      <trkpt lat="42.5122516416013240814208984375" lon="19.9836869537830352783203125">
        <ele>1631.800048828125</ele>
        <time>2026-06-19T08:21:33.000Z</time>
        <extensions>
          <ns3:TrackPointExtension>
            <ns3:atemp>23.0</ns3:atemp>
          </ns3:TrackPointExtension>
        </extensions>
      </trkpt>
      <trkpt lat="42.5122516416013240814208984375" lon="19.9836869537830352783203125">
        <ele>1631.800048828125</ele>
        <time>2026-06-19T08:21:34.000Z</time>
        <extensions>
          <ns3:TrackPointExtension>
            <ns3:atemp>23.0</ns3:atemp>
          </ns3:TrackPointExtension>
        </extensions>
      </trkpt>
      <trkpt lat="42.5122516416013240814208984375" lon="19.9836869537830352783203125">
        <ele>1631.800048828125</ele>
        <time>2026-06-19T08:21:35.000Z</time>
        <extensions>
          <ns3:TrackPointExtension>
            <ns3:atemp>23.0</ns3:atemp>
          </ns3:TrackPointExtension>
        </extensions>
      </trkpt>
      <trkpt lat="42.5122516416013240814208984375" lon="19.9836869537830352783203125">
        <ele>1631.800048828125</ele>
        <time>2026-06-19T08:21:36.000Z</time>
        <extensions>
          <ns3:TrackPointExtension>
            <ns3:atemp>23.0</ns3:atemp>
          </ns3:TrackPointExtension>
        </extensions>
      </trkpt>
      <trkpt lat="42.5122516416013240814208984375" lon="19.9836869537830352783203125">
        <ele>1631.800048828125</ele>
        <time>2026-06-19T08:21:37.000Z</time>
        <extensions>
          <ns3:TrackPointExtension>
            <ns3:atemp>23.0</ns3:atemp>
          </ns3:TrackPointExtension>
        </extensions>
      </trkpt>
      <trkpt lat="42.5122516416013240814208984375" lon="19.9836869537830352783203125">
        <ele>1631.800048828125</ele>
        <time>2026-06-19T08:21:38.000Z</time>
        <extensions>
          <ns3:TrackPointExtension>
            <ns3:atemp>23.0</ns3:atemp>
          </ns3:TrackPointExtension>
        </extensions>
      </trkpt>
      <trkpt lat="42.5122516416013240814208984375" lon="19.9836869537830352783203125">
        <ele>1631.800048828125</ele>
        <time>2026-06-19T08:21:39.000Z</time>
        <extensions>
          <ns3:TrackPointExtension>
            <ns3:atemp>23.0</ns3:atemp>
          </ns3:TrackPointExtension>
        </extensions>
      </trkpt>
      <trkpt lat="42.5122516416013240814208984375" lon="19.9836869537830352783203125">
        <ele>1631.800048828125</ele>
        <time>2026-06-19T08:21:40.000Z</time>
        <extensions>
          <ns3:TrackPointExtension>
            <ns3:atemp>23.0</ns3:atemp>
          </ns3:TrackPointExtension>
        </extensions>
      </trkpt>
      <trkpt lat="42.5122516416013240814208984375" lon="19.9836869537830352783203125">
        <ele>1631.800048828125</ele>
        <time>2026-06-19T08:21:41.000Z</time>
        <extensions>
          <ns3:TrackPointExtension>
            <ns3:atemp>23.0</ns3:atemp>
          </ns3:TrackPointExtension>
        </extensions>
      </trkpt>
      <trkpt lat="42.5122516416013240814208984375" lon="19.9836869537830352783203125">
        <ele>1631.800048828125</ele>
        <time>2026-06-19T08:21:42.000Z</time>
        <extensions>
          <ns3:TrackPointExtension>
            <ns3:atemp>23.0</ns3:atemp>
          </ns3:TrackPointExtension>
        </extensions>
      </trkpt>
      <trkpt lat="42.5122516416013240814208984375" lon="19.9836869537830352783203125">
        <ele>1631.800048828125</ele>
        <time>2026-06-19T08:21:43.000Z</time>
        <extensions>
          <ns3:TrackPointExtension>
            <ns3:atemp>23.0</ns3:atemp>
          </ns3:TrackPointExtension>
        </extensions>
      </trkpt>
      <trkpt lat="42.5122516416013240814208984375" lon="19.9836869537830352783203125">
        <ele>1631.800048828125</ele>
        <time>2026-06-19T08:21:44.000Z</time>
        <extensions>
          <ns3:TrackPointExtension>
            <ns3:atemp>23.0</ns3:atemp>
          </ns3:TrackPointExtension>
        </extensions>
      </trkpt>
      <trkpt lat="42.5122516416013240814208984375" lon="19.9836869537830352783203125">
        <ele>1631.800048828125</ele>
        <time>2026-06-19T08:21:45.000Z</time>
        <extensions>
          <ns3:TrackPointExtension>
            <ns3:atemp>23.0</ns3:atemp>
          </ns3:TrackPointExtension>
        </extensions>
      </trkpt>
      <trkpt lat="42.5122516416013240814208984375" lon="19.9836869537830352783203125">
        <ele>1631.800048828125</ele>
        <time>2026-06-19T08:21:46.000Z</time>
        <extensions>
          <ns3:TrackPointExtension>
            <ns3:atemp>23.0</ns3:atemp>
          </ns3:TrackPointExtension>
        </extensions>
      </trkpt>
      <trkpt lat="42.5122516416013240814208984375" lon="19.9836869537830352783203125">
        <ele>1631.800048828125</ele>
        <time>2026-06-19T08:21:47.000Z</time>
        <extensions>
          <ns3:TrackPointExtension>
            <ns3:atemp>23.0</ns3:atemp>
          </ns3:TrackPointExtension>
        </extensions>
      </trkpt>
      <trkpt lat="42.5122516416013240814208984375" lon="19.9836869537830352783203125">
        <ele>1631.800048828125</ele>
        <time>2026-06-19T08:21:48.000Z</time>
        <extensions>
          <ns3:TrackPointExtension>
            <ns3:atemp>23.0</ns3:atemp>
          </ns3:TrackPointExtension>
        </extensions>
      </trkpt>
      <trkpt lat="42.512242756783962249755859375" lon="19.983691312372684478759765625">
        <ele>1631.800048828125</ele>
        <time>2026-06-19T08:21:49.000Z</time>
        <extensions>
          <ns3:TrackPointExtension>
            <ns3:atemp>23.0</ns3:atemp>
          </ns3:TrackPointExtension>
        </extensions>
      </trkpt>
      <trkpt lat="42.51222607679665088653564453125" lon="19.98369206674396991729736328125">
        <ele>1631.800048828125</ele>
        <time>2026-06-19T08:21:50.000Z</time>
        <extensions>
          <ns3:TrackPointExtension>
            <ns3:atemp>23.0</ns3:atemp>
          </ns3:TrackPointExtension>
        </extensions>
      </trkpt>
      <trkpt lat="42.5122130848467350006103515625" lon="19.9836961738765239715576171875">
        <ele>1631.800048828125</ele>
        <time>2026-06-19T08:21:51.000Z</time>
        <extensions>
          <ns3:TrackPointExtension>
            <ns3:atemp>23.0</ns3:atemp>
          </ns3:TrackPointExtension>
        </extensions>
      </trkpt>
      <trkpt lat="42.51219816505908966064453125" lon="19.9836923182010650634765625">
        <ele>1631.800048828125</ele>
        <time>2026-06-19T08:21:52.000Z</time>
        <extensions>
          <ns3:TrackPointExtension>
            <ns3:atemp>23.0</ns3:atemp>
          </ns3:TrackPointExtension>
        </extensions>
      </trkpt>
      <trkpt lat="42.5121881067752838134765625" lon="19.98367555439472198486328125">
        <ele>1632</ele>
        <time>2026-06-19T08:21:53.000Z</time>
        <extensions>
          <ns3:TrackPointExtension>
            <ns3:atemp>23.0</ns3:atemp>
          </ns3:TrackPointExtension>
        </extensions>
      </trkpt>
      <trkpt lat="42.5121839158236980438232421875" lon="19.983647055923938751220703125">
        <ele>1632</ele>
        <time>2026-06-19T08:21:54.000Z</time>
        <extensions>
          <ns3:TrackPointExtension>
            <ns3:atemp>23.0</ns3:atemp>
          </ns3:TrackPointExtension>
        </extensions>
      </trkpt>
      <trkpt lat="42.51218634657561779022216796875" lon="19.98361662961542606353759765625">
        <ele>1631.800048828125</ele>
        <time>2026-06-19T08:21:55.000Z</time>
        <extensions>
          <ns3:TrackPointExtension>
            <ns3:atemp>23.0</ns3:atemp>
          </ns3:TrackPointExtension>
        </extensions>
      </trkpt>
      <trkpt lat="42.512191794812679290771484375" lon="19.98359567485749721527099609375">
        <ele>1631.800048828125</ele>
        <time>2026-06-19T08:21:56.000Z</time>
        <extensions>
          <ns3:TrackPointExtension>
            <ns3:atemp>23.0</ns3:atemp>
          </ns3:TrackPointExtension>
        </extensions>
      </trkpt>
      <trkpt lat="42.51219213008880615234375" lon="19.9835781566798686981201171875">
        <ele>1631.800048828125</ele>
        <time>2026-06-19T08:21:57.000Z</time>
        <extensions>
          <ns3:TrackPointExtension>
            <ns3:atemp>23.0</ns3:atemp>
          </ns3:TrackPointExtension>
        </extensions>
      </trkpt>
      <trkpt lat="42.5121869333088397979736328125" lon="19.98356114141643047332763671875">
        <ele>1631.800048828125</ele>
        <time>2026-06-19T08:21:58.000Z</time>
        <extensions>
          <ns3:TrackPointExtension>
            <ns3:atemp>23.0</ns3:atemp>
          </ns3:TrackPointExtension>
        </extensions>
      </trkpt>
      <trkpt lat="42.5121725164353847503662109375" lon="19.98355887830257415771484375">
        <ele>1631.800048828125</ele>
        <time>2026-06-19T08:21:59.000Z</time>
        <extensions>
          <ns3:TrackPointExtension>
            <ns3:atemp>23.0</ns3:atemp>
          </ns3:TrackPointExtension>
        </extensions>
      </trkpt>
      <trkpt lat="42.51215617172420024871826171875" lon="19.98355778865516185760498046875">
        <ele>1631.5999755859375</ele>
        <time>2026-06-19T08:22:00.000Z</time>
        <extensions>
          <ns3:TrackPointExtension>
            <ns3:atemp>23.0</ns3:atemp>
          </ns3:TrackPointExtension>
        </extensions>
      </trkpt>
      <trkpt lat="42.51214125193655490875244140625" lon="19.98356130905449390411376953125">
        <ele>1631.4000244140625</ele>
        <time>2026-06-19T08:22:01.000Z</time>
        <extensions>
          <ns3:TrackPointExtension>
            <ns3:atemp>23.0</ns3:atemp>
          </ns3:TrackPointExtension>
        </extensions>
      </trkpt>
      <trkpt lat="42.51212717033922672271728515625" lon="19.98357404954731464385986328125">
        <ele>1631.199951171875</ele>
        <time>2026-06-19T08:22:02.000Z</time>
        <extensions>
          <ns3:TrackPointExtension>
            <ns3:atemp>23.0</ns3:atemp>
          </ns3:TrackPointExtension>
        </extensions>
      </trkpt>
      <trkpt lat="42.5121151842176914215087890625" lon="19.98358963988721370697021484375">
        <ele>1631</ele>
        <time>2026-06-19T08:22:03.000Z</time>
        <extensions>
          <ns3:TrackPointExtension>
            <ns3:atemp>23.0</ns3:atemp>
          </ns3:TrackPointExtension>
        </extensions>
      </trkpt>
      <trkpt lat="42.51210621558129787445068359375" lon="19.98360120691359043121337890625">
        <ele>1631</ele>
        <time>2026-06-19T08:22:04.000Z</time>
        <extensions>
          <ns3:TrackPointExtension>
            <ns3:atemp>23.0</ns3:atemp>
          </ns3:TrackPointExtension>
        </extensions>
      </trkpt>
      <trkpt lat="42.51209892332553863525390625" lon="19.9836116842925548553466796875">
        <ele>1631.199951171875</ele>
        <time>2026-06-19T08:22:05.000Z</time>
        <extensions>
          <ns3:TrackPointExtension>
            <ns3:atemp>23.0</ns3:atemp>
          </ns3:TrackPointExtension>
        </extensions>
      </trkpt>
      <trkpt lat="42.51208961941301822662353515625" lon="19.98362417332828044891357421875">
        <ele>1631</ele>
        <time>2026-06-19T08:22:06.000Z</time>
        <extensions>
          <ns3:TrackPointExtension>
            <ns3:atemp>23.0</ns3:atemp>
          </ns3:TrackPointExtension>
        </extensions>
      </trkpt>
      <trkpt lat="42.512078471481800079345703125" lon="19.98363238759338855743408203125">
        <ele>1631.199951171875</ele>
        <time>2026-06-19T08:22:07.000Z</time>
        <extensions>
          <ns3:TrackPointExtension>
            <ns3:atemp>23.0</ns3:atemp>
          </ns3:TrackPointExtension>
        </extensions>
      </trkpt>
      <trkpt lat="42.51207184977829456329345703125" lon="19.9836442060768604278564453125">
        <ele>1631.4000244140625</ele>
        <time>2026-06-19T08:22:08.000Z</time>
        <extensions>
          <ns3:TrackPointExtension>
            <ns3:atemp>23.0</ns3:atemp>
          </ns3:TrackPointExtension>
        </extensions>
      </trkpt>
      <trkpt lat="42.51206941902637481689453125" lon="19.98365283943712711334228515625">
        <ele>1631.4000244140625</ele>
        <time>2026-06-19T08:22:09.000Z</time>
        <extensions>
          <ns3:TrackPointExtension>
            <ns3:atemp>23.0</ns3:atemp>
          </ns3:TrackPointExtension>
        </extensions>
      </trkpt>
      <trkpt lat="42.5120702572166919708251953125" lon="19.98365283943712711334228515625">
        <ele>1631.4000244140625</ele>
        <time>2026-06-19T08:22:10.000Z</time>
        <extensions>
          <ns3:TrackPointExtension>
            <ns3:atemp>23.0</ns3:atemp>
          </ns3:TrackPointExtension>
        </extensions>
      </trkpt>
      <trkpt lat="42.5120702572166919708251953125" lon="19.98365283943712711334228515625">
        <ele>1631.4000244140625</ele>
        <time>2026-06-19T08:22:11.000Z</time>
        <extensions>
          <ns3:TrackPointExtension>
            <ns3:atemp>23.0</ns3:atemp>
          </ns3:TrackPointExtension>
        </extensions>
      </trkpt>
      <trkpt lat="42.5120702572166919708251953125" lon="19.98365283943712711334228515625">
        <ele>1631.199951171875</ele>
        <time>2026-06-19T08:22:12.000Z</time>
        <extensions>
          <ns3:TrackPointExtension>
            <ns3:atemp>23.0</ns3:atemp>
          </ns3:TrackPointExtension>
        </extensions>
      </trkpt>
      <trkpt lat="42.5120702572166919708251953125" lon="19.98365283943712711334228515625">
        <ele>1631.199951171875</ele>
        <time>2026-06-19T08:22:13.000Z</time>
        <extensions>
          <ns3:TrackPointExtension>
            <ns3:atemp>23.0</ns3:atemp>
          </ns3:TrackPointExtension>
        </extensions>
      </trkpt>
      <trkpt lat="42.5120702572166919708251953125" lon="19.98365283943712711334228515625">
        <ele>1631.199951171875</ele>
        <time>2026-06-19T08:22:14.000Z</time>
        <extensions>
          <ns3:TrackPointExtension>
            <ns3:atemp>23.0</ns3:atemp>
          </ns3:TrackPointExtension>
        </extensions>
      </trkpt>
      <trkpt lat="42.5120702572166919708251953125" lon="19.98365283943712711334228515625">
        <ele>1631.199951171875</ele>
        <time>2026-06-19T08:22:15.000Z</time>
        <extensions>
          <ns3:TrackPointExtension>
            <ns3:atemp>23.0</ns3:atemp>
          </ns3:TrackPointExtension>
        </extensions>
      </trkpt>
      <trkpt lat="42.5120702572166919708251953125" lon="19.98365283943712711334228515625">
        <ele>1631.4000244140625</ele>
        <time>2026-06-19T08:22:16.000Z</time>
        <extensions>
          <ns3:TrackPointExtension>
            <ns3:atemp>23.0</ns3:atemp>
          </ns3:TrackPointExtension>
        </extensions>
      </trkpt>
      <trkpt lat="42.5120702572166919708251953125" lon="19.98365283943712711334228515625">
        <ele>1631.5999755859375</ele>
        <time>2026-06-19T08:22:17.000Z</time>
        <extensions>
          <ns3:TrackPointExtension>
            <ns3:atemp>23.0</ns3:atemp>
          </ns3:TrackPointExtension>
        </extensions>
      </trkpt>
      <trkpt lat="42.5120702572166919708251953125" lon="19.98365283943712711334228515625">
        <ele>1631.5999755859375</ele>
        <time>2026-06-19T08:22:18.000Z</time>
        <extensions>
          <ns3:TrackPointExtension>
            <ns3:atemp>23.0</ns3:atemp>
          </ns3:TrackPointExtension>
        </extensions>
      </trkpt>
      <trkpt lat="42.5120702572166919708251953125" lon="19.98365283943712711334228515625">
        <ele>1631.800048828125</ele>
        <time>2026-06-19T08:22:19.000Z</time>
        <extensions>
          <ns3:TrackPointExtension>
            <ns3:atemp>23.0</ns3:atemp>
          </ns3:TrackPointExtension>
        </extensions>
      </trkpt>
      <trkpt lat="42.5120702572166919708251953125" lon="19.98365283943712711334228515625">
        <ele>1631.800048828125</ele>
        <time>2026-06-19T08:22:20.000Z</time>
        <extensions>
          <ns3:TrackPointExtension>
            <ns3:atemp>23.0</ns3:atemp>
          </ns3:TrackPointExtension>
        </extensions>
      </trkpt>
      <trkpt lat="42.5120702572166919708251953125" lon="19.98365283943712711334228515625">
        <ele>1632</ele>
        <time>2026-06-19T08:22:21.000Z</time>
        <extensions>
          <ns3:TrackPointExtension>
            <ns3:atemp>23.0</ns3:atemp>
          </ns3:TrackPointExtension>
        </extensions>
      </trkpt>
      <trkpt lat="42.5120702572166919708251953125" lon="19.98365283943712711334228515625">
        <ele>1632.199951171875</ele>
        <time>2026-06-19T08:22:22.000Z</time>
        <extensions>
          <ns3:TrackPointExtension>
            <ns3:atemp>23.0</ns3:atemp>
          </ns3:TrackPointExtension>
        </extensions>
      </trkpt>
      <trkpt lat="42.5120702572166919708251953125" lon="19.98365283943712711334228515625">
        <ele>1632.199951171875</ele>
        <time>2026-06-19T08:22:23.000Z</time>
        <extensions>
          <ns3:TrackPointExtension>
            <ns3:atemp>23.0</ns3:atemp>
          </ns3:TrackPointExtension>
        </extensions>
      </trkpt>
      <trkpt lat="42.5120702572166919708251953125" lon="19.98365283943712711334228515625">
        <ele>1632.4000244140625</ele>
        <time>2026-06-19T08:22:24.000Z</time>
        <extensions>
          <ns3:TrackPointExtension>
            <ns3:atemp>23.0</ns3:atemp>
          </ns3:TrackPointExtension>
        </extensions>
      </trkpt>
      <trkpt lat="42.5120702572166919708251953125" lon="19.98365283943712711334228515625">
        <ele>1632.4000244140625</ele>
        <time>2026-06-19T08:22:25.000Z</time>
        <extensions>
          <ns3:TrackPointExtension>
            <ns3:atemp>23.0</ns3:atemp>
          </ns3:TrackPointExtension>
        </extensions>
      </trkpt>
      <trkpt lat="42.5120702572166919708251953125" lon="19.98365283943712711334228515625">
        <ele>1632.4000244140625</ele>
        <time>2026-06-19T08:22:26.000Z</time>
        <extensions>
          <ns3:TrackPointExtension>
            <ns3:atemp>23.0</ns3:atemp>
          </ns3:TrackPointExtension>
        </extensions>
      </trkpt>
      <trkpt lat="42.5120702572166919708251953125" lon="19.98365283943712711334228515625">
        <ele>1632.4000244140625</ele>
        <time>2026-06-19T08:22:27.000Z</time>
        <extensions>
          <ns3:TrackPointExtension>
            <ns3:atemp>23.0</ns3:atemp>
          </ns3:TrackPointExtension>
        </extensions>
      </trkpt>
      <trkpt lat="42.5120702572166919708251953125" lon="19.98365283943712711334228515625">
        <ele>1632.199951171875</ele>
        <time>2026-06-19T08:22:28.000Z</time>
        <extensions>
          <ns3:TrackPointExtension>
            <ns3:atemp>23.0</ns3:atemp>
          </ns3:TrackPointExtension>
        </extensions>
      </trkpt>
      <trkpt lat="42.5120702572166919708251953125" lon="19.98365283943712711334228515625">
        <ele>1632.199951171875</ele>
        <time>2026-06-19T08:22:29.000Z</time>
        <extensions>
          <ns3:TrackPointExtension>
            <ns3:atemp>23.0</ns3:atemp>
          </ns3:TrackPointExtension>
        </extensions>
      </trkpt>
      <trkpt lat="42.51206497661769390106201171875" lon="19.9836569465696811676025390625">
        <ele>1632</ele>
        <time>2026-06-19T08:22:30.000Z</time>
        <extensions>
          <ns3:TrackPointExtension>
            <ns3:atemp>23.0</ns3:atemp>
          </ns3:TrackPointExtension>
        </extensions>
      </trkpt>
      <trkpt lat="42.5120565108954906463623046875" lon="19.98368502594530582427978515625">
        <ele>1632</ele>
        <time>2026-06-19T08:22:31.000Z</time>
        <extensions>
          <ns3:TrackPointExtension>
            <ns3:atemp>23.0</ns3:atemp>
          </ns3:TrackPointExtension>
        </extensions>
      </trkpt>
      <trkpt lat="42.51206313259899616241455078125" lon="19.9837057292461395263671875">
        <ele>1631.800048828125</ele>
        <time>2026-06-19T08:22:32.000Z</time>
        <extensions>
          <ns3:TrackPointExtension>
            <ns3:atemp>23.0</ns3:atemp>
          </ns3:TrackPointExtension>
        </extensions>
      </trkpt>
      <trkpt lat="42.51207537017762660980224609375" lon="19.9837142787873744964599609375">
        <ele>1631.5999755859375</ele>
        <time>2026-06-19T08:22:33.000Z</time>
        <extensions>
          <ns3:TrackPointExtension>
            <ns3:atemp>23.0</ns3:atemp>
          </ns3:TrackPointExtension>
        </extensions>
      </trkpt>
      <trkpt lat="42.512085177004337310791015625" lon="19.983713440597057342529296875">
        <ele>1631.5999755859375</ele>
        <time>2026-06-19T08:22:34.000Z</time>
        <extensions>
          <ns3:TrackPointExtension>
            <ns3:atemp>23.0</ns3:atemp>
          </ns3:TrackPointExtension>
        </extensions>
      </trkpt>
      <trkpt lat="42.5120947323739528656005859375" lon="19.983706735074520111083984375">
        <ele>1631.5999755859375</ele>
        <time>2026-06-19T08:22:35.000Z</time>
        <extensions>
          <ns3:TrackPointExtension>
            <ns3:atemp>23.0</ns3:atemp>
          </ns3:TrackPointExtension>
        </extensions>
      </trkpt>
      <trkpt lat="42.51210026443004608154296875" lon="19.9837001971900463104248046875">
        <ele>1631.5999755859375</ele>
        <time>2026-06-19T08:22:36.000Z</time>
        <extensions>
          <ns3:TrackPointExtension>
            <ns3:atemp>23.0</ns3:atemp>
          </ns3:TrackPointExtension>
        </extensions>
      </trkpt>
      <trkpt lat="42.512103617191314697265625" lon="19.983691312372684478759765625">
        <ele>1631.800048828125</ele>
        <time>2026-06-19T08:22:37.000Z</time>
        <extensions>
          <ns3:TrackPointExtension>
            <ns3:atemp>23.0</ns3:atemp>
          </ns3:TrackPointExtension>
        </extensions>
      </trkpt>
      <trkpt lat="42.51210873015224933624267578125" lon="19.98368150554597377777099609375">
        <ele>1632</ele>
        <time>2026-06-19T08:22:38.000Z</time>
        <extensions>
          <ns3:TrackPointExtension>
            <ns3:atemp>23.0</ns3:atemp>
          </ns3:TrackPointExtension>
        </extensions>
      </trkpt>
      <trkpt lat="42.5121138431131839752197265625" lon="19.98367949388921260833740234375">
        <ele>1632.199951171875</ele>
        <time>2026-06-19T08:22:39.000Z</time>
        <extensions>
          <ns3:TrackPointExtension>
            <ns3:atemp>23.0</ns3:atemp>
          </ns3:TrackPointExtension>
        </extensions>
      </trkpt>
      <trkpt lat="42.51211903989315032958984375" lon="19.98367496766149997711181640625">
        <ele>1632.4000244140625</ele>
        <time>2026-06-19T08:22:40.000Z</time>
        <extensions>
          <ns3:TrackPointExtension>
            <ns3:atemp>23.0</ns3:atemp>
          </ns3:TrackPointExtension>
        </extensions>
      </trkpt>
      <trkpt lat="42.512126751244068145751953125" lon="19.9836646579205989837646484375">
        <ele>1632.4000244140625</ele>
        <time>2026-06-19T08:22:41.000Z</time>
        <extensions>
          <ns3:TrackPointExtension>
            <ns3:atemp>23.0</ns3:atemp>
          </ns3:TrackPointExtension>
        </extensions>
      </trkpt>
      <trkpt lat="42.51213002018630504608154296875" lon="19.98366214334964752197265625">
        <ele>1632.5999755859375</ele>
        <time>2026-06-19T08:22:42.000Z</time>
        <extensions>
          <ns3:TrackPointExtension>
            <ns3:atemp>23.0</ns3:atemp>
          </ns3:TrackPointExtension>
        </extensions>
      </trkpt>
      <trkpt lat="42.51214477233588695526123046875" lon="19.98364630155265331268310546875">
        <ele>1632.800048828125</ele>
        <time>2026-06-19T08:22:43.000Z</time>
        <extensions>
          <ns3:TrackPointExtension>
            <ns3:atemp>23.0</ns3:atemp>
          </ns3:TrackPointExtension>
        </extensions>
      </trkpt>
      <trkpt lat="42.51216623000800609588623046875" lon="19.9836281128227710723876953125">
        <ele>1632.800048828125</ele>
        <time>2026-06-19T08:22:44.000Z</time>
        <extensions>
          <ns3:TrackPointExtension>
            <ns3:atemp>23.0</ns3:atemp>
          </ns3:TrackPointExtension>
        </extensions>
      </trkpt>
      <trkpt lat="42.5121684931218624114990234375" lon="19.98359232209622859954833984375">
        <ele>1632.5999755859375</ele>
        <time>2026-06-19T08:22:45.000Z</time>
        <extensions>
          <ns3:TrackPointExtension>
            <ns3:atemp>23.0</ns3:atemp>
          </ns3:TrackPointExtension>
        </extensions>
      </trkpt>
      <trkpt lat="42.5121500529348850250244140625" lon="19.9835761450231075286865234375">
        <ele>1632.5999755859375</ele>
        <time>2026-06-19T08:22:46.000Z</time>
        <extensions>
          <ns3:TrackPointExtension>
            <ns3:atemp>23.0</ns3:atemp>
          </ns3:TrackPointExtension>
        </extensions>
      </trkpt>
      <trkpt lat="42.51212842762470245361328125" lon="19.983584024012088775634765625">
        <ele>1632.5999755859375</ele>
        <time>2026-06-19T08:22:47.000Z</time>
        <extensions>
          <ns3:TrackPointExtension>
            <ns3:atemp>23.0</ns3:atemp>
          </ns3:TrackPointExtension>
        </extensions>
      </trkpt>
      <trkpt lat="42.512115351855754852294921875" lon="19.9836022965610027313232421875">
        <ele>1632.4000244140625</ele>
        <time>2026-06-19T08:22:48.000Z</time>
        <extensions>
          <ns3:TrackPointExtension>
            <ns3:atemp>23.0</ns3:atemp>
          </ns3:TrackPointExtension>
        </extensions>
      </trkpt>
      <trkpt lat="42.51210403628647327423095703125" lon="19.9836183898150920867919921875">
        <ele>1632.199951171875</ele>
        <time>2026-06-19T08:22:49.000Z</time>
        <extensions>
          <ns3:TrackPointExtension>
            <ns3:atemp>23.0</ns3:atemp>
          </ns3:TrackPointExtension>
        </extensions>
      </trkpt>
      <trkpt lat="42.5120974145829677581787109375" lon="19.98363356105983257293701171875">
        <ele>1632.199951171875</ele>
        <time>2026-06-19T08:22:50.000Z</time>
        <extensions>
          <ns3:TrackPointExtension>
            <ns3:atemp>23.0</ns3:atemp>
          </ns3:TrackPointExtension>
        </extensions>
      </trkpt>
      <trkpt lat="42.51209096051752567291259765625" lon="19.98364730738103389739990234375">
        <ele>1632.199951171875</ele>
        <time>2026-06-19T08:22:51.000Z</time>
        <extensions>
          <ns3:TrackPointExtension>
            <ns3:atemp>23.0</ns3:atemp>
          </ns3:TrackPointExtension>
        </extensions>
      </trkpt>
      <trkpt lat="42.512082494795322418212890625" lon="19.98365803621709346771240234375">
        <ele>1632.199951171875</ele>
        <time>2026-06-19T08:22:52.000Z</time>
        <extensions>
          <ns3:TrackPointExtension>
            <ns3:atemp>23.0</ns3:atemp>
          </ns3:TrackPointExtension>
        </extensions>
      </trkpt>
      <trkpt lat="42.51207268796861171722412109375" lon="19.98367513529956340789794921875">
        <ele>1632.4000244140625</ele>
        <time>2026-06-19T08:22:53.000Z</time>
        <extensions>
          <ns3:TrackPointExtension>
            <ns3:atemp>23.0</ns3:atemp>
          </ns3:TrackPointExtension>
        </extensions>
      </trkpt>
      <trkpt lat="42.51206950284540653228759765625" lon="19.9836750514805316925048828125">
        <ele>1632.4000244140625</ele>
        <time>2026-06-19T08:22:54.000Z</time>
        <extensions>
          <ns3:TrackPointExtension>
            <ns3:atemp>23.0</ns3:atemp>
          </ns3:TrackPointExtension>
        </extensions>
      </trkpt>
      <trkpt lat="42.5120595283806324005126953125" lon="19.98368569649755954742431640625">
        <ele>1632.4000244140625</ele>
        <time>2026-06-19T08:22:55.000Z</time>
        <extensions>
          <ns3:TrackPointExtension>
            <ns3:atemp>23.0</ns3:atemp>
          </ns3:TrackPointExtension>
        </extensions>
      </trkpt>
      <trkpt lat="42.51205022446811199188232421875" lon="19.9837012030184268951416015625">
        <ele>1632.4000244140625</ele>
        <time>2026-06-19T08:22:56.000Z</time>
        <extensions>
          <ns3:TrackPointExtension>
            <ns3:atemp>23.0</ns3:atemp>
          </ns3:TrackPointExtension>
        </extensions>
      </trkpt>
      <trkpt lat="42.51204687170684337615966796875" lon="19.98369969427585601806640625">
        <ele>1632.4000244140625</ele>
        <time>2026-06-19T08:22:57.000Z</time>
        <extensions>
          <ns3:TrackPointExtension>
            <ns3:atemp>23.0</ns3:atemp>
          </ns3:TrackPointExtension>
        </extensions>
      </trkpt>
      <trkpt lat="42.51204670406877994537353515625" lon="19.98369977809488773345947265625">
        <ele>1632.199951171875</ele>
        <time>2026-06-19T08:22:58.000Z</time>
        <extensions>
          <ns3:TrackPointExtension>
            <ns3:atemp>23.0</ns3:atemp>
          </ns3:TrackPointExtension>
        </extensions>
      </trkpt>
      <trkpt lat="42.5120350532233715057373046875" lon="19.9837008677423000335693359375">
        <ele>1632.199951171875</ele>
        <time>2026-06-19T08:22:59.000Z</time>
        <extensions>
          <ns3:TrackPointExtension>
            <ns3:atemp>23.0</ns3:atemp>
          </ns3:TrackPointExtension>
        </extensions>
      </trkpt>
      <trkpt lat="42.51203320920467376708984375" lon="19.9836981855332851409912109375">
        <ele>1632.199951171875</ele>
        <time>2026-06-19T08:23:00.000Z</time>
        <extensions>
          <ns3:TrackPointExtension>
            <ns3:atemp>23.0</ns3:atemp>
          </ns3:TrackPointExtension>
        </extensions>
      </trkpt>
      <trkpt lat="42.51203320920467376708984375" lon="19.9836981855332851409912109375">
        <ele>1632.199951171875</ele>
        <time>2026-06-19T08:23:01.000Z</time>
        <extensions>
          <ns3:TrackPointExtension>
            <ns3:atemp>23.0</ns3:atemp>
          </ns3:TrackPointExtension>
        </extensions>
      </trkpt>
      <trkpt lat="42.51203320920467376708984375" lon="19.9836981855332851409912109375">
        <ele>1632.199951171875</ele>
        <time>2026-06-19T08:23:02.000Z</time>
        <extensions>
          <ns3:TrackPointExtension>
            <ns3:atemp>23.0</ns3:atemp>
          </ns3:TrackPointExtension>
        </extensions>
      </trkpt>
      <trkpt lat="42.51203320920467376708984375" lon="19.9836981855332851409912109375">
        <ele>1632.199951171875</ele>
        <time>2026-06-19T08:23:03.000Z</time>
        <extensions>
          <ns3:TrackPointExtension>
            <ns3:atemp>23.0</ns3:atemp>
          </ns3:TrackPointExtension>
        </extensions>
      </trkpt>
      <trkpt lat="42.51203320920467376708984375" lon="19.9836981855332851409912109375">
        <ele>1632.199951171875</ele>
        <time>2026-06-19T08:23:04.000Z</time>
        <extensions>
          <ns3:TrackPointExtension>
            <ns3:atemp>23.0</ns3:atemp>
          </ns3:TrackPointExtension>
        </extensions>
      </trkpt>
      <trkpt lat="42.51203320920467376708984375" lon="19.9836981855332851409912109375">
        <ele>1632.199951171875</ele>
        <time>2026-06-19T08:23:05.000Z</time>
        <extensions>
          <ns3:TrackPointExtension>
            <ns3:atemp>23.0</ns3:atemp>
          </ns3:TrackPointExtension>
        </extensions>
      </trkpt>
      <trkpt lat="42.51203320920467376708984375" lon="19.9836981855332851409912109375">
        <ele>1632.199951171875</ele>
        <time>2026-06-19T08:23:06.000Z</time>
        <extensions>
          <ns3:TrackPointExtension>
            <ns3:atemp>23.0</ns3:atemp>
          </ns3:TrackPointExtension>
        </extensions>
      </trkpt>
      <trkpt lat="42.51203320920467376708984375" lon="19.9836981855332851409912109375">
        <ele>1632.199951171875</ele>
        <time>2026-06-19T08:23:07.000Z</time>
        <extensions>
          <ns3:TrackPointExtension>
            <ns3:atemp>23.0</ns3:atemp>
          </ns3:TrackPointExtension>
        </extensions>
      </trkpt>
      <trkpt lat="42.51203320920467376708984375" lon="19.9836981855332851409912109375">
        <ele>1632.199951171875</ele>
        <time>2026-06-19T08:23:08.000Z</time>
        <extensions>
          <ns3:TrackPointExtension>
            <ns3:atemp>23.0</ns3:atemp>
          </ns3:TrackPointExtension>
        </extensions>
      </trkpt>
      <trkpt lat="42.51203320920467376708984375" lon="19.9836981855332851409912109375">
        <ele>1632.199951171875</ele>
        <time>2026-06-19T08:23:09.000Z</time>
        <extensions>
          <ns3:TrackPointExtension>
            <ns3:atemp>23.0</ns3:atemp>
          </ns3:TrackPointExtension>
        </extensions>
      </trkpt>
      <trkpt lat="42.51203320920467376708984375" lon="19.9836981855332851409912109375">
        <ele>1632.199951171875</ele>
        <time>2026-06-19T08:23:10.000Z</time>
        <extensions>
          <ns3:TrackPointExtension>
            <ns3:atemp>23.0</ns3:atemp>
          </ns3:TrackPointExtension>
        </extensions>
      </trkpt>
      <trkpt lat="42.51203320920467376708984375" lon="19.9836981855332851409912109375">
        <ele>1632</ele>
        <time>2026-06-19T08:23:11.000Z</time>
        <extensions>
          <ns3:TrackPointExtension>
            <ns3:atemp>23.0</ns3:atemp>
          </ns3:TrackPointExtension>
        </extensions>
      </trkpt>
      <trkpt lat="42.51203320920467376708984375" lon="19.9836981855332851409912109375">
        <ele>1632</ele>
        <time>2026-06-19T08:23:12.000Z</time>
        <extensions>
          <ns3:TrackPointExtension>
            <ns3:atemp>23.0</ns3:atemp>
          </ns3:TrackPointExtension>
        </extensions>
      </trkpt>
      <trkpt lat="42.51203320920467376708984375" lon="19.9836981855332851409912109375">
        <ele>1631.800048828125</ele>
        <time>2026-06-19T08:23:13.000Z</time>
        <extensions>
          <ns3:TrackPointExtension>
            <ns3:atemp>23.0</ns3:atemp>
          </ns3:TrackPointExtension>
        </extensions>
      </trkpt>
      <trkpt lat="42.51203320920467376708984375" lon="19.9836981855332851409912109375">
        <ele>1631.5999755859375</ele>
        <time>2026-06-19T08:23:14.000Z</time>
        <extensions>
          <ns3:TrackPointExtension>
            <ns3:atemp>23.0</ns3:atemp>
          </ns3:TrackPointExtension>
        </extensions>
      </trkpt>
      <trkpt lat="42.51203320920467376708984375" lon="19.9836981855332851409912109375">
        <ele>1631.4000244140625</ele>
        <time>2026-06-19T08:23:15.000Z</time>
        <extensions>
          <ns3:TrackPointExtension>
            <ns3:atemp>23.0</ns3:atemp>
          </ns3:TrackPointExtension>
        </extensions>
      </trkpt>
      <trkpt lat="42.51203320920467376708984375" lon="19.9836981855332851409912109375">
        <ele>1631.4000244140625</ele>
        <time>2026-06-19T08:23:16.000Z</time>
        <extensions>
          <ns3:TrackPointExtension>
            <ns3:atemp>23.0</ns3:atemp>
          </ns3:TrackPointExtension>
        </extensions>
      </trkpt>
      <trkpt lat="42.51203320920467376708984375" lon="19.9836981855332851409912109375">
        <ele>1631.4000244140625</ele>
        <time>2026-06-19T08:23:17.000Z</time>
        <extensions>
          <ns3:TrackPointExtension>
            <ns3:atemp>23.0</ns3:atemp>
          </ns3:TrackPointExtension>
        </extensions>
      </trkpt>
      <trkpt lat="42.51203320920467376708984375" lon="19.9836981855332851409912109375">
        <ele>1631.5999755859375</ele>
        <time>2026-06-19T08:23:18.000Z</time>
        <extensions>
          <ns3:TrackPointExtension>
            <ns3:atemp>23.0</ns3:atemp>
          </ns3:TrackPointExtension>
        </extensions>
      </trkpt>
      <trkpt lat="42.51203320920467376708984375" lon="19.9836981855332851409912109375">
        <ele>1631.800048828125</ele>
        <time>2026-06-19T08:23:19.000Z</time>
        <extensions>
          <ns3:TrackPointExtension>
            <ns3:atemp>23.0</ns3:atemp>
          </ns3:TrackPointExtension>
        </extensions>
      </trkpt>
      <trkpt lat="42.51203320920467376708984375" lon="19.9836981855332851409912109375">
        <ele>1631.800048828125</ele>
        <time>2026-06-19T08:23:20.000Z</time>
        <extensions>
          <ns3:TrackPointExtension>
            <ns3:atemp>23.0</ns3:atemp>
          </ns3:TrackPointExtension>
        </extensions>
      </trkpt>
      <trkpt lat="42.51203320920467376708984375" lon="19.9836981855332851409912109375">
        <ele>1632</ele>
        <time>2026-06-19T08:23:21.000Z</time>
        <extensions>
          <ns3:TrackPointExtension>
            <ns3:atemp>23.0</ns3:atemp>
          </ns3:TrackPointExtension>
        </extensions>
      </trkpt>
      <trkpt lat="42.5120323710143566131591796875" lon="19.98369843699038028717041015625">
        <ele>1632</ele>
        <time>2026-06-19T08:23:22.000Z</time>
        <extensions>
          <ns3:TrackPointExtension>
            <ns3:atemp>23.0</ns3:atemp>
          </ns3:TrackPointExtension>
        </extensions>
      </trkpt>
      <trkpt lat="42.5120239891111850738525390625" lon="19.983706735074520111083984375">
        <ele>1632.199951171875</ele>
        <time>2026-06-19T08:23:23.000Z</time>
        <extensions>
          <ns3:TrackPointExtension>
            <ns3:atemp>23.0</ns3:atemp>
          </ns3:TrackPointExtension>
        </extensions>
      </trkpt>
      <trkpt lat="42.512017786502838134765625" lon="19.98371176421642303466796875">
        <ele>1632.199951171875</ele>
        <time>2026-06-19T08:23:24.000Z</time>
        <extensions>
          <ns3:TrackPointExtension>
            <ns3:atemp>23.0</ns3:atemp>
          </ns3:TrackPointExtension>
        </extensions>
      </trkpt>
      <trkpt lat="42.5120137631893157958984375" lon="19.98372961767017841339111328125">
        <ele>1632.199951171875</ele>
        <time>2026-06-19T08:23:25.000Z</time>
        <extensions>
          <ns3:TrackPointExtension>
            <ns3:atemp>23.0</ns3:atemp>
          </ns3:TrackPointExtension>
        </extensions>
      </trkpt>
      <trkpt lat="42.51202206127345561981201171875" lon="19.9837464652955532073974609375">
        <ele>1632.199951171875</ele>
        <time>2026-06-19T08:23:26.000Z</time>
        <extensions>
          <ns3:TrackPointExtension>
            <ns3:atemp>23.0</ns3:atemp>
          </ns3:TrackPointExtension>
        </extensions>
      </trkpt>
      <trkpt lat="42.5120333768427371978759765625" lon="19.98374990187585353851318359375">
        <ele>1632.199951171875</ele>
        <time>2026-06-19T08:23:27.000Z</time>
        <extensions>
          <ns3:TrackPointExtension>
            <ns3:atemp>23.0</ns3:atemp>
          </ns3:TrackPointExtension>
        </extensions>
      </trkpt>
      <trkpt lat="42.51204519532620906829833984375" lon="19.9837432801723480224609375">
        <ele>1632.199951171875</ele>
        <time>2026-06-19T08:23:28.000Z</time>
        <extensions>
          <ns3:TrackPointExtension>
            <ns3:atemp>23.0</ns3:atemp>
          </ns3:TrackPointExtension>
        </extensions>
      </trkpt>
      <trkpt lat="42.5120524875819683074951171875" lon="19.98373850248754024505615234375">
        <ele>1632.199951171875</ele>
        <time>2026-06-19T08:23:29.000Z</time>
        <extensions>
          <ns3:TrackPointExtension>
            <ns3:atemp>23.0</ns3:atemp>
          </ns3:TrackPointExtension>
        </extensions>
      </trkpt>
      <trkpt lat="42.51206765882670879364013671875" lon="19.98372408561408519744873046875">
        <ele>1632.199951171875</ele>
        <time>2026-06-19T08:23:30.000Z</time>
        <extensions>
          <ns3:TrackPointExtension>
            <ns3:atemp>23.0</ns3:atemp>
          </ns3:TrackPointExtension>
        </extensions>
      </trkpt>
      <trkpt lat="42.512082159519195556640625" lon="19.98370162211358547210693359375">
        <ele>1632.199951171875</ele>
        <time>2026-06-19T08:23:31.000Z</time>
        <extensions>
          <ns3:TrackPointExtension>
            <ns3:atemp>23.0</ns3:atemp>
          </ns3:TrackPointExtension>
        </extensions>
      </trkpt>
      <trkpt lat="42.51209012232720851898193359375" lon="19.9836763925850391387939453125">
        <ele>1632.199951171875</ele>
        <time>2026-06-19T08:23:32.000Z</time>
        <extensions>
          <ns3:TrackPointExtension>
            <ns3:atemp>23.0</ns3:atemp>
          </ns3:TrackPointExtension>
        </extensions>
      </trkpt>
      <trkpt lat="42.512099258601665496826171875" lon="19.9836586229503154754638671875">
        <ele>1632.199951171875</ele>
        <time>2026-06-19T08:23:33.000Z</time>
        <extensions>
          <ns3:TrackPointExtension>
            <ns3:atemp>23.0</ns3:atemp>
          </ns3:TrackPointExtension>
        </extensions>
      </trkpt>
      <trkpt lat="42.51210671849548816680908203125" lon="19.98365015722811222076416015625">
        <ele>1632.199951171875</ele>
        <time>2026-06-19T08:23:34.000Z</time>
        <extensions>
          <ns3:TrackPointExtension>
            <ns3:atemp>23.0</ns3:atemp>
          </ns3:TrackPointExtension>
        </extensions>
      </trkpt>
      <trkpt lat="42.5121151842176914215087890625" lon="19.98364462517201900482177734375">
        <ele>1632.199951171875</ele>
        <time>2026-06-19T08:23:35.000Z</time>
        <extensions>
          <ns3:TrackPointExtension>
            <ns3:atemp>23.0</ns3:atemp>
          </ns3:TrackPointExtension>
        </extensions>
      </trkpt>
      <trkpt lat="42.51212197355926036834716796875" lon="19.9836485646665096282958984375">
        <ele>1632.199951171875</ele>
        <time>2026-06-19T08:23:36.000Z</time>
        <extensions>
          <ns3:TrackPointExtension>
            <ns3:atemp>23.0</ns3:atemp>
          </ns3:TrackPointExtension>
        </extensions>
      </trkpt>
      <trkpt lat="42.51212683506309986114501953125" lon="19.98365418054163455963134765625">
        <ele>1632.4000244140625</ele>
        <time>2026-06-19T08:23:37.000Z</time>
        <extensions>
          <ns3:TrackPointExtension>
            <ns3:atemp>23.0</ns3:atemp>
          </ns3:TrackPointExtension>
        </extensions>
      </trkpt>
      <trkpt lat="42.51212934963405132293701171875" lon="19.98366273008286952972412109375">
        <ele>1632.199951171875</ele>
        <time>2026-06-19T08:23:38.000Z</time>
        <extensions>
          <ns3:TrackPointExtension>
            <ns3:atemp>23.0</ns3:atemp>
          </ns3:TrackPointExtension>
        </extensions>
      </trkpt>
      <trkpt lat="42.51212976872920989990234375" lon="19.98367262072861194610595703125">
        <ele>1632.199951171875</ele>
        <time>2026-06-19T08:23:39.000Z</time>
        <extensions>
          <ns3:TrackPointExtension>
            <ns3:atemp>23.0</ns3:atemp>
          </ns3:TrackPointExtension>
        </extensions>
      </trkpt>
      <trkpt lat="42.51212775707244873046875" lon="19.98368184082210063934326171875">
        <ele>1632.199951171875</ele>
        <time>2026-06-19T08:23:40.000Z</time>
        <extensions>
          <ns3:TrackPointExtension>
            <ns3:atemp>23.0</ns3:atemp>
          </ns3:TrackPointExtension>
        </extensions>
      </trkpt>
      <trkpt lat="42.51213588751852512359619140625" lon="19.98369298875331878662109375">
        <ele>1632.199951171875</ele>
        <time>2026-06-19T08:23:41.000Z</time>
        <extensions>
          <ns3:TrackPointExtension>
            <ns3:atemp>23.0</ns3:atemp>
          </ns3:TrackPointExtension>
        </extensions>
      </trkpt>
      <trkpt lat="42.51214812509715557098388671875" lon="19.9836976826190948486328125">
        <ele>1632.199951171875</ele>
        <time>2026-06-19T08:23:42.000Z</time>
        <extensions>
          <ns3:TrackPointExtension>
            <ns3:atemp>23.0</ns3:atemp>
          </ns3:TrackPointExtension>
        </extensions>
      </trkpt>
      <trkpt lat="42.5121586024761199951171875" lon="19.98369835317134857177734375">
        <ele>1632.199951171875</ele>
        <time>2026-06-19T08:23:43.000Z</time>
        <extensions>
          <ns3:TrackPointExtension>
            <ns3:atemp>23.0</ns3:atemp>
          </ns3:TrackPointExtension>
        </extensions>
      </trkpt>
      <trkpt lat="42.51216120086610317230224609375" lon="19.98369826935231685638427734375">
        <ele>1632.4000244140625</ele>
        <time>2026-06-19T08:23:44.000Z</time>
        <extensions>
          <ns3:TrackPointExtension>
            <ns3:atemp>23.0</ns3:atemp>
          </ns3:TrackPointExtension>
        </extensions>
      </trkpt>
      <trkpt lat="42.51217268407344818115234375" lon="19.9836988560855388641357421875">
        <ele>1632.4000244140625</ele>
        <time>2026-06-19T08:23:45.000Z</time>
        <extensions>
          <ns3:TrackPointExtension>
            <ns3:atemp>23.0</ns3:atemp>
          </ns3:TrackPointExtension>
        </extensions>
      </trkpt>
      <trkpt lat="42.51219590194523334503173828125" lon="19.9836941622197628021240234375">
        <ele>1632.5999755859375</ele>
        <time>2026-06-19T08:23:46.000Z</time>
        <extensions>
          <ns3:TrackPointExtension>
            <ns3:atemp>23.0</ns3:atemp>
          </ns3:TrackPointExtension>
        </extensions>
      </trkpt>
      <trkpt lat="42.5122174434363842010498046875" lon="19.9836757220327854156494140625">
        <ele>1632.5999755859375</ele>
        <time>2026-06-19T08:23:47.000Z</time>
        <extensions>
          <ns3:TrackPointExtension>
            <ns3:atemp>23.0</ns3:atemp>
          </ns3:TrackPointExtension>
        </extensions>
      </trkpt>
      <trkpt lat="42.5122318603098392486572265625" lon="19.98366038314998149871826171875">
        <ele>1632.800048828125</ele>
        <time>2026-06-19T08:23:48.000Z</time>
        <extensions>
          <ns3:TrackPointExtension>
            <ns3:atemp>23.0</ns3:atemp>
          </ns3:TrackPointExtension>
        </extensions>
      </trkpt>
      <trkpt lat="42.51223965547978878021240234375" lon="19.983658455312252044677734375">
        <ele>1632.800048828125</ele>
        <time>2026-06-19T08:23:49.000Z</time>
        <extensions>
          <ns3:TrackPointExtension>
            <ns3:atemp>23.0</ns3:atemp>
          </ns3:TrackPointExtension>
        </extensions>
      </trkpt>
      <trkpt lat="42.51224367879331111907958984375" lon="19.98364873230457305908203125">
        <ele>1632.800048828125</ele>
        <time>2026-06-19T08:23:50.000Z</time>
        <extensions>
          <ns3:TrackPointExtension>
            <ns3:atemp>23.0</ns3:atemp>
          </ns3:TrackPointExtension>
        </extensions>
      </trkpt>
      <trkpt lat="42.5122439302504062652587890625" lon="19.9836344830691814422607421875">
        <ele>1632.800048828125</ele>
        <time>2026-06-19T08:23:51.000Z</time>
        <extensions>
          <ns3:TrackPointExtension>
            <ns3:atemp>23.0</ns3:atemp>
          </ns3:TrackPointExtension>
        </extensions>
      </trkpt>
      <trkpt lat="42.512250803411006927490234375" lon="19.9836301244795322418212890625">
        <ele>1633</ele>
        <time>2026-06-19T08:23:52.000Z</time>
        <extensions>
          <ns3:TrackPointExtension>
            <ns3:atemp>23.0</ns3:atemp>
          </ns3:TrackPointExtension>
        </extensions>
      </trkpt>
      <trkpt lat="42.51226228661835193634033203125" lon="19.9836344830691814422607421875">
        <ele>1633</ele>
        <time>2026-06-19T08:23:53.000Z</time>
        <extensions>
          <ns3:TrackPointExtension>
            <ns3:atemp>23.0</ns3:atemp>
          </ns3:TrackPointExtension>
        </extensions>
      </trkpt>
      <trkpt lat="42.51226463355123996734619140625" lon="19.9836405180394649505615234375">
        <ele>1633</ele>
        <time>2026-06-19T08:23:54.000Z</time>
        <extensions>
          <ns3:TrackPointExtension>
            <ns3:atemp>23.0</ns3:atemp>
          </ns3:TrackPointExtension>
        </extensions>
      </trkpt>
      <trkpt lat="42.512268237769603729248046875" lon="19.98365216888487339019775390625">
        <ele>1633</ele>
        <time>2026-06-19T08:23:55.000Z</time>
        <extensions>
          <ns3:TrackPointExtension>
            <ns3:atemp>23.0</ns3:atemp>
          </ns3:TrackPointExtension>
        </extensions>
      </trkpt>
      <trkpt lat="42.512274272739887237548828125" lon="19.9836547672748565673828125">
        <ele>1632.800048828125</ele>
        <time>2026-06-19T08:23:56.000Z</time>
        <extensions>
          <ns3:TrackPointExtension>
            <ns3:atemp>23.0</ns3:atemp>
          </ns3:TrackPointExtension>
        </extensions>
      </trkpt>
      <trkpt lat="42.5122737698256969451904296875" lon="19.98365367762744426727294921875">
        <ele>1632.800048828125</ele>
        <time>2026-06-19T08:23:57.000Z</time>
        <extensions>
          <ns3:TrackPointExtension>
            <ns3:atemp>23.0</ns3:atemp>
          </ns3:TrackPointExtension>
        </extensions>
      </trkpt>
      <trkpt lat="42.51227326691150665283203125" lon="19.98365485109388828277587890625">
        <ele>1632.800048828125</ele>
        <time>2026-06-19T08:23:58.000Z</time>
        <extensions>
          <ns3:TrackPointExtension>
            <ns3:atemp>23.0</ns3:atemp>
          </ns3:TrackPointExtension>
        </extensions>
      </trkpt>
      <trkpt lat="42.51227326691150665283203125" lon="19.9836547672748565673828125">
        <ele>1632.800048828125</ele>
        <time>2026-06-19T08:23:59.000Z</time>
        <extensions>
          <ns3:TrackPointExtension>
            <ns3:atemp>23.0</ns3:atemp>
          </ns3:TrackPointExtension>
        </extensions>
      </trkpt>
      <trkpt lat="42.51227326691150665283203125" lon="19.9836547672748565673828125">
        <ele>1632.800048828125</ele>
        <time>2026-06-19T08:24:00.000Z</time>
        <extensions>
          <ns3:TrackPointExtension>
            <ns3:atemp>23.0</ns3:atemp>
          </ns3:TrackPointExtension>
        </extensions>
      </trkpt>
      <trkpt lat="42.51227326691150665283203125" lon="19.9836547672748565673828125">
        <ele>1632.800048828125</ele>
        <time>2026-06-19T08:24:01.000Z</time>
        <extensions>
          <ns3:TrackPointExtension>
            <ns3:atemp>23.0</ns3:atemp>
          </ns3:TrackPointExtension>
        </extensions>
      </trkpt>
      <trkpt lat="42.51227326691150665283203125" lon="19.9836547672748565673828125">
        <ele>1633</ele>
        <time>2026-06-19T08:24:02.000Z</time>
        <extensions>
          <ns3:TrackPointExtension>
            <ns3:atemp>23.0</ns3:atemp>
          </ns3:TrackPointExtension>
        </extensions>
      </trkpt>
      <trkpt lat="42.51227326691150665283203125" lon="19.9836547672748565673828125">
        <ele>1633</ele>
        <time>2026-06-19T08:24:03.000Z</time>
        <extensions>
          <ns3:TrackPointExtension>
            <ns3:atemp>23.0</ns3:atemp>
          </ns3:TrackPointExtension>
        </extensions>
      </trkpt>
      <trkpt lat="42.51227351836860179901123046875" lon="19.98365468345582485198974609375">
        <ele>1633</ele>
        <time>2026-06-19T08:24:04.000Z</time>
        <extensions>
          <ns3:TrackPointExtension>
            <ns3:atemp>23.0</ns3:atemp>
          </ns3:TrackPointExtension>
        </extensions>
      </trkpt>
      <trkpt lat="42.51227058470249176025390625" lon="19.983660466969013214111328125">
        <ele>1633.199951171875</ele>
        <time>2026-06-19T08:24:05.000Z</time>
        <extensions>
          <ns3:TrackPointExtension>
            <ns3:atemp>23.0</ns3:atemp>
          </ns3:TrackPointExtension>
        </extensions>
      </trkpt>
      <trkpt lat="42.51226563937962055206298828125" lon="19.98367153108119964599609375">
        <ele>1633.199951171875</ele>
        <time>2026-06-19T08:24:06.000Z</time>
        <extensions>
          <ns3:TrackPointExtension>
            <ns3:atemp>23.0</ns3:atemp>
          </ns3:TrackPointExtension>
        </extensions>
      </trkpt>
      <trkpt lat="42.51225742511451244354248046875" lon="19.98367630876600742340087890625">
        <ele>1633.4000244140625</ele>
        <time>2026-06-19T08:24:07.000Z</time>
        <extensions>
          <ns3:TrackPointExtension>
            <ns3:atemp>23.0</ns3:atemp>
          </ns3:TrackPointExtension>
        </extensions>
      </trkpt>
      <trkpt lat="42.51224652864038944244384765625" lon="19.9836663343012332916259765625">
        <ele>1633.4000244140625</ele>
        <time>2026-06-19T08:24:08.000Z</time>
        <extensions>
          <ns3:TrackPointExtension>
            <ns3:atemp>23.0</ns3:atemp>
          </ns3:TrackPointExtension>
        </extensions>
      </trkpt>
      <trkpt lat="42.51223915256559848785400390625" lon="19.98364697210490703582763671875">
        <ele>1633.4000244140625</ele>
        <time>2026-06-19T08:24:09.000Z</time>
        <extensions>
          <ns3:TrackPointExtension>
            <ns3:atemp>23.0</ns3:atemp>
          </ns3:TrackPointExtension>
        </extensions>
      </trkpt>
      <trkpt lat="42.512226998805999755859375" lon="19.98363205231726169586181640625">
        <ele>1633.4000244140625</ele>
        <time>2026-06-19T08:24:10.000Z</time>
        <extensions>
          <ns3:TrackPointExtension>
            <ns3:atemp>23.0</ns3:atemp>
          </ns3:TrackPointExtension>
        </extensions>
      </trkpt>
      <trkpt lat="42.5122083909809589385986328125" lon="19.9836294539272785186767578125">
        <ele>1633.4000244140625</ele>
        <time>2026-06-19T08:24:11.000Z</time>
        <extensions>
          <ns3:TrackPointExtension>
            <ns3:atemp>23.0</ns3:atemp>
          </ns3:TrackPointExtension>
        </extensions>
      </trkpt>
      <trkpt lat="42.5121909566223621368408203125" lon="19.98364076949656009674072265625">
        <ele>1633.4000244140625</ele>
        <time>2026-06-19T08:24:12.000Z</time>
        <extensions>
          <ns3:TrackPointExtension>
            <ns3:atemp>23.0</ns3:atemp>
          </ns3:TrackPointExtension>
        </extensions>
      </trkpt>
      <trkpt lat="42.51218073070049285888671875" lon="19.98366490937769412994384765625">
        <ele>1633.199951171875</ele>
        <time>2026-06-19T08:24:13.000Z</time>
        <extensions>
          <ns3:TrackPointExtension>
            <ns3:atemp>23.0</ns3:atemp>
          </ns3:TrackPointExtension>
        </extensions>
      </trkpt>
      <trkpt lat="42.51217746175825595855712890625" lon="19.98368921689689159393310546875">
        <ele>1633.199951171875</ele>
        <time>2026-06-19T08:24:14.000Z</time>
        <extensions>
          <ns3:TrackPointExtension>
            <ns3:atemp>23.0</ns3:atemp>
          </ns3:TrackPointExtension>
        </extensions>
      </trkpt>
      <trkpt lat="42.51218165270984172821044921875" lon="19.983700700104236602783203125">
        <ele>1633</ele>
        <time>2026-06-19T08:24:15.000Z</time>
        <extensions>
          <ns3:TrackPointExtension>
            <ns3:atemp>23.0</ns3:atemp>
          </ns3:TrackPointExtension>
        </extensions>
      </trkpt>
      <trkpt lat="42.51219120807945728302001953125" lon="19.9837048910558223724365234375">
        <ele>1633</ele>
        <time>2026-06-19T08:24:16.000Z</time>
        <extensions>
          <ns3:TrackPointExtension>
            <ns3:atemp>23.0</ns3:atemp>
          </ns3:TrackPointExtension>
        </extensions>
      </trkpt>
      <trkpt lat="42.5121983326971530914306640625" lon="19.98370430432260036468505859375">
        <ele>1633</ele>
        <time>2026-06-19T08:24:17.000Z</time>
        <extensions>
          <ns3:TrackPointExtension>
            <ns3:atemp>23.0</ns3:atemp>
          </ns3:TrackPointExtension>
        </extensions>
      </trkpt>
      <trkpt lat="42.51220461912453174591064453125" lon="19.98370665125548839569091796875">
        <ele>1633</ele>
        <time>2026-06-19T08:24:18.000Z</time>
        <extensions>
          <ns3:TrackPointExtension>
            <ns3:atemp>23.0</ns3:atemp>
          </ns3:TrackPointExtension>
        </extensions>
      </trkpt>
      <trkpt lat="42.5122202932834625244140625" lon="19.9837082438170909881591796875">
        <ele>1633</ele>
        <time>2026-06-19T08:24:19.000Z</time>
        <extensions>
          <ns3:TrackPointExtension>
            <ns3:atemp>23.0</ns3:atemp>
          </ns3:TrackPointExtension>
        </extensions>
      </trkpt>
      <trkpt lat="42.51223194412887096405029296875" lon="19.98370505869388580322265625">
        <ele>1633.199951171875</ele>
        <time>2026-06-19T08:24:20.000Z</time>
        <extensions>
          <ns3:TrackPointExtension>
            <ns3:atemp>23.0</ns3:atemp>
          </ns3:TrackPointExtension>
        </extensions>
      </trkpt>
      <trkpt lat="42.51223093830049037933349609375" lon="19.98369407840073108673095703125">
        <ele>1633.4000244140625</ele>
        <time>2026-06-19T08:24:21.000Z</time>
        <extensions>
          <ns3:TrackPointExtension>
            <ns3:atemp>23.0</ns3:atemp>
          </ns3:TrackPointExtension>
        </extensions>
      </trkpt>
      <trkpt lat="42.51223647035658359527587890625" lon="19.98368418775498867034912109375">
        <ele>1633.4000244140625</ele>
        <time>2026-06-19T08:24:22.000Z</time>
        <extensions>
          <ns3:TrackPointExtension>
            <ns3:atemp>23.0</ns3:atemp>
          </ns3:TrackPointExtension>
        </extensions>
      </trkpt>
      <trkpt lat="42.51223613508045673370361328125" lon="19.983681924641132354736328125">
        <ele>1633.4000244140625</ele>
        <time>2026-06-19T08:24:23.000Z</time>
        <extensions>
          <ns3:TrackPointExtension>
            <ns3:atemp>23.0</ns3:atemp>
          </ns3:TrackPointExtension>
        </extensions>
      </trkpt>
      <trkpt lat="42.51223714090883731842041015625" lon="19.98367823660373687744140625">
        <ele>1633.199951171875</ele>
        <time>2026-06-19T08:24:24.000Z</time>
        <extensions>
          <ns3:TrackPointExtension>
            <ns3:atemp>23.0</ns3:atemp>
          </ns3:TrackPointExtension>
        </extensions>
      </trkpt>
      <trkpt lat="42.512236721813678741455078125" lon="19.983678571879863739013671875">
        <ele>1633</ele>
        <time>2026-06-19T08:24:25.000Z</time>
        <extensions>
          <ns3:TrackPointExtension>
            <ns3:atemp>23.0</ns3:atemp>
          </ns3:TrackPointExtension>
        </extensions>
      </trkpt>
      <trkpt lat="42.512236721813678741455078125" lon="19.983678571879863739013671875">
        <ele>1632.800048828125</ele>
        <time>2026-06-19T08:24:26.000Z</time>
        <extensions>
          <ns3:TrackPointExtension>
            <ns3:atemp>23.0</ns3:atemp>
          </ns3:TrackPointExtension>
        </extensions>
      </trkpt>
      <trkpt lat="42.512236721813678741455078125" lon="19.983678571879863739013671875">
        <ele>1632.800048828125</ele>
        <time>2026-06-19T08:24:27.000Z</time>
        <extensions>
          <ns3:TrackPointExtension>
            <ns3:atemp>23.0</ns3:atemp>
          </ns3:TrackPointExtension>
        </extensions>
      </trkpt>
      <trkpt lat="42.512236721813678741455078125" lon="19.983678571879863739013671875">
        <ele>1633</ele>
        <time>2026-06-19T08:24:28.000Z</time>
        <extensions>
          <ns3:TrackPointExtension>
            <ns3:atemp>23.0</ns3:atemp>
          </ns3:TrackPointExtension>
        </extensions>
      </trkpt>
      <trkpt lat="42.512236721813678741455078125" lon="19.983678571879863739013671875">
        <ele>1633</ele>
        <time>2026-06-19T08:24:29.000Z</time>
        <extensions>
          <ns3:TrackPointExtension>
            <ns3:atemp>23.0</ns3:atemp>
          </ns3:TrackPointExtension>
        </extensions>
      </trkpt>
      <trkpt lat="42.512236721813678741455078125" lon="19.983678571879863739013671875">
        <ele>1633</ele>
        <time>2026-06-19T08:24:30.000Z</time>
        <extensions>
          <ns3:TrackPointExtension>
            <ns3:atemp>23.0</ns3:atemp>
          </ns3:TrackPointExtension>
        </extensions>
      </trkpt>
      <trkpt lat="42.512236721813678741455078125" lon="19.983678571879863739013671875">
        <ele>1633</ele>
        <time>2026-06-19T08:24:31.000Z</time>
        <extensions>
          <ns3:TrackPointExtension>
            <ns3:atemp>23.0</ns3:atemp>
          </ns3:TrackPointExtension>
        </extensions>
      </trkpt>
      <trkpt lat="42.512236721813678741455078125" lon="19.983678571879863739013671875">
        <ele>1633</ele>
        <time>2026-06-19T08:24:32.000Z</time>
        <extensions>
          <ns3:TrackPointExtension>
            <ns3:atemp>23.0</ns3:atemp>
          </ns3:TrackPointExtension>
        </extensions>
      </trkpt>
      <trkpt lat="42.512236721813678741455078125" lon="19.983678571879863739013671875">
        <ele>1633</ele>
        <time>2026-06-19T08:24:33.000Z</time>
        <extensions>
          <ns3:TrackPointExtension>
            <ns3:atemp>23.0</ns3:atemp>
          </ns3:TrackPointExtension>
        </extensions>
      </trkpt>
      <trkpt lat="42.512236721813678741455078125" lon="19.983678571879863739013671875">
        <ele>1633</ele>
        <time>2026-06-19T08:24:34.000Z</time>
        <extensions>
          <ns3:TrackPointExtension>
            <ns3:atemp>23.0</ns3:atemp>
          </ns3:TrackPointExtension>
        </extensions>
      </trkpt>
      <trkpt lat="42.512236721813678741455078125" lon="19.983678571879863739013671875">
        <ele>1633</ele>
        <time>2026-06-19T08:24:35.000Z</time>
        <extensions>
          <ns3:TrackPointExtension>
            <ns3:atemp>23.0</ns3:atemp>
          </ns3:TrackPointExtension>
        </extensions>
      </trkpt>
      <trkpt lat="42.512236721813678741455078125" lon="19.983678571879863739013671875">
        <ele>1633</ele>
        <time>2026-06-19T08:24:36.000Z</time>
        <extensions>
          <ns3:TrackPointExtension>
            <ns3:atemp>23.0</ns3:atemp>
          </ns3:TrackPointExtension>
        </extensions>
      </trkpt>
      <trkpt lat="42.512236721813678741455078125" lon="19.983678571879863739013671875">
        <ele>1633</ele>
        <time>2026-06-19T08:24:37.000Z</time>
        <extensions>
          <ns3:TrackPointExtension>
            <ns3:atemp>23.0</ns3:atemp>
          </ns3:TrackPointExtension>
        </extensions>
      </trkpt>
      <trkpt lat="42.51223630271852016448974609375" lon="19.98367957770824432373046875">
        <ele>1632.800048828125</ele>
        <time>2026-06-19T08:24:38.000Z</time>
        <extensions>
          <ns3:TrackPointExtension>
            <ns3:atemp>23.0</ns3:atemp>
          </ns3:TrackPointExtension>
        </extensions>
      </trkpt>
      <trkpt lat="42.5122402422130107879638671875" lon="19.983688630163669586181640625">
        <ele>1632.800048828125</ele>
        <time>2026-06-19T08:24:39.000Z</time>
        <extensions>
          <ns3:TrackPointExtension>
            <ns3:atemp>23.0</ns3:atemp>
          </ns3:TrackPointExtension>
        </extensions>
      </trkpt>
      <trkpt lat="42.51224703155457973480224609375" lon="19.983689300715923309326171875">
        <ele>1632.800048828125</ele>
        <time>2026-06-19T08:24:40.000Z</time>
        <extensions>
          <ns3:TrackPointExtension>
            <ns3:atemp>23.0</ns3:atemp>
          </ns3:TrackPointExtension>
        </extensions>
      </trkpt>
      <trkpt lat="42.512254826724529266357421875" lon="19.9836911447346210479736328125">
        <ele>1632.800048828125</ele>
        <time>2026-06-19T08:24:41.000Z</time>
        <extensions>
          <ns3:TrackPointExtension>
            <ns3:atemp>23.0</ns3:atemp>
          </ns3:TrackPointExtension>
        </extensions>
      </trkpt>
      <trkpt lat="42.5122627057135105133056640625" lon="19.98369139619171619415283203125">
        <ele>1632.5999755859375</ele>
        <time>2026-06-19T08:24:42.000Z</time>
        <extensions>
          <ns3:TrackPointExtension>
            <ns3:atemp>23.0</ns3:atemp>
          </ns3:TrackPointExtension>
        </extensions>
      </trkpt>
      <trkpt lat="42.5122725963592529296875" lon="19.9836909770965576171875">
        <ele>1632.4000244140625</ele>
        <time>2026-06-19T08:24:43.000Z</time>
        <extensions>
          <ns3:TrackPointExtension>
            <ns3:atemp>23.0</ns3:atemp>
          </ns3:TrackPointExtension>
        </extensions>
      </trkpt>
      <trkpt lat="42.51227997243404388427734375" lon="19.9836904741823673248291015625">
        <ele>1632.4000244140625</ele>
        <time>2026-06-19T08:24:44.000Z</time>
        <extensions>
          <ns3:TrackPointExtension>
            <ns3:atemp>23.0</ns3:atemp>
          </ns3:TrackPointExtension>
        </extensions>
      </trkpt>
      <trkpt lat="42.5122838281095027923583984375" lon="19.9836874566972255706787109375">
        <ele>1632.4000244140625</ele>
        <time>2026-06-19T08:24:45.000Z</time>
        <extensions>
          <ns3:TrackPointExtension>
            <ns3:atemp>23.0</ns3:atemp>
          </ns3:TrackPointExtension>
        </extensions>
      </trkpt>
      <trkpt lat="42.5122838281095027923583984375" lon="19.98368737287819385528564453125">
        <ele>1632.4000244140625</ele>
        <time>2026-06-19T08:24:46.000Z</time>
        <extensions>
          <ns3:TrackPointExtension>
            <ns3:atemp>23.0</ns3:atemp>
          </ns3:TrackPointExtension>
        </extensions>
      </trkpt>
      <trkpt lat="42.5122838281095027923583984375" lon="19.98368737287819385528564453125">
        <ele>1632.5999755859375</ele>
        <time>2026-06-19T08:24:47.000Z</time>
        <extensions>
          <ns3:TrackPointExtension>
            <ns3:atemp>23.0</ns3:atemp>
          </ns3:TrackPointExtension>
        </extensions>
      </trkpt>
      <trkpt lat="42.5122838281095027923583984375" lon="19.98368737287819385528564453125">
        <ele>1632.5999755859375</ele>
        <time>2026-06-19T08:24:48.000Z</time>
        <extensions>
          <ns3:TrackPointExtension>
            <ns3:atemp>23.0</ns3:atemp>
          </ns3:TrackPointExtension>
        </extensions>
      </trkpt>
      <trkpt lat="42.5122838281095027923583984375" lon="19.98368737287819385528564453125">
        <ele>1632.800048828125</ele>
        <time>2026-06-19T08:24:49.000Z</time>
        <extensions>
          <ns3:TrackPointExtension>
            <ns3:atemp>23.0</ns3:atemp>
          </ns3:TrackPointExtension>
        </extensions>
      </trkpt>
      <trkpt lat="42.5122838281095027923583984375" lon="19.98368737287819385528564453125">
        <ele>1632.800048828125</ele>
        <time>2026-06-19T08:24:50.000Z</time>
        <extensions>
          <ns3:TrackPointExtension>
            <ns3:atemp>23.0</ns3:atemp>
          </ns3:TrackPointExtension>
        </extensions>
      </trkpt>
      <trkpt lat="42.5122838281095027923583984375" lon="19.98368737287819385528564453125">
        <ele>1632.800048828125</ele>
        <time>2026-06-19T08:24:51.000Z</time>
        <extensions>
          <ns3:TrackPointExtension>
            <ns3:atemp>23.0</ns3:atemp>
          </ns3:TrackPointExtension>
        </extensions>
      </trkpt>
      <trkpt lat="42.5122838281095027923583984375" lon="19.98368737287819385528564453125">
        <ele>1632.800048828125</ele>
        <time>2026-06-19T08:24:52.000Z</time>
        <extensions>
          <ns3:TrackPointExtension>
            <ns3:atemp>23.0</ns3:atemp>
          </ns3:TrackPointExtension>
        </extensions>
      </trkpt>
      <trkpt lat="42.5122838281095027923583984375" lon="19.98368737287819385528564453125">
        <ele>1632.5999755859375</ele>
        <time>2026-06-19T08:24:53.000Z</time>
        <extensions>
          <ns3:TrackPointExtension>
            <ns3:atemp>23.0</ns3:atemp>
          </ns3:TrackPointExtension>
        </extensions>
      </trkpt>
      <trkpt lat="42.5122838281095027923583984375" lon="19.98368737287819385528564453125">
        <ele>1632.5999755859375</ele>
        <time>2026-06-19T08:24:54.000Z</time>
        <extensions>
          <ns3:TrackPointExtension>
            <ns3:atemp>23.0</ns3:atemp>
          </ns3:TrackPointExtension>
        </extensions>
      </trkpt>
      <trkpt lat="42.5122838281095027923583984375" lon="19.98368737287819385528564453125">
        <ele>1632.5999755859375</ele>
        <time>2026-06-19T08:24:55.000Z</time>
        <extensions>
          <ns3:TrackPointExtension>
            <ns3:atemp>23.0</ns3:atemp>
          </ns3:TrackPointExtension>
        </extensions>
      </trkpt>
      <trkpt lat="42.5122838281095027923583984375" lon="19.98368737287819385528564453125">
        <ele>1632.5999755859375</ele>
        <time>2026-06-19T08:24:56.000Z</time>
        <extensions>
          <ns3:TrackPointExtension>
            <ns3:atemp>23.0</ns3:atemp>
          </ns3:TrackPointExtension>
        </extensions>
      </trkpt>
      <trkpt lat="42.5122838281095027923583984375" lon="19.98368737287819385528564453125">
        <ele>1632.5999755859375</ele>
        <time>2026-06-19T08:24:57.000Z</time>
        <extensions>
          <ns3:TrackPointExtension>
            <ns3:atemp>23.0</ns3:atemp>
          </ns3:TrackPointExtension>
        </extensions>
      </trkpt>
      <trkpt lat="42.5122838281095027923583984375" lon="19.98368737287819385528564453125">
        <ele>1632.5999755859375</ele>
        <time>2026-06-19T08:24:58.000Z</time>
        <extensions>
          <ns3:TrackPointExtension>
            <ns3:atemp>23.0</ns3:atemp>
          </ns3:TrackPointExtension>
        </extensions>
      </trkpt>
      <trkpt lat="42.5122838281095027923583984375" lon="19.98368737287819385528564453125">
        <ele>1632.800048828125</ele>
        <time>2026-06-19T08:24:59.000Z</time>
        <extensions>
          <ns3:TrackPointExtension>
            <ns3:atemp>23.0</ns3:atemp>
          </ns3:TrackPointExtension>
        </extensions>
      </trkpt>
      <trkpt lat="42.5122838281095027923583984375" lon="19.98368737287819385528564453125">
        <ele>1632.800048828125</ele>
        <time>2026-06-19T08:25:00.000Z</time>
        <extensions>
          <ns3:TrackPointExtension>
            <ns3:atemp>23.0</ns3:atemp>
          </ns3:TrackPointExtension>
        </extensions>
      </trkpt>
      <trkpt lat="42.5122838281095027923583984375" lon="19.98368737287819385528564453125">
        <ele>1632.800048828125</ele>
        <time>2026-06-19T08:25:01.000Z</time>
        <extensions>
          <ns3:TrackPointExtension>
            <ns3:atemp>23.0</ns3:atemp>
          </ns3:TrackPointExtension>
        </extensions>
      </trkpt>
      <trkpt lat="42.5122838281095027923583984375" lon="19.98368737287819385528564453125">
        <ele>1632.800048828125</ele>
        <time>2026-06-19T08:25:02.000Z</time>
        <extensions>
          <ns3:TrackPointExtension>
            <ns3:atemp>23.0</ns3:atemp>
          </ns3:TrackPointExtension>
        </extensions>
      </trkpt>
      <trkpt lat="42.5122838281095027923583984375" lon="19.98368737287819385528564453125">
        <ele>1632.800048828125</ele>
        <time>2026-06-19T08:25:03.000Z</time>
        <extensions>
          <ns3:TrackPointExtension>
            <ns3:atemp>23.0</ns3:atemp>
          </ns3:TrackPointExtension>
        </extensions>
      </trkpt>
      <trkpt lat="42.5122838281095027923583984375" lon="19.98368737287819385528564453125">
        <ele>1632.800048828125</ele>
        <time>2026-06-19T08:25:04.000Z</time>
        <extensions>
          <ns3:TrackPointExtension>
            <ns3:atemp>23.0</ns3:atemp>
          </ns3:TrackPointExtension>
        </extensions>
      </trkpt>
      <trkpt lat="42.5122838281095027923583984375" lon="19.98368737287819385528564453125">
        <ele>1632.800048828125</ele>
        <time>2026-06-19T08:25:05.000Z</time>
        <extensions>
          <ns3:TrackPointExtension>
            <ns3:atemp>23.0</ns3:atemp>
          </ns3:TrackPointExtension>
        </extensions>
      </trkpt>
      <trkpt lat="42.5122838281095027923583984375" lon="19.98368737287819385528564453125">
        <ele>1632.800048828125</ele>
        <time>2026-06-19T08:25:06.000Z</time>
        <extensions>
          <ns3:TrackPointExtension>
            <ns3:atemp>23.0</ns3:atemp>
          </ns3:TrackPointExtension>
        </extensions>
      </trkpt>
      <trkpt lat="42.5122838281095027923583984375" lon="19.98368737287819385528564453125">
        <ele>1632.800048828125</ele>
        <time>2026-06-19T08:25:07.000Z</time>
        <extensions>
          <ns3:TrackPointExtension>
            <ns3:atemp>23.0</ns3:atemp>
          </ns3:TrackPointExtension>
        </extensions>
      </trkpt>
      <trkpt lat="42.5122838281095027923583984375" lon="19.98368737287819385528564453125">
        <ele>1632.800048828125</ele>
        <time>2026-06-19T08:25:08.000Z</time>
        <extensions>
          <ns3:TrackPointExtension>
            <ns3:atemp>23.0</ns3:atemp>
          </ns3:TrackPointExtension>
        </extensions>
      </trkpt>
      <trkpt lat="42.5122838281095027923583984375" lon="19.98368737287819385528564453125">
        <ele>1632.800048828125</ele>
        <time>2026-06-19T08:25:09.000Z</time>
        <extensions>
          <ns3:TrackPointExtension>
            <ns3:atemp>23.0</ns3:atemp>
          </ns3:TrackPointExtension>
        </extensions>
      </trkpt>
      <trkpt lat="42.5122838281095027923583984375" lon="19.98368737287819385528564453125">
        <ele>1632.800048828125</ele>
        <time>2026-06-19T08:25:10.000Z</time>
        <extensions>
          <ns3:TrackPointExtension>
            <ns3:atemp>23.0</ns3:atemp>
          </ns3:TrackPointExtension>
        </extensions>
      </trkpt>
      <trkpt lat="42.5122838281095027923583984375" lon="19.98368737287819385528564453125">
        <ele>1632.800048828125</ele>
        <time>2026-06-19T08:25:11.000Z</time>
        <extensions>
          <ns3:TrackPointExtension>
            <ns3:atemp>23.0</ns3:atemp>
          </ns3:TrackPointExtension>
        </extensions>
      </trkpt>
      <trkpt lat="42.5122838281095027923583984375" lon="19.98368737287819385528564453125">
        <ele>1632.800048828125</ele>
        <time>2026-06-19T08:25:12.000Z</time>
        <extensions>
          <ns3:TrackPointExtension>
            <ns3:atemp>23.0</ns3:atemp>
          </ns3:TrackPointExtension>
        </extensions>
      </trkpt>
      <trkpt lat="42.5122838281095027923583984375" lon="19.98368737287819385528564453125">
        <ele>1632.5999755859375</ele>
        <time>2026-06-19T08:25:13.000Z</time>
        <extensions>
          <ns3:TrackPointExtension>
            <ns3:atemp>23.0</ns3:atemp>
          </ns3:TrackPointExtension>
        </extensions>
      </trkpt>
      <trkpt lat="42.5122838281095027923583984375" lon="19.98368737287819385528564453125">
        <ele>1632.5999755859375</ele>
        <time>2026-06-19T08:25:14.000Z</time>
        <extensions>
          <ns3:TrackPointExtension>
            <ns3:atemp>23.0</ns3:atemp>
          </ns3:TrackPointExtension>
        </extensions>
      </trkpt>
      <trkpt lat="42.5122838281095027923583984375" lon="19.98368737287819385528564453125">
        <ele>1632.5999755859375</ele>
        <time>2026-06-19T08:25:15.000Z</time>
        <extensions>
          <ns3:TrackPointExtension>
            <ns3:atemp>23.0</ns3:atemp>
          </ns3:TrackPointExtension>
        </extensions>
      </trkpt>
      <trkpt lat="42.5122838281095027923583984375" lon="19.98368737287819385528564453125">
        <ele>1632.5999755859375</ele>
        <time>2026-06-19T08:25:16.000Z</time>
        <extensions>
          <ns3:TrackPointExtension>
            <ns3:atemp>23.0</ns3:atemp>
          </ns3:TrackPointExtension>
        </extensions>
      </trkpt>
      <trkpt lat="42.5122838281095027923583984375" lon="19.98368737287819385528564453125">
        <ele>1632.5999755859375</ele>
        <time>2026-06-19T08:25:17.000Z</time>
        <extensions>
          <ns3:TrackPointExtension>
            <ns3:atemp>23.0</ns3:atemp>
          </ns3:TrackPointExtension>
        </extensions>
      </trkpt>
      <trkpt lat="42.5122838281095027923583984375" lon="19.98368737287819385528564453125">
        <ele>1632.5999755859375</ele>
        <time>2026-06-19T08:25:18.000Z</time>
        <extensions>
          <ns3:TrackPointExtension>
            <ns3:atemp>23.0</ns3:atemp>
          </ns3:TrackPointExtension>
        </extensions>
      </trkpt>
      <trkpt lat="42.5122838281095027923583984375" lon="19.98368737287819385528564453125">
        <ele>1632.5999755859375</ele>
        <time>2026-06-19T08:25:19.000Z</time>
        <extensions>
          <ns3:TrackPointExtension>
            <ns3:atemp>23.0</ns3:atemp>
          </ns3:TrackPointExtension>
        </extensions>
      </trkpt>
      <trkpt lat="42.5122838281095027923583984375" lon="19.98368737287819385528564453125">
        <ele>1632.5999755859375</ele>
        <time>2026-06-19T08:25:20.000Z</time>
        <extensions>
          <ns3:TrackPointExtension>
            <ns3:atemp>23.0</ns3:atemp>
          </ns3:TrackPointExtension>
        </extensions>
      </trkpt>
      <trkpt lat="42.5122838281095027923583984375" lon="19.98368737287819385528564453125">
        <ele>1632.5999755859375</ele>
        <time>2026-06-19T08:25:21.000Z</time>
        <extensions>
          <ns3:TrackPointExtension>
            <ns3:atemp>23.0</ns3:atemp>
          </ns3:TrackPointExtension>
        </extensions>
      </trkpt>
      <trkpt lat="42.5122838281095027923583984375" lon="19.98368737287819385528564453125">
        <ele>1632.5999755859375</ele>
        <time>2026-06-19T08:25:22.000Z</time>
        <extensions>
          <ns3:TrackPointExtension>
            <ns3:atemp>23.0</ns3:atemp>
          </ns3:TrackPointExtension>
        </extensions>
      </trkpt>
      <trkpt lat="42.5122838281095027923583984375" lon="19.98368737287819385528564453125">
        <ele>1632.5999755859375</ele>
        <time>2026-06-19T08:25:23.000Z</time>
        <extensions>
          <ns3:TrackPointExtension>
            <ns3:atemp>23.0</ns3:atemp>
          </ns3:TrackPointExtension>
        </extensions>
      </trkpt>
      <trkpt lat="42.5122838281095027923583984375" lon="19.98368737287819385528564453125">
        <ele>1632.5999755859375</ele>
        <time>2026-06-19T08:25:24.000Z</time>
        <extensions>
          <ns3:TrackPointExtension>
            <ns3:atemp>23.0</ns3:atemp>
          </ns3:TrackPointExtension>
        </extensions>
      </trkpt>
      <trkpt lat="42.5122838281095027923583984375" lon="19.98368737287819385528564453125">
        <ele>1632.5999755859375</ele>
        <time>2026-06-19T08:25:25.000Z</time>
        <extensions>
          <ns3:TrackPointExtension>
            <ns3:atemp>23.0</ns3:atemp>
          </ns3:TrackPointExtension>
        </extensions>
      </trkpt>
      <trkpt lat="42.5122838281095027923583984375" lon="19.98368737287819385528564453125">
        <ele>1632.5999755859375</ele>
        <time>2026-06-19T08:25:26.000Z</time>
        <extensions>
          <ns3:TrackPointExtension>
            <ns3:atemp>23.0</ns3:atemp>
          </ns3:TrackPointExtension>
        </extensions>
      </trkpt>
      <trkpt lat="42.5122838281095027923583984375" lon="19.98368737287819385528564453125">
        <ele>1632.5999755859375</ele>
        <time>2026-06-19T08:25:27.000Z</time>
        <extensions>
          <ns3:TrackPointExtension>
            <ns3:atemp>23.0</ns3:atemp>
          </ns3:TrackPointExtension>
        </extensions>
      </trkpt>
      <trkpt lat="42.5122838281095027923583984375" lon="19.98368737287819385528564453125">
        <ele>1632.5999755859375</ele>
        <time>2026-06-19T08:25:28.000Z</time>
        <extensions>
          <ns3:TrackPointExtension>
            <ns3:atemp>23.0</ns3:atemp>
          </ns3:TrackPointExtension>
        </extensions>
      </trkpt>
      <trkpt lat="42.5122838281095027923583984375" lon="19.98368737287819385528564453125">
        <ele>1632.5999755859375</ele>
        <time>2026-06-19T08:25:29.000Z</time>
        <extensions>
          <ns3:TrackPointExtension>
            <ns3:atemp>23.0</ns3:atemp>
          </ns3:TrackPointExtension>
        </extensions>
      </trkpt>
      <trkpt lat="42.5122838281095027923583984375" lon="19.98368737287819385528564453125">
        <ele>1632.5999755859375</ele>
        <time>2026-06-19T08:25:30.000Z</time>
        <extensions>
          <ns3:TrackPointExtension>
            <ns3:atemp>23.0</ns3:atemp>
          </ns3:TrackPointExtension>
        </extensions>
      </trkpt>
      <trkpt lat="42.5122838281095027923583984375" lon="19.98368737287819385528564453125">
        <ele>1632.5999755859375</ele>
        <time>2026-06-19T08:25:31.000Z</time>
        <extensions>
          <ns3:TrackPointExtension>
            <ns3:atemp>23.0</ns3:atemp>
          </ns3:TrackPointExtension>
        </extensions>
      </trkpt>
      <trkpt lat="42.5122838281095027923583984375" lon="19.98368737287819385528564453125">
        <ele>1632.5999755859375</ele>
        <time>2026-06-19T08:25:32.000Z</time>
        <extensions>
          <ns3:TrackPointExtension>
            <ns3:atemp>22.0</ns3:atemp>
          </ns3:TrackPointExtension>
        </extensions>
      </trkpt>
      <trkpt lat="42.5122838281095027923583984375" lon="19.98368737287819385528564453125">
        <ele>1632.5999755859375</ele>
        <time>2026-06-19T08:25:33.000Z</time>
        <extensions>
          <ns3:TrackPointExtension>
            <ns3:atemp>22.0</ns3:atemp>
          </ns3:TrackPointExtension>
        </extensions>
      </trkpt>
      <trkpt lat="42.5122838281095027923583984375" lon="19.98368737287819385528564453125">
        <ele>1632.5999755859375</ele>
        <time>2026-06-19T08:25:34.000Z</time>
        <extensions>
          <ns3:TrackPointExtension>
            <ns3:atemp>22.0</ns3:atemp>
          </ns3:TrackPointExtension>
        </extensions>
      </trkpt>
      <trkpt lat="42.5122838281095027923583984375" lon="19.98368737287819385528564453125">
        <ele>1632.5999755859375</ele>
        <time>2026-06-19T08:25:35.000Z</time>
        <extensions>
          <ns3:TrackPointExtension>
            <ns3:atemp>22.0</ns3:atemp>
          </ns3:TrackPointExtension>
        </extensions>
      </trkpt>
      <trkpt lat="42.5122838281095027923583984375" lon="19.98368737287819385528564453125">
        <ele>1632.5999755859375</ele>
        <time>2026-06-19T08:25:36.000Z</time>
        <extensions>
          <ns3:TrackPointExtension>
            <ns3:atemp>22.0</ns3:atemp>
          </ns3:TrackPointExtension>
        </extensions>
      </trkpt>
      <trkpt lat="42.5122838281095027923583984375" lon="19.98368737287819385528564453125">
        <ele>1632.5999755859375</ele>
        <time>2026-06-19T08:25:37.000Z</time>
        <extensions>
          <ns3:TrackPointExtension>
            <ns3:atemp>22.0</ns3:atemp>
          </ns3:TrackPointExtension>
        </extensions>
      </trkpt>
      <trkpt lat="42.5122838281095027923583984375" lon="19.98368737287819385528564453125">
        <ele>1632.5999755859375</ele>
        <time>2026-06-19T08:25:38.000Z</time>
        <extensions>
          <ns3:TrackPointExtension>
            <ns3:atemp>22.0</ns3:atemp>
          </ns3:TrackPointExtension>
        </extensions>
      </trkpt>
      <trkpt lat="42.5122838281095027923583984375" lon="19.98368737287819385528564453125">
        <ele>1632.5999755859375</ele>
        <time>2026-06-19T08:25:39.000Z</time>
        <extensions>
          <ns3:TrackPointExtension>
            <ns3:atemp>22.0</ns3:atemp>
          </ns3:TrackPointExtension>
        </extensions>
      </trkpt>
      <trkpt lat="42.5122838281095027923583984375" lon="19.98368737287819385528564453125">
        <ele>1632.5999755859375</ele>
        <time>2026-06-19T08:25:40.000Z</time>
        <extensions>
          <ns3:TrackPointExtension>
            <ns3:atemp>23.0</ns3:atemp>
          </ns3:TrackPointExtension>
        </extensions>
      </trkpt>
      <trkpt lat="42.5122838281095027923583984375" lon="19.98368737287819385528564453125">
        <ele>1632.5999755859375</ele>
        <time>2026-06-19T08:25:41.000Z</time>
        <extensions>
          <ns3:TrackPointExtension>
            <ns3:atemp>22.0</ns3:atemp>
          </ns3:TrackPointExtension>
        </extensions>
      </trkpt>
      <trkpt lat="42.5122838281095027923583984375" lon="19.98368737287819385528564453125">
        <ele>1632.5999755859375</ele>
        <time>2026-06-19T08:25:42.000Z</time>
        <extensions>
          <ns3:TrackPointExtension>
            <ns3:atemp>22.0</ns3:atemp>
          </ns3:TrackPointExtension>
        </extensions>
      </trkpt>
      <trkpt lat="42.5122838281095027923583984375" lon="19.98368737287819385528564453125">
        <ele>1632.5999755859375</ele>
        <time>2026-06-19T08:25:43.000Z</time>
        <extensions>
          <ns3:TrackPointExtension>
            <ns3:atemp>22.0</ns3:atemp>
          </ns3:TrackPointExtension>
        </extensions>
      </trkpt>
      <trkpt lat="42.5122838281095027923583984375" lon="19.98368737287819385528564453125">
        <ele>1632.5999755859375</ele>
        <time>2026-06-19T08:25:44.000Z</time>
        <extensions>
          <ns3:TrackPointExtension>
            <ns3:atemp>22.0</ns3:atemp>
          </ns3:TrackPointExtension>
        </extensions>
      </trkpt>
      <trkpt lat="42.5122838281095027923583984375" lon="19.98368737287819385528564453125">
        <ele>1632.5999755859375</ele>
        <time>2026-06-19T08:25:45.000Z</time>
        <extensions>
          <ns3:TrackPointExtension>
            <ns3:atemp>22.0</ns3:atemp>
          </ns3:TrackPointExtension>
        </extensions>
      </trkpt>
      <trkpt lat="42.5122838281095027923583984375" lon="19.98368737287819385528564453125">
        <ele>1632.5999755859375</ele>
        <time>2026-06-19T08:25:46.000Z</time>
        <extensions>
          <ns3:TrackPointExtension>
            <ns3:atemp>22.0</ns3:atemp>
          </ns3:TrackPointExtension>
        </extensions>
      </trkpt>
      <trkpt lat="42.5122838281095027923583984375" lon="19.98368737287819385528564453125">
        <ele>1632.5999755859375</ele>
        <time>2026-06-19T08:25:47.000Z</time>
        <extensions>
          <ns3:TrackPointExtension>
            <ns3:atemp>22.0</ns3:atemp>
          </ns3:TrackPointExtension>
        </extensions>
      </trkpt>
      <trkpt lat="42.5122838281095027923583984375" lon="19.98368737287819385528564453125">
        <ele>1632.5999755859375</ele>
        <time>2026-06-19T08:25:48.000Z</time>
        <extensions>
          <ns3:TrackPointExtension>
            <ns3:atemp>22.0</ns3:atemp>
          </ns3:TrackPointExtension>
        </extensions>
      </trkpt>
      <trkpt lat="42.5122838281095027923583984375" lon="19.98368737287819385528564453125">
        <ele>1632.5999755859375</ele>
        <time>2026-06-19T08:25:49.000Z</time>
        <extensions>
          <ns3:TrackPointExtension>
            <ns3:atemp>22.0</ns3:atemp>
          </ns3:TrackPointExtension>
        </extensions>
      </trkpt>
      <trkpt lat="42.5122838281095027923583984375" lon="19.98368737287819385528564453125">
        <ele>1632.5999755859375</ele>
        <time>2026-06-19T08:25:50.000Z</time>
        <extensions>
          <ns3:TrackPointExtension>
            <ns3:atemp>22.0</ns3:atemp>
          </ns3:TrackPointExtension>
        </extensions>
      </trkpt>
      <trkpt lat="42.5122838281095027923583984375" lon="19.98368737287819385528564453125">
        <ele>1632.5999755859375</ele>
        <time>2026-06-19T08:25:51.000Z</time>
        <extensions>
          <ns3:TrackPointExtension>
            <ns3:atemp>22.0</ns3:atemp>
          </ns3:TrackPointExtension>
        </extensions>
      </trkpt>
      <trkpt lat="42.5122838281095027923583984375" lon="19.98368737287819385528564453125">
        <ele>1632.5999755859375</ele>
        <time>2026-06-19T08:25:52.000Z</time>
        <extensions>
          <ns3:TrackPointExtension>
            <ns3:atemp>22.0</ns3:atemp>
          </ns3:TrackPointExtension>
        </extensions>
      </trkpt>
      <trkpt lat="42.5122838281095027923583984375" lon="19.98368737287819385528564453125">
        <ele>1632.5999755859375</ele>
        <time>2026-06-19T08:25:53.000Z</time>
        <extensions>
          <ns3:TrackPointExtension>
            <ns3:atemp>22.0</ns3:atemp>
          </ns3:TrackPointExtension>
        </extensions>
      </trkpt>
      <trkpt lat="42.5122838281095027923583984375" lon="19.98368737287819385528564453125">
        <ele>1632.5999755859375</ele>
        <time>2026-06-19T08:25:54.000Z</time>
        <extensions>
          <ns3:TrackPointExtension>
            <ns3:atemp>22.0</ns3:atemp>
          </ns3:TrackPointExtension>
        </extensions>
      </trkpt>
      <trkpt lat="42.5122838281095027923583984375" lon="19.98368737287819385528564453125">
        <ele>1632.5999755859375</ele>
        <time>2026-06-19T08:25:55.000Z</time>
        <extensions>
          <ns3:TrackPointExtension>
            <ns3:atemp>22.0</ns3:atemp>
          </ns3:TrackPointExtension>
        </extensions>
      </trkpt>
      <trkpt lat="42.5122838281095027923583984375" lon="19.98368737287819385528564453125">
        <ele>1632.5999755859375</ele>
        <time>2026-06-19T08:25:56.000Z</time>
        <extensions>
          <ns3:TrackPointExtension>
            <ns3:atemp>22.0</ns3:atemp>
          </ns3:TrackPointExtension>
        </extensions>
      </trkpt>
      <trkpt lat="42.5122838281095027923583984375" lon="19.98368737287819385528564453125">
        <ele>1632.5999755859375</ele>
        <time>2026-06-19T08:25:57.000Z</time>
        <extensions>
          <ns3:TrackPointExtension>
            <ns3:atemp>22.0</ns3:atemp>
          </ns3:TrackPointExtension>
        </extensions>
      </trkpt>
      <trkpt lat="42.5122838281095027923583984375" lon="19.98368737287819385528564453125">
        <ele>1632.5999755859375</ele>
        <time>2026-06-19T08:25:58.000Z</time>
        <extensions>
          <ns3:TrackPointExtension>
            <ns3:atemp>22.0</ns3:atemp>
          </ns3:TrackPointExtension>
        </extensions>
      </trkpt>
      <trkpt lat="42.5122838281095027923583984375" lon="19.98368737287819385528564453125">
        <ele>1632.5999755859375</ele>
        <time>2026-06-19T08:25:59.000Z</time>
        <extensions>
          <ns3:TrackPointExtension>
            <ns3:atemp>22.0</ns3:atemp>
          </ns3:TrackPointExtension>
        </extensions>
      </trkpt>
      <trkpt lat="42.5122838281095027923583984375" lon="19.98368737287819385528564453125">
        <ele>1632.5999755859375</ele>
        <time>2026-06-19T08:26:00.000Z</time>
        <extensions>
          <ns3:TrackPointExtension>
            <ns3:atemp>22.0</ns3:atemp>
          </ns3:TrackPointExtension>
        </extensions>
      </trkpt>
      <trkpt lat="42.5122838281095027923583984375" lon="19.98368737287819385528564453125">
        <ele>1632.5999755859375</ele>
        <time>2026-06-19T08:26:01.000Z</time>
        <extensions>
          <ns3:TrackPointExtension>
            <ns3:atemp>22.0</ns3:atemp>
          </ns3:TrackPointExtension>
        </extensions>
      </trkpt>
      <trkpt lat="42.5122838281095027923583984375" lon="19.98368737287819385528564453125">
        <ele>1632.5999755859375</ele>
        <time>2026-06-19T08:26:02.000Z</time>
        <extensions>
          <ns3:TrackPointExtension>
            <ns3:atemp>22.0</ns3:atemp>
          </ns3:TrackPointExtension>
        </extensions>
      </trkpt>
      <trkpt lat="42.5122838281095027923583984375" lon="19.98368737287819385528564453125">
        <ele>1632.5999755859375</ele>
        <time>2026-06-19T08:26:03.000Z</time>
        <extensions>
          <ns3:TrackPointExtension>
            <ns3:atemp>22.0</ns3:atemp>
          </ns3:TrackPointExtension>
        </extensions>
      </trkpt>
      <trkpt lat="42.5122838281095027923583984375" lon="19.98368737287819385528564453125">
        <ele>1632.5999755859375</ele>
        <time>2026-06-19T08:26:04.000Z</time>
        <extensions>
          <ns3:TrackPointExtension>
            <ns3:atemp>22.0</ns3:atemp>
          </ns3:TrackPointExtension>
        </extensions>
      </trkpt>
      <trkpt lat="42.5122838281095027923583984375" lon="19.98368737287819385528564453125">
        <ele>1632.5999755859375</ele>
        <time>2026-06-19T08:26:05.000Z</time>
        <extensions>
          <ns3:TrackPointExtension>
            <ns3:atemp>22.0</ns3:atemp>
          </ns3:TrackPointExtension>
        </extensions>
      </trkpt>
      <trkpt lat="42.5122838281095027923583984375" lon="19.98368737287819385528564453125">
        <ele>1632.5999755859375</ele>
        <time>2026-06-19T08:26:06.000Z</time>
        <extensions>
          <ns3:TrackPointExtension>
            <ns3:atemp>22.0</ns3:atemp>
          </ns3:TrackPointExtension>
        </extensions>
      </trkpt>
      <trkpt lat="42.5122838281095027923583984375" lon="19.98368737287819385528564453125">
        <ele>1632.5999755859375</ele>
        <time>2026-06-19T08:26:07.000Z</time>
        <extensions>
          <ns3:TrackPointExtension>
            <ns3:atemp>22.0</ns3:atemp>
          </ns3:TrackPointExtension>
        </extensions>
      </trkpt>
      <trkpt lat="42.5122838281095027923583984375" lon="19.98368737287819385528564453125">
        <ele>1632.5999755859375</ele>
        <time>2026-06-19T08:26:08.000Z</time>
        <extensions>
          <ns3:TrackPointExtension>
            <ns3:atemp>22.0</ns3:atemp>
          </ns3:TrackPointExtension>
        </extensions>
      </trkpt>
      <trkpt lat="42.5122838281095027923583984375" lon="19.98368737287819385528564453125">
        <ele>1632.5999755859375</ele>
        <time>2026-06-19T08:26:09.000Z</time>
        <extensions>
          <ns3:TrackPointExtension>
            <ns3:atemp>22.0</ns3:atemp>
          </ns3:TrackPointExtension>
        </extensions>
      </trkpt>
      <trkpt lat="42.5122838281095027923583984375" lon="19.98368737287819385528564453125">
        <ele>1632.5999755859375</ele>
        <time>2026-06-19T08:26:10.000Z</time>
        <extensions>
          <ns3:TrackPointExtension>
            <ns3:atemp>22.0</ns3:atemp>
          </ns3:TrackPointExtension>
        </extensions>
      </trkpt>
      <trkpt lat="42.5122838281095027923583984375" lon="19.98368737287819385528564453125">
        <ele>1632.5999755859375</ele>
        <time>2026-06-19T08:26:11.000Z</time>
        <extensions>
          <ns3:TrackPointExtension>
            <ns3:atemp>22.0</ns3:atemp>
          </ns3:TrackPointExtension>
        </extensions>
      </trkpt>
      <trkpt lat="42.5122838281095027923583984375" lon="19.98368737287819385528564453125">
        <ele>1632.5999755859375</ele>
        <time>2026-06-19T08:26:12.000Z</time>
        <extensions>
          <ns3:TrackPointExtension>
            <ns3:atemp>22.0</ns3:atemp>
          </ns3:TrackPointExtension>
        </extensions>
      </trkpt>
      <trkpt lat="42.5122838281095027923583984375" lon="19.98368737287819385528564453125">
        <ele>1632.5999755859375</ele>
        <time>2026-06-19T08:26:13.000Z</time>
        <extensions>
          <ns3:TrackPointExtension>
            <ns3:atemp>22.0</ns3:atemp>
          </ns3:TrackPointExtension>
        </extensions>
      </trkpt>
      <trkpt lat="42.5122838281095027923583984375" lon="19.98368737287819385528564453125">
        <ele>1632.5999755859375</ele>
        <time>2026-06-19T08:26:14.000Z</time>
        <extensions>
          <ns3:TrackPointExtension>
            <ns3:atemp>22.0</ns3:atemp>
          </ns3:TrackPointExtension>
        </extensions>
      </trkpt>
      <trkpt lat="42.5122838281095027923583984375" lon="19.98368737287819385528564453125">
        <ele>1632.5999755859375</ele>
        <time>2026-06-19T08:26:15.000Z</time>
        <extensions>
          <ns3:TrackPointExtension>
            <ns3:atemp>22.0</ns3:atemp>
          </ns3:TrackPointExtension>
        </extensions>
      </trkpt>
      <trkpt lat="42.5122838281095027923583984375" lon="19.98368737287819385528564453125">
        <ele>1632.5999755859375</ele>
        <time>2026-06-19T08:26:16.000Z</time>
        <extensions>
          <ns3:TrackPointExtension>
            <ns3:atemp>22.0</ns3:atemp>
          </ns3:TrackPointExtension>
        </extensions>
      </trkpt>
      <trkpt lat="42.5122838281095027923583984375" lon="19.98368737287819385528564453125">
        <ele>1632.5999755859375</ele>
        <time>2026-06-19T08:26:17.000Z</time>
        <extensions>
          <ns3:TrackPointExtension>
            <ns3:atemp>22.0</ns3:atemp>
          </ns3:TrackPointExtension>
        </extensions>
      </trkpt>
      <trkpt lat="42.5122838281095027923583984375" lon="19.98368737287819385528564453125">
        <ele>1632.5999755859375</ele>
        <time>2026-06-19T08:26:18.000Z</time>
        <extensions>
          <ns3:TrackPointExtension>
            <ns3:atemp>22.0</ns3:atemp>
          </ns3:TrackPointExtension>
        </extensions>
      </trkpt>
      <trkpt lat="42.5122838281095027923583984375" lon="19.98368737287819385528564453125">
        <ele>1632.5999755859375</ele>
        <time>2026-06-19T08:26:19.000Z</time>
        <extensions>
          <ns3:TrackPointExtension>
            <ns3:atemp>22.0</ns3:atemp>
          </ns3:TrackPointExtension>
        </extensions>
      </trkpt>
      <trkpt lat="42.5122838281095027923583984375" lon="19.98368737287819385528564453125">
        <ele>1632.5999755859375</ele>
        <time>2026-06-19T08:26:20.000Z</time>
        <extensions>
          <ns3:TrackPointExtension>
            <ns3:atemp>22.0</ns3:atemp>
          </ns3:TrackPointExtension>
        </extensions>
      </trkpt>
      <trkpt lat="42.5122838281095027923583984375" lon="19.98368737287819385528564453125">
        <ele>1632.5999755859375</ele>
        <time>2026-06-19T08:26:21.000Z</time>
        <extensions>
          <ns3:TrackPointExtension>
            <ns3:atemp>22.0</ns3:atemp>
          </ns3:TrackPointExtension>
        </extensions>
      </trkpt>
      <trkpt lat="42.5122838281095027923583984375" lon="19.98368737287819385528564453125">
        <ele>1632.5999755859375</ele>
        <time>2026-06-19T08:26:22.000Z</time>
        <extensions>
          <ns3:TrackPointExtension>
            <ns3:atemp>22.0</ns3:atemp>
          </ns3:TrackPointExtension>
        </extensions>
      </trkpt>
      <trkpt lat="42.5122838281095027923583984375" lon="19.98368737287819385528564453125">
        <ele>1632.5999755859375</ele>
        <time>2026-06-19T08:26:23.000Z</time>
        <extensions>
          <ns3:TrackPointExtension>
            <ns3:atemp>22.0</ns3:atemp>
          </ns3:TrackPointExtension>
        </extensions>
      </trkpt>
      <trkpt lat="42.5122838281095027923583984375" lon="19.98368737287819385528564453125">
        <ele>1632.5999755859375</ele>
        <time>2026-06-19T08:26:24.000Z</time>
        <extensions>
          <ns3:TrackPointExtension>
            <ns3:atemp>22.0</ns3:atemp>
          </ns3:TrackPointExtension>
        </extensions>
      </trkpt>
      <trkpt lat="42.5122838281095027923583984375" lon="19.98368737287819385528564453125">
        <ele>1632.5999755859375</ele>
        <time>2026-06-19T08:26:25.000Z</time>
        <extensions>
          <ns3:TrackPointExtension>
            <ns3:atemp>22.0</ns3:atemp>
          </ns3:TrackPointExtension>
        </extensions>
      </trkpt>
      <trkpt lat="42.5122838281095027923583984375" lon="19.98368737287819385528564453125">
        <ele>1632.5999755859375</ele>
        <time>2026-06-19T08:26:26.000Z</time>
        <extensions>
          <ns3:TrackPointExtension>
            <ns3:atemp>22.0</ns3:atemp>
          </ns3:TrackPointExtension>
        </extensions>
      </trkpt>
      <trkpt lat="42.51228407956659793853759765625" lon="19.98368133790791034698486328125">
        <ele>1632.5999755859375</ele>
        <time>2026-06-19T08:26:27.000Z</time>
        <extensions>
          <ns3:TrackPointExtension>
            <ns3:atemp>22.0</ns3:atemp>
          </ns3:TrackPointExtension>
        </extensions>
      </trkpt>
      <trkpt lat="42.5122781284153461456298828125" lon="19.98365853913128376007080078125">
        <ele>1632.5999755859375</ele>
        <time>2026-06-19T08:26:28.000Z</time>
        <extensions>
          <ns3:TrackPointExtension>
            <ns3:atemp>22.0</ns3:atemp>
          </ns3:TrackPointExtension>
        </extensions>
      </trkpt>
      <trkpt lat="42.51226848922669887542724609375" lon="19.983652420341968536376953125">
        <ele>1632.5999755859375</ele>
        <time>2026-06-19T08:26:29.000Z</time>
        <extensions>
          <ns3:TrackPointExtension>
            <ns3:atemp>22.0</ns3:atemp>
          </ns3:TrackPointExtension>
        </extensions>
      </trkpt>
      <trkpt lat="42.51226228661835193634033203125" lon="19.9836569465696811676025390625">
        <ele>1632.5999755859375</ele>
        <time>2026-06-19T08:26:30.000Z</time>
        <extensions>
          <ns3:TrackPointExtension>
            <ns3:atemp>22.0</ns3:atemp>
          </ns3:TrackPointExtension>
        </extensions>
      </trkpt>
      <trkpt lat="42.5122570060193538665771484375" lon="19.98365887440741062164306640625">
        <ele>1632.5999755859375</ele>
        <time>2026-06-19T08:26:31.000Z</time>
        <extensions>
          <ns3:TrackPointExtension>
            <ns3:atemp>22.0</ns3:atemp>
          </ns3:TrackPointExtension>
        </extensions>
      </trkpt>
      <trkpt lat="42.5122526474297046661376953125" lon="19.98365988023579120635986328125">
        <ele>1632.5999755859375</ele>
        <time>2026-06-19T08:26:32.000Z</time>
        <extensions>
          <ns3:TrackPointExtension>
            <ns3:atemp>22.0</ns3:atemp>
          </ns3:TrackPointExtension>
        </extensions>
      </trkpt>
      <trkpt lat="42.512243427336215972900390625" lon="19.98366122134029865264892578125">
        <ele>1632.5999755859375</ele>
        <time>2026-06-19T08:26:33.000Z</time>
        <extensions>
          <ns3:TrackPointExtension>
            <ns3:atemp>22.0</ns3:atemp>
          </ns3:TrackPointExtension>
        </extensions>
      </trkpt>
      <trkpt lat="42.512232698500156402587890625" lon="19.98365853913128376007080078125">
        <ele>1632.5999755859375</ele>
        <time>2026-06-19T08:26:34.000Z</time>
        <extensions>
          <ns3:TrackPointExtension>
            <ns3:atemp>22.0</ns3:atemp>
          </ns3:TrackPointExtension>
        </extensions>
      </trkpt>
      <trkpt lat="42.51222289167344570159912109375" lon="19.98366122134029865264892578125">
        <ele>1632.800048828125</ele>
        <time>2026-06-19T08:26:35.000Z</time>
        <extensions>
          <ns3:TrackPointExtension>
            <ns3:atemp>22.0</ns3:atemp>
          </ns3:TrackPointExtension>
        </extensions>
      </trkpt>
      <trkpt lat="42.512205541133880615234375" lon="19.98366884887218475341796875">
        <ele>1632.5999755859375</ele>
        <time>2026-06-19T08:26:36.000Z</time>
        <extensions>
          <ns3:TrackPointExtension>
            <ns3:atemp>22.0</ns3:atemp>
          </ns3:TrackPointExtension>
        </extensions>
      </trkpt>
      <trkpt lat="42.51218651421368122100830078125" lon="19.983675219118595123291015625">
        <ele>1632.5999755859375</ele>
        <time>2026-06-19T08:26:37.000Z</time>
        <extensions>
          <ns3:TrackPointExtension>
            <ns3:atemp>22.0</ns3:atemp>
          </ns3:TrackPointExtension>
        </extensions>
      </trkpt>
      <trkpt lat="42.5121614523231983184814453125" lon="19.98367731459438800811767578125">
        <ele>1632.4000244140625</ele>
        <time>2026-06-19T08:26:38.000Z</time>
        <extensions>
          <ns3:TrackPointExtension>
            <ns3:atemp>22.0</ns3:atemp>
          </ns3:TrackPointExtension>
        </extensions>
      </trkpt>
      <trkpt lat="42.51213370822370052337646484375" lon="19.98367966152727603912353515625">
        <ele>1632.199951171875</ele>
        <time>2026-06-19T08:26:39.000Z</time>
        <extensions>
          <ns3:TrackPointExtension>
            <ns3:atemp>22.0</ns3:atemp>
          </ns3:TrackPointExtension>
        </extensions>
      </trkpt>
      <trkpt lat="42.51210269518196582794189453125" lon="19.98368787579238414764404296875">
        <ele>1632</ele>
        <time>2026-06-19T08:26:40.000Z</time>
        <extensions>
          <ns3:TrackPointExtension>
            <ns3:atemp>22.0</ns3:atemp>
          </ns3:TrackPointExtension>
        </extensions>
      </trkpt>
      <trkpt lat="42.51207184977829456329345703125" lon="19.98370514251291751861572265625">
        <ele>1631.800048828125</ele>
        <time>2026-06-19T08:26:41.000Z</time>
        <extensions>
          <ns3:TrackPointExtension>
            <ns3:atemp>22.0</ns3:atemp>
          </ns3:TrackPointExtension>
        </extensions>
      </trkpt>
      <trkpt lat="42.51204083673655986785888671875" lon="19.983734227716922760009765625">
        <ele>1631.5999755859375</ele>
        <time>2026-06-19T08:26:42.000Z</time>
        <extensions>
          <ns3:TrackPointExtension>
            <ns3:atemp>22.0</ns3:atemp>
          </ns3:TrackPointExtension>
        </extensions>
      </trkpt>
      <trkpt lat="42.51200831495225429534912109375" lon="19.983774125576019287109375">
        <ele>1631.4000244140625</ele>
        <time>2026-06-19T08:26:43.000Z</time>
        <extensions>
          <ns3:TrackPointExtension>
            <ns3:atemp>22.0</ns3:atemp>
          </ns3:TrackPointExtension>
        </extensions>
      </trkpt>
      <trkpt lat="42.51197361387312412261962890625" lon="19.983819387853145599365234375">
        <ele>1631</ele>
        <time>2026-06-19T08:26:44.000Z</time>
        <extensions>
          <ns3:TrackPointExtension>
            <ns3:atemp>22.0</ns3:atemp>
          </ns3:TrackPointExtension>
        </extensions>
      </trkpt>
      <trkpt lat="42.5119361467659473419189453125" lon="19.9838626384735107421875">
        <ele>1630.800048828125</ele>
        <time>2026-06-19T08:26:45.000Z</time>
        <extensions>
          <ns3:TrackPointExtension>
            <ns3:atemp>22.0</ns3:atemp>
          </ns3:TrackPointExtension>
        </extensions>
      </trkpt>
      <trkpt lat="42.5119026191532611846923828125" lon="19.98391184024512767791748046875">
        <ele>1630.5999755859375</ele>
        <time>2026-06-19T08:26:46.000Z</time>
        <extensions>
          <ns3:TrackPointExtension>
            <ns3:atemp>22.0</ns3:atemp>
          </ns3:TrackPointExtension>
        </extensions>
      </trkpt>
      <trkpt lat="42.51187118701636791229248046875" lon="19.9839613772928714752197265625">
        <ele>1630.4000244140625</ele>
        <time>2026-06-19T08:26:47.000Z</time>
        <extensions>
          <ns3:TrackPointExtension>
            <ns3:atemp>22.0</ns3:atemp>
          </ns3:TrackPointExtension>
        </extensions>
      </trkpt>
      <trkpt lat="42.51183665357530117034912109375" lon="19.984010495245456695556640625">
        <ele>1630</ele>
        <time>2026-06-19T08:26:48.000Z</time>
        <extensions>
          <ns3:TrackPointExtension>
            <ns3:atemp>22.0</ns3:atemp>
          </ns3:TrackPointExtension>
        </extensions>
      </trkpt>
      <trkpt lat="42.51180765219032764434814453125" lon="19.9840656481683254241943359375">
        <ele>1629.800048828125</ele>
        <time>2026-06-19T08:26:49.000Z</time>
        <extensions>
          <ns3:TrackPointExtension>
            <ns3:atemp>22.0</ns3:atemp>
          </ns3:TrackPointExtension>
        </extensions>
      </trkpt>
      <trkpt lat="42.51178485341370105743408203125" lon="19.98412390239536762237548828125">
        <ele>1629.5999755859375</ele>
        <time>2026-06-19T08:26:50.000Z</time>
        <extensions>
          <ns3:TrackPointExtension>
            <ns3:atemp>22.0</ns3:atemp>
          </ns3:TrackPointExtension>
        </extensions>
      </trkpt>
      <trkpt lat="42.5117664970457553863525390625" lon="19.984186850488185882568359375">
        <ele>1629.4000244140625</ele>
        <time>2026-06-19T08:26:51.000Z</time>
        <extensions>
          <ns3:TrackPointExtension>
            <ns3:atemp>22.0</ns3:atemp>
          </ns3:TrackPointExtension>
        </extensions>
      </trkpt>
      <trkpt lat="42.5117450393736362457275390625" lon="19.98425130732357501983642578125">
        <ele>1629</ele>
        <time>2026-06-19T08:26:52.000Z</time>
        <extensions>
          <ns3:TrackPointExtension>
            <ns3:atemp>22.0</ns3:atemp>
          </ns3:TrackPointExtension>
        </extensions>
      </trkpt>
      <trkpt lat="42.511723749339580535888671875" lon="19.98431467451155185699462890625">
        <ele>1628.800048828125</ele>
        <time>2026-06-19T08:26:53.000Z</time>
        <extensions>
          <ns3:TrackPointExtension>
            <ns3:atemp>22.0</ns3:atemp>
          </ns3:TrackPointExtension>
        </extensions>
      </trkpt>
      <trkpt lat="42.5117053091526031494140625" lon="19.9843791313469409942626953125">
        <ele>1628.5999755859375</ele>
        <time>2026-06-19T08:26:54.000Z</time>
        <extensions>
          <ns3:TrackPointExtension>
            <ns3:atemp>22.0</ns3:atemp>
          </ns3:TrackPointExtension>
        </extensions>
      </trkpt>
      <trkpt lat="42.51168812625110149383544921875" lon="19.9844502098858356475830078125">
        <ele>1628.4000244140625</ele>
        <time>2026-06-19T08:26:55.000Z</time>
        <extensions>
          <ns3:TrackPointExtension>
            <ns3:atemp>22.0</ns3:atemp>
          </ns3:TrackPointExtension>
        </extensions>
      </trkpt>
      <trkpt lat="42.5116696022450923919677734375" lon="19.98451416380703449249267578125">
        <ele>1628.199951171875</ele>
        <time>2026-06-19T08:26:56.000Z</time>
        <extensions>
          <ns3:TrackPointExtension>
            <ns3:atemp>22.0</ns3:atemp>
          </ns3:TrackPointExtension>
        </extensions>
      </trkpt>
      <trkpt lat="42.51165233552455902099609375" lon="19.9845759384334087371826171875">
        <ele>1628</ele>
        <time>2026-06-19T08:26:57.000Z</time>
        <extensions>
          <ns3:TrackPointExtension>
            <ns3:atemp>22.0</ns3:atemp>
          </ns3:TrackPointExtension>
        </extensions>
      </trkpt>
      <trkpt lat="42.51163146458566188812255859375" lon="19.984642826020717620849609375">
        <ele>1627.800048828125</ele>
        <time>2026-06-19T08:26:58.000Z</time>
        <extensions>
          <ns3:TrackPointExtension>
            <ns3:atemp>22.0</ns3:atemp>
          </ns3:TrackPointExtension>
        </extensions>
      </trkpt>
      <trkpt lat="42.51160950399935245513916015625" lon="19.984712898731231689453125">
        <ele>1627.5999755859375</ele>
        <time>2026-06-19T08:26:59.000Z</time>
        <extensions>
          <ns3:TrackPointExtension>
            <ns3:atemp>22.0</ns3:atemp>
          </ns3:TrackPointExtension>
        </extensions>
      </trkpt>
      <trkpt lat="42.51158821396529674530029296875" lon="19.98478858731687068939208984375">
        <ele>1627.4000244140625</ele>
        <time>2026-06-19T08:27:00.000Z</time>
        <extensions>
          <ns3:TrackPointExtension>
            <ns3:atemp>22.0</ns3:atemp>
          </ns3:TrackPointExtension>
        </extensions>
      </trkpt>
      <trkpt lat="42.51157052814960479736328125" lon="19.9848590791225433349609375">
        <ele>1627.199951171875</ele>
        <time>2026-06-19T08:27:01.000Z</time>
        <extensions>
          <ns3:TrackPointExtension>
            <ns3:atemp>22.0</ns3:atemp>
          </ns3:TrackPointExtension>
        </extensions>
      </trkpt>
      <trkpt lat="42.51155401580035686492919921875" lon="19.98493015766143798828125">
        <ele>1627.199951171875</ele>
        <time>2026-06-19T08:27:02.000Z</time>
        <extensions>
          <ns3:TrackPointExtension>
            <ns3:atemp>22.0</ns3:atemp>
          </ns3:TrackPointExtension>
        </extensions>
      </trkpt>
      <trkpt lat="42.5115371681749820709228515625" lon="19.9849977158010005950927734375">
        <ele>1627.199951171875</ele>
        <time>2026-06-19T08:27:03.000Z</time>
        <extensions>
          <ns3:TrackPointExtension>
            <ns3:atemp>22.0</ns3:atemp>
          </ns3:TrackPointExtension>
        </extensions>
      </trkpt>
      <trkpt lat="42.51151914708316326141357421875" lon="19.98506502248346805572509765625">
        <ele>1627</ele>
        <time>2026-06-19T08:27:04.000Z</time>
        <extensions>
          <ns3:TrackPointExtension>
            <ns3:atemp>22.0</ns3:atemp>
          </ns3:TrackPointExtension>
        </extensions>
      </trkpt>
      <trkpt lat="42.51150372438132762908935546875" lon="19.98512319289147853851318359375">
        <ele>1627.199951171875</ele>
        <time>2026-06-19T08:27:05.000Z</time>
        <extensions>
          <ns3:TrackPointExtension>
            <ns3:atemp>22.0</ns3:atemp>
          </ns3:TrackPointExtension>
        </extensions>
      </trkpt>
      <trkpt lat="42.51149148680269718170166015625" lon="19.98518521897494792938232421875">
        <ele>1627.199951171875</ele>
        <time>2026-06-19T08:27:06.000Z</time>
        <extensions>
          <ns3:TrackPointExtension>
            <ns3:atemp>22.0</ns3:atemp>
          </ns3:TrackPointExtension>
        </extensions>
      </trkpt>
      <trkpt lat="42.51147539354860782623291015625" lon="19.985243976116180419921875">
        <ele>1627.199951171875</ele>
        <time>2026-06-19T08:27:07.000Z</time>
        <extensions>
          <ns3:TrackPointExtension>
            <ns3:atemp>22.0</ns3:atemp>
          </ns3:TrackPointExtension>
        </extensions>
      </trkpt>
      <trkpt lat="42.51145913265645503997802734375" lon="19.9852951057255268096923828125">
        <ele>1627.4000244140625</ele>
        <time>2026-06-19T08:27:08.000Z</time>
        <extensions>
          <ns3:TrackPointExtension>
            <ns3:atemp>22.0</ns3:atemp>
          </ns3:TrackPointExtension>
        </extensions>
      </trkpt>
      <trkpt lat="42.5114499963819980621337890625" lon="19.98535386286675930023193359375">
        <ele>1627.4000244140625</ele>
        <time>2026-06-19T08:27:09.000Z</time>
        <extensions>
          <ns3:TrackPointExtension>
            <ns3:atemp>22.0</ns3:atemp>
          </ns3:TrackPointExtension>
        </extensions>
      </trkpt>
      <trkpt lat="42.51144236885011196136474609375" lon="19.98541287146508693695068359375">
        <ele>1627.5999755859375</ele>
        <time>2026-06-19T08:27:10.000Z</time>
        <extensions>
          <ns3:TrackPointExtension>
            <ns3:atemp>22.0</ns3:atemp>
          </ns3:TrackPointExtension>
        </extensions>
      </trkpt>
      <trkpt lat="42.51143666915595531463623046875" lon="19.9854697845876216888427734375">
        <ele>1627.800048828125</ele>
        <time>2026-06-19T08:27:11.000Z</time>
        <extensions>
          <ns3:TrackPointExtension>
            <ns3:atemp>22.0</ns3:atemp>
          </ns3:TrackPointExtension>
        </extensions>
      </trkpt>
      <trkpt lat="42.51143373548984527587890625" lon="19.985527284443378448486328125">
        <ele>1628</ele>
        <time>2026-06-19T08:27:12.000Z</time>
        <extensions>
          <ns3:TrackPointExtension>
            <ns3:atemp>22.0</ns3:atemp>
          </ns3:TrackPointExtension>
        </extensions>
      </trkpt>
      <trkpt lat="42.511428035795688629150390625" lon="19.98558302409946918487548828125">
        <ele>1628.199951171875</ele>
        <time>2026-06-19T08:27:13.000Z</time>
        <extensions>
          <ns3:TrackPointExtension>
            <ns3:atemp>22.0</ns3:atemp>
          </ns3:TrackPointExtension>
        </extensions>
      </trkpt>
      <trkpt lat="42.511419989168643951416015625" lon="19.985637255012989044189453125">
        <ele>1628.4000244140625</ele>
        <time>2026-06-19T08:27:14.000Z</time>
        <extensions>
          <ns3:TrackPointExtension>
            <ns3:atemp>22.0</ns3:atemp>
          </ns3:TrackPointExtension>
        </extensions>
      </trkpt>
      <trkpt lat="42.51141806133091449737548828125" lon="19.9856890551745891571044921875">
        <ele>1628.4000244140625</ele>
        <time>2026-06-19T08:27:15.000Z</time>
        <extensions>
          <ns3:TrackPointExtension>
            <ns3:atemp>22.0</ns3:atemp>
          </ns3:TrackPointExtension>
        </extensions>
      </trkpt>
      <trkpt lat="42.511411271989345550537109375" lon="19.9857400171458721160888671875">
        <ele>1628.5999755859375</ele>
        <time>2026-06-19T08:27:16.000Z</time>
        <extensions>
          <ns3:TrackPointExtension>
            <ns3:atemp>22.0</ns3:atemp>
          </ns3:TrackPointExtension>
        </extensions>
      </trkpt>
      <trkpt lat="42.5114080868661403656005859375" lon="19.98579391278326511383056640625">
        <ele>1628.800048828125</ele>
        <time>2026-06-19T08:27:17.000Z</time>
        <extensions>
          <ns3:TrackPointExtension>
            <ns3:atemp>22.0</ns3:atemp>
          </ns3:TrackPointExtension>
        </extensions>
      </trkpt>
      <trkpt lat="42.5114022195339202880859375" lon="19.9858473055064678192138671875">
        <ele>1629</ele>
        <time>2026-06-19T08:27:18.000Z</time>
        <extensions>
          <ns3:TrackPointExtension>
            <ns3:atemp>22.0</ns3:atemp>
          </ns3:TrackPointExtension>
        </extensions>
      </trkpt>
      <trkpt lat="42.51139618456363677978515625" lon="19.985894076526165008544921875">
        <ele>1629.199951171875</ele>
        <time>2026-06-19T08:27:19.000Z</time>
        <extensions>
          <ns3:TrackPointExtension>
            <ns3:atemp>22.0</ns3:atemp>
          </ns3:TrackPointExtension>
        </extensions>
      </trkpt>
      <trkpt lat="42.51139157451689243316650390625" lon="19.98593925498425960540771484375">
        <ele>1629.4000244140625</ele>
        <time>2026-06-19T08:27:20.000Z</time>
        <extensions>
          <ns3:TrackPointExtension>
            <ns3:atemp>22.0</ns3:atemp>
          </ns3:TrackPointExtension>
        </extensions>
      </trkpt>
      <trkpt lat="42.51138671301305294036865234375" lon="19.98598854057490825653076171875">
        <ele>1629.4000244140625</ele>
        <time>2026-06-19T08:27:21.000Z</time>
        <extensions>
          <ns3:TrackPointExtension>
            <ns3:atemp>22.0</ns3:atemp>
          </ns3:TrackPointExtension>
        </extensions>
      </trkpt>
      <trkpt lat="42.5113775767385959625244140625" lon="19.98603413812816143035888671875">
        <ele>1629.5999755859375</ele>
        <time>2026-06-19T08:27:22.000Z</time>
        <extensions>
          <ns3:TrackPointExtension>
            <ns3:atemp>22.0</ns3:atemp>
          </ns3:TrackPointExtension>
        </extensions>
      </trkpt>
      <trkpt lat="42.511372379958629608154296875" lon="19.986077807843685150146484375">
        <ele>1629.5999755859375</ele>
        <time>2026-06-19T08:27:23.000Z</time>
        <extensions>
          <ns3:TrackPointExtension>
            <ns3:atemp>22.0</ns3:atemp>
          </ns3:TrackPointExtension>
        </extensions>
      </trkpt>
      <trkpt lat="42.511366344988346099853515625" lon="19.98612097464501857757568359375">
        <ele>1629.5999755859375</ele>
        <time>2026-06-19T08:27:24.000Z</time>
        <extensions>
          <ns3:TrackPointExtension>
            <ns3:atemp>22.0</ns3:atemp>
          </ns3:TrackPointExtension>
        </extensions>
      </trkpt>
      <trkpt lat="42.511360645294189453125" lon="19.98616673983633518218994140625">
        <ele>1629.5999755859375</ele>
        <time>2026-06-19T08:27:25.000Z</time>
        <extensions>
          <ns3:TrackPointExtension>
            <ns3:atemp>22.0</ns3:atemp>
          </ns3:TrackPointExtension>
        </extensions>
      </trkpt>
      <trkpt lat="42.5113534368574619293212890625" lon="19.9862157739698886871337890625">
        <ele>1629.5999755859375</ele>
        <time>2026-06-19T08:27:26.000Z</time>
        <extensions>
          <ns3:TrackPointExtension>
            <ns3:atemp>22.0</ns3:atemp>
          </ns3:TrackPointExtension>
        </extensions>
      </trkpt>
      <trkpt lat="42.51134446822106838226318359375" lon="19.98626916669309139251708984375">
        <ele>1629.5999755859375</ele>
        <time>2026-06-19T08:27:27.000Z</time>
        <extensions>
          <ns3:TrackPointExtension>
            <ns3:atemp>22.0</ns3:atemp>
          </ns3:TrackPointExtension>
        </extensions>
      </trkpt>
      <trkpt lat="42.5113366730511188507080078125" lon="19.9863197095692157745361328125">
        <ele>1629.5999755859375</ele>
        <time>2026-06-19T08:27:28.000Z</time>
        <extensions>
          <ns3:TrackPointExtension>
            <ns3:atemp>22.0</ns3:atemp>
          </ns3:TrackPointExtension>
        </extensions>
      </trkpt>
      <trkpt lat="42.51132669858634471893310546875" lon="19.98637477867305278778076171875">
        <ele>1629.5999755859375</ele>
        <time>2026-06-19T08:27:29.000Z</time>
        <extensions>
          <ns3:TrackPointExtension>
            <ns3:atemp>22.0</ns3:atemp>
          </ns3:TrackPointExtension>
        </extensions>
      </trkpt>
      <trkpt lat="42.5113163888454437255859375" lon="19.98643462546169757843017578125">
        <ele>1629.800048828125</ele>
        <time>2026-06-19T08:27:30.000Z</time>
        <extensions>
          <ns3:TrackPointExtension>
            <ns3:atemp>22.0</ns3:atemp>
          </ns3:TrackPointExtension>
        </extensions>
      </trkpt>
      <trkpt lat="42.5113070011138916015625" lon="19.9864960648119449615478515625">
        <ele>1629.800048828125</ele>
        <time>2026-06-19T08:27:31.000Z</time>
        <extensions>
          <ns3:TrackPointExtension>
            <ns3:atemp>22.0</ns3:atemp>
          </ns3:TrackPointExtension>
        </extensions>
      </trkpt>
      <trkpt lat="42.5112987868487834930419921875" lon="19.986555576324462890625">
        <ele>1629.800048828125</ele>
        <time>2026-06-19T08:27:32.000Z</time>
        <extensions>
          <ns3:TrackPointExtension>
            <ns3:atemp>22.0</ns3:atemp>
          </ns3:TrackPointExtension>
        </extensions>
      </trkpt>
      <trkpt lat="42.5112870521843433380126953125" lon="19.986617267131805419921875">
        <ele>1629.5999755859375</ele>
        <time>2026-06-19T08:27:33.000Z</time>
        <extensions>
          <ns3:TrackPointExtension>
            <ns3:atemp>22.0</ns3:atemp>
          </ns3:TrackPointExtension>
        </extensions>
      </trkpt>
      <trkpt lat="42.5112796761095523834228515625" lon="19.986678622663021087646484375">
        <ele>1629.5999755859375</ele>
        <time>2026-06-19T08:27:34.000Z</time>
        <extensions>
          <ns3:TrackPointExtension>
            <ns3:atemp>22.0</ns3:atemp>
          </ns3:TrackPointExtension>
        </extensions>
      </trkpt>
      <trkpt lat="42.51126919873058795928955078125" lon="19.98674492351710796356201171875">
        <ele>1629.5999755859375</ele>
        <time>2026-06-19T08:27:35.000Z</time>
        <extensions>
          <ns3:TrackPointExtension>
            <ns3:atemp>22.0</ns3:atemp>
          </ns3:TrackPointExtension>
        </extensions>
      </trkpt>
      <trkpt lat="42.51125595532357692718505859375" lon="19.98680577613413333892822265625">
        <ele>1629.5999755859375</ele>
        <time>2026-06-19T08:27:36.000Z</time>
        <extensions>
          <ns3:TrackPointExtension>
            <ns3:atemp>22.0</ns3:atemp>
          </ns3:TrackPointExtension>
        </extensions>
      </trkpt>
      <trkpt lat="42.511240951716899871826171875" lon="19.9868732504546642303466796875">
        <ele>1629.5999755859375</ele>
        <time>2026-06-19T08:27:37.000Z</time>
        <extensions>
          <ns3:TrackPointExtension>
            <ns3:atemp>22.0</ns3:atemp>
          </ns3:TrackPointExtension>
        </extensions>
      </trkpt>
      <trkpt lat="42.5112273730337619781494140625" lon="19.9869386292994022369384765625">
        <ele>1629.5999755859375</ele>
        <time>2026-06-19T08:27:38.000Z</time>
        <extensions>
          <ns3:TrackPointExtension>
            <ns3:atemp>22.0</ns3:atemp>
          </ns3:TrackPointExtension>
        </extensions>
      </trkpt>
      <trkpt lat="42.511210776865482330322265625" lon="19.98700157739222049713134765625">
        <ele>1629.5999755859375</ele>
        <time>2026-06-19T08:27:39.000Z</time>
        <extensions>
          <ns3:TrackPointExtension>
            <ns3:atemp>22.0</ns3:atemp>
          </ns3:TrackPointExtension>
        </extensions>
      </trkpt>
      <trkpt lat="42.51119409687817096710205078125" lon="19.98706125654280185699462890625">
        <ele>1629.5999755859375</ele>
        <time>2026-06-19T08:27:40.000Z</time>
        <extensions>
          <ns3:TrackPointExtension>
            <ns3:atemp>22.0</ns3:atemp>
          </ns3:TrackPointExtension>
        </extensions>
      </trkpt>
      <trkpt lat="42.511175237596035003662109375" lon="19.98711708001792430877685546875">
        <ele>1629.5999755859375</ele>
        <time>2026-06-19T08:27:41.000Z</time>
        <extensions>
          <ns3:TrackPointExtension>
            <ns3:atemp>22.0</ns3:atemp>
          </ns3:TrackPointExtension>
        </extensions>
      </trkpt>
      <trkpt lat="42.51115746796131134033203125" lon="19.98717340640723705291748046875">
        <ele>1629.5999755859375</ele>
        <time>2026-06-19T08:27:42.000Z</time>
        <extensions>
          <ns3:TrackPointExtension>
            <ns3:atemp>21.0</ns3:atemp>
          </ns3:TrackPointExtension>
        </extensions>
      </trkpt>
      <trkpt lat="42.511134333908557891845703125" lon="19.9872370250523090362548828125">
        <ele>1629.5999755859375</ele>
        <time>2026-06-19T08:27:43.000Z</time>
        <extensions>
          <ns3:TrackPointExtension>
            <ns3:atemp>21.0</ns3:atemp>
          </ns3:TrackPointExtension>
        </extensions>
      </trkpt>
      <trkpt lat="42.511109523475170135498046875" lon="19.98729175888001918792724609375">
        <ele>1629.5999755859375</ele>
        <time>2026-06-19T08:27:44.000Z</time>
        <extensions>
          <ns3:TrackPointExtension>
            <ns3:atemp>21.0</ns3:atemp>
          </ns3:TrackPointExtension>
        </extensions>
      </trkpt>
      <trkpt lat="42.51108882017433643341064453125" lon="19.98734607361257076263427734375">
        <ele>1629.5999755859375</ele>
        <time>2026-06-19T08:27:45.000Z</time>
        <extensions>
          <ns3:TrackPointExtension>
            <ns3:atemp>21.0</ns3:atemp>
          </ns3:TrackPointExtension>
        </extensions>
      </trkpt>
      <trkpt lat="42.51106786541640758514404296875" lon="19.9874006398022174835205078125">
        <ele>1629.800048828125</ele>
        <time>2026-06-19T08:27:46.000Z</time>
        <extensions>
          <ns3:TrackPointExtension>
            <ns3:atemp>21.0</ns3:atemp>
          </ns3:TrackPointExtension>
        </extensions>
      </trkpt>
      <trkpt lat="42.51104808412492275238037109375" lon="19.98745302669703960418701171875">
        <ele>1629.800048828125</ele>
        <time>2026-06-19T08:27:47.000Z</time>
        <extensions>
          <ns3:TrackPointExtension>
            <ns3:atemp>22.0</ns3:atemp>
          </ns3:TrackPointExtension>
        </extensions>
      </trkpt>
      <trkpt lat="42.51102562062442302703857421875" lon="19.98750532977283000946044921875">
        <ele>1629.800048828125</ele>
        <time>2026-06-19T08:27:48.000Z</time>
        <extensions>
          <ns3:TrackPointExtension>
            <ns3:atemp>21.0</ns3:atemp>
          </ns3:TrackPointExtension>
        </extensions>
      </trkpt>
      <trkpt lat="42.5110037438571453094482421875" lon="19.98755428008735179901123046875">
        <ele>1629.800048828125</ele>
        <time>2026-06-19T08:27:49.000Z</time>
        <extensions>
          <ns3:TrackPointExtension>
            <ns3:atemp>21.0</ns3:atemp>
          </ns3:TrackPointExtension>
        </extensions>
      </trkpt>
      <trkpt lat="42.51098270528018474578857421875" lon="19.98760289512574672698974609375">
        <ele>1629.800048828125</ele>
        <time>2026-06-19T08:27:50.000Z</time>
        <extensions>
          <ns3:TrackPointExtension>
            <ns3:atemp>21.0</ns3:atemp>
          </ns3:TrackPointExtension>
        </extensions>
      </trkpt>
      <trkpt lat="42.51095873303711414337158203125" lon="19.9876497499644756317138671875">
        <ele>1629.800048828125</ele>
        <time>2026-06-19T08:27:51.000Z</time>
        <extensions>
          <ns3:TrackPointExtension>
            <ns3:atemp>21.0</ns3:atemp>
          </ns3:TrackPointExtension>
        </extensions>
      </trkpt>
      <trkpt lat="42.51093476079404354095458984375" lon="19.987695515155792236328125">
        <ele>1629.800048828125</ele>
        <time>2026-06-19T08:27:52.000Z</time>
        <extensions>
          <ns3:TrackPointExtension>
            <ns3:atemp>21.0</ns3:atemp>
          </ns3:TrackPointExtension>
        </extensions>
      </trkpt>
      <trkpt lat="42.51091062091290950775146484375" lon="19.987740106880664825439453125">
        <ele>1629.5999755859375</ele>
        <time>2026-06-19T08:27:53.000Z</time>
        <extensions>
          <ns3:TrackPointExtension>
            <ns3:atemp>21.0</ns3:atemp>
          </ns3:TrackPointExtension>
        </extensions>
      </trkpt>
      <trkpt lat="42.51088379882276058197021484375" lon="19.98778226785361766815185546875">
        <ele>1629.199951171875</ele>
        <time>2026-06-19T08:27:54.000Z</time>
        <extensions>
          <ns3:TrackPointExtension>
            <ns3:atemp>22.0</ns3:atemp>
          </ns3:TrackPointExtension>
        </extensions>
      </trkpt>
      <trkpt lat="42.510852701961994171142578125" lon="19.9878244288265705108642578125">
        <ele>1628.800048828125</ele>
        <time>2026-06-19T08:27:55.000Z</time>
        <extensions>
          <ns3:TrackPointExtension>
            <ns3:atemp>21.0</ns3:atemp>
          </ns3:TrackPointExtension>
        </extensions>
      </trkpt>
      <trkpt lat="42.51082093454897403717041015625" lon="19.987862817943096160888671875">
        <ele>1628.4000244140625</ele>
        <time>2026-06-19T08:27:56.000Z</time>
        <extensions>
          <ns3:TrackPointExtension>
            <ns3:atemp>21.0</ns3:atemp>
          </ns3:TrackPointExtension>
        </extensions>
      </trkpt>
      <trkpt lat="42.51078128814697265625" lon="19.9878978542983531951904296875">
        <ele>1628</ele>
        <time>2026-06-19T08:27:57.000Z</time>
        <extensions>
          <ns3:TrackPointExtension>
            <ns3:atemp>21.0</ns3:atemp>
          </ns3:TrackPointExtension>
        </extensions>
      </trkpt>
      <trkpt lat="42.51073543913662433624267578125" lon="19.98792291618883609771728515625">
        <ele>1627.4000244140625</ele>
        <time>2026-06-19T08:27:58.000Z</time>
        <extensions>
          <ns3:TrackPointExtension>
            <ns3:atemp>21.0</ns3:atemp>
          </ns3:TrackPointExtension>
        </extensions>
      </trkpt>
      <trkpt lat="42.51068732701241970062255859375" lon="19.98794839717447757720947265625">
        <ele>1626.800048828125</ele>
        <time>2026-06-19T08:27:59.000Z</time>
        <extensions>
          <ns3:TrackPointExtension>
            <ns3:atemp>21.0</ns3:atemp>
          </ns3:TrackPointExtension>
        </extensions>
      </trkpt>
      <trkpt lat="42.5106396339833736419677734375" lon="19.9879692681133747100830078125">
        <ele>1626.4000244140625</ele>
        <time>2026-06-19T08:28:00.000Z</time>
        <extensions>
          <ns3:TrackPointExtension>
            <ns3:atemp>21.0</ns3:atemp>
          </ns3:TrackPointExtension>
        </extensions>
      </trkpt>
      <trkpt lat="42.51059076748788356781005859375" lon="19.9879890494048595428466796875">
        <ele>1625.800048828125</ele>
        <time>2026-06-19T08:28:01.000Z</time>
        <extensions>
          <ns3:TrackPointExtension>
            <ns3:atemp>21.0</ns3:atemp>
          </ns3:TrackPointExtension>
        </extensions>
      </trkpt>
      <trkpt lat="42.5105437450110912322998046875" lon="19.988006316125392913818359375">
        <ele>1625.199951171875</ele>
        <time>2026-06-19T08:28:02.000Z</time>
        <extensions>
          <ns3:TrackPointExtension>
            <ns3:atemp>21.0</ns3:atemp>
          </ns3:TrackPointExtension>
        </extensions>
      </trkpt>
      <trkpt lat="42.51049621962010860443115234375" lon="19.98802131973206996917724609375">
        <ele>1624.4000244140625</ele>
        <time>2026-06-19T08:28:03.000Z</time>
        <extensions>
          <ns3:TrackPointExtension>
            <ns3:atemp>21.0</ns3:atemp>
          </ns3:TrackPointExtension>
        </extensions>
      </trkpt>
      <trkpt lat="42.5104461796581745147705078125" lon="19.9880312941968441009521484375">
        <ele>1623.5999755859375</ele>
        <time>2026-06-19T08:28:04.000Z</time>
        <extensions>
          <ns3:TrackPointExtension>
            <ns3:atemp>21.0</ns3:atemp>
          </ns3:TrackPointExtension>
        </extensions>
      </trkpt>
      <trkpt lat="42.5103937089443206787109375" lon="19.98804126866161823272705078125">
        <ele>1623</ele>
        <time>2026-06-19T08:28:05.000Z</time>
        <extensions>
          <ns3:TrackPointExtension>
            <ns3:atemp>21.0</ns3:atemp>
          </ns3:TrackPointExtension>
        </extensions>
      </trkpt>
      <trkpt lat="42.51035012304782867431640625" lon="19.988054595887660980224609375">
        <ele>1622.4000244140625</ele>
        <time>2026-06-19T08:28:06.000Z</time>
        <extensions>
          <ns3:TrackPointExtension>
            <ns3:atemp>21.0</ns3:atemp>
          </ns3:TrackPointExtension>
        </extensions>
      </trkpt>
      <trkpt lat="42.51030880026519298553466796875" lon="19.98806909658014774322509765625">
        <ele>1621.800048828125</ele>
        <time>2026-06-19T08:28:07.000Z</time>
        <extensions>
          <ns3:TrackPointExtension>
            <ns3:atemp>21.0</ns3:atemp>
          </ns3:TrackPointExtension>
        </extensions>
      </trkpt>
      <trkpt lat="42.5102730095386505126953125" lon="19.98808099888265132904052734375">
        <ele>1621.199951171875</ele>
        <time>2026-06-19T08:28:08.000Z</time>
        <extensions>
          <ns3:TrackPointExtension>
            <ns3:atemp>21.0</ns3:atemp>
          </ns3:TrackPointExtension>
        </extensions>
      </trkpt>
      <trkpt lat="42.5102416612207889556884765625" lon="19.988089464604854583740234375">
        <ele>1620.5999755859375</ele>
        <time>2026-06-19T08:28:09.000Z</time>
        <extensions>
          <ns3:TrackPointExtension>
            <ns3:atemp>21.0</ns3:atemp>
          </ns3:TrackPointExtension>
        </extensions>
      </trkpt>
      <trkpt lat="42.51021978445351123809814453125" lon="19.9880976788699626922607421875">
        <ele>1620.199951171875</ele>
        <time>2026-06-19T08:28:10.000Z</time>
        <extensions>
          <ns3:TrackPointExtension>
            <ns3:atemp>21.0</ns3:atemp>
          </ns3:TrackPointExtension>
        </extensions>
      </trkpt>
      <trkpt lat="42.51020587049424648284912109375" lon="19.98810656368732452392578125">
        <ele>1619.800048828125</ele>
        <time>2026-06-19T08:28:11.000Z</time>
        <extensions>
          <ns3:TrackPointExtension>
            <ns3:atemp>21.0</ns3:atemp>
          </ns3:TrackPointExtension>
        </extensions>
      </trkpt>
      <trkpt lat="42.51019698567688465118408203125" lon="19.98811787925660610198974609375">
        <ele>1619.5999755859375</ele>
        <time>2026-06-19T08:28:12.000Z</time>
        <extensions>
          <ns3:TrackPointExtension>
            <ns3:atemp>21.0</ns3:atemp>
          </ns3:TrackPointExtension>
        </extensions>
      </trkpt>
      <trkpt lat="42.51019028015434741973876953125" lon="19.9881375767290592193603515625">
        <ele>1619.4000244140625</ele>
        <time>2026-06-19T08:28:13.000Z</time>
        <extensions>
          <ns3:TrackPointExtension>
            <ns3:atemp>21.0</ns3:atemp>
          </ns3:TrackPointExtension>
        </extensions>
      </trkpt>
      <trkpt lat="42.510184831917285919189453125" lon="19.98816062696278095245361328125">
        <ele>1619.199951171875</ele>
        <time>2026-06-19T08:28:14.000Z</time>
        <extensions>
          <ns3:TrackPointExtension>
            <ns3:atemp>21.0</ns3:atemp>
          </ns3:TrackPointExtension>
        </extensions>
      </trkpt>
      <trkpt lat="42.51017770729959011077880859375" lon="19.98817554675042629241943359375">
        <ele>1619</ele>
        <time>2026-06-19T08:28:15.000Z</time>
        <extensions>
          <ns3:TrackPointExtension>
            <ns3:atemp>21.0</ns3:atemp>
          </ns3:TrackPointExtension>
        </extensions>
      </trkpt>
      <trkpt lat="42.51017183996737003326416015625" lon="19.98819147236645221710205078125">
        <ele>1618.800048828125</ele>
        <time>2026-06-19T08:28:16.000Z</time>
        <extensions>
          <ns3:TrackPointExtension>
            <ns3:atemp>21.0</ns3:atemp>
          </ns3:TrackPointExtension>
        </extensions>
      </trkpt>
      <trkpt lat="42.5101682357490062713623046875" lon="19.98821192421019077301025390625">
        <ele>1618.5999755859375</ele>
        <time>2026-06-19T08:28:17.000Z</time>
        <extensions>
          <ns3:TrackPointExtension>
            <ns3:atemp>21.0</ns3:atemp>
          </ns3:TrackPointExtension>
        </extensions>
      </trkpt>
      <trkpt lat="42.510166056454181671142578125" lon="19.98823103494942188262939453125">
        <ele>1618.5999755859375</ele>
        <time>2026-06-19T08:28:18.000Z</time>
        <extensions>
          <ns3:TrackPointExtension>
            <ns3:atemp>21.0</ns3:atemp>
          </ns3:TrackPointExtension>
        </extensions>
      </trkpt>
      <trkpt lat="42.510167062282562255859375" lon="19.98825483955442905426025390625">
        <ele>1618.5999755859375</ele>
        <time>2026-06-19T08:28:19.000Z</time>
        <extensions>
          <ns3:TrackPointExtension>
            <ns3:atemp>21.0</ns3:atemp>
          </ns3:TrackPointExtension>
        </extensions>
      </trkpt>
      <trkpt lat="42.510165385901927947998046875" lon="19.98827998526394367218017578125">
        <ele>1618.5999755859375</ele>
        <time>2026-06-19T08:28:20.000Z</time>
        <extensions>
          <ns3:TrackPointExtension>
            <ns3:atemp>21.0</ns3:atemp>
          </ns3:TrackPointExtension>
        </extensions>
      </trkpt>
      <trkpt lat="42.51015742309391498565673828125" lon="19.98830362223088741302490234375">
        <ele>1618.800048828125</ele>
        <time>2026-06-19T08:28:21.000Z</time>
        <extensions>
          <ns3:TrackPointExtension>
            <ns3:atemp>21.0</ns3:atemp>
          </ns3:TrackPointExtension>
        </extensions>
      </trkpt>
      <trkpt lat="42.5101484544575214385986328125" lon="19.9883263371884822845458984375">
        <ele>1618.800048828125</ele>
        <time>2026-06-19T08:28:22.000Z</time>
        <extensions>
          <ns3:TrackPointExtension>
            <ns3:atemp>21.0</ns3:atemp>
          </ns3:TrackPointExtension>
        </extensions>
      </trkpt>
      <trkpt lat="42.51013563014566898345947265625" lon="19.9883508123457431793212890625">
        <ele>1619</ele>
        <time>2026-06-19T08:28:23.000Z</time>
        <extensions>
          <ns3:TrackPointExtension>
            <ns3:atemp>21.0</ns3:atemp>
          </ns3:TrackPointExtension>
        </extensions>
      </trkpt>
      <trkpt lat="42.51012523658573627471923828125" lon="19.98837822116911411285400390625">
        <ele>1619.4000244140625</ele>
        <time>2026-06-19T08:28:24.000Z</time>
        <extensions>
          <ns3:TrackPointExtension>
            <ns3:atemp>21.0</ns3:atemp>
          </ns3:TrackPointExtension>
        </extensions>
      </trkpt>
      <trkpt lat="42.51011450774967670440673828125" lon="19.98840085230767726898193359375">
        <ele>1619.5999755859375</ele>
        <time>2026-06-19T08:28:25.000Z</time>
        <extensions>
          <ns3:TrackPointExtension>
            <ns3:atemp>21.0</ns3:atemp>
          </ns3:TrackPointExtension>
        </extensions>
      </trkpt>
      <trkpt lat="42.51010143198072910308837890625" lon="19.98842331580817699432373046875">
        <ele>1619.800048828125</ele>
        <time>2026-06-19T08:28:26.000Z</time>
        <extensions>
          <ns3:TrackPointExtension>
            <ns3:atemp>21.0</ns3:atemp>
          </ns3:TrackPointExtension>
        </extensions>
      </trkpt>
      <trkpt lat="42.5100881047546863555908203125" lon="19.9884420074522495269775390625">
        <ele>1620.199951171875</ele>
        <time>2026-06-19T08:28:27.000Z</time>
        <extensions>
          <ns3:TrackPointExtension>
            <ns3:atemp>21.0</ns3:atemp>
          </ns3:TrackPointExtension>
        </extensions>
      </trkpt>
      <trkpt lat="42.51007544808089733123779296875" lon="19.98846656642854213714599609375">
        <ele>1620.4000244140625</ele>
        <time>2026-06-19T08:28:28.000Z</time>
        <extensions>
          <ns3:TrackPointExtension>
            <ns3:atemp>21.0</ns3:atemp>
          </ns3:TrackPointExtension>
        </extensions>
      </trkpt>
      <trkpt lat="42.51006455160677433013916015625" lon="19.9884966574609279632568359375">
        <ele>1620.800048828125</ele>
        <time>2026-06-19T08:28:29.000Z</time>
        <extensions>
          <ns3:TrackPointExtension>
            <ns3:atemp>21.0</ns3:atemp>
          </ns3:TrackPointExtension>
        </extensions>
      </trkpt>
      <trkpt lat="42.5100559182465076446533203125" lon="19.98852389864623546600341796875">
        <ele>1621.199951171875</ele>
        <time>2026-06-19T08:28:30.000Z</time>
        <extensions>
          <ns3:TrackPointExtension>
            <ns3:atemp>21.0</ns3:atemp>
          </ns3:TrackPointExtension>
        </extensions>
      </trkpt>
      <trkpt lat="42.51004493795335292816162109375" lon="19.9885476194322109222412109375">
        <ele>1621.5999755859375</ele>
        <time>2026-06-19T08:28:31.000Z</time>
        <extensions>
          <ns3:TrackPointExtension>
            <ns3:atemp>21.0</ns3:atemp>
          </ns3:TrackPointExtension>
        </extensions>
      </trkpt>
      <trkpt lat="42.51002968288958072662353515625" lon="19.98857469297945499420166015625">
        <ele>1622</ele>
        <time>2026-06-19T08:28:32.000Z</time>
        <extensions>
          <ns3:TrackPointExtension>
            <ns3:atemp>21.0</ns3:atemp>
          </ns3:TrackPointExtension>
        </extensions>
      </trkpt>
      <trkpt lat="42.51001493073999881744384765625" lon="19.98859849758446216583251953125">
        <ele>1622.199951171875</ele>
        <time>2026-06-19T08:28:33.000Z</time>
        <extensions>
          <ns3:TrackPointExtension>
            <ns3:atemp>21.0</ns3:atemp>
          </ns3:TrackPointExtension>
        </extensions>
      </trkpt>
      <trkpt lat="42.5099992565810680389404296875" lon="19.98862246982753276824951171875">
        <ele>1622.5999755859375</ele>
        <time>2026-06-19T08:28:34.000Z</time>
        <extensions>
          <ns3:TrackPointExtension>
            <ns3:atemp>21.0</ns3:atemp>
          </ns3:TrackPointExtension>
        </extensions>
      </trkpt>
      <trkpt lat="42.50998609699308872222900390625" lon="19.98864426277577877044677734375">
        <ele>1623</ele>
        <time>2026-06-19T08:28:35.000Z</time>
        <extensions>
          <ns3:TrackPointExtension>
            <ns3:atemp>21.0</ns3:atemp>
          </ns3:TrackPointExtension>
        </extensions>
      </trkpt>
      <trkpt lat="42.509972266852855682373046875" lon="19.98866521753370761871337890625">
        <ele>1623.4000244140625</ele>
        <time>2026-06-19T08:28:36.000Z</time>
        <extensions>
          <ns3:TrackPointExtension>
            <ns3:atemp>21.0</ns3:atemp>
          </ns3:TrackPointExtension>
        </extensions>
      </trkpt>
      <trkpt lat="42.5099560059607028961181640625" lon="19.98868617229163646697998046875">
        <ele>1623.800048828125</ele>
        <time>2026-06-19T08:28:37.000Z</time>
        <extensions>
          <ns3:TrackPointExtension>
            <ns3:atemp>21.0</ns3:atemp>
          </ns3:TrackPointExtension>
        </extensions>
      </trkpt>
      <trkpt lat="42.5099432654678821563720703125" lon="19.9887072108685970306396484375">
        <ele>1624.199951171875</ele>
        <time>2026-06-19T08:28:38.000Z</time>
        <extensions>
          <ns3:TrackPointExtension>
            <ns3:atemp>21.0</ns3:atemp>
          </ns3:TrackPointExtension>
        </extensions>
      </trkpt>
      <trkpt lat="42.50992960296571254730224609375" lon="19.98872875235974788665771484375">
        <ele>1624.5999755859375</ele>
        <time>2026-06-19T08:28:39.000Z</time>
        <extensions>
          <ns3:TrackPointExtension>
            <ns3:atemp>21.0</ns3:atemp>
          </ns3:TrackPointExtension>
        </extensions>
      </trkpt>
      <trkpt lat="42.50991560518741607666015625" lon="19.98874685727059841156005859375">
        <ele>1625</ele>
        <time>2026-06-19T08:28:40.000Z</time>
        <extensions>
          <ns3:TrackPointExtension>
            <ns3:atemp>21.0</ns3:atemp>
          </ns3:TrackPointExtension>
        </extensions>
      </trkpt>
      <trkpt lat="42.50989607535302639007568359375" lon="19.98876881785690784454345703125">
        <ele>1625.199951171875</ele>
        <time>2026-06-19T08:28:41.000Z</time>
        <extensions>
          <ns3:TrackPointExtension>
            <ns3:atemp>21.0</ns3:atemp>
          </ns3:TrackPointExtension>
        </extensions>
      </trkpt>
      <trkpt lat="42.5098752044141292572021484375" lon="19.98879144899547100067138671875">
        <ele>1625.800048828125</ele>
        <time>2026-06-19T08:28:42.000Z</time>
        <extensions>
          <ns3:TrackPointExtension>
            <ns3:atemp>21.0</ns3:atemp>
          </ns3:TrackPointExtension>
        </extensions>
      </trkpt>
      <trkpt lat="42.50985927879810333251953125" lon="19.9888108111917972564697265625">
        <ele>1626</ele>
        <time>2026-06-19T08:28:43.000Z</time>
        <extensions>
          <ns3:TrackPointExtension>
            <ns3:atemp>21.0</ns3:atemp>
          </ns3:TrackPointExtension>
        </extensions>
      </trkpt>
      <trkpt lat="42.50984259881079196929931640625" lon="19.9888302572071552276611328125">
        <ele>1626.4000244140625</ele>
        <time>2026-06-19T08:28:44.000Z</time>
        <extensions>
          <ns3:TrackPointExtension>
            <ns3:atemp>21.0</ns3:atemp>
          </ns3:TrackPointExtension>
        </extensions>
      </trkpt>
      <trkpt lat="42.50982868485152721405029296875" lon="19.98884576372802257537841796875">
        <ele>1626.800048828125</ele>
        <time>2026-06-19T08:28:45.000Z</time>
        <extensions>
          <ns3:TrackPointExtension>
            <ns3:atemp>21.0</ns3:atemp>
          </ns3:TrackPointExtension>
        </extensions>
      </trkpt>
      <trkpt lat="42.50981544144451618194580078125" lon="19.98886638320982456207275390625">
        <ele>1627</ele>
        <time>2026-06-19T08:28:46.000Z</time>
        <extensions>
          <ns3:TrackPointExtension>
            <ns3:atemp>21.0</ns3:atemp>
          </ns3:TrackPointExtension>
        </extensions>
      </trkpt>
      <trkpt lat="42.50980270095169544219970703125" lon="19.98888901434838771820068359375">
        <ele>1627.4000244140625</ele>
        <time>2026-06-19T08:28:47.000Z</time>
        <extensions>
          <ns3:TrackPointExtension>
            <ns3:atemp>21.0</ns3:atemp>
          </ns3:TrackPointExtension>
        </extensions>
      </trkpt>
      <trkpt lat="42.50979264266788959503173828125" lon="19.98891256749629974365234375">
        <ele>1627.800048828125</ele>
        <time>2026-06-19T08:28:48.000Z</time>
        <extensions>
          <ns3:TrackPointExtension>
            <ns3:atemp>21.0</ns3:atemp>
          </ns3:TrackPointExtension>
        </extensions>
      </trkpt>
      <trkpt lat="42.50977755524218082427978515625" lon="19.98893628828227519989013671875">
        <ele>1628</ele>
        <time>2026-06-19T08:28:49.000Z</time>
        <extensions>
          <ns3:TrackPointExtension>
            <ns3:atemp>21.0</ns3:atemp>
          </ns3:TrackPointExtension>
        </extensions>
      </trkpt>
      <trkpt lat="42.50976179726421833038330078125" lon="19.98896352946758270263671875">
        <ele>1628.4000244140625</ele>
        <time>2026-06-19T08:28:50.000Z</time>
        <extensions>
          <ns3:TrackPointExtension>
            <ns3:atemp>21.0</ns3:atemp>
          </ns3:TrackPointExtension>
        </extensions>
      </trkpt>
      <trkpt lat="42.509746290743350982666015625" lon="19.98899077065289020538330078125">
        <ele>1628.5999755859375</ele>
        <time>2026-06-19T08:28:51.000Z</time>
        <extensions>
          <ns3:TrackPointExtension>
            <ns3:atemp>21.0</ns3:atemp>
          </ns3:TrackPointExtension>
        </extensions>
      </trkpt>
      <trkpt lat="42.5097290240228176116943359375" lon="19.9890203587710857391357421875">
        <ele>1629</ele>
        <time>2026-06-19T08:28:52.000Z</time>
        <extensions>
          <ns3:TrackPointExtension>
            <ns3:atemp>21.0</ns3:atemp>
          </ns3:TrackPointExtension>
        </extensions>
      </trkpt>
      <trkpt lat="42.50971184112131595611572265625" lon="19.98905614949762821197509765625">
        <ele>1629.199951171875</ele>
        <time>2026-06-19T08:28:53.000Z</time>
        <extensions>
          <ns3:TrackPointExtension>
            <ns3:atemp>21.0</ns3:atemp>
          </ns3:TrackPointExtension>
        </extensions>
      </trkpt>
      <trkpt lat="42.509692646563053131103515625" lon="19.9890854023396968841552734375">
        <ele>1629.5999755859375</ele>
        <time>2026-06-19T08:28:54.000Z</time>
        <extensions>
          <ns3:TrackPointExtension>
            <ns3:atemp>21.0</ns3:atemp>
          </ns3:TrackPointExtension>
        </extensions>
      </trkpt>
      <trkpt lat="42.50967680476605892181396484375" lon="19.9891157448291778564453125">
        <ele>1630</ele>
        <time>2026-06-19T08:28:55.000Z</time>
        <extensions>
          <ns3:TrackPointExtension>
            <ns3:atemp>21.0</ns3:atemp>
          </ns3:TrackPointExtension>
        </extensions>
      </trkpt>
      <trkpt lat="42.50966289080679416656494140625" lon="19.98914583586156368255615234375">
        <ele>1630.199951171875</ele>
        <time>2026-06-19T08:28:56.000Z</time>
        <extensions>
          <ns3:TrackPointExtension>
            <ns3:atemp>21.0</ns3:atemp>
          </ns3:TrackPointExtension>
        </extensions>
      </trkpt>
      <trkpt lat="42.509647719562053680419921875" lon="19.9891735799610614776611328125">
        <ele>1630.5999755859375</ele>
        <time>2026-06-19T08:28:57.000Z</time>
        <extensions>
          <ns3:TrackPointExtension>
            <ns3:atemp>21.0</ns3:atemp>
          </ns3:TrackPointExtension>
        </extensions>
      </trkpt>
      <trkpt lat="42.50963070429861545562744140625" lon="19.989197216928005218505859375">
        <ele>1631</ele>
        <time>2026-06-19T08:28:58.000Z</time>
        <extensions>
          <ns3:TrackPointExtension>
            <ns3:atemp>21.0</ns3:atemp>
          </ns3:TrackPointExtension>
        </extensions>
      </trkpt>
      <trkpt lat="42.50961377285420894622802734375" lon="19.9892283976078033447265625">
        <ele>1631.4000244140625</ele>
        <time>2026-06-19T08:28:59.000Z</time>
        <extensions>
          <ns3:TrackPointExtension>
            <ns3:atemp>21.0</ns3:atemp>
          </ns3:TrackPointExtension>
        </extensions>
      </trkpt>
      <trkpt lat="42.50959583558142185211181640625" lon="19.98926259577274322509765625">
        <ele>1631.5999755859375</ele>
        <time>2026-06-19T08:29:00.000Z</time>
        <extensions>
          <ns3:TrackPointExtension>
            <ns3:atemp>21.0</ns3:atemp>
          </ns3:TrackPointExtension>
        </extensions>
      </trkpt>
      <trkpt lat="42.50957840122282505035400390625" lon="19.98929671011865139007568359375">
        <ele>1632</ele>
        <time>2026-06-19T08:29:01.000Z</time>
        <extensions>
          <ns3:TrackPointExtension>
            <ns3:atemp>21.0</ns3:atemp>
          </ns3:TrackPointExtension>
        </extensions>
      </trkpt>
      <trkpt lat="42.50956549309194087982177734375" lon="19.98933023773133754730224609375">
        <ele>1632.199951171875</ele>
        <time>2026-06-19T08:29:02.000Z</time>
        <extensions>
          <ns3:TrackPointExtension>
            <ns3:atemp>21.0</ns3:atemp>
          </ns3:TrackPointExtension>
        </extensions>
      </trkpt>
      <trkpt lat="42.5095514953136444091796875" lon="19.9893680401146411895751953125">
        <ele>1632.5999755859375</ele>
        <time>2026-06-19T08:29:03.000Z</time>
        <extensions>
          <ns3:TrackPointExtension>
            <ns3:atemp>21.0</ns3:atemp>
          </ns3:TrackPointExtension>
        </extensions>
      </trkpt>
      <trkpt lat="42.50953699462115764617919921875" lon="19.989404417574405670166015625">
        <ele>1632.800048828125</ele>
        <time>2026-06-19T08:29:04.000Z</time>
        <extensions>
          <ns3:TrackPointExtension>
            <ns3:atemp>21.0</ns3:atemp>
          </ns3:TrackPointExtension>
        </extensions>
      </trkpt>
      <trkpt lat="42.50951671041548252105712890625" lon="19.989436604082584381103515625">
        <ele>1633.199951171875</ele>
        <time>2026-06-19T08:29:05.000Z</time>
        <extensions>
          <ns3:TrackPointExtension>
            <ns3:atemp>21.0</ns3:atemp>
          </ns3:TrackPointExtension>
        </extensions>
      </trkpt>
      <trkpt lat="42.5094951689243316650390625" lon="19.98947356827557086944580078125">
        <ele>1633.4000244140625</ele>
        <time>2026-06-19T08:29:06.000Z</time>
        <extensions>
          <ns3:TrackPointExtension>
            <ns3:atemp>21.0</ns3:atemp>
          </ns3:TrackPointExtension>
        </extensions>
      </trkpt>
      <trkpt lat="42.50947496853768825531005859375" lon="19.98950667679309844970703125">
        <ele>1633.800048828125</ele>
        <time>2026-06-19T08:29:07.000Z</time>
        <extensions>
          <ns3:TrackPointExtension>
            <ns3:atemp>21.0</ns3:atemp>
          </ns3:TrackPointExtension>
        </extensions>
      </trkpt>
      <trkpt lat="42.509453594684600830078125" lon="19.9895440600812435150146484375">
        <ele>1634</ele>
        <time>2026-06-19T08:29:08.000Z</time>
        <extensions>
          <ns3:TrackPointExtension>
            <ns3:atemp>21.0</ns3:atemp>
          </ns3:TrackPointExtension>
        </extensions>
      </trkpt>
      <trkpt lat="42.50943406485021114349365234375" lon="19.98957934789359569549560546875">
        <ele>1634.199951171875</ele>
        <time>2026-06-19T08:29:09.000Z</time>
        <extensions>
          <ns3:TrackPointExtension>
            <ns3:atemp>21.0</ns3:atemp>
          </ns3:TrackPointExtension>
        </extensions>
      </trkpt>
      <trkpt lat="42.5094131939113140106201171875" lon="19.98961270786821842193603515625">
        <ele>1634.5999755859375</ele>
        <time>2026-06-19T08:29:10.000Z</time>
        <extensions>
          <ns3:TrackPointExtension>
            <ns3:atemp>21.0</ns3:atemp>
          </ns3:TrackPointExtension>
        </extensions>
      </trkpt>
      <trkpt lat="42.50939131714403629302978515625" lon="19.98964321799576282501220703125">
        <ele>1634.800048828125</ele>
        <time>2026-06-19T08:29:11.000Z</time>
        <extensions>
          <ns3:TrackPointExtension>
            <ns3:atemp>21.0</ns3:atemp>
          </ns3:TrackPointExtension>
        </extensions>
      </trkpt>
      <trkpt lat="42.50936935655772686004638671875" lon="19.98967356048524379730224609375">
        <ele>1635.199951171875</ele>
        <time>2026-06-19T08:29:12.000Z</time>
        <extensions>
          <ns3:TrackPointExtension>
            <ns3:atemp>21.0</ns3:atemp>
          </ns3:TrackPointExtension>
        </extensions>
      </trkpt>
      <trkpt lat="42.50934672541916370391845703125" lon="19.9897039867937564849853515625">
        <ele>1635.4000244140625</ele>
        <time>2026-06-19T08:29:13.000Z</time>
        <extensions>
          <ns3:TrackPointExtension>
            <ns3:atemp>21.0</ns3:atemp>
          </ns3:TrackPointExtension>
        </extensions>
      </trkpt>
      <trkpt lat="42.50932459719479084014892578125" lon="19.98973575420677661895751953125">
        <ele>1635.5999755859375</ele>
        <time>2026-06-19T08:29:14.000Z</time>
        <extensions>
          <ns3:TrackPointExtension>
            <ns3:atemp>21.0</ns3:atemp>
          </ns3:TrackPointExtension>
        </extensions>
      </trkpt>
      <trkpt lat="42.50930230133235454559326171875" lon="19.98977146111428737640380859375">
        <ele>1636</ele>
        <time>2026-06-19T08:29:15.000Z</time>
        <extensions>
          <ns3:TrackPointExtension>
            <ns3:atemp>21.0</ns3:atemp>
          </ns3:TrackPointExtension>
        </extensions>
      </trkpt>
      <trkpt lat="42.509280927479267120361328125" lon="19.98980314470827579498291015625">
        <ele>1636.199951171875</ele>
        <time>2026-06-19T08:29:16.000Z</time>
        <extensions>
          <ns3:TrackPointExtension>
            <ns3:atemp>21.0</ns3:atemp>
          </ns3:TrackPointExtension>
        </extensions>
      </trkpt>
      <trkpt lat="42.5092616491019725799560546875" lon="19.98983499594032764434814453125">
        <ele>1636.5999755859375</ele>
        <time>2026-06-19T08:29:17.000Z</time>
        <extensions>
          <ns3:TrackPointExtension>
            <ns3:atemp>21.0</ns3:atemp>
          </ns3:TrackPointExtension>
        </extensions>
      </trkpt>
      <trkpt lat="42.50924027524888515472412109375" lon="19.98986701481044292449951171875">
        <ele>1636.800048828125</ele>
        <time>2026-06-19T08:29:18.000Z</time>
        <extensions>
          <ns3:TrackPointExtension>
            <ns3:atemp>21.0</ns3:atemp>
          </ns3:TrackPointExtension>
        </extensions>
      </trkpt>
      <trkpt lat="42.5092150457203388214111328125" lon="19.9899016320705413818359375">
        <ele>1637</ele>
        <time>2026-06-19T08:29:19.000Z</time>
        <extensions>
          <ns3:TrackPointExtension>
            <ns3:atemp>21.0</ns3:atemp>
          </ns3:TrackPointExtension>
        </extensions>
      </trkpt>
      <trkpt lat="42.50919249840080738067626953125" lon="19.98993893153965473175048828125">
        <ele>1637.4000244140625</ele>
        <time>2026-06-19T08:29:20.000Z</time>
        <extensions>
          <ns3:TrackPointExtension>
            <ns3:atemp>21.0</ns3:atemp>
          </ns3:TrackPointExtension>
        </extensions>
      </trkpt>
      <trkpt lat="42.50917372293770313262939453125" lon="19.989972375333309173583984375">
        <ele>1637.5999755859375</ele>
        <time>2026-06-19T08:29:21.000Z</time>
        <extensions>
          <ns3:TrackPointExtension>
            <ns3:atemp>21.0</ns3:atemp>
          </ns3:TrackPointExtension>
        </extensions>
      </trkpt>
      <trkpt lat="42.5091506727039813995361328125" lon="19.9900047294795513153076171875">
        <ele>1638</ele>
        <time>2026-06-19T08:29:22.000Z</time>
        <extensions>
          <ns3:TrackPointExtension>
            <ns3:atemp>21.0</ns3:atemp>
          </ns3:TrackPointExtension>
        </extensions>
      </trkpt>
      <trkpt lat="42.509126365184783935546875" lon="19.99003884382545948028564453125">
        <ele>1638.199951171875</ele>
        <time>2026-06-19T08:29:23.000Z</time>
        <extensions>
          <ns3:TrackPointExtension>
            <ns3:atemp>21.0</ns3:atemp>
          </ns3:TrackPointExtension>
        </extensions>
      </trkpt>
      <trkpt lat="42.50910297967493534088134765625" lon="19.99007170088589191436767578125">
        <ele>1638.4000244140625</ele>
        <time>2026-06-19T08:29:24.000Z</time>
        <extensions>
          <ns3:TrackPointExtension>
            <ns3:atemp>21.0</ns3:atemp>
          </ns3:TrackPointExtension>
        </extensions>
      </trkpt>
      <trkpt lat="42.50908076763153076171875" lon="19.99010422267019748687744140625">
        <ele>1638.5999755859375</ele>
        <time>2026-06-19T08:29:25.000Z</time>
        <extensions>
          <ns3:TrackPointExtension>
            <ns3:atemp>21.0</ns3:atemp>
          </ns3:TrackPointExtension>
        </extensions>
      </trkpt>
      <trkpt lat="42.50905822031199932098388671875" lon="19.9901341460645198822021484375">
        <ele>1638.800048828125</ele>
        <time>2026-06-19T08:29:26.000Z</time>
        <extensions>
          <ns3:TrackPointExtension>
            <ns3:atemp>21.0</ns3:atemp>
          </ns3:TrackPointExtension>
        </extensions>
      </trkpt>
      <trkpt lat="42.50903625972568988800048828125" lon="19.99016641639173030853271484375">
        <ele>1639</ele>
        <time>2026-06-19T08:29:27.000Z</time>
        <extensions>
          <ns3:TrackPointExtension>
            <ns3:atemp>21.0</ns3:atemp>
          </ns3:TrackPointExtension>
        </extensions>
      </trkpt>
      <trkpt lat="42.509016729891300201416015625" lon="19.990200698375701904296875">
        <ele>1639.199951171875</ele>
        <time>2026-06-19T08:29:28.000Z</time>
        <extensions>
          <ns3:TrackPointExtension>
            <ns3:atemp>21.0</ns3:atemp>
          </ns3:TrackPointExtension>
        </extensions>
      </trkpt>
      <trkpt lat="42.50899560749530792236328125" lon="19.9902357347309589385986328125">
        <ele>1639.4000244140625</ele>
        <time>2026-06-19T08:29:29.000Z</time>
        <extensions>
          <ns3:TrackPointExtension>
            <ns3:atemp>21.0</ns3:atemp>
          </ns3:TrackPointExtension>
        </extensions>
      </trkpt>
      <trkpt lat="42.50898085534572601318359375" lon="19.99027135781943798065185546875">
        <ele>1639.5999755859375</ele>
        <time>2026-06-19T08:29:30.000Z</time>
        <extensions>
          <ns3:TrackPointExtension>
            <ns3:atemp>21.0</ns3:atemp>
          </ns3:TrackPointExtension>
        </extensions>
      </trkpt>
      <trkpt lat="42.50896207988262176513671875" lon="19.9903064779937267303466796875">
        <ele>1640</ele>
        <time>2026-06-19T08:29:31.000Z</time>
        <extensions>
          <ns3:TrackPointExtension>
            <ns3:atemp>21.0</ns3:atemp>
          </ns3:TrackPointExtension>
        </extensions>
      </trkpt>
      <trkpt lat="42.50894959084689617156982421875" lon="19.990337826311588287353515625">
        <ele>1640.199951171875</ele>
        <time>2026-06-19T08:29:32.000Z</time>
        <extensions>
          <ns3:TrackPointExtension>
            <ns3:atemp>21.0</ns3:atemp>
          </ns3:TrackPointExtension>
        </extensions>
      </trkpt>
      <trkpt lat="42.508930899202823638916015625" lon="19.99037546105682849884033203125">
        <ele>1640.5999755859375</ele>
        <time>2026-06-19T08:29:33.000Z</time>
        <extensions>
          <ns3:TrackPointExtension>
            <ns3:atemp>21.0</ns3:atemp>
          </ns3:TrackPointExtension>
        </extensions>
      </trkpt>
      <trkpt lat="42.50891053117811679840087890625" lon="19.9904085695743560791015625">
        <ele>1640.800048828125</ele>
        <time>2026-06-19T08:29:34.000Z</time>
        <extensions>
          <ns3:TrackPointExtension>
            <ns3:atemp>21.0</ns3:atemp>
          </ns3:TrackPointExtension>
        </extensions>
      </trkpt>
      <trkpt lat="42.508892007172107696533203125" lon="19.99044452793896198272705078125">
        <ele>1641</ele>
        <time>2026-06-19T08:29:35.000Z</time>
        <extensions>
          <ns3:TrackPointExtension>
            <ns3:atemp>21.0</ns3:atemp>
          </ns3:TrackPointExtension>
        </extensions>
      </trkpt>
      <trkpt lat="42.50887448899447917938232421875" lon="19.99048124067485332489013671875">
        <ele>1641.4000244140625</ele>
        <time>2026-06-19T08:29:36.000Z</time>
        <extensions>
          <ns3:TrackPointExtension>
            <ns3:atemp>21.0</ns3:atemp>
          </ns3:TrackPointExtension>
        </extensions>
      </trkpt>
      <trkpt lat="42.50885990448296070098876953125" lon="19.99051652848720550537109375">
        <ele>1641.5999755859375</ele>
        <time>2026-06-19T08:29:37.000Z</time>
        <extensions>
          <ns3:TrackPointExtension>
            <ns3:atemp>21.0</ns3:atemp>
          </ns3:TrackPointExtension>
        </extensions>
      </trkpt>
      <trkpt lat="42.50884481705725193023681640625" lon="19.990555085241794586181640625">
        <ele>1642</ele>
        <time>2026-06-19T08:29:38.000Z</time>
        <extensions>
          <ns3:TrackPointExtension>
            <ns3:atemp>21.0</ns3:atemp>
          </ns3:TrackPointExtension>
        </extensions>
      </trkpt>
      <trkpt lat="42.50883090309798717498779296875" lon="19.9905921332538127899169921875">
        <ele>1642.4000244140625</ele>
        <time>2026-06-19T08:29:39.000Z</time>
        <extensions>
          <ns3:TrackPointExtension>
            <ns3:atemp>21.0</ns3:atemp>
          </ns3:TrackPointExtension>
        </extensions>
      </trkpt>
      <trkpt lat="42.5088192522525787353515625" lon="19.99062088318169116973876953125">
        <ele>1642.5999755859375</ele>
        <time>2026-06-19T08:29:40.000Z</time>
        <extensions>
          <ns3:TrackPointExtension>
            <ns3:atemp>21.0</ns3:atemp>
          </ns3:TrackPointExtension>
        </extensions>
      </trkpt>
      <trkpt lat="42.50880517065525054931640625" lon="19.99065642245113849639892578125">
        <ele>1643</ele>
        <time>2026-06-19T08:29:41.000Z</time>
        <extensions>
          <ns3:TrackPointExtension>
            <ns3:atemp>21.0</ns3:atemp>
          </ns3:TrackPointExtension>
        </extensions>
      </trkpt>
      <trkpt lat="42.50878999941051006317138671875" lon="19.99069229699671268463134765625">
        <ele>1643.4000244140625</ele>
        <time>2026-06-19T08:29:42.000Z</time>
        <extensions>
          <ns3:TrackPointExtension>
            <ns3:atemp>21.0</ns3:atemp>
          </ns3:TrackPointExtension>
        </extensions>
      </trkpt>
      <trkpt lat="42.50877407379448413848876953125" lon="19.9907295964658260345458984375">
        <ele>1643.5999755859375</ele>
        <time>2026-06-19T08:29:43.000Z</time>
        <extensions>
          <ns3:TrackPointExtension>
            <ns3:atemp>21.0</ns3:atemp>
          </ns3:TrackPointExtension>
        </extensions>
      </trkpt>
      <trkpt lat="42.508754543960094451904296875" lon="19.9907648004591464996337890625">
        <ele>1644</ele>
        <time>2026-06-19T08:29:44.000Z</time>
        <extensions>
          <ns3:TrackPointExtension>
            <ns3:atemp>21.0</ns3:atemp>
          </ns3:TrackPointExtension>
        </extensions>
      </trkpt>
      <trkpt lat="42.50873467884957790374755859375" lon="19.99079883098602294921875">
        <ele>1644.4000244140625</ele>
        <time>2026-06-19T08:29:45.000Z</time>
        <extensions>
          <ns3:TrackPointExtension>
            <ns3:atemp>21.0</ns3:atemp>
          </ns3:TrackPointExtension>
        </extensions>
      </trkpt>
      <trkpt lat="42.50871305353939533233642578125" lon="19.99083311296999454498291015625">
        <ele>1644.800048828125</ele>
        <time>2026-06-19T08:29:46.000Z</time>
        <extensions>
          <ns3:TrackPointExtension>
            <ns3:atemp>21.0</ns3:atemp>
          </ns3:TrackPointExtension>
        </extensions>
      </trkpt>
      <trkpt lat="42.508692182600498199462890625" lon="19.99086563475430011749267578125">
        <ele>1645</ele>
        <time>2026-06-19T08:29:47.000Z</time>
        <extensions>
          <ns3:TrackPointExtension>
            <ns3:atemp>21.0</ns3:atemp>
          </ns3:TrackPointExtension>
        </extensions>
      </trkpt>
      <trkpt lat="42.5086735747754573822021484375" lon="19.990893043577671051025390625">
        <ele>1645.4000244140625</ele>
        <time>2026-06-19T08:29:48.000Z</time>
        <extensions>
          <ns3:TrackPointExtension>
            <ns3:atemp>21.0</ns3:atemp>
          </ns3:TrackPointExtension>
        </extensions>
      </trkpt>
      <trkpt lat="42.50864968635141849517822265625" lon="19.9909235537052154541015625">
        <ele>1645.5999755859375</ele>
        <time>2026-06-19T08:29:49.000Z</time>
        <extensions>
          <ns3:TrackPointExtension>
            <ns3:atemp>21.0</ns3:atemp>
          </ns3:TrackPointExtension>
        </extensions>
      </trkpt>
      <trkpt lat="42.50862873159348964691162109375" lon="19.990952722728252410888671875">
        <ele>1646</ele>
        <time>2026-06-19T08:29:50.000Z</time>
        <extensions>
          <ns3:TrackPointExtension>
            <ns3:atemp>21.0</ns3:atemp>
          </ns3:TrackPointExtension>
        </extensions>
      </trkpt>
      <trkpt lat="42.50860400497913360595703125" lon="19.9909830652177333831787109375">
        <ele>1646.199951171875</ele>
        <time>2026-06-19T08:29:51.000Z</time>
        <extensions>
          <ns3:TrackPointExtension>
            <ns3:atemp>21.0</ns3:atemp>
          </ns3:TrackPointExtension>
        </extensions>
      </trkpt>
      <trkpt lat="42.5085805356502532958984375" lon="19.99101399444043636322021484375">
        <ele>1646.4000244140625</ele>
        <time>2026-06-19T08:29:52.000Z</time>
        <extensions>
          <ns3:TrackPointExtension>
            <ns3:atemp>21.0</ns3:atemp>
          </ns3:TrackPointExtension>
        </extensions>
      </trkpt>
      <trkpt lat="42.50855983234941959381103515625" lon="19.99104349873960018157958984375">
        <ele>1646.5999755859375</ele>
        <time>2026-06-19T08:29:53.000Z</time>
        <extensions>
          <ns3:TrackPointExtension>
            <ns3:atemp>21.0</ns3:atemp>
          </ns3:TrackPointExtension>
        </extensions>
      </trkpt>
      <trkpt lat="42.508545331656932830810546875" lon="19.99106378294527530670166015625">
        <ele>1646.5999755859375</ele>
        <time>2026-06-19T08:29:54.000Z</time>
        <extensions>
          <ns3:TrackPointExtension>
            <ns3:atemp>21.0</ns3:atemp>
          </ns3:TrackPointExtension>
        </extensions>
      </trkpt>
      <trkpt lat="42.50853292644023895263671875" lon="19.9910762719810009002685546875">
        <ele>1646.800048828125</ele>
        <time>2026-06-19T08:29:55.000Z</time>
        <extensions>
          <ns3:TrackPointExtension>
            <ns3:atemp>21.0</ns3:atemp>
          </ns3:TrackPointExtension>
        </extensions>
      </trkpt>
      <trkpt lat="42.50852043740451335906982421875" lon="19.99108792282640933990478515625">
        <ele>1647</ele>
        <time>2026-06-19T08:29:56.000Z</time>
        <extensions>
          <ns3:TrackPointExtension>
            <ns3:atemp>21.0</ns3:atemp>
          </ns3:TrackPointExtension>
        </extensions>
      </trkpt>
      <trkpt lat="42.50851054675877094268798828125" lon="19.99110586009919643402099609375">
        <ele>1647</ele>
        <time>2026-06-19T08:29:57.000Z</time>
        <extensions>
          <ns3:TrackPointExtension>
            <ns3:atemp>21.0</ns3:atemp>
          </ns3:TrackPointExtension>
        </extensions>
      </trkpt>
      <trkpt lat="42.508499734103679656982421875" lon="19.99111910350620746612548828125">
        <ele>1647.199951171875</ele>
        <time>2026-06-19T08:29:58.000Z</time>
        <extensions>
          <ns3:TrackPointExtension>
            <ns3:atemp>21.0</ns3:atemp>
          </ns3:TrackPointExtension>
        </extensions>
      </trkpt>
      <trkpt lat="42.50848858617246150970458984375" lon="19.99113318510353565216064453125">
        <ele>1647.199951171875</ele>
        <time>2026-06-19T08:29:59.000Z</time>
        <extensions>
          <ns3:TrackPointExtension>
            <ns3:atemp>21.0</ns3:atemp>
          </ns3:TrackPointExtension>
        </extensions>
      </trkpt>
      <trkpt lat="42.50848221592605113983154296875" lon="19.99113486148416996002197265625">
        <ele>1647.199951171875</ele>
        <time>2026-06-19T08:30:00.000Z</time>
        <extensions>
          <ns3:TrackPointExtension>
            <ns3:atemp>21.0</ns3:atemp>
          </ns3:TrackPointExtension>
        </extensions>
      </trkpt>
      <trkpt lat="42.50847668386995792388916015625" lon="19.99113569967448711395263671875">
        <ele>1647.199951171875</ele>
        <time>2026-06-19T08:30:01.000Z</time>
        <extensions>
          <ns3:TrackPointExtension>
            <ns3:atemp>21.0</ns3:atemp>
          </ns3:TrackPointExtension>
        </extensions>
      </trkpt>
      <trkpt lat="42.50847660005092620849609375" lon="19.99113603495061397552490234375">
        <ele>1647</ele>
        <time>2026-06-19T08:30:02.000Z</time>
        <extensions>
          <ns3:TrackPointExtension>
            <ns3:atemp>21.0</ns3:atemp>
          </ns3:TrackPointExtension>
        </extensions>
      </trkpt>
      <trkpt lat="42.50847634859383106231689453125" lon="19.9911362864077091217041015625">
        <ele>1647</ele>
        <time>2026-06-19T08:30:03.000Z</time>
        <extensions>
          <ns3:TrackPointExtension>
            <ns3:atemp>21.0</ns3:atemp>
          </ns3:TrackPointExtension>
        </extensions>
      </trkpt>
      <trkpt lat="42.50846159644424915313720703125" lon="19.991149865090847015380859375">
        <ele>1647</ele>
        <time>2026-06-19T08:30:04.000Z</time>
        <extensions>
          <ns3:TrackPointExtension>
            <ns3:atemp>21.0</ns3:atemp>
          </ns3:TrackPointExtension>
        </extensions>
      </trkpt>
      <trkpt lat="42.50845321454107761383056640625" lon="19.9911614321172237396240234375">
        <ele>1646.800048828125</ele>
        <time>2026-06-19T08:30:05.000Z</time>
        <extensions>
          <ns3:TrackPointExtension>
            <ns3:atemp>21.0</ns3:atemp>
          </ns3:TrackPointExtension>
        </extensions>
      </trkpt>
      <trkpt lat="42.50845338217914104461669921875" lon="19.99116151593625545501708984375">
        <ele>1646.800048828125</ele>
        <time>2026-06-19T08:30:06.000Z</time>
        <extensions>
          <ns3:TrackPointExtension>
            <ns3:atemp>21.0</ns3:atemp>
          </ns3:TrackPointExtension>
        </extensions>
      </trkpt>
      <trkpt lat="42.50845338217914104461669921875" lon="19.99116151593625545501708984375">
        <ele>1646.800048828125</ele>
        <time>2026-06-19T08:30:07.000Z</time>
        <extensions>
          <ns3:TrackPointExtension>
            <ns3:atemp>21.0</ns3:atemp>
          </ns3:TrackPointExtension>
        </extensions>
      </trkpt>
      <trkpt lat="42.50845338217914104461669921875" lon="19.99116151593625545501708984375">
        <ele>1646.800048828125</ele>
        <time>2026-06-19T08:30:08.000Z</time>
        <extensions>
          <ns3:TrackPointExtension>
            <ns3:atemp>21.0</ns3:atemp>
          </ns3:TrackPointExtension>
        </extensions>
      </trkpt>
      <trkpt lat="42.50845338217914104461669921875" lon="19.99116151593625545501708984375">
        <ele>1646.800048828125</ele>
        <time>2026-06-19T08:30:09.000Z</time>
        <extensions>
          <ns3:TrackPointExtension>
            <ns3:atemp>21.0</ns3:atemp>
          </ns3:TrackPointExtension>
        </extensions>
      </trkpt>
      <trkpt lat="42.50845388509333133697509765625" lon="19.99116159975528717041015625">
        <ele>1646.800048828125</ele>
        <time>2026-06-19T08:30:10.000Z</time>
        <extensions>
          <ns3:TrackPointExtension>
            <ns3:atemp>21.0</ns3:atemp>
          </ns3:TrackPointExtension>
        </extensions>
      </trkpt>
      <trkpt lat="42.50844818539917469024658203125" lon="19.99116520397365093231201171875">
        <ele>1646.800048828125</ele>
        <time>2026-06-19T08:30:11.000Z</time>
        <extensions>
          <ns3:TrackPointExtension>
            <ns3:atemp>21.0</ns3:atemp>
          </ns3:TrackPointExtension>
        </extensions>
      </trkpt>
      <trkpt lat="42.5084382109344005584716796875" lon="19.9911783635616302490234375">
        <ele>1646.800048828125</ele>
        <time>2026-06-19T08:30:12.000Z</time>
        <extensions>
          <ns3:TrackPointExtension>
            <ns3:atemp>21.0</ns3:atemp>
          </ns3:TrackPointExtension>
        </extensions>
      </trkpt>
      <trkpt lat="42.50843058340251445770263671875" lon="19.99119336716830730438232421875">
        <ele>1646.5999755859375</ele>
        <time>2026-06-19T08:30:13.000Z</time>
        <extensions>
          <ns3:TrackPointExtension>
            <ns3:atemp>21.0</ns3:atemp>
          </ns3:TrackPointExtension>
        </extensions>
      </trkpt>
      <trkpt lat="42.5084222853183746337890625" lon="19.99121725559234619140625">
        <ele>1646.5999755859375</ele>
        <time>2026-06-19T08:30:14.000Z</time>
        <extensions>
          <ns3:TrackPointExtension>
            <ns3:atemp>21.0</ns3:atemp>
          </ns3:TrackPointExtension>
        </extensions>
      </trkpt>
      <trkpt lat="42.5084060244262218475341796875" lon="19.99124399386346340179443359375">
        <ele>1646.4000244140625</ele>
        <time>2026-06-19T08:30:15.000Z</time>
        <extensions>
          <ns3:TrackPointExtension>
            <ns3:atemp>21.0</ns3:atemp>
          </ns3:TrackPointExtension>
        </extensions>
      </trkpt>
      <trkpt lat="42.508388422429561614990234375" lon="19.99127165414392948150634765625">
        <ele>1646.4000244140625</ele>
        <time>2026-06-19T08:30:16.000Z</time>
        <extensions>
          <ns3:TrackPointExtension>
            <ns3:atemp>21.0</ns3:atemp>
          </ns3:TrackPointExtension>
        </extensions>
      </trkpt>
      <trkpt lat="42.50836369581520557403564453125" lon="19.9913025833666324615478515625">
        <ele>1646.199951171875</ele>
        <time>2026-06-19T08:30:17.000Z</time>
        <extensions>
          <ns3:TrackPointExtension>
            <ns3:atemp>21.0</ns3:atemp>
          </ns3:TrackPointExtension>
        </extensions>
      </trkpt>
      <trkpt lat="42.5083419866859912872314453125" lon="19.99133703298866748809814453125">
        <ele>1646</ele>
        <time>2026-06-19T08:30:18.000Z</time>
        <extensions>
          <ns3:TrackPointExtension>
            <ns3:atemp>21.0</ns3:atemp>
          </ns3:TrackPointExtension>
        </extensions>
      </trkpt>
      <trkpt lat="42.5083238817751407623291015625" lon="19.99136502854526042938232421875">
        <ele>1646</ele>
        <time>2026-06-19T08:30:19.000Z</time>
        <extensions>
          <ns3:TrackPointExtension>
            <ns3:atemp>21.0</ns3:atemp>
          </ns3:TrackPointExtension>
        </extensions>
      </trkpt>
      <trkpt lat="42.50830401666462421417236328125" lon="19.9913974665105342864990234375">
        <ele>1645.800048828125</ele>
        <time>2026-06-19T08:30:20.000Z</time>
        <extensions>
          <ns3:TrackPointExtension>
            <ns3:atemp>21.0</ns3:atemp>
          </ns3:TrackPointExtension>
        </extensions>
      </trkpt>
      <trkpt lat="42.50828742049634456634521484375" lon="19.9914289824664592742919921875">
        <ele>1645.800048828125</ele>
        <time>2026-06-19T08:30:21.000Z</time>
        <extensions>
          <ns3:TrackPointExtension>
            <ns3:atemp>21.0</ns3:atemp>
          </ns3:TrackPointExtension>
        </extensions>
      </trkpt>
      <trkpt lat="42.50826763920485973358154296875" lon="19.9914578162133693695068359375">
        <ele>1645.800048828125</ele>
        <time>2026-06-19T08:30:22.000Z</time>
        <extensions>
          <ns3:TrackPointExtension>
            <ns3:atemp>21.0</ns3:atemp>
          </ns3:TrackPointExtension>
        </extensions>
      </trkpt>
      <trkpt lat="42.508247606456279754638671875" lon="19.99149025417864322662353515625">
        <ele>1645.5999755859375</ele>
        <time>2026-06-19T08:30:23.000Z</time>
        <extensions>
          <ns3:TrackPointExtension>
            <ns3:atemp>21.0</ns3:atemp>
          </ns3:TrackPointExtension>
        </extensions>
      </trkpt>
      <trkpt lat="42.50822757370769977569580078125" lon="19.9915215186774730682373046875">
        <ele>1645.5999755859375</ele>
        <time>2026-06-19T08:30:24.000Z</time>
        <extensions>
          <ns3:TrackPointExtension>
            <ns3:atemp>21.0</ns3:atemp>
          </ns3:TrackPointExtension>
        </extensions>
      </trkpt>
      <trkpt lat="42.5082048587501049041748046875" lon="19.991552531719207763671875">
        <ele>1645.4000244140625</ele>
        <time>2026-06-19T08:30:25.000Z</time>
        <extensions>
          <ns3:TrackPointExtension>
            <ns3:atemp>21.0</ns3:atemp>
          </ns3:TrackPointExtension>
        </extensions>
      </trkpt>
      <trkpt lat="42.50818817876279354095458984375" lon="19.9915872327983379364013671875">
        <ele>1645.4000244140625</ele>
        <time>2026-06-19T08:30:26.000Z</time>
        <extensions>
          <ns3:TrackPointExtension>
            <ns3:atemp>21.0</ns3:atemp>
          </ns3:TrackPointExtension>
        </extensions>
      </trkpt>
      <trkpt lat="42.50816814601421356201171875" lon="19.99162285588681697845458984375">
        <ele>1645.4000244140625</ele>
        <time>2026-06-19T08:30:27.000Z</time>
        <extensions>
          <ns3:TrackPointExtension>
            <ns3:atemp>21.0</ns3:atemp>
          </ns3:TrackPointExtension>
        </extensions>
      </trkpt>
      <trkpt lat="42.5081478618085384368896484375" lon="19.991652108728885650634765625">
        <ele>1645.199951171875</ele>
        <time>2026-06-19T08:30:28.000Z</time>
        <extensions>
          <ns3:TrackPointExtension>
            <ns3:atemp>21.0</ns3:atemp>
          </ns3:TrackPointExtension>
        </extensions>
      </trkpt>
      <trkpt lat="42.508124895393848419189453125" lon="19.99168639071285724639892578125">
        <ele>1645.199951171875</ele>
        <time>2026-06-19T08:30:29.000Z</time>
        <extensions>
          <ns3:TrackPointExtension>
            <ns3:atemp>21.0</ns3:atemp>
          </ns3:TrackPointExtension>
        </extensions>
      </trkpt>
      <trkpt lat="42.508100755512714385986328125" lon="19.99172377400100231170654296875">
        <ele>1645.199951171875</ele>
        <time>2026-06-19T08:30:30.000Z</time>
        <extensions>
          <ns3:TrackPointExtension>
            <ns3:atemp>21.0</ns3:atemp>
          </ns3:TrackPointExtension>
        </extensions>
      </trkpt>
      <trkpt lat="42.50807619653642177581787109375" lon="19.99176015146076679229736328125">
        <ele>1645</ele>
        <time>2026-06-19T08:30:31.000Z</time>
        <extensions>
          <ns3:TrackPointExtension>
            <ns3:atemp>21.0</ns3:atemp>
          </ns3:TrackPointExtension>
        </extensions>
      </trkpt>
      <trkpt lat="42.5080533139407634735107421875" lon="19.99179602600634098052978515625">
        <ele>1645</ele>
        <time>2026-06-19T08:30:32.000Z</time>
        <extensions>
          <ns3:TrackPointExtension>
            <ns3:atemp>21.0</ns3:atemp>
          </ns3:TrackPointExtension>
        </extensions>
      </trkpt>
      <trkpt lat="42.50803227536380290985107421875" lon="19.9918301403522491455078125">
        <ele>1645</ele>
        <time>2026-06-19T08:30:33.000Z</time>
        <extensions>
          <ns3:TrackPointExtension>
            <ns3:atemp>21.0</ns3:atemp>
          </ns3:TrackPointExtension>
        </extensions>
      </trkpt>
      <trkpt lat="42.50800989568233489990234375" lon="19.99186442233622074127197265625">
        <ele>1645</ele>
        <time>2026-06-19T08:30:34.000Z</time>
        <extensions>
          <ns3:TrackPointExtension>
            <ns3:atemp>21.0</ns3:atemp>
          </ns3:TrackPointExtension>
        </extensions>
      </trkpt>
      <trkpt lat="42.50799036584794521331787109375" lon="19.9919020570814609527587890625">
        <ele>1645</ele>
        <time>2026-06-19T08:30:35.000Z</time>
        <extensions>
          <ns3:TrackPointExtension>
            <ns3:atemp>21.0</ns3:atemp>
          </ns3:TrackPointExtension>
        </extensions>
      </trkpt>
      <trkpt lat="42.50796756707131862640380859375" lon="19.9919396080076694488525390625">
        <ele>1645</ele>
        <time>2026-06-19T08:30:36.000Z</time>
        <extensions>
          <ns3:TrackPointExtension>
            <ns3:atemp>21.0</ns3:atemp>
          </ns3:TrackPointExtension>
        </extensions>
      </trkpt>
      <trkpt lat="42.50794828869402408599853515625" lon="19.991977997124195098876953125">
        <ele>1645</ele>
        <time>2026-06-19T08:30:37.000Z</time>
        <extensions>
          <ns3:TrackPointExtension>
            <ns3:atemp>21.0</ns3:atemp>
          </ns3:TrackPointExtension>
        </extensions>
      </trkpt>
      <trkpt lat="42.507931105792522430419921875" lon="19.99201563186943531036376953125">
        <ele>1645</ele>
        <time>2026-06-19T08:30:38.000Z</time>
        <extensions>
          <ns3:TrackPointExtension>
            <ns3:atemp>21.0</ns3:atemp>
          </ns3:TrackPointExtension>
        </extensions>
      </trkpt>
      <trkpt lat="42.5079098157584667205810546875" lon="19.99205603264272212982177734375">
        <ele>1645</ele>
        <time>2026-06-19T08:30:39.000Z</time>
        <extensions>
          <ns3:TrackPointExtension>
            <ns3:atemp>21.0</ns3:atemp>
          </ns3:TrackPointExtension>
        </extensions>
      </trkpt>
      <trkpt lat="42.50789179466664791107177734375" lon="19.9920958466827869415283203125">
        <ele>1645</ele>
        <time>2026-06-19T08:30:40.000Z</time>
        <extensions>
          <ns3:TrackPointExtension>
            <ns3:atemp>21.0</ns3:atemp>
          </ns3:TrackPointExtension>
        </extensions>
      </trkpt>
      <trkpt lat="42.5078759528696537017822265625" lon="19.99213197268545627593994140625">
        <ele>1645</ele>
        <time>2026-06-19T08:30:41.000Z</time>
        <extensions>
          <ns3:TrackPointExtension>
            <ns3:atemp>21.0</ns3:atemp>
          </ns3:TrackPointExtension>
        </extensions>
      </trkpt>
      <trkpt lat="42.50785776413977146148681640625" lon="19.99216935597360134124755859375">
        <ele>1645</ele>
        <time>2026-06-19T08:30:42.000Z</time>
        <extensions>
          <ns3:TrackPointExtension>
            <ns3:atemp>21.0</ns3:atemp>
          </ns3:TrackPointExtension>
        </extensions>
      </trkpt>
      <trkpt lat="42.5078357197344303131103515625" lon="19.99220556579530239105224609375">
        <ele>1645</ele>
        <time>2026-06-19T08:30:43.000Z</time>
        <extensions>
          <ns3:TrackPointExtension>
            <ns3:atemp>21.0</ns3:atemp>
          </ns3:TrackPointExtension>
        </extensions>
      </trkpt>
      <trkpt lat="42.5078132562339305877685546875" lon="19.9922443740069866180419921875">
        <ele>1645</ele>
        <time>2026-06-19T08:30:44.000Z</time>
        <extensions>
          <ns3:TrackPointExtension>
            <ns3:atemp>20.0</ns3:atemp>
          </ns3:TrackPointExtension>
        </extensions>
      </trkpt>
      <trkpt lat="42.50778500922024250030517578125" lon="19.992285110056400299072265625">
        <ele>1645</ele>
        <time>2026-06-19T08:30:45.000Z</time>
        <extensions>
          <ns3:TrackPointExtension>
            <ns3:atemp>20.0</ns3:atemp>
          </ns3:TrackPointExtension>
        </extensions>
      </trkpt>
      <trkpt lat="42.5077579356729984283447265625" lon="19.9923201464116573333740234375">
        <ele>1645</ele>
        <time>2026-06-19T08:30:46.000Z</time>
        <extensions>
          <ns3:TrackPointExtension>
            <ns3:atemp>20.0</ns3:atemp>
          </ns3:TrackPointExtension>
        </extensions>
      </trkpt>
      <trkpt lat="42.507733963429927825927734375" lon="19.99235593713819980621337890625">
        <ele>1645</ele>
        <time>2026-06-19T08:30:47.000Z</time>
        <extensions>
          <ns3:TrackPointExtension>
            <ns3:atemp>20.0</ns3:atemp>
          </ns3:TrackPointExtension>
        </extensions>
      </trkpt>
      <trkpt lat="42.50771191902458667755126953125" lon="19.99238862656056880950927734375">
        <ele>1645.199951171875</ele>
        <time>2026-06-19T08:30:48.000Z</time>
        <extensions>
          <ns3:TrackPointExtension>
            <ns3:atemp>20.0</ns3:atemp>
          </ns3:TrackPointExtension>
        </extensions>
      </trkpt>
      <trkpt lat="42.50768803060054779052734375" lon="19.9924207292497158050537109375">
        <ele>1645.4000244140625</ele>
        <time>2026-06-19T08:30:49.000Z</time>
        <extensions>
          <ns3:TrackPointExtension>
            <ns3:atemp>20.0</ns3:atemp>
          </ns3:TrackPointExtension>
        </extensions>
      </trkpt>
      <trkpt lat="42.50766514800488948822021484375" lon="19.99245098792016506195068359375">
        <ele>1645.4000244140625</ele>
        <time>2026-06-19T08:30:50.000Z</time>
        <extensions>
          <ns3:TrackPointExtension>
            <ns3:atemp>20.0</ns3:atemp>
          </ns3:TrackPointExtension>
        </extensions>
      </trkpt>
      <trkpt lat="42.50764201395213603973388671875" lon="19.9924834258854389190673828125">
        <ele>1645.5999755859375</ele>
        <time>2026-06-19T08:30:51.000Z</time>
        <extensions>
          <ns3:TrackPointExtension>
            <ns3:atemp>20.0</ns3:atemp>
          </ns3:TrackPointExtension>
        </extensions>
      </trkpt>
      <trkpt lat="42.5076224841177463531494140625" lon="19.9925167858600616455078125">
        <ele>1645.800048828125</ele>
        <time>2026-06-19T08:30:52.000Z</time>
        <extensions>
          <ns3:TrackPointExtension>
            <ns3:atemp>20.0</ns3:atemp>
          </ns3:TrackPointExtension>
        </extensions>
      </trkpt>
      <trkpt lat="42.50760228373110294342041015625" lon="19.99254821799695491790771484375">
        <ele>1646</ele>
        <time>2026-06-19T08:30:53.000Z</time>
        <extensions>
          <ns3:TrackPointExtension>
            <ns3:atemp>20.0</ns3:atemp>
          </ns3:TrackPointExtension>
        </extensions>
      </trkpt>
      <trkpt lat="42.50758149661123752593994140625" lon="19.992578811943531036376953125">
        <ele>1646.199951171875</ele>
        <time>2026-06-19T08:30:54.000Z</time>
        <extensions>
          <ns3:TrackPointExtension>
            <ns3:atemp>20.0</ns3:atemp>
          </ns3:TrackPointExtension>
        </extensions>
      </trkpt>
      <trkpt lat="42.5075586140155792236328125" lon="19.99260739423334598541259765625">
        <ele>1646.4000244140625</ele>
        <time>2026-06-19T08:30:55.000Z</time>
        <extensions>
          <ns3:TrackPointExtension>
            <ns3:atemp>20.0</ns3:atemp>
          </ns3:TrackPointExtension>
        </extensions>
      </trkpt>
      <trkpt lat="42.50753656961023807525634765625" lon="19.99263505451381206512451171875">
        <ele>1646.5999755859375</ele>
        <time>2026-06-19T08:30:56.000Z</time>
        <extensions>
          <ns3:TrackPointExtension>
            <ns3:atemp>20.0</ns3:atemp>
          </ns3:TrackPointExtension>
        </extensions>
      </trkpt>
      <trkpt lat="42.5075156986713409423828125" lon="19.992662630975246429443359375">
        <ele>1646.800048828125</ele>
        <time>2026-06-19T08:30:57.000Z</time>
        <extensions>
          <ns3:TrackPointExtension>
            <ns3:atemp>20.0</ns3:atemp>
          </ns3:TrackPointExtension>
        </extensions>
      </trkpt>
      <trkpt lat="42.507495582103729248046875" lon="19.99269138090312480926513671875">
        <ele>1647</ele>
        <time>2026-06-19T08:30:58.000Z</time>
        <extensions>
          <ns3:TrackPointExtension>
            <ns3:atemp>20.0</ns3:atemp>
          </ns3:TrackPointExtension>
        </extensions>
      </trkpt>
      <trkpt lat="42.5074739567935466766357421875" lon="19.992717616260051727294921875">
        <ele>1647.4000244140625</ele>
        <time>2026-06-19T08:30:59.000Z</time>
        <extensions>
          <ns3:TrackPointExtension>
            <ns3:atemp>20.0</ns3:atemp>
          </ns3:TrackPointExtension>
        </extensions>
      </trkpt>
      <trkpt lat="42.50745191238820552825927734375" lon="19.99274452216923236846923828125">
        <ele>1647.5999755859375</ele>
        <time>2026-06-19T08:31:00.000Z</time>
        <extensions>
          <ns3:TrackPointExtension>
            <ns3:atemp>20.0</ns3:atemp>
          </ns3:TrackPointExtension>
        </extensions>
      </trkpt>
      <trkpt lat="42.50743196345865726470947265625" lon="19.99277469702064990997314453125">
        <ele>1648</ele>
        <time>2026-06-19T08:31:01.000Z</time>
        <extensions>
          <ns3:TrackPointExtension>
            <ns3:atemp>20.0</ns3:atemp>
          </ns3:TrackPointExtension>
        </extensions>
      </trkpt>
      <trkpt lat="42.5074152834713459014892578125" lon="19.99280554242432117462158203125">
        <ele>1648.199951171875</ele>
        <time>2026-06-19T08:31:02.000Z</time>
        <extensions>
          <ns3:TrackPointExtension>
            <ns3:atemp>20.0</ns3:atemp>
          </ns3:TrackPointExtension>
        </extensions>
      </trkpt>
      <trkpt lat="42.50739541836082935333251953125" lon="19.99283839948475360870361328125">
        <ele>1648.4000244140625</ele>
        <time>2026-06-19T08:31:03.000Z</time>
        <extensions>
          <ns3:TrackPointExtension>
            <ns3:atemp>20.0</ns3:atemp>
          </ns3:TrackPointExtension>
        </extensions>
      </trkpt>
      <trkpt lat="42.50736792571842670440673828125" lon="19.99287058599293231964111328125">
        <ele>1648.5999755859375</ele>
        <time>2026-06-19T08:31:04.000Z</time>
        <extensions>
          <ns3:TrackPointExtension>
            <ns3:atemp>20.0</ns3:atemp>
          </ns3:TrackPointExtension>
        </extensions>
      </trkpt>
      <trkpt lat="42.5073408521711826324462890625" lon="19.99290168285369873046875">
        <ele>1649</ele>
        <time>2026-06-19T08:31:05.000Z</time>
        <extensions>
          <ns3:TrackPointExtension>
            <ns3:atemp>20.0</ns3:atemp>
          </ns3:TrackPointExtension>
        </extensions>
      </trkpt>
      <trkpt lat="42.50731679610908031463623046875" lon="19.99293345026671886444091796875">
        <ele>1649.199951171875</ele>
        <time>2026-06-19T08:31:06.000Z</time>
        <extensions>
          <ns3:TrackPointExtension>
            <ns3:atemp>20.0</ns3:atemp>
          </ns3:TrackPointExtension>
        </extensions>
      </trkpt>
      <trkpt lat="42.50729299150407314300537109375" lon="19.99296278692781925201416015625">
        <ele>1649.5999755859375</ele>
        <time>2026-06-19T08:31:07.000Z</time>
        <extensions>
          <ns3:TrackPointExtension>
            <ns3:atemp>20.0</ns3:atemp>
          </ns3:TrackPointExtension>
        </extensions>
      </trkpt>
      <trkpt lat="42.5072714500129222869873046875" lon="19.9929940514266490936279296875">
        <ele>1649.800048828125</ele>
        <time>2026-06-19T08:31:08.000Z</time>
        <extensions>
          <ns3:TrackPointExtension>
            <ns3:atemp>20.0</ns3:atemp>
          </ns3:TrackPointExtension>
        </extensions>
      </trkpt>
      <trkpt lat="42.50725192017853260040283203125" lon="19.99303034506738185882568359375">
        <ele>1650.199951171875</ele>
        <time>2026-06-19T08:31:09.000Z</time>
        <extensions>
          <ns3:TrackPointExtension>
            <ns3:atemp>20.0</ns3:atemp>
          </ns3:TrackPointExtension>
        </extensions>
      </trkpt>
      <trkpt lat="42.50723314471542835235595703125" lon="19.99306596815586090087890625">
        <ele>1650.5999755859375</ele>
        <time>2026-06-19T08:31:10.000Z</time>
        <extensions>
          <ns3:TrackPointExtension>
            <ns3:atemp>20.0</ns3:atemp>
          </ns3:TrackPointExtension>
        </extensions>
      </trkpt>
      <trkpt lat="42.50721386633813381195068359375" lon="19.9931026808917522430419921875">
        <ele>1651</ele>
        <time>2026-06-19T08:31:11.000Z</time>
        <extensions>
          <ns3:TrackPointExtension>
            <ns3:atemp>20.0</ns3:atemp>
          </ns3:TrackPointExtension>
        </extensions>
      </trkpt>
      <trkpt lat="42.50719576142728328704833984375" lon="19.99313595704734325408935546875">
        <ele>1651.5999755859375</ele>
        <time>2026-06-19T08:31:12.000Z</time>
        <extensions>
          <ns3:TrackPointExtension>
            <ns3:atemp>20.0</ns3:atemp>
          </ns3:TrackPointExtension>
        </extensions>
      </trkpt>
      <trkpt lat="42.50718176364898681640625" lon="19.99317049048840999603271484375">
        <ele>1652</ele>
        <time>2026-06-19T08:31:13.000Z</time>
        <extensions>
          <ns3:TrackPointExtension>
            <ns3:atemp>20.0</ns3:atemp>
          </ns3:TrackPointExtension>
        </extensions>
      </trkpt>
      <trkpt lat="42.5071668438613414764404296875" lon="19.99320787377655506134033203125">
        <ele>1652.4000244140625</ele>
        <time>2026-06-19T08:31:14.000Z</time>
        <extensions>
          <ns3:TrackPointExtension>
            <ns3:atemp>20.0</ns3:atemp>
          </ns3:TrackPointExtension>
        </extensions>
      </trkpt>
      <trkpt lat="42.507153265178203582763671875" lon="19.99324031174182891845703125">
        <ele>1652.800048828125</ele>
        <time>2026-06-19T08:31:15.000Z</time>
        <extensions>
          <ns3:TrackPointExtension>
            <ns3:atemp>20.0</ns3:atemp>
          </ns3:TrackPointExtension>
        </extensions>
      </trkpt>
      <trkpt lat="42.50714085996150970458984375" lon="19.9932753480970859527587890625">
        <ele>1653.199951171875</ele>
        <time>2026-06-19T08:31:16.000Z</time>
        <extensions>
          <ns3:TrackPointExtension>
            <ns3:atemp>20.0</ns3:atemp>
          </ns3:TrackPointExtension>
        </extensions>
      </trkpt>
      <trkpt lat="42.5071272812783718109130859375" lon="19.9933092109858989715576171875">
        <ele>1653.800048828125</ele>
        <time>2026-06-19T08:31:17.000Z</time>
        <extensions>
          <ns3:TrackPointExtension>
            <ns3:atemp>20.0</ns3:atemp>
          </ns3:TrackPointExtension>
        </extensions>
      </trkpt>
      <trkpt lat="42.50711345113813877105712890625" lon="19.9933464266359806060791015625">
        <ele>1654.199951171875</ele>
        <time>2026-06-19T08:31:18.000Z</time>
        <extensions>
          <ns3:TrackPointExtension>
            <ns3:atemp>20.0</ns3:atemp>
          </ns3:TrackPointExtension>
        </extensions>
      </trkpt>
      <trkpt lat="42.50710121355950832366943359375" lon="19.99338339082896709442138671875">
        <ele>1654.5999755859375</ele>
        <time>2026-06-19T08:31:19.000Z</time>
        <extensions>
          <ns3:TrackPointExtension>
            <ns3:atemp>20.0</ns3:atemp>
          </ns3:TrackPointExtension>
        </extensions>
      </trkpt>
      <trkpt lat="42.50709031708538532257080078125" lon="19.9934128113090991973876953125">
        <ele>1655</ele>
        <time>2026-06-19T08:31:20.000Z</time>
        <extensions>
          <ns3:TrackPointExtension>
            <ns3:atemp>20.0</ns3:atemp>
          </ns3:TrackPointExtension>
        </extensions>
      </trkpt>
      <trkpt lat="42.5070800073444843292236328125" lon="19.99344306997954845428466796875">
        <ele>1655.5999755859375</ele>
        <time>2026-06-19T08:31:21.000Z</time>
        <extensions>
          <ns3:TrackPointExtension>
            <ns3:atemp>20.0</ns3:atemp>
          </ns3:TrackPointExtension>
        </extensions>
      </trkpt>
      <trkpt lat="42.507069446146488189697265625" lon="19.99347408302128314971923828125">
        <ele>1655.800048828125</ele>
        <time>2026-06-19T08:31:22.000Z</time>
        <extensions>
          <ns3:TrackPointExtension>
            <ns3:atemp>20.0</ns3:atemp>
          </ns3:TrackPointExtension>
        </extensions>
      </trkpt>
      <trkpt lat="42.507055364549160003662109375" lon="19.99350861646234989166259765625">
        <ele>1656.4000244140625</ele>
        <time>2026-06-19T08:31:23.000Z</time>
        <extensions>
          <ns3:TrackPointExtension>
            <ns3:atemp>20.0</ns3:atemp>
          </ns3:TrackPointExtension>
        </extensions>
      </trkpt>
      <trkpt lat="42.50703969039022922515869140625" lon="19.99353879131376743316650390625">
        <ele>1656.800048828125</ele>
        <time>2026-06-19T08:31:24.000Z</time>
        <extensions>
          <ns3:TrackPointExtension>
            <ns3:atemp>20.0</ns3:atemp>
          </ns3:TrackPointExtension>
        </extensions>
      </trkpt>
      <trkpt lat="42.50702359713613986968994140625" lon="19.9935730732977390289306640625">
        <ele>1657.199951171875</ele>
        <time>2026-06-19T08:31:25.000Z</time>
        <extensions>
          <ns3:TrackPointExtension>
            <ns3:atemp>20.0</ns3:atemp>
          </ns3:TrackPointExtension>
        </extensions>
      </trkpt>
      <trkpt lat="42.50700716860592365264892578125" lon="19.993605427443981170654296875">
        <ele>1657.4000244140625</ele>
        <time>2026-06-19T08:31:26.000Z</time>
        <extensions>
          <ns3:TrackPointExtension>
            <ns3:atemp>20.0</ns3:atemp>
          </ns3:TrackPointExtension>
        </extensions>
      </trkpt>
      <trkpt lat="42.50699711032211780548095703125" lon="19.9936377815902233123779296875">
        <ele>1657.800048828125</ele>
        <time>2026-06-19T08:31:27.000Z</time>
        <extensions>
          <ns3:TrackPointExtension>
            <ns3:atemp>20.0</ns3:atemp>
          </ns3:TrackPointExtension>
        </extensions>
      </trkpt>
      <trkpt lat="42.50698202289640903472900390625" lon="19.99367214739322662353515625">
        <ele>1658.199951171875</ele>
        <time>2026-06-19T08:31:28.000Z</time>
        <extensions>
          <ns3:TrackPointExtension>
            <ns3:atemp>20.0</ns3:atemp>
          </ns3:TrackPointExtension>
        </extensions>
      </trkpt>
      <trkpt lat="42.506968192756175994873046875" lon="19.9937065131962299346923828125">
        <ele>1658.5999755859375</ele>
        <time>2026-06-19T08:31:29.000Z</time>
        <extensions>
          <ns3:TrackPointExtension>
            <ns3:atemp>20.0</ns3:atemp>
          </ns3:TrackPointExtension>
        </extensions>
      </trkpt>
      <trkpt lat="42.5069515965878963470458984375" lon="19.99373878352344036102294921875">
        <ele>1658.800048828125</ele>
        <time>2026-06-19T08:31:30.000Z</time>
        <extensions>
          <ns3:TrackPointExtension>
            <ns3:atemp>20.0</ns3:atemp>
          </ns3:TrackPointExtension>
        </extensions>
      </trkpt>
      <trkpt lat="42.506941370666027069091796875" lon="19.99377113766968250274658203125">
        <ele>1659</ele>
        <time>2026-06-19T08:31:31.000Z</time>
        <extensions>
          <ns3:TrackPointExtension>
            <ns3:atemp>20.0</ns3:atemp>
          </ns3:TrackPointExtension>
        </extensions>
      </trkpt>
      <trkpt lat="42.506927289068698883056640625" lon="19.99380483292043209075927734375">
        <ele>1659.199951171875</ele>
        <time>2026-06-19T08:31:32.000Z</time>
        <extensions>
          <ns3:TrackPointExtension>
            <ns3:atemp>20.0</ns3:atemp>
          </ns3:TrackPointExtension>
        </extensions>
      </trkpt>
      <trkpt lat="42.506911195814609527587890625" lon="19.993842132389545440673828125">
        <ele>1659.4000244140625</ele>
        <time>2026-06-19T08:31:33.000Z</time>
        <extensions>
          <ns3:TrackPointExtension>
            <ns3:atemp>20.0</ns3:atemp>
          </ns3:TrackPointExtension>
        </extensions>
      </trkpt>
      <trkpt lat="42.5068949349224567413330078125" lon="19.9938781745731830596923828125">
        <ele>1659.5999755859375</ele>
        <time>2026-06-19T08:31:34.000Z</time>
        <extensions>
          <ns3:TrackPointExtension>
            <ns3:atemp>20.0</ns3:atemp>
          </ns3:TrackPointExtension>
        </extensions>
      </trkpt>
      <trkpt lat="42.506881691515445709228515625" lon="19.99390843324363231658935546875">
        <ele>1660</ele>
        <time>2026-06-19T08:31:35.000Z</time>
        <extensions>
          <ns3:TrackPointExtension>
            <ns3:atemp>20.0</ns3:atemp>
          </ns3:TrackPointExtension>
        </extensions>
      </trkpt>
      <trkpt lat="42.50686417333781719207763671875" lon="19.9939381889998912811279296875">
        <ele>1660.199951171875</ele>
        <time>2026-06-19T08:31:36.000Z</time>
        <extensions>
          <ns3:TrackPointExtension>
            <ns3:atemp>20.0</ns3:atemp>
          </ns3:TrackPointExtension>
        </extensions>
      </trkpt>
      <trkpt lat="42.506846822798252105712890625" lon="19.99397129751741886138916015625">
        <ele>1660.4000244140625</ele>
        <time>2026-06-19T08:31:37.000Z</time>
        <extensions>
          <ns3:TrackPointExtension>
            <ns3:atemp>20.0</ns3:atemp>
          </ns3:TrackPointExtension>
        </extensions>
      </trkpt>
      <trkpt lat="42.50682729296386241912841796875" lon="19.99400331638753414154052734375">
        <ele>1660.4000244140625</ele>
        <time>2026-06-19T08:31:38.000Z</time>
        <extensions>
          <ns3:TrackPointExtension>
            <ns3:atemp>20.0</ns3:atemp>
          </ns3:TrackPointExtension>
        </extensions>
      </trkpt>
      <trkpt lat="42.50680625438690185546875" lon="19.9940310604870319366455078125">
        <ele>1660.5999755859375</ele>
        <time>2026-06-19T08:31:39.000Z</time>
        <extensions>
          <ns3:TrackPointExtension>
            <ns3:atemp>20.0</ns3:atemp>
          </ns3:TrackPointExtension>
        </extensions>
      </trkpt>
      <trkpt lat="42.5067873112857341766357421875" lon="19.994062073528766632080078125">
        <ele>1660.800048828125</ele>
        <time>2026-06-19T08:31:40.000Z</time>
        <extensions>
          <ns3:TrackPointExtension>
            <ns3:atemp>20.0</ns3:atemp>
          </ns3:TrackPointExtension>
        </extensions>
      </trkpt>
      <trkpt lat="42.50677130185067653656005859375" lon="19.9940924160182476043701171875">
        <ele>1661</ele>
        <time>2026-06-19T08:31:41.000Z</time>
        <extensions>
          <ns3:TrackPointExtension>
            <ns3:atemp>20.0</ns3:atemp>
          </ns3:TrackPointExtension>
        </extensions>
      </trkpt>
      <trkpt lat="42.5067539513111114501953125" lon="19.99412150122225284576416015625">
        <ele>1661.199951171875</ele>
        <time>2026-06-19T08:31:42.000Z</time>
        <extensions>
          <ns3:TrackPointExtension>
            <ns3:atemp>20.0</ns3:atemp>
          </ns3:TrackPointExtension>
        </extensions>
      </trkpt>
      <trkpt lat="42.50673559494316577911376953125" lon="19.99414681456983089447021484375">
        <ele>1661.5999755859375</ele>
        <time>2026-06-19T08:31:43.000Z</time>
        <extensions>
          <ns3:TrackPointExtension>
            <ns3:atemp>20.0</ns3:atemp>
          </ns3:TrackPointExtension>
        </extensions>
      </trkpt>
      <trkpt lat="42.506714724004268646240234375" lon="19.9941735528409481048583984375">
        <ele>1661.800048828125</ele>
        <time>2026-06-19T08:31:44.000Z</time>
        <extensions>
          <ns3:TrackPointExtension>
            <ns3:atemp>20.0</ns3:atemp>
          </ns3:TrackPointExtension>
        </extensions>
      </trkpt>
      <trkpt lat="42.5066920928657054901123046875" lon="19.99419559724628925323486328125">
        <ele>1662</ele>
        <time>2026-06-19T08:31:45.000Z</time>
        <extensions>
          <ns3:TrackPointExtension>
            <ns3:atemp>20.0</ns3:atemp>
          </ns3:TrackPointExtension>
        </extensions>
      </trkpt>
      <trkpt lat="42.506669461727142333984375" lon="19.99421839602291584014892578125">
        <ele>1662.199951171875</ele>
        <time>2026-06-19T08:31:46.000Z</time>
        <extensions>
          <ns3:TrackPointExtension>
            <ns3:atemp>20.0</ns3:atemp>
          </ns3:TrackPointExtension>
        </extensions>
      </trkpt>
      <trkpt lat="42.50664439983665943145751953125" lon="19.9942409433424472808837890625">
        <ele>1662.5999755859375</ele>
        <time>2026-06-19T08:31:47.000Z</time>
        <extensions>
          <ns3:TrackPointExtension>
            <ns3:atemp>20.0</ns3:atemp>
          </ns3:TrackPointExtension>
        </extensions>
      </trkpt>
      <trkpt lat="42.50661858357489109039306640625" lon="19.99426650814712047576904296875">
        <ele>1662.800048828125</ele>
        <time>2026-06-19T08:31:48.000Z</time>
        <extensions>
          <ns3:TrackPointExtension>
            <ns3:atemp>20.0</ns3:atemp>
          </ns3:TrackPointExtension>
        </extensions>
      </trkpt>
      <trkpt lat="42.5065935216844081878662109375" lon="19.99429098330438137054443359375">
        <ele>1663.199951171875</ele>
        <time>2026-06-19T08:31:49.000Z</time>
        <extensions>
          <ns3:TrackPointExtension>
            <ns3:atemp>20.0</ns3:atemp>
          </ns3:TrackPointExtension>
        </extensions>
      </trkpt>
      <trkpt lat="42.50657130964100360870361328125" lon="19.9943153746426105499267578125">
        <ele>1663.4000244140625</ele>
        <time>2026-06-19T08:31:50.000Z</time>
        <extensions>
          <ns3:TrackPointExtension>
            <ns3:atemp>20.0</ns3:atemp>
          </ns3:TrackPointExtension>
        </extensions>
      </trkpt>
      <trkpt lat="42.50654809176921844482421875" lon="19.99433926306664943695068359375">
        <ele>1663.800048828125</ele>
        <time>2026-06-19T08:31:51.000Z</time>
        <extensions>
          <ns3:TrackPointExtension>
            <ns3:atemp>20.0</ns3:atemp>
          </ns3:TrackPointExtension>
        </extensions>
      </trkpt>
      <trkpt lat="42.50652655027806758880615234375" lon="19.99436172656714916229248046875">
        <ele>1664</ele>
        <time>2026-06-19T08:31:52.000Z</time>
        <extensions>
          <ns3:TrackPointExtension>
            <ns3:atemp>20.0</ns3:atemp>
          </ns3:TrackPointExtension>
        </extensions>
      </trkpt>
      <trkpt lat="42.5065073557198047637939453125" lon="19.9943851120769977569580078125">
        <ele>1664.4000244140625</ele>
        <time>2026-06-19T08:31:53.000Z</time>
        <extensions>
          <ns3:TrackPointExtension>
            <ns3:atemp>20.0</ns3:atemp>
          </ns3:TrackPointExtension>
        </extensions>
      </trkpt>
      <trkpt lat="42.50648749060928821563720703125" lon="19.9944095872342586517333984375">
        <ele>1664.5999755859375</ele>
        <time>2026-06-19T08:31:54.000Z</time>
        <extensions>
          <ns3:TrackPointExtension>
            <ns3:atemp>20.0</ns3:atemp>
          </ns3:TrackPointExtension>
        </extensions>
      </trkpt>
      <trkpt lat="42.50646905042231082916259765625" lon="19.9944327212870121002197265625">
        <ele>1665</ele>
        <time>2026-06-19T08:31:55.000Z</time>
        <extensions>
          <ns3:TrackPointExtension>
            <ns3:atemp>20.0</ns3:atemp>
          </ns3:TrackPointExtension>
        </extensions>
      </trkpt>
      <trkpt lat="42.50645027495920658111572265625" lon="19.99445510096848011016845703125">
        <ele>1665.199951171875</ele>
        <time>2026-06-19T08:31:56.000Z</time>
        <extensions>
          <ns3:TrackPointExtension>
            <ns3:atemp>20.0</ns3:atemp>
          </ns3:TrackPointExtension>
        </extensions>
      </trkpt>
      <trkpt lat="42.5064319185912609100341796875" lon="19.99447789974510669708251953125">
        <ele>1665.5999755859375</ele>
        <time>2026-06-19T08:31:57.000Z</time>
        <extensions>
          <ns3:TrackPointExtension>
            <ns3:atemp>20.0</ns3:atemp>
          </ns3:TrackPointExtension>
        </extensions>
      </trkpt>
      <trkpt lat="42.50641222111880779266357421875" lon="19.99450170435011386871337890625">
        <ele>1666</ele>
        <time>2026-06-19T08:31:58.000Z</time>
        <extensions>
          <ns3:TrackPointExtension>
            <ns3:atemp>20.0</ns3:atemp>
          </ns3:TrackPointExtension>
        </extensions>
      </trkpt>
      <trkpt lat="42.50639746896922588348388671875" lon="19.994523413479328155517578125">
        <ele>1666.199951171875</ele>
        <time>2026-06-19T08:31:59.000Z</time>
        <extensions>
          <ns3:TrackPointExtension>
            <ns3:atemp>20.0</ns3:atemp>
          </ns3:TrackPointExtension>
        </extensions>
      </trkpt>
      <trkpt lat="42.50638053752481937408447265625" lon="19.994543530046939849853515625">
        <ele>1666.4000244140625</ele>
        <time>2026-06-19T08:32:00.000Z</time>
        <extensions>
          <ns3:TrackPointExtension>
            <ns3:atemp>20.0</ns3:atemp>
          </ns3:TrackPointExtension>
        </extensions>
      </trkpt>
      <trkpt lat="42.50636159442365169525146484375" lon="19.9945651553571224212646484375">
        <ele>1666.800048828125</ele>
        <time>2026-06-19T08:32:01.000Z</time>
        <extensions>
          <ns3:TrackPointExtension>
            <ns3:atemp>20.0</ns3:atemp>
          </ns3:TrackPointExtension>
        </extensions>
      </trkpt>
      <trkpt lat="42.5063400529325008392333984375" lon="19.9945896305143833160400390625">
        <ele>1667</ele>
        <time>2026-06-19T08:32:02.000Z</time>
        <extensions>
          <ns3:TrackPointExtension>
            <ns3:atemp>20.0</ns3:atemp>
          </ns3:TrackPointExtension>
        </extensions>
      </trkpt>
      <trkpt lat="42.506317086517810821533203125" lon="19.9946151115000247955322265625">
        <ele>1667</ele>
        <time>2026-06-19T08:32:03.000Z</time>
        <extensions>
          <ns3:TrackPointExtension>
            <ns3:atemp>20.0</ns3:atemp>
          </ns3:TrackPointExtension>
        </extensions>
      </trkpt>
      <trkpt lat="42.50629034824669361114501953125" lon="19.9946419335901737213134765625">
        <ele>1667.199951171875</ele>
        <time>2026-06-19T08:32:04.000Z</time>
        <extensions>
          <ns3:TrackPointExtension>
            <ns3:atemp>20.0</ns3:atemp>
          </ns3:TrackPointExtension>
        </extensions>
      </trkpt>
      <trkpt lat="42.5062631070613861083984375" lon="19.9946711026132106781005859375">
        <ele>1667.199951171875</ele>
        <time>2026-06-19T08:32:05.000Z</time>
        <extensions>
          <ns3:TrackPointExtension>
            <ns3:atemp>20.0</ns3:atemp>
          </ns3:TrackPointExtension>
        </extensions>
      </trkpt>
      <trkpt lat="42.5062398053705692291259765625" lon="19.9947016127407550811767578125">
        <ele>1667.199951171875</ele>
        <time>2026-06-19T08:32:06.000Z</time>
        <extensions>
          <ns3:TrackPointExtension>
            <ns3:atemp>20.0</ns3:atemp>
          </ns3:TrackPointExtension>
        </extensions>
      </trkpt>
      <trkpt lat="42.506211139261722564697265625" lon="19.99473161995410919189453125">
        <ele>1667.199951171875</ele>
        <time>2026-06-19T08:32:07.000Z</time>
        <extensions>
          <ns3:TrackPointExtension>
            <ns3:atemp>20.0</ns3:atemp>
          </ns3:TrackPointExtension>
        </extensions>
      </trkpt>
      <trkpt lat="42.50618465244770050048828125" lon="19.994764141738414764404296875">
        <ele>1667.199951171875</ele>
        <time>2026-06-19T08:32:08.000Z</time>
        <extensions>
          <ns3:TrackPointExtension>
            <ns3:atemp>20.0</ns3:atemp>
          </ns3:TrackPointExtension>
        </extensions>
      </trkpt>
      <trkpt lat="42.5061576627194881439208984375" lon="19.99480395577847957611083984375">
        <ele>1667.4000244140625</ele>
        <time>2026-06-19T08:32:09.000Z</time>
        <extensions>
          <ns3:TrackPointExtension>
            <ns3:atemp>20.0</ns3:atemp>
          </ns3:TrackPointExtension>
        </extensions>
      </trkpt>
      <trkpt lat="42.50612975098192691802978515625" lon="19.99484502710402011871337890625">
        <ele>1667.4000244140625</ele>
        <time>2026-06-19T08:32:10.000Z</time>
        <extensions>
          <ns3:TrackPointExtension>
            <ns3:atemp>20.0</ns3:atemp>
          </ns3:TrackPointExtension>
        </extensions>
      </trkpt>
      <trkpt lat="42.50610418617725372314453125" lon="19.994882158935070037841796875">
        <ele>1667.4000244140625</ele>
        <time>2026-06-19T08:32:11.000Z</time>
        <extensions>
          <ns3:TrackPointExtension>
            <ns3:atemp>20.0</ns3:atemp>
          </ns3:TrackPointExtension>
        </extensions>
      </trkpt>
      <trkpt lat="42.50607392750680446624755859375" lon="19.99492197297513484954833984375">
        <ele>1667.199951171875</ele>
        <time>2026-06-19T08:32:12.000Z</time>
        <extensions>
          <ns3:TrackPointExtension>
            <ns3:atemp>20.0</ns3:atemp>
          </ns3:TrackPointExtension>
        </extensions>
      </trkpt>
      <trkpt lat="42.50603721477091312408447265625" lon="19.9949575960636138916015625">
        <ele>1667.199951171875</ele>
        <time>2026-06-19T08:32:13.000Z</time>
        <extensions>
          <ns3:TrackPointExtension>
            <ns3:atemp>20.0</ns3:atemp>
          </ns3:TrackPointExtension>
        </extensions>
      </trkpt>
      <trkpt lat="42.5060000829398632049560546875" lon="19.9949983321130275726318359375">
        <ele>1667</ele>
        <time>2026-06-19T08:32:14.000Z</time>
        <extensions>
          <ns3:TrackPointExtension>
            <ns3:atemp>20.0</ns3:atemp>
          </ns3:TrackPointExtension>
        </extensions>
      </trkpt>
      <trkpt lat="42.50595943070948123931884765625" lon="19.99503462575376033782958984375">
        <ele>1666.800048828125</ele>
        <time>2026-06-19T08:32:15.000Z</time>
        <extensions>
          <ns3:TrackPointExtension>
            <ns3:atemp>20.0</ns3:atemp>
          </ns3:TrackPointExtension>
        </extensions>
      </trkpt>
      <trkpt lat="42.50591366551816463470458984375" lon="19.9950702488422393798828125">
        <ele>1666.5999755859375</ele>
        <time>2026-06-19T08:32:16.000Z</time>
        <extensions>
          <ns3:TrackPointExtension>
            <ns3:atemp>20.0</ns3:atemp>
          </ns3:TrackPointExtension>
        </extensions>
      </trkpt>
      <trkpt lat="42.5058653019368648529052734375" lon="19.99510352499783039093017578125">
        <ele>1666.199951171875</ele>
        <time>2026-06-19T08:32:17.000Z</time>
        <extensions>
          <ns3:TrackPointExtension>
            <ns3:atemp>20.0</ns3:atemp>
          </ns3:TrackPointExtension>
        </extensions>
      </trkpt>
      <trkpt lat="42.5058140046894550323486328125" lon="19.99512800015509128570556640625">
        <ele>1666</ele>
        <time>2026-06-19T08:32:18.000Z</time>
        <extensions>
          <ns3:TrackPointExtension>
            <ns3:atemp>20.0</ns3:atemp>
          </ns3:TrackPointExtension>
        </extensions>
      </trkpt>
      <trkpt lat="42.50575843267142772674560546875" lon="19.99515281058847904205322265625">
        <ele>1665.800048828125</ele>
        <time>2026-06-19T08:32:19.000Z</time>
        <extensions>
          <ns3:TrackPointExtension>
            <ns3:atemp>20.0</ns3:atemp>
          </ns3:TrackPointExtension>
        </extensions>
      </trkpt>
      <trkpt lat="42.50570193864405155181884765625" lon="19.99517577700316905975341796875">
        <ele>1665.5999755859375</ele>
        <time>2026-06-19T08:32:20.000Z</time>
        <extensions>
          <ns3:TrackPointExtension>
            <ns3:atemp>20.0</ns3:atemp>
          </ns3:TrackPointExtension>
        </extensions>
      </trkpt>
      <trkpt lat="42.505645863711833953857421875" lon="19.99519639648497104644775390625">
        <ele>1665.4000244140625</ele>
        <time>2026-06-19T08:32:21.000Z</time>
        <extensions>
          <ns3:TrackPointExtension>
            <ns3:atemp>20.0</ns3:atemp>
          </ns3:TrackPointExtension>
        </extensions>
      </trkpt>
      <trkpt lat="42.5055923871695995330810546875" lon="19.995214082300662994384765625">
        <ele>1665.199951171875</ele>
        <time>2026-06-19T08:32:22.000Z</time>
        <extensions>
          <ns3:TrackPointExtension>
            <ns3:atemp>20.0</ns3:atemp>
          </ns3:TrackPointExtension>
        </extensions>
      </trkpt>
      <trkpt lat="42.50554050318896770477294921875" lon="19.99522388912737369537353515625">
        <ele>1665.199951171875</ele>
        <time>2026-06-19T08:32:23.000Z</time>
        <extensions>
          <ns3:TrackPointExtension>
            <ns3:atemp>20.0</ns3:atemp>
          </ns3:TrackPointExtension>
        </extensions>
      </trkpt>
      <trkpt lat="42.50549507327377796173095703125" lon="19.99524048529565334320068359375">
        <ele>1665</ele>
        <time>2026-06-19T08:32:24.000Z</time>
        <extensions>
          <ns3:TrackPointExtension>
            <ns3:atemp>20.0</ns3:atemp>
          </ns3:TrackPointExtension>
        </extensions>
      </trkpt>
      <trkpt lat="42.50545249320566654205322265625" lon="19.99525473453104496002197265625">
        <ele>1665.199951171875</ele>
        <time>2026-06-19T08:32:25.000Z</time>
        <extensions>
          <ns3:TrackPointExtension>
            <ns3:atemp>20.0</ns3:atemp>
          </ns3:TrackPointExtension>
        </extensions>
      </trkpt>
      <trkpt lat="42.505413852632045745849609375" lon="19.99526730738580226898193359375">
        <ele>1665.199951171875</ele>
        <time>2026-06-19T08:32:26.000Z</time>
        <extensions>
          <ns3:TrackPointExtension>
            <ns3:atemp>20.0</ns3:atemp>
          </ns3:TrackPointExtension>
        </extensions>
      </trkpt>
      <trkpt lat="42.50537387095391750335693359375" lon="19.9952799640595912933349609375">
        <ele>1665.4000244140625</ele>
        <time>2026-06-19T08:32:27.000Z</time>
        <extensions>
          <ns3:TrackPointExtension>
            <ns3:atemp>20.0</ns3:atemp>
          </ns3:TrackPointExtension>
        </extensions>
      </trkpt>
      <trkpt lat="42.50533749349415302276611328125" lon="19.99529697932302951812744140625">
        <ele>1665.5999755859375</ele>
        <time>2026-06-19T08:32:28.000Z</time>
        <extensions>
          <ns3:TrackPointExtension>
            <ns3:atemp>20.0</ns3:atemp>
          </ns3:TrackPointExtension>
        </extensions>
      </trkpt>
      <trkpt lat="42.5053013674914836883544921875" lon="19.9953165091574192047119140625">
        <ele>1665.800048828125</ele>
        <time>2026-06-19T08:32:29.000Z</time>
        <extensions>
          <ns3:TrackPointExtension>
            <ns3:atemp>20.0</ns3:atemp>
          </ns3:TrackPointExtension>
        </extensions>
      </trkpt>
      <trkpt lat="42.505269348621368408203125" lon="19.99533955939114093780517578125">
        <ele>1665.800048828125</ele>
        <time>2026-06-19T08:32:30.000Z</time>
        <extensions>
          <ns3:TrackPointExtension>
            <ns3:atemp>20.0</ns3:atemp>
          </ns3:TrackPointExtension>
        </extensions>
      </trkpt>
      <trkpt lat="42.505238838493824005126953125" lon="19.99536805786192417144775390625">
        <ele>1666</ele>
        <time>2026-06-19T08:32:31.000Z</time>
        <extensions>
          <ns3:TrackPointExtension>
            <ns3:atemp>20.0</ns3:atemp>
          </ns3:TrackPointExtension>
        </extensions>
      </trkpt>
      <trkpt lat="42.50520958565175533294677734375" lon="19.99539303593337535858154296875">
        <ele>1666.199951171875</ele>
        <time>2026-06-19T08:32:32.000Z</time>
        <extensions>
          <ns3:TrackPointExtension>
            <ns3:atemp>20.0</ns3:atemp>
          </ns3:TrackPointExtension>
        </extensions>
      </trkpt>
      <trkpt lat="42.50518075190484523773193359375" lon="19.9954154156148433685302734375">
        <ele>1666.5999755859375</ele>
        <time>2026-06-19T08:32:33.000Z</time>
        <extensions>
          <ns3:TrackPointExtension>
            <ns3:atemp>20.0</ns3:atemp>
          </ns3:TrackPointExtension>
        </extensions>
      </trkpt>
      <trkpt lat="42.50515476800501346588134765625" lon="19.99543779529631137847900390625">
        <ele>1667</ele>
        <time>2026-06-19T08:32:34.000Z</time>
        <extensions>
          <ns3:TrackPointExtension>
            <ns3:atemp>20.0</ns3:atemp>
          </ns3:TrackPointExtension>
        </extensions>
      </trkpt>
      <trkpt lat="42.50512844882905483245849609375" lon="19.99546394683420658111572265625">
        <ele>1667.199951171875</ele>
        <time>2026-06-19T08:32:35.000Z</time>
        <extensions>
          <ns3:TrackPointExtension>
            <ns3:atemp>20.0</ns3:atemp>
          </ns3:TrackPointExtension>
        </extensions>
      </trkpt>
      <trkpt lat="42.5051032193005084991455078125" lon="19.99549211002886295318603515625">
        <ele>1667.5999755859375</ele>
        <time>2026-06-19T08:32:36.000Z</time>
        <extensions>
          <ns3:TrackPointExtension>
            <ns3:atemp>20.0</ns3:atemp>
          </ns3:TrackPointExtension>
        </extensions>
      </trkpt>
      <trkpt lat="42.50507765449583530426025390625" lon="19.99551876448094844818115234375">
        <ele>1667.800048828125</ele>
        <time>2026-06-19T08:32:37.000Z</time>
        <extensions>
          <ns3:TrackPointExtension>
            <ns3:atemp>20.0</ns3:atemp>
          </ns3:TrackPointExtension>
        </extensions>
      </trkpt>
      <trkpt lat="42.50505032949149608612060546875" lon="19.995539300143718719482421875">
        <ele>1668</ele>
        <time>2026-06-19T08:32:38.000Z</time>
        <extensions>
          <ns3:TrackPointExtension>
            <ns3:atemp>20.0</ns3:atemp>
          </ns3:TrackPointExtension>
        </extensions>
      </trkpt>
      <trkpt lat="42.5050210766494274139404296875" lon="19.99555463902652263641357421875">
        <ele>1668.4000244140625</ele>
        <time>2026-06-19T08:32:39.000Z</time>
        <extensions>
          <ns3:TrackPointExtension>
            <ns3:atemp>20.0</ns3:atemp>
          </ns3:TrackPointExtension>
        </extensions>
      </trkpt>
      <trkpt lat="42.50499148853123188018798828125" lon="19.99557626433670520782470703125">
        <ele>1668.800048828125</ele>
        <time>2026-06-19T08:32:40.000Z</time>
        <extensions>
          <ns3:TrackPointExtension>
            <ns3:atemp>20.0</ns3:atemp>
          </ns3:TrackPointExtension>
        </extensions>
      </trkpt>
      <trkpt lat="42.5049627386033535003662109375" lon="19.9955964647233486175537109375">
        <ele>1669</ele>
        <time>2026-06-19T08:32:41.000Z</time>
        <extensions>
          <ns3:TrackPointExtension>
            <ns3:atemp>20.0</ns3:atemp>
          </ns3:TrackPointExtension>
        </extensions>
      </trkpt>
      <trkpt lat="42.50493432395160198211669921875" lon="19.99561934731900691986083984375">
        <ele>1669.4000244140625</ele>
        <time>2026-06-19T08:32:42.000Z</time>
        <extensions>
          <ns3:TrackPointExtension>
            <ns3:atemp>20.0</ns3:atemp>
          </ns3:TrackPointExtension>
        </extensions>
      </trkpt>
      <trkpt lat="42.5049030594527721405029296875" lon="19.9956420622766017913818359375">
        <ele>1669.5999755859375</ele>
        <time>2026-06-19T08:32:43.000Z</time>
        <extensions>
          <ns3:TrackPointExtension>
            <ns3:atemp>20.0</ns3:atemp>
          </ns3:TrackPointExtension>
        </extensions>
      </trkpt>
      <trkpt lat="42.504874058067798614501953125" lon="19.99566410668194293975830078125">
        <ele>1670</ele>
        <time>2026-06-19T08:32:44.000Z</time>
        <extensions>
          <ns3:TrackPointExtension>
            <ns3:atemp>20.0</ns3:atemp>
          </ns3:TrackPointExtension>
        </extensions>
      </trkpt>
      <trkpt lat="42.5048482418060302734375" lon="19.99568573199212551116943359375">
        <ele>1670.199951171875</ele>
        <time>2026-06-19T08:32:45.000Z</time>
        <extensions>
          <ns3:TrackPointExtension>
            <ns3:atemp>20.0</ns3:atemp>
          </ns3:TrackPointExtension>
        </extensions>
      </trkpt>
      <trkpt lat="42.504821084439754486083984375" lon="19.99571062624454498291015625">
        <ele>1670.4000244140625</ele>
        <time>2026-06-19T08:32:46.000Z</time>
        <extensions>
          <ns3:TrackPointExtension>
            <ns3:atemp>20.0</ns3:atemp>
          </ns3:TrackPointExtension>
        </extensions>
      </trkpt>
      <trkpt lat="42.50479250214993953704833984375" lon="19.99573200009763240814208984375">
        <ele>1670.800048828125</ele>
        <time>2026-06-19T08:32:47.000Z</time>
        <extensions>
          <ns3:TrackPointExtension>
            <ns3:atemp>20.0</ns3:atemp>
          </ns3:TrackPointExtension>
        </extensions>
      </trkpt>
      <trkpt lat="42.50476551242172718048095703125" lon="19.9957515299320220947265625">
        <ele>1671</ele>
        <time>2026-06-19T08:32:48.000Z</time>
        <extensions>
          <ns3:TrackPointExtension>
            <ns3:atemp>20.0</ns3:atemp>
          </ns3:TrackPointExtension>
        </extensions>
      </trkpt>
      <trkpt lat="42.5047364272177219390869140625" lon="19.995769299566745758056640625">
        <ele>1671.199951171875</ele>
        <time>2026-06-19T08:32:49.000Z</time>
        <extensions>
          <ns3:TrackPointExtension>
            <ns3:atemp>20.0</ns3:atemp>
          </ns3:TrackPointExtension>
        </extensions>
      </trkpt>
      <trkpt lat="42.50470868311822414398193359375" lon="19.99578547663986682891845703125">
        <ele>1671.5999755859375</ele>
        <time>2026-06-19T08:32:50.000Z</time>
        <extensions>
          <ns3:TrackPointExtension>
            <ns3:atemp>20.0</ns3:atemp>
          </ns3:TrackPointExtension>
        </extensions>
      </trkpt>
      <trkpt lat="42.50468194484710693359375" lon="19.99580190517008304595947265625">
        <ele>1671.800048828125</ele>
        <time>2026-06-19T08:32:51.000Z</time>
        <extensions>
          <ns3:TrackPointExtension>
            <ns3:atemp>20.0</ns3:atemp>
          </ns3:TrackPointExtension>
        </extensions>
      </trkpt>
      <trkpt lat="42.50465302728116512298583984375" lon="19.995819590985774993896484375">
        <ele>1672.199951171875</ele>
        <time>2026-06-19T08:32:52.000Z</time>
        <extensions>
          <ns3:TrackPointExtension>
            <ns3:atemp>20.0</ns3:atemp>
          </ns3:TrackPointExtension>
        </extensions>
      </trkpt>
      <trkpt lat="42.50462570227682590484619140625" lon="19.99583669006824493408203125">
        <ele>1672.4000244140625</ele>
        <time>2026-06-19T08:32:53.000Z</time>
        <extensions>
          <ns3:TrackPointExtension>
            <ns3:atemp>20.0</ns3:atemp>
          </ns3:TrackPointExtension>
        </extensions>
      </trkpt>
      <trkpt lat="42.50459871254861354827880859375" lon="19.99585487879812717437744140625">
        <ele>1672.5999755859375</ele>
        <time>2026-06-19T08:32:54.000Z</time>
        <extensions>
          <ns3:TrackPointExtension>
            <ns3:atemp>20.0</ns3:atemp>
          </ns3:TrackPointExtension>
        </extensions>
      </trkpt>
      <trkpt lat="42.50457155518233776092529296875" lon="19.9958723969757556915283203125">
        <ele>1673</ele>
        <time>2026-06-19T08:32:55.000Z</time>
        <extensions>
          <ns3:TrackPointExtension>
            <ns3:atemp>20.0</ns3:atemp>
          </ns3:TrackPointExtension>
        </extensions>
      </trkpt>
      <trkpt lat="42.5045446492731571197509765625" lon="19.99589125625789165496826171875">
        <ele>1673.199951171875</ele>
        <time>2026-06-19T08:32:56.000Z</time>
        <extensions>
          <ns3:TrackPointExtension>
            <ns3:atemp>20.0</ns3:atemp>
          </ns3:TrackPointExtension>
        </extensions>
      </trkpt>
      <trkpt lat="42.5045158155262470245361328125" lon="19.995908103883266448974609375">
        <ele>1673.4000244140625</ele>
        <time>2026-06-19T08:32:57.000Z</time>
        <extensions>
          <ns3:TrackPointExtension>
            <ns3:atemp>20.0</ns3:atemp>
          </ns3:TrackPointExtension>
        </extensions>
      </trkpt>
      <trkpt lat="42.50448656268417835235595703125" lon="19.99592654407024383544921875">
        <ele>1673.5999755859375</ele>
        <time>2026-06-19T08:32:58.000Z</time>
        <extensions>
          <ns3:TrackPointExtension>
            <ns3:atemp>20.0</ns3:atemp>
          </ns3:TrackPointExtension>
        </extensions>
      </trkpt>
      <trkpt lat="42.5044588185846805572509765625" lon="19.9959474988281726837158203125">
        <ele>1674</ele>
        <time>2026-06-19T08:32:59.000Z</time>
        <extensions>
          <ns3:TrackPointExtension>
            <ns3:atemp>20.0</ns3:atemp>
          </ns3:TrackPointExtension>
        </extensions>
      </trkpt>
      <trkpt lat="42.50442973338067531585693359375" lon="19.995971806347370147705078125">
        <ele>1674.199951171875</ele>
        <time>2026-06-19T08:33:00.000Z</time>
        <extensions>
          <ns3:TrackPointExtension>
            <ns3:atemp>20.0</ns3:atemp>
          </ns3:TrackPointExtension>
        </extensions>
      </trkpt>
      <trkpt lat="42.5044034980237483978271484375" lon="19.99599686823785305023193359375">
        <ele>1674.4000244140625</ele>
        <time>2026-06-19T08:33:01.000Z</time>
        <extensions>
          <ns3:TrackPointExtension>
            <ns3:atemp>20.0</ns3:atemp>
          </ns3:TrackPointExtension>
        </extensions>
      </trkpt>
      <trkpt lat="42.5043756701052188873291015625" lon="19.99602469615638256072998046875">
        <ele>1674.5999755859375</ele>
        <time>2026-06-19T08:33:02.000Z</time>
        <extensions>
          <ns3:TrackPointExtension>
            <ns3:atemp>20.0</ns3:atemp>
          </ns3:TrackPointExtension>
        </extensions>
      </trkpt>
      <trkpt lat="42.504349015653133392333984375" lon="19.9960480816662311553955078125">
        <ele>1674.800048828125</ele>
        <time>2026-06-19T08:33:03.000Z</time>
        <extensions>
          <ns3:TrackPointExtension>
            <ns3:atemp>20.0</ns3:atemp>
          </ns3:TrackPointExtension>
        </extensions>
      </trkpt>
      <trkpt lat="42.5043213553726673126220703125" lon="19.99607364647090435028076171875">
        <ele>1674.800048828125</ele>
        <time>2026-06-19T08:33:04.000Z</time>
        <extensions>
          <ns3:TrackPointExtension>
            <ns3:atemp>20.0</ns3:atemp>
          </ns3:TrackPointExtension>
        </extensions>
      </trkpt>
      <trkpt lat="42.50429294072091579437255859375" lon="19.99610080383718013763427734375">
        <ele>1675</ele>
        <time>2026-06-19T08:33:05.000Z</time>
        <extensions>
          <ns3:TrackPointExtension>
            <ns3:atemp>20.0</ns3:atemp>
          </ns3:TrackPointExtension>
        </extensions>
      </trkpt>
      <trkpt lat="42.5042688846588134765625" lon="19.9961305595934391021728515625">
        <ele>1675.199951171875</ele>
        <time>2026-06-19T08:33:06.000Z</time>
        <extensions>
          <ns3:TrackPointExtension>
            <ns3:atemp>20.0</ns3:atemp>
          </ns3:TrackPointExtension>
        </extensions>
      </trkpt>
      <trkpt lat="42.50424541532993316650390625" lon="19.99616433866322040557861328125">
        <ele>1675.199951171875</ele>
        <time>2026-06-19T08:33:07.000Z</time>
        <extensions>
          <ns3:TrackPointExtension>
            <ns3:atemp>20.0</ns3:atemp>
          </ns3:TrackPointExtension>
        </extensions>
      </trkpt>
      <trkpt lat="42.5042234547436237335205078125" lon="19.9961969442665576934814453125">
        <ele>1675.4000244140625</ele>
        <time>2026-06-19T08:33:08.000Z</time>
        <extensions>
          <ns3:TrackPointExtension>
            <ns3:atemp>20.0</ns3:atemp>
          </ns3:TrackPointExtension>
        </extensions>
      </trkpt>
      <trkpt lat="42.50419973395764827728271484375" lon="19.99623323790729045867919921875">
        <ele>1675.4000244140625</ele>
        <time>2026-06-19T08:33:09.000Z</time>
        <extensions>
          <ns3:TrackPointExtension>
            <ns3:atemp>20.0</ns3:atemp>
          </ns3:TrackPointExtension>
        </extensions>
      </trkpt>
      <trkpt lat="42.5041701458394527435302734375" lon="19.996267855167388916015625">
        <ele>1675.5999755859375</ele>
        <time>2026-06-19T08:33:10.000Z</time>
        <extensions>
          <ns3:TrackPointExtension>
            <ns3:atemp>20.0</ns3:atemp>
          </ns3:TrackPointExtension>
        </extensions>
      </trkpt>
      <trkpt lat="42.50414089299738407135009765625" lon="19.996301718056201934814453125">
        <ele>1675.800048828125</ele>
        <time>2026-06-19T08:33:11.000Z</time>
        <extensions>
          <ns3:TrackPointExtension>
            <ns3:atemp>20.0</ns3:atemp>
          </ns3:TrackPointExtension>
        </extensions>
      </trkpt>
      <trkpt lat="42.504110969603061676025390625" lon="19.996332228183746337890625">
        <ele>1675.800048828125</ele>
        <time>2026-06-19T08:33:12.000Z</time>
        <extensions>
          <ns3:TrackPointExtension>
            <ns3:atemp>20.0</ns3:atemp>
          </ns3:TrackPointExtension>
        </extensions>
      </trkpt>
      <trkpt lat="42.50408104620873928070068359375" lon="19.99636030755937099456787109375">
        <ele>1675.800048828125</ele>
        <time>2026-06-19T08:33:13.000Z</time>
        <extensions>
          <ns3:TrackPointExtension>
            <ns3:atemp>20.0</ns3:atemp>
          </ns3:TrackPointExtension>
        </extensions>
      </trkpt>
      <trkpt lat="42.5040504522621631622314453125" lon="19.99638142995536327362060546875">
        <ele>1676</ele>
        <time>2026-06-19T08:33:14.000Z</time>
        <extensions>
          <ns3:TrackPointExtension>
            <ns3:atemp>20.0</ns3:atemp>
          </ns3:TrackPointExtension>
        </extensions>
      </trkpt>
      <trkpt lat="42.5040180981159210205078125" lon="19.996398948132991790771484375">
        <ele>1676</ele>
        <time>2026-06-19T08:33:15.000Z</time>
        <extensions>
          <ns3:TrackPointExtension>
            <ns3:atemp>20.0</ns3:atemp>
          </ns3:TrackPointExtension>
        </extensions>
      </trkpt>
      <trkpt lat="42.5039803795516490936279296875" lon="19.99641076661646366119384765625">
        <ele>1676</ele>
        <time>2026-06-19T08:33:16.000Z</time>
        <extensions>
          <ns3:TrackPointExtension>
            <ns3:atemp>20.0</ns3:atemp>
          </ns3:TrackPointExtension>
        </extensions>
      </trkpt>
      <trkpt lat="42.50394308008253574371337890625" lon="19.9964148737490177154541015625">
        <ele>1676</ele>
        <time>2026-06-19T08:33:17.000Z</time>
        <extensions>
          <ns3:TrackPointExtension>
            <ns3:atemp>20.0</ns3:atemp>
          </ns3:TrackPointExtension>
        </extensions>
      </trkpt>
      <trkpt lat="42.5039019249379634857177734375" lon="19.99641747213900089263916015625">
        <ele>1675.800048828125</ele>
        <time>2026-06-19T08:33:18.000Z</time>
        <extensions>
          <ns3:TrackPointExtension>
            <ns3:atemp>20.0</ns3:atemp>
          </ns3:TrackPointExtension>
        </extensions>
      </trkpt>
      <trkpt lat="42.5038573332130908966064453125" lon="19.99641227535903453826904296875">
        <ele>1675.800048828125</ele>
        <time>2026-06-19T08:33:19.000Z</time>
        <extensions>
          <ns3:TrackPointExtension>
            <ns3:atemp>20.0</ns3:atemp>
          </ns3:TrackPointExtension>
        </extensions>
      </trkpt>
      <trkpt lat="42.503807544708251953125" lon="19.99640841968357563018798828125">
        <ele>1675.4000244140625</ele>
        <time>2026-06-19T08:33:20.000Z</time>
        <extensions>
          <ns3:TrackPointExtension>
            <ns3:atemp>20.0</ns3:atemp>
          </ns3:TrackPointExtension>
        </extensions>
      </trkpt>
      <trkpt lat="42.5037525594234466552734375" lon="19.99639928340911865234375">
        <ele>1675.199951171875</ele>
        <time>2026-06-19T08:33:21.000Z</time>
        <extensions>
          <ns3:TrackPointExtension>
            <ns3:atemp>20.0</ns3:atemp>
          </ns3:TrackPointExtension>
        </extensions>
      </trkpt>
      <trkpt lat="42.50369497574865818023681640625" lon="19.9964038096368312835693359375">
        <ele>1675</ele>
        <time>2026-06-19T08:33:22.000Z</time>
        <extensions>
          <ns3:TrackPointExtension>
            <ns3:atemp>20.0</ns3:atemp>
          </ns3:TrackPointExtension>
        </extensions>
      </trkpt>
      <trkpt lat="42.50363831408321857452392578125" lon="19.9964215792715549468994140625">
        <ele>1674.5999755859375</ele>
        <time>2026-06-19T08:33:23.000Z</time>
        <extensions>
          <ns3:TrackPointExtension>
            <ns3:atemp>20.0</ns3:atemp>
          </ns3:TrackPointExtension>
        </extensions>
      </trkpt>
      <trkpt lat="42.5035817362368106842041015625" lon="19.99645619653165340423583984375">
        <ele>1674.199951171875</ele>
        <time>2026-06-19T08:33:24.000Z</time>
        <extensions>
          <ns3:TrackPointExtension>
            <ns3:atemp>20.0</ns3:atemp>
          </ns3:TrackPointExtension>
        </extensions>
      </trkpt>
      <trkpt lat="42.50352515839040279388427734375" lon="19.99650682322680950164794921875">
        <ele>1673.800048828125</ele>
        <time>2026-06-19T08:33:25.000Z</time>
        <extensions>
          <ns3:TrackPointExtension>
            <ns3:atemp>20.0</ns3:atemp>
          </ns3:TrackPointExtension>
        </extensions>
      </trkpt>
      <trkpt lat="42.503467239439487457275390625" lon="19.99656784348189830780029296875">
        <ele>1673.199951171875</ele>
        <time>2026-06-19T08:33:26.000Z</time>
        <extensions>
          <ns3:TrackPointExtension>
            <ns3:atemp>20.0</ns3:atemp>
          </ns3:TrackPointExtension>
        </extensions>
      </trkpt>
      <trkpt lat="42.5034057162702083587646484375" lon="19.99663196504116058349609375">
        <ele>1672.4000244140625</ele>
        <time>2026-06-19T08:33:27.000Z</time>
        <extensions>
          <ns3:TrackPointExtension>
            <ns3:atemp>20.0</ns3:atemp>
          </ns3:TrackPointExtension>
        </extensions>
      </trkpt>
      <trkpt lat="42.50334243290126323699951171875" lon="19.996680580079555511474609375">
        <ele>1672</ele>
        <time>2026-06-19T08:33:28.000Z</time>
        <extensions>
          <ns3:TrackPointExtension>
            <ns3:atemp>19.0</ns3:atemp>
          </ns3:TrackPointExtension>
        </extensions>
      </trkpt>
      <trkpt lat="42.50328241847455501556396484375" lon="19.996724165976047515869140625">
        <ele>1671.5999755859375</ele>
        <time>2026-06-19T08:33:29.000Z</time>
        <extensions>
          <ns3:TrackPointExtension>
            <ns3:atemp>19.0</ns3:atemp>
          </ns3:TrackPointExtension>
        </extensions>
      </trkpt>
      <trkpt lat="42.503226511180400848388671875" lon="19.996769763529300689697265625">
        <ele>1671.199951171875</ele>
        <time>2026-06-19T08:33:30.000Z</time>
        <extensions>
          <ns3:TrackPointExtension>
            <ns3:atemp>19.0</ns3:atemp>
          </ns3:TrackPointExtension>
        </extensions>
      </trkpt>
      <trkpt lat="42.50318753533065319061279296875" lon="19.9968322925269603729248046875">
        <ele>1671.199951171875</ele>
        <time>2026-06-19T08:33:31.000Z</time>
        <extensions>
          <ns3:TrackPointExtension>
            <ns3:atemp>19.0</ns3:atemp>
          </ns3:TrackPointExtension>
        </extensions>
      </trkpt>
      <trkpt lat="42.5031597912311553955078125" lon="19.99688635580241680145263671875">
        <ele>1671.199951171875</ele>
        <time>2026-06-19T08:33:32.000Z</time>
        <extensions>
          <ns3:TrackPointExtension>
            <ns3:atemp>19.0</ns3:atemp>
          </ns3:TrackPointExtension>
        </extensions>
      </trkpt>
      <trkpt lat="42.503129281103610992431640625" lon="19.99691762030124664306640625">
        <ele>1671.5999755859375</ele>
        <time>2026-06-19T08:33:33.000Z</time>
        <extensions>
          <ns3:TrackPointExtension>
            <ns3:atemp>19.0</ns3:atemp>
          </ns3:TrackPointExtension>
        </extensions>
      </trkpt>
      <trkpt lat="42.50310237519443035125732421875" lon="19.99693103134632110595703125">
        <ele>1671.800048828125</ele>
        <time>2026-06-19T08:33:34.000Z</time>
        <extensions>
          <ns3:TrackPointExtension>
            <ns3:atemp>19.0</ns3:atemp>
          </ns3:TrackPointExtension>
        </extensions>
      </trkpt>
      <trkpt lat="42.50307857058942317962646484375" lon="19.996936060488224029541015625">
        <ele>1672.199951171875</ele>
        <time>2026-06-19T08:33:35.000Z</time>
        <extensions>
          <ns3:TrackPointExtension>
            <ns3:atemp>19.0</ns3:atemp>
          </ns3:TrackPointExtension>
        </extensions>
      </trkpt>
      <trkpt lat="42.50305677764117717742919921875" lon="19.99692407436668872833251953125">
        <ele>1672.5999755859375</ele>
        <time>2026-06-19T08:33:36.000Z</time>
        <extensions>
          <ns3:TrackPointExtension>
            <ns3:atemp>19.0</ns3:atemp>
          </ns3:TrackPointExtension>
        </extensions>
      </trkpt>
      <trkpt lat="42.50304101966321468353271484375" lon="19.99691099859774112701416015625">
        <ele>1673</ele>
        <time>2026-06-19T08:33:37.000Z</time>
        <extensions>
          <ns3:TrackPointExtension>
            <ns3:atemp>19.0</ns3:atemp>
          </ns3:TrackPointExtension>
        </extensions>
      </trkpt>
      <trkpt lat="42.50303146429359912872314453125" lon="19.99689322896301746368408203125">
        <ele>1673.4000244140625</ele>
        <time>2026-06-19T08:33:38.000Z</time>
        <extensions>
          <ns3:TrackPointExtension>
            <ns3:atemp>19.0</ns3:atemp>
          </ns3:TrackPointExtension>
        </extensions>
      </trkpt>
      <trkpt lat="42.50302501022815704345703125" lon="19.99687026254832744598388671875">
        <ele>1673.5999755859375</ele>
        <time>2026-06-19T08:33:39.000Z</time>
        <extensions>
          <ns3:TrackPointExtension>
            <ns3:atemp>19.0</ns3:atemp>
          </ns3:TrackPointExtension>
        </extensions>
      </trkpt>
      <trkpt lat="42.503021657466888427734375" lon="19.996848888695240020751953125">
        <ele>1674</ele>
        <time>2026-06-19T08:33:40.000Z</time>
        <extensions>
          <ns3:TrackPointExtension>
            <ns3:atemp>19.0</ns3:atemp>
          </ns3:TrackPointExtension>
        </extensions>
      </trkpt>
      <trkpt lat="42.50301989726722240447998046875" lon="19.99683103524148464202880859375">
        <ele>1674.199951171875</ele>
        <time>2026-06-19T08:33:41.000Z</time>
        <extensions>
          <ns3:TrackPointExtension>
            <ns3:atemp>19.0</ns3:atemp>
          </ns3:TrackPointExtension>
        </extensions>
      </trkpt>
      <trkpt lat="42.5030144490301609039306640625" lon="19.996802620589733123779296875">
        <ele>1674.5999755859375</ele>
        <time>2026-06-19T08:33:42.000Z</time>
        <extensions>
          <ns3:TrackPointExtension>
            <ns3:atemp>19.0</ns3:atemp>
          </ns3:TrackPointExtension>
        </extensions>
      </trkpt>
      <trkpt lat="42.5030124373733997344970703125" lon="19.99677479267120361328125">
        <ele>1674.800048828125</ele>
        <time>2026-06-19T08:33:43.000Z</time>
        <extensions>
          <ns3:TrackPointExtension>
            <ns3:atemp>20.0</ns3:atemp>
          </ns3:TrackPointExtension>
        </extensions>
      </trkpt>
      <trkpt lat="42.50301025807857513427734375" lon="19.99674998223781585693359375">
        <ele>1675.199951171875</ele>
        <time>2026-06-19T08:33:44.000Z</time>
        <extensions>
          <ns3:TrackPointExtension>
            <ns3:atemp>19.0</ns3:atemp>
          </ns3:TrackPointExtension>
        </extensions>
      </trkpt>
      <trkpt lat="42.50300732441246509552001953125" lon="19.9967236630618572235107421875">
        <ele>1675.5999755859375</ele>
        <time>2026-06-19T08:33:45.000Z</time>
        <extensions>
          <ns3:TrackPointExtension>
            <ns3:atemp>19.0</ns3:atemp>
          </ns3:TrackPointExtension>
        </extensions>
      </trkpt>
      <trkpt lat="42.50300212763249874114990234375" lon="19.99669340439140796661376953125">
        <ele>1675.800048828125</ele>
        <time>2026-06-19T08:33:46.000Z</time>
        <extensions>
          <ns3:TrackPointExtension>
            <ns3:atemp>19.0</ns3:atemp>
          </ns3:TrackPointExtension>
        </extensions>
      </trkpt>
      <trkpt lat="42.50300397165119647979736328125" lon="19.996667169034481048583984375">
        <ele>1676.199951171875</ele>
        <time>2026-06-19T08:33:47.000Z</time>
        <extensions>
          <ns3:TrackPointExtension>
            <ns3:atemp>19.0</ns3:atemp>
          </ns3:TrackPointExtension>
        </extensions>
      </trkpt>
      <trkpt lat="42.50300263054668903350830078125" lon="19.99664143659174442291259765625">
        <ele>1676.4000244140625</ele>
        <time>2026-06-19T08:33:48.000Z</time>
        <extensions>
          <ns3:TrackPointExtension>
            <ns3:atemp>19.0</ns3:atemp>
          </ns3:TrackPointExtension>
        </extensions>
      </trkpt>
      <trkpt lat="42.503000199794769287109375" lon="19.99661377631127834320068359375">
        <ele>1676.800048828125</ele>
        <time>2026-06-19T08:33:49.000Z</time>
        <extensions>
          <ns3:TrackPointExtension>
            <ns3:atemp>19.0</ns3:atemp>
          </ns3:TrackPointExtension>
        </extensions>
      </trkpt>
      <trkpt lat="42.50299877487123012542724609375" lon="19.9965895526111125946044921875">
        <ele>1677</ele>
        <time>2026-06-19T08:33:50.000Z</time>
        <extensions>
          <ns3:TrackPointExtension>
            <ns3:atemp>19.0</ns3:atemp>
          </ns3:TrackPointExtension>
        </extensions>
      </trkpt>
      <trkpt lat="42.50299827195703983306884765625" lon="19.99656759202480316162109375">
        <ele>1677.4000244140625</ele>
        <time>2026-06-19T08:33:51.000Z</time>
        <extensions>
          <ns3:TrackPointExtension>
            <ns3:atemp>19.0</ns3:atemp>
          </ns3:TrackPointExtension>
        </extensions>
      </trkpt>
      <trkpt lat="42.50299952924251556396484375" lon="19.99653817154467105865478515625">
        <ele>1677.800048828125</ele>
        <time>2026-06-19T08:33:52.000Z</time>
        <extensions>
          <ns3:TrackPointExtension>
            <ns3:atemp>19.0</ns3:atemp>
          </ns3:TrackPointExtension>
        </extensions>
      </trkpt>
      <trkpt lat="42.50299684703350067138671875" lon="19.996510259807109832763671875">
        <ele>1678</ele>
        <time>2026-06-19T08:33:53.000Z</time>
        <extensions>
          <ns3:TrackPointExtension>
            <ns3:atemp>19.0</ns3:atemp>
          </ns3:TrackPointExtension>
        </extensions>
      </trkpt>
      <trkpt lat="42.50299743376672267913818359375" lon="19.9964849464595317840576171875">
        <ele>1678.199951171875</ele>
        <time>2026-06-19T08:33:54.000Z</time>
        <extensions>
          <ns3:TrackPointExtension>
            <ns3:atemp>19.0</ns3:atemp>
          </ns3:TrackPointExtension>
        </extensions>
      </trkpt>
      <trkpt lat="42.50300045125186443328857421875" lon="19.9964638240635395050048828125">
        <ele>1678.4000244140625</ele>
        <time>2026-06-19T08:33:55.000Z</time>
        <extensions>
          <ns3:TrackPointExtension>
            <ns3:atemp>19.0</ns3:atemp>
          </ns3:TrackPointExtension>
        </extensions>
      </trkpt>
      <trkpt lat="42.503005899488925933837890625" lon="19.996435828506946563720703125">
        <ele>1678.800048828125</ele>
        <time>2026-06-19T08:33:56.000Z</time>
        <extensions>
          <ns3:TrackPointExtension>
            <ns3:atemp>19.0</ns3:atemp>
          </ns3:TrackPointExtension>
        </extensions>
      </trkpt>
      <trkpt lat="42.50301159918308258056640625" lon="19.99640456400811672210693359375">
        <ele>1679</ele>
        <time>2026-06-19T08:33:57.000Z</time>
        <extensions>
          <ns3:TrackPointExtension>
            <ns3:atemp>19.0</ns3:atemp>
          </ns3:TrackPointExtension>
        </extensions>
      </trkpt>
      <trkpt lat="42.50301302410662174224853515625" lon="19.99637137167155742645263671875">
        <ele>1679.199951171875</ele>
        <time>2026-06-19T08:33:58.000Z</time>
        <extensions>
          <ns3:TrackPointExtension>
            <ns3:atemp>19.0</ns3:atemp>
          </ns3:TrackPointExtension>
        </extensions>
      </trkpt>
      <trkpt lat="42.50301436521112918853759765625" lon="19.99633583240211009979248046875">
        <ele>1679.4000244140625</ele>
        <time>2026-06-19T08:33:59.000Z</time>
        <extensions>
          <ns3:TrackPointExtension>
            <ns3:atemp>19.0</ns3:atemp>
          </ns3:TrackPointExtension>
        </extensions>
      </trkpt>
      <trkpt lat="42.5030147843062877655029296875" lon="19.99630113132297992706298828125">
        <ele>1679.800048828125</ele>
        <time>2026-06-19T08:34:00.000Z</time>
        <extensions>
          <ns3:TrackPointExtension>
            <ns3:atemp>19.0</ns3:atemp>
          </ns3:TrackPointExtension>
        </extensions>
      </trkpt>
      <trkpt lat="42.50301905907690525054931640625" lon="19.99626710079610347747802734375">
        <ele>1680</ele>
        <time>2026-06-19T08:34:01.000Z</time>
        <extensions>
          <ns3:TrackPointExtension>
            <ns3:atemp>19.0</ns3:atemp>
          </ns3:TrackPointExtension>
        </extensions>
      </trkpt>
      <trkpt lat="42.5030241720378398895263671875" lon="19.9962348304688930511474609375">
        <ele>1680.199951171875</ele>
        <time>2026-06-19T08:34:02.000Z</time>
        <extensions>
          <ns3:TrackPointExtension>
            <ns3:atemp>19.0</ns3:atemp>
          </ns3:TrackPointExtension>
        </extensions>
      </trkpt>
      <trkpt lat="42.503024004399776458740234375" lon="19.99620356597006320953369140625">
        <ele>1680.4000244140625</ele>
        <time>2026-06-19T08:34:03.000Z</time>
        <extensions>
          <ns3:TrackPointExtension>
            <ns3:atemp>19.0</ns3:atemp>
          </ns3:TrackPointExtension>
        </extensions>
      </trkpt>
      <trkpt lat="42.50301922671496868133544921875" lon="19.99617372639477252960205078125">
        <ele>1680.800048828125</ele>
        <time>2026-06-19T08:34:04.000Z</time>
        <extensions>
          <ns3:TrackPointExtension>
            <ns3:atemp>19.0</ns3:atemp>
          </ns3:TrackPointExtension>
        </extensions>
      </trkpt>
      <trkpt lat="42.50301369465887546539306640625" lon="19.9961473233997821807861328125">
        <ele>1681</ele>
        <time>2026-06-19T08:34:05.000Z</time>
        <extensions>
          <ns3:TrackPointExtension>
            <ns3:atemp>19.0</ns3:atemp>
          </ns3:TrackPointExtension>
        </extensions>
      </trkpt>
      <trkpt lat="42.50300816260278224945068359375" lon="19.99611639417707920074462890625">
        <ele>1681.199951171875</ele>
        <time>2026-06-19T08:34:06.000Z</time>
        <extensions>
          <ns3:TrackPointExtension>
            <ns3:atemp>19.0</ns3:atemp>
          </ns3:TrackPointExtension>
        </extensions>
      </trkpt>
      <trkpt lat="42.50300564803183078765869140625" lon="19.9960822798311710357666015625">
        <ele>1681.5999755859375</ele>
        <time>2026-06-19T08:34:07.000Z</time>
        <extensions>
          <ns3:TrackPointExtension>
            <ns3:atemp>19.0</ns3:atemp>
          </ns3:TrackPointExtension>
        </extensions>
      </trkpt>
      <trkpt lat="42.503003217279911041259765625" lon="19.99604598619043827056884765625">
        <ele>1681.800048828125</ele>
        <time>2026-06-19T08:34:08.000Z</time>
        <extensions>
          <ns3:TrackPointExtension>
            <ns3:atemp>19.0</ns3:atemp>
          </ns3:TrackPointExtension>
        </extensions>
      </trkpt>
      <trkpt lat="42.503001205623149871826171875" lon="19.99601447023451328277587890625">
        <ele>1682</ele>
        <time>2026-06-19T08:34:09.000Z</time>
        <extensions>
          <ns3:TrackPointExtension>
            <ns3:atemp>19.0</ns3:atemp>
          </ns3:TrackPointExtension>
        </extensions>
      </trkpt>
      <trkpt lat="42.5030000321567058563232421875" lon="19.99598496593534946441650390625">
        <ele>1682.199951171875</ele>
        <time>2026-06-19T08:34:10.000Z</time>
        <extensions>
          <ns3:TrackPointExtension>
            <ns3:atemp>19.0</ns3:atemp>
          </ns3:TrackPointExtension>
        </extensions>
      </trkpt>
      <trkpt lat="42.50299743376672267913818359375" lon="19.99595940113067626953125">
        <ele>1682.4000244140625</ele>
        <time>2026-06-19T08:34:11.000Z</time>
        <extensions>
          <ns3:TrackPointExtension>
            <ns3:atemp>19.0</ns3:atemp>
          </ns3:TrackPointExtension>
        </extensions>
      </trkpt>
      <trkpt lat="42.50299056060612201690673828125" lon="19.99592947773635387420654296875">
        <ele>1682.5999755859375</ele>
        <time>2026-06-19T08:34:12.000Z</time>
        <extensions>
          <ns3:TrackPointExtension>
            <ns3:atemp>19.0</ns3:atemp>
          </ns3:TrackPointExtension>
        </extensions>
      </trkpt>
      <trkpt lat="42.5029836036264896392822265625" lon="19.99590106308460235595703125">
        <ele>1682.5999755859375</ele>
        <time>2026-06-19T08:34:13.000Z</time>
        <extensions>
          <ns3:TrackPointExtension>
            <ns3:atemp>19.0</ns3:atemp>
          </ns3:TrackPointExtension>
        </extensions>
      </trkpt>
      <trkpt lat="42.5029720366001129150390625" lon="19.9958713911473751068115234375">
        <ele>1683</ele>
        <time>2026-06-19T08:34:14.000Z</time>
        <extensions>
          <ns3:TrackPointExtension>
            <ns3:atemp>19.0</ns3:atemp>
          </ns3:TrackPointExtension>
        </extensions>
      </trkpt>
      <trkpt lat="42.50296273268759250640869140625" lon="19.9958465807139873504638671875">
        <ele>1683.199951171875</ele>
        <time>2026-06-19T08:34:15.000Z</time>
        <extensions>
          <ns3:TrackPointExtension>
            <ns3:atemp>19.0</ns3:atemp>
          </ns3:TrackPointExtension>
        </extensions>
      </trkpt>
      <trkpt lat="42.50294898636639118194580078125" lon="19.9958224408328533172607421875">
        <ele>1683.800048828125</ele>
        <time>2026-06-19T08:34:16.000Z</time>
        <extensions>
          <ns3:TrackPointExtension>
            <ns3:atemp>19.0</ns3:atemp>
          </ns3:TrackPointExtension>
        </extensions>
      </trkpt>
      <trkpt lat="42.50293205492198467254638671875" lon="19.9958023242652416229248046875">
        <ele>1684.199951171875</ele>
        <time>2026-06-19T08:34:17.000Z</time>
        <extensions>
          <ns3:TrackPointExtension>
            <ns3:atemp>19.0</ns3:atemp>
          </ns3:TrackPointExtension>
        </extensions>
      </trkpt>
      <trkpt lat="42.50291629694402217864990234375" lon="19.9957869015634059906005859375">
        <ele>1684.5999755859375</ele>
        <time>2026-06-19T08:34:18.000Z</time>
        <extensions>
          <ns3:TrackPointExtension>
            <ns3:atemp>19.0</ns3:atemp>
          </ns3:TrackPointExtension>
        </extensions>
      </trkpt>
      <trkpt lat="42.50289970077574253082275390625" lon="19.99578162096440792083740234375">
        <ele>1685</ele>
        <time>2026-06-19T08:34:19.000Z</time>
        <extensions>
          <ns3:TrackPointExtension>
            <ns3:atemp>19.0</ns3:atemp>
          </ns3:TrackPointExtension>
        </extensions>
      </trkpt>
      <trkpt lat="42.50288343988358974456787109375" lon="19.99578279443085193634033203125">
        <ele>1685.4000244140625</ele>
        <time>2026-06-19T08:34:20.000Z</time>
        <extensions>
          <ns3:TrackPointExtension>
            <ns3:atemp>19.0</ns3:atemp>
          </ns3:TrackPointExtension>
        </extensions>
      </trkpt>
      <trkpt lat="42.50287078320980072021484375" lon="19.995786733925342559814453125">
        <ele>1685.5999755859375</ele>
        <time>2026-06-19T08:34:21.000Z</time>
        <extensions>
          <ns3:TrackPointExtension>
            <ns3:atemp>19.0</ns3:atemp>
          </ns3:TrackPointExtension>
        </extensions>
      </trkpt>
      <trkpt lat="42.502857036888599395751953125" lon="19.9957956187427043914794921875">
        <ele>1686</ele>
        <time>2026-06-19T08:34:22.000Z</time>
        <extensions>
          <ns3:TrackPointExtension>
            <ns3:atemp>19.0</ns3:atemp>
          </ns3:TrackPointExtension>
        </extensions>
      </trkpt>
      <trkpt lat="42.502842284739017486572265625" lon="19.9958056770265102386474609375">
        <ele>1686.199951171875</ele>
        <time>2026-06-19T08:34:23.000Z</time>
        <extensions>
          <ns3:TrackPointExtension>
            <ns3:atemp>19.0</ns3:atemp>
          </ns3:TrackPointExtension>
        </extensions>
      </trkpt>
      <trkpt lat="42.50282677821815013885498046875" lon="19.99581850133836269378662109375">
        <ele>1686.4000244140625</ele>
        <time>2026-06-19T08:34:24.000Z</time>
        <extensions>
          <ns3:TrackPointExtension>
            <ns3:atemp>19.0</ns3:atemp>
          </ns3:TrackPointExtension>
        </extensions>
      </trkpt>
      <trkpt lat="42.50280909240245819091796875" lon="19.99583610333502292633056640625">
        <ele>1686.5999755859375</ele>
        <time>2026-06-19T08:34:25.000Z</time>
        <extensions>
          <ns3:TrackPointExtension>
            <ns3:atemp>19.0</ns3:atemp>
          </ns3:TrackPointExtension>
        </extensions>
      </trkpt>
      <trkpt lat="42.50279325060546398162841796875" lon="19.99585471116006374359130859375">
        <ele>1687</ele>
        <time>2026-06-19T08:34:26.000Z</time>
        <extensions>
          <ns3:TrackPointExtension>
            <ns3:atemp>19.0</ns3:atemp>
          </ns3:TrackPointExtension>
        </extensions>
      </trkpt>
      <trkpt lat="42.5027789175510406494140625" lon="19.995873905718326568603515625">
        <ele>1687.199951171875</ele>
        <time>2026-06-19T08:34:27.000Z</time>
        <extensions>
          <ns3:TrackPointExtension>
            <ns3:atemp>19.0</ns3:atemp>
          </ns3:TrackPointExtension>
        </extensions>
      </trkpt>
      <trkpt lat="42.50276324339210987091064453125" lon="19.9958935193717479705810546875">
        <ele>1687.4000244140625</ele>
        <time>2026-06-19T08:34:28.000Z</time>
        <extensions>
          <ns3:TrackPointExtension>
            <ns3:atemp>19.0</ns3:atemp>
          </ns3:TrackPointExtension>
        </extensions>
      </trkpt>
      <trkpt lat="42.5027475692331790924072265625" lon="19.9959102831780910491943359375">
        <ele>1687.5999755859375</ele>
        <time>2026-06-19T08:34:29.000Z</time>
        <extensions>
          <ns3:TrackPointExtension>
            <ns3:atemp>19.0</ns3:atemp>
          </ns3:TrackPointExtension>
        </extensions>
      </trkpt>
      <trkpt lat="42.50273021869361400604248046875" lon="19.99592729844152927398681640625">
        <ele>1687.800048828125</ele>
        <time>2026-06-19T08:34:30.000Z</time>
        <extensions>
          <ns3:TrackPointExtension>
            <ns3:atemp>19.0</ns3:atemp>
          </ns3:TrackPointExtension>
        </extensions>
      </trkpt>
      <trkpt lat="42.5027137063443660736083984375" lon="19.99594355933368206024169921875">
        <ele>1688</ele>
        <time>2026-06-19T08:34:31.000Z</time>
        <extensions>
          <ns3:TrackPointExtension>
            <ns3:atemp>19.0</ns3:atemp>
          </ns3:TrackPointExtension>
        </extensions>
      </trkpt>
      <trkpt lat="42.50269685871899127960205078125" lon="19.99596501700580120086669921875">
        <ele>1688.199951171875</ele>
        <time>2026-06-19T08:34:32.000Z</time>
        <extensions>
          <ns3:TrackPointExtension>
            <ns3:atemp>19.0</ns3:atemp>
          </ns3:TrackPointExtension>
        </extensions>
      </trkpt>
      <trkpt lat="42.502679340541362762451171875" lon="19.995983205735683441162109375">
        <ele>1688.5999755859375</ele>
        <time>2026-06-19T08:34:33.000Z</time>
        <extensions>
          <ns3:TrackPointExtension>
            <ns3:atemp>19.0</ns3:atemp>
          </ns3:TrackPointExtension>
        </extensions>
      </trkpt>
      <trkpt lat="42.50266282819211483001708984375" lon="19.99600189737975597381591796875">
        <ele>1688.800048828125</ele>
        <time>2026-06-19T08:34:34.000Z</time>
        <extensions>
          <ns3:TrackPointExtension>
            <ns3:atemp>19.0</ns3:atemp>
          </ns3:TrackPointExtension>
        </extensions>
      </trkpt>
      <trkpt lat="42.502645812928676605224609375" lon="19.996018745005130767822265625">
        <ele>1689.199951171875</ele>
        <time>2026-06-19T08:34:35.000Z</time>
        <extensions>
          <ns3:TrackPointExtension>
            <ns3:atemp>19.0</ns3:atemp>
          </ns3:TrackPointExtension>
        </extensions>
      </trkpt>
      <trkpt lat="42.5026295520365238189697265625" lon="19.9960346706211566925048828125">
        <ele>1689.4000244140625</ele>
        <time>2026-06-19T08:34:36.000Z</time>
        <extensions>
          <ns3:TrackPointExtension>
            <ns3:atemp>19.0</ns3:atemp>
          </ns3:TrackPointExtension>
        </extensions>
      </trkpt>
      <trkpt lat="42.5026127882301807403564453125" lon="19.996050260961055755615234375">
        <ele>1689.5999755859375</ele>
        <time>2026-06-19T08:34:37.000Z</time>
        <extensions>
          <ns3:TrackPointExtension>
            <ns3:atemp>19.0</ns3:atemp>
          </ns3:TrackPointExtension>
        </extensions>
      </trkpt>
      <trkpt lat="42.502594850957393646240234375" lon="19.99606777913868427276611328125">
        <ele>1689.800048828125</ele>
        <time>2026-06-19T08:34:38.000Z</time>
        <extensions>
          <ns3:TrackPointExtension>
            <ns3:atemp>19.0</ns3:atemp>
          </ns3:TrackPointExtension>
        </extensions>
      </trkpt>
      <trkpt lat="42.5025795958936214447021484375" lon="19.99608479440212249755859375">
        <ele>1690</ele>
        <time>2026-06-19T08:34:39.000Z</time>
        <extensions>
          <ns3:TrackPointExtension>
            <ns3:atemp>19.0</ns3:atemp>
          </ns3:TrackPointExtension>
        </extensions>
      </trkpt>
      <trkpt lat="42.50256442464888095855712890625" lon="19.99610356986522674560546875">
        <ele>1690.4000244140625</ele>
        <time>2026-06-19T08:34:40.000Z</time>
        <extensions>
          <ns3:TrackPointExtension>
            <ns3:atemp>19.0</ns3:atemp>
          </ns3:TrackPointExtension>
        </extensions>
      </trkpt>
      <trkpt lat="42.502553276717662811279296875" lon="19.99612226150929927825927734375">
        <ele>1690.5999755859375</ele>
        <time>2026-06-19T08:34:41.000Z</time>
        <extensions>
          <ns3:TrackPointExtension>
            <ns3:atemp>19.0</ns3:atemp>
          </ns3:TrackPointExtension>
        </extensions>
      </trkpt>
      <trkpt lat="42.5025427155196666717529296875" lon="19.99614380300045013427734375">
        <ele>1691</ele>
        <time>2026-06-19T08:34:42.000Z</time>
        <extensions>
          <ns3:TrackPointExtension>
            <ns3:atemp>19.0</ns3:atemp>
          </ns3:TrackPointExtension>
        </extensions>
      </trkpt>
      <trkpt lat="42.50253458507359027862548828125" lon="19.99616584740579128265380859375">
        <ele>1691.199951171875</ele>
        <time>2026-06-19T08:34:43.000Z</time>
        <extensions>
          <ns3:TrackPointExtension>
            <ns3:atemp>19.0</ns3:atemp>
          </ns3:TrackPointExtension>
        </extensions>
      </trkpt>
      <trkpt lat="42.5025246106088161468505859375" lon="19.996186383068561553955078125">
        <ele>1691.5999755859375</ele>
        <time>2026-06-19T08:34:44.000Z</time>
        <extensions>
          <ns3:TrackPointExtension>
            <ns3:atemp>19.0</ns3:atemp>
          </ns3:TrackPointExtension>
        </extensions>
      </trkpt>
      <trkpt lat="42.50251413322985172271728515625" lon="19.9962019734084606170654296875">
        <ele>1691.800048828125</ele>
        <time>2026-06-19T08:34:45.000Z</time>
        <extensions>
          <ns3:TrackPointExtension>
            <ns3:atemp>19.0</ns3:atemp>
          </ns3:TrackPointExtension>
        </extensions>
      </trkpt>
      <trkpt lat="42.50250273384153842926025390625" lon="19.99621932394802570343017578125">
        <ele>1692.199951171875</ele>
        <time>2026-06-19T08:34:46.000Z</time>
        <extensions>
          <ns3:TrackPointExtension>
            <ns3:atemp>19.0</ns3:atemp>
          </ns3:TrackPointExtension>
        </extensions>
      </trkpt>
      <trkpt lat="42.50248949043452739715576171875" lon="19.9962388537824153900146484375">
        <ele>1692.5999755859375</ele>
        <time>2026-06-19T08:34:47.000Z</time>
        <extensions>
          <ns3:TrackPointExtension>
            <ns3:atemp>19.0</ns3:atemp>
          </ns3:TrackPointExtension>
        </extensions>
      </trkpt>
      <trkpt lat="42.502475492656230926513671875" lon="19.9962552823126316070556640625">
        <ele>1692.800048828125</ele>
        <time>2026-06-19T08:34:48.000Z</time>
        <extensions>
          <ns3:TrackPointExtension>
            <ns3:atemp>19.0</ns3:atemp>
          </ns3:TrackPointExtension>
        </extensions>
      </trkpt>
      <trkpt lat="42.5024588964879512786865234375" lon="19.9962643347680568695068359375">
        <ele>1693.199951171875</ele>
        <time>2026-06-19T08:34:49.000Z</time>
        <extensions>
          <ns3:TrackPointExtension>
            <ns3:atemp>19.0</ns3:atemp>
          </ns3:TrackPointExtension>
        </extensions>
      </trkpt>
      <trkpt lat="42.50243618153035640716552734375" lon="19.99626693315804004669189453125">
        <ele>1693.4000244140625</ele>
        <time>2026-06-19T08:34:50.000Z</time>
        <extensions>
          <ns3:TrackPointExtension>
            <ns3:atemp>19.0</ns3:atemp>
          </ns3:TrackPointExtension>
        </extensions>
      </trkpt>
      <trkpt lat="42.50241304747760295867919921875" lon="19.9962673522531986236572265625">
        <ele>1693.800048828125</ele>
        <time>2026-06-19T08:34:51.000Z</time>
        <extensions>
          <ns3:TrackPointExtension>
            <ns3:atemp>19.0</ns3:atemp>
          </ns3:TrackPointExtension>
        </extensions>
      </trkpt>
      <trkpt lat="42.50239326618611812591552734375" lon="19.99625754542648792266845703125">
        <ele>1694.199951171875</ele>
        <time>2026-06-19T08:34:52.000Z</time>
        <extensions>
          <ns3:TrackPointExtension>
            <ns3:atemp>19.0</ns3:atemp>
          </ns3:TrackPointExtension>
        </extensions>
      </trkpt>
      <trkpt lat="42.5023713894188404083251953125" lon="19.99623541720211505889892578125">
        <ele>1694.5999755859375</ele>
        <time>2026-06-19T08:34:53.000Z</time>
        <extensions>
          <ns3:TrackPointExtension>
            <ns3:atemp>19.0</ns3:atemp>
          </ns3:TrackPointExtension>
        </extensions>
      </trkpt>
      <trkpt lat="42.5023583136498928070068359375" lon="19.99620926566421985626220703125">
        <ele>1694.800048828125</ele>
        <time>2026-06-19T08:34:54.000Z</time>
        <extensions>
          <ns3:TrackPointExtension>
            <ns3:atemp>19.0</ns3:atemp>
          </ns3:TrackPointExtension>
        </extensions>
      </trkpt>
      <trkpt lat="42.5023502670228481292724609375" lon="19.9961852096021175384521484375">
        <ele>1695.199951171875</ele>
        <time>2026-06-19T08:34:55.000Z</time>
        <extensions>
          <ns3:TrackPointExtension>
            <ns3:atemp>19.0</ns3:atemp>
          </ns3:TrackPointExtension>
        </extensions>
      </trkpt>
      <trkpt lat="42.50234532169997692108154296875" lon="19.9961536936461925506591796875">
        <ele>1695.5999755859375</ele>
        <time>2026-06-19T08:34:56.000Z</time>
        <extensions>
          <ns3:TrackPointExtension>
            <ns3:atemp>19.0</ns3:atemp>
          </ns3:TrackPointExtension>
        </extensions>
      </trkpt>
      <trkpt lat="42.5023418851196765899658203125" lon="19.9961221776902675628662109375">
        <ele>1695.800048828125</ele>
        <time>2026-06-19T08:34:57.000Z</time>
        <extensions>
          <ns3:TrackPointExtension>
            <ns3:atemp>19.0</ns3:atemp>
          </ns3:TrackPointExtension>
        </extensions>
      </trkpt>
      <trkpt lat="42.50234104692935943603515625" lon="19.99609292484819889068603515625">
        <ele>1696.199951171875</ele>
        <time>2026-06-19T08:34:58.000Z</time>
        <extensions>
          <ns3:TrackPointExtension>
            <ns3:atemp>19.0</ns3:atemp>
          </ns3:TrackPointExtension>
        </extensions>
      </trkpt>
      <trkpt lat="42.502338699996471405029296875" lon="19.99606492929160594940185546875">
        <ele>1696.4000244140625</ele>
        <time>2026-06-19T08:34:59.000Z</time>
        <extensions>
          <ns3:TrackPointExtension>
            <ns3:atemp>19.0</ns3:atemp>
          </ns3:TrackPointExtension>
        </extensions>
      </trkpt>
      <trkpt lat="42.5023371912539005279541015625" lon="19.9960366822779178619384765625">
        <ele>1696.800048828125</ele>
        <time>2026-06-19T08:35:00.000Z</time>
        <extensions>
          <ns3:TrackPointExtension>
            <ns3:atemp>19.0</ns3:atemp>
          </ns3:TrackPointExtension>
        </extensions>
      </trkpt>
      <trkpt lat="42.50233509577810764312744140625" lon="19.99601195566356182098388671875">
        <ele>1697</ele>
        <time>2026-06-19T08:35:01.000Z</time>
        <extensions>
          <ns3:TrackPointExtension>
            <ns3:atemp>19.0</ns3:atemp>
          </ns3:TrackPointExtension>
        </extensions>
      </trkpt>
      <trkpt lat="42.50233476050198078155517578125" lon="19.9959884025156497955322265625">
        <ele>1697.199951171875</ele>
        <time>2026-06-19T08:35:02.000Z</time>
        <extensions>
          <ns3:TrackPointExtension>
            <ns3:atemp>19.0</ns3:atemp>
          </ns3:TrackPointExtension>
        </extensions>
      </trkpt>
      <trkpt lat="42.502334676682949066162109375" lon="19.9959580600261688232421875">
        <ele>1697.4000244140625</ele>
        <time>2026-06-19T08:35:03.000Z</time>
        <extensions>
          <ns3:TrackPointExtension>
            <ns3:atemp>19.0</ns3:atemp>
          </ns3:TrackPointExtension>
        </extensions>
      </trkpt>
      <trkpt lat="42.50233375467360019683837890625" lon="19.99592788517475128173828125">
        <ele>1697.800048828125</ele>
        <time>2026-06-19T08:35:04.000Z</time>
        <extensions>
          <ns3:TrackPointExtension>
            <ns3:atemp>19.0</ns3:atemp>
          </ns3:TrackPointExtension>
        </extensions>
      </trkpt>
      <trkpt lat="42.50233543105423450469970703125" lon="19.99590232037007808685302734375">
        <ele>1698</ele>
        <time>2026-06-19T08:35:05.000Z</time>
        <extensions>
          <ns3:TrackPointExtension>
            <ns3:atemp>19.0</ns3:atemp>
          </ns3:TrackPointExtension>
        </extensions>
      </trkpt>
      <trkpt lat="42.50233492814004421234130859375" lon="19.995879940688610076904296875">
        <ele>1698.199951171875</ele>
        <time>2026-06-19T08:35:06.000Z</time>
        <extensions>
          <ns3:TrackPointExtension>
            <ns3:atemp>19.0</ns3:atemp>
          </ns3:TrackPointExtension>
        </extensions>
      </trkpt>
      <trkpt lat="42.502334676682949066162109375" lon="19.995849765837192535400390625">
        <ele>1698.5999755859375</ele>
        <time>2026-06-19T08:35:07.000Z</time>
        <extensions>
          <ns3:TrackPointExtension>
            <ns3:atemp>19.0</ns3:atemp>
          </ns3:TrackPointExtension>
        </extensions>
      </trkpt>
      <trkpt lat="42.5023338384926319122314453125" lon="19.9958207644522190093994140625">
        <ele>1698.800048828125</ele>
        <time>2026-06-19T08:35:08.000Z</time>
        <extensions>
          <ns3:TrackPointExtension>
            <ns3:atemp>19.0</ns3:atemp>
          </ns3:TrackPointExtension>
        </extensions>
      </trkpt>
      <trkpt lat="42.502338699996471405029296875" lon="19.995789416134357452392578125">
        <ele>1699.199951171875</ele>
        <time>2026-06-19T08:35:09.000Z</time>
        <extensions>
          <ns3:TrackPointExtension>
            <ns3:atemp>19.0</ns3:atemp>
          </ns3:TrackPointExtension>
        </extensions>
      </trkpt>
      <trkpt lat="42.50234029255807399749755859375" lon="19.9957587383687496185302734375">
        <ele>1699.4000244140625</ele>
        <time>2026-06-19T08:35:10.000Z</time>
        <extensions>
          <ns3:TrackPointExtension>
            <ns3:atemp>19.0</ns3:atemp>
          </ns3:TrackPointExtension>
        </extensions>
      </trkpt>
      <trkpt lat="42.50234230421483516693115234375" lon="19.99572546221315860748291015625">
        <ele>1699.5999755859375</ele>
        <time>2026-06-19T08:35:11.000Z</time>
        <extensions>
          <ns3:TrackPointExtension>
            <ns3:atemp>19.0</ns3:atemp>
          </ns3:TrackPointExtension>
        </extensions>
      </trkpt>
      <trkpt lat="42.502342723309993743896484375" lon="19.995690174400806427001953125">
        <ele>1700</ele>
        <time>2026-06-19T08:35:12.000Z</time>
        <extensions>
          <ns3:TrackPointExtension>
            <ns3:atemp>19.0</ns3:atemp>
          </ns3:TrackPointExtension>
        </extensions>
      </trkpt>
      <trkpt lat="42.50233861617743968963623046875" lon="19.995651952922344207763671875">
        <ele>1700.199951171875</ele>
        <time>2026-06-19T08:35:13.000Z</time>
        <extensions>
          <ns3:TrackPointExtension>
            <ns3:atemp>19.0</ns3:atemp>
          </ns3:TrackPointExtension>
        </extensions>
      </trkpt>
      <trkpt lat="42.5023378618061542510986328125" lon="19.9956195987761020660400390625">
        <ele>1700.5999755859375</ele>
        <time>2026-06-19T08:35:14.000Z</time>
        <extensions>
          <ns3:TrackPointExtension>
            <ns3:atemp>19.0</ns3:atemp>
          </ns3:TrackPointExtension>
        </extensions>
      </trkpt>
      <trkpt lat="42.50233375467360019683837890625" lon="19.99559101648628711700439453125">
        <ele>1700.800048828125</ele>
        <time>2026-06-19T08:35:15.000Z</time>
        <extensions>
          <ns3:TrackPointExtension>
            <ns3:atemp>19.0</ns3:atemp>
          </ns3:TrackPointExtension>
        </extensions>
      </trkpt>
      <trkpt lat="42.5023304857313632965087890625" lon="19.9955637753009796142578125">
        <ele>1701.199951171875</ele>
        <time>2026-06-19T08:35:16.000Z</time>
        <extensions>
          <ns3:TrackPointExtension>
            <ns3:atemp>19.0</ns3:atemp>
          </ns3:TrackPointExtension>
        </extensions>
      </trkpt>
      <trkpt lat="42.50232486985623836517333984375" lon="19.995533265173435211181640625">
        <ele>1701.4000244140625</ele>
        <time>2026-06-19T08:35:17.000Z</time>
        <extensions>
          <ns3:TrackPointExtension>
            <ns3:atemp>19.0</ns3:atemp>
          </ns3:TrackPointExtension>
        </extensions>
      </trkpt>
      <trkpt lat="42.50232319347560405731201171875" lon="19.99549361877143383026123046875">
        <ele>1701.5999755859375</ele>
        <time>2026-06-19T08:35:18.000Z</time>
        <extensions>
          <ns3:TrackPointExtension>
            <ns3:atemp>19.0</ns3:atemp>
          </ns3:TrackPointExtension>
        </extensions>
      </trkpt>
      <trkpt lat="42.50231816433370113372802734375" lon="19.9954596720635890960693359375">
        <ele>1701.800048828125</ele>
        <time>2026-06-19T08:35:19.000Z</time>
        <extensions>
          <ns3:TrackPointExtension>
            <ns3:atemp>19.0</ns3:atemp>
          </ns3:TrackPointExtension>
        </extensions>
      </trkpt>
      <trkpt lat="42.502319924533367156982421875" lon="19.99543092213571071624755859375">
        <ele>1702</ele>
        <time>2026-06-19T08:35:20.000Z</time>
        <extensions>
          <ns3:TrackPointExtension>
            <ns3:atemp>19.0</ns3:atemp>
          </ns3:TrackPointExtension>
        </extensions>
      </trkpt>
      <trkpt lat="42.50231632031500339508056640625" lon="19.99540611170232295989990234375">
        <ele>1702.199951171875</ele>
        <time>2026-06-19T08:35:21.000Z</time>
        <extensions>
          <ns3:TrackPointExtension>
            <ns3:atemp>19.0</ns3:atemp>
          </ns3:TrackPointExtension>
        </extensions>
      </trkpt>
      <trkpt lat="42.50231020152568817138671875" lon="19.99537124298512935638427734375">
        <ele>1702.5999755859375</ele>
        <time>2026-06-19T08:35:22.000Z</time>
        <extensions>
          <ns3:TrackPointExtension>
            <ns3:atemp>19.0</ns3:atemp>
          </ns3:TrackPointExtension>
        </extensions>
      </trkpt>
      <trkpt lat="42.50230156816542148590087890625" lon="19.99534450471401214599609375">
        <ele>1702.800048828125</ele>
        <time>2026-06-19T08:35:23.000Z</time>
        <extensions>
          <ns3:TrackPointExtension>
            <ns3:atemp>19.0</ns3:atemp>
          </ns3:TrackPointExtension>
        </extensions>
      </trkpt>
      <trkpt lat="42.5022934377193450927734375" lon="19.9953210353851318359375">
        <ele>1703.199951171875</ele>
        <time>2026-06-19T08:35:24.000Z</time>
        <extensions>
          <ns3:TrackPointExtension>
            <ns3:atemp>19.0</ns3:atemp>
          </ns3:TrackPointExtension>
        </extensions>
      </trkpt>
      <trkpt lat="42.50228346325457096099853515625" lon="19.995297230780124664306640625">
        <ele>1703.4000244140625</ele>
        <time>2026-06-19T08:35:25.000Z</time>
        <extensions>
          <ns3:TrackPointExtension>
            <ns3:atemp>19.0</ns3:atemp>
          </ns3:TrackPointExtension>
        </extensions>
      </trkpt>
      <trkpt lat="42.50227374024689197540283203125" lon="19.9952635355293750762939453125">
        <ele>1703.800048828125</ele>
        <time>2026-06-19T08:35:26.000Z</time>
        <extensions>
          <ns3:TrackPointExtension>
            <ns3:atemp>19.0</ns3:atemp>
          </ns3:TrackPointExtension>
        </extensions>
      </trkpt>
      <trkpt lat="42.50226904638111591339111328125" lon="19.9952293373644351959228515625">
        <ele>1704</ele>
        <time>2026-06-19T08:35:27.000Z</time>
        <extensions>
          <ns3:TrackPointExtension>
            <ns3:atemp>19.0</ns3:atemp>
          </ns3:TrackPointExtension>
        </extensions>
      </trkpt>
      <trkpt lat="42.50225982628762722015380859375" lon="19.9951934628188610076904296875">
        <ele>1704.4000244140625</ele>
        <time>2026-06-19T08:35:28.000Z</time>
        <extensions>
          <ns3:TrackPointExtension>
            <ns3:atemp>19.0</ns3:atemp>
          </ns3:TrackPointExtension>
        </extensions>
      </trkpt>
      <trkpt lat="42.502247504889965057373046875" lon="19.995161779224872589111328125">
        <ele>1704.5999755859375</ele>
        <time>2026-06-19T08:35:29.000Z</time>
        <extensions>
          <ns3:TrackPointExtension>
            <ns3:atemp>19.0</ns3:atemp>
          </ns3:TrackPointExtension>
        </extensions>
      </trkpt>
      <trkpt lat="42.50223778188228607177734375" lon="19.9951304309070110321044921875">
        <ele>1705</ele>
        <time>2026-06-19T08:35:30.000Z</time>
        <extensions>
          <ns3:TrackPointExtension>
            <ns3:atemp>19.0</ns3:atemp>
          </ns3:TrackPointExtension>
        </extensions>
      </trkpt>
      <trkpt lat="42.50223241746425628662109375" lon="19.9950997531414031982421875">
        <ele>1705.4000244140625</ele>
        <time>2026-06-19T08:35:31.000Z</time>
        <extensions>
          <ns3:TrackPointExtension>
            <ns3:atemp>19.0</ns3:atemp>
          </ns3:TrackPointExtension>
        </extensions>
      </trkpt>
      <trkpt lat="42.50222378410398960113525390625" lon="19.99506555497646331787109375">
        <ele>1705.5999755859375</ele>
        <time>2026-06-19T08:35:32.000Z</time>
        <extensions>
          <ns3:TrackPointExtension>
            <ns3:atemp>19.0</ns3:atemp>
          </ns3:TrackPointExtension>
        </extensions>
      </trkpt>
      <trkpt lat="42.5022148154675960540771484375" lon="19.99503546394407749176025390625">
        <ele>1706</ele>
        <time>2026-06-19T08:35:33.000Z</time>
        <extensions>
          <ns3:TrackPointExtension>
            <ns3:atemp>19.0</ns3:atemp>
          </ns3:TrackPointExtension>
        </extensions>
      </trkpt>
      <trkpt lat="42.50221171416342258453369140625" lon="19.995002858340740203857421875">
        <ele>1706.199951171875</ele>
        <time>2026-06-19T08:35:34.000Z</time>
        <extensions>
          <ns3:TrackPointExtension>
            <ns3:atemp>19.0</ns3:atemp>
          </ns3:TrackPointExtension>
        </extensions>
      </trkpt>
      <trkpt lat="42.50221020542085170745849609375" lon="19.9949668161571025848388671875">
        <ele>1706.5999755859375</ele>
        <time>2026-06-19T08:35:35.000Z</time>
        <extensions>
          <ns3:TrackPointExtension>
            <ns3:atemp>19.0</ns3:atemp>
          </ns3:TrackPointExtension>
        </extensions>
      </trkpt>
      <trkpt lat="42.50220936723053455352783203125" lon="19.99493521638214588165283203125">
        <ele>1706.800048828125</ele>
        <time>2026-06-19T08:35:36.000Z</time>
        <extensions>
          <ns3:TrackPointExtension>
            <ns3:atemp>19.0</ns3:atemp>
          </ns3:TrackPointExtension>
        </extensions>
      </trkpt>
      <trkpt lat="42.5022074393928050994873046875" lon="19.99490386806428432464599609375">
        <ele>1707</ele>
        <time>2026-06-19T08:35:37.000Z</time>
        <extensions>
          <ns3:TrackPointExtension>
            <ns3:atemp>19.0</ns3:atemp>
          </ns3:TrackPointExtension>
        </extensions>
      </trkpt>
      <trkpt lat="42.502205260097980499267578125" lon="19.9948729388415813446044921875">
        <ele>1707.199951171875</ele>
        <time>2026-06-19T08:35:38.000Z</time>
        <extensions>
          <ns3:TrackPointExtension>
            <ns3:atemp>19.0</ns3:atemp>
          </ns3:TrackPointExtension>
        </extensions>
      </trkpt>
      <trkpt lat="42.50220634974539279937744140625" lon="19.9948454461991786956787109375">
        <ele>1707.5999755859375</ele>
        <time>2026-06-19T08:35:39.000Z</time>
        <extensions>
          <ns3:TrackPointExtension>
            <ns3:atemp>19.0</ns3:atemp>
          </ns3:TrackPointExtension>
        </extensions>
      </trkpt>
      <trkpt lat="42.50220886431634426116943359375" lon="19.99481317587196826934814453125">
        <ele>1707.800048828125</ele>
        <time>2026-06-19T08:35:40.000Z</time>
        <extensions>
          <ns3:TrackPointExtension>
            <ns3:atemp>19.0</ns3:atemp>
          </ns3:TrackPointExtension>
        </extensions>
      </trkpt>
      <trkpt lat="42.50221121124923229217529296875" lon="19.9947810731828212738037109375">
        <ele>1708</ele>
        <time>2026-06-19T08:35:41.000Z</time>
        <extensions>
          <ns3:TrackPointExtension>
            <ns3:atemp>19.0</ns3:atemp>
          </ns3:TrackPointExtension>
        </extensions>
      </trkpt>
      <trkpt lat="42.5022097863256931304931640625" lon="19.9947488866746425628662109375">
        <ele>1708.199951171875</ele>
        <time>2026-06-19T08:35:42.000Z</time>
        <extensions>
          <ns3:TrackPointExtension>
            <ns3:atemp>19.0</ns3:atemp>
          </ns3:TrackPointExtension>
        </extensions>
      </trkpt>
      <trkpt lat="42.5022087804973125457763671875" lon="19.99471644870936870574951171875">
        <ele>1708.5999755859375</ele>
        <time>2026-06-19T08:35:43.000Z</time>
        <extensions>
          <ns3:TrackPointExtension>
            <ns3:atemp>19.0</ns3:atemp>
          </ns3:TrackPointExtension>
        </extensions>
      </trkpt>
      <trkpt lat="42.5022097863256931304931640625" lon="19.9946825020015239715576171875">
        <ele>1708.800048828125</ele>
        <time>2026-06-19T08:35:44.000Z</time>
        <extensions>
          <ns3:TrackPointExtension>
            <ns3:atemp>19.0</ns3:atemp>
          </ns3:TrackPointExtension>
        </extensions>
      </trkpt>
      <trkpt lat="42.50221255235373973846435546875" lon="19.99464889056980609893798828125">
        <ele>1709</ele>
        <time>2026-06-19T08:35:45.000Z</time>
        <extensions>
          <ns3:TrackPointExtension>
            <ns3:atemp>19.0</ns3:atemp>
          </ns3:TrackPointExtension>
        </extensions>
      </trkpt>
      <trkpt lat="42.5022121332585811614990234375" lon="19.99461871571838855743408203125">
        <ele>1709.199951171875</ele>
        <time>2026-06-19T08:35:46.000Z</time>
        <extensions>
          <ns3:TrackPointExtension>
            <ns3:atemp>19.0</ns3:atemp>
          </ns3:TrackPointExtension>
        </extensions>
      </trkpt>
      <trkpt lat="42.50221406109631061553955078125" lon="19.9945862777531147003173828125">
        <ele>1709.4000244140625</ele>
        <time>2026-06-19T08:35:47.000Z</time>
        <extensions>
          <ns3:TrackPointExtension>
            <ns3:atemp>19.0</ns3:atemp>
          </ns3:TrackPointExtension>
        </extensions>
      </trkpt>
      <trkpt lat="42.50222043134272098541259765625" lon="19.99455995857715606689453125">
        <ele>1709.5999755859375</ele>
        <time>2026-06-19T08:35:48.000Z</time>
        <extensions>
          <ns3:TrackPointExtension>
            <ns3:atemp>19.0</ns3:atemp>
          </ns3:TrackPointExtension>
        </extensions>
      </trkpt>
      <trkpt lat="42.50222663395106792449951171875" lon="19.99452869407832622528076171875">
        <ele>1709.800048828125</ele>
        <time>2026-06-19T08:35:49.000Z</time>
        <extensions>
          <ns3:TrackPointExtension>
            <ns3:atemp>19.0</ns3:atemp>
          </ns3:TrackPointExtension>
        </extensions>
      </trkpt>
      <trkpt lat="42.502231411635875701904296875" lon="19.99449960887432098388671875">
        <ele>1710</ele>
        <time>2026-06-19T08:35:50.000Z</time>
        <extensions>
          <ns3:TrackPointExtension>
            <ns3:atemp>19.0</ns3:atemp>
          </ns3:TrackPointExtension>
        </extensions>
      </trkpt>
      <trkpt lat="42.50223082490265369415283203125" lon="19.99446985311806201934814453125">
        <ele>1710.199951171875</ele>
        <time>2026-06-19T08:35:51.000Z</time>
        <extensions>
          <ns3:TrackPointExtension>
            <ns3:atemp>19.0</ns3:atemp>
          </ns3:TrackPointExtension>
        </extensions>
      </trkpt>
      <trkpt lat="42.502230741083621978759765625" lon="19.99443666078150272369384765625">
        <ele>1710.5999755859375</ele>
        <time>2026-06-19T08:35:52.000Z</time>
        <extensions>
          <ns3:TrackPointExtension>
            <ns3:atemp>19.0</ns3:atemp>
          </ns3:TrackPointExtension>
        </extensions>
      </trkpt>
      <trkpt lat="42.502230070531368255615234375" lon="19.99440380372107028961181640625">
        <ele>1710.800048828125</ele>
        <time>2026-06-19T08:35:53.000Z</time>
        <extensions>
          <ns3:TrackPointExtension>
            <ns3:atemp>19.0</ns3:atemp>
          </ns3:TrackPointExtension>
        </extensions>
      </trkpt>
      <trkpt lat="42.5022262148559093475341796875" lon="19.9943690188229084014892578125">
        <ele>1711</ele>
        <time>2026-06-19T08:35:54.000Z</time>
        <extensions>
          <ns3:TrackPointExtension>
            <ns3:atemp>19.0</ns3:atemp>
          </ns3:TrackPointExtension>
        </extensions>
      </trkpt>
      <trkpt lat="42.5022228620946407318115234375" lon="19.994334317743778228759765625">
        <ele>1711.199951171875</ele>
        <time>2026-06-19T08:35:55.000Z</time>
        <extensions>
          <ns3:TrackPointExtension>
            <ns3:atemp>19.0</ns3:atemp>
          </ns3:TrackPointExtension>
        </extensions>
      </trkpt>
      <trkpt lat="42.5022168271243572235107421875" lon="19.99430405907332897186279296875">
        <ele>1711.4000244140625</ele>
        <time>2026-06-19T08:35:56.000Z</time>
        <extensions>
          <ns3:TrackPointExtension>
            <ns3:atemp>19.0</ns3:atemp>
          </ns3:TrackPointExtension>
        </extensions>
      </trkpt>
      <trkpt lat="42.50221523456275463104248046875" lon="19.99427606351673603057861328125">
        <ele>1711.5999755859375</ele>
        <time>2026-06-19T08:35:57.000Z</time>
        <extensions>
          <ns3:TrackPointExtension>
            <ns3:atemp>19.0</ns3:atemp>
          </ns3:TrackPointExtension>
        </extensions>
      </trkpt>
      <trkpt lat="42.50221707858145236968994140625" lon="19.99424345791339874267578125">
        <ele>1711.800048828125</ele>
        <time>2026-06-19T08:35:58.000Z</time>
        <extensions>
          <ns3:TrackPointExtension>
            <ns3:atemp>19.0</ns3:atemp>
          </ns3:TrackPointExtension>
        </extensions>
      </trkpt>
      <trkpt lat="42.50221691094338893890380859375" lon="19.994210265576839447021484375">
        <ele>1712.199951171875</ele>
        <time>2026-06-19T08:35:59.000Z</time>
        <extensions>
          <ns3:TrackPointExtension>
            <ns3:atemp>19.0</ns3:atemp>
          </ns3:TrackPointExtension>
        </extensions>
      </trkpt>
      <trkpt lat="42.502212636172771453857421875" lon="19.99417464248836040496826171875">
        <ele>1712.4000244140625</ele>
        <time>2026-06-19T08:36:00.000Z</time>
        <extensions>
          <ns3:TrackPointExtension>
            <ns3:atemp>19.0</ns3:atemp>
          </ns3:TrackPointExtension>
        </extensions>
      </trkpt>
      <trkpt lat="42.5022077746689319610595703125" lon="19.99414228834211826324462890625">
        <ele>1712.5999755859375</ele>
        <time>2026-06-19T08:36:01.000Z</time>
        <extensions>
          <ns3:TrackPointExtension>
            <ns3:atemp>19.0</ns3:atemp>
          </ns3:TrackPointExtension>
        </extensions>
      </trkpt>
      <trkpt lat="42.502201907336711883544921875" lon="19.994107671082019805908203125">
        <ele>1713</ele>
        <time>2026-06-19T08:36:02.000Z</time>
        <extensions>
          <ns3:TrackPointExtension>
            <ns3:atemp>19.0</ns3:atemp>
          </ns3:TrackPointExtension>
        </extensions>
      </trkpt>
      <trkpt lat="42.50219595618546009063720703125" lon="19.99407053925096988677978515625">
        <ele>1713.4000244140625</ele>
        <time>2026-06-19T08:36:03.000Z</time>
        <extensions>
          <ns3:TrackPointExtension>
            <ns3:atemp>19.0</ns3:atemp>
          </ns3:TrackPointExtension>
        </extensions>
      </trkpt>
      <trkpt lat="42.50219595618546009063720703125" lon="19.9940335750579833984375">
        <ele>1713.800048828125</ele>
        <time>2026-06-19T08:36:04.000Z</time>
        <extensions>
          <ns3:TrackPointExtension>
            <ns3:atemp>19.0</ns3:atemp>
          </ns3:TrackPointExtension>
        </extensions>
      </trkpt>
      <trkpt lat="42.5021963752806186676025390625" lon="19.9939998798072338104248046875">
        <ele>1714.199951171875</ele>
        <time>2026-06-19T08:36:05.000Z</time>
        <extensions>
          <ns3:TrackPointExtension>
            <ns3:atemp>19.0</ns3:atemp>
          </ns3:TrackPointExtension>
        </extensions>
      </trkpt>
      <trkpt lat="42.50220014713704586029052734375" lon="19.993968866765499114990234375">
        <ele>1714.4000244140625</ele>
        <time>2026-06-19T08:36:06.000Z</time>
        <extensions>
          <ns3:TrackPointExtension>
            <ns3:atemp>19.0</ns3:atemp>
          </ns3:TrackPointExtension>
        </extensions>
      </trkpt>
      <trkpt lat="42.50220634974539279937744140625" lon="19.99393458478152751922607421875">
        <ele>1714.800048828125</ele>
        <time>2026-06-19T08:36:07.000Z</time>
        <extensions>
          <ns3:TrackPointExtension>
            <ns3:atemp>19.0</ns3:atemp>
          </ns3:TrackPointExtension>
        </extensions>
      </trkpt>
      <trkpt lat="42.5022074393928050994873046875" lon="19.99390642158687114715576171875">
        <ele>1715.199951171875</ele>
        <time>2026-06-19T08:36:08.000Z</time>
        <extensions>
          <ns3:TrackPointExtension>
            <ns3:atemp>19.0</ns3:atemp>
          </ns3:TrackPointExtension>
        </extensions>
      </trkpt>
      <trkpt lat="42.50221372582018375396728515625" lon="19.99387943185865879058837890625">
        <ele>1715.4000244140625</ele>
        <time>2026-06-19T08:36:09.000Z</time>
        <extensions>
          <ns3:TrackPointExtension>
            <ns3:atemp>19.0</ns3:atemp>
          </ns3:TrackPointExtension>
        </extensions>
      </trkpt>
      <trkpt lat="42.5022252090275287628173828125" lon="19.9938600696623325347900390625">
        <ele>1715.800048828125</ele>
        <time>2026-06-19T08:36:10.000Z</time>
        <extensions>
          <ns3:TrackPointExtension>
            <ns3:atemp>19.0</ns3:atemp>
          </ns3:TrackPointExtension>
        </extensions>
      </trkpt>
      <trkpt lat="42.50223753042519092559814453125" lon="19.99384439550340175628662109375">
        <ele>1716.199951171875</ele>
        <time>2026-06-19T08:36:11.000Z</time>
        <extensions>
          <ns3:TrackPointExtension>
            <ns3:atemp>19.0</ns3:atemp>
          </ns3:TrackPointExtension>
        </extensions>
      </trkpt>
      <trkpt lat="42.502247504889965057373046875" lon="19.9938241951167583465576171875">
        <ele>1716.5999755859375</ele>
        <time>2026-06-19T08:36:12.000Z</time>
        <extensions>
          <ns3:TrackPointExtension>
            <ns3:atemp>19.0</ns3:atemp>
          </ns3:TrackPointExtension>
        </extensions>
      </trkpt>
      <trkpt lat="42.502252198755741119384765625" lon="19.9938003905117511749267578125">
        <ele>1716.800048828125</ele>
        <time>2026-06-19T08:36:13.000Z</time>
        <extensions>
          <ns3:TrackPointExtension>
            <ns3:atemp>19.0</ns3:atemp>
          </ns3:TrackPointExtension>
        </extensions>
      </trkpt>
      <trkpt lat="42.50225680880248546600341796875" lon="19.9937747418880462646484375">
        <ele>1717</ele>
        <time>2026-06-19T08:36:14.000Z</time>
        <extensions>
          <ns3:TrackPointExtension>
            <ns3:atemp>19.0</ns3:atemp>
          </ns3:TrackPointExtension>
        </extensions>
      </trkpt>
      <trkpt lat="42.50225446186959743499755859375" lon="19.993749596178531646728515625">
        <ele>1717.4000244140625</ele>
        <time>2026-06-19T08:36:15.000Z</time>
        <extensions>
          <ns3:TrackPointExtension>
            <ns3:atemp>19.0</ns3:atemp>
          </ns3:TrackPointExtension>
        </extensions>
      </trkpt>
      <trkpt lat="42.50225027091801166534423828125" lon="19.99372579157352447509765625">
        <ele>1717.800048828125</ele>
        <time>2026-06-19T08:36:16.000Z</time>
        <extensions>
          <ns3:TrackPointExtension>
            <ns3:atemp>19.0</ns3:atemp>
          </ns3:TrackPointExtension>
        </extensions>
      </trkpt>
      <trkpt lat="42.5022409670054912567138671875" lon="19.99370357953011989593505859375">
        <ele>1718.199951171875</ele>
        <time>2026-06-19T08:36:17.000Z</time>
        <extensions>
          <ns3:TrackPointExtension>
            <ns3:atemp>19.0</ns3:atemp>
          </ns3:TrackPointExtension>
        </extensions>
      </trkpt>
      <trkpt lat="42.50222814269363880157470703125" lon="19.9936830438673496246337890625">
        <ele>1718.4000244140625</ele>
        <time>2026-06-19T08:36:18.000Z</time>
        <extensions>
          <ns3:TrackPointExtension>
            <ns3:atemp>19.0</ns3:atemp>
          </ns3:TrackPointExtension>
        </extensions>
      </trkpt>
      <trkpt lat="42.50220852904021739959716796875" lon="19.993671812117099761962890625">
        <ele>1718.800048828125</ele>
        <time>2026-06-19T08:36:19.000Z</time>
        <extensions>
          <ns3:TrackPointExtension>
            <ns3:atemp>19.0</ns3:atemp>
          </ns3:TrackPointExtension>
        </extensions>
      </trkpt>
      <trkpt lat="42.5021903403103351593017578125" lon="19.99367348849773406982421875">
        <ele>1719.199951171875</ele>
        <time>2026-06-19T08:36:20.000Z</time>
        <extensions>
          <ns3:TrackPointExtension>
            <ns3:atemp>19.0</ns3:atemp>
          </ns3:TrackPointExtension>
        </extensions>
      </trkpt>
      <trkpt lat="42.50217298977077007293701171875" lon="19.993679523468017578125">
        <ele>1719.4000244140625</ele>
        <time>2026-06-19T08:36:21.000Z</time>
        <extensions>
          <ns3:TrackPointExtension>
            <ns3:atemp>19.0</ns3:atemp>
          </ns3:TrackPointExtension>
        </extensions>
      </trkpt>
      <trkpt lat="42.50215731561183929443359375" lon="19.9936915934085845947265625">
        <ele>1719.800048828125</ele>
        <time>2026-06-19T08:36:22.000Z</time>
        <extensions>
          <ns3:TrackPointExtension>
            <ns3:atemp>19.0</ns3:atemp>
          </ns3:TrackPointExtension>
        </extensions>
      </trkpt>
      <trkpt lat="42.502140887081623077392578125" lon="19.993708021938800811767578125">
        <ele>1720</ele>
        <time>2026-06-19T08:36:23.000Z</time>
        <extensions>
          <ns3:TrackPointExtension>
            <ns3:atemp>19.0</ns3:atemp>
          </ns3:TrackPointExtension>
        </extensions>
      </trkpt>
      <trkpt lat="42.502125799655914306640625" lon="19.99372470192611217498779296875">
        <ele>1720.4000244140625</ele>
        <time>2026-06-19T08:36:24.000Z</time>
        <extensions>
          <ns3:TrackPointExtension>
            <ns3:atemp>19.0</ns3:atemp>
          </ns3:TrackPointExtension>
        </extensions>
      </trkpt>
      <trkpt lat="42.50210861675441265106201171875" lon="19.99373911879956722259521484375">
        <ele>1720.5999755859375</ele>
        <time>2026-06-19T08:36:25.000Z</time>
        <extensions>
          <ns3:TrackPointExtension>
            <ns3:atemp>19.0</ns3:atemp>
          </ns3:TrackPointExtension>
        </extensions>
      </trkpt>
      <trkpt lat="42.502089254558086395263671875" lon="19.99375336803495883941650390625">
        <ele>1720.800048828125</ele>
        <time>2026-06-19T08:36:26.000Z</time>
        <extensions>
          <ns3:TrackPointExtension>
            <ns3:atemp>19.0</ns3:atemp>
          </ns3:TrackPointExtension>
        </extensions>
      </trkpt>
      <trkpt lat="42.5020713172852993011474609375" lon="19.9937695451080799102783203125">
        <ele>1721</ele>
        <time>2026-06-19T08:36:27.000Z</time>
        <extensions>
          <ns3:TrackPointExtension>
            <ns3:atemp>19.0</ns3:atemp>
          </ns3:TrackPointExtension>
        </extensions>
      </trkpt>
      <trkpt lat="42.5020532123744487762451171875" lon="19.9937853030860424041748046875">
        <ele>1721.4000244140625</ele>
        <time>2026-06-19T08:36:28.000Z</time>
        <extensions>
          <ns3:TrackPointExtension>
            <ns3:atemp>19.0</ns3:atemp>
          </ns3:TrackPointExtension>
        </extensions>
      </trkpt>
      <trkpt lat="42.5020372867584228515625" lon="19.99380290508270263671875">
        <ele>1721.5999755859375</ele>
        <time>2026-06-19T08:36:29.000Z</time>
        <extensions>
          <ns3:TrackPointExtension>
            <ns3:atemp>19.0</ns3:atemp>
          </ns3:TrackPointExtension>
        </extensions>
      </trkpt>
      <trkpt lat="42.5020190142095088958740234375" lon="19.9938221834599971771240234375">
        <ele>1721.800048828125</ele>
        <time>2026-06-19T08:36:30.000Z</time>
        <extensions>
          <ns3:TrackPointExtension>
            <ns3:atemp>19.0</ns3:atemp>
          </ns3:TrackPointExtension>
        </extensions>
      </trkpt>
      <trkpt lat="42.5019983947277069091796875" lon="19.99383785761892795562744140625">
        <ele>1722</ele>
        <time>2026-06-19T08:36:31.000Z</time>
        <extensions>
          <ns3:TrackPointExtension>
            <ns3:atemp>19.0</ns3:atemp>
          </ns3:TrackPointExtension>
        </extensions>
      </trkpt>
      <trkpt lat="42.5019791163504123687744140625" lon="19.99385613016784191131591796875">
        <ele>1722.199951171875</ele>
        <time>2026-06-19T08:36:32.000Z</time>
        <extensions>
          <ns3:TrackPointExtension>
            <ns3:atemp>19.0</ns3:atemp>
          </ns3:TrackPointExtension>
        </extensions>
      </trkpt>
      <trkpt lat="42.501962520182132720947265625" lon="19.99387473799288272857666015625">
        <ele>1722.4000244140625</ele>
        <time>2026-06-19T08:36:33.000Z</time>
        <extensions>
          <ns3:TrackPointExtension>
            <ns3:atemp>19.0</ns3:atemp>
          </ns3:TrackPointExtension>
        </extensions>
      </trkpt>
      <trkpt lat="42.501950450241565704345703125" lon="19.993896447122097015380859375">
        <ele>1722.5999755859375</ele>
        <time>2026-06-19T08:36:34.000Z</time>
        <extensions>
          <ns3:TrackPointExtension>
            <ns3:atemp>19.0</ns3:atemp>
          </ns3:TrackPointExtension>
        </extensions>
      </trkpt>
      <trkpt lat="42.50193737447261810302734375" lon="19.99392050318419933319091796875">
        <ele>1723</ele>
        <time>2026-06-19T08:36:35.000Z</time>
        <extensions>
          <ns3:TrackPointExtension>
            <ns3:atemp>19.0</ns3:atemp>
          </ns3:TrackPointExtension>
        </extensions>
      </trkpt>
      <trkpt lat="42.50192488543689250946044921875" lon="19.993940703570842742919921875">
        <ele>1723.4000244140625</ele>
        <time>2026-06-19T08:36:36.000Z</time>
        <extensions>
          <ns3:TrackPointExtension>
            <ns3:atemp>19.0</ns3:atemp>
          </ns3:TrackPointExtension>
        </extensions>
      </trkpt>
      <trkpt lat="42.50190979801118373870849609375" lon="19.99395671300590038299560546875">
        <ele>1723.5999755859375</ele>
        <time>2026-06-19T08:36:37.000Z</time>
        <extensions>
          <ns3:TrackPointExtension>
            <ns3:atemp>19.0</ns3:atemp>
          </ns3:TrackPointExtension>
        </extensions>
      </trkpt>
      <trkpt lat="42.50189387239515781402587890625" lon="19.99396224506199359893798828125">
        <ele>1724</ele>
        <time>2026-06-19T08:36:38.000Z</time>
        <extensions>
          <ns3:TrackPointExtension>
            <ns3:atemp>19.0</ns3:atemp>
          </ns3:TrackPointExtension>
        </extensions>
      </trkpt>
      <trkpt lat="42.5018761865794658660888671875" lon="19.9939650110900402069091796875">
        <ele>1724.199951171875</ele>
        <time>2026-06-19T08:36:39.000Z</time>
        <extensions>
          <ns3:TrackPointExtension>
            <ns3:atemp>19.0</ns3:atemp>
          </ns3:TrackPointExtension>
        </extensions>
      </trkpt>
      <trkpt lat="42.50186495482921600341796875" lon="19.99396677128970623016357421875">
        <ele>1724.5999755859375</ele>
        <time>2026-06-19T08:36:40.000Z</time>
        <extensions>
          <ns3:TrackPointExtension>
            <ns3:atemp>19.0</ns3:atemp>
          </ns3:TrackPointExtension>
        </extensions>
      </trkpt>
      <trkpt lat="42.50185095705091953277587890625" lon="19.9939633347094058990478515625">
        <ele>1725</ele>
        <time>2026-06-19T08:36:41.000Z</time>
        <extensions>
          <ns3:TrackPointExtension>
            <ns3:atemp>19.0</ns3:atemp>
          </ns3:TrackPointExtension>
        </extensions>
      </trkpt>
      <trkpt lat="42.50183201394975185394287109375" lon="19.99395771883428096771240234375">
        <ele>1725.199951171875</ele>
        <time>2026-06-19T08:36:42.000Z</time>
        <extensions>
          <ns3:TrackPointExtension>
            <ns3:atemp>19.0</ns3:atemp>
          </ns3:TrackPointExtension>
        </extensions>
      </trkpt>
      <trkpt lat="42.5018171779811382293701171875" lon="19.99395537190139293670654296875">
        <ele>1725.5999755859375</ele>
        <time>2026-06-19T08:36:43.000Z</time>
        <extensions>
          <ns3:TrackPointExtension>
            <ns3:atemp>19.0</ns3:atemp>
          </ns3:TrackPointExtension>
        </extensions>
      </trkpt>
      <trkpt lat="42.50180234201252460479736328125" lon="19.99394715763628482818603515625">
        <ele>1725.800048828125</ele>
        <time>2026-06-19T08:36:44.000Z</time>
        <extensions>
          <ns3:TrackPointExtension>
            <ns3:atemp>19.0</ns3:atemp>
          </ns3:TrackPointExtension>
        </extensions>
      </trkpt>
      <trkpt lat="42.5017891824245452880859375" lon="19.99393475241959095001220703125">
        <ele>1726.199951171875</ele>
        <time>2026-06-19T08:36:45.000Z</time>
        <extensions>
          <ns3:TrackPointExtension>
            <ns3:atemp>19.0</ns3:atemp>
          </ns3:TrackPointExtension>
        </extensions>
      </trkpt>
      <trkpt lat="42.50177778303623199462890625" lon="19.99391597695648670196533203125">
        <ele>1726.4000244140625</ele>
        <time>2026-06-19T08:36:46.000Z</time>
        <extensions>
          <ns3:TrackPointExtension>
            <ns3:atemp>19.0</ns3:atemp>
          </ns3:TrackPointExtension>
        </extensions>
      </trkpt>
      <trkpt lat="42.50176495872437953948974609375" lon="19.99389116652309894561767578125">
        <ele>1726.800048828125</ele>
        <time>2026-06-19T08:36:47.000Z</time>
        <extensions>
          <ns3:TrackPointExtension>
            <ns3:atemp>19.0</ns3:atemp>
          </ns3:TrackPointExtension>
        </extensions>
      </trkpt>
      <trkpt lat="42.501751296222209930419921875" lon="19.99386727809906005859375">
        <ele>1727.199951171875</ele>
        <time>2026-06-19T08:36:48.000Z</time>
        <extensions>
          <ns3:TrackPointExtension>
            <ns3:atemp>19.0</ns3:atemp>
          </ns3:TrackPointExtension>
        </extensions>
      </trkpt>
      <trkpt lat="42.5017397291958332061767578125" lon="19.99384473077952861785888671875">
        <ele>1727.4000244140625</ele>
        <time>2026-06-19T08:36:49.000Z</time>
        <extensions>
          <ns3:TrackPointExtension>
            <ns3:atemp>19.0</ns3:atemp>
          </ns3:TrackPointExtension>
        </extensions>
      </trkpt>
      <trkpt lat="42.5017259828746318817138671875" lon="19.99382025562226772308349609375">
        <ele>1727.5999755859375</ele>
        <time>2026-06-19T08:36:50.000Z</time>
        <extensions>
          <ns3:TrackPointExtension>
            <ns3:atemp>19.0</ns3:atemp>
          </ns3:TrackPointExtension>
        </extensions>
      </trkpt>
      <trkpt lat="42.50171181745827198028564453125" lon="19.9938020668923854827880859375">
        <ele>1728</ele>
        <time>2026-06-19T08:36:51.000Z</time>
        <extensions>
          <ns3:TrackPointExtension>
            <ns3:atemp>19.0</ns3:atemp>
          </ns3:TrackPointExtension>
        </extensions>
      </trkpt>
      <trkpt lat="42.50170092098414897918701171875" lon="19.9937809444963932037353515625">
        <ele>1728.199951171875</ele>
        <time>2026-06-19T08:36:52.000Z</time>
        <extensions>
          <ns3:TrackPointExtension>
            <ns3:atemp>19.0</ns3:atemp>
          </ns3:TrackPointExtension>
        </extensions>
      </trkpt>
      <trkpt lat="42.5016907788813114166259765625" lon="19.9937584809958934783935546875">
        <ele>1728.5999755859375</ele>
        <time>2026-06-19T08:36:53.000Z</time>
        <extensions>
          <ns3:TrackPointExtension>
            <ns3:atemp>19.0</ns3:atemp>
          </ns3:TrackPointExtension>
        </extensions>
      </trkpt>
      <trkpt lat="42.50168298371136188507080078125" lon="19.99373811297118663787841796875">
        <ele>1728.800048828125</ele>
        <time>2026-06-19T08:36:54.000Z</time>
        <extensions>
          <ns3:TrackPointExtension>
            <ns3:atemp>19.0</ns3:atemp>
          </ns3:TrackPointExtension>
        </extensions>
      </trkpt>
      <trkpt lat="42.50167661346495151519775390625" lon="19.99371447600424289703369140625">
        <ele>1729</ele>
        <time>2026-06-19T08:36:55.000Z</time>
        <extensions>
          <ns3:TrackPointExtension>
            <ns3:atemp>19.0</ns3:atemp>
          </ns3:TrackPointExtension>
        </extensions>
      </trkpt>
      <trkpt lat="42.50166722573339939117431640625" lon="19.99368782155215740203857421875">
        <ele>1729.199951171875</ele>
        <time>2026-06-19T08:36:56.000Z</time>
        <extensions>
          <ns3:TrackPointExtension>
            <ns3:atemp>19.0</ns3:atemp>
          </ns3:TrackPointExtension>
        </extensions>
      </trkpt>
      <trkpt lat="42.501658089458942413330078125" lon="19.993663094937801361083984375">
        <ele>1729.5999755859375</ele>
        <time>2026-06-19T08:36:57.000Z</time>
        <extensions>
          <ns3:TrackPointExtension>
            <ns3:atemp>19.0</ns3:atemp>
          </ns3:TrackPointExtension>
        </extensions>
      </trkpt>
      <trkpt lat="42.50164744444191455841064453125" lon="19.99364071525633335113525390625">
        <ele>1729.800048828125</ele>
        <time>2026-06-19T08:36:58.000Z</time>
        <extensions>
          <ns3:TrackPointExtension>
            <ns3:atemp>19.0</ns3:atemp>
          </ns3:TrackPointExtension>
        </extensions>
      </trkpt>
      <trkpt lat="42.50163705088198184967041015625" lon="19.99362076632678508758544921875">
        <ele>1730</ele>
        <time>2026-06-19T08:36:59.000Z</time>
        <extensions>
          <ns3:TrackPointExtension>
            <ns3:atemp>19.0</ns3:atemp>
          </ns3:TrackPointExtension>
        </extensions>
      </trkpt>
      <trkpt lat="42.50162464566528797149658203125" lon="19.9936035834252834320068359375">
        <ele>1730.199951171875</ele>
        <time>2026-06-19T08:37:00.000Z</time>
        <extensions>
          <ns3:TrackPointExtension>
            <ns3:atemp>19.0</ns3:atemp>
          </ns3:TrackPointExtension>
        </extensions>
      </trkpt>
      <trkpt lat="42.50161056406795978546142578125" lon="19.9935908429324626922607421875">
        <ele>1730.4000244140625</ele>
        <time>2026-06-19T08:37:01.000Z</time>
        <extensions>
          <ns3:TrackPointExtension>
            <ns3:atemp>19.0</ns3:atemp>
          </ns3:TrackPointExtension>
        </extensions>
      </trkpt>
      <trkpt lat="42.50159799121320247650146484375" lon="19.993569888174533843994140625">
        <ele>1730.5999755859375</ele>
        <time>2026-06-19T08:37:02.000Z</time>
        <extensions>
          <ns3:TrackPointExtension>
            <ns3:atemp>19.0</ns3:atemp>
          </ns3:TrackPointExtension>
        </extensions>
      </trkpt>
      <trkpt lat="42.50158273614943027496337890625" lon="19.9935485981404781341552734375">
        <ele>1730.800048828125</ele>
        <time>2026-06-19T08:37:03.000Z</time>
        <extensions>
          <ns3:TrackPointExtension>
            <ns3:atemp>19.0</ns3:atemp>
          </ns3:TrackPointExtension>
        </extensions>
      </trkpt>
      <trkpt lat="42.50157234258949756622314453125" lon="19.9935294874012470245361328125">
        <ele>1731</ele>
        <time>2026-06-19T08:37:04.000Z</time>
        <extensions>
          <ns3:TrackPointExtension>
            <ns3:atemp>19.0</ns3:atemp>
          </ns3:TrackPointExtension>
        </extensions>
      </trkpt>
      <trkpt lat="42.5015638768672943115234375" lon="19.99350727535784244537353515625">
        <ele>1731.199951171875</ele>
        <time>2026-06-19T08:37:05.000Z</time>
        <extensions>
          <ns3:TrackPointExtension>
            <ns3:atemp>19.0</ns3:atemp>
          </ns3:TrackPointExtension>
        </extensions>
      </trkpt>
      <trkpt lat="42.50155440531671047210693359375" lon="19.99348648823797702789306640625">
        <ele>1731.5999755859375</ele>
        <time>2026-06-19T08:37:06.000Z</time>
        <extensions>
          <ns3:TrackPointExtension>
            <ns3:atemp>19.0</ns3:atemp>
          </ns3:TrackPointExtension>
        </extensions>
      </trkpt>
      <trkpt lat="42.501542754471302032470703125" lon="19.99346670694649219512939453125">
        <ele>1731.800048828125</ele>
        <time>2026-06-19T08:37:07.000Z</time>
        <extensions>
          <ns3:TrackPointExtension>
            <ns3:atemp>19.0</ns3:atemp>
          </ns3:TrackPointExtension>
        </extensions>
      </trkpt>
      <trkpt lat="42.50153479166328907012939453125" lon="19.99344491399824619293212890625">
        <ele>1732.199951171875</ele>
        <time>2026-06-19T08:37:08.000Z</time>
        <extensions>
          <ns3:TrackPointExtension>
            <ns3:atemp>19.0</ns3:atemp>
          </ns3:TrackPointExtension>
        </extensions>
      </trkpt>
      <trkpt lat="42.50152439810335636138916015625" lon="19.9934228695929050445556640625">
        <ele>1732.4000244140625</ele>
        <time>2026-06-19T08:37:09.000Z</time>
        <extensions>
          <ns3:TrackPointExtension>
            <ns3:atemp>19.0</ns3:atemp>
          </ns3:TrackPointExtension>
        </extensions>
      </trkpt>
      <trkpt lat="42.50151584856212139129638671875" lon="19.99340401031076908111572265625">
        <ele>1732.800048828125</ele>
        <time>2026-06-19T08:37:10.000Z</time>
        <extensions>
          <ns3:TrackPointExtension>
            <ns3:atemp>19.0</ns3:atemp>
          </ns3:TrackPointExtension>
        </extensions>
      </trkpt>
      <trkpt lat="42.50150729902088642120361328125" lon="19.9933856539428234100341796875">
        <ele>1733.199951171875</ele>
        <time>2026-06-19T08:37:11.000Z</time>
        <extensions>
          <ns3:TrackPointExtension>
            <ns3:atemp>19.0</ns3:atemp>
          </ns3:TrackPointExtension>
        </extensions>
      </trkpt>
      <trkpt lat="42.5014976598322391510009765625" lon="19.99336729757487773895263671875">
        <ele>1733.4000244140625</ele>
        <time>2026-06-19T08:37:12.000Z</time>
        <extensions>
          <ns3:TrackPointExtension>
            <ns3:atemp>19.0</ns3:atemp>
          </ns3:TrackPointExtension>
        </extensions>
      </trkpt>
      <trkpt lat="42.501490451395511627197265625" lon="19.99334625899791717529296875">
        <ele>1733.800048828125</ele>
        <time>2026-06-19T08:37:13.000Z</time>
        <extensions>
          <ns3:TrackPointExtension>
            <ns3:atemp>19.0</ns3:atemp>
          </ns3:TrackPointExtension>
        </extensions>
      </trkpt>
      <trkpt lat="42.50148081220686435699462890625" lon="19.99332522042095661163330078125">
        <ele>1734</ele>
        <time>2026-06-19T08:37:14.000Z</time>
        <extensions>
          <ns3:TrackPointExtension>
            <ns3:atemp>19.0</ns3:atemp>
          </ns3:TrackPointExtension>
        </extensions>
      </trkpt>
      <trkpt lat="42.50147041864693164825439453125" lon="19.99330627731978893280029296875">
        <ele>1734.199951171875</ele>
        <time>2026-06-19T08:37:15.000Z</time>
        <extensions>
          <ns3:TrackPointExtension>
            <ns3:atemp>19.0</ns3:atemp>
          </ns3:TrackPointExtension>
        </extensions>
      </trkpt>
      <trkpt lat="42.5014631263911724090576171875" lon="19.99328498728573322296142578125">
        <ele>1734.5999755859375</ele>
        <time>2026-06-19T08:37:16.000Z</time>
        <extensions>
          <ns3:TrackPointExtension>
            <ns3:atemp>19.0</ns3:atemp>
          </ns3:TrackPointExtension>
        </extensions>
      </trkpt>
      <trkpt lat="42.50145650468766689300537109375" lon="19.9932602606713771820068359375">
        <ele>1734.800048828125</ele>
        <time>2026-06-19T08:37:17.000Z</time>
        <extensions>
          <ns3:TrackPointExtension>
            <ns3:atemp>19.0</ns3:atemp>
          </ns3:TrackPointExtension>
        </extensions>
      </trkpt>
      <trkpt lat="42.50145063735544681549072265625" lon="19.993235282599925994873046875">
        <ele>1735</ele>
        <time>2026-06-19T08:37:18.000Z</time>
        <extensions>
          <ns3:TrackPointExtension>
            <ns3:atemp>19.0</ns3:atemp>
          </ns3:TrackPointExtension>
        </extensions>
      </trkpt>
      <trkpt lat="42.50144460238516330718994140625" lon="19.99321483075618743896484375">
        <ele>1735.4000244140625</ele>
        <time>2026-06-19T08:37:19.000Z</time>
        <extensions>
          <ns3:TrackPointExtension>
            <ns3:atemp>19.0</ns3:atemp>
          </ns3:TrackPointExtension>
        </extensions>
      </trkpt>
      <trkpt lat="42.50143940560519695281982421875" lon="19.99319312162697315216064453125">
        <ele>1735.5999755859375</ele>
        <time>2026-06-19T08:37:20.000Z</time>
        <extensions>
          <ns3:TrackPointExtension>
            <ns3:atemp>19.0</ns3:atemp>
          </ns3:TrackPointExtension>
        </extensions>
      </trkpt>
      <trkpt lat="42.50143454410135746002197265625" lon="19.9931714124977588653564453125">
        <ele>1735.800048828125</ele>
        <time>2026-06-19T08:37:21.000Z</time>
        <extensions>
          <ns3:TrackPointExtension>
            <ns3:atemp>19.0</ns3:atemp>
          </ns3:TrackPointExtension>
        </extensions>
      </trkpt>
      <trkpt lat="42.5014282576739788055419921875" lon="19.9931516312062740325927734375">
        <ele>1736</ele>
        <time>2026-06-19T08:37:22.000Z</time>
        <extensions>
          <ns3:TrackPointExtension>
            <ns3:atemp>19.0</ns3:atemp>
          </ns3:TrackPointExtension>
        </extensions>
      </trkpt>
      <trkpt lat="42.5014205463230609893798828125" lon="19.99312757514417171478271484375">
        <ele>1736.4000244140625</ele>
        <time>2026-06-19T08:37:23.000Z</time>
        <extensions>
          <ns3:TrackPointExtension>
            <ns3:atemp>19.0</ns3:atemp>
          </ns3:TrackPointExtension>
        </extensions>
      </trkpt>
      <trkpt lat="42.5014118291437625885009765625" lon="19.99310125596821308135986328125">
        <ele>1736.800048828125</ele>
        <time>2026-06-19T08:37:24.000Z</time>
        <extensions>
          <ns3:TrackPointExtension>
            <ns3:atemp>19.0</ns3:atemp>
          </ns3:TrackPointExtension>
        </extensions>
      </trkpt>
      <trkpt lat="42.50140403397381305694580078125" lon="19.99307543970644474029541015625">
        <ele>1737</ele>
        <time>2026-06-19T08:37:25.000Z</time>
        <extensions>
          <ns3:TrackPointExtension>
            <ns3:atemp>19.0</ns3:atemp>
          </ns3:TrackPointExtension>
        </extensions>
      </trkpt>
      <trkpt lat="42.50139749608933925628662109375" lon="19.99305163510143756866455078125">
        <ele>1737.199951171875</ele>
        <time>2026-06-19T08:37:26.000Z</time>
        <extensions>
          <ns3:TrackPointExtension>
            <ns3:atemp>19.0</ns3:atemp>
          </ns3:TrackPointExtension>
        </extensions>
      </trkpt>
      <trkpt lat="42.50139062292873859405517578125" lon="19.99303068034350872039794921875">
        <ele>1737.4000244140625</ele>
        <time>2026-06-19T08:37:27.000Z</time>
        <extensions>
          <ns3:TrackPointExtension>
            <ns3:atemp>19.0</ns3:atemp>
          </ns3:TrackPointExtension>
        </extensions>
      </trkpt>
      <trkpt lat="42.50138374976813793182373046875" lon="19.9930111505091190338134765625">
        <ele>1737.5999755859375</ele>
        <time>2026-06-19T08:37:28.000Z</time>
        <extensions>
          <ns3:TrackPointExtension>
            <ns3:atemp>19.0</ns3:atemp>
          </ns3:TrackPointExtension>
        </extensions>
      </trkpt>
      <trkpt lat="42.50137788243591785430908203125" lon="19.99298952519893646240234375">
        <ele>1737.800048828125</ele>
        <time>2026-06-19T08:37:29.000Z</time>
        <extensions>
          <ns3:TrackPointExtension>
            <ns3:atemp>19.0</ns3:atemp>
          </ns3:TrackPointExtension>
        </extensions>
      </trkpt>
      <trkpt lat="42.50137000344693660736083984375" lon="19.9929672293365001678466796875">
        <ele>1738.199951171875</ele>
        <time>2026-06-19T08:37:30.000Z</time>
        <extensions>
          <ns3:TrackPointExtension>
            <ns3:atemp>19.0</ns3:atemp>
          </ns3:TrackPointExtension>
        </extensions>
      </trkpt>
      <trkpt lat="42.5013588555157184600830078125" lon="19.9929454363882541656494140625">
        <ele>1738.4000244140625</ele>
        <time>2026-06-19T08:37:31.000Z</time>
        <extensions>
          <ns3:TrackPointExtension>
            <ns3:atemp>19.0</ns3:atemp>
          </ns3:TrackPointExtension>
        </extensions>
      </trkpt>
      <trkpt lat="42.50134686939418315887451171875" lon="19.99292389489710330963134765625">
        <ele>1738.5999755859375</ele>
        <time>2026-06-19T08:37:32.000Z</time>
        <extensions>
          <ns3:TrackPointExtension>
            <ns3:atemp>19.0</ns3:atemp>
          </ns3:TrackPointExtension>
        </extensions>
      </trkpt>
      <trkpt lat="42.50133479945361614227294921875" lon="19.9928978271782398223876953125">
        <ele>1738.800048828125</ele>
        <time>2026-06-19T08:37:33.000Z</time>
        <extensions>
          <ns3:TrackPointExtension>
            <ns3:atemp>19.0</ns3:atemp>
          </ns3:TrackPointExtension>
        </extensions>
      </trkpt>
      <trkpt lat="42.5013223104178905487060546875" lon="19.9928760342299938201904296875">
        <ele>1739.199951171875</ele>
        <time>2026-06-19T08:37:34.000Z</time>
        <extensions>
          <ns3:TrackPointExtension>
            <ns3:atemp>19.0</ns3:atemp>
          </ns3:TrackPointExtension>
        </extensions>
      </trkpt>
      <trkpt lat="42.501305378973484039306640625" lon="19.99285415746271610260009765625">
        <ele>1739.4000244140625</ele>
        <time>2026-06-19T08:37:35.000Z</time>
        <extensions>
          <ns3:TrackPointExtension>
            <ns3:atemp>19.0</ns3:atemp>
          </ns3:TrackPointExtension>
        </extensions>
      </trkpt>
      <trkpt lat="42.50128668732941150665283203125" lon="19.99283605255186557769775390625">
        <ele>1739.5999755859375</ele>
        <time>2026-06-19T08:37:36.000Z</time>
        <extensions>
          <ns3:TrackPointExtension>
            <ns3:atemp>19.0</ns3:atemp>
          </ns3:TrackPointExtension>
        </extensions>
      </trkpt>
      <trkpt lat="42.50126690603792667388916015625" lon="19.992824234068393707275390625">
        <ele>1739.800048828125</ele>
        <time>2026-06-19T08:37:37.000Z</time>
        <extensions>
          <ns3:TrackPointExtension>
            <ns3:atemp>19.0</ns3:atemp>
          </ns3:TrackPointExtension>
        </extensions>
      </trkpt>
      <trkpt lat="42.50125131569802761077880859375" lon="19.99281291849911212921142578125">
        <ele>1740.199951171875</ele>
        <time>2026-06-19T08:37:38.000Z</time>
        <extensions>
          <ns3:TrackPointExtension>
            <ns3:atemp>19.0</ns3:atemp>
          </ns3:TrackPointExtension>
        </extensions>
      </trkpt>
      <trkpt lat="42.5012337975203990936279296875" lon="19.99280185438692569732666015625">
        <ele>1740.4000244140625</ele>
        <time>2026-06-19T08:37:39.000Z</time>
        <extensions>
          <ns3:TrackPointExtension>
            <ns3:atemp>19.0</ns3:atemp>
          </ns3:TrackPointExtension>
        </extensions>
      </trkpt>
      <trkpt lat="42.50121845863759517669677734375" lon="19.9927851743996143341064453125">
        <ele>1740.4000244140625</ele>
        <time>2026-06-19T08:37:40.000Z</time>
        <extensions>
          <ns3:TrackPointExtension>
            <ns3:atemp>19.0</ns3:atemp>
          </ns3:TrackPointExtension>
        </extensions>
      </trkpt>
      <trkpt lat="42.5012022815644741058349609375" lon="19.9927635490894317626953125">
        <ele>1740.5999755859375</ele>
        <time>2026-06-19T08:37:41.000Z</time>
        <extensions>
          <ns3:TrackPointExtension>
            <ns3:atemp>19.0</ns3:atemp>
          </ns3:TrackPointExtension>
        </extensions>
      </trkpt>
      <trkpt lat="42.50118711031973361968994140625" lon="19.99274351634085178375244140625">
        <ele>1740.800048828125</ele>
        <time>2026-06-19T08:37:42.000Z</time>
        <extensions>
          <ns3:TrackPointExtension>
            <ns3:atemp>19.0</ns3:atemp>
          </ns3:TrackPointExtension>
        </extensions>
      </trkpt>
      <trkpt lat="42.501171268522739410400390625" lon="19.9927259981632232666015625">
        <ele>1741</ele>
        <time>2026-06-19T08:37:43.000Z</time>
        <extensions>
          <ns3:TrackPointExtension>
            <ns3:atemp>19.0</ns3:atemp>
          </ns3:TrackPointExtension>
        </extensions>
      </trkpt>
      <trkpt lat="42.50115710310637950897216796875" lon="19.99270713888108730316162109375">
        <ele>1741.199951171875</ele>
        <time>2026-06-19T08:37:44.000Z</time>
        <extensions>
          <ns3:TrackPointExtension>
            <ns3:atemp>19.0</ns3:atemp>
          </ns3:TrackPointExtension>
        </extensions>
      </trkpt>
      <trkpt lat="42.5011415965855121612548828125" lon="19.99268777668476104736328125">
        <ele>1741.4000244140625</ele>
        <time>2026-06-19T08:37:45.000Z</time>
        <extensions>
          <ns3:TrackPointExtension>
            <ns3:atemp>19.0</ns3:atemp>
          </ns3:TrackPointExtension>
        </extensions>
      </trkpt>
      <trkpt lat="42.50112609006464481353759765625" lon="19.99266623519361019134521484375">
        <ele>1741.5999755859375</ele>
        <time>2026-06-19T08:37:46.000Z</time>
        <extensions>
          <ns3:TrackPointExtension>
            <ns3:atemp>19.0</ns3:atemp>
          </ns3:TrackPointExtension>
        </extensions>
      </trkpt>
      <trkpt lat="42.5011154450476169586181640625" lon="19.99263949692249298095703125">
        <ele>1742</ele>
        <time>2026-06-19T08:37:47.000Z</time>
        <extensions>
          <ns3:TrackPointExtension>
            <ns3:atemp>19.0</ns3:atemp>
          </ns3:TrackPointExtension>
        </extensions>
      </trkpt>
      <trkpt lat="42.501107566058635711669921875" lon="19.99261778779327869415283203125">
        <ele>1742.199951171875</ele>
        <time>2026-06-19T08:37:48.000Z</time>
        <extensions>
          <ns3:TrackPointExtension>
            <ns3:atemp>19.0</ns3:atemp>
          </ns3:TrackPointExtension>
        </extensions>
      </trkpt>
      <trkpt lat="42.5010993517935276031494140625" lon="19.99259884469211101531982421875">
        <ele>1742.4000244140625</ele>
        <time>2026-06-19T08:37:49.000Z</time>
        <extensions>
          <ns3:TrackPointExtension>
            <ns3:atemp>19.0</ns3:atemp>
          </ns3:TrackPointExtension>
        </extensions>
      </trkpt>
      <trkpt lat="42.5010926462709903717041015625" lon="19.9925776384770870208740234375">
        <ele>1742.800048828125</ele>
        <time>2026-06-19T08:37:50.000Z</time>
        <extensions>
          <ns3:TrackPointExtension>
            <ns3:atemp>19.0</ns3:atemp>
          </ns3:TrackPointExtension>
        </extensions>
      </trkpt>
      <trkpt lat="42.50108778476715087890625" lon="19.9925551749765872955322265625">
        <ele>1743</ele>
        <time>2026-06-19T08:37:51.000Z</time>
        <extensions>
          <ns3:TrackPointExtension>
            <ns3:atemp>19.0</ns3:atemp>
          </ns3:TrackPointExtension>
        </extensions>
      </trkpt>
      <trkpt lat="42.5010869465768337249755859375" lon="19.99253296293318271636962890625">
        <ele>1743.4000244140625</ele>
        <time>2026-06-19T08:37:52.000Z</time>
        <extensions>
          <ns3:TrackPointExtension>
            <ns3:atemp>19.0</ns3:atemp>
          </ns3:TrackPointExtension>
        </extensions>
      </trkpt>
      <trkpt lat="42.50108443200588226318359375" lon="19.99250530265271663665771484375">
        <ele>1743.5999755859375</ele>
        <time>2026-06-19T08:37:53.000Z</time>
        <extensions>
          <ns3:TrackPointExtension>
            <ns3:atemp>19.0</ns3:atemp>
          </ns3:TrackPointExtension>
        </extensions>
      </trkpt>
      <trkpt lat="42.50107546336948871612548828125" lon="19.9924817495048046112060546875">
        <ele>1744</ele>
        <time>2026-06-19T08:37:54.000Z</time>
        <extensions>
          <ns3:TrackPointExtension>
            <ns3:atemp>19.0</ns3:atemp>
          </ns3:TrackPointExtension>
        </extensions>
      </trkpt>
      <trkpt lat="42.5010664947330951690673828125" lon="19.99245668761432170867919921875">
        <ele>1744.4000244140625</ele>
        <time>2026-06-19T08:37:55.000Z</time>
        <extensions>
          <ns3:TrackPointExtension>
            <ns3:atemp>19.0</ns3:atemp>
          </ns3:TrackPointExtension>
        </extensions>
      </trkpt>
      <trkpt lat="42.5010542571544647216796875" lon="19.99243841506540775299072265625">
        <ele>1744.800048828125</ele>
        <time>2026-06-19T08:37:56.000Z</time>
        <extensions>
          <ns3:TrackPointExtension>
            <ns3:atemp>19.0</ns3:atemp>
          </ns3:TrackPointExtension>
        </extensions>
      </trkpt>
      <trkpt lat="42.50103992410004138946533203125" lon="19.99242014251649379730224609375">
        <ele>1745.199951171875</ele>
        <time>2026-06-19T08:37:57.000Z</time>
        <extensions>
          <ns3:TrackPointExtension>
            <ns3:atemp>19.0</ns3:atemp>
          </ns3:TrackPointExtension>
        </extensions>
      </trkpt>
      <trkpt lat="42.50102517195045948028564453125" lon="19.99240119941532611846923828125">
        <ele>1745.5999755859375</ele>
        <time>2026-06-19T08:37:58.000Z</time>
        <extensions>
          <ns3:TrackPointExtension>
            <ns3:atemp>19.0</ns3:atemp>
          </ns3:TrackPointExtension>
        </extensions>
      </trkpt>
      <trkpt lat="42.50101075507700443267822265625" lon="19.9923855252563953399658203125">
        <ele>1746</ele>
        <time>2026-06-19T08:37:59.000Z</time>
        <extensions>
          <ns3:TrackPointExtension>
            <ns3:atemp>19.0</ns3:atemp>
          </ns3:TrackPointExtension>
        </extensions>
      </trkpt>
      <trkpt lat="42.50099516473710536956787109375" lon="19.99236993491649627685546875">
        <ele>1746.4000244140625</ele>
        <time>2026-06-19T08:38:00.000Z</time>
        <extensions>
          <ns3:TrackPointExtension>
            <ns3:atemp>19.0</ns3:atemp>
          </ns3:TrackPointExtension>
        </extensions>
      </trkpt>
      <trkpt lat="42.50098091550171375274658203125" lon="19.99235928989946842193603515625">
        <ele>1746.800048828125</ele>
        <time>2026-06-19T08:38:01.000Z</time>
        <extensions>
          <ns3:TrackPointExtension>
            <ns3:atemp>19.0</ns3:atemp>
          </ns3:TrackPointExtension>
        </extensions>
      </trkpt>
      <trkpt lat="42.500964738428592681884765625" lon="19.9923476390540599822998046875">
        <ele>1747.199951171875</ele>
        <time>2026-06-19T08:38:02.000Z</time>
        <extensions>
          <ns3:TrackPointExtension>
            <ns3:atemp>19.0</ns3:atemp>
          </ns3:TrackPointExtension>
        </extensions>
      </trkpt>
      <trkpt lat="42.50094638206064701080322265625" lon="19.99233799986541271209716796875">
        <ele>1747.5999755859375</ele>
        <time>2026-06-19T08:38:03.000Z</time>
        <extensions>
          <ns3:TrackPointExtension>
            <ns3:atemp>19.0</ns3:atemp>
          </ns3:TrackPointExtension>
        </extensions>
      </trkpt>
      <trkpt lat="42.50092827714979648590087890625" lon="19.99233447946608066558837890625">
        <ele>1748</ele>
        <time>2026-06-19T08:38:04.000Z</time>
        <extensions>
          <ns3:TrackPointExtension>
            <ns3:atemp>19.0</ns3:atemp>
          </ns3:TrackPointExtension>
        </extensions>
      </trkpt>
      <trkpt lat="42.500910423696041107177734375" lon="19.992329366505146026611328125">
        <ele>1748.4000244140625</ele>
        <time>2026-06-19T08:38:05.000Z</time>
        <extensions>
          <ns3:TrackPointExtension>
            <ns3:atemp>19.0</ns3:atemp>
          </ns3:TrackPointExtension>
        </extensions>
      </trkpt>
      <trkpt lat="42.5008934922516345977783203125" lon="19.99232442118227481842041015625">
        <ele>1748.800048828125</ele>
        <time>2026-06-19T08:38:06.000Z</time>
        <extensions>
          <ns3:TrackPointExtension>
            <ns3:atemp>19.0</ns3:atemp>
          </ns3:TrackPointExtension>
        </extensions>
      </trkpt>
      <trkpt lat="42.500877566635608673095703125" lon="19.99231553636491298675537109375">
        <ele>1749.199951171875</ele>
        <time>2026-06-19T08:38:07.000Z</time>
        <extensions>
          <ns3:TrackPointExtension>
            <ns3:atemp>19.0</ns3:atemp>
          </ns3:TrackPointExtension>
        </extensions>
      </trkpt>
      <trkpt lat="42.50085937790572643280029296875" lon="19.9923107586801052093505859375">
        <ele>1749.5999755859375</ele>
        <time>2026-06-19T08:38:08.000Z</time>
        <extensions>
          <ns3:TrackPointExtension>
            <ns3:atemp>19.0</ns3:atemp>
          </ns3:TrackPointExtension>
        </extensions>
      </trkpt>
      <trkpt lat="42.50083875842392444610595703125" lon="19.9923080764710903167724609375">
        <ele>1750</ele>
        <time>2026-06-19T08:38:09.000Z</time>
        <extensions>
          <ns3:TrackPointExtension>
            <ns3:atemp>19.0</ns3:atemp>
          </ns3:TrackPointExtension>
        </extensions>
      </trkpt>
      <trkpt lat="42.50082216225564479827880859375" lon="19.99230078421533107757568359375">
        <ele>1750.199951171875</ele>
        <time>2026-06-19T08:38:10.000Z</time>
        <extensions>
          <ns3:TrackPointExtension>
            <ns3:atemp>19.0</ns3:atemp>
          </ns3:TrackPointExtension>
        </extensions>
      </trkpt>
      <trkpt lat="42.50080950558185577392578125" lon="19.992291145026683807373046875">
        <ele>1750.5999755859375</ele>
        <time>2026-06-19T08:38:11.000Z</time>
        <extensions>
          <ns3:TrackPointExtension>
            <ns3:atemp>19.0</ns3:atemp>
          </ns3:TrackPointExtension>
        </extensions>
      </trkpt>
      <trkpt lat="42.500791735947132110595703125" lon="19.9922846071422100067138671875">
        <ele>1751</ele>
        <time>2026-06-19T08:38:12.000Z</time>
        <extensions>
          <ns3:TrackPointExtension>
            <ns3:atemp>19.0</ns3:atemp>
          </ns3:TrackPointExtension>
        </extensions>
      </trkpt>
      <trkpt lat="42.50077337957918643951416015625" lon="19.99228301458060741424560546875">
        <ele>1751.4000244140625</ele>
        <time>2026-06-19T08:38:13.000Z</time>
        <extensions>
          <ns3:TrackPointExtension>
            <ns3:atemp>19.0</ns3:atemp>
          </ns3:TrackPointExtension>
        </extensions>
      </trkpt>
      <trkpt lat="42.50075728632509708404541015625" lon="19.9922792427241802215576171875">
        <ele>1751.800048828125</ele>
        <time>2026-06-19T08:38:14.000Z</time>
        <extensions>
          <ns3:TrackPointExtension>
            <ns3:atemp>19.0</ns3:atemp>
          </ns3:TrackPointExtension>
        </extensions>
      </trkpt>
      <trkpt lat="42.50073817558586597442626953125" lon="19.99227412976324558258056640625">
        <ele>1752</ele>
        <time>2026-06-19T08:38:15.000Z</time>
        <extensions>
          <ns3:TrackPointExtension>
            <ns3:atemp>19.0</ns3:atemp>
          </ns3:TrackPointExtension>
        </extensions>
      </trkpt>
      <trkpt lat="42.50071923248469829559326171875" lon="19.992273040115833282470703125">
        <ele>1752.4000244140625</ele>
        <time>2026-06-19T08:38:16.000Z</time>
        <extensions>
          <ns3:TrackPointExtension>
            <ns3:atemp>19.0</ns3:atemp>
          </ns3:TrackPointExtension>
        </extensions>
      </trkpt>
      <trkpt lat="42.5007002055644989013671875" lon="19.9922758899629116058349609375">
        <ele>1752.5999755859375</ele>
        <time>2026-06-19T08:38:17.000Z</time>
        <extensions>
          <ns3:TrackPointExtension>
            <ns3:atemp>19.0</ns3:atemp>
          </ns3:TrackPointExtension>
        </extensions>
      </trkpt>
      <trkpt lat="42.50068075954914093017578125" lon="19.992276728153228759765625">
        <ele>1753</ele>
        <time>2026-06-19T08:38:18.000Z</time>
        <extensions>
          <ns3:TrackPointExtension>
            <ns3:atemp>19.0</ns3:atemp>
          </ns3:TrackPointExtension>
        </extensions>
      </trkpt>
      <trkpt lat="42.50066357664763927459716796875" lon="19.99227781780064105987548828125">
        <ele>1753.4000244140625</ele>
        <time>2026-06-19T08:38:19.000Z</time>
        <extensions>
          <ns3:TrackPointExtension>
            <ns3:atemp>19.0</ns3:atemp>
          </ns3:TrackPointExtension>
        </extensions>
      </trkpt>
      <trkpt lat="42.50064413063228130340576171875" lon="19.99228200875222682952880859375">
        <ele>1753.5999755859375</ele>
        <time>2026-06-19T08:38:20.000Z</time>
        <extensions>
          <ns3:TrackPointExtension>
            <ns3:atemp>19.0</ns3:atemp>
          </ns3:TrackPointExtension>
        </extensions>
      </trkpt>
      <trkpt lat="42.5006252713501453399658203125" lon="19.99228200875222682952880859375">
        <ele>1753.800048828125</ele>
        <time>2026-06-19T08:38:21.000Z</time>
        <extensions>
          <ns3:TrackPointExtension>
            <ns3:atemp>19.0</ns3:atemp>
          </ns3:TrackPointExtension>
        </extensions>
      </trkpt>
      <trkpt lat="42.50060431659221649169921875" lon="19.9922815896570682525634765625">
        <ele>1753.800048828125</ele>
        <time>2026-06-19T08:38:22.000Z</time>
        <extensions>
          <ns3:TrackPointExtension>
            <ns3:atemp>19.0</ns3:atemp>
          </ns3:TrackPointExtension>
        </extensions>
      </trkpt>
      <trkpt lat="42.5005848705768585205078125" lon="19.99228435568511486053466796875">
        <ele>1754</ele>
        <time>2026-06-19T08:38:23.000Z</time>
        <extensions>
          <ns3:TrackPointExtension>
            <ns3:atemp>19.0</ns3:atemp>
          </ns3:TrackPointExtension>
        </extensions>
      </trkpt>
      <trkpt lat="42.50056550838053226470947265625" lon="19.9922882951796054840087890625">
        <ele>1754.199951171875</ele>
        <time>2026-06-19T08:38:24.000Z</time>
        <extensions>
          <ns3:TrackPointExtension>
            <ns3:atemp>19.0</ns3:atemp>
          </ns3:TrackPointExtension>
        </extensions>
      </trkpt>
      <trkpt lat="42.50054555945098400115966796875" lon="19.99229357577860355377197265625">
        <ele>1754.5999755859375</ele>
        <time>2026-06-19T08:38:25.000Z</time>
        <extensions>
          <ns3:TrackPointExtension>
            <ns3:atemp>19.0</ns3:atemp>
          </ns3:TrackPointExtension>
        </extensions>
      </trkpt>
      <trkpt lat="42.50052846036851406097412109375" lon="19.99229709617793560028076171875">
        <ele>1754.800048828125</ele>
        <time>2026-06-19T08:38:26.000Z</time>
        <extensions>
          <ns3:TrackPointExtension>
            <ns3:atemp>19.0</ns3:atemp>
          </ns3:TrackPointExtension>
        </extensions>
      </trkpt>
      <trkpt lat="42.5005129538476467132568359375" lon="19.99229894019663333892822265625">
        <ele>1754.800048828125</ele>
        <time>2026-06-19T08:38:27.000Z</time>
        <extensions>
          <ns3:TrackPointExtension>
            <ns3:atemp>19.0</ns3:atemp>
          </ns3:TrackPointExtension>
        </extensions>
      </trkpt>
      <trkpt lat="42.50049627386033535003662109375" lon="19.992304556071758270263671875">
        <ele>1755</ele>
        <time>2026-06-19T08:38:28.000Z</time>
        <extensions>
          <ns3:TrackPointExtension>
            <ns3:atemp>19.0</ns3:atemp>
          </ns3:TrackPointExtension>
        </extensions>
      </trkpt>
      <trkpt lat="42.5004802644252777099609375" lon="19.992314614355564117431640625">
        <ele>1755.199951171875</ele>
        <time>2026-06-19T08:38:29.000Z</time>
        <extensions>
          <ns3:TrackPointExtension>
            <ns3:atemp>19.0</ns3:atemp>
          </ns3:TrackPointExtension>
        </extensions>
      </trkpt>
      <trkpt lat="42.500461153686046600341796875" lon="19.99232299625873565673828125">
        <ele>1755.4000244140625</ele>
        <time>2026-06-19T08:38:30.000Z</time>
        <extensions>
          <ns3:TrackPointExtension>
            <ns3:atemp>19.0</ns3:atemp>
          </ns3:TrackPointExtension>
        </extensions>
      </trkpt>
      <trkpt lat="42.5004435516893863677978515625" lon="19.99233372509479522705078125">
        <ele>1755.5999755859375</ele>
        <time>2026-06-19T08:38:31.000Z</time>
        <extensions>
          <ns3:TrackPointExtension>
            <ns3:atemp>19.0</ns3:atemp>
          </ns3:TrackPointExtension>
        </extensions>
      </trkpt>
      <trkpt lat="42.50042318366467952728271484375" lon="19.99234302900731563568115234375">
        <ele>1755.800048828125</ele>
        <time>2026-06-19T08:38:32.000Z</time>
        <extensions>
          <ns3:TrackPointExtension>
            <ns3:atemp>19.0</ns3:atemp>
          </ns3:TrackPointExtension>
        </extensions>
      </trkpt>
      <trkpt lat="42.500400803983211517333984375" lon="19.99235141091048717498779296875">
        <ele>1756</ele>
        <time>2026-06-19T08:38:33.000Z</time>
        <extensions>
          <ns3:TrackPointExtension>
            <ns3:atemp>19.0</ns3:atemp>
          </ns3:TrackPointExtension>
        </extensions>
      </trkpt>
      <trkpt lat="42.50038077123463153839111328125" lon="19.992360211908817291259765625">
        <ele>1756.199951171875</ele>
        <time>2026-06-19T08:38:34.000Z</time>
        <extensions>
          <ns3:TrackPointExtension>
            <ns3:atemp>19.0</ns3:atemp>
          </ns3:TrackPointExtension>
        </extensions>
      </trkpt>
      <trkpt lat="42.50036694109439849853515625" lon="19.99237588606774806976318359375">
        <ele>1756.199951171875</ele>
        <time>2026-06-19T08:38:35.000Z</time>
        <extensions>
          <ns3:TrackPointExtension>
            <ns3:atemp>19.0</ns3:atemp>
          </ns3:TrackPointExtension>
        </extensions>
      </trkpt>
      <trkpt lat="42.5003513507544994354248046875" lon="19.992390386760234832763671875">
        <ele>1756.5999755859375</ele>
        <time>2026-06-19T08:38:36.000Z</time>
        <extensions>
          <ns3:TrackPointExtension>
            <ns3:atemp>19.0</ns3:atemp>
          </ns3:TrackPointExtension>
        </extensions>
      </trkpt>
      <trkpt lat="42.50033886171877384185791015625" lon="19.9924068152904510498046875">
        <ele>1756.800048828125</ele>
        <time>2026-06-19T08:38:37.000Z</time>
        <extensions>
          <ns3:TrackPointExtension>
            <ns3:atemp>19.0</ns3:atemp>
          </ns3:TrackPointExtension>
        </extensions>
      </trkpt>
      <trkpt lat="42.50032712705433368682861328125" lon="19.992423914372920989990234375">
        <ele>1757</ele>
        <time>2026-06-19T08:38:38.000Z</time>
        <extensions>
          <ns3:TrackPointExtension>
            <ns3:atemp>19.0</ns3:atemp>
          </ns3:TrackPointExtension>
        </extensions>
      </trkpt>
      <trkpt lat="42.50031463801860809326171875" lon="19.9924452044069766998291015625">
        <ele>1757.199951171875</ele>
        <time>2026-06-19T08:38:39.000Z</time>
        <extensions>
          <ns3:TrackPointExtension>
            <ns3:atemp>19.0</ns3:atemp>
          </ns3:TrackPointExtension>
        </extensions>
      </trkpt>
      <trkpt lat="42.50030684284865856170654296875" lon="19.99246791936457157135009765625">
        <ele>1757.4000244140625</ele>
        <time>2026-06-19T08:38:40.000Z</time>
        <extensions>
          <ns3:TrackPointExtension>
            <ns3:atemp>19.0</ns3:atemp>
          </ns3:TrackPointExtension>
        </extensions>
      </trkpt>
      <trkpt lat="42.50029795803129673004150390625" lon="19.9924897961318492889404296875">
        <ele>1757.5999755859375</ele>
        <time>2026-06-19T08:38:41.000Z</time>
        <extensions>
          <ns3:TrackPointExtension>
            <ns3:atemp>19.0</ns3:atemp>
          </ns3:TrackPointExtension>
        </extensions>
      </trkpt>
      <trkpt lat="42.50028915703296661376953125" lon="19.992514438927173614501953125">
        <ele>1757.800048828125</ele>
        <time>2026-06-19T08:38:42.000Z</time>
        <extensions>
          <ns3:TrackPointExtension>
            <ns3:atemp>18.0</ns3:atemp>
          </ns3:TrackPointExtension>
        </extensions>
      </trkpt>
      <trkpt lat="42.50028287060558795928955078125" lon="19.99253765679895877838134765625">
        <ele>1758</ele>
        <time>2026-06-19T08:38:43.000Z</time>
        <extensions>
          <ns3:TrackPointExtension>
            <ns3:atemp>18.0</ns3:atemp>
          </ns3:TrackPointExtension>
        </extensions>
      </trkpt>
      <trkpt lat="42.50027616508305072784423828125" lon="19.9925650656223297119140625">
        <ele>1758.4000244140625</ele>
        <time>2026-06-19T08:38:44.000Z</time>
        <extensions>
          <ns3:TrackPointExtension>
            <ns3:atemp>18.0</ns3:atemp>
          </ns3:TrackPointExtension>
        </extensions>
      </trkpt>
      <trkpt lat="42.5002678669989109039306640625" lon="19.99259197153151035308837890625">
        <ele>1758.5999755859375</ele>
        <time>2026-06-19T08:38:45.000Z</time>
        <extensions>
          <ns3:TrackPointExtension>
            <ns3:atemp>18.0</ns3:atemp>
          </ns3:TrackPointExtension>
        </extensions>
      </trkpt>
      <trkpt lat="42.500265352427959442138671875" lon="19.99261678196489810943603515625">
        <ele>1758.800048828125</ele>
        <time>2026-06-19T08:38:46.000Z</time>
        <extensions>
          <ns3:TrackPointExtension>
            <ns3:atemp>18.0</ns3:atemp>
          </ns3:TrackPointExtension>
        </extensions>
      </trkpt>
      <trkpt lat="42.500257976353168487548828125" lon="19.99264494515955448150634765625">
        <ele>1759.199951171875</ele>
        <time>2026-06-19T08:38:47.000Z</time>
        <extensions>
          <ns3:TrackPointExtension>
            <ns3:atemp>19.0</ns3:atemp>
          </ns3:TrackPointExtension>
        </extensions>
      </trkpt>
      <trkpt lat="42.5002541206777095794677734375" lon="19.992676042020320892333984375">
        <ele>1759.4000244140625</ele>
        <time>2026-06-19T08:38:48.000Z</time>
        <extensions>
          <ns3:TrackPointExtension>
            <ns3:atemp>19.0</ns3:atemp>
          </ns3:TrackPointExtension>
        </extensions>
      </trkpt>
      <trkpt lat="42.50025135464966297149658203125" lon="19.9926996789872646331787109375">
        <ele>1759.800048828125</ele>
        <time>2026-06-19T08:38:49.000Z</time>
        <extensions>
          <ns3:TrackPointExtension>
            <ns3:atemp>18.0</ns3:atemp>
          </ns3:TrackPointExtension>
        </extensions>
      </trkpt>
      <trkpt lat="42.50025118701159954071044921875" lon="19.99272423796355724334716796875">
        <ele>1760.199951171875</ele>
        <time>2026-06-19T08:38:50.000Z</time>
        <extensions>
          <ns3:TrackPointExtension>
            <ns3:atemp>18.0</ns3:atemp>
          </ns3:TrackPointExtension>
        </extensions>
      </trkpt>
      <trkpt lat="42.5002522766590118408203125" lon="19.99275122769176959991455078125">
        <ele>1760.4000244140625</ele>
        <time>2026-06-19T08:38:51.000Z</time>
        <extensions>
          <ns3:TrackPointExtension>
            <ns3:atemp>18.0</ns3:atemp>
          </ns3:TrackPointExtension>
        </extensions>
      </trkpt>
      <trkpt lat="42.5002514384686946868896484375" lon="19.99278140254318714141845703125">
        <ele>1760.5999755859375</ele>
        <time>2026-06-19T08:38:52.000Z</time>
        <extensions>
          <ns3:TrackPointExtension>
            <ns3:atemp>18.0</ns3:atemp>
          </ns3:TrackPointExtension>
        </extensions>
      </trkpt>
      <trkpt lat="42.500252611935138702392578125" lon="19.9928118288516998291015625">
        <ele>1760.800048828125</ele>
        <time>2026-06-19T08:38:53.000Z</time>
        <extensions>
          <ns3:TrackPointExtension>
            <ns3:atemp>18.0</ns3:atemp>
          </ns3:TrackPointExtension>
        </extensions>
      </trkpt>
      <trkpt lat="42.50025219283998012542724609375" lon="19.9928448535501956939697265625">
        <ele>1761</ele>
        <time>2026-06-19T08:38:54.000Z</time>
        <extensions>
          <ns3:TrackPointExtension>
            <ns3:atemp>18.0</ns3:atemp>
          </ns3:TrackPointExtension>
        </extensions>
      </trkpt>
      <trkpt lat="42.5002534501254558563232421875" lon="19.9928713403642177581787109375">
        <ele>1761.4000244140625</ele>
        <time>2026-06-19T08:38:55.000Z</time>
        <extensions>
          <ns3:TrackPointExtension>
            <ns3:atemp>18.0</ns3:atemp>
          </ns3:TrackPointExtension>
        </extensions>
      </trkpt>
      <trkpt lat="42.5002561323344707489013671875" lon="19.992899000644683837890625">
        <ele>1761.5999755859375</ele>
        <time>2026-06-19T08:38:56.000Z</time>
        <extensions>
          <ns3:TrackPointExtension>
            <ns3:atemp>18.0</ns3:atemp>
          </ns3:TrackPointExtension>
        </extensions>
      </trkpt>
      <trkpt lat="42.5002591498196125030517578125" lon="19.99293277971446514129638671875">
        <ele>1761.800048828125</ele>
        <time>2026-06-19T08:38:57.000Z</time>
        <extensions>
          <ns3:TrackPointExtension>
            <ns3:atemp>18.0</ns3:atemp>
          </ns3:TrackPointExtension>
        </extensions>
      </trkpt>
      <trkpt lat="42.50026233494281768798828125" lon="19.99296312220394611358642578125">
        <ele>1762</ele>
        <time>2026-06-19T08:38:58.000Z</time>
        <extensions>
          <ns3:TrackPointExtension>
            <ns3:atemp>18.0</ns3:atemp>
          </ns3:TrackPointExtension>
        </extensions>
      </trkpt>
      <trkpt lat="42.50026443041861057281494140625" lon="19.99298977665603160858154296875">
        <ele>1762.4000244140625</ele>
        <time>2026-06-19T08:38:59.000Z</time>
        <extensions>
          <ns3:TrackPointExtension>
            <ns3:atemp>18.0</ns3:atemp>
          </ns3:TrackPointExtension>
        </extensions>
      </trkpt>
      <trkpt lat="42.5002718903124332427978515625" lon="19.9930202029645442962646484375">
        <ele>1762.5999755859375</ele>
        <time>2026-06-19T08:39:00.000Z</time>
        <extensions>
          <ns3:TrackPointExtension>
            <ns3:atemp>18.0</ns3:atemp>
          </ns3:TrackPointExtension>
        </extensions>
      </trkpt>
      <trkpt lat="42.50028002075850963592529296875" lon="19.99304593540728092193603515625">
        <ele>1762.800048828125</ele>
        <time>2026-06-19T08:39:01.000Z</time>
        <extensions>
          <ns3:TrackPointExtension>
            <ns3:atemp>18.0</ns3:atemp>
          </ns3:TrackPointExtension>
        </extensions>
      </trkpt>
      <trkpt lat="42.5002889893949031829833984375" lon="19.99307292513549327850341796875">
        <ele>1763.199951171875</ele>
        <time>2026-06-19T08:39:02.000Z</time>
        <extensions>
          <ns3:TrackPointExtension>
            <ns3:atemp>18.0</ns3:atemp>
          </ns3:TrackPointExtension>
        </extensions>
      </trkpt>
      <trkpt lat="42.500296868383884429931640625" lon="19.993099160492420196533203125">
        <ele>1763.4000244140625</ele>
        <time>2026-06-19T08:39:03.000Z</time>
        <extensions>
          <ns3:TrackPointExtension>
            <ns3:atemp>18.0</ns3:atemp>
          </ns3:TrackPointExtension>
        </extensions>
      </trkpt>
      <trkpt lat="42.50030550174415111541748046875" lon="19.99312539584934711456298828125">
        <ele>1763.5999755859375</ele>
        <time>2026-06-19T08:39:04.000Z</time>
        <extensions>
          <ns3:TrackPointExtension>
            <ns3:atemp>18.0</ns3:atemp>
          </ns3:TrackPointExtension>
        </extensions>
      </trkpt>
      <trkpt lat="42.5003114528954029083251953125" lon="19.99315389432013034820556640625">
        <ele>1764</ele>
        <time>2026-06-19T08:39:05.000Z</time>
        <extensions>
          <ns3:TrackPointExtension>
            <ns3:atemp>18.0</ns3:atemp>
          </ns3:TrackPointExtension>
        </extensions>
      </trkpt>
      <trkpt lat="42.50031690113246440887451171875" lon="19.99318264424800872802734375">
        <ele>1764.199951171875</ele>
        <time>2026-06-19T08:39:06.000Z</time>
        <extensions>
          <ns3:TrackPointExtension>
            <ns3:atemp>18.0</ns3:atemp>
          </ns3:TrackPointExtension>
        </extensions>
      </trkpt>
      <trkpt lat="42.50032511539757251739501953125" lon="19.99320703558623790740966796875">
        <ele>1764.4000244140625</ele>
        <time>2026-06-19T08:39:07.000Z</time>
        <extensions>
          <ns3:TrackPointExtension>
            <ns3:atemp>18.0</ns3:atemp>
          </ns3:TrackPointExtension>
        </extensions>
      </trkpt>
      <trkpt lat="42.5003352575004100799560546875" lon="19.99323000200092792510986328125">
        <ele>1764.800048828125</ele>
        <time>2026-06-19T08:39:08.000Z</time>
        <extensions>
          <ns3:TrackPointExtension>
            <ns3:atemp>18.0</ns3:atemp>
          </ns3:TrackPointExtension>
        </extensions>
      </trkpt>
      <trkpt lat="42.50034322030842304229736328125" lon="19.99325816519558429718017578125">
        <ele>1765.199951171875</ele>
        <time>2026-06-19T08:39:09.000Z</time>
        <extensions>
          <ns3:TrackPointExtension>
            <ns3:atemp>18.0</ns3:atemp>
          </ns3:TrackPointExtension>
        </extensions>
      </trkpt>
      <trkpt lat="42.50034749507904052734375" lon="19.9932847358286380767822265625">
        <ele>1765.4000244140625</ele>
        <time>2026-06-19T08:39:10.000Z</time>
        <extensions>
          <ns3:TrackPointExtension>
            <ns3:atemp>18.0</ns3:atemp>
          </ns3:TrackPointExtension>
        </extensions>
      </trkpt>
      <trkpt lat="42.50034992583096027374267578125" lon="19.99330979771912097930908203125">
        <ele>1765.800048828125</ele>
        <time>2026-06-19T08:39:11.000Z</time>
        <extensions>
          <ns3:TrackPointExtension>
            <ns3:atemp>18.0</ns3:atemp>
          </ns3:TrackPointExtension>
        </extensions>
      </trkpt>
      <trkpt lat="42.50035059638321399688720703125" lon="19.993338882923126220703125">
        <ele>1766</ele>
        <time>2026-06-19T08:39:12.000Z</time>
        <extensions>
          <ns3:TrackPointExtension>
            <ns3:atemp>18.0</ns3:atemp>
          </ns3:TrackPointExtension>
        </extensions>
      </trkpt>
      <trkpt lat="42.500355876982212066650390625" lon="19.99337039887905120849609375">
        <ele>1766.199951171875</ele>
        <time>2026-06-19T08:39:13.000Z</time>
        <extensions>
          <ns3:TrackPointExtension>
            <ns3:atemp>18.0</ns3:atemp>
          </ns3:TrackPointExtension>
        </extensions>
      </trkpt>
      <trkpt lat="42.5003568828105926513671875" lon="19.99340057373046875">
        <ele>1766.5999755859375</ele>
        <time>2026-06-19T08:39:14.000Z</time>
        <extensions>
          <ns3:TrackPointExtension>
            <ns3:atemp>18.0</ns3:atemp>
          </ns3:TrackPointExtension>
        </extensions>
      </trkpt>
      <trkpt lat="42.50035797245800495147705078125" lon="19.99342798255383968353271484375">
        <ele>1767</ele>
        <time>2026-06-19T08:39:15.000Z</time>
        <extensions>
          <ns3:TrackPointExtension>
            <ns3:atemp>18.0</ns3:atemp>
          </ns3:TrackPointExtension>
        </extensions>
      </trkpt>
      <trkpt lat="42.50036082230508327484130859375" lon="19.99345430172979831695556640625">
        <ele>1767.199951171875</ele>
        <time>2026-06-19T08:39:16.000Z</time>
        <extensions>
          <ns3:TrackPointExtension>
            <ns3:atemp>18.0</ns3:atemp>
          </ns3:TrackPointExtension>
        </extensions>
      </trkpt>
      <trkpt lat="42.50035713426768779754638671875" lon="19.99348045326769351959228515625">
        <ele>1767.5999755859375</ele>
        <time>2026-06-19T08:39:17.000Z</time>
        <extensions>
          <ns3:TrackPointExtension>
            <ns3:atemp>18.0</ns3:atemp>
          </ns3:TrackPointExtension>
        </extensions>
      </trkpt>
      <trkpt lat="42.5003543682396411895751953125" lon="19.9935080297291278839111328125">
        <ele>1767.800048828125</ele>
        <time>2026-06-19T08:39:18.000Z</time>
        <extensions>
          <ns3:TrackPointExtension>
            <ns3:atemp>18.0</ns3:atemp>
          </ns3:TrackPointExtension>
        </extensions>
      </trkpt>
      <trkpt lat="42.500349842011928558349609375" lon="19.9935341812670230865478515625">
        <ele>1768</ele>
        <time>2026-06-19T08:39:19.000Z</time>
        <extensions>
          <ns3:TrackPointExtension>
            <ns3:atemp>18.0</ns3:atemp>
          </ns3:TrackPointExtension>
        </extensions>
      </trkpt>
      <trkpt lat="42.5003449805080890655517578125" lon="19.9935623444616794586181640625">
        <ele>1768.4000244140625</ele>
        <time>2026-06-19T08:39:20.000Z</time>
        <extensions>
          <ns3:TrackPointExtension>
            <ns3:atemp>18.0</ns3:atemp>
          </ns3:TrackPointExtension>
        </extensions>
      </trkpt>
      <trkpt lat="42.5003392808139324188232421875" lon="19.9935869872570037841796875">
        <ele>1768.5999755859375</ele>
        <time>2026-06-19T08:39:21.000Z</time>
        <extensions>
          <ns3:TrackPointExtension>
            <ns3:atemp>18.0</ns3:atemp>
          </ns3:TrackPointExtension>
        </extensions>
      </trkpt>
      <trkpt lat="42.5003327429294586181640625" lon="19.99361271969974040985107421875">
        <ele>1769</ele>
        <time>2026-06-19T08:39:22.000Z</time>
        <extensions>
          <ns3:TrackPointExtension>
            <ns3:atemp>18.0</ns3:atemp>
          </ns3:TrackPointExtension>
        </extensions>
      </trkpt>
      <trkpt lat="42.50032461248338222503662109375" lon="19.99363468028604984283447265625">
        <ele>1769.199951171875</ele>
        <time>2026-06-19T08:39:23.000Z</time>
        <extensions>
          <ns3:TrackPointExtension>
            <ns3:atemp>18.0</ns3:atemp>
          </ns3:TrackPointExtension>
        </extensions>
      </trkpt>
      <trkpt lat="42.50031597912311553955078125" lon="19.99365328811109066009521484375">
        <ele>1769.4000244140625</ele>
        <time>2026-06-19T08:39:24.000Z</time>
        <extensions>
          <ns3:TrackPointExtension>
            <ns3:atemp>18.0</ns3:atemp>
          </ns3:TrackPointExtension>
        </extensions>
      </trkpt>
      <trkpt lat="42.50030080787837505340576171875" lon="19.9936672858893871307373046875">
        <ele>1769.5999755859375</ele>
        <time>2026-06-19T08:39:25.000Z</time>
        <extensions>
          <ns3:TrackPointExtension>
            <ns3:atemp>18.0</ns3:atemp>
          </ns3:TrackPointExtension>
        </extensions>
      </trkpt>
      <trkpt lat="42.50028379261493682861328125" lon="19.99368312768638134002685546875">
        <ele>1770</ele>
        <time>2026-06-19T08:39:26.000Z</time>
        <extensions>
          <ns3:TrackPointExtension>
            <ns3:atemp>18.0</ns3:atemp>
          </ns3:TrackPointExtension>
        </extensions>
      </trkpt>
      <trkpt lat="42.500268034636974334716796875" lon="19.99370223842561244964599609375">
        <ele>1770.199951171875</ele>
        <time>2026-06-19T08:39:27.000Z</time>
        <extensions>
          <ns3:TrackPointExtension>
            <ns3:atemp>18.0</ns3:atemp>
          </ns3:TrackPointExtension>
        </extensions>
      </trkpt>
      <trkpt lat="42.50025001354515552520751953125" lon="19.99372151680290699005126953125">
        <ele>1770.4000244140625</ele>
        <time>2026-06-19T08:39:28.000Z</time>
        <extensions>
          <ns3:TrackPointExtension>
            <ns3:atemp>18.0</ns3:atemp>
          </ns3:TrackPointExtension>
        </extensions>
      </trkpt>
      <trkpt lat="42.50023459084331989288330078125" lon="19.993740208446979522705078125">
        <ele>1770.800048828125</ele>
        <time>2026-06-19T08:39:29.000Z</time>
        <extensions>
          <ns3:TrackPointExtension>
            <ns3:atemp>18.0</ns3:atemp>
          </ns3:TrackPointExtension>
        </extensions>
      </trkpt>
      <trkpt lat="42.50022235326468944549560546875" lon="19.9937578104436397552490234375">
        <ele>1771</ele>
        <time>2026-06-19T08:39:30.000Z</time>
        <extensions>
          <ns3:TrackPointExtension>
            <ns3:atemp>18.0</ns3:atemp>
          </ns3:TrackPointExtension>
        </extensions>
      </trkpt>
      <trkpt lat="42.5002105347812175750732421875" lon="19.99377851374447345733642578125">
        <ele>1771.4000244140625</ele>
        <time>2026-06-19T08:39:31.000Z</time>
        <extensions>
          <ns3:TrackPointExtension>
            <ns3:atemp>18.0</ns3:atemp>
          </ns3:TrackPointExtension>
        </extensions>
      </trkpt>
      <trkpt lat="42.5001951120793819427490234375" lon="19.9937980435788631439208984375">
        <ele>1771.5999755859375</ele>
        <time>2026-06-19T08:39:32.000Z</time>
        <extensions>
          <ns3:TrackPointExtension>
            <ns3:atemp>18.0</ns3:atemp>
          </ns3:TrackPointExtension>
        </extensions>
      </trkpt>
      <trkpt lat="42.50017876736819744110107421875" lon="19.99381874687969684600830078125">
        <ele>1772</ele>
        <time>2026-06-19T08:39:33.000Z</time>
        <extensions>
          <ns3:TrackPointExtension>
            <ns3:atemp>18.0</ns3:atemp>
          </ns3:TrackPointExtension>
        </extensions>
      </trkpt>
      <trkpt lat="42.50016384758055210113525390625" lon="19.99383651651442050933837890625">
        <ele>1772.4000244140625</ele>
        <time>2026-06-19T08:39:34.000Z</time>
        <extensions>
          <ns3:TrackPointExtension>
            <ns3:atemp>18.0</ns3:atemp>
          </ns3:TrackPointExtension>
        </extensions>
      </trkpt>
      <trkpt lat="42.5001481734216213226318359375" lon="19.99385311268270015716552734375">
        <ele>1772.5999755859375</ele>
        <time>2026-06-19T08:39:35.000Z</time>
        <extensions>
          <ns3:TrackPointExtension>
            <ns3:atemp>18.0</ns3:atemp>
          </ns3:TrackPointExtension>
        </extensions>
      </trkpt>
      <trkpt lat="42.5001337565481662750244140625" lon="19.99387406744062900543212890625">
        <ele>1773</ele>
        <time>2026-06-19T08:39:36.000Z</time>
        <extensions>
          <ns3:TrackPointExtension>
            <ns3:atemp>18.0</ns3:atemp>
          </ns3:TrackPointExtension>
        </extensions>
      </trkpt>
      <trkpt lat="42.50012093223631381988525390625" lon="19.99389586038887500762939453125">
        <ele>1773.199951171875</ele>
        <time>2026-06-19T08:39:37.000Z</time>
        <extensions>
          <ns3:TrackPointExtension>
            <ns3:atemp>18.0</ns3:atemp>
          </ns3:TrackPointExtension>
        </extensions>
      </trkpt>
      <trkpt lat="42.50010852701961994171142578125" lon="19.99391932971775531768798828125">
        <ele>1773.4000244140625</ele>
        <time>2026-06-19T08:39:38.000Z</time>
        <extensions>
          <ns3:TrackPointExtension>
            <ns3:atemp>18.0</ns3:atemp>
          </ns3:TrackPointExtension>
        </extensions>
      </trkpt>
      <trkpt lat="42.50009343959391117095947265625" lon="19.99393927864730358123779296875">
        <ele>1773.800048828125</ele>
        <time>2026-06-19T08:39:39.000Z</time>
        <extensions>
          <ns3:TrackPointExtension>
            <ns3:atemp>18.0</ns3:atemp>
          </ns3:TrackPointExtension>
        </extensions>
      </trkpt>
      <trkpt lat="42.50007684342563152313232421875" lon="19.99395973049104213714599609375">
        <ele>1774</ele>
        <time>2026-06-19T08:39:40.000Z</time>
        <extensions>
          <ns3:TrackPointExtension>
            <ns3:atemp>18.0</ns3:atemp>
          </ns3:TrackPointExtension>
        </extensions>
      </trkpt>
      <trkpt lat="42.50006108544766902923583984375" lon="19.993979595601558685302734375">
        <ele>1774.199951171875</ele>
        <time>2026-06-19T08:39:41.000Z</time>
        <extensions>
          <ns3:TrackPointExtension>
            <ns3:atemp>18.0</ns3:atemp>
          </ns3:TrackPointExtension>
        </extensions>
      </trkpt>
      <trkpt lat="42.50004507601261138916015625" lon="19.9939973652362823486328125">
        <ele>1774.4000244140625</ele>
        <time>2026-06-19T08:39:42.000Z</time>
        <extensions>
          <ns3:TrackPointExtension>
            <ns3:atemp>18.0</ns3:atemp>
          </ns3:TrackPointExtension>
        </extensions>
      </trkpt>
      <trkpt lat="42.50003376044332981109619140625" lon="19.9940149672329425811767578125">
        <ele>1774.5999755859375</ele>
        <time>2026-06-19T08:39:43.000Z</time>
        <extensions>
          <ns3:TrackPointExtension>
            <ns3:atemp>18.0</ns3:atemp>
          </ns3:TrackPointExtension>
        </extensions>
      </trkpt>
      <trkpt lat="42.5000174157321453094482421875" lon="19.99404069967567920684814453125">
        <ele>1774.5999755859375</ele>
        <time>2026-06-19T08:39:44.000Z</time>
        <extensions>
          <ns3:TrackPointExtension>
            <ns3:atemp>18.0</ns3:atemp>
          </ns3:TrackPointExtension>
        </extensions>
      </trkpt>
      <trkpt lat="42.49999989755451679229736328125" lon="19.994070790708065032958984375">
        <ele>1774.800048828125</ele>
        <time>2026-06-19T08:39:45.000Z</time>
        <extensions>
          <ns3:TrackPointExtension>
            <ns3:atemp>18.0</ns3:atemp>
          </ns3:TrackPointExtension>
        </extensions>
      </trkpt>
      <trkpt lat="42.49997575767338275909423828125" lon="19.9940974451601505279541015625">
        <ele>1775</ele>
        <time>2026-06-19T08:39:46.000Z</time>
        <extensions>
          <ns3:TrackPointExtension>
            <ns3:atemp>18.0</ns3:atemp>
          </ns3:TrackPointExtension>
        </extensions>
      </trkpt>
      <trkpt lat="42.49995279125869274139404296875" lon="19.99412409961223602294921875">
        <ele>1775</ele>
        <time>2026-06-19T08:39:47.000Z</time>
        <extensions>
          <ns3:TrackPointExtension>
            <ns3:atemp>18.0</ns3:atemp>
          </ns3:TrackPointExtension>
        </extensions>
      </trkpt>
      <trkpt lat="42.4999342672526836395263671875" lon="19.99415569938719272613525390625">
        <ele>1775.199951171875</ele>
        <time>2026-06-19T08:39:48.000Z</time>
        <extensions>
          <ns3:TrackPointExtension>
            <ns3:atemp>18.0</ns3:atemp>
          </ns3:TrackPointExtension>
        </extensions>
      </trkpt>
      <trkpt lat="42.49991255812346935272216796875" lon="19.99418637715280055999755859375">
        <ele>1775.199951171875</ele>
        <time>2026-06-19T08:39:49.000Z</time>
        <extensions>
          <ns3:TrackPointExtension>
            <ns3:atemp>18.0</ns3:atemp>
          </ns3:TrackPointExtension>
        </extensions>
      </trkpt>
      <trkpt lat="42.49989344738423824310302734375" lon="19.99421931803226470947265625">
        <ele>1775.199951171875</ele>
        <time>2026-06-19T08:39:50.000Z</time>
        <extensions>
          <ns3:TrackPointExtension>
            <ns3:atemp>18.0</ns3:atemp>
          </ns3:TrackPointExtension>
        </extensions>
      </trkpt>
      <trkpt lat="42.49987198971211910247802734375" lon="19.99425158835947513580322265625">
        <ele>1775.4000244140625</ele>
        <time>2026-06-19T08:39:51.000Z</time>
        <extensions>
          <ns3:TrackPointExtension>
            <ns3:atemp>18.0</ns3:atemp>
          </ns3:TrackPointExtension>
        </extensions>
      </trkpt>
      <trkpt lat="42.4998526275157928466796875" lon="19.99428193084895610809326171875">
        <ele>1775.4000244140625</ele>
        <time>2026-06-19T08:39:52.000Z</time>
        <extensions>
          <ns3:TrackPointExtension>
            <ns3:atemp>18.0</ns3:atemp>
          </ns3:TrackPointExtension>
        </extensions>
      </trkpt>
      <trkpt lat="42.499833516776561737060546875" lon="19.99430875293910503387451171875">
        <ele>1775.4000244140625</ele>
        <time>2026-06-19T08:39:53.000Z</time>
        <extensions>
          <ns3:TrackPointExtension>
            <ns3:atemp>18.0</ns3:atemp>
          </ns3:TrackPointExtension>
        </extensions>
      </trkpt>
      <trkpt lat="42.49980845488607883453369140625" lon="19.99434001743793487548828125">
        <ele>1775.5999755859375</ele>
        <time>2026-06-19T08:39:54.000Z</time>
        <extensions>
          <ns3:TrackPointExtension>
            <ns3:atemp>18.0</ns3:atemp>
          </ns3:TrackPointExtension>
        </extensions>
      </trkpt>
      <trkpt lat="42.499785237014293670654296875" lon="19.9943703599274158477783203125">
        <ele>1775.800048828125</ele>
        <time>2026-06-19T08:39:55.000Z</time>
        <extensions>
          <ns3:TrackPointExtension>
            <ns3:atemp>18.0</ns3:atemp>
          </ns3:TrackPointExtension>
        </extensions>
      </trkpt>
      <trkpt lat="42.49976134859025478363037109375" lon="19.99440061859786510467529296875">
        <ele>1775.800048828125</ele>
        <time>2026-06-19T08:39:56.000Z</time>
        <extensions>
          <ns3:TrackPointExtension>
            <ns3:atemp>18.0</ns3:atemp>
          </ns3:TrackPointExtension>
        </extensions>
      </trkpt>
      <trkpt lat="42.49974207021296024322509765625" lon="19.9944317154586315155029296875">
        <ele>1776</ele>
        <time>2026-06-19T08:39:57.000Z</time>
        <extensions>
          <ns3:TrackPointExtension>
            <ns3:atemp>18.0</ns3:atemp>
          </ns3:TrackPointExtension>
        </extensions>
      </trkpt>
      <trkpt lat="42.49972363002598285675048828125" lon="19.99445610679686069488525390625">
        <ele>1776.199951171875</ele>
        <time>2026-06-19T08:39:58.000Z</time>
        <extensions>
          <ns3:TrackPointExtension>
            <ns3:atemp>18.0</ns3:atemp>
          </ns3:TrackPointExtension>
        </extensions>
      </trkpt>
      <trkpt lat="42.4997042678296566009521484375" lon="19.99448485672473907470703125">
        <ele>1776.199951171875</ele>
        <time>2026-06-19T08:39:59.000Z</time>
        <extensions>
          <ns3:TrackPointExtension>
            <ns3:atemp>18.0</ns3:atemp>
          </ns3:TrackPointExtension>
        </extensions>
      </trkpt>
      <trkpt lat="42.49968431890010833740234375" lon="19.9945125170052051544189453125">
        <ele>1776.4000244140625</ele>
        <time>2026-06-19T08:40:00.000Z</time>
        <extensions>
          <ns3:TrackPointExtension>
            <ns3:atemp>18.0</ns3:atemp>
          </ns3:TrackPointExtension>
        </extensions>
      </trkpt>
      <trkpt lat="42.4996648728847503662109375" lon="19.9945416860282421112060546875">
        <ele>1776.4000244140625</ele>
        <time>2026-06-19T08:40:01.000Z</time>
        <extensions>
          <ns3:TrackPointExtension>
            <ns3:atemp>18.0</ns3:atemp>
          </ns3:TrackPointExtension>
        </extensions>
      </trkpt>
      <trkpt lat="42.4996455945074558258056640625" lon="19.9945659935474395751953125">
        <ele>1776.5999755859375</ele>
        <time>2026-06-19T08:40:02.000Z</time>
        <extensions>
          <ns3:TrackPointExtension>
            <ns3:atemp>18.0</ns3:atemp>
          </ns3:TrackPointExtension>
        </extensions>
      </trkpt>
      <trkpt lat="42.49963025562465190887451171875" lon="19.99459239654242992401123046875">
        <ele>1776.800048828125</ele>
        <time>2026-06-19T08:40:03.000Z</time>
        <extensions>
          <ns3:TrackPointExtension>
            <ns3:atemp>18.0</ns3:atemp>
          </ns3:TrackPointExtension>
        </extensions>
      </trkpt>
      <trkpt lat="42.49961114488542079925537109375" lon="19.9946147762238979339599609375">
        <ele>1777</ele>
        <time>2026-06-19T08:40:04.000Z</time>
        <extensions>
          <ns3:TrackPointExtension>
            <ns3:atemp>18.0</ns3:atemp>
          </ns3:TrackPointExtension>
        </extensions>
      </trkpt>
      <trkpt lat="42.4995946325361728668212890625" lon="19.9946389161050319671630859375">
        <ele>1777.199951171875</ele>
        <time>2026-06-19T08:40:05.000Z</time>
        <extensions>
          <ns3:TrackPointExtension>
            <ns3:atemp>18.0</ns3:atemp>
          </ns3:TrackPointExtension>
        </extensions>
      </trkpt>
      <trkpt lat="42.4995785392820835113525390625" lon="19.99466322362422943115234375">
        <ele>1777.199951171875</ele>
        <time>2026-06-19T08:40:06.000Z</time>
        <extensions>
          <ns3:TrackPointExtension>
            <ns3:atemp>18.0</ns3:atemp>
          </ns3:TrackPointExtension>
        </extensions>
      </trkpt>
      <trkpt lat="42.49956504441797733306884765625" lon="19.994686357676982879638671875">
        <ele>1777.4000244140625</ele>
        <time>2026-06-19T08:40:07.000Z</time>
        <extensions>
          <ns3:TrackPointExtension>
            <ns3:atemp>18.0</ns3:atemp>
          </ns3:TrackPointExtension>
        </extensions>
      </trkpt>
      <trkpt lat="42.499550543725490570068359375" lon="19.99471024610102176666259765625">
        <ele>1777.800048828125</ele>
        <time>2026-06-19T08:40:08.000Z</time>
        <extensions>
          <ns3:TrackPointExtension>
            <ns3:atemp>18.0</ns3:atemp>
          </ns3:TrackPointExtension>
        </extensions>
      </trkpt>
      <trkpt lat="42.49953554011881351470947265625" lon="19.994729273021221160888671875">
        <ele>1778.199951171875</ele>
        <time>2026-06-19T08:40:09.000Z</time>
        <extensions>
          <ns3:TrackPointExtension>
            <ns3:atemp>18.0</ns3:atemp>
          </ns3:TrackPointExtension>
        </extensions>
      </trkpt>
      <trkpt lat="42.49952196143567562103271484375" lon="19.9947492219507694244384765625">
        <ele>1778.5999755859375</ele>
        <time>2026-06-19T08:40:10.000Z</time>
        <extensions>
          <ns3:TrackPointExtension>
            <ns3:atemp>18.0</ns3:atemp>
          </ns3:TrackPointExtension>
        </extensions>
      </trkpt>
      <trkpt lat="42.4995093047618865966796875" lon="19.99477126635611057281494140625">
        <ele>1779</ele>
        <time>2026-06-19T08:40:11.000Z</time>
        <extensions>
          <ns3:TrackPointExtension>
            <ns3:atemp>18.0</ns3:atemp>
          </ns3:TrackPointExtension>
        </extensions>
      </trkpt>
      <trkpt lat="42.49949865974485874176025390625" lon="19.99479238875210285186767578125">
        <ele>1779.199951171875</ele>
        <time>2026-06-19T08:40:12.000Z</time>
        <extensions>
          <ns3:TrackPointExtension>
            <ns3:atemp>18.0</ns3:atemp>
          </ns3:TrackPointExtension>
        </extensions>
      </trkpt>
      <trkpt lat="42.49948709271848201751708984375" lon="19.9948162771761417388916015625">
        <ele>1779.4000244140625</ele>
        <time>2026-06-19T08:40:13.000Z</time>
        <extensions>
          <ns3:TrackPointExtension>
            <ns3:atemp>18.0</ns3:atemp>
          </ns3:TrackPointExtension>
        </extensions>
      </trkpt>
      <trkpt lat="42.49947653152048587799072265625" lon="19.994839243590831756591796875">
        <ele>1779.800048828125</ele>
        <time>2026-06-19T08:40:14.000Z</time>
        <extensions>
          <ns3:TrackPointExtension>
            <ns3:atemp>18.0</ns3:atemp>
          </ns3:TrackPointExtension>
        </extensions>
      </trkpt>
      <trkpt lat="42.49946563504636287689208984375" lon="19.99485894106328487396240234375">
        <ele>1780</ele>
        <time>2026-06-19T08:40:15.000Z</time>
        <extensions>
          <ns3:TrackPointExtension>
            <ns3:atemp>18.0</ns3:atemp>
          </ns3:TrackPointExtension>
        </extensions>
      </trkpt>
      <trkpt lat="42.4994551576673984527587890625" lon="19.99487821944057941436767578125">
        <ele>1780.199951171875</ele>
        <time>2026-06-19T08:40:16.000Z</time>
        <extensions>
          <ns3:TrackPointExtension>
            <ns3:atemp>18.0</ns3:atemp>
          </ns3:TrackPointExtension>
        </extensions>
      </trkpt>
      <trkpt lat="42.499444596469402313232421875" lon="19.994895569980144500732421875">
        <ele>1780.5999755859375</ele>
        <time>2026-06-19T08:40:17.000Z</time>
        <extensions>
          <ns3:TrackPointExtension>
            <ns3:atemp>18.0</ns3:atemp>
          </ns3:TrackPointExtension>
        </extensions>
      </trkpt>
      <trkpt lat="42.499431855976581573486328125" lon="19.99491266906261444091796875">
        <ele>1780.800048828125</ele>
        <time>2026-06-19T08:40:18.000Z</time>
        <extensions>
          <ns3:TrackPointExtension>
            <ns3:atemp>18.0</ns3:atemp>
          </ns3:TrackPointExtension>
        </extensions>
      </trkpt>
      <trkpt lat="42.49942204914987087249755859375" lon="19.9949332885444164276123046875">
        <ele>1781.199951171875</ele>
        <time>2026-06-19T08:40:19.000Z</time>
        <extensions>
          <ns3:TrackPointExtension>
            <ns3:atemp>18.0</ns3:atemp>
          </ns3:TrackPointExtension>
        </extensions>
      </trkpt>
      <trkpt lat="42.49940645880997180938720703125" lon="19.99495566822588443756103515625">
        <ele>1781.4000244140625</ele>
        <time>2026-06-19T08:40:20.000Z</time>
        <extensions>
          <ns3:TrackPointExtension>
            <ns3:atemp>18.0</ns3:atemp>
          </ns3:TrackPointExtension>
        </extensions>
      </trkpt>
      <trkpt lat="42.49939271248877048492431640625" lon="19.9949748627841472625732421875">
        <ele>1781.5999755859375</ele>
        <time>2026-06-19T08:40:21.000Z</time>
        <extensions>
          <ns3:TrackPointExtension>
            <ns3:atemp>18.0</ns3:atemp>
          </ns3:TrackPointExtension>
        </extensions>
      </trkpt>
      <trkpt lat="42.499374859035015106201171875" lon="19.994988106191158294677734375">
        <ele>1782</ele>
        <time>2026-06-19T08:40:22.000Z</time>
        <extensions>
          <ns3:TrackPointExtension>
            <ns3:atemp>18.0</ns3:atemp>
          </ns3:TrackPointExtension>
        </extensions>
      </trkpt>
      <trkpt lat="42.4993552453815937042236328125" lon="19.9949953146278858184814453125">
        <ele>1782.199951171875</ele>
        <time>2026-06-19T08:40:23.000Z</time>
        <extensions>
          <ns3:TrackPointExtension>
            <ns3:atemp>18.0</ns3:atemp>
          </ns3:TrackPointExtension>
        </extensions>
      </trkpt>
      <trkpt lat="42.49933563172817230224609375" lon="19.9949969910085201263427734375">
        <ele>1782.5999755859375</ele>
        <time>2026-06-19T08:40:24.000Z</time>
        <extensions>
          <ns3:TrackPointExtension>
            <ns3:atemp>18.0</ns3:atemp>
          </ns3:TrackPointExtension>
        </extensions>
      </trkpt>
      <trkpt lat="42.4993207119405269622802734375" lon="19.99499523080885410308837890625">
        <ele>1783</ele>
        <time>2026-06-19T08:40:25.000Z</time>
        <extensions>
          <ns3:TrackPointExtension>
            <ns3:atemp>18.0</ns3:atemp>
          </ns3:TrackPointExtension>
        </extensions>
      </trkpt>
      <trkpt lat="42.499302439391613006591796875" lon="19.994995482265949249267578125">
        <ele>1783.199951171875</ele>
        <time>2026-06-19T08:40:26.000Z</time>
        <extensions>
          <ns3:TrackPointExtension>
            <ns3:atemp>18.0</ns3:atemp>
          </ns3:TrackPointExtension>
        </extensions>
      </trkpt>
      <trkpt lat="42.4992895312607288360595703125" lon="19.9949849210679531097412109375">
        <ele>1783.5999755859375</ele>
        <time>2026-06-19T08:40:27.000Z</time>
        <extensions>
          <ns3:TrackPointExtension>
            <ns3:atemp>18.0</ns3:atemp>
          </ns3:TrackPointExtension>
        </extensions>
      </trkpt>
      <trkpt lat="42.49927955679595470428466796875" lon="19.99496689997613430023193359375">
        <ele>1783.800048828125</ele>
        <time>2026-06-19T08:40:28.000Z</time>
        <extensions>
          <ns3:TrackPointExtension>
            <ns3:atemp>18.0</ns3:atemp>
          </ns3:TrackPointExtension>
        </extensions>
      </trkpt>
      <trkpt lat="42.49926832504570484161376953125" lon="19.99494326300919055938720703125">
        <ele>1784.199951171875</ele>
        <time>2026-06-19T08:40:29.000Z</time>
        <extensions>
          <ns3:TrackPointExtension>
            <ns3:atemp>18.0</ns3:atemp>
          </ns3:TrackPointExtension>
        </extensions>
      </trkpt>
      <trkpt lat="42.49926229007542133331298828125" lon="19.99492046423256397247314453125">
        <ele>1784.4000244140625</ele>
        <time>2026-06-19T08:40:30.000Z</time>
        <extensions>
          <ns3:TrackPointExtension>
            <ns3:atemp>18.0</ns3:atemp>
          </ns3:TrackPointExtension>
        </extensions>
      </trkpt>
      <trkpt lat="42.49925642274320125579833984375" lon="19.99489615671336650848388671875">
        <ele>1784.5999755859375</ele>
        <time>2026-06-19T08:40:31.000Z</time>
        <extensions>
          <ns3:TrackPointExtension>
            <ns3:atemp>18.0</ns3:atemp>
          </ns3:TrackPointExtension>
        </extensions>
      </trkpt>
      <trkpt lat="42.4992477893829345703125" lon="19.994867406785488128662109375">
        <ele>1784.800048828125</ele>
        <time>2026-06-19T08:40:32.000Z</time>
        <extensions>
          <ns3:TrackPointExtension>
            <ns3:atemp>18.0</ns3:atemp>
          </ns3:TrackPointExtension>
        </extensions>
      </trkpt>
      <trkpt lat="42.4992412514984607696533203125" lon="19.9948395788669586181640625">
        <ele>1785</ele>
        <time>2026-06-19T08:40:33.000Z</time>
        <extensions>
          <ns3:TrackPointExtension>
            <ns3:atemp>18.0</ns3:atemp>
          </ns3:TrackPointExtension>
        </extensions>
      </trkpt>
      <trkpt lat="42.4992328695952892303466796875" lon="19.9948122538626194000244140625">
        <ele>1785.199951171875</ele>
        <time>2026-06-19T08:40:34.000Z</time>
        <extensions>
          <ns3:TrackPointExtension>
            <ns3:atemp>18.0</ns3:atemp>
          </ns3:TrackPointExtension>
        </extensions>
      </trkpt>
      <trkpt lat="42.49922993592917919158935546875" lon="19.9947832524776458740234375">
        <ele>1785.4000244140625</ele>
        <time>2026-06-19T08:40:35.000Z</time>
        <extensions>
          <ns3:TrackPointExtension>
            <ns3:atemp>18.0</ns3:atemp>
          </ns3:TrackPointExtension>
        </extensions>
      </trkpt>
      <trkpt lat="42.499226666986942291259765625" lon="19.99475651420652866363525390625">
        <ele>1785.5999755859375</ele>
        <time>2026-06-19T08:40:36.000Z</time>
        <extensions>
          <ns3:TrackPointExtension>
            <ns3:atemp>18.0</ns3:atemp>
          </ns3:TrackPointExtension>
        </extensions>
      </trkpt>
      <trkpt lat="42.499221302568912506103515625" lon="19.99473027884960174560546875">
        <ele>1785.800048828125</ele>
        <time>2026-06-19T08:40:37.000Z</time>
        <extensions>
          <ns3:TrackPointExtension>
            <ns3:atemp>18.0</ns3:atemp>
          </ns3:TrackPointExtension>
        </extensions>
      </trkpt>
      <trkpt lat="42.49921451322734355926513671875" lon="19.99470119364559650421142578125">
        <ele>1786</ele>
        <time>2026-06-19T08:40:38.000Z</time>
        <extensions>
          <ns3:TrackPointExtension>
            <ns3:atemp>18.0</ns3:atemp>
          </ns3:TrackPointExtension>
        </extensions>
      </trkpt>
      <trkpt lat="42.4992083944380283355712890625" lon="19.99467420391738414764404296875">
        <ele>1786.199951171875</ele>
        <time>2026-06-19T08:40:39.000Z</time>
        <extensions>
          <ns3:TrackPointExtension>
            <ns3:atemp>18.0</ns3:atemp>
          </ns3:TrackPointExtension>
        </extensions>
      </trkpt>
      <trkpt lat="42.49920479021966457366943359375" lon="19.99464687891304492950439453125">
        <ele>1786.4000244140625</ele>
        <time>2026-06-19T08:40:40.000Z</time>
        <extensions>
          <ns3:TrackPointExtension>
            <ns3:atemp>18.0</ns3:atemp>
          </ns3:TrackPointExtension>
        </extensions>
      </trkpt>
      <trkpt lat="42.49920177273452281951904296875" lon="19.9946177937090396881103515625">
        <ele>1786.800048828125</ele>
        <time>2026-06-19T08:40:41.000Z</time>
        <extensions>
          <ns3:TrackPointExtension>
            <ns3:atemp>18.0</ns3:atemp>
          </ns3:TrackPointExtension>
        </extensions>
      </trkpt>
      <trkpt lat="42.49919950962066650390625" lon="19.99459105543792247772216796875">
        <ele>1787</ele>
        <time>2026-06-19T08:40:42.000Z</time>
        <extensions>
          <ns3:TrackPointExtension>
            <ns3:atemp>18.0</ns3:atemp>
          </ns3:TrackPointExtension>
        </extensions>
      </trkpt>
      <trkpt lat="42.49919674359261989593505859375" lon="19.99456758610904216766357421875">
        <ele>1787</ele>
        <time>2026-06-19T08:40:43.000Z</time>
        <extensions>
          <ns3:TrackPointExtension>
            <ns3:atemp>18.0</ns3:atemp>
          </ns3:TrackPointExtension>
        </extensions>
      </trkpt>
      <trkpt lat="42.4991928040981292724609375" lon="19.994538836181163787841796875">
        <ele>1787.199951171875</ele>
        <time>2026-06-19T08:40:44.000Z</time>
        <extensions>
          <ns3:TrackPointExtension>
            <ns3:atemp>18.0</ns3:atemp>
          </ns3:TrackPointExtension>
        </extensions>
      </trkpt>
      <trkpt lat="42.49918987043201923370361328125" lon="19.99451092444360256195068359375">
        <ele>1787.199951171875</ele>
        <time>2026-06-19T08:40:45.000Z</time>
        <extensions>
          <ns3:TrackPointExtension>
            <ns3:atemp>18.0</ns3:atemp>
          </ns3:TrackPointExtension>
        </extensions>
      </trkpt>
      <trkpt lat="42.4991872720420360565185546875" lon="19.994483180344104766845703125">
        <ele>1787.4000244140625</ele>
        <time>2026-06-19T08:40:46.000Z</time>
        <extensions>
          <ns3:TrackPointExtension>
            <ns3:atemp>18.0</ns3:atemp>
          </ns3:TrackPointExtension>
        </extensions>
      </trkpt>
      <trkpt lat="42.499183751642704010009765625" lon="19.994457699358463287353515625">
        <ele>1787.5999755859375</ele>
        <time>2026-06-19T08:40:47.000Z</time>
        <extensions>
          <ns3:TrackPointExtension>
            <ns3:atemp>18.0</ns3:atemp>
          </ns3:TrackPointExtension>
        </extensions>
      </trkpt>
      <trkpt lat="42.4991793930530548095703125" lon="19.9944347329437732696533203125">
        <ele>1787.800048828125</ele>
        <time>2026-06-19T08:40:48.000Z</time>
        <extensions>
          <ns3:TrackPointExtension>
            <ns3:atemp>18.0</ns3:atemp>
          </ns3:TrackPointExtension>
        </extensions>
      </trkpt>
      <trkpt lat="42.49917738139629364013671875" lon="19.9944069050252437591552734375">
        <ele>1788</ele>
        <time>2026-06-19T08:40:49.000Z</time>
        <extensions>
          <ns3:TrackPointExtension>
            <ns3:atemp>18.0</ns3:atemp>
          </ns3:TrackPointExtension>
        </extensions>
      </trkpt>
      <trkpt lat="42.499177046120166778564453125" lon="19.994385279715061187744140625">
        <ele>1788.199951171875</ele>
        <time>2026-06-19T08:40:50.000Z</time>
        <extensions>
          <ns3:TrackPointExtension>
            <ns3:atemp>18.0</ns3:atemp>
          </ns3:TrackPointExtension>
        </extensions>
      </trkpt>
      <trkpt lat="42.49917696230113506317138671875" lon="19.994363822042942047119140625">
        <ele>1788.4000244140625</ele>
        <time>2026-06-19T08:40:51.000Z</time>
        <extensions>
          <ns3:TrackPointExtension>
            <ns3:atemp>18.0</ns3:atemp>
          </ns3:TrackPointExtension>
        </extensions>
      </trkpt>
      <trkpt lat="42.499175369739532470703125" lon="19.99433733522891998291015625">
        <ele>1788.5999755859375</ele>
        <time>2026-06-19T08:40:52.000Z</time>
        <extensions>
          <ns3:TrackPointExtension>
            <ns3:atemp>18.0</ns3:atemp>
          </ns3:TrackPointExtension>
        </extensions>
      </trkpt>
      <trkpt lat="42.49917478300631046295166015625" lon="19.9943157099187374114990234375">
        <ele>1788.800048828125</ele>
        <time>2026-06-19T08:40:53.000Z</time>
        <extensions>
          <ns3:TrackPointExtension>
            <ns3:atemp>18.0</ns3:atemp>
          </ns3:TrackPointExtension>
        </extensions>
      </trkpt>
      <trkpt lat="42.499173022806644439697265625" lon="19.99429366551339626312255859375">
        <ele>1789.199951171875</ele>
        <time>2026-06-19T08:40:54.000Z</time>
        <extensions>
          <ns3:TrackPointExtension>
            <ns3:atemp>18.0</ns3:atemp>
          </ns3:TrackPointExtension>
        </extensions>
      </trkpt>
      <trkpt lat="42.499173693358898162841796875" lon="19.99427120201289653778076171875">
        <ele>1789.4000244140625</ele>
        <time>2026-06-19T08:40:55.000Z</time>
        <extensions>
          <ns3:TrackPointExtension>
            <ns3:atemp>18.0</ns3:atemp>
          </ns3:TrackPointExtension>
        </extensions>
      </trkpt>
      <trkpt lat="42.49917662702500820159912109375" lon="19.9942463077604770660400390625">
        <ele>1789.5999755859375</ele>
        <time>2026-06-19T08:40:56.000Z</time>
        <extensions>
          <ns3:TrackPointExtension>
            <ns3:atemp>18.0</ns3:atemp>
          </ns3:TrackPointExtension>
        </extensions>
      </trkpt>
      <trkpt lat="42.49918274581432342529296875" lon="19.99422828666865825653076171875">
        <ele>1790</ele>
        <time>2026-06-19T08:40:57.000Z</time>
        <extensions>
          <ns3:TrackPointExtension>
            <ns3:atemp>18.0</ns3:atemp>
          </ns3:TrackPointExtension>
        </extensions>
      </trkpt>
      <trkpt lat="42.4991912953555583953857421875" lon="19.99421185813844203948974609375">
        <ele>1790.4000244140625</ele>
        <time>2026-06-19T08:40:58.000Z</time>
        <extensions>
          <ns3:TrackPointExtension>
            <ns3:atemp>18.0</ns3:atemp>
          </ns3:TrackPointExtension>
        </extensions>
      </trkpt>
      <trkpt lat="42.4991949833929538726806640625" lon="19.994193501770496368408203125">
        <ele>1790.800048828125</ele>
        <time>2026-06-19T08:40:59.000Z</time>
        <extensions>
          <ns3:TrackPointExtension>
            <ns3:atemp>18.0</ns3:atemp>
          </ns3:TrackPointExtension>
        </extensions>
      </trkpt>
      <trkpt lat="42.49919674359261989593505859375" lon="19.9941742233932018280029296875">
        <ele>1791.199951171875</ele>
        <time>2026-06-19T08:41:00.000Z</time>
        <extensions>
          <ns3:TrackPointExtension>
            <ns3:atemp>18.0</ns3:atemp>
          </ns3:TrackPointExtension>
        </extensions>
      </trkpt>
      <trkpt lat="42.499196492135524749755859375" lon="19.99414999969303607940673828125">
        <ele>1791.5999755859375</ele>
        <time>2026-06-19T08:41:01.000Z</time>
        <extensions>
          <ns3:TrackPointExtension>
            <ns3:atemp>18.0</ns3:atemp>
          </ns3:TrackPointExtension>
        </extensions>
      </trkpt>
      <trkpt lat="42.4991946481168270111083984375" lon="19.9941259436309337615966796875">
        <ele>1791.800048828125</ele>
        <time>2026-06-19T08:41:02.000Z</time>
        <extensions>
          <ns3:TrackPointExtension>
            <ns3:atemp>18.0</ns3:atemp>
          </ns3:TrackPointExtension>
        </extensions>
      </trkpt>
      <trkpt lat="42.4991959892213344573974609375" lon="19.99410440213978290557861328125">
        <ele>1792</ele>
        <time>2026-06-19T08:41:03.000Z</time>
        <extensions>
          <ns3:TrackPointExtension>
            <ns3:atemp>18.0</ns3:atemp>
          </ns3:TrackPointExtension>
        </extensions>
      </trkpt>
      <trkpt lat="42.4991969950497150421142578125" lon="19.9940863810479640960693359375">
        <ele>1792</ele>
        <time>2026-06-19T08:41:04.000Z</time>
        <extensions>
          <ns3:TrackPointExtension>
            <ns3:atemp>18.0</ns3:atemp>
          </ns3:TrackPointExtension>
        </extensions>
      </trkpt>
      <trkpt lat="42.49920059926807880401611328125" lon="19.99406240880489349365234375">
        <ele>1792</ele>
        <time>2026-06-19T08:41:05.000Z</time>
        <extensions>
          <ns3:TrackPointExtension>
            <ns3:atemp>18.0</ns3:atemp>
          </ns3:TrackPointExtension>
        </extensions>
      </trkpt>
      <trkpt lat="42.49920261092483997344970703125" lon="19.994039945304393768310546875">
        <ele>1792.199951171875</ele>
        <time>2026-06-19T08:41:06.000Z</time>
        <extensions>
          <ns3:TrackPointExtension>
            <ns3:atemp>18.0</ns3:atemp>
          </ns3:TrackPointExtension>
        </extensions>
      </trkpt>
      <trkpt lat="42.49920562840998172760009765625" lon="19.994016475975513458251953125">
        <ele>1792.4000244140625</ele>
        <time>2026-06-19T08:41:07.000Z</time>
        <extensions>
          <ns3:TrackPointExtension>
            <ns3:atemp>18.0</ns3:atemp>
          </ns3:TrackPointExtension>
        </extensions>
      </trkpt>
      <trkpt lat="42.499205879867076873779296875" lon="19.993988312780857086181640625">
        <ele>1792.4000244140625</ele>
        <time>2026-06-19T08:41:08.000Z</time>
        <extensions>
          <ns3:TrackPointExtension>
            <ns3:atemp>18.0</ns3:atemp>
          </ns3:TrackPointExtension>
        </extensions>
      </trkpt>
      <trkpt lat="42.49920512549579143524169921875" lon="19.99395956285297870635986328125">
        <ele>1792.5999755859375</ele>
        <time>2026-06-19T08:41:09.000Z</time>
        <extensions>
          <ns3:TrackPointExtension>
            <ns3:atemp>18.0</ns3:atemp>
          </ns3:TrackPointExtension>
        </extensions>
      </trkpt>
      <trkpt lat="42.4992040358483791351318359375" lon="19.993936680257320404052734375">
        <ele>1792.800048828125</ele>
        <time>2026-06-19T08:41:10.000Z</time>
        <extensions>
          <ns3:TrackPointExtension>
            <ns3:atemp>18.0</ns3:atemp>
          </ns3:TrackPointExtension>
        </extensions>
      </trkpt>
      <trkpt lat="42.49919959343969821929931640625" lon="19.99391480349004268646240234375">
        <ele>1793</ele>
        <time>2026-06-19T08:41:11.000Z</time>
        <extensions>
          <ns3:TrackPointExtension>
            <ns3:atemp>18.0</ns3:atemp>
          </ns3:TrackPointExtension>
        </extensions>
      </trkpt>
      <trkpt lat="42.49919473193585872650146484375" lon="19.9938899092376232147216796875">
        <ele>1793.199951171875</ele>
        <time>2026-06-19T08:41:12.000Z</time>
        <extensions>
          <ns3:TrackPointExtension>
            <ns3:atemp>18.0</ns3:atemp>
          </ns3:TrackPointExtension>
        </extensions>
      </trkpt>
      <trkpt lat="42.49918903224170207977294921875" lon="19.99386283569037914276123046875">
        <ele>1793.4000244140625</ele>
        <time>2026-06-19T08:41:13.000Z</time>
        <extensions>
          <ns3:TrackPointExtension>
            <ns3:atemp>18.0</ns3:atemp>
          </ns3:TrackPointExtension>
        </extensions>
      </trkpt>
      <trkpt lat="42.49918467365205287933349609375" lon="19.99383433721959590911865234375">
        <ele>1793.800048828125</ele>
        <time>2026-06-19T08:41:14.000Z</time>
        <extensions>
          <ns3:TrackPointExtension>
            <ns3:atemp>18.0</ns3:atemp>
          </ns3:TrackPointExtension>
        </extensions>
      </trkpt>
      <trkpt lat="42.49917997978627681732177734375" lon="19.9938074313104152679443359375">
        <ele>1794</ele>
        <time>2026-06-19T08:41:15.000Z</time>
        <extensions>
          <ns3:TrackPointExtension>
            <ns3:atemp>18.0</ns3:atemp>
          </ns3:TrackPointExtension>
        </extensions>
      </trkpt>
      <trkpt lat="42.49917461536824703216552734375" lon="19.9937802739441394805908203125">
        <ele>1794.199951171875</ele>
        <time>2026-06-19T08:41:16.000Z</time>
        <extensions>
          <ns3:TrackPointExtension>
            <ns3:atemp>18.0</ns3:atemp>
          </ns3:TrackPointExtension>
        </extensions>
      </trkpt>
      <trkpt lat="42.49917226843535900115966796875" lon="19.99375370331108570098876953125">
        <ele>1794.4000244140625</ele>
        <time>2026-06-19T08:41:17.000Z</time>
        <extensions>
          <ns3:TrackPointExtension>
            <ns3:atemp>18.0</ns3:atemp>
          </ns3:TrackPointExtension>
        </extensions>
      </trkpt>
      <trkpt lat="42.4991661496460437774658203125" lon="19.99373040162026882171630859375">
        <ele>1794.800048828125</ele>
        <time>2026-06-19T08:41:18.000Z</time>
        <extensions>
          <ns3:TrackPointExtension>
            <ns3:atemp>18.0</ns3:atemp>
          </ns3:TrackPointExtension>
        </extensions>
      </trkpt>
      <trkpt lat="42.4991570971906185150146484375" lon="19.99370609410107135772705078125">
        <ele>1795</ele>
        <time>2026-06-19T08:41:19.000Z</time>
        <extensions>
          <ns3:TrackPointExtension>
            <ns3:atemp>18.0</ns3:atemp>
          </ns3:TrackPointExtension>
        </extensions>
      </trkpt>
      <trkpt lat="42.4991520680487155914306640625" lon="19.99368145130574703216552734375">
        <ele>1795.4000244140625</ele>
        <time>2026-06-19T08:41:20.000Z</time>
        <extensions>
          <ns3:TrackPointExtension>
            <ns3:atemp>18.0</ns3:atemp>
          </ns3:TrackPointExtension>
        </extensions>
      </trkpt>
      <trkpt lat="42.49914578162133693695068359375" lon="19.99365630559623241424560546875">
        <ele>1795.5999755859375</ele>
        <time>2026-06-19T08:41:21.000Z</time>
        <extensions>
          <ns3:TrackPointExtension>
            <ns3:atemp>18.0</ns3:atemp>
          </ns3:TrackPointExtension>
        </extensions>
      </trkpt>
      <trkpt lat="42.49913807027041912078857421875" lon="19.99363132752478122711181640625">
        <ele>1795.800048828125</ele>
        <time>2026-06-19T08:41:22.000Z</time>
        <extensions>
          <ns3:TrackPointExtension>
            <ns3:atemp>18.0</ns3:atemp>
          </ns3:TrackPointExtension>
        </extensions>
      </trkpt>
      <trkpt lat="42.49913178384304046630859375" lon="19.99360919930040836334228515625">
        <ele>1796</ele>
        <time>2026-06-19T08:41:23.000Z</time>
        <extensions>
          <ns3:TrackPointExtension>
            <ns3:atemp>18.0</ns3:atemp>
          </ns3:TrackPointExtension>
        </extensions>
      </trkpt>
      <trkpt lat="42.499126084148883819580078125" lon="19.9935829639434814453125">
        <ele>1796.199951171875</ele>
        <time>2026-06-19T08:41:24.000Z</time>
        <extensions>
          <ns3:TrackPointExtension>
            <ns3:atemp>18.0</ns3:atemp>
          </ns3:TrackPointExtension>
        </extensions>
      </trkpt>
      <trkpt lat="42.499118708074092864990234375" lon="19.99355656094849109649658203125">
        <ele>1796.5999755859375</ele>
        <time>2026-06-19T08:41:25.000Z</time>
        <extensions>
          <ns3:TrackPointExtension>
            <ns3:atemp>18.0</ns3:atemp>
          </ns3:TrackPointExtension>
        </extensions>
      </trkpt>
      <trkpt lat="42.49910772778093814849853515625" lon="19.99352772720158100128173828125">
        <ele>1797</ele>
        <time>2026-06-19T08:41:26.000Z</time>
        <extensions>
          <ns3:TrackPointExtension>
            <ns3:atemp>18.0</ns3:atemp>
          </ns3:TrackPointExtension>
        </extensions>
      </trkpt>
      <trkpt lat="42.49909498728811740875244140625" lon="19.99350308440625667572021484375">
        <ele>1797.4000244140625</ele>
        <time>2026-06-19T08:41:27.000Z</time>
        <extensions>
          <ns3:TrackPointExtension>
            <ns3:atemp>18.0</ns3:atemp>
          </ns3:TrackPointExtension>
        </extensions>
      </trkpt>
      <trkpt lat="42.4990809895098209381103515625" lon="19.99348028562963008880615234375">
        <ele>1797.5999755859375</ele>
        <time>2026-06-19T08:41:28.000Z</time>
        <extensions>
          <ns3:TrackPointExtension>
            <ns3:atemp>18.0</ns3:atemp>
          </ns3:TrackPointExtension>
        </extensions>
      </trkpt>
      <trkpt lat="42.49906732700765132904052734375" lon="19.99345966614782810211181640625">
        <ele>1798</ele>
        <time>2026-06-19T08:41:29.000Z</time>
        <extensions>
          <ns3:TrackPointExtension>
            <ns3:atemp>18.0</ns3:atemp>
          </ns3:TrackPointExtension>
        </extensions>
      </trkpt>
      <trkpt lat="42.4990528263151645660400390625" lon="19.9934406392276287078857421875">
        <ele>1798.199951171875</ele>
        <time>2026-06-19T08:41:30.000Z</time>
        <extensions>
          <ns3:TrackPointExtension>
            <ns3:atemp>18.0</ns3:atemp>
          </ns3:TrackPointExtension>
        </extensions>
      </trkpt>
      <trkpt lat="42.4990357272326946258544921875" lon="19.99342312105000019073486328125">
        <ele>1798.5999755859375</ele>
        <time>2026-06-19T08:41:31.000Z</time>
        <extensions>
          <ns3:TrackPointExtension>
            <ns3:atemp>18.0</ns3:atemp>
          </ns3:TrackPointExtension>
        </extensions>
      </trkpt>
      <trkpt lat="42.49901787377893924713134765625" lon="19.99340736307203769683837890625">
        <ele>1798.800048828125</ele>
        <time>2026-06-19T08:41:32.000Z</time>
        <extensions>
          <ns3:TrackPointExtension>
            <ns3:atemp>18.0</ns3:atemp>
          </ns3:TrackPointExtension>
        </extensions>
      </trkpt>
      <trkpt lat="42.49900437891483306884765625" lon="19.99338942579925060272216796875">
        <ele>1799.199951171875</ele>
        <time>2026-06-19T08:41:33.000Z</time>
        <extensions>
          <ns3:TrackPointExtension>
            <ns3:atemp>18.0</ns3:atemp>
          </ns3:TrackPointExtension>
        </extensions>
      </trkpt>
      <trkpt lat="42.49899306334555149078369140625" lon="19.9933712370693683624267578125">
        <ele>1799.4000244140625</ele>
        <time>2026-06-19T08:41:34.000Z</time>
        <extensions>
          <ns3:TrackPointExtension>
            <ns3:atemp>18.0</ns3:atemp>
          </ns3:TrackPointExtension>
        </extensions>
      </trkpt>
      <trkpt lat="42.498979233205318450927734375" lon="19.9933538027107715606689453125">
        <ele>1799.5999755859375</ele>
        <time>2026-06-19T08:41:35.000Z</time>
        <extensions>
          <ns3:TrackPointExtension>
            <ns3:atemp>18.0</ns3:atemp>
          </ns3:TrackPointExtension>
        </extensions>
      </trkpt>
      <trkpt lat="42.49896355904638767242431640625" lon="19.9933350272476673126220703125">
        <ele>1800</ele>
        <time>2026-06-19T08:41:36.000Z</time>
        <extensions>
          <ns3:TrackPointExtension>
            <ns3:atemp>18.0</ns3:atemp>
          </ns3:TrackPointExtension>
        </extensions>
      </trkpt>
      <trkpt lat="42.49894461594521999359130859375" lon="19.9933212809264659881591796875">
        <ele>1800.4000244140625</ele>
        <time>2026-06-19T08:41:37.000Z</time>
        <extensions>
          <ns3:TrackPointExtension>
            <ns3:atemp>18.0</ns3:atemp>
          </ns3:TrackPointExtension>
        </extensions>
      </trkpt>
      <trkpt lat="42.498924247920513153076171875" lon="19.99331030063331127166748046875">
        <ele>1800.5999755859375</ele>
        <time>2026-06-19T08:41:38.000Z</time>
        <extensions>
          <ns3:TrackPointExtension>
            <ns3:atemp>18.0</ns3:atemp>
          </ns3:TrackPointExtension>
        </extensions>
      </trkpt>
      <trkpt lat="42.49890354461967945098876953125" lon="19.9932994879782199859619140625">
        <ele>1800.800048828125</ele>
        <time>2026-06-19T08:41:39.000Z</time>
        <extensions>
          <ns3:TrackPointExtension>
            <ns3:atemp>18.0</ns3:atemp>
          </ns3:TrackPointExtension>
        </extensions>
      </trkpt>
      <trkpt lat="42.49888560734689235687255859375" lon="19.99329051934182643890380859375">
        <ele>1801</ele>
        <time>2026-06-19T08:41:40.000Z</time>
        <extensions>
          <ns3:TrackPointExtension>
            <ns3:atemp>18.0</ns3:atemp>
          </ns3:TrackPointExtension>
        </extensions>
      </trkpt>
      <trkpt lat="42.4988660775125026702880859375" lon="19.99328096397221088409423828125">
        <ele>1801.199951171875</ele>
        <time>2026-06-19T08:41:41.000Z</time>
        <extensions>
          <ns3:TrackPointExtension>
            <ns3:atemp>18.0</ns3:atemp>
          </ns3:TrackPointExtension>
        </extensions>
      </trkpt>
      <trkpt lat="42.498847134411334991455078125" lon="19.993268139660358428955078125">
        <ele>1801.5999755859375</ele>
        <time>2026-06-19T08:41:42.000Z</time>
        <extensions>
          <ns3:TrackPointExtension>
            <ns3:atemp>18.0</ns3:atemp>
          </ns3:TrackPointExtension>
        </extensions>
      </trkpt>
      <trkpt lat="42.4988253414630889892578125" lon="19.9932575784623622894287109375">
        <ele>1801.800048828125</ele>
        <time>2026-06-19T08:41:43.000Z</time>
        <extensions>
          <ns3:TrackPointExtension>
            <ns3:atemp>18.0</ns3:atemp>
          </ns3:TrackPointExtension>
        </extensions>
      </trkpt>
      <trkpt lat="42.49880589544773101806640625" lon="19.99324911274015903472900390625">
        <ele>1802.199951171875</ele>
        <time>2026-06-19T08:41:44.000Z</time>
        <extensions>
          <ns3:TrackPointExtension>
            <ns3:atemp>18.0</ns3:atemp>
          </ns3:TrackPointExtension>
        </extensions>
      </trkpt>
      <trkpt lat="42.49877664260566234588623046875" lon="19.99324207194149494171142578125">
        <ele>1802.4000244140625</ele>
        <time>2026-06-19T08:41:45.000Z</time>
        <extensions>
          <ns3:TrackPointExtension>
            <ns3:atemp>18.0</ns3:atemp>
          </ns3:TrackPointExtension>
        </extensions>
      </trkpt>
      <trkpt lat="42.49874948523938655853271484375" lon="19.99323067255318164825439453125">
        <ele>1802.5999755859375</ele>
        <time>2026-06-19T08:41:46.000Z</time>
        <extensions>
          <ns3:TrackPointExtension>
            <ns3:atemp>18.0</ns3:atemp>
          </ns3:TrackPointExtension>
        </extensions>
      </trkpt>
      <trkpt lat="42.4987252615392208099365234375" lon="19.99322664923965930938720703125">
        <ele>1802.800048828125</ele>
        <time>2026-06-19T08:41:47.000Z</time>
        <extensions>
          <ns3:TrackPointExtension>
            <ns3:atemp>18.0</ns3:atemp>
          </ns3:TrackPointExtension>
        </extensions>
      </trkpt>
      <trkpt lat="42.49870221130549907684326171875" lon="19.9932222068309783935546875">
        <ele>1803</ele>
        <time>2026-06-19T08:41:48.000Z</time>
        <extensions>
          <ns3:TrackPointExtension>
            <ns3:atemp>18.0</ns3:atemp>
          </ns3:TrackPointExtension>
        </extensions>
      </trkpt>
      <trkpt lat="42.49867723323404788970947265625" lon="19.9932183511555194854736328125">
        <ele>1803.199951171875</ele>
        <time>2026-06-19T08:41:49.000Z</time>
        <extensions>
          <ns3:TrackPointExtension>
            <ns3:atemp>18.0</ns3:atemp>
          </ns3:TrackPointExtension>
        </extensions>
      </trkpt>
      <trkpt lat="42.49865342862904071807861328125" lon="19.99321709387004375457763671875">
        <ele>1803.4000244140625</ele>
        <time>2026-06-19T08:41:50.000Z</time>
        <extensions>
          <ns3:TrackPointExtension>
            <ns3:atemp>18.0</ns3:atemp>
          </ns3:TrackPointExtension>
        </extensions>
      </trkpt>
      <trkpt lat="42.49862593598663806915283203125" lon="19.99321508221328258514404296875">
        <ele>1803.4000244140625</ele>
        <time>2026-06-19T08:41:51.000Z</time>
        <extensions>
          <ns3:TrackPointExtension>
            <ns3:atemp>18.0</ns3:atemp>
          </ns3:TrackPointExtension>
        </extensions>
      </trkpt>
      <trkpt lat="42.4985975213348865509033203125" lon="19.99321281909942626953125">
        <ele>1803.5999755859375</ele>
        <time>2026-06-19T08:41:52.000Z</time>
        <extensions>
          <ns3:TrackPointExtension>
            <ns3:atemp>18.0</ns3:atemp>
          </ns3:TrackPointExtension>
        </extensions>
      </trkpt>
      <trkpt lat="42.49856927432119846343994140625" lon="19.99321189709007740020751953125">
        <ele>1803.800048828125</ele>
        <time>2026-06-19T08:41:53.000Z</time>
        <extensions>
          <ns3:TrackPointExtension>
            <ns3:atemp>18.0</ns3:atemp>
          </ns3:TrackPointExtension>
        </extensions>
      </trkpt>
      <trkpt lat="42.49854027293622493743896484375" lon="19.9932126514613628387451171875">
        <ele>1804</ele>
        <time>2026-06-19T08:41:54.000Z</time>
        <extensions>
          <ns3:TrackPointExtension>
            <ns3:atemp>18.0</ns3:atemp>
          </ns3:TrackPointExtension>
        </extensions>
      </trkpt>
      <trkpt lat="42.4985110200941562652587890625" lon="19.99321214854717254638671875">
        <ele>1804.199951171875</ele>
        <time>2026-06-19T08:41:55.000Z</time>
        <extensions>
          <ns3:TrackPointExtension>
            <ns3:atemp>18.0</ns3:atemp>
          </ns3:TrackPointExtension>
        </extensions>
      </trkpt>
      <trkpt lat="42.4984818510711193084716796875" lon="19.99321214854717254638671875">
        <ele>1804.4000244140625</ele>
        <time>2026-06-19T08:41:56.000Z</time>
        <extensions>
          <ns3:TrackPointExtension>
            <ns3:atemp>18.0</ns3:atemp>
          </ns3:TrackPointExtension>
        </extensions>
      </trkpt>
      <trkpt lat="42.498452849686145782470703125" lon="19.9932087957859039306640625">
        <ele>1804.4000244140625</ele>
        <time>2026-06-19T08:41:57.000Z</time>
        <extensions>
          <ns3:TrackPointExtension>
            <ns3:atemp>18.0</ns3:atemp>
          </ns3:TrackPointExtension>
        </extensions>
      </trkpt>
      <trkpt lat="42.49842368066310882568359375" lon="19.99320670031011104583740234375">
        <ele>1804.5999755859375</ele>
        <time>2026-06-19T08:41:58.000Z</time>
        <extensions>
          <ns3:TrackPointExtension>
            <ns3:atemp>18.0</ns3:atemp>
          </ns3:TrackPointExtension>
        </extensions>
      </trkpt>
      <trkpt lat="42.49839291907846927642822265625" lon="19.993205107748508453369140625">
        <ele>1804.800048828125</ele>
        <time>2026-06-19T08:41:59.000Z</time>
        <extensions>
          <ns3:TrackPointExtension>
            <ns3:atemp>18.0</ns3:atemp>
          </ns3:TrackPointExtension>
        </extensions>
      </trkpt>
      <trkpt lat="42.49836257658898830413818359375" lon="19.99320234172046184539794921875">
        <ele>1804.800048828125</ele>
        <time>2026-06-19T08:42:00.000Z</time>
        <extensions>
          <ns3:TrackPointExtension>
            <ns3:atemp>18.0</ns3:atemp>
          </ns3:TrackPointExtension>
        </extensions>
      </trkpt>
      <trkpt lat="42.49833240173757076263427734375" lon="19.9932002462446689605712890625">
        <ele>1805</ele>
        <time>2026-06-19T08:42:01.000Z</time>
        <extensions>
          <ns3:TrackPointExtension>
            <ns3:atemp>18.0</ns3:atemp>
          </ns3:TrackPointExtension>
        </extensions>
      </trkpt>
      <trkpt lat="42.49829987995326519012451171875" lon="19.9931982345879077911376953125">
        <ele>1805.199951171875</ele>
        <time>2026-06-19T08:42:02.000Z</time>
        <extensions>
          <ns3:TrackPointExtension>
            <ns3:atemp>18.0</ns3:atemp>
          </ns3:TrackPointExtension>
        </extensions>
      </trkpt>
      <trkpt lat="42.4982706271111965179443359375" lon="19.993197061121463775634765625">
        <ele>1805.199951171875</ele>
        <time>2026-06-19T08:42:03.000Z</time>
        <extensions>
          <ns3:TrackPointExtension>
            <ns3:atemp>18.0</ns3:atemp>
          </ns3:TrackPointExtension>
        </extensions>
      </trkpt>
      <trkpt lat="42.49824154190719127655029296875" lon="19.99319295398890972137451171875">
        <ele>1805.4000244140625</ele>
        <time>2026-06-19T08:42:04.000Z</time>
        <extensions>
          <ns3:TrackPointExtension>
            <ns3:atemp>18.0</ns3:atemp>
          </ns3:TrackPointExtension>
        </extensions>
      </trkpt>
      <trkpt lat="42.49821170233190059661865234375" lon="19.9931873381137847900390625">
        <ele>1805.5999755859375</ele>
        <time>2026-06-19T08:42:05.000Z</time>
        <extensions>
          <ns3:TrackPointExtension>
            <ns3:atemp>18.0</ns3:atemp>
          </ns3:TrackPointExtension>
        </extensions>
      </trkpt>
      <trkpt lat="42.498181276023387908935546875" lon="19.99318658374249935150146484375">
        <ele>1806</ele>
        <time>2026-06-19T08:42:06.000Z</time>
        <extensions>
          <ns3:TrackPointExtension>
            <ns3:atemp>18.0</ns3:atemp>
          </ns3:TrackPointExtension>
        </extensions>
      </trkpt>
      <trkpt lat="42.49815152026712894439697265625" lon="19.99318205751478672027587890625">
        <ele>1806.199951171875</ele>
        <time>2026-06-19T08:42:07.000Z</time>
        <extensions>
          <ns3:TrackPointExtension>
            <ns3:atemp>18.0</ns3:atemp>
          </ns3:TrackPointExtension>
        </extensions>
      </trkpt>
      <trkpt lat="42.49812268652021884918212890625" lon="19.993177615106105804443359375">
        <ele>1806.4000244140625</ele>
        <time>2026-06-19T08:42:08.000Z</time>
        <extensions>
          <ns3:TrackPointExtension>
            <ns3:atemp>18.0</ns3:atemp>
          </ns3:TrackPointExtension>
        </extensions>
      </trkpt>
      <trkpt lat="42.4980939365923404693603515625" lon="19.99316923320293426513671875">
        <ele>1806.5999755859375</ele>
        <time>2026-06-19T08:42:09.000Z</time>
        <extensions>
          <ns3:TrackPointExtension>
            <ns3:atemp>18.0</ns3:atemp>
          </ns3:TrackPointExtension>
        </extensions>
      </trkpt>
      <trkpt lat="42.49806602485477924346923828125" lon="19.99315674416720867156982421875">
        <ele>1806.800048828125</ele>
        <time>2026-06-19T08:42:10.000Z</time>
        <extensions>
          <ns3:TrackPointExtension>
            <ns3:atemp>18.0</ns3:atemp>
          </ns3:TrackPointExtension>
        </extensions>
      </trkpt>
      <trkpt lat="42.498036436736583709716796875" lon="19.9931476078927516937255859375">
        <ele>1807</ele>
        <time>2026-06-19T08:42:11.000Z</time>
        <extensions>
          <ns3:TrackPointExtension>
            <ns3:atemp>18.0</ns3:atemp>
          </ns3:TrackPointExtension>
        </extensions>
      </trkpt>
      <trkpt lat="42.49800751917064189910888671875" lon="19.99313713051378726959228515625">
        <ele>1807.4000244140625</ele>
        <time>2026-06-19T08:42:12.000Z</time>
        <extensions>
          <ns3:TrackPointExtension>
            <ns3:atemp>18.0</ns3:atemp>
          </ns3:TrackPointExtension>
        </extensions>
      </trkpt>
      <trkpt lat="42.49798052944242954254150390625" lon="19.99312497675418853759765625">
        <ele>1807.800048828125</ele>
        <time>2026-06-19T08:42:13.000Z</time>
        <extensions>
          <ns3:TrackPointExtension>
            <ns3:atemp>18.0</ns3:atemp>
          </ns3:TrackPointExtension>
        </extensions>
      </trkpt>
      <trkpt lat="42.49795353971421718597412109375" lon="19.99311156570911407470703125">
        <ele>1808</ele>
        <time>2026-06-19T08:42:14.000Z</time>
        <extensions>
          <ns3:TrackPointExtension>
            <ns3:atemp>18.0</ns3:atemp>
          </ns3:TrackPointExtension>
        </extensions>
      </trkpt>
      <trkpt lat="42.4979273043572902679443359375" lon="19.9930979870259761810302734375">
        <ele>1808.199951171875</ele>
        <time>2026-06-19T08:42:15.000Z</time>
        <extensions>
          <ns3:TrackPointExtension>
            <ns3:atemp>18.0</ns3:atemp>
          </ns3:TrackPointExtension>
        </extensions>
      </trkpt>
      <trkpt lat="42.497901655733585357666015625" lon="19.99308197759091854095458984375">
        <ele>1808.4000244140625</ele>
        <time>2026-06-19T08:42:16.000Z</time>
        <extensions>
          <ns3:TrackPointExtension>
            <ns3:atemp>18.0</ns3:atemp>
          </ns3:TrackPointExtension>
        </extensions>
      </trkpt>
      <trkpt lat="42.49787391163408756256103515625" lon="19.9930684827268123626708984375">
        <ele>1808.5999755859375</ele>
        <time>2026-06-19T08:42:17.000Z</time>
        <extensions>
          <ns3:TrackPointExtension>
            <ns3:atemp>18.0</ns3:atemp>
          </ns3:TrackPointExtension>
        </extensions>
      </trkpt>
      <trkpt lat="42.49784641899168491363525390625" lon="19.9930577538907527923583984375">
        <ele>1808.5999755859375</ele>
        <time>2026-06-19T08:42:18.000Z</time>
        <extensions>
          <ns3:TrackPointExtension>
            <ns3:atemp>18.0</ns3:atemp>
          </ns3:TrackPointExtension>
        </extensions>
      </trkpt>
      <trkpt lat="42.4978183396160602569580078125" lon="19.993045516312122344970703125">
        <ele>1808.5999755859375</ele>
        <time>2026-06-19T08:42:19.000Z</time>
        <extensions>
          <ns3:TrackPointExtension>
            <ns3:atemp>18.0</ns3:atemp>
          </ns3:TrackPointExtension>
        </extensions>
      </trkpt>
      <trkpt lat="42.4977898411452770233154296875" lon="19.99303470365703105926513671875">
        <ele>1808.5999755859375</ele>
        <time>2026-06-19T08:42:20.000Z</time>
        <extensions>
          <ns3:TrackPointExtension>
            <ns3:atemp>18.0</ns3:atemp>
          </ns3:TrackPointExtension>
        </extensions>
      </trkpt>
      <trkpt lat="42.49776259995996952056884765625" lon="19.99302397482097148895263671875">
        <ele>1808.5999755859375</ele>
        <time>2026-06-19T08:42:21.000Z</time>
        <extensions>
          <ns3:TrackPointExtension>
            <ns3:atemp>18.0</ns3:atemp>
          </ns3:TrackPointExtension>
        </extensions>
      </trkpt>
      <trkpt lat="42.49773510731756687164306640625" lon="19.9930138327181339263916015625">
        <ele>1808.800048828125</ele>
        <time>2026-06-19T08:42:22.000Z</time>
        <extensions>
          <ns3:TrackPointExtension>
            <ns3:atemp>18.0</ns3:atemp>
          </ns3:TrackPointExtension>
        </extensions>
      </trkpt>
      <trkpt lat="42.4977073632180690765380859375" lon="19.99301408417522907257080078125">
        <ele>1808.800048828125</ele>
        <time>2026-06-19T08:42:23.000Z</time>
        <extensions>
          <ns3:TrackPointExtension>
            <ns3:atemp>18.0</ns3:atemp>
          </ns3:TrackPointExtension>
        </extensions>
      </trkpt>
      <trkpt lat="42.497676350176334381103515625" lon="19.99301894567906856536865234375">
        <ele>1809</ele>
        <time>2026-06-19T08:42:24.000Z</time>
        <extensions>
          <ns3:TrackPointExtension>
            <ns3:atemp>18.0</ns3:atemp>
          </ns3:TrackPointExtension>
        </extensions>
      </trkpt>
      <trkpt lat="42.49764575622975826263427734375" lon="19.9930264055728912353515625">
        <ele>1809.4000244140625</ele>
        <time>2026-06-19T08:42:25.000Z</time>
        <extensions>
          <ns3:TrackPointExtension>
            <ns3:atemp>18.0</ns3:atemp>
          </ns3:TrackPointExtension>
        </extensions>
      </trkpt>
      <trkpt lat="42.497614659368991851806640625" lon="19.9930336140096187591552734375">
        <ele>1809.5999755859375</ele>
        <time>2026-06-19T08:42:26.000Z</time>
        <extensions>
          <ns3:TrackPointExtension>
            <ns3:atemp>18.0</ns3:atemp>
          </ns3:TrackPointExtension>
        </extensions>
      </trkpt>
      <trkpt lat="42.49758691526949405670166015625" lon="19.99304090626537799835205078125">
        <ele>1810</ele>
        <time>2026-06-19T08:42:27.000Z</time>
        <extensions>
          <ns3:TrackPointExtension>
            <ns3:atemp>18.0</ns3:atemp>
          </ns3:TrackPointExtension>
        </extensions>
      </trkpt>
      <trkpt lat="42.4975608475506305694580078125" lon="19.99305197037756443023681640625">
        <ele>1810.4000244140625</ele>
        <time>2026-06-19T08:42:28.000Z</time>
        <extensions>
          <ns3:TrackPointExtension>
            <ns3:atemp>18.0</ns3:atemp>
          </ns3:TrackPointExtension>
        </extensions>
      </trkpt>
      <trkpt lat="42.49753360636532306671142578125" lon="19.9930681474506855010986328125">
        <ele>1810.800048828125</ele>
        <time>2026-06-19T08:42:29.000Z</time>
        <extensions>
          <ns3:TrackPointExtension>
            <ns3:atemp>18.0</ns3:atemp>
          </ns3:TrackPointExtension>
        </extensions>
      </trkpt>
      <trkpt lat="42.497507035732269287109375" lon="19.993089102208614349365234375">
        <ele>1811.199951171875</ele>
        <time>2026-06-19T08:42:30.000Z</time>
        <extensions>
          <ns3:TrackPointExtension>
            <ns3:atemp>18.0</ns3:atemp>
          </ns3:TrackPointExtension>
        </extensions>
      </trkpt>
      <trkpt lat="42.4974807165563106536865234375" lon="19.99311265535652637481689453125">
        <ele>1811.5999755859375</ele>
        <time>2026-06-19T08:42:31.000Z</time>
        <extensions>
          <ns3:TrackPointExtension>
            <ns3:atemp>18.0</ns3:atemp>
          </ns3:TrackPointExtension>
        </extensions>
      </trkpt>
      <trkpt lat="42.49745314009487628936767578125" lon="19.993136040866374969482421875">
        <ele>1811.800048828125</ele>
        <time>2026-06-19T08:42:32.000Z</time>
        <extensions>
          <ns3:TrackPointExtension>
            <ns3:atemp>18.0</ns3:atemp>
          </ns3:TrackPointExtension>
        </extensions>
      </trkpt>
      <trkpt lat="42.497426234185695648193359375" lon="19.99315858818590641021728515625">
        <ele>1812</ele>
        <time>2026-06-19T08:42:33.000Z</time>
        <extensions>
          <ns3:TrackPointExtension>
            <ns3:atemp>18.0</ns3:atemp>
          </ns3:TrackPointExtension>
        </extensions>
      </trkpt>
      <trkpt lat="42.49739916063845157623291015625" lon="19.993183650076389312744140625">
        <ele>1812.199951171875</ele>
        <time>2026-06-19T08:42:34.000Z</time>
        <extensions>
          <ns3:TrackPointExtension>
            <ns3:atemp>18.0</ns3:atemp>
          </ns3:TrackPointExtension>
        </extensions>
      </trkpt>
      <trkpt lat="42.49737099744379520416259765625" lon="19.9932082928717136383056640625">
        <ele>1812.199951171875</ele>
        <time>2026-06-19T08:42:35.000Z</time>
        <extensions>
          <ns3:TrackPointExtension>
            <ns3:atemp>18.0</ns3:atemp>
          </ns3:TrackPointExtension>
        </extensions>
      </trkpt>
      <trkpt lat="42.49734266661107540130615234375" lon="19.99323234893381595611572265625">
        <ele>1812.4000244140625</ele>
        <time>2026-06-19T08:42:36.000Z</time>
        <extensions>
          <ns3:TrackPointExtension>
            <ns3:atemp>18.0</ns3:atemp>
          </ns3:TrackPointExtension>
        </extensions>
      </trkpt>
      <trkpt lat="42.49731299467384815216064453125" lon="19.99325640499591827392578125">
        <ele>1812.4000244140625</ele>
        <time>2026-06-19T08:42:37.000Z</time>
        <extensions>
          <ns3:TrackPointExtension>
            <ns3:atemp>18.0</ns3:atemp>
          </ns3:TrackPointExtension>
        </extensions>
      </trkpt>
      <trkpt lat="42.497283406555652618408203125" lon="19.993282221257686614990234375">
        <ele>1812.5999755859375</ele>
        <time>2026-06-19T08:42:38.000Z</time>
        <extensions>
          <ns3:TrackPointExtension>
            <ns3:atemp>18.0</ns3:atemp>
          </ns3:TrackPointExtension>
        </extensions>
      </trkpt>
      <trkpt lat="42.4972507171332836151123046875" lon="19.99330879189074039459228515625">
        <ele>1812.5999755859375</ele>
        <time>2026-06-19T08:42:39.000Z</time>
        <extensions>
          <ns3:TrackPointExtension>
            <ns3:atemp>18.0</ns3:atemp>
          </ns3:TrackPointExtension>
        </extensions>
      </trkpt>
      <trkpt lat="42.49722112901508808135986328125" lon="19.99333594925701618194580078125">
        <ele>1812.5999755859375</ele>
        <time>2026-06-19T08:42:40.000Z</time>
        <extensions>
          <ns3:TrackPointExtension>
            <ns3:atemp>18.0</ns3:atemp>
          </ns3:TrackPointExtension>
        </extensions>
      </trkpt>
      <trkpt lat="42.49718911014497280120849609375" lon="19.9933568201959133148193359375">
        <ele>1812.800048828125</ele>
        <time>2026-06-19T08:42:41.000Z</time>
        <extensions>
          <ns3:TrackPointExtension>
            <ns3:atemp>18.0</ns3:atemp>
          </ns3:TrackPointExtension>
        </extensions>
      </trkpt>
      <trkpt lat="42.49715608544647693634033203125" lon="19.993376769125461578369140625">
        <ele>1812.800048828125</ele>
        <time>2026-06-19T08:42:42.000Z</time>
        <extensions>
          <ns3:TrackPointExtension>
            <ns3:atemp>18.0</ns3:atemp>
          </ns3:TrackPointExtension>
        </extensions>
      </trkpt>
      <trkpt lat="42.4971270002424716949462890625" lon="19.9933967180550098419189453125">
        <ele>1813</ele>
        <time>2026-06-19T08:42:43.000Z</time>
        <extensions>
          <ns3:TrackPointExtension>
            <ns3:atemp>18.0</ns3:atemp>
          </ns3:TrackPointExtension>
        </extensions>
      </trkpt>
      <trkpt lat="42.49709724448621273040771484375" lon="19.99342010356485843658447265625">
        <ele>1813.199951171875</ele>
        <time>2026-06-19T08:42:44.000Z</time>
        <extensions>
          <ns3:TrackPointExtension>
            <ns3:atemp>18.0</ns3:atemp>
          </ns3:TrackPointExtension>
        </extensions>
      </trkpt>
      <trkpt lat="42.49706648290157318115234375" lon="19.99344684183597564697265625">
        <ele>1813.199951171875</ele>
        <time>2026-06-19T08:42:45.000Z</time>
        <extensions>
          <ns3:TrackPointExtension>
            <ns3:atemp>18.0</ns3:atemp>
          </ns3:TrackPointExtension>
        </extensions>
      </trkpt>
      <trkpt lat="42.49703831970691680908203125" lon="19.99347307719290256500244140625">
        <ele>1813.4000244140625</ele>
        <time>2026-06-19T08:42:46.000Z</time>
        <extensions>
          <ns3:TrackPointExtension>
            <ns3:atemp>18.0</ns3:atemp>
          </ns3:TrackPointExtension>
        </extensions>
      </trkpt>
      <trkpt lat="42.49701082706451416015625" lon="19.9935013242065906524658203125">
        <ele>1813.5999755859375</ele>
        <time>2026-06-19T08:42:47.000Z</time>
        <extensions>
          <ns3:TrackPointExtension>
            <ns3:atemp>18.0</ns3:atemp>
          </ns3:TrackPointExtension>
        </extensions>
      </trkpt>
      <trkpt lat="42.496980316936969757080078125" lon="19.9935268051922321319580078125">
        <ele>1813.5999755859375</ele>
        <time>2026-06-19T08:42:48.000Z</time>
        <extensions>
          <ns3:TrackPointExtension>
            <ns3:atemp>18.0</ns3:atemp>
          </ns3:TrackPointExtension>
        </extensions>
      </trkpt>
      <trkpt lat="42.4969506449997425079345703125" lon="19.99355354346334934234619140625">
        <ele>1813.5999755859375</ele>
        <time>2026-06-19T08:42:49.000Z</time>
        <extensions>
          <ns3:TrackPointExtension>
            <ns3:atemp>18.0</ns3:atemp>
          </ns3:TrackPointExtension>
        </extensions>
      </trkpt>
      <trkpt lat="42.496919296681880950927734375" lon="19.99358153901994228363037109375">
        <ele>1813.800048828125</ele>
        <time>2026-06-19T08:42:50.000Z</time>
        <extensions>
          <ns3:TrackPointExtension>
            <ns3:atemp>18.0</ns3:atemp>
          </ns3:TrackPointExtension>
        </extensions>
      </trkpt>
      <trkpt lat="42.49688786454498767852783203125" lon="19.99361271969974040985107421875">
        <ele>1813.800048828125</ele>
        <time>2026-06-19T08:42:51.000Z</time>
        <extensions>
          <ns3:TrackPointExtension>
            <ns3:atemp>18.0</ns3:atemp>
          </ns3:TrackPointExtension>
        </extensions>
      </trkpt>
      <trkpt lat="42.496859617531299591064453125" lon="19.9936486780643463134765625">
        <ele>1813.800048828125</ele>
        <time>2026-06-19T08:42:52.000Z</time>
        <extensions>
          <ns3:TrackPointExtension>
            <ns3:atemp>18.0</ns3:atemp>
          </ns3:TrackPointExtension>
        </extensions>
      </trkpt>
      <trkpt lat="42.49683354981243610382080078125" lon="19.9936817027628421783447265625">
        <ele>1813.800048828125</ele>
        <time>2026-06-19T08:42:53.000Z</time>
        <extensions>
          <ns3:TrackPointExtension>
            <ns3:atemp>18.0</ns3:atemp>
          </ns3:TrackPointExtension>
        </extensions>
      </trkpt>
      <trkpt lat="42.4968084879219532012939453125" lon="19.993716068565845489501953125">
        <ele>1813.800048828125</ele>
        <time>2026-06-19T08:42:54.000Z</time>
        <extensions>
          <ns3:TrackPointExtension>
            <ns3:atemp>18.0</ns3:atemp>
          </ns3:TrackPointExtension>
        </extensions>
      </trkpt>
      <trkpt lat="42.49678661115467548370361328125" lon="19.9937480874359607696533203125">
        <ele>1813.800048828125</ele>
        <time>2026-06-19T08:42:55.000Z</time>
        <extensions>
          <ns3:TrackPointExtension>
            <ns3:atemp>18.0</ns3:atemp>
          </ns3:TrackPointExtension>
        </extensions>
      </trkpt>
      <trkpt lat="42.49677068553864955902099609375" lon="19.99378203414380550384521484375">
        <ele>1813.800048828125</ele>
        <time>2026-06-19T08:42:56.000Z</time>
        <extensions>
          <ns3:TrackPointExtension>
            <ns3:atemp>18.0</ns3:atemp>
          </ns3:TrackPointExtension>
        </extensions>
      </trkpt>
      <trkpt lat="42.496758364140987396240234375" lon="19.99381639994680881500244140625">
        <ele>1814</ele>
        <time>2026-06-19T08:42:57.000Z</time>
        <extensions>
          <ns3:TrackPointExtension>
            <ns3:atemp>18.0</ns3:atemp>
          </ns3:TrackPointExtension>
        </extensions>
      </trkpt>
      <trkpt lat="42.49674352817237377166748046875" lon="19.99384858645498752593994140625">
        <ele>1814.199951171875</ele>
        <time>2026-06-19T08:42:58.000Z</time>
        <extensions>
          <ns3:TrackPointExtension>
            <ns3:atemp>18.0</ns3:atemp>
          </ns3:TrackPointExtension>
        </extensions>
      </trkpt>
      <trkpt lat="42.49673112295567989349365234375" lon="19.9938818626105785369873046875">
        <ele>1814.5999755859375</ele>
        <time>2026-06-19T08:42:59.000Z</time>
        <extensions>
          <ns3:TrackPointExtension>
            <ns3:atemp>18.0</ns3:atemp>
          </ns3:TrackPointExtension>
        </extensions>
      </trkpt>
      <trkpt lat="42.496718466281890869140625" lon="19.993912875652313232421875">
        <ele>1814.800048828125</ele>
        <time>2026-06-19T08:43:00.000Z</time>
        <extensions>
          <ns3:TrackPointExtension>
            <ns3:atemp>18.0</ns3:atemp>
          </ns3:TrackPointExtension>
        </extensions>
      </trkpt>
      <trkpt lat="42.49669994227588176727294921875" lon="19.993939697742462158203125">
        <ele>1815</ele>
        <time>2026-06-19T08:43:01.000Z</time>
        <extensions>
          <ns3:TrackPointExtension>
            <ns3:atemp>18.0</ns3:atemp>
          </ns3:TrackPointExtension>
        </extensions>
      </trkpt>
      <trkpt lat="42.49668150208890438079833984375" lon="19.99396442435681819915771484375">
        <ele>1815.4000244140625</ele>
        <time>2026-06-19T08:43:02.000Z</time>
        <extensions>
          <ns3:TrackPointExtension>
            <ns3:atemp>18.0</ns3:atemp>
          </ns3:TrackPointExtension>
        </extensions>
      </trkpt>
      <trkpt lat="42.49666272662580013275146484375" lon="19.9939891509711742401123046875">
        <ele>1815.5999755859375</ele>
        <time>2026-06-19T08:43:03.000Z</time>
        <extensions>
          <ns3:TrackPointExtension>
            <ns3:atemp>18.0</ns3:atemp>
          </ns3:TrackPointExtension>
        </extensions>
      </trkpt>
      <trkpt lat="42.4966438673436641693115234375" lon="19.9940082617104053497314453125">
        <ele>1816</ele>
        <time>2026-06-19T08:43:04.000Z</time>
        <extensions>
          <ns3:TrackPointExtension>
            <ns3:atemp>18.0</ns3:atemp>
          </ns3:TrackPointExtension>
        </extensions>
      </trkpt>
      <trkpt lat="42.4966247566044330596923828125" lon="19.9940290488302707672119140625">
        <ele>1816.199951171875</ele>
        <time>2026-06-19T08:43:05.000Z</time>
        <extensions>
          <ns3:TrackPointExtension>
            <ns3:atemp>18.0</ns3:atemp>
          </ns3:TrackPointExtension>
        </extensions>
      </trkpt>
      <trkpt lat="42.496605478227138519287109375" lon="19.9940481595695018768310546875">
        <ele>1816.4000244140625</ele>
        <time>2026-06-19T08:43:06.000Z</time>
        <extensions>
          <ns3:TrackPointExtension>
            <ns3:atemp>18.0</ns3:atemp>
          </ns3:TrackPointExtension>
        </extensions>
      </trkpt>
      <trkpt lat="42.49658611603081226348876953125" lon="19.9940652586519718170166015625">
        <ele>1816.5999755859375</ele>
        <time>2026-06-19T08:43:07.000Z</time>
        <extensions>
          <ns3:TrackPointExtension>
            <ns3:atemp>18.0</ns3:atemp>
          </ns3:TrackPointExtension>
        </extensions>
      </trkpt>
      <trkpt lat="42.49656465835869312286376953125" lon="19.99407825060188770294189453125">
        <ele>1817</ele>
        <time>2026-06-19T08:43:08.000Z</time>
        <extensions>
          <ns3:TrackPointExtension>
            <ns3:atemp>18.0</ns3:atemp>
          </ns3:TrackPointExtension>
        </extensions>
      </trkpt>
      <trkpt lat="42.496545799076557159423828125" lon="19.99409266747534275054931640625">
        <ele>1817.199951171875</ele>
        <time>2026-06-19T08:43:09.000Z</time>
        <extensions>
          <ns3:TrackPointExtension>
            <ns3:atemp>18.0</ns3:atemp>
          </ns3:TrackPointExtension>
        </extensions>
      </trkpt>
      <trkpt lat="42.49652333557605743408203125" lon="19.9941048212349414825439453125">
        <ele>1817.5999755859375</ele>
        <time>2026-06-19T08:43:10.000Z</time>
        <extensions>
          <ns3:TrackPointExtension>
            <ns3:atemp>18.0</ns3:atemp>
          </ns3:TrackPointExtension>
        </extensions>
      </trkpt>
      <trkpt lat="42.496504895389080047607421875" lon="19.9941153824329376220703125">
        <ele>1817.800048828125</ele>
        <time>2026-06-19T08:43:11.000Z</time>
        <extensions>
          <ns3:TrackPointExtension>
            <ns3:atemp>18.0</ns3:atemp>
          </ns3:TrackPointExtension>
        </extensions>
      </trkpt>
      <trkpt lat="42.49648704193532466888427734375" lon="19.99412518925964832305908203125">
        <ele>1818</ele>
        <time>2026-06-19T08:43:12.000Z</time>
        <extensions>
          <ns3:TrackPointExtension>
            <ns3:atemp>18.0</ns3:atemp>
          </ns3:TrackPointExtension>
        </extensions>
      </trkpt>
      <trkpt lat="42.496469356119632720947265625" lon="19.99413482844829559326171875">
        <ele>1818.4000244140625</ele>
        <time>2026-06-19T08:43:13.000Z</time>
        <extensions>
          <ns3:TrackPointExtension>
            <ns3:atemp>18.0</ns3:atemp>
          </ns3:TrackPointExtension>
        </extensions>
      </trkpt>
      <trkpt lat="42.49645133502781391143798828125" lon="19.99414421617984771728515625">
        <ele>1818.800048828125</ele>
        <time>2026-06-19T08:43:14.000Z</time>
        <extensions>
          <ns3:TrackPointExtension>
            <ns3:atemp>18.0</ns3:atemp>
          </ns3:TrackPointExtension>
        </extensions>
      </trkpt>
      <trkpt lat="42.49643205665051937103271484375" lon="19.99415536411106586456298828125">
        <ele>1819</ele>
        <time>2026-06-19T08:43:15.000Z</time>
        <extensions>
          <ns3:TrackPointExtension>
            <ns3:atemp>18.0</ns3:atemp>
          </ns3:TrackPointExtension>
        </extensions>
      </trkpt>
      <trkpt lat="42.49641344882547855377197265625" lon="19.9941655062139034271240234375">
        <ele>1819.199951171875</ele>
        <time>2026-06-19T08:43:16.000Z</time>
        <extensions>
          <ns3:TrackPointExtension>
            <ns3:atemp>18.0</ns3:atemp>
          </ns3:TrackPointExtension>
        </extensions>
      </trkpt>
      <trkpt lat="42.49639349989593029022216796875" lon="19.99417363665997982025146484375">
        <ele>1819.5999755859375</ele>
        <time>2026-06-19T08:43:17.000Z</time>
        <extensions>
          <ns3:TrackPointExtension>
            <ns3:atemp>18.0</ns3:atemp>
          </ns3:TrackPointExtension>
        </extensions>
      </trkpt>
      <trkpt lat="42.49637556262314319610595703125" lon="19.994180761277675628662109375">
        <ele>1819.800048828125</ele>
        <time>2026-06-19T08:43:18.000Z</time>
        <extensions>
          <ns3:TrackPointExtension>
            <ns3:atemp>18.0</ns3:atemp>
          </ns3:TrackPointExtension>
        </extensions>
      </trkpt>
      <trkpt lat="42.496359385550022125244140625" lon="19.994191490113735198974609375">
        <ele>1820.199951171875</ele>
        <time>2026-06-19T08:43:19.000Z</time>
        <extensions>
          <ns3:TrackPointExtension>
            <ns3:atemp>18.0</ns3:atemp>
          </ns3:TrackPointExtension>
        </extensions>
      </trkpt>
      <trkpt lat="42.49634337611496448516845703125" lon="19.9942037276923656463623046875">
        <ele>1820.5999755859375</ele>
        <time>2026-06-19T08:43:20.000Z</time>
        <extensions>
          <ns3:TrackPointExtension>
            <ns3:atemp>18.0</ns3:atemp>
          </ns3:TrackPointExtension>
        </extensions>
      </trkpt>
      <trkpt lat="42.49632527120411396026611328125" lon="19.99421772547066211700439453125">
        <ele>1820.800048828125</ele>
        <time>2026-06-19T08:43:21.000Z</time>
        <extensions>
          <ns3:TrackPointExtension>
            <ns3:atemp>18.0</ns3:atemp>
          </ns3:TrackPointExtension>
        </extensions>
      </trkpt>
      <trkpt lat="42.49630632810294628143310546875" lon="19.99423130415380001068115234375">
        <ele>1821</ele>
        <time>2026-06-19T08:43:22.000Z</time>
        <extensions>
          <ns3:TrackPointExtension>
            <ns3:atemp>18.0</ns3:atemp>
          </ns3:TrackPointExtension>
        </extensions>
      </trkpt>
      <trkpt lat="42.49628805555403232574462890625" lon="19.99424572102725505828857421875">
        <ele>1821.199951171875</ele>
        <time>2026-06-19T08:43:23.000Z</time>
        <extensions>
          <ns3:TrackPointExtension>
            <ns3:atemp>18.0</ns3:atemp>
          </ns3:TrackPointExtension>
        </extensions>
      </trkpt>
      <trkpt lat="42.49626810662448406219482421875" lon="19.99425762332975864410400390625">
        <ele>1821.5999755859375</ele>
        <time>2026-06-19T08:43:24.000Z</time>
        <extensions>
          <ns3:TrackPointExtension>
            <ns3:atemp>18.0</ns3:atemp>
          </ns3:TrackPointExtension>
        </extensions>
      </trkpt>
      <trkpt lat="42.49624975025653839111328125" lon="19.99426751397550106048583984375">
        <ele>1821.800048828125</ele>
        <time>2026-06-19T08:43:25.000Z</time>
        <extensions>
          <ns3:TrackPointExtension>
            <ns3:atemp>18.0</ns3:atemp>
          </ns3:TrackPointExtension>
        </extensions>
      </trkpt>
      <trkpt lat="42.4962329864501953125" lon="19.994277991354465484619140625">
        <ele>1822.199951171875</ele>
        <time>2026-06-19T08:43:26.000Z</time>
        <extensions>
          <ns3:TrackPointExtension>
            <ns3:atemp>18.0</ns3:atemp>
          </ns3:TrackPointExtension>
        </extensions>
      </trkpt>
      <trkpt lat="42.49621496535837650299072265625" lon="19.9942912347614765167236328125">
        <ele>1822.4000244140625</ele>
        <time>2026-06-19T08:43:27.000Z</time>
        <extensions>
          <ns3:TrackPointExtension>
            <ns3:atemp>18.0</ns3:atemp>
          </ns3:TrackPointExtension>
        </extensions>
      </trkpt>
      <trkpt lat="42.49619635753333568572998046875" lon="19.99430623836815357208251953125">
        <ele>1822.5999755859375</ele>
        <time>2026-06-19T08:43:28.000Z</time>
        <extensions>
          <ns3:TrackPointExtension>
            <ns3:atemp>18.0</ns3:atemp>
          </ns3:TrackPointExtension>
        </extensions>
      </trkpt>
      <trkpt lat="42.49617858789861202239990234375" lon="19.99432333745062351226806640625">
        <ele>1823</ele>
        <time>2026-06-19T08:43:29.000Z</time>
        <extensions>
          <ns3:TrackPointExtension>
            <ns3:atemp>18.0</ns3:atemp>
          </ns3:TrackPointExtension>
        </extensions>
      </trkpt>
      <trkpt lat="42.49615998007357120513916015625" lon="19.99433892779052257537841796875">
        <ele>1823.199951171875</ele>
        <time>2026-06-19T08:43:30.000Z</time>
        <extensions>
          <ns3:TrackPointExtension>
            <ns3:atemp>18.0</ns3:atemp>
          </ns3:TrackPointExtension>
        </extensions>
      </trkpt>
      <trkpt lat="42.49614288099110126495361328125" lon="19.9943546019494533538818359375">
        <ele>1823.4000244140625</ele>
        <time>2026-06-19T08:43:31.000Z</time>
        <extensions>
          <ns3:TrackPointExtension>
            <ns3:atemp>18.0</ns3:atemp>
          </ns3:TrackPointExtension>
        </extensions>
      </trkpt>
      <trkpt lat="42.49612762592732906341552734375" lon="19.99436910264194011688232421875">
        <ele>1823.5999755859375</ele>
        <time>2026-06-19T08:43:32.000Z</time>
        <extensions>
          <ns3:TrackPointExtension>
            <ns3:atemp>18.0</ns3:atemp>
          </ns3:TrackPointExtension>
        </extensions>
      </trkpt>
      <trkpt lat="42.49610918574035167694091796875" lon="19.9943814240396022796630859375">
        <ele>1823.800048828125</ele>
        <time>2026-06-19T08:43:33.000Z</time>
        <extensions>
          <ns3:TrackPointExtension>
            <ns3:atemp>18.0</ns3:atemp>
          </ns3:TrackPointExtension>
        </extensions>
      </trkpt>
      <trkpt lat="42.49608756043016910552978515625" lon="19.99439106322824954986572265625">
        <ele>1824.199951171875</ele>
        <time>2026-06-19T08:43:34.000Z</time>
        <extensions>
          <ns3:TrackPointExtension>
            <ns3:atemp>18.0</ns3:atemp>
          </ns3:TrackPointExtension>
        </extensions>
      </trkpt>
      <trkpt lat="42.4960668571293354034423828125" lon="19.994397349655628204345703125">
        <ele>1824.4000244140625</ele>
        <time>2026-06-19T08:43:35.000Z</time>
        <extensions>
          <ns3:TrackPointExtension>
            <ns3:atemp>18.0</ns3:atemp>
          </ns3:TrackPointExtension>
        </extensions>
      </trkpt>
      <trkpt lat="42.4960465729236602783203125" lon="19.99440975487232208251953125">
        <ele>1824.4000244140625</ele>
        <time>2026-06-19T08:43:36.000Z</time>
        <extensions>
          <ns3:TrackPointExtension>
            <ns3:atemp>18.0</ns3:atemp>
          </ns3:TrackPointExtension>
        </extensions>
      </trkpt>
      <trkpt lat="42.49602737836539745330810546875" lon="19.994421489536762237548828125">
        <ele>1824.5999755859375</ele>
        <time>2026-06-19T08:43:37.000Z</time>
        <extensions>
          <ns3:TrackPointExtension>
            <ns3:atemp>18.0</ns3:atemp>
          </ns3:TrackPointExtension>
        </extensions>
      </trkpt>
      <trkpt lat="42.49600944109261035919189453125" lon="19.99443599022924900054931640625">
        <ele>1824.800048828125</ele>
        <time>2026-06-19T08:43:38.000Z</time>
        <extensions>
          <ns3:TrackPointExtension>
            <ns3:atemp>18.0</ns3:atemp>
          </ns3:TrackPointExtension>
        </extensions>
      </trkpt>
      <trkpt lat="42.495991252362728118896484375" lon="19.99444806016981601715087890625">
        <ele>1825</ele>
        <time>2026-06-19T08:43:39.000Z</time>
        <extensions>
          <ns3:TrackPointExtension>
            <ns3:atemp>18.0</ns3:atemp>
          </ns3:TrackPointExtension>
        </extensions>
      </trkpt>
      <trkpt lat="42.4959749914705753326416015625" lon="19.99446096830070018768310546875">
        <ele>1825.199951171875</ele>
        <time>2026-06-19T08:43:40.000Z</time>
        <extensions>
          <ns3:TrackPointExtension>
            <ns3:atemp>18.0</ns3:atemp>
          </ns3:TrackPointExtension>
        </extensions>
      </trkpt>
      <trkpt lat="42.495958395302295684814453125" lon="19.994473792612552642822265625">
        <ele>1825.5999755859375</ele>
        <time>2026-06-19T08:43:41.000Z</time>
        <extensions>
          <ns3:TrackPointExtension>
            <ns3:atemp>18.0</ns3:atemp>
          </ns3:TrackPointExtension>
        </extensions>
      </trkpt>
      <trkpt lat="42.4959407933056354522705078125" lon="19.99448460526764392852783203125">
        <ele>1825.800048828125</ele>
        <time>2026-06-19T08:43:42.000Z</time>
        <extensions>
          <ns3:TrackPointExtension>
            <ns3:atemp>18.0</ns3:atemp>
          </ns3:TrackPointExtension>
        </extensions>
      </trkpt>
      <trkpt lat="42.495922856032848358154296875" lon="19.9944940768182277679443359375">
        <ele>1826.199951171875</ele>
        <time>2026-06-19T08:43:43.000Z</time>
        <extensions>
          <ns3:TrackPointExtension>
            <ns3:atemp>18.0</ns3:atemp>
          </ns3:TrackPointExtension>
        </extensions>
      </trkpt>
      <trkpt lat="42.49590382911264896392822265625" lon="19.994505308568477630615234375">
        <ele>1826.4000244140625</ele>
        <time>2026-06-19T08:43:44.000Z</time>
        <extensions>
          <ns3:TrackPointExtension>
            <ns3:atemp>18.0</ns3:atemp>
          </ns3:TrackPointExtension>
        </extensions>
      </trkpt>
      <trkpt lat="42.49588320963084697723388671875" lon="19.99451628886163234710693359375">
        <ele>1826.5999755859375</ele>
        <time>2026-06-19T08:43:45.000Z</time>
        <extensions>
          <ns3:TrackPointExtension>
            <ns3:atemp>18.0</ns3:atemp>
          </ns3:TrackPointExtension>
        </extensions>
      </trkpt>
      <trkpt lat="42.49586426652967929840087890625" lon="19.99452567659318447113037109375">
        <ele>1826.5999755859375</ele>
        <time>2026-06-19T08:43:46.000Z</time>
        <extensions>
          <ns3:TrackPointExtension>
            <ns3:atemp>18.0</ns3:atemp>
          </ns3:TrackPointExtension>
        </extensions>
      </trkpt>
      <trkpt lat="42.4958449043333530426025390625" lon="19.9945379979908466339111328125">
        <ele>1826.800048828125</ele>
        <time>2026-06-19T08:43:47.000Z</time>
        <extensions>
          <ns3:TrackPointExtension>
            <ns3:atemp>18.0</ns3:atemp>
          </ns3:TrackPointExtension>
        </extensions>
      </trkpt>
      <trkpt lat="42.4958301521837711334228515625" lon="19.99455182813107967376708984375">
        <ele>1826.800048828125</ele>
        <time>2026-06-19T08:43:48.000Z</time>
        <extensions>
          <ns3:TrackPointExtension>
            <ns3:atemp>18.0</ns3:atemp>
          </ns3:TrackPointExtension>
        </extensions>
      </trkpt>
      <trkpt lat="42.495812885463237762451171875" lon="19.99456523917615413665771484375">
        <ele>1827.199951171875</ele>
        <time>2026-06-19T08:43:49.000Z</time>
        <extensions>
          <ns3:TrackPointExtension>
            <ns3:atemp>18.0</ns3:atemp>
          </ns3:TrackPointExtension>
        </extensions>
      </trkpt>
      <trkpt lat="42.495793439447879791259765625" lon="19.99457445926964282989501953125">
        <ele>1827.4000244140625</ele>
        <time>2026-06-19T08:43:50.000Z</time>
        <extensions>
          <ns3:TrackPointExtension>
            <ns3:atemp>18.0</ns3:atemp>
          </ns3:TrackPointExtension>
        </extensions>
      </trkpt>
      <trkpt lat="42.495778016746044158935546875" lon="19.994587115943431854248046875">
        <ele>1827.800048828125</ele>
        <time>2026-06-19T08:43:51.000Z</time>
        <extensions>
          <ns3:TrackPointExtension>
            <ns3:atemp>18.0</ns3:atemp>
          </ns3:TrackPointExtension>
        </extensions>
      </trkpt>
      <trkpt lat="42.49576100148260593414306640625" lon="19.99460480175912380218505859375">
        <ele>1828.199951171875</ele>
        <time>2026-06-19T08:43:52.000Z</time>
        <extensions>
          <ns3:TrackPointExtension>
            <ns3:atemp>18.0</ns3:atemp>
          </ns3:TrackPointExtension>
        </extensions>
      </trkpt>
      <trkpt lat="42.4957443214952945709228515625" lon="19.9946204759180545806884765625">
        <ele>1828.4000244140625</ele>
        <time>2026-06-19T08:43:53.000Z</time>
        <extensions>
          <ns3:TrackPointExtension>
            <ns3:atemp>18.0</ns3:atemp>
          </ns3:TrackPointExtension>
        </extensions>
      </trkpt>
      <trkpt lat="42.4957285635173320770263671875" lon="19.99463480897247791290283203125">
        <ele>1828.800048828125</ele>
        <time>2026-06-19T08:43:54.000Z</time>
        <extensions>
          <ns3:TrackPointExtension>
            <ns3:atemp>18.0</ns3:atemp>
          </ns3:TrackPointExtension>
        </extensions>
      </trkpt>
      <trkpt lat="42.49571154825389385223388671875" lon="19.99465375207364559173583984375">
        <ele>1829</ele>
        <time>2026-06-19T08:43:55.000Z</time>
        <extensions>
          <ns3:TrackPointExtension>
            <ns3:atemp>18.0</ns3:atemp>
          </ns3:TrackPointExtension>
        </extensions>
      </trkpt>
      <trkpt lat="42.49569361098110675811767578125" lon="19.99467453919351100921630859375">
        <ele>1829.4000244140625</ele>
        <time>2026-06-19T08:43:56.000Z</time>
        <extensions>
          <ns3:TrackPointExtension>
            <ns3:atemp>18.0</ns3:atemp>
          </ns3:TrackPointExtension>
        </extensions>
      </trkpt>
      <trkpt lat="42.49567617662250995635986328125" lon="19.99469163827598094940185546875">
        <ele>1829.5999755859375</ele>
        <time>2026-06-19T08:43:57.000Z</time>
        <extensions>
          <ns3:TrackPointExtension>
            <ns3:atemp>18.0</ns3:atemp>
          </ns3:TrackPointExtension>
        </extensions>
      </trkpt>
      <trkpt lat="42.49566075392067432403564453125" lon="19.99470748007297515869140625">
        <ele>1830</ele>
        <time>2026-06-19T08:43:58.000Z</time>
        <extensions>
          <ns3:TrackPointExtension>
            <ns3:atemp>18.0</ns3:atemp>
          </ns3:TrackPointExtension>
        </extensions>
      </trkpt>
      <trkpt lat="42.49564583413302898406982421875" lon="19.9947227351367473602294921875">
        <ele>1830.199951171875</ele>
        <time>2026-06-19T08:43:59.000Z</time>
        <extensions>
          <ns3:TrackPointExtension>
            <ns3:atemp>18.0</ns3:atemp>
          </ns3:TrackPointExtension>
        </extensions>
      </trkpt>
      <trkpt lat="42.49563074670732021331787109375" lon="19.9947344698011875152587890625">
        <ele>1830.5999755859375</ele>
        <time>2026-06-19T08:44:00.000Z</time>
        <extensions>
          <ns3:TrackPointExtension>
            <ns3:atemp>18.0</ns3:atemp>
          </ns3:TrackPointExtension>
        </extensions>
      </trkpt>
      <trkpt lat="42.49561515636742115020751953125" lon="19.99474863521754741668701171875">
        <ele>1830.800048828125</ele>
        <time>2026-06-19T08:44:01.000Z</time>
        <extensions>
          <ns3:TrackPointExtension>
            <ns3:atemp>18.0</ns3:atemp>
          </ns3:TrackPointExtension>
        </extensions>
      </trkpt>
      <trkpt lat="42.49559797346591949462890625" lon="19.99476389028131961822509765625">
        <ele>1831.199951171875</ele>
        <time>2026-06-19T08:44:02.000Z</time>
        <extensions>
          <ns3:TrackPointExtension>
            <ns3:atemp>18.0</ns3:atemp>
          </ns3:TrackPointExtension>
        </extensions>
      </trkpt>
      <trkpt lat="42.49558095820248126983642578125" lon="19.9947743676602840423583984375">
        <ele>1831.4000244140625</ele>
        <time>2026-06-19T08:44:03.000Z</time>
        <extensions>
          <ns3:TrackPointExtension>
            <ns3:atemp>18.0</ns3:atemp>
          </ns3:TrackPointExtension>
        </extensions>
      </trkpt>
      <trkpt lat="42.49556243419647216796875" lon="19.9947854317724704742431640625">
        <ele>1831.5999755859375</ele>
        <time>2026-06-19T08:44:04.000Z</time>
        <extensions>
          <ns3:TrackPointExtension>
            <ns3:atemp>18.0</ns3:atemp>
          </ns3:TrackPointExtension>
        </extensions>
      </trkpt>
      <trkpt lat="42.49554298818111419677734375" lon="19.99479691497981548309326171875">
        <ele>1831.800048828125</ele>
        <time>2026-06-19T08:44:05.000Z</time>
        <extensions>
          <ns3:TrackPointExtension>
            <ns3:atemp>18.0</ns3:atemp>
          </ns3:TrackPointExtension>
        </extensions>
      </trkpt>
      <trkpt lat="42.4955250509083271026611328125" lon="19.994808398187160491943359375">
        <ele>1832</ele>
        <time>2026-06-19T08:44:06.000Z</time>
        <extensions>
          <ns3:TrackPointExtension>
            <ns3:atemp>18.0</ns3:atemp>
          </ns3:TrackPointExtension>
        </extensions>
      </trkpt>
      <trkpt lat="42.49550568871200084686279296875" lon="19.99481988139450550079345703125">
        <ele>1832.4000244140625</ele>
        <time>2026-06-19T08:44:07.000Z</time>
        <extensions>
          <ns3:TrackPointExtension>
            <ns3:atemp>18.0</ns3:atemp>
          </ns3:TrackPointExtension>
        </extensions>
      </trkpt>
      <trkpt lat="42.49548473395407199859619140625" lon="19.9948286823928356170654296875">
        <ele>1832.4000244140625</ele>
        <time>2026-06-19T08:44:08.000Z</time>
        <extensions>
          <ns3:TrackPointExtension>
            <ns3:atemp>18.0</ns3:atemp>
          </ns3:TrackPointExtension>
        </extensions>
      </trkpt>
      <trkpt lat="42.49546579085290431976318359375" lon="19.99483211897313594818115234375">
        <ele>1832.5999755859375</ele>
        <time>2026-06-19T08:44:09.000Z</time>
        <extensions>
          <ns3:TrackPointExtension>
            <ns3:atemp>18.0</ns3:atemp>
          </ns3:TrackPointExtension>
        </extensions>
      </trkpt>
      <trkpt lat="42.49544349499046802520751953125" lon="19.99482549726963043212890625">
        <ele>1833</ele>
        <time>2026-06-19T08:44:10.000Z</time>
        <extensions>
          <ns3:TrackPointExtension>
            <ns3:atemp>18.0</ns3:atemp>
          </ns3:TrackPointExtension>
        </extensions>
      </trkpt>
      <trkpt lat="42.49542086385190486907958984375" lon="19.994814433157444000244140625">
        <ele>1833.199951171875</ele>
        <time>2026-06-19T08:44:11.000Z</time>
        <extensions>
          <ns3:TrackPointExtension>
            <ns3:atemp>18.0</ns3:atemp>
          </ns3:TrackPointExtension>
        </extensions>
      </trkpt>
      <trkpt lat="42.4953996576368808746337890625" lon="19.99480445869266986846923828125">
        <ele>1833.4000244140625</ele>
        <time>2026-06-19T08:44:12.000Z</time>
        <extensions>
          <ns3:TrackPointExtension>
            <ns3:atemp>18.0</ns3:atemp>
          </ns3:TrackPointExtension>
        </extensions>
      </trkpt>
      <trkpt lat="42.4953822232782840728759765625" lon="19.994795657694339752197265625">
        <ele>1833.5999755859375</ele>
        <time>2026-06-19T08:44:13.000Z</time>
        <extensions>
          <ns3:TrackPointExtension>
            <ns3:atemp>18.0</ns3:atemp>
          </ns3:TrackPointExtension>
        </extensions>
      </trkpt>
      <trkpt lat="42.495364956557750701904296875" lon="19.99478115700185298919677734375">
        <ele>1833.800048828125</ele>
        <time>2026-06-19T08:44:14.000Z</time>
        <extensions>
          <ns3:TrackPointExtension>
            <ns3:atemp>18.0</ns3:atemp>
          </ns3:TrackPointExtension>
        </extensions>
      </trkpt>
      <trkpt lat="42.4953510425984859466552734375" lon="19.9947606213390827178955078125">
        <ele>1834</ele>
        <time>2026-06-19T08:44:15.000Z</time>
        <extensions>
          <ns3:TrackPointExtension>
            <ns3:atemp>18.0</ns3:atemp>
          </ns3:TrackPointExtension>
        </extensions>
      </trkpt>
      <trkpt lat="42.4953366257250308990478515625" lon="19.9947398342192173004150390625">
        <ele>1834.199951171875</ele>
        <time>2026-06-19T08:44:16.000Z</time>
        <extensions>
          <ns3:TrackPointExtension>
            <ns3:atemp>18.0</ns3:atemp>
          </ns3:TrackPointExtension>
        </extensions>
      </trkpt>
      <trkpt lat="42.49532438814640045166015625" lon="19.99471628107130527496337890625">
        <ele>1834.4000244140625</ele>
        <time>2026-06-19T08:44:17.000Z</time>
        <extensions>
          <ns3:TrackPointExtension>
            <ns3:atemp>18.0</ns3:atemp>
          </ns3:TrackPointExtension>
        </extensions>
      </trkpt>
      <trkpt lat="42.49531240202486515045166015625" lon="19.99469649977982044219970703125">
        <ele>1834.5999755859375</ele>
        <time>2026-06-19T08:44:18.000Z</time>
        <extensions>
          <ns3:TrackPointExtension>
            <ns3:atemp>18.0</ns3:atemp>
          </ns3:TrackPointExtension>
        </extensions>
      </trkpt>
      <trkpt lat="42.49530117027461528778076171875" lon="19.9946747906506061553955078125">
        <ele>1835</ele>
        <time>2026-06-19T08:44:19.000Z</time>
        <extensions>
          <ns3:TrackPointExtension>
            <ns3:atemp>18.0</ns3:atemp>
          </ns3:TrackPointExtension>
        </extensions>
      </trkpt>
      <trkpt lat="42.49528893269598484039306640625" lon="19.99465241096913814544677734375">
        <ele>1835.199951171875</ele>
        <time>2026-06-19T08:44:20.000Z</time>
        <extensions>
          <ns3:TrackPointExtension>
            <ns3:atemp>18.0</ns3:atemp>
          </ns3:TrackPointExtension>
        </extensions>
      </trkpt>
      <trkpt lat="42.49527652747929096221923828125" lon="19.9946276843547821044921875">
        <ele>1835.4000244140625</ele>
        <time>2026-06-19T08:44:21.000Z</time>
        <extensions>
          <ns3:TrackPointExtension>
            <ns3:atemp>18.0</ns3:atemp>
          </ns3:TrackPointExtension>
        </extensions>
      </trkpt>
      <trkpt lat="42.49526278115808963775634765625" lon="19.99460681341588497161865234375">
        <ele>1835.5999755859375</ele>
        <time>2026-06-19T08:44:22.000Z</time>
        <extensions>
          <ns3:TrackPointExtension>
            <ns3:atemp>18.0</ns3:atemp>
          </ns3:TrackPointExtension>
        </extensions>
      </trkpt>
      <trkpt lat="42.495246268808841705322265625" lon="19.9945856072008609771728515625">
        <ele>1835.5999755859375</ele>
        <time>2026-06-19T08:44:23.000Z</time>
        <extensions>
          <ns3:TrackPointExtension>
            <ns3:atemp>18.0</ns3:atemp>
          </ns3:TrackPointExtension>
        </extensions>
      </trkpt>
      <trkpt lat="42.49523461796343326568603515625" lon="19.99456691555678844451904296875">
        <ele>1835.800048828125</ele>
        <time>2026-06-19T08:44:24.000Z</time>
        <extensions>
          <ns3:TrackPointExtension>
            <ns3:atemp>18.0</ns3:atemp>
          </ns3:TrackPointExtension>
        </extensions>
      </trkpt>
      <trkpt lat="42.49522573314607143402099609375" lon="19.9945487268269062042236328125">
        <ele>1836</ele>
        <time>2026-06-19T08:44:25.000Z</time>
        <extensions>
          <ns3:TrackPointExtension>
            <ns3:atemp>18.0</ns3:atemp>
          </ns3:TrackPointExtension>
        </extensions>
      </trkpt>
      <trkpt lat="42.49521735124289989471435546875" lon="19.994530789554119110107421875">
        <ele>1836.199951171875</ele>
        <time>2026-06-19T08:44:26.000Z</time>
        <extensions>
          <ns3:TrackPointExtension>
            <ns3:atemp>18.0</ns3:atemp>
          </ns3:TrackPointExtension>
        </extensions>
      </trkpt>
      <trkpt lat="42.4952062033116817474365234375" lon="19.994510002434253692626953125">
        <ele>1836.5999755859375</ele>
        <time>2026-06-19T08:44:27.000Z</time>
        <extensions>
          <ns3:TrackPointExtension>
            <ns3:atemp>18.0</ns3:atemp>
          </ns3:TrackPointExtension>
        </extensions>
      </trkpt>
      <trkpt lat="42.49519622884690761566162109375" lon="19.99449164606630802154541015625">
        <ele>1836.800048828125</ele>
        <time>2026-06-19T08:44:28.000Z</time>
        <extensions>
          <ns3:TrackPointExtension>
            <ns3:atemp>18.0</ns3:atemp>
          </ns3:TrackPointExtension>
        </extensions>
      </trkpt>
      <trkpt lat="42.4951880984008312225341796875" lon="19.99447102658450603485107421875">
        <ele>1836.800048828125</ele>
        <time>2026-06-19T08:44:29.000Z</time>
        <extensions>
          <ns3:TrackPointExtension>
            <ns3:atemp>18.0</ns3:atemp>
          </ns3:TrackPointExtension>
        </extensions>
      </trkpt>
      <trkpt lat="42.4951777048408985137939453125" lon="19.99444638378918170928955078125">
        <ele>1837.199951171875</ele>
        <time>2026-06-19T08:44:30.000Z</time>
        <extensions>
          <ns3:TrackPointExtension>
            <ns3:atemp>18.0</ns3:atemp>
          </ns3:TrackPointExtension>
        </extensions>
      </trkpt>
      <trkpt lat="42.49516773037612438201904296875" lon="19.99442626722157001495361328125">
        <ele>1837.4000244140625</ele>
        <time>2026-06-19T08:44:31.000Z</time>
        <extensions>
          <ns3:TrackPointExtension>
            <ns3:atemp>18.0</ns3:atemp>
          </ns3:TrackPointExtension>
        </extensions>
      </trkpt>
      <trkpt lat="42.4951585941016674041748046875" lon="19.99440983869135379791259765625">
        <ele>1837.5999755859375</ele>
        <time>2026-06-19T08:44:32.000Z</time>
        <extensions>
          <ns3:TrackPointExtension>
            <ns3:atemp>18.0</ns3:atemp>
          </ns3:TrackPointExtension>
        </extensions>
      </trkpt>
      <trkpt lat="42.4951512180268764495849609375" lon="19.99438762664794921875">
        <ele>1837.800048828125</ele>
        <time>2026-06-19T08:44:33.000Z</time>
        <extensions>
          <ns3:TrackPointExtension>
            <ns3:atemp>18.0</ns3:atemp>
          </ns3:TrackPointExtension>
        </extensions>
      </trkpt>
      <trkpt lat="42.4951438419520854949951171875" lon="19.99436792917549610137939453125">
        <ele>1838.199951171875</ele>
        <time>2026-06-19T08:44:34.000Z</time>
        <extensions>
          <ns3:TrackPointExtension>
            <ns3:atemp>18.0</ns3:atemp>
          </ns3:TrackPointExtension>
        </extensions>
      </trkpt>
      <trkpt lat="42.495134957134723663330078125" lon="19.99434697441756725311279296875">
        <ele>1838.4000244140625</ele>
        <time>2026-06-19T08:44:35.000Z</time>
        <extensions>
          <ns3:TrackPointExtension>
            <ns3:atemp>18.0</ns3:atemp>
          </ns3:TrackPointExtension>
        </extensions>
      </trkpt>
      <trkpt lat="42.49512548558413982391357421875" lon="19.994324259459972381591796875">
        <ele>1838.800048828125</ele>
        <time>2026-06-19T08:44:36.000Z</time>
        <extensions>
          <ns3:TrackPointExtension>
            <ns3:atemp>18.0</ns3:atemp>
          </ns3:TrackPointExtension>
        </extensions>
      </trkpt>
      <trkpt lat="42.495115511119365692138671875" lon="19.9943016283214092254638671875">
        <ele>1839</ele>
        <time>2026-06-19T08:44:37.000Z</time>
        <extensions>
          <ns3:TrackPointExtension>
            <ns3:atemp>18.0</ns3:atemp>
          </ns3:TrackPointExtension>
        </extensions>
      </trkpt>
      <trkpt lat="42.49510235153138637542724609375" lon="19.9942795000970363616943359375">
        <ele>1839.199951171875</ele>
        <time>2026-06-19T08:44:38.000Z</time>
        <extensions>
          <ns3:TrackPointExtension>
            <ns3:atemp>18.0</ns3:atemp>
          </ns3:TrackPointExtension>
        </extensions>
      </trkpt>
      <trkpt lat="42.49508835375308990478515625" lon="19.9942660890519618988037109375">
        <ele>1839.4000244140625</ele>
        <time>2026-06-19T08:44:39.000Z</time>
        <extensions>
          <ns3:TrackPointExtension>
            <ns3:atemp>18.0</ns3:atemp>
          </ns3:TrackPointExtension>
        </extensions>
      </trkpt>
      <trkpt lat="42.495077960193157196044921875" lon="19.994251839816570281982421875">
        <ele>1839.800048828125</ele>
        <time>2026-06-19T08:44:40.000Z</time>
        <extensions>
          <ns3:TrackPointExtension>
            <ns3:atemp>18.0</ns3:atemp>
          </ns3:TrackPointExtension>
        </extensions>
      </trkpt>
      <trkpt lat="42.495067231357097625732421875" lon="19.99423675239086151123046875">
        <ele>1840.199951171875</ele>
        <time>2026-06-19T08:44:41.000Z</time>
        <extensions>
          <ns3:TrackPointExtension>
            <ns3:atemp>18.0</ns3:atemp>
          </ns3:TrackPointExtension>
        </extensions>
      </trkpt>
      <trkpt lat="42.49505725689232349395751953125" lon="19.99422443099319934844970703125">
        <ele>1840.800048828125</ele>
        <time>2026-06-19T08:44:42.000Z</time>
        <extensions>
          <ns3:TrackPointExtension>
            <ns3:atemp>18.0</ns3:atemp>
          </ns3:TrackPointExtension>
        </extensions>
      </trkpt>
      <trkpt lat="42.4950486235320568084716796875" lon="19.994207918643951416015625">
        <ele>1840.800048828125</ele>
        <time>2026-06-19T08:44:43.000Z</time>
        <extensions>
          <ns3:TrackPointExtension>
            <ns3:atemp>18.0</ns3:atemp>
          </ns3:TrackPointExtension>
        </extensions>
      </trkpt>
      <trkpt lat="42.49503831379115581512451171875" lon="19.9941929988563060760498046875">
        <ele>1841</ele>
        <time>2026-06-19T08:44:44.000Z</time>
        <extensions>
          <ns3:TrackPointExtension>
            <ns3:atemp>18.0</ns3:atemp>
          </ns3:TrackPointExtension>
        </extensions>
      </trkpt>
      <trkpt lat="42.49502792023122310638427734375" lon="19.994178749620914459228515625">
        <ele>1841.4000244140625</ele>
        <time>2026-06-19T08:44:45.000Z</time>
        <extensions>
          <ns3:TrackPointExtension>
            <ns3:atemp>18.0</ns3:atemp>
          </ns3:TrackPointExtension>
        </extensions>
      </trkpt>
      <trkpt lat="42.49501568265259265899658203125" lon="19.9941648356616497039794921875">
        <ele>1841.800048828125</ele>
        <time>2026-06-19T08:44:46.000Z</time>
        <extensions>
          <ns3:TrackPointExtension>
            <ns3:atemp>18.0</ns3:atemp>
          </ns3:TrackPointExtension>
        </extensions>
      </trkpt>
      <trkpt lat="42.49500243924558162689208984375" lon="19.994153268635272979736328125">
        <ele>1842.199951171875</ele>
        <time>2026-06-19T08:44:47.000Z</time>
        <extensions>
          <ns3:TrackPointExtension>
            <ns3:atemp>18.0</ns3:atemp>
          </ns3:TrackPointExtension>
        </extensions>
      </trkpt>
      <trkpt lat="42.4949902854859828948974609375" lon="19.994143545627593994140625">
        <ele>1842.4000244140625</ele>
        <time>2026-06-19T08:44:48.000Z</time>
        <extensions>
          <ns3:TrackPointExtension>
            <ns3:atemp>18.0</ns3:atemp>
          </ns3:TrackPointExtension>
        </extensions>
      </trkpt>
      <trkpt lat="42.49497511424124240875244140625" lon="19.9941370077431201934814453125">
        <ele>1842.5999755859375</ele>
        <time>2026-06-19T08:44:49.000Z</time>
        <extensions>
          <ns3:TrackPointExtension>
            <ns3:atemp>18.0</ns3:atemp>
          </ns3:TrackPointExtension>
        </extensions>
      </trkpt>
      <trkpt lat="42.494960613548755645751953125" lon="19.9941309727728366851806640625">
        <ele>1842.800048828125</ele>
        <time>2026-06-19T08:44:50.000Z</time>
        <extensions>
          <ns3:TrackPointExtension>
            <ns3:atemp>18.0</ns3:atemp>
          </ns3:TrackPointExtension>
        </extensions>
      </trkpt>
      <trkpt lat="42.494943849742412567138671875" lon="19.99413088895380496978759765625">
        <ele>1843</ele>
        <time>2026-06-19T08:44:51.000Z</time>
        <extensions>
          <ns3:TrackPointExtension>
            <ns3:atemp>18.0</ns3:atemp>
          </ns3:TrackPointExtension>
        </extensions>
      </trkpt>
      <trkpt lat="42.49492700211703777313232421875" lon="19.994135834276676177978515625">
        <ele>1843.199951171875</ele>
        <time>2026-06-19T08:44:52.000Z</time>
        <extensions>
          <ns3:TrackPointExtension>
            <ns3:atemp>18.0</ns3:atemp>
          </ns3:TrackPointExtension>
        </extensions>
      </trkpt>
      <trkpt lat="42.494910657405853271484375" lon="19.99414161778986454010009765625">
        <ele>1843.4000244140625</ele>
        <time>2026-06-19T08:44:53.000Z</time>
        <extensions>
          <ns3:TrackPointExtension>
            <ns3:atemp>18.0</ns3:atemp>
          </ns3:TrackPointExtension>
        </extensions>
      </trkpt>
      <trkpt lat="42.49489414505660533905029296875" lon="19.99414362944662570953369140625">
        <ele>1843.800048828125</ele>
        <time>2026-06-19T08:44:54.000Z</time>
        <extensions>
          <ns3:TrackPointExtension>
            <ns3:atemp>18.0</ns3:atemp>
          </ns3:TrackPointExtension>
        </extensions>
      </trkpt>
      <trkpt lat="42.4948783032596111297607421875" lon="19.9941484071314334869384765625">
        <ele>1844.199951171875</ele>
        <time>2026-06-19T08:44:55.000Z</time>
        <extensions>
          <ns3:TrackPointExtension>
            <ns3:atemp>18.0</ns3:atemp>
          </ns3:TrackPointExtension>
        </extensions>
      </trkpt>
      <trkpt lat="42.4948622100055217742919921875" lon="19.99415184371173381805419921875">
        <ele>1844.4000244140625</ele>
        <time>2026-06-19T08:44:56.000Z</time>
        <extensions>
          <ns3:TrackPointExtension>
            <ns3:atemp>18.0</ns3:atemp>
          </ns3:TrackPointExtension>
        </extensions>
      </trkpt>
      <trkpt lat="42.49484536238014698028564453125" lon="19.9941534362733364105224609375">
        <ele>1844.800048828125</ele>
        <time>2026-06-19T08:44:57.000Z</time>
        <extensions>
          <ns3:TrackPointExtension>
            <ns3:atemp>18.0</ns3:atemp>
          </ns3:TrackPointExtension>
        </extensions>
      </trkpt>
      <trkpt lat="42.49482859857380390167236328125" lon="19.9941556155681610107421875">
        <ele>1845</ele>
        <time>2026-06-19T08:44:58.000Z</time>
        <extensions>
          <ns3:TrackPointExtension>
            <ns3:atemp>18.0</ns3:atemp>
          </ns3:TrackPointExtension>
        </extensions>
      </trkpt>
      <trkpt lat="42.49481250531971454620361328125" lon="19.99415486119687557220458984375">
        <ele>1845.4000244140625</ele>
        <time>2026-06-19T08:44:59.000Z</time>
        <extensions>
          <ns3:TrackPointExtension>
            <ns3:atemp>18.0</ns3:atemp>
          </ns3:TrackPointExtension>
        </extensions>
      </trkpt>
      <trkpt lat="42.4947939813137054443359375" lon="19.99415385536849498748779296875">
        <ele>1845.5999755859375</ele>
        <time>2026-06-19T08:45:00.000Z</time>
        <extensions>
          <ns3:TrackPointExtension>
            <ns3:atemp>18.0</ns3:atemp>
          </ns3:TrackPointExtension>
        </extensions>
      </trkpt>
      <trkpt lat="42.494775541126728057861328125" lon="19.99415201134979724884033203125">
        <ele>1846</ele>
        <time>2026-06-19T08:45:01.000Z</time>
        <extensions>
          <ns3:TrackPointExtension>
            <ns3:atemp>18.0</ns3:atemp>
          </ns3:TrackPointExtension>
        </extensions>
      </trkpt>
      <trkpt lat="42.4947582744061946868896484375" lon="19.9941531009972095489501953125">
        <ele>1846.199951171875</ele>
        <time>2026-06-19T08:45:02.000Z</time>
        <extensions>
          <ns3:TrackPointExtension>
            <ns3:atemp>18.0</ns3:atemp>
          </ns3:TrackPointExtension>
        </extensions>
      </trkpt>
      <trkpt lat="42.49473941512405872344970703125" lon="19.9941634945571422576904296875">
        <ele>1846.4000244140625</ele>
        <time>2026-06-19T08:45:03.000Z</time>
        <extensions>
          <ns3:TrackPointExtension>
            <ns3:atemp>18.0</ns3:atemp>
          </ns3:TrackPointExtension>
        </extensions>
      </trkpt>
      <trkpt lat="42.4947188794612884521484375" lon="19.99416491948068141937255859375">
        <ele>1846.5999755859375</ele>
        <time>2026-06-19T08:45:04.000Z</time>
        <extensions>
          <ns3:TrackPointExtension>
            <ns3:atemp>18.0</ns3:atemp>
          </ns3:TrackPointExtension>
        </extensions>
      </trkpt>
      <trkpt lat="42.49469968490302562713623046875" lon="19.99416206963360309600830078125">
        <ele>1846.800048828125</ele>
        <time>2026-06-19T08:45:05.000Z</time>
        <extensions>
          <ns3:TrackPointExtension>
            <ns3:atemp>18.0</ns3:atemp>
          </ns3:TrackPointExtension>
        </extensions>
      </trkpt>
      <trkpt lat="42.49468308873474597930908203125" lon="19.99414966441690921783447265625">
        <ele>1847</ele>
        <time>2026-06-19T08:45:06.000Z</time>
        <extensions>
          <ns3:TrackPointExtension>
            <ns3:atemp>18.0</ns3:atemp>
          </ns3:TrackPointExtension>
        </extensions>
      </trkpt>
      <trkpt lat="42.49466448090970516204833984375" lon="19.99413751065731048583984375">
        <ele>1847.199951171875</ele>
        <time>2026-06-19T08:45:07.000Z</time>
        <extensions>
          <ns3:TrackPointExtension>
            <ns3:atemp>18.0</ns3:atemp>
          </ns3:TrackPointExtension>
        </extensions>
      </trkpt>
      <trkpt lat="42.49464134685695171356201171875" lon="19.99412946403026580810546875">
        <ele>1847.199951171875</ele>
        <time>2026-06-19T08:45:08.000Z</time>
        <extensions>
          <ns3:TrackPointExtension>
            <ns3:atemp>18.0</ns3:atemp>
          </ns3:TrackPointExtension>
        </extensions>
      </trkpt>
      <trkpt lat="42.494619302451610565185546875" lon="19.99412820674479007720947265625">
        <ele>1847.4000244140625</ele>
        <time>2026-06-19T08:45:09.000Z</time>
        <extensions>
          <ns3:TrackPointExtension>
            <ns3:atemp>18.0</ns3:atemp>
          </ns3:TrackPointExtension>
        </extensions>
      </trkpt>
      <trkpt lat="42.4945973418653011322021484375" lon="19.9941276200115680694580078125">
        <ele>1847.5999755859375</ele>
        <time>2026-06-19T08:45:10.000Z</time>
        <extensions>
          <ns3:TrackPointExtension>
            <ns3:atemp>18.0</ns3:atemp>
          </ns3:TrackPointExtension>
        </extensions>
      </trkpt>
      <trkpt lat="42.49457546509802341461181640625" lon="19.99412518925964832305908203125">
        <ele>1847.800048828125</ele>
        <time>2026-06-19T08:45:11.000Z</time>
        <extensions>
          <ns3:TrackPointExtension>
            <ns3:atemp>18.0</ns3:atemp>
          </ns3:TrackPointExtension>
        </extensions>
      </trkpt>
      <trkpt lat="42.494552917778491973876953125" lon="19.99412217177450656890869140625">
        <ele>1848.199951171875</ele>
        <time>2026-06-19T08:45:12.000Z</time>
        <extensions>
          <ns3:TrackPointExtension>
            <ns3:atemp>18.0</ns3:atemp>
          </ns3:TrackPointExtension>
        </extensions>
      </trkpt>
      <trkpt lat="42.49453053809702396392822265625" lon="19.9941189028322696685791015625">
        <ele>1848.4000244140625</ele>
        <time>2026-06-19T08:45:13.000Z</time>
        <extensions>
          <ns3:TrackPointExtension>
            <ns3:atemp>18.0</ns3:atemp>
          </ns3:TrackPointExtension>
        </extensions>
      </trkpt>
      <trkpt lat="42.4945058114826679229736328125" lon="19.9941125325858592987060546875">
        <ele>1848.5999755859375</ele>
        <time>2026-06-19T08:45:14.000Z</time>
        <extensions>
          <ns3:TrackPointExtension>
            <ns3:atemp>18.0</ns3:atemp>
          </ns3:TrackPointExtension>
        </extensions>
      </trkpt>
      <trkpt lat="42.4944810010492801666259765625" lon="19.99410775490105152130126953125">
        <ele>1848.800048828125</ele>
        <time>2026-06-19T08:45:15.000Z</time>
        <extensions>
          <ns3:TrackPointExtension>
            <ns3:atemp>18.0</ns3:atemp>
          </ns3:TrackPointExtension>
        </extensions>
      </trkpt>
      <trkpt lat="42.49445694498717784881591796875" lon="19.99410389922559261322021484375">
        <ele>1849</ele>
        <time>2026-06-19T08:45:16.000Z</time>
        <extensions>
          <ns3:TrackPointExtension>
            <ns3:atemp>18.0</ns3:atemp>
          </ns3:TrackPointExtension>
        </extensions>
      </trkpt>
      <trkpt lat="42.4944305419921875" lon="19.99410004355013370513916015625">
        <ele>1849.199951171875</ele>
        <time>2026-06-19T08:45:17.000Z</time>
        <extensions>
          <ns3:TrackPointExtension>
            <ns3:atemp>18.0</ns3:atemp>
          </ns3:TrackPointExtension>
        </extensions>
      </trkpt>
      <trkpt lat="42.494406402111053466796875" lon="19.99409652315080165863037109375">
        <ele>1849.199951171875</ele>
        <time>2026-06-19T08:45:18.000Z</time>
        <extensions>
          <ns3:TrackPointExtension>
            <ns3:atemp>18.0</ns3:atemp>
          </ns3:TrackPointExtension>
        </extensions>
      </trkpt>
      <trkpt lat="42.49438167549669742584228515625" lon="19.99409258365631103515625">
        <ele>1849.4000244140625</ele>
        <time>2026-06-19T08:45:19.000Z</time>
        <extensions>
          <ns3:TrackPointExtension>
            <ns3:atemp>18.0</ns3:atemp>
          </ns3:TrackPointExtension>
        </extensions>
      </trkpt>
      <trkpt lat="42.4943554401397705078125" lon="19.9940934218466281890869140625">
        <ele>1849.5999755859375</ele>
        <time>2026-06-19T08:45:20.000Z</time>
        <extensions>
          <ns3:TrackPointExtension>
            <ns3:atemp>18.0</ns3:atemp>
          </ns3:TrackPointExtension>
        </extensions>
      </trkpt>
      <trkpt lat="42.494330294430255889892578125" lon="19.99409995973110198974609375">
        <ele>1849.800048828125</ele>
        <time>2026-06-19T08:45:21.000Z</time>
        <extensions>
          <ns3:TrackPointExtension>
            <ns3:atemp>18.0</ns3:atemp>
          </ns3:TrackPointExtension>
        </extensions>
      </trkpt>
      <trkpt lat="42.49430456198751926422119140625" lon="19.99410406686365604400634765625">
        <ele>1849.800048828125</ele>
        <time>2026-06-19T08:45:22.000Z</time>
        <extensions>
          <ns3:TrackPointExtension>
            <ns3:atemp>18.0</ns3:atemp>
          </ns3:TrackPointExtension>
        </extensions>
      </trkpt>
      <trkpt lat="42.49428243376314640045166015625" lon="19.99410524033010005950927734375">
        <ele>1850</ele>
        <time>2026-06-19T08:45:23.000Z</time>
        <extensions>
          <ns3:TrackPointExtension>
            <ns3:atemp>18.0</ns3:atemp>
          </ns3:TrackPointExtension>
        </extensions>
      </trkpt>
      <trkpt lat="42.494258545339107513427734375" lon="19.99410524033010005950927734375">
        <ele>1850.199951171875</ele>
        <time>2026-06-19T08:45:24.000Z</time>
        <extensions>
          <ns3:TrackPointExtension>
            <ns3:atemp>18.0</ns3:atemp>
          </ns3:TrackPointExtension>
        </extensions>
      </trkpt>
      <trkpt lat="42.49423365108668804168701171875" lon="19.99410540796816349029541015625">
        <ele>1850.199951171875</ele>
        <time>2026-06-19T08:45:25.000Z</time>
        <extensions>
          <ns3:TrackPointExtension>
            <ns3:atemp>18.0</ns3:atemp>
          </ns3:TrackPointExtension>
        </extensions>
      </trkpt>
      <trkpt lat="42.4942070804536342620849609375" lon="19.99411161057651042938232421875">
        <ele>1850.4000244140625</ele>
        <time>2026-06-19T08:45:26.000Z</time>
        <extensions>
          <ns3:TrackPointExtension>
            <ns3:atemp>18.0</ns3:atemp>
          </ns3:TrackPointExtension>
        </extensions>
      </trkpt>
      <trkpt lat="42.49418042600154876708984375" lon="19.99411781318485736846923828125">
        <ele>1850.4000244140625</ele>
        <time>2026-06-19T08:45:27.000Z</time>
        <extensions>
          <ns3:TrackPointExtension>
            <ns3:atemp>18.0</ns3:atemp>
          </ns3:TrackPointExtension>
        </extensions>
      </trkpt>
      <trkpt lat="42.494153939187526702880859375" lon="19.99412217177450656890869140625">
        <ele>1850.5999755859375</ele>
        <time>2026-06-19T08:45:28.000Z</time>
        <extensions>
          <ns3:TrackPointExtension>
            <ns3:atemp>18.0</ns3:atemp>
          </ns3:TrackPointExtension>
        </extensions>
      </trkpt>
      <trkpt lat="42.4941289611160755157470703125" lon="19.99413223005831241607666015625">
        <ele>1850.800048828125</ele>
        <time>2026-06-19T08:45:29.000Z</time>
        <extensions>
          <ns3:TrackPointExtension>
            <ns3:atemp>18.0</ns3:atemp>
          </ns3:TrackPointExtension>
        </extensions>
      </trkpt>
      <trkpt lat="42.494103647768497467041015625" lon="19.9941475689411163330078125">
        <ele>1851</ele>
        <time>2026-06-19T08:45:30.000Z</time>
        <extensions>
          <ns3:TrackPointExtension>
            <ns3:atemp>18.0</ns3:atemp>
          </ns3:TrackPointExtension>
        </extensions>
      </trkpt>
      <trkpt lat="42.49407774768769741058349609375" lon="19.9941588006913661956787109375">
        <ele>1851.199951171875</ele>
        <time>2026-06-19T08:45:31.000Z</time>
        <extensions>
          <ns3:TrackPointExtension>
            <ns3:atemp>18.0</ns3:atemp>
          </ns3:TrackPointExtension>
        </extensions>
      </trkpt>
      <trkpt lat="42.49405209906399250030517578125" lon="19.99416357837617397308349609375">
        <ele>1851.199951171875</ele>
        <time>2026-06-19T08:45:32.000Z</time>
        <extensions>
          <ns3:TrackPointExtension>
            <ns3:atemp>18.0</ns3:atemp>
          </ns3:TrackPointExtension>
        </extensions>
      </trkpt>
      <trkpt lat="42.49402896501123905181884765625" lon="19.994165338575839996337890625">
        <ele>1851.4000244140625</ele>
        <time>2026-06-19T08:45:33.000Z</time>
        <extensions>
          <ns3:TrackPointExtension>
            <ns3:atemp>18.0</ns3:atemp>
          </ns3:TrackPointExtension>
        </extensions>
      </trkpt>
      <trkpt lat="42.4940080940723419189453125" lon="19.9941722117364406585693359375">
        <ele>1851.5999755859375</ele>
        <time>2026-06-19T08:45:34.000Z</time>
        <extensions>
          <ns3:TrackPointExtension>
            <ns3:atemp>18.0</ns3:atemp>
          </ns3:TrackPointExtension>
        </extensions>
      </trkpt>
      <trkpt lat="42.49398537911474704742431640625" lon="19.9941815994679927825927734375">
        <ele>1851.800048828125</ele>
        <time>2026-06-19T08:45:35.000Z</time>
        <extensions>
          <ns3:TrackPointExtension>
            <ns3:atemp>18.0</ns3:atemp>
          </ns3:TrackPointExtension>
        </extensions>
      </trkpt>
      <trkpt lat="42.49396392144262790679931640625" lon="19.99418570660054683685302734375">
        <ele>1852</ele>
        <time>2026-06-19T08:45:36.000Z</time>
        <extensions>
          <ns3:TrackPointExtension>
            <ns3:atemp>18.0</ns3:atemp>
          </ns3:TrackPointExtension>
        </extensions>
      </trkpt>
      <trkpt lat="42.4939438886940479278564453125" lon="19.99419157393276691436767578125">
        <ele>1852.199951171875</ele>
        <time>2026-06-19T08:45:37.000Z</time>
        <extensions>
          <ns3:TrackPointExtension>
            <ns3:atemp>18.0</ns3:atemp>
          </ns3:TrackPointExtension>
        </extensions>
      </trkpt>
      <trkpt lat="42.49392335303127765655517578125" lon="19.9942013807594776153564453125">
        <ele>1852.4000244140625</ele>
        <time>2026-06-19T08:45:38.000Z</time>
        <extensions>
          <ns3:TrackPointExtension>
            <ns3:atemp>18.0</ns3:atemp>
          </ns3:TrackPointExtension>
        </extensions>
      </trkpt>
      <trkpt lat="42.493901140987873077392578125" lon="19.99421261250972747802734375">
        <ele>1852.5999755859375</ele>
        <time>2026-06-19T08:45:39.000Z</time>
        <extensions>
          <ns3:TrackPointExtension>
            <ns3:atemp>18.0</ns3:atemp>
          </ns3:TrackPointExtension>
        </extensions>
      </trkpt>
      <trkpt lat="42.4938801862299442291259765625" lon="19.994223676621913909912109375">
        <ele>1852.800048828125</ele>
        <time>2026-06-19T08:45:40.000Z</time>
        <extensions>
          <ns3:TrackPointExtension>
            <ns3:atemp>18.0</ns3:atemp>
          </ns3:TrackPointExtension>
        </extensions>
      </trkpt>
      <trkpt lat="42.4938597343862056732177734375" lon="19.9942355789244174957275390625">
        <ele>1853.199951171875</ele>
        <time>2026-06-19T08:45:41.000Z</time>
        <extensions>
          <ns3:TrackPointExtension>
            <ns3:atemp>18.0</ns3:atemp>
          </ns3:TrackPointExtension>
        </extensions>
      </trkpt>
      <trkpt lat="42.493840120732784271240234375" lon="19.994243793189525604248046875">
        <ele>1853.4000244140625</ele>
        <time>2026-06-19T08:45:42.000Z</time>
        <extensions>
          <ns3:TrackPointExtension>
            <ns3:atemp>18.0</ns3:atemp>
          </ns3:TrackPointExtension>
        </extensions>
      </trkpt>
      <trkpt lat="42.49382100999355316162109375" lon="19.9942481517791748046875">
        <ele>1853.5999755859375</ele>
        <time>2026-06-19T08:45:43.000Z</time>
        <extensions>
          <ns3:TrackPointExtension>
            <ns3:atemp>18.0</ns3:atemp>
          </ns3:TrackPointExtension>
        </extensions>
      </trkpt>
      <trkpt lat="42.493801228702068328857421875" lon="19.9942526780068874359130859375">
        <ele>1853.800048828125</ele>
        <time>2026-06-19T08:45:44.000Z</time>
        <extensions>
          <ns3:TrackPointExtension>
            <ns3:atemp>18.0</ns3:atemp>
          </ns3:TrackPointExtension>
        </extensions>
      </trkpt>
      <trkpt lat="42.49378270469605922698974609375" lon="19.99425552785396575927734375">
        <ele>1854</ele>
        <time>2026-06-19T08:45:45.000Z</time>
        <extensions>
          <ns3:TrackPointExtension>
            <ns3:atemp>18.0</ns3:atemp>
          </ns3:TrackPointExtension>
        </extensions>
      </trkpt>
      <trkpt lat="42.49376409687101840972900390625" lon="19.9942602217197418212890625">
        <ele>1854.4000244140625</ele>
        <time>2026-06-19T08:45:46.000Z</time>
        <extensions>
          <ns3:TrackPointExtension>
            <ns3:atemp>18.0</ns3:atemp>
          </ns3:TrackPointExtension>
        </extensions>
      </trkpt>
      <trkpt lat="42.4937447346746921539306640625" lon="19.9942677654325962066650390625">
        <ele>1854.5999755859375</ele>
        <time>2026-06-19T08:45:47.000Z</time>
        <extensions>
          <ns3:TrackPointExtension>
            <ns3:atemp>18.0</ns3:atemp>
          </ns3:TrackPointExtension>
        </extensions>
      </trkpt>
      <trkpt lat="42.49372780323028564453125" lon="19.99427874572575092315673828125">
        <ele>1855</ele>
        <time>2026-06-19T08:45:48.000Z</time>
        <extensions>
          <ns3:TrackPointExtension>
            <ns3:atemp>18.0</ns3:atemp>
          </ns3:TrackPointExtension>
        </extensions>
      </trkpt>
      <trkpt lat="42.49371246434748172760009765625" lon="19.994284696877002716064453125">
        <ele>1855.199951171875</ele>
        <time>2026-06-19T08:45:49.000Z</time>
        <extensions>
          <ns3:TrackPointExtension>
            <ns3:atemp>18.0</ns3:atemp>
          </ns3:TrackPointExtension>
        </extensions>
      </trkpt>
      <trkpt lat="42.493695281445980072021484375" lon="19.99429182149469852447509765625">
        <ele>1855.4000244140625</ele>
        <time>2026-06-19T08:45:50.000Z</time>
        <extensions>
          <ns3:TrackPointExtension>
            <ns3:atemp>18.0</ns3:atemp>
          </ns3:TrackPointExtension>
        </extensions>
      </trkpt>
      <trkpt lat="42.49367206357419490814208984375" lon="19.99429718591272830963134765625">
        <ele>1855.800048828125</ele>
        <time>2026-06-19T08:45:51.000Z</time>
        <extensions>
          <ns3:TrackPointExtension>
            <ns3:atemp>18.0</ns3:atemp>
          </ns3:TrackPointExtension>
        </extensions>
      </trkpt>
      <trkpt lat="42.49365144409239292144775390625" lon="19.99430389143526554107666015625">
        <ele>1856</ele>
        <time>2026-06-19T08:45:52.000Z</time>
        <extensions>
          <ns3:TrackPointExtension>
            <ns3:atemp>18.0</ns3:atemp>
          </ns3:TrackPointExtension>
        </extensions>
      </trkpt>
      <trkpt lat="42.49363325536251068115234375" lon="19.99430690892040729522705078125">
        <ele>1856.4000244140625</ele>
        <time>2026-06-19T08:45:53.000Z</time>
        <extensions>
          <ns3:TrackPointExtension>
            <ns3:atemp>18.0</ns3:atemp>
          </ns3:TrackPointExtension>
        </extensions>
      </trkpt>
      <trkpt lat="42.4936163239181041717529296875" lon="19.994308166205883026123046875">
        <ele>1856.5999755859375</ele>
        <time>2026-06-19T08:45:54.000Z</time>
        <extensions>
          <ns3:TrackPointExtension>
            <ns3:atemp>18.0</ns3:atemp>
          </ns3:TrackPointExtension>
        </extensions>
      </trkpt>
      <trkpt lat="42.49359796755015850067138671875" lon="19.9943093396723270416259765625">
        <ele>1857</ele>
        <time>2026-06-19T08:45:55.000Z</time>
        <extensions>
          <ns3:TrackPointExtension>
            <ns3:atemp>18.0</ns3:atemp>
          </ns3:TrackPointExtension>
        </extensions>
      </trkpt>
      <trkpt lat="42.49357868917286396026611328125" lon="19.99431294389069080352783203125">
        <ele>1857.199951171875</ele>
        <time>2026-06-19T08:45:56.000Z</time>
        <extensions>
          <ns3:TrackPointExtension>
            <ns3:atemp>18.0</ns3:atemp>
          </ns3:TrackPointExtension>
        </extensions>
      </trkpt>
      <trkpt lat="42.4935610033571720123291015625" lon="19.99431814067065715789794921875">
        <ele>1857.4000244140625</ele>
        <time>2026-06-19T08:45:57.000Z</time>
        <extensions>
          <ns3:TrackPointExtension>
            <ns3:atemp>18.0</ns3:atemp>
          </ns3:TrackPointExtension>
        </extensions>
      </trkpt>
      <trkpt lat="42.49354599975049495697021484375" lon="19.9943237565457820892333984375">
        <ele>1857.5999755859375</ele>
        <time>2026-06-19T08:45:58.000Z</time>
        <extensions>
          <ns3:TrackPointExtension>
            <ns3:atemp>18.0</ns3:atemp>
          </ns3:TrackPointExtension>
        </extensions>
      </trkpt>
      <trkpt lat="42.49352755956351757049560546875" lon="19.99432526528835296630859375">
        <ele>1858</ele>
        <time>2026-06-19T08:45:59.000Z</time>
        <extensions>
          <ns3:TrackPointExtension>
            <ns3:atemp>18.0</ns3:atemp>
          </ns3:TrackPointExtension>
        </extensions>
      </trkpt>
      <trkpt lat="42.49350987374782562255859375" lon="19.99432417564094066619873046875">
        <ele>1858.4000244140625</ele>
        <time>2026-06-19T08:46:00.000Z</time>
        <extensions>
          <ns3:TrackPointExtension>
            <ns3:atemp>18.0</ns3:atemp>
          </ns3:TrackPointExtension>
        </extensions>
      </trkpt>
      <trkpt lat="42.4934916011989116668701171875" lon="19.99432518146932125091552734375">
        <ele>1858.800048828125</ele>
        <time>2026-06-19T08:46:01.000Z</time>
        <extensions>
          <ns3:TrackPointExtension>
            <ns3:atemp>18.0</ns3:atemp>
          </ns3:TrackPointExtension>
        </extensions>
      </trkpt>
      <trkpt lat="42.49347274191677570343017578125" lon="19.99432702548801898956298828125">
        <ele>1859</ele>
        <time>2026-06-19T08:46:02.000Z</time>
        <extensions>
          <ns3:TrackPointExtension>
            <ns3:atemp>18.0</ns3:atemp>
          </ns3:TrackPointExtension>
        </extensions>
      </trkpt>
      <trkpt lat="42.49345547519624233245849609375" lon="19.99432987533509731292724609375">
        <ele>1859.199951171875</ele>
        <time>2026-06-19T08:46:03.000Z</time>
        <extensions>
          <ns3:TrackPointExtension>
            <ns3:atemp>18.0</ns3:atemp>
          </ns3:TrackPointExtension>
        </extensions>
      </trkpt>
      <trkpt lat="42.4934372864663600921630859375" lon="19.9943353235721588134765625">
        <ele>1859.5999755859375</ele>
        <time>2026-06-19T08:46:04.000Z</time>
        <extensions>
          <ns3:TrackPointExtension>
            <ns3:atemp>18.0</ns3:atemp>
          </ns3:TrackPointExtension>
        </extensions>
      </trkpt>
      <trkpt lat="42.4934171698987483978271484375" lon="19.994339011609554290771484375">
        <ele>1859.800048828125</ele>
        <time>2026-06-19T08:46:05.000Z</time>
        <extensions>
          <ns3:TrackPointExtension>
            <ns3:atemp>18.0</ns3:atemp>
          </ns3:TrackPointExtension>
        </extensions>
      </trkpt>
      <trkpt lat="42.49339881353080272674560546875" lon="19.9943421967327594757080078125">
        <ele>1860</ele>
        <time>2026-06-19T08:46:06.000Z</time>
        <extensions>
          <ns3:TrackPointExtension>
            <ns3:atemp>18.0</ns3:atemp>
          </ns3:TrackPointExtension>
        </extensions>
      </trkpt>
      <trkpt lat="42.493380792438983917236328125" lon="19.994345717132091522216796875">
        <ele>1860.199951171875</ele>
        <time>2026-06-19T08:46:07.000Z</time>
        <extensions>
          <ns3:TrackPointExtension>
            <ns3:atemp>18.0</ns3:atemp>
          </ns3:TrackPointExtension>
        </extensions>
      </trkpt>
      <trkpt lat="42.49336461536586284637451171875" lon="19.9943514168262481689453125">
        <ele>1860.5999755859375</ele>
        <time>2026-06-19T08:46:08.000Z</time>
        <extensions>
          <ns3:TrackPointExtension>
            <ns3:atemp>18.0</ns3:atemp>
          </ns3:TrackPointExtension>
        </extensions>
      </trkpt>
      <trkpt lat="42.4933470971882343292236328125" lon="19.99435745179653167724609375">
        <ele>1860.800048828125</ele>
        <time>2026-06-19T08:46:09.000Z</time>
        <extensions>
          <ns3:TrackPointExtension>
            <ns3:atemp>18.0</ns3:atemp>
          </ns3:TrackPointExtension>
        </extensions>
      </trkpt>
      <trkpt lat="42.493329159915447235107421875" lon="19.99436005018651485443115234375">
        <ele>1861</ele>
        <time>2026-06-19T08:46:10.000Z</time>
        <extensions>
          <ns3:TrackPointExtension>
            <ns3:atemp>18.0</ns3:atemp>
          </ns3:TrackPointExtension>
        </extensions>
      </trkpt>
      <trkpt lat="42.4933112226426601409912109375" lon="19.9943606369197368621826171875">
        <ele>1861.4000244140625</ele>
        <time>2026-06-19T08:46:11.000Z</time>
        <extensions>
          <ns3:TrackPointExtension>
            <ns3:atemp>18.0</ns3:atemp>
          </ns3:TrackPointExtension>
        </extensions>
      </trkpt>
      <trkpt lat="42.4932951293885707855224609375" lon="19.994363486766815185546875">
        <ele>1861.5999755859375</ele>
        <time>2026-06-19T08:46:12.000Z</time>
        <extensions>
          <ns3:TrackPointExtension>
            <ns3:atemp>18.0</ns3:atemp>
          </ns3:TrackPointExtension>
        </extensions>
      </trkpt>
      <trkpt lat="42.49328096397221088409423828125" lon="19.9943706952035427093505859375">
        <ele>1862</ele>
        <time>2026-06-19T08:46:13.000Z</time>
        <extensions>
          <ns3:TrackPointExtension>
            <ns3:atemp>18.0</ns3:atemp>
          </ns3:TrackPointExtension>
        </extensions>
      </trkpt>
      <trkpt lat="42.49326646327972412109375" lon="19.99438025057315826416015625">
        <ele>1862.4000244140625</ele>
        <time>2026-06-19T08:46:14.000Z</time>
        <extensions>
          <ns3:TrackPointExtension>
            <ns3:atemp>18.0</ns3:atemp>
          </ns3:TrackPointExtension>
        </extensions>
      </trkpt>
      <trkpt lat="42.49325045384466648101806640625" lon="19.99438486061990261077880859375">
        <ele>1862.5999755859375</ele>
        <time>2026-06-19T08:46:15.000Z</time>
        <extensions>
          <ns3:TrackPointExtension>
            <ns3:atemp>18.0</ns3:atemp>
          </ns3:TrackPointExtension>
        </extensions>
      </trkpt>
      <trkpt lat="42.49323201365768909454345703125" lon="19.99438469298183917999267578125">
        <ele>1863</ele>
        <time>2026-06-19T08:46:16.000Z</time>
        <extensions>
          <ns3:TrackPointExtension>
            <ns3:atemp>18.0</ns3:atemp>
          </ns3:TrackPointExtension>
        </extensions>
      </trkpt>
      <trkpt lat="42.49321072362363338470458984375" lon="19.9943871237337589263916015625">
        <ele>1863.199951171875</ele>
        <time>2026-06-19T08:46:17.000Z</time>
        <extensions>
          <ns3:TrackPointExtension>
            <ns3:atemp>18.0</ns3:atemp>
          </ns3:TrackPointExtension>
        </extensions>
      </trkpt>
      <trkpt lat="42.49319110997021198272705078125" lon="19.99439307488501071929931640625">
        <ele>1863.5999755859375</ele>
        <time>2026-06-19T08:46:18.000Z</time>
        <extensions>
          <ns3:TrackPointExtension>
            <ns3:atemp>18.0</ns3:atemp>
          </ns3:TrackPointExtension>
        </extensions>
      </trkpt>
      <trkpt lat="42.4931730888783931732177734375" lon="19.99440162442624568939208984375">
        <ele>1863.800048828125</ele>
        <time>2026-06-19T08:46:19.000Z</time>
        <extensions>
          <ns3:TrackPointExtension>
            <ns3:atemp>18.0</ns3:atemp>
          </ns3:TrackPointExtension>
        </extensions>
      </trkpt>
      <trkpt lat="42.49315305612981319427490234375" lon="19.99441134743392467498779296875">
        <ele>1864</ele>
        <time>2026-06-19T08:46:20.000Z</time>
        <extensions>
          <ns3:TrackPointExtension>
            <ns3:atemp>18.0</ns3:atemp>
          </ns3:TrackPointExtension>
        </extensions>
      </trkpt>
      <trkpt lat="42.4931355379521846771240234375" lon="19.9944179691374301910400390625">
        <ele>1864.4000244140625</ele>
        <time>2026-06-19T08:46:21.000Z</time>
        <extensions>
          <ns3:TrackPointExtension>
            <ns3:atemp>18.0</ns3:atemp>
          </ns3:TrackPointExtension>
        </extensions>
      </trkpt>
      <trkpt lat="42.49312003143131732940673828125" lon="19.99441939406096935272216796875">
        <ele>1864.800048828125</ele>
        <time>2026-06-19T08:46:22.000Z</time>
        <extensions>
          <ns3:TrackPointExtension>
            <ns3:atemp>18.0</ns3:atemp>
          </ns3:TrackPointExtension>
        </extensions>
      </trkpt>
      <trkpt lat="42.4931020103394985198974609375" lon="19.9944246746599674224853515625">
        <ele>1865.199951171875</ele>
        <time>2026-06-19T08:46:23.000Z</time>
        <extensions>
          <ns3:TrackPointExtension>
            <ns3:atemp>18.0</ns3:atemp>
          </ns3:TrackPointExtension>
        </extensions>
      </trkpt>
      <trkpt lat="42.4930862523615360260009765625" lon="19.99443330802023410797119140625">
        <ele>1865.4000244140625</ele>
        <time>2026-06-19T08:46:24.000Z</time>
        <extensions>
          <ns3:TrackPointExtension>
            <ns3:atemp>18.0</ns3:atemp>
          </ns3:TrackPointExtension>
        </extensions>
      </trkpt>
      <trkpt lat="42.49307024292647838592529296875" lon="19.9944424442946910858154296875">
        <ele>1865.800048828125</ele>
        <time>2026-06-19T08:46:25.000Z</time>
        <extensions>
          <ns3:TrackPointExtension>
            <ns3:atemp>18.0</ns3:atemp>
          </ns3:TrackPointExtension>
        </extensions>
      </trkpt>
      <trkpt lat="42.4930533953011035919189453125" lon="19.99445292167365550994873046875">
        <ele>1866.199951171875</ele>
        <time>2026-06-19T08:46:26.000Z</time>
        <extensions>
          <ns3:TrackPointExtension>
            <ns3:atemp>18.0</ns3:atemp>
          </ns3:TrackPointExtension>
        </extensions>
      </trkpt>
      <trkpt lat="42.49303604476153850555419921875" lon="19.99446465633809566497802734375">
        <ele>1866.5999755859375</ele>
        <time>2026-06-19T08:46:27.000Z</time>
        <extensions>
          <ns3:TrackPointExtension>
            <ns3:atemp>18.0</ns3:atemp>
          </ns3:TrackPointExtension>
        </extensions>
      </trkpt>
      <trkpt lat="42.49301743693649768829345703125" lon="19.99447270296514034271240234375">
        <ele>1867</ele>
        <time>2026-06-19T08:46:28.000Z</time>
        <extensions>
          <ns3:TrackPointExtension>
            <ns3:atemp>18.0</ns3:atemp>
          </ns3:TrackPointExtension>
        </extensions>
      </trkpt>
      <trkpt lat="42.493001930415630340576171875" lon="19.994476474821567535400390625">
        <ele>1867.5999755859375</ele>
        <time>2026-06-19T08:46:29.000Z</time>
        <extensions>
          <ns3:TrackPointExtension>
            <ns3:atemp>18.0</ns3:atemp>
          </ns3:TrackPointExtension>
        </extensions>
      </trkpt>
      <trkpt lat="42.4929886870086193084716796875" lon="19.994487203657627105712890625">
        <ele>1868</ele>
        <time>2026-06-19T08:46:30.000Z</time>
        <extensions>
          <ns3:TrackPointExtension>
            <ns3:atemp>18.0</ns3:atemp>
          </ns3:TrackPointExtension>
        </extensions>
      </trkpt>
      <trkpt lat="42.49297502450644969940185546875" lon="19.994501955807209014892578125">
        <ele>1868.4000244140625</ele>
        <time>2026-06-19T08:46:31.000Z</time>
        <extensions>
          <ns3:TrackPointExtension>
            <ns3:atemp>18.0</ns3:atemp>
          </ns3:TrackPointExtension>
        </extensions>
      </trkpt>
      <trkpt lat="42.49296144582331180572509765625" lon="19.99451729469001293182373046875">
        <ele>1869</ele>
        <time>2026-06-19T08:46:32.000Z</time>
        <extensions>
          <ns3:TrackPointExtension>
            <ns3:atemp>18.0</ns3:atemp>
          </ns3:TrackPointExtension>
        </extensions>
      </trkpt>
      <trkpt lat="42.49294702894985675811767578125" lon="19.99452517367899417877197265625">
        <ele>1869.199951171875</ele>
        <time>2026-06-19T08:46:33.000Z</time>
        <extensions>
          <ns3:TrackPointExtension>
            <ns3:atemp>18.0</ns3:atemp>
          </ns3:TrackPointExtension>
        </extensions>
      </trkpt>
      <trkpt lat="42.4929300136864185333251953125" lon="19.99453372322022914886474609375">
        <ele>1869.5999755859375</ele>
        <time>2026-06-19T08:46:34.000Z</time>
        <extensions>
          <ns3:TrackPointExtension>
            <ns3:atemp>18.0</ns3:atemp>
          </ns3:TrackPointExtension>
        </extensions>
      </trkpt>
      <trkpt lat="42.492914758622646331787109375" lon="19.99454847536981105804443359375">
        <ele>1870</ele>
        <time>2026-06-19T08:46:35.000Z</time>
        <extensions>
          <ns3:TrackPointExtension>
            <ns3:atemp>18.0</ns3:atemp>
          </ns3:TrackPointExtension>
        </extensions>
      </trkpt>
      <trkpt lat="42.49289690516889095306396484375" lon="19.9945633113384246826171875">
        <ele>1870.4000244140625</ele>
        <time>2026-06-19T08:46:36.000Z</time>
        <extensions>
          <ns3:TrackPointExtension>
            <ns3:atemp>18.0</ns3:atemp>
          </ns3:TrackPointExtension>
        </extensions>
      </trkpt>
      <trkpt lat="42.4928788840770721435546875" lon="19.9945732019841670989990234375">
        <ele>1870.800048828125</ele>
        <time>2026-06-19T08:46:37.000Z</time>
        <extensions>
          <ns3:TrackPointExtension>
            <ns3:atemp>18.0</ns3:atemp>
          </ns3:TrackPointExtension>
        </extensions>
      </trkpt>
      <trkpt lat="42.49286270700395107269287109375" lon="19.99458418227732181549072265625">
        <ele>1871.199951171875</ele>
        <time>2026-06-19T08:46:38.000Z</time>
        <extensions>
          <ns3:TrackPointExtension>
            <ns3:atemp>18.0</ns3:atemp>
          </ns3:TrackPointExtension>
        </extensions>
      </trkpt>
      <trkpt lat="42.4928451888263225555419921875" lon="19.9945892952382564544677734375">
        <ele>1871.4000244140625</ele>
        <time>2026-06-19T08:46:39.000Z</time>
        <extensions>
          <ns3:TrackPointExtension>
            <ns3:atemp>18.0</ns3:atemp>
          </ns3:TrackPointExtension>
        </extensions>
      </trkpt>
      <trkpt lat="42.49282565899193286895751953125" lon="19.994589127600193023681640625">
        <ele>1872</ele>
        <time>2026-06-19T08:46:40.000Z</time>
        <extensions>
          <ns3:TrackPointExtension>
            <ns3:atemp>18.0</ns3:atemp>
          </ns3:TrackPointExtension>
        </extensions>
      </trkpt>
      <trkpt lat="42.49280906282365322113037109375" lon="19.99458887614309787750244140625">
        <ele>1872.4000244140625</ele>
        <time>2026-06-19T08:46:41.000Z</time>
        <extensions>
          <ns3:TrackPointExtension>
            <ns3:atemp>18.0</ns3:atemp>
          </ns3:TrackPointExtension>
        </extensions>
      </trkpt>
      <trkpt lat="42.49279129318892955780029296875" lon="19.99458787031471729278564453125">
        <ele>1872.800048828125</ele>
        <time>2026-06-19T08:46:42.000Z</time>
        <extensions>
          <ns3:TrackPointExtension>
            <ns3:atemp>18.0</ns3:atemp>
          </ns3:TrackPointExtension>
        </extensions>
      </trkpt>
      <trkpt lat="42.4927741102874279022216796875" lon="19.99458602629601955413818359375">
        <ele>1873.199951171875</ele>
        <time>2026-06-19T08:46:43.000Z</time>
        <extensions>
          <ns3:TrackPointExtension>
            <ns3:atemp>18.0</ns3:atemp>
          </ns3:TrackPointExtension>
        </extensions>
      </trkpt>
      <trkpt lat="42.4927556701004505157470703125" lon="19.99457948841154575347900390625">
        <ele>1873.5999755859375</ele>
        <time>2026-06-19T08:46:44.000Z</time>
        <extensions>
          <ns3:TrackPointExtension>
            <ns3:atemp>18.0</ns3:atemp>
          </ns3:TrackPointExtension>
        </extensions>
      </trkpt>
      <trkpt lat="42.49273697845637798309326171875" lon="19.9945745430886745452880859375">
        <ele>1873.800048828125</ele>
        <time>2026-06-19T08:46:45.000Z</time>
        <extensions>
          <ns3:TrackPointExtension>
            <ns3:atemp>18.0</ns3:atemp>
          </ns3:TrackPointExtension>
        </extensions>
      </trkpt>
      <trkpt lat="42.49271870590746402740478515625" lon="19.99456741847097873687744140625">
        <ele>1874.4000244140625</ele>
        <time>2026-06-19T08:46:46.000Z</time>
        <extensions>
          <ns3:TrackPointExtension>
            <ns3:atemp>18.0</ns3:atemp>
          </ns3:TrackPointExtension>
        </extensions>
      </trkpt>
      <trkpt lat="42.4927045404911041259765625" lon="19.994554258882999420166015625">
        <ele>1874.5999755859375</ele>
        <time>2026-06-19T08:46:47.000Z</time>
        <extensions>
          <ns3:TrackPointExtension>
            <ns3:atemp>18.0</ns3:atemp>
          </ns3:TrackPointExtension>
        </extensions>
      </trkpt>
      <trkpt lat="42.49268886633217334747314453125" lon="19.99453741125762462615966796875">
        <ele>1875</ele>
        <time>2026-06-19T08:46:48.000Z</time>
        <extensions>
          <ns3:TrackPointExtension>
            <ns3:atemp>18.0</ns3:atemp>
          </ns3:TrackPointExtension>
        </extensions>
      </trkpt>
      <trkpt lat="42.49267528764903545379638671875" lon="19.99452282674610614776611328125">
        <ele>1875.4000244140625</ele>
        <time>2026-06-19T08:46:49.000Z</time>
        <extensions>
          <ns3:TrackPointExtension>
            <ns3:atemp>18.0</ns3:atemp>
          </ns3:TrackPointExtension>
        </extensions>
      </trkpt>
      <trkpt lat="42.49266221188008785247802734375" lon="19.99450405128300189971923828125">
        <ele>1875.800048828125</ele>
        <time>2026-06-19T08:46:50.000Z</time>
        <extensions>
          <ns3:TrackPointExtension>
            <ns3:atemp>18.0</ns3:atemp>
          </ns3:TrackPointExtension>
        </extensions>
      </trkpt>
      <trkpt lat="42.49264963902533054351806640625" lon="19.9944883771240711212158203125">
        <ele>1876.199951171875</ele>
        <time>2026-06-19T08:46:51.000Z</time>
        <extensions>
          <ns3:TrackPointExtension>
            <ns3:atemp>18.0</ns3:atemp>
          </ns3:TrackPointExtension>
        </extensions>
      </trkpt>
      <trkpt lat="42.4926386587321758270263671875" lon="19.99447152949869632720947265625">
        <ele>1876.5999755859375</ele>
        <time>2026-06-19T08:46:52.000Z</time>
        <extensions>
          <ns3:TrackPointExtension>
            <ns3:atemp>18.0</ns3:atemp>
          </ns3:TrackPointExtension>
        </extensions>
      </trkpt>
      <trkpt lat="42.49262583442032337188720703125" lon="19.99445593915879726409912109375">
        <ele>1877</ele>
        <time>2026-06-19T08:46:53.000Z</time>
        <extensions>
          <ns3:TrackPointExtension>
            <ns3:atemp>18.0</ns3:atemp>
          </ns3:TrackPointExtension>
        </extensions>
      </trkpt>
      <trkpt lat="42.49261477030813694000244140625" lon="19.994438923895359039306640625">
        <ele>1877.4000244140625</ele>
        <time>2026-06-19T08:46:54.000Z</time>
        <extensions>
          <ns3:TrackPointExtension>
            <ns3:atemp>18.0</ns3:atemp>
          </ns3:TrackPointExtension>
        </extensions>
      </trkpt>
      <trkpt lat="42.4926021136343479156494140625" lon="19.9944223277270793914794921875">
        <ele>1877.800048828125</ele>
        <time>2026-06-19T08:46:55.000Z</time>
        <extensions>
          <ns3:TrackPointExtension>
            <ns3:atemp>18.0</ns3:atemp>
          </ns3:TrackPointExtension>
        </extensions>
      </trkpt>
      <trkpt lat="42.49259130097925662994384765625" lon="19.9944050610065460205078125">
        <ele>1878.199951171875</ele>
        <time>2026-06-19T08:46:56.000Z</time>
        <extensions>
          <ns3:TrackPointExtension>
            <ns3:atemp>18.0</ns3:atemp>
          </ns3:TrackPointExtension>
        </extensions>
      </trkpt>
      <trkpt lat="42.49258057214319705963134765625" lon="19.99438921920955181121826171875">
        <ele>1878.5999755859375</ele>
        <time>2026-06-19T08:46:57.000Z</time>
        <extensions>
          <ns3:TrackPointExtension>
            <ns3:atemp>18.0</ns3:atemp>
          </ns3:TrackPointExtension>
        </extensions>
      </trkpt>
      <trkpt lat="42.4925731122493743896484375" lon="19.9943690188229084014892578125">
        <ele>1879</ele>
        <time>2026-06-19T08:46:58.000Z</time>
        <extensions>
          <ns3:TrackPointExtension>
            <ns3:atemp>18.0</ns3:atemp>
          </ns3:TrackPointExtension>
        </extensions>
      </trkpt>
      <trkpt lat="42.4925650656223297119140625" lon="19.99434445984661579132080078125">
        <ele>1879.4000244140625</ele>
        <time>2026-06-19T08:46:59.000Z</time>
        <extensions>
          <ns3:TrackPointExtension>
            <ns3:atemp>18.0</ns3:atemp>
          </ns3:TrackPointExtension>
        </extensions>
      </trkpt>
      <trkpt lat="42.4925545044243335723876953125" lon="19.99432484619319438934326171875">
        <ele>1879.800048828125</ele>
        <time>2026-06-19T08:47:00.000Z</time>
        <extensions>
          <ns3:TrackPointExtension>
            <ns3:atemp>18.0</ns3:atemp>
          </ns3:TrackPointExtension>
        </extensions>
      </trkpt>
      <trkpt lat="42.49254503287374973297119140625" lon="19.994308166205883026123046875">
        <ele>1880.199951171875</ele>
        <time>2026-06-19T08:47:01.000Z</time>
        <extensions>
          <ns3:TrackPointExtension>
            <ns3:atemp>18.0</ns3:atemp>
          </ns3:TrackPointExtension>
        </extensions>
      </trkpt>
      <trkpt lat="42.49253212474286556243896484375" lon="19.99429131858050823211669921875">
        <ele>1880.5999755859375</ele>
        <time>2026-06-19T08:47:02.000Z</time>
        <extensions>
          <ns3:TrackPointExtension>
            <ns3:atemp>18.0</ns3:atemp>
          </ns3:TrackPointExtension>
        </extensions>
      </trkpt>
      <trkpt lat="42.4925146065652370452880859375" lon="19.99428058974444866180419921875">
        <ele>1881</ele>
        <time>2026-06-19T08:47:03.000Z</time>
        <extensions>
          <ns3:TrackPointExtension>
            <ns3:atemp>18.0</ns3:atemp>
          </ns3:TrackPointExtension>
        </extensions>
      </trkpt>
      <trkpt lat="42.49249725602567195892333984375" lon="19.99427338130772113800048828125">
        <ele>1881.5999755859375</ele>
        <time>2026-06-19T08:47:04.000Z</time>
        <extensions>
          <ns3:TrackPointExtension>
            <ns3:atemp>18.0</ns3:atemp>
          </ns3:TrackPointExtension>
        </extensions>
      </trkpt>
      <trkpt lat="42.492480576038360595703125" lon="19.99426550231873989105224609375">
        <ele>1882</ele>
        <time>2026-06-19T08:47:05.000Z</time>
        <extensions>
          <ns3:TrackPointExtension>
            <ns3:atemp>18.0</ns3:atemp>
          </ns3:TrackPointExtension>
        </extensions>
      </trkpt>
      <trkpt lat="42.49246372841298580169677734375" lon="19.99426550231873989105224609375">
        <ele>1882.4000244140625</ele>
        <time>2026-06-19T08:47:06.000Z</time>
        <extensions>
          <ns3:TrackPointExtension>
            <ns3:atemp>18.0</ns3:atemp>
          </ns3:TrackPointExtension>
        </extensions>
      </trkpt>
      <trkpt lat="42.492444030940532684326171875" lon="19.99426935799419879913330078125">
        <ele>1882.5999755859375</ele>
        <time>2026-06-19T08:47:07.000Z</time>
        <extensions>
          <ns3:TrackPointExtension>
            <ns3:atemp>18.0</ns3:atemp>
          </ns3:TrackPointExtension>
        </extensions>
      </trkpt>
      <trkpt lat="42.492427267134189605712890625" lon="19.994285367429256439208984375">
        <ele>1883</ele>
        <time>2026-06-19T08:47:08.000Z</time>
        <extensions>
          <ns3:TrackPointExtension>
            <ns3:atemp>18.0</ns3:atemp>
          </ns3:TrackPointExtension>
        </extensions>
      </trkpt>
      <trkpt lat="42.49241326935589313507080078125" lon="19.9943019635975360870361328125">
        <ele>1883.199951171875</ele>
        <time>2026-06-19T08:47:09.000Z</time>
        <extensions>
          <ns3:TrackPointExtension>
            <ns3:atemp>18.0</ns3:atemp>
          </ns3:TrackPointExtension>
        </extensions>
      </trkpt>
      <trkpt lat="42.4923979304730892181396484375" lon="19.9943133629858493804931640625">
        <ele>1883.5999755859375</ele>
        <time>2026-06-19T08:47:10.000Z</time>
        <extensions>
          <ns3:TrackPointExtension>
            <ns3:atemp>18.0</ns3:atemp>
          </ns3:TrackPointExtension>
        </extensions>
      </trkpt>
      <trkpt lat="42.492387033998966217041015625" lon="19.99432794749736785888671875">
        <ele>1883.800048828125</ele>
        <time>2026-06-19T08:47:11.000Z</time>
        <extensions>
          <ns3:TrackPointExtension>
            <ns3:atemp>18.0</ns3:atemp>
          </ns3:TrackPointExtension>
        </extensions>
      </trkpt>
      <trkpt lat="42.49238024465739727020263671875" lon="19.994347728788852691650390625">
        <ele>1884.199951171875</ele>
        <time>2026-06-19T08:47:12.000Z</time>
        <extensions>
          <ns3:TrackPointExtension>
            <ns3:atemp>18.0</ns3:atemp>
          </ns3:TrackPointExtension>
        </extensions>
      </trkpt>
      <trkpt lat="42.4923747964203357696533203125" lon="19.99437077902257442474365234375">
        <ele>1884.4000244140625</ele>
        <time>2026-06-19T08:47:13.000Z</time>
        <extensions>
          <ns3:TrackPointExtension>
            <ns3:atemp>18.0</ns3:atemp>
          </ns3:TrackPointExtension>
        </extensions>
      </trkpt>
      <trkpt lat="42.4923721142113208770751953125" lon="19.9943943321704864501953125">
        <ele>1884.5999755859375</ele>
        <time>2026-06-19T08:47:14.000Z</time>
        <extensions>
          <ns3:TrackPointExtension>
            <ns3:atemp>18.0</ns3:atemp>
          </ns3:TrackPointExtension>
        </extensions>
      </trkpt>
      <trkpt lat="42.49236817471683025360107421875" lon="19.994414784014225006103515625">
        <ele>1885</ele>
        <time>2026-06-19T08:47:15.000Z</time>
        <extensions>
          <ns3:TrackPointExtension>
            <ns3:atemp>18.0</ns3:atemp>
          </ns3:TrackPointExtension>
        </extensions>
      </trkpt>
      <trkpt lat="42.492367923259735107421875" lon="19.99443699605762958526611328125">
        <ele>1885.4000244140625</ele>
        <time>2026-06-19T08:47:16.000Z</time>
        <extensions>
          <ns3:TrackPointExtension>
            <ns3:atemp>18.0</ns3:atemp>
          </ns3:TrackPointExtension>
        </extensions>
      </trkpt>
      <trkpt lat="42.49237127602100372314453125" lon="19.99445510096848011016845703125">
        <ele>1885.800048828125</ele>
        <time>2026-06-19T08:47:17.000Z</time>
        <extensions>
          <ns3:TrackPointExtension>
            <ns3:atemp>18.0</ns3:atemp>
          </ns3:TrackPointExtension>
        </extensions>
      </trkpt>
      <trkpt lat="42.4923734553158283233642578125" lon="19.994475804269313812255859375">
        <ele>1886</ele>
        <time>2026-06-19T08:47:18.000Z</time>
        <extensions>
          <ns3:TrackPointExtension>
            <ns3:atemp>18.0</ns3:atemp>
          </ns3:TrackPointExtension>
        </extensions>
      </trkpt>
      <trkpt lat="42.49237705953419208526611328125" lon="19.994495920836925506591796875">
        <ele>1886.4000244140625</ele>
        <time>2026-06-19T08:47:19.000Z</time>
        <extensions>
          <ns3:TrackPointExtension>
            <ns3:atemp>18.0</ns3:atemp>
          </ns3:TrackPointExtension>
        </extensions>
      </trkpt>
      <trkpt lat="42.49238309450447559356689453125" lon="19.9945175461471080780029296875">
        <ele>1886.800048828125</ele>
        <time>2026-06-19T08:47:20.000Z</time>
        <extensions>
          <ns3:TrackPointExtension>
            <ns3:atemp>18.0</ns3:atemp>
          </ns3:TrackPointExtension>
        </extensions>
      </trkpt>
      <trkpt lat="42.49238879419863224029541015625" lon="19.99453975819051265716552734375">
        <ele>1887</ele>
        <time>2026-06-19T08:47:21.000Z</time>
        <extensions>
          <ns3:TrackPointExtension>
            <ns3:atemp>18.0</ns3:atemp>
          </ns3:TrackPointExtension>
        </extensions>
      </trkpt>
      <trkpt lat="42.49239063821732997894287109375" lon="19.9945644848048686981201171875">
        <ele>1887.4000244140625</ele>
        <time>2026-06-19T08:47:22.000Z</time>
        <extensions>
          <ns3:TrackPointExtension>
            <ns3:atemp>18.0</ns3:atemp>
          </ns3:TrackPointExtension>
        </extensions>
      </trkpt>
      <trkpt lat="42.49239197932183742523193359375" lon="19.99459239654242992401123046875">
        <ele>1887.5999755859375</ele>
        <time>2026-06-19T08:47:23.000Z</time>
        <extensions>
          <ns3:TrackPointExtension>
            <ns3:atemp>18.0</ns3:atemp>
          </ns3:TrackPointExtension>
        </extensions>
      </trkpt>
      <trkpt lat="42.4923955835402011871337890625" lon="19.99461854808032512664794921875">
        <ele>1888</ele>
        <time>2026-06-19T08:47:24.000Z</time>
        <extensions>
          <ns3:TrackPointExtension>
            <ns3:atemp>18.0</ns3:atemp>
          </ns3:TrackPointExtension>
        </extensions>
      </trkpt>
      <trkpt lat="42.49240153469145298004150390625" lon="19.9946446157991886138916015625">
        <ele>1888.199951171875</ele>
        <time>2026-06-19T08:47:25.000Z</time>
        <extensions>
          <ns3:TrackPointExtension>
            <ns3:atemp>18.0</ns3:atemp>
          </ns3:TrackPointExtension>
        </extensions>
      </trkpt>
      <trkpt lat="42.4924032948911190032958984375" lon="19.99466716311872005462646484375">
        <ele>1888.4000244140625</ele>
        <time>2026-06-19T08:47:26.000Z</time>
        <extensions>
          <ns3:TrackPointExtension>
            <ns3:atemp>18.0</ns3:atemp>
          </ns3:TrackPointExtension>
        </extensions>
      </trkpt>
      <trkpt lat="42.49240287579596042633056640625" lon="19.99469364993274211883544921875">
        <ele>1888.800048828125</ele>
        <time>2026-06-19T08:47:27.000Z</time>
        <extensions>
          <ns3:TrackPointExtension>
            <ns3:atemp>18.0</ns3:atemp>
          </ns3:TrackPointExtension>
        </extensions>
      </trkpt>
      <trkpt lat="42.4924032948911190032958984375" lon="19.99471678398549556732177734375">
        <ele>1889</ele>
        <time>2026-06-19T08:47:28.000Z</time>
        <extensions>
          <ns3:TrackPointExtension>
            <ns3:atemp>18.0</ns3:atemp>
          </ns3:TrackPointExtension>
        </extensions>
      </trkpt>
      <trkpt lat="42.49240614473819732666015625" lon="19.994739331305027008056640625">
        <ele>1889.199951171875</ele>
        <time>2026-06-19T08:47:29.000Z</time>
        <extensions>
          <ns3:TrackPointExtension>
            <ns3:atemp>18.0</ns3:atemp>
          </ns3:TrackPointExtension>
        </extensions>
      </trkpt>
      <trkpt lat="42.49240857549011707305908203125" lon="19.99476154334843158721923828125">
        <ele>1889.5999755859375</ele>
        <time>2026-06-19T08:47:30.000Z</time>
        <extensions>
          <ns3:TrackPointExtension>
            <ns3:atemp>18.0</ns3:atemp>
          </ns3:TrackPointExtension>
        </extensions>
      </trkpt>
      <trkpt lat="42.49240882694721221923828125" lon="19.9947850964963436126708984375">
        <ele>1889.800048828125</ele>
        <time>2026-06-19T08:47:31.000Z</time>
        <extensions>
          <ns3:TrackPointExtension>
            <ns3:atemp>18.0</ns3:atemp>
          </ns3:TrackPointExtension>
        </extensions>
      </trkpt>
      <trkpt lat="42.49240639619529247283935546875" lon="19.99481049366295337677001953125">
        <ele>1890</ele>
        <time>2026-06-19T08:47:32.000Z</time>
        <extensions>
          <ns3:TrackPointExtension>
            <ns3:atemp>18.0</ns3:atemp>
          </ns3:TrackPointExtension>
        </extensions>
      </trkpt>
      <trkpt lat="42.4924043007194995880126953125" lon="19.9948342144489288330078125">
        <ele>1890.4000244140625</ele>
        <time>2026-06-19T08:47:33.000Z</time>
        <extensions>
          <ns3:TrackPointExtension>
            <ns3:atemp>18.0</ns3:atemp>
          </ns3:TrackPointExtension>
        </extensions>
      </trkpt>
      <trkpt lat="42.492403797805309295654296875" lon="19.9948529899120330810546875">
        <ele>1890.800048828125</ele>
        <time>2026-06-19T08:47:34.000Z</time>
        <extensions>
          <ns3:TrackPointExtension>
            <ns3:atemp>18.0</ns3:atemp>
          </ns3:TrackPointExtension>
        </extensions>
      </trkpt>
      <trkpt lat="42.49240237288177013397216796875" lon="19.9948779679834842681884765625">
        <ele>1891</ele>
        <time>2026-06-19T08:47:35.000Z</time>
        <extensions>
          <ns3:TrackPointExtension>
            <ns3:atemp>18.0</ns3:atemp>
          </ns3:TrackPointExtension>
        </extensions>
      </trkpt>
      <trkpt lat="42.49240371398627758026123046875" lon="19.99490370042622089385986328125">
        <ele>1891.199951171875</ele>
        <time>2026-06-19T08:47:36.000Z</time>
        <extensions>
          <ns3:TrackPointExtension>
            <ns3:atemp>18.0</ns3:atemp>
          </ns3:TrackPointExtension>
        </extensions>
      </trkpt>
      <trkpt lat="42.4924032948911190032958984375" lon="19.99493010342121124267578125">
        <ele>1891.5999755859375</ele>
        <time>2026-06-19T08:47:37.000Z</time>
        <extensions>
          <ns3:TrackPointExtension>
            <ns3:atemp>18.0</ns3:atemp>
          </ns3:TrackPointExtension>
        </extensions>
      </trkpt>
      <trkpt lat="42.49240036122500896453857421875" lon="19.99495382420718669891357421875">
        <ele>1891.800048828125</ele>
        <time>2026-06-19T08:47:38.000Z</time>
        <extensions>
          <ns3:TrackPointExtension>
            <ns3:atemp>18.0</ns3:atemp>
          </ns3:TrackPointExtension>
        </extensions>
      </trkpt>
      <trkpt lat="42.49239809811115264892578125" lon="19.9949782155454158782958984375">
        <ele>1892.199951171875</ele>
        <time>2026-06-19T08:47:39.000Z</time>
        <extensions>
          <ns3:TrackPointExtension>
            <ns3:atemp>18.0</ns3:atemp>
          </ns3:TrackPointExtension>
        </extensions>
      </trkpt>
      <trkpt lat="42.49239675700664520263671875" lon="19.995000176131725311279296875">
        <ele>1892.4000244140625</ele>
        <time>2026-06-19T08:47:40.000Z</time>
        <extensions>
          <ns3:TrackPointExtension>
            <ns3:atemp>18.0</ns3:atemp>
          </ns3:TrackPointExtension>
        </extensions>
      </trkpt>
      <trkpt lat="42.49239868484437465667724609375" lon="19.9950234778225421905517578125">
        <ele>1892.800048828125</ele>
        <time>2026-06-19T08:47:41.000Z</time>
        <extensions>
          <ns3:TrackPointExtension>
            <ns3:atemp>18.0</ns3:atemp>
          </ns3:TrackPointExtension>
        </extensions>
      </trkpt>
      <trkpt lat="42.4924009479582309722900390625" lon="19.99504853971302509307861328125">
        <ele>1893</ele>
        <time>2026-06-19T08:47:42.000Z</time>
        <extensions>
          <ns3:TrackPointExtension>
            <ns3:atemp>18.0</ns3:atemp>
          </ns3:TrackPointExtension>
        </extensions>
      </trkpt>
      <trkpt lat="42.4924041330814361572265625" lon="19.9950720928609371185302734375">
        <ele>1893.199951171875</ele>
        <time>2026-06-19T08:47:43.000Z</time>
        <extensions>
          <ns3:TrackPointExtension>
            <ns3:atemp>18.0</ns3:atemp>
          </ns3:TrackPointExtension>
        </extensions>
      </trkpt>
      <trkpt lat="42.49240706674754619598388671875" lon="19.99509329907596111297607421875">
        <ele>1893.5999755859375</ele>
        <time>2026-06-19T08:47:44.000Z</time>
        <extensions>
          <ns3:TrackPointExtension>
            <ns3:atemp>18.0</ns3:atemp>
          </ns3:TrackPointExtension>
        </extensions>
      </trkpt>
      <trkpt lat="42.492405474185943603515625" lon="19.995110146701335906982421875">
        <ele>1893.800048828125</ele>
        <time>2026-06-19T08:47:45.000Z</time>
        <extensions>
          <ns3:TrackPointExtension>
            <ns3:atemp>18.0</ns3:atemp>
          </ns3:TrackPointExtension>
        </extensions>
      </trkpt>
      <trkpt lat="42.492405809462070465087890625" lon="19.99512515030801296234130859375">
        <ele>1894.199951171875</ele>
        <time>2026-06-19T08:47:46.000Z</time>
        <extensions>
          <ns3:TrackPointExtension>
            <ns3:atemp>18.0</ns3:atemp>
          </ns3:TrackPointExtension>
        </extensions>
      </trkpt>
      <trkpt lat="42.49240723438560962677001953125" lon="19.99514224939048290252685546875">
        <ele>1894.5999755859375</ele>
        <time>2026-06-19T08:47:47.000Z</time>
        <extensions>
          <ns3:TrackPointExtension>
            <ns3:atemp>18.0</ns3:atemp>
          </ns3:TrackPointExtension>
        </extensions>
      </trkpt>
      <trkpt lat="42.4924093298614025115966796875" lon="19.99516479671001434326171875">
        <ele>1894.800048828125</ele>
        <time>2026-06-19T08:47:48.000Z</time>
        <extensions>
          <ns3:TrackPointExtension>
            <ns3:atemp>18.0</ns3:atemp>
          </ns3:TrackPointExtension>
        </extensions>
      </trkpt>
      <trkpt lat="42.49241025187075138092041015625" lon="19.99518357217311859130859375">
        <ele>1895.199951171875</ele>
        <time>2026-06-19T08:47:49.000Z</time>
        <extensions>
          <ns3:TrackPointExtension>
            <ns3:atemp>18.0</ns3:atemp>
          </ns3:TrackPointExtension>
        </extensions>
      </trkpt>
      <trkpt lat="42.492411173880100250244140625" lon="19.99520368874073028564453125">
        <ele>1895.4000244140625</ele>
        <time>2026-06-19T08:47:50.000Z</time>
        <extensions>
          <ns3:TrackPointExtension>
            <ns3:atemp>18.0</ns3:atemp>
          </ns3:TrackPointExtension>
        </extensions>
      </trkpt>
      <trkpt lat="42.49240907840430736541748046875" lon="19.9952249787747859954833984375">
        <ele>1895.5999755859375</ele>
        <time>2026-06-19T08:47:51.000Z</time>
        <extensions>
          <ns3:TrackPointExtension>
            <ns3:atemp>18.0</ns3:atemp>
          </ns3:TrackPointExtension>
        </extensions>
      </trkpt>
      <trkpt lat="42.49240689910948276519775390625" lon="19.9952387250959873199462890625">
        <ele>1896</ele>
        <time>2026-06-19T08:47:52.000Z</time>
        <extensions>
          <ns3:TrackPointExtension>
            <ns3:atemp>18.0</ns3:atemp>
          </ns3:TrackPointExtension>
        </extensions>
      </trkpt>
      <trkpt lat="42.492400109767913818359375" lon="19.9952611885964870452880859375">
        <ele>1896.199951171875</ele>
        <time>2026-06-19T08:47:53.000Z</time>
        <extensions>
          <ns3:TrackPointExtension>
            <ns3:atemp>18.0</ns3:atemp>
          </ns3:TrackPointExtension>
        </extensions>
      </trkpt>
      <trkpt lat="42.49239617027342319488525390625" lon="19.99528792686760425567626953125">
        <ele>1896.4000244140625</ele>
        <time>2026-06-19T08:47:54.000Z</time>
        <extensions>
          <ns3:TrackPointExtension>
            <ns3:atemp>18.0</ns3:atemp>
          </ns3:TrackPointExtension>
        </extensions>
      </trkpt>
      <trkpt lat="42.492394410073757171630859375" lon="19.995319359004497528076171875">
        <ele>1896.5999755859375</ele>
        <time>2026-06-19T08:47:55.000Z</time>
        <extensions>
          <ns3:TrackPointExtension>
            <ns3:atemp>18.0</ns3:atemp>
          </ns3:TrackPointExtension>
        </extensions>
      </trkpt>
      <trkpt lat="42.49239139258861541748046875" lon="19.995345175266265869140625">
        <ele>1896.800048828125</ele>
        <time>2026-06-19T08:47:56.000Z</time>
        <extensions>
          <ns3:TrackPointExtension>
            <ns3:atemp>18.0</ns3:atemp>
          </ns3:TrackPointExtension>
        </extensions>
      </trkpt>
      <trkpt lat="42.49239080585539340972900390625" lon="19.99536923132836818695068359375">
        <ele>1896.800048828125</ele>
        <time>2026-06-19T08:47:57.000Z</time>
        <extensions>
          <ns3:TrackPointExtension>
            <ns3:atemp>18.0</ns3:atemp>
          </ns3:TrackPointExtension>
        </extensions>
      </trkpt>
      <trkpt lat="42.49238695017993450164794921875" lon="19.99539412558078765869140625">
        <ele>1897</ele>
        <time>2026-06-19T08:47:58.000Z</time>
        <extensions>
          <ns3:TrackPointExtension>
            <ns3:atemp>18.0</ns3:atemp>
          </ns3:TrackPointExtension>
        </extensions>
      </trkpt>
      <trkpt lat="42.4923821724951267242431640625" lon="19.99541382305324077606201171875">
        <ele>1897.199951171875</ele>
        <time>2026-06-19T08:47:59.000Z</time>
        <extensions>
          <ns3:TrackPointExtension>
            <ns3:atemp>18.0</ns3:atemp>
          </ns3:TrackPointExtension>
        </extensions>
      </trkpt>
      <trkpt lat="42.49237789772450923919677734375" lon="19.9954311735928058624267578125">
        <ele>1897.4000244140625</ele>
        <time>2026-06-19T08:48:00.000Z</time>
        <extensions>
          <ns3:TrackPointExtension>
            <ns3:atemp>18.0</ns3:atemp>
          </ns3:TrackPointExtension>
        </extensions>
      </trkpt>
      <trkpt lat="42.492373622953891754150390625" lon="19.99544885940849781036376953125">
        <ele>1897.5999755859375</ele>
        <time>2026-06-19T08:48:01.000Z</time>
        <extensions>
          <ns3:TrackPointExtension>
            <ns3:atemp>18.0</ns3:atemp>
          </ns3:TrackPointExtension>
        </extensions>
      </trkpt>
      <trkpt lat="42.49236985109746456146240234375" lon="19.99546579085290431976318359375">
        <ele>1898</ele>
        <time>2026-06-19T08:48:02.000Z</time>
        <extensions>
          <ns3:TrackPointExtension>
            <ns3:atemp>18.0</ns3:atemp>
          </ns3:TrackPointExtension>
        </extensions>
      </trkpt>
      <trkpt lat="42.492365576326847076416015625" lon="19.99548406340181827545166015625">
        <ele>1898.199951171875</ele>
        <time>2026-06-19T08:48:03.000Z</time>
        <extensions>
          <ns3:TrackPointExtension>
            <ns3:atemp>18.0</ns3:atemp>
          </ns3:TrackPointExtension>
        </extensions>
      </trkpt>
      <trkpt lat="42.49235694296658039093017578125" lon="19.99549328349530696868896484375">
        <ele>1898.5999755859375</ele>
        <time>2026-06-19T08:48:04.000Z</time>
        <extensions>
          <ns3:TrackPointExtension>
            <ns3:atemp>18.0</ns3:atemp>
          </ns3:TrackPointExtension>
        </extensions>
      </trkpt>
      <trkpt lat="42.49234252609312534332275390625" lon="19.99550811946392059326171875">
        <ele>1898.800048828125</ele>
        <time>2026-06-19T08:48:05.000Z</time>
        <extensions>
          <ns3:TrackPointExtension>
            <ns3:atemp>18.0</ns3:atemp>
          </ns3:TrackPointExtension>
        </extensions>
      </trkpt>
      <trkpt lat="42.49232509173452854156494140625" lon="19.99552697874605655670166015625">
        <ele>1899</ele>
        <time>2026-06-19T08:48:06.000Z</time>
        <extensions>
          <ns3:TrackPointExtension>
            <ns3:atemp>18.0</ns3:atemp>
          </ns3:TrackPointExtension>
        </extensions>
      </trkpt>
      <trkpt lat="42.49231788329780101776123046875" lon="19.99555396847426891326904296875">
        <ele>1899.4000244140625</ele>
        <time>2026-06-19T08:48:07.000Z</time>
        <extensions>
          <ns3:TrackPointExtension>
            <ns3:atemp>18.0</ns3:atemp>
          </ns3:TrackPointExtension>
        </extensions>
      </trkpt>
      <trkpt lat="42.4923107586801052093505859375" lon="19.99558045528829097747802734375">
        <ele>1899.800048828125</ele>
        <time>2026-06-19T08:48:08.000Z</time>
        <extensions>
          <ns3:TrackPointExtension>
            <ns3:atemp>18.0</ns3:atemp>
          </ns3:TrackPointExtension>
        </extensions>
      </trkpt>
      <trkpt lat="42.49230380170047283172607421875" lon="19.995602332055568695068359375">
        <ele>1900.199951171875</ele>
        <time>2026-06-19T08:48:09.000Z</time>
        <extensions>
          <ns3:TrackPointExtension>
            <ns3:atemp>18.0</ns3:atemp>
          </ns3:TrackPointExtension>
        </extensions>
      </trkpt>
      <trkpt lat="42.492295838892459869384765625" lon="19.9956252984702587127685546875">
        <ele>1900.5999755859375</ele>
        <time>2026-06-19T08:48:10.000Z</time>
        <extensions>
          <ns3:TrackPointExtension>
            <ns3:atemp>18.0</ns3:atemp>
          </ns3:TrackPointExtension>
        </extensions>
      </trkpt>
      <trkpt lat="42.49229206703603267669677734375" lon="19.9956494383513927459716796875">
        <ele>1901</ele>
        <time>2026-06-19T08:48:11.000Z</time>
        <extensions>
          <ns3:TrackPointExtension>
            <ns3:atemp>18.0</ns3:atemp>
          </ns3:TrackPointExtension>
        </extensions>
      </trkpt>
      <trkpt lat="42.4922893010079860687255859375" lon="19.99567181803286075592041015625">
        <ele>1901.4000244140625</ele>
        <time>2026-06-19T08:48:12.000Z</time>
        <extensions>
          <ns3:TrackPointExtension>
            <ns3:atemp>18.0</ns3:atemp>
          </ns3:TrackPointExtension>
        </extensions>
      </trkpt>
      <trkpt lat="42.4922852776944637298583984375" lon="19.99569143168628215789794921875">
        <ele>1901.800048828125</ele>
        <time>2026-06-19T08:48:13.000Z</time>
        <extensions>
          <ns3:TrackPointExtension>
            <ns3:atemp>18.0</ns3:atemp>
          </ns3:TrackPointExtension>
        </extensions>
      </trkpt>
      <trkpt lat="42.49228234402835369110107421875" lon="19.9957094527781009674072265625">
        <ele>1902.199951171875</ele>
        <time>2026-06-19T08:48:14.000Z</time>
        <extensions>
          <ns3:TrackPointExtension>
            <ns3:atemp>18.0</ns3:atemp>
          </ns3:TrackPointExtension>
        </extensions>
      </trkpt>
      <trkpt lat="42.4922780692577362060546875" lon="19.9957265518605709075927734375">
        <ele>1902.5999755859375</ele>
        <time>2026-06-19T08:48:15.000Z</time>
        <extensions>
          <ns3:TrackPointExtension>
            <ns3:atemp>18.0</ns3:atemp>
          </ns3:TrackPointExtension>
        </extensions>
      </trkpt>
      <trkpt lat="42.49227396212518215179443359375" lon="19.9957449920475482940673828125">
        <ele>1903</ele>
        <time>2026-06-19T08:48:16.000Z</time>
        <extensions>
          <ns3:TrackPointExtension>
            <ns3:atemp>18.0</ns3:atemp>
          </ns3:TrackPointExtension>
        </extensions>
      </trkpt>
      <trkpt lat="42.49226859770715236663818359375" lon="19.9957651086151599884033203125">
        <ele>1903.199951171875</ele>
        <time>2026-06-19T08:48:17.000Z</time>
        <extensions>
          <ns3:TrackPointExtension>
            <ns3:atemp>18.0</ns3:atemp>
          </ns3:TrackPointExtension>
        </extensions>
      </trkpt>
      <trkpt lat="42.492264322936534881591796875" lon="19.995785057544708251953125">
        <ele>1903.4000244140625</ele>
        <time>2026-06-19T08:48:18.000Z</time>
        <extensions>
          <ns3:TrackPointExtension>
            <ns3:atemp>18.0</ns3:atemp>
          </ns3:TrackPointExtension>
        </extensions>
      </trkpt>
      <trkpt lat="42.4922619760036468505859375" lon="19.99580626375973224639892578125">
        <ele>1903.800048828125</ele>
        <time>2026-06-19T08:48:19.000Z</time>
        <extensions>
          <ns3:TrackPointExtension>
            <ns3:atemp>18.0</ns3:atemp>
          </ns3:TrackPointExtension>
        </extensions>
      </trkpt>
      <trkpt lat="42.4922561086714267730712890625" lon="19.99582788906991481781005859375">
        <ele>1904</ele>
        <time>2026-06-19T08:48:20.000Z</time>
        <extensions>
          <ns3:TrackPointExtension>
            <ns3:atemp>18.0</ns3:atemp>
          </ns3:TrackPointExtension>
        </extensions>
      </trkpt>
      <trkpt lat="42.49224931932985782623291015625" lon="19.99584834091365337371826171875">
        <ele>1904.199951171875</ele>
        <time>2026-06-19T08:48:21.000Z</time>
        <extensions>
          <ns3:TrackPointExtension>
            <ns3:atemp>18.0</ns3:atemp>
          </ns3:TrackPointExtension>
        </extensions>
      </trkpt>
      <trkpt lat="42.4922413565218448638916015625" lon="19.9958640150725841522216796875">
        <ele>1904.4000244140625</ele>
        <time>2026-06-19T08:48:22.000Z</time>
        <extensions>
          <ns3:TrackPointExtension>
            <ns3:atemp>18.0</ns3:atemp>
          </ns3:TrackPointExtension>
        </extensions>
      </trkpt>
      <trkpt lat="42.49223674647510051727294921875" lon="19.9958791024982929229736328125">
        <ele>1904.4000244140625</ele>
        <time>2026-06-19T08:48:23.000Z</time>
        <extensions>
          <ns3:TrackPointExtension>
            <ns3:atemp>18.0</ns3:atemp>
          </ns3:TrackPointExtension>
        </extensions>
      </trkpt>
      <trkpt lat="42.49223071150481700897216796875" lon="19.99589578248560428619384765625">
        <ele>1904.5999755859375</ele>
        <time>2026-06-19T08:48:24.000Z</time>
        <extensions>
          <ns3:TrackPointExtension>
            <ns3:atemp>18.0</ns3:atemp>
          </ns3:TrackPointExtension>
        </extensions>
      </trkpt>
      <trkpt lat="42.4922276102006435394287109375" lon="19.99591447412967681884765625">
        <ele>1904.800048828125</ele>
        <time>2026-06-19T08:48:25.000Z</time>
        <extensions>
          <ns3:TrackPointExtension>
            <ns3:atemp>18.0</ns3:atemp>
          </ns3:TrackPointExtension>
        </extensions>
      </trkpt>
      <trkpt lat="42.49222853220999240875244140625" lon="19.99594003893435001373291015625">
        <ele>1905</ele>
        <time>2026-06-19T08:48:26.000Z</time>
        <extensions>
          <ns3:TrackPointExtension>
            <ns3:atemp>18.0</ns3:atemp>
          </ns3:TrackPointExtension>
        </extensions>
      </trkpt>
      <trkpt lat="42.49222367070615291595458984375" lon="19.9959531985223293304443359375">
        <ele>1905.199951171875</ele>
        <time>2026-06-19T08:48:27.000Z</time>
        <extensions>
          <ns3:TrackPointExtension>
            <ns3:atemp>18.0</ns3:atemp>
          </ns3:TrackPointExtension>
        </extensions>
      </trkpt>
      <trkpt lat="42.49221503734588623046875" lon="19.995959736406803131103515625">
        <ele>1905.199951171875</ele>
        <time>2026-06-19T08:48:28.000Z</time>
        <extensions>
          <ns3:TrackPointExtension>
            <ns3:atemp>18.0</ns3:atemp>
          </ns3:TrackPointExtension>
        </extensions>
      </trkpt>
      <trkpt lat="42.49221176840364933013916015625" lon="19.9959607422351837158203125">
        <ele>1905.4000244140625</ele>
        <time>2026-06-19T08:48:29.000Z</time>
        <extensions>
          <ns3:TrackPointExtension>
            <ns3:atemp>18.0</ns3:atemp>
          </ns3:TrackPointExtension>
        </extensions>
      </trkpt>
      <trkpt lat="42.4922121874988079071044921875" lon="19.9959588982164859771728515625">
        <ele>1905.4000244140625</ele>
        <time>2026-06-19T08:48:30.000Z</time>
        <extensions>
          <ns3:TrackPointExtension>
            <ns3:atemp>18.0</ns3:atemp>
          </ns3:TrackPointExtension>
        </extensions>
      </trkpt>
      <trkpt lat="42.4922121874988079071044921875" lon="19.9959588982164859771728515625">
        <ele>1905.5999755859375</ele>
        <time>2026-06-19T08:48:31.000Z</time>
        <extensions>
          <ns3:TrackPointExtension>
            <ns3:atemp>18.0</ns3:atemp>
          </ns3:TrackPointExtension>
        </extensions>
      </trkpt>
      <trkpt lat="42.4922121874988079071044921875" lon="19.9959588982164859771728515625">
        <ele>1905.5999755859375</ele>
        <time>2026-06-19T08:48:32.000Z</time>
        <extensions>
          <ns3:TrackPointExtension>
            <ns3:atemp>18.0</ns3:atemp>
          </ns3:TrackPointExtension>
        </extensions>
      </trkpt>
      <trkpt lat="42.4922121874988079071044921875" lon="19.9959588982164859771728515625">
        <ele>1905.5999755859375</ele>
        <time>2026-06-19T08:48:33.000Z</time>
        <extensions>
          <ns3:TrackPointExtension>
            <ns3:atemp>18.0</ns3:atemp>
          </ns3:TrackPointExtension>
        </extensions>
      </trkpt>
      <trkpt lat="42.4922121874988079071044921875" lon="19.9959588982164859771728515625">
        <ele>1905.5999755859375</ele>
        <time>2026-06-19T08:48:34.000Z</time>
        <extensions>
          <ns3:TrackPointExtension>
            <ns3:atemp>18.0</ns3:atemp>
          </ns3:TrackPointExtension>
        </extensions>
      </trkpt>
      <trkpt lat="42.4922121874988079071044921875" lon="19.9959588982164859771728515625">
        <ele>1905.5999755859375</ele>
        <time>2026-06-19T08:48:35.000Z</time>
        <extensions>
          <ns3:TrackPointExtension>
            <ns3:atemp>18.0</ns3:atemp>
          </ns3:TrackPointExtension>
        </extensions>
      </trkpt>
      <trkpt lat="42.4922121874988079071044921875" lon="19.9959588982164859771728515625">
        <ele>1905.5999755859375</ele>
        <time>2026-06-19T08:48:36.000Z</time>
        <extensions>
          <ns3:TrackPointExtension>
            <ns3:atemp>18.0</ns3:atemp>
          </ns3:TrackPointExtension>
        </extensions>
      </trkpt>
      <trkpt lat="42.4922121874988079071044921875" lon="19.9959588982164859771728515625">
        <ele>1905.5999755859375</ele>
        <time>2026-06-19T08:48:37.000Z</time>
        <extensions>
          <ns3:TrackPointExtension>
            <ns3:atemp>18.0</ns3:atemp>
          </ns3:TrackPointExtension>
        </extensions>
      </trkpt>
      <trkpt lat="42.4922121874988079071044921875" lon="19.9959588982164859771728515625">
        <ele>1905.5999755859375</ele>
        <time>2026-06-19T08:48:38.000Z</time>
        <extensions>
          <ns3:TrackPointExtension>
            <ns3:atemp>18.0</ns3:atemp>
          </ns3:TrackPointExtension>
        </extensions>
      </trkpt>
      <trkpt lat="42.4922121874988079071044921875" lon="19.9959588982164859771728515625">
        <ele>1905.5999755859375</ele>
        <time>2026-06-19T08:48:39.000Z</time>
        <extensions>
          <ns3:TrackPointExtension>
            <ns3:atemp>18.0</ns3:atemp>
          </ns3:TrackPointExtension>
        </extensions>
      </trkpt>
      <trkpt lat="42.4922121874988079071044921875" lon="19.9959588982164859771728515625">
        <ele>1905.5999755859375</ele>
        <time>2026-06-19T08:48:40.000Z</time>
        <extensions>
          <ns3:TrackPointExtension>
            <ns3:atemp>18.0</ns3:atemp>
          </ns3:TrackPointExtension>
        </extensions>
      </trkpt>
      <trkpt lat="42.4922121874988079071044921875" lon="19.9959588982164859771728515625">
        <ele>1905.5999755859375</ele>
        <time>2026-06-19T08:48:41.000Z</time>
        <extensions>
          <ns3:TrackPointExtension>
            <ns3:atemp>18.0</ns3:atemp>
          </ns3:TrackPointExtension>
        </extensions>
      </trkpt>
      <trkpt lat="42.4922121874988079071044921875" lon="19.9959588982164859771728515625">
        <ele>1905.5999755859375</ele>
        <time>2026-06-19T08:48:42.000Z</time>
        <extensions>
          <ns3:TrackPointExtension>
            <ns3:atemp>18.0</ns3:atemp>
          </ns3:TrackPointExtension>
        </extensions>
      </trkpt>
      <trkpt lat="42.4922121874988079071044921875" lon="19.9959588982164859771728515625">
        <ele>1905.5999755859375</ele>
        <time>2026-06-19T08:48:43.000Z</time>
        <extensions>
          <ns3:TrackPointExtension>
            <ns3:atemp>18.0</ns3:atemp>
          </ns3:TrackPointExtension>
        </extensions>
      </trkpt>
      <trkpt lat="42.4922121874988079071044921875" lon="19.9959588982164859771728515625">
        <ele>1905.5999755859375</ele>
        <time>2026-06-19T08:48:44.000Z</time>
        <extensions>
          <ns3:TrackPointExtension>
            <ns3:atemp>18.0</ns3:atemp>
          </ns3:TrackPointExtension>
        </extensions>
      </trkpt>
      <trkpt lat="42.4922121874988079071044921875" lon="19.9959588982164859771728515625">
        <ele>1905.5999755859375</ele>
        <time>2026-06-19T08:48:45.000Z</time>
        <extensions>
          <ns3:TrackPointExtension>
            <ns3:atemp>18.0</ns3:atemp>
          </ns3:TrackPointExtension>
        </extensions>
      </trkpt>
      <trkpt lat="42.4922121874988079071044921875" lon="19.9959588982164859771728515625">
        <ele>1905.5999755859375</ele>
        <time>2026-06-19T08:48:46.000Z</time>
        <extensions>
          <ns3:TrackPointExtension>
            <ns3:atemp>19.0</ns3:atemp>
          </ns3:TrackPointExtension>
        </extensions>
      </trkpt>
      <trkpt lat="42.4922121874988079071044921875" lon="19.9959588982164859771728515625">
        <ele>1905.5999755859375</ele>
        <time>2026-06-19T08:48:47.000Z</time>
        <extensions>
          <ns3:TrackPointExtension>
            <ns3:atemp>19.0</ns3:atemp>
          </ns3:TrackPointExtension>
        </extensions>
      </trkpt>
      <trkpt lat="42.4922121874988079071044921875" lon="19.9959588982164859771728515625">
        <ele>1905.5999755859375</ele>
        <time>2026-06-19T08:48:48.000Z</time>
        <extensions>
          <ns3:TrackPointExtension>
            <ns3:atemp>19.0</ns3:atemp>
          </ns3:TrackPointExtension>
        </extensions>
      </trkpt>
      <trkpt lat="42.4922121874988079071044921875" lon="19.9959588982164859771728515625">
        <ele>1905.5999755859375</ele>
        <time>2026-06-19T08:48:49.000Z</time>
        <extensions>
          <ns3:TrackPointExtension>
            <ns3:atemp>19.0</ns3:atemp>
          </ns3:TrackPointExtension>
        </extensions>
      </trkpt>
      <trkpt lat="42.4922121874988079071044921875" lon="19.9959588982164859771728515625">
        <ele>1905.5999755859375</ele>
        <time>2026-06-19T08:48:50.000Z</time>
        <extensions>
          <ns3:TrackPointExtension>
            <ns3:atemp>19.0</ns3:atemp>
          </ns3:TrackPointExtension>
        </extensions>
      </trkpt>
      <trkpt lat="42.4922121874988079071044921875" lon="19.9959588982164859771728515625">
        <ele>1905.5999755859375</ele>
        <time>2026-06-19T08:48:51.000Z</time>
        <extensions>
          <ns3:TrackPointExtension>
            <ns3:atemp>19.0</ns3:atemp>
          </ns3:TrackPointExtension>
        </extensions>
      </trkpt>
      <trkpt lat="42.4922121874988079071044921875" lon="19.9959588982164859771728515625">
        <ele>1905.5999755859375</ele>
        <time>2026-06-19T08:48:52.000Z</time>
        <extensions>
          <ns3:TrackPointExtension>
            <ns3:atemp>19.0</ns3:atemp>
          </ns3:TrackPointExtension>
        </extensions>
      </trkpt>
      <trkpt lat="42.4922121874988079071044921875" lon="19.9959588982164859771728515625">
        <ele>1905.5999755859375</ele>
        <time>2026-06-19T08:48:53.000Z</time>
        <extensions>
          <ns3:TrackPointExtension>
            <ns3:atemp>19.0</ns3:atemp>
          </ns3:TrackPointExtension>
        </extensions>
      </trkpt>
      <trkpt lat="42.4922121874988079071044921875" lon="19.9959588982164859771728515625">
        <ele>1905.5999755859375</ele>
        <time>2026-06-19T08:48:54.000Z</time>
        <extensions>
          <ns3:TrackPointExtension>
            <ns3:atemp>19.0</ns3:atemp>
          </ns3:TrackPointExtension>
        </extensions>
      </trkpt>
      <trkpt lat="42.4922121874988079071044921875" lon="19.9959588982164859771728515625">
        <ele>1905.5999755859375</ele>
        <time>2026-06-19T08:48:55.000Z</time>
        <extensions>
          <ns3:TrackPointExtension>
            <ns3:atemp>19.0</ns3:atemp>
          </ns3:TrackPointExtension>
        </extensions>
      </trkpt>
      <trkpt lat="42.4922121874988079071044921875" lon="19.9959588982164859771728515625">
        <ele>1905.5999755859375</ele>
        <time>2026-06-19T08:48:56.000Z</time>
        <extensions>
          <ns3:TrackPointExtension>
            <ns3:atemp>19.0</ns3:atemp>
          </ns3:TrackPointExtension>
        </extensions>
      </trkpt>
      <trkpt lat="42.4922121874988079071044921875" lon="19.9959588982164859771728515625">
        <ele>1905.5999755859375</ele>
        <time>2026-06-19T08:48:57.000Z</time>
        <extensions>
          <ns3:TrackPointExtension>
            <ns3:atemp>19.0</ns3:atemp>
          </ns3:TrackPointExtension>
        </extensions>
      </trkpt>
      <trkpt lat="42.4922121874988079071044921875" lon="19.9959588982164859771728515625">
        <ele>1905.5999755859375</ele>
        <time>2026-06-19T08:48:58.000Z</time>
        <extensions>
          <ns3:TrackPointExtension>
            <ns3:atemp>19.0</ns3:atemp>
          </ns3:TrackPointExtension>
        </extensions>
      </trkpt>
      <trkpt lat="42.4922121874988079071044921875" lon="19.9959588982164859771728515625">
        <ele>1905.5999755859375</ele>
        <time>2026-06-19T08:48:59.000Z</time>
        <extensions>
          <ns3:TrackPointExtension>
            <ns3:atemp>19.0</ns3:atemp>
          </ns3:TrackPointExtension>
        </extensions>
      </trkpt>
      <trkpt lat="42.4922121874988079071044921875" lon="19.9959588982164859771728515625">
        <ele>1905.5999755859375</ele>
        <time>2026-06-19T08:49:00.000Z</time>
        <extensions>
          <ns3:TrackPointExtension>
            <ns3:atemp>19.0</ns3:atemp>
          </ns3:TrackPointExtension>
        </extensions>
      </trkpt>
      <trkpt lat="42.4922121874988079071044921875" lon="19.9959588982164859771728515625">
        <ele>1905.5999755859375</ele>
        <time>2026-06-19T08:49:01.000Z</time>
        <extensions>
          <ns3:TrackPointExtension>
            <ns3:atemp>19.0</ns3:atemp>
          </ns3:TrackPointExtension>
        </extensions>
      </trkpt>
      <trkpt lat="42.4922121874988079071044921875" lon="19.9959588982164859771728515625">
        <ele>1905.5999755859375</ele>
        <time>2026-06-19T08:49:02.000Z</time>
        <extensions>
          <ns3:TrackPointExtension>
            <ns3:atemp>19.0</ns3:atemp>
          </ns3:TrackPointExtension>
        </extensions>
      </trkpt>
      <trkpt lat="42.4922121874988079071044921875" lon="19.9959588982164859771728515625">
        <ele>1905.5999755859375</ele>
        <time>2026-06-19T08:49:03.000Z</time>
        <extensions>
          <ns3:TrackPointExtension>
            <ns3:atemp>19.0</ns3:atemp>
          </ns3:TrackPointExtension>
        </extensions>
      </trkpt>
      <trkpt lat="42.4922121874988079071044921875" lon="19.9959588982164859771728515625">
        <ele>1905.5999755859375</ele>
        <time>2026-06-19T08:49:04.000Z</time>
        <extensions>
          <ns3:TrackPointExtension>
            <ns3:atemp>19.0</ns3:atemp>
          </ns3:TrackPointExtension>
        </extensions>
      </trkpt>
      <trkpt lat="42.4922121874988079071044921875" lon="19.9959588982164859771728515625">
        <ele>1905.5999755859375</ele>
        <time>2026-06-19T08:49:05.000Z</time>
        <extensions>
          <ns3:TrackPointExtension>
            <ns3:atemp>19.0</ns3:atemp>
          </ns3:TrackPointExtension>
        </extensions>
      </trkpt>
      <trkpt lat="42.4922121874988079071044921875" lon="19.9959588982164859771728515625">
        <ele>1905.5999755859375</ele>
        <time>2026-06-19T08:49:06.000Z</time>
        <extensions>
          <ns3:TrackPointExtension>
            <ns3:atemp>19.0</ns3:atemp>
          </ns3:TrackPointExtension>
        </extensions>
      </trkpt>
      <trkpt lat="42.4922121874988079071044921875" lon="19.9959588982164859771728515625">
        <ele>1905.5999755859375</ele>
        <time>2026-06-19T08:49:07.000Z</time>
        <extensions>
          <ns3:TrackPointExtension>
            <ns3:atemp>19.0</ns3:atemp>
          </ns3:TrackPointExtension>
        </extensions>
      </trkpt>
      <trkpt lat="42.4922121874988079071044921875" lon="19.9959588982164859771728515625">
        <ele>1905.5999755859375</ele>
        <time>2026-06-19T08:49:08.000Z</time>
        <extensions>
          <ns3:TrackPointExtension>
            <ns3:atemp>19.0</ns3:atemp>
          </ns3:TrackPointExtension>
        </extensions>
      </trkpt>
      <trkpt lat="42.4922121874988079071044921875" lon="19.9959588982164859771728515625">
        <ele>1905.5999755859375</ele>
        <time>2026-06-19T08:49:09.000Z</time>
        <extensions>
          <ns3:TrackPointExtension>
            <ns3:atemp>19.0</ns3:atemp>
          </ns3:TrackPointExtension>
        </extensions>
      </trkpt>
      <trkpt lat="42.4922121874988079071044921875" lon="19.9959588982164859771728515625">
        <ele>1905.5999755859375</ele>
        <time>2026-06-19T08:49:10.000Z</time>
        <extensions>
          <ns3:TrackPointExtension>
            <ns3:atemp>19.0</ns3:atemp>
          </ns3:TrackPointExtension>
        </extensions>
      </trkpt>
      <trkpt lat="42.4922121874988079071044921875" lon="19.9959588982164859771728515625">
        <ele>1905.5999755859375</ele>
        <time>2026-06-19T08:49:11.000Z</time>
        <extensions>
          <ns3:TrackPointExtension>
            <ns3:atemp>19.0</ns3:atemp>
          </ns3:TrackPointExtension>
        </extensions>
      </trkpt>
      <trkpt lat="42.4922121874988079071044921875" lon="19.9959588982164859771728515625">
        <ele>1905.5999755859375</ele>
        <time>2026-06-19T08:49:12.000Z</time>
        <extensions>
          <ns3:TrackPointExtension>
            <ns3:atemp>19.0</ns3:atemp>
          </ns3:TrackPointExtension>
        </extensions>
      </trkpt>
      <trkpt lat="42.4922121874988079071044921875" lon="19.9959588982164859771728515625">
        <ele>1905.5999755859375</ele>
        <time>2026-06-19T08:49:13.000Z</time>
        <extensions>
          <ns3:TrackPointExtension>
            <ns3:atemp>19.0</ns3:atemp>
          </ns3:TrackPointExtension>
        </extensions>
      </trkpt>
      <trkpt lat="42.4922121874988079071044921875" lon="19.9959588982164859771728515625">
        <ele>1905.5999755859375</ele>
        <time>2026-06-19T08:49:14.000Z</time>
        <extensions>
          <ns3:TrackPointExtension>
            <ns3:atemp>19.0</ns3:atemp>
          </ns3:TrackPointExtension>
        </extensions>
      </trkpt>
      <trkpt lat="42.4922121874988079071044921875" lon="19.9959588982164859771728515625">
        <ele>1905.800048828125</ele>
        <time>2026-06-19T08:49:15.000Z</time>
        <extensions>
          <ns3:TrackPointExtension>
            <ns3:atemp>19.0</ns3:atemp>
          </ns3:TrackPointExtension>
        </extensions>
      </trkpt>
      <trkpt lat="42.4922121874988079071044921875" lon="19.9959588982164859771728515625">
        <ele>1905.800048828125</ele>
        <time>2026-06-19T08:49:16.000Z</time>
        <extensions>
          <ns3:TrackPointExtension>
            <ns3:atemp>19.0</ns3:atemp>
          </ns3:TrackPointExtension>
        </extensions>
      </trkpt>
      <trkpt lat="42.4922121874988079071044921875" lon="19.9959588982164859771728515625">
        <ele>1905.800048828125</ele>
        <time>2026-06-19T08:49:17.000Z</time>
        <extensions>
          <ns3:TrackPointExtension>
            <ns3:atemp>19.0</ns3:atemp>
          </ns3:TrackPointExtension>
        </extensions>
      </trkpt>
      <trkpt lat="42.4922121874988079071044921875" lon="19.9959588982164859771728515625">
        <ele>1905.800048828125</ele>
        <time>2026-06-19T08:49:18.000Z</time>
        <extensions>
          <ns3:TrackPointExtension>
            <ns3:atemp>19.0</ns3:atemp>
          </ns3:TrackPointExtension>
        </extensions>
      </trkpt>
      <trkpt lat="42.4922121874988079071044921875" lon="19.9959588982164859771728515625">
        <ele>1905.800048828125</ele>
        <time>2026-06-19T08:49:19.000Z</time>
        <extensions>
          <ns3:TrackPointExtension>
            <ns3:atemp>19.0</ns3:atemp>
          </ns3:TrackPointExtension>
        </extensions>
      </trkpt>
      <trkpt lat="42.4922121874988079071044921875" lon="19.9959588982164859771728515625">
        <ele>1906</ele>
        <time>2026-06-19T08:49:20.000Z</time>
        <extensions>
          <ns3:TrackPointExtension>
            <ns3:atemp>19.0</ns3:atemp>
          </ns3:TrackPointExtension>
        </extensions>
      </trkpt>
      <trkpt lat="42.4922121874988079071044921875" lon="19.9959588982164859771728515625">
        <ele>1906</ele>
        <time>2026-06-19T08:49:21.000Z</time>
        <extensions>
          <ns3:TrackPointExtension>
            <ns3:atemp>19.0</ns3:atemp>
          </ns3:TrackPointExtension>
        </extensions>
      </trkpt>
      <trkpt lat="42.4922121874988079071044921875" lon="19.9959588982164859771728515625">
        <ele>1906</ele>
        <time>2026-06-19T08:49:22.000Z</time>
        <extensions>
          <ns3:TrackPointExtension>
            <ns3:atemp>19.0</ns3:atemp>
          </ns3:TrackPointExtension>
        </extensions>
      </trkpt>
      <trkpt lat="42.4922121874988079071044921875" lon="19.9959588982164859771728515625">
        <ele>1906</ele>
        <time>2026-06-19T08:49:23.000Z</time>
        <extensions>
          <ns3:TrackPointExtension>
            <ns3:atemp>19.0</ns3:atemp>
          </ns3:TrackPointExtension>
        </extensions>
      </trkpt>
      <trkpt lat="42.4922121874988079071044921875" lon="19.9959588982164859771728515625">
        <ele>1906</ele>
        <time>2026-06-19T08:49:24.000Z</time>
        <extensions>
          <ns3:TrackPointExtension>
            <ns3:atemp>19.0</ns3:atemp>
          </ns3:TrackPointExtension>
        </extensions>
      </trkpt>
      <trkpt lat="42.4922121874988079071044921875" lon="19.9959588982164859771728515625">
        <ele>1906</ele>
        <time>2026-06-19T08:49:25.000Z</time>
        <extensions>
          <ns3:TrackPointExtension>
            <ns3:atemp>19.0</ns3:atemp>
          </ns3:TrackPointExtension>
        </extensions>
      </trkpt>
      <trkpt lat="42.4922121874988079071044921875" lon="19.9959588982164859771728515625">
        <ele>1906</ele>
        <time>2026-06-19T08:49:26.000Z</time>
        <extensions>
          <ns3:TrackPointExtension>
            <ns3:atemp>19.0</ns3:atemp>
          </ns3:TrackPointExtension>
        </extensions>
      </trkpt>
      <trkpt lat="42.4922121874988079071044921875" lon="19.9959588982164859771728515625">
        <ele>1906</ele>
        <time>2026-06-19T08:49:27.000Z</time>
        <extensions>
          <ns3:TrackPointExtension>
            <ns3:atemp>19.0</ns3:atemp>
          </ns3:TrackPointExtension>
        </extensions>
      </trkpt>
      <trkpt lat="42.4922121874988079071044921875" lon="19.9959588982164859771728515625">
        <ele>1906</ele>
        <time>2026-06-19T08:49:28.000Z</time>
        <extensions>
          <ns3:TrackPointExtension>
            <ns3:atemp>19.0</ns3:atemp>
          </ns3:TrackPointExtension>
        </extensions>
      </trkpt>
      <trkpt lat="42.4922121874988079071044921875" lon="19.9959588982164859771728515625">
        <ele>1906</ele>
        <time>2026-06-19T08:49:29.000Z</time>
        <extensions>
          <ns3:TrackPointExtension>
            <ns3:atemp>19.0</ns3:atemp>
          </ns3:TrackPointExtension>
        </extensions>
      </trkpt>
      <trkpt lat="42.4922121874988079071044921875" lon="19.9959588982164859771728515625">
        <ele>1906.199951171875</ele>
        <time>2026-06-19T08:49:30.000Z</time>
        <extensions>
          <ns3:TrackPointExtension>
            <ns3:atemp>19.0</ns3:atemp>
          </ns3:TrackPointExtension>
        </extensions>
      </trkpt>
      <trkpt lat="42.4922121874988079071044921875" lon="19.9959588982164859771728515625">
        <ele>1906.199951171875</ele>
        <time>2026-06-19T08:49:31.000Z</time>
        <extensions>
          <ns3:TrackPointExtension>
            <ns3:atemp>19.0</ns3:atemp>
          </ns3:TrackPointExtension>
        </extensions>
      </trkpt>
      <trkpt lat="42.4922121874988079071044921875" lon="19.9959588982164859771728515625">
        <ele>1906.199951171875</ele>
        <time>2026-06-19T08:49:32.000Z</time>
        <extensions>
          <ns3:TrackPointExtension>
            <ns3:atemp>19.0</ns3:atemp>
          </ns3:TrackPointExtension>
        </extensions>
      </trkpt>
      <trkpt lat="42.4922121874988079071044921875" lon="19.9959588982164859771728515625">
        <ele>1906.199951171875</ele>
        <time>2026-06-19T08:49:33.000Z</time>
        <extensions>
          <ns3:TrackPointExtension>
            <ns3:atemp>19.0</ns3:atemp>
          </ns3:TrackPointExtension>
        </extensions>
      </trkpt>
      <trkpt lat="42.4922121874988079071044921875" lon="19.9959588982164859771728515625">
        <ele>1906.199951171875</ele>
        <time>2026-06-19T08:49:34.000Z</time>
        <extensions>
          <ns3:TrackPointExtension>
            <ns3:atemp>19.0</ns3:atemp>
          </ns3:TrackPointExtension>
        </extensions>
      </trkpt>
      <trkpt lat="42.4922121874988079071044921875" lon="19.9959588982164859771728515625">
        <ele>1906</ele>
        <time>2026-06-19T08:49:35.000Z</time>
        <extensions>
          <ns3:TrackPointExtension>
            <ns3:atemp>19.0</ns3:atemp>
          </ns3:TrackPointExtension>
        </extensions>
      </trkpt>
      <trkpt lat="42.4922121874988079071044921875" lon="19.9959588982164859771728515625">
        <ele>1906</ele>
        <time>2026-06-19T08:49:36.000Z</time>
        <extensions>
          <ns3:TrackPointExtension>
            <ns3:atemp>19.0</ns3:atemp>
          </ns3:TrackPointExtension>
        </extensions>
      </trkpt>
      <trkpt lat="42.4922121874988079071044921875" lon="19.9959588982164859771728515625">
        <ele>1906</ele>
        <time>2026-06-19T08:49:37.000Z</time>
        <extensions>
          <ns3:TrackPointExtension>
            <ns3:atemp>19.0</ns3:atemp>
          </ns3:TrackPointExtension>
        </extensions>
      </trkpt>
      <trkpt lat="42.4922121874988079071044921875" lon="19.9959588982164859771728515625">
        <ele>1905.800048828125</ele>
        <time>2026-06-19T08:49:38.000Z</time>
        <extensions>
          <ns3:TrackPointExtension>
            <ns3:atemp>19.0</ns3:atemp>
          </ns3:TrackPointExtension>
        </extensions>
      </trkpt>
      <trkpt lat="42.4922121874988079071044921875" lon="19.9959588982164859771728515625">
        <ele>1905.800048828125</ele>
        <time>2026-06-19T08:49:39.000Z</time>
        <extensions>
          <ns3:TrackPointExtension>
            <ns3:atemp>19.0</ns3:atemp>
          </ns3:TrackPointExtension>
        </extensions>
      </trkpt>
      <trkpt lat="42.4922121874988079071044921875" lon="19.9959588982164859771728515625">
        <ele>1905.800048828125</ele>
        <time>2026-06-19T08:49:40.000Z</time>
        <extensions>
          <ns3:TrackPointExtension>
            <ns3:atemp>19.0</ns3:atemp>
          </ns3:TrackPointExtension>
        </extensions>
      </trkpt>
      <trkpt lat="42.4922121874988079071044921875" lon="19.9959588982164859771728515625">
        <ele>1905.800048828125</ele>
        <time>2026-06-19T08:49:41.000Z</time>
        <extensions>
          <ns3:TrackPointExtension>
            <ns3:atemp>19.0</ns3:atemp>
          </ns3:TrackPointExtension>
        </extensions>
      </trkpt>
      <trkpt lat="42.4922121874988079071044921875" lon="19.9959588982164859771728515625">
        <ele>1905.5999755859375</ele>
        <time>2026-06-19T08:49:42.000Z</time>
        <extensions>
          <ns3:TrackPointExtension>
            <ns3:atemp>19.0</ns3:atemp>
          </ns3:TrackPointExtension>
        </extensions>
      </trkpt>
      <trkpt lat="42.4922121874988079071044921875" lon="19.9959588982164859771728515625">
        <ele>1905.5999755859375</ele>
        <time>2026-06-19T08:49:43.000Z</time>
        <extensions>
          <ns3:TrackPointExtension>
            <ns3:atemp>19.0</ns3:atemp>
          </ns3:TrackPointExtension>
        </extensions>
      </trkpt>
      <trkpt lat="42.4922121874988079071044921875" lon="19.9959588982164859771728515625">
        <ele>1905.4000244140625</ele>
        <time>2026-06-19T08:49:44.000Z</time>
        <extensions>
          <ns3:TrackPointExtension>
            <ns3:atemp>19.0</ns3:atemp>
          </ns3:TrackPointExtension>
        </extensions>
      </trkpt>
      <trkpt lat="42.4922121874988079071044921875" lon="19.9959588982164859771728515625">
        <ele>1905.4000244140625</ele>
        <time>2026-06-19T08:49:45.000Z</time>
        <extensions>
          <ns3:TrackPointExtension>
            <ns3:atemp>19.0</ns3:atemp>
          </ns3:TrackPointExtension>
        </extensions>
      </trkpt>
      <trkpt lat="42.4922121874988079071044921875" lon="19.9959588982164859771728515625">
        <ele>1905.4000244140625</ele>
        <time>2026-06-19T08:49:46.000Z</time>
        <extensions>
          <ns3:TrackPointExtension>
            <ns3:atemp>19.0</ns3:atemp>
          </ns3:TrackPointExtension>
        </extensions>
      </trkpt>
      <trkpt lat="42.4922121874988079071044921875" lon="19.9959588982164859771728515625">
        <ele>1905.4000244140625</ele>
        <time>2026-06-19T08:49:47.000Z</time>
        <extensions>
          <ns3:TrackPointExtension>
            <ns3:atemp>19.0</ns3:atemp>
          </ns3:TrackPointExtension>
        </extensions>
      </trkpt>
      <trkpt lat="42.4922121874988079071044921875" lon="19.9959588982164859771728515625">
        <ele>1905.4000244140625</ele>
        <time>2026-06-19T08:49:48.000Z</time>
        <extensions>
          <ns3:TrackPointExtension>
            <ns3:atemp>19.0</ns3:atemp>
          </ns3:TrackPointExtension>
        </extensions>
      </trkpt>
      <trkpt lat="42.4922121874988079071044921875" lon="19.9959588982164859771728515625">
        <ele>1905.5999755859375</ele>
        <time>2026-06-19T08:49:49.000Z</time>
        <extensions>
          <ns3:TrackPointExtension>
            <ns3:atemp>19.0</ns3:atemp>
          </ns3:TrackPointExtension>
        </extensions>
      </trkpt>
      <trkpt lat="42.4922121874988079071044921875" lon="19.9959588982164859771728515625">
        <ele>1905.800048828125</ele>
        <time>2026-06-19T08:49:50.000Z</time>
        <extensions>
          <ns3:TrackPointExtension>
            <ns3:atemp>19.0</ns3:atemp>
          </ns3:TrackPointExtension>
        </extensions>
      </trkpt>
      <trkpt lat="42.4922121874988079071044921875" lon="19.9959588982164859771728515625">
        <ele>1906</ele>
        <time>2026-06-19T08:49:51.000Z</time>
        <extensions>
          <ns3:TrackPointExtension>
            <ns3:atemp>19.0</ns3:atemp>
          </ns3:TrackPointExtension>
        </extensions>
      </trkpt>
      <trkpt lat="42.4922121874988079071044921875" lon="19.9959588982164859771728515625">
        <ele>1906</ele>
        <time>2026-06-19T08:49:52.000Z</time>
        <extensions>
          <ns3:TrackPointExtension>
            <ns3:atemp>19.0</ns3:atemp>
          </ns3:TrackPointExtension>
        </extensions>
      </trkpt>
      <trkpt lat="42.4922121874988079071044921875" lon="19.9959588982164859771728515625">
        <ele>1906</ele>
        <time>2026-06-19T08:49:53.000Z</time>
        <extensions>
          <ns3:TrackPointExtension>
            <ns3:atemp>19.0</ns3:atemp>
          </ns3:TrackPointExtension>
        </extensions>
      </trkpt>
      <trkpt lat="42.4922121874988079071044921875" lon="19.9959588982164859771728515625">
        <ele>1906</ele>
        <time>2026-06-19T08:49:54.000Z</time>
        <extensions>
          <ns3:TrackPointExtension>
            <ns3:atemp>19.0</ns3:atemp>
          </ns3:TrackPointExtension>
        </extensions>
      </trkpt>
      <trkpt lat="42.4922121874988079071044921875" lon="19.9959588982164859771728515625">
        <ele>1906</ele>
        <time>2026-06-19T08:49:55.000Z</time>
        <extensions>
          <ns3:TrackPointExtension>
            <ns3:atemp>19.0</ns3:atemp>
          </ns3:TrackPointExtension>
        </extensions>
      </trkpt>
      <trkpt lat="42.4922121874988079071044921875" lon="19.9959588982164859771728515625">
        <ele>1906</ele>
        <time>2026-06-19T08:49:56.000Z</time>
        <extensions>
          <ns3:TrackPointExtension>
            <ns3:atemp>19.0</ns3:atemp>
          </ns3:TrackPointExtension>
        </extensions>
      </trkpt>
      <trkpt lat="42.4922121874988079071044921875" lon="19.9959588982164859771728515625">
        <ele>1906.199951171875</ele>
        <time>2026-06-19T08:49:57.000Z</time>
        <extensions>
          <ns3:TrackPointExtension>
            <ns3:atemp>19.0</ns3:atemp>
          </ns3:TrackPointExtension>
        </extensions>
      </trkpt>
      <trkpt lat="42.4922121874988079071044921875" lon="19.9959588982164859771728515625">
        <ele>1906.199951171875</ele>
        <time>2026-06-19T08:49:58.000Z</time>
        <extensions>
          <ns3:TrackPointExtension>
            <ns3:atemp>19.0</ns3:atemp>
          </ns3:TrackPointExtension>
        </extensions>
      </trkpt>
      <trkpt lat="42.4922121874988079071044921875" lon="19.9959588982164859771728515625">
        <ele>1906.199951171875</ele>
        <time>2026-06-19T08:49:59.000Z</time>
        <extensions>
          <ns3:TrackPointExtension>
            <ns3:atemp>19.0</ns3:atemp>
          </ns3:TrackPointExtension>
        </extensions>
      </trkpt>
      <trkpt lat="42.4922121874988079071044921875" lon="19.9959588982164859771728515625">
        <ele>1906.4000244140625</ele>
        <time>2026-06-19T08:50:00.000Z</time>
        <extensions>
          <ns3:TrackPointExtension>
            <ns3:atemp>19.0</ns3:atemp>
          </ns3:TrackPointExtension>
        </extensions>
      </trkpt>
      <trkpt lat="42.49221227131783962249755859375" lon="19.9959582276642322540283203125">
        <ele>1906.4000244140625</ele>
        <time>2026-06-19T08:50:01.000Z</time>
        <extensions>
          <ns3:TrackPointExtension>
            <ns3:atemp>19.0</ns3:atemp>
          </ns3:TrackPointExtension>
        </extensions>
      </trkpt>
      <trkpt lat="42.49220858328044414520263671875" lon="19.9959575571119785308837890625">
        <ele>1906.4000244140625</ele>
        <time>2026-06-19T08:50:02.000Z</time>
        <extensions>
          <ns3:TrackPointExtension>
            <ns3:atemp>19.0</ns3:atemp>
          </ns3:TrackPointExtension>
        </extensions>
      </trkpt>
      <trkpt lat="42.49220439232885837554931640625" lon="19.9959592334926128387451171875">
        <ele>1906.5999755859375</ele>
        <time>2026-06-19T08:50:03.000Z</time>
        <extensions>
          <ns3:TrackPointExtension>
            <ns3:atemp>19.0</ns3:atemp>
          </ns3:TrackPointExtension>
        </extensions>
      </trkpt>
      <trkpt lat="42.4922002851963043212890625" lon="19.99596417881548404693603515625">
        <ele>1906.5999755859375</ele>
        <time>2026-06-19T08:50:04.000Z</time>
        <extensions>
          <ns3:TrackPointExtension>
            <ns3:atemp>19.0</ns3:atemp>
          </ns3:TrackPointExtension>
        </extensions>
      </trkpt>
      <trkpt lat="42.49219416640698909759521484375" lon="19.99596677720546722412109375">
        <ele>1906.5999755859375</ele>
        <time>2026-06-19T08:50:05.000Z</time>
        <extensions>
          <ns3:TrackPointExtension>
            <ns3:atemp>19.0</ns3:atemp>
          </ns3:TrackPointExtension>
        </extensions>
      </trkpt>
      <trkpt lat="42.49217790551483631134033203125" lon="19.995974488556385040283203125">
        <ele>1906.4000244140625</ele>
        <time>2026-06-19T08:50:06.000Z</time>
        <extensions>
          <ns3:TrackPointExtension>
            <ns3:atemp>19.0</ns3:atemp>
          </ns3:TrackPointExtension>
        </extensions>
      </trkpt>
      <trkpt lat="42.4921615608036518096923828125" lon="19.9959816969931125640869140625">
        <ele>1906.4000244140625</ele>
        <time>2026-06-19T08:50:07.000Z</time>
        <extensions>
          <ns3:TrackPointExtension>
            <ns3:atemp>19.0</ns3:atemp>
          </ns3:TrackPointExtension>
        </extensions>
      </trkpt>
      <trkpt lat="42.49214286915957927703857421875" lon="19.9959870614111423492431640625">
        <ele>1906.4000244140625</ele>
        <time>2026-06-19T08:50:08.000Z</time>
        <extensions>
          <ns3:TrackPointExtension>
            <ns3:atemp>19.0</ns3:atemp>
          </ns3:TrackPointExtension>
        </extensions>
      </trkpt>
      <trkpt lat="42.49212426133453845977783203125" lon="19.99599091708660125732421875">
        <ele>1906.4000244140625</ele>
        <time>2026-06-19T08:50:09.000Z</time>
        <extensions>
          <ns3:TrackPointExtension>
            <ns3:atemp>19.0</ns3:atemp>
          </ns3:TrackPointExtension>
        </extensions>
      </trkpt>
      <trkpt lat="42.49210632406175136566162109375" lon="19.99599301256239414215087890625">
        <ele>1906.5999755859375</ele>
        <time>2026-06-19T08:50:10.000Z</time>
        <extensions>
          <ns3:TrackPointExtension>
            <ns3:atemp>19.0</ns3:atemp>
          </ns3:TrackPointExtension>
        </extensions>
      </trkpt>
      <trkpt lat="42.49208972789347171783447265625" lon="19.99599703587591648101806640625">
        <ele>1906.5999755859375</ele>
        <time>2026-06-19T08:50:11.000Z</time>
        <extensions>
          <ns3:TrackPointExtension>
            <ns3:atemp>19.0</ns3:atemp>
          </ns3:TrackPointExtension>
        </extensions>
      </trkpt>
      <trkpt lat="42.49207313172519207000732421875" lon="19.99600256793200969696044921875">
        <ele>1906.800048828125</ele>
        <time>2026-06-19T08:50:12.000Z</time>
        <extensions>
          <ns3:TrackPointExtension>
            <ns3:atemp>19.0</ns3:atemp>
          </ns3:TrackPointExtension>
        </extensions>
      </trkpt>
      <trkpt lat="42.49205586500465869903564453125" lon="19.99600960873067378997802734375">
        <ele>1907.199951171875</ele>
        <time>2026-06-19T08:50:13.000Z</time>
        <extensions>
          <ns3:TrackPointExtension>
            <ns3:atemp>19.0</ns3:atemp>
          </ns3:TrackPointExtension>
        </extensions>
      </trkpt>
      <trkpt lat="42.4920428730547428131103515625" lon="19.9960125423967838287353515625">
        <ele>1907.4000244140625</ele>
        <time>2026-06-19T08:50:14.000Z</time>
        <extensions>
          <ns3:TrackPointExtension>
            <ns3:atemp>19.0</ns3:atemp>
          </ns3:TrackPointExtension>
        </extensions>
      </trkpt>
      <trkpt lat="42.4920304678380489349365234375" lon="19.99601748771965503692626953125">
        <ele>1907.5999755859375</ele>
        <time>2026-06-19T08:50:15.000Z</time>
        <extensions>
          <ns3:TrackPointExtension>
            <ns3:atemp>19.0</ns3:atemp>
          </ns3:TrackPointExtension>
        </extensions>
      </trkpt>
      <trkpt lat="42.49202200211584568023681640625" lon="19.99602251686155796051025390625">
        <ele>1907.800048828125</ele>
        <time>2026-06-19T08:50:16.000Z</time>
        <extensions>
          <ns3:TrackPointExtension>
            <ns3:atemp>19.0</ns3:atemp>
          </ns3:TrackPointExtension>
        </extensions>
      </trkpt>
      <trkpt lat="42.4920133687555789947509765625" lon="19.99603693373501300811767578125">
        <ele>1908</ele>
        <time>2026-06-19T08:50:17.000Z</time>
        <extensions>
          <ns3:TrackPointExtension>
            <ns3:atemp>19.0</ns3:atemp>
          </ns3:TrackPointExtension>
        </extensions>
      </trkpt>
      <trkpt lat="42.49200121499598026275634765625" lon="19.99604967422783374786376953125">
        <ele>1908.199951171875</ele>
        <time>2026-06-19T08:50:18.000Z</time>
        <extensions>
          <ns3:TrackPointExtension>
            <ns3:atemp>19.0</ns3:atemp>
          </ns3:TrackPointExtension>
        </extensions>
      </trkpt>
      <trkpt lat="42.49198797158896923065185546875" lon="19.996054954826831817626953125">
        <ele>1908.5999755859375</ele>
        <time>2026-06-19T08:50:19.000Z</time>
        <extensions>
          <ns3:TrackPointExtension>
            <ns3:atemp>19.0</ns3:atemp>
          </ns3:TrackPointExtension>
        </extensions>
      </trkpt>
      <trkpt lat="42.49197187833487987518310546875" lon="19.9960578046739101409912109375">
        <ele>1908.800048828125</ele>
        <time>2026-06-19T08:50:20.000Z</time>
        <extensions>
          <ns3:TrackPointExtension>
            <ns3:atemp>19.0</ns3:atemp>
          </ns3:TrackPointExtension>
        </extensions>
      </trkpt>
      <trkpt lat="42.491953857243061065673828125" lon="19.99606459401547908782958984375">
        <ele>1909</ele>
        <time>2026-06-19T08:50:21.000Z</time>
        <extensions>
          <ns3:TrackPointExtension>
            <ns3:atemp>19.0</ns3:atemp>
          </ns3:TrackPointExtension>
        </extensions>
      </trkpt>
      <trkpt lat="42.49193675816059112548828125" lon="19.9960651807487010955810546875">
        <ele>1909.199951171875</ele>
        <time>2026-06-19T08:50:22.000Z</time>
        <extensions>
          <ns3:TrackPointExtension>
            <ns3:atemp>19.0</ns3:atemp>
          </ns3:TrackPointExtension>
        </extensions>
      </trkpt>
      <trkpt lat="42.4919201619923114776611328125" lon="19.99606476165354251861572265625">
        <ele>1909.199951171875</ele>
        <time>2026-06-19T08:50:23.000Z</time>
        <extensions>
          <ns3:TrackPointExtension>
            <ns3:atemp>19.0</ns3:atemp>
          </ns3:TrackPointExtension>
        </extensions>
      </trkpt>
      <trkpt lat="42.49190532602369785308837890625" lon="19.9960712157189846038818359375">
        <ele>1909.5999755859375</ele>
        <time>2026-06-19T08:50:24.000Z</time>
        <extensions>
          <ns3:TrackPointExtension>
            <ns3:atemp>19.0</ns3:atemp>
          </ns3:TrackPointExtension>
        </extensions>
      </trkpt>
      <trkpt lat="42.491890490055084228515625" lon="19.99607582576572895050048828125">
        <ele>1910</ele>
        <time>2026-06-19T08:50:25.000Z</time>
        <extensions>
          <ns3:TrackPointExtension>
            <ns3:atemp>19.0</ns3:atemp>
          </ns3:TrackPointExtension>
        </extensions>
      </trkpt>
      <trkpt lat="42.4918772466480731964111328125" lon="19.99607431702315807342529296875">
        <ele>1910.199951171875</ele>
        <time>2026-06-19T08:50:26.000Z</time>
        <extensions>
          <ns3:TrackPointExtension>
            <ns3:atemp>19.0</ns3:atemp>
          </ns3:TrackPointExtension>
        </extensions>
      </trkpt>
      <trkpt lat="42.4918623268604278564453125" lon="19.9960722215473651885986328125">
        <ele>1910.5999755859375</ele>
        <time>2026-06-19T08:50:27.000Z</time>
        <extensions>
          <ns3:TrackPointExtension>
            <ns3:atemp>19.0</ns3:atemp>
          </ns3:TrackPointExtension>
        </extensions>
      </trkpt>
      <trkpt lat="42.491849921643733978271484375" lon="19.9960715509951114654541015625">
        <ele>1911</ele>
        <time>2026-06-19T08:50:28.000Z</time>
        <extensions>
          <ns3:TrackPointExtension>
            <ns3:atemp>19.0</ns3:atemp>
          </ns3:TrackPointExtension>
        </extensions>
      </trkpt>
      <trkpt lat="42.49183692969381809234619140625" lon="19.9960792623460292816162109375">
        <ele>1911.4000244140625</ele>
        <time>2026-06-19T08:50:29.000Z</time>
        <extensions>
          <ns3:TrackPointExtension>
            <ns3:atemp>19.0</ns3:atemp>
          </ns3:TrackPointExtension>
        </extensions>
      </trkpt>
      <trkpt lat="42.49182234518229961395263671875" lon="19.9960856325924396514892578125">
        <ele>1911.800048828125</ele>
        <time>2026-06-19T08:50:30.000Z</time>
        <extensions>
          <ns3:TrackPointExtension>
            <ns3:atemp>19.0</ns3:atemp>
          </ns3:TrackPointExtension>
        </extensions>
      </trkpt>
      <trkpt lat="42.4918065033853054046630859375" lon="19.99608739279210567474365234375">
        <ele>1912</ele>
        <time>2026-06-19T08:50:31.000Z</time>
        <extensions>
          <ns3:TrackPointExtension>
            <ns3:atemp>19.0</ns3:atemp>
          </ns3:TrackPointExtension>
        </extensions>
      </trkpt>
      <trkpt lat="42.491790913045406341552734375" lon="19.9960863031446933746337890625">
        <ele>1912.4000244140625</ele>
        <time>2026-06-19T08:50:32.000Z</time>
        <extensions>
          <ns3:TrackPointExtension>
            <ns3:atemp>19.0</ns3:atemp>
          </ns3:TrackPointExtension>
        </extensions>
      </trkpt>
      <trkpt lat="42.49177523888647556304931640625" lon="19.99608621932566165924072265625">
        <ele>1912.5999755859375</ele>
        <time>2026-06-19T08:50:33.000Z</time>
        <extensions>
          <ns3:TrackPointExtension>
            <ns3:atemp>19.0</ns3:atemp>
          </ns3:TrackPointExtension>
        </extensions>
      </trkpt>
      <trkpt lat="42.4917605705559253692626953125" lon="19.99609149992465972900390625">
        <ele>1913</ele>
        <time>2026-06-19T08:50:34.000Z</time>
        <extensions>
          <ns3:TrackPointExtension>
            <ns3:atemp>19.0</ns3:atemp>
          </ns3:TrackPointExtension>
        </extensions>
      </trkpt>
      <trkpt lat="42.4917451478540897369384765625" lon="19.99609510414302349090576171875">
        <ele>1913.199951171875</ele>
        <time>2026-06-19T08:50:35.000Z</time>
        <extensions>
          <ns3:TrackPointExtension>
            <ns3:atemp>19.0</ns3:atemp>
          </ns3:TrackPointExtension>
        </extensions>
      </trkpt>
      <trkpt lat="42.49173014424741268157958984375" lon="19.99609711579978466033935546875">
        <ele>1913.5999755859375</ele>
        <time>2026-06-19T08:50:36.000Z</time>
        <extensions>
          <ns3:TrackPointExtension>
            <ns3:atemp>19.0</ns3:atemp>
          </ns3:TrackPointExtension>
        </extensions>
      </trkpt>
      <trkpt lat="42.49171673320233821868896484375" lon="19.99609476886689662933349609375">
        <ele>1913.800048828125</ele>
        <time>2026-06-19T08:50:37.000Z</time>
        <extensions>
          <ns3:TrackPointExtension>
            <ns3:atemp>19.0</ns3:atemp>
          </ns3:TrackPointExtension>
        </extensions>
      </trkpt>
      <trkpt lat="42.49170416034758090972900390625" lon="19.9960946850478649139404296875">
        <ele>1914</ele>
        <time>2026-06-19T08:50:38.000Z</time>
        <extensions>
          <ns3:TrackPointExtension>
            <ns3:atemp>19.0</ns3:atemp>
          </ns3:TrackPointExtension>
        </extensions>
      </trkpt>
      <trkpt lat="42.491689659655094146728515625" lon="19.99609644524753093719482421875">
        <ele>1914.199951171875</ele>
        <time>2026-06-19T08:50:39.000Z</time>
        <extensions>
          <ns3:TrackPointExtension>
            <ns3:atemp>19.0</ns3:atemp>
          </ns3:TrackPointExtension>
        </extensions>
      </trkpt>
      <trkpt lat="42.49167314730584621429443359375" lon="19.99610088765621185302734375">
        <ele>1914.5999755859375</ele>
        <time>2026-06-19T08:50:40.000Z</time>
        <extensions>
          <ns3:TrackPointExtension>
            <ns3:atemp>19.0</ns3:atemp>
          </ns3:TrackPointExtension>
        </extensions>
      </trkpt>
      <trkpt lat="42.491655461490154266357421875" lon="19.9961030669510364532470703125">
        <ele>1914.800048828125</ele>
        <time>2026-06-19T08:50:41.000Z</time>
        <extensions>
          <ns3:TrackPointExtension>
            <ns3:atemp>19.0</ns3:atemp>
          </ns3:TrackPointExtension>
        </extensions>
      </trkpt>
      <trkpt lat="42.49163961969316005706787109375" lon="19.99610491096973419189453125">
        <ele>1915.199951171875</ele>
        <time>2026-06-19T08:50:42.000Z</time>
        <extensions>
          <ns3:TrackPointExtension>
            <ns3:atemp>19.0</ns3:atemp>
          </ns3:TrackPointExtension>
        </extensions>
      </trkpt>
      <trkpt lat="42.49162235297262668609619140625" lon="19.9961070902645587921142578125">
        <ele>1915.5999755859375</ele>
        <time>2026-06-19T08:50:43.000Z</time>
        <extensions>
          <ns3:TrackPointExtension>
            <ns3:atemp>19.0</ns3:atemp>
          </ns3:TrackPointExtension>
        </extensions>
      </trkpt>
      <trkpt lat="42.491607181727886199951171875" lon="19.99610817991197109222412109375">
        <ele>1915.800048828125</ele>
        <time>2026-06-19T08:50:44.000Z</time>
        <extensions>
          <ns3:TrackPointExtension>
            <ns3:atemp>19.0</ns3:atemp>
          </ns3:TrackPointExtension>
        </extensions>
      </trkpt>
      <trkpt lat="42.49159368686378002166748046875" lon="19.996108599007129669189453125">
        <ele>1916.199951171875</ele>
        <time>2026-06-19T08:50:45.000Z</time>
        <extensions>
          <ns3:TrackPointExtension>
            <ns3:atemp>19.0</ns3:atemp>
          </ns3:TrackPointExtension>
        </extensions>
      </trkpt>
      <trkpt lat="42.4915815331041812896728515625" lon="19.99610600061714649200439453125">
        <ele>1916.4000244140625</ele>
        <time>2026-06-19T08:50:46.000Z</time>
        <extensions>
          <ns3:TrackPointExtension>
            <ns3:atemp>19.0</ns3:atemp>
          </ns3:TrackPointExtension>
        </extensions>
      </trkpt>
      <trkpt lat="42.491570301353931427001953125" lon="19.99610315077006816864013671875">
        <ele>1916.800048828125</ele>
        <time>2026-06-19T08:50:47.000Z</time>
        <extensions>
          <ns3:TrackPointExtension>
            <ns3:atemp>19.0</ns3:atemp>
          </ns3:TrackPointExtension>
        </extensions>
      </trkpt>
      <trkpt lat="42.49155445955693721771240234375" lon="19.99609954655170440673828125">
        <ele>1917.199951171875</ele>
        <time>2026-06-19T08:50:48.000Z</time>
        <extensions>
          <ns3:TrackPointExtension>
            <ns3:atemp>19.0</ns3:atemp>
          </ns3:TrackPointExtension>
        </extensions>
      </trkpt>
      <trkpt lat="42.49153886921703815460205078125" lon="19.99609577469527721405029296875">
        <ele>1917.4000244140625</ele>
        <time>2026-06-19T08:50:49.000Z</time>
        <extensions>
          <ns3:TrackPointExtension>
            <ns3:atemp>19.0</ns3:atemp>
          </ns3:TrackPointExtension>
        </extensions>
      </trkpt>
      <trkpt lat="42.4915215186774730682373046875" lon="19.99609258957207202911376953125">
        <ele>1917.5999755859375</ele>
        <time>2026-06-19T08:50:50.000Z</time>
        <extensions>
          <ns3:TrackPointExtension>
            <ns3:atemp>19.0</ns3:atemp>
          </ns3:TrackPointExtension>
        </extensions>
      </trkpt>
      <trkpt lat="42.49150550924241542816162109375" lon="19.9960920028388500213623046875">
        <ele>1918</ele>
        <time>2026-06-19T08:50:51.000Z</time>
        <extensions>
          <ns3:TrackPointExtension>
            <ns3:atemp>19.0</ns3:atemp>
          </ns3:TrackPointExtension>
        </extensions>
      </trkpt>
      <trkpt lat="42.4914893321692943572998046875" lon="19.99609292484819889068603515625">
        <ele>1918.199951171875</ele>
        <time>2026-06-19T08:50:52.000Z</time>
        <extensions>
          <ns3:TrackPointExtension>
            <ns3:atemp>19.0</ns3:atemp>
          </ns3:TrackPointExtension>
        </extensions>
      </trkpt>
      <trkpt lat="42.49147131107747554779052734375" lon="19.99609074555337429046630859375">
        <ele>1918.5999755859375</ele>
        <time>2026-06-19T08:50:53.000Z</time>
        <extensions>
          <ns3:TrackPointExtension>
            <ns3:atemp>19.0</ns3:atemp>
          </ns3:TrackPointExtension>
        </extensions>
      </trkpt>
      <trkpt lat="42.4914588220417499542236328125" lon="19.99608856625854969024658203125">
        <ele>1919</ele>
        <time>2026-06-19T08:50:54.000Z</time>
        <extensions>
          <ns3:TrackPointExtension>
            <ns3:atemp>19.0</ns3:atemp>
          </ns3:TrackPointExtension>
        </extensions>
      </trkpt>
      <trkpt lat="42.49144348315894603729248046875" lon="19.99608722515404224395751953125">
        <ele>1919.199951171875</ele>
        <time>2026-06-19T08:50:55.000Z</time>
        <extensions>
          <ns3:TrackPointExtension>
            <ns3:atemp>19.0</ns3:atemp>
          </ns3:TrackPointExtension>
        </extensions>
      </trkpt>
      <trkpt lat="42.491429150104522705078125" lon="19.99608605168759822845458984375">
        <ele>1919.5999755859375</ele>
        <time>2026-06-19T08:50:56.000Z</time>
        <extensions>
          <ns3:TrackPointExtension>
            <ns3:atemp>19.0</ns3:atemp>
          </ns3:TrackPointExtension>
        </extensions>
      </trkpt>
      <trkpt lat="42.49141431413590908050537109375" lon="19.99608789570629596710205078125">
        <ele>1919.800048828125</ele>
        <time>2026-06-19T08:50:57.000Z</time>
        <extensions>
          <ns3:TrackPointExtension>
            <ns3:atemp>19.0</ns3:atemp>
          </ns3:TrackPointExtension>
        </extensions>
      </trkpt>
      <trkpt lat="42.4913971312344074249267578125" lon="19.996089152991771697998046875">
        <ele>1920.199951171875</ele>
        <time>2026-06-19T08:50:58.000Z</time>
        <extensions>
          <ns3:TrackPointExtension>
            <ns3:atemp>19.0</ns3:atemp>
          </ns3:TrackPointExtension>
        </extensions>
      </trkpt>
      <trkpt lat="42.4913795292377471923828125" lon="19.9960873089730739593505859375">
        <ele>1920.5999755859375</ele>
        <time>2026-06-19T08:50:59.000Z</time>
        <extensions>
          <ns3:TrackPointExtension>
            <ns3:atemp>19.0</ns3:atemp>
          </ns3:TrackPointExtension>
        </extensions>
      </trkpt>
      <trkpt lat="42.49136066995561122894287109375" lon="19.996088482439517974853515625">
        <ele>1920.800048828125</ele>
        <time>2026-06-19T08:51:00.000Z</time>
        <extensions>
          <ns3:TrackPointExtension>
            <ns3:atemp>19.0</ns3:atemp>
          </ns3:TrackPointExtension>
        </extensions>
      </trkpt>
      <trkpt lat="42.49134491197764873504638671875" lon="19.9960909970104694366455078125">
        <ele>1921.199951171875</ele>
        <time>2026-06-19T08:51:01.000Z</time>
        <extensions>
          <ns3:TrackPointExtension>
            <ns3:atemp>19.0</ns3:atemp>
          </ns3:TrackPointExtension>
        </extensions>
      </trkpt>
      <trkpt lat="42.49132848344743251800537109375" lon="19.99609284102916717529296875">
        <ele>1921.4000244140625</ele>
        <time>2026-06-19T08:51:02.000Z</time>
        <extensions>
          <ns3:TrackPointExtension>
            <ns3:atemp>19.0</ns3:atemp>
          </ns3:TrackPointExtension>
        </extensions>
      </trkpt>
      <trkpt lat="42.49131222255527973175048828125" lon="19.99609409831464290618896484375">
        <ele>1921.5999755859375</ele>
        <time>2026-06-19T08:51:03.000Z</time>
        <extensions>
          <ns3:TrackPointExtension>
            <ns3:atemp>19.0</ns3:atemp>
          </ns3:TrackPointExtension>
        </extensions>
      </trkpt>
      <trkpt lat="42.4912975542247295379638671875" lon="19.99609728343784809112548828125">
        <ele>1921.800048828125</ele>
        <time>2026-06-19T08:51:04.000Z</time>
        <extensions>
          <ns3:TrackPointExtension>
            <ns3:atemp>19.0</ns3:atemp>
          </ns3:TrackPointExtension>
        </extensions>
      </trkpt>
      <trkpt lat="42.49128229916095733642578125" lon="19.996102564036846160888671875">
        <ele>1922.199951171875</ele>
        <time>2026-06-19T08:51:05.000Z</time>
        <extensions>
          <ns3:TrackPointExtension>
            <ns3:atemp>19.0</ns3:atemp>
          </ns3:TrackPointExtension>
        </extensions>
      </trkpt>
      <trkpt lat="42.49126511625945568084716796875" lon="19.9961055815219879150390625">
        <ele>1922.4000244140625</ele>
        <time>2026-06-19T08:51:06.000Z</time>
        <extensions>
          <ns3:TrackPointExtension>
            <ns3:atemp>19.0</ns3:atemp>
          </ns3:TrackPointExtension>
        </extensions>
      </trkpt>
      <trkpt lat="42.491246759891510009765625" lon="19.9961084313690662384033203125">
        <ele>1922.5999755859375</ele>
        <time>2026-06-19T08:51:07.000Z</time>
        <extensions>
          <ns3:TrackPointExtension>
            <ns3:atemp>19.0</ns3:atemp>
          </ns3:TrackPointExtension>
        </extensions>
      </trkpt>
      <trkpt lat="42.49122865498065948486328125" lon="19.99611136503517627716064453125">
        <ele>1922.800048828125</ele>
        <time>2026-06-19T08:51:08.000Z</time>
        <extensions>
          <ns3:TrackPointExtension>
            <ns3:atemp>19.0</ns3:atemp>
          </ns3:TrackPointExtension>
        </extensions>
      </trkpt>
      <trkpt lat="42.49120912514626979827880859375" lon="19.99611270613968372344970703125">
        <ele>1923</ele>
        <time>2026-06-19T08:51:09.000Z</time>
        <extensions>
          <ns3:TrackPointExtension>
            <ns3:atemp>19.0</ns3:atemp>
          </ns3:TrackPointExtension>
        </extensions>
      </trkpt>
      <trkpt lat="42.49118976294994354248046875" lon="19.9961124546825885772705078125">
        <ele>1923.199951171875</ele>
        <time>2026-06-19T08:51:10.000Z</time>
        <extensions>
          <ns3:TrackPointExtension>
            <ns3:atemp>19.0</ns3:atemp>
          </ns3:TrackPointExtension>
        </extensions>
      </trkpt>
      <trkpt lat="42.4911708198487758636474609375" lon="19.996112622320652008056640625">
        <ele>1923.4000244140625</ele>
        <time>2026-06-19T08:51:11.000Z</time>
        <extensions>
          <ns3:TrackPointExtension>
            <ns3:atemp>19.0</ns3:atemp>
          </ns3:TrackPointExtension>
        </extensions>
      </trkpt>
      <trkpt lat="42.4911533854901790618896484375" lon="19.99611287377774715423583984375">
        <ele>1923.5999755859375</ele>
        <time>2026-06-19T08:51:12.000Z</time>
        <extensions>
          <ns3:TrackPointExtension>
            <ns3:atemp>19.0</ns3:atemp>
          </ns3:TrackPointExtension>
        </extensions>
      </trkpt>
      <trkpt lat="42.49113603495061397552490234375" lon="19.9961084313690662384033203125">
        <ele>1923.800048828125</ele>
        <time>2026-06-19T08:51:13.000Z</time>
        <extensions>
          <ns3:TrackPointExtension>
            <ns3:atemp>19.0</ns3:atemp>
          </ns3:TrackPointExtension>
        </extensions>
      </trkpt>
      <trkpt lat="42.49111826531589031219482421875" lon="19.99610449187457561492919921875">
        <ele>1924</ele>
        <time>2026-06-19T08:51:14.000Z</time>
        <extensions>
          <ns3:TrackPointExtension>
            <ns3:atemp>19.0</ns3:atemp>
          </ns3:TrackPointExtension>
        </extensions>
      </trkpt>
      <trkpt lat="42.49110116623342037200927734375" lon="19.996100552380084991455078125">
        <ele>1924.199951171875</ele>
        <time>2026-06-19T08:51:15.000Z</time>
        <extensions>
          <ns3:TrackPointExtension>
            <ns3:atemp>19.0</ns3:atemp>
          </ns3:TrackPointExtension>
        </extensions>
      </trkpt>
      <trkpt lat="42.4910786189138889312744140625" lon="19.99609124846756458282470703125">
        <ele>1924.4000244140625</ele>
        <time>2026-06-19T08:51:16.000Z</time>
        <extensions>
          <ns3:TrackPointExtension>
            <ns3:atemp>19.0</ns3:atemp>
          </ns3:TrackPointExtension>
        </extensions>
      </trkpt>
      <trkpt lat="42.49105908907949924468994140625" lon="19.99607674777507781982421875">
        <ele>1924.800048828125</ele>
        <time>2026-06-19T08:51:17.000Z</time>
        <extensions>
          <ns3:TrackPointExtension>
            <ns3:atemp>19.0</ns3:atemp>
          </ns3:TrackPointExtension>
        </extensions>
      </trkpt>
      <trkpt lat="42.49103914014995098114013671875" lon="19.996061660349369049072265625">
        <ele>1925</ele>
        <time>2026-06-19T08:51:18.000Z</time>
        <extensions>
          <ns3:TrackPointExtension>
            <ns3:atemp>19.0</ns3:atemp>
          </ns3:TrackPointExtension>
        </extensions>
      </trkpt>
      <trkpt lat="42.491024471819400787353515625" lon="19.99604322016239166259765625">
        <ele>1925.199951171875</ele>
        <time>2026-06-19T08:51:19.000Z</time>
        <extensions>
          <ns3:TrackPointExtension>
            <ns3:atemp>19.0</ns3:atemp>
          </ns3:TrackPointExtension>
        </extensions>
      </trkpt>
      <trkpt lat="42.49101097695529460906982421875" lon="19.99602184630930423736572265625">
        <ele>1925.4000244140625</ele>
        <time>2026-06-19T08:51:20.000Z</time>
        <extensions>
          <ns3:TrackPointExtension>
            <ns3:atemp>19.0</ns3:atemp>
          </ns3:TrackPointExtension>
        </extensions>
      </trkpt>
      <trkpt lat="42.49099203385412693023681640625" lon="19.99600575305521488189697265625">
        <ele>1925.5999755859375</ele>
        <time>2026-06-19T08:51:21.000Z</time>
        <extensions>
          <ns3:TrackPointExtension>
            <ns3:atemp>19.0</ns3:atemp>
          </ns3:TrackPointExtension>
        </extensions>
      </trkpt>
      <trkpt lat="42.490970157086849212646484375" lon="19.99599183909595012664794921875">
        <ele>1925.5999755859375</ele>
        <time>2026-06-19T08:51:22.000Z</time>
        <extensions>
          <ns3:TrackPointExtension>
            <ns3:atemp>19.0</ns3:atemp>
          </ns3:TrackPointExtension>
        </extensions>
      </trkpt>
      <trkpt lat="42.49094844795763492584228515625" lon="19.99597373418509960174560546875">
        <ele>1925.800048828125</ele>
        <time>2026-06-19T08:51:23.000Z</time>
        <extensions>
          <ns3:TrackPointExtension>
            <ns3:atemp>19.0</ns3:atemp>
          </ns3:TrackPointExtension>
        </extensions>
      </trkpt>
      <trkpt lat="42.490929923951625823974609375" lon="19.99595311470329761505126953125">
        <ele>1926</ele>
        <time>2026-06-19T08:51:24.000Z</time>
        <extensions>
          <ns3:TrackPointExtension>
            <ns3:atemp>19.0</ns3:atemp>
          </ns3:TrackPointExtension>
        </extensions>
      </trkpt>
      <trkpt lat="42.4909119866788387298583984375" lon="19.995932914316654205322265625">
        <ele>1926</ele>
        <time>2026-06-19T08:51:25.000Z</time>
        <extensions>
          <ns3:TrackPointExtension>
            <ns3:atemp>19.0</ns3:atemp>
          </ns3:TrackPointExtension>
        </extensions>
      </trkpt>
      <trkpt lat="42.49089128337800502777099609375" lon="19.99591179192066192626953125">
        <ele>1926.199951171875</ele>
        <time>2026-06-19T08:51:26.000Z</time>
        <extensions>
          <ns3:TrackPointExtension>
            <ns3:atemp>19.0</ns3:atemp>
          </ns3:TrackPointExtension>
        </extensions>
      </trkpt>
      <trkpt lat="42.4908697418868541717529296875" lon="19.9958945252001285552978515625">
        <ele>1926.199951171875</ele>
        <time>2026-06-19T08:51:27.000Z</time>
        <extensions>
          <ns3:TrackPointExtension>
            <ns3:atemp>19.0</ns3:atemp>
          </ns3:TrackPointExtension>
        </extensions>
      </trkpt>
      <trkpt lat="42.490850128233432769775390625" lon="19.99587197788059711456298828125">
        <ele>1926.199951171875</ele>
        <time>2026-06-19T08:51:28.000Z</time>
        <extensions>
          <ns3:TrackPointExtension>
            <ns3:atemp>19.0</ns3:atemp>
          </ns3:TrackPointExtension>
        </extensions>
      </trkpt>
      <trkpt lat="42.49083344824612140655517578125" lon="19.9958532862365245819091796875">
        <ele>1926.4000244140625</ele>
        <time>2026-06-19T08:51:29.000Z</time>
        <extensions>
          <ns3:TrackPointExtension>
            <ns3:atemp>19.0</ns3:atemp>
          </ns3:TrackPointExtension>
        </extensions>
      </trkpt>
      <trkpt lat="42.490812577307224273681640625" lon="19.99583962373435497283935546875">
        <ele>1926.4000244140625</ele>
        <time>2026-06-19T08:51:30.000Z</time>
        <extensions>
          <ns3:TrackPointExtension>
            <ns3:atemp>19.0</ns3:atemp>
          </ns3:TrackPointExtension>
        </extensions>
      </trkpt>
      <trkpt lat="42.49079287983477115631103515625" lon="19.99583057127892971038818359375">
        <ele>1926.4000244140625</ele>
        <time>2026-06-19T08:51:31.000Z</time>
        <extensions>
          <ns3:TrackPointExtension>
            <ns3:atemp>19.0</ns3:atemp>
          </ns3:TrackPointExtension>
        </extensions>
      </trkpt>
      <trkpt lat="42.49077242799103260040283203125" lon="19.9958159029483795166015625">
        <ele>1926.5999755859375</ele>
        <time>2026-06-19T08:51:32.000Z</time>
        <extensions>
          <ns3:TrackPointExtension>
            <ns3:atemp>19.0</ns3:atemp>
          </ns3:TrackPointExtension>
        </extensions>
      </trkpt>
      <trkpt lat="42.49075130559504032135009765625" lon="19.99580542556941509246826171875">
        <ele>1926.5999755859375</ele>
        <time>2026-06-19T08:51:33.000Z</time>
        <extensions>
          <ns3:TrackPointExtension>
            <ns3:atemp>19.0</ns3:atemp>
          </ns3:TrackPointExtension>
        </extensions>
      </trkpt>
      <trkpt lat="42.49073018319904804229736328125" lon="19.995801486074924468994140625">
        <ele>1926.5999755859375</ele>
        <time>2026-06-19T08:51:34.000Z</time>
        <extensions>
          <ns3:TrackPointExtension>
            <ns3:atemp>19.0</ns3:atemp>
          </ns3:TrackPointExtension>
        </extensions>
      </trkpt>
      <trkpt lat="42.49070771969854831695556640625" lon="19.99579737894237041473388671875">
        <ele>1926.5999755859375</ele>
        <time>2026-06-19T08:51:35.000Z</time>
        <extensions>
          <ns3:TrackPointExtension>
            <ns3:atemp>19.0</ns3:atemp>
          </ns3:TrackPointExtension>
        </extensions>
      </trkpt>
      <trkpt lat="42.4906848371028900146484375" lon="19.99579419381916522979736328125">
        <ele>1926.4000244140625</ele>
        <time>2026-06-19T08:51:36.000Z</time>
        <extensions>
          <ns3:TrackPointExtension>
            <ns3:atemp>19.0</ns3:atemp>
          </ns3:TrackPointExtension>
        </extensions>
      </trkpt>
      <trkpt lat="42.49066195450723171234130859375" lon="19.9957895837724208831787109375">
        <ele>1926.4000244140625</ele>
        <time>2026-06-19T08:51:37.000Z</time>
        <extensions>
          <ns3:TrackPointExtension>
            <ns3:atemp>19.0</ns3:atemp>
          </ns3:TrackPointExtension>
        </extensions>
      </trkpt>
      <trkpt lat="42.49063144437968730926513671875" lon="19.9957946129143238067626953125">
        <ele>1926.4000244140625</ele>
        <time>2026-06-19T08:51:38.000Z</time>
        <extensions>
          <ns3:TrackPointExtension>
            <ns3:atemp>19.0</ns3:atemp>
          </ns3:TrackPointExtension>
        </extensions>
      </trkpt>
      <trkpt lat="42.49060261063277721405029296875" lon="19.995822943747043609619140625">
        <ele>1926.199951171875</ele>
        <time>2026-06-19T08:51:39.000Z</time>
        <extensions>
          <ns3:TrackPointExtension>
            <ns3:atemp>19.0</ns3:atemp>
          </ns3:TrackPointExtension>
        </extensions>
      </trkpt>
      <trkpt lat="42.4905814044177532196044921875" lon="19.995863847434520721435546875">
        <ele>1926</ele>
        <time>2026-06-19T08:51:40.000Z</time>
        <extensions>
          <ns3:TrackPointExtension>
            <ns3:atemp>19.0</ns3:atemp>
          </ns3:TrackPointExtension>
        </extensions>
      </trkpt>
      <trkpt lat="42.49057142995297908782958984375" lon="19.99591254629194736480712890625">
        <ele>1925.800048828125</ele>
        <time>2026-06-19T08:51:41.000Z</time>
        <extensions>
          <ns3:TrackPointExtension>
            <ns3:atemp>19.0</ns3:atemp>
          </ns3:TrackPointExtension>
        </extensions>
      </trkpt>
      <trkpt lat="42.4905679933726787567138671875" lon="19.9959599040448665618896484375">
        <ele>1925.5999755859375</ele>
        <time>2026-06-19T08:51:42.000Z</time>
        <extensions>
          <ns3:TrackPointExtension>
            <ns3:atemp>19.0</ns3:atemp>
          </ns3:TrackPointExtension>
        </extensions>
      </trkpt>
      <trkpt lat="42.49056891538202762603759765625" lon="19.9959900788962841033935546875">
        <ele>1925.4000244140625</ele>
        <time>2026-06-19T08:51:43.000Z</time>
        <extensions>
          <ns3:TrackPointExtension>
            <ns3:atemp>19.0</ns3:atemp>
          </ns3:TrackPointExtension>
        </extensions>
      </trkpt>
      <trkpt lat="42.49057126231491565704345703125" lon="19.99601631425321102142333984375">
        <ele>1925.4000244140625</ele>
        <time>2026-06-19T08:51:44.000Z</time>
        <extensions>
          <ns3:TrackPointExtension>
            <ns3:atemp>19.0</ns3:atemp>
          </ns3:TrackPointExtension>
        </extensions>
      </trkpt>
      <trkpt lat="42.49057176522910594940185546875" lon="19.9960385262966156005859375">
        <ele>1925.4000244140625</ele>
        <time>2026-06-19T08:51:45.000Z</time>
        <extensions>
          <ns3:TrackPointExtension>
            <ns3:atemp>19.0</ns3:atemp>
          </ns3:TrackPointExtension>
        </extensions>
      </trkpt>
      <trkpt lat="42.4905760399997234344482421875" lon="19.9960638396441936492919921875">
        <ele>1925.4000244140625</ele>
        <time>2026-06-19T08:51:46.000Z</time>
        <extensions>
          <ns3:TrackPointExtension>
            <ns3:atemp>19.0</ns3:atemp>
          </ns3:TrackPointExtension>
        </extensions>
      </trkpt>
      <trkpt lat="42.49057813547551631927490234375" lon="19.99609158374369144439697265625">
        <ele>1925.199951171875</ele>
        <time>2026-06-19T08:51:47.000Z</time>
        <extensions>
          <ns3:TrackPointExtension>
            <ns3:atemp>19.0</ns3:atemp>
          </ns3:TrackPointExtension>
        </extensions>
      </trkpt>
      <trkpt lat="42.49057830311357975006103515625" lon="19.996119998395442962646484375">
        <ele>1925.199951171875</ele>
        <time>2026-06-19T08:51:48.000Z</time>
        <extensions>
          <ns3:TrackPointExtension>
            <ns3:atemp>19.0</ns3:atemp>
          </ns3:TrackPointExtension>
        </extensions>
      </trkpt>
      <trkpt lat="42.49057511799037456512451171875" lon="19.99614874832332134246826171875">
        <ele>1925.4000244140625</ele>
        <time>2026-06-19T08:51:49.000Z</time>
        <extensions>
          <ns3:TrackPointExtension>
            <ns3:atemp>19.0</ns3:atemp>
          </ns3:TrackPointExtension>
        </extensions>
      </trkpt>
      <trkpt lat="42.490572519600391387939453125" lon="19.996175654232501983642578125">
        <ele>1925.5999755859375</ele>
        <time>2026-06-19T08:51:50.000Z</time>
        <extensions>
          <ns3:TrackPointExtension>
            <ns3:atemp>19.0</ns3:atemp>
          </ns3:TrackPointExtension>
        </extensions>
      </trkpt>
      <trkpt lat="42.4905696697533130645751953125" lon="19.9962066672742366790771484375">
        <ele>1925.5999755859375</ele>
        <time>2026-06-19T08:51:51.000Z</time>
        <extensions>
          <ns3:TrackPointExtension>
            <ns3:atemp>19.0</ns3:atemp>
          </ns3:TrackPointExtension>
        </extensions>
      </trkpt>
      <trkpt lat="42.49056640081107616424560546875" lon="19.996239356696605682373046875">
        <ele>1926</ele>
        <time>2026-06-19T08:51:52.000Z</time>
        <extensions>
          <ns3:TrackPointExtension>
            <ns3:atemp>19.0</ns3:atemp>
          </ns3:TrackPointExtension>
        </extensions>
      </trkpt>
      <trkpt lat="42.49056086875498294830322265625" lon="19.99627078883349895477294921875">
        <ele>1926.199951171875</ele>
        <time>2026-06-19T08:51:53.000Z</time>
        <extensions>
          <ns3:TrackPointExtension>
            <ns3:atemp>19.0</ns3:atemp>
          </ns3:TrackPointExtension>
        </extensions>
      </trkpt>
      <trkpt lat="42.49055466614663600921630859375" lon="19.9962981976568698883056640625">
        <ele>1926.4000244140625</ele>
        <time>2026-06-19T08:51:54.000Z</time>
        <extensions>
          <ns3:TrackPointExtension>
            <ns3:atemp>19.0</ns3:atemp>
          </ns3:TrackPointExtension>
        </extensions>
      </trkpt>
      <trkpt lat="42.4905453622341156005859375" lon="19.9963300488889217376708984375">
        <ele>1926.5999755859375</ele>
        <time>2026-06-19T08:51:55.000Z</time>
        <extensions>
          <ns3:TrackPointExtension>
            <ns3:atemp>19.0</ns3:atemp>
          </ns3:TrackPointExtension>
        </extensions>
      </trkpt>
      <trkpt lat="42.49053387902677059173583984375" lon="19.99636164866387844085693359375">
        <ele>1926.800048828125</ele>
        <time>2026-06-19T08:51:56.000Z</time>
        <extensions>
          <ns3:TrackPointExtension>
            <ns3:atemp>19.0</ns3:atemp>
          </ns3:TrackPointExtension>
        </extensions>
      </trkpt>
      <trkpt lat="42.49052616767585277557373046875" lon="19.99639366753399372100830078125">
        <ele>1927</ele>
        <time>2026-06-19T08:51:57.000Z</time>
        <extensions>
          <ns3:TrackPointExtension>
            <ns3:atemp>19.0</ns3:atemp>
          </ns3:TrackPointExtension>
        </extensions>
      </trkpt>
      <trkpt lat="42.49051577411592006683349609375" lon="19.99642468057572841644287109375">
        <ele>1927.4000244140625</ele>
        <time>2026-06-19T08:51:58.000Z</time>
        <extensions>
          <ns3:TrackPointExtension>
            <ns3:atemp>19.0</ns3:atemp>
          </ns3:TrackPointExtension>
        </extensions>
      </trkpt>
      <trkpt lat="42.490505464375019073486328125" lon="19.9964534305036067962646484375">
        <ele>1927.4000244140625</ele>
        <time>2026-06-19T08:51:59.000Z</time>
        <extensions>
          <ns3:TrackPointExtension>
            <ns3:atemp>19.0</ns3:atemp>
          </ns3:TrackPointExtension>
        </extensions>
      </trkpt>
      <trkpt lat="42.49049465171992778778076171875" lon="19.996480084955692291259765625">
        <ele>1927.5999755859375</ele>
        <time>2026-06-19T08:52:00.000Z</time>
        <extensions>
          <ns3:TrackPointExtension>
            <ns3:atemp>19.0</ns3:atemp>
          </ns3:TrackPointExtension>
        </extensions>
      </trkpt>
      <trkpt lat="42.490483336150646209716796875" lon="19.99650849960744380950927734375">
        <ele>1927.800048828125</ele>
        <time>2026-06-19T08:52:01.000Z</time>
        <extensions>
          <ns3:TrackPointExtension>
            <ns3:atemp>19.0</ns3:atemp>
          </ns3:TrackPointExtension>
        </extensions>
      </trkpt>
      <trkpt lat="42.49047302640974521636962890625" lon="19.996540434658527374267578125">
        <ele>1928</ele>
        <time>2026-06-19T08:52:02.000Z</time>
        <extensions>
          <ns3:TrackPointExtension>
            <ns3:atemp>19.0</ns3:atemp>
          </ns3:TrackPointExtension>
        </extensions>
      </trkpt>
      <trkpt lat="42.49046313576400279998779296875" lon="19.99657052569091320037841796875">
        <ele>1928.199951171875</ele>
        <time>2026-06-19T08:52:03.000Z</time>
        <extensions>
          <ns3:TrackPointExtension>
            <ns3:atemp>19.0</ns3:atemp>
          </ns3:TrackPointExtension>
        </extensions>
      </trkpt>
      <trkpt lat="42.49045441858470439910888671875" lon="19.996599443256855010986328125">
        <ele>1928.4000244140625</ele>
        <time>2026-06-19T08:52:04.000Z</time>
        <extensions>
          <ns3:TrackPointExtension>
            <ns3:atemp>19.0</ns3:atemp>
          </ns3:TrackPointExtension>
        </extensions>
      </trkpt>
      <trkpt lat="42.49044821597635746002197265625" lon="19.99662517569959163665771484375">
        <ele>1928.5999755859375</ele>
        <time>2026-06-19T08:52:05.000Z</time>
        <extensions>
          <ns3:TrackPointExtension>
            <ns3:atemp>19.0</ns3:atemp>
          </ns3:TrackPointExtension>
        </extensions>
      </trkpt>
      <trkpt lat="42.49044033698737621307373046875" lon="19.99665434472262859344482421875">
        <ele>1928.800048828125</ele>
        <time>2026-06-19T08:52:06.000Z</time>
        <extensions>
          <ns3:TrackPointExtension>
            <ns3:atemp>19.0</ns3:atemp>
          </ns3:TrackPointExtension>
        </extensions>
      </trkpt>
      <trkpt lat="42.490431033074855804443359375" lon="19.9966849386692047119140625">
        <ele>1929</ele>
        <time>2026-06-19T08:52:07.000Z</time>
        <extensions>
          <ns3:TrackPointExtension>
            <ns3:atemp>19.0</ns3:atemp>
          </ns3:TrackPointExtension>
        </extensions>
      </trkpt>
      <trkpt lat="42.4904244951903820037841796875" lon="19.99671586789190769195556640625">
        <ele>1929.199951171875</ele>
        <time>2026-06-19T08:52:08.000Z</time>
        <extensions>
          <ns3:TrackPointExtension>
            <ns3:atemp>19.0</ns3:atemp>
          </ns3:TrackPointExtension>
        </extensions>
      </trkpt>
      <trkpt lat="42.4904198013246059417724609375" lon="19.99674268998205661773681640625">
        <ele>1929.4000244140625</ele>
        <time>2026-06-19T08:52:09.000Z</time>
        <extensions>
          <ns3:TrackPointExtension>
            <ns3:atemp>19.0</ns3:atemp>
          </ns3:TrackPointExtension>
        </extensions>
      </trkpt>
      <trkpt lat="42.49041569419205188751220703125" lon="19.99676917679607868194580078125">
        <ele>1929.5999755859375</ele>
        <time>2026-06-19T08:52:10.000Z</time>
        <extensions>
          <ns3:TrackPointExtension>
            <ns3:atemp>19.0</ns3:atemp>
          </ns3:TrackPointExtension>
        </extensions>
      </trkpt>
      <trkpt lat="42.4904134310781955718994140625" lon="19.99679834581911563873291015625">
        <ele>1930</ele>
        <time>2026-06-19T08:52:11.000Z</time>
        <extensions>
          <ns3:TrackPointExtension>
            <ns3:atemp>19.0</ns3:atemp>
          </ns3:TrackPointExtension>
        </extensions>
      </trkpt>
      <trkpt lat="42.49040949158370494842529296875" lon="19.99682583846151828765869140625">
        <ele>1930.199951171875</ele>
        <time>2026-06-19T08:52:12.000Z</time>
        <extensions>
          <ns3:TrackPointExtension>
            <ns3:atemp>19.0</ns3:atemp>
          </ns3:TrackPointExtension>
        </extensions>
      </trkpt>
      <trkpt lat="42.49040630646049976348876953125" lon="19.99685584567487239837646484375">
        <ele>1930.4000244140625</ele>
        <time>2026-06-19T08:52:13.000Z</time>
        <extensions>
          <ns3:TrackPointExtension>
            <ns3:atemp>19.0</ns3:atemp>
          </ns3:TrackPointExtension>
        </extensions>
      </trkpt>
      <trkpt lat="42.490402199327945709228515625" lon="19.99688769690692424774169921875">
        <ele>1930.800048828125</ele>
        <time>2026-06-19T08:52:14.000Z</time>
        <extensions>
          <ns3:TrackPointExtension>
            <ns3:atemp>19.0</ns3:atemp>
          </ns3:TrackPointExtension>
        </extensions>
      </trkpt>
      <trkpt lat="42.49039926566183567047119140625" lon="19.9969134293496608734130859375">
        <ele>1931</ele>
        <time>2026-06-19T08:52:15.000Z</time>
        <extensions>
          <ns3:TrackPointExtension>
            <ns3:atemp>19.0</ns3:atemp>
          </ns3:TrackPointExtension>
        </extensions>
      </trkpt>
      <trkpt lat="42.49039809219539165496826171875" lon="19.99694067053496837615966796875">
        <ele>1931.4000244140625</ele>
        <time>2026-06-19T08:52:16.000Z</time>
        <extensions>
          <ns3:TrackPointExtension>
            <ns3:atemp>19.0</ns3:atemp>
          </ns3:TrackPointExtension>
        </extensions>
      </trkpt>
      <trkpt lat="42.49039993621408939361572265625" lon="19.99697084538638591766357421875">
        <ele>1931.800048828125</ele>
        <time>2026-06-19T08:52:17.000Z</time>
        <extensions>
          <ns3:TrackPointExtension>
            <ns3:atemp>19.0</ns3:atemp>
          </ns3:TrackPointExtension>
        </extensions>
      </trkpt>
      <trkpt lat="42.4903996847569942474365234375" lon="19.9969959072768688201904296875">
        <ele>1932</ele>
        <time>2026-06-19T08:52:18.000Z</time>
        <extensions>
          <ns3:TrackPointExtension>
            <ns3:atemp>19.0</ns3:atemp>
          </ns3:TrackPointExtension>
        </extensions>
      </trkpt>
      <trkpt lat="42.49040110968053340911865234375" lon="19.99701979570090770721435546875">
        <ele>1932.199951171875</ele>
        <time>2026-06-19T08:52:19.000Z</time>
        <extensions>
          <ns3:TrackPointExtension>
            <ns3:atemp>19.0</ns3:atemp>
          </ns3:TrackPointExtension>
        </extensions>
      </trkpt>
      <trkpt lat="42.490400858223438262939453125" lon="19.9970448575913906097412109375">
        <ele>1932.5999755859375</ele>
        <time>2026-06-19T08:52:20.000Z</time>
        <extensions>
          <ns3:TrackPointExtension>
            <ns3:atemp>19.0</ns3:atemp>
          </ns3:TrackPointExtension>
        </extensions>
      </trkpt>
      <trkpt lat="42.4904047138988971710205078125" lon="19.997068829834461212158203125">
        <ele>1932.800048828125</ele>
        <time>2026-06-19T08:52:21.000Z</time>
        <extensions>
          <ns3:TrackPointExtension>
            <ns3:atemp>19.0</ns3:atemp>
          </ns3:TrackPointExtension>
        </extensions>
      </trkpt>
      <trkpt lat="42.490412257611751556396484375" lon="19.99709598720073699951171875">
        <ele>1933.199951171875</ele>
        <time>2026-06-19T08:52:22.000Z</time>
        <extensions>
          <ns3:TrackPointExtension>
            <ns3:atemp>19.0</ns3:atemp>
          </ns3:TrackPointExtension>
        </extensions>
      </trkpt>
      <trkpt lat="42.49041619710624217987060546875" lon="19.9971259944140911102294921875">
        <ele>1933.5999755859375</ele>
        <time>2026-06-19T08:52:23.000Z</time>
        <extensions>
          <ns3:TrackPointExtension>
            <ns3:atemp>19.0</ns3:atemp>
          </ns3:TrackPointExtension>
        </extensions>
      </trkpt>
      <trkpt lat="42.4904238246381282806396484375" lon="19.99715373851358890533447265625">
        <ele>1933.800048828125</ele>
        <time>2026-06-19T08:52:24.000Z</time>
        <extensions>
          <ns3:TrackPointExtension>
            <ns3:atemp>19.0</ns3:atemp>
          </ns3:TrackPointExtension>
        </extensions>
      </trkpt>
      <trkpt lat="42.4904352240264415740966796875" lon="19.9971806444227695465087890625">
        <ele>1934.199951171875</ele>
        <time>2026-06-19T08:52:25.000Z</time>
        <extensions>
          <ns3:TrackPointExtension>
            <ns3:atemp>19.0</ns3:atemp>
          </ns3:TrackPointExtension>
        </extensions>
      </trkpt>
      <trkpt lat="42.49044603668153285980224609375" lon="19.997207634150981903076171875">
        <ele>1934.5999755859375</ele>
        <time>2026-06-19T08:52:26.000Z</time>
        <extensions>
          <ns3:TrackPointExtension>
            <ns3:atemp>19.0</ns3:atemp>
          </ns3:TrackPointExtension>
        </extensions>
      </trkpt>
      <trkpt lat="42.4904603697359561920166015625" lon="19.99723554588854312896728515625">
        <ele>1934.800048828125</ele>
        <time>2026-06-19T08:52:27.000Z</time>
        <extensions>
          <ns3:TrackPointExtension>
            <ns3:atemp>19.0</ns3:atemp>
          </ns3:TrackPointExtension>
        </extensions>
      </trkpt>
      <trkpt lat="42.49047118239104747772216796875" lon="19.9972562491893768310546875">
        <ele>1935.4000244140625</ele>
        <time>2026-06-19T08:52:28.000Z</time>
        <extensions>
          <ns3:TrackPointExtension>
            <ns3:atemp>19.0</ns3:atemp>
          </ns3:TrackPointExtension>
        </extensions>
      </trkpt>
      <trkpt lat="42.49048124067485332489013671875" lon="19.997274689376354217529296875">
        <ele>1935.800048828125</ele>
        <time>2026-06-19T08:52:29.000Z</time>
        <extensions>
          <ns3:TrackPointExtension>
            <ns3:atemp>19.0</ns3:atemp>
          </ns3:TrackPointExtension>
        </extensions>
      </trkpt>
      <trkpt lat="42.49049507081508636474609375" lon="19.997292794287204742431640625">
        <ele>1936.199951171875</ele>
        <time>2026-06-19T08:52:30.000Z</time>
        <extensions>
          <ns3:TrackPointExtension>
            <ns3:atemp>19.0</ns3:atemp>
          </ns3:TrackPointExtension>
        </extensions>
      </trkpt>
      <trkpt lat="42.49051108025014400482177734375" lon="19.99730813317000865936279296875">
        <ele>1936.4000244140625</ele>
        <time>2026-06-19T08:52:31.000Z</time>
        <extensions>
          <ns3:TrackPointExtension>
            <ns3:atemp>19.0</ns3:atemp>
          </ns3:TrackPointExtension>
        </extensions>
      </trkpt>
      <trkpt lat="42.49052281491458415985107421875" lon="19.99732959084212779998779296875">
        <ele>1936.800048828125</ele>
        <time>2026-06-19T08:52:32.000Z</time>
        <extensions>
          <ns3:TrackPointExtension>
            <ns3:atemp>19.0</ns3:atemp>
          </ns3:TrackPointExtension>
        </extensions>
      </trkpt>
      <trkpt lat="42.4905368126928806304931640625" lon="19.9973456002771854400634765625">
        <ele>1937</ele>
        <time>2026-06-19T08:52:33.000Z</time>
        <extensions>
          <ns3:TrackPointExtension>
            <ns3:atemp>19.0</ns3:atemp>
          </ns3:TrackPointExtension>
        </extensions>
      </trkpt>
      <trkpt lat="42.4905507266521453857421875" lon="19.997365213930606842041015625">
        <ele>1937.4000244140625</ele>
        <time>2026-06-19T08:52:34.000Z</time>
        <extensions>
          <ns3:TrackPointExtension>
            <ns3:atemp>19.0</ns3:atemp>
          </ns3:TrackPointExtension>
        </extensions>
      </trkpt>
      <trkpt lat="42.49056279659271240234375" lon="19.9973854981362819671630859375">
        <ele>1937.5999755859375</ele>
        <time>2026-06-19T08:52:35.000Z</time>
        <extensions>
          <ns3:TrackPointExtension>
            <ns3:atemp>19.0</ns3:atemp>
          </ns3:TrackPointExtension>
        </extensions>
      </trkpt>
      <trkpt lat="42.49057612381875514984130859375" lon="19.99740469269454479217529296875">
        <ele>1937.800048828125</ele>
        <time>2026-06-19T08:52:36.000Z</time>
        <extensions>
          <ns3:TrackPointExtension>
            <ns3:atemp>19.0</ns3:atemp>
          </ns3:TrackPointExtension>
        </extensions>
      </trkpt>
      <trkpt lat="42.49058936722576618194580078125" lon="19.99742581509053707122802734375">
        <ele>1938</ele>
        <time>2026-06-19T08:52:37.000Z</time>
        <extensions>
          <ns3:TrackPointExtension>
            <ns3:atemp>19.0</ns3:atemp>
          </ns3:TrackPointExtension>
        </extensions>
      </trkpt>
      <trkpt lat="42.49059976078569889068603515625" lon="19.99745272099971771240234375">
        <ele>1938.4000244140625</ele>
        <time>2026-06-19T08:52:38.000Z</time>
        <extensions>
          <ns3:TrackPointExtension>
            <ns3:atemp>19.0</ns3:atemp>
          </ns3:TrackPointExtension>
        </extensions>
      </trkpt>
      <trkpt lat="42.49061266891658306121826171875" lon="19.99747945927083492279052734375">
        <ele>1938.800048828125</ele>
        <time>2026-06-19T08:52:39.000Z</time>
        <extensions>
          <ns3:TrackPointExtension>
            <ns3:atemp>19.0</ns3:atemp>
          </ns3:TrackPointExtension>
        </extensions>
      </trkpt>
      <trkpt lat="42.49062105081975460052490234375" lon="19.99750980176031589508056640625">
        <ele>1939.199951171875</ele>
        <time>2026-06-19T08:52:40.000Z</time>
        <extensions>
          <ns3:TrackPointExtension>
            <ns3:atemp>19.0</ns3:atemp>
          </ns3:TrackPointExtension>
        </extensions>
      </trkpt>
      <trkpt lat="42.49062323011457920074462890625" lon="19.99754165299236774444580078125">
        <ele>1939.5999755859375</ele>
        <time>2026-06-19T08:52:41.000Z</time>
        <extensions>
          <ns3:TrackPointExtension>
            <ns3:atemp>19.0</ns3:atemp>
          </ns3:TrackPointExtension>
        </extensions>
      </trkpt>
      <trkpt lat="42.49062255956232547760009765625" lon="19.997576437890529632568359375">
        <ele>1939.800048828125</ele>
        <time>2026-06-19T08:52:42.000Z</time>
        <extensions>
          <ns3:TrackPointExtension>
            <ns3:atemp>19.0</ns3:atemp>
          </ns3:TrackPointExtension>
        </extensions>
      </trkpt>
      <trkpt lat="42.49061468057334423065185546875" lon="19.99760921113193035125732421875">
        <ele>1940</ele>
        <time>2026-06-19T08:52:43.000Z</time>
        <extensions>
          <ns3:TrackPointExtension>
            <ns3:atemp>19.0</ns3:atemp>
          </ns3:TrackPointExtension>
        </extensions>
      </trkpt>
      <trkpt lat="42.49060093425214290618896484375" lon="19.99763754196465015411376953125">
        <ele>1940.199951171875</ele>
        <time>2026-06-19T08:52:44.000Z</time>
        <extensions>
          <ns3:TrackPointExtension>
            <ns3:atemp>19.0</ns3:atemp>
          </ns3:TrackPointExtension>
        </extensions>
      </trkpt>
      <trkpt lat="42.490581907331943511962890625" lon="19.99766084365546703338623046875">
        <ele>1940.4000244140625</ele>
        <time>2026-06-19T08:52:45.000Z</time>
        <extensions>
          <ns3:TrackPointExtension>
            <ns3:atemp>19.0</ns3:atemp>
          </ns3:TrackPointExtension>
        </extensions>
      </trkpt>
      <trkpt lat="42.490558438003063201904296875" lon="19.9976775236427783966064453125">
        <ele>1940.5999755859375</ele>
        <time>2026-06-19T08:52:46.000Z</time>
        <extensions>
          <ns3:TrackPointExtension>
            <ns3:atemp>19.0</ns3:atemp>
          </ns3:TrackPointExtension>
        </extensions>
      </trkpt>
      <trkpt lat="42.4905344657599925994873046875" lon="19.9976926110684871673583984375">
        <ele>1940.5999755859375</ele>
        <time>2026-06-19T08:52:47.000Z</time>
        <extensions>
          <ns3:TrackPointExtension>
            <ns3:atemp>19.0</ns3:atemp>
          </ns3:TrackPointExtension>
        </extensions>
      </trkpt>
      <trkpt lat="42.4905083142220973968505859375" lon="19.997706525027751922607421875">
        <ele>1940.800048828125</ele>
        <time>2026-06-19T08:52:48.000Z</time>
        <extensions>
          <ns3:TrackPointExtension>
            <ns3:atemp>19.0</ns3:atemp>
          </ns3:TrackPointExtension>
        </extensions>
      </trkpt>
      <trkpt lat="42.49048710800707340240478515625" lon="19.9977258034050464630126953125">
        <ele>1941</ele>
        <time>2026-06-19T08:52:49.000Z</time>
        <extensions>
          <ns3:TrackPointExtension>
            <ns3:atemp>19.0</ns3:atemp>
          </ns3:TrackPointExtension>
        </extensions>
      </trkpt>
      <trkpt lat="42.49046531505882740020751953125" lon="19.99774868600070476531982421875">
        <ele>1941</ele>
        <time>2026-06-19T08:52:50.000Z</time>
        <extensions>
          <ns3:TrackPointExtension>
            <ns3:atemp>19.0</ns3:atemp>
          </ns3:TrackPointExtension>
        </extensions>
      </trkpt>
      <trkpt lat="42.4904452823102474212646484375" lon="19.99776779673993587493896484375">
        <ele>1941</ele>
        <time>2026-06-19T08:52:51.000Z</time>
        <extensions>
          <ns3:TrackPointExtension>
            <ns3:atemp>19.0</ns3:atemp>
          </ns3:TrackPointExtension>
        </extensions>
      </trkpt>
      <trkpt lat="42.4904308654367923736572265625" lon="19.99779545702040195465087890625">
        <ele>1941</ele>
        <time>2026-06-19T08:52:52.000Z</time>
        <extensions>
          <ns3:TrackPointExtension>
            <ns3:atemp>19.0</ns3:atemp>
          </ns3:TrackPointExtension>
        </extensions>
      </trkpt>
      <trkpt lat="42.49041535891592502593994140625" lon="19.997827224433422088623046875">
        <ele>1941</ele>
        <time>2026-06-19T08:52:53.000Z</time>
        <extensions>
          <ns3:TrackPointExtension>
            <ns3:atemp>19.0</ns3:atemp>
          </ns3:TrackPointExtension>
        </extensions>
      </trkpt>
      <trkpt lat="42.4904047138988971710205078125" lon="19.9978656135499477386474609375">
        <ele>1940.800048828125</ele>
        <time>2026-06-19T08:52:54.000Z</time>
        <extensions>
          <ns3:TrackPointExtension>
            <ns3:atemp>19.0</ns3:atemp>
          </ns3:TrackPointExtension>
        </extensions>
      </trkpt>
      <trkpt lat="42.49039440415799617767333984375" lon="19.997909031808376312255859375">
        <ele>1940.800048828125</ele>
        <time>2026-06-19T08:52:55.000Z</time>
        <extensions>
          <ns3:TrackPointExtension>
            <ns3:atemp>19.0</ns3:atemp>
          </ns3:TrackPointExtension>
        </extensions>
      </trkpt>
      <trkpt lat="42.49039004556834697723388671875" lon="19.99795990996062755584716796875">
        <ele>1940.5999755859375</ele>
        <time>2026-06-19T08:52:56.000Z</time>
        <extensions>
          <ns3:TrackPointExtension>
            <ns3:atemp>19.0</ns3:atemp>
          </ns3:TrackPointExtension>
        </extensions>
      </trkpt>
      <trkpt lat="42.49039851129055023193359375" lon="19.99801707454025745391845703125">
        <ele>1940.199951171875</ele>
        <time>2026-06-19T08:52:57.000Z</time>
        <extensions>
          <ns3:TrackPointExtension>
            <ns3:atemp>19.0</ns3:atemp>
          </ns3:TrackPointExtension>
        </extensions>
      </trkpt>
      <trkpt lat="42.49041921459138393402099609375" lon="19.9980640970170497894287109375">
        <ele>1939.800048828125</ele>
        <time>2026-06-19T08:52:58.000Z</time>
        <extensions>
          <ns3:TrackPointExtension>
            <ns3:atemp>19.0</ns3:atemp>
          </ns3:TrackPointExtension>
        </extensions>
      </trkpt>
      <trkpt lat="42.490447796881198883056640625" lon="19.99809821136295795440673828125">
        <ele>1939.5999755859375</ele>
        <time>2026-06-19T08:52:59.000Z</time>
        <extensions>
          <ns3:TrackPointExtension>
            <ns3:atemp>19.0</ns3:atemp>
          </ns3:TrackPointExtension>
        </extensions>
      </trkpt>
      <trkpt lat="42.490474618971347808837890625" lon="19.99812117777764797210693359375">
        <ele>1939.4000244140625</ele>
        <time>2026-06-19T08:53:00.000Z</time>
        <extensions>
          <ns3:TrackPointExtension>
            <ns3:atemp>19.0</ns3:atemp>
          </ns3:TrackPointExtension>
        </extensions>
      </trkpt>
      <trkpt lat="42.4905036203563213348388671875" lon="19.99814816750586032867431640625">
        <ele>1939.4000244140625</ele>
        <time>2026-06-19T08:53:01.000Z</time>
        <extensions>
          <ns3:TrackPointExtension>
            <ns3:atemp>19.0</ns3:atemp>
          </ns3:TrackPointExtension>
        </extensions>
      </trkpt>
      <trkpt lat="42.4905327893793582916259765625" lon="19.99817901290953159332275390625">
        <ele>1939.199951171875</ele>
        <time>2026-06-19T08:53:02.000Z</time>
        <extensions>
          <ns3:TrackPointExtension>
            <ns3:atemp>19.0</ns3:atemp>
          </ns3:TrackPointExtension>
        </extensions>
      </trkpt>
      <trkpt lat="42.49056346714496612548828125" lon="19.99821505509316921234130859375">
        <ele>1939.199951171875</ele>
        <time>2026-06-19T08:53:03.000Z</time>
        <extensions>
          <ns3:TrackPointExtension>
            <ns3:atemp>19.0</ns3:atemp>
          </ns3:TrackPointExtension>
        </extensions>
      </trkpt>
      <trkpt lat="42.49058903194963932037353515625" lon="19.99825864098966121673583984375">
        <ele>1939.199951171875</ele>
        <time>2026-06-19T08:53:04.000Z</time>
        <extensions>
          <ns3:TrackPointExtension>
            <ns3:atemp>19.0</ns3:atemp>
          </ns3:TrackPointExtension>
        </extensions>
      </trkpt>
      <trkpt lat="42.4906125850975513458251953125" lon="19.99830289743840694427490234375">
        <ele>1939</ele>
        <time>2026-06-19T08:53:05.000Z</time>
        <extensions>
          <ns3:TrackPointExtension>
            <ns3:atemp>19.0</ns3:atemp>
          </ns3:TrackPointExtension>
        </extensions>
      </trkpt>
      <trkpt lat="42.4906337074935436248779296875" lon="19.99835335649549961090087890625">
        <ele>1938.800048828125</ele>
        <time>2026-06-19T08:53:06.000Z</time>
        <extensions>
          <ns3:TrackPointExtension>
            <ns3:atemp>19.0</ns3:atemp>
          </ns3:TrackPointExtension>
        </extensions>
      </trkpt>
      <trkpt lat="42.4906531535089015960693359375" lon="19.9984137900173664093017578125">
        <ele>1938.5999755859375</ele>
        <time>2026-06-19T08:53:07.000Z</time>
        <extensions>
          <ns3:TrackPointExtension>
            <ns3:atemp>19.0</ns3:atemp>
          </ns3:TrackPointExtension>
        </extensions>
      </trkpt>
      <trkpt lat="42.49067687429487705230712890625" lon="19.99848612584173679351806640625">
        <ele>1938.199951171875</ele>
        <time>2026-06-19T08:53:08.000Z</time>
        <extensions>
          <ns3:TrackPointExtension>
            <ns3:atemp>19.0</ns3:atemp>
          </ns3:TrackPointExtension>
        </extensions>
      </trkpt>
      <trkpt lat="42.49069665558636188507080078125" lon="19.99856525100767612457275390625">
        <ele>1937.800048828125</ele>
        <time>2026-06-19T08:53:09.000Z</time>
        <extensions>
          <ns3:TrackPointExtension>
            <ns3:atemp>19.0</ns3:atemp>
          </ns3:TrackPointExtension>
        </extensions>
      </trkpt>
      <trkpt lat="42.49071744270622730255126953125" lon="19.998643957078456878662109375">
        <ele>1937.4000244140625</ele>
        <time>2026-06-19T08:53:10.000Z</time>
        <extensions>
          <ns3:TrackPointExtension>
            <ns3:atemp>19.0</ns3:atemp>
          </ns3:TrackPointExtension>
        </extensions>
      </trkpt>
      <trkpt lat="42.490741498768329620361328125" lon="19.998724423348903656005859375">
        <ele>1936.800048828125</ele>
        <time>2026-06-19T08:53:11.000Z</time>
        <extensions>
          <ns3:TrackPointExtension>
            <ns3:atemp>19.0</ns3:atemp>
          </ns3:TrackPointExtension>
        </extensions>
      </trkpt>
      <trkpt lat="42.49076622538268566131591796875" lon="19.99879340641200542449951171875">
        <ele>1936.5999755859375</ele>
        <time>2026-06-19T08:53:12.000Z</time>
        <extensions>
          <ns3:TrackPointExtension>
            <ns3:atemp>19.0</ns3:atemp>
          </ns3:TrackPointExtension>
        </extensions>
      </trkpt>
      <trkpt lat="42.49079505912959575653076171875" lon="19.9988566897809505462646484375">
        <ele>1936.199951171875</ele>
        <time>2026-06-19T08:53:13.000Z</time>
        <extensions>
          <ns3:TrackPointExtension>
            <ns3:atemp>19.0</ns3:atemp>
          </ns3:TrackPointExtension>
        </extensions>
      </trkpt>
      <trkpt lat="42.4908288381993770599365234375" lon="19.99890237115323543548583984375">
        <ele>1936.199951171875</ele>
        <time>2026-06-19T08:53:14.000Z</time>
        <extensions>
          <ns3:TrackPointExtension>
            <ns3:atemp>19.0</ns3:atemp>
          </ns3:TrackPointExtension>
        </extensions>
      </trkpt>
      <trkpt lat="42.49085959978401660919189453125" lon="19.998942352831363677978515625">
        <ele>1936</ele>
        <time>2026-06-19T08:53:15.000Z</time>
        <extensions>
          <ns3:TrackPointExtension>
            <ns3:atemp>19.0</ns3:atemp>
          </ns3:TrackPointExtension>
        </extensions>
      </trkpt>
      <trkpt lat="42.49089530669152736663818359375" lon="19.9989700131118297576904296875">
        <ele>1936</ele>
        <time>2026-06-19T08:53:16.000Z</time>
        <extensions>
          <ns3:TrackPointExtension>
            <ns3:atemp>19.0</ns3:atemp>
          </ns3:TrackPointExtension>
        </extensions>
      </trkpt>
      <trkpt lat="42.490927912294864654541015625" lon="19.99899423681199550628662109375">
        <ele>1936</ele>
        <time>2026-06-19T08:53:17.000Z</time>
        <extensions>
          <ns3:TrackPointExtension>
            <ns3:atemp>19.0</ns3:atemp>
          </ns3:TrackPointExtension>
        </extensions>
      </trkpt>
      <trkpt lat="42.4909646250307559967041015625" lon="19.99901569448411464691162109375">
        <ele>1936</ele>
        <time>2026-06-19T08:53:18.000Z</time>
        <extensions>
          <ns3:TrackPointExtension>
            <ns3:atemp>19.0</ns3:atemp>
          </ns3:TrackPointExtension>
        </extensions>
      </trkpt>
      <trkpt lat="42.49099940992891788482666015625" lon="19.99903463758528232574462890625">
        <ele>1936</ele>
        <time>2026-06-19T08:53:19.000Z</time>
        <extensions>
          <ns3:TrackPointExtension>
            <ns3:atemp>19.0</ns3:atemp>
          </ns3:TrackPointExtension>
        </extensions>
      </trkpt>
      <trkpt lat="42.49104022979736328125" lon="19.99905106611549854278564453125">
        <ele>1935.800048828125</ele>
        <time>2026-06-19T08:53:20.000Z</time>
        <extensions>
          <ns3:TrackPointExtension>
            <ns3:atemp>19.0</ns3:atemp>
          </ns3:TrackPointExtension>
        </extensions>
      </trkpt>
      <trkpt lat="42.49108507297933101654052734375" lon="19.99906531535089015960693359375">
        <ele>1935.800048828125</ele>
        <time>2026-06-19T08:53:21.000Z</time>
        <extensions>
          <ns3:TrackPointExtension>
            <ns3:atemp>19.0</ns3:atemp>
          </ns3:TrackPointExtension>
        </extensions>
      </trkpt>
      <trkpt lat="42.49113184399902820587158203125" lon="19.99907604418694972991943359375">
        <ele>1935.5999755859375</ele>
        <time>2026-06-19T08:53:22.000Z</time>
        <extensions>
          <ns3:TrackPointExtension>
            <ns3:atemp>19.0</ns3:atemp>
          </ns3:TrackPointExtension>
        </extensions>
      </trkpt>
      <trkpt lat="42.491176687180995941162109375" lon="19.99908752739429473876953125">
        <ele>1935.4000244140625</ele>
        <time>2026-06-19T08:53:23.000Z</time>
        <extensions>
          <ns3:TrackPointExtension>
            <ns3:atemp>19.0</ns3:atemp>
          </ns3:TrackPointExtension>
        </extensions>
      </trkpt>
      <trkpt lat="42.49122890643775463104248046875" lon="19.9990917183458805084228515625">
        <ele>1935.199951171875</ele>
        <time>2026-06-19T08:53:24.000Z</time>
        <extensions>
          <ns3:TrackPointExtension>
            <ns3:atemp>19.0</ns3:atemp>
          </ns3:TrackPointExtension>
        </extensions>
      </trkpt>
      <trkpt lat="42.49128556810319423675537109375" lon="19.99909632839262485504150390625">
        <ele>1934.800048828125</ele>
        <time>2026-06-19T08:53:25.000Z</time>
        <extensions>
          <ns3:TrackPointExtension>
            <ns3:atemp>19.0</ns3:atemp>
          </ns3:TrackPointExtension>
        </extensions>
      </trkpt>
      <trkpt lat="42.49134105630218982696533203125" lon="19.99910169281065464019775390625">
        <ele>1934.5999755859375</ele>
        <time>2026-06-19T08:53:26.000Z</time>
        <extensions>
          <ns3:TrackPointExtension>
            <ns3:atemp>18.0</ns3:atemp>
          </ns3:TrackPointExtension>
        </extensions>
      </trkpt>
      <trkpt lat="42.4913890846073627471923828125" lon="19.99912214465439319610595703125">
        <ele>1934.199951171875</ele>
        <time>2026-06-19T08:53:27.000Z</time>
        <extensions>
          <ns3:TrackPointExtension>
            <ns3:atemp>18.0</ns3:atemp>
          </ns3:TrackPointExtension>
        </extensions>
      </trkpt>
      <trkpt lat="42.49142185784876346588134765625" lon="19.9991664849221706390380859375">
        <ele>1934</ele>
        <time>2026-06-19T08:53:28.000Z</time>
        <extensions>
          <ns3:TrackPointExtension>
            <ns3:atemp>19.0</ns3:atemp>
          </ns3:TrackPointExtension>
        </extensions>
      </trkpt>
      <trkpt lat="42.49144482426345348358154296875" lon="19.99921753071248531341552734375">
        <ele>1933.800048828125</ele>
        <time>2026-06-19T08:53:29.000Z</time>
        <extensions>
          <ns3:TrackPointExtension>
            <ns3:atemp>19.0</ns3:atemp>
          </ns3:TrackPointExtension>
        </extensions>
      </trkpt>
      <trkpt lat="42.49146326445043087005615234375" lon="19.9992640502750873565673828125">
        <ele>1933.4000244140625</ele>
        <time>2026-06-19T08:53:30.000Z</time>
        <extensions>
          <ns3:TrackPointExtension>
            <ns3:atemp>19.0</ns3:atemp>
          </ns3:TrackPointExtension>
        </extensions>
      </trkpt>
      <trkpt lat="42.49147080816328525543212890625" lon="19.99930855818092823028564453125">
        <ele>1933.4000244140625</ele>
        <time>2026-06-19T08:53:31.000Z</time>
        <extensions>
          <ns3:TrackPointExtension>
            <ns3:atemp>19.0</ns3:atemp>
          </ns3:TrackPointExtension>
        </extensions>
      </trkpt>
      <trkpt lat="42.49147717840969562530517578125" lon="19.99935214407742023468017578125">
        <ele>1933.4000244140625</ele>
        <time>2026-06-19T08:53:32.000Z</time>
        <extensions>
          <ns3:TrackPointExtension>
            <ns3:atemp>19.0</ns3:atemp>
          </ns3:TrackPointExtension>
        </extensions>
      </trkpt>
      <trkpt lat="42.49148203991353511810302734375" lon="19.9994011782109737396240234375">
        <ele>1933.4000244140625</ele>
        <time>2026-06-19T08:53:33.000Z</time>
        <extensions>
          <ns3:TrackPointExtension>
            <ns3:atemp>18.0</ns3:atemp>
          </ns3:TrackPointExtension>
        </extensions>
      </trkpt>
      <trkpt lat="42.49148773960769176483154296875" lon="19.9994477815926074981689453125">
        <ele>1933.4000244140625</ele>
        <time>2026-06-19T08:53:34.000Z</time>
        <extensions>
          <ns3:TrackPointExtension>
            <ns3:atemp>18.0</ns3:atemp>
          </ns3:TrackPointExtension>
        </extensions>
      </trkpt>
      <trkpt lat="42.49150232411921024322509765625" lon="19.99950083903968334197998046875">
        <ele>1933.5999755859375</ele>
        <time>2026-06-19T08:53:35.000Z</time>
        <extensions>
          <ns3:TrackPointExtension>
            <ns3:atemp>18.0</ns3:atemp>
          </ns3:TrackPointExtension>
        </extensions>
      </trkpt>
      <trkpt lat="42.49151791445910930633544921875" lon="19.9995495378971099853515625">
        <ele>1933.800048828125</ele>
        <time>2026-06-19T08:53:36.000Z</time>
        <extensions>
          <ns3:TrackPointExtension>
            <ns3:atemp>18.0</ns3:atemp>
          </ns3:TrackPointExtension>
        </extensions>
      </trkpt>
      <trkpt lat="42.49153618700802326202392578125" lon="19.99959706328809261322021484375">
        <ele>1933.800048828125</ele>
        <time>2026-06-19T08:53:37.000Z</time>
        <extensions>
          <ns3:TrackPointExtension>
            <ns3:atemp>18.0</ns3:atemp>
          </ns3:TrackPointExtension>
        </extensions>
      </trkpt>
      <trkpt lat="42.4915577284991741180419921875" lon="19.99964467249810695648193359375">
        <ele>1934</ele>
        <time>2026-06-19T08:53:38.000Z</time>
        <extensions>
          <ns3:TrackPointExtension>
            <ns3:atemp>18.0</ns3:atemp>
          </ns3:TrackPointExtension>
        </extensions>
      </trkpt>
      <trkpt lat="42.49158077873289585113525390625" lon="19.99968876130878925323486328125">
        <ele>1934</ele>
        <time>2026-06-19T08:53:39.000Z</time>
        <extensions>
          <ns3:TrackPointExtension>
            <ns3:atemp>18.0</ns3:atemp>
          </ns3:TrackPointExtension>
        </extensions>
      </trkpt>
      <trkpt lat="42.49160952866077423095703125" lon="19.99972329474985599517822265625">
        <ele>1934.199951171875</ele>
        <time>2026-06-19T08:53:40.000Z</time>
        <extensions>
          <ns3:TrackPointExtension>
            <ns3:atemp>18.0</ns3:atemp>
          </ns3:TrackPointExtension>
        </extensions>
      </trkpt>
      <trkpt lat="42.4916351772844791412353515625" lon="19.9997616000473499298095703125">
        <ele>1934.199951171875</ele>
        <time>2026-06-19T08:53:41.000Z</time>
        <extensions>
          <ns3:TrackPointExtension>
            <ns3:atemp>18.0</ns3:atemp>
          </ns3:TrackPointExtension>
        </extensions>
      </trkpt>
      <trkpt lat="42.4916599877178668975830078125" lon="19.9997994862496852874755859375">
        <ele>1934.199951171875</ele>
        <time>2026-06-19T08:53:42.000Z</time>
        <extensions>
          <ns3:TrackPointExtension>
            <ns3:atemp>18.0</ns3:atemp>
          </ns3:TrackPointExtension>
        </extensions>
      </trkpt>
      <trkpt lat="42.49167926609516143798828125" lon="19.99984080903232097625732421875">
        <ele>1934.4000244140625</ele>
        <time>2026-06-19T08:53:43.000Z</time>
        <extensions>
          <ns3:TrackPointExtension>
            <ns3:atemp>18.0</ns3:atemp>
          </ns3:TrackPointExtension>
        </extensions>
      </trkpt>
      <trkpt lat="42.4916987121105194091796875" lon="19.999887160956859588623046875">
        <ele>1934.5999755859375</ele>
        <time>2026-06-19T08:53:44.000Z</time>
        <extensions>
          <ns3:TrackPointExtension>
            <ns3:atemp>18.0</ns3:atemp>
          </ns3:TrackPointExtension>
        </extensions>
      </trkpt>
      <trkpt lat="42.4917174875736236572265625" lon="19.9999332614243030548095703125">
        <ele>1934.800048828125</ele>
        <time>2026-06-19T08:53:45.000Z</time>
        <extensions>
          <ns3:TrackPointExtension>
            <ns3:atemp>18.0</ns3:atemp>
          </ns3:TrackPointExtension>
        </extensions>
      </trkpt>
      <trkpt lat="42.4917357601225376129150390625" lon="19.999978356063365936279296875">
        <ele>1934.800048828125</ele>
        <time>2026-06-19T08:53:46.000Z</time>
        <extensions>
          <ns3:TrackPointExtension>
            <ns3:atemp>18.0</ns3:atemp>
          </ns3:TrackPointExtension>
        </extensions>
      </trkpt>
      <trkpt lat="42.49175126664340496063232421875" lon="20.00002487562596797943115234375">
        <ele>1935</ele>
        <time>2026-06-19T08:53:47.000Z</time>
        <extensions>
          <ns3:TrackPointExtension>
            <ns3:atemp>18.0</ns3:atemp>
          </ns3:TrackPointExtension>
        </extensions>
      </trkpt>
      <trkpt lat="42.4917642585933208465576171875" lon="20.00006653368473052978515625">
        <ele>1935.199951171875</ele>
        <time>2026-06-19T08:53:48.000Z</time>
        <extensions>
          <ns3:TrackPointExtension>
            <ns3:atemp>18.0</ns3:atemp>
          </ns3:TrackPointExtension>
        </extensions>
      </trkpt>
      <trkpt lat="42.4917719699442386627197265625" lon="20.00010467134416103363037109375">
        <ele>1935.5999755859375</ele>
        <time>2026-06-19T08:53:49.000Z</time>
        <extensions>
          <ns3:TrackPointExtension>
            <ns3:atemp>18.0</ns3:atemp>
          </ns3:TrackPointExtension>
        </extensions>
      </trkpt>
      <trkpt lat="42.49177373014390468597412109375" lon="20.00013987533748149871826171875">
        <ele>1935.800048828125</ele>
        <time>2026-06-19T08:53:50.000Z</time>
        <extensions>
          <ns3:TrackPointExtension>
            <ns3:atemp>18.0</ns3:atemp>
          </ns3:TrackPointExtension>
        </extensions>
      </trkpt>
      <trkpt lat="42.4917726404964923858642578125" lon="20.0001726485788822174072265625">
        <ele>1936.4000244140625</ele>
        <time>2026-06-19T08:53:51.000Z</time>
        <extensions>
          <ns3:TrackPointExtension>
            <ns3:atemp>18.0</ns3:atemp>
          </ns3:TrackPointExtension>
        </extensions>
      </trkpt>
      <trkpt lat="42.4917719699442386627197265625" lon="20.000199973583221435546875">
        <ele>1936.5999755859375</ele>
        <time>2026-06-19T08:53:52.000Z</time>
        <extensions>
          <ns3:TrackPointExtension>
            <ns3:atemp>18.0</ns3:atemp>
          </ns3:TrackPointExtension>
        </extensions>
      </trkpt>
      <trkpt lat="42.4917726404964923858642578125" lon="20.00022755004465579986572265625">
        <ele>1937</ele>
        <time>2026-06-19T08:53:53.000Z</time>
        <extensions>
          <ns3:TrackPointExtension>
            <ns3:atemp>18.0</ns3:atemp>
          </ns3:TrackPointExtension>
        </extensions>
      </trkpt>
      <trkpt lat="42.4917719699442386627197265625" lon="20.000253953039646148681640625">
        <ele>1937.4000244140625</ele>
        <time>2026-06-19T08:53:54.000Z</time>
        <extensions>
          <ns3:TrackPointExtension>
            <ns3:atemp>18.0</ns3:atemp>
          </ns3:TrackPointExtension>
        </extensions>
      </trkpt>
      <trkpt lat="42.491776160895824432373046875" lon="20.00028186477720737457275390625">
        <ele>1937.800048828125</ele>
        <time>2026-06-19T08:53:55.000Z</time>
        <extensions>
          <ns3:TrackPointExtension>
            <ns3:atemp>18.0</ns3:atemp>
          </ns3:TrackPointExtension>
        </extensions>
      </trkpt>
      <trkpt lat="42.49178077094256877899169921875" lon="20.00031656585633754730224609375">
        <ele>1938</ele>
        <time>2026-06-19T08:53:56.000Z</time>
        <extensions>
          <ns3:TrackPointExtension>
            <ns3:atemp>18.0</ns3:atemp>
          </ns3:TrackPointExtension>
        </extensions>
      </trkpt>
      <trkpt lat="42.49178596772253513336181640625" lon="20.00035529024899005889892578125">
        <ele>1938.4000244140625</ele>
        <time>2026-06-19T08:53:57.000Z</time>
        <extensions>
          <ns3:TrackPointExtension>
            <ns3:atemp>18.0</ns3:atemp>
          </ns3:TrackPointExtension>
        </extensions>
      </trkpt>
      <trkpt lat="42.49180071987211704254150390625" lon="20.000397451221942901611328125">
        <ele>1938.5999755859375</ele>
        <time>2026-06-19T08:53:58.000Z</time>
        <extensions>
          <ns3:TrackPointExtension>
            <ns3:atemp>18.0</ns3:atemp>
          </ns3:TrackPointExtension>
        </extensions>
      </trkpt>
      <trkpt lat="42.4918282963335514068603515625" lon="20.0004361756145954132080078125">
        <ele>1938.5999755859375</ele>
        <time>2026-06-19T08:53:59.000Z</time>
        <extensions>
          <ns3:TrackPointExtension>
            <ns3:atemp>18.0</ns3:atemp>
          </ns3:TrackPointExtension>
        </extensions>
      </trkpt>
      <trkpt lat="42.49186542816460132598876953125" lon="20.00047900713980197906494140625">
        <ele>1938.4000244140625</ele>
        <time>2026-06-19T08:54:00.000Z</time>
        <extensions>
          <ns3:TrackPointExtension>
            <ns3:atemp>18.0</ns3:atemp>
          </ns3:TrackPointExtension>
        </extensions>
      </trkpt>
      <trkpt lat="42.4919080920517444610595703125" lon="20.0005233474075794219970703125">
        <ele>1938.199951171875</ele>
        <time>2026-06-19T08:54:01.000Z</time>
        <extensions>
          <ns3:TrackPointExtension>
            <ns3:atemp>18.0</ns3:atemp>
          </ns3:TrackPointExtension>
        </extensions>
      </trkpt>
      <trkpt lat="42.49195712618529796600341796875" lon="20.00056953169405460357666015625">
        <ele>1937.800048828125</ele>
        <time>2026-06-19T08:54:02.000Z</time>
        <extensions>
          <ns3:TrackPointExtension>
            <ns3:atemp>18.0</ns3:atemp>
          </ns3:TrackPointExtension>
        </extensions>
      </trkpt>
      <trkpt lat="42.49200222082436084747314453125" lon="20.00061370432376861572265625">
        <ele>1937.4000244140625</ele>
        <time>2026-06-19T08:54:03.000Z</time>
        <extensions>
          <ns3:TrackPointExtension>
            <ns3:atemp>18.0</ns3:atemp>
          </ns3:TrackPointExtension>
        </extensions>
      </trkpt>
      <trkpt lat="42.49204295687377452850341796875" lon="20.0006551109254360198974609375">
        <ele>1937</ele>
        <time>2026-06-19T08:54:04.000Z</time>
        <extensions>
          <ns3:TrackPointExtension>
            <ns3:atemp>18.0</ns3:atemp>
          </ns3:TrackPointExtension>
        </extensions>
      </trkpt>
      <trkpt lat="42.49207916669547557830810546875" lon="20.0006929971277713775634765625">
        <ele>1937</ele>
        <time>2026-06-19T08:54:05.000Z</time>
        <extensions>
          <ns3:TrackPointExtension>
            <ns3:atemp>18.0</ns3:atemp>
          </ns3:TrackPointExtension>
        </extensions>
      </trkpt>
      <trkpt lat="42.4921126104891300201416015625" lon="20.0007243454456329345703125">
        <ele>1936.800048828125</ele>
        <time>2026-06-19T08:54:06.000Z</time>
        <extensions>
          <ns3:TrackPointExtension>
            <ns3:atemp>18.0</ns3:atemp>
          </ns3:TrackPointExtension>
        </extensions>
      </trkpt>
      <trkpt lat="42.4921451322734355926513671875" lon="20.00075778923928737640380859375">
        <ele>1937</ele>
        <time>2026-06-19T08:54:07.000Z</time>
        <extensions>
          <ns3:TrackPointExtension>
            <ns3:atemp>18.0</ns3:atemp>
          </ns3:TrackPointExtension>
        </extensions>
      </trkpt>
      <trkpt lat="42.4921746365725994110107421875" lon="20.000791735947132110595703125">
        <ele>1937</ele>
        <time>2026-06-19T08:54:08.000Z</time>
        <extensions>
          <ns3:TrackPointExtension>
            <ns3:atemp>18.0</ns3:atemp>
          </ns3:TrackPointExtension>
        </extensions>
      </trkpt>
      <trkpt lat="42.4922017939388751983642578125" lon="20.00082350336015224456787109375">
        <ele>1937.199951171875</ele>
        <time>2026-06-19T08:54:09.000Z</time>
        <extensions>
          <ns3:TrackPointExtension>
            <ns3:atemp>18.0</ns3:atemp>
          </ns3:TrackPointExtension>
        </extensions>
      </trkpt>
      <trkpt lat="42.49222886748611927032470703125" lon="20.0008572824299335479736328125">
        <ele>1937.4000244140625</ele>
        <time>2026-06-19T08:54:10.000Z</time>
        <extensions>
          <ns3:TrackPointExtension>
            <ns3:atemp>18.0</ns3:atemp>
          </ns3:TrackPointExtension>
        </extensions>
      </trkpt>
      <trkpt lat="42.4922564439475536346435546875" lon="20.00089005567133426666259765625">
        <ele>1937.5999755859375</ele>
        <time>2026-06-19T08:54:11.000Z</time>
        <extensions>
          <ns3:TrackPointExtension>
            <ns3:atemp>18.0</ns3:atemp>
          </ns3:TrackPointExtension>
        </extensions>
      </trkpt>
      <trkpt lat="42.49228452332317829132080078125" lon="20.0009206496179103851318359375">
        <ele>1938</ele>
        <time>2026-06-19T08:54:12.000Z</time>
        <extensions>
          <ns3:TrackPointExtension>
            <ns3:atemp>18.0</ns3:atemp>
          </ns3:TrackPointExtension>
        </extensions>
      </trkpt>
      <trkpt lat="42.49231184832751750946044921875" lon="20.000956691801548004150390625">
        <ele>1938.199951171875</ele>
        <time>2026-06-19T08:54:13.000Z</time>
        <extensions>
          <ns3:TrackPointExtension>
            <ns3:atemp>18.0</ns3:atemp>
          </ns3:TrackPointExtension>
        </extensions>
      </trkpt>
      <trkpt lat="42.49234118498861789703369140625" lon="20.00098695047199726104736328125">
        <ele>1938.4000244140625</ele>
        <time>2026-06-19T08:54:14.000Z</time>
        <extensions>
          <ns3:TrackPointExtension>
            <ns3:atemp>18.0</ns3:atemp>
          </ns3:TrackPointExtension>
        </extensions>
      </trkpt>
      <trkpt lat="42.492372952401638031005859375" lon="20.00101603567600250244140625">
        <ele>1938.5999755859375</ele>
        <time>2026-06-19T08:54:15.000Z</time>
        <extensions>
          <ns3:TrackPointExtension>
            <ns3:atemp>18.0</ns3:atemp>
          </ns3:TrackPointExtension>
        </extensions>
      </trkpt>
      <trkpt lat="42.49240488745272159576416015625" lon="20.0010453723371028900146484375">
        <ele>1938.800048828125</ele>
        <time>2026-06-19T08:54:16.000Z</time>
        <extensions>
          <ns3:TrackPointExtension>
            <ns3:atemp>18.0</ns3:atemp>
          </ns3:TrackPointExtension>
        </extensions>
      </trkpt>
      <trkpt lat="42.4924351461231708526611328125" lon="20.001082755625247955322265625">
        <ele>1939</ele>
        <time>2026-06-19T08:54:17.000Z</time>
        <extensions>
          <ns3:TrackPointExtension>
            <ns3:atemp>18.0</ns3:atemp>
          </ns3:TrackPointExtension>
        </extensions>
      </trkpt>
      <trkpt lat="42.49246439896523952484130859375" lon="20.00111997127532958984375">
        <ele>1939</ele>
        <time>2026-06-19T08:54:18.000Z</time>
        <extensions>
          <ns3:TrackPointExtension>
            <ns3:atemp>18.0</ns3:atemp>
          </ns3:TrackPointExtension>
        </extensions>
      </trkpt>
      <trkpt lat="42.4924958311021327972412109375" lon="20.00116112641990184783935546875">
        <ele>1939.199951171875</ele>
        <time>2026-06-19T08:54:19.000Z</time>
        <extensions>
          <ns3:TrackPointExtension>
            <ns3:atemp>18.0</ns3:atemp>
          </ns3:TrackPointExtension>
        </extensions>
      </trkpt>
      <trkpt lat="42.49252458103001117706298828125" lon="20.001202113926410675048828125">
        <ele>1939.199951171875</ele>
        <time>2026-06-19T08:54:20.000Z</time>
        <extensions>
          <ns3:TrackPointExtension>
            <ns3:atemp>18.0</ns3:atemp>
          </ns3:TrackPointExtension>
        </extensions>
      </trkpt>
      <trkpt lat="42.49255257658660411834716796875" lon="20.00124461017549037933349609375">
        <ele>1939.4000244140625</ele>
        <time>2026-06-19T08:54:21.000Z</time>
        <extensions>
          <ns3:TrackPointExtension>
            <ns3:atemp>18.0</ns3:atemp>
          </ns3:TrackPointExtension>
        </extensions>
      </trkpt>
      <trkpt lat="42.49258224852383136749267578125" lon="20.0012795627117156982421875">
        <ele>1939.4000244140625</ele>
        <time>2026-06-19T08:54:22.000Z</time>
        <extensions>
          <ns3:TrackPointExtension>
            <ns3:atemp>18.0</ns3:atemp>
          </ns3:TrackPointExtension>
        </extensions>
      </trkpt>
      <trkpt lat="42.492610998451709747314453125" lon="20.001315437257289886474609375">
        <ele>1939.4000244140625</ele>
        <time>2026-06-19T08:54:23.000Z</time>
        <extensions>
          <ns3:TrackPointExtension>
            <ns3:atemp>18.0</ns3:atemp>
          </ns3:TrackPointExtension>
        </extensions>
      </trkpt>
      <trkpt lat="42.4926353059709072113037109375" lon="20.00135189853608608245849609375">
        <ele>1939.4000244140625</ele>
        <time>2026-06-19T08:54:24.000Z</time>
        <extensions>
          <ns3:TrackPointExtension>
            <ns3:atemp>18.0</ns3:atemp>
          </ns3:TrackPointExtension>
        </extensions>
      </trkpt>
      <trkpt lat="42.49265785329043865203857421875" lon="20.00139246694743633270263671875">
        <ele>1939.4000244140625</ele>
        <time>2026-06-19T08:54:25.000Z</time>
        <extensions>
          <ns3:TrackPointExtension>
            <ns3:atemp>18.0</ns3:atemp>
          </ns3:TrackPointExtension>
        </extensions>
      </trkpt>
      <trkpt lat="42.492686770856380462646484375" lon="20.0014332868158817291259765625">
        <ele>1939.4000244140625</ele>
        <time>2026-06-19T08:54:26.000Z</time>
        <extensions>
          <ns3:TrackPointExtension>
            <ns3:atemp>18.0</ns3:atemp>
          </ns3:TrackPointExtension>
        </extensions>
      </trkpt>
      <trkpt lat="42.49272138811647891998291015625" lon="20.00147243030369281768798828125">
        <ele>1939.199951171875</ele>
        <time>2026-06-19T08:54:27.000Z</time>
        <extensions>
          <ns3:TrackPointExtension>
            <ns3:atemp>18.0</ns3:atemp>
          </ns3:TrackPointExtension>
        </extensions>
      </trkpt>
      <trkpt lat="42.4927653931081295013427734375" lon="20.0015204586088657379150390625">
        <ele>1938.800048828125</ele>
        <time>2026-06-19T08:54:28.000Z</time>
        <extensions>
          <ns3:TrackPointExtension>
            <ns3:atemp>18.0</ns3:atemp>
          </ns3:TrackPointExtension>
        </extensions>
      </trkpt>
      <trkpt lat="42.492814846336841583251953125" lon="20.00157125294208526611328125">
        <ele>1938.5999755859375</ele>
        <time>2026-06-19T08:54:29.000Z</time>
        <extensions>
          <ns3:TrackPointExtension>
            <ns3:atemp>18.0</ns3:atemp>
          </ns3:TrackPointExtension>
        </extensions>
      </trkpt>
      <trkpt lat="42.49287553131580352783203125" lon="20.001621879637241363525390625">
        <ele>1938</ele>
        <time>2026-06-19T08:54:30.000Z</time>
        <extensions>
          <ns3:TrackPointExtension>
            <ns3:atemp>18.0</ns3:atemp>
          </ns3:TrackPointExtension>
        </extensions>
      </trkpt>
      <trkpt lat="42.4929400719702243804931640625" lon="20.00167896039783954620361328125">
        <ele>1937.199951171875</ele>
        <time>2026-06-19T08:54:31.000Z</time>
        <extensions>
          <ns3:TrackPointExtension>
            <ns3:atemp>18.0</ns3:atemp>
          </ns3:TrackPointExtension>
        </extensions>
      </trkpt>
      <trkpt lat="42.4930020980536937713623046875" lon="20.0017487816512584686279296875">
        <ele>1936.4000244140625</ele>
        <time>2026-06-19T08:54:32.000Z</time>
        <extensions>
          <ns3:TrackPointExtension>
            <ns3:atemp>18.0</ns3:atemp>
          </ns3:TrackPointExtension>
        </extensions>
      </trkpt>
      <trkpt lat="42.49306236393749713897705078125" lon="20.001829750835895538330078125">
        <ele>1935.4000244140625</ele>
        <time>2026-06-19T08:54:33.000Z</time>
        <extensions>
          <ns3:TrackPointExtension>
            <ns3:atemp>18.0</ns3:atemp>
          </ns3:TrackPointExtension>
        </extensions>
      </trkpt>
      <trkpt lat="42.49310678802430629730224609375" lon="20.00191994011402130126953125">
        <ele>1934.5999755859375</ele>
        <time>2026-06-19T08:54:34.000Z</time>
        <extensions>
          <ns3:TrackPointExtension>
            <ns3:atemp>18.0</ns3:atemp>
          </ns3:TrackPointExtension>
        </extensions>
      </trkpt>
      <trkpt lat="42.49311827123165130615234375" lon="20.00200954265892505645751953125">
        <ele>1934.199951171875</ele>
        <time>2026-06-19T08:54:35.000Z</time>
        <extensions>
          <ns3:TrackPointExtension>
            <ns3:atemp>18.0</ns3:atemp>
          </ns3:TrackPointExtension>
        </extensions>
      </trkpt>
      <trkpt lat="42.49310754239559173583984375" lon="20.00208229757845401763916015625">
        <ele>1934</ele>
        <time>2026-06-19T08:54:36.000Z</time>
        <extensions>
          <ns3:TrackPointExtension>
            <ns3:atemp>18.0</ns3:atemp>
          </ns3:TrackPointExtension>
        </extensions>
      </trkpt>
      <trkpt lat="42.49309144914150238037109375" lon="20.002150945365428924560546875">
        <ele>1934</ele>
        <time>2026-06-19T08:54:37.000Z</time>
        <extensions>
          <ns3:TrackPointExtension>
            <ns3:atemp>18.0</ns3:atemp>
          </ns3:TrackPointExtension>
        </extensions>
      </trkpt>
      <trkpt lat="42.4930815584957599639892578125" lon="20.00221674330532550811767578125">
        <ele>1934</ele>
        <time>2026-06-19T08:54:38.000Z</time>
        <extensions>
          <ns3:TrackPointExtension>
            <ns3:atemp>18.0</ns3:atemp>
          </ns3:TrackPointExtension>
        </extensions>
      </trkpt>
      <trkpt lat="42.49307007528841495513916015625" lon="20.00227893702685832977294921875">
        <ele>1934.4000244140625</ele>
        <time>2026-06-19T08:54:39.000Z</time>
        <extensions>
          <ns3:TrackPointExtension>
            <ns3:atemp>18.0</ns3:atemp>
          </ns3:TrackPointExtension>
        </extensions>
      </trkpt>
      <trkpt lat="42.49304878525435924530029296875" lon="20.0023318268358707427978515625">
        <ele>1934.5999755859375</ele>
        <time>2026-06-19T08:54:40.000Z</time>
        <extensions>
          <ns3:TrackPointExtension>
            <ns3:atemp>18.0</ns3:atemp>
          </ns3:TrackPointExtension>
        </extensions>
      </trkpt>
      <trkpt lat="42.49302833341062068939208984375" lon="20.0023827888071537017822265625">
        <ele>1934.800048828125</ele>
        <time>2026-06-19T08:54:41.000Z</time>
        <extensions>
          <ns3:TrackPointExtension>
            <ns3:atemp>18.0</ns3:atemp>
          </ns3:TrackPointExtension>
        </extensions>
      </trkpt>
      <trkpt lat="42.49301006086170673370361328125" lon="20.00243383459746837615966796875">
        <ele>1934.800048828125</ele>
        <time>2026-06-19T08:54:42.000Z</time>
        <extensions>
          <ns3:TrackPointExtension>
            <ns3:atemp>18.0</ns3:atemp>
          </ns3:TrackPointExtension>
        </extensions>
      </trkpt>
      <trkpt lat="42.4929977394640445709228515625" lon="20.002479515969753265380859375">
        <ele>1935</ele>
        <time>2026-06-19T08:54:43.000Z</time>
        <extensions>
          <ns3:TrackPointExtension>
            <ns3:atemp>18.0</ns3:atemp>
          </ns3:TrackPointExtension>
        </extensions>
      </trkpt>
      <trkpt lat="42.492987178266048431396484375" lon="20.002528131008148193359375">
        <ele>1935</ele>
        <time>2026-06-19T08:54:44.000Z</time>
        <extensions>
          <ns3:TrackPointExtension>
            <ns3:atemp>18.0</ns3:atemp>
          </ns3:TrackPointExtension>
        </extensions>
      </trkpt>
      <trkpt lat="42.4929739348590373992919921875" lon="20.0025732256472110748291015625">
        <ele>1935.199951171875</ele>
        <time>2026-06-19T08:54:45.000Z</time>
        <extensions>
          <ns3:TrackPointExtension>
            <ns3:atemp>18.0</ns3:atemp>
          </ns3:TrackPointExtension>
        </extensions>
      </trkpt>
      <trkpt lat="42.4929652176797389984130859375" lon="20.00261999666690826416015625">
        <ele>1935.4000244140625</ele>
        <time>2026-06-19T08:54:46.000Z</time>
        <extensions>
          <ns3:TrackPointExtension>
            <ns3:atemp>18.0</ns3:atemp>
          </ns3:TrackPointExtension>
        </extensions>
      </trkpt>
      <trkpt lat="42.49295608140528202056884765625" lon="20.00266492366790771484375">
        <ele>1935.4000244140625</ele>
        <time>2026-06-19T08:54:47.000Z</time>
        <extensions>
          <ns3:TrackPointExtension>
            <ns3:atemp>18.0</ns3:atemp>
          </ns3:TrackPointExtension>
        </extensions>
      </trkpt>
      <trkpt lat="42.492953650653362274169921875" lon="20.00270725227892398834228515625">
        <ele>1935.5999755859375</ele>
        <time>2026-06-19T08:54:48.000Z</time>
        <extensions>
          <ns3:TrackPointExtension>
            <ns3:atemp>18.0</ns3:atemp>
          </ns3:TrackPointExtension>
        </extensions>
      </trkpt>
      <trkpt lat="42.49295876361429691314697265625" lon="20.002743713557720184326171875">
        <ele>1935.800048828125</ele>
        <time>2026-06-19T08:54:49.000Z</time>
        <extensions>
          <ns3:TrackPointExtension>
            <ns3:atemp>18.0</ns3:atemp>
          </ns3:TrackPointExtension>
        </extensions>
      </trkpt>
      <trkpt lat="42.492968402802944183349609375" lon="20.00278185121715068817138671875">
        <ele>1936</ele>
        <time>2026-06-19T08:54:50.000Z</time>
        <extensions>
          <ns3:TrackPointExtension>
            <ns3:atemp>18.0</ns3:atemp>
          </ns3:TrackPointExtension>
        </extensions>
      </trkpt>
      <trkpt lat="42.49298340640962123870849609375" lon="20.0028223358094692230224609375">
        <ele>1936.4000244140625</ele>
        <time>2026-06-19T08:54:51.000Z</time>
        <extensions>
          <ns3:TrackPointExtension>
            <ns3:atemp>18.0</ns3:atemp>
          </ns3:TrackPointExtension>
        </extensions>
      </trkpt>
      <trkpt lat="42.493003942072391510009765625" lon="20.0028598867356777191162109375">
        <ele>1936.4000244140625</ele>
        <time>2026-06-19T08:54:52.000Z</time>
        <extensions>
          <ns3:TrackPointExtension>
            <ns3:atemp>18.0</ns3:atemp>
          </ns3:TrackPointExtension>
        </extensions>
      </trkpt>
      <trkpt lat="42.49302783049643039703369140625" lon="20.00289500690996646881103515625">
        <ele>1936.5999755859375</ele>
        <time>2026-06-19T08:54:53.000Z</time>
        <extensions>
          <ns3:TrackPointExtension>
            <ns3:atemp>18.0</ns3:atemp>
          </ns3:TrackPointExtension>
        </extensions>
      </trkpt>
      <trkpt lat="42.4930480308830738067626953125" lon="20.00292266719043254852294921875">
        <ele>1936.800048828125</ele>
        <time>2026-06-19T08:54:54.000Z</time>
        <extensions>
          <ns3:TrackPointExtension>
            <ns3:atemp>18.0</ns3:atemp>
          </ns3:TrackPointExtension>
        </extensions>
      </trkpt>
      <trkpt lat="42.4930664710700511932373046875" lon="20.00294831581413745880126953125">
        <ele>1937</ele>
        <time>2026-06-19T08:54:55.000Z</time>
        <extensions>
          <ns3:TrackPointExtension>
            <ns3:atemp>18.0</ns3:atemp>
          </ns3:TrackPointExtension>
        </extensions>
      </trkpt>
      <trkpt lat="42.49308482743799686431884765625" lon="20.0029725395143032073974609375">
        <ele>1937.199951171875</ele>
        <time>2026-06-19T08:54:56.000Z</time>
        <extensions>
          <ns3:TrackPointExtension>
            <ns3:atemp>18.0</ns3:atemp>
          </ns3:TrackPointExtension>
        </extensions>
      </trkpt>
      <trkpt lat="42.49310477636754512786865234375" lon="20.00299843959510326385498046875">
        <ele>1937.4000244140625</ele>
        <time>2026-06-19T08:54:57.000Z</time>
        <extensions>
          <ns3:TrackPointExtension>
            <ns3:atemp>18.0</ns3:atemp>
          </ns3:TrackPointExtension>
        </extensions>
      </trkpt>
      <trkpt lat="42.49312723986804485321044921875" lon="20.003023333847522735595703125">
        <ele>1937.5999755859375</ele>
        <time>2026-06-19T08:54:58.000Z</time>
        <extensions>
          <ns3:TrackPointExtension>
            <ns3:atemp>18.0</ns3:atemp>
          </ns3:TrackPointExtension>
        </extensions>
      </trkpt>
      <trkpt lat="42.49314953573048114776611328125" lon="20.0030489824712276458740234375">
        <ele>1937.800048828125</ele>
        <time>2026-06-19T08:54:59.000Z</time>
        <extensions>
          <ns3:TrackPointExtension>
            <ns3:atemp>18.0</ns3:atemp>
          </ns3:TrackPointExtension>
        </extensions>
      </trkpt>
      <trkpt lat="42.49317132867872714996337890625" lon="20.0030778162181377410888671875">
        <ele>1938</ele>
        <time>2026-06-19T08:55:00.000Z</time>
        <extensions>
          <ns3:TrackPointExtension>
            <ns3:atemp>18.0</ns3:atemp>
          </ns3:TrackPointExtension>
        </extensions>
      </trkpt>
      <trkpt lat="42.49319345690310001373291015625" lon="20.003110505640506744384765625">
        <ele>1938.199951171875</ele>
        <time>2026-06-19T08:55:01.000Z</time>
        <extensions>
          <ns3:TrackPointExtension>
            <ns3:atemp>18.0</ns3:atemp>
          </ns3:TrackPointExtension>
        </extensions>
      </trkpt>
      <trkpt lat="42.493219189345836639404296875" lon="20.003147386014461517333984375">
        <ele>1938.199951171875</ele>
        <time>2026-06-19T08:55:02.000Z</time>
        <extensions>
          <ns3:TrackPointExtension>
            <ns3:atemp>18.0</ns3:atemp>
          </ns3:TrackPointExtension>
        </extensions>
      </trkpt>
      <trkpt lat="42.49324743635952472686767578125" lon="20.00318116508424282073974609375">
        <ele>1938.199951171875</ele>
        <time>2026-06-19T08:55:03.000Z</time>
        <extensions>
          <ns3:TrackPointExtension>
            <ns3:atemp>18.0</ns3:atemp>
          </ns3:TrackPointExtension>
        </extensions>
      </trkpt>
      <trkpt lat="42.49328079633414745330810546875" lon="20.003207065165042877197265625">
        <ele>1938.4000244140625</ele>
        <time>2026-06-19T08:55:04.000Z</time>
        <extensions>
          <ns3:TrackPointExtension>
            <ns3:atemp>18.0</ns3:atemp>
          </ns3:TrackPointExtension>
        </extensions>
      </trkpt>
      <trkpt lat="42.49331432394683361053466796875" lon="20.00322994776070117950439453125">
        <ele>1938.4000244140625</ele>
        <time>2026-06-19T08:55:05.000Z</time>
        <extensions>
          <ns3:TrackPointExtension>
            <ns3:atemp>18.0</ns3:atemp>
          </ns3:TrackPointExtension>
        </extensions>
      </trkpt>
      <trkpt lat="42.49334952794015407562255859375" lon="20.00324587337672710418701171875">
        <ele>1938.5999755859375</ele>
        <time>2026-06-19T08:55:06.000Z</time>
        <extensions>
          <ns3:TrackPointExtension>
            <ns3:atemp>18.0</ns3:atemp>
          </ns3:TrackPointExtension>
        </extensions>
      </trkpt>
      <trkpt lat="42.49337970279157161712646484375" lon="20.00325760804116725921630859375">
        <ele>1938.800048828125</ele>
        <time>2026-06-19T08:55:07.000Z</time>
        <extensions>
          <ns3:TrackPointExtension>
            <ns3:atemp>18.0</ns3:atemp>
          </ns3:TrackPointExtension>
        </extensions>
      </trkpt>
      <trkpt lat="42.49340836890041828155517578125" lon="20.00327286310493946075439453125">
        <ele>1939</ele>
        <time>2026-06-19T08:55:08.000Z</time>
        <extensions>
          <ns3:TrackPointExtension>
            <ns3:atemp>18.0</ns3:atemp>
          </ns3:TrackPointExtension>
        </extensions>
      </trkpt>
      <trkpt lat="42.49343745410442352294921875" lon="20.00329566188156604766845703125">
        <ele>1939.199951171875</ele>
        <time>2026-06-19T08:55:09.000Z</time>
        <extensions>
          <ns3:TrackPointExtension>
            <ns3:atemp>18.0</ns3:atemp>
          </ns3:TrackPointExtension>
        </extensions>
      </trkpt>
      <trkpt lat="42.49346402473747730255126953125" lon="20.00331862829625606536865234375">
        <ele>1939.5999755859375</ele>
        <time>2026-06-19T08:55:10.000Z</time>
        <extensions>
          <ns3:TrackPointExtension>
            <ns3:atemp>18.0</ns3:atemp>
          </ns3:TrackPointExtension>
        </extensions>
      </trkpt>
      <trkpt lat="42.49348849989473819732666015625" lon="20.00334109179675579071044921875">
        <ele>1940</ele>
        <time>2026-06-19T08:55:11.000Z</time>
        <extensions>
          <ns3:TrackPointExtension>
            <ns3:atemp>18.0</ns3:atemp>
          </ns3:TrackPointExtension>
        </extensions>
      </trkpt>
      <trkpt lat="42.493512220680713653564453125" lon="20.00336288474500179290771484375">
        <ele>1940.199951171875</ele>
        <time>2026-06-19T08:55:12.000Z</time>
        <extensions>
          <ns3:TrackPointExtension>
            <ns3:atemp>18.0</ns3:atemp>
          </ns3:TrackPointExtension>
        </extensions>
      </trkpt>
      <trkpt lat="42.493534348905086517333984375" lon="20.003388114273548126220703125">
        <ele>1940.5999755859375</ele>
        <time>2026-06-19T08:55:13.000Z</time>
        <extensions>
          <ns3:TrackPointExtension>
            <ns3:atemp>18.0</ns3:atemp>
          </ns3:TrackPointExtension>
        </extensions>
      </trkpt>
      <trkpt lat="42.49355119653046131134033203125" lon="20.00342071987688541412353515625">
        <ele>1941</ele>
        <time>2026-06-19T08:55:14.000Z</time>
        <extensions>
          <ns3:TrackPointExtension>
            <ns3:atemp>18.0</ns3:atemp>
          </ns3:TrackPointExtension>
        </extensions>
      </trkpt>
      <trkpt lat="42.49356754124164581298828125" lon="20.0034593604505062103271484375">
        <ele>1941.199951171875</ele>
        <time>2026-06-19T08:55:15.000Z</time>
        <extensions>
          <ns3:TrackPointExtension>
            <ns3:atemp>18.0</ns3:atemp>
          </ns3:TrackPointExtension>
        </extensions>
      </trkpt>
      <trkpt lat="42.49358422122895717620849609375" lon="20.0034982524812221527099609375">
        <ele>1941.4000244140625</ele>
        <time>2026-06-19T08:55:16.000Z</time>
        <extensions>
          <ns3:TrackPointExtension>
            <ns3:atemp>18.0</ns3:atemp>
          </ns3:TrackPointExtension>
        </extensions>
      </trkpt>
      <trkpt lat="42.493600063025951385498046875" lon="20.00353454612195491790771484375">
        <ele>1941.5999755859375</ele>
        <time>2026-06-19T08:55:17.000Z</time>
        <extensions>
          <ns3:TrackPointExtension>
            <ns3:atemp>18.0</ns3:atemp>
          </ns3:TrackPointExtension>
        </extensions>
      </trkpt>
      <trkpt lat="42.49361716210842132568359375" lon="20.00357008539140224456787109375">
        <ele>1941.800048828125</ele>
        <time>2026-06-19T08:55:18.000Z</time>
        <extensions>
          <ns3:TrackPointExtension>
            <ns3:atemp>18.0</ns3:atemp>
          </ns3:TrackPointExtension>
        </extensions>
      </trkpt>
      <trkpt lat="42.493630908429622650146484375" lon="20.00359992496669292449951171875">
        <ele>1942</ele>
        <time>2026-06-19T08:55:19.000Z</time>
        <extensions>
          <ns3:TrackPointExtension>
            <ns3:atemp>18.0</ns3:atemp>
          </ns3:TrackPointExtension>
        </extensions>
      </trkpt>
      <trkpt lat="42.49364892952144145965576171875" lon="20.00362448394298553466796875">
        <ele>1942.199951171875</ele>
        <time>2026-06-19T08:55:20.000Z</time>
        <extensions>
          <ns3:TrackPointExtension>
            <ns3:atemp>18.0</ns3:atemp>
          </ns3:TrackPointExtension>
        </extensions>
      </trkpt>
      <trkpt lat="42.49366686679422855377197265625" lon="20.00364418141543865203857421875">
        <ele>1942.4000244140625</ele>
        <time>2026-06-19T08:55:21.000Z</time>
        <extensions>
          <ns3:TrackPointExtension>
            <ns3:atemp>18.0</ns3:atemp>
          </ns3:TrackPointExtension>
        </extensions>
      </trkpt>
      <trkpt lat="42.49368488788604736328125" lon="20.0036638788878917694091796875">
        <ele>1942.5999755859375</ele>
        <time>2026-06-19T08:55:22.000Z</time>
        <extensions>
          <ns3:TrackPointExtension>
            <ns3:atemp>18.0</ns3:atemp>
          </ns3:TrackPointExtension>
        </extensions>
      </trkpt>
      <trkpt lat="42.49370274133980274200439453125" lon="20.0036850012838840484619140625">
        <ele>1943</ele>
        <time>2026-06-19T08:55:23.000Z</time>
        <extensions>
          <ns3:TrackPointExtension>
            <ns3:atemp>18.0</ns3:atemp>
          </ns3:TrackPointExtension>
        </extensions>
      </trkpt>
      <trkpt lat="42.49372201971709728240966796875" lon="20.00370201654732227325439453125">
        <ele>1943.199951171875</ele>
        <time>2026-06-19T08:55:24.000Z</time>
        <extensions>
          <ns3:TrackPointExtension>
            <ns3:atemp>18.0</ns3:atemp>
          </ns3:TrackPointExtension>
        </extensions>
      </trkpt>
      <trkpt lat="42.49374146573245525360107421875" lon="20.00371542759239673614501953125">
        <ele>1943.5999755859375</ele>
        <time>2026-06-19T08:55:25.000Z</time>
        <extensions>
          <ns3:TrackPointExtension>
            <ns3:atemp>18.0</ns3:atemp>
          </ns3:TrackPointExtension>
        </extensions>
      </trkpt>
      <trkpt lat="42.49376459978520870208740234375" lon="20.00372909009456634521484375">
        <ele>1943.800048828125</ele>
        <time>2026-06-19T08:55:26.000Z</time>
        <extensions>
          <ns3:TrackPointExtension>
            <ns3:atemp>18.0</ns3:atemp>
          </ns3:TrackPointExtension>
        </extensions>
      </trkpt>
      <trkpt lat="42.49378404580056667327880859375" lon="20.003737471997737884521484375">
        <ele>1944</ele>
        <time>2026-06-19T08:55:27.000Z</time>
        <extensions>
          <ns3:TrackPointExtension>
            <ns3:atemp>18.0</ns3:atemp>
          </ns3:TrackPointExtension>
        </extensions>
      </trkpt>
      <trkpt lat="42.4938000552356243133544921875" lon="20.0037419982254505157470703125">
        <ele>1944.4000244140625</ele>
        <time>2026-06-19T08:55:28.000Z</time>
        <extensions>
          <ns3:TrackPointExtension>
            <ns3:atemp>18.0</ns3:atemp>
          </ns3:TrackPointExtension>
        </extensions>
      </trkpt>
      <trkpt lat="42.49381422065198421478271484375" lon="20.00374459661543369293212890625">
        <ele>1944.800048828125</ele>
        <time>2026-06-19T08:55:29.000Z</time>
        <extensions>
          <ns3:TrackPointExtension>
            <ns3:atemp>18.0</ns3:atemp>
          </ns3:TrackPointExtension>
        </extensions>
      </trkpt>
      <trkpt lat="42.493832074105739593505859375" lon="20.00374929048120975494384765625">
        <ele>1945.199951171875</ele>
        <time>2026-06-19T08:55:30.000Z</time>
        <extensions>
          <ns3:TrackPointExtension>
            <ns3:atemp>18.0</ns3:atemp>
          </ns3:TrackPointExtension>
        </extensions>
      </trkpt>
      <trkpt lat="42.4938493408262729644775390625" lon="20.0037594325840473175048828125">
        <ele>1945.4000244140625</ele>
        <time>2026-06-19T08:55:31.000Z</time>
        <extensions>
          <ns3:TrackPointExtension>
            <ns3:atemp>18.0</ns3:atemp>
          </ns3:TrackPointExtension>
        </extensions>
      </trkpt>
      <trkpt lat="42.4938671104609966278076171875" lon="20.00376856885850429534912109375">
        <ele>1945.800048828125</ele>
        <time>2026-06-19T08:55:32.000Z</time>
        <extensions>
          <ns3:TrackPointExtension>
            <ns3:atemp>18.0</ns3:atemp>
          </ns3:TrackPointExtension>
        </extensions>
      </trkpt>
      <trkpt lat="42.4938848800957202911376953125" lon="20.0037818960845470428466796875">
        <ele>1946</ele>
        <time>2026-06-19T08:55:33.000Z</time>
        <extensions>
          <ns3:TrackPointExtension>
            <ns3:atemp>18.0</ns3:atemp>
          </ns3:TrackPointExtension>
        </extensions>
      </trkpt>
      <trkpt lat="42.4939070083200931549072265625" lon="20.00379153527319431304931640625">
        <ele>1946.4000244140625</ele>
        <time>2026-06-19T08:55:34.000Z</time>
        <extensions>
          <ns3:TrackPointExtension>
            <ns3:atemp>18.0</ns3:atemp>
          </ns3:TrackPointExtension>
        </extensions>
      </trkpt>
      <trkpt lat="42.493927963078022003173828125" lon="20.00380025245249271392822265625">
        <ele>1946.5999755859375</ele>
        <time>2026-06-19T08:55:35.000Z</time>
        <extensions>
          <ns3:TrackPointExtension>
            <ns3:atemp>18.0</ns3:atemp>
          </ns3:TrackPointExtension>
        </extensions>
      </trkpt>
      <trkpt lat="42.4939477443695068359375" lon="20.0038077123463153839111328125">
        <ele>1946.800048828125</ele>
        <time>2026-06-19T08:55:36.000Z</time>
        <extensions>
          <ns3:TrackPointExtension>
            <ns3:atemp>18.0</ns3:atemp>
          </ns3:TrackPointExtension>
        </extensions>
      </trkpt>
      <trkpt lat="42.49396626837551593780517578125" lon="20.0038167648017406463623046875">
        <ele>1947</ele>
        <time>2026-06-19T08:55:37.000Z</time>
        <extensions>
          <ns3:TrackPointExtension>
            <ns3:atemp>18.0</ns3:atemp>
          </ns3:TrackPointExtension>
        </extensions>
      </trkpt>
      <trkpt lat="42.4939839541912078857421875" lon="20.00382439233362674713134765625">
        <ele>1947.4000244140625</ele>
        <time>2026-06-19T08:55:38.000Z</time>
        <extensions>
          <ns3:TrackPointExtension>
            <ns3:atemp>18.0</ns3:atemp>
          </ns3:TrackPointExtension>
        </extensions>
      </trkpt>
      <trkpt lat="42.494001723825931549072265625" lon="20.003834031522274017333984375">
        <ele>1947.5999755859375</ele>
        <time>2026-06-19T08:55:39.000Z</time>
        <extensions>
          <ns3:TrackPointExtension>
            <ns3:atemp>18.0</ns3:atemp>
          </ns3:TrackPointExtension>
        </extensions>
      </trkpt>
      <trkpt lat="42.494017146527767181396484375" lon="20.0038405694067478179931640625">
        <ele>1948</ele>
        <time>2026-06-19T08:55:40.000Z</time>
        <extensions>
          <ns3:TrackPointExtension>
            <ns3:atemp>18.0</ns3:atemp>
          </ns3:TrackPointExtension>
        </extensions>
      </trkpt>
      <trkpt lat="42.4940337426960468292236328125" lon="20.003848113119602203369140625">
        <ele>1948.4000244140625</ele>
        <time>2026-06-19T08:55:41.000Z</time>
        <extensions>
          <ns3:TrackPointExtension>
            <ns3:atemp>18.0</ns3:atemp>
          </ns3:TrackPointExtension>
        </extensions>
      </trkpt>
      <trkpt lat="42.4940518476068973541259765625" lon="20.00385674647986888885498046875">
        <ele>1948.800048828125</ele>
        <time>2026-06-19T08:55:42.000Z</time>
        <extensions>
          <ns3:TrackPointExtension>
            <ns3:atemp>18.0</ns3:atemp>
          </ns3:TrackPointExtension>
        </extensions>
      </trkpt>
      <trkpt lat="42.49406835995614528656005859375" lon="20.003864876925945281982421875">
        <ele>1949.199951171875</ele>
        <time>2026-06-19T08:55:43.000Z</time>
        <extensions>
          <ns3:TrackPointExtension>
            <ns3:atemp>18.0</ns3:atemp>
          </ns3:TrackPointExtension>
        </extensions>
      </trkpt>
      <trkpt lat="42.4940853752195835113525390625" lon="20.003872253000736236572265625">
        <ele>1949.4000244140625</ele>
        <time>2026-06-19T08:55:44.000Z</time>
        <extensions>
          <ns3:TrackPointExtension>
            <ns3:atemp>18.0</ns3:atemp>
          </ns3:TrackPointExtension>
        </extensions>
      </trkpt>
      <trkpt lat="42.4941041506826877593994140625" lon="20.0038814730942249298095703125">
        <ele>1949.5999755859375</ele>
        <time>2026-06-19T08:55:45.000Z</time>
        <extensions>
          <ns3:TrackPointExtension>
            <ns3:atemp>18.0</ns3:atemp>
          </ns3:TrackPointExtension>
        </extensions>
      </trkpt>
      <trkpt lat="42.49412317760288715362548828125" lon="20.00388742424547672271728515625">
        <ele>1950</ele>
        <time>2026-06-19T08:55:46.000Z</time>
        <extensions>
          <ns3:TrackPointExtension>
            <ns3:atemp>18.0</ns3:atemp>
          </ns3:TrackPointExtension>
        </extensions>
      </trkpt>
      <trkpt lat="42.4941393546760082244873046875" lon="20.0038915313780307769775390625">
        <ele>1950.199951171875</ele>
        <time>2026-06-19T08:55:47.000Z</time>
        <extensions>
          <ns3:TrackPointExtension>
            <ns3:atemp>18.0</ns3:atemp>
          </ns3:TrackPointExtension>
        </extensions>
      </trkpt>
      <trkpt lat="42.4941571243107318878173828125" lon="20.00389647670090198516845703125">
        <ele>1950.4000244140625</ele>
        <time>2026-06-19T08:55:48.000Z</time>
        <extensions>
          <ns3:TrackPointExtension>
            <ns3:atemp>18.0</ns3:atemp>
          </ns3:TrackPointExtension>
        </extensions>
      </trkpt>
      <trkpt lat="42.49417506158351898193359375" lon="20.00390267930924892425537109375">
        <ele>1950.800048828125</ele>
        <time>2026-06-19T08:55:49.000Z</time>
        <extensions>
          <ns3:TrackPointExtension>
            <ns3:atemp>18.0</ns3:atemp>
          </ns3:TrackPointExtension>
        </extensions>
      </trkpt>
      <trkpt lat="42.49418872408568859100341796875" lon="20.00390938483178615570068359375">
        <ele>1951</ele>
        <time>2026-06-19T08:55:50.000Z</time>
        <extensions>
          <ns3:TrackPointExtension>
            <ns3:atemp>18.0</ns3:atemp>
          </ns3:TrackPointExtension>
        </extensions>
      </trkpt>
      <trkpt lat="42.49420079402625560760498046875" lon="20.00391256995499134063720703125">
        <ele>1951.4000244140625</ele>
        <time>2026-06-19T08:55:51.000Z</time>
        <extensions>
          <ns3:TrackPointExtension>
            <ns3:atemp>18.0</ns3:atemp>
          </ns3:TrackPointExtension>
        </extensions>
      </trkpt>
      <trkpt lat="42.4942181445658206939697265625" lon="20.0039193592965602874755859375">
        <ele>1951.800048828125</ele>
        <time>2026-06-19T08:55:52.000Z</time>
        <extensions>
          <ns3:TrackPointExtension>
            <ns3:atemp>18.0</ns3:atemp>
          </ns3:TrackPointExtension>
        </extensions>
      </trkpt>
      <trkpt lat="42.49423432163894176483154296875" lon="20.00393017195165157318115234375">
        <ele>1952</ele>
        <time>2026-06-19T08:55:53.000Z</time>
        <extensions>
          <ns3:TrackPointExtension>
            <ns3:atemp>18.0</ns3:atemp>
          </ns3:TrackPointExtension>
        </extensions>
      </trkpt>
      <trkpt lat="42.4942530132830142974853515625" lon="20.00393805094063282012939453125">
        <ele>1952.4000244140625</ele>
        <time>2026-06-19T08:55:54.000Z</time>
        <extensions>
          <ns3:TrackPointExtension>
            <ns3:atemp>18.0</ns3:atemp>
          </ns3:TrackPointExtension>
        </extensions>
      </trkpt>
      <trkpt lat="42.4942724592983722686767578125" lon="20.0039475224912166595458984375">
        <ele>1952.5999755859375</ele>
        <time>2026-06-19T08:55:55.000Z</time>
        <extensions>
          <ns3:TrackPointExtension>
            <ns3:atemp>18.0</ns3:atemp>
          </ns3:TrackPointExtension>
        </extensions>
      </trkpt>
      <trkpt lat="42.49429081566631793975830078125" lon="20.0039662979543209075927734375">
        <ele>1952.800048828125</ele>
        <time>2026-06-19T08:55:56.000Z</time>
        <extensions>
          <ns3:TrackPointExtension>
            <ns3:atemp>18.0</ns3:atemp>
          </ns3:TrackPointExtension>
        </extensions>
      </trkpt>
      <trkpt lat="42.494304813444614410400390625" lon="20.00398926436901092529296875">
        <ele>1953</ele>
        <time>2026-06-19T08:55:57.000Z</time>
        <extensions>
          <ns3:TrackPointExtension>
            <ns3:atemp>18.0</ns3:atemp>
          </ns3:TrackPointExtension>
        </extensions>
      </trkpt>
      <trkpt lat="42.49431788921356201171875" lon="20.004011057317256927490234375">
        <ele>1953.4000244140625</ele>
        <time>2026-06-19T08:55:58.000Z</time>
        <extensions>
          <ns3:TrackPointExtension>
            <ns3:atemp>18.0</ns3:atemp>
          </ns3:TrackPointExtension>
        </extensions>
      </trkpt>
      <trkpt lat="42.4943307973444461822509765625" lon="20.00403746031224727630615234375">
        <ele>1953.5999755859375</ele>
        <time>2026-06-19T08:55:59.000Z</time>
        <extensions>
          <ns3:TrackPointExtension>
            <ns3:atemp>18.0</ns3:atemp>
          </ns3:TrackPointExtension>
        </extensions>
      </trkpt>
      <trkpt lat="42.49434412457048892974853515625" lon="20.0040648691356182098388671875">
        <ele>1953.800048828125</ele>
        <time>2026-06-19T08:56:00.000Z</time>
        <extensions>
          <ns3:TrackPointExtension>
            <ns3:atemp>18.0</ns3:atemp>
          </ns3:TrackPointExtension>
        </extensions>
      </trkpt>
      <trkpt lat="42.4943514168262481689453125" lon="20.0040967203676700592041015625">
        <ele>1954</ele>
        <time>2026-06-19T08:56:01.000Z</time>
        <extensions>
          <ns3:TrackPointExtension>
            <ns3:atemp>18.0</ns3:atemp>
          </ns3:TrackPointExtension>
        </extensions>
      </trkpt>
      <trkpt lat="42.49436080455780029296875" lon="20.004129074513912200927734375">
        <ele>1954</ele>
        <time>2026-06-19T08:56:02.000Z</time>
        <extensions>
          <ns3:TrackPointExtension>
            <ns3:atemp>18.0</ns3:atemp>
          </ns3:TrackPointExtension>
        </extensions>
      </trkpt>
      <trkpt lat="42.49436876736581325531005859375" lon="20.00416092574596405029296875">
        <ele>1954.199951171875</ele>
        <time>2026-06-19T08:56:03.000Z</time>
        <extensions>
          <ns3:TrackPointExtension>
            <ns3:atemp>18.0</ns3:atemp>
          </ns3:TrackPointExtension>
        </extensions>
      </trkpt>
      <trkpt lat="42.49437882564961910247802734375" lon="20.0041929446160793304443359375">
        <ele>1954.4000244140625</ele>
        <time>2026-06-19T08:56:04.000Z</time>
        <extensions>
          <ns3:TrackPointExtension>
            <ns3:atemp>18.0</ns3:atemp>
          </ns3:TrackPointExtension>
        </extensions>
      </trkpt>
      <trkpt lat="42.494387961924076080322265625" lon="20.0042261369526386260986328125">
        <ele>1954.5999755859375</ele>
        <time>2026-06-19T08:56:05.000Z</time>
        <extensions>
          <ns3:TrackPointExtension>
            <ns3:atemp>18.0</ns3:atemp>
          </ns3:TrackPointExtension>
        </extensions>
      </trkpt>
      <trkpt lat="42.49439575709402561187744140625" lon="20.00425958074629306793212890625">
        <ele>1954.5999755859375</ele>
        <time>2026-06-19T08:56:06.000Z</time>
        <extensions>
          <ns3:TrackPointExtension>
            <ns3:atemp>18.0</ns3:atemp>
          </ns3:TrackPointExtension>
        </extensions>
      </trkpt>
      <trkpt lat="42.49440439045429229736328125" lon="20.00429562292993068695068359375">
        <ele>1954.800048828125</ele>
        <time>2026-06-19T08:56:07.000Z</time>
        <extensions>
          <ns3:TrackPointExtension>
            <ns3:atemp>18.0</ns3:atemp>
          </ns3:TrackPointExtension>
        </extensions>
      </trkpt>
      <trkpt lat="42.49441377818584442138671875" lon="20.00432965345680713653564453125">
        <ele>1955</ele>
        <time>2026-06-19T08:56:08.000Z</time>
        <extensions>
          <ns3:TrackPointExtension>
            <ns3:atemp>18.0</ns3:atemp>
          </ns3:TrackPointExtension>
        </extensions>
      </trkpt>
      <trkpt lat="42.4944256804883480072021484375" lon="20.0043575651943683624267578125">
        <ele>1955.199951171875</ele>
        <time>2026-06-19T08:56:09.000Z</time>
        <extensions>
          <ns3:TrackPointExtension>
            <ns3:atemp>18.0</ns3:atemp>
          </ns3:TrackPointExtension>
        </extensions>
      </trkpt>
      <trkpt lat="42.49443548731505870819091796875" lon="20.00438648276031017303466796875">
        <ele>1955.4000244140625</ele>
        <time>2026-06-19T08:56:10.000Z</time>
        <extensions>
          <ns3:TrackPointExtension>
            <ns3:atemp>18.0</ns3:atemp>
          </ns3:TrackPointExtension>
        </extensions>
      </trkpt>
      <trkpt lat="42.49444219283759593963623046875" lon="20.00441464595496654510498046875">
        <ele>1955.5999755859375</ele>
        <time>2026-06-19T08:56:11.000Z</time>
        <extensions>
          <ns3:TrackPointExtension>
            <ns3:atemp>18.0</ns3:atemp>
          </ns3:TrackPointExtension>
        </extensions>
      </trkpt>
      <trkpt lat="42.494453676044940948486328125" lon="20.00444280914962291717529296875">
        <ele>1955.800048828125</ele>
        <time>2026-06-19T08:56:12.000Z</time>
        <extensions>
          <ns3:TrackPointExtension>
            <ns3:atemp>18.0</ns3:atemp>
          </ns3:TrackPointExtension>
        </extensions>
      </trkpt>
      <trkpt lat="42.494461052119731903076171875" lon="20.004475079476833343505859375">
        <ele>1956</ele>
        <time>2026-06-19T08:56:13.000Z</time>
        <extensions>
          <ns3:TrackPointExtension>
            <ns3:atemp>18.0</ns3:atemp>
          </ns3:TrackPointExtension>
        </extensions>
      </trkpt>
      <trkpt lat="42.494471780955791473388671875" lon="20.004505254328250885009765625">
        <ele>1956.199951171875</ele>
        <time>2026-06-19T08:56:14.000Z</time>
        <extensions>
          <ns3:TrackPointExtension>
            <ns3:atemp>18.0</ns3:atemp>
          </ns3:TrackPointExtension>
        </extensions>
      </trkpt>
      <trkpt lat="42.49448611401021480560302734375" lon="20.00453568063676357269287109375">
        <ele>1956.4000244140625</ele>
        <time>2026-06-19T08:56:15.000Z</time>
        <extensions>
          <ns3:TrackPointExtension>
            <ns3:atemp>18.0</ns3:atemp>
          </ns3:TrackPointExtension>
        </extensions>
      </trkpt>
      <trkpt lat="42.49449918977916240692138671875" lon="20.004566609859466552734375">
        <ele>1956.5999755859375</ele>
        <time>2026-06-19T08:56:16.000Z</time>
        <extensions>
          <ns3:TrackPointExtension>
            <ns3:atemp>18.0</ns3:atemp>
          </ns3:TrackPointExtension>
        </extensions>
      </trkpt>
      <trkpt lat="42.4945078231394290924072265625" lon="20.0046001374721527099609375">
        <ele>1956.800048828125</ele>
        <time>2026-06-19T08:56:17.000Z</time>
        <extensions>
          <ns3:TrackPointExtension>
            <ns3:atemp>18.0</ns3:atemp>
          </ns3:TrackPointExtension>
        </extensions>
      </trkpt>
      <trkpt lat="42.4945192225277423858642578125" lon="20.00463006086647510528564453125">
        <ele>1957</ele>
        <time>2026-06-19T08:56:18.000Z</time>
        <extensions>
          <ns3:TrackPointExtension>
            <ns3:atemp>18.0</ns3:atemp>
          </ns3:TrackPointExtension>
        </extensions>
      </trkpt>
      <trkpt lat="42.4945284426212310791015625" lon="20.00466342084109783172607421875">
        <ele>1957.199951171875</ele>
        <time>2026-06-19T08:56:19.000Z</time>
        <extensions>
          <ns3:TrackPointExtension>
            <ns3:atemp>18.0</ns3:atemp>
          </ns3:TrackPointExtension>
        </extensions>
      </trkpt>
      <trkpt lat="42.49453875236213207244873046875" lon="20.00469678081572055816650390625">
        <ele>1957.4000244140625</ele>
        <time>2026-06-19T08:56:20.000Z</time>
        <extensions>
          <ns3:TrackPointExtension>
            <ns3:atemp>18.0</ns3:atemp>
          </ns3:TrackPointExtension>
        </extensions>
      </trkpt>
      <trkpt lat="42.49455015175044536590576171875" lon="20.00472846440970897674560546875">
        <ele>1957.5999755859375</ele>
        <time>2026-06-19T08:56:21.000Z</time>
        <extensions>
          <ns3:TrackPointExtension>
            <ns3:atemp>18.0</ns3:atemp>
          </ns3:TrackPointExtension>
        </extensions>
      </trkpt>
      <trkpt lat="42.4945607967674732208251953125" lon="20.00475796870887279510498046875">
        <ele>1957.5999755859375</ele>
        <time>2026-06-19T08:56:22.000Z</time>
        <extensions>
          <ns3:TrackPointExtension>
            <ns3:atemp>18.0</ns3:atemp>
          </ns3:TrackPointExtension>
        </extensions>
      </trkpt>
      <trkpt lat="42.4945705197751522064208984375" lon="20.004786550998687744140625">
        <ele>1957.800048828125</ele>
        <time>2026-06-19T08:56:23.000Z</time>
        <extensions>
          <ns3:TrackPointExtension>
            <ns3:atemp>18.0</ns3:atemp>
          </ns3:TrackPointExtension>
        </extensions>
      </trkpt>
      <trkpt lat="42.4945802427828311920166015625" lon="20.00481496565043926239013671875">
        <ele>1958</ele>
        <time>2026-06-19T08:56:24.000Z</time>
        <extensions>
          <ns3:TrackPointExtension>
            <ns3:atemp>18.0</ns3:atemp>
          </ns3:TrackPointExtension>
        </extensions>
      </trkpt>
      <trkpt lat="42.494588457047939300537109375" lon="20.0048453919589519500732421875">
        <ele>1958.199951171875</ele>
        <time>2026-06-19T08:56:25.000Z</time>
        <extensions>
          <ns3:TrackPointExtension>
            <ns3:atemp>18.0</ns3:atemp>
          </ns3:TrackPointExtension>
        </extensions>
      </trkpt>
      <trkpt lat="42.4946003593504428863525390625" lon="20.00487296842038631439208984375">
        <ele>1958.5999755859375</ele>
        <time>2026-06-19T08:56:26.000Z</time>
        <extensions>
          <ns3:TrackPointExtension>
            <ns3:atemp>18.0</ns3:atemp>
          </ns3:TrackPointExtension>
        </extensions>
      </trkpt>
      <trkpt lat="42.4946124292910099029541015625" lon="20.0049027241766452789306640625">
        <ele>1958.800048828125</ele>
        <time>2026-06-19T08:56:27.000Z</time>
        <extensions>
          <ns3:TrackPointExtension>
            <ns3:atemp>18.0</ns3:atemp>
          </ns3:TrackPointExtension>
        </extensions>
      </trkpt>
      <trkpt lat="42.494623325765132904052734375" lon="20.00492929480969905853271484375">
        <ele>1959</ele>
        <time>2026-06-19T08:56:28.000Z</time>
        <extensions>
          <ns3:TrackPointExtension>
            <ns3:atemp>18.0</ns3:atemp>
          </ns3:TrackPointExtension>
        </extensions>
      </trkpt>
      <trkpt lat="42.49463648535311222076416015625" lon="20.00495259650051593780517578125">
        <ele>1959.199951171875</ele>
        <time>2026-06-19T08:56:29.000Z</time>
        <extensions>
          <ns3:TrackPointExtension>
            <ns3:atemp>18.0</ns3:atemp>
          </ns3:TrackPointExtension>
        </extensions>
      </trkpt>
      <trkpt lat="42.4946469627320766448974609375" lon="20.00497589819133281707763671875">
        <ele>1959.4000244140625</ele>
        <time>2026-06-19T08:56:30.000Z</time>
        <extensions>
          <ns3:TrackPointExtension>
            <ns3:atemp>18.0</ns3:atemp>
          </ns3:TrackPointExtension>
        </extensions>
      </trkpt>
      <trkpt lat="42.494656853377819061279296875" lon="20.0049996189773082733154296875">
        <ele>1959.5999755859375</ele>
        <time>2026-06-19T08:56:31.000Z</time>
        <extensions>
          <ns3:TrackPointExtension>
            <ns3:atemp>18.0</ns3:atemp>
          </ns3:TrackPointExtension>
        </extensions>
      </trkpt>
      <trkpt lat="42.4946657381951808929443359375" lon="20.005022920668125152587890625">
        <ele>1959.5999755859375</ele>
        <time>2026-06-19T08:56:32.000Z</time>
        <extensions>
          <ns3:TrackPointExtension>
            <ns3:atemp>18.0</ns3:atemp>
          </ns3:TrackPointExtension>
        </extensions>
      </trkpt>
      <trkpt lat="42.49467235989868640899658203125" lon="20.00504605472087860107421875">
        <ele>1959.800048828125</ele>
        <time>2026-06-19T08:56:33.000Z</time>
        <extensions>
          <ns3:TrackPointExtension>
            <ns3:atemp>18.0</ns3:atemp>
          </ns3:TrackPointExtension>
        </extensions>
      </trkpt>
      <trkpt lat="42.49468266963958740234375" lon="20.00506726093590259552001953125">
        <ele>1960</ele>
        <time>2026-06-19T08:56:34.000Z</time>
        <extensions>
          <ns3:TrackPointExtension>
            <ns3:atemp>18.0</ns3:atemp>
          </ns3:TrackPointExtension>
        </extensions>
      </trkpt>
      <trkpt lat="42.49469465576112270355224609375" lon="20.005087293684482574462890625">
        <ele>1960</ele>
        <time>2026-06-19T08:56:35.000Z</time>
        <extensions>
          <ns3:TrackPointExtension>
            <ns3:atemp>18.0</ns3:atemp>
          </ns3:TrackPointExtension>
        </extensions>
      </trkpt>
      <trkpt lat="42.49470052309334278106689453125" lon="20.00510347075760364532470703125">
        <ele>1960.199951171875</ele>
        <time>2026-06-19T08:56:36.000Z</time>
        <extensions>
          <ns3:TrackPointExtension>
            <ns3:atemp>18.0</ns3:atemp>
          </ns3:TrackPointExtension>
        </extensions>
      </trkpt>
      <trkpt lat="42.494706474244594573974609375" lon="20.00511855818331241607666015625">
        <ele>1960.4000244140625</ele>
        <time>2026-06-19T08:56:37.000Z</time>
        <extensions>
          <ns3:TrackPointExtension>
            <ns3:atemp>18.0</ns3:atemp>
          </ns3:TrackPointExtension>
        </extensions>
      </trkpt>
      <trkpt lat="42.49471343122422695159912109375" lon="20.00513398088514804840087890625">
        <ele>1960.5999755859375</ele>
        <time>2026-06-19T08:56:38.000Z</time>
        <extensions>
          <ns3:TrackPointExtension>
            <ns3:atemp>18.0</ns3:atemp>
          </ns3:TrackPointExtension>
        </extensions>
      </trkpt>
      <trkpt lat="42.4947146885097026824951171875" lon="20.005149655044078826904296875">
        <ele>1960.800048828125</ele>
        <time>2026-06-19T08:56:39.000Z</time>
        <extensions>
          <ns3:TrackPointExtension>
            <ns3:atemp>18.0</ns3:atemp>
          </ns3:TrackPointExtension>
        </extensions>
      </trkpt>
      <trkpt lat="42.49471292831003665924072265625" lon="20.00515057705342769622802734375">
        <ele>1960.800048828125</ele>
        <time>2026-06-19T08:56:40.000Z</time>
        <extensions>
          <ns3:TrackPointExtension>
            <ns3:atemp>18.0</ns3:atemp>
          </ns3:TrackPointExtension>
        </extensions>
      </trkpt>
      <trkpt lat="42.49471141956746578216552734375" lon="20.0051518343389034271240234375">
        <ele>1961.199951171875</ele>
        <time>2026-06-19T08:56:41.000Z</time>
        <extensions>
          <ns3:TrackPointExtension>
            <ns3:atemp>18.0</ns3:atemp>
          </ns3:TrackPointExtension>
        </extensions>
      </trkpt>
      <trkpt lat="42.49471141956746578216552734375" lon="20.00515200197696685791015625">
        <ele>1961.4000244140625</ele>
        <time>2026-06-19T08:56:42.000Z</time>
        <extensions>
          <ns3:TrackPointExtension>
            <ns3:atemp>18.0</ns3:atemp>
          </ns3:TrackPointExtension>
        </extensions>
      </trkpt>
      <trkpt lat="42.49471150338649749755859375" lon="20.00515208579599857330322265625">
        <ele>1961.4000244140625</ele>
        <time>2026-06-19T08:56:43.000Z</time>
        <extensions>
          <ns3:TrackPointExtension>
            <ns3:atemp>18.0</ns3:atemp>
          </ns3:TrackPointExtension>
        </extensions>
      </trkpt>
      <trkpt lat="42.494706809520721435546875" lon="20.00516214407980442047119140625">
        <ele>1961.4000244140625</ele>
        <time>2026-06-19T08:56:44.000Z</time>
        <extensions>
          <ns3:TrackPointExtension>
            <ns3:atemp>18.0</ns3:atemp>
          </ns3:TrackPointExtension>
        </extensions>
      </trkpt>
      <trkpt lat="42.4947036243975162506103515625" lon="20.0051699392497539520263671875">
        <ele>1961.5999755859375</ele>
        <time>2026-06-19T08:56:45.000Z</time>
        <extensions>
          <ns3:TrackPointExtension>
            <ns3:atemp>18.0</ns3:atemp>
          </ns3:TrackPointExtension>
        </extensions>
      </trkpt>
      <trkpt lat="42.4947012774646282196044921875" lon="20.00517203472554683685302734375">
        <ele>1961.4000244140625</ele>
        <time>2026-06-19T08:56:46.000Z</time>
        <extensions>
          <ns3:TrackPointExtension>
            <ns3:atemp>18.0</ns3:atemp>
          </ns3:TrackPointExtension>
        </extensions>
      </trkpt>
      <trkpt lat="42.4947012774646282196044921875" lon="20.00517203472554683685302734375">
        <ele>1961.4000244140625</ele>
        <time>2026-06-19T08:56:47.000Z</time>
        <extensions>
          <ns3:TrackPointExtension>
            <ns3:atemp>18.0</ns3:atemp>
          </ns3:TrackPointExtension>
        </extensions>
      </trkpt>
      <trkpt lat="42.4947012774646282196044921875" lon="20.00517203472554683685302734375">
        <ele>1961.4000244140625</ele>
        <time>2026-06-19T08:56:48.000Z</time>
        <extensions>
          <ns3:TrackPointExtension>
            <ns3:atemp>18.0</ns3:atemp>
          </ns3:TrackPointExtension>
        </extensions>
      </trkpt>
      <trkpt lat="42.4947012774646282196044921875" lon="20.00517203472554683685302734375">
        <ele>1961.4000244140625</ele>
        <time>2026-06-19T08:56:49.000Z</time>
        <extensions>
          <ns3:TrackPointExtension>
            <ns3:atemp>18.0</ns3:atemp>
          </ns3:TrackPointExtension>
        </extensions>
      </trkpt>
      <trkpt lat="42.4947012774646282196044921875" lon="20.00517203472554683685302734375">
        <ele>1961.4000244140625</ele>
        <time>2026-06-19T08:56:50.000Z</time>
        <extensions>
          <ns3:TrackPointExtension>
            <ns3:atemp>18.0</ns3:atemp>
          </ns3:TrackPointExtension>
        </extensions>
      </trkpt>
      <trkpt lat="42.4947012774646282196044921875" lon="20.00517203472554683685302734375">
        <ele>1961.4000244140625</ele>
        <time>2026-06-19T08:56:51.000Z</time>
        <extensions>
          <ns3:TrackPointExtension>
            <ns3:atemp>18.0</ns3:atemp>
          </ns3:TrackPointExtension>
        </extensions>
      </trkpt>
      <trkpt lat="42.4947012774646282196044921875" lon="20.00517203472554683685302734375">
        <ele>1961.4000244140625</ele>
        <time>2026-06-19T08:56:52.000Z</time>
        <extensions>
          <ns3:TrackPointExtension>
            <ns3:atemp>18.0</ns3:atemp>
          </ns3:TrackPointExtension>
        </extensions>
      </trkpt>
      <trkpt lat="42.4947012774646282196044921875" lon="20.00517203472554683685302734375">
        <ele>1961.4000244140625</ele>
        <time>2026-06-19T08:56:53.000Z</time>
        <extensions>
          <ns3:TrackPointExtension>
            <ns3:atemp>18.0</ns3:atemp>
          </ns3:TrackPointExtension>
        </extensions>
      </trkpt>
      <trkpt lat="42.4947012774646282196044921875" lon="20.00517203472554683685302734375">
        <ele>1961.4000244140625</ele>
        <time>2026-06-19T08:56:54.000Z</time>
        <extensions>
          <ns3:TrackPointExtension>
            <ns3:atemp>18.0</ns3:atemp>
          </ns3:TrackPointExtension>
        </extensions>
      </trkpt>
      <trkpt lat="42.4947012774646282196044921875" lon="20.00517203472554683685302734375">
        <ele>1961.5999755859375</ele>
        <time>2026-06-19T08:56:55.000Z</time>
        <extensions>
          <ns3:TrackPointExtension>
            <ns3:atemp>18.0</ns3:atemp>
          </ns3:TrackPointExtension>
        </extensions>
      </trkpt>
      <trkpt lat="42.4947012774646282196044921875" lon="20.00517203472554683685302734375">
        <ele>1961.5999755859375</ele>
        <time>2026-06-19T08:56:56.000Z</time>
        <extensions>
          <ns3:TrackPointExtension>
            <ns3:atemp>18.0</ns3:atemp>
          </ns3:TrackPointExtension>
        </extensions>
      </trkpt>
      <trkpt lat="42.4947012774646282196044921875" lon="20.00517203472554683685302734375">
        <ele>1961.5999755859375</ele>
        <time>2026-06-19T08:56:57.000Z</time>
        <extensions>
          <ns3:TrackPointExtension>
            <ns3:atemp>18.0</ns3:atemp>
          </ns3:TrackPointExtension>
        </extensions>
      </trkpt>
      <trkpt lat="42.4947012774646282196044921875" lon="20.00517203472554683685302734375">
        <ele>1961.4000244140625</ele>
        <time>2026-06-19T08:56:58.000Z</time>
        <extensions>
          <ns3:TrackPointExtension>
            <ns3:atemp>18.0</ns3:atemp>
          </ns3:TrackPointExtension>
        </extensions>
      </trkpt>
      <trkpt lat="42.4947012774646282196044921875" lon="20.00517203472554683685302734375">
        <ele>1961.4000244140625</ele>
        <time>2026-06-19T08:56:59.000Z</time>
        <extensions>
          <ns3:TrackPointExtension>
            <ns3:atemp>18.0</ns3:atemp>
          </ns3:TrackPointExtension>
        </extensions>
      </trkpt>
      <trkpt lat="42.4947012774646282196044921875" lon="20.00517203472554683685302734375">
        <ele>1961.4000244140625</ele>
        <time>2026-06-19T08:57:00.000Z</time>
        <extensions>
          <ns3:TrackPointExtension>
            <ns3:atemp>18.0</ns3:atemp>
          </ns3:TrackPointExtension>
        </extensions>
      </trkpt>
      <trkpt lat="42.4947012774646282196044921875" lon="20.00517203472554683685302734375">
        <ele>1961.4000244140625</ele>
        <time>2026-06-19T08:57:01.000Z</time>
        <extensions>
          <ns3:TrackPointExtension>
            <ns3:atemp>18.0</ns3:atemp>
          </ns3:TrackPointExtension>
        </extensions>
      </trkpt>
      <trkpt lat="42.4947012774646282196044921875" lon="20.00517203472554683685302734375">
        <ele>1961.4000244140625</ele>
        <time>2026-06-19T08:57:02.000Z</time>
        <extensions>
          <ns3:TrackPointExtension>
            <ns3:atemp>18.0</ns3:atemp>
          </ns3:TrackPointExtension>
        </extensions>
      </trkpt>
      <trkpt lat="42.4947012774646282196044921875" lon="20.00517203472554683685302734375">
        <ele>1961.4000244140625</ele>
        <time>2026-06-19T08:57:03.000Z</time>
        <extensions>
          <ns3:TrackPointExtension>
            <ns3:atemp>18.0</ns3:atemp>
          </ns3:TrackPointExtension>
        </extensions>
      </trkpt>
      <trkpt lat="42.4947012774646282196044921875" lon="20.00517203472554683685302734375">
        <ele>1961.4000244140625</ele>
        <time>2026-06-19T08:57:04.000Z</time>
        <extensions>
          <ns3:TrackPointExtension>
            <ns3:atemp>18.0</ns3:atemp>
          </ns3:TrackPointExtension>
        </extensions>
      </trkpt>
      <trkpt lat="42.4947012774646282196044921875" lon="20.00517203472554683685302734375">
        <ele>1961.4000244140625</ele>
        <time>2026-06-19T08:57:05.000Z</time>
        <extensions>
          <ns3:TrackPointExtension>
            <ns3:atemp>18.0</ns3:atemp>
          </ns3:TrackPointExtension>
        </extensions>
      </trkpt>
      <trkpt lat="42.4947012774646282196044921875" lon="20.00517203472554683685302734375">
        <ele>1961.4000244140625</ele>
        <time>2026-06-19T08:57:06.000Z</time>
        <extensions>
          <ns3:TrackPointExtension>
            <ns3:atemp>18.0</ns3:atemp>
          </ns3:TrackPointExtension>
        </extensions>
      </trkpt>
      <trkpt lat="42.4947012774646282196044921875" lon="20.00517203472554683685302734375">
        <ele>1961.4000244140625</ele>
        <time>2026-06-19T08:57:07.000Z</time>
        <extensions>
          <ns3:TrackPointExtension>
            <ns3:atemp>18.0</ns3:atemp>
          </ns3:TrackPointExtension>
        </extensions>
      </trkpt>
      <trkpt lat="42.4947012774646282196044921875" lon="20.00517203472554683685302734375">
        <ele>1961.4000244140625</ele>
        <time>2026-06-19T08:57:08.000Z</time>
        <extensions>
          <ns3:TrackPointExtension>
            <ns3:atemp>18.0</ns3:atemp>
          </ns3:TrackPointExtension>
        </extensions>
      </trkpt>
      <trkpt lat="42.4947012774646282196044921875" lon="20.00517203472554683685302734375">
        <ele>1961.5999755859375</ele>
        <time>2026-06-19T08:57:09.000Z</time>
        <extensions>
          <ns3:TrackPointExtension>
            <ns3:atemp>18.0</ns3:atemp>
          </ns3:TrackPointExtension>
        </extensions>
      </trkpt>
      <trkpt lat="42.4947012774646282196044921875" lon="20.00517203472554683685302734375">
        <ele>1961.5999755859375</ele>
        <time>2026-06-19T08:57:10.000Z</time>
        <extensions>
          <ns3:TrackPointExtension>
            <ns3:atemp>18.0</ns3:atemp>
          </ns3:TrackPointExtension>
        </extensions>
      </trkpt>
      <trkpt lat="42.4947012774646282196044921875" lon="20.00517203472554683685302734375">
        <ele>1961.5999755859375</ele>
        <time>2026-06-19T08:57:11.000Z</time>
        <extensions>
          <ns3:TrackPointExtension>
            <ns3:atemp>18.0</ns3:atemp>
          </ns3:TrackPointExtension>
        </extensions>
      </trkpt>
      <trkpt lat="42.4947012774646282196044921875" lon="20.00517203472554683685302734375">
        <ele>1961.800048828125</ele>
        <time>2026-06-19T08:57:12.000Z</time>
        <extensions>
          <ns3:TrackPointExtension>
            <ns3:atemp>18.0</ns3:atemp>
          </ns3:TrackPointExtension>
        </extensions>
      </trkpt>
      <trkpt lat="42.4947012774646282196044921875" lon="20.00517203472554683685302734375">
        <ele>1961.800048828125</ele>
        <time>2026-06-19T08:57:13.000Z</time>
        <extensions>
          <ns3:TrackPointExtension>
            <ns3:atemp>18.0</ns3:atemp>
          </ns3:TrackPointExtension>
        </extensions>
      </trkpt>
      <trkpt lat="42.4947012774646282196044921875" lon="20.00517203472554683685302734375">
        <ele>1961.800048828125</ele>
        <time>2026-06-19T08:57:14.000Z</time>
        <extensions>
          <ns3:TrackPointExtension>
            <ns3:atemp>18.0</ns3:atemp>
          </ns3:TrackPointExtension>
        </extensions>
      </trkpt>
      <trkpt lat="42.4947012774646282196044921875" lon="20.00517203472554683685302734375">
        <ele>1961.5999755859375</ele>
        <time>2026-06-19T08:57:15.000Z</time>
        <extensions>
          <ns3:TrackPointExtension>
            <ns3:atemp>18.0</ns3:atemp>
          </ns3:TrackPointExtension>
        </extensions>
      </trkpt>
      <trkpt lat="42.4947012774646282196044921875" lon="20.00517203472554683685302734375">
        <ele>1961.5999755859375</ele>
        <time>2026-06-19T08:57:16.000Z</time>
        <extensions>
          <ns3:TrackPointExtension>
            <ns3:atemp>18.0</ns3:atemp>
          </ns3:TrackPointExtension>
        </extensions>
      </trkpt>
      <trkpt lat="42.4947012774646282196044921875" lon="20.00517203472554683685302734375">
        <ele>1961.5999755859375</ele>
        <time>2026-06-19T08:57:17.000Z</time>
        <extensions>
          <ns3:TrackPointExtension>
            <ns3:atemp>18.0</ns3:atemp>
          </ns3:TrackPointExtension>
        </extensions>
      </trkpt>
      <trkpt lat="42.4947012774646282196044921875" lon="20.00517203472554683685302734375">
        <ele>1961.5999755859375</ele>
        <time>2026-06-19T08:57:18.000Z</time>
        <extensions>
          <ns3:TrackPointExtension>
            <ns3:atemp>18.0</ns3:atemp>
          </ns3:TrackPointExtension>
        </extensions>
      </trkpt>
      <trkpt lat="42.4947012774646282196044921875" lon="20.00517203472554683685302734375">
        <ele>1961.5999755859375</ele>
        <time>2026-06-19T08:57:19.000Z</time>
        <extensions>
          <ns3:TrackPointExtension>
            <ns3:atemp>18.0</ns3:atemp>
          </ns3:TrackPointExtension>
        </extensions>
      </trkpt>
      <trkpt lat="42.4947012774646282196044921875" lon="20.00517203472554683685302734375">
        <ele>1961.5999755859375</ele>
        <time>2026-06-19T08:57:20.000Z</time>
        <extensions>
          <ns3:TrackPointExtension>
            <ns3:atemp>18.0</ns3:atemp>
          </ns3:TrackPointExtension>
        </extensions>
      </trkpt>
      <trkpt lat="42.4947012774646282196044921875" lon="20.00517203472554683685302734375">
        <ele>1961.5999755859375</ele>
        <time>2026-06-19T08:57:21.000Z</time>
        <extensions>
          <ns3:TrackPointExtension>
            <ns3:atemp>18.0</ns3:atemp>
          </ns3:TrackPointExtension>
        </extensions>
      </trkpt>
      <trkpt lat="42.4947012774646282196044921875" lon="20.00517203472554683685302734375">
        <ele>1961.5999755859375</ele>
        <time>2026-06-19T08:57:22.000Z</time>
        <extensions>
          <ns3:TrackPointExtension>
            <ns3:atemp>18.0</ns3:atemp>
          </ns3:TrackPointExtension>
        </extensions>
      </trkpt>
      <trkpt lat="42.4947012774646282196044921875" lon="20.00517203472554683685302734375">
        <ele>1961.5999755859375</ele>
        <time>2026-06-19T08:57:23.000Z</time>
        <extensions>
          <ns3:TrackPointExtension>
            <ns3:atemp>18.0</ns3:atemp>
          </ns3:TrackPointExtension>
        </extensions>
      </trkpt>
      <trkpt lat="42.4947012774646282196044921875" lon="20.00517203472554683685302734375">
        <ele>1961.5999755859375</ele>
        <time>2026-06-19T08:57:24.000Z</time>
        <extensions>
          <ns3:TrackPointExtension>
            <ns3:atemp>18.0</ns3:atemp>
          </ns3:TrackPointExtension>
        </extensions>
      </trkpt>
      <trkpt lat="42.4947012774646282196044921875" lon="20.00517203472554683685302734375">
        <ele>1961.5999755859375</ele>
        <time>2026-06-19T08:57:25.000Z</time>
        <extensions>
          <ns3:TrackPointExtension>
            <ns3:atemp>18.0</ns3:atemp>
          </ns3:TrackPointExtension>
        </extensions>
      </trkpt>
      <trkpt lat="42.4947012774646282196044921875" lon="20.00517203472554683685302734375">
        <ele>1961.4000244140625</ele>
        <time>2026-06-19T08:57:26.000Z</time>
        <extensions>
          <ns3:TrackPointExtension>
            <ns3:atemp>18.0</ns3:atemp>
          </ns3:TrackPointExtension>
        </extensions>
      </trkpt>
      <trkpt lat="42.4947012774646282196044921875" lon="20.00517203472554683685302734375">
        <ele>1961.4000244140625</ele>
        <time>2026-06-19T08:57:27.000Z</time>
        <extensions>
          <ns3:TrackPointExtension>
            <ns3:atemp>18.0</ns3:atemp>
          </ns3:TrackPointExtension>
        </extensions>
      </trkpt>
      <trkpt lat="42.4947012774646282196044921875" lon="20.00517203472554683685302734375">
        <ele>1961.4000244140625</ele>
        <time>2026-06-19T08:57:28.000Z</time>
        <extensions>
          <ns3:TrackPointExtension>
            <ns3:atemp>18.0</ns3:atemp>
          </ns3:TrackPointExtension>
        </extensions>
      </trkpt>
      <trkpt lat="42.4947012774646282196044921875" lon="20.00517203472554683685302734375">
        <ele>1961.4000244140625</ele>
        <time>2026-06-19T08:57:29.000Z</time>
        <extensions>
          <ns3:TrackPointExtension>
            <ns3:atemp>18.0</ns3:atemp>
          </ns3:TrackPointExtension>
        </extensions>
      </trkpt>
      <trkpt lat="42.4947012774646282196044921875" lon="20.00517203472554683685302734375">
        <ele>1961.4000244140625</ele>
        <time>2026-06-19T08:57:30.000Z</time>
        <extensions>
          <ns3:TrackPointExtension>
            <ns3:atemp>18.0</ns3:atemp>
          </ns3:TrackPointExtension>
        </extensions>
      </trkpt>
      <trkpt lat="42.4947012774646282196044921875" lon="20.00517203472554683685302734375">
        <ele>1961.4000244140625</ele>
        <time>2026-06-19T08:57:31.000Z</time>
        <extensions>
          <ns3:TrackPointExtension>
            <ns3:atemp>18.0</ns3:atemp>
          </ns3:TrackPointExtension>
        </extensions>
      </trkpt>
      <trkpt lat="42.4947012774646282196044921875" lon="20.00517203472554683685302734375">
        <ele>1961.4000244140625</ele>
        <time>2026-06-19T08:57:32.000Z</time>
        <extensions>
          <ns3:TrackPointExtension>
            <ns3:atemp>18.0</ns3:atemp>
          </ns3:TrackPointExtension>
        </extensions>
      </trkpt>
      <trkpt lat="42.4947012774646282196044921875" lon="20.00517203472554683685302734375">
        <ele>1961.199951171875</ele>
        <time>2026-06-19T08:57:33.000Z</time>
        <extensions>
          <ns3:TrackPointExtension>
            <ns3:atemp>18.0</ns3:atemp>
          </ns3:TrackPointExtension>
        </extensions>
      </trkpt>
      <trkpt lat="42.4947012774646282196044921875" lon="20.00517203472554683685302734375">
        <ele>1961.199951171875</ele>
        <time>2026-06-19T08:57:34.000Z</time>
        <extensions>
          <ns3:TrackPointExtension>
            <ns3:atemp>18.0</ns3:atemp>
          </ns3:TrackPointExtension>
        </extensions>
      </trkpt>
      <trkpt lat="42.4947012774646282196044921875" lon="20.00517203472554683685302734375">
        <ele>1961.199951171875</ele>
        <time>2026-06-19T08:57:35.000Z</time>
        <extensions>
          <ns3:TrackPointExtension>
            <ns3:atemp>18.0</ns3:atemp>
          </ns3:TrackPointExtension>
        </extensions>
      </trkpt>
      <trkpt lat="42.4947012774646282196044921875" lon="20.00517203472554683685302734375">
        <ele>1961.199951171875</ele>
        <time>2026-06-19T08:57:36.000Z</time>
        <extensions>
          <ns3:TrackPointExtension>
            <ns3:atemp>18.0</ns3:atemp>
          </ns3:TrackPointExtension>
        </extensions>
      </trkpt>
      <trkpt lat="42.4947012774646282196044921875" lon="20.00517203472554683685302734375">
        <ele>1961.199951171875</ele>
        <time>2026-06-19T08:57:37.000Z</time>
        <extensions>
          <ns3:TrackPointExtension>
            <ns3:atemp>18.0</ns3:atemp>
          </ns3:TrackPointExtension>
        </extensions>
      </trkpt>
      <trkpt lat="42.4947012774646282196044921875" lon="20.00517203472554683685302734375">
        <ele>1961.199951171875</ele>
        <time>2026-06-19T08:57:38.000Z</time>
        <extensions>
          <ns3:TrackPointExtension>
            <ns3:atemp>18.0</ns3:atemp>
          </ns3:TrackPointExtension>
        </extensions>
      </trkpt>
      <trkpt lat="42.4947012774646282196044921875" lon="20.00517203472554683685302734375">
        <ele>1961.199951171875</ele>
        <time>2026-06-19T08:57:39.000Z</time>
        <extensions>
          <ns3:TrackPointExtension>
            <ns3:atemp>18.0</ns3:atemp>
          </ns3:TrackPointExtension>
        </extensions>
      </trkpt>
      <trkpt lat="42.4947012774646282196044921875" lon="20.00517203472554683685302734375">
        <ele>1961.199951171875</ele>
        <time>2026-06-19T08:57:40.000Z</time>
        <extensions>
          <ns3:TrackPointExtension>
            <ns3:atemp>18.0</ns3:atemp>
          </ns3:TrackPointExtension>
        </extensions>
      </trkpt>
      <trkpt lat="42.4947012774646282196044921875" lon="20.00517203472554683685302734375">
        <ele>1961.199951171875</ele>
        <time>2026-06-19T08:57:41.000Z</time>
        <extensions>
          <ns3:TrackPointExtension>
            <ns3:atemp>18.0</ns3:atemp>
          </ns3:TrackPointExtension>
        </extensions>
      </trkpt>
      <trkpt lat="42.4947012774646282196044921875" lon="20.00517203472554683685302734375">
        <ele>1961.199951171875</ele>
        <time>2026-06-19T08:57:42.000Z</time>
        <extensions>
          <ns3:TrackPointExtension>
            <ns3:atemp>18.0</ns3:atemp>
          </ns3:TrackPointExtension>
        </extensions>
      </trkpt>
      <trkpt lat="42.4947016127407550811767578125" lon="20.0051722861826419830322265625">
        <ele>1961.199951171875</ele>
        <time>2026-06-19T08:57:43.000Z</time>
        <extensions>
          <ns3:TrackPointExtension>
            <ns3:atemp>18.0</ns3:atemp>
          </ns3:TrackPointExtension>
        </extensions>
      </trkpt>
      <trkpt lat="42.4947036243975162506103515625" lon="20.00517203472554683685302734375">
        <ele>1961.199951171875</ele>
        <time>2026-06-19T08:57:44.000Z</time>
        <extensions>
          <ns3:TrackPointExtension>
            <ns3:atemp>18.0</ns3:atemp>
          </ns3:TrackPointExtension>
        </extensions>
      </trkpt>
      <trkpt lat="42.49470856972038745880126953125" lon="20.00517337583005428314208984375">
        <ele>1961.199951171875</ele>
        <time>2026-06-19T08:57:45.000Z</time>
        <extensions>
          <ns3:TrackPointExtension>
            <ns3:atemp>18.0</ns3:atemp>
          </ns3:TrackPointExtension>
        </extensions>
      </trkpt>
      <trkpt lat="42.494713179767131805419921875" lon="20.00517882406711578369140625">
        <ele>1961.199951171875</ele>
        <time>2026-06-19T08:57:46.000Z</time>
        <extensions>
          <ns3:TrackPointExtension>
            <ns3:atemp>18.0</ns3:atemp>
          </ns3:TrackPointExtension>
        </extensions>
      </trkpt>
      <trkpt lat="42.4947012774646282196044921875" lon="20.00517203472554683685302734375">
        <ele>1961.199951171875</ele>
        <time>2026-06-19T08:57:47.000Z</time>
        <extensions>
          <ns3:TrackPointExtension>
            <ns3:atemp>18.0</ns3:atemp>
          </ns3:TrackPointExtension>
        </extensions>
      </trkpt>
      <trkpt lat="42.4947012774646282196044921875" lon="20.00517203472554683685302734375">
        <ele>1961.199951171875</ele>
        <time>2026-06-19T08:57:48.000Z</time>
        <extensions>
          <ns3:TrackPointExtension>
            <ns3:atemp>18.0</ns3:atemp>
          </ns3:TrackPointExtension>
        </extensions>
      </trkpt>
      <trkpt lat="42.4947012774646282196044921875" lon="20.00517203472554683685302734375">
        <ele>1961.199951171875</ele>
        <time>2026-06-19T08:57:49.000Z</time>
        <extensions>
          <ns3:TrackPointExtension>
            <ns3:atemp>18.0</ns3:atemp>
          </ns3:TrackPointExtension>
        </extensions>
      </trkpt>
      <trkpt lat="42.4947012774646282196044921875" lon="20.00517203472554683685302734375">
        <ele>1961.199951171875</ele>
        <time>2026-06-19T08:57:50.000Z</time>
        <extensions>
          <ns3:TrackPointExtension>
            <ns3:atemp>18.0</ns3:atemp>
          </ns3:TrackPointExtension>
        </extensions>
      </trkpt>
      <trkpt lat="42.4947012774646282196044921875" lon="20.00517203472554683685302734375">
        <ele>1961.199951171875</ele>
        <time>2026-06-19T08:57:51.000Z</time>
        <extensions>
          <ns3:TrackPointExtension>
            <ns3:atemp>18.0</ns3:atemp>
          </ns3:TrackPointExtension>
        </extensions>
      </trkpt>
      <trkpt lat="42.4947012774646282196044921875" lon="20.00517203472554683685302734375">
        <ele>1961.199951171875</ele>
        <time>2026-06-19T08:57:52.000Z</time>
        <extensions>
          <ns3:TrackPointExtension>
            <ns3:atemp>18.0</ns3:atemp>
          </ns3:TrackPointExtension>
        </extensions>
      </trkpt>
      <trkpt lat="42.4947012774646282196044921875" lon="20.00517203472554683685302734375">
        <ele>1961.199951171875</ele>
        <time>2026-06-19T08:57:53.000Z</time>
        <extensions>
          <ns3:TrackPointExtension>
            <ns3:atemp>18.0</ns3:atemp>
          </ns3:TrackPointExtension>
        </extensions>
      </trkpt>
      <trkpt lat="42.4947012774646282196044921875" lon="20.00517203472554683685302734375">
        <ele>1961.199951171875</ele>
        <time>2026-06-19T08:57:54.000Z</time>
        <extensions>
          <ns3:TrackPointExtension>
            <ns3:atemp>18.0</ns3:atemp>
          </ns3:TrackPointExtension>
        </extensions>
      </trkpt>
      <trkpt lat="42.4947012774646282196044921875" lon="20.00517203472554683685302734375">
        <ele>1961.199951171875</ele>
        <time>2026-06-19T08:57:55.000Z</time>
        <extensions>
          <ns3:TrackPointExtension>
            <ns3:atemp>18.0</ns3:atemp>
          </ns3:TrackPointExtension>
        </extensions>
      </trkpt>
      <trkpt lat="42.4947012774646282196044921875" lon="20.00517203472554683685302734375">
        <ele>1961.199951171875</ele>
        <time>2026-06-19T08:57:56.000Z</time>
        <extensions>
          <ns3:TrackPointExtension>
            <ns3:atemp>18.0</ns3:atemp>
          </ns3:TrackPointExtension>
        </extensions>
      </trkpt>
      <trkpt lat="42.4947012774646282196044921875" lon="20.00517203472554683685302734375">
        <ele>1961.199951171875</ele>
        <time>2026-06-19T08:57:57.000Z</time>
        <extensions>
          <ns3:TrackPointExtension>
            <ns3:atemp>18.0</ns3:atemp>
          </ns3:TrackPointExtension>
        </extensions>
      </trkpt>
      <trkpt lat="42.4947012774646282196044921875" lon="20.00517203472554683685302734375">
        <ele>1961.199951171875</ele>
        <time>2026-06-19T08:57:58.000Z</time>
        <extensions>
          <ns3:TrackPointExtension>
            <ns3:atemp>18.0</ns3:atemp>
          </ns3:TrackPointExtension>
        </extensions>
      </trkpt>
      <trkpt lat="42.4947012774646282196044921875" lon="20.00517203472554683685302734375">
        <ele>1961.199951171875</ele>
        <time>2026-06-19T08:57:59.000Z</time>
        <extensions>
          <ns3:TrackPointExtension>
            <ns3:atemp>18.0</ns3:atemp>
          </ns3:TrackPointExtension>
        </extensions>
      </trkpt>
      <trkpt lat="42.4947012774646282196044921875" lon="20.00517203472554683685302734375">
        <ele>1961.199951171875</ele>
        <time>2026-06-19T08:58:00.000Z</time>
        <extensions>
          <ns3:TrackPointExtension>
            <ns3:atemp>18.0</ns3:atemp>
          </ns3:TrackPointExtension>
        </extensions>
      </trkpt>
      <trkpt lat="42.4947012774646282196044921875" lon="20.00517203472554683685302734375">
        <ele>1961.199951171875</ele>
        <time>2026-06-19T08:58:01.000Z</time>
        <extensions>
          <ns3:TrackPointExtension>
            <ns3:atemp>18.0</ns3:atemp>
          </ns3:TrackPointExtension>
        </extensions>
      </trkpt>
      <trkpt lat="42.4947012774646282196044921875" lon="20.00517203472554683685302734375">
        <ele>1961.199951171875</ele>
        <time>2026-06-19T08:58:02.000Z</time>
        <extensions>
          <ns3:TrackPointExtension>
            <ns3:atemp>18.0</ns3:atemp>
          </ns3:TrackPointExtension>
        </extensions>
      </trkpt>
      <trkpt lat="42.4947012774646282196044921875" lon="20.00517203472554683685302734375">
        <ele>1961.199951171875</ele>
        <time>2026-06-19T08:58:03.000Z</time>
        <extensions>
          <ns3:TrackPointExtension>
            <ns3:atemp>18.0</ns3:atemp>
          </ns3:TrackPointExtension>
        </extensions>
      </trkpt>
      <trkpt lat="42.4947012774646282196044921875" lon="20.00517203472554683685302734375">
        <ele>1961.199951171875</ele>
        <time>2026-06-19T08:58:04.000Z</time>
        <extensions>
          <ns3:TrackPointExtension>
            <ns3:atemp>18.0</ns3:atemp>
          </ns3:TrackPointExtension>
        </extensions>
      </trkpt>
      <trkpt lat="42.4947012774646282196044921875" lon="20.00517203472554683685302734375">
        <ele>1961.199951171875</ele>
        <time>2026-06-19T08:58:05.000Z</time>
        <extensions>
          <ns3:TrackPointExtension>
            <ns3:atemp>18.0</ns3:atemp>
          </ns3:TrackPointExtension>
        </extensions>
      </trkpt>
      <trkpt lat="42.4947012774646282196044921875" lon="20.00517203472554683685302734375">
        <ele>1961.199951171875</ele>
        <time>2026-06-19T08:58:06.000Z</time>
        <extensions>
          <ns3:TrackPointExtension>
            <ns3:atemp>18.0</ns3:atemp>
          </ns3:TrackPointExtension>
        </extensions>
      </trkpt>
      <trkpt lat="42.4947012774646282196044921875" lon="20.00517203472554683685302734375">
        <ele>1961.199951171875</ele>
        <time>2026-06-19T08:58:07.000Z</time>
        <extensions>
          <ns3:TrackPointExtension>
            <ns3:atemp>18.0</ns3:atemp>
          </ns3:TrackPointExtension>
        </extensions>
      </trkpt>
      <trkpt lat="42.4947012774646282196044921875" lon="20.00517203472554683685302734375">
        <ele>1961.199951171875</ele>
        <time>2026-06-19T08:58:08.000Z</time>
        <extensions>
          <ns3:TrackPointExtension>
            <ns3:atemp>18.0</ns3:atemp>
          </ns3:TrackPointExtension>
        </extensions>
      </trkpt>
      <trkpt lat="42.4947012774646282196044921875" lon="20.00517203472554683685302734375">
        <ele>1961.199951171875</ele>
        <time>2026-06-19T08:58:09.000Z</time>
        <extensions>
          <ns3:TrackPointExtension>
            <ns3:atemp>18.0</ns3:atemp>
          </ns3:TrackPointExtension>
        </extensions>
      </trkpt>
      <trkpt lat="42.4947012774646282196044921875" lon="20.00517203472554683685302734375">
        <ele>1961.199951171875</ele>
        <time>2026-06-19T08:58:10.000Z</time>
        <extensions>
          <ns3:TrackPointExtension>
            <ns3:atemp>18.0</ns3:atemp>
          </ns3:TrackPointExtension>
        </extensions>
      </trkpt>
      <trkpt lat="42.4947012774646282196044921875" lon="20.00517203472554683685302734375">
        <ele>1961.199951171875</ele>
        <time>2026-06-19T08:58:11.000Z</time>
        <extensions>
          <ns3:TrackPointExtension>
            <ns3:atemp>18.0</ns3:atemp>
          </ns3:TrackPointExtension>
        </extensions>
      </trkpt>
      <trkpt lat="42.4947012774646282196044921875" lon="20.00517203472554683685302734375">
        <ele>1961.199951171875</ele>
        <time>2026-06-19T08:58:12.000Z</time>
        <extensions>
          <ns3:TrackPointExtension>
            <ns3:atemp>18.0</ns3:atemp>
          </ns3:TrackPointExtension>
        </extensions>
      </trkpt>
      <trkpt lat="42.4947012774646282196044921875" lon="20.00517203472554683685302734375">
        <ele>1961.199951171875</ele>
        <time>2026-06-19T08:58:13.000Z</time>
        <extensions>
          <ns3:TrackPointExtension>
            <ns3:atemp>18.0</ns3:atemp>
          </ns3:TrackPointExtension>
        </extensions>
      </trkpt>
      <trkpt lat="42.4947012774646282196044921875" lon="20.00517203472554683685302734375">
        <ele>1961.199951171875</ele>
        <time>2026-06-19T08:58:14.000Z</time>
        <extensions>
          <ns3:TrackPointExtension>
            <ns3:atemp>18.0</ns3:atemp>
          </ns3:TrackPointExtension>
        </extensions>
      </trkpt>
      <trkpt lat="42.4947012774646282196044921875" lon="20.00517203472554683685302734375">
        <ele>1961.199951171875</ele>
        <time>2026-06-19T08:58:15.000Z</time>
        <extensions>
          <ns3:TrackPointExtension>
            <ns3:atemp>18.0</ns3:atemp>
          </ns3:TrackPointExtension>
        </extensions>
      </trkpt>
      <trkpt lat="42.4947012774646282196044921875" lon="20.00517203472554683685302734375">
        <ele>1961.199951171875</ele>
        <time>2026-06-19T08:58:16.000Z</time>
        <extensions>
          <ns3:TrackPointExtension>
            <ns3:atemp>18.0</ns3:atemp>
          </ns3:TrackPointExtension>
        </extensions>
      </trkpt>
      <trkpt lat="42.4947012774646282196044921875" lon="20.00517203472554683685302734375">
        <ele>1961.199951171875</ele>
        <time>2026-06-19T08:58:17.000Z</time>
        <extensions>
          <ns3:TrackPointExtension>
            <ns3:atemp>18.0</ns3:atemp>
          </ns3:TrackPointExtension>
        </extensions>
      </trkpt>
      <trkpt lat="42.4947012774646282196044921875" lon="20.00517203472554683685302734375">
        <ele>1961.199951171875</ele>
        <time>2026-06-19T08:58:18.000Z</time>
        <extensions>
          <ns3:TrackPointExtension>
            <ns3:atemp>18.0</ns3:atemp>
          </ns3:TrackPointExtension>
        </extensions>
      </trkpt>
      <trkpt lat="42.4947012774646282196044921875" lon="20.00517203472554683685302734375">
        <ele>1961.199951171875</ele>
        <time>2026-06-19T08:58:19.000Z</time>
        <extensions>
          <ns3:TrackPointExtension>
            <ns3:atemp>18.0</ns3:atemp>
          </ns3:TrackPointExtension>
        </extensions>
      </trkpt>
      <trkpt lat="42.4947012774646282196044921875" lon="20.00517203472554683685302734375">
        <ele>1961.199951171875</ele>
        <time>2026-06-19T08:58:20.000Z</time>
        <extensions>
          <ns3:TrackPointExtension>
            <ns3:atemp>18.0</ns3:atemp>
          </ns3:TrackPointExtension>
        </extensions>
      </trkpt>
      <trkpt lat="42.4947012774646282196044921875" lon="20.00517203472554683685302734375">
        <ele>1961.199951171875</ele>
        <time>2026-06-19T08:58:21.000Z</time>
        <extensions>
          <ns3:TrackPointExtension>
            <ns3:atemp>18.0</ns3:atemp>
          </ns3:TrackPointExtension>
        </extensions>
      </trkpt>
      <trkpt lat="42.4947012774646282196044921875" lon="20.00517203472554683685302734375">
        <ele>1961.199951171875</ele>
        <time>2026-06-19T08:58:22.000Z</time>
        <extensions>
          <ns3:TrackPointExtension>
            <ns3:atemp>18.0</ns3:atemp>
          </ns3:TrackPointExtension>
        </extensions>
      </trkpt>
      <trkpt lat="42.4947012774646282196044921875" lon="20.00517203472554683685302734375">
        <ele>1961.199951171875</ele>
        <time>2026-06-19T08:58:23.000Z</time>
        <extensions>
          <ns3:TrackPointExtension>
            <ns3:atemp>18.0</ns3:atemp>
          </ns3:TrackPointExtension>
        </extensions>
      </trkpt>
      <trkpt lat="42.4947012774646282196044921875" lon="20.00517203472554683685302734375">
        <ele>1961.199951171875</ele>
        <time>2026-06-19T08:58:24.000Z</time>
        <extensions>
          <ns3:TrackPointExtension>
            <ns3:atemp>18.0</ns3:atemp>
          </ns3:TrackPointExtension>
        </extensions>
      </trkpt>
      <trkpt lat="42.4947012774646282196044921875" lon="20.00517203472554683685302734375">
        <ele>1961.199951171875</ele>
        <time>2026-06-19T08:58:25.000Z</time>
        <extensions>
          <ns3:TrackPointExtension>
            <ns3:atemp>18.0</ns3:atemp>
          </ns3:TrackPointExtension>
        </extensions>
      </trkpt>
      <trkpt lat="42.4947012774646282196044921875" lon="20.00517203472554683685302734375">
        <ele>1961.199951171875</ele>
        <time>2026-06-19T08:58:26.000Z</time>
        <extensions>
          <ns3:TrackPointExtension>
            <ns3:atemp>18.0</ns3:atemp>
          </ns3:TrackPointExtension>
        </extensions>
      </trkpt>
      <trkpt lat="42.4947012774646282196044921875" lon="20.00517203472554683685302734375">
        <ele>1961.199951171875</ele>
        <time>2026-06-19T08:58:27.000Z</time>
        <extensions>
          <ns3:TrackPointExtension>
            <ns3:atemp>18.0</ns3:atemp>
          </ns3:TrackPointExtension>
        </extensions>
      </trkpt>
      <trkpt lat="42.4947012774646282196044921875" lon="20.00517203472554683685302734375">
        <ele>1961.199951171875</ele>
        <time>2026-06-19T08:58:28.000Z</time>
        <extensions>
          <ns3:TrackPointExtension>
            <ns3:atemp>18.0</ns3:atemp>
          </ns3:TrackPointExtension>
        </extensions>
      </trkpt>
      <trkpt lat="42.4947012774646282196044921875" lon="20.00517203472554683685302734375">
        <ele>1961.199951171875</ele>
        <time>2026-06-19T08:58:29.000Z</time>
        <extensions>
          <ns3:TrackPointExtension>
            <ns3:atemp>18.0</ns3:atemp>
          </ns3:TrackPointExtension>
        </extensions>
      </trkpt>
      <trkpt lat="42.4947012774646282196044921875" lon="20.00517203472554683685302734375">
        <ele>1961.199951171875</ele>
        <time>2026-06-19T08:58:30.000Z</time>
        <extensions>
          <ns3:TrackPointExtension>
            <ns3:atemp>18.0</ns3:atemp>
          </ns3:TrackPointExtension>
        </extensions>
      </trkpt>
      <trkpt lat="42.4947012774646282196044921875" lon="20.00517203472554683685302734375">
        <ele>1961.199951171875</ele>
        <time>2026-06-19T08:58:31.000Z</time>
        <extensions>
          <ns3:TrackPointExtension>
            <ns3:atemp>18.0</ns3:atemp>
          </ns3:TrackPointExtension>
        </extensions>
      </trkpt>
      <trkpt lat="42.4947012774646282196044921875" lon="20.00517203472554683685302734375">
        <ele>1961.199951171875</ele>
        <time>2026-06-19T08:58:32.000Z</time>
        <extensions>
          <ns3:TrackPointExtension>
            <ns3:atemp>18.0</ns3:atemp>
          </ns3:TrackPointExtension>
        </extensions>
      </trkpt>
      <trkpt lat="42.4947012774646282196044921875" lon="20.00517203472554683685302734375">
        <ele>1961.199951171875</ele>
        <time>2026-06-19T08:58:33.000Z</time>
        <extensions>
          <ns3:TrackPointExtension>
            <ns3:atemp>18.0</ns3:atemp>
          </ns3:TrackPointExtension>
        </extensions>
      </trkpt>
      <trkpt lat="42.4947012774646282196044921875" lon="20.00517203472554683685302734375">
        <ele>1961.199951171875</ele>
        <time>2026-06-19T08:58:34.000Z</time>
        <extensions>
          <ns3:TrackPointExtension>
            <ns3:atemp>18.0</ns3:atemp>
          </ns3:TrackPointExtension>
        </extensions>
      </trkpt>
      <trkpt lat="42.4947012774646282196044921875" lon="20.00517203472554683685302734375">
        <ele>1961.199951171875</ele>
        <time>2026-06-19T08:58:35.000Z</time>
        <extensions>
          <ns3:TrackPointExtension>
            <ns3:atemp>18.0</ns3:atemp>
          </ns3:TrackPointExtension>
        </extensions>
      </trkpt>
      <trkpt lat="42.4947012774646282196044921875" lon="20.00517203472554683685302734375">
        <ele>1961.199951171875</ele>
        <time>2026-06-19T08:58:36.000Z</time>
        <extensions>
          <ns3:TrackPointExtension>
            <ns3:atemp>18.0</ns3:atemp>
          </ns3:TrackPointExtension>
        </extensions>
      </trkpt>
      <trkpt lat="42.4947012774646282196044921875" lon="20.00517203472554683685302734375">
        <ele>1961.199951171875</ele>
        <time>2026-06-19T08:58:37.000Z</time>
        <extensions>
          <ns3:TrackPointExtension>
            <ns3:atemp>18.0</ns3:atemp>
          </ns3:TrackPointExtension>
        </extensions>
      </trkpt>
      <trkpt lat="42.4947012774646282196044921875" lon="20.00517203472554683685302734375">
        <ele>1961.199951171875</ele>
        <time>2026-06-19T08:58:38.000Z</time>
        <extensions>
          <ns3:TrackPointExtension>
            <ns3:atemp>18.0</ns3:atemp>
          </ns3:TrackPointExtension>
        </extensions>
      </trkpt>
      <trkpt lat="42.4947012774646282196044921875" lon="20.00517203472554683685302734375">
        <ele>1961.199951171875</ele>
        <time>2026-06-19T08:58:39.000Z</time>
        <extensions>
          <ns3:TrackPointExtension>
            <ns3:atemp>18.0</ns3:atemp>
          </ns3:TrackPointExtension>
        </extensions>
      </trkpt>
      <trkpt lat="42.4947012774646282196044921875" lon="20.00517203472554683685302734375">
        <ele>1961.199951171875</ele>
        <time>2026-06-19T08:58:40.000Z</time>
        <extensions>
          <ns3:TrackPointExtension>
            <ns3:atemp>18.0</ns3:atemp>
          </ns3:TrackPointExtension>
        </extensions>
      </trkpt>
      <trkpt lat="42.4947012774646282196044921875" lon="20.00517203472554683685302734375">
        <ele>1961.199951171875</ele>
        <time>2026-06-19T08:58:41.000Z</time>
        <extensions>
          <ns3:TrackPointExtension>
            <ns3:atemp>18.0</ns3:atemp>
          </ns3:TrackPointExtension>
        </extensions>
      </trkpt>
      <trkpt lat="42.4947012774646282196044921875" lon="20.00517203472554683685302734375">
        <ele>1961.199951171875</ele>
        <time>2026-06-19T08:58:42.000Z</time>
        <extensions>
          <ns3:TrackPointExtension>
            <ns3:atemp>18.0</ns3:atemp>
          </ns3:TrackPointExtension>
        </extensions>
      </trkpt>
      <trkpt lat="42.4947012774646282196044921875" lon="20.00517203472554683685302734375">
        <ele>1961.199951171875</ele>
        <time>2026-06-19T08:58:43.000Z</time>
        <extensions>
          <ns3:TrackPointExtension>
            <ns3:atemp>18.0</ns3:atemp>
          </ns3:TrackPointExtension>
        </extensions>
      </trkpt>
      <trkpt lat="42.4947012774646282196044921875" lon="20.00517203472554683685302734375">
        <ele>1961.199951171875</ele>
        <time>2026-06-19T08:58:44.000Z</time>
        <extensions>
          <ns3:TrackPointExtension>
            <ns3:atemp>18.0</ns3:atemp>
          </ns3:TrackPointExtension>
        </extensions>
      </trkpt>
      <trkpt lat="42.4947012774646282196044921875" lon="20.00517203472554683685302734375">
        <ele>1961.199951171875</ele>
        <time>2026-06-19T08:58:45.000Z</time>
        <extensions>
          <ns3:TrackPointExtension>
            <ns3:atemp>18.0</ns3:atemp>
          </ns3:TrackPointExtension>
        </extensions>
      </trkpt>
      <trkpt lat="42.4947012774646282196044921875" lon="20.00517203472554683685302734375">
        <ele>1961.199951171875</ele>
        <time>2026-06-19T08:58:46.000Z</time>
        <extensions>
          <ns3:TrackPointExtension>
            <ns3:atemp>18.0</ns3:atemp>
          </ns3:TrackPointExtension>
        </extensions>
      </trkpt>
      <trkpt lat="42.4947012774646282196044921875" lon="20.00517203472554683685302734375">
        <ele>1961.199951171875</ele>
        <time>2026-06-19T08:58:47.000Z</time>
        <extensions>
          <ns3:TrackPointExtension>
            <ns3:atemp>18.0</ns3:atemp>
          </ns3:TrackPointExtension>
        </extensions>
      </trkpt>
      <trkpt lat="42.4947012774646282196044921875" lon="20.00517203472554683685302734375">
        <ele>1961.199951171875</ele>
        <time>2026-06-19T08:58:48.000Z</time>
        <extensions>
          <ns3:TrackPointExtension>
            <ns3:atemp>18.0</ns3:atemp>
          </ns3:TrackPointExtension>
        </extensions>
      </trkpt>
      <trkpt lat="42.4947012774646282196044921875" lon="20.00517203472554683685302734375">
        <ele>1961.199951171875</ele>
        <time>2026-06-19T08:58:49.000Z</time>
        <extensions>
          <ns3:TrackPointExtension>
            <ns3:atemp>18.0</ns3:atemp>
          </ns3:TrackPointExtension>
        </extensions>
      </trkpt>
      <trkpt lat="42.4947012774646282196044921875" lon="20.00517203472554683685302734375">
        <ele>1961.199951171875</ele>
        <time>2026-06-19T08:58:50.000Z</time>
        <extensions>
          <ns3:TrackPointExtension>
            <ns3:atemp>18.0</ns3:atemp>
          </ns3:TrackPointExtension>
        </extensions>
      </trkpt>
      <trkpt lat="42.4947012774646282196044921875" lon="20.00517203472554683685302734375">
        <ele>1961.199951171875</ele>
        <time>2026-06-19T08:58:51.000Z</time>
        <extensions>
          <ns3:TrackPointExtension>
            <ns3:atemp>18.0</ns3:atemp>
          </ns3:TrackPointExtension>
        </extensions>
      </trkpt>
      <trkpt lat="42.4947012774646282196044921875" lon="20.00517203472554683685302734375">
        <ele>1961.199951171875</ele>
        <time>2026-06-19T08:58:52.000Z</time>
        <extensions>
          <ns3:TrackPointExtension>
            <ns3:atemp>18.0</ns3:atemp>
          </ns3:TrackPointExtension>
        </extensions>
      </trkpt>
      <trkpt lat="42.4947012774646282196044921875" lon="20.00517203472554683685302734375">
        <ele>1961.199951171875</ele>
        <time>2026-06-19T08:58:53.000Z</time>
        <extensions>
          <ns3:TrackPointExtension>
            <ns3:atemp>18.0</ns3:atemp>
          </ns3:TrackPointExtension>
        </extensions>
      </trkpt>
      <trkpt lat="42.4947012774646282196044921875" lon="20.00517203472554683685302734375">
        <ele>1961.199951171875</ele>
        <time>2026-06-19T08:58:54.000Z</time>
        <extensions>
          <ns3:TrackPointExtension>
            <ns3:atemp>18.0</ns3:atemp>
          </ns3:TrackPointExtension>
        </extensions>
      </trkpt>
      <trkpt lat="42.4947012774646282196044921875" lon="20.00517203472554683685302734375">
        <ele>1961.199951171875</ele>
        <time>2026-06-19T08:58:55.000Z</time>
        <extensions>
          <ns3:TrackPointExtension>
            <ns3:atemp>18.0</ns3:atemp>
          </ns3:TrackPointExtension>
        </extensions>
      </trkpt>
      <trkpt lat="42.4947012774646282196044921875" lon="20.00517203472554683685302734375">
        <ele>1961.199951171875</ele>
        <time>2026-06-19T08:58:56.000Z</time>
        <extensions>
          <ns3:TrackPointExtension>
            <ns3:atemp>18.0</ns3:atemp>
          </ns3:TrackPointExtension>
        </extensions>
      </trkpt>
      <trkpt lat="42.4947012774646282196044921875" lon="20.00517203472554683685302734375">
        <ele>1961.199951171875</ele>
        <time>2026-06-19T08:58:57.000Z</time>
        <extensions>
          <ns3:TrackPointExtension>
            <ns3:atemp>18.0</ns3:atemp>
          </ns3:TrackPointExtension>
        </extensions>
      </trkpt>
      <trkpt lat="42.4947012774646282196044921875" lon="20.00517203472554683685302734375">
        <ele>1961.199951171875</ele>
        <time>2026-06-19T08:58:58.000Z</time>
        <extensions>
          <ns3:TrackPointExtension>
            <ns3:atemp>18.0</ns3:atemp>
          </ns3:TrackPointExtension>
        </extensions>
      </trkpt>
      <trkpt lat="42.4947012774646282196044921875" lon="20.00517203472554683685302734375">
        <ele>1961.199951171875</ele>
        <time>2026-06-19T08:58:59.000Z</time>
        <extensions>
          <ns3:TrackPointExtension>
            <ns3:atemp>18.0</ns3:atemp>
          </ns3:TrackPointExtension>
        </extensions>
      </trkpt>
      <trkpt lat="42.4947012774646282196044921875" lon="20.00517203472554683685302734375">
        <ele>1961.199951171875</ele>
        <time>2026-06-19T08:59:00.000Z</time>
        <extensions>
          <ns3:TrackPointExtension>
            <ns3:atemp>18.0</ns3:atemp>
          </ns3:TrackPointExtension>
        </extensions>
      </trkpt>
      <trkpt lat="42.4947012774646282196044921875" lon="20.00517203472554683685302734375">
        <ele>1961.199951171875</ele>
        <time>2026-06-19T08:59:01.000Z</time>
        <extensions>
          <ns3:TrackPointExtension>
            <ns3:atemp>18.0</ns3:atemp>
          </ns3:TrackPointExtension>
        </extensions>
      </trkpt>
      <trkpt lat="42.4947012774646282196044921875" lon="20.00517203472554683685302734375">
        <ele>1961.199951171875</ele>
        <time>2026-06-19T08:59:02.000Z</time>
        <extensions>
          <ns3:TrackPointExtension>
            <ns3:atemp>18.0</ns3:atemp>
          </ns3:TrackPointExtension>
        </extensions>
      </trkpt>
      <trkpt lat="42.4947012774646282196044921875" lon="20.00517203472554683685302734375">
        <ele>1961.199951171875</ele>
        <time>2026-06-19T08:59:03.000Z</time>
        <extensions>
          <ns3:TrackPointExtension>
            <ns3:atemp>18.0</ns3:atemp>
          </ns3:TrackPointExtension>
        </extensions>
      </trkpt>
      <trkpt lat="42.4947012774646282196044921875" lon="20.00517203472554683685302734375">
        <ele>1961.199951171875</ele>
        <time>2026-06-19T08:59:04.000Z</time>
        <extensions>
          <ns3:TrackPointExtension>
            <ns3:atemp>18.0</ns3:atemp>
          </ns3:TrackPointExtension>
        </extensions>
      </trkpt>
      <trkpt lat="42.4947012774646282196044921875" lon="20.00517203472554683685302734375">
        <ele>1961.199951171875</ele>
        <time>2026-06-19T08:59:05.000Z</time>
        <extensions>
          <ns3:TrackPointExtension>
            <ns3:atemp>18.0</ns3:atemp>
          </ns3:TrackPointExtension>
        </extensions>
      </trkpt>
      <trkpt lat="42.4947012774646282196044921875" lon="20.00517203472554683685302734375">
        <ele>1961.199951171875</ele>
        <time>2026-06-19T08:59:06.000Z</time>
        <extensions>
          <ns3:TrackPointExtension>
            <ns3:atemp>18.0</ns3:atemp>
          </ns3:TrackPointExtension>
        </extensions>
      </trkpt>
      <trkpt lat="42.4947012774646282196044921875" lon="20.00517203472554683685302734375">
        <ele>1961.199951171875</ele>
        <time>2026-06-19T08:59:07.000Z</time>
        <extensions>
          <ns3:TrackPointExtension>
            <ns3:atemp>18.0</ns3:atemp>
          </ns3:TrackPointExtension>
        </extensions>
      </trkpt>
      <trkpt lat="42.4947012774646282196044921875" lon="20.00517203472554683685302734375">
        <ele>1961.199951171875</ele>
        <time>2026-06-19T08:59:08.000Z</time>
        <extensions>
          <ns3:TrackPointExtension>
            <ns3:atemp>18.0</ns3:atemp>
          </ns3:TrackPointExtension>
        </extensions>
      </trkpt>
      <trkpt lat="42.4947012774646282196044921875" lon="20.00517203472554683685302734375">
        <ele>1961.199951171875</ele>
        <time>2026-06-19T08:59:09.000Z</time>
        <extensions>
          <ns3:TrackPointExtension>
            <ns3:atemp>18.0</ns3:atemp>
          </ns3:TrackPointExtension>
        </extensions>
      </trkpt>
      <trkpt lat="42.4947012774646282196044921875" lon="20.00517203472554683685302734375">
        <ele>1961.199951171875</ele>
        <time>2026-06-19T08:59:10.000Z</time>
        <extensions>
          <ns3:TrackPointExtension>
            <ns3:atemp>18.0</ns3:atemp>
          </ns3:TrackPointExtension>
        </extensions>
      </trkpt>
      <trkpt lat="42.4947012774646282196044921875" lon="20.00517203472554683685302734375">
        <ele>1961.199951171875</ele>
        <time>2026-06-19T08:59:11.000Z</time>
        <extensions>
          <ns3:TrackPointExtension>
            <ns3:atemp>18.0</ns3:atemp>
          </ns3:TrackPointExtension>
        </extensions>
      </trkpt>
      <trkpt lat="42.4947012774646282196044921875" lon="20.00517203472554683685302734375">
        <ele>1961.199951171875</ele>
        <time>2026-06-19T08:59:12.000Z</time>
        <extensions>
          <ns3:TrackPointExtension>
            <ns3:atemp>18.0</ns3:atemp>
          </ns3:TrackPointExtension>
        </extensions>
      </trkpt>
      <trkpt lat="42.4947012774646282196044921875" lon="20.00517203472554683685302734375">
        <ele>1961.199951171875</ele>
        <time>2026-06-19T08:59:13.000Z</time>
        <extensions>
          <ns3:TrackPointExtension>
            <ns3:atemp>18.0</ns3:atemp>
          </ns3:TrackPointExtension>
        </extensions>
      </trkpt>
      <trkpt lat="42.4947012774646282196044921875" lon="20.00517203472554683685302734375">
        <ele>1961.199951171875</ele>
        <time>2026-06-19T08:59:14.000Z</time>
        <extensions>
          <ns3:TrackPointExtension>
            <ns3:atemp>18.0</ns3:atemp>
          </ns3:TrackPointExtension>
        </extensions>
      </trkpt>
      <trkpt lat="42.4947012774646282196044921875" lon="20.00517203472554683685302734375">
        <ele>1961.199951171875</ele>
        <time>2026-06-19T08:59:15.000Z</time>
        <extensions>
          <ns3:TrackPointExtension>
            <ns3:atemp>18.0</ns3:atemp>
          </ns3:TrackPointExtension>
        </extensions>
      </trkpt>
      <trkpt lat="42.4947012774646282196044921875" lon="20.00517203472554683685302734375">
        <ele>1961.199951171875</ele>
        <time>2026-06-19T08:59:16.000Z</time>
        <extensions>
          <ns3:TrackPointExtension>
            <ns3:atemp>18.0</ns3:atemp>
          </ns3:TrackPointExtension>
        </extensions>
      </trkpt>
      <trkpt lat="42.4947012774646282196044921875" lon="20.00517203472554683685302734375">
        <ele>1961.199951171875</ele>
        <time>2026-06-19T08:59:17.000Z</time>
        <extensions>
          <ns3:TrackPointExtension>
            <ns3:atemp>18.0</ns3:atemp>
          </ns3:TrackPointExtension>
        </extensions>
      </trkpt>
      <trkpt lat="42.4947012774646282196044921875" lon="20.00517203472554683685302734375">
        <ele>1961.199951171875</ele>
        <time>2026-06-19T08:59:18.000Z</time>
        <extensions>
          <ns3:TrackPointExtension>
            <ns3:atemp>18.0</ns3:atemp>
          </ns3:TrackPointExtension>
        </extensions>
      </trkpt>
      <trkpt lat="42.4947012774646282196044921875" lon="20.00517203472554683685302734375">
        <ele>1961.199951171875</ele>
        <time>2026-06-19T08:59:19.000Z</time>
        <extensions>
          <ns3:TrackPointExtension>
            <ns3:atemp>18.0</ns3:atemp>
          </ns3:TrackPointExtension>
        </extensions>
      </trkpt>
      <trkpt lat="42.4947012774646282196044921875" lon="20.00517203472554683685302734375">
        <ele>1961.199951171875</ele>
        <time>2026-06-19T08:59:20.000Z</time>
        <extensions>
          <ns3:TrackPointExtension>
            <ns3:atemp>18.0</ns3:atemp>
          </ns3:TrackPointExtension>
        </extensions>
      </trkpt>
      <trkpt lat="42.4947012774646282196044921875" lon="20.00517203472554683685302734375">
        <ele>1961.199951171875</ele>
        <time>2026-06-19T08:59:21.000Z</time>
        <extensions>
          <ns3:TrackPointExtension>
            <ns3:atemp>18.0</ns3:atemp>
          </ns3:TrackPointExtension>
        </extensions>
      </trkpt>
      <trkpt lat="42.4947012774646282196044921875" lon="20.00517203472554683685302734375">
        <ele>1961.199951171875</ele>
        <time>2026-06-19T08:59:22.000Z</time>
        <extensions>
          <ns3:TrackPointExtension>
            <ns3:atemp>18.0</ns3:atemp>
          </ns3:TrackPointExtension>
        </extensions>
      </trkpt>
      <trkpt lat="42.4947012774646282196044921875" lon="20.00517203472554683685302734375">
        <ele>1961.199951171875</ele>
        <time>2026-06-19T08:59:23.000Z</time>
        <extensions>
          <ns3:TrackPointExtension>
            <ns3:atemp>18.0</ns3:atemp>
          </ns3:TrackPointExtension>
        </extensions>
      </trkpt>
      <trkpt lat="42.4947012774646282196044921875" lon="20.00517203472554683685302734375">
        <ele>1961.199951171875</ele>
        <time>2026-06-19T08:59:24.000Z</time>
        <extensions>
          <ns3:TrackPointExtension>
            <ns3:atemp>18.0</ns3:atemp>
          </ns3:TrackPointExtension>
        </extensions>
      </trkpt>
      <trkpt lat="42.4947012774646282196044921875" lon="20.00517203472554683685302734375">
        <ele>1961.199951171875</ele>
        <time>2026-06-19T08:59:25.000Z</time>
        <extensions>
          <ns3:TrackPointExtension>
            <ns3:atemp>18.0</ns3:atemp>
          </ns3:TrackPointExtension>
        </extensions>
      </trkpt>
      <trkpt lat="42.4947012774646282196044921875" lon="20.00517203472554683685302734375">
        <ele>1961.199951171875</ele>
        <time>2026-06-19T08:59:26.000Z</time>
        <extensions>
          <ns3:TrackPointExtension>
            <ns3:atemp>18.0</ns3:atemp>
          </ns3:TrackPointExtension>
        </extensions>
      </trkpt>
      <trkpt lat="42.4947012774646282196044921875" lon="20.00517203472554683685302734375">
        <ele>1961.199951171875</ele>
        <time>2026-06-19T08:59:27.000Z</time>
        <extensions>
          <ns3:TrackPointExtension>
            <ns3:atemp>18.0</ns3:atemp>
          </ns3:TrackPointExtension>
        </extensions>
      </trkpt>
      <trkpt lat="42.4947012774646282196044921875" lon="20.00517203472554683685302734375">
        <ele>1961.199951171875</ele>
        <time>2026-06-19T08:59:28.000Z</time>
        <extensions>
          <ns3:TrackPointExtension>
            <ns3:atemp>18.0</ns3:atemp>
          </ns3:TrackPointExtension>
        </extensions>
      </trkpt>
      <trkpt lat="42.4947012774646282196044921875" lon="20.00517203472554683685302734375">
        <ele>1961.199951171875</ele>
        <time>2026-06-19T08:59:29.000Z</time>
        <extensions>
          <ns3:TrackPointExtension>
            <ns3:atemp>18.0</ns3:atemp>
          </ns3:TrackPointExtension>
        </extensions>
      </trkpt>
      <trkpt lat="42.4947012774646282196044921875" lon="20.00517203472554683685302734375">
        <ele>1961.199951171875</ele>
        <time>2026-06-19T08:59:30.000Z</time>
        <extensions>
          <ns3:TrackPointExtension>
            <ns3:atemp>18.0</ns3:atemp>
          </ns3:TrackPointExtension>
        </extensions>
      </trkpt>
      <trkpt lat="42.4947012774646282196044921875" lon="20.00517203472554683685302734375">
        <ele>1961.199951171875</ele>
        <time>2026-06-19T08:59:31.000Z</time>
        <extensions>
          <ns3:TrackPointExtension>
            <ns3:atemp>18.0</ns3:atemp>
          </ns3:TrackPointExtension>
        </extensions>
      </trkpt>
      <trkpt lat="42.4947012774646282196044921875" lon="20.00517203472554683685302734375">
        <ele>1961.199951171875</ele>
        <time>2026-06-19T08:59:32.000Z</time>
        <extensions>
          <ns3:TrackPointExtension>
            <ns3:atemp>18.0</ns3:atemp>
          </ns3:TrackPointExtension>
        </extensions>
      </trkpt>
      <trkpt lat="42.4947012774646282196044921875" lon="20.00517203472554683685302734375">
        <ele>1961.199951171875</ele>
        <time>2026-06-19T08:59:33.000Z</time>
        <extensions>
          <ns3:TrackPointExtension>
            <ns3:atemp>18.0</ns3:atemp>
          </ns3:TrackPointExtension>
        </extensions>
      </trkpt>
      <trkpt lat="42.4947012774646282196044921875" lon="20.00517203472554683685302734375">
        <ele>1961.199951171875</ele>
        <time>2026-06-19T08:59:34.000Z</time>
        <extensions>
          <ns3:TrackPointExtension>
            <ns3:atemp>18.0</ns3:atemp>
          </ns3:TrackPointExtension>
        </extensions>
      </trkpt>
      <trkpt lat="42.4947012774646282196044921875" lon="20.00517203472554683685302734375">
        <ele>1961.199951171875</ele>
        <time>2026-06-19T08:59:35.000Z</time>
        <extensions>
          <ns3:TrackPointExtension>
            <ns3:atemp>18.0</ns3:atemp>
          </ns3:TrackPointExtension>
        </extensions>
      </trkpt>
      <trkpt lat="42.4947012774646282196044921875" lon="20.00517203472554683685302734375">
        <ele>1961.199951171875</ele>
        <time>2026-06-19T08:59:36.000Z</time>
        <extensions>
          <ns3:TrackPointExtension>
            <ns3:atemp>18.0</ns3:atemp>
          </ns3:TrackPointExtension>
        </extensions>
      </trkpt>
      <trkpt lat="42.4947012774646282196044921875" lon="20.00517203472554683685302734375">
        <ele>1961.199951171875</ele>
        <time>2026-06-19T08:59:37.000Z</time>
        <extensions>
          <ns3:TrackPointExtension>
            <ns3:atemp>18.0</ns3:atemp>
          </ns3:TrackPointExtension>
        </extensions>
      </trkpt>
      <trkpt lat="42.4947012774646282196044921875" lon="20.00517203472554683685302734375">
        <ele>1961.199951171875</ele>
        <time>2026-06-19T08:59:38.000Z</time>
        <extensions>
          <ns3:TrackPointExtension>
            <ns3:atemp>18.0</ns3:atemp>
          </ns3:TrackPointExtension>
        </extensions>
      </trkpt>
      <trkpt lat="42.4947012774646282196044921875" lon="20.00517203472554683685302734375">
        <ele>1961.199951171875</ele>
        <time>2026-06-19T08:59:39.000Z</time>
        <extensions>
          <ns3:TrackPointExtension>
            <ns3:atemp>18.0</ns3:atemp>
          </ns3:TrackPointExtension>
        </extensions>
      </trkpt>
      <trkpt lat="42.4947012774646282196044921875" lon="20.00517203472554683685302734375">
        <ele>1961.199951171875</ele>
        <time>2026-06-19T08:59:40.000Z</time>
        <extensions>
          <ns3:TrackPointExtension>
            <ns3:atemp>18.0</ns3:atemp>
          </ns3:TrackPointExtension>
        </extensions>
      </trkpt>
      <trkpt lat="42.4947012774646282196044921875" lon="20.00517203472554683685302734375">
        <ele>1961.199951171875</ele>
        <time>2026-06-19T08:59:41.000Z</time>
        <extensions>
          <ns3:TrackPointExtension>
            <ns3:atemp>18.0</ns3:atemp>
          </ns3:TrackPointExtension>
        </extensions>
      </trkpt>
      <trkpt lat="42.4947012774646282196044921875" lon="20.00517203472554683685302734375">
        <ele>1961.199951171875</ele>
        <time>2026-06-19T08:59:42.000Z</time>
        <extensions>
          <ns3:TrackPointExtension>
            <ns3:atemp>18.0</ns3:atemp>
          </ns3:TrackPointExtension>
        </extensions>
      </trkpt>
      <trkpt lat="42.4947012774646282196044921875" lon="20.00517203472554683685302734375">
        <ele>1961.199951171875</ele>
        <time>2026-06-19T08:59:43.000Z</time>
        <extensions>
          <ns3:TrackPointExtension>
            <ns3:atemp>18.0</ns3:atemp>
          </ns3:TrackPointExtension>
        </extensions>
      </trkpt>
      <trkpt lat="42.4947012774646282196044921875" lon="20.00517203472554683685302734375">
        <ele>1961.199951171875</ele>
        <time>2026-06-19T08:59:44.000Z</time>
        <extensions>
          <ns3:TrackPointExtension>
            <ns3:atemp>18.0</ns3:atemp>
          </ns3:TrackPointExtension>
        </extensions>
      </trkpt>
      <trkpt lat="42.4947012774646282196044921875" lon="20.00517203472554683685302734375">
        <ele>1961.199951171875</ele>
        <time>2026-06-19T08:59:45.000Z</time>
        <extensions>
          <ns3:TrackPointExtension>
            <ns3:atemp>18.0</ns3:atemp>
          </ns3:TrackPointExtension>
        </extensions>
      </trkpt>
      <trkpt lat="42.4947012774646282196044921875" lon="20.00517203472554683685302734375">
        <ele>1961.199951171875</ele>
        <time>2026-06-19T08:59:46.000Z</time>
        <extensions>
          <ns3:TrackPointExtension>
            <ns3:atemp>18.0</ns3:atemp>
          </ns3:TrackPointExtension>
        </extensions>
      </trkpt>
      <trkpt lat="42.4947012774646282196044921875" lon="20.00517203472554683685302734375">
        <ele>1961.199951171875</ele>
        <time>2026-06-19T08:59:47.000Z</time>
        <extensions>
          <ns3:TrackPointExtension>
            <ns3:atemp>18.0</ns3:atemp>
          </ns3:TrackPointExtension>
        </extensions>
      </trkpt>
      <trkpt lat="42.4947012774646282196044921875" lon="20.00517203472554683685302734375">
        <ele>1961.199951171875</ele>
        <time>2026-06-19T08:59:48.000Z</time>
        <extensions>
          <ns3:TrackPointExtension>
            <ns3:atemp>18.0</ns3:atemp>
          </ns3:TrackPointExtension>
        </extensions>
      </trkpt>
      <trkpt lat="42.4947012774646282196044921875" lon="20.00517203472554683685302734375">
        <ele>1961.199951171875</ele>
        <time>2026-06-19T08:59:49.000Z</time>
        <extensions>
          <ns3:TrackPointExtension>
            <ns3:atemp>18.0</ns3:atemp>
          </ns3:TrackPointExtension>
        </extensions>
      </trkpt>
      <trkpt lat="42.4947012774646282196044921875" lon="20.00517203472554683685302734375">
        <ele>1961.199951171875</ele>
        <time>2026-06-19T08:59:50.000Z</time>
        <extensions>
          <ns3:TrackPointExtension>
            <ns3:atemp>18.0</ns3:atemp>
          </ns3:TrackPointExtension>
        </extensions>
      </trkpt>
      <trkpt lat="42.4947012774646282196044921875" lon="20.00517203472554683685302734375">
        <ele>1961.199951171875</ele>
        <time>2026-06-19T08:59:51.000Z</time>
        <extensions>
          <ns3:TrackPointExtension>
            <ns3:atemp>18.0</ns3:atemp>
          </ns3:TrackPointExtension>
        </extensions>
      </trkpt>
      <trkpt lat="42.4947012774646282196044921875" lon="20.00517203472554683685302734375">
        <ele>1961.199951171875</ele>
        <time>2026-06-19T08:59:52.000Z</time>
        <extensions>
          <ns3:TrackPointExtension>
            <ns3:atemp>18.0</ns3:atemp>
          </ns3:TrackPointExtension>
        </extensions>
      </trkpt>
      <trkpt lat="42.4947012774646282196044921875" lon="20.00517203472554683685302734375">
        <ele>1961.199951171875</ele>
        <time>2026-06-19T08:59:53.000Z</time>
        <extensions>
          <ns3:TrackPointExtension>
            <ns3:atemp>18.0</ns3:atemp>
          </ns3:TrackPointExtension>
        </extensions>
      </trkpt>
      <trkpt lat="42.4947012774646282196044921875" lon="20.00517203472554683685302734375">
        <ele>1961.199951171875</ele>
        <time>2026-06-19T08:59:54.000Z</time>
        <extensions>
          <ns3:TrackPointExtension>
            <ns3:atemp>18.0</ns3:atemp>
          </ns3:TrackPointExtension>
        </extensions>
      </trkpt>
      <trkpt lat="42.4947012774646282196044921875" lon="20.00517203472554683685302734375">
        <ele>1961.199951171875</ele>
        <time>2026-06-19T08:59:55.000Z</time>
        <extensions>
          <ns3:TrackPointExtension>
            <ns3:atemp>18.0</ns3:atemp>
          </ns3:TrackPointExtension>
        </extensions>
      </trkpt>
      <trkpt lat="42.4947012774646282196044921875" lon="20.00517203472554683685302734375">
        <ele>1961.199951171875</ele>
        <time>2026-06-19T08:59:56.000Z</time>
        <extensions>
          <ns3:TrackPointExtension>
            <ns3:atemp>18.0</ns3:atemp>
          </ns3:TrackPointExtension>
        </extensions>
      </trkpt>
      <trkpt lat="42.4947012774646282196044921875" lon="20.00517203472554683685302734375">
        <ele>1961.199951171875</ele>
        <time>2026-06-19T08:59:57.000Z</time>
        <extensions>
          <ns3:TrackPointExtension>
            <ns3:atemp>18.0</ns3:atemp>
          </ns3:TrackPointExtension>
        </extensions>
      </trkpt>
      <trkpt lat="42.4947012774646282196044921875" lon="20.00517203472554683685302734375">
        <ele>1961.199951171875</ele>
        <time>2026-06-19T08:59:58.000Z</time>
        <extensions>
          <ns3:TrackPointExtension>
            <ns3:atemp>18.0</ns3:atemp>
          </ns3:TrackPointExtension>
        </extensions>
      </trkpt>
      <trkpt lat="42.4947012774646282196044921875" lon="20.00517203472554683685302734375">
        <ele>1961.199951171875</ele>
        <time>2026-06-19T08:59:59.000Z</time>
        <extensions>
          <ns3:TrackPointExtension>
            <ns3:atemp>18.0</ns3:atemp>
          </ns3:TrackPointExtension>
        </extensions>
      </trkpt>
      <trkpt lat="42.4947012774646282196044921875" lon="20.00517203472554683685302734375">
        <ele>1961.199951171875</ele>
        <time>2026-06-19T09:00:00.000Z</time>
        <extensions>
          <ns3:TrackPointExtension>
            <ns3:atemp>18.0</ns3:atemp>
          </ns3:TrackPointExtension>
        </extensions>
      </trkpt>
      <trkpt lat="42.4947012774646282196044921875" lon="20.00517203472554683685302734375">
        <ele>1961.199951171875</ele>
        <time>2026-06-19T09:00:01.000Z</time>
        <extensions>
          <ns3:TrackPointExtension>
            <ns3:atemp>18.0</ns3:atemp>
          </ns3:TrackPointExtension>
        </extensions>
      </trkpt>
      <trkpt lat="42.4947012774646282196044921875" lon="20.00517203472554683685302734375">
        <ele>1961.199951171875</ele>
        <time>2026-06-19T09:00:02.000Z</time>
        <extensions>
          <ns3:TrackPointExtension>
            <ns3:atemp>18.0</ns3:atemp>
          </ns3:TrackPointExtension>
        </extensions>
      </trkpt>
      <trkpt lat="42.4947012774646282196044921875" lon="20.00517203472554683685302734375">
        <ele>1961.199951171875</ele>
        <time>2026-06-19T09:00:03.000Z</time>
        <extensions>
          <ns3:TrackPointExtension>
            <ns3:atemp>18.0</ns3:atemp>
          </ns3:TrackPointExtension>
        </extensions>
      </trkpt>
      <trkpt lat="42.4947012774646282196044921875" lon="20.00517203472554683685302734375">
        <ele>1961.199951171875</ele>
        <time>2026-06-19T09:00:04.000Z</time>
        <extensions>
          <ns3:TrackPointExtension>
            <ns3:atemp>18.0</ns3:atemp>
          </ns3:TrackPointExtension>
        </extensions>
      </trkpt>
      <trkpt lat="42.4947012774646282196044921875" lon="20.00517203472554683685302734375">
        <ele>1961.199951171875</ele>
        <time>2026-06-19T09:00:05.000Z</time>
        <extensions>
          <ns3:TrackPointExtension>
            <ns3:atemp>18.0</ns3:atemp>
          </ns3:TrackPointExtension>
        </extensions>
      </trkpt>
      <trkpt lat="42.4947012774646282196044921875" lon="20.00517203472554683685302734375">
        <ele>1961.199951171875</ele>
        <time>2026-06-19T09:00:06.000Z</time>
        <extensions>
          <ns3:TrackPointExtension>
            <ns3:atemp>18.0</ns3:atemp>
          </ns3:TrackPointExtension>
        </extensions>
      </trkpt>
      <trkpt lat="42.4947012774646282196044921875" lon="20.00517203472554683685302734375">
        <ele>1961.199951171875</ele>
        <time>2026-06-19T09:00:07.000Z</time>
        <extensions>
          <ns3:TrackPointExtension>
            <ns3:atemp>18.0</ns3:atemp>
          </ns3:TrackPointExtension>
        </extensions>
      </trkpt>
      <trkpt lat="42.4947012774646282196044921875" lon="20.00517203472554683685302734375">
        <ele>1961.199951171875</ele>
        <time>2026-06-19T09:00:08.000Z</time>
        <extensions>
          <ns3:TrackPointExtension>
            <ns3:atemp>18.0</ns3:atemp>
          </ns3:TrackPointExtension>
        </extensions>
      </trkpt>
      <trkpt lat="42.4947012774646282196044921875" lon="20.00517203472554683685302734375">
        <ele>1961.199951171875</ele>
        <time>2026-06-19T09:00:09.000Z</time>
        <extensions>
          <ns3:TrackPointExtension>
            <ns3:atemp>18.0</ns3:atemp>
          </ns3:TrackPointExtension>
        </extensions>
      </trkpt>
      <trkpt lat="42.4947012774646282196044921875" lon="20.00517203472554683685302734375">
        <ele>1961.199951171875</ele>
        <time>2026-06-19T09:00:10.000Z</time>
        <extensions>
          <ns3:TrackPointExtension>
            <ns3:atemp>18.0</ns3:atemp>
          </ns3:TrackPointExtension>
        </extensions>
      </trkpt>
      <trkpt lat="42.4947012774646282196044921875" lon="20.00517203472554683685302734375">
        <ele>1961.199951171875</ele>
        <time>2026-06-19T09:00:11.000Z</time>
        <extensions>
          <ns3:TrackPointExtension>
            <ns3:atemp>18.0</ns3:atemp>
          </ns3:TrackPointExtension>
        </extensions>
      </trkpt>
      <trkpt lat="42.4947012774646282196044921875" lon="20.00517203472554683685302734375">
        <ele>1961.199951171875</ele>
        <time>2026-06-19T09:00:12.000Z</time>
        <extensions>
          <ns3:TrackPointExtension>
            <ns3:atemp>18.0</ns3:atemp>
          </ns3:TrackPointExtension>
        </extensions>
      </trkpt>
      <trkpt lat="42.4947012774646282196044921875" lon="20.00517203472554683685302734375">
        <ele>1961.199951171875</ele>
        <time>2026-06-19T09:00:13.000Z</time>
        <extensions>
          <ns3:TrackPointExtension>
            <ns3:atemp>18.0</ns3:atemp>
          </ns3:TrackPointExtension>
        </extensions>
      </trkpt>
      <trkpt lat="42.4947012774646282196044921875" lon="20.00517203472554683685302734375">
        <ele>1958.800048828125</ele>
        <time>2026-06-19T09:00:14.000Z</time>
        <extensions>
          <ns3:TrackPointExtension>
            <ns3:atemp>18.0</ns3:atemp>
          </ns3:TrackPointExtension>
        </extensions>
      </trkpt>
      <trkpt lat="42.4947012774646282196044921875" lon="20.00517203472554683685302734375">
        <ele>1958.5999755859375</ele>
        <time>2026-06-19T09:00:15.000Z</time>
        <extensions>
          <ns3:TrackPointExtension>
            <ns3:atemp>18.0</ns3:atemp>
          </ns3:TrackPointExtension>
        </extensions>
      </trkpt>
      <trkpt lat="42.4947012774646282196044921875" lon="20.00517203472554683685302734375">
        <ele>1958.5999755859375</ele>
        <time>2026-06-19T09:00:16.000Z</time>
        <extensions>
          <ns3:TrackPointExtension>
            <ns3:atemp>18.0</ns3:atemp>
          </ns3:TrackPointExtension>
        </extensions>
      </trkpt>
      <trkpt lat="42.4947012774646282196044921875" lon="20.00517203472554683685302734375">
        <ele>1958.5999755859375</ele>
        <time>2026-06-19T09:00:17.000Z</time>
        <extensions>
          <ns3:TrackPointExtension>
            <ns3:atemp>18.0</ns3:atemp>
          </ns3:TrackPointExtension>
        </extensions>
      </trkpt>
      <trkpt lat="42.4947012774646282196044921875" lon="20.00517203472554683685302734375">
        <ele>1958.5999755859375</ele>
        <time>2026-06-19T09:00:18.000Z</time>
        <extensions>
          <ns3:TrackPointExtension>
            <ns3:atemp>18.0</ns3:atemp>
          </ns3:TrackPointExtension>
        </extensions>
      </trkpt>
      <trkpt lat="42.4947012774646282196044921875" lon="20.00517203472554683685302734375">
        <ele>1958.800048828125</ele>
        <time>2026-06-19T09:00:19.000Z</time>
        <extensions>
          <ns3:TrackPointExtension>
            <ns3:atemp>18.0</ns3:atemp>
          </ns3:TrackPointExtension>
        </extensions>
      </trkpt>
      <trkpt lat="42.4947012774646282196044921875" lon="20.00517203472554683685302734375">
        <ele>1958.800048828125</ele>
        <time>2026-06-19T09:00:20.000Z</time>
        <extensions>
          <ns3:TrackPointExtension>
            <ns3:atemp>18.0</ns3:atemp>
          </ns3:TrackPointExtension>
        </extensions>
      </trkpt>
      <trkpt lat="42.4947012774646282196044921875" lon="20.00517203472554683685302734375">
        <ele>1958.800048828125</ele>
        <time>2026-06-19T09:00:21.000Z</time>
        <extensions>
          <ns3:TrackPointExtension>
            <ns3:atemp>18.0</ns3:atemp>
          </ns3:TrackPointExtension>
        </extensions>
      </trkpt>
      <trkpt lat="42.4947012774646282196044921875" lon="20.00517203472554683685302734375">
        <ele>1958.800048828125</ele>
        <time>2026-06-19T09:00:22.000Z</time>
        <extensions>
          <ns3:TrackPointExtension>
            <ns3:atemp>18.0</ns3:atemp>
          </ns3:TrackPointExtension>
        </extensions>
      </trkpt>
      <trkpt lat="42.4947012774646282196044921875" lon="20.00517203472554683685302734375">
        <ele>1958.800048828125</ele>
        <time>2026-06-19T09:00:23.000Z</time>
        <extensions>
          <ns3:TrackPointExtension>
            <ns3:atemp>18.0</ns3:atemp>
          </ns3:TrackPointExtension>
        </extensions>
      </trkpt>
      <trkpt lat="42.4947012774646282196044921875" lon="20.00517203472554683685302734375">
        <ele>1958.800048828125</ele>
        <time>2026-06-19T09:00:24.000Z</time>
        <extensions>
          <ns3:TrackPointExtension>
            <ns3:atemp>18.0</ns3:atemp>
          </ns3:TrackPointExtension>
        </extensions>
      </trkpt>
      <trkpt lat="42.4947012774646282196044921875" lon="20.00517203472554683685302734375">
        <ele>1959</ele>
        <time>2026-06-19T09:00:25.000Z</time>
        <extensions>
          <ns3:TrackPointExtension>
            <ns3:atemp>18.0</ns3:atemp>
          </ns3:TrackPointExtension>
        </extensions>
      </trkpt>
      <trkpt lat="42.4947012774646282196044921875" lon="20.00517203472554683685302734375">
        <ele>1959</ele>
        <time>2026-06-19T09:00:26.000Z</time>
        <extensions>
          <ns3:TrackPointExtension>
            <ns3:atemp>18.0</ns3:atemp>
          </ns3:TrackPointExtension>
        </extensions>
      </trkpt>
      <trkpt lat="42.4947012774646282196044921875" lon="20.00517203472554683685302734375">
        <ele>1959</ele>
        <time>2026-06-19T09:00:27.000Z</time>
        <extensions>
          <ns3:TrackPointExtension>
            <ns3:atemp>18.0</ns3:atemp>
          </ns3:TrackPointExtension>
        </extensions>
      </trkpt>
      <trkpt lat="42.4947012774646282196044921875" lon="20.00517203472554683685302734375">
        <ele>1959</ele>
        <time>2026-06-19T09:00:28.000Z</time>
        <extensions>
          <ns3:TrackPointExtension>
            <ns3:atemp>18.0</ns3:atemp>
          </ns3:TrackPointExtension>
        </extensions>
      </trkpt>
      <trkpt lat="42.4947012774646282196044921875" lon="20.00517203472554683685302734375">
        <ele>1959</ele>
        <time>2026-06-19T09:00:29.000Z</time>
        <extensions>
          <ns3:TrackPointExtension>
            <ns3:atemp>18.0</ns3:atemp>
          </ns3:TrackPointExtension>
        </extensions>
      </trkpt>
      <trkpt lat="42.4947012774646282196044921875" lon="20.00517203472554683685302734375">
        <ele>1959</ele>
        <time>2026-06-19T09:00:30.000Z</time>
        <extensions>
          <ns3:TrackPointExtension>
            <ns3:atemp>18.0</ns3:atemp>
          </ns3:TrackPointExtension>
        </extensions>
      </trkpt>
      <trkpt lat="42.4947012774646282196044921875" lon="20.00517203472554683685302734375">
        <ele>1959</ele>
        <time>2026-06-19T09:00:31.000Z</time>
        <extensions>
          <ns3:TrackPointExtension>
            <ns3:atemp>18.0</ns3:atemp>
          </ns3:TrackPointExtension>
        </extensions>
      </trkpt>
      <trkpt lat="42.4947012774646282196044921875" lon="20.00517203472554683685302734375">
        <ele>1959</ele>
        <time>2026-06-19T09:00:32.000Z</time>
        <extensions>
          <ns3:TrackPointExtension>
            <ns3:atemp>18.0</ns3:atemp>
          </ns3:TrackPointExtension>
        </extensions>
      </trkpt>
      <trkpt lat="42.4947012774646282196044921875" lon="20.00517203472554683685302734375">
        <ele>1959</ele>
        <time>2026-06-19T09:00:33.000Z</time>
        <extensions>
          <ns3:TrackPointExtension>
            <ns3:atemp>18.0</ns3:atemp>
          </ns3:TrackPointExtension>
        </extensions>
      </trkpt>
      <trkpt lat="42.4947012774646282196044921875" lon="20.00517203472554683685302734375">
        <ele>1959</ele>
        <time>2026-06-19T09:00:34.000Z</time>
        <extensions>
          <ns3:TrackPointExtension>
            <ns3:atemp>18.0</ns3:atemp>
          </ns3:TrackPointExtension>
        </extensions>
      </trkpt>
      <trkpt lat="42.4947012774646282196044921875" lon="20.00517203472554683685302734375">
        <ele>1959</ele>
        <time>2026-06-19T09:00:35.000Z</time>
        <extensions>
          <ns3:TrackPointExtension>
            <ns3:atemp>18.0</ns3:atemp>
          </ns3:TrackPointExtension>
        </extensions>
      </trkpt>
      <trkpt lat="42.4947012774646282196044921875" lon="20.00517203472554683685302734375">
        <ele>1959</ele>
        <time>2026-06-19T09:00:36.000Z</time>
        <extensions>
          <ns3:TrackPointExtension>
            <ns3:atemp>18.0</ns3:atemp>
          </ns3:TrackPointExtension>
        </extensions>
      </trkpt>
      <trkpt lat="42.4947012774646282196044921875" lon="20.00517203472554683685302734375">
        <ele>1959</ele>
        <time>2026-06-19T09:00:37.000Z</time>
        <extensions>
          <ns3:TrackPointExtension>
            <ns3:atemp>18.0</ns3:atemp>
          </ns3:TrackPointExtension>
        </extensions>
      </trkpt>
      <trkpt lat="42.4947012774646282196044921875" lon="20.00517203472554683685302734375">
        <ele>1959</ele>
        <time>2026-06-19T09:00:38.000Z</time>
        <extensions>
          <ns3:TrackPointExtension>
            <ns3:atemp>18.0</ns3:atemp>
          </ns3:TrackPointExtension>
        </extensions>
      </trkpt>
      <trkpt lat="42.4947012774646282196044921875" lon="20.00517203472554683685302734375">
        <ele>1959</ele>
        <time>2026-06-19T09:00:39.000Z</time>
        <extensions>
          <ns3:TrackPointExtension>
            <ns3:atemp>18.0</ns3:atemp>
          </ns3:TrackPointExtension>
        </extensions>
      </trkpt>
      <trkpt lat="42.4947012774646282196044921875" lon="20.00517203472554683685302734375">
        <ele>1959</ele>
        <time>2026-06-19T09:00:40.000Z</time>
        <extensions>
          <ns3:TrackPointExtension>
            <ns3:atemp>18.0</ns3:atemp>
          </ns3:TrackPointExtension>
        </extensions>
      </trkpt>
      <trkpt lat="42.4947012774646282196044921875" lon="20.00517203472554683685302734375">
        <ele>1959</ele>
        <time>2026-06-19T09:00:41.000Z</time>
        <extensions>
          <ns3:TrackPointExtension>
            <ns3:atemp>18.0</ns3:atemp>
          </ns3:TrackPointExtension>
        </extensions>
      </trkpt>
      <trkpt lat="42.4947012774646282196044921875" lon="20.00517203472554683685302734375">
        <ele>1959.199951171875</ele>
        <time>2026-06-19T09:00:42.000Z</time>
        <extensions>
          <ns3:TrackPointExtension>
            <ns3:atemp>18.0</ns3:atemp>
          </ns3:TrackPointExtension>
        </extensions>
      </trkpt>
      <trkpt lat="42.4947012774646282196044921875" lon="20.00517203472554683685302734375">
        <ele>1959.199951171875</ele>
        <time>2026-06-19T09:00:43.000Z</time>
        <extensions>
          <ns3:TrackPointExtension>
            <ns3:atemp>18.0</ns3:atemp>
          </ns3:TrackPointExtension>
        </extensions>
      </trkpt>
      <trkpt lat="42.4947012774646282196044921875" lon="20.00517203472554683685302734375">
        <ele>1959.199951171875</ele>
        <time>2026-06-19T09:00:44.000Z</time>
        <extensions>
          <ns3:TrackPointExtension>
            <ns3:atemp>18.0</ns3:atemp>
          </ns3:TrackPointExtension>
        </extensions>
      </trkpt>
      <trkpt lat="42.4947012774646282196044921875" lon="20.00517203472554683685302734375">
        <ele>1959.199951171875</ele>
        <time>2026-06-19T09:00:45.000Z</time>
        <extensions>
          <ns3:TrackPointExtension>
            <ns3:atemp>18.0</ns3:atemp>
          </ns3:TrackPointExtension>
        </extensions>
      </trkpt>
      <trkpt lat="42.4947012774646282196044921875" lon="20.00517203472554683685302734375">
        <ele>1959.199951171875</ele>
        <time>2026-06-19T09:00:46.000Z</time>
        <extensions>
          <ns3:TrackPointExtension>
            <ns3:atemp>18.0</ns3:atemp>
          </ns3:TrackPointExtension>
        </extensions>
      </trkpt>
      <trkpt lat="42.4947012774646282196044921875" lon="20.00517203472554683685302734375">
        <ele>1959.199951171875</ele>
        <time>2026-06-19T09:00:47.000Z</time>
        <extensions>
          <ns3:TrackPointExtension>
            <ns3:atemp>18.0</ns3:atemp>
          </ns3:TrackPointExtension>
        </extensions>
      </trkpt>
      <trkpt lat="42.4947012774646282196044921875" lon="20.00517203472554683685302734375">
        <ele>1959.199951171875</ele>
        <time>2026-06-19T09:00:48.000Z</time>
        <extensions>
          <ns3:TrackPointExtension>
            <ns3:atemp>18.0</ns3:atemp>
          </ns3:TrackPointExtension>
        </extensions>
      </trkpt>
      <trkpt lat="42.4947012774646282196044921875" lon="20.00517203472554683685302734375">
        <ele>1959.199951171875</ele>
        <time>2026-06-19T09:00:49.000Z</time>
        <extensions>
          <ns3:TrackPointExtension>
            <ns3:atemp>18.0</ns3:atemp>
          </ns3:TrackPointExtension>
        </extensions>
      </trkpt>
      <trkpt lat="42.4947012774646282196044921875" lon="20.00517203472554683685302734375">
        <ele>1959.199951171875</ele>
        <time>2026-06-19T09:00:50.000Z</time>
        <extensions>
          <ns3:TrackPointExtension>
            <ns3:atemp>18.0</ns3:atemp>
          </ns3:TrackPointExtension>
        </extensions>
      </trkpt>
      <trkpt lat="42.4947012774646282196044921875" lon="20.00517203472554683685302734375">
        <ele>1959.199951171875</ele>
        <time>2026-06-19T09:00:51.000Z</time>
        <extensions>
          <ns3:TrackPointExtension>
            <ns3:atemp>18.0</ns3:atemp>
          </ns3:TrackPointExtension>
        </extensions>
      </trkpt>
      <trkpt lat="42.4947012774646282196044921875" lon="20.00517203472554683685302734375">
        <ele>1959</ele>
        <time>2026-06-19T09:00:52.000Z</time>
        <extensions>
          <ns3:TrackPointExtension>
            <ns3:atemp>18.0</ns3:atemp>
          </ns3:TrackPointExtension>
        </extensions>
      </trkpt>
      <trkpt lat="42.4947012774646282196044921875" lon="20.00517203472554683685302734375">
        <ele>1959</ele>
        <time>2026-06-19T09:00:53.000Z</time>
        <extensions>
          <ns3:TrackPointExtension>
            <ns3:atemp>18.0</ns3:atemp>
          </ns3:TrackPointExtension>
        </extensions>
      </trkpt>
      <trkpt lat="42.4947012774646282196044921875" lon="20.00517203472554683685302734375">
        <ele>1959</ele>
        <time>2026-06-19T09:00:54.000Z</time>
        <extensions>
          <ns3:TrackPointExtension>
            <ns3:atemp>18.0</ns3:atemp>
          </ns3:TrackPointExtension>
        </extensions>
      </trkpt>
      <trkpt lat="42.4947012774646282196044921875" lon="20.00517203472554683685302734375">
        <ele>1959</ele>
        <time>2026-06-19T09:00:55.000Z</time>
        <extensions>
          <ns3:TrackPointExtension>
            <ns3:atemp>18.0</ns3:atemp>
          </ns3:TrackPointExtension>
        </extensions>
      </trkpt>
      <trkpt lat="42.4947012774646282196044921875" lon="20.00517203472554683685302734375">
        <ele>1959</ele>
        <time>2026-06-19T09:00:56.000Z</time>
        <extensions>
          <ns3:TrackPointExtension>
            <ns3:atemp>18.0</ns3:atemp>
          </ns3:TrackPointExtension>
        </extensions>
      </trkpt>
      <trkpt lat="42.4947012774646282196044921875" lon="20.00517203472554683685302734375">
        <ele>1959.199951171875</ele>
        <time>2026-06-19T09:00:57.000Z</time>
        <extensions>
          <ns3:TrackPointExtension>
            <ns3:atemp>18.0</ns3:atemp>
          </ns3:TrackPointExtension>
        </extensions>
      </trkpt>
      <trkpt lat="42.4947012774646282196044921875" lon="20.00517203472554683685302734375">
        <ele>1959.199951171875</ele>
        <time>2026-06-19T09:00:58.000Z</time>
        <extensions>
          <ns3:TrackPointExtension>
            <ns3:atemp>18.0</ns3:atemp>
          </ns3:TrackPointExtension>
        </extensions>
      </trkpt>
      <trkpt lat="42.4947012774646282196044921875" lon="20.00517203472554683685302734375">
        <ele>1959.199951171875</ele>
        <time>2026-06-19T09:00:59.000Z</time>
        <extensions>
          <ns3:TrackPointExtension>
            <ns3:atemp>18.0</ns3:atemp>
          </ns3:TrackPointExtension>
        </extensions>
      </trkpt>
      <trkpt lat="42.4947012774646282196044921875" lon="20.00517203472554683685302734375">
        <ele>1959.199951171875</ele>
        <time>2026-06-19T09:01:00.000Z</time>
        <extensions>
          <ns3:TrackPointExtension>
            <ns3:atemp>18.0</ns3:atemp>
          </ns3:TrackPointExtension>
        </extensions>
      </trkpt>
      <trkpt lat="42.4947012774646282196044921875" lon="20.00517203472554683685302734375">
        <ele>1959.199951171875</ele>
        <time>2026-06-19T09:01:01.000Z</time>
        <extensions>
          <ns3:TrackPointExtension>
            <ns3:atemp>18.0</ns3:atemp>
          </ns3:TrackPointExtension>
        </extensions>
      </trkpt>
      <trkpt lat="42.4947012774646282196044921875" lon="20.00517203472554683685302734375">
        <ele>1959.199951171875</ele>
        <time>2026-06-19T09:01:02.000Z</time>
        <extensions>
          <ns3:TrackPointExtension>
            <ns3:atemp>18.0</ns3:atemp>
          </ns3:TrackPointExtension>
        </extensions>
      </trkpt>
      <trkpt lat="42.4947012774646282196044921875" lon="20.00517203472554683685302734375">
        <ele>1959.199951171875</ele>
        <time>2026-06-19T09:01:03.000Z</time>
        <extensions>
          <ns3:TrackPointExtension>
            <ns3:atemp>18.0</ns3:atemp>
          </ns3:TrackPointExtension>
        </extensions>
      </trkpt>
      <trkpt lat="42.4947012774646282196044921875" lon="20.00517203472554683685302734375">
        <ele>1959.199951171875</ele>
        <time>2026-06-19T09:01:04.000Z</time>
        <extensions>
          <ns3:TrackPointExtension>
            <ns3:atemp>18.0</ns3:atemp>
          </ns3:TrackPointExtension>
        </extensions>
      </trkpt>
      <trkpt lat="42.4947012774646282196044921875" lon="20.00517203472554683685302734375">
        <ele>1959.199951171875</ele>
        <time>2026-06-19T09:01:05.000Z</time>
        <extensions>
          <ns3:TrackPointExtension>
            <ns3:atemp>18.0</ns3:atemp>
          </ns3:TrackPointExtension>
        </extensions>
      </trkpt>
      <trkpt lat="42.4947012774646282196044921875" lon="20.00517203472554683685302734375">
        <ele>1959.199951171875</ele>
        <time>2026-06-19T09:01:06.000Z</time>
        <extensions>
          <ns3:TrackPointExtension>
            <ns3:atemp>18.0</ns3:atemp>
          </ns3:TrackPointExtension>
        </extensions>
      </trkpt>
      <trkpt lat="42.4947012774646282196044921875" lon="20.00517203472554683685302734375">
        <ele>1959.199951171875</ele>
        <time>2026-06-19T09:01:07.000Z</time>
        <extensions>
          <ns3:TrackPointExtension>
            <ns3:atemp>18.0</ns3:atemp>
          </ns3:TrackPointExtension>
        </extensions>
      </trkpt>
      <trkpt lat="42.4947012774646282196044921875" lon="20.00517203472554683685302734375">
        <ele>1959.199951171875</ele>
        <time>2026-06-19T09:01:08.000Z</time>
        <extensions>
          <ns3:TrackPointExtension>
            <ns3:atemp>18.0</ns3:atemp>
          </ns3:TrackPointExtension>
        </extensions>
      </trkpt>
      <trkpt lat="42.4947012774646282196044921875" lon="20.00517203472554683685302734375">
        <ele>1959</ele>
        <time>2026-06-19T09:01:09.000Z</time>
        <extensions>
          <ns3:TrackPointExtension>
            <ns3:atemp>18.0</ns3:atemp>
          </ns3:TrackPointExtension>
        </extensions>
      </trkpt>
      <trkpt lat="42.4947012774646282196044921875" lon="20.00517203472554683685302734375">
        <ele>1959</ele>
        <time>2026-06-19T09:01:10.000Z</time>
        <extensions>
          <ns3:TrackPointExtension>
            <ns3:atemp>18.0</ns3:atemp>
          </ns3:TrackPointExtension>
        </extensions>
      </trkpt>
      <trkpt lat="42.4947012774646282196044921875" lon="20.00517203472554683685302734375">
        <ele>1959</ele>
        <time>2026-06-19T09:01:11.000Z</time>
        <extensions>
          <ns3:TrackPointExtension>
            <ns3:atemp>18.0</ns3:atemp>
          </ns3:TrackPointExtension>
        </extensions>
      </trkpt>
      <trkpt lat="42.4947012774646282196044921875" lon="20.00517203472554683685302734375">
        <ele>1959</ele>
        <time>2026-06-19T09:01:12.000Z</time>
        <extensions>
          <ns3:TrackPointExtension>
            <ns3:atemp>18.0</ns3:atemp>
          </ns3:TrackPointExtension>
        </extensions>
      </trkpt>
      <trkpt lat="42.4947012774646282196044921875" lon="20.00517203472554683685302734375">
        <ele>1959</ele>
        <time>2026-06-19T09:01:13.000Z</time>
        <extensions>
          <ns3:TrackPointExtension>
            <ns3:atemp>18.0</ns3:atemp>
          </ns3:TrackPointExtension>
        </extensions>
      </trkpt>
      <trkpt lat="42.4947012774646282196044921875" lon="20.00517203472554683685302734375">
        <ele>1959</ele>
        <time>2026-06-19T09:01:14.000Z</time>
        <extensions>
          <ns3:TrackPointExtension>
            <ns3:atemp>18.0</ns3:atemp>
          </ns3:TrackPointExtension>
        </extensions>
      </trkpt>
      <trkpt lat="42.4947012774646282196044921875" lon="20.00517203472554683685302734375">
        <ele>1959</ele>
        <time>2026-06-19T09:01:15.000Z</time>
        <extensions>
          <ns3:TrackPointExtension>
            <ns3:atemp>18.0</ns3:atemp>
          </ns3:TrackPointExtension>
        </extensions>
      </trkpt>
      <trkpt lat="42.4947012774646282196044921875" lon="20.00517203472554683685302734375">
        <ele>1959</ele>
        <time>2026-06-19T09:01:16.000Z</time>
        <extensions>
          <ns3:TrackPointExtension>
            <ns3:atemp>18.0</ns3:atemp>
          </ns3:TrackPointExtension>
        </extensions>
      </trkpt>
      <trkpt lat="42.4947012774646282196044921875" lon="20.00517203472554683685302734375">
        <ele>1959</ele>
        <time>2026-06-19T09:01:17.000Z</time>
        <extensions>
          <ns3:TrackPointExtension>
            <ns3:atemp>18.0</ns3:atemp>
          </ns3:TrackPointExtension>
        </extensions>
      </trkpt>
      <trkpt lat="42.4947012774646282196044921875" lon="20.00517203472554683685302734375">
        <ele>1959.199951171875</ele>
        <time>2026-06-19T09:01:18.000Z</time>
        <extensions>
          <ns3:TrackPointExtension>
            <ns3:atemp>18.0</ns3:atemp>
          </ns3:TrackPointExtension>
        </extensions>
      </trkpt>
      <trkpt lat="42.4947012774646282196044921875" lon="20.00517203472554683685302734375">
        <ele>1959.199951171875</ele>
        <time>2026-06-19T09:01:19.000Z</time>
        <extensions>
          <ns3:TrackPointExtension>
            <ns3:atemp>18.0</ns3:atemp>
          </ns3:TrackPointExtension>
        </extensions>
      </trkpt>
      <trkpt lat="42.4947012774646282196044921875" lon="20.00517203472554683685302734375">
        <ele>1959.199951171875</ele>
        <time>2026-06-19T09:01:20.000Z</time>
        <extensions>
          <ns3:TrackPointExtension>
            <ns3:atemp>18.0</ns3:atemp>
          </ns3:TrackPointExtension>
        </extensions>
      </trkpt>
      <trkpt lat="42.4947012774646282196044921875" lon="20.00517203472554683685302734375">
        <ele>1959.199951171875</ele>
        <time>2026-06-19T09:01:21.000Z</time>
        <extensions>
          <ns3:TrackPointExtension>
            <ns3:atemp>18.0</ns3:atemp>
          </ns3:TrackPointExtension>
        </extensions>
      </trkpt>
      <trkpt lat="42.4947012774646282196044921875" lon="20.00517203472554683685302734375">
        <ele>1959.199951171875</ele>
        <time>2026-06-19T09:01:22.000Z</time>
        <extensions>
          <ns3:TrackPointExtension>
            <ns3:atemp>18.0</ns3:atemp>
          </ns3:TrackPointExtension>
        </extensions>
      </trkpt>
      <trkpt lat="42.4947012774646282196044921875" lon="20.00517203472554683685302734375">
        <ele>1959.199951171875</ele>
        <time>2026-06-19T09:01:23.000Z</time>
        <extensions>
          <ns3:TrackPointExtension>
            <ns3:atemp>18.0</ns3:atemp>
          </ns3:TrackPointExtension>
        </extensions>
      </trkpt>
      <trkpt lat="42.4947012774646282196044921875" lon="20.00517203472554683685302734375">
        <ele>1959.199951171875</ele>
        <time>2026-06-19T09:01:24.000Z</time>
        <extensions>
          <ns3:TrackPointExtension>
            <ns3:atemp>18.0</ns3:atemp>
          </ns3:TrackPointExtension>
        </extensions>
      </trkpt>
      <trkpt lat="42.4947012774646282196044921875" lon="20.00517203472554683685302734375">
        <ele>1959.199951171875</ele>
        <time>2026-06-19T09:01:25.000Z</time>
        <extensions>
          <ns3:TrackPointExtension>
            <ns3:atemp>18.0</ns3:atemp>
          </ns3:TrackPointExtension>
        </extensions>
      </trkpt>
      <trkpt lat="42.4947012774646282196044921875" lon="20.00517203472554683685302734375">
        <ele>1959.199951171875</ele>
        <time>2026-06-19T09:01:26.000Z</time>
        <extensions>
          <ns3:TrackPointExtension>
            <ns3:atemp>18.0</ns3:atemp>
          </ns3:TrackPointExtension>
        </extensions>
      </trkpt>
      <trkpt lat="42.4947012774646282196044921875" lon="20.00517203472554683685302734375">
        <ele>1959.199951171875</ele>
        <time>2026-06-19T09:01:27.000Z</time>
        <extensions>
          <ns3:TrackPointExtension>
            <ns3:atemp>18.0</ns3:atemp>
          </ns3:TrackPointExtension>
        </extensions>
      </trkpt>
      <trkpt lat="42.4947012774646282196044921875" lon="20.00517203472554683685302734375">
        <ele>1959.199951171875</ele>
        <time>2026-06-19T09:01:28.000Z</time>
        <extensions>
          <ns3:TrackPointExtension>
            <ns3:atemp>18.0</ns3:atemp>
          </ns3:TrackPointExtension>
        </extensions>
      </trkpt>
      <trkpt lat="42.4947012774646282196044921875" lon="20.00517203472554683685302734375">
        <ele>1959</ele>
        <time>2026-06-19T09:01:29.000Z</time>
        <extensions>
          <ns3:TrackPointExtension>
            <ns3:atemp>18.0</ns3:atemp>
          </ns3:TrackPointExtension>
        </extensions>
      </trkpt>
      <trkpt lat="42.4947012774646282196044921875" lon="20.00517203472554683685302734375">
        <ele>1959</ele>
        <time>2026-06-19T09:01:30.000Z</time>
        <extensions>
          <ns3:TrackPointExtension>
            <ns3:atemp>18.0</ns3:atemp>
          </ns3:TrackPointExtension>
        </extensions>
      </trkpt>
      <trkpt lat="42.4947012774646282196044921875" lon="20.00517203472554683685302734375">
        <ele>1959</ele>
        <time>2026-06-19T09:01:31.000Z</time>
        <extensions>
          <ns3:TrackPointExtension>
            <ns3:atemp>18.0</ns3:atemp>
          </ns3:TrackPointExtension>
        </extensions>
      </trkpt>
      <trkpt lat="42.4947012774646282196044921875" lon="20.00517203472554683685302734375">
        <ele>1959</ele>
        <time>2026-06-19T09:01:32.000Z</time>
        <extensions>
          <ns3:TrackPointExtension>
            <ns3:atemp>18.0</ns3:atemp>
          </ns3:TrackPointExtension>
        </extensions>
      </trkpt>
      <trkpt lat="42.4947012774646282196044921875" lon="20.00517203472554683685302734375">
        <ele>1958.800048828125</ele>
        <time>2026-06-19T09:01:33.000Z</time>
        <extensions>
          <ns3:TrackPointExtension>
            <ns3:atemp>18.0</ns3:atemp>
          </ns3:TrackPointExtension>
        </extensions>
      </trkpt>
      <trkpt lat="42.4947012774646282196044921875" lon="20.00517203472554683685302734375">
        <ele>1958.800048828125</ele>
        <time>2026-06-19T09:01:34.000Z</time>
        <extensions>
          <ns3:TrackPointExtension>
            <ns3:atemp>18.0</ns3:atemp>
          </ns3:TrackPointExtension>
        </extensions>
      </trkpt>
      <trkpt lat="42.4947012774646282196044921875" lon="20.00517203472554683685302734375">
        <ele>1958.800048828125</ele>
        <time>2026-06-19T09:01:35.000Z</time>
        <extensions>
          <ns3:TrackPointExtension>
            <ns3:atemp>18.0</ns3:atemp>
          </ns3:TrackPointExtension>
        </extensions>
      </trkpt>
      <trkpt lat="42.4947012774646282196044921875" lon="20.00517203472554683685302734375">
        <ele>1958.800048828125</ele>
        <time>2026-06-19T09:01:36.000Z</time>
        <extensions>
          <ns3:TrackPointExtension>
            <ns3:atemp>18.0</ns3:atemp>
          </ns3:TrackPointExtension>
        </extensions>
      </trkpt>
      <trkpt lat="42.4947012774646282196044921875" lon="20.00517203472554683685302734375">
        <ele>1958.800048828125</ele>
        <time>2026-06-19T09:01:37.000Z</time>
        <extensions>
          <ns3:TrackPointExtension>
            <ns3:atemp>18.0</ns3:atemp>
          </ns3:TrackPointExtension>
        </extensions>
      </trkpt>
      <trkpt lat="42.4947012774646282196044921875" lon="20.00517203472554683685302734375">
        <ele>1958.800048828125</ele>
        <time>2026-06-19T09:01:38.000Z</time>
        <extensions>
          <ns3:TrackPointExtension>
            <ns3:atemp>18.0</ns3:atemp>
          </ns3:TrackPointExtension>
        </extensions>
      </trkpt>
      <trkpt lat="42.4947012774646282196044921875" lon="20.00517203472554683685302734375">
        <ele>1958.800048828125</ele>
        <time>2026-06-19T09:01:39.000Z</time>
        <extensions>
          <ns3:TrackPointExtension>
            <ns3:atemp>18.0</ns3:atemp>
          </ns3:TrackPointExtension>
        </extensions>
      </trkpt>
      <trkpt lat="42.4947012774646282196044921875" lon="20.00517203472554683685302734375">
        <ele>1958.800048828125</ele>
        <time>2026-06-19T09:01:40.000Z</time>
        <extensions>
          <ns3:TrackPointExtension>
            <ns3:atemp>18.0</ns3:atemp>
          </ns3:TrackPointExtension>
        </extensions>
      </trkpt>
      <trkpt lat="42.4947012774646282196044921875" lon="20.00517203472554683685302734375">
        <ele>1959</ele>
        <time>2026-06-19T09:01:41.000Z</time>
        <extensions>
          <ns3:TrackPointExtension>
            <ns3:atemp>18.0</ns3:atemp>
          </ns3:TrackPointExtension>
        </extensions>
      </trkpt>
      <trkpt lat="42.4947012774646282196044921875" lon="20.00517203472554683685302734375">
        <ele>1959</ele>
        <time>2026-06-19T09:01:42.000Z</time>
        <extensions>
          <ns3:TrackPointExtension>
            <ns3:atemp>18.0</ns3:atemp>
          </ns3:TrackPointExtension>
        </extensions>
      </trkpt>
      <trkpt lat="42.4947012774646282196044921875" lon="20.00517203472554683685302734375">
        <ele>1959</ele>
        <time>2026-06-19T09:01:43.000Z</time>
        <extensions>
          <ns3:TrackPointExtension>
            <ns3:atemp>18.0</ns3:atemp>
          </ns3:TrackPointExtension>
        </extensions>
      </trkpt>
      <trkpt lat="42.4947012774646282196044921875" lon="20.00517203472554683685302734375">
        <ele>1958.800048828125</ele>
        <time>2026-06-19T09:01:44.000Z</time>
        <extensions>
          <ns3:TrackPointExtension>
            <ns3:atemp>18.0</ns3:atemp>
          </ns3:TrackPointExtension>
        </extensions>
      </trkpt>
      <trkpt lat="42.4947012774646282196044921875" lon="20.00517203472554683685302734375">
        <ele>1958.800048828125</ele>
        <time>2026-06-19T09:01:45.000Z</time>
        <extensions>
          <ns3:TrackPointExtension>
            <ns3:atemp>18.0</ns3:atemp>
          </ns3:TrackPointExtension>
        </extensions>
      </trkpt>
      <trkpt lat="42.4947012774646282196044921875" lon="20.00517203472554683685302734375">
        <ele>1958.800048828125</ele>
        <time>2026-06-19T09:01:46.000Z</time>
        <extensions>
          <ns3:TrackPointExtension>
            <ns3:atemp>18.0</ns3:atemp>
          </ns3:TrackPointExtension>
        </extensions>
      </trkpt>
      <trkpt lat="42.4947012774646282196044921875" lon="20.00517203472554683685302734375">
        <ele>1958.800048828125</ele>
        <time>2026-06-19T09:01:47.000Z</time>
        <extensions>
          <ns3:TrackPointExtension>
            <ns3:atemp>18.0</ns3:atemp>
          </ns3:TrackPointExtension>
        </extensions>
      </trkpt>
      <trkpt lat="42.4947012774646282196044921875" lon="20.00517203472554683685302734375">
        <ele>1958.800048828125</ele>
        <time>2026-06-19T09:01:48.000Z</time>
        <extensions>
          <ns3:TrackPointExtension>
            <ns3:atemp>18.0</ns3:atemp>
          </ns3:TrackPointExtension>
        </extensions>
      </trkpt>
      <trkpt lat="42.4947012774646282196044921875" lon="20.00517203472554683685302734375">
        <ele>1958.800048828125</ele>
        <time>2026-06-19T09:01:49.000Z</time>
        <extensions>
          <ns3:TrackPointExtension>
            <ns3:atemp>18.0</ns3:atemp>
          </ns3:TrackPointExtension>
        </extensions>
      </trkpt>
      <trkpt lat="42.4947012774646282196044921875" lon="20.00517203472554683685302734375">
        <ele>1958.800048828125</ele>
        <time>2026-06-19T09:01:50.000Z</time>
        <extensions>
          <ns3:TrackPointExtension>
            <ns3:atemp>18.0</ns3:atemp>
          </ns3:TrackPointExtension>
        </extensions>
      </trkpt>
      <trkpt lat="42.4947012774646282196044921875" lon="20.00517203472554683685302734375">
        <ele>1958.800048828125</ele>
        <time>2026-06-19T09:01:51.000Z</time>
        <extensions>
          <ns3:TrackPointExtension>
            <ns3:atemp>18.0</ns3:atemp>
          </ns3:TrackPointExtension>
        </extensions>
      </trkpt>
      <trkpt lat="42.4947012774646282196044921875" lon="20.00517203472554683685302734375">
        <ele>1958.5999755859375</ele>
        <time>2026-06-19T09:01:52.000Z</time>
        <extensions>
          <ns3:TrackPointExtension>
            <ns3:atemp>18.0</ns3:atemp>
          </ns3:TrackPointExtension>
        </extensions>
      </trkpt>
      <trkpt lat="42.4947012774646282196044921875" lon="20.00517203472554683685302734375">
        <ele>1958.5999755859375</ele>
        <time>2026-06-19T09:01:53.000Z</time>
        <extensions>
          <ns3:TrackPointExtension>
            <ns3:atemp>18.0</ns3:atemp>
          </ns3:TrackPointExtension>
        </extensions>
      </trkpt>
      <trkpt lat="42.4947012774646282196044921875" lon="20.00517203472554683685302734375">
        <ele>1958.5999755859375</ele>
        <time>2026-06-19T09:01:54.000Z</time>
        <extensions>
          <ns3:TrackPointExtension>
            <ns3:atemp>18.0</ns3:atemp>
          </ns3:TrackPointExtension>
        </extensions>
      </trkpt>
      <trkpt lat="42.4947012774646282196044921875" lon="20.00517203472554683685302734375">
        <ele>1958.5999755859375</ele>
        <time>2026-06-19T09:01:55.000Z</time>
        <extensions>
          <ns3:TrackPointExtension>
            <ns3:atemp>18.0</ns3:atemp>
          </ns3:TrackPointExtension>
        </extensions>
      </trkpt>
      <trkpt lat="42.4947012774646282196044921875" lon="20.00517203472554683685302734375">
        <ele>1958.5999755859375</ele>
        <time>2026-06-19T09:01:56.000Z</time>
        <extensions>
          <ns3:TrackPointExtension>
            <ns3:atemp>18.0</ns3:atemp>
          </ns3:TrackPointExtension>
        </extensions>
      </trkpt>
      <trkpt lat="42.4947012774646282196044921875" lon="20.00517203472554683685302734375">
        <ele>1958.800048828125</ele>
        <time>2026-06-19T09:01:57.000Z</time>
        <extensions>
          <ns3:TrackPointExtension>
            <ns3:atemp>18.0</ns3:atemp>
          </ns3:TrackPointExtension>
        </extensions>
      </trkpt>
      <trkpt lat="42.4947012774646282196044921875" lon="20.00517203472554683685302734375">
        <ele>1958.800048828125</ele>
        <time>2026-06-19T09:01:58.000Z</time>
        <extensions>
          <ns3:TrackPointExtension>
            <ns3:atemp>18.0</ns3:atemp>
          </ns3:TrackPointExtension>
        </extensions>
      </trkpt>
      <trkpt lat="42.4947012774646282196044921875" lon="20.00517203472554683685302734375">
        <ele>1958.800048828125</ele>
        <time>2026-06-19T09:01:59.000Z</time>
        <extensions>
          <ns3:TrackPointExtension>
            <ns3:atemp>18.0</ns3:atemp>
          </ns3:TrackPointExtension>
        </extensions>
      </trkpt>
      <trkpt lat="42.4947012774646282196044921875" lon="20.00517203472554683685302734375">
        <ele>1958.800048828125</ele>
        <time>2026-06-19T09:02:00.000Z</time>
        <extensions>
          <ns3:TrackPointExtension>
            <ns3:atemp>18.0</ns3:atemp>
          </ns3:TrackPointExtension>
        </extensions>
      </trkpt>
      <trkpt lat="42.4947012774646282196044921875" lon="20.00517203472554683685302734375">
        <ele>1959</ele>
        <time>2026-06-19T09:02:01.000Z</time>
        <extensions>
          <ns3:TrackPointExtension>
            <ns3:atemp>18.0</ns3:atemp>
          </ns3:TrackPointExtension>
        </extensions>
      </trkpt>
      <trkpt lat="42.4947012774646282196044921875" lon="20.00517203472554683685302734375">
        <ele>1959</ele>
        <time>2026-06-19T09:02:02.000Z</time>
        <extensions>
          <ns3:TrackPointExtension>
            <ns3:atemp>18.0</ns3:atemp>
          </ns3:TrackPointExtension>
        </extensions>
      </trkpt>
      <trkpt lat="42.4947012774646282196044921875" lon="20.00517203472554683685302734375">
        <ele>1959</ele>
        <time>2026-06-19T09:02:03.000Z</time>
        <extensions>
          <ns3:TrackPointExtension>
            <ns3:atemp>18.0</ns3:atemp>
          </ns3:TrackPointExtension>
        </extensions>
      </trkpt>
      <trkpt lat="42.4947012774646282196044921875" lon="20.00517203472554683685302734375">
        <ele>1959</ele>
        <time>2026-06-19T09:02:04.000Z</time>
        <extensions>
          <ns3:TrackPointExtension>
            <ns3:atemp>18.0</ns3:atemp>
          </ns3:TrackPointExtension>
        </extensions>
      </trkpt>
      <trkpt lat="42.4947012774646282196044921875" lon="20.00517203472554683685302734375">
        <ele>1959.199951171875</ele>
        <time>2026-06-19T09:02:05.000Z</time>
        <extensions>
          <ns3:TrackPointExtension>
            <ns3:atemp>18.0</ns3:atemp>
          </ns3:TrackPointExtension>
        </extensions>
      </trkpt>
      <trkpt lat="42.4947012774646282196044921875" lon="20.00517203472554683685302734375">
        <ele>1959.199951171875</ele>
        <time>2026-06-19T09:02:06.000Z</time>
        <extensions>
          <ns3:TrackPointExtension>
            <ns3:atemp>18.0</ns3:atemp>
          </ns3:TrackPointExtension>
        </extensions>
      </trkpt>
      <trkpt lat="42.4947012774646282196044921875" lon="20.00517203472554683685302734375">
        <ele>1959.199951171875</ele>
        <time>2026-06-19T09:02:07.000Z</time>
        <extensions>
          <ns3:TrackPointExtension>
            <ns3:atemp>18.0</ns3:atemp>
          </ns3:TrackPointExtension>
        </extensions>
      </trkpt>
      <trkpt lat="42.4947012774646282196044921875" lon="20.00517203472554683685302734375">
        <ele>1959.199951171875</ele>
        <time>2026-06-19T09:02:08.000Z</time>
        <extensions>
          <ns3:TrackPointExtension>
            <ns3:atemp>18.0</ns3:atemp>
          </ns3:TrackPointExtension>
        </extensions>
      </trkpt>
      <trkpt lat="42.4947012774646282196044921875" lon="20.00517203472554683685302734375">
        <ele>1959.199951171875</ele>
        <time>2026-06-19T09:02:09.000Z</time>
        <extensions>
          <ns3:TrackPointExtension>
            <ns3:atemp>18.0</ns3:atemp>
          </ns3:TrackPointExtension>
        </extensions>
      </trkpt>
      <trkpt lat="42.4947012774646282196044921875" lon="20.00517203472554683685302734375">
        <ele>1959.199951171875</ele>
        <time>2026-06-19T09:02:10.000Z</time>
        <extensions>
          <ns3:TrackPointExtension>
            <ns3:atemp>18.0</ns3:atemp>
          </ns3:TrackPointExtension>
        </extensions>
      </trkpt>
      <trkpt lat="42.4947012774646282196044921875" lon="20.00517203472554683685302734375">
        <ele>1959.4000244140625</ele>
        <time>2026-06-19T09:02:11.000Z</time>
        <extensions>
          <ns3:TrackPointExtension>
            <ns3:atemp>18.0</ns3:atemp>
          </ns3:TrackPointExtension>
        </extensions>
      </trkpt>
      <trkpt lat="42.4947012774646282196044921875" lon="20.00517203472554683685302734375">
        <ele>1959.4000244140625</ele>
        <time>2026-06-19T09:02:12.000Z</time>
        <extensions>
          <ns3:TrackPointExtension>
            <ns3:atemp>18.0</ns3:atemp>
          </ns3:TrackPointExtension>
        </extensions>
      </trkpt>
      <trkpt lat="42.4947012774646282196044921875" lon="20.00517203472554683685302734375">
        <ele>1959.4000244140625</ele>
        <time>2026-06-19T09:02:13.000Z</time>
        <extensions>
          <ns3:TrackPointExtension>
            <ns3:atemp>18.0</ns3:atemp>
          </ns3:TrackPointExtension>
        </extensions>
      </trkpt>
      <trkpt lat="42.4947012774646282196044921875" lon="20.00517203472554683685302734375">
        <ele>1959.4000244140625</ele>
        <time>2026-06-19T09:02:14.000Z</time>
        <extensions>
          <ns3:TrackPointExtension>
            <ns3:atemp>18.0</ns3:atemp>
          </ns3:TrackPointExtension>
        </extensions>
      </trkpt>
      <trkpt lat="42.4947012774646282196044921875" lon="20.00517203472554683685302734375">
        <ele>1959.4000244140625</ele>
        <time>2026-06-19T09:02:15.000Z</time>
        <extensions>
          <ns3:TrackPointExtension>
            <ns3:atemp>18.0</ns3:atemp>
          </ns3:TrackPointExtension>
        </extensions>
      </trkpt>
      <trkpt lat="42.4947012774646282196044921875" lon="20.00517203472554683685302734375">
        <ele>1959.4000244140625</ele>
        <time>2026-06-19T09:02:16.000Z</time>
        <extensions>
          <ns3:TrackPointExtension>
            <ns3:atemp>18.0</ns3:atemp>
          </ns3:TrackPointExtension>
        </extensions>
      </trkpt>
      <trkpt lat="42.4947012774646282196044921875" lon="20.00517203472554683685302734375">
        <ele>1959.4000244140625</ele>
        <time>2026-06-19T09:02:17.000Z</time>
        <extensions>
          <ns3:TrackPointExtension>
            <ns3:atemp>18.0</ns3:atemp>
          </ns3:TrackPointExtension>
        </extensions>
      </trkpt>
      <trkpt lat="42.4947012774646282196044921875" lon="20.00517203472554683685302734375">
        <ele>1959.4000244140625</ele>
        <time>2026-06-19T09:02:18.000Z</time>
        <extensions>
          <ns3:TrackPointExtension>
            <ns3:atemp>18.0</ns3:atemp>
          </ns3:TrackPointExtension>
        </extensions>
      </trkpt>
      <trkpt lat="42.4947012774646282196044921875" lon="20.00517203472554683685302734375">
        <ele>1959.4000244140625</ele>
        <time>2026-06-19T09:02:19.000Z</time>
        <extensions>
          <ns3:TrackPointExtension>
            <ns3:atemp>18.0</ns3:atemp>
          </ns3:TrackPointExtension>
        </extensions>
      </trkpt>
      <trkpt lat="42.4947012774646282196044921875" lon="20.00517203472554683685302734375">
        <ele>1959.4000244140625</ele>
        <time>2026-06-19T09:02:20.000Z</time>
        <extensions>
          <ns3:TrackPointExtension>
            <ns3:atemp>18.0</ns3:atemp>
          </ns3:TrackPointExtension>
        </extensions>
      </trkpt>
      <trkpt lat="42.4947012774646282196044921875" lon="20.00517203472554683685302734375">
        <ele>1959.4000244140625</ele>
        <time>2026-06-19T09:02:21.000Z</time>
        <extensions>
          <ns3:TrackPointExtension>
            <ns3:atemp>18.0</ns3:atemp>
          </ns3:TrackPointExtension>
        </extensions>
      </trkpt>
      <trkpt lat="42.4947012774646282196044921875" lon="20.00517203472554683685302734375">
        <ele>1959.4000244140625</ele>
        <time>2026-06-19T09:02:22.000Z</time>
        <extensions>
          <ns3:TrackPointExtension>
            <ns3:atemp>18.0</ns3:atemp>
          </ns3:TrackPointExtension>
        </extensions>
      </trkpt>
      <trkpt lat="42.4947012774646282196044921875" lon="20.00517203472554683685302734375">
        <ele>1959.4000244140625</ele>
        <time>2026-06-19T09:02:23.000Z</time>
        <extensions>
          <ns3:TrackPointExtension>
            <ns3:atemp>18.0</ns3:atemp>
          </ns3:TrackPointExtension>
        </extensions>
      </trkpt>
      <trkpt lat="42.4947012774646282196044921875" lon="20.00517203472554683685302734375">
        <ele>1959.4000244140625</ele>
        <time>2026-06-19T09:02:24.000Z</time>
        <extensions>
          <ns3:TrackPointExtension>
            <ns3:atemp>18.0</ns3:atemp>
          </ns3:TrackPointExtension>
        </extensions>
      </trkpt>
      <trkpt lat="42.4947012774646282196044921875" lon="20.00517203472554683685302734375">
        <ele>1959.4000244140625</ele>
        <time>2026-06-19T09:02:25.000Z</time>
        <extensions>
          <ns3:TrackPointExtension>
            <ns3:atemp>18.0</ns3:atemp>
          </ns3:TrackPointExtension>
        </extensions>
      </trkpt>
      <trkpt lat="42.4947012774646282196044921875" lon="20.00517203472554683685302734375">
        <ele>1959.4000244140625</ele>
        <time>2026-06-19T09:02:26.000Z</time>
        <extensions>
          <ns3:TrackPointExtension>
            <ns3:atemp>18.0</ns3:atemp>
          </ns3:TrackPointExtension>
        </extensions>
      </trkpt>
      <trkpt lat="42.4947012774646282196044921875" lon="20.00517203472554683685302734375">
        <ele>1959.4000244140625</ele>
        <time>2026-06-19T09:02:27.000Z</time>
        <extensions>
          <ns3:TrackPointExtension>
            <ns3:atemp>18.0</ns3:atemp>
          </ns3:TrackPointExtension>
        </extensions>
      </trkpt>
      <trkpt lat="42.4947012774646282196044921875" lon="20.00517203472554683685302734375">
        <ele>1959.4000244140625</ele>
        <time>2026-06-19T09:02:28.000Z</time>
        <extensions>
          <ns3:TrackPointExtension>
            <ns3:atemp>18.0</ns3:atemp>
          </ns3:TrackPointExtension>
        </extensions>
      </trkpt>
      <trkpt lat="42.4947012774646282196044921875" lon="20.00517203472554683685302734375">
        <ele>1959.4000244140625</ele>
        <time>2026-06-19T09:02:29.000Z</time>
        <extensions>
          <ns3:TrackPointExtension>
            <ns3:atemp>18.0</ns3:atemp>
          </ns3:TrackPointExtension>
        </extensions>
      </trkpt>
      <trkpt lat="42.4947012774646282196044921875" lon="20.00517203472554683685302734375">
        <ele>1959.4000244140625</ele>
        <time>2026-06-19T09:02:30.000Z</time>
        <extensions>
          <ns3:TrackPointExtension>
            <ns3:atemp>18.0</ns3:atemp>
          </ns3:TrackPointExtension>
        </extensions>
      </trkpt>
      <trkpt lat="42.4947012774646282196044921875" lon="20.00517203472554683685302734375">
        <ele>1959.4000244140625</ele>
        <time>2026-06-19T09:02:31.000Z</time>
        <extensions>
          <ns3:TrackPointExtension>
            <ns3:atemp>18.0</ns3:atemp>
          </ns3:TrackPointExtension>
        </extensions>
      </trkpt>
      <trkpt lat="42.4947012774646282196044921875" lon="20.00517203472554683685302734375">
        <ele>1959.4000244140625</ele>
        <time>2026-06-19T09:02:32.000Z</time>
        <extensions>
          <ns3:TrackPointExtension>
            <ns3:atemp>18.0</ns3:atemp>
          </ns3:TrackPointExtension>
        </extensions>
      </trkpt>
      <trkpt lat="42.4947012774646282196044921875" lon="20.00517203472554683685302734375">
        <ele>1959.4000244140625</ele>
        <time>2026-06-19T09:02:33.000Z</time>
        <extensions>
          <ns3:TrackPointExtension>
            <ns3:atemp>18.0</ns3:atemp>
          </ns3:TrackPointExtension>
        </extensions>
      </trkpt>
      <trkpt lat="42.4947012774646282196044921875" lon="20.00517203472554683685302734375">
        <ele>1959.4000244140625</ele>
        <time>2026-06-19T09:02:34.000Z</time>
        <extensions>
          <ns3:TrackPointExtension>
            <ns3:atemp>18.0</ns3:atemp>
          </ns3:TrackPointExtension>
        </extensions>
      </trkpt>
      <trkpt lat="42.4947012774646282196044921875" lon="20.00517203472554683685302734375">
        <ele>1959.4000244140625</ele>
        <time>2026-06-19T09:02:35.000Z</time>
        <extensions>
          <ns3:TrackPointExtension>
            <ns3:atemp>18.0</ns3:atemp>
          </ns3:TrackPointExtension>
        </extensions>
      </trkpt>
      <trkpt lat="42.4947012774646282196044921875" lon="20.00517203472554683685302734375">
        <ele>1959.4000244140625</ele>
        <time>2026-06-19T09:02:36.000Z</time>
        <extensions>
          <ns3:TrackPointExtension>
            <ns3:atemp>18.0</ns3:atemp>
          </ns3:TrackPointExtension>
        </extensions>
      </trkpt>
      <trkpt lat="42.4947012774646282196044921875" lon="20.00517203472554683685302734375">
        <ele>1959.4000244140625</ele>
        <time>2026-06-19T09:02:37.000Z</time>
        <extensions>
          <ns3:TrackPointExtension>
            <ns3:atemp>18.0</ns3:atemp>
          </ns3:TrackPointExtension>
        </extensions>
      </trkpt>
      <trkpt lat="42.4947012774646282196044921875" lon="20.00517203472554683685302734375">
        <ele>1959.4000244140625</ele>
        <time>2026-06-19T09:02:38.000Z</time>
        <extensions>
          <ns3:TrackPointExtension>
            <ns3:atemp>18.0</ns3:atemp>
          </ns3:TrackPointExtension>
        </extensions>
      </trkpt>
      <trkpt lat="42.4947012774646282196044921875" lon="20.00517203472554683685302734375">
        <ele>1959.4000244140625</ele>
        <time>2026-06-19T09:02:39.000Z</time>
        <extensions>
          <ns3:TrackPointExtension>
            <ns3:atemp>18.0</ns3:atemp>
          </ns3:TrackPointExtension>
        </extensions>
      </trkpt>
      <trkpt lat="42.4947012774646282196044921875" lon="20.00517203472554683685302734375">
        <ele>1959.4000244140625</ele>
        <time>2026-06-19T09:02:40.000Z</time>
        <extensions>
          <ns3:TrackPointExtension>
            <ns3:atemp>18.0</ns3:atemp>
          </ns3:TrackPointExtension>
        </extensions>
      </trkpt>
      <trkpt lat="42.4947012774646282196044921875" lon="20.00517203472554683685302734375">
        <ele>1959.4000244140625</ele>
        <time>2026-06-19T09:02:41.000Z</time>
        <extensions>
          <ns3:TrackPointExtension>
            <ns3:atemp>18.0</ns3:atemp>
          </ns3:TrackPointExtension>
        </extensions>
      </trkpt>
      <trkpt lat="42.4947012774646282196044921875" lon="20.00517203472554683685302734375">
        <ele>1959.4000244140625</ele>
        <time>2026-06-19T09:02:42.000Z</time>
        <extensions>
          <ns3:TrackPointExtension>
            <ns3:atemp>18.0</ns3:atemp>
          </ns3:TrackPointExtension>
        </extensions>
      </trkpt>
      <trkpt lat="42.4947012774646282196044921875" lon="20.00517203472554683685302734375">
        <ele>1959.4000244140625</ele>
        <time>2026-06-19T09:02:43.000Z</time>
        <extensions>
          <ns3:TrackPointExtension>
            <ns3:atemp>18.0</ns3:atemp>
          </ns3:TrackPointExtension>
        </extensions>
      </trkpt>
      <trkpt lat="42.494712509214878082275390625" lon="20.00517538748681545257568359375">
        <ele>1959.4000244140625</ele>
        <time>2026-06-19T09:02:44.000Z</time>
        <extensions>
          <ns3:TrackPointExtension>
            <ns3:atemp>18.0</ns3:atemp>
          </ns3:TrackPointExtension>
        </extensions>
      </trkpt>
      <trkpt lat="42.494708485901355743408203125" lon="20.0051628984510898590087890625">
        <ele>1959.4000244140625</ele>
        <time>2026-06-19T09:02:45.000Z</time>
        <extensions>
          <ns3:TrackPointExtension>
            <ns3:atemp>18.0</ns3:atemp>
          </ns3:TrackPointExtension>
        </extensions>
      </trkpt>
      <trkpt lat="42.49470605514943599700927734375" lon="20.00515359453856945037841796875">
        <ele>1959.4000244140625</ele>
        <time>2026-06-19T09:02:46.000Z</time>
        <extensions>
          <ns3:TrackPointExtension>
            <ns3:atemp>18.0</ns3:atemp>
          </ns3:TrackPointExtension>
        </extensions>
      </trkpt>
      <trkpt lat="42.49470236711204051971435546875" lon="20.005152337253093719482421875">
        <ele>1959.4000244140625</ele>
        <time>2026-06-19T09:02:47.000Z</time>
        <extensions>
          <ns3:TrackPointExtension>
            <ns3:atemp>18.0</ns3:atemp>
          </ns3:TrackPointExtension>
        </extensions>
      </trkpt>
      <trkpt lat="42.49470169655978679656982421875" lon="20.00514328479766845703125">
        <ele>1959.4000244140625</ele>
        <time>2026-06-19T09:02:48.000Z</time>
        <extensions>
          <ns3:TrackPointExtension>
            <ns3:atemp>18.0</ns3:atemp>
          </ns3:TrackPointExtension>
        </extensions>
      </trkpt>
      <trkpt lat="42.4947049655020236968994140625" lon="20.00514722429215908050537109375">
        <ele>1959.4000244140625</ele>
        <time>2026-06-19T09:02:49.000Z</time>
        <extensions>
          <ns3:TrackPointExtension>
            <ns3:atemp>18.0</ns3:atemp>
          </ns3:TrackPointExtension>
        </extensions>
      </trkpt>
      <trkpt lat="42.49470991082489490509033203125" lon="20.00514739193022251129150390625">
        <ele>1959.4000244140625</ele>
        <time>2026-06-19T09:02:50.000Z</time>
        <extensions>
          <ns3:TrackPointExtension>
            <ns3:atemp>18.0</ns3:atemp>
          </ns3:TrackPointExtension>
        </extensions>
      </trkpt>
      <trkpt lat="42.4947083182632923126220703125" lon="20.00514873303472995758056640625">
        <ele>1959.4000244140625</ele>
        <time>2026-06-19T09:02:51.000Z</time>
        <extensions>
          <ns3:TrackPointExtension>
            <ns3:atemp>18.0</ns3:atemp>
          </ns3:TrackPointExtension>
        </extensions>
      </trkpt>
      <trkpt lat="42.49470823444426059722900390625" lon="20.00514873303472995758056640625">
        <ele>1959.4000244140625</ele>
        <time>2026-06-19T09:02:52.000Z</time>
        <extensions>
          <ns3:TrackPointExtension>
            <ns3:atemp>18.0</ns3:atemp>
          </ns3:TrackPointExtension>
        </extensions>
      </trkpt>
      <trkpt lat="42.49470823444426059722900390625" lon="20.00514873303472995758056640625">
        <ele>1959.4000244140625</ele>
        <time>2026-06-19T09:02:53.000Z</time>
        <extensions>
          <ns3:TrackPointExtension>
            <ns3:atemp>18.0</ns3:atemp>
          </ns3:TrackPointExtension>
        </extensions>
      </trkpt>
      <trkpt lat="42.49470823444426059722900390625" lon="20.00514873303472995758056640625">
        <ele>1959.4000244140625</ele>
        <time>2026-06-19T09:02:54.000Z</time>
        <extensions>
          <ns3:TrackPointExtension>
            <ns3:atemp>18.0</ns3:atemp>
          </ns3:TrackPointExtension>
        </extensions>
      </trkpt>
      <trkpt lat="42.49470823444426059722900390625" lon="20.00514873303472995758056640625">
        <ele>1959.4000244140625</ele>
        <time>2026-06-19T09:02:55.000Z</time>
        <extensions>
          <ns3:TrackPointExtension>
            <ns3:atemp>18.0</ns3:atemp>
          </ns3:TrackPointExtension>
        </extensions>
      </trkpt>
      <trkpt lat="42.49470823444426059722900390625" lon="20.00514873303472995758056640625">
        <ele>1959.4000244140625</ele>
        <time>2026-06-19T09:02:56.000Z</time>
        <extensions>
          <ns3:TrackPointExtension>
            <ns3:atemp>18.0</ns3:atemp>
          </ns3:TrackPointExtension>
        </extensions>
      </trkpt>
      <trkpt lat="42.49470823444426059722900390625" lon="20.00514873303472995758056640625">
        <ele>1959.4000244140625</ele>
        <time>2026-06-19T09:02:57.000Z</time>
        <extensions>
          <ns3:TrackPointExtension>
            <ns3:atemp>18.0</ns3:atemp>
          </ns3:TrackPointExtension>
        </extensions>
      </trkpt>
      <trkpt lat="42.49470773153007030487060546875" lon="20.00514839775860309600830078125">
        <ele>1959.4000244140625</ele>
        <time>2026-06-19T09:02:58.000Z</time>
        <extensions>
          <ns3:TrackPointExtension>
            <ns3:atemp>18.0</ns3:atemp>
          </ns3:TrackPointExtension>
        </extensions>
      </trkpt>
      <trkpt lat="42.49471292831003665924072265625" lon="20.00514018349349498748779296875">
        <ele>1959.4000244140625</ele>
        <time>2026-06-19T09:02:59.000Z</time>
        <extensions>
          <ns3:TrackPointExtension>
            <ns3:atemp>18.0</ns3:atemp>
          </ns3:TrackPointExtension>
        </extensions>
      </trkpt>
      <trkpt lat="42.49473027884960174560546875" lon="20.00513230450451374053955078125">
        <ele>1959.5999755859375</ele>
        <time>2026-06-19T09:03:00.000Z</time>
        <extensions>
          <ns3:TrackPointExtension>
            <ns3:atemp>18.0</ns3:atemp>
          </ns3:TrackPointExtension>
        </extensions>
      </trkpt>
      <trkpt lat="42.49474226497113704681396484375" lon="20.00513146631419658660888671875">
        <ele>1959.5999755859375</ele>
        <time>2026-06-19T09:03:01.000Z</time>
        <extensions>
          <ns3:TrackPointExtension>
            <ns3:atemp>18.0</ns3:atemp>
          </ns3:TrackPointExtension>
        </extensions>
      </trkpt>
      <trkpt lat="42.49474813230335712432861328125" lon="20.00513968057930469512939453125">
        <ele>1959.4000244140625</ele>
        <time>2026-06-19T09:03:02.000Z</time>
        <extensions>
          <ns3:TrackPointExtension>
            <ns3:atemp>18.0</ns3:atemp>
          </ns3:TrackPointExtension>
        </extensions>
      </trkpt>
      <trkpt lat="42.4947564303874969482421875" lon="20.005153678357601165771484375">
        <ele>1959.4000244140625</ele>
        <time>2026-06-19T09:03:03.000Z</time>
        <extensions>
          <ns3:TrackPointExtension>
            <ns3:atemp>18.0</ns3:atemp>
          </ns3:TrackPointExtension>
        </extensions>
      </trkpt>
      <trkpt lat="42.4947669915854930877685546875" lon="20.00516750849783420562744140625">
        <ele>1959.4000244140625</ele>
        <time>2026-06-19T09:03:04.000Z</time>
        <extensions>
          <ns3:TrackPointExtension>
            <ns3:atemp>18.0</ns3:atemp>
          </ns3:TrackPointExtension>
        </extensions>
      </trkpt>
      <trkpt lat="42.49477763660252094268798828125" lon="20.0051803328096866607666015625">
        <ele>1959.4000244140625</ele>
        <time>2026-06-19T09:03:05.000Z</time>
        <extensions>
          <ns3:TrackPointExtension>
            <ns3:atemp>18.0</ns3:atemp>
          </ns3:TrackPointExtension>
        </extensions>
      </trkpt>
      <trkpt lat="42.4947886168956756591796875" lon="20.00518896616995334625244140625">
        <ele>1959.4000244140625</ele>
        <time>2026-06-19T09:03:06.000Z</time>
        <extensions>
          <ns3:TrackPointExtension>
            <ns3:atemp>18.0</ns3:atemp>
          </ns3:TrackPointExtension>
        </extensions>
      </trkpt>
      <trkpt lat="42.4948055483400821685791015625" lon="20.0051970966160297393798828125">
        <ele>1959.4000244140625</ele>
        <time>2026-06-19T09:03:07.000Z</time>
        <extensions>
          <ns3:TrackPointExtension>
            <ns3:atemp>18.0</ns3:atemp>
          </ns3:TrackPointExtension>
        </extensions>
      </trkpt>
      <trkpt lat="42.4948223121464252471923828125" lon="20.00521277077496051788330078125">
        <ele>1959.4000244140625</ele>
        <time>2026-06-19T09:03:08.000Z</time>
        <extensions>
          <ns3:TrackPointExtension>
            <ns3:atemp>18.0</ns3:atemp>
          </ns3:TrackPointExtension>
        </extensions>
      </trkpt>
      <trkpt lat="42.49483681283891201019287109375" lon="20.00522886402904987335205078125">
        <ele>1959.4000244140625</ele>
        <time>2026-06-19T09:03:09.000Z</time>
        <extensions>
          <ns3:TrackPointExtension>
            <ns3:atemp>18.0</ns3:atemp>
          </ns3:TrackPointExtension>
        </extensions>
      </trkpt>
      <trkpt lat="42.494853995740413665771484375" lon="20.00524261035025119781494140625">
        <ele>1959.4000244140625</ele>
        <time>2026-06-19T09:03:10.000Z</time>
        <extensions>
          <ns3:TrackPointExtension>
            <ns3:atemp>18.0</ns3:atemp>
          </ns3:TrackPointExtension>
        </extensions>
      </trkpt>
      <trkpt lat="42.494871430099010467529296875" lon="20.00526130199432373046875">
        <ele>1959.4000244140625</ele>
        <time>2026-06-19T09:03:11.000Z</time>
        <extensions>
          <ns3:TrackPointExtension>
            <ns3:atemp>18.0</ns3:atemp>
          </ns3:TrackPointExtension>
        </extensions>
      </trkpt>
      <trkpt lat="42.49489045701920986175537109375" lon="20.00528351403772830963134765625">
        <ele>1959.4000244140625</ele>
        <time>2026-06-19T09:03:12.000Z</time>
        <extensions>
          <ns3:TrackPointExtension>
            <ns3:atemp>18.0</ns3:atemp>
          </ns3:TrackPointExtension>
        </extensions>
      </trkpt>
      <trkpt lat="42.49490864574909210205078125" lon="20.00530648045241832733154296875">
        <ele>1959.5999755859375</ele>
        <time>2026-06-19T09:03:13.000Z</time>
        <extensions>
          <ns3:TrackPointExtension>
            <ns3:atemp>18.0</ns3:atemp>
          </ns3:TrackPointExtension>
        </extensions>
      </trkpt>
      <trkpt lat="42.49492465518414974212646484375" lon="20.0053268484771251678466796875">
        <ele>1959.5999755859375</ele>
        <time>2026-06-19T09:03:14.000Z</time>
        <extensions>
          <ns3:TrackPointExtension>
            <ns3:atemp>18.0</ns3:atemp>
          </ns3:TrackPointExtension>
        </extensions>
      </trkpt>
      <trkpt lat="42.49494376592338085174560546875" lon="20.00534713268280029296875">
        <ele>1959.800048828125</ele>
        <time>2026-06-19T09:03:15.000Z</time>
        <extensions>
          <ns3:TrackPointExtension>
            <ns3:atemp>18.0</ns3:atemp>
          </ns3:TrackPointExtension>
        </extensions>
      </trkpt>
      <trkpt lat="42.49496455304324626922607421875" lon="20.0053699314594268798828125">
        <ele>1959.800048828125</ele>
        <time>2026-06-19T09:03:16.000Z</time>
        <extensions>
          <ns3:TrackPointExtension>
            <ns3:atemp>18.0</ns3:atemp>
          </ns3:TrackPointExtension>
        </extensions>
      </trkpt>
      <trkpt lat="42.494986094534397125244140625" lon="20.00539197586476802825927734375">
        <ele>1959.800048828125</ele>
        <time>2026-06-19T09:03:17.000Z</time>
        <extensions>
          <ns3:TrackPointExtension>
            <ns3:atemp>18.0</ns3:atemp>
          </ns3:TrackPointExtension>
        </extensions>
      </trkpt>
      <trkpt lat="42.49500629492104053497314453125" lon="20.00541226007044315338134765625">
        <ele>1960</ele>
        <time>2026-06-19T09:03:18.000Z</time>
        <extensions>
          <ns3:TrackPointExtension>
            <ns3:atemp>18.0</ns3:atemp>
          </ns3:TrackPointExtension>
        </extensions>
      </trkpt>
      <trkpt lat="42.4950251542031764984130859375" lon="20.0054331310093402862548828125">
        <ele>1960</ele>
        <time>2026-06-19T09:03:19.000Z</time>
        <extensions>
          <ns3:TrackPointExtension>
            <ns3:atemp>18.0</ns3:atemp>
          </ns3:TrackPointExtension>
        </extensions>
      </trkpt>
      <trkpt lat="42.49504275619983673095703125" lon="20.00545375049114227294921875">
        <ele>1960.199951171875</ele>
        <time>2026-06-19T09:03:20.000Z</time>
        <extensions>
          <ns3:TrackPointExtension>
            <ns3:atemp>18.0</ns3:atemp>
          </ns3:TrackPointExtension>
        </extensions>
      </trkpt>
      <trkpt lat="42.4950606934726238250732421875" lon="20.0054683350026607513427734375">
        <ele>1960.199951171875</ele>
        <time>2026-06-19T09:03:21.000Z</time>
        <extensions>
          <ns3:TrackPointExtension>
            <ns3:atemp>18.0</ns3:atemp>
          </ns3:TrackPointExtension>
        </extensions>
      </trkpt>
      <trkpt lat="42.4950808100402355194091796875" lon="20.00548417679965496063232421875">
        <ele>1960.4000244140625</ele>
        <time>2026-06-19T09:03:22.000Z</time>
        <extensions>
          <ns3:TrackPointExtension>
            <ns3:atemp>18.0</ns3:atemp>
          </ns3:TrackPointExtension>
        </extensions>
      </trkpt>
      <trkpt lat="42.49509908258914947509765625" lon="20.00549792312085628509521484375">
        <ele>1960.5999755859375</ele>
        <time>2026-06-19T09:03:23.000Z</time>
        <extensions>
          <ns3:TrackPointExtension>
            <ns3:atemp>18.0</ns3:atemp>
          </ns3:TrackPointExtension>
        </extensions>
      </trkpt>
      <trkpt lat="42.4951207078993320465087890625" lon="20.00551451928913593292236328125">
        <ele>1960.800048828125</ele>
        <time>2026-06-19T09:03:24.000Z</time>
        <extensions>
          <ns3:TrackPointExtension>
            <ns3:atemp>18.0</ns3:atemp>
          </ns3:TrackPointExtension>
        </extensions>
      </trkpt>
      <trkpt lat="42.4951425008475780487060546875" lon="20.00552977435290813446044921875">
        <ele>1960.800048828125</ele>
        <time>2026-06-19T09:03:25.000Z</time>
        <extensions>
          <ns3:TrackPointExtension>
            <ns3:atemp>18.0</ns3:atemp>
          </ns3:TrackPointExtension>
        </extensions>
      </trkpt>
      <trkpt lat="42.4951614439487457275390625" lon="20.00554402358829975128173828125">
        <ele>1961</ele>
        <time>2026-06-19T09:03:26.000Z</time>
        <extensions>
          <ns3:TrackPointExtension>
            <ns3:atemp>18.0</ns3:atemp>
          </ns3:TrackPointExtension>
        </extensions>
      </trkpt>
      <trkpt lat="42.495176531374454498291015625" lon="20.0055581890046596527099609375">
        <ele>1961.199951171875</ele>
        <time>2026-06-19T09:03:27.000Z</time>
        <extensions>
          <ns3:TrackPointExtension>
            <ns3:atemp>18.0</ns3:atemp>
          </ns3:TrackPointExtension>
        </extensions>
      </trkpt>
      <trkpt lat="42.495194971561431884765625" lon="20.00556916929781436920166015625">
        <ele>1961.4000244140625</ele>
        <time>2026-06-19T09:03:28.000Z</time>
        <extensions>
          <ns3:TrackPointExtension>
            <ns3:atemp>18.0</ns3:atemp>
          </ns3:TrackPointExtension>
        </extensions>
      </trkpt>
      <trkpt lat="42.4952149204909801483154296875" lon="20.00558341853320598602294921875">
        <ele>1961.4000244140625</ele>
        <time>2026-06-19T09:03:29.000Z</time>
        <extensions>
          <ns3:TrackPointExtension>
            <ns3:atemp>18.0</ns3:atemp>
          </ns3:TrackPointExtension>
        </extensions>
      </trkpt>
      <trkpt lat="42.49523562379181385040283203125" lon="20.00559716485440731048583984375">
        <ele>1961.5999755859375</ele>
        <time>2026-06-19T09:03:30.000Z</time>
        <extensions>
          <ns3:TrackPointExtension>
            <ns3:atemp>18.0</ns3:atemp>
          </ns3:TrackPointExtension>
        </extensions>
      </trkpt>
      <trkpt lat="42.49525993131101131439208984375" lon="20.00561074353754520416259765625">
        <ele>1961.800048828125</ele>
        <time>2026-06-19T09:03:31.000Z</time>
        <extensions>
          <ns3:TrackPointExtension>
            <ns3:atemp>18.0</ns3:atemp>
          </ns3:TrackPointExtension>
        </extensions>
      </trkpt>
      <trkpt lat="42.49527870677411556243896484375" lon="20.0056212209165096282958984375">
        <ele>1962</ele>
        <time>2026-06-19T09:03:32.000Z</time>
        <extensions>
          <ns3:TrackPointExtension>
            <ns3:atemp>18.0</ns3:atemp>
          </ns3:TrackPointExtension>
        </extensions>
      </trkpt>
      <trkpt lat="42.4953004159033298492431640625" lon="20.00563370995223522186279296875">
        <ele>1962</ele>
        <time>2026-06-19T09:03:33.000Z</time>
        <extensions>
          <ns3:TrackPointExtension>
            <ns3:atemp>18.0</ns3:atemp>
          </ns3:TrackPointExtension>
        </extensions>
      </trkpt>
      <trkpt lat="42.4953212030231952667236328125" lon="20.00564192421734333038330078125">
        <ele>1962.199951171875</ele>
        <time>2026-06-19T09:03:34.000Z</time>
        <extensions>
          <ns3:TrackPointExtension>
            <ns3:atemp>18.0</ns3:atemp>
          </ns3:TrackPointExtension>
        </extensions>
      </trkpt>
      <trkpt lat="42.495340146124362945556640625" lon="20.00565365888178348541259765625">
        <ele>1962.4000244140625</ele>
        <time>2026-06-19T09:03:35.000Z</time>
        <extensions>
          <ns3:TrackPointExtension>
            <ns3:atemp>18.0</ns3:atemp>
          </ns3:TrackPointExtension>
        </extensions>
      </trkpt>
      <trkpt lat="42.49535900540649890899658203125" lon="20.00566489063203334808349609375">
        <ele>1962.5999755859375</ele>
        <time>2026-06-19T09:03:36.000Z</time>
        <extensions>
          <ns3:TrackPointExtension>
            <ns3:atemp>18.0</ns3:atemp>
          </ns3:TrackPointExtension>
        </extensions>
      </trkpt>
      <trkpt lat="42.495378367602825164794921875" lon="20.005674697458744049072265625">
        <ele>1962.800048828125</ele>
        <time>2026-06-19T09:03:37.000Z</time>
        <extensions>
          <ns3:TrackPointExtension>
            <ns3:atemp>18.0</ns3:atemp>
          </ns3:TrackPointExtension>
        </extensions>
      </trkpt>
      <trkpt lat="42.49539990909397602081298828125" lon="20.00568173825740814208984375">
        <ele>1963</ele>
        <time>2026-06-19T09:03:38.000Z</time>
        <extensions>
          <ns3:TrackPointExtension>
            <ns3:atemp>18.0</ns3:atemp>
          </ns3:TrackPointExtension>
        </extensions>
      </trkpt>
      <trkpt lat="42.49542270787060260772705078125" lon="20.00568886287510395050048828125">
        <ele>1963</ele>
        <time>2026-06-19T09:03:39.000Z</time>
        <extensions>
          <ns3:TrackPointExtension>
            <ns3:atemp>18.0</ns3:atemp>
          </ns3:TrackPointExtension>
        </extensions>
      </trkpt>
      <trkpt lat="42.4954484403133392333984375" lon="20.00569439493119716644287109375">
        <ele>1963.199951171875</ele>
        <time>2026-06-19T09:03:40.000Z</time>
        <extensions>
          <ns3:TrackPointExtension>
            <ns3:atemp>18.0</ns3:atemp>
          </ns3:TrackPointExtension>
        </extensions>
      </trkpt>
      <trkpt lat="42.49546998180449008941650390625" lon="20.00569942407310009002685546875">
        <ele>1963.4000244140625</ele>
        <time>2026-06-19T09:03:41.000Z</time>
        <extensions>
          <ns3:TrackPointExtension>
            <ns3:atemp>18.0</ns3:atemp>
          </ns3:TrackPointExtension>
        </extensions>
      </trkpt>
      <trkpt lat="42.49549328349530696868896484375" lon="20.00569992698729038238525390625">
        <ele>1963.4000244140625</ele>
        <time>2026-06-19T09:03:42.000Z</time>
        <extensions>
          <ns3:TrackPointExtension>
            <ns3:atemp>18.0</ns3:atemp>
          </ns3:TrackPointExtension>
        </extensions>
      </trkpt>
      <trkpt lat="42.495513819158077239990234375" lon="20.005700178444385528564453125">
        <ele>1963.800048828125</ele>
        <time>2026-06-19T09:03:43.000Z</time>
        <extensions>
          <ns3:TrackPointExtension>
            <ns3:atemp>18.0</ns3:atemp>
          </ns3:TrackPointExtension>
        </extensions>
      </trkpt>
      <trkpt lat="42.4955334328114986419677734375" lon="20.0057057105004787445068359375">
        <ele>1964</ele>
        <time>2026-06-19T09:03:44.000Z</time>
        <extensions>
          <ns3:TrackPointExtension>
            <ns3:atemp>18.0</ns3:atemp>
          </ns3:TrackPointExtension>
        </extensions>
      </trkpt>
      <trkpt lat="42.4955538846552371978759765625" lon="20.00571367330849170684814453125">
        <ele>1964.4000244140625</ele>
        <time>2026-06-19T09:03:45.000Z</time>
        <extensions>
          <ns3:TrackPointExtension>
            <ns3:atemp>18.0</ns3:atemp>
          </ns3:TrackPointExtension>
        </extensions>
      </trkpt>
      <trkpt lat="42.495575845241546630859375" lon="20.0057161040604114532470703125">
        <ele>1964.800048828125</ele>
        <time>2026-06-19T09:03:46.000Z</time>
        <extensions>
          <ns3:TrackPointExtension>
            <ns3:atemp>18.0</ns3:atemp>
          </ns3:TrackPointExtension>
        </extensions>
      </trkpt>
      <trkpt lat="42.495598308742046356201171875" lon="20.005720295011997222900390625">
        <ele>1965</ele>
        <time>2026-06-19T09:03:47.000Z</time>
        <extensions>
          <ns3:TrackPointExtension>
            <ns3:atemp>18.0</ns3:atemp>
          </ns3:TrackPointExtension>
        </extensions>
      </trkpt>
      <trkpt lat="42.4956206046044826507568359375" lon="20.0057241506874561309814453125">
        <ele>1965.4000244140625</ele>
        <time>2026-06-19T09:03:48.000Z</time>
        <extensions>
          <ns3:TrackPointExtension>
            <ns3:atemp>18.0</ns3:atemp>
          </ns3:TrackPointExtension>
        </extensions>
      </trkpt>
      <trkpt lat="42.495641224086284637451171875" lon="20.0057288445532321929931640625">
        <ele>1965.5999755859375</ele>
        <time>2026-06-19T09:03:49.000Z</time>
        <extensions>
          <ns3:TrackPointExtension>
            <ns3:atemp>18.0</ns3:atemp>
          </ns3:TrackPointExtension>
        </extensions>
      </trkpt>
      <trkpt lat="42.49566192738711833953857421875" lon="20.00573211349546909332275390625">
        <ele>1965.800048828125</ele>
        <time>2026-06-19T09:03:50.000Z</time>
        <extensions>
          <ns3:TrackPointExtension>
            <ns3:atemp>18.0</ns3:atemp>
          </ns3:TrackPointExtension>
        </extensions>
      </trkpt>
      <trkpt lat="42.49568405561149120330810546875" lon="20.00573345459997653961181640625">
        <ele>1966</ele>
        <time>2026-06-19T09:03:51.000Z</time>
        <extensions>
          <ns3:TrackPointExtension>
            <ns3:atemp>18.0</ns3:atemp>
          </ns3:TrackPointExtension>
        </extensions>
      </trkpt>
      <trkpt lat="42.49570651911199092864990234375" lon="20.00573881901800632476806640625">
        <ele>1966.199951171875</ele>
        <time>2026-06-19T09:03:52.000Z</time>
        <extensions>
          <ns3:TrackPointExtension>
            <ns3:atemp>18.0</ns3:atemp>
          </ns3:TrackPointExtension>
        </extensions>
      </trkpt>
      <trkpt lat="42.495729066431522369384765625" lon="20.0057425908744335174560546875">
        <ele>1966.4000244140625</ele>
        <time>2026-06-19T09:03:53.000Z</time>
        <extensions>
          <ns3:TrackPointExtension>
            <ns3:atemp>18.0</ns3:atemp>
          </ns3:TrackPointExtension>
        </extensions>
      </trkpt>
      <trkpt lat="42.49575161375105381011962890625" lon="20.00574854202568531036376953125">
        <ele>1966.5999755859375</ele>
        <time>2026-06-19T09:03:54.000Z</time>
        <extensions>
          <ns3:TrackPointExtension>
            <ns3:atemp>18.0</ns3:atemp>
          </ns3:TrackPointExtension>
        </extensions>
      </trkpt>
      <trkpt lat="42.49577323906123638153076171875" lon="20.0057494640350341796875">
        <ele>1966.800048828125</ele>
        <time>2026-06-19T09:03:55.000Z</time>
        <extensions>
          <ns3:TrackPointExtension>
            <ns3:atemp>18.0</ns3:atemp>
          </ns3:TrackPointExtension>
        </extensions>
      </trkpt>
      <trkpt lat="42.49579302035272121429443359375" lon="20.0057536549866199493408203125">
        <ele>1967</ele>
        <time>2026-06-19T09:03:56.000Z</time>
        <extensions>
          <ns3:TrackPointExtension>
            <ns3:atemp>18.0</ns3:atemp>
          </ns3:TrackPointExtension>
        </extensions>
      </trkpt>
      <trkpt lat="42.49581389129161834716796875" lon="20.0057583488523960113525390625">
        <ele>1967.4000244140625</ele>
        <time>2026-06-19T09:03:57.000Z</time>
        <extensions>
          <ns3:TrackPointExtension>
            <ns3:atemp>18.0</ns3:atemp>
          </ns3:TrackPointExtension>
        </extensions>
      </trkpt>
      <trkpt lat="42.4958381988108158111572265625" lon="20.005760528147220611572265625">
        <ele>1967.5999755859375</ele>
        <time>2026-06-19T09:03:58.000Z</time>
        <extensions>
          <ns3:TrackPointExtension>
            <ns3:atemp>18.0</ns3:atemp>
          </ns3:TrackPointExtension>
        </extensions>
      </trkpt>
      <trkpt lat="42.49586342833936214447021484375" lon="20.0057690776884555816650390625">
        <ele>1968</ele>
        <time>2026-06-19T09:03:59.000Z</time>
        <extensions>
          <ns3:TrackPointExtension>
            <ns3:atemp>18.0</ns3:atemp>
          </ns3:TrackPointExtension>
        </extensions>
      </trkpt>
      <trkpt lat="42.49588991515338420867919921875" lon="20.00577695667743682861328125">
        <ele>1968.199951171875</ele>
        <time>2026-06-19T09:04:00.000Z</time>
        <extensions>
          <ns3:TrackPointExtension>
            <ns3:atemp>18.0</ns3:atemp>
          </ns3:TrackPointExtension>
        </extensions>
      </trkpt>
      <trkpt lat="42.4959193356335163116455078125" lon="20.00578575767576694488525390625">
        <ele>1968.4000244140625</ele>
        <time>2026-06-19T09:04:01.000Z</time>
        <extensions>
          <ns3:TrackPointExtension>
            <ns3:atemp>18.0</ns3:atemp>
          </ns3:TrackPointExtension>
        </extensions>
      </trkpt>
      <trkpt lat="42.495945990085601806640625" lon="20.00579481013119220733642578125">
        <ele>1968.5999755859375</ele>
        <time>2026-06-19T09:04:02.000Z</time>
        <extensions>
          <ns3:TrackPointExtension>
            <ns3:atemp>18.0</ns3:atemp>
          </ns3:TrackPointExtension>
        </extensions>
      </trkpt>
      <trkpt lat="42.49597214162349700927734375" lon="20.0057999230921268463134765625">
        <ele>1968.800048828125</ele>
        <time>2026-06-19T09:04:03.000Z</time>
        <extensions>
          <ns3:TrackPointExtension>
            <ns3:atemp>18.0</ns3:atemp>
          </ns3:TrackPointExtension>
        </extensions>
      </trkpt>
      <trkpt lat="42.495999298989772796630859375" lon="20.00580419786274433135986328125">
        <ele>1969</ele>
        <time>2026-06-19T09:04:04.000Z</time>
        <extensions>
          <ns3:TrackPointExtension>
            <ns3:atemp>18.0</ns3:atemp>
          </ns3:TrackPointExtension>
        </extensions>
      </trkpt>
      <trkpt lat="42.496026121079921722412109375" lon="20.0058119930326938629150390625">
        <ele>1969</ele>
        <time>2026-06-19T09:04:05.000Z</time>
        <extensions>
          <ns3:TrackPointExtension>
            <ns3:atemp>18.0</ns3:atemp>
          </ns3:TrackPointExtension>
        </extensions>
      </trkpt>
      <trkpt lat="42.49605319462716579437255859375" lon="20.0058217160403728485107421875">
        <ele>1969.199951171875</ele>
        <time>2026-06-19T09:04:06.000Z</time>
        <extensions>
          <ns3:TrackPointExtension>
            <ns3:atemp>18.0</ns3:atemp>
          </ns3:TrackPointExtension>
        </extensions>
      </trkpt>
      <trkpt lat="42.4960812740027904510498046875" lon="20.00583051703870296478271484375">
        <ele>1969.4000244140625</ele>
        <time>2026-06-19T09:04:07.000Z</time>
        <extensions>
          <ns3:TrackPointExtension>
            <ns3:atemp>18.0</ns3:atemp>
          </ns3:TrackPointExtension>
        </extensions>
      </trkpt>
      <trkpt lat="42.49611203558743000030517578125" lon="20.0058414973318576812744140625">
        <ele>1969.5999755859375</ele>
        <time>2026-06-19T09:04:08.000Z</time>
        <extensions>
          <ns3:TrackPointExtension>
            <ns3:atemp>18.0</ns3:atemp>
          </ns3:TrackPointExtension>
        </extensions>
      </trkpt>
      <trkpt lat="42.49614103697240352630615234375" lon="20.00585733912885189056396484375">
        <ele>1969.800048828125</ele>
        <time>2026-06-19T09:04:09.000Z</time>
        <extensions>
          <ns3:TrackPointExtension>
            <ns3:atemp>18.0</ns3:atemp>
          </ns3:TrackPointExtension>
        </extensions>
      </trkpt>
      <trkpt lat="42.4961664341390132904052734375" lon="20.00587351620197296142578125">
        <ele>1970</ele>
        <time>2026-06-19T09:04:10.000Z</time>
        <extensions>
          <ns3:TrackPointExtension>
            <ns3:atemp>18.0</ns3:atemp>
          </ns3:TrackPointExtension>
        </extensions>
      </trkpt>
      <trkpt lat="42.49619183130562305450439453125" lon="20.00588851980865001678466796875">
        <ele>1970.199951171875</ele>
        <time>2026-06-19T09:04:11.000Z</time>
        <extensions>
          <ns3:TrackPointExtension>
            <ns3:atemp>18.0</ns3:atemp>
          </ns3:TrackPointExtension>
        </extensions>
      </trkpt>
      <trkpt lat="42.49621714465320110321044921875" lon="20.00590209849178791046142578125">
        <ele>1970.5999755859375</ele>
        <time>2026-06-19T09:04:12.000Z</time>
        <extensions>
          <ns3:TrackPointExtension>
            <ns3:atemp>18.0</ns3:atemp>
          </ns3:TrackPointExtension>
        </extensions>
      </trkpt>
      <trkpt lat="42.4962425418198108673095703125" lon="20.00591701827943325042724609375">
        <ele>1970.800048828125</ele>
        <time>2026-06-19T09:04:13.000Z</time>
        <extensions>
          <ns3:TrackPointExtension>
            <ns3:atemp>18.0</ns3:atemp>
          </ns3:TrackPointExtension>
        </extensions>
      </trkpt>
      <trkpt lat="42.4962673522531986236572265625" lon="20.0059316866099834442138671875">
        <ele>1971.199951171875</ele>
        <time>2026-06-19T09:04:14.000Z</time>
        <extensions>
          <ns3:TrackPointExtension>
            <ns3:atemp>18.0</ns3:atemp>
          </ns3:TrackPointExtension>
        </extensions>
      </trkpt>
      <trkpt lat="42.49628998339176177978515625" lon="20.005942918360233306884765625">
        <ele>1971.5999755859375</ele>
        <time>2026-06-19T09:04:15.000Z</time>
        <extensions>
          <ns3:TrackPointExtension>
            <ns3:atemp>18.0</ns3:atemp>
          </ns3:TrackPointExtension>
        </extensions>
      </trkpt>
      <trkpt lat="42.49631420709192752838134765625" lon="20.0059528090059757232666015625">
        <ele>1971.800048828125</ele>
        <time>2026-06-19T09:04:16.000Z</time>
        <extensions>
          <ns3:TrackPointExtension>
            <ns3:atemp>18.0</ns3:atemp>
          </ns3:TrackPointExtension>
        </extensions>
      </trkpt>
      <trkpt lat="42.496339939534664154052734375" lon="20.005961358547210693359375">
        <ele>1972.199951171875</ele>
        <time>2026-06-19T09:04:17.000Z</time>
        <extensions>
          <ns3:TrackPointExtension>
            <ns3:atemp>18.0</ns3:atemp>
          </ns3:TrackPointExtension>
        </extensions>
      </trkpt>
      <trkpt lat="42.496364749968051910400390625" lon="20.00597015954554080963134765625">
        <ele>1972.5999755859375</ele>
        <time>2026-06-19T09:04:18.000Z</time>
        <extensions>
          <ns3:TrackPointExtension>
            <ns3:atemp>18.0</ns3:atemp>
          </ns3:TrackPointExtension>
        </extensions>
      </trkpt>
      <trkpt lat="42.496388219296932220458984375" lon="20.00597602687776088714599609375">
        <ele>1972.800048828125</ele>
        <time>2026-06-19T09:04:19.000Z</time>
        <extensions>
          <ns3:TrackPointExtension>
            <ns3:atemp>18.0</ns3:atemp>
          </ns3:TrackPointExtension>
        </extensions>
      </trkpt>
      <trkpt lat="42.4964068271219730377197265625" lon="20.00597870908677577972412109375">
        <ele>1973</ele>
        <time>2026-06-19T09:04:20.000Z</time>
        <extensions>
          <ns3:TrackPointExtension>
            <ns3:atemp>18.0</ns3:atemp>
          </ns3:TrackPointExtension>
        </extensions>
      </trkpt>
      <trkpt lat="42.496431805193424224853515625" lon="20.005991868674755096435546875">
        <ele>1973.4000244140625</ele>
        <time>2026-06-19T09:04:21.000Z</time>
        <extensions>
          <ns3:TrackPointExtension>
            <ns3:atemp>18.0</ns3:atemp>
          </ns3:TrackPointExtension>
        </extensions>
      </trkpt>
      <trkpt lat="42.4964618124067783355712890625" lon="20.0060017593204975128173828125">
        <ele>1973.5999755859375</ele>
        <time>2026-06-19T09:04:22.000Z</time>
        <extensions>
          <ns3:TrackPointExtension>
            <ns3:atemp>18.0</ns3:atemp>
          </ns3:TrackPointExtension>
        </extensions>
      </trkpt>
      <trkpt lat="42.49649223871529102325439453125" lon="20.00600670464336872100830078125">
        <ele>1973.5999755859375</ele>
        <time>2026-06-19T09:04:23.000Z</time>
        <extensions>
          <ns3:TrackPointExtension>
            <ns3:atemp>18.0</ns3:atemp>
          </ns3:TrackPointExtension>
        </extensions>
      </trkpt>
      <trkpt lat="42.4965211562812328338623046875" lon="20.00601173378527164459228515625">
        <ele>1973.800048828125</ele>
        <time>2026-06-19T09:04:24.000Z</time>
        <extensions>
          <ns3:TrackPointExtension>
            <ns3:atemp>18.0</ns3:atemp>
          </ns3:TrackPointExtension>
        </extensions>
      </trkpt>
      <trkpt lat="42.49655342660844326019287109375" lon="20.006016679108142852783203125">
        <ele>1974</ele>
        <time>2026-06-19T09:04:25.000Z</time>
        <extensions>
          <ns3:TrackPointExtension>
            <ns3:atemp>18.0</ns3:atemp>
          </ns3:TrackPointExtension>
        </extensions>
      </trkpt>
      <trkpt lat="42.4965865351259708404541015625" lon="20.006020031869411468505859375">
        <ele>1974</ele>
        <time>2026-06-19T09:04:26.000Z</time>
        <extensions>
          <ns3:TrackPointExtension>
            <ns3:atemp>18.0</ns3:atemp>
          </ns3:TrackPointExtension>
        </extensions>
      </trkpt>
      <trkpt lat="42.49661897309124469757080078125" lon="20.006023384630680084228515625">
        <ele>1974.4000244140625</ele>
        <time>2026-06-19T09:04:27.000Z</time>
        <extensions>
          <ns3:TrackPointExtension>
            <ns3:atemp>18.0</ns3:atemp>
          </ns3:TrackPointExtension>
        </extensions>
      </trkpt>
      <trkpt lat="42.49665048904716968536376953125" lon="20.006026737391948699951171875">
        <ele>1974.5999755859375</ele>
        <time>2026-06-19T09:04:28.000Z</time>
        <extensions>
          <ns3:TrackPointExtension>
            <ns3:atemp>18.0</ns3:atemp>
          </ns3:TrackPointExtension>
        </extensions>
      </trkpt>
      <trkpt lat="42.496679238975048065185546875" lon="20.00602782703936100006103515625">
        <ele>1974.800048828125</ele>
        <time>2026-06-19T09:04:29.000Z</time>
        <extensions>
          <ns3:TrackPointExtension>
            <ns3:atemp>18.0</ns3:atemp>
          </ns3:TrackPointExtension>
        </extensions>
      </trkpt>
      <trkpt lat="42.496708072721958160400390625" lon="20.006026066839694976806640625">
        <ele>1975.199951171875</ele>
        <time>2026-06-19T09:04:30.000Z</time>
        <extensions>
          <ns3:TrackPointExtension>
            <ns3:atemp>18.0</ns3:atemp>
          </ns3:TrackPointExtension>
        </extensions>
      </trkpt>
      <trkpt lat="42.4967353977262973785400390625" lon="20.00601910986006259918212890625">
        <ele>1975.4000244140625</ele>
        <time>2026-06-19T09:04:31.000Z</time>
        <extensions>
          <ns3:TrackPointExtension>
            <ns3:atemp>18.0</ns3:atemp>
          </ns3:TrackPointExtension>
        </extensions>
      </trkpt>
      <trkpt lat="42.4967654049396514892578125" lon="20.00601458363234996795654296875">
        <ele>1975.4000244140625</ele>
        <time>2026-06-19T09:04:32.000Z</time>
        <extensions>
          <ns3:TrackPointExtension>
            <ns3:atemp>18.0</ns3:atemp>
          </ns3:TrackPointExtension>
        </extensions>
      </trkpt>
      <trkpt lat="42.496796585619449615478515625" lon="20.00601190142333507537841796875">
        <ele>1975.5999755859375</ele>
        <time>2026-06-19T09:04:33.000Z</time>
        <extensions>
          <ns3:TrackPointExtension>
            <ns3:atemp>18.0</ns3:atemp>
          </ns3:TrackPointExtension>
        </extensions>
      </trkpt>
      <trkpt lat="42.4968245811760425567626953125" lon="20.00600419007241725921630859375">
        <ele>1975.5999755859375</ele>
        <time>2026-06-19T09:04:34.000Z</time>
        <extensions>
          <ns3:TrackPointExtension>
            <ns3:atemp>18.0</ns3:atemp>
          </ns3:TrackPointExtension>
        </extensions>
      </trkpt>
      <trkpt lat="42.49685651622712612152099609375" lon="20.005990527570247650146484375">
        <ele>1975.800048828125</ele>
        <time>2026-06-19T09:04:35.000Z</time>
        <extensions>
          <ns3:TrackPointExtension>
            <ns3:atemp>18.0</ns3:atemp>
          </ns3:TrackPointExtension>
        </extensions>
      </trkpt>
      <trkpt lat="42.49688677489757537841796875" lon="20.0059886835515499114990234375">
        <ele>1975.800048828125</ele>
        <time>2026-06-19T09:04:36.000Z</time>
        <extensions>
          <ns3:TrackPointExtension>
            <ns3:atemp>18.0</ns3:atemp>
          </ns3:TrackPointExtension>
        </extensions>
      </trkpt>
      <trkpt lat="42.49691971577703952789306640625" lon="20.0059903599321842193603515625">
        <ele>1975.800048828125</ele>
        <time>2026-06-19T09:04:37.000Z</time>
        <extensions>
          <ns3:TrackPointExtension>
            <ns3:atemp>18.0</ns3:atemp>
          </ns3:TrackPointExtension>
        </extensions>
      </trkpt>
      <trkpt lat="42.49695274047553539276123046875" lon="20.00598709098994731903076171875">
        <ele>1975.5999755859375</ele>
        <time>2026-06-19T09:04:38.000Z</time>
        <extensions>
          <ns3:TrackPointExtension>
            <ns3:atemp>18.0</ns3:atemp>
          </ns3:TrackPointExtension>
        </extensions>
      </trkpt>
      <trkpt lat="42.49698576517403125762939453125" lon="20.00598574988543987274169921875">
        <ele>1975.5999755859375</ele>
        <time>2026-06-19T09:04:39.000Z</time>
        <extensions>
          <ns3:TrackPointExtension>
            <ns3:atemp>18.0</ns3:atemp>
          </ns3:TrackPointExtension>
        </extensions>
      </trkpt>
      <trkpt lat="42.4970217235386371612548828125" lon="20.0059843249619007110595703125">
        <ele>1975.5999755859375</ele>
        <time>2026-06-19T09:04:40.000Z</time>
        <extensions>
          <ns3:TrackPointExtension>
            <ns3:atemp>18.0</ns3:atemp>
          </ns3:TrackPointExtension>
        </extensions>
      </trkpt>
      <trkpt lat="42.4970666505396366119384765625" lon="20.00598340295255184173583984375">
        <ele>1975.4000244140625</ele>
        <time>2026-06-19T09:04:41.000Z</time>
        <extensions>
          <ns3:TrackPointExtension>
            <ns3:atemp>18.0</ns3:atemp>
          </ns3:TrackPointExtension>
        </extensions>
      </trkpt>
      <trkpt lat="42.4971186183393001556396484375" lon="20.00598482787609100341796875">
        <ele>1975.199951171875</ele>
        <time>2026-06-19T09:04:42.000Z</time>
        <extensions>
          <ns3:TrackPointExtension>
            <ns3:atemp>18.0</ns3:atemp>
          </ns3:TrackPointExtension>
        </extensions>
      </trkpt>
      <trkpt lat="42.49716572463512420654296875" lon="20.00598348677158355712890625">
        <ele>1975.199951171875</ele>
        <time>2026-06-19T09:04:43.000Z</time>
        <extensions>
          <ns3:TrackPointExtension>
            <ns3:atemp>18.0</ns3:atemp>
          </ns3:TrackPointExtension>
        </extensions>
      </trkpt>
      <trkpt lat="42.49721425585448741912841796875" lon="20.0059839896857738494873046875">
        <ele>1975</ele>
        <time>2026-06-19T09:04:44.000Z</time>
        <extensions>
          <ns3:TrackPointExtension>
            <ns3:atemp>18.0</ns3:atemp>
          </ns3:TrackPointExtension>
        </extensions>
      </trkpt>
      <trkpt lat="42.497261278331279754638671875" lon="20.005982816219329833984375">
        <ele>1974.800048828125</ele>
        <time>2026-06-19T09:04:45.000Z</time>
        <extensions>
          <ns3:TrackPointExtension>
            <ns3:atemp>18.0</ns3:atemp>
          </ns3:TrackPointExtension>
        </extensions>
      </trkpt>
      <trkpt lat="42.49729924835264682769775390625" lon="20.00598759390413761138916015625">
        <ele>1974.800048828125</ele>
        <time>2026-06-19T09:04:46.000Z</time>
        <extensions>
          <ns3:TrackPointExtension>
            <ns3:atemp>18.0</ns3:atemp>
          </ns3:TrackPointExtension>
        </extensions>
      </trkpt>
      <trkpt lat="42.497330009937286376953125" lon="20.00599823892116546630859375">
        <ele>1974.800048828125</ele>
        <time>2026-06-19T09:04:47.000Z</time>
        <extensions>
          <ns3:TrackPointExtension>
            <ns3:atemp>18.0</ns3:atemp>
          </ns3:TrackPointExtension>
        </extensions>
      </trkpt>
      <trkpt lat="42.4973528087139129638671875" lon="20.00601056031882762908935546875">
        <ele>1975</ele>
        <time>2026-06-19T09:04:48.000Z</time>
        <extensions>
          <ns3:TrackPointExtension>
            <ns3:atemp>18.0</ns3:atemp>
          </ns3:TrackPointExtension>
        </extensions>
      </trkpt>
      <trkpt lat="42.497373931109905242919921875" lon="20.0060235522687435150146484375">
        <ele>1975.4000244140625</ele>
        <time>2026-06-19T09:04:49.000Z</time>
        <extensions>
          <ns3:TrackPointExtension>
            <ns3:atemp>18.0</ns3:atemp>
          </ns3:TrackPointExtension>
        </extensions>
      </trkpt>
      <trkpt lat="42.49739396385848522186279296875" lon="20.0060383044183254241943359375">
        <ele>1975.800048828125</ele>
        <time>2026-06-19T09:04:50.000Z</time>
        <extensions>
          <ns3:TrackPointExtension>
            <ns3:atemp>18.0</ns3:atemp>
          </ns3:TrackPointExtension>
        </extensions>
      </trkpt>
      <trkpt lat="42.49740871600806713104248046875" lon="20.00605230219662189483642578125">
        <ele>1976.199951171875</ele>
        <time>2026-06-19T09:04:51.000Z</time>
        <extensions>
          <ns3:TrackPointExtension>
            <ns3:atemp>18.0</ns3:atemp>
          </ns3:TrackPointExtension>
        </extensions>
      </trkpt>
      <trkpt lat="42.4974260665476322174072265625" lon="20.00606705434620380401611328125">
        <ele>1976.5999755859375</ele>
        <time>2026-06-19T09:04:52.000Z</time>
        <extensions>
          <ns3:TrackPointExtension>
            <ns3:atemp>18.0</ns3:atemp>
          </ns3:TrackPointExtension>
        </extensions>
      </trkpt>
      <trkpt lat="42.49744157306849956512451171875" lon="20.00608113594353199005126953125">
        <ele>1977</ele>
        <time>2026-06-19T09:04:53.000Z</time>
        <extensions>
          <ns3:TrackPointExtension>
            <ns3:atemp>18.0</ns3:atemp>
          </ns3:TrackPointExtension>
        </extensions>
      </trkpt>
      <trkpt lat="42.4974547326564788818359375" lon="20.00609303824603557586669921875">
        <ele>1977.4000244140625</ele>
        <time>2026-06-19T09:04:54.000Z</time>
        <extensions>
          <ns3:TrackPointExtension>
            <ns3:atemp>18.0</ns3:atemp>
          </ns3:TrackPointExtension>
        </extensions>
      </trkpt>
      <trkpt lat="42.49747149646282196044921875" lon="20.00610846094787120819091796875">
        <ele>1977.800048828125</ele>
        <time>2026-06-19T09:04:55.000Z</time>
        <extensions>
          <ns3:TrackPointExtension>
            <ns3:atemp>18.0</ns3:atemp>
          </ns3:TrackPointExtension>
        </extensions>
      </trkpt>
      <trkpt lat="42.4974864162504673004150390625" lon="20.0061224587261676788330078125">
        <ele>1978</ele>
        <time>2026-06-19T09:04:56.000Z</time>
        <extensions>
          <ns3:TrackPointExtension>
            <ns3:atemp>18.0</ns3:atemp>
          </ns3:TrackPointExtension>
        </extensions>
      </trkpt>
      <trkpt lat="42.497497983276844024658203125" lon="20.00613444484770298004150390625">
        <ele>1978.4000244140625</ele>
        <time>2026-06-19T09:04:57.000Z</time>
        <extensions>
          <ns3:TrackPointExtension>
            <ns3:atemp>18.0</ns3:atemp>
          </ns3:TrackPointExtension>
        </extensions>
      </trkpt>
      <trkpt lat="42.4975088797509670257568359375" lon="20.00614701770246028900146484375">
        <ele>1978.5999755859375</ele>
        <time>2026-06-19T09:04:58.000Z</time>
        <extensions>
          <ns3:TrackPointExtension>
            <ns3:atemp>18.0</ns3:atemp>
          </ns3:TrackPointExtension>
        </extensions>
      </trkpt>
      <trkpt lat="42.497518770396709442138671875" lon="20.00615858472883701324462890625">
        <ele>1979</ele>
        <time>2026-06-19T09:04:59.000Z</time>
        <extensions>
          <ns3:TrackPointExtension>
            <ns3:atemp>18.0</ns3:atemp>
          </ns3:TrackPointExtension>
        </extensions>
      </trkpt>
      <trkpt lat="42.49753109179437160491943359375" lon="20.00617568381130695343017578125">
        <ele>1979.199951171875</ele>
        <time>2026-06-19T09:05:00.000Z</time>
        <extensions>
          <ns3:TrackPointExtension>
            <ns3:atemp>18.0</ns3:atemp>
          </ns3:TrackPointExtension>
        </extensions>
      </trkpt>
      <trkpt lat="42.4975434131920337677001953125" lon="20.0061925314366817474365234375">
        <ele>1979.5999755859375</ele>
        <time>2026-06-19T09:05:01.000Z</time>
        <extensions>
          <ns3:TrackPointExtension>
            <ns3:atemp>18.0</ns3:atemp>
          </ns3:TrackPointExtension>
        </extensions>
      </trkpt>
      <trkpt lat="42.49755623750388622283935546875" lon="20.00621155835688114166259765625">
        <ele>1979.800048828125</ele>
        <time>2026-06-19T09:05:02.000Z</time>
        <extensions>
          <ns3:TrackPointExtension>
            <ns3:atemp>18.0</ns3:atemp>
          </ns3:TrackPointExtension>
        </extensions>
      </trkpt>
      <trkpt lat="42.49756512232124805450439453125" lon="20.0062297470867633819580078125">
        <ele>1980</ele>
        <time>2026-06-19T09:05:03.000Z</time>
        <extensions>
          <ns3:TrackPointExtension>
            <ns3:atemp>18.0</ns3:atemp>
          </ns3:TrackPointExtension>
        </extensions>
      </trkpt>
      <trkpt lat="42.49757886864244937896728515625" lon="20.00624441541731357574462890625">
        <ele>1980.199951171875</ele>
        <time>2026-06-19T09:05:04.000Z</time>
        <extensions>
          <ns3:TrackPointExtension>
            <ns3:atemp>18.0</ns3:atemp>
          </ns3:TrackPointExtension>
        </extensions>
      </trkpt>
      <trkpt lat="42.4975933693349361419677734375" lon="20.00625698827207088470458984375">
        <ele>1980.4000244140625</ele>
        <time>2026-06-19T09:05:05.000Z</time>
        <extensions>
          <ns3:TrackPointExtension>
            <ns3:atemp>18.0</ns3:atemp>
          </ns3:TrackPointExtension>
        </extensions>
      </trkpt>
      <trkpt lat="42.4976074509322643280029296875" lon="20.006267465651035308837890625">
        <ele>1980.5999755859375</ele>
        <time>2026-06-19T09:05:06.000Z</time>
        <extensions>
          <ns3:TrackPointExtension>
            <ns3:atemp>18.0</ns3:atemp>
          </ns3:TrackPointExtension>
        </extensions>
      </trkpt>
      <trkpt lat="42.4976208619773387908935546875" lon="20.00628179870545864105224609375">
        <ele>1980.800048828125</ele>
        <time>2026-06-19T09:05:07.000Z</time>
        <extensions>
          <ns3:TrackPointExtension>
            <ns3:atemp>18.0</ns3:atemp>
          </ns3:TrackPointExtension>
        </extensions>
      </trkpt>
      <trkpt lat="42.49763511121273040771484375" lon="20.00629638321697711944580078125">
        <ele>1981</ele>
        <time>2026-06-19T09:05:08.000Z</time>
        <extensions>
          <ns3:TrackPointExtension>
            <ns3:atemp>18.0</ns3:atemp>
          </ns3:TrackPointExtension>
        </extensions>
      </trkpt>
      <trkpt lat="42.497650198638439178466796875" lon="20.00631180591881275177001953125">
        <ele>1981.199951171875</ele>
        <time>2026-06-19T09:05:09.000Z</time>
        <extensions>
          <ns3:TrackPointExtension>
            <ns3:atemp>18.0</ns3:atemp>
          </ns3:TrackPointExtension>
        </extensions>
      </trkpt>
      <trkpt lat="42.49766218475997447967529296875" lon="20.00632873736321926116943359375">
        <ele>1981.5999755859375</ele>
        <time>2026-06-19T09:05:10.000Z</time>
        <extensions>
          <ns3:TrackPointExtension>
            <ns3:atemp>18.0</ns3:atemp>
          </ns3:TrackPointExtension>
        </extensions>
      </trkpt>
      <trkpt lat="42.49767400324344635009765625" lon="20.006343238055706024169921875">
        <ele>1981.800048828125</ele>
        <time>2026-06-19T09:05:11.000Z</time>
        <extensions>
          <ns3:TrackPointExtension>
            <ns3:atemp>18.0</ns3:atemp>
          </ns3:TrackPointExtension>
        </extensions>
      </trkpt>
      <trkpt lat="42.4976899288594722747802734375" lon="20.00635941512882709503173828125">
        <ele>1982</ele>
        <time>2026-06-19T09:05:12.000Z</time>
        <extensions>
          <ns3:TrackPointExtension>
            <ns3:atemp>18.0</ns3:atemp>
          </ns3:TrackPointExtension>
        </extensions>
      </trkpt>
      <trkpt lat="42.4977063573896884918212890625" lon="20.0063749216496944427490234375">
        <ele>1982.4000244140625</ele>
        <time>2026-06-19T09:05:13.000Z</time>
        <extensions>
          <ns3:TrackPointExtension>
            <ns3:atemp>18.0</ns3:atemp>
          </ns3:TrackPointExtension>
        </extensions>
      </trkpt>
      <trkpt lat="42.49772571958601474761962890625" lon="20.0063896737992763519287109375">
        <ele>1982.800048828125</ele>
        <time>2026-06-19T09:05:14.000Z</time>
        <extensions>
          <ns3:TrackPointExtension>
            <ns3:atemp>18.0</ns3:atemp>
          </ns3:TrackPointExtension>
        </extensions>
      </trkpt>
      <trkpt lat="42.4977457523345947265625" lon="20.006402917206287384033203125">
        <ele>1983</ele>
        <time>2026-06-19T09:05:15.000Z</time>
        <extensions>
          <ns3:TrackPointExtension>
            <ns3:atemp>18.0</ns3:atemp>
          </ns3:TrackPointExtension>
        </extensions>
      </trkpt>
      <trkpt lat="42.49776595272123813629150390625" lon="20.00641758553683757781982421875">
        <ele>1983.199951171875</ele>
        <time>2026-06-19T09:05:16.000Z</time>
        <extensions>
          <ns3:TrackPointExtension>
            <ns3:atemp>18.0</ns3:atemp>
          </ns3:TrackPointExtension>
        </extensions>
      </trkpt>
      <trkpt lat="42.49778824858367443084716796875" lon="20.00643066130578517913818359375">
        <ele>1983.5999755859375</ele>
        <time>2026-06-19T09:05:17.000Z</time>
        <extensions>
          <ns3:TrackPointExtension>
            <ns3:atemp>18.0</ns3:atemp>
          </ns3:TrackPointExtension>
        </extensions>
      </trkpt>
      <trkpt lat="42.49781054444611072540283203125" lon="20.00643954612314701080322265625">
        <ele>1984</ele>
        <time>2026-06-19T09:05:18.000Z</time>
        <extensions>
          <ns3:TrackPointExtension>
            <ns3:atemp>18.0</ns3:atemp>
          </ns3:TrackPointExtension>
        </extensions>
      </trkpt>
      <trkpt lat="42.49783250503242015838623046875" lon="20.0064463354647159576416015625">
        <ele>1984.199951171875</ele>
        <time>2026-06-19T09:05:19.000Z</time>
        <extensions>
          <ns3:TrackPointExtension>
            <ns3:atemp>18.0</ns3:atemp>
          </ns3:TrackPointExtension>
        </extensions>
      </trkpt>
      <trkpt lat="42.497853375971317291259765625" lon="20.006449520587921142578125">
        <ele>1984.5999755859375</ele>
        <time>2026-06-19T09:05:20.000Z</time>
        <extensions>
          <ns3:TrackPointExtension>
            <ns3:atemp>18.0</ns3:atemp>
          </ns3:TrackPointExtension>
        </extensions>
      </trkpt>
      <trkpt lat="42.49787709675729274749755859375" lon="20.00645480118691921234130859375">
        <ele>1984.800048828125</ele>
        <time>2026-06-19T09:05:21.000Z</time>
        <extensions>
          <ns3:TrackPointExtension>
            <ns3:atemp>18.0</ns3:atemp>
          </ns3:TrackPointExtension>
        </extensions>
      </trkpt>
      <trkpt lat="42.49790132045745849609375" lon="20.0064584054052829742431640625">
        <ele>1985</ele>
        <time>2026-06-19T09:05:22.000Z</time>
        <extensions>
          <ns3:TrackPointExtension>
            <ns3:atemp>18.0</ns3:atemp>
          </ns3:TrackPointExtension>
        </extensions>
      </trkpt>
      <trkpt lat="42.49792537651956081390380859375" lon="20.0064590759575366973876953125">
        <ele>1985.4000244140625</ele>
        <time>2026-06-19T09:05:23.000Z</time>
        <extensions>
          <ns3:TrackPointExtension>
            <ns3:atemp>18.0</ns3:atemp>
          </ns3:TrackPointExtension>
        </extensions>
      </trkpt>
      <trkpt lat="42.49794951640069484710693359375" lon="20.00645647756755352020263671875">
        <ele>1985.4000244140625</ele>
        <time>2026-06-19T09:05:24.000Z</time>
        <extensions>
          <ns3:TrackPointExtension>
            <ns3:atemp>18.0</ns3:atemp>
          </ns3:TrackPointExtension>
        </extensions>
      </trkpt>
      <trkpt lat="42.49797466211020946502685546875" lon="20.0064520351588726043701171875">
        <ele>1985.5999755859375</ele>
        <time>2026-06-19T09:05:25.000Z</time>
        <extensions>
          <ns3:TrackPointExtension>
            <ns3:atemp>18.0</ns3:atemp>
          </ns3:TrackPointExtension>
        </extensions>
      </trkpt>
      <trkpt lat="42.4980010651051998138427734375" lon="20.0064486823976039886474609375">
        <ele>1985.5999755859375</ele>
        <time>2026-06-19T09:05:26.000Z</time>
        <extensions>
          <ns3:TrackPointExtension>
            <ns3:atemp>18.0</ns3:atemp>
          </ns3:TrackPointExtension>
        </extensions>
      </trkpt>
      <trkpt lat="42.4980265460908412933349609375" lon="20.006444156169891357421875">
        <ele>1985.800048828125</ele>
        <time>2026-06-19T09:05:27.000Z</time>
        <extensions>
          <ns3:TrackPointExtension>
            <ns3:atemp>18.0</ns3:atemp>
          </ns3:TrackPointExtension>
        </extensions>
      </trkpt>
      <trkpt lat="42.49805353581905364990234375" lon="20.00644172541797161102294921875">
        <ele>1985.800048828125</ele>
        <time>2026-06-19T09:05:28.000Z</time>
        <extensions>
          <ns3:TrackPointExtension>
            <ns3:atemp>18.0</ns3:atemp>
          </ns3:TrackPointExtension>
        </extensions>
      </trkpt>
      <trkpt lat="42.4980838783085346221923828125" lon="20.0064463354647159576416015625">
        <ele>1985.800048828125</ele>
        <time>2026-06-19T09:05:29.000Z</time>
        <extensions>
          <ns3:TrackPointExtension>
            <ns3:atemp>18.0</ns3:atemp>
          </ns3:TrackPointExtension>
        </extensions>
      </trkpt>
      <trkpt lat="42.49811262823641300201416015625" lon="20.0064503587782382965087890625">
        <ele>1985.800048828125</ele>
        <time>2026-06-19T09:05:30.000Z</time>
        <extensions>
          <ns3:TrackPointExtension>
            <ns3:atemp>18.0</ns3:atemp>
          </ns3:TrackPointExtension>
        </extensions>
      </trkpt>
      <trkpt lat="42.49814079143106937408447265625" lon="20.00645555555820465087890625">
        <ele>1986</ele>
        <time>2026-06-19T09:05:31.000Z</time>
        <extensions>
          <ns3:TrackPointExtension>
            <ns3:atemp>18.0</ns3:atemp>
          </ns3:TrackPointExtension>
        </extensions>
      </trkpt>
      <trkpt lat="42.49817331321537494659423828125" lon="20.00646150670945644378662109375">
        <ele>1986.199951171875</ele>
        <time>2026-06-19T09:05:32.000Z</time>
        <extensions>
          <ns3:TrackPointExtension>
            <ns3:atemp>18.0</ns3:atemp>
          </ns3:TrackPointExtension>
        </extensions>
      </trkpt>
      <trkpt lat="42.498200051486492156982421875" lon="20.0064681284129619598388671875">
        <ele>1986.4000244140625</ele>
        <time>2026-06-19T09:05:33.000Z</time>
        <extensions>
          <ns3:TrackPointExtension>
            <ns3:atemp>18.0</ns3:atemp>
          </ns3:TrackPointExtension>
        </extensions>
      </trkpt>
      <trkpt lat="42.498227544128894805908203125" lon="20.00648061744868755340576171875">
        <ele>1986.5999755859375</ele>
        <time>2026-06-19T09:05:34.000Z</time>
        <extensions>
          <ns3:TrackPointExtension>
            <ns3:atemp>18.0</ns3:atemp>
          </ns3:TrackPointExtension>
        </extensions>
      </trkpt>
      <trkpt lat="42.49825864098966121673583984375" lon="20.006494782865047454833984375">
        <ele>1987</ele>
        <time>2026-06-19T09:05:35.000Z</time>
        <extensions>
          <ns3:TrackPointExtension>
            <ns3:atemp>18.0</ns3:atemp>
          </ns3:TrackPointExtension>
        </extensions>
      </trkpt>
      <trkpt lat="42.49829015694558620452880859375" lon="20.00650651752948760986328125">
        <ele>1987.199951171875</ele>
        <time>2026-06-19T09:05:36.000Z</time>
        <extensions>
          <ns3:TrackPointExtension>
            <ns3:atemp>18.0</ns3:atemp>
          </ns3:TrackPointExtension>
        </extensions>
      </trkpt>
      <trkpt lat="42.4983239360153675079345703125" lon="20.00651900656521320343017578125">
        <ele>1987.4000244140625</ele>
        <time>2026-06-19T09:05:37.000Z</time>
        <extensions>
          <ns3:TrackPointExtension>
            <ns3:atemp>18.0</ns3:atemp>
          </ns3:TrackPointExtension>
        </extensions>
      </trkpt>
      <trkpt lat="42.4983534403145313262939453125" lon="20.00652973540127277374267578125">
        <ele>1987.5999755859375</ele>
        <time>2026-06-19T09:05:38.000Z</time>
        <extensions>
          <ns3:TrackPointExtension>
            <ns3:atemp>18.0</ns3:atemp>
          </ns3:TrackPointExtension>
        </extensions>
      </trkpt>
      <trkpt lat="42.49838210642337799072265625" lon="20.00653945840895175933837890625">
        <ele>1987.800048828125</ele>
        <time>2026-06-19T09:05:39.000Z</time>
        <extensions>
          <ns3:TrackPointExtension>
            <ns3:atemp>18.0</ns3:atemp>
          </ns3:TrackPointExtension>
        </extensions>
      </trkpt>
      <trkpt lat="42.4984131194651126861572265625" lon="20.0065509416162967681884765625">
        <ele>1987.800048828125</ele>
        <time>2026-06-19T09:05:40.000Z</time>
        <extensions>
          <ns3:TrackPointExtension>
            <ns3:atemp>18.0</ns3:atemp>
          </ns3:TrackPointExtension>
        </extensions>
      </trkpt>
      <trkpt lat="42.49844321049749851226806640625" lon="20.00656108371913433074951171875">
        <ele>1988.199951171875</ele>
        <time>2026-06-19T09:05:41.000Z</time>
        <extensions>
          <ns3:TrackPointExtension>
            <ns3:atemp>18.0</ns3:atemp>
          </ns3:TrackPointExtension>
        </extensions>
      </trkpt>
      <trkpt lat="42.49846986494958400726318359375" lon="20.00657214783132076263427734375">
        <ele>1988.4000244140625</ele>
        <time>2026-06-19T09:05:42.000Z</time>
        <extensions>
          <ns3:TrackPointExtension>
            <ns3:atemp>18.0</ns3:atemp>
          </ns3:TrackPointExtension>
        </extensions>
      </trkpt>
      <trkpt lat="42.49849685467779636383056640625" lon="20.00658237375319004058837890625">
        <ele>1988.5999755859375</ele>
        <time>2026-06-19T09:05:43.000Z</time>
        <extensions>
          <ns3:TrackPointExtension>
            <ns3:atemp>18.0</ns3:atemp>
          </ns3:TrackPointExtension>
        </extensions>
      </trkpt>
      <trkpt lat="42.49852417968213558197021484375" lon="20.00659075565636157989501953125">
        <ele>1988.800048828125</ele>
        <time>2026-06-19T09:05:44.000Z</time>
        <extensions>
          <ns3:TrackPointExtension>
            <ns3:atemp>18.0</ns3:atemp>
          </ns3:TrackPointExtension>
        </extensions>
      </trkpt>
      <trkpt lat="42.4985515885055065155029296875" lon="20.00659645535051822662353515625">
        <ele>1989</ele>
        <time>2026-06-19T09:05:45.000Z</time>
        <extensions>
          <ns3:TrackPointExtension>
            <ns3:atemp>18.0</ns3:atemp>
          </ns3:TrackPointExtension>
        </extensions>
      </trkpt>
      <trkpt lat="42.49857866205275058746337890625" lon="20.00660173594951629638671875">
        <ele>1989.199951171875</ele>
        <time>2026-06-19T09:05:46.000Z</time>
        <extensions>
          <ns3:TrackPointExtension>
            <ns3:atemp>18.0</ns3:atemp>
          </ns3:TrackPointExtension>
        </extensions>
      </trkpt>
      <trkpt lat="42.498606741428375244140625" lon="20.0066102854907512664794921875">
        <ele>1989.4000244140625</ele>
        <time>2026-06-19T09:05:47.000Z</time>
        <extensions>
          <ns3:TrackPointExtension>
            <ns3:atemp>18.0</ns3:atemp>
          </ns3:TrackPointExtension>
        </extensions>
      </trkpt>
      <trkpt lat="42.49863180331885814666748046875" lon="20.00661891885101795196533203125">
        <ele>1989.5999755859375</ele>
        <time>2026-06-19T09:05:48.000Z</time>
        <extensions>
          <ns3:TrackPointExtension>
            <ns3:atemp>18.0</ns3:atemp>
          </ns3:TrackPointExtension>
        </extensions>
      </trkpt>
      <trkpt lat="42.4986578710377216339111328125" lon="20.00662386417388916015625">
        <ele>1990</ele>
        <time>2026-06-19T09:05:49.000Z</time>
        <extensions>
          <ns3:TrackPointExtension>
            <ns3:atemp>18.0</ns3:atemp>
          </ns3:TrackPointExtension>
        </extensions>
      </trkpt>
      <trkpt lat="42.49868519604206085205078125" lon="20.00662989914417266845703125">
        <ele>1990.199951171875</ele>
        <time>2026-06-19T09:05:50.000Z</time>
        <extensions>
          <ns3:TrackPointExtension>
            <ns3:atemp>18.0</ns3:atemp>
          </ns3:TrackPointExtension>
        </extensions>
      </trkpt>
      <trkpt lat="42.4987108446657657623291015625" lon="20.00663417391479015350341796875">
        <ele>1990.5999755859375</ele>
        <time>2026-06-19T09:05:51.000Z</time>
        <extensions>
          <ns3:TrackPointExtension>
            <ns3:atemp>18.0</ns3:atemp>
          </ns3:TrackPointExtension>
        </extensions>
      </trkpt>
      <trkpt lat="42.49873473308980464935302734375" lon="20.0066412985324859619140625">
        <ele>1991</ele>
        <time>2026-06-19T09:05:52.000Z</time>
        <extensions>
          <ns3:TrackPointExtension>
            <ns3:atemp>18.0</ns3:atemp>
          </ns3:TrackPointExtension>
        </extensions>
      </trkpt>
      <trkpt lat="42.4987618066370487213134765625" lon="20.0066464953124523162841796875">
        <ele>1991.199951171875</ele>
        <time>2026-06-19T09:05:53.000Z</time>
        <extensions>
          <ns3:TrackPointExtension>
            <ns3:atemp>18.0</ns3:atemp>
          </ns3:TrackPointExtension>
        </extensions>
      </trkpt>
      <trkpt lat="42.498788796365261077880859375" lon="20.00665328465402126312255859375">
        <ele>1991.4000244140625</ele>
        <time>2026-06-19T09:05:54.000Z</time>
        <extensions>
          <ns3:TrackPointExtension>
            <ns3:atemp>18.0</ns3:atemp>
          </ns3:TrackPointExtension>
        </extensions>
      </trkpt>
      <trkpt lat="42.4988171271979808807373046875" lon="20.0066599063575267791748046875">
        <ele>1991.5999755859375</ele>
        <time>2026-06-19T09:05:55.000Z</time>
        <extensions>
          <ns3:TrackPointExtension>
            <ns3:atemp>18.0</ns3:atemp>
          </ns3:TrackPointExtension>
        </extensions>
      </trkpt>
      <trkpt lat="42.4988426081836223602294921875" lon="20.0066609121859073638916015625">
        <ele>1992</ele>
        <time>2026-06-19T09:05:56.000Z</time>
        <extensions>
          <ns3:TrackPointExtension>
            <ns3:atemp>18.0</ns3:atemp>
          </ns3:TrackPointExtension>
        </extensions>
      </trkpt>
      <trkpt lat="42.49886984936892986297607421875" lon="20.00666451640427112579345703125">
        <ele>1992.199951171875</ele>
        <time>2026-06-19T09:05:57.000Z</time>
        <extensions>
          <ns3:TrackPointExtension>
            <ns3:atemp>18.0</ns3:atemp>
          </ns3:TrackPointExtension>
        </extensions>
      </trkpt>
      <trkpt lat="42.4988955818116664886474609375" lon="20.0066682882606983184814453125">
        <ele>1992.5999755859375</ele>
        <time>2026-06-19T09:05:58.000Z</time>
        <extensions>
          <ns3:TrackPointExtension>
            <ns3:atemp>18.0</ns3:atemp>
          </ns3:TrackPointExtension>
        </extensions>
      </trkpt>
      <trkpt lat="42.4989193864166736602783203125" lon="20.00667088665068149566650390625">
        <ele>1993</ele>
        <time>2026-06-19T09:05:59.000Z</time>
        <extensions>
          <ns3:TrackPointExtension>
            <ns3:atemp>18.0</ns3:atemp>
          </ns3:TrackPointExtension>
        </extensions>
      </trkpt>
      <trkpt lat="42.4989421851933002471923828125" lon="20.00667155720293521881103515625">
        <ele>1993.199951171875</ele>
        <time>2026-06-19T09:06:00.000Z</time>
        <extensions>
          <ns3:TrackPointExtension>
            <ns3:atemp>18.0</ns3:atemp>
          </ns3:TrackPointExtension>
        </extensions>
      </trkpt>
      <trkpt lat="42.49896439723670482635498046875" lon="20.00667138956487178802490234375">
        <ele>1993.5999755859375</ele>
        <time>2026-06-19T09:06:01.000Z</time>
        <extensions>
          <ns3:TrackPointExtension>
            <ns3:atemp>18.0</ns3:atemp>
          </ns3:TrackPointExtension>
        </extensions>
      </trkpt>
      <trkpt lat="42.498986609280109405517578125" lon="20.00667038373649120330810546875">
        <ele>1994</ele>
        <time>2026-06-19T09:06:02.000Z</time>
        <extensions>
          <ns3:TrackPointExtension>
            <ns3:atemp>18.0</ns3:atemp>
          </ns3:TrackPointExtension>
        </extensions>
      </trkpt>
      <trkpt lat="42.49900882132351398468017578125" lon="20.00666267238557338714599609375">
        <ele>1994.199951171875</ele>
        <time>2026-06-19T09:06:03.000Z</time>
        <extensions>
          <ns3:TrackPointExtension>
            <ns3:atemp>18.0</ns3:atemp>
          </ns3:TrackPointExtension>
        </extensions>
      </trkpt>
      <trkpt lat="42.4990323744714260101318359375" lon="20.0066562183201313018798828125">
        <ele>1994.5999755859375</ele>
        <time>2026-06-19T09:06:04.000Z</time>
        <extensions>
          <ns3:TrackPointExtension>
            <ns3:atemp>18.0</ns3:atemp>
          </ns3:TrackPointExtension>
        </extensions>
      </trkpt>
      <trkpt lat="42.49905760399997234344482421875" lon="20.00665294937789440155029296875">
        <ele>1995</ele>
        <time>2026-06-19T09:06:05.000Z</time>
        <extensions>
          <ns3:TrackPointExtension>
            <ns3:atemp>18.0</ns3:atemp>
          </ns3:TrackPointExtension>
        </extensions>
      </trkpt>
      <trkpt lat="42.49908073805272579193115234375" lon="20.0066521950066089630126953125">
        <ele>1995.4000244140625</ele>
        <time>2026-06-19T09:06:06.000Z</time>
        <extensions>
          <ns3:TrackPointExtension>
            <ns3:atemp>18.0</ns3:atemp>
          </ns3:TrackPointExtension>
        </extensions>
      </trkpt>
      <trkpt lat="42.49910688959062099456787109375" lon="20.0066600739955902099609375">
        <ele>1995.800048828125</ele>
        <time>2026-06-19T09:06:07.000Z</time>
        <extensions>
          <ns3:TrackPointExtension>
            <ns3:atemp>18.0</ns3:atemp>
          </ns3:TrackPointExtension>
        </extensions>
      </trkpt>
      <trkpt lat="42.499129772186279296875" lon="20.00666879117488861083984375">
        <ele>1996.199951171875</ele>
        <time>2026-06-19T09:06:08.000Z</time>
        <extensions>
          <ns3:TrackPointExtension>
            <ns3:atemp>18.0</ns3:atemp>
          </ns3:TrackPointExtension>
        </extensions>
      </trkpt>
      <trkpt lat="42.4991498887538909912109375" lon="20.0066776759922504425048828125">
        <ele>1996.5999755859375</ele>
        <time>2026-06-19T09:06:09.000Z</time>
        <extensions>
          <ns3:TrackPointExtension>
            <ns3:atemp>18.0</ns3:atemp>
          </ns3:TrackPointExtension>
        </extensions>
      </trkpt>
      <trkpt lat="42.49916707165539264678955078125" lon="20.00669150613248348236083984375">
        <ele>1996.800048828125</ele>
        <time>2026-06-19T09:06:10.000Z</time>
        <extensions>
          <ns3:TrackPointExtension>
            <ns3:atemp>18.0</ns3:atemp>
          </ns3:TrackPointExtension>
        </extensions>
      </trkpt>
      <trkpt lat="42.4991882778704166412353515625" lon="20.0067058391869068145751953125">
        <ele>1997.199951171875</ele>
        <time>2026-06-19T09:06:11.000Z</time>
        <extensions>
          <ns3:TrackPointExtension>
            <ns3:atemp>18.0</ns3:atemp>
          </ns3:TrackPointExtension>
        </extensions>
      </trkpt>
      <trkpt lat="42.4992090649902820587158203125" lon="20.00672184862196445465087890625">
        <ele>1997.4000244140625</ele>
        <time>2026-06-19T09:06:12.000Z</time>
        <extensions>
          <ns3:TrackPointExtension>
            <ns3:atemp>18.0</ns3:atemp>
          </ns3:TrackPointExtension>
        </extensions>
      </trkpt>
      <trkpt lat="42.49922842718660831451416015625" lon="20.006742216646671295166015625">
        <ele>1997.5999755859375</ele>
        <time>2026-06-19T09:06:13.000Z</time>
        <extensions>
          <ns3:TrackPointExtension>
            <ns3:atemp>18.0</ns3:atemp>
          </ns3:TrackPointExtension>
        </extensions>
      </trkpt>
      <trkpt lat="42.4992456100881099700927734375" lon="20.00676526688039302825927734375">
        <ele>1997.800048828125</ele>
        <time>2026-06-19T09:06:14.000Z</time>
        <extensions>
          <ns3:TrackPointExtension>
            <ns3:atemp>18.0</ns3:atemp>
          </ns3:TrackPointExtension>
        </extensions>
      </trkpt>
      <trkpt lat="42.49926161952316761016845703125" lon="20.00678756274282932281494140625">
        <ele>1998</ele>
        <time>2026-06-19T09:06:15.000Z</time>
        <extensions>
          <ns3:TrackPointExtension>
            <ns3:atemp>18.0</ns3:atemp>
          </ns3:TrackPointExtension>
        </extensions>
      </trkpt>
      <trkpt lat="42.4992784671485424041748046875" lon="20.00680985860526561737060546875">
        <ele>1998.199951171875</ele>
        <time>2026-06-19T09:06:16.000Z</time>
        <extensions>
          <ns3:TrackPointExtension>
            <ns3:atemp>18.0</ns3:atemp>
          </ns3:TrackPointExtension>
        </extensions>
      </trkpt>
      <trkpt lat="42.4992947280406951904296875" lon="20.00683198682963848114013671875">
        <ele>1998.4000244140625</ele>
        <time>2026-06-19T09:06:17.000Z</time>
        <extensions>
          <ns3:TrackPointExtension>
            <ns3:atemp>18.0</ns3:atemp>
          </ns3:TrackPointExtension>
        </extensions>
      </trkpt>
      <trkpt lat="42.4993153475224971771240234375" lon="20.00685654580593109130859375">
        <ele>1998.5999755859375</ele>
        <time>2026-06-19T09:06:18.000Z</time>
        <extensions>
          <ns3:TrackPointExtension>
            <ns3:atemp>18.0</ns3:atemp>
          </ns3:TrackPointExtension>
        </extensions>
      </trkpt>
      <trkpt lat="42.4993344582617282867431640625" lon="20.0068768300116062164306640625">
        <ele>1998.5999755859375</ele>
        <time>2026-06-19T09:06:19.000Z</time>
        <extensions>
          <ns3:TrackPointExtension>
            <ns3:atemp>18.0</ns3:atemp>
          </ns3:TrackPointExtension>
        </extensions>
      </trkpt>
      <trkpt lat="42.49935415573418140411376953125" lon="20.00689837150275707244873046875">
        <ele>1998.800048828125</ele>
        <time>2026-06-19T09:06:20.000Z</time>
        <extensions>
          <ns3:TrackPointExtension>
            <ns3:atemp>18.0</ns3:atemp>
          </ns3:TrackPointExtension>
        </extensions>
      </trkpt>
      <trkpt lat="42.49937762506306171417236328125" lon="20.0069173984229564666748046875">
        <ele>1999</ele>
        <time>2026-06-19T09:06:21.000Z</time>
        <extensions>
          <ns3:TrackPointExtension>
            <ns3:atemp>18.0</ns3:atemp>
          </ns3:TrackPointExtension>
        </extensions>
      </trkpt>
      <trkpt lat="42.4994008429348468780517578125" lon="20.006938017904758453369140625">
        <ele>1999.199951171875</ele>
        <time>2026-06-19T09:06:22.000Z</time>
        <extensions>
          <ns3:TrackPointExtension>
            <ns3:atemp>18.0</ns3:atemp>
          </ns3:TrackPointExtension>
        </extensions>
      </trkpt>
      <trkpt lat="42.49942146241664886474609375" lon="20.00695385970175266265869140625">
        <ele>1999.4000244140625</ele>
        <time>2026-06-19T09:06:23.000Z</time>
        <extensions>
          <ns3:TrackPointExtension>
            <ns3:atemp>18.0</ns3:atemp>
          </ns3:TrackPointExtension>
        </extensions>
      </trkpt>
      <trkpt lat="42.49944099225103855133056640625" lon="20.0069660134613513946533203125">
        <ele>1999.5999755859375</ele>
        <time>2026-06-19T09:06:24.000Z</time>
        <extensions>
          <ns3:TrackPointExtension>
            <ns3:atemp>18.0</ns3:atemp>
          </ns3:TrackPointExtension>
        </extensions>
      </trkpt>
      <trkpt lat="42.49945909716188907623291015625" lon="20.0069747306406497955322265625">
        <ele>1999.800048828125</ele>
        <time>2026-06-19T09:06:25.000Z</time>
        <extensions>
          <ns3:TrackPointExtension>
            <ns3:atemp>18.0</ns3:atemp>
          </ns3:TrackPointExtension>
        </extensions>
      </trkpt>
      <trkpt lat="42.49947904609143733978271484375" lon="20.0069821067154407501220703125">
        <ele>2000</ele>
        <time>2026-06-19T09:06:26.000Z</time>
        <extensions>
          <ns3:TrackPointExtension>
            <ns3:atemp>18.0</ns3:atemp>
          </ns3:TrackPointExtension>
        </extensions>
      </trkpt>
      <trkpt lat="42.4994940496981143951416015625" lon="20.0069904886186122894287109375">
        <ele>2000.4000244140625</ele>
        <time>2026-06-19T09:06:27.000Z</time>
        <extensions>
          <ns3:TrackPointExtension>
            <ns3:atemp>18.0</ns3:atemp>
          </ns3:TrackPointExtension>
        </extensions>
      </trkpt>
      <trkpt lat="42.49950771220028400421142578125" lon="20.0069980323314666748046875">
        <ele>2000.5999755859375</ele>
        <time>2026-06-19T09:06:28.000Z</time>
        <extensions>
          <ns3:TrackPointExtension>
            <ns3:atemp>18.0</ns3:atemp>
          </ns3:TrackPointExtension>
        </extensions>
      </trkpt>
      <trkpt lat="42.4995255656540393829345703125" lon="20.0070082582533359527587890625">
        <ele>2000.800048828125</ele>
        <time>2026-06-19T09:06:29.000Z</time>
        <extensions>
          <ns3:TrackPointExtension>
            <ns3:atemp>18.0</ns3:atemp>
          </ns3:TrackPointExtension>
        </extensions>
      </trkpt>
      <trkpt lat="42.49954056926071643829345703125" lon="20.00702057965099811553955078125">
        <ele>2001</ele>
        <time>2026-06-19T09:06:30.000Z</time>
        <extensions>
          <ns3:TrackPointExtension>
            <ns3:atemp>18.0</ns3:atemp>
          </ns3:TrackPointExtension>
        </extensions>
      </trkpt>
      <trkpt lat="42.49955691397190093994140625" lon="20.00702778808772563934326171875">
        <ele>2001.199951171875</ele>
        <time>2026-06-19T09:06:31.000Z</time>
        <extensions>
          <ns3:TrackPointExtension>
            <ns3:atemp>18.0</ns3:atemp>
          </ns3:TrackPointExtension>
        </extensions>
      </trkpt>
      <trkpt lat="42.49957543797791004180908203125" lon="20.00703600235283374786376953125">
        <ele>2001.4000244140625</ele>
        <time>2026-06-19T09:06:32.000Z</time>
        <extensions>
          <ns3:TrackPointExtension>
            <ns3:atemp>18.0</ns3:atemp>
          </ns3:TrackPointExtension>
        </extensions>
      </trkpt>
      <trkpt lat="42.499590776860713958740234375" lon="20.007041282951831817626953125">
        <ele>2001.4000244140625</ele>
        <time>2026-06-19T09:06:33.000Z</time>
        <extensions>
          <ns3:TrackPointExtension>
            <ns3:atemp>18.0</ns3:atemp>
          </ns3:TrackPointExtension>
        </extensions>
      </trkpt>
      <trkpt lat="42.49960846267640590667724609375" lon="20.0070501677691936492919921875">
        <ele>2001.5999755859375</ele>
        <time>2026-06-19T09:06:34.000Z</time>
        <extensions>
          <ns3:TrackPointExtension>
            <ns3:atemp>18.0</ns3:atemp>
          </ns3:TrackPointExtension>
        </extensions>
      </trkpt>
      <trkpt lat="42.49962187372148036956787109375" lon="20.00705762766301631927490234375">
        <ele>2001.5999755859375</ele>
        <time>2026-06-19T09:06:35.000Z</time>
        <extensions>
          <ns3:TrackPointExtension>
            <ns3:atemp>18.0</ns3:atemp>
          </ns3:TrackPointExtension>
        </extensions>
      </trkpt>
      <trkpt lat="42.4996368773281574249267578125" lon="20.0070649199187755584716796875">
        <ele>2001.5999755859375</ele>
        <time>2026-06-19T09:06:36.000Z</time>
        <extensions>
          <ns3:TrackPointExtension>
            <ns3:atemp>18.0</ns3:atemp>
          </ns3:TrackPointExtension>
        </extensions>
      </trkpt>
      <trkpt lat="42.49965338967740535736083984375" lon="20.00706550665199756622314453125">
        <ele>2001.800048828125</ele>
        <time>2026-06-19T09:06:37.000Z</time>
        <extensions>
          <ns3:TrackPointExtension>
            <ns3:atemp>18.0</ns3:atemp>
          </ns3:TrackPointExtension>
        </extensions>
      </trkpt>
      <trkpt lat="42.49967434443533420562744140625" lon="20.007068105041980743408203125">
        <ele>2001.800048828125</ele>
        <time>2026-06-19T09:06:38.000Z</time>
        <extensions>
          <ns3:TrackPointExtension>
            <ns3:atemp>18.0</ns3:atemp>
          </ns3:TrackPointExtension>
        </extensions>
      </trkpt>
      <trkpt lat="42.49969077296555042266845703125" lon="20.0070706196129322052001953125">
        <ele>2001.800048828125</ele>
        <time>2026-06-19T09:06:39.000Z</time>
        <extensions>
          <ns3:TrackPointExtension>
            <ns3:atemp>18.0</ns3:atemp>
          </ns3:TrackPointExtension>
        </extensions>
      </trkpt>
      <trkpt lat="42.4997069500386714935302734375" lon="20.0070763193070888519287109375">
        <ele>2002</ele>
        <time>2026-06-19T09:06:40.000Z</time>
        <extensions>
          <ns3:TrackPointExtension>
            <ns3:atemp>18.0</ns3:atemp>
          </ns3:TrackPointExtension>
        </extensions>
      </trkpt>
      <trkpt lat="42.49972262419760227203369140625" lon="20.0070820190012454986572265625">
        <ele>2002</ele>
        <time>2026-06-19T09:06:41.000Z</time>
        <extensions>
          <ns3:TrackPointExtension>
            <ns3:atemp>18.0</ns3:atemp>
          </ns3:TrackPointExtension>
        </extensions>
      </trkpt>
      <trkpt lat="42.49974106438457965850830078125" lon="20.00708587467670440673828125">
        <ele>2002</ele>
        <time>2026-06-19T09:06:42.000Z</time>
        <extensions>
          <ns3:TrackPointExtension>
            <ns3:atemp>18.0</ns3:atemp>
          </ns3:TrackPointExtension>
        </extensions>
      </trkpt>
      <trkpt lat="42.4997619353234767913818359375" lon="20.00709115527570247650146484375">
        <ele>2002</ele>
        <time>2026-06-19T09:06:43.000Z</time>
        <extensions>
          <ns3:TrackPointExtension>
            <ns3:atemp>18.0</ns3:atemp>
          </ns3:TrackPointExtension>
        </extensions>
      </trkpt>
      <trkpt lat="42.4997828900814056396484375" lon="20.00709702260792255401611328125">
        <ele>2002</ele>
        <time>2026-06-19T09:06:44.000Z</time>
        <extensions>
          <ns3:TrackPointExtension>
            <ns3:atemp>18.0</ns3:atemp>
          </ns3:TrackPointExtension>
        </extensions>
      </trkpt>
      <trkpt lat="42.49980543740093708038330078125" lon="20.00710071064531803131103515625">
        <ele>2002</ele>
        <time>2026-06-19T09:06:45.000Z</time>
        <extensions>
          <ns3:TrackPointExtension>
            <ns3:atemp>18.0</ns3:atemp>
          </ns3:TrackPointExtension>
        </extensions>
      </trkpt>
      <trkpt lat="42.4998271465301513671875" lon="20.00710942782461643218994140625">
        <ele>2002</ele>
        <time>2026-06-19T09:06:46.000Z</time>
        <extensions>
          <ns3:TrackPointExtension>
            <ns3:atemp>18.0</ns3:atemp>
          </ns3:TrackPointExtension>
        </extensions>
      </trkpt>
      <trkpt lat="42.49984717927873134613037109375" lon="20.0071195699274539947509765625">
        <ele>2002</ele>
        <time>2026-06-19T09:06:47.000Z</time>
        <extensions>
          <ns3:TrackPointExtension>
            <ns3:atemp>18.0</ns3:atemp>
          </ns3:TrackPointExtension>
        </extensions>
      </trkpt>
      <trkpt lat="42.49987064860761165618896484375" lon="20.00712987966835498809814453125">
        <ele>2001.800048828125</ele>
        <time>2026-06-19T09:06:48.000Z</time>
        <extensions>
          <ns3:TrackPointExtension>
            <ns3:atemp>18.0</ns3:atemp>
          </ns3:TrackPointExtension>
        </extensions>
      </trkpt>
      <trkpt lat="42.4998982250690460205078125" lon="20.00713809393346309661865234375">
        <ele>2001.800048828125</ele>
        <time>2026-06-19T09:06:49.000Z</time>
        <extensions>
          <ns3:TrackPointExtension>
            <ns3:atemp>18.0</ns3:atemp>
          </ns3:TrackPointExtension>
        </extensions>
      </trkpt>
      <trkpt lat="42.49992764554917812347412109375" lon="20.007145889103412628173828125">
        <ele>2001.800048828125</ele>
        <time>2026-06-19T09:06:50.000Z</time>
        <extensions>
          <ns3:TrackPointExtension>
            <ns3:atemp>18.0</ns3:atemp>
          </ns3:TrackPointExtension>
        </extensions>
      </trkpt>
      <trkpt lat="42.49995782040059566497802734375" lon="20.0071490742266178131103515625">
        <ele>2001.800048828125</ele>
        <time>2026-06-19T09:06:51.000Z</time>
        <extensions>
          <ns3:TrackPointExtension>
            <ns3:atemp>18.0</ns3:atemp>
          </ns3:TrackPointExtension>
        </extensions>
      </trkpt>
      <trkpt lat="42.49998799525201320648193359375" lon="20.007154941558837890625">
        <ele>2002</ele>
        <time>2026-06-19T09:06:52.000Z</time>
        <extensions>
          <ns3:TrackPointExtension>
            <ns3:atemp>18.0</ns3:atemp>
          </ns3:TrackPointExtension>
        </extensions>
      </trkpt>
      <trkpt lat="42.500016577541828155517578125" lon="20.0071591325104236602783203125">
        <ele>2002</ele>
        <time>2026-06-19T09:06:53.000Z</time>
        <extensions>
          <ns3:TrackPointExtension>
            <ns3:atemp>18.0</ns3:atemp>
          </ns3:TrackPointExtension>
        </extensions>
      </trkpt>
      <trkpt lat="42.5000445730984210968017578125" lon="20.00716173090040683746337890625">
        <ele>2002</ele>
        <time>2026-06-19T09:06:54.000Z</time>
        <extensions>
          <ns3:TrackPointExtension>
            <ns3:atemp>18.0</ns3:atemp>
          </ns3:TrackPointExtension>
        </extensions>
      </trkpt>
      <trkpt lat="42.50007332302629947662353515625" lon="20.0071584619581699371337890625">
        <ele>2002</ele>
        <time>2026-06-19T09:06:55.000Z</time>
        <extensions>
          <ns3:TrackPointExtension>
            <ns3:atemp>18.0</ns3:atemp>
          </ns3:TrackPointExtension>
        </extensions>
      </trkpt>
      <trkpt lat="42.50010140240192413330078125" lon="20.00716441310942173004150390625">
        <ele>2002</ele>
        <time>2026-06-19T09:06:56.000Z</time>
        <extensions>
          <ns3:TrackPointExtension>
            <ns3:atemp>18.0</ns3:atemp>
          </ns3:TrackPointExtension>
        </extensions>
      </trkpt>
      <trkpt lat="42.50013115815818309783935546875" lon="20.00716902315616607666015625">
        <ele>2002</ele>
        <time>2026-06-19T09:06:57.000Z</time>
        <extensions>
          <ns3:TrackPointExtension>
            <ns3:atemp>18.0</ns3:atemp>
          </ns3:TrackPointExtension>
        </extensions>
      </trkpt>
      <trkpt lat="42.50016116537153720855712890625" lon="20.00717279501259326934814453125">
        <ele>2002.199951171875</ele>
        <time>2026-06-19T09:06:58.000Z</time>
        <extensions>
          <ns3:TrackPointExtension>
            <ns3:atemp>18.0</ns3:atemp>
          </ns3:TrackPointExtension>
        </extensions>
      </trkpt>
      <trkpt lat="42.50019167549908161163330078125" lon="20.00717447139322757720947265625">
        <ele>2002.199951171875</ele>
        <time>2026-06-19T09:06:59.000Z</time>
        <extensions>
          <ns3:TrackPointExtension>
            <ns3:atemp>18.0</ns3:atemp>
          </ns3:TrackPointExtension>
        </extensions>
      </trkpt>
      <trkpt lat="42.500221095979213714599609375" lon="20.0071782432496547698974609375">
        <ele>2002.4000244140625</ele>
        <time>2026-06-19T09:07:00.000Z</time>
        <extensions>
          <ns3:TrackPointExtension>
            <ns3:atemp>18.0</ns3:atemp>
          </ns3:TrackPointExtension>
        </extensions>
      </trkpt>
      <trkpt lat="42.50024749897420406341552734375" lon="20.00718419440090656280517578125">
        <ele>2002.4000244140625</ele>
        <time>2026-06-19T09:07:01.000Z</time>
        <extensions>
          <ns3:TrackPointExtension>
            <ns3:atemp>18.0</ns3:atemp>
          </ns3:TrackPointExtension>
        </extensions>
      </trkpt>
      <trkpt lat="42.5002782605588436126708984375" lon="20.00719224102795124053955078125">
        <ele>2002.4000244140625</ele>
        <time>2026-06-19T09:07:02.000Z</time>
        <extensions>
          <ns3:TrackPointExtension>
            <ns3:atemp>18.0</ns3:atemp>
          </ns3:TrackPointExtension>
        </extensions>
      </trkpt>
      <trkpt lat="42.50030499882996082305908203125" lon="20.0071938335895538330078125">
        <ele>2002.5999755859375</ele>
        <time>2026-06-19T09:07:03.000Z</time>
        <extensions>
          <ns3:TrackPointExtension>
            <ns3:atemp>18.0</ns3:atemp>
          </ns3:TrackPointExtension>
        </extensions>
      </trkpt>
      <trkpt lat="42.5003339163959026336669921875" lon="20.007191486656665802001953125">
        <ele>2002.4000244140625</ele>
        <time>2026-06-19T09:07:04.000Z</time>
        <extensions>
          <ns3:TrackPointExtension>
            <ns3:atemp>18.0</ns3:atemp>
          </ns3:TrackPointExtension>
        </extensions>
      </trkpt>
      <trkpt lat="42.5003654323518276214599609375" lon="20.0071933306753635406494140625">
        <ele>2002.4000244140625</ele>
        <time>2026-06-19T09:07:05.000Z</time>
        <extensions>
          <ns3:TrackPointExtension>
            <ns3:atemp>18.0</ns3:atemp>
          </ns3:TrackPointExtension>
        </extensions>
      </trkpt>
      <trkpt lat="42.5003966130316257476806640625" lon="20.007204227149486541748046875">
        <ele>2002.4000244140625</ele>
        <time>2026-06-19T09:07:06.000Z</time>
        <extensions>
          <ns3:TrackPointExtension>
            <ns3:atemp>18.0</ns3:atemp>
          </ns3:TrackPointExtension>
        </extensions>
      </trkpt>
      <trkpt lat="42.500424943864345550537109375" lon="20.00721059739589691162109375">
        <ele>2002.4000244140625</ele>
        <time>2026-06-19T09:07:07.000Z</time>
        <extensions>
          <ns3:TrackPointExtension>
            <ns3:atemp>18.0</ns3:atemp>
          </ns3:TrackPointExtension>
        </extensions>
      </trkpt>
      <trkpt lat="42.5004562921822071075439453125" lon="20.00722643919289112091064453125">
        <ele>2002.199951171875</ele>
        <time>2026-06-19T09:07:08.000Z</time>
        <extensions>
          <ns3:TrackPointExtension>
            <ns3:atemp>18.0</ns3:atemp>
          </ns3:TrackPointExtension>
        </extensions>
      </trkpt>
      <trkpt lat="42.5004864670336246490478515625" lon="20.00723750330507755279541015625">
        <ele>2002.199951171875</ele>
        <time>2026-06-19T09:07:09.000Z</time>
        <extensions>
          <ns3:TrackPointExtension>
            <ns3:atemp>18.0</ns3:atemp>
          </ns3:TrackPointExtension>
        </extensions>
      </trkpt>
      <trkpt lat="42.50051722861826419830322265625" lon="20.007253177464008331298828125">
        <ele>2002</ele>
        <time>2026-06-19T09:07:10.000Z</time>
        <extensions>
          <ns3:TrackPointExtension>
            <ns3:atemp>18.0</ns3:atemp>
          </ns3:TrackPointExtension>
        </extensions>
      </trkpt>
      <trkpt lat="42.50054690055549144744873046875" lon="20.007267929613590240478515625">
        <ele>2002</ele>
        <time>2026-06-19T09:07:11.000Z</time>
        <extensions>
          <ns3:TrackPointExtension>
            <ns3:atemp>18.0</ns3:atemp>
          </ns3:TrackPointExtension>
        </extensions>
      </trkpt>
      <trkpt lat="42.50057925470173358917236328125" lon="20.007279999554157257080078125">
        <ele>2002</ele>
        <time>2026-06-19T09:07:12.000Z</time>
        <extensions>
          <ns3:TrackPointExtension>
            <ns3:atemp>18.0</ns3:atemp>
          </ns3:TrackPointExtension>
        </extensions>
      </trkpt>
      <trkpt lat="42.5006158836185932159423828125" lon="20.0072796642780303955078125">
        <ele>2002</ele>
        <time>2026-06-19T09:07:13.000Z</time>
        <extensions>
          <ns3:TrackPointExtension>
            <ns3:atemp>18.0</ns3:atemp>
          </ns3:TrackPointExtension>
        </extensions>
      </trkpt>
      <trkpt lat="42.50065435655415058135986328125" lon="20.00728276558220386505126953125">
        <ele>2001.800048828125</ele>
        <time>2026-06-19T09:07:14.000Z</time>
        <extensions>
          <ns3:TrackPointExtension>
            <ns3:atemp>18.0</ns3:atemp>
          </ns3:TrackPointExtension>
        </extensions>
      </trkpt>
      <trkpt lat="42.5006933324038982391357421875" lon="20.00728578306734561920166015625">
        <ele>2001.800048828125</ele>
        <time>2026-06-19T09:07:15.000Z</time>
        <extensions>
          <ns3:TrackPointExtension>
            <ns3:atemp>18.0</ns3:atemp>
          </ns3:TrackPointExtension>
        </extensions>
      </trkpt>
      <trkpt lat="42.50073515810072422027587890625" lon="20.00728326849639415740966796875">
        <ele>2001.5999755859375</ele>
        <time>2026-06-19T09:07:16.000Z</time>
        <extensions>
          <ns3:TrackPointExtension>
            <ns3:atemp>18.0</ns3:atemp>
          </ns3:TrackPointExtension>
        </extensions>
      </trkpt>
      <trkpt lat="42.5007811747491359710693359375" lon="20.0072691030800342559814453125">
        <ele>2001.4000244140625</ele>
        <time>2026-06-19T09:07:17.000Z</time>
        <extensions>
          <ns3:TrackPointExtension>
            <ns3:atemp>18.0</ns3:atemp>
          </ns3:TrackPointExtension>
        </extensions>
      </trkpt>
      <trkpt lat="42.5008271075785160064697265625" lon="20.00724219717085361480712890625">
        <ele>2001.199951171875</ele>
        <time>2026-06-19T09:07:18.000Z</time>
        <extensions>
          <ns3:TrackPointExtension>
            <ns3:atemp>18.0</ns3:atemp>
          </ns3:TrackPointExtension>
        </extensions>
      </trkpt>
      <trkpt lat="42.50087731517851352691650390625" lon="20.007214285433292388916015625">
        <ele>2000.800048828125</ele>
        <time>2026-06-19T09:07:19.000Z</time>
        <extensions>
          <ns3:TrackPointExtension>
            <ns3:atemp>18.0</ns3:atemp>
          </ns3:TrackPointExtension>
        </extensions>
      </trkpt>
      <trkpt lat="42.50093045644462108612060546875" lon="20.00717975199222564697265625">
        <ele>2000.4000244140625</ele>
        <time>2026-06-19T09:07:20.000Z</time>
        <extensions>
          <ns3:TrackPointExtension>
            <ns3:atemp>18.0</ns3:atemp>
          </ns3:TrackPointExtension>
        </extensions>
      </trkpt>
      <trkpt lat="42.50098527409136295318603515625" lon="20.0071437098085880279541015625">
        <ele>2000</ele>
        <time>2026-06-19T09:07:21.000Z</time>
        <extensions>
          <ns3:TrackPointExtension>
            <ns3:atemp>18.0</ns3:atemp>
          </ns3:TrackPointExtension>
        </extensions>
      </trkpt>
      <trkpt lat="42.50104025937616825103759765625" lon="20.0070994533598423004150390625">
        <ele>1999.4000244140625</ele>
        <time>2026-06-19T09:07:22.000Z</time>
        <extensions>
          <ns3:TrackPointExtension>
            <ns3:atemp>18.0</ns3:atemp>
          </ns3:TrackPointExtension>
        </extensions>
      </trkpt>
      <trkpt lat="42.5010986812412738800048828125" lon="20.0070575438439846038818359375">
        <ele>1999</ele>
        <time>2026-06-19T09:07:23.000Z</time>
        <extensions>
          <ns3:TrackPointExtension>
            <ns3:atemp>18.0</ns3:atemp>
          </ns3:TrackPointExtension>
        </extensions>
      </trkpt>
      <trkpt lat="42.50115945003926753997802734375" lon="20.00702192075550556182861328125">
        <ele>1998.5999755859375</ele>
        <time>2026-06-19T09:07:24.000Z</time>
        <extensions>
          <ns3:TrackPointExtension>
            <ns3:atemp>18.0</ns3:atemp>
          </ns3:TrackPointExtension>
        </extensions>
      </trkpt>
      <trkpt lat="42.50122256577014923095703125" lon="20.006992332637310028076171875">
        <ele>1998.199951171875</ele>
        <time>2026-06-19T09:07:25.000Z</time>
        <extensions>
          <ns3:TrackPointExtension>
            <ns3:atemp>18.0</ns3:atemp>
          </ns3:TrackPointExtension>
        </extensions>
      </trkpt>
      <trkpt lat="42.50128786079585552215576171875" lon="20.0069740600883960723876953125">
        <ele>1997.800048828125</ele>
        <time>2026-06-19T09:07:26.000Z</time>
        <extensions>
          <ns3:TrackPointExtension>
            <ns3:atemp>18.0</ns3:atemp>
          </ns3:TrackPointExtension>
        </extensions>
      </trkpt>
      <trkpt lat="42.50135374255478382110595703125" lon="20.0069767422974109649658203125">
        <ele>1997.5999755859375</ele>
        <time>2026-06-19T09:07:27.000Z</time>
        <extensions>
          <ns3:TrackPointExtension>
            <ns3:atemp>18.0</ns3:atemp>
          </ns3:TrackPointExtension>
        </extensions>
      </trkpt>
      <trkpt lat="42.5014128349721431732177734375" lon="20.00699308700859546661376953125">
        <ele>1997.4000244140625</ele>
        <time>2026-06-19T09:07:28.000Z</time>
        <extensions>
          <ns3:TrackPointExtension>
            <ns3:atemp>18.0</ns3:atemp>
          </ns3:TrackPointExtension>
        </extensions>
      </trkpt>
      <trkpt lat="42.50147008337080478668212890625" lon="20.00700314529240131378173828125">
        <ele>1997.199951171875</ele>
        <time>2026-06-19T09:07:29.000Z</time>
        <extensions>
          <ns3:TrackPointExtension>
            <ns3:atemp>18.0</ns3:atemp>
          </ns3:TrackPointExtension>
        </extensions>
      </trkpt>
      <trkpt lat="42.50152808614075183868408203125" lon="20.0070139579474925994873046875">
        <ele>1997.199951171875</ele>
        <time>2026-06-19T09:07:30.000Z</time>
        <extensions>
          <ns3:TrackPointExtension>
            <ns3:atemp>18.0</ns3:atemp>
          </ns3:TrackPointExtension>
        </extensions>
      </trkpt>
      <trkpt lat="42.5015811435878276824951171875" lon="20.00702896155416965484619140625">
        <ele>1997.199951171875</ele>
        <time>2026-06-19T09:07:31.000Z</time>
        <extensions>
          <ns3:TrackPointExtension>
            <ns3:atemp>18.0</ns3:atemp>
          </ns3:TrackPointExtension>
        </extensions>
      </trkpt>
      <trkpt lat="42.50163294374942779541015625" lon="20.00704589299857616424560546875">
        <ele>1997.199951171875</ele>
        <time>2026-06-19T09:07:32.000Z</time>
        <extensions>
          <ns3:TrackPointExtension>
            <ns3:atemp>18.0</ns3:atemp>
          </ns3:TrackPointExtension>
        </extensions>
      </trkpt>
      <trkpt lat="42.50168013386428356170654296875" lon="20.0070729665458202362060546875">
        <ele>1997.199951171875</ele>
        <time>2026-06-19T09:07:33.000Z</time>
        <extensions>
          <ns3:TrackPointExtension>
            <ns3:atemp>18.0</ns3:atemp>
          </ns3:TrackPointExtension>
        </extensions>
      </trkpt>
      <trkpt lat="42.5017239712178707122802734375" lon="20.007109679281711578369140625">
        <ele>1997.5999755859375</ele>
        <time>2026-06-19T09:07:34.000Z</time>
        <extensions>
          <ns3:TrackPointExtension>
            <ns3:atemp>18.0</ns3:atemp>
          </ns3:TrackPointExtension>
        </extensions>
      </trkpt>
      <trkpt lat="42.5017688982188701629638671875" lon="20.00714865513145923614501953125">
        <ele>1997.5999755859375</ele>
        <time>2026-06-19T09:07:35.000Z</time>
        <extensions>
          <ns3:TrackPointExtension>
            <ns3:atemp>18.0</ns3:atemp>
          </ns3:TrackPointExtension>
        </extensions>
      </trkpt>
      <trkpt lat="42.501810304820537567138671875" lon="20.0071973539888858795166015625">
        <ele>1997.800048828125</ele>
        <time>2026-06-19T09:07:36.000Z</time>
        <extensions>
          <ns3:TrackPointExtension>
            <ns3:atemp>18.0</ns3:atemp>
          </ns3:TrackPointExtension>
        </extensions>
      </trkpt>
      <trkpt lat="42.50184483826160430908203125" lon="20.00724789686501026153564453125">
        <ele>1997.800048828125</ele>
        <time>2026-06-19T09:07:37.000Z</time>
        <extensions>
          <ns3:TrackPointExtension>
            <ns3:atemp>18.0</ns3:atemp>
          </ns3:TrackPointExtension>
        </extensions>
      </trkpt>
      <trkpt lat="42.50187744386494159698486328125" lon="20.00730170868337154388427734375">
        <ele>1998</ele>
        <time>2026-06-19T09:07:38.000Z</time>
        <extensions>
          <ns3:TrackPointExtension>
            <ns3:atemp>18.0</ns3:atemp>
          </ns3:TrackPointExtension>
        </extensions>
      </trkpt>
      <trkpt lat="42.50191046856343746185302734375" lon="20.00735132955014705657958984375">
        <ele>1998.199951171875</ele>
        <time>2026-06-19T09:07:39.000Z</time>
        <extensions>
          <ns3:TrackPointExtension>
            <ns3:atemp>18.0</ns3:atemp>
          </ns3:TrackPointExtension>
        </extensions>
      </trkpt>
      <trkpt lat="42.5019388832151889801025390625" lon="20.00739776529371738433837890625">
        <ele>1998.5999755859375</ele>
        <time>2026-06-19T09:07:40.000Z</time>
        <extensions>
          <ns3:TrackPointExtension>
            <ns3:atemp>18.0</ns3:atemp>
          </ns3:TrackPointExtension>
        </extensions>
      </trkpt>
      <trkpt lat="42.5019646994769573211669921875" lon="20.0074481405317783355712890625">
        <ele>1998.800048828125</ele>
        <time>2026-06-19T09:07:41.000Z</time>
        <extensions>
          <ns3:TrackPointExtension>
            <ns3:atemp>18.0</ns3:atemp>
          </ns3:TrackPointExtension>
        </extensions>
      </trkpt>
      <trkpt lat="42.50198959372937679290771484375" lon="20.007497258484363555908203125">
        <ele>1999.199951171875</ele>
        <time>2026-06-19T09:07:42.000Z</time>
        <extensions>
          <ns3:TrackPointExtension>
            <ns3:atemp>18.0</ns3:atemp>
          </ns3:TrackPointExtension>
        </extensions>
      </trkpt>
      <trkpt lat="42.502012141048908233642578125" lon="20.00753656961023807525634765625">
        <ele>1999.5999755859375</ele>
        <time>2026-06-19T09:07:43.000Z</time>
        <extensions>
          <ns3:TrackPointExtension>
            <ns3:atemp>18.0</ns3:atemp>
          </ns3:TrackPointExtension>
        </extensions>
      </trkpt>
      <trkpt lat="42.50203284434974193572998046875" lon="20.0075705163180828094482421875">
        <ele>1999.800048828125</ele>
        <time>2026-06-19T09:07:44.000Z</time>
        <extensions>
          <ns3:TrackPointExtension>
            <ns3:atemp>18.0</ns3:atemp>
          </ns3:TrackPointExtension>
        </extensions>
      </trkpt>
      <trkpt lat="42.50205933116376399993896484375" lon="20.0076020322740077972412109375">
        <ele>2000</ele>
        <time>2026-06-19T09:07:45.000Z</time>
        <extensions>
          <ns3:TrackPointExtension>
            <ns3:atemp>18.0</ns3:atemp>
          </ns3:TrackPointExtension>
        </extensions>
      </trkpt>
      <trkpt lat="42.5020853988826274871826171875" lon="20.00762927345931529998779296875">
        <ele>2000.4000244140625</ele>
        <time>2026-06-19T09:07:46.000Z</time>
        <extensions>
          <ns3:TrackPointExtension>
            <ns3:atemp>18.0</ns3:atemp>
          </ns3:TrackPointExtension>
        </extensions>
      </trkpt>
      <trkpt lat="42.50211196951568126678466796875" lon="20.00765475444495677947998046875">
        <ele>2000.5999755859375</ele>
        <time>2026-06-19T09:07:47.000Z</time>
        <extensions>
          <ns3:TrackPointExtension>
            <ns3:atemp>18.0</ns3:atemp>
          </ns3:TrackPointExtension>
        </extensions>
      </trkpt>
      <trkpt lat="42.50213677994906902313232421875" lon="20.0076819956302642822265625">
        <ele>2001</ele>
        <time>2026-06-19T09:07:48.000Z</time>
        <extensions>
          <ns3:TrackPointExtension>
            <ns3:atemp>18.0</ns3:atemp>
          </ns3:TrackPointExtension>
        </extensions>
      </trkpt>
      <trkpt lat="42.5021665357053279876708984375" lon="20.0077076442539691925048828125">
        <ele>2001.199951171875</ele>
        <time>2026-06-19T09:07:49.000Z</time>
        <extensions>
          <ns3:TrackPointExtension>
            <ns3:atemp>18.0</ns3:atemp>
          </ns3:TrackPointExtension>
        </extensions>
      </trkpt>
      <trkpt lat="42.502197213470935821533203125" lon="20.007732622325420379638671875">
        <ele>2001.5999755859375</ele>
        <time>2026-06-19T09:07:50.000Z</time>
        <extensions>
          <ns3:TrackPointExtension>
            <ns3:atemp>18.0</ns3:atemp>
          </ns3:TrackPointExtension>
        </extensions>
      </trkpt>
      <trkpt lat="42.502230070531368255615234375" lon="20.00775651074945926666259765625">
        <ele>2001.800048828125</ele>
        <time>2026-06-19T09:07:51.000Z</time>
        <extensions>
          <ns3:TrackPointExtension>
            <ns3:atemp>18.0</ns3:atemp>
          </ns3:TrackPointExtension>
        </extensions>
      </trkpt>
      <trkpt lat="42.50226334668695926666259765625" lon="20.00778366811573505401611328125">
        <ele>2002</ele>
        <time>2026-06-19T09:07:52.000Z</time>
        <extensions>
          <ns3:TrackPointExtension>
            <ns3:atemp>18.0</ns3:atemp>
          </ns3:TrackPointExtension>
        </extensions>
      </trkpt>
      <trkpt lat="42.5022966228425502777099609375" lon="20.007811076939105987548828125">
        <ele>2002</ele>
        <time>2026-06-19T09:07:53.000Z</time>
        <extensions>
          <ns3:TrackPointExtension>
            <ns3:atemp>18.0</ns3:atemp>
          </ns3:TrackPointExtension>
        </extensions>
      </trkpt>
      <trkpt lat="42.50232855789363384246826171875" lon="20.007834546267986297607421875">
        <ele>2002.199951171875</ele>
        <time>2026-06-19T09:07:54.000Z</time>
        <extensions>
          <ns3:TrackPointExtension>
            <ns3:atemp>18.0</ns3:atemp>
          </ns3:TrackPointExtension>
        </extensions>
      </trkpt>
      <trkpt lat="42.50236527062952518463134765625" lon="20.00785323791205883026123046875">
        <ele>2002.4000244140625</ele>
        <time>2026-06-19T09:07:55.000Z</time>
        <extensions>
          <ns3:TrackPointExtension>
            <ns3:atemp>18.0</ns3:atemp>
          </ns3:TrackPointExtension>
        </extensions>
      </trkpt>
      <trkpt lat="42.5024015642702579498291015625" lon="20.00786983408033847808837890625">
        <ele>2002.5999755859375</ele>
        <time>2026-06-19T09:07:56.000Z</time>
        <extensions>
          <ns3:TrackPointExtension>
            <ns3:atemp>18.0</ns3:atemp>
          </ns3:TrackPointExtension>
        </extensions>
      </trkpt>
      <trkpt lat="42.50243618153035640716552734375" lon="20.00788475386798381805419921875">
        <ele>2002.800048828125</ele>
        <time>2026-06-19T09:07:57.000Z</time>
        <extensions>
          <ns3:TrackPointExtension>
            <ns3:atemp>18.0</ns3:atemp>
          </ns3:TrackPointExtension>
        </extensions>
      </trkpt>
      <trkpt lat="42.5024702958762645721435546875" lon="20.00789414159953594207763671875">
        <ele>2003.199951171875</ele>
        <time>2026-06-19T09:07:58.000Z</time>
        <extensions>
          <ns3:TrackPointExtension>
            <ns3:atemp>18.0</ns3:atemp>
          </ns3:TrackPointExtension>
        </extensions>
      </trkpt>
      <trkpt lat="42.50250466167926788330078125" lon="20.00789950601756572723388671875">
        <ele>2003.4000244140625</ele>
        <time>2026-06-19T09:07:59.000Z</time>
        <extensions>
          <ns3:TrackPointExtension>
            <ns3:atemp>18.0</ns3:atemp>
          </ns3:TrackPointExtension>
        </extensions>
      </trkpt>
      <trkpt lat="42.50253994949162006378173828125" lon="20.00789632089436054229736328125">
        <ele>2003.5999755859375</ele>
        <time>2026-06-19T09:08:00.000Z</time>
        <extensions>
          <ns3:TrackPointExtension>
            <ns3:atemp>18.0</ns3:atemp>
          </ns3:TrackPointExtension>
        </extensions>
      </trkpt>
      <trkpt lat="42.50257565639913082122802734375" lon="20.00788710080087184906005859375">
        <ele>2003.800048828125</ele>
        <time>2026-06-19T09:08:01.000Z</time>
        <extensions>
          <ns3:TrackPointExtension>
            <ns3:atemp>18.0</ns3:atemp>
          </ns3:TrackPointExtension>
        </extensions>
      </trkpt>
      <trkpt lat="42.502612285315990447998046875" lon="20.00787737779319286346435546875">
        <ele>2004</ele>
        <time>2026-06-19T09:08:02.000Z</time>
        <extensions>
          <ns3:TrackPointExtension>
            <ns3:atemp>18.0</ns3:atemp>
          </ns3:TrackPointExtension>
        </extensions>
      </trkpt>
      <trkpt lat="42.50264950096607208251953125" lon="20.0078732706606388092041015625">
        <ele>2004.199951171875</ele>
        <time>2026-06-19T09:08:03.000Z</time>
        <extensions>
          <ns3:TrackPointExtension>
            <ns3:atemp>18.0</ns3:atemp>
          </ns3:TrackPointExtension>
        </extensions>
      </trkpt>
      <trkpt lat="42.50268881209194660186767578125" lon="20.007872767746448516845703125">
        <ele>2004.4000244140625</ele>
        <time>2026-06-19T09:08:04.000Z</time>
        <extensions>
          <ns3:TrackPointExtension>
            <ns3:atemp>18.0</ns3:atemp>
          </ns3:TrackPointExtension>
        </extensions>
      </trkpt>
      <trkpt lat="42.50272460281848907470703125" lon="20.007876120507717132568359375">
        <ele>2004.4000244140625</ele>
        <time>2026-06-19T09:08:05.000Z</time>
        <extensions>
          <ns3:TrackPointExtension>
            <ns3:atemp>18.0</ns3:atemp>
          </ns3:TrackPointExtension>
        </extensions>
      </trkpt>
      <trkpt lat="42.50275603495538234710693359375" lon="20.0078863464295864105224609375">
        <ele>2004.800048828125</ele>
        <time>2026-06-19T09:08:06.000Z</time>
        <extensions>
          <ns3:TrackPointExtension>
            <ns3:atemp>18.0</ns3:atemp>
          </ns3:TrackPointExtension>
        </extensions>
      </trkpt>
      <trkpt lat="42.50278537161648273468017578125" lon="20.007892884314060211181640625">
        <ele>2005</ele>
        <time>2026-06-19T09:08:07.000Z</time>
        <extensions>
          <ns3:TrackPointExtension>
            <ns3:atemp>18.0</ns3:atemp>
          </ns3:TrackPointExtension>
        </extensions>
      </trkpt>
      <trkpt lat="42.5028129480779170989990234375" lon="20.00789665617048740386962890625">
        <ele>2005.199951171875</ele>
        <time>2026-06-19T09:08:08.000Z</time>
        <extensions>
          <ns3:TrackPointExtension>
            <ns3:atemp>18.0</ns3:atemp>
          </ns3:TrackPointExtension>
        </extensions>
      </trkpt>
      <trkpt lat="42.50283465720713138580322265625" lon="20.007899589836597442626953125">
        <ele>2005.5999755859375</ele>
        <time>2026-06-19T09:08:09.000Z</time>
        <extensions>
          <ns3:TrackPointExtension>
            <ns3:atemp>18.0</ns3:atemp>
          </ns3:TrackPointExtension>
        </extensions>
      </trkpt>
      <trkpt lat="42.50285812653601169586181640625" lon="20.00790587626397609710693359375">
        <ele>2006</ele>
        <time>2026-06-19T09:08:10.000Z</time>
        <extensions>
          <ns3:TrackPointExtension>
            <ns3:atemp>18.0</ns3:atemp>
          </ns3:TrackPointExtension>
        </extensions>
      </trkpt>
      <trkpt lat="42.50288142822682857513427734375" lon="20.0079088099300861358642578125">
        <ele>2006.199951171875</ele>
        <time>2026-06-19T09:08:11.000Z</time>
        <extensions>
          <ns3:TrackPointExtension>
            <ns3:atemp>18.0</ns3:atemp>
          </ns3:TrackPointExtension>
        </extensions>
      </trkpt>
      <trkpt lat="42.50290255062282085418701171875" lon="20.00791425816714763641357421875">
        <ele>2006.4000244140625</ele>
        <time>2026-06-19T09:08:12.000Z</time>
        <extensions>
          <ns3:TrackPointExtension>
            <ns3:atemp>18.0</ns3:atemp>
          </ns3:TrackPointExtension>
        </extensions>
      </trkpt>
      <trkpt lat="42.5029282830655574798583984375" lon="20.00792331062257289886474609375">
        <ele>2006.5999755859375</ele>
        <time>2026-06-19T09:08:13.000Z</time>
        <extensions>
          <ns3:TrackPointExtension>
            <ns3:atemp>18.0</ns3:atemp>
          </ns3:TrackPointExtension>
        </extensions>
      </trkpt>
      <trkpt lat="42.5029551051557064056396484375" lon="20.00793077051639556884765625">
        <ele>2007</ele>
        <time>2026-06-19T09:08:14.000Z</time>
        <extensions>
          <ns3:TrackPointExtension>
            <ns3:atemp>18.0</ns3:atemp>
          </ns3:TrackPointExtension>
        </extensions>
      </trkpt>
      <trkpt lat="42.50298016704618930816650390625" lon="20.00793471001088619232177734375">
        <ele>2007.199951171875</ele>
        <time>2026-06-19T09:08:15.000Z</time>
        <extensions>
          <ns3:TrackPointExtension>
            <ns3:atemp>18.0</ns3:atemp>
          </ns3:TrackPointExtension>
        </extensions>
      </trkpt>
      <trkpt lat="42.5030007027089595794677734375" lon="20.00793454237282276153564453125">
        <ele>2007.5999755859375</ele>
        <time>2026-06-19T09:08:16.000Z</time>
        <extensions>
          <ns3:TrackPointExtension>
            <ns3:atemp>18.0</ns3:atemp>
          </ns3:TrackPointExtension>
        </extensions>
      </trkpt>
      <trkpt lat="42.50302358530461788177490234375" lon="20.0079295970499515533447265625">
        <ele>2007.800048828125</ele>
        <time>2026-06-19T09:08:17.000Z</time>
        <extensions>
          <ns3:TrackPointExtension>
            <ns3:atemp>18.0</ns3:atemp>
          </ns3:TrackPointExtension>
        </extensions>
      </trkpt>
      <trkpt lat="42.50305023975670337677001953125" lon="20.00793336890637874603271484375">
        <ele>2008</ele>
        <time>2026-06-19T09:08:18.000Z</time>
        <extensions>
          <ns3:TrackPointExtension>
            <ns3:atemp>18.0</ns3:atemp>
          </ns3:TrackPointExtension>
        </extensions>
      </trkpt>
      <trkpt lat="42.50307790003716945648193359375" lon="20.00794024206697940826416015625">
        <ele>2008.199951171875</ele>
        <time>2026-06-19T09:08:19.000Z</time>
        <extensions>
          <ns3:TrackPointExtension>
            <ns3:atemp>18.0</ns3:atemp>
          </ns3:TrackPointExtension>
        </extensions>
      </trkpt>
      <trkpt lat="42.50310639850795269012451171875" lon="20.00793906860053539276123046875">
        <ele>2008.4000244140625</ele>
        <time>2026-06-19T09:08:20.000Z</time>
        <extensions>
          <ns3:TrackPointExtension>
            <ns3:atemp>18.0</ns3:atemp>
          </ns3:TrackPointExtension>
        </extensions>
      </trkpt>
      <trkpt lat="42.50313523225486278533935546875" lon="20.00794225372374057769775390625">
        <ele>2008.5999755859375</ele>
        <time>2026-06-19T09:08:21.000Z</time>
        <extensions>
          <ns3:TrackPointExtension>
            <ns3:atemp>18.0</ns3:atemp>
          </ns3:TrackPointExtension>
        </extensions>
      </trkpt>
      <trkpt lat="42.50316582620143890380859375" lon="20.00793957151472568511962890625">
        <ele>2008.800048828125</ele>
        <time>2026-06-19T09:08:22.000Z</time>
        <extensions>
          <ns3:TrackPointExtension>
            <ns3:atemp>18.0</ns3:atemp>
          </ns3:TrackPointExtension>
        </extensions>
      </trkpt>
      <trkpt lat="42.5031991861760616302490234375" lon="20.007937140762805938720703125">
        <ele>2008.800048828125</ele>
        <time>2026-06-19T09:08:23.000Z</time>
        <extensions>
          <ns3:TrackPointExtension>
            <ns3:atemp>18.0</ns3:atemp>
          </ns3:TrackPointExtension>
        </extensions>
      </trkpt>
      <trkpt lat="42.5032296963036060333251953125" lon="20.007926411926746368408203125">
        <ele>2009</ele>
        <time>2026-06-19T09:08:24.000Z</time>
        <extensions>
          <ns3:TrackPointExtension>
            <ns3:atemp>18.0</ns3:atemp>
          </ns3:TrackPointExtension>
        </extensions>
      </trkpt>
      <trkpt lat="42.5032598711550235748291015625" lon="20.0079295970499515533447265625">
        <ele>2009.199951171875</ele>
        <time>2026-06-19T09:08:25.000Z</time>
        <extensions>
          <ns3:TrackPointExtension>
            <ns3:atemp>18.0</ns3:atemp>
          </ns3:TrackPointExtension>
        </extensions>
      </trkpt>
      <trkpt lat="42.50328878872096538543701171875" lon="20.00793370418250560760498046875">
        <ele>2009.4000244140625</ele>
        <time>2026-06-19T09:08:26.000Z</time>
        <extensions>
          <ns3:TrackPointExtension>
            <ns3:atemp>18.0</ns3:atemp>
          </ns3:TrackPointExtension>
        </extensions>
      </trkpt>
      <trkpt lat="42.503321059048175811767578125" lon="20.00793688930571079254150390625">
        <ele>2009.4000244140625</ele>
        <time>2026-06-19T09:08:27.000Z</time>
        <extensions>
          <ns3:TrackPointExtension>
            <ns3:atemp>18.0</ns3:atemp>
          </ns3:TrackPointExtension>
        </extensions>
      </trkpt>
      <trkpt lat="42.50335894525051116943359375" lon="20.00794393010437488555908203125">
        <ele>2009.5999755859375</ele>
        <time>2026-06-19T09:08:28.000Z</time>
        <extensions>
          <ns3:TrackPointExtension>
            <ns3:atemp>18.0</ns3:atemp>
          </ns3:TrackPointExtension>
        </extensions>
      </trkpt>
      <trkpt lat="42.50339020974934101104736328125" lon="20.0079591013491153717041015625">
        <ele>2009.5999755859375</ele>
        <time>2026-06-19T09:08:29.000Z</time>
        <extensions>
          <ns3:TrackPointExtension>
            <ns3:atemp>18.0</ns3:atemp>
          </ns3:TrackPointExtension>
        </extensions>
      </trkpt>
      <trkpt lat="42.50341233797371387481689453125" lon="20.0079829059541225433349609375">
        <ele>2009.5999755859375</ele>
        <time>2026-06-19T09:08:30.000Z</time>
        <extensions>
          <ns3:TrackPointExtension>
            <ns3:atemp>18.0</ns3:atemp>
          </ns3:TrackPointExtension>
        </extensions>
      </trkpt>
      <trkpt lat="42.5034322030842304229736328125" lon="20.008008219301700592041015625">
        <ele>2009.800048828125</ele>
        <time>2026-06-19T09:08:31.000Z</time>
        <extensions>
          <ns3:TrackPointExtension>
            <ns3:atemp>18.0</ns3:atemp>
          </ns3:TrackPointExtension>
        </extensions>
      </trkpt>
      <trkpt lat="42.5034472905099391937255859375" lon="20.0080358795821666717529296875">
        <ele>2009.800048828125</ele>
        <time>2026-06-19T09:08:32.000Z</time>
        <extensions>
          <ns3:TrackPointExtension>
            <ns3:atemp>18.0</ns3:atemp>
          </ns3:TrackPointExtension>
        </extensions>
      </trkpt>
      <trkpt lat="42.50346045009791851043701171875" lon="20.0080628693103790283203125">
        <ele>2010</ele>
        <time>2026-06-19T09:08:33.000Z</time>
        <extensions>
          <ns3:TrackPointExtension>
            <ns3:atemp>18.0</ns3:atemp>
          </ns3:TrackPointExtension>
        </extensions>
      </trkpt>
      <trkpt lat="42.503473944962024688720703125" lon="20.00808625482022762298583984375">
        <ele>2010.4000244140625</ele>
        <time>2026-06-19T09:08:34.000Z</time>
        <extensions>
          <ns3:TrackPointExtension>
            <ns3:atemp>18.0</ns3:atemp>
          </ns3:TrackPointExtension>
        </extensions>
      </trkpt>
      <trkpt lat="42.50349347479641437530517578125" lon="20.0081076286733150482177734375">
        <ele>2010.5999755859375</ele>
        <time>2026-06-19T09:08:35.000Z</time>
        <extensions>
          <ns3:TrackPointExtension>
            <ns3:atemp>18.0</ns3:atemp>
          </ns3:TrackPointExtension>
        </extensions>
      </trkpt>
      <trkpt lat="42.5035138428211212158203125" lon="20.00812833197414875030517578125">
        <ele>2010.800048828125</ele>
        <time>2026-06-19T09:08:36.000Z</time>
        <extensions>
          <ns3:TrackPointExtension>
            <ns3:atemp>18.0</ns3:atemp>
          </ns3:TrackPointExtension>
        </extensions>
      </trkpt>
      <trkpt lat="42.50353655777871608734130859375" lon="20.0081495381891727447509765625">
        <ele>2011</ele>
        <time>2026-06-19T09:08:37.000Z</time>
        <extensions>
          <ns3:TrackPointExtension>
            <ns3:atemp>18.0</ns3:atemp>
          </ns3:TrackPointExtension>
        </extensions>
      </trkpt>
      <trkpt lat="42.5035619549453258514404296875" lon="20.00816772691905498504638671875">
        <ele>2011.199951171875</ele>
        <time>2026-06-19T09:08:38.000Z</time>
        <extensions>
          <ns3:TrackPointExtension>
            <ns3:atemp>18.0</ns3:atemp>
          </ns3:TrackPointExtension>
        </extensions>
      </trkpt>
      <trkpt lat="42.50359095633029937744140625" lon="20.00819027423858642578125">
        <ele>2011.4000244140625</ele>
        <time>2026-06-19T09:08:39.000Z</time>
        <extensions>
          <ns3:TrackPointExtension>
            <ns3:atemp>18.0</ns3:atemp>
          </ns3:TrackPointExtension>
        </extensions>
      </trkpt>
      <trkpt lat="42.5036172755062580108642578125" lon="20.00820896588265895843505859375">
        <ele>2011.5999755859375</ele>
        <time>2026-06-19T09:08:40.000Z</time>
        <extensions>
          <ns3:TrackPointExtension>
            <ns3:atemp>18.0</ns3:atemp>
          </ns3:TrackPointExtension>
        </extensions>
      </trkpt>
      <trkpt lat="42.50364384613931179046630859375" lon="20.00822313129901885986328125">
        <ele>2011.5999755859375</ele>
        <time>2026-06-19T09:08:41.000Z</time>
        <extensions>
          <ns3:TrackPointExtension>
            <ns3:atemp>18.0</ns3:atemp>
          </ns3:TrackPointExtension>
        </extensions>
      </trkpt>
      <trkpt lat="42.5036772899329662322998046875" lon="20.0082350336015224456787109375">
        <ele>2011.800048828125</ele>
        <time>2026-06-19T09:08:42.000Z</time>
        <extensions>
          <ns3:TrackPointExtension>
            <ns3:atemp>18.0</ns3:atemp>
          </ns3:TrackPointExtension>
        </extensions>
      </trkpt>
      <trkpt lat="42.50370989553630352020263671875" lon="20.0082444213330745697021484375">
        <ele>2012</ele>
        <time>2026-06-19T09:08:43.000Z</time>
        <extensions>
          <ns3:TrackPointExtension>
            <ns3:atemp>18.0</ns3:atemp>
          </ns3:TrackPointExtension>
        </extensions>
      </trkpt>
      <trkpt lat="42.50373889692127704620361328125" lon="20.00825389288365840911865234375">
        <ele>2012.199951171875</ele>
        <time>2026-06-19T09:08:44.000Z</time>
        <extensions>
          <ns3:TrackPointExtension>
            <ns3:atemp>18.0</ns3:atemp>
          </ns3:TrackPointExtension>
        </extensions>
      </trkpt>
      <trkpt lat="42.50376722775399684906005859375" lon="20.008265711367130279541015625">
        <ele>2012.199951171875</ele>
        <time>2026-06-19T09:08:45.000Z</time>
        <extensions>
          <ns3:TrackPointExtension>
            <ns3:atemp>18.0</ns3:atemp>
          </ns3:TrackPointExtension>
        </extensions>
      </trkpt>
      <trkpt lat="42.5037946365773677825927734375" lon="20.008275769650936126708984375">
        <ele>2012.4000244140625</ele>
        <time>2026-06-19T09:08:46.000Z</time>
        <extensions>
          <ns3:TrackPointExtension>
            <ns3:atemp>18.0</ns3:atemp>
          </ns3:TrackPointExtension>
        </extensions>
      </trkpt>
      <trkpt lat="42.503818608820438385009765625" lon="20.00829110853374004364013671875">
        <ele>2012.5999755859375</ele>
        <time>2026-06-19T09:08:47.000Z</time>
        <extensions>
          <ns3:TrackPointExtension>
            <ns3:atemp>18.0</ns3:atemp>
          </ns3:TrackPointExtension>
        </extensions>
      </trkpt>
      <trkpt lat="42.5038435868918895721435546875" lon="20.0083054415881633758544921875">
        <ele>2012.800048828125</ele>
        <time>2026-06-19T09:08:48.000Z</time>
        <extensions>
          <ns3:TrackPointExtension>
            <ns3:atemp>18.0</ns3:atemp>
          </ns3:TrackPointExtension>
        </extensions>
      </trkpt>
      <trkpt lat="42.50386814586818218231201171875" lon="20.0083124823868274688720703125">
        <ele>2013</ele>
        <time>2026-06-19T09:08:49.000Z</time>
        <extensions>
          <ns3:TrackPointExtension>
            <ns3:atemp>18.0</ns3:atemp>
          </ns3:TrackPointExtension>
        </extensions>
      </trkpt>
      <trkpt lat="42.503892369568347930908203125" lon="20.008322037756443023681640625">
        <ele>2013.4000244140625</ele>
        <time>2026-06-19T09:08:50.000Z</time>
        <extensions>
          <ns3:TrackPointExtension>
            <ns3:atemp>18.0</ns3:atemp>
          </ns3:TrackPointExtension>
        </extensions>
      </trkpt>
      <trkpt lat="42.50391659326851367950439453125" lon="20.0083257257938385009765625">
        <ele>2013.5999755859375</ele>
        <time>2026-06-19T09:08:51.000Z</time>
        <extensions>
          <ns3:TrackPointExtension>
            <ns3:atemp>18.0</ns3:atemp>
          </ns3:TrackPointExtension>
        </extensions>
      </trkpt>
      <trkpt lat="42.50394140370190143585205078125" lon="20.008330084383487701416015625">
        <ele>2013.800048828125</ele>
        <time>2026-06-19T09:08:52.000Z</time>
        <extensions>
          <ns3:TrackPointExtension>
            <ns3:atemp>18.0</ns3:atemp>
          </ns3:TrackPointExtension>
        </extensions>
      </trkpt>
      <trkpt lat="42.50396269373595714569091796875" lon="20.00832899473607540130615234375">
        <ele>2014.199951171875</ele>
        <time>2026-06-19T09:08:53.000Z</time>
        <extensions>
          <ns3:TrackPointExtension>
            <ns3:atemp>18.0</ns3:atemp>
          </ns3:TrackPointExtension>
        </extensions>
      </trkpt>
      <trkpt lat="42.50398113392293453216552734375" lon="20.00832513906061649322509765625">
        <ele>2014.199951171875</ele>
        <time>2026-06-19T09:08:54.000Z</time>
        <extensions>
          <ns3:TrackPointExtension>
            <ns3:atemp>18.0</ns3:atemp>
          </ns3:TrackPointExtension>
        </extensions>
      </trkpt>
      <trkpt lat="42.50399689190089702606201171875" lon="20.00832782126963138580322265625">
        <ele>2014.4000244140625</ele>
        <time>2026-06-19T09:08:55.000Z</time>
        <extensions>
          <ns3:TrackPointExtension>
            <ns3:atemp>18.0</ns3:atemp>
          </ns3:TrackPointExtension>
        </extensions>
      </trkpt>
      <trkpt lat="42.50400711782276630401611328125" lon="20.008328072726726531982421875">
        <ele>2014.5999755859375</ele>
        <time>2026-06-19T09:08:56.000Z</time>
        <extensions>
          <ns3:TrackPointExtension>
            <ns3:atemp>18.0</ns3:atemp>
          </ns3:TrackPointExtension>
        </extensions>
      </trkpt>
      <trkpt lat="42.50402103178203105926513671875" lon="20.00832228921353816986083984375">
        <ele>2014.5999755859375</ele>
        <time>2026-06-19T09:08:57.000Z</time>
        <extensions>
          <ns3:TrackPointExtension>
            <ns3:atemp>18.0</ns3:atemp>
          </ns3:TrackPointExtension>
        </extensions>
      </trkpt>
      <trkpt lat="42.5040330179035663604736328125" lon="20.00831658951938152313232421875">
        <ele>2014.800048828125</ele>
        <time>2026-06-19T09:08:58.000Z</time>
        <extensions>
          <ns3:TrackPointExtension>
            <ns3:atemp>18.0</ns3:atemp>
          </ns3:TrackPointExtension>
        </extensions>
      </trkpt>
      <trkpt lat="42.5040395557880401611328125" lon="20.00830921344459056854248046875">
        <ele>2014.800048828125</ele>
        <time>2026-06-19T09:08:59.000Z</time>
        <extensions>
          <ns3:TrackPointExtension>
            <ns3:atemp>18.0</ns3:atemp>
          </ns3:TrackPointExtension>
        </extensions>
      </trkpt>
      <trkpt lat="42.5040487758815288543701171875" lon="20.008305609226226806640625">
        <ele>2014.800048828125</ele>
        <time>2026-06-19T09:09:00.000Z</time>
        <extensions>
          <ns3:TrackPointExtension>
            <ns3:atemp>18.0</ns3:atemp>
          </ns3:TrackPointExtension>
        </extensions>
      </trkpt>
      <trkpt lat="42.5040608458220958709716796875" lon="20.00830016098916530609130859375">
        <ele>2014.800048828125</ele>
        <time>2026-06-19T09:09:01.000Z</time>
        <extensions>
          <ns3:TrackPointExtension>
            <ns3:atemp>18.0</ns3:atemp>
          </ns3:TrackPointExtension>
        </extensions>
      </trkpt>
      <trkpt lat="42.50407517887651920318603515625" lon="20.008292533457279205322265625">
        <ele>2014.800048828125</ele>
        <time>2026-06-19T09:09:02.000Z</time>
        <extensions>
          <ns3:TrackPointExtension>
            <ns3:atemp>18.0</ns3:atemp>
          </ns3:TrackPointExtension>
        </extensions>
      </trkpt>
      <trkpt lat="42.50408758409321308135986328125" lon="20.0082880072295665740966796875">
        <ele>2014.800048828125</ele>
        <time>2026-06-19T09:09:03.000Z</time>
        <extensions>
          <ns3:TrackPointExtension>
            <ns3:atemp>18.0</ns3:atemp>
          </ns3:TrackPointExtension>
        </extensions>
      </trkpt>
      <trkpt lat="42.50410250388085842132568359375" lon="20.00828239135444164276123046875">
        <ele>2014.5999755859375</ele>
        <time>2026-06-19T09:09:04.000Z</time>
        <extensions>
          <ns3:TrackPointExtension>
            <ns3:atemp>18.0</ns3:atemp>
          </ns3:TrackPointExtension>
        </extensions>
      </trkpt>
      <trkpt lat="42.50411742366850376129150390625" lon="20.00827216543257236480712890625">
        <ele>2014.5999755859375</ele>
        <time>2026-06-19T09:09:05.000Z</time>
        <extensions>
          <ns3:TrackPointExtension>
            <ns3:atemp>18.0</ns3:atemp>
          </ns3:TrackPointExtension>
        </extensions>
      </trkpt>
      <trkpt lat="42.5041349418461322784423828125" lon="20.0082588382065296173095703125">
        <ele>2014.5999755859375</ele>
        <time>2026-06-19T09:09:06.000Z</time>
        <extensions>
          <ns3:TrackPointExtension>
            <ns3:atemp>18.0</ns3:atemp>
          </ns3:TrackPointExtension>
        </extensions>
      </trkpt>
      <trkpt lat="42.504158578813076019287109375" lon="20.00824349932372570037841796875">
        <ele>2014.800048828125</ele>
        <time>2026-06-19T09:09:07.000Z</time>
        <extensions>
          <ns3:TrackPointExtension>
            <ns3:atemp>18.0</ns3:atemp>
          </ns3:TrackPointExtension>
        </extensions>
      </trkpt>
      <trkpt lat="42.50418632291257381439208984375" lon="20.0082306750118732452392578125">
        <ele>2014.800048828125</ele>
        <time>2026-06-19T09:09:08.000Z</time>
        <extensions>
          <ns3:TrackPointExtension>
            <ns3:atemp>18.0</ns3:atemp>
          </ns3:TrackPointExtension>
        </extensions>
      </trkpt>
      <trkpt lat="42.50421633012592792510986328125" lon="20.0082249753177165985107421875">
        <ele>2014.800048828125</ele>
        <time>2026-06-19T09:09:09.000Z</time>
        <extensions>
          <ns3:TrackPointExtension>
            <ns3:atemp>18.0</ns3:atemp>
          </ns3:TrackPointExtension>
        </extensions>
      </trkpt>
      <trkpt lat="42.50424809753894805908203125" lon="20.00822405330836772918701171875">
        <ele>2014.800048828125</ele>
        <time>2026-06-19T09:09:10.000Z</time>
        <extensions>
          <ns3:TrackPointExtension>
            <ns3:atemp>18.0</ns3:atemp>
          </ns3:TrackPointExtension>
        </extensions>
      </trkpt>
      <trkpt lat="42.50427885912358760833740234375" lon="20.00822941772639751434326171875">
        <ele>2015</ele>
        <time>2026-06-19T09:09:11.000Z</time>
        <extensions>
          <ns3:TrackPointExtension>
            <ns3:atemp>18.0</ns3:atemp>
          </ns3:TrackPointExtension>
        </extensions>
      </trkpt>
      <trkpt lat="42.504308782517910003662109375" lon="20.008235536515712738037109375">
        <ele>2015</ele>
        <time>2026-06-19T09:09:12.000Z</time>
        <extensions>
          <ns3:TrackPointExtension>
            <ns3:atemp>18.0</ns3:atemp>
          </ns3:TrackPointExtension>
        </extensions>
      </trkpt>
      <trkpt lat="42.50433526933193206787109375" lon="20.00824618153274059295654296875">
        <ele>2015.199951171875</ele>
        <time>2026-06-19T09:09:13.000Z</time>
        <extensions>
          <ns3:TrackPointExtension>
            <ns3:atemp>18.0</ns3:atemp>
          </ns3:TrackPointExtension>
        </extensions>
      </trkpt>
      <trkpt lat="42.50435940921306610107421875" lon="20.008257664740085601806640625">
        <ele>2015.4000244140625</ele>
        <time>2026-06-19T09:09:14.000Z</time>
        <extensions>
          <ns3:TrackPointExtension>
            <ns3:atemp>18.0</ns3:atemp>
          </ns3:TrackPointExtension>
        </extensions>
      </trkpt>
      <trkpt lat="42.5043813697993755340576171875" lon="20.00827199779450893402099609375">
        <ele>2015.5999755859375</ele>
        <time>2026-06-19T09:09:15.000Z</time>
        <extensions>
          <ns3:TrackPointExtension>
            <ns3:atemp>18.0</ns3:atemp>
          </ns3:TrackPointExtension>
        </extensions>
      </trkpt>
      <trkpt lat="42.50439989380538463592529296875" lon="20.008287169039249420166015625">
        <ele>2015.800048828125</ele>
        <time>2026-06-19T09:09:16.000Z</time>
        <extensions>
          <ns3:TrackPointExtension>
            <ns3:atemp>17.0</ns3:atemp>
          </ns3:TrackPointExtension>
        </extensions>
      </trkpt>
      <trkpt lat="42.5044179148972034454345703125" lon="20.00830334611237049102783203125">
        <ele>2016</ele>
        <time>2026-06-19T09:09:17.000Z</time>
        <extensions>
          <ns3:TrackPointExtension>
            <ns3:atemp>17.0</ns3:atemp>
          </ns3:TrackPointExtension>
        </extensions>
      </trkpt>
      <trkpt lat="42.50443610362708568572998046875" lon="20.00831390731036663055419921875">
        <ele>2016.199951171875</ele>
        <time>2026-06-19T09:09:18.000Z</time>
        <extensions>
          <ns3:TrackPointExtension>
            <ns3:atemp>17.0</ns3:atemp>
          </ns3:TrackPointExtension>
        </extensions>
      </trkpt>
      <trkpt lat="42.5044541247189044952392578125" lon="20.00832815654575824737548828125">
        <ele>2016.4000244140625</ele>
        <time>2026-06-19T09:09:19.000Z</time>
        <extensions>
          <ns3:TrackPointExtension>
            <ns3:atemp>17.0</ns3:atemp>
          </ns3:TrackPointExtension>
        </extensions>
      </trkpt>
      <trkpt lat="42.50446812249720096588134765625" lon="20.00834642909467220306396484375">
        <ele>2016.800048828125</ele>
        <time>2026-06-19T09:09:20.000Z</time>
        <extensions>
          <ns3:TrackPointExtension>
            <ns3:atemp>17.0</ns3:atemp>
          </ns3:TrackPointExtension>
        </extensions>
      </trkpt>
      <trkpt lat="42.5044816173613071441650390625" lon="20.00836889259517192840576171875">
        <ele>2017</ele>
        <time>2026-06-19T09:09:21.000Z</time>
        <extensions>
          <ns3:TrackPointExtension>
            <ns3:atemp>17.0</ns3:atemp>
          </ns3:TrackPointExtension>
        </extensions>
      </trkpt>
      <trkpt lat="42.5044930167496204376220703125" lon="20.0083932839334011077880859375">
        <ele>2017.199951171875</ele>
        <time>2026-06-19T09:09:22.000Z</time>
        <extensions>
          <ns3:TrackPointExtension>
            <ns3:atemp>17.0</ns3:atemp>
          </ns3:TrackPointExtension>
        </extensions>
      </trkpt>
      <trkpt lat="42.50449578277766704559326171875" lon="20.00841532833874225616455078125">
        <ele>2017.5999755859375</ele>
        <time>2026-06-19T09:09:23.000Z</time>
        <extensions>
          <ns3:TrackPointExtension>
            <ns3:atemp>17.0</ns3:atemp>
          </ns3:TrackPointExtension>
        </extensions>
      </trkpt>
      <trkpt lat="42.504498548805713653564453125" lon="20.008438713848590850830078125">
        <ele>2017.800048828125</ele>
        <time>2026-06-19T09:09:24.000Z</time>
        <extensions>
          <ns3:TrackPointExtension>
            <ns3:atemp>17.0</ns3:atemp>
          </ns3:TrackPointExtension>
        </extensions>
      </trkpt>
      <trkpt lat="42.50450349412858486175537109375" lon="20.008464865386486053466796875">
        <ele>2018</ele>
        <time>2026-06-19T09:09:25.000Z</time>
        <extensions>
          <ns3:TrackPointExtension>
            <ns3:atemp>17.0</ns3:atemp>
          </ns3:TrackPointExtension>
        </extensions>
      </trkpt>
      <trkpt lat="42.50450936146080493927001953125" lon="20.00848439522087574005126953125">
        <ele>2018.4000244140625</ele>
        <time>2026-06-19T09:09:26.000Z</time>
        <extensions>
          <ns3:TrackPointExtension>
            <ns3:atemp>17.0</ns3:atemp>
          </ns3:TrackPointExtension>
        </extensions>
      </trkpt>
      <trkpt lat="42.50451372005045413970947265625" lon="20.0085054337978363037109375">
        <ele>2018.5999755859375</ele>
        <time>2026-06-19T09:09:27.000Z</time>
        <extensions>
          <ns3:TrackPointExtension>
            <ns3:atemp>17.0</ns3:atemp>
          </ns3:TrackPointExtension>
        </extensions>
      </trkpt>
      <trkpt lat="42.50451824627816677093505859375" lon="20.00852680765092372894287109375">
        <ele>2019</ele>
        <time>2026-06-19T09:09:28.000Z</time>
        <extensions>
          <ns3:TrackPointExtension>
            <ns3:atemp>17.0</ns3:atemp>
          </ns3:TrackPointExtension>
        </extensions>
      </trkpt>
      <trkpt lat="42.50452226959168910980224609375" lon="20.00855212099850177764892578125">
        <ele>2019.4000244140625</ele>
        <time>2026-06-19T09:09:29.000Z</time>
        <extensions>
          <ns3:TrackPointExtension>
            <ns3:atemp>17.0</ns3:atemp>
          </ns3:TrackPointExtension>
        </extensions>
      </trkpt>
      <trkpt lat="42.50452545471489429473876953125" lon="20.0085786916315555572509765625">
        <ele>2019.5999755859375</ele>
        <time>2026-06-19T09:09:30.000Z</time>
        <extensions>
          <ns3:TrackPointExtension>
            <ns3:atemp>17.0</ns3:atemp>
          </ns3:TrackPointExtension>
        </extensions>
      </trkpt>
      <trkpt lat="42.5045288912951946258544921875" lon="20.00860475935041904449462890625">
        <ele>2019.800048828125</ele>
        <time>2026-06-19T09:09:31.000Z</time>
        <extensions>
          <ns3:TrackPointExtension>
            <ns3:atemp>17.0</ns3:atemp>
          </ns3:TrackPointExtension>
        </extensions>
      </trkpt>
      <trkpt lat="42.50453467480838298797607421875" lon="20.0086323358118534088134765625">
        <ele>2020.199951171875</ele>
        <time>2026-06-19T09:09:32.000Z</time>
        <extensions>
          <ns3:TrackPointExtension>
            <ns3:atemp>17.0</ns3:atemp>
          </ns3:TrackPointExtension>
        </extensions>
      </trkpt>
      <trkpt lat="42.50454054214060306549072265625" lon="20.00866041518747806549072265625">
        <ele>2020.4000244140625</ele>
        <time>2026-06-19T09:09:33.000Z</time>
        <extensions>
          <ns3:TrackPointExtension>
            <ns3:atemp>17.0</ns3:atemp>
          </ns3:TrackPointExtension>
        </extensions>
      </trkpt>
      <trkpt lat="42.5045453198254108428955078125" lon="20.00868849456310272216796875">
        <ele>2020.5999755859375</ele>
        <time>2026-06-19T09:09:34.000Z</time>
        <extensions>
          <ns3:TrackPointExtension>
            <ns3:atemp>17.0</ns3:atemp>
          </ns3:TrackPointExtension>
        </extensions>
      </trkpt>
      <trkpt lat="42.504548840224742889404296875" lon="20.00871271826326847076416015625">
        <ele>2021</ele>
        <time>2026-06-19T09:09:35.000Z</time>
        <extensions>
          <ns3:TrackPointExtension>
            <ns3:atemp>17.0</ns3:atemp>
          </ns3:TrackPointExtension>
        </extensions>
      </trkpt>
      <trkpt lat="42.50455428846180438995361328125" lon="20.008734427392482757568359375">
        <ele>2021.199951171875</ele>
        <time>2026-06-19T09:09:36.000Z</time>
        <extensions>
          <ns3:TrackPointExtension>
            <ns3:atemp>17.0</ns3:atemp>
          </ns3:TrackPointExtension>
        </extensions>
      </trkpt>
      <trkpt lat="42.50456484965980052947998046875" lon="20.00875898636877536773681640625">
        <ele>2021.4000244140625</ele>
        <time>2026-06-19T09:09:37.000Z</time>
        <extensions>
          <ns3:TrackPointExtension>
            <ns3:atemp>17.0</ns3:atemp>
          </ns3:TrackPointExtension>
        </extensions>
      </trkpt>
      <trkpt lat="42.50457541085779666900634765625" lon="20.0087811984121799468994140625">
        <ele>2021.5999755859375</ele>
        <time>2026-06-19T09:09:38.000Z</time>
        <extensions>
          <ns3:TrackPointExtension>
            <ns3:atemp>17.0</ns3:atemp>
          </ns3:TrackPointExtension>
        </extensions>
      </trkpt>
      <trkpt lat="42.50458764843642711639404296875" lon="20.0087996385991573333740234375">
        <ele>2022</ele>
        <time>2026-06-19T09:09:39.000Z</time>
        <extensions>
          <ns3:TrackPointExtension>
            <ns3:atemp>17.0</ns3:atemp>
          </ns3:TrackPointExtension>
        </extensions>
      </trkpt>
      <trkpt lat="42.50460156239569187164306640625" lon="20.0088170729577541351318359375">
        <ele>2022.199951171875</ele>
        <time>2026-06-19T09:09:40.000Z</time>
        <extensions>
          <ns3:TrackPointExtension>
            <ns3:atemp>17.0</ns3:atemp>
          </ns3:TrackPointExtension>
        </extensions>
      </trkpt>
      <trkpt lat="42.50461447052657604217529296875" lon="20.0088324956595897674560546875">
        <ele>2022.5999755859375</ele>
        <time>2026-06-19T09:09:41.000Z</time>
        <extensions>
          <ns3:TrackPointExtension>
            <ns3:atemp>17.0</ns3:atemp>
          </ns3:TrackPointExtension>
        </extensions>
      </trkpt>
      <trkpt lat="42.50462335534393787384033203125" lon="20.0088487565517425537109375">
        <ele>2023</ele>
        <time>2026-06-19T09:09:42.000Z</time>
        <extensions>
          <ns3:TrackPointExtension>
            <ns3:atemp>17.0</ns3:atemp>
          </ns3:TrackPointExtension>
        </extensions>
      </trkpt>
      <trkpt lat="42.504634670913219451904296875" lon="20.00886091031134128570556640625">
        <ele>2023.4000244140625</ele>
        <time>2026-06-19T09:09:43.000Z</time>
        <extensions>
          <ns3:TrackPointExtension>
            <ns3:atemp>17.0</ns3:atemp>
          </ns3:TrackPointExtension>
        </extensions>
      </trkpt>
      <trkpt lat="42.50464732758700847625732421875" lon="20.00887515954673290252685546875">
        <ele>2023.800048828125</ele>
        <time>2026-06-19T09:09:44.000Z</time>
        <extensions>
          <ns3:TrackPointExtension>
            <ns3:atemp>17.0</ns3:atemp>
          </ns3:TrackPointExtension>
        </extensions>
      </trkpt>
      <trkpt lat="42.50465788878500461578369140625" lon="20.00888966023921966552734375">
        <ele>2024.199951171875</ele>
        <time>2026-06-19T09:09:45.000Z</time>
        <extensions>
          <ns3:TrackPointExtension>
            <ns3:atemp>17.0</ns3:atemp>
          </ns3:TrackPointExtension>
        </extensions>
      </trkpt>
      <trkpt lat="42.50466492958366870880126953125" lon="20.0089050829410552978515625">
        <ele>2024.5999755859375</ele>
        <time>2026-06-19T09:09:46.000Z</time>
        <extensions>
          <ns3:TrackPointExtension>
            <ns3:atemp>17.0</ns3:atemp>
          </ns3:TrackPointExtension>
        </extensions>
      </trkpt>
      <trkpt lat="42.5046750716865062713623046875" lon="20.008920840919017791748046875">
        <ele>2025</ele>
        <time>2026-06-19T09:09:47.000Z</time>
        <extensions>
          <ns3:TrackPointExtension>
            <ns3:atemp>17.0</ns3:atemp>
          </ns3:TrackPointExtension>
        </extensions>
      </trkpt>
      <trkpt lat="42.50469024293124675750732421875" lon="20.00893400050699710845947265625">
        <ele>2025.4000244140625</ele>
        <time>2026-06-19T09:09:48.000Z</time>
        <extensions>
          <ns3:TrackPointExtension>
            <ns3:atemp>17.0</ns3:atemp>
          </ns3:TrackPointExtension>
        </extensions>
      </trkpt>
      <trkpt lat="42.50470750965178012847900390625" lon="20.00894489698112010955810546875">
        <ele>2025.5999755859375</ele>
        <time>2026-06-19T09:09:49.000Z</time>
        <extensions>
          <ns3:TrackPointExtension>
            <ns3:atemp>17.0</ns3:atemp>
          </ns3:TrackPointExtension>
        </extensions>
      </trkpt>
      <trkpt lat="42.5047186575829982757568359375" lon="20.00896300189197063446044921875">
        <ele>2026</ele>
        <time>2026-06-19T09:09:50.000Z</time>
        <extensions>
          <ns3:TrackPointExtension>
            <ns3:atemp>17.0</ns3:atemp>
          </ns3:TrackPointExtension>
        </extensions>
      </trkpt>
      <trkpt lat="42.50473047606647014617919921875" lon="20.0089823640882968902587890625">
        <ele>2026.199951171875</ele>
        <time>2026-06-19T09:09:51.000Z</time>
        <extensions>
          <ns3:TrackPointExtension>
            <ns3:atemp>17.0</ns3:atemp>
          </ns3:TrackPointExtension>
        </extensions>
      </trkpt>
      <trkpt lat="42.50474439002573490142822265625" lon="20.0090011395514011383056640625">
        <ele>2026.5999755859375</ele>
        <time>2026-06-19T09:09:52.000Z</time>
        <extensions>
          <ns3:TrackPointExtension>
            <ns3:atemp>17.0</ns3:atemp>
          </ns3:TrackPointExtension>
        </extensions>
      </trkpt>
      <trkpt lat="42.5047541968524456024169921875" lon="20.00902083702385425567626953125">
        <ele>2026.800048828125</ele>
        <time>2026-06-19T09:09:53.000Z</time>
        <extensions>
          <ns3:TrackPointExtension>
            <ns3:atemp>17.0</ns3:atemp>
          </ns3:TrackPointExtension>
        </extensions>
      </trkpt>
      <trkpt lat="42.504764087498188018798828125" lon="20.0090391933917999267578125">
        <ele>2027.199951171875</ele>
        <time>2026-06-19T09:09:54.000Z</time>
        <extensions>
          <ns3:TrackPointExtension>
            <ns3:atemp>17.0</ns3:atemp>
          </ns3:TrackPointExtension>
        </extensions>
      </trkpt>
      <trkpt lat="42.50477557070553302764892578125" lon="20.009056292474269866943359375">
        <ele>2027.4000244140625</ele>
        <time>2026-06-19T09:09:55.000Z</time>
        <extensions>
          <ns3:TrackPointExtension>
            <ns3:atemp>17.0</ns3:atemp>
          </ns3:TrackPointExtension>
        </extensions>
      </trkpt>
      <trkpt lat="42.504788227379322052001953125" lon="20.00907246954739093780517578125">
        <ele>2027.5999755859375</ele>
        <time>2026-06-19T09:09:56.000Z</time>
        <extensions>
          <ns3:TrackPointExtension>
            <ns3:atemp>17.0</ns3:atemp>
          </ns3:TrackPointExtension>
        </extensions>
      </trkpt>
      <trkpt lat="42.50479987822473049163818359375" lon="20.00909023918211460113525390625">
        <ele>2027.800048828125</ele>
        <time>2026-06-19T09:09:57.000Z</time>
        <extensions>
          <ns3:TrackPointExtension>
            <ns3:atemp>17.0</ns3:atemp>
          </ns3:TrackPointExtension>
        </extensions>
      </trkpt>
      <trkpt lat="42.50481245107948780059814453125" lon="20.00910750590264797210693359375">
        <ele>2028.199951171875</ele>
        <time>2026-06-19T09:09:58.000Z</time>
        <extensions>
          <ns3:TrackPointExtension>
            <ns3:atemp>17.0</ns3:atemp>
          </ns3:TrackPointExtension>
        </extensions>
      </trkpt>
      <trkpt lat="42.504825778305530548095703125" lon="20.0091277062892913818359375">
        <ele>2028.4000244140625</ele>
        <time>2026-06-19T09:09:59.000Z</time>
        <extensions>
          <ns3:TrackPointExtension>
            <ns3:atemp>17.0</ns3:atemp>
          </ns3:TrackPointExtension>
        </extensions>
      </trkpt>
      <trkpt lat="42.5048376806080341339111328125" lon="20.009148158133029937744140625">
        <ele>2028.800048828125</ele>
        <time>2026-06-19T09:10:00.000Z</time>
        <extensions>
          <ns3:TrackPointExtension>
            <ns3:atemp>17.0</ns3:atemp>
          </ns3:TrackPointExtension>
        </extensions>
      </trkpt>
      <trkpt lat="42.50485067255795001983642578125" lon="20.0091679394245147705078125">
        <ele>2029.199951171875</ele>
        <time>2026-06-19T09:10:01.000Z</time>
        <extensions>
          <ns3:TrackPointExtension>
            <ns3:atemp>17.0</ns3:atemp>
          </ns3:TrackPointExtension>
        </extensions>
      </trkpt>
      <trkpt lat="42.5048655085265636444091796875" lon="20.00918478704988956451416015625">
        <ele>2029.4000244140625</ele>
        <time>2026-06-19T09:10:02.000Z</time>
        <extensions>
          <ns3:TrackPointExtension>
            <ns3:atemp>17.0</ns3:atemp>
          </ns3:TrackPointExtension>
        </extensions>
      </trkpt>
      <trkpt lat="42.5048782490193843841552734375" lon="20.00920037738978862762451171875">
        <ele>2029.5999755859375</ele>
        <time>2026-06-19T09:10:03.000Z</time>
        <extensions>
          <ns3:TrackPointExtension>
            <ns3:atemp>17.0</ns3:atemp>
          </ns3:TrackPointExtension>
        </extensions>
      </trkpt>
      <trkpt lat="42.5048923306167125701904296875" lon="20.0092160515487194061279296875">
        <ele>2030</ele>
        <time>2026-06-19T09:10:04.000Z</time>
        <extensions>
          <ns3:TrackPointExtension>
            <ns3:atemp>17.0</ns3:atemp>
          </ns3:TrackPointExtension>
        </extensions>
      </trkpt>
      <trkpt lat="42.50490381382405757904052734375" lon="20.00923306681215763092041015625">
        <ele>2030.199951171875</ele>
        <time>2026-06-19T09:10:05.000Z</time>
        <extensions>
          <ns3:TrackPointExtension>
            <ns3:atemp>17.0</ns3:atemp>
          </ns3:TrackPointExtension>
        </extensions>
      </trkpt>
      <trkpt lat="42.50491253100335597991943359375" lon="20.00925444066524505615234375">
        <ele>2030.4000244140625</ele>
        <time>2026-06-19T09:10:06.000Z</time>
        <extensions>
          <ns3:TrackPointExtension>
            <ns3:atemp>17.0</ns3:atemp>
          </ns3:TrackPointExtension>
        </extensions>
      </trkpt>
      <trkpt lat="42.5049211643636226654052734375" lon="20.0092787481844425201416015625">
        <ele>2030.5999755859375</ele>
        <time>2026-06-19T09:10:07.000Z</time>
        <extensions>
          <ns3:TrackPointExtension>
            <ns3:atemp>17.0</ns3:atemp>
          </ns3:TrackPointExtension>
        </extensions>
      </trkpt>
      <trkpt lat="42.5049345754086971282958984375" lon="20.00930230133235454559326171875">
        <ele>2030.800048828125</ele>
        <time>2026-06-19T09:10:08.000Z</time>
        <extensions>
          <ns3:TrackPointExtension>
            <ns3:atemp>17.0</ns3:atemp>
          </ns3:TrackPointExtension>
        </extensions>
      </trkpt>
      <trkpt lat="42.50494522042572498321533203125" lon="20.009323842823505401611328125">
        <ele>2031.199951171875</ele>
        <time>2026-06-19T09:10:09.000Z</time>
        <extensions>
          <ns3:TrackPointExtension>
            <ns3:atemp>17.0</ns3:atemp>
          </ns3:TrackPointExtension>
        </extensions>
      </trkpt>
      <trkpt lat="42.5049546919763088226318359375" lon="20.00934001989662647247314453125">
        <ele>2031.4000244140625</ele>
        <time>2026-06-19T09:10:10.000Z</time>
        <extensions>
          <ns3:TrackPointExtension>
            <ns3:atemp>17.0</ns3:atemp>
          </ns3:TrackPointExtension>
        </extensions>
      </trkpt>
      <trkpt lat="42.504966259002685546875" lon="20.0093545205891132354736328125">
        <ele>2031.5999755859375</ele>
        <time>2026-06-19T09:10:11.000Z</time>
        <extensions>
          <ns3:TrackPointExtension>
            <ns3:atemp>17.0</ns3:atemp>
          </ns3:TrackPointExtension>
        </extensions>
      </trkpt>
      <trkpt lat="42.5049731321632862091064453125" lon="20.0093739666044712066650390625">
        <ele>2031.800048828125</ele>
        <time>2026-06-19T09:10:12.000Z</time>
        <extensions>
          <ns3:TrackPointExtension>
            <ns3:atemp>17.0</ns3:atemp>
          </ns3:TrackPointExtension>
        </extensions>
      </trkpt>
      <trkpt lat="42.5049845315515995025634765625" lon="20.00939450226724147796630859375">
        <ele>2032.199951171875</ele>
        <time>2026-06-19T09:10:13.000Z</time>
        <extensions>
          <ns3:TrackPointExtension>
            <ns3:atemp>17.0</ns3:atemp>
          </ns3:TrackPointExtension>
        </extensions>
      </trkpt>
      <trkpt lat="42.50499241054058074951171875" lon="20.00941847451031208038330078125">
        <ele>2032.4000244140625</ele>
        <time>2026-06-19T09:10:14.000Z</time>
        <extensions>
          <ns3:TrackPointExtension>
            <ns3:atemp>17.0</ns3:atemp>
          </ns3:TrackPointExtension>
        </extensions>
      </trkpt>
      <trkpt lat="42.50499802641570568084716796875" lon="20.00944160856306552886962890625">
        <ele>2032.5999755859375</ele>
        <time>2026-06-19T09:10:15.000Z</time>
        <extensions>
          <ns3:TrackPointExtension>
            <ns3:atemp>17.0</ns3:atemp>
          </ns3:TrackPointExtension>
        </extensions>
      </trkpt>
      <trkpt lat="42.5050049833953380584716796875" lon="20.0094648264348506927490234375">
        <ele>2032.800048828125</ele>
        <time>2026-06-19T09:10:16.000Z</time>
        <extensions>
          <ns3:TrackPointExtension>
            <ns3:atemp>17.0</ns3:atemp>
          </ns3:TrackPointExtension>
        </extensions>
      </trkpt>
      <trkpt lat="42.50501529313623905181884765625" lon="20.0094832666218280792236328125">
        <ele>2033.199951171875</ele>
        <time>2026-06-19T09:10:17.000Z</time>
        <extensions>
          <ns3:TrackPointExtension>
            <ns3:atemp>17.0</ns3:atemp>
          </ns3:TrackPointExtension>
        </extensions>
      </trkpt>
      <trkpt lat="42.5050180591642856597900390625" lon="20.0095003657042980194091796875">
        <ele>2033.4000244140625</ele>
        <time>2026-06-19T09:10:18.000Z</time>
        <extensions>
          <ns3:TrackPointExtension>
            <ns3:atemp>17.0</ns3:atemp>
          </ns3:TrackPointExtension>
        </extensions>
      </trkpt>
      <trkpt lat="42.5050234235823154449462890625" lon="20.00951721332967281341552734375">
        <ele>2033.800048828125</ele>
        <time>2026-06-19T09:10:19.000Z</time>
        <extensions>
          <ns3:TrackPointExtension>
            <ns3:atemp>17.0</ns3:atemp>
          </ns3:TrackPointExtension>
        </extensions>
      </trkpt>
      <trkpt lat="42.5050267763435840606689453125" lon="20.00953766517341136932373046875">
        <ele>2034</ele>
        <time>2026-06-19T09:10:20.000Z</time>
        <extensions>
          <ns3:TrackPointExtension>
            <ns3:atemp>17.0</ns3:atemp>
          </ns3:TrackPointExtension>
        </extensions>
      </trkpt>
      <trkpt lat="42.5050291232764720916748046875" lon="20.00955828465521335601806640625">
        <ele>2034.4000244140625</ele>
        <time>2026-06-19T09:10:21.000Z</time>
        <extensions>
          <ns3:TrackPointExtension>
            <ns3:atemp>17.0</ns3:atemp>
          </ns3:TrackPointExtension>
        </extensions>
      </trkpt>
      <trkpt lat="42.50503130257129669189453125" lon="20.00957370735704898834228515625">
        <ele>2034.5999755859375</ele>
        <time>2026-06-19T09:10:22.000Z</time>
        <extensions>
          <ns3:TrackPointExtension>
            <ns3:atemp>17.0</ns3:atemp>
          </ns3:TrackPointExtension>
        </extensions>
      </trkpt>
      <trkpt lat="42.50503641553223133087158203125" lon="20.009590722620487213134765625">
        <ele>2034.800048828125</ele>
        <time>2026-06-19T09:10:23.000Z</time>
        <extensions>
          <ns3:TrackPointExtension>
            <ns3:atemp>17.0</ns3:atemp>
          </ns3:TrackPointExtension>
        </extensions>
      </trkpt>
      <trkpt lat="42.5050405226647853851318359375" lon="20.00960991717875003814697265625">
        <ele>2035.199951171875</ele>
        <time>2026-06-19T09:10:24.000Z</time>
        <extensions>
          <ns3:TrackPointExtension>
            <ns3:atemp>17.0</ns3:atemp>
          </ns3:TrackPointExtension>
        </extensions>
      </trkpt>
      <trkpt lat="42.50504613853991031646728515625" lon="20.00962869264185428619384765625">
        <ele>2035.4000244140625</ele>
        <time>2026-06-19T09:10:25.000Z</time>
        <extensions>
          <ns3:TrackPointExtension>
            <ns3:atemp>17.0</ns3:atemp>
          </ns3:TrackPointExtension>
        </extensions>
      </trkpt>
      <trkpt lat="42.5050546042621135711669921875" lon="20.0096488930284976959228515625">
        <ele>2035.800048828125</ele>
        <time>2026-06-19T09:10:26.000Z</time>
        <extensions>
          <ns3:TrackPointExtension>
            <ns3:atemp>17.0</ns3:atemp>
          </ns3:TrackPointExtension>
        </extensions>
      </trkpt>
      <trkpt lat="42.5050609745085239410400390625" lon="20.00966758467257022857666015625">
        <ele>2036</ele>
        <time>2026-06-19T09:10:27.000Z</time>
        <extensions>
          <ns3:TrackPointExtension>
            <ns3:atemp>17.0</ns3:atemp>
          </ns3:TrackPointExtension>
        </extensions>
      </trkpt>
      <trkpt lat="42.5050668418407440185546875" lon="20.00968434847891330718994140625">
        <ele>2036.4000244140625</ele>
        <time>2026-06-19T09:10:28.000Z</time>
        <extensions>
          <ns3:TrackPointExtension>
            <ns3:atemp>17.0</ns3:atemp>
          </ns3:TrackPointExtension>
        </extensions>
      </trkpt>
      <trkpt lat="42.50507212243974208831787109375" lon="20.00970530323684215545654296875">
        <ele>2036.5999755859375</ele>
        <time>2026-06-19T09:10:29.000Z</time>
        <extensions>
          <ns3:TrackPointExtension>
            <ns3:atemp>17.0</ns3:atemp>
          </ns3:TrackPointExtension>
        </extensions>
      </trkpt>
      <trkpt lat="42.50507765449583530426025390625" lon="20.00972659327089786529541015625">
        <ele>2037</ele>
        <time>2026-06-19T09:10:30.000Z</time>
        <extensions>
          <ns3:TrackPointExtension>
            <ns3:atemp>17.0</ns3:atemp>
          </ns3:TrackPointExtension>
        </extensions>
      </trkpt>
      <trkpt lat="42.50508318655192852020263671875" lon="20.00975106842815876007080078125">
        <ele>2037.199951171875</ele>
        <time>2026-06-19T09:10:31.000Z</time>
        <extensions>
          <ns3:TrackPointExtension>
            <ns3:atemp>17.0</ns3:atemp>
          </ns3:TrackPointExtension>
        </extensions>
      </trkpt>
      <trkpt lat="42.50508720986545085906982421875" lon="20.00976406037807464599609375">
        <ele>2037.4000244140625</ele>
        <time>2026-06-19T09:10:32.000Z</time>
        <extensions>
          <ns3:TrackPointExtension>
            <ns3:atemp>17.0</ns3:atemp>
          </ns3:TrackPointExtension>
        </extensions>
      </trkpt>
      <trkpt lat="42.5050898082554340362548828125" lon="20.00978015363216400146484375">
        <ele>2037.800048828125</ele>
        <time>2026-06-19T09:10:33.000Z</time>
        <extensions>
          <ns3:TrackPointExtension>
            <ns3:atemp>17.0</ns3:atemp>
          </ns3:TrackPointExtension>
        </extensions>
      </trkpt>
      <trkpt lat="42.50509106554090976715087890625" lon="20.00980303622782230377197265625">
        <ele>2038</ele>
        <time>2026-06-19T09:10:34.000Z</time>
        <extensions>
          <ns3:TrackPointExtension>
            <ns3:atemp>17.0</ns3:atemp>
          </ns3:TrackPointExtension>
        </extensions>
      </trkpt>
      <trkpt lat="42.50509525649249553680419921875" lon="20.0098235718905925750732421875">
        <ele>2038.4000244140625</ele>
        <time>2026-06-19T09:10:35.000Z</time>
        <extensions>
          <ns3:TrackPointExtension>
            <ns3:atemp>17.0</ns3:atemp>
          </ns3:TrackPointExtension>
        </extensions>
      </trkpt>
      <trkpt lat="42.5050968490540981292724609375" lon="20.0098473764955997467041015625">
        <ele>2038.5999755859375</ele>
        <time>2026-06-19T09:10:36.000Z</time>
        <extensions>
          <ns3:TrackPointExtension>
            <ns3:atemp>17.0</ns3:atemp>
          </ns3:TrackPointExtension>
        </extensions>
      </trkpt>
      <trkpt lat="42.50509877689182758331298828125" lon="20.00986908562481403350830078125">
        <ele>2039</ele>
        <time>2026-06-19T09:10:37.000Z</time>
        <extensions>
          <ns3:TrackPointExtension>
            <ns3:atemp>17.0</ns3:atemp>
          </ns3:TrackPointExtension>
        </extensions>
      </trkpt>
      <trkpt lat="42.50510145910084247589111328125" lon="20.0098936446011066436767578125">
        <ele>2039.4000244140625</ele>
        <time>2026-06-19T09:10:38.000Z</time>
        <extensions>
          <ns3:TrackPointExtension>
            <ns3:atemp>17.0</ns3:atemp>
          </ns3:TrackPointExtension>
        </extensions>
      </trkpt>
      <trkpt lat="42.5051048956811428070068359375" lon="20.00991761684417724609375">
        <ele>2039.5999755859375</ele>
        <time>2026-06-19T09:10:39.000Z</time>
        <extensions>
          <ns3:TrackPointExtension>
            <ns3:atemp>17.0</ns3:atemp>
          </ns3:TrackPointExtension>
        </extensions>
      </trkpt>
      <trkpt lat="42.50510950572788715362548828125" lon="20.00994804315268993377685546875">
        <ele>2040</ele>
        <time>2026-06-19T09:10:40.000Z</time>
        <extensions>
          <ns3:TrackPointExtension>
            <ns3:atemp>17.0</ns3:atemp>
          </ns3:TrackPointExtension>
        </extensions>
      </trkpt>
      <trkpt lat="42.50511445105075836181640625" lon="20.0099737755954265594482421875">
        <ele>2040.199951171875</ele>
        <time>2026-06-19T09:10:41.000Z</time>
        <extensions>
          <ns3:TrackPointExtension>
            <ns3:atemp>17.0</ns3:atemp>
          </ns3:TrackPointExtension>
        </extensions>
      </trkpt>
      <trkpt lat="42.50511973164975643157958984375" lon="20.00999607145786285400390625">
        <ele>2040.4000244140625</ele>
        <time>2026-06-19T09:10:42.000Z</time>
        <extensions>
          <ns3:TrackPointExtension>
            <ns3:atemp>17.0</ns3:atemp>
          </ns3:TrackPointExtension>
        </extensions>
      </trkpt>
      <trkpt lat="42.50512140803039073944091796875" lon="20.010019876062870025634765625">
        <ele>2040.800048828125</ele>
        <time>2026-06-19T09:10:43.000Z</time>
        <extensions>
          <ns3:TrackPointExtension>
            <ns3:atemp>17.0</ns3:atemp>
          </ns3:TrackPointExtension>
        </extensions>
      </trkpt>
      <trkpt lat="42.505122832953929901123046875" lon="20.01004409976303577423095703125">
        <ele>2041</ele>
        <time>2026-06-19T09:10:44.000Z</time>
        <extensions>
          <ns3:TrackPointExtension>
            <ns3:atemp>17.0</ns3:atemp>
          </ns3:TrackPointExtension>
        </extensions>
      </trkpt>
      <trkpt lat="42.50512459315359592437744140625" lon="20.0100636295974254608154296875">
        <ele>2041.199951171875</ele>
        <time>2026-06-19T09:10:45.000Z</time>
        <extensions>
          <ns3:TrackPointExtension>
            <ns3:atemp>17.0</ns3:atemp>
          </ns3:TrackPointExtension>
        </extensions>
      </trkpt>
      <trkpt lat="42.50512652099132537841796875" lon="20.01008349470794200897216796875">
        <ele>2041.4000244140625</ele>
        <time>2026-06-19T09:10:46.000Z</time>
        <extensions>
          <ns3:TrackPointExtension>
            <ns3:atemp>17.0</ns3:atemp>
          </ns3:TrackPointExtension>
        </extensions>
      </trkpt>
      <trkpt lat="42.50513146631419658660888671875" lon="20.0101015157997608184814453125">
        <ele>2041.5999755859375</ele>
        <time>2026-06-19T09:10:47.000Z</time>
        <extensions>
          <ns3:TrackPointExtension>
            <ns3:atemp>17.0</ns3:atemp>
          </ns3:TrackPointExtension>
        </extensions>
      </trkpt>
      <trkpt lat="42.5051397643983364105224609375" lon="20.01012213528156280517578125">
        <ele>2041.5999755859375</ele>
        <time>2026-06-19T09:10:48.000Z</time>
        <extensions>
          <ns3:TrackPointExtension>
            <ns3:atemp>17.0</ns3:atemp>
          </ns3:TrackPointExtension>
        </extensions>
      </trkpt>
      <trkpt lat="42.50514655373990535736083984375" lon="20.01014099456369876861572265625">
        <ele>2041.800048828125</ele>
        <time>2026-06-19T09:10:49.000Z</time>
        <extensions>
          <ns3:TrackPointExtension>
            <ns3:atemp>17.0</ns3:atemp>
          </ns3:TrackPointExtension>
        </extensions>
      </trkpt>
      <trkpt lat="42.5051474757492542266845703125" lon="20.01016261987388134002685546875">
        <ele>2042</ele>
        <time>2026-06-19T09:10:50.000Z</time>
        <extensions>
          <ns3:TrackPointExtension>
            <ns3:atemp>17.0</ns3:atemp>
          </ns3:TrackPointExtension>
        </extensions>
      </trkpt>
      <trkpt lat="42.50514672137796878814697265625" lon="20.01018223352730274200439453125">
        <ele>2042.199951171875</ele>
        <time>2026-06-19T09:10:51.000Z</time>
        <extensions>
          <ns3:TrackPointExtension>
            <ns3:atemp>17.0</ns3:atemp>
          </ns3:TrackPointExtension>
        </extensions>
      </trkpt>
      <trkpt lat="42.50514504499733448028564453125" lon="20.01019715331494808197021484375">
        <ele>2042.4000244140625</ele>
        <time>2026-06-19T09:10:52.000Z</time>
        <extensions>
          <ns3:TrackPointExtension>
            <ns3:atemp>17.0</ns3:atemp>
          </ns3:TrackPointExtension>
        </extensions>
      </trkpt>
      <trkpt lat="42.505144290626049041748046875" lon="20.0102140009403228759765625">
        <ele>2042.4000244140625</ele>
        <time>2026-06-19T09:10:53.000Z</time>
        <extensions>
          <ns3:TrackPointExtension>
            <ns3:atemp>17.0</ns3:atemp>
          </ns3:TrackPointExtension>
        </extensions>
      </trkpt>
      <trkpt lat="42.505148313939571380615234375" lon="20.01023470424115657806396484375">
        <ele>2042.5999755859375</ele>
        <time>2026-06-19T09:10:54.000Z</time>
        <extensions>
          <ns3:TrackPointExtension>
            <ns3:atemp>17.0</ns3:atemp>
          </ns3:TrackPointExtension>
        </extensions>
      </trkpt>
      <trkpt lat="42.50516138970851898193359375" lon="20.0102595984935760498046875">
        <ele>2042.5999755859375</ele>
        <time>2026-06-19T09:10:55.000Z</time>
        <extensions>
          <ns3:TrackPointExtension>
            <ns3:atemp>17.0</ns3:atemp>
          </ns3:TrackPointExtension>
        </extensions>
      </trkpt>
      <trkpt lat="42.50517614185810089111328125" lon="20.01028164289891719818115234375">
        <ele>2042.5999755859375</ele>
        <time>2026-06-19T09:10:56.000Z</time>
        <extensions>
          <ns3:TrackPointExtension>
            <ns3:atemp>17.0</ns3:atemp>
          </ns3:TrackPointExtension>
        </extensions>
      </trkpt>
      <trkpt lat="42.5051913969218730926513671875" lon="20.010300837457180023193359375">
        <ele>2042.800048828125</ele>
        <time>2026-06-19T09:10:57.000Z</time>
        <extensions>
          <ns3:TrackPointExtension>
            <ns3:atemp>17.0</ns3:atemp>
          </ns3:TrackPointExtension>
        </extensions>
      </trkpt>
      <trkpt lat="42.50520296394824981689453125" lon="20.01032640226185321807861328125">
        <ele>2042.800048828125</ele>
        <time>2026-06-19T09:10:58.000Z</time>
        <extensions>
          <ns3:TrackPointExtension>
            <ns3:atemp>17.0</ns3:atemp>
          </ns3:TrackPointExtension>
        </extensions>
      </trkpt>
      <trkpt lat="42.50521629117429256439208984375" lon="20.01035205088555812835693359375">
        <ele>2042.800048828125</ele>
        <time>2026-06-19T09:10:59.000Z</time>
        <extensions>
          <ns3:TrackPointExtension>
            <ns3:atemp>17.0</ns3:atemp>
          </ns3:TrackPointExtension>
        </extensions>
      </trkpt>
      <trkpt lat="42.5052326358854770660400390625" lon="20.01038088463246822357177734375">
        <ele>2042.800048828125</ele>
        <time>2026-06-19T09:11:00.000Z</time>
        <extensions>
          <ns3:TrackPointExtension>
            <ns3:atemp>17.0</ns3:atemp>
          </ns3:TrackPointExtension>
        </extensions>
      </trkpt>
      <trkpt lat="42.5052477233111858367919921875" lon="20.01041055656969547271728515625">
        <ele>2042.800048828125</ele>
        <time>2026-06-19T09:11:01.000Z</time>
        <extensions>
          <ns3:TrackPointExtension>
            <ns3:atemp>17.0</ns3:atemp>
          </ns3:TrackPointExtension>
        </extensions>
      </trkpt>
      <trkpt lat="42.5052644871175289154052734375" lon="20.0104377977550029754638671875">
        <ele>2042.800048828125</ele>
        <time>2026-06-19T09:11:02.000Z</time>
        <extensions>
          <ns3:TrackPointExtension>
            <ns3:atemp>17.0</ns3:atemp>
          </ns3:TrackPointExtension>
        </extensions>
      </trkpt>
      <trkpt lat="42.50528066419064998626708984375" lon="20.0104639492928981781005859375">
        <ele>2043</ele>
        <time>2026-06-19T09:11:03.000Z</time>
        <extensions>
          <ns3:TrackPointExtension>
            <ns3:atemp>17.0</ns3:atemp>
          </ns3:TrackPointExtension>
        </extensions>
      </trkpt>
      <trkpt lat="42.5052970089018344879150390625" lon="20.0104914419353008270263671875">
        <ele>2043</ele>
        <time>2026-06-19T09:11:04.000Z</time>
        <extensions>
          <ns3:TrackPointExtension>
            <ns3:atemp>17.0</ns3:atemp>
          </ns3:TrackPointExtension>
        </extensions>
      </trkpt>
      <trkpt lat="42.50531486235558986663818359375" lon="20.0105130672454833984375">
        <ele>2043</ele>
        <time>2026-06-19T09:11:05.000Z</time>
        <extensions>
          <ns3:TrackPointExtension>
            <ns3:atemp>17.0</ns3:atemp>
          </ns3:TrackPointExtension>
        </extensions>
      </trkpt>
      <trkpt lat="42.50533430837094783782958984375" lon="20.0105333514511585235595703125">
        <ele>2043.199951171875</ele>
        <time>2026-06-19T09:11:06.000Z</time>
        <extensions>
          <ns3:TrackPointExtension>
            <ns3:atemp>17.0</ns3:atemp>
          </ns3:TrackPointExtension>
        </extensions>
      </trkpt>
      <trkpt lat="42.5053573586046695709228515625" lon="20.01055757515132427215576171875">
        <ele>2043.4000244140625</ele>
        <time>2026-06-19T09:11:07.000Z</time>
        <extensions>
          <ns3:TrackPointExtension>
            <ns3:atemp>17.0</ns3:atemp>
          </ns3:TrackPointExtension>
        </extensions>
      </trkpt>
      <trkpt lat="42.50537772662937641143798828125" lon="20.01057366840541362762451171875">
        <ele>2043.5999755859375</ele>
        <time>2026-06-19T09:11:08.000Z</time>
        <extensions>
          <ns3:TrackPointExtension>
            <ns3:atemp>17.0</ns3:atemp>
          </ns3:TrackPointExtension>
        </extensions>
      </trkpt>
      <trkpt lat="42.505395412445068359375" lon="20.01058909110724925994873046875">
        <ele>2043.800048828125</ele>
        <time>2026-06-19T09:11:09.000Z</time>
        <extensions>
          <ns3:TrackPointExtension>
            <ns3:atemp>17.0</ns3:atemp>
          </ns3:TrackPointExtension>
        </extensions>
      </trkpt>
      <trkpt lat="42.50541242770850658416748046875" lon="20.0106091238558292388916015625">
        <ele>2044.199951171875</ele>
        <time>2026-06-19T09:11:10.000Z</time>
        <extensions>
          <ns3:TrackPointExtension>
            <ns3:atemp>17.0</ns3:atemp>
          </ns3:TrackPointExtension>
        </extensions>
      </trkpt>
      <trkpt lat="42.50543103553354740142822265625" lon="20.01062245108187198638916015625">
        <ele>2044.4000244140625</ele>
        <time>2026-06-19T09:11:11.000Z</time>
        <extensions>
          <ns3:TrackPointExtension>
            <ns3:atemp>17.0</ns3:atemp>
          </ns3:TrackPointExtension>
        </extensions>
      </trkpt>
      <trkpt lat="42.5054472126066684722900390625" lon="20.01063686795532703399658203125">
        <ele>2044.800048828125</ele>
        <time>2026-06-19T09:11:12.000Z</time>
        <extensions>
          <ns3:TrackPointExtension>
            <ns3:atemp>17.0</ns3:atemp>
          </ns3:TrackPointExtension>
        </extensions>
      </trkpt>
      <trkpt lat="42.5054669938981533050537109375" lon="20.010651536285877227783203125">
        <ele>2045</ele>
        <time>2026-06-19T09:11:13.000Z</time>
        <extensions>
          <ns3:TrackPointExtension>
            <ns3:atemp>17.0</ns3:atemp>
          </ns3:TrackPointExtension>
        </extensions>
      </trkpt>
      <trkpt lat="42.5054861046373844146728515625" lon="20.01066528260707855224609375">
        <ele>2045.4000244140625</ele>
        <time>2026-06-19T09:11:14.000Z</time>
        <extensions>
          <ns3:TrackPointExtension>
            <ns3:atemp>17.0</ns3:atemp>
          </ns3:TrackPointExtension>
        </extensions>
      </trkpt>
      <trkpt lat="42.5055028684437274932861328125" lon="20.01068313606083393096923828125">
        <ele>2045.5999755859375</ele>
        <time>2026-06-19T09:11:15.000Z</time>
        <extensions>
          <ns3:TrackPointExtension>
            <ns3:atemp>17.0</ns3:atemp>
          </ns3:TrackPointExtension>
        </extensions>
      </trkpt>
      <trkpt lat="42.50552105717360973358154296875" lon="20.01070191152393817901611328125">
        <ele>2045.800048828125</ele>
        <time>2026-06-19T09:11:16.000Z</time>
        <extensions>
          <ns3:TrackPointExtension>
            <ns3:atemp>17.0</ns3:atemp>
          </ns3:TrackPointExtension>
        </extensions>
      </trkpt>
      <trkpt lat="42.50553765334188938140869140625" lon="20.010711215436458587646484375">
        <ele>2046</ele>
        <time>2026-06-19T09:11:17.000Z</time>
        <extensions>
          <ns3:TrackPointExtension>
            <ns3:atemp>17.0</ns3:atemp>
          </ns3:TrackPointExtension>
        </extensions>
      </trkpt>
      <trkpt lat="42.505552656948566436767578125" lon="20.01072621904313564300537109375">
        <ele>2046.199951171875</ele>
        <time>2026-06-19T09:11:18.000Z</time>
        <extensions>
          <ns3:TrackPointExtension>
            <ns3:atemp>17.0</ns3:atemp>
          </ns3:TrackPointExtension>
        </extensions>
      </trkpt>
      <trkpt lat="42.505567409098148345947265625" lon="20.01073895953595638275146484375">
        <ele>2046.5999755859375</ele>
        <time>2026-06-19T09:11:19.000Z</time>
        <extensions>
          <ns3:TrackPointExtension>
            <ns3:atemp>17.0</ns3:atemp>
          </ns3:TrackPointExtension>
        </extensions>
      </trkpt>
      <trkpt lat="42.5055793114006519317626953125" lon="20.010745413601398468017578125">
        <ele>2047</ele>
        <time>2026-06-19T09:11:20.000Z</time>
        <extensions>
          <ns3:TrackPointExtension>
            <ns3:atemp>17.0</ns3:atemp>
          </ns3:TrackPointExtension>
        </extensions>
      </trkpt>
      <trkpt lat="42.50559280626475811004638671875" lon="20.0107558071613311767578125">
        <ele>2047.199951171875</ele>
        <time>2026-06-19T09:11:21.000Z</time>
        <extensions>
          <ns3:TrackPointExtension>
            <ns3:atemp>17.0</ns3:atemp>
          </ns3:TrackPointExtension>
        </extensions>
      </trkpt>
      <trkpt lat="42.5056081451475620269775390625" lon="20.01076779328286647796630859375">
        <ele>2047.5999755859375</ele>
        <time>2026-06-19T09:11:22.000Z</time>
        <extensions>
          <ns3:TrackPointExtension>
            <ns3:atemp>17.0</ns3:atemp>
          </ns3:TrackPointExtension>
        </extensions>
      </trkpt>
      <trkpt lat="42.50562348403036594390869140625" lon="20.0107801146805286407470703125">
        <ele>2047.800048828125</ele>
        <time>2026-06-19T09:11:23.000Z</time>
        <extensions>
          <ns3:TrackPointExtension>
            <ns3:atemp>17.0</ns3:atemp>
          </ns3:TrackPointExtension>
        </extensions>
      </trkpt>
      <trkpt lat="42.50564024783670902252197265625" lon="20.01079428009688854217529296875">
        <ele>2048.199951171875</ele>
        <time>2026-06-19T09:11:24.000Z</time>
        <extensions>
          <ns3:TrackPointExtension>
            <ns3:atemp>17.0</ns3:atemp>
          </ns3:TrackPointExtension>
        </extensions>
      </trkpt>
      <trkpt lat="42.5056594423949718475341796875" lon="20.010805763304233551025390625">
        <ele>2048.39990234375</ele>
        <time>2026-06-19T09:11:25.000Z</time>
        <extensions>
          <ns3:TrackPointExtension>
            <ns3:atemp>17.0</ns3:atemp>
          </ns3:TrackPointExtension>
        </extensions>
      </trkpt>
      <trkpt lat="42.50567729584872722625732421875" lon="20.01081389375030994415283203125">
        <ele>2048.800048828125</ele>
        <time>2026-06-19T09:11:26.000Z</time>
        <extensions>
          <ns3:TrackPointExtension>
            <ns3:atemp>17.0</ns3:atemp>
          </ns3:TrackPointExtension>
        </extensions>
      </trkpt>
      <trkpt lat="42.50569489784538745880126953125" lon="20.01081808470189571380615234375">
        <ele>2049</ele>
        <time>2026-06-19T09:11:27.000Z</time>
        <extensions>
          <ns3:TrackPointExtension>
            <ns3:atemp>17.0</ns3:atemp>
          </ns3:TrackPointExtension>
        </extensions>
      </trkpt>
      <trkpt lat="42.50570948235690593719482421875" lon="20.0108203478157520294189453125">
        <ele>2049.199951171875</ele>
        <time>2026-06-19T09:11:28.000Z</time>
        <extensions>
          <ns3:TrackPointExtension>
            <ns3:atemp>17.0</ns3:atemp>
          </ns3:TrackPointExtension>
        </extensions>
      </trkpt>
      <trkpt lat="42.505724988877773284912109375" lon="20.0108240358531475067138671875">
        <ele>2049.39990234375</ele>
        <time>2026-06-19T09:11:29.000Z</time>
        <extensions>
          <ns3:TrackPointExtension>
            <ns3:atemp>17.0</ns3:atemp>
          </ns3:TrackPointExtension>
        </extensions>
      </trkpt>
      <trkpt lat="42.50574451871216297149658203125" lon="20.0108310766518115997314453125">
        <ele>2049.800048828125</ele>
        <time>2026-06-19T09:11:30.000Z</time>
        <extensions>
          <ns3:TrackPointExtension>
            <ns3:atemp>17.0</ns3:atemp>
          </ns3:TrackPointExtension>
        </extensions>
      </trkpt>
      <trkpt lat="42.50576178543269634246826171875" lon="20.01083116047084331512451171875">
        <ele>2050</ele>
        <time>2026-06-19T09:11:31.000Z</time>
        <extensions>
          <ns3:TrackPointExtension>
            <ns3:atemp>17.0</ns3:atemp>
          </ns3:TrackPointExtension>
        </extensions>
      </trkpt>
      <trkpt lat="42.5057803094387054443359375" lon="20.010831244289875030517578125">
        <ele>2050.199951171875</ele>
        <time>2026-06-19T09:11:32.000Z</time>
        <extensions>
          <ns3:TrackPointExtension>
            <ns3:atemp>17.0</ns3:atemp>
          </ns3:TrackPointExtension>
        </extensions>
      </trkpt>
      <trkpt lat="42.505798749625682830810546875" lon="20.0108242034912109375">
        <ele>2050.39990234375</ele>
        <time>2026-06-19T09:11:33.000Z</time>
        <extensions>
          <ns3:TrackPointExtension>
            <ns3:atemp>17.0</ns3:atemp>
          </ns3:TrackPointExtension>
        </extensions>
      </trkpt>
      <trkpt lat="42.5058150105178356170654296875" lon="20.01081456430256366729736328125">
        <ele>2050.60009765625</ele>
        <time>2026-06-19T09:11:34.000Z</time>
        <extensions>
          <ns3:TrackPointExtension>
            <ns3:atemp>17.0</ns3:atemp>
          </ns3:TrackPointExtension>
        </extensions>
      </trkpt>
      <trkpt lat="42.5058232247829437255859375" lon="20.01080266200006008148193359375">
        <ele>2050.800048828125</ele>
        <time>2026-06-19T09:11:35.000Z</time>
        <extensions>
          <ns3:TrackPointExtension>
            <ns3:atemp>17.0</ns3:atemp>
          </ns3:TrackPointExtension>
        </extensions>
      </trkpt>
      <trkpt lat="42.5058334507048130035400390625" lon="20.01079964451491832733154296875">
        <ele>2051</ele>
        <time>2026-06-19T09:11:36.000Z</time>
        <extensions>
          <ns3:TrackPointExtension>
            <ns3:atemp>17.0</ns3:atemp>
          </ns3:TrackPointExtension>
        </extensions>
      </trkpt>
      <trkpt lat="42.5058482028543949127197265625" lon="20.0107921846210956573486328125">
        <ele>2051.199951171875</ele>
        <time>2026-06-19T09:11:37.000Z</time>
        <extensions>
          <ns3:TrackPointExtension>
            <ns3:atemp>17.0</ns3:atemp>
          </ns3:TrackPointExtension>
        </extensions>
      </trkpt>
      <trkpt lat="42.50586672686040401458740234375" lon="20.01078723929822444915771484375">
        <ele>2051.199951171875</ele>
        <time>2026-06-19T09:11:38.000Z</time>
        <extensions>
          <ns3:TrackPointExtension>
            <ns3:atemp>17.0</ns3:atemp>
          </ns3:TrackPointExtension>
        </extensions>
      </trkpt>
      <trkpt lat="42.505885250866413116455078125" lon="20.0107791088521480560302734375">
        <ele>2051.39990234375</ele>
        <time>2026-06-19T09:11:39.000Z</time>
        <extensions>
          <ns3:TrackPointExtension>
            <ns3:atemp>17.0</ns3:atemp>
          </ns3:TrackPointExtension>
        </extensions>
      </trkpt>
      <trkpt lat="42.5059028528630733489990234375" lon="20.01076326705515384674072265625">
        <ele>2051.39990234375</ele>
        <time>2026-06-19T09:11:40.000Z</time>
        <extensions>
          <ns3:TrackPointExtension>
            <ns3:atemp>17.0</ns3:atemp>
          </ns3:TrackPointExtension>
        </extensions>
      </trkpt>
      <trkpt lat="42.5059196166694164276123046875" lon="20.01074784435331821441650390625">
        <ele>2051.39990234375</ele>
        <time>2026-06-19T09:11:41.000Z</time>
        <extensions>
          <ns3:TrackPointExtension>
            <ns3:atemp>17.0</ns3:atemp>
          </ns3:TrackPointExtension>
        </extensions>
      </trkpt>
      <trkpt lat="42.5059330277144908905029296875" lon="20.0107365287840366363525390625">
        <ele>2051.39990234375</ele>
        <time>2026-06-19T09:11:42.000Z</time>
        <extensions>
          <ns3:TrackPointExtension>
            <ns3:atemp>17.0</ns3:atemp>
          </ns3:TrackPointExtension>
        </extensions>
      </trkpt>
      <trkpt lat="42.50593881122767925262451171875" lon="20.01072957180440425872802734375">
        <ele>2051.39990234375</ele>
        <time>2026-06-19T09:11:43.000Z</time>
        <extensions>
          <ns3:TrackPointExtension>
            <ns3:atemp>17.0</ns3:atemp>
          </ns3:TrackPointExtension>
        </extensions>
      </trkpt>
      <trkpt lat="42.505938895046710968017578125" lon="20.01073258928954601287841796875">
        <ele>2051.199951171875</ele>
        <time>2026-06-19T09:11:44.000Z</time>
        <extensions>
          <ns3:TrackPointExtension>
            <ns3:atemp>17.0</ns3:atemp>
          </ns3:TrackPointExtension>
        </extensions>
      </trkpt>
      <trkpt lat="42.505938895046710968017578125" lon="20.01073258928954601287841796875">
        <ele>2051.199951171875</ele>
        <time>2026-06-19T09:11:45.000Z</time>
        <extensions>
          <ns3:TrackPointExtension>
            <ns3:atemp>17.0</ns3:atemp>
          </ns3:TrackPointExtension>
        </extensions>
      </trkpt>
      <trkpt lat="42.505938895046710968017578125" lon="20.01073258928954601287841796875">
        <ele>2051.199951171875</ele>
        <time>2026-06-19T09:11:46.000Z</time>
        <extensions>
          <ns3:TrackPointExtension>
            <ns3:atemp>17.0</ns3:atemp>
          </ns3:TrackPointExtension>
        </extensions>
      </trkpt>
      <trkpt lat="42.505938895046710968017578125" lon="20.01073258928954601287841796875">
        <ele>2051.199951171875</ele>
        <time>2026-06-19T09:11:47.000Z</time>
        <extensions>
          <ns3:TrackPointExtension>
            <ns3:atemp>17.0</ns3:atemp>
          </ns3:TrackPointExtension>
        </extensions>
      </trkpt>
      <trkpt lat="42.505938895046710968017578125" lon="20.01073258928954601287841796875">
        <ele>2051.199951171875</ele>
        <time>2026-06-19T09:11:48.000Z</time>
        <extensions>
          <ns3:TrackPointExtension>
            <ns3:atemp>17.0</ns3:atemp>
          </ns3:TrackPointExtension>
        </extensions>
      </trkpt>
      <trkpt lat="42.505938895046710968017578125" lon="20.01073258928954601287841796875">
        <ele>2051.199951171875</ele>
        <time>2026-06-19T09:11:49.000Z</time>
        <extensions>
          <ns3:TrackPointExtension>
            <ns3:atemp>17.0</ns3:atemp>
          </ns3:TrackPointExtension>
        </extensions>
      </trkpt>
      <trkpt lat="42.505938895046710968017578125" lon="20.01073258928954601287841796875">
        <ele>2051.199951171875</ele>
        <time>2026-06-19T09:11:50.000Z</time>
        <extensions>
          <ns3:TrackPointExtension>
            <ns3:atemp>17.0</ns3:atemp>
          </ns3:TrackPointExtension>
        </extensions>
      </trkpt>
      <trkpt lat="42.505938895046710968017578125" lon="20.01073258928954601287841796875">
        <ele>2051</ele>
        <time>2026-06-19T09:11:51.000Z</time>
        <extensions>
          <ns3:TrackPointExtension>
            <ns3:atemp>17.0</ns3:atemp>
          </ns3:TrackPointExtension>
        </extensions>
      </trkpt>
      <trkpt lat="42.505938895046710968017578125" lon="20.01073258928954601287841796875">
        <ele>2051</ele>
        <time>2026-06-19T09:11:52.000Z</time>
        <extensions>
          <ns3:TrackPointExtension>
            <ns3:atemp>17.0</ns3:atemp>
          </ns3:TrackPointExtension>
        </extensions>
      </trkpt>
      <trkpt lat="42.505938895046710968017578125" lon="20.01073258928954601287841796875">
        <ele>2051</ele>
        <time>2026-06-19T09:11:53.000Z</time>
        <extensions>
          <ns3:TrackPointExtension>
            <ns3:atemp>17.0</ns3:atemp>
          </ns3:TrackPointExtension>
        </extensions>
      </trkpt>
      <trkpt lat="42.505938895046710968017578125" lon="20.01073258928954601287841796875">
        <ele>2050.800048828125</ele>
        <time>2026-06-19T09:11:54.000Z</time>
        <extensions>
          <ns3:TrackPointExtension>
            <ns3:atemp>17.0</ns3:atemp>
          </ns3:TrackPointExtension>
        </extensions>
      </trkpt>
      <trkpt lat="42.505938895046710968017578125" lon="20.01073258928954601287841796875">
        <ele>2050.800048828125</ele>
        <time>2026-06-19T09:11:55.000Z</time>
        <extensions>
          <ns3:TrackPointExtension>
            <ns3:atemp>17.0</ns3:atemp>
          </ns3:TrackPointExtension>
        </extensions>
      </trkpt>
      <trkpt lat="42.505938895046710968017578125" lon="20.01073258928954601287841796875">
        <ele>2050.800048828125</ele>
        <time>2026-06-19T09:11:56.000Z</time>
        <extensions>
          <ns3:TrackPointExtension>
            <ns3:atemp>17.0</ns3:atemp>
          </ns3:TrackPointExtension>
        </extensions>
      </trkpt>
      <trkpt lat="42.505938895046710968017578125" lon="20.01073258928954601287841796875">
        <ele>2050.800048828125</ele>
        <time>2026-06-19T09:11:57.000Z</time>
        <extensions>
          <ns3:TrackPointExtension>
            <ns3:atemp>17.0</ns3:atemp>
          </ns3:TrackPointExtension>
        </extensions>
      </trkpt>
      <trkpt lat="42.505938895046710968017578125" lon="20.01073258928954601287841796875">
        <ele>2050.800048828125</ele>
        <time>2026-06-19T09:11:58.000Z</time>
        <extensions>
          <ns3:TrackPointExtension>
            <ns3:atemp>17.0</ns3:atemp>
          </ns3:TrackPointExtension>
        </extensions>
      </trkpt>
      <trkpt lat="42.505938895046710968017578125" lon="20.01073258928954601287841796875">
        <ele>2050.800048828125</ele>
        <time>2026-06-19T09:11:59.000Z</time>
        <extensions>
          <ns3:TrackPointExtension>
            <ns3:atemp>17.0</ns3:atemp>
          </ns3:TrackPointExtension>
        </extensions>
      </trkpt>
      <trkpt lat="42.505938895046710968017578125" lon="20.01073258928954601287841796875">
        <ele>2050.60009765625</ele>
        <time>2026-06-19T09:12:00.000Z</time>
        <extensions>
          <ns3:TrackPointExtension>
            <ns3:atemp>17.0</ns3:atemp>
          </ns3:TrackPointExtension>
        </extensions>
      </trkpt>
      <trkpt lat="42.505938895046710968017578125" lon="20.01073258928954601287841796875">
        <ele>2050.60009765625</ele>
        <time>2026-06-19T09:12:01.000Z</time>
        <extensions>
          <ns3:TrackPointExtension>
            <ns3:atemp>17.0</ns3:atemp>
          </ns3:TrackPointExtension>
        </extensions>
      </trkpt>
      <trkpt lat="42.505938895046710968017578125" lon="20.01073258928954601287841796875">
        <ele>2050.60009765625</ele>
        <time>2026-06-19T09:12:02.000Z</time>
        <extensions>
          <ns3:TrackPointExtension>
            <ns3:atemp>17.0</ns3:atemp>
          </ns3:TrackPointExtension>
        </extensions>
      </trkpt>
      <trkpt lat="42.505938895046710968017578125" lon="20.01073258928954601287841796875">
        <ele>2050.60009765625</ele>
        <time>2026-06-19T09:12:03.000Z</time>
        <extensions>
          <ns3:TrackPointExtension>
            <ns3:atemp>17.0</ns3:atemp>
          </ns3:TrackPointExtension>
        </extensions>
      </trkpt>
      <trkpt lat="42.505938895046710968017578125" lon="20.01073258928954601287841796875">
        <ele>2050.39990234375</ele>
        <time>2026-06-19T09:12:04.000Z</time>
        <extensions>
          <ns3:TrackPointExtension>
            <ns3:atemp>17.0</ns3:atemp>
          </ns3:TrackPointExtension>
        </extensions>
      </trkpt>
      <trkpt lat="42.505938895046710968017578125" lon="20.01073258928954601287841796875">
        <ele>2050.39990234375</ele>
        <time>2026-06-19T09:12:05.000Z</time>
        <extensions>
          <ns3:TrackPointExtension>
            <ns3:atemp>17.0</ns3:atemp>
          </ns3:TrackPointExtension>
        </extensions>
      </trkpt>
      <trkpt lat="42.505938895046710968017578125" lon="20.01073258928954601287841796875">
        <ele>2050.39990234375</ele>
        <time>2026-06-19T09:12:06.000Z</time>
        <extensions>
          <ns3:TrackPointExtension>
            <ns3:atemp>17.0</ns3:atemp>
          </ns3:TrackPointExtension>
        </extensions>
      </trkpt>
      <trkpt lat="42.505938895046710968017578125" lon="20.01073258928954601287841796875">
        <ele>2050.39990234375</ele>
        <time>2026-06-19T09:12:07.000Z</time>
        <extensions>
          <ns3:TrackPointExtension>
            <ns3:atemp>17.0</ns3:atemp>
          </ns3:TrackPointExtension>
        </extensions>
      </trkpt>
      <trkpt lat="42.505938895046710968017578125" lon="20.01073258928954601287841796875">
        <ele>2050.39990234375</ele>
        <time>2026-06-19T09:12:08.000Z</time>
        <extensions>
          <ns3:TrackPointExtension>
            <ns3:atemp>17.0</ns3:atemp>
          </ns3:TrackPointExtension>
        </extensions>
      </trkpt>
      <trkpt lat="42.505938895046710968017578125" lon="20.01073258928954601287841796875">
        <ele>2050.39990234375</ele>
        <time>2026-06-19T09:12:09.000Z</time>
        <extensions>
          <ns3:TrackPointExtension>
            <ns3:atemp>17.0</ns3:atemp>
          </ns3:TrackPointExtension>
        </extensions>
      </trkpt>
      <trkpt lat="42.505938895046710968017578125" lon="20.01073258928954601287841796875">
        <ele>2050.39990234375</ele>
        <time>2026-06-19T09:12:10.000Z</time>
        <extensions>
          <ns3:TrackPointExtension>
            <ns3:atemp>17.0</ns3:atemp>
          </ns3:TrackPointExtension>
        </extensions>
      </trkpt>
      <trkpt lat="42.505938895046710968017578125" lon="20.01073258928954601287841796875">
        <ele>2050.39990234375</ele>
        <time>2026-06-19T09:12:11.000Z</time>
        <extensions>
          <ns3:TrackPointExtension>
            <ns3:atemp>17.0</ns3:atemp>
          </ns3:TrackPointExtension>
        </extensions>
      </trkpt>
      <trkpt lat="42.505938895046710968017578125" lon="20.01073258928954601287841796875">
        <ele>2050.39990234375</ele>
        <time>2026-06-19T09:12:12.000Z</time>
        <extensions>
          <ns3:TrackPointExtension>
            <ns3:atemp>17.0</ns3:atemp>
          </ns3:TrackPointExtension>
        </extensions>
      </trkpt>
      <trkpt lat="42.505938895046710968017578125" lon="20.01073258928954601287841796875">
        <ele>2050.39990234375</ele>
        <time>2026-06-19T09:12:13.000Z</time>
        <extensions>
          <ns3:TrackPointExtension>
            <ns3:atemp>17.0</ns3:atemp>
          </ns3:TrackPointExtension>
        </extensions>
      </trkpt>
      <trkpt lat="42.505938895046710968017578125" lon="20.01073258928954601287841796875">
        <ele>2050.39990234375</ele>
        <time>2026-06-19T09:12:14.000Z</time>
        <extensions>
          <ns3:TrackPointExtension>
            <ns3:atemp>17.0</ns3:atemp>
          </ns3:TrackPointExtension>
        </extensions>
      </trkpt>
      <trkpt lat="42.505938895046710968017578125" lon="20.01073258928954601287841796875">
        <ele>2050.39990234375</ele>
        <time>2026-06-19T09:12:15.000Z</time>
        <extensions>
          <ns3:TrackPointExtension>
            <ns3:atemp>17.0</ns3:atemp>
          </ns3:TrackPointExtension>
        </extensions>
      </trkpt>
      <trkpt lat="42.505938895046710968017578125" lon="20.01073258928954601287841796875">
        <ele>2050.60009765625</ele>
        <time>2026-06-19T09:12:16.000Z</time>
        <extensions>
          <ns3:TrackPointExtension>
            <ns3:atemp>17.0</ns3:atemp>
          </ns3:TrackPointExtension>
        </extensions>
      </trkpt>
      <trkpt lat="42.505938895046710968017578125" lon="20.01073258928954601287841796875">
        <ele>2050.60009765625</ele>
        <time>2026-06-19T09:12:17.000Z</time>
        <extensions>
          <ns3:TrackPointExtension>
            <ns3:atemp>17.0</ns3:atemp>
          </ns3:TrackPointExtension>
        </extensions>
      </trkpt>
      <trkpt lat="42.505938895046710968017578125" lon="20.01073258928954601287841796875">
        <ele>2050.60009765625</ele>
        <time>2026-06-19T09:12:18.000Z</time>
        <extensions>
          <ns3:TrackPointExtension>
            <ns3:atemp>17.0</ns3:atemp>
          </ns3:TrackPointExtension>
        </extensions>
      </trkpt>
      <trkpt lat="42.505938895046710968017578125" lon="20.01073258928954601287841796875">
        <ele>2050.60009765625</ele>
        <time>2026-06-19T09:12:19.000Z</time>
        <extensions>
          <ns3:TrackPointExtension>
            <ns3:atemp>17.0</ns3:atemp>
          </ns3:TrackPointExtension>
        </extensions>
      </trkpt>
      <trkpt lat="42.505938895046710968017578125" lon="20.01073258928954601287841796875">
        <ele>2050.60009765625</ele>
        <time>2026-06-19T09:12:20.000Z</time>
        <extensions>
          <ns3:TrackPointExtension>
            <ns3:atemp>17.0</ns3:atemp>
          </ns3:TrackPointExtension>
        </extensions>
      </trkpt>
      <trkpt lat="42.505938895046710968017578125" lon="20.01073258928954601287841796875">
        <ele>2050.60009765625</ele>
        <time>2026-06-19T09:12:21.000Z</time>
        <extensions>
          <ns3:TrackPointExtension>
            <ns3:atemp>17.0</ns3:atemp>
          </ns3:TrackPointExtension>
        </extensions>
      </trkpt>
      <trkpt lat="42.505938895046710968017578125" lon="20.01073258928954601287841796875">
        <ele>2050.60009765625</ele>
        <time>2026-06-19T09:12:22.000Z</time>
        <extensions>
          <ns3:TrackPointExtension>
            <ns3:atemp>17.0</ns3:atemp>
          </ns3:TrackPointExtension>
        </extensions>
      </trkpt>
      <trkpt lat="42.505938895046710968017578125" lon="20.01073258928954601287841796875">
        <ele>2050.60009765625</ele>
        <time>2026-06-19T09:12:23.000Z</time>
        <extensions>
          <ns3:TrackPointExtension>
            <ns3:atemp>17.0</ns3:atemp>
          </ns3:TrackPointExtension>
        </extensions>
      </trkpt>
      <trkpt lat="42.505938895046710968017578125" lon="20.01073258928954601287841796875">
        <ele>2050.60009765625</ele>
        <time>2026-06-19T09:12:24.000Z</time>
        <extensions>
          <ns3:TrackPointExtension>
            <ns3:atemp>17.0</ns3:atemp>
          </ns3:TrackPointExtension>
        </extensions>
      </trkpt>
      <trkpt lat="42.505938895046710968017578125" lon="20.01073258928954601287841796875">
        <ele>2050.60009765625</ele>
        <time>2026-06-19T09:12:25.000Z</time>
        <extensions>
          <ns3:TrackPointExtension>
            <ns3:atemp>17.0</ns3:atemp>
          </ns3:TrackPointExtension>
        </extensions>
      </trkpt>
      <trkpt lat="42.505938895046710968017578125" lon="20.01073258928954601287841796875">
        <ele>2050.60009765625</ele>
        <time>2026-06-19T09:12:26.000Z</time>
        <extensions>
          <ns3:TrackPointExtension>
            <ns3:atemp>17.0</ns3:atemp>
          </ns3:TrackPointExtension>
        </extensions>
      </trkpt>
      <trkpt lat="42.505938895046710968017578125" lon="20.01073258928954601287841796875">
        <ele>2050.60009765625</ele>
        <time>2026-06-19T09:12:27.000Z</time>
        <extensions>
          <ns3:TrackPointExtension>
            <ns3:atemp>17.0</ns3:atemp>
          </ns3:TrackPointExtension>
        </extensions>
      </trkpt>
      <trkpt lat="42.505938895046710968017578125" lon="20.01073258928954601287841796875">
        <ele>2050.60009765625</ele>
        <time>2026-06-19T09:12:28.000Z</time>
        <extensions>
          <ns3:TrackPointExtension>
            <ns3:atemp>17.0</ns3:atemp>
          </ns3:TrackPointExtension>
        </extensions>
      </trkpt>
      <trkpt lat="42.505938895046710968017578125" lon="20.01073258928954601287841796875">
        <ele>2050.60009765625</ele>
        <time>2026-06-19T09:12:29.000Z</time>
        <extensions>
          <ns3:TrackPointExtension>
            <ns3:atemp>17.0</ns3:atemp>
          </ns3:TrackPointExtension>
        </extensions>
      </trkpt>
      <trkpt lat="42.505938895046710968017578125" lon="20.01073258928954601287841796875">
        <ele>2050.60009765625</ele>
        <time>2026-06-19T09:12:30.000Z</time>
        <extensions>
          <ns3:TrackPointExtension>
            <ns3:atemp>17.0</ns3:atemp>
          </ns3:TrackPointExtension>
        </extensions>
      </trkpt>
      <trkpt lat="42.505938895046710968017578125" lon="20.01073258928954601287841796875">
        <ele>2050.60009765625</ele>
        <time>2026-06-19T09:12:31.000Z</time>
        <extensions>
          <ns3:TrackPointExtension>
            <ns3:atemp>17.0</ns3:atemp>
          </ns3:TrackPointExtension>
        </extensions>
      </trkpt>
      <trkpt lat="42.505938895046710968017578125" lon="20.01073258928954601287841796875">
        <ele>2050.60009765625</ele>
        <time>2026-06-19T09:12:32.000Z</time>
        <extensions>
          <ns3:TrackPointExtension>
            <ns3:atemp>17.0</ns3:atemp>
          </ns3:TrackPointExtension>
        </extensions>
      </trkpt>
      <trkpt lat="42.505938895046710968017578125" lon="20.01073258928954601287841796875">
        <ele>2050.60009765625</ele>
        <time>2026-06-19T09:12:33.000Z</time>
        <extensions>
          <ns3:TrackPointExtension>
            <ns3:atemp>17.0</ns3:atemp>
          </ns3:TrackPointExtension>
        </extensions>
      </trkpt>
      <trkpt lat="42.505938895046710968017578125" lon="20.01073258928954601287841796875">
        <ele>2050.60009765625</ele>
        <time>2026-06-19T09:12:34.000Z</time>
        <extensions>
          <ns3:TrackPointExtension>
            <ns3:atemp>17.0</ns3:atemp>
          </ns3:TrackPointExtension>
        </extensions>
      </trkpt>
      <trkpt lat="42.505938895046710968017578125" lon="20.01073258928954601287841796875">
        <ele>2050.60009765625</ele>
        <time>2026-06-19T09:12:35.000Z</time>
        <extensions>
          <ns3:TrackPointExtension>
            <ns3:atemp>17.0</ns3:atemp>
          </ns3:TrackPointExtension>
        </extensions>
      </trkpt>
      <trkpt lat="42.505938895046710968017578125" lon="20.01073258928954601287841796875">
        <ele>2050.60009765625</ele>
        <time>2026-06-19T09:12:36.000Z</time>
        <extensions>
          <ns3:TrackPointExtension>
            <ns3:atemp>17.0</ns3:atemp>
          </ns3:TrackPointExtension>
        </extensions>
      </trkpt>
      <trkpt lat="42.505938895046710968017578125" lon="20.01073258928954601287841796875">
        <ele>2050.60009765625</ele>
        <time>2026-06-19T09:12:37.000Z</time>
        <extensions>
          <ns3:TrackPointExtension>
            <ns3:atemp>17.0</ns3:atemp>
          </ns3:TrackPointExtension>
        </extensions>
      </trkpt>
      <trkpt lat="42.505938895046710968017578125" lon="20.01073258928954601287841796875">
        <ele>2050.60009765625</ele>
        <time>2026-06-19T09:12:38.000Z</time>
        <extensions>
          <ns3:TrackPointExtension>
            <ns3:atemp>17.0</ns3:atemp>
          </ns3:TrackPointExtension>
        </extensions>
      </trkpt>
      <trkpt lat="42.505938895046710968017578125" lon="20.01073258928954601287841796875">
        <ele>2050.60009765625</ele>
        <time>2026-06-19T09:12:39.000Z</time>
        <extensions>
          <ns3:TrackPointExtension>
            <ns3:atemp>17.0</ns3:atemp>
          </ns3:TrackPointExtension>
        </extensions>
      </trkpt>
      <trkpt lat="42.505938895046710968017578125" lon="20.01073258928954601287841796875">
        <ele>2050.60009765625</ele>
        <time>2026-06-19T09:12:40.000Z</time>
        <extensions>
          <ns3:TrackPointExtension>
            <ns3:atemp>17.0</ns3:atemp>
          </ns3:TrackPointExtension>
        </extensions>
      </trkpt>
      <trkpt lat="42.505938895046710968017578125" lon="20.01073258928954601287841796875">
        <ele>2050.60009765625</ele>
        <time>2026-06-19T09:12:41.000Z</time>
        <extensions>
          <ns3:TrackPointExtension>
            <ns3:atemp>17.0</ns3:atemp>
          </ns3:TrackPointExtension>
        </extensions>
      </trkpt>
      <trkpt lat="42.505938895046710968017578125" lon="20.01073258928954601287841796875">
        <ele>2050.800048828125</ele>
        <time>2026-06-19T09:12:42.000Z</time>
        <extensions>
          <ns3:TrackPointExtension>
            <ns3:atemp>17.0</ns3:atemp>
          </ns3:TrackPointExtension>
        </extensions>
      </trkpt>
      <trkpt lat="42.5059404037892818450927734375" lon="20.010731332004070281982421875">
        <ele>2050.800048828125</ele>
        <time>2026-06-19T09:12:43.000Z</time>
        <extensions>
          <ns3:TrackPointExtension>
            <ns3:atemp>17.0</ns3:atemp>
          </ns3:TrackPointExtension>
        </extensions>
      </trkpt>
      <trkpt lat="42.5059410743415355682373046875" lon="20.010714568197727203369140625">
        <ele>2051</ele>
        <time>2026-06-19T09:12:44.000Z</time>
        <extensions>
          <ns3:TrackPointExtension>
            <ns3:atemp>17.0</ns3:atemp>
          </ns3:TrackPointExtension>
        </extensions>
      </trkpt>
      <trkpt lat="42.50593428499996662139892578125" lon="20.010698474943637847900390625">
        <ele>2051</ele>
        <time>2026-06-19T09:12:45.000Z</time>
        <extensions>
          <ns3:TrackPointExtension>
            <ns3:atemp>17.0</ns3:atemp>
          </ns3:TrackPointExtension>
        </extensions>
      </trkpt>
      <trkpt lat="42.50592070631682872772216796875" lon="20.010682381689548492431640625">
        <ele>2051</ele>
        <time>2026-06-19T09:12:46.000Z</time>
        <extensions>
          <ns3:TrackPointExtension>
            <ns3:atemp>17.0</ns3:atemp>
          </ns3:TrackPointExtension>
        </extensions>
      </trkpt>
      <trkpt lat="42.50591282732784748077392578125" lon="20.0106557272374629974365234375">
        <ele>2051</ele>
        <time>2026-06-19T09:12:47.000Z</time>
        <extensions>
          <ns3:TrackPointExtension>
            <ns3:atemp>17.0</ns3:atemp>
          </ns3:TrackPointExtension>
        </extensions>
      </trkpt>
      <trkpt lat="42.5059063732624053955078125" lon="20.01062362454831600189208984375">
        <ele>2051</ele>
        <time>2026-06-19T09:12:48.000Z</time>
        <extensions>
          <ns3:TrackPointExtension>
            <ns3:atemp>17.0</ns3:atemp>
          </ns3:TrackPointExtension>
        </extensions>
      </trkpt>
      <trkpt lat="42.5058974884450435638427734375" lon="20.01058205030858516693115234375">
        <ele>2050.800048828125</ele>
        <time>2026-06-19T09:12:49.000Z</time>
        <extensions>
          <ns3:TrackPointExtension>
            <ns3:atemp>17.0</ns3:atemp>
          </ns3:TrackPointExtension>
        </extensions>
      </trkpt>
      <trkpt lat="42.50588885508477687835693359375" lon="20.01053494401276111602783203125">
        <ele>2050.800048828125</ele>
        <time>2026-06-19T09:12:50.000Z</time>
        <extensions>
          <ns3:TrackPointExtension>
            <ns3:atemp>17.0</ns3:atemp>
          </ns3:TrackPointExtension>
        </extensions>
      </trkpt>
      <trkpt lat="42.5058822333812713623046875" lon="20.01048616133630275726318359375">
        <ele>2050.60009765625</ele>
        <time>2026-06-19T09:12:51.000Z</time>
        <extensions>
          <ns3:TrackPointExtension>
            <ns3:atemp>17.0</ns3:atemp>
          </ns3:TrackPointExtension>
        </extensions>
      </trkpt>
      <trkpt lat="42.5058746896684169769287109375" lon="20.01043084077537059783935546875">
        <ele>2050.39990234375</ele>
        <time>2026-06-19T09:12:52.000Z</time>
        <extensions>
          <ns3:TrackPointExtension>
            <ns3:atemp>17.0</ns3:atemp>
          </ns3:TrackPointExtension>
        </extensions>
      </trkpt>
      <trkpt lat="42.50586672686040401458740234375" lon="20.01037350855767726898193359375">
        <ele>2050</ele>
        <time>2026-06-19T09:12:53.000Z</time>
        <extensions>
          <ns3:TrackPointExtension>
            <ns3:atemp>17.0</ns3:atemp>
          </ns3:TrackPointExtension>
        </extensions>
      </trkpt>
      <trkpt lat="42.505858428776264190673828125" lon="20.01030276529490947723388671875">
        <ele>2049.60009765625</ele>
        <time>2026-06-19T09:12:54.000Z</time>
        <extensions>
          <ns3:TrackPointExtension>
            <ns3:atemp>17.0</ns3:atemp>
          </ns3:TrackPointExtension>
        </extensions>
      </trkpt>
      <trkpt lat="42.50585549511015415191650390625" lon="20.0102252326905727386474609375">
        <ele>2049.199951171875</ele>
        <time>2026-06-19T09:12:55.000Z</time>
        <extensions>
          <ns3:TrackPointExtension>
            <ns3:atemp>17.0</ns3:atemp>
          </ns3:TrackPointExtension>
        </extensions>
      </trkpt>
      <trkpt lat="42.50585834495723247528076171875" lon="20.0101430900394916534423828125">
        <ele>2048.60009765625</ele>
        <time>2026-06-19T09:12:56.000Z</time>
        <extensions>
          <ns3:TrackPointExtension>
            <ns3:atemp>17.0</ns3:atemp>
          </ns3:TrackPointExtension>
        </extensions>
      </trkpt>
      <trkpt lat="42.50586211681365966796875" lon="20.01006170175969600677490234375">
        <ele>2048</ele>
        <time>2026-06-19T09:12:57.000Z</time>
        <extensions>
          <ns3:TrackPointExtension>
            <ns3:atemp>17.0</ns3:atemp>
          </ns3:TrackPointExtension>
        </extensions>
      </trkpt>
      <trkpt lat="42.5058746896684169769287109375" lon="20.0099788047373294830322265625">
        <ele>2047.4000244140625</ele>
        <time>2026-06-19T09:12:58.000Z</time>
        <extensions>
          <ns3:TrackPointExtension>
            <ns3:atemp>17.0</ns3:atemp>
          </ns3:TrackPointExtension>
        </extensions>
      </trkpt>
      <trkpt lat="42.50588826835155487060546875" lon="20.0099063850939273834228515625">
        <ele>2047</ele>
        <time>2026-06-19T09:12:59.000Z</time>
        <extensions>
          <ns3:TrackPointExtension>
            <ns3:atemp>17.0</ns3:atemp>
          </ns3:TrackPointExtension>
        </extensions>
      </trkpt>
      <trkpt lat="42.5059045292437076568603515625" lon="20.00983539037406444549560546875">
        <ele>2046.4000244140625</ele>
        <time>2026-06-19T09:13:00.000Z</time>
        <extensions>
          <ns3:TrackPointExtension>
            <ns3:atemp>17.0</ns3:atemp>
          </ns3:TrackPointExtension>
        </extensions>
      </trkpt>
      <trkpt lat="42.50591936521232128143310546875" lon="20.00977571122348308563232421875">
        <ele>2046</ele>
        <time>2026-06-19T09:13:01.000Z</time>
        <extensions>
          <ns3:TrackPointExtension>
            <ns3:atemp>17.0</ns3:atemp>
          </ns3:TrackPointExtension>
        </extensions>
      </trkpt>
      <trkpt lat="42.5059306807816028594970703125" lon="20.00971703790128231048583984375">
        <ele>2045.800048828125</ele>
        <time>2026-06-19T09:13:02.000Z</time>
        <extensions>
          <ns3:TrackPointExtension>
            <ns3:atemp>17.0</ns3:atemp>
          </ns3:TrackPointExtension>
        </extensions>
      </trkpt>
      <trkpt lat="42.50594149343669414520263671875" lon="20.0096641480922698974609375">
        <ele>2045.800048828125</ele>
        <time>2026-06-19T09:13:03.000Z</time>
        <extensions>
          <ns3:TrackPointExtension>
            <ns3:atemp>17.0</ns3:atemp>
          </ns3:TrackPointExtension>
        </extensions>
      </trkpt>
      <trkpt lat="42.505953647196292877197265625" lon="20.00961385667324066162109375">
        <ele>2045.5999755859375</ele>
        <time>2026-06-19T09:13:04.000Z</time>
        <extensions>
          <ns3:TrackPointExtension>
            <ns3:atemp>17.0</ns3:atemp>
          </ns3:TrackPointExtension>
        </extensions>
      </trkpt>
      <trkpt lat="42.50596345402300357818603515625" lon="20.00956515781581401824951171875">
        <ele>2045.5999755859375</ele>
        <time>2026-06-19T09:13:05.000Z</time>
        <extensions>
          <ns3:TrackPointExtension>
            <ns3:atemp>17.0</ns3:atemp>
          </ns3:TrackPointExtension>
        </extensions>
      </trkpt>
      <trkpt lat="42.50597267411649227142333984375" lon="20.009515285491943359375">
        <ele>2045.4000244140625</ele>
        <time>2026-06-19T09:13:06.000Z</time>
        <extensions>
          <ns3:TrackPointExtension>
            <ns3:atemp>17.0</ns3:atemp>
          </ns3:TrackPointExtension>
        </extensions>
      </trkpt>
      <trkpt lat="42.50598390586674213409423828125" lon="20.00946591608226299285888671875">
        <ele>2045.199951171875</ele>
        <time>2026-06-19T09:13:07.000Z</time>
        <extensions>
          <ns3:TrackPointExtension>
            <ns3:atemp>17.0</ns3:atemp>
          </ns3:TrackPointExtension>
        </extensions>
      </trkpt>
      <trkpt lat="42.505995891988277435302734375" lon="20.00941269099712371826171875">
        <ele>2045</ele>
        <time>2026-06-19T09:13:08.000Z</time>
        <extensions>
          <ns3:TrackPointExtension>
            <ns3:atemp>17.0</ns3:atemp>
          </ns3:TrackPointExtension>
        </extensions>
      </trkpt>
      <trkpt lat="42.50601693056523799896240234375" lon="20.00934773124754428863525390625">
        <ele>2044.800048828125</ele>
        <time>2026-06-19T09:13:09.000Z</time>
        <extensions>
          <ns3:TrackPointExtension>
            <ns3:atemp>17.0</ns3:atemp>
          </ns3:TrackPointExtension>
        </extensions>
      </trkpt>
      <trkpt lat="42.50603553839027881622314453125" lon="20.00930263660848140716552734375">
        <ele>2044.5999755859375</ele>
        <time>2026-06-19T09:13:10.000Z</time>
        <extensions>
          <ns3:TrackPointExtension>
            <ns3:atemp>17.0</ns3:atemp>
          </ns3:TrackPointExtension>
        </extensions>
      </trkpt>
      <trkpt lat="42.506051547825336456298828125" lon="20.009283609688282012939453125">
        <ele>2044.4000244140625</ele>
        <time>2026-06-19T09:13:11.000Z</time>
        <extensions>
          <ns3:TrackPointExtension>
            <ns3:atemp>17.0</ns3:atemp>
          </ns3:TrackPointExtension>
        </extensions>
      </trkpt>
      <trkpt lat="42.5060708262026309967041015625" lon="20.00927992165088653564453125">
        <ele>2044.199951171875</ele>
        <time>2026-06-19T09:13:12.000Z</time>
        <extensions>
          <ns3:TrackPointExtension>
            <ns3:atemp>17.0</ns3:atemp>
          </ns3:TrackPointExtension>
        </extensions>
      </trkpt>
      <trkpt lat="42.506078369915485382080078125" lon="20.0092874653637409210205078125">
        <ele>2044</ele>
        <time>2026-06-19T09:13:13.000Z</time>
        <extensions>
          <ns3:TrackPointExtension>
            <ns3:atemp>17.0</ns3:atemp>
          </ns3:TrackPointExtension>
        </extensions>
      </trkpt>
      <trkpt lat="42.506088428199291229248046875" lon="20.009294338524341583251953125">
        <ele>2044</ele>
        <time>2026-06-19T09:13:14.000Z</time>
        <extensions>
          <ns3:TrackPointExtension>
            <ns3:atemp>17.0</ns3:atemp>
          </ns3:TrackPointExtension>
        </extensions>
      </trkpt>
      <trkpt lat="42.50609806738793849945068359375" lon="20.00930397771298885345458984375">
        <ele>2043.800048828125</ele>
        <time>2026-06-19T09:13:15.000Z</time>
        <extensions>
          <ns3:TrackPointExtension>
            <ns3:atemp>17.0</ns3:atemp>
          </ns3:TrackPointExtension>
        </extensions>
      </trkpt>
      <trkpt lat="42.506110556423664093017578125" lon="20.00931738875806331634521484375">
        <ele>2043.5999755859375</ele>
        <time>2026-06-19T09:13:16.000Z</time>
        <extensions>
          <ns3:TrackPointExtension>
            <ns3:atemp>17.0</ns3:atemp>
          </ns3:TrackPointExtension>
        </extensions>
      </trkpt>
      <trkpt lat="42.50611835159361362457275390625" lon="20.00933851115405559539794921875">
        <ele>2043.4000244140625</ele>
        <time>2026-06-19T09:13:17.000Z</time>
        <extensions>
          <ns3:TrackPointExtension>
            <ns3:atemp>17.0</ns3:atemp>
          </ns3:TrackPointExtension>
        </extensions>
      </trkpt>
      <trkpt lat="42.5061328522861003875732421875" lon="20.0093548558652400970458984375">
        <ele>2043</ele>
        <time>2026-06-19T09:13:18.000Z</time>
        <extensions>
          <ns3:TrackPointExtension>
            <ns3:atemp>17.0</ns3:atemp>
          </ns3:TrackPointExtension>
        </extensions>
      </trkpt>
      <trkpt lat="42.50614651478826999664306640625" lon="20.00936332158744335174560546875">
        <ele>2042.5999755859375</ele>
        <time>2026-06-19T09:13:19.000Z</time>
        <extensions>
          <ns3:TrackPointExtension>
            <ns3:atemp>17.0</ns3:atemp>
          </ns3:TrackPointExtension>
        </extensions>
      </trkpt>
      <trkpt lat="42.50615959055721759796142578125" lon="20.009374134242534637451171875">
        <ele>2042.4000244140625</ele>
        <time>2026-06-19T09:13:20.000Z</time>
        <extensions>
          <ns3:TrackPointExtension>
            <ns3:atemp>17.0</ns3:atemp>
          </ns3:TrackPointExtension>
        </extensions>
      </trkpt>
      <trkpt lat="42.50617752783000469207763671875" lon="20.00938276760280132293701171875">
        <ele>2042</ele>
        <time>2026-06-19T09:13:21.000Z</time>
        <extensions>
          <ns3:TrackPointExtension>
            <ns3:atemp>17.0</ns3:atemp>
          </ns3:TrackPointExtension>
        </extensions>
      </trkpt>
      <trkpt lat="42.50619982369244098663330078125" lon="20.00938947312533855438232421875">
        <ele>2041.5999755859375</ele>
        <time>2026-06-19T09:13:22.000Z</time>
        <extensions>
          <ns3:TrackPointExtension>
            <ns3:atemp>17.0</ns3:atemp>
          </ns3:TrackPointExtension>
        </extensions>
      </trkpt>
      <trkpt lat="42.50621675513684749603271484375" lon="20.0094034709036350250244140625">
        <ele>2041.199951171875</ele>
        <time>2026-06-19T09:13:23.000Z</time>
        <extensions>
          <ns3:TrackPointExtension>
            <ns3:atemp>17.0</ns3:atemp>
          </ns3:TrackPointExtension>
        </extensions>
      </trkpt>
      <trkpt lat="42.50622547231614589691162109375" lon="20.00941964797675609588623046875">
        <ele>2040.800048828125</ele>
        <time>2026-06-19T09:13:24.000Z</time>
        <extensions>
          <ns3:TrackPointExtension>
            <ns3:atemp>17.0</ns3:atemp>
          </ns3:TrackPointExtension>
        </extensions>
      </trkpt>
      <trkpt lat="42.506235279142856597900390625" lon="20.009433142840862274169921875">
        <ele>2040.4000244140625</ele>
        <time>2026-06-19T09:13:25.000Z</time>
        <extensions>
          <ns3:TrackPointExtension>
            <ns3:atemp>17.0</ns3:atemp>
          </ns3:TrackPointExtension>
        </extensions>
      </trkpt>
      <trkpt lat="42.506239302456378936767578125" lon="20.0094483979046344757080078125">
        <ele>2040.199951171875</ele>
        <time>2026-06-19T09:13:26.000Z</time>
        <extensions>
          <ns3:TrackPointExtension>
            <ns3:atemp>17.0</ns3:atemp>
          </ns3:TrackPointExtension>
        </extensions>
      </trkpt>
      <trkpt lat="42.50624642707407474517822265625" lon="20.0094762258231639862060546875">
        <ele>2039.800048828125</ele>
        <time>2026-06-19T09:13:27.000Z</time>
        <extensions>
          <ns3:TrackPointExtension>
            <ns3:atemp>17.0</ns3:atemp>
          </ns3:TrackPointExtension>
        </extensions>
      </trkpt>
      <trkpt lat="42.50625975430011749267578125" lon="20.00951972790062427520751953125">
        <ele>2039.4000244140625</ele>
        <time>2026-06-19T09:13:28.000Z</time>
        <extensions>
          <ns3:TrackPointExtension>
            <ns3:atemp>17.0</ns3:atemp>
          </ns3:TrackPointExtension>
        </extensions>
      </trkpt>
      <trkpt lat="42.50627241097390651702880859375" lon="20.009563900530338287353515625">
        <ele>2039</ele>
        <time>2026-06-19T09:13:29.000Z</time>
        <extensions>
          <ns3:TrackPointExtension>
            <ns3:atemp>17.0</ns3:atemp>
          </ns3:TrackPointExtension>
        </extensions>
      </trkpt>
      <trkpt lat="42.50628598965704441070556640625" lon="20.00961159355938434600830078125">
        <ele>2038.4000244140625</ele>
        <time>2026-06-19T09:13:30.000Z</time>
        <extensions>
          <ns3:TrackPointExtension>
            <ns3:atemp>17.0</ns3:atemp>
          </ns3:TrackPointExtension>
        </extensions>
      </trkpt>
      <trkpt lat="42.506302334368228912353515625" lon="20.00965937040746212005615234375">
        <ele>2037.4000244140625</ele>
        <time>2026-06-19T09:13:31.000Z</time>
        <extensions>
          <ns3:TrackPointExtension>
            <ns3:atemp>17.0</ns3:atemp>
          </ns3:TrackPointExtension>
        </extensions>
      </trkpt>
      <trkpt lat="42.5063185952603816986083984375" lon="20.00969759188592433929443359375">
        <ele>2036.4000244140625</ele>
        <time>2026-06-19T09:13:32.000Z</time>
        <extensions>
          <ns3:TrackPointExtension>
            <ns3:atemp>17.0</ns3:atemp>
          </ns3:TrackPointExtension>
        </extensions>
      </trkpt>
      <trkpt lat="42.5063360296189785003662109375" lon="20.009737573564052581787109375">
        <ele>2035.4000244140625</ele>
        <time>2026-06-19T09:13:33.000Z</time>
        <extensions>
          <ns3:TrackPointExtension>
            <ns3:atemp>17.0</ns3:atemp>
          </ns3:TrackPointExtension>
        </extensions>
      </trkpt>
      <trkpt lat="42.5063541345298290252685546875" lon="20.00977990217506885528564453125">
        <ele>2034.4000244140625</ele>
        <time>2026-06-19T09:13:34.000Z</time>
        <extensions>
          <ns3:TrackPointExtension>
            <ns3:atemp>17.0</ns3:atemp>
          </ns3:TrackPointExtension>
        </extensions>
      </trkpt>
      <trkpt lat="42.50637265853583812713623046875" lon="20.00981611199676990509033203125">
        <ele>2033.4000244140625</ele>
        <time>2026-06-19T09:13:35.000Z</time>
        <extensions>
          <ns3:TrackPointExtension>
            <ns3:atemp>17.0</ns3:atemp>
          </ns3:TrackPointExtension>
        </extensions>
      </trkpt>
      <trkpt lat="42.5063960440456867218017578125" lon="20.00985416583716869354248046875">
        <ele>2032.4000244140625</ele>
        <time>2026-06-19T09:13:36.000Z</time>
        <extensions>
          <ns3:TrackPointExtension>
            <ns3:atemp>17.0</ns3:atemp>
          </ns3:TrackPointExtension>
        </extensions>
      </trkpt>
      <trkpt lat="42.50641372986137866973876953125" lon="20.0098993442952632904052734375">
        <ele>2031.4000244140625</ele>
        <time>2026-06-19T09:13:37.000Z</time>
        <extensions>
          <ns3:TrackPointExtension>
            <ns3:atemp>17.0</ns3:atemp>
          </ns3:TrackPointExtension>
        </extensions>
      </trkpt>
      <trkpt lat="42.50642311759293079376220703125" lon="20.00993060879409313201904296875">
        <ele>2030.199951171875</ele>
        <time>2026-06-19T09:13:38.000Z</time>
        <extensions>
          <ns3:TrackPointExtension>
            <ns3:atemp>17.0</ns3:atemp>
          </ns3:TrackPointExtension>
        </extensions>
      </trkpt>
      <trkpt lat="42.50643351115286350250244140625" lon="20.0099573470652103424072265625">
        <ele>2029.199951171875</ele>
        <time>2026-06-19T09:13:39.000Z</time>
        <extensions>
          <ns3:TrackPointExtension>
            <ns3:atemp>17.0</ns3:atemp>
          </ns3:TrackPointExtension>
        </extensions>
      </trkpt>
      <trkpt lat="42.50645781867206096649169921875" lon="20.009979642927646636962890625">
        <ele>2028.4000244140625</ele>
        <time>2026-06-19T09:13:40.000Z</time>
        <extensions>
          <ns3:TrackPointExtension>
            <ns3:atemp>17.0</ns3:atemp>
          </ns3:TrackPointExtension>
        </extensions>
      </trkpt>
      <trkpt lat="42.50648782588541507720947265625" lon="20.009989701211452484130859375">
        <ele>2027.5999755859375</ele>
        <time>2026-06-19T09:13:41.000Z</time>
        <extensions>
          <ns3:TrackPointExtension>
            <ns3:atemp>17.0</ns3:atemp>
          </ns3:TrackPointExtension>
        </extensions>
      </trkpt>
      <trkpt lat="42.5065259635448455810546875" lon="20.00999917276203632354736328125">
        <ele>2026.800048828125</ele>
        <time>2026-06-19T09:13:42.000Z</time>
        <extensions>
          <ns3:TrackPointExtension>
            <ns3:atemp>17.0</ns3:atemp>
          </ns3:TrackPointExtension>
        </extensions>
      </trkpt>
      <trkpt lat="42.5065663643181324005126953125" lon="20.0100026093423366546630859375">
        <ele>2026</ele>
        <time>2026-06-19T09:13:43.000Z</time>
        <extensions>
          <ns3:TrackPointExtension>
            <ns3:atemp>17.0</ns3:atemp>
          </ns3:TrackPointExtension>
        </extensions>
      </trkpt>
      <trkpt lat="42.50661405734717845916748046875" lon="20.0099994242191314697265625">
        <ele>2024.800048828125</ele>
        <time>2026-06-19T09:13:44.000Z</time>
        <extensions>
          <ns3:TrackPointExtension>
            <ns3:atemp>17.0</ns3:atemp>
          </ns3:TrackPointExtension>
        </extensions>
      </trkpt>
      <trkpt lat="42.5066605769097805023193359375" lon="20.009987019002437591552734375">
        <ele>2023.800048828125</ele>
        <time>2026-06-19T09:13:45.000Z</time>
        <extensions>
          <ns3:TrackPointExtension>
            <ns3:atemp>17.0</ns3:atemp>
          </ns3:TrackPointExtension>
        </extensions>
      </trkpt>
      <trkpt lat="42.5067041628062725067138671875" lon="20.00997637398540973663330078125">
        <ele>2023</ele>
        <time>2026-06-19T09:13:46.000Z</time>
        <extensions>
          <ns3:TrackPointExtension>
            <ns3:atemp>17.0</ns3:atemp>
          </ns3:TrackPointExtension>
        </extensions>
      </trkpt>
      <trkpt lat="42.5067490898072719573974609375" lon="20.00998877920210361480712890625">
        <ele>2021.800048828125</ele>
        <time>2026-06-19T09:13:47.000Z</time>
        <extensions>
          <ns3:TrackPointExtension>
            <ns3:atemp>17.0</ns3:atemp>
          </ns3:TrackPointExtension>
        </extensions>
      </trkpt>
      <trkpt lat="42.5067909993231296539306640625" lon="20.010017864406108856201171875">
        <ele>2020.800048828125</ele>
        <time>2026-06-19T09:13:48.000Z</time>
        <extensions>
          <ns3:TrackPointExtension>
            <ns3:atemp>17.0</ns3:atemp>
          </ns3:TrackPointExtension>
        </extensions>
      </trkpt>
      <trkpt lat="42.50683777034282684326171875" lon="20.010049380362033843994140625">
        <ele>2019.5999755859375</ele>
        <time>2026-06-19T09:13:49.000Z</time>
        <extensions>
          <ns3:TrackPointExtension>
            <ns3:atemp>17.0</ns3:atemp>
          </ns3:TrackPointExtension>
        </extensions>
      </trkpt>
      <trkpt lat="42.50689300708472728729248046875" lon="20.010074190795421600341796875">
        <ele>2018.199951171875</ele>
        <time>2026-06-19T09:13:50.000Z</time>
        <extensions>
          <ns3:TrackPointExtension>
            <ns3:atemp>17.0</ns3:atemp>
          </ns3:TrackPointExtension>
        </extensions>
      </trkpt>
      <trkpt lat="42.506959140300750732421875" lon="20.010098330676555633544921875">
        <ele>2016.4000244140625</ele>
        <time>2026-06-19T09:13:51.000Z</time>
        <extensions>
          <ns3:TrackPointExtension>
            <ns3:atemp>17.0</ns3:atemp>
          </ns3:TrackPointExtension>
        </extensions>
      </trkpt>
      <trkpt lat="42.50702259130775928497314453125" lon="20.01011920161545276641845703125">
        <ele>2014.800048828125</ele>
        <time>2026-06-19T09:13:52.000Z</time>
        <extensions>
          <ns3:TrackPointExtension>
            <ns3:atemp>17.0</ns3:atemp>
          </ns3:TrackPointExtension>
        </extensions>
      </trkpt>
      <trkpt lat="42.50709065236151218414306640625" lon="20.0101310200989246368408203125">
        <ele>2013.4000244140625</ele>
        <time>2026-06-19T09:13:53.000Z</time>
        <extensions>
          <ns3:TrackPointExtension>
            <ns3:atemp>17.0</ns3:atemp>
          </ns3:TrackPointExtension>
        </extensions>
      </trkpt>
      <trkpt lat="42.50715292990207672119140625" lon="20.01013152301311492919921875">
        <ele>2011.5999755859375</ele>
        <time>2026-06-19T09:13:54.000Z</time>
        <extensions>
          <ns3:TrackPointExtension>
            <ns3:atemp>17.0</ns3:atemp>
          </ns3:TrackPointExtension>
        </extensions>
      </trkpt>
      <trkpt lat="42.5071966834366321563720703125" lon="20.0101269967854022979736328125">
        <ele>2010.199951171875</ele>
        <time>2026-06-19T09:13:55.000Z</time>
        <extensions>
          <ns3:TrackPointExtension>
            <ns3:atemp>17.0</ns3:atemp>
          </ns3:TrackPointExtension>
        </extensions>
      </trkpt>
      <trkpt lat="42.50722241587936878204345703125" lon="20.01013278029859066009521484375">
        <ele>2008.800048828125</ele>
        <time>2026-06-19T09:13:56.000Z</time>
        <extensions>
          <ns3:TrackPointExtension>
            <ns3:atemp>17.0</ns3:atemp>
          </ns3:TrackPointExtension>
        </extensions>
      </trkpt>
      <trkpt lat="42.5072422809898853302001953125" lon="20.0101380608975887298583984375">
        <ele>2007.5999755859375</ele>
        <time>2026-06-19T09:13:57.000Z</time>
        <extensions>
          <ns3:TrackPointExtension>
            <ns3:atemp>17.0</ns3:atemp>
          </ns3:TrackPointExtension>
        </extensions>
      </trkpt>
      <trkpt lat="42.50727497041225433349609375" lon="20.0101420842111110687255859375">
        <ele>2006.4000244140625</ele>
        <time>2026-06-19T09:13:58.000Z</time>
        <extensions>
          <ns3:TrackPointExtension>
            <ns3:atemp>17.0</ns3:atemp>
          </ns3:TrackPointExtension>
        </extensions>
      </trkpt>
      <trkpt lat="42.507305145263671875" lon="20.01014250330626964569091796875">
        <ele>2005.5999755859375</ele>
        <time>2026-06-19T09:13:59.000Z</time>
        <extensions>
          <ns3:TrackPointExtension>
            <ns3:atemp>17.0</ns3:atemp>
          </ns3:TrackPointExtension>
        </extensions>
      </trkpt>
      <trkpt lat="42.50732869841158390045166015625" lon="20.01013495959341526031494140625">
        <ele>2004.800048828125</ele>
        <time>2026-06-19T09:14:00.000Z</time>
        <extensions>
          <ns3:TrackPointExtension>
            <ns3:atemp>17.0</ns3:atemp>
          </ns3:TrackPointExtension>
        </extensions>
      </trkpt>
      <trkpt lat="42.507349066436290740966796875" lon="20.01012791879475116729736328125">
        <ele>2003.800048828125</ele>
        <time>2026-06-19T09:14:01.000Z</time>
        <extensions>
          <ns3:TrackPointExtension>
            <ns3:atemp>17.0</ns3:atemp>
          </ns3:TrackPointExtension>
        </extensions>
      </trkpt>
      <trkpt lat="42.5073757208883762359619140625" lon="20.0101209618151187896728515625">
        <ele>2003</ele>
        <time>2026-06-19T09:14:02.000Z</time>
        <extensions>
          <ns3:TrackPointExtension>
            <ns3:atemp>17.0</ns3:atemp>
          </ns3:TrackPointExtension>
        </extensions>
      </trkpt>
      <trkpt lat="42.507393322885036468505859375" lon="20.0101109035313129425048828125">
        <ele>2002.199951171875</ele>
        <time>2026-06-19T09:14:03.000Z</time>
        <extensions>
          <ns3:TrackPointExtension>
            <ns3:atemp>16.0</ns3:atemp>
          </ns3:TrackPointExtension>
        </extensions>
      </trkpt>
      <trkpt lat="42.507409416139125823974609375" lon="20.01009506173431873321533203125">
        <ele>2001.4000244140625</ele>
        <time>2026-06-19T09:14:04.000Z</time>
        <extensions>
          <ns3:TrackPointExtension>
            <ns3:atemp>16.0</ns3:atemp>
          </ns3:TrackPointExtension>
        </extensions>
      </trkpt>
      <trkpt lat="42.50744906254112720489501953125" lon="20.010087601840496063232421875">
        <ele>2000.5999755859375</ele>
        <time>2026-06-19T09:14:05.000Z</time>
        <extensions>
          <ns3:TrackPointExtension>
            <ns3:atemp>17.0</ns3:atemp>
          </ns3:TrackPointExtension>
        </extensions>
      </trkpt>
      <trkpt lat="42.50747772864997386932373046875" lon="20.01009531319141387939453125">
        <ele>1999.800048828125</ele>
        <time>2026-06-19T09:14:06.000Z</time>
        <extensions>
          <ns3:TrackPointExtension>
            <ns3:atemp>16.0</ns3:atemp>
          </ns3:TrackPointExtension>
        </extensions>
      </trkpt>
      <trkpt lat="42.507503293454647064208984375" lon="20.010093636810779571533203125">
        <ele>1999.199951171875</ele>
        <time>2026-06-19T09:14:07.000Z</time>
        <extensions>
          <ns3:TrackPointExtension>
            <ns3:atemp>17.0</ns3:atemp>
          </ns3:TrackPointExtension>
        </extensions>
      </trkpt>
      <trkpt lat="42.50753288157284259796142578125" lon="20.01009221188724040985107421875">
        <ele>1998.4000244140625</ele>
        <time>2026-06-19T09:14:08.000Z</time>
        <extensions>
          <ns3:TrackPointExtension>
            <ns3:atemp>17.0</ns3:atemp>
          </ns3:TrackPointExtension>
        </extensions>
      </trkpt>
      <trkpt lat="42.50755853019654750823974609375" lon="20.010096989572048187255859375">
        <ele>1997.800048828125</ele>
        <time>2026-06-19T09:14:09.000Z</time>
        <extensions>
          <ns3:TrackPointExtension>
            <ns3:atemp>17.0</ns3:atemp>
          </ns3:TrackPointExtension>
        </extensions>
      </trkpt>
      <trkpt lat="42.50758032314479351043701171875" lon="20.0100933015346527099609375">
        <ele>1997.199951171875</ele>
        <time>2026-06-19T09:14:10.000Z</time>
        <extensions>
          <ns3:TrackPointExtension>
            <ns3:atemp>16.0</ns3:atemp>
          </ns3:TrackPointExtension>
        </extensions>
      </trkpt>
      <trkpt lat="42.5076015293598175048828125" lon="20.0100870989263057708740234375">
        <ele>1997</ele>
        <time>2026-06-19T09:14:11.000Z</time>
        <extensions>
          <ns3:TrackPointExtension>
            <ns3:atemp>17.0</ns3:atemp>
          </ns3:TrackPointExtension>
        </extensions>
      </trkpt>
      <trkpt lat="42.5076204724609851837158203125" lon="20.010084919631481170654296875">
        <ele>1996.5999755859375</ele>
        <time>2026-06-19T09:14:12.000Z</time>
        <extensions>
          <ns3:TrackPointExtension>
            <ns3:atemp>17.0</ns3:atemp>
          </ns3:TrackPointExtension>
        </extensions>
      </trkpt>
      <trkpt lat="42.5076422654092311859130859375" lon="20.0100852549076080322265625">
        <ele>1996.4000244140625</ele>
        <time>2026-06-19T09:14:13.000Z</time>
        <extensions>
          <ns3:TrackPointExtension>
            <ns3:atemp>17.0</ns3:atemp>
          </ns3:TrackPointExtension>
        </extensions>
      </trkpt>
      <trkpt lat="42.50766456127166748046875" lon="20.01008785329759120941162109375">
        <ele>1996.199951171875</ele>
        <time>2026-06-19T09:14:14.000Z</time>
        <extensions>
          <ns3:TrackPointExtension>
            <ns3:atemp>16.0</ns3:atemp>
          </ns3:TrackPointExtension>
        </extensions>
      </trkpt>
      <trkpt lat="42.50767998397350311279296875" lon="20.01009464263916015625">
        <ele>1996</ele>
        <time>2026-06-19T09:14:15.000Z</time>
        <extensions>
          <ns3:TrackPointExtension>
            <ns3:atemp>16.0</ns3:atemp>
          </ns3:TrackPointExtension>
        </extensions>
      </trkpt>
      <trkpt lat="42.50770990736782550811767578125" lon="20.0101065449416637420654296875">
        <ele>1995.5999755859375</ele>
        <time>2026-06-19T09:14:16.000Z</time>
        <extensions>
          <ns3:TrackPointExtension>
            <ns3:atemp>16.0</ns3:atemp>
          </ns3:TrackPointExtension>
        </extensions>
      </trkpt>
      <trkpt lat="42.50774326734244823455810546875" lon="20.0101286731660366058349609375">
        <ele>1995.199951171875</ele>
        <time>2026-06-19T09:14:17.000Z</time>
        <extensions>
          <ns3:TrackPointExtension>
            <ns3:atemp>17.0</ns3:atemp>
          </ns3:TrackPointExtension>
        </extensions>
      </trkpt>
      <trkpt lat="42.50778785906732082366943359375" lon="20.010151304304599761962890625">
        <ele>1994.5999755859375</ele>
        <time>2026-06-19T09:14:18.000Z</time>
        <extensions>
          <ns3:TrackPointExtension>
            <ns3:atemp>16.0</ns3:atemp>
          </ns3:TrackPointExtension>
        </extensions>
      </trkpt>
      <trkpt lat="42.5078310258686542510986328125" lon="20.01015742309391498565673828125">
        <ele>1994</ele>
        <time>2026-06-19T09:14:19.000Z</time>
        <extensions>
          <ns3:TrackPointExtension>
            <ns3:atemp>16.0</ns3:atemp>
          </ns3:TrackPointExtension>
        </extensions>
      </trkpt>
      <trkpt lat="42.507876455783843994140625" lon="20.0101554952561855316162109375">
        <ele>1993.4000244140625</ele>
        <time>2026-06-19T09:14:20.000Z</time>
        <extensions>
          <ns3:TrackPointExtension>
            <ns3:atemp>16.0</ns3:atemp>
          </ns3:TrackPointExtension>
        </extensions>
      </trkpt>
      <trkpt lat="42.50793437473475933074951171875" lon="20.01014292240142822265625">
        <ele>1992.4000244140625</ele>
        <time>2026-06-19T09:14:21.000Z</time>
        <extensions>
          <ns3:TrackPointExtension>
            <ns3:atemp>16.0</ns3:atemp>
          </ns3:TrackPointExtension>
        </extensions>
      </trkpt>
      <trkpt lat="42.50799606554210186004638671875" lon="20.01011819578707218170166015625">
        <ele>1991.4000244140625</ele>
        <time>2026-06-19T09:14:22.000Z</time>
        <extensions>
          <ns3:TrackPointExtension>
            <ns3:atemp>16.0</ns3:atemp>
          </ns3:TrackPointExtension>
        </extensions>
      </trkpt>
      <trkpt lat="42.5080600194633007049560546875" lon="20.01008735038340091705322265625">
        <ele>1989.800048828125</ele>
        <time>2026-06-19T09:14:23.000Z</time>
        <extensions>
          <ns3:TrackPointExtension>
            <ns3:atemp>16.0</ns3:atemp>
          </ns3:TrackPointExtension>
        </extensions>
      </trkpt>
      <trkpt lat="42.508122213184833526611328125" lon="20.0100837461650371551513671875">
        <ele>1989</ele>
        <time>2026-06-19T09:14:24.000Z</time>
        <extensions>
          <ns3:TrackPointExtension>
            <ns3:atemp>16.0</ns3:atemp>
          </ns3:TrackPointExtension>
        </extensions>
      </trkpt>
      <trkpt lat="42.5081847421824932098388671875" lon="20.01009942032396793365478515625">
        <ele>1987.5999755859375</ele>
        <time>2026-06-19T09:14:25.000Z</time>
        <extensions>
          <ns3:TrackPointExtension>
            <ns3:atemp>16.0</ns3:atemp>
          </ns3:TrackPointExtension>
        </extensions>
      </trkpt>
      <trkpt lat="42.50824031420052051544189453125" lon="20.0101162679493427276611328125">
        <ele>1986.199951171875</ele>
        <time>2026-06-19T09:14:26.000Z</time>
        <extensions>
          <ns3:TrackPointExtension>
            <ns3:atemp>16.0</ns3:atemp>
          </ns3:TrackPointExtension>
        </extensions>
      </trkpt>
      <trkpt lat="42.5082970596849918365478515625" lon="20.0101228058338165283203125">
        <ele>1984.800048828125</ele>
        <time>2026-06-19T09:14:27.000Z</time>
        <extensions>
          <ns3:TrackPointExtension>
            <ns3:atemp>16.0</ns3:atemp>
          </ns3:TrackPointExtension>
        </extensions>
      </trkpt>
      <trkpt lat="42.50835145823657512664794921875" lon="20.010113753378391265869140625">
        <ele>1983.5999755859375</ele>
        <time>2026-06-19T09:14:28.000Z</time>
        <extensions>
          <ns3:TrackPointExtension>
            <ns3:atemp>16.0</ns3:atemp>
          </ns3:TrackPointExtension>
        </extensions>
      </trkpt>
      <trkpt lat="42.5084009952843189239501953125" lon="20.01009187661111354827880859375">
        <ele>1982.199951171875</ele>
        <time>2026-06-19T09:14:29.000Z</time>
        <extensions>
          <ns3:TrackPointExtension>
            <ns3:atemp>16.0</ns3:atemp>
          </ns3:TrackPointExtension>
        </extensions>
      </trkpt>
      <trkpt lat="42.5084526278078556060791015625" lon="20.010060109198093414306640625">
        <ele>1981.199951171875</ele>
        <time>2026-06-19T09:14:30.000Z</time>
        <extensions>
          <ns3:TrackPointExtension>
            <ns3:atemp>16.0</ns3:atemp>
          </ns3:TrackPointExtension>
        </extensions>
      </trkpt>
      <trkpt lat="42.50851146876811981201171875" lon="20.01001945696771144866943359375">
        <ele>1979.800048828125</ele>
        <time>2026-06-19T09:14:31.000Z</time>
        <extensions>
          <ns3:TrackPointExtension>
            <ns3:atemp>16.0</ns3:atemp>
          </ns3:TrackPointExtension>
        </extensions>
      </trkpt>
      <trkpt lat="42.5085818767547607421875" lon="20.0099788047373294830322265625">
        <ele>1978.4000244140625</ele>
        <time>2026-06-19T09:14:32.000Z</time>
        <extensions>
          <ns3:TrackPointExtension>
            <ns3:atemp>16.0</ns3:atemp>
          </ns3:TrackPointExtension>
        </extensions>
      </trkpt>
      <trkpt lat="42.50865991227328777313232421875" lon="20.009945444762706756591796875">
        <ele>1977</ele>
        <time>2026-06-19T09:14:33.000Z</time>
        <extensions>
          <ns3:TrackPointExtension>
            <ns3:atemp>16.0</ns3:atemp>
          </ns3:TrackPointExtension>
        </extensions>
      </trkpt>
      <trkpt lat="42.50873568467795848846435546875" lon="20.00992306508123874664306640625">
        <ele>1975.4000244140625</ele>
        <time>2026-06-19T09:14:34.000Z</time>
        <extensions>
          <ns3:TrackPointExtension>
            <ns3:atemp>16.0</ns3:atemp>
          </ns3:TrackPointExtension>
        </extensions>
      </trkpt>
      <trkpt lat="42.50881321728229522705078125" lon="20.00991987995803356170654296875">
        <ele>1973.5999755859375</ele>
        <time>2026-06-19T09:14:35.000Z</time>
        <extensions>
          <ns3:TrackPointExtension>
            <ns3:atemp>16.0</ns3:atemp>
          </ns3:TrackPointExtension>
        </extensions>
      </trkpt>
      <trkpt lat="42.50888722948729991912841796875" lon="20.0099218077957630157470703125">
        <ele>1972.5999755859375</ele>
        <time>2026-06-19T09:14:36.000Z</time>
        <extensions>
          <ns3:TrackPointExtension>
            <ns3:atemp>16.0</ns3:atemp>
          </ns3:TrackPointExtension>
        </extensions>
      </trkpt>
      <trkpt lat="42.5089578889310359954833984375" lon="20.00992910005152225494384765625">
        <ele>1971.4000244140625</ele>
        <time>2026-06-19T09:14:37.000Z</time>
        <extensions>
          <ns3:TrackPointExtension>
            <ns3:atemp>16.0</ns3:atemp>
          </ns3:TrackPointExtension>
        </extensions>
      </trkpt>
      <trkpt lat="42.5090177357196807861328125" lon="20.00994645059108734130859375">
        <ele>1970.5999755859375</ele>
        <time>2026-06-19T09:14:38.000Z</time>
        <extensions>
          <ns3:TrackPointExtension>
            <ns3:atemp>16.0</ns3:atemp>
          </ns3:TrackPointExtension>
        </extensions>
      </trkpt>
      <trkpt lat="42.5090705417096614837646484375" lon="20.0099694170057773590087890625">
        <ele>1969.800048828125</ele>
        <time>2026-06-19T09:14:39.000Z</time>
        <extensions>
          <ns3:TrackPointExtension>
            <ns3:atemp>16.0</ns3:atemp>
          </ns3:TrackPointExtension>
        </extensions>
      </trkpt>
      <trkpt lat="42.5091196596622467041015625" lon="20.00997452996671199798583984375">
        <ele>1969</ele>
        <time>2026-06-19T09:14:40.000Z</time>
        <extensions>
          <ns3:TrackPointExtension>
            <ns3:atemp>16.0</ns3:atemp>
          </ns3:TrackPointExtension>
        </extensions>
      </trkpt>
      <trkpt lat="42.50915645621716976165771484375" lon="20.00994971953332424163818359375">
        <ele>1968.4000244140625</ele>
        <time>2026-06-19T09:14:41.000Z</time>
        <extensions>
          <ns3:TrackPointExtension>
            <ns3:atemp>16.0</ns3:atemp>
          </ns3:TrackPointExtension>
        </extensions>
      </trkpt>
      <trkpt lat="42.50917841680347919464111328125" lon="20.00991116277873516082763671875">
        <ele>1968</ele>
        <time>2026-06-19T09:14:42.000Z</time>
        <extensions>
          <ns3:TrackPointExtension>
            <ns3:atemp>16.0</ns3:atemp>
          </ns3:TrackPointExtension>
        </extensions>
      </trkpt>
      <trkpt lat="42.50918738543987274169921875" lon="20.0098624639213085174560546875">
        <ele>1967.800048828125</ele>
        <time>2026-06-19T09:14:43.000Z</time>
        <extensions>
          <ns3:TrackPointExtension>
            <ns3:atemp>16.0</ns3:atemp>
          </ns3:TrackPointExtension>
        </extensions>
      </trkpt>
      <trkpt lat="42.50918470323085784912109375" lon="20.0098141841590404510498046875">
        <ele>1967.4000244140625</ele>
        <time>2026-06-19T09:14:44.000Z</time>
        <extensions>
          <ns3:TrackPointExtension>
            <ns3:atemp>16.0</ns3:atemp>
          </ns3:TrackPointExtension>
        </extensions>
      </trkpt>
      <trkpt lat="42.50916634686291217803955078125" lon="20.00977269373834133148193359375">
        <ele>1967.199951171875</ele>
        <time>2026-06-19T09:14:45.000Z</time>
        <extensions>
          <ns3:TrackPointExtension>
            <ns3:atemp>16.0</ns3:atemp>
          </ns3:TrackPointExtension>
        </extensions>
      </trkpt>
      <trkpt lat="42.5091466493904590606689453125" lon="20.0097260065376758575439453125">
        <ele>1966.800048828125</ele>
        <time>2026-06-19T09:14:46.000Z</time>
        <extensions>
          <ns3:TrackPointExtension>
            <ns3:atemp>16.0</ns3:atemp>
          </ns3:TrackPointExtension>
        </extensions>
      </trkpt>
      <trkpt lat="42.50914036296308040618896484375" lon="20.009673200547695159912109375">
        <ele>1966.4000244140625</ele>
        <time>2026-06-19T09:14:47.000Z</time>
        <extensions>
          <ns3:TrackPointExtension>
            <ns3:atemp>16.0</ns3:atemp>
          </ns3:TrackPointExtension>
        </extensions>
      </trkpt>
      <trkpt lat="42.50915125943720340728759765625" lon="20.0096257589757442474365234375">
        <ele>1965.800048828125</ele>
        <time>2026-06-19T09:14:48.000Z</time>
        <extensions>
          <ns3:TrackPointExtension>
            <ns3:atemp>16.0</ns3:atemp>
          </ns3:TrackPointExtension>
        </extensions>
      </trkpt>
      <trkpt lat="42.50917070545256137847900390625" lon="20.009584017097949981689453125">
        <ele>1965.199951171875</ele>
        <time>2026-06-19T09:14:49.000Z</time>
        <extensions>
          <ns3:TrackPointExtension>
            <ns3:atemp>16.0</ns3:atemp>
          </ns3:TrackPointExtension>
        </extensions>
      </trkpt>
      <trkpt lat="42.50920523889362812042236328125" lon="20.00956582836806774139404296875">
        <ele>1964.4000244140625</ele>
        <time>2026-06-19T09:14:50.000Z</time>
        <extensions>
          <ns3:TrackPointExtension>
            <ns3:atemp>16.0</ns3:atemp>
          </ns3:TrackPointExtension>
        </extensions>
      </trkpt>
      <trkpt lat="42.50925586558878421783447265625" lon="20.0095607154071331024169921875">
        <ele>1963.5999755859375</ele>
        <time>2026-06-19T09:14:51.000Z</time>
        <extensions>
          <ns3:TrackPointExtension>
            <ns3:atemp>16.0</ns3:atemp>
          </ns3:TrackPointExtension>
        </extensions>
      </trkpt>
      <trkpt lat="42.5093012116849422454833984375" lon="20.009571947157382965087890625">
        <ele>1962.5999755859375</ele>
        <time>2026-06-19T09:14:52.000Z</time>
        <extensions>
          <ns3:TrackPointExtension>
            <ns3:atemp>16.0</ns3:atemp>
          </ns3:TrackPointExtension>
        </extensions>
      </trkpt>
      <trkpt lat="42.50934831798076629638671875" lon="20.009598769247531890869140625">
        <ele>1961.5999755859375</ele>
        <time>2026-06-19T09:14:53.000Z</time>
        <extensions>
          <ns3:TrackPointExtension>
            <ns3:atemp>16.0</ns3:atemp>
          </ns3:TrackPointExtension>
        </extensions>
      </trkpt>
      <trkpt lat="42.50939450226724147796630859375" lon="20.00962994992733001708984375">
        <ele>1960.5999755859375</ele>
        <time>2026-06-19T09:14:54.000Z</time>
        <extensions>
          <ns3:TrackPointExtension>
            <ns3:atemp>16.0</ns3:atemp>
          </ns3:TrackPointExtension>
        </extensions>
      </trkpt>
      <trkpt lat="42.5094442069530487060546875" lon="20.00966222025454044342041015625">
        <ele>1959.4000244140625</ele>
        <time>2026-06-19T09:14:55.000Z</time>
        <extensions>
          <ns3:TrackPointExtension>
            <ns3:atemp>16.0</ns3:atemp>
          </ns3:TrackPointExtension>
        </extensions>
      </trkpt>
      <trkpt lat="42.5094939954578876495361328125" lon="20.00969390384852886199951171875">
        <ele>1958.4000244140625</ele>
        <time>2026-06-19T09:14:56.000Z</time>
        <extensions>
          <ns3:TrackPointExtension>
            <ns3:atemp>16.0</ns3:atemp>
          </ns3:TrackPointExtension>
        </extensions>
      </trkpt>
      <trkpt lat="42.50954839400947093963623046875" lon="20.00972843728959560394287109375">
        <ele>1957.4000244140625</ele>
        <time>2026-06-19T09:14:57.000Z</time>
        <extensions>
          <ns3:TrackPointExtension>
            <ns3:atemp>16.0</ns3:atemp>
          </ns3:TrackPointExtension>
        </extensions>
      </trkpt>
      <trkpt lat="42.50961142592132091522216796875" lon="20.0097675807774066925048828125">
        <ele>1956.199951171875</ele>
        <time>2026-06-19T09:14:58.000Z</time>
        <extensions>
          <ns3:TrackPointExtension>
            <ns3:atemp>16.0</ns3:atemp>
          </ns3:TrackPointExtension>
        </extensions>
      </trkpt>
      <trkpt lat="42.509674541652202606201171875" lon="20.009806640446186065673828125">
        <ele>1955</ele>
        <time>2026-06-19T09:14:59.000Z</time>
        <extensions>
          <ns3:TrackPointExtension>
            <ns3:atemp>16.0</ns3:atemp>
          </ns3:TrackPointExtension>
        </extensions>
      </trkpt>
      <trkpt lat="42.50973547808825969696044921875" lon="20.009837485849857330322265625">
        <ele>1953.800048828125</ele>
        <time>2026-06-19T09:15:00.000Z</time>
        <extensions>
          <ns3:TrackPointExtension>
            <ns3:atemp>16.0</ns3:atemp>
          </ns3:TrackPointExtension>
        </extensions>
      </trkpt>
      <trkpt lat="42.5097987614572048187255859375" lon="20.009873695671558380126953125">
        <ele>1952.4000244140625</ele>
        <time>2026-06-19T09:15:01.000Z</time>
        <extensions>
          <ns3:TrackPointExtension>
            <ns3:atemp>16.0</ns3:atemp>
          </ns3:TrackPointExtension>
        </extensions>
      </trkpt>
      <trkpt lat="42.5098624639213085174560546875" lon="20.00990998931229114532470703125">
        <ele>1951.199951171875</ele>
        <time>2026-06-19T09:15:02.000Z</time>
        <extensions>
          <ns3:TrackPointExtension>
            <ns3:atemp>16.0</ns3:atemp>
          </ns3:TrackPointExtension>
        </extensions>
      </trkpt>
      <trkpt lat="42.50992826186120510101318359375" lon="20.00993848778307437896728515625">
        <ele>1950.199951171875</ele>
        <time>2026-06-19T09:15:03.000Z</time>
        <extensions>
          <ns3:TrackPointExtension>
            <ns3:atemp>16.0</ns3:atemp>
          </ns3:TrackPointExtension>
        </extensions>
      </trkpt>
      <trkpt lat="42.5099913775920867919921875" lon="20.00996128655970096588134765625">
        <ele>1949.199951171875</ele>
        <time>2026-06-19T09:15:04.000Z</time>
        <extensions>
          <ns3:TrackPointExtension>
            <ns3:atemp>16.0</ns3:atemp>
          </ns3:TrackPointExtension>
        </extensions>
      </trkpt>
      <trkpt lat="42.51005851663649082183837890625" lon="20.00997805036604404449462890625">
        <ele>1948.4000244140625</ele>
        <time>2026-06-19T09:15:05.000Z</time>
        <extensions>
          <ns3:TrackPointExtension>
            <ns3:atemp>16.0</ns3:atemp>
          </ns3:TrackPointExtension>
        </extensions>
      </trkpt>
      <trkpt lat="42.51012691296637058258056640625" lon="20.00998458825051784515380859375">
        <ele>1947.5999755859375</ele>
        <time>2026-06-19T09:15:06.000Z</time>
        <extensions>
          <ns3:TrackPointExtension>
            <ns3:atemp>16.0</ns3:atemp>
          </ns3:TrackPointExtension>
        </extensions>
      </trkpt>
      <trkpt lat="42.51019698567688465118408203125" lon="20.0099798105657100677490234375">
        <ele>1947</ele>
        <time>2026-06-19T09:15:07.000Z</time>
        <extensions>
          <ns3:TrackPointExtension>
            <ns3:atemp>16.0</ns3:atemp>
          </ns3:TrackPointExtension>
        </extensions>
      </trkpt>
      <trkpt lat="42.51025750301778316497802734375" lon="20.009962879121303558349609375">
        <ele>1946</ele>
        <time>2026-06-19T09:15:08.000Z</time>
        <extensions>
          <ns3:TrackPointExtension>
            <ns3:atemp>16.0</ns3:atemp>
          </ns3:TrackPointExtension>
        </extensions>
      </trkpt>
      <trkpt lat="42.51031793653964996337890625" lon="20.0099372304975986480712890625">
        <ele>1945.199951171875</ele>
        <time>2026-06-19T09:15:09.000Z</time>
        <extensions>
          <ns3:TrackPointExtension>
            <ns3:atemp>16.0</ns3:atemp>
          </ns3:TrackPointExtension>
        </extensions>
      </trkpt>
      <trkpt lat="42.51037803478538990020751953125" lon="20.009909570217132568359375">
        <ele>1944.4000244140625</ele>
        <time>2026-06-19T09:15:10.000Z</time>
        <extensions>
          <ns3:TrackPointExtension>
            <ns3:atemp>16.0</ns3:atemp>
          </ns3:TrackPointExtension>
        </extensions>
      </trkpt>
      <trkpt lat="42.5104351155459880828857421875" lon="20.00987964682281017303466796875">
        <ele>1943.5999755859375</ele>
        <time>2026-06-19T09:15:11.000Z</time>
        <extensions>
          <ns3:TrackPointExtension>
            <ns3:atemp>16.0</ns3:atemp>
          </ns3:TrackPointExtension>
        </extensions>
      </trkpt>
      <trkpt lat="42.51048901118338108062744140625" lon="20.00985701568424701690673828125">
        <ele>1943</ele>
        <time>2026-06-19T09:15:12.000Z</time>
        <extensions>
          <ns3:TrackPointExtension>
            <ns3:atemp>16.0</ns3:atemp>
          </ns3:TrackPointExtension>
        </extensions>
      </trkpt>
      <trkpt lat="42.51054215244948863983154296875" lon="20.0098467059433460235595703125">
        <ele>1942</ele>
        <time>2026-06-19T09:15:13.000Z</time>
        <extensions>
          <ns3:TrackPointExtension>
            <ns3:atemp>16.0</ns3:atemp>
          </ns3:TrackPointExtension>
        </extensions>
      </trkpt>
      <trkpt lat="42.51059629954397678375244140625" lon="20.009844861924648284912109375">
        <ele>1941</ele>
        <time>2026-06-19T09:15:14.000Z</time>
        <extensions>
          <ns3:TrackPointExtension>
            <ns3:atemp>16.0</ns3:atemp>
          </ns3:TrackPointExtension>
        </extensions>
      </trkpt>
      <trkpt lat="42.51064784824848175048828125" lon="20.0098411738872528076171875">
        <ele>1939.800048828125</ele>
        <time>2026-06-19T09:15:15.000Z</time>
        <extensions>
          <ns3:TrackPointExtension>
            <ns3:atemp>16.0</ns3:atemp>
          </ns3:TrackPointExtension>
        </extensions>
      </trkpt>
      <trkpt lat="42.51069872640073299407958984375" lon="20.0098343007266521453857421875">
        <ele>1938.800048828125</ele>
        <time>2026-06-19T09:15:16.000Z</time>
        <extensions>
          <ns3:TrackPointExtension>
            <ns3:atemp>16.0</ns3:atemp>
          </ns3:TrackPointExtension>
        </extensions>
      </trkpt>
      <trkpt lat="42.51075170002877712249755859375" lon="20.00982214696705341339111328125">
        <ele>1937.800048828125</ele>
        <time>2026-06-19T09:15:17.000Z</time>
        <extensions>
          <ns3:TrackPointExtension>
            <ns3:atemp>16.0</ns3:atemp>
          </ns3:TrackPointExtension>
        </extensions>
      </trkpt>
      <trkpt lat="42.51080836169421672821044921875" lon="20.0098111666738986968994140625">
        <ele>1936.800048828125</ele>
        <time>2026-06-19T09:15:18.000Z</time>
        <extensions>
          <ns3:TrackPointExtension>
            <ns3:atemp>16.0</ns3:atemp>
          </ns3:TrackPointExtension>
        </extensions>
      </trkpt>
      <trkpt lat="42.5108746625483036041259765625" lon="20.00979633070528507232666015625">
        <ele>1935.5999755859375</ele>
        <time>2026-06-19T09:15:19.000Z</time>
        <extensions>
          <ns3:TrackPointExtension>
            <ns3:atemp>16.0</ns3:atemp>
          </ns3:TrackPointExtension>
        </extensions>
      </trkpt>
      <trkpt lat="42.510945908725261688232421875" lon="20.00975467264652252197265625">
        <ele>1934.199951171875</ele>
        <time>2026-06-19T09:15:20.000Z</time>
        <extensions>
          <ns3:TrackPointExtension>
            <ns3:atemp>16.0</ns3:atemp>
          </ns3:TrackPointExtension>
        </extensions>
      </trkpt>
      <trkpt lat="42.51101103611290454864501953125" lon="20.0096884556114673614501953125">
        <ele>1932.5999755859375</ele>
        <time>2026-06-19T09:15:21.000Z</time>
        <extensions>
          <ns3:TrackPointExtension>
            <ns3:atemp>16.0</ns3:atemp>
          </ns3:TrackPointExtension>
        </extensions>
      </trkpt>
      <trkpt lat="42.5110805220901966094970703125" lon="20.00961880199611186981201171875">
        <ele>1931.199951171875</ele>
        <time>2026-06-19T09:15:22.000Z</time>
        <extensions>
          <ns3:TrackPointExtension>
            <ns3:atemp>16.0</ns3:atemp>
          </ns3:TrackPointExtension>
        </extensions>
      </trkpt>
      <trkpt lat="42.511161155998706817626953125" lon="20.00957965850830078125">
        <ele>1930</ele>
        <time>2026-06-19T09:15:23.000Z</time>
        <extensions>
          <ns3:TrackPointExtension>
            <ns3:atemp>16.0</ns3:atemp>
          </ns3:TrackPointExtension>
        </extensions>
      </trkpt>
      <trkpt lat="42.5112359225749969482421875" lon="20.00956482253968715667724609375">
        <ele>1929</ele>
        <time>2026-06-19T09:15:24.000Z</time>
        <extensions>
          <ns3:TrackPointExtension>
            <ns3:atemp>16.0</ns3:atemp>
          </ns3:TrackPointExtension>
        </extensions>
      </trkpt>
      <trkpt lat="42.511295937001705169677734375" lon="20.00954948365688323974609375">
        <ele>1928.4000244140625</ele>
        <time>2026-06-19T09:15:25.000Z</time>
        <extensions>
          <ns3:TrackPointExtension>
            <ns3:atemp>16.0</ns3:atemp>
          </ns3:TrackPointExtension>
        </extensions>
      </trkpt>
      <trkpt lat="42.51134631223976612091064453125" lon="20.00950547866523265838623046875">
        <ele>1927.800048828125</ele>
        <time>2026-06-19T09:15:26.000Z</time>
        <extensions>
          <ns3:TrackPointExtension>
            <ns3:atemp>16.0</ns3:atemp>
          </ns3:TrackPointExtension>
        </extensions>
      </trkpt>
      <trkpt lat="42.5113889761269092559814453125" lon="20.00946289859712123870849609375">
        <ele>1927.4000244140625</ele>
        <time>2026-06-19T09:15:27.000Z</time>
        <extensions>
          <ns3:TrackPointExtension>
            <ns3:atemp>16.0</ns3:atemp>
          </ns3:TrackPointExtension>
        </extensions>
      </trkpt>
      <trkpt lat="42.51142828725278377532958984375" lon="20.00942316837608814239501953125">
        <ele>1927.4000244140625</ele>
        <time>2026-06-19T09:15:28.000Z</time>
        <extensions>
          <ns3:TrackPointExtension>
            <ns3:atemp>16.0</ns3:atemp>
          </ns3:TrackPointExtension>
        </extensions>
      </trkpt>
      <trkpt lat="42.51144790090620517730712890625" lon="20.0093699432909488677978515625">
        <ele>1927.199951171875</ele>
        <time>2026-06-19T09:15:29.000Z</time>
        <extensions>
          <ns3:TrackPointExtension>
            <ns3:atemp>16.0</ns3:atemp>
          </ns3:TrackPointExtension>
        </extensions>
      </trkpt>
      <trkpt lat="42.51146734692156314849853515625" lon="20.00931621529161930084228515625">
        <ele>1927.199951171875</ele>
        <time>2026-06-19T09:15:30.000Z</time>
        <extensions>
          <ns3:TrackPointExtension>
            <ns3:atemp>16.0</ns3:atemp>
          </ns3:TrackPointExtension>
        </extensions>
      </trkpt>
      <trkpt lat="42.5114905647933483123779296875" lon="20.00927187502384185791015625">
        <ele>1927.199951171875</ele>
        <time>2026-06-19T09:15:31.000Z</time>
        <extensions>
          <ns3:TrackPointExtension>
            <ns3:atemp>16.0</ns3:atemp>
          </ns3:TrackPointExtension>
        </extensions>
      </trkpt>
      <trkpt lat="42.51151411794126033782958984375" lon="20.009231306612491607666015625">
        <ele>1927.199951171875</ele>
        <time>2026-06-19T09:15:32.000Z</time>
        <extensions>
          <ns3:TrackPointExtension>
            <ns3:atemp>16.0</ns3:atemp>
          </ns3:TrackPointExtension>
        </extensions>
      </trkpt>
      <trkpt lat="42.51153809018433094024658203125" lon="20.00919878482818603515625">
        <ele>1927.199951171875</ele>
        <time>2026-06-19T09:15:33.000Z</time>
        <extensions>
          <ns3:TrackPointExtension>
            <ns3:atemp>16.0</ns3:atemp>
          </ns3:TrackPointExtension>
        </extensions>
      </trkpt>
      <trkpt lat="42.51156105659902095794677734375" lon="20.009170286357402801513671875">
        <ele>1927.199951171875</ele>
        <time>2026-06-19T09:15:34.000Z</time>
        <extensions>
          <ns3:TrackPointExtension>
            <ns3:atemp>16.0</ns3:atemp>
          </ns3:TrackPointExtension>
        </extensions>
      </trkpt>
      <trkpt lat="42.51158385537564754486083984375" lon="20.00913986004889011383056640625">
        <ele>1927.199951171875</ele>
        <time>2026-06-19T09:15:35.000Z</time>
        <extensions>
          <ns3:TrackPointExtension>
            <ns3:atemp>16.0</ns3:atemp>
          </ns3:TrackPointExtension>
        </extensions>
      </trkpt>
      <trkpt lat="42.5116075761616230010986328125" lon="20.00911303795874118804931640625">
        <ele>1927.199951171875</ele>
        <time>2026-06-19T09:15:36.000Z</time>
        <extensions>
          <ns3:TrackPointExtension>
            <ns3:atemp>16.0</ns3:atemp>
          </ns3:TrackPointExtension>
        </extensions>
      </trkpt>
      <trkpt lat="42.5116302073001861572265625" lon="20.00908504240214824676513671875">
        <ele>1927.199951171875</ele>
        <time>2026-06-19T09:15:37.000Z</time>
        <extensions>
          <ns3:TrackPointExtension>
            <ns3:atemp>16.0</ns3:atemp>
          </ns3:TrackPointExtension>
        </extensions>
      </trkpt>
      <trkpt lat="42.5116598792374134063720703125" lon="20.00906408764421939849853515625">
        <ele>1927.199951171875</ele>
        <time>2026-06-19T09:15:38.000Z</time>
        <extensions>
          <ns3:TrackPointExtension>
            <ns3:atemp>16.0</ns3:atemp>
          </ns3:TrackPointExtension>
        </extensions>
      </trkpt>
      <trkpt lat="42.511688880622386932373046875" lon="20.00904195941984653472900390625">
        <ele>1927.199951171875</ele>
        <time>2026-06-19T09:15:39.000Z</time>
        <extensions>
          <ns3:TrackPointExtension>
            <ns3:atemp>16.0</ns3:atemp>
          </ns3:TrackPointExtension>
        </extensions>
      </trkpt>
      <trkpt lat="42.511716373264789581298828125" lon="20.00901597552001476287841796875">
        <ele>1927.199951171875</ele>
        <time>2026-06-19T09:15:40.000Z</time>
        <extensions>
          <ns3:TrackPointExtension>
            <ns3:atemp>16.0</ns3:atemp>
          </ns3:TrackPointExtension>
        </extensions>
      </trkpt>
      <trkpt lat="42.51174244098365306854248046875" lon="20.008986555039882659912109375">
        <ele>1927.199951171875</ele>
        <time>2026-06-19T09:15:41.000Z</time>
        <extensions>
          <ns3:TrackPointExtension>
            <ns3:atemp>16.0</ns3:atemp>
          </ns3:TrackPointExtension>
        </extensions>
      </trkpt>
      <trkpt lat="42.5117711909115314483642578125" lon="20.0089595653116703033447265625">
        <ele>1927.4000244140625</ele>
        <time>2026-06-19T09:15:42.000Z</time>
        <extensions>
          <ns3:TrackPointExtension>
            <ns3:atemp>16.0</ns3:atemp>
          </ns3:TrackPointExtension>
        </extensions>
      </trkpt>
      <trkpt lat="42.51179759390652179718017578125" lon="20.0089367665350437164306640625">
        <ele>1927.4000244140625</ele>
        <time>2026-06-19T09:15:43.000Z</time>
        <extensions>
          <ns3:TrackPointExtension>
            <ns3:atemp>16.0</ns3:atemp>
          </ns3:TrackPointExtension>
        </extensions>
      </trkpt>
      <trkpt lat="42.51182391308248043060302734375" lon="20.0089131295680999755859375">
        <ele>1927.5999755859375</ele>
        <time>2026-06-19T09:15:44.000Z</time>
        <extensions>
          <ns3:TrackPointExtension>
            <ns3:atemp>16.0</ns3:atemp>
          </ns3:TrackPointExtension>
        </extensions>
      </trkpt>
      <trkpt lat="42.5118489749729633331298828125" lon="20.0088881514966487884521484375">
        <ele>1927.800048828125</ele>
        <time>2026-06-19T09:15:45.000Z</time>
        <extensions>
          <ns3:TrackPointExtension>
            <ns3:atemp>16.0</ns3:atemp>
          </ns3:TrackPointExtension>
        </extensions>
      </trkpt>
      <trkpt lat="42.51187487505376338958740234375" lon="20.0088573060929775238037109375">
        <ele>1928</ele>
        <time>2026-06-19T09:15:46.000Z</time>
        <extensions>
          <ns3:TrackPointExtension>
            <ns3:atemp>16.0</ns3:atemp>
          </ns3:TrackPointExtension>
        </extensions>
      </trkpt>
      <trkpt lat="42.51190471462905406951904296875" lon="20.00883090309798717498779296875">
        <ele>1928.199951171875</ele>
        <time>2026-06-19T09:15:47.000Z</time>
        <extensions>
          <ns3:TrackPointExtension>
            <ns3:atemp>16.0</ns3:atemp>
          </ns3:TrackPointExtension>
        </extensions>
      </trkpt>
      <trkpt lat="42.51193589530885219573974609375" lon="20.00881112180650234222412109375">
        <ele>1928.199951171875</ele>
        <time>2026-06-19T09:15:48.000Z</time>
        <extensions>
          <ns3:TrackPointExtension>
            <ns3:atemp>16.0</ns3:atemp>
          </ns3:TrackPointExtension>
        </extensions>
      </trkpt>
      <trkpt lat="42.511971183121204376220703125" lon="20.00879536382853984832763671875">
        <ele>1928.4000244140625</ele>
        <time>2026-06-19T09:15:49.000Z</time>
        <extensions>
          <ns3:TrackPointExtension>
            <ns3:atemp>16.0</ns3:atemp>
          </ns3:TrackPointExtension>
        </extensions>
      </trkpt>
      <trkpt lat="42.5120032019913196563720703125" lon="20.00878513790667057037353515625">
        <ele>1928.4000244140625</ele>
        <time>2026-06-19T09:15:50.000Z</time>
        <extensions>
          <ns3:TrackPointExtension>
            <ns3:atemp>16.0</ns3:atemp>
          </ns3:TrackPointExtension>
        </extensions>
      </trkpt>
      <trkpt lat="42.512033544480800628662109375" lon="20.0087758339941501617431640625">
        <ele>1928.5999755859375</ele>
        <time>2026-06-19T09:15:51.000Z</time>
        <extensions>
          <ns3:TrackPointExtension>
            <ns3:atemp>16.0</ns3:atemp>
          </ns3:TrackPointExtension>
        </extensions>
      </trkpt>
      <trkpt lat="42.51205927692353725433349609375" lon="20.00876904465258121490478515625">
        <ele>1928.5999755859375</ele>
        <time>2026-06-19T09:15:52.000Z</time>
        <extensions>
          <ns3:TrackPointExtension>
            <ns3:atemp>16.0</ns3:atemp>
          </ns3:TrackPointExtension>
        </extensions>
      </trkpt>
      <trkpt lat="42.5120846740901470184326171875" lon="20.00875999219715595245361328125">
        <ele>1928.800048828125</ele>
        <time>2026-06-19T09:15:53.000Z</time>
        <extensions>
          <ns3:TrackPointExtension>
            <ns3:atemp>16.0</ns3:atemp>
          </ns3:TrackPointExtension>
        </extensions>
      </trkpt>
      <trkpt lat="42.5121091492474079132080078125" lon="20.00875244848430156707763671875">
        <ele>1928.800048828125</ele>
        <time>2026-06-19T09:15:54.000Z</time>
        <extensions>
          <ns3:TrackPointExtension>
            <ns3:atemp>16.0</ns3:atemp>
          </ns3:TrackPointExtension>
        </extensions>
      </trkpt>
      <trkpt lat="42.51213437877595424652099609375" lon="20.0087453238666057586669921875">
        <ele>1928.800048828125</ele>
        <time>2026-06-19T09:15:55.000Z</time>
        <extensions>
          <ns3:TrackPointExtension>
            <ns3:atemp>16.0</ns3:atemp>
          </ns3:TrackPointExtension>
        </extensions>
      </trkpt>
      <trkpt lat="42.51216388307511806488037109375" lon="20.00873384065926074981689453125">
        <ele>1929</ele>
        <time>2026-06-19T09:15:56.000Z</time>
        <extensions>
          <ns3:TrackPointExtension>
            <ns3:atemp>16.0</ns3:atemp>
          </ns3:TrackPointExtension>
        </extensions>
      </trkpt>
      <trkpt lat="42.51219087280333042144775390625" lon="20.00872679986059665679931640625">
        <ele>1929.199951171875</ele>
        <time>2026-06-19T09:15:57.000Z</time>
        <extensions>
          <ns3:TrackPointExtension>
            <ns3:atemp>16.0</ns3:atemp>
          </ns3:TrackPointExtension>
        </extensions>
      </trkpt>
      <trkpt lat="42.51221828162670135498046875" lon="20.00871959142386913299560546875">
        <ele>1929.199951171875</ele>
        <time>2026-06-19T09:15:58.000Z</time>
        <extensions>
          <ns3:TrackPointExtension>
            <ns3:atemp>16.0</ns3:atemp>
          </ns3:TrackPointExtension>
        </extensions>
      </trkpt>
      <trkpt lat="42.51224854029715061187744140625" lon="20.008711628615856170654296875">
        <ele>1929.199951171875</ele>
        <time>2026-06-19T09:15:59.000Z</time>
        <extensions>
          <ns3:TrackPointExtension>
            <ns3:atemp>16.0</ns3:atemp>
          </ns3:TrackPointExtension>
        </extensions>
      </trkpt>
      <trkpt lat="42.51227863132953643798828125" lon="20.00869662500917911529541015625">
        <ele>1929.4000244140625</ele>
        <time>2026-06-19T09:16:00.000Z</time>
        <extensions>
          <ns3:TrackPointExtension>
            <ns3:atemp>16.0</ns3:atemp>
          </ns3:TrackPointExtension>
        </extensions>
      </trkpt>
      <trkpt lat="42.51230813562870025634765625" lon="20.00867642462253570556640625">
        <ele>1929.4000244140625</ele>
        <time>2026-06-19T09:16:01.000Z</time>
        <extensions>
          <ns3:TrackPointExtension>
            <ns3:atemp>16.0</ns3:atemp>
          </ns3:TrackPointExtension>
        </extensions>
      </trkpt>
      <trkpt lat="42.51233571209013462066650390625" lon="20.0086551345884799957275390625">
        <ele>1929.4000244140625</ele>
        <time>2026-06-19T09:16:02.000Z</time>
        <extensions>
          <ns3:TrackPointExtension>
            <ns3:atemp>16.0</ns3:atemp>
          </ns3:TrackPointExtension>
        </extensions>
      </trkpt>
      <trkpt lat="42.51236236654222011566162109375" lon="20.00863124616444110870361328125">
        <ele>1929.5999755859375</ele>
        <time>2026-06-19T09:16:03.000Z</time>
        <extensions>
          <ns3:TrackPointExtension>
            <ns3:atemp>16.0</ns3:atemp>
          </ns3:TrackPointExtension>
        </extensions>
      </trkpt>
      <trkpt lat="42.5123907811939716339111328125" lon="20.00860509462654590606689453125">
        <ele>1929.800048828125</ele>
        <time>2026-06-19T09:16:04.000Z</time>
        <extensions>
          <ns3:TrackPointExtension>
            <ns3:atemp>16.0</ns3:atemp>
          </ns3:TrackPointExtension>
        </extensions>
      </trkpt>
      <trkpt lat="42.51241181977093219757080078125" lon="20.00857726670801639556884765625">
        <ele>1930</ele>
        <time>2026-06-19T09:16:05.000Z</time>
        <extensions>
          <ns3:TrackPointExtension>
            <ns3:atemp>16.0</ns3:atemp>
          </ns3:TrackPointExtension>
        </extensions>
      </trkpt>
      <trkpt lat="42.51243411563336849212646484375" lon="20.0085471756756305694580078125">
        <ele>1930.199951171875</ele>
        <time>2026-06-19T09:16:06.000Z</time>
        <extensions>
          <ns3:TrackPointExtension>
            <ns3:atemp>16.0</ns3:atemp>
          </ns3:TrackPointExtension>
        </extensions>
      </trkpt>
      <trkpt lat="42.51246345229446887969970703125" lon="20.00852613709867000579833984375">
        <ele>1930.4000244140625</ele>
        <time>2026-06-19T09:16:07.000Z</time>
        <extensions>
          <ns3:TrackPointExtension>
            <ns3:atemp>16.0</ns3:atemp>
          </ns3:TrackPointExtension>
        </extensions>
      </trkpt>
      <trkpt lat="42.5124903582036495208740234375" lon="20.00850685872137546539306640625">
        <ele>1930.5999755859375</ele>
        <time>2026-06-19T09:16:08.000Z</time>
        <extensions>
          <ns3:TrackPointExtension>
            <ns3:atemp>16.0</ns3:atemp>
          </ns3:TrackPointExtension>
        </extensions>
      </trkpt>
      <trkpt lat="42.512515000998973846435546875" lon="20.00848540104925632476806640625">
        <ele>1930.800048828125</ele>
        <time>2026-06-19T09:16:09.000Z</time>
        <extensions>
          <ns3:TrackPointExtension>
            <ns3:atemp>16.0</ns3:atemp>
          </ns3:TrackPointExtension>
        </extensions>
      </trkpt>
      <trkpt lat="42.51253905706107616424560546875" lon="20.00845824368298053741455078125">
        <ele>1930.800048828125</ele>
        <time>2026-06-19T09:16:10.000Z</time>
        <extensions>
          <ns3:TrackPointExtension>
            <ns3:atemp>16.0</ns3:atemp>
          </ns3:TrackPointExtension>
        </extensions>
      </trkpt>
      <trkpt lat="42.51256152056157588958740234375" lon="20.008426643908023834228515625">
        <ele>1930.800048828125</ele>
        <time>2026-06-19T09:16:11.000Z</time>
        <extensions>
          <ns3:TrackPointExtension>
            <ns3:atemp>16.0</ns3:atemp>
          </ns3:TrackPointExtension>
        </extensions>
      </trkpt>
      <trkpt lat="42.5125895999372005462646484375" lon="20.00839537940919399261474609375">
        <ele>1930.800048828125</ele>
        <time>2026-06-19T09:16:12.000Z</time>
        <extensions>
          <ns3:TrackPointExtension>
            <ns3:atemp>16.0</ns3:atemp>
          </ns3:TrackPointExtension>
        </extensions>
      </trkpt>
      <trkpt lat="42.5126199424266815185546875" lon="20.0083771906793117523193359375">
        <ele>1930.5999755859375</ele>
        <time>2026-06-19T09:16:13.000Z</time>
        <extensions>
          <ns3:TrackPointExtension>
            <ns3:atemp>16.0</ns3:atemp>
          </ns3:TrackPointExtension>
        </extensions>
      </trkpt>
      <trkpt lat="42.51264584250748157501220703125" lon="20.00837207771837711334228515625">
        <ele>1930.5999755859375</ele>
        <time>2026-06-19T09:16:14.000Z</time>
        <extensions>
          <ns3:TrackPointExtension>
            <ns3:atemp>16.0</ns3:atemp>
          </ns3:TrackPointExtension>
        </extensions>
      </trkpt>
      <trkpt lat="42.51267082057893276214599609375" lon="20.00836855731904506683349609375">
        <ele>1930.5999755859375</ele>
        <time>2026-06-19T09:16:15.000Z</time>
        <extensions>
          <ns3:TrackPointExtension>
            <ns3:atemp>16.0</ns3:atemp>
          </ns3:TrackPointExtension>
        </extensions>
      </trkpt>
      <trkpt lat="42.5126901827752590179443359375" lon="20.0083490274846553802490234375">
        <ele>1930.5999755859375</ele>
        <time>2026-06-19T09:16:16.000Z</time>
        <extensions>
          <ns3:TrackPointExtension>
            <ns3:atemp>16.0</ns3:atemp>
          </ns3:TrackPointExtension>
        </extensions>
      </trkpt>
      <trkpt lat="42.51271809451282024383544921875" lon="20.0083391368389129638671875">
        <ele>1930.5999755859375</ele>
        <time>2026-06-19T09:16:17.000Z</time>
        <extensions>
          <ns3:TrackPointExtension>
            <ns3:atemp>16.0</ns3:atemp>
          </ns3:TrackPointExtension>
        </extensions>
      </trkpt>
      <trkpt lat="42.51274005509912967681884765625" lon="20.00832245685160160064697265625">
        <ele>1930.5999755859375</ele>
        <time>2026-06-19T09:16:18.000Z</time>
        <extensions>
          <ns3:TrackPointExtension>
            <ns3:atemp>16.0</ns3:atemp>
          </ns3:TrackPointExtension>
        </extensions>
      </trkpt>
      <trkpt lat="42.51276251859962940216064453125" lon="20.008299238979816436767578125">
        <ele>1930.5999755859375</ele>
        <time>2026-06-19T09:16:19.000Z</time>
        <extensions>
          <ns3:TrackPointExtension>
            <ns3:atemp>16.0</ns3:atemp>
          </ns3:TrackPointExtension>
        </extensions>
      </trkpt>
      <trkpt lat="42.51277945004403591156005859375" lon="20.00827585346996784210205078125">
        <ele>1930.5999755859375</ele>
        <time>2026-06-19T09:16:20.000Z</time>
        <extensions>
          <ns3:TrackPointExtension>
            <ns3:atemp>16.0</ns3:atemp>
          </ns3:TrackPointExtension>
        </extensions>
      </trkpt>
      <trkpt lat="42.512798309326171875" lon="20.00824919901788234710693359375">
        <ele>1930.5999755859375</ele>
        <time>2026-06-19T09:16:21.000Z</time>
        <extensions>
          <ns3:TrackPointExtension>
            <ns3:atemp>16.0</ns3:atemp>
          </ns3:TrackPointExtension>
        </extensions>
      </trkpt>
      <trkpt lat="42.5128246285021305084228515625" lon="20.0082387216389179229736328125">
        <ele>1930.5999755859375</ele>
        <time>2026-06-19T09:16:22.000Z</time>
        <extensions>
          <ns3:TrackPointExtension>
            <ns3:atemp>16.0</ns3:atemp>
          </ns3:TrackPointExtension>
        </extensions>
      </trkpt>
      <trkpt lat="42.51285254023969173431396484375" lon="20.0082253105938434600830078125">
        <ele>1930.5999755859375</ele>
        <time>2026-06-19T09:16:23.000Z</time>
        <extensions>
          <ns3:TrackPointExtension>
            <ns3:atemp>16.0</ns3:atemp>
          </ns3:TrackPointExtension>
        </extensions>
      </trkpt>
      <trkpt lat="42.51288187690079212188720703125" lon="20.0082098878920078277587890625">
        <ele>1930.5999755859375</ele>
        <time>2026-06-19T09:16:24.000Z</time>
        <extensions>
          <ns3:TrackPointExtension>
            <ns3:atemp>16.0</ns3:atemp>
          </ns3:TrackPointExtension>
        </extensions>
      </trkpt>
      <trkpt lat="42.51291356049478054046630859375" lon="20.0081974826753139495849609375">
        <ele>1930.5999755859375</ele>
        <time>2026-06-19T09:16:25.000Z</time>
        <extensions>
          <ns3:TrackPointExtension>
            <ns3:atemp>16.0</ns3:atemp>
          </ns3:TrackPointExtension>
        </extensions>
      </trkpt>
      <trkpt lat="42.51294692046940326690673828125" lon="20.008190609514713287353515625">
        <ele>1930.800048828125</ele>
        <time>2026-06-19T09:16:26.000Z</time>
        <extensions>
          <ns3:TrackPointExtension>
            <ns3:atemp>16.0</ns3:atemp>
          </ns3:TrackPointExtension>
        </extensions>
      </trkpt>
      <trkpt lat="42.51297659240663051605224609375" lon="20.00818231143057346343994140625">
        <ele>1930.800048828125</ele>
        <time>2026-06-19T09:16:27.000Z</time>
        <extensions>
          <ns3:TrackPointExtension>
            <ns3:atemp>16.0</ns3:atemp>
          </ns3:TrackPointExtension>
        </extensions>
      </trkpt>
      <trkpt lat="42.513004504144191741943359375" lon="20.00817216932773590087890625">
        <ele>1930.800048828125</ele>
        <time>2026-06-19T09:16:28.000Z</time>
        <extensions>
          <ns3:TrackPointExtension>
            <ns3:atemp>16.0</ns3:atemp>
          </ns3:TrackPointExtension>
        </extensions>
      </trkpt>
      <trkpt lat="42.5130330026149749755859375" lon="20.008163116872310638427734375">
        <ele>1930.800048828125</ele>
        <time>2026-06-19T09:16:29.000Z</time>
        <extensions>
          <ns3:TrackPointExtension>
            <ns3:atemp>16.0</ns3:atemp>
          </ns3:TrackPointExtension>
        </extensions>
      </trkpt>
      <trkpt lat="42.51306124962866306304931640625" lon="20.00816202722489833831787109375">
        <ele>1930.800048828125</ele>
        <time>2026-06-19T09:16:30.000Z</time>
        <extensions>
          <ns3:TrackPointExtension>
            <ns3:atemp>16.0</ns3:atemp>
          </ns3:TrackPointExtension>
        </extensions>
      </trkpt>
      <trkpt lat="42.513085640966892242431640625" lon="20.00815934501588344573974609375">
        <ele>1931</ele>
        <time>2026-06-19T09:16:31.000Z</time>
        <extensions>
          <ns3:TrackPointExtension>
            <ns3:atemp>16.0</ns3:atemp>
          </ns3:TrackPointExtension>
        </extensions>
      </trkpt>
      <trkpt lat="42.51311472617089748382568359375" lon="20.0081458501517772674560546875">
        <ele>1931</ele>
        <time>2026-06-19T09:16:32.000Z</time>
        <extensions>
          <ns3:TrackPointExtension>
            <ns3:atemp>16.0</ns3:atemp>
          </ns3:TrackPointExtension>
        </extensions>
      </trkpt>
      <trkpt lat="42.513141632080078125" lon="20.0081290863454341888427734375">
        <ele>1931</ele>
        <time>2026-06-19T09:16:33.000Z</time>
        <extensions>
          <ns3:TrackPointExtension>
            <ns3:atemp>16.0</ns3:atemp>
          </ns3:TrackPointExtension>
        </extensions>
      </trkpt>
      <trkpt lat="42.51316904090344905853271484375" lon="20.0081139989197254180908203125">
        <ele>1931</ele>
        <time>2026-06-19T09:16:34.000Z</time>
        <extensions>
          <ns3:TrackPointExtension>
            <ns3:atemp>16.0</ns3:atemp>
          </ns3:TrackPointExtension>
        </extensions>
      </trkpt>
      <trkpt lat="42.51319594681262969970703125" lon="20.00810134224593639373779296875">
        <ele>1931</ele>
        <time>2026-06-19T09:16:35.000Z</time>
        <extensions>
          <ns3:TrackPointExtension>
            <ns3:atemp>16.0</ns3:atemp>
          </ns3:TrackPointExtension>
        </extensions>
      </trkpt>
      <trkpt lat="42.5132249481976032257080078125" lon="20.00808943994343280792236328125">
        <ele>1931</ele>
        <time>2026-06-19T09:16:36.000Z</time>
        <extensions>
          <ns3:TrackPointExtension>
            <ns3:atemp>16.0</ns3:atemp>
          </ns3:TrackPointExtension>
        </extensions>
      </trkpt>
      <trkpt lat="42.51325185410678386688232421875" lon="20.00807560980319976806640625">
        <ele>1931</ele>
        <time>2026-06-19T09:16:37.000Z</time>
        <extensions>
          <ns3:TrackPointExtension>
            <ns3:atemp>16.0</ns3:atemp>
          </ns3:TrackPointExtension>
        </extensions>
      </trkpt>
      <trkpt lat="42.51327314414083957672119140625" lon="20.00806312076747417449951171875">
        <ele>1931</ele>
        <time>2026-06-19T09:16:38.000Z</time>
        <extensions>
          <ns3:TrackPointExtension>
            <ns3:atemp>16.0</ns3:atemp>
          </ns3:TrackPointExtension>
        </extensions>
      </trkpt>
      <trkpt lat="42.513295523822307586669921875" lon="20.00805281102657318115234375">
        <ele>1931</ele>
        <time>2026-06-19T09:16:39.000Z</time>
        <extensions>
          <ns3:TrackPointExtension>
            <ns3:atemp>16.0</ns3:atemp>
          </ns3:TrackPointExtension>
        </extensions>
      </trkpt>
      <trkpt lat="42.513320334255695343017578125" lon="20.00804283656179904937744140625">
        <ele>1930.800048828125</ele>
        <time>2026-06-19T09:16:40.000Z</time>
        <extensions>
          <ns3:TrackPointExtension>
            <ns3:atemp>16.0</ns3:atemp>
          </ns3:TrackPointExtension>
        </extensions>
      </trkpt>
      <trkpt lat="42.51334749162197113037109375" lon="20.0080285035073757171630859375">
        <ele>1930.800048828125</ele>
        <time>2026-06-19T09:16:41.000Z</time>
        <extensions>
          <ns3:TrackPointExtension>
            <ns3:atemp>16.0</ns3:atemp>
          </ns3:TrackPointExtension>
        </extensions>
      </trkpt>
      <trkpt lat="42.513382025063037872314453125" lon="20.00801936723291873931884765625">
        <ele>1930.5999755859375</ele>
        <time>2026-06-19T09:16:42.000Z</time>
        <extensions>
          <ns3:TrackPointExtension>
            <ns3:atemp>16.0</ns3:atemp>
          </ns3:TrackPointExtension>
        </extensions>
      </trkpt>
      <trkpt lat="42.51342183910310268402099609375" lon="20.00801282934844493865966796875">
        <ele>1930.4000244140625</ele>
        <time>2026-06-19T09:16:43.000Z</time>
        <extensions>
          <ns3:TrackPointExtension>
            <ns3:atemp>16.0</ns3:atemp>
          </ns3:TrackPointExtension>
        </extensions>
      </trkpt>
      <trkpt lat="42.5134599767625331878662109375" lon="20.008013583719730377197265625">
        <ele>1930.199951171875</ele>
        <time>2026-06-19T09:16:44.000Z</time>
        <extensions>
          <ns3:TrackPointExtension>
            <ns3:atemp>16.0</ns3:atemp>
          </ns3:TrackPointExtension>
        </extensions>
      </trkpt>
      <trkpt lat="42.5135042332112789154052734375" lon="20.00802305527031421661376953125">
        <ele>1929.5999755859375</ele>
        <time>2026-06-19T09:16:45.000Z</time>
        <extensions>
          <ns3:TrackPointExtension>
            <ns3:atemp>16.0</ns3:atemp>
          </ns3:TrackPointExtension>
        </extensions>
      </trkpt>
      <trkpt lat="42.51354756765067577362060546875" lon="20.0080365501344203948974609375">
        <ele>1929</ele>
        <time>2026-06-19T09:16:46.000Z</time>
        <extensions>
          <ns3:TrackPointExtension>
            <ns3:atemp>16.0</ns3:atemp>
          </ns3:TrackPointExtension>
        </extensions>
      </trkpt>
      <trkpt lat="42.51358713023364543914794921875" lon="20.008055828511714935302734375">
        <ele>1928.4000244140625</ele>
        <time>2026-06-19T09:16:47.000Z</time>
        <extensions>
          <ns3:TrackPointExtension>
            <ns3:atemp>16.0</ns3:atemp>
          </ns3:TrackPointExtension>
        </extensions>
      </trkpt>
      <trkpt lat="42.51363180577754974365234375" lon="20.00807183794677257537841796875">
        <ele>1927.800048828125</ele>
        <time>2026-06-19T09:16:48.000Z</time>
        <extensions>
          <ns3:TrackPointExtension>
            <ns3:atemp>16.0</ns3:atemp>
          </ns3:TrackPointExtension>
        </extensions>
      </trkpt>
      <trkpt lat="42.5136742182075977325439453125" lon="20.00809396617114543914794921875">
        <ele>1927.199951171875</ele>
        <time>2026-06-19T09:16:49.000Z</time>
        <extensions>
          <ns3:TrackPointExtension>
            <ns3:atemp>16.0</ns3:atemp>
          </ns3:TrackPointExtension>
        </extensions>
      </trkpt>
      <trkpt lat="42.5137196481227874755859375" lon="20.00811492092907428741455078125">
        <ele>1926.5999755859375</ele>
        <time>2026-06-19T09:16:50.000Z</time>
        <extensions>
          <ns3:TrackPointExtension>
            <ns3:atemp>16.0</ns3:atemp>
          </ns3:TrackPointExtension>
        </extensions>
      </trkpt>
      <trkpt lat="42.51376683823764324188232421875" lon="20.00813788734376430511474609375">
        <ele>1925.800048828125</ele>
        <time>2026-06-19T09:16:51.000Z</time>
        <extensions>
          <ns3:TrackPointExtension>
            <ns3:atemp>16.0</ns3:atemp>
          </ns3:TrackPointExtension>
        </extensions>
      </trkpt>
      <trkpt lat="42.51381679438054561614990234375" lon="20.0081626139581203460693359375">
        <ele>1925</ele>
        <time>2026-06-19T09:16:52.000Z</time>
        <extensions>
          <ns3:TrackPointExtension>
            <ns3:atemp>16.0</ns3:atemp>
          </ns3:TrackPointExtension>
        </extensions>
      </trkpt>
      <trkpt lat="42.51386624760925769805908203125" lon="20.008189268410205841064453125">
        <ele>1924.5999755859375</ele>
        <time>2026-06-19T09:16:53.000Z</time>
        <extensions>
          <ns3:TrackPointExtension>
            <ns3:atemp>16.0</ns3:atemp>
          </ns3:TrackPointExtension>
        </extensions>
      </trkpt>
      <trkpt lat="42.51391477882862091064453125" lon="20.0082232989370822906494140625">
        <ele>1924</ele>
        <time>2026-06-19T09:16:54.000Z</time>
        <extensions>
          <ns3:TrackPointExtension>
            <ns3:atemp>16.0</ns3:atemp>
          </ns3:TrackPointExtension>
        </extensions>
      </trkpt>
      <trkpt lat="42.513964064419269561767578125" lon="20.00824995338916778564453125">
        <ele>1923.5999755859375</ele>
        <time>2026-06-19T09:16:55.000Z</time>
        <extensions>
          <ns3:TrackPointExtension>
            <ns3:atemp>16.0</ns3:atemp>
          </ns3:TrackPointExtension>
        </extensions>
      </trkpt>
      <trkpt lat="42.51401812769472599029541015625" lon="20.00828004442155361175537109375">
        <ele>1923</ele>
        <time>2026-06-19T09:16:56.000Z</time>
        <extensions>
          <ns3:TrackPointExtension>
            <ns3:atemp>16.0</ns3:atemp>
          </ns3:TrackPointExtension>
        </extensions>
      </trkpt>
      <trkpt lat="42.51407571136951446533203125" lon="20.00831088982522487640380859375">
        <ele>1922.4000244140625</ele>
        <time>2026-06-19T09:16:57.000Z</time>
        <extensions>
          <ns3:TrackPointExtension>
            <ns3:atemp>16.0</ns3:atemp>
          </ns3:TrackPointExtension>
        </extensions>
      </trkpt>
      <trkpt lat="42.51414134167134761810302734375" lon="20.00834341160953044891357421875">
        <ele>1921.800048828125</ele>
        <time>2026-06-19T09:16:58.000Z</time>
        <extensions>
          <ns3:TrackPointExtension>
            <ns3:atemp>16.0</ns3:atemp>
          </ns3:TrackPointExtension>
        </extensions>
      </trkpt>
      <trkpt lat="42.514206133782863616943359375" lon="20.00836537219583988189697265625">
        <ele>1921.4000244140625</ele>
        <time>2026-06-19T09:16:59.000Z</time>
        <extensions>
          <ns3:TrackPointExtension>
            <ns3:atemp>16.0</ns3:atemp>
          </ns3:TrackPointExtension>
        </extensions>
      </trkpt>
      <trkpt lat="42.51427151262760162353515625" lon="20.00838699750602245330810546875">
        <ele>1920.800048828125</ele>
        <time>2026-06-19T09:17:00.000Z</time>
        <extensions>
          <ns3:TrackPointExtension>
            <ns3:atemp>16.0</ns3:atemp>
          </ns3:TrackPointExtension>
        </extensions>
      </trkpt>
      <trkpt lat="42.51433588564395904541015625" lon="20.0084088742733001708984375">
        <ele>1920.199951171875</ele>
        <time>2026-06-19T09:17:01.000Z</time>
        <extensions>
          <ns3:TrackPointExtension>
            <ns3:atemp>16.0</ns3:atemp>
          </ns3:TrackPointExtension>
        </extensions>
      </trkpt>
      <trkpt lat="42.51439757645130157470703125" lon="20.0084331817924976348876953125">
        <ele>1919.800048828125</ele>
        <time>2026-06-19T09:17:02.000Z</time>
        <extensions>
          <ns3:TrackPointExtension>
            <ns3:atemp>16.0</ns3:atemp>
          </ns3:TrackPointExtension>
        </extensions>
      </trkpt>
      <trkpt lat="42.51445448957383632659912109375" lon="20.00846478156745433807373046875">
        <ele>1919.4000244140625</ele>
        <time>2026-06-19T09:17:03.000Z</time>
        <extensions>
          <ns3:TrackPointExtension>
            <ns3:atemp>16.0</ns3:atemp>
          </ns3:TrackPointExtension>
        </extensions>
      </trkpt>
      <trkpt lat="42.51450779847800731658935546875" lon="20.00850652344524860382080078125">
        <ele>1919.199951171875</ele>
        <time>2026-06-19T09:17:04.000Z</time>
        <extensions>
          <ns3:TrackPointExtension>
            <ns3:atemp>16.0</ns3:atemp>
          </ns3:TrackPointExtension>
        </extensions>
      </trkpt>
      <trkpt lat="42.51455783843994140625" lon="20.00855865888297557830810546875">
        <ele>1918.800048828125</ele>
        <time>2026-06-19T09:17:05.000Z</time>
        <extensions>
          <ns3:TrackPointExtension>
            <ns3:atemp>16.0</ns3:atemp>
          </ns3:TrackPointExtension>
        </extensions>
      </trkpt>
      <trkpt lat="42.51460142433643341064453125" lon="20.0086068548262119293212890625">
        <ele>1918.5999755859375</ele>
        <time>2026-06-19T09:17:06.000Z</time>
        <extensions>
          <ns3:TrackPointExtension>
            <ns3:atemp>16.0</ns3:atemp>
          </ns3:TrackPointExtension>
        </extensions>
      </trkpt>
      <trkpt lat="42.51464291475713253021240234375" lon="20.00864767469465732574462890625">
        <ele>1918.5999755859375</ele>
        <time>2026-06-19T09:17:07.000Z</time>
        <extensions>
          <ns3:TrackPointExtension>
            <ns3:atemp>16.0</ns3:atemp>
          </ns3:TrackPointExtension>
        </extensions>
      </trkpt>
      <trkpt lat="42.51467761583626270294189453125" lon="20.00868313014507293701171875">
        <ele>1918.5999755859375</ele>
        <time>2026-06-19T09:17:08.000Z</time>
        <extensions>
          <ns3:TrackPointExtension>
            <ns3:atemp>16.0</ns3:atemp>
          </ns3:TrackPointExtension>
        </extensions>
      </trkpt>
      <trkpt lat="42.5147061981260776519775390625" lon="20.00870416872203350067138671875">
        <ele>1918.5999755859375</ele>
        <time>2026-06-19T09:17:09.000Z</time>
        <extensions>
          <ns3:TrackPointExtension>
            <ns3:atemp>16.0</ns3:atemp>
          </ns3:TrackPointExtension>
        </extensions>
      </trkpt>
      <trkpt lat="42.5147303380072116851806640625" lon="20.00872294418513774871826171875">
        <ele>1918.800048828125</ele>
        <time>2026-06-19T09:17:10.000Z</time>
        <extensions>
          <ns3:TrackPointExtension>
            <ns3:atemp>16.0</ns3:atemp>
          </ns3:TrackPointExtension>
        </extensions>
      </trkpt>
      <trkpt lat="42.5147511251270771026611328125" lon="20.00874213874340057373046875">
        <ele>1919</ele>
        <time>2026-06-19T09:17:11.000Z</time>
        <extensions>
          <ns3:TrackPointExtension>
            <ns3:atemp>16.0</ns3:atemp>
          </ns3:TrackPointExtension>
        </extensions>
      </trkpt>
      <trkpt lat="42.51476931385695934295654296875" lon="20.0087506882846355438232421875">
        <ele>1919.4000244140625</ele>
        <time>2026-06-19T09:17:12.000Z</time>
        <extensions>
          <ns3:TrackPointExtension>
            <ns3:atemp>16.0</ns3:atemp>
          </ns3:TrackPointExtension>
        </extensions>
      </trkpt>
      <trkpt lat="42.514791190624237060546875" lon="20.00875915400683879852294921875">
        <ele>1919.5999755859375</ele>
        <time>2026-06-19T09:17:13.000Z</time>
        <extensions>
          <ns3:TrackPointExtension>
            <ns3:atemp>16.0</ns3:atemp>
          </ns3:TrackPointExtension>
        </extensions>
      </trkpt>
      <trkpt lat="42.51481608487665653228759765625" lon="20.00876887701451778411865234375">
        <ele>1919.800048828125</ele>
        <time>2026-06-19T09:17:14.000Z</time>
        <extensions>
          <ns3:TrackPointExtension>
            <ns3:atemp>16.0</ns3:atemp>
          </ns3:TrackPointExtension>
        </extensions>
      </trkpt>
      <trkpt lat="42.51485078595578670501708984375" lon="20.008776001632213592529296875">
        <ele>1920</ele>
        <time>2026-06-19T09:17:15.000Z</time>
        <extensions>
          <ns3:TrackPointExtension>
            <ns3:atemp>16.0</ns3:atemp>
          </ns3:TrackPointExtension>
        </extensions>
      </trkpt>
      <trkpt lat="42.51489303074777126312255859375" lon="20.0087741576135158538818359375">
        <ele>1920</ele>
        <time>2026-06-19T09:17:16.000Z</time>
        <extensions>
          <ns3:TrackPointExtension>
            <ns3:atemp>16.0</ns3:atemp>
          </ns3:TrackPointExtension>
        </extensions>
      </trkpt>
      <trkpt lat="42.51493879593908786773681640625" lon="20.00876334495842456817626953125">
        <ele>1919.800048828125</ele>
        <time>2026-06-19T09:17:17.000Z</time>
        <extensions>
          <ns3:TrackPointExtension>
            <ns3:atemp>16.0</ns3:atemp>
          </ns3:TrackPointExtension>
        </extensions>
      </trkpt>
      <trkpt lat="42.51497902907431125640869140625" lon="20.0087446533143520355224609375">
        <ele>1919.4000244140625</ele>
        <time>2026-06-19T09:17:18.000Z</time>
        <extensions>
          <ns3:TrackPointExtension>
            <ns3:atemp>16.0</ns3:atemp>
          </ns3:TrackPointExtension>
        </extensions>
      </trkpt>
      <trkpt lat="42.51501658000051975250244140625" lon="20.00871892087161540985107421875">
        <ele>1919.199951171875</ele>
        <time>2026-06-19T09:17:19.000Z</time>
        <extensions>
          <ns3:TrackPointExtension>
            <ns3:atemp>16.0</ns3:atemp>
          </ns3:TrackPointExtension>
        </extensions>
      </trkpt>
      <trkpt lat="42.51505681313574314117431640625" lon="20.0086973793804645538330078125">
        <ele>1918.800048828125</ele>
        <time>2026-06-19T09:17:20.000Z</time>
        <extensions>
          <ns3:TrackPointExtension>
            <ns3:atemp>16.0</ns3:atemp>
          </ns3:TrackPointExtension>
        </extensions>
      </trkpt>
      <trkpt lat="42.5150981359183788299560546875" lon="20.00868824310600757598876953125">
        <ele>1918.4000244140625</ele>
        <time>2026-06-19T09:17:21.000Z</time>
        <extensions>
          <ns3:TrackPointExtension>
            <ns3:atemp>16.0</ns3:atemp>
          </ns3:TrackPointExtension>
        </extensions>
      </trkpt>
      <trkpt lat="42.5151373632252216339111328125" lon="20.00869712792336940765380859375">
        <ele>1918.199951171875</ele>
        <time>2026-06-19T09:17:22.000Z</time>
        <extensions>
          <ns3:TrackPointExtension>
            <ns3:atemp>16.0</ns3:atemp>
          </ns3:TrackPointExtension>
        </extensions>
      </trkpt>
      <trkpt lat="42.51516493968665599822998046875" lon="20.00871892087161540985107421875">
        <ele>1917.5999755859375</ele>
        <time>2026-06-19T09:17:23.000Z</time>
        <extensions>
          <ns3:TrackPointExtension>
            <ns3:atemp>16.0</ns3:atemp>
          </ns3:TrackPointExtension>
        </extensions>
      </trkpt>
      <trkpt lat="42.5151906721293926239013671875" lon="20.0087470002472400665283203125">
        <ele>1917.199951171875</ele>
        <time>2026-06-19T09:17:24.000Z</time>
        <extensions>
          <ns3:TrackPointExtension>
            <ns3:atemp>16.0</ns3:atemp>
          </ns3:TrackPointExtension>
        </extensions>
      </trkpt>
      <trkpt lat="42.515218667685985565185546875" lon="20.0087825395166873931884765625">
        <ele>1916.800048828125</ele>
        <time>2026-06-19T09:17:25.000Z</time>
        <extensions>
          <ns3:TrackPointExtension>
            <ns3:atemp>16.0</ns3:atemp>
          </ns3:TrackPointExtension>
        </extensions>
      </trkpt>
      <trkpt lat="42.51524875871837139129638671875" lon="20.0088165700435638427734375">
        <ele>1916.4000244140625</ele>
        <time>2026-06-19T09:17:26.000Z</time>
        <extensions>
          <ns3:TrackPointExtension>
            <ns3:atemp>16.0</ns3:atemp>
          </ns3:TrackPointExtension>
        </extensions>
      </trkpt>
      <trkpt lat="42.51527591608464717864990234375" lon="20.00885521061718463897705078125">
        <ele>1916.199951171875</ele>
        <time>2026-06-19T09:17:27.000Z</time>
        <extensions>
          <ns3:TrackPointExtension>
            <ns3:atemp>16.0</ns3:atemp>
          </ns3:TrackPointExtension>
        </extensions>
      </trkpt>
      <trkpt lat="42.51530458219349384307861328125" lon="20.00889393500983715057373046875">
        <ele>1915.800048828125</ele>
        <time>2026-06-19T09:17:28.000Z</time>
        <extensions>
          <ns3:TrackPointExtension>
            <ns3:atemp>16.0</ns3:atemp>
          </ns3:TrackPointExtension>
        </extensions>
      </trkpt>
      <trkpt lat="42.51533525995910167694091796875" lon="20.00893550924956798553466796875">
        <ele>1915.5999755859375</ele>
        <time>2026-06-19T09:17:29.000Z</time>
        <extensions>
          <ns3:TrackPointExtension>
            <ns3:atemp>16.0</ns3:atemp>
          </ns3:TrackPointExtension>
        </extensions>
      </trkpt>
      <trkpt lat="42.51537524163722991943359375" lon="20.0089632533490657806396484375">
        <ele>1915.199951171875</ele>
        <time>2026-06-19T09:17:30.000Z</time>
        <extensions>
          <ns3:TrackPointExtension>
            <ns3:atemp>16.0</ns3:atemp>
          </ns3:TrackPointExtension>
        </extensions>
      </trkpt>
      <trkpt lat="42.51542729325592517852783203125" lon="20.008973814547061920166015625">
        <ele>1915</ele>
        <time>2026-06-19T09:17:31.000Z</time>
        <extensions>
          <ns3:TrackPointExtension>
            <ns3:atemp>16.0</ns3:atemp>
          </ns3:TrackPointExtension>
        </extensions>
      </trkpt>
      <trkpt lat="42.51548521220684051513671875" lon="20.0089619122445583343505859375">
        <ele>1914.5999755859375</ele>
        <time>2026-06-19T09:17:32.000Z</time>
        <extensions>
          <ns3:TrackPointExtension>
            <ns3:atemp>16.0</ns3:atemp>
          </ns3:TrackPointExtension>
        </extensions>
      </trkpt>
      <trkpt lat="42.51554497517645359039306640625" lon="20.0089686177670955657958984375">
        <ele>1914.5999755859375</ele>
        <time>2026-06-19T09:17:33.000Z</time>
        <extensions>
          <ns3:TrackPointExtension>
            <ns3:atemp>16.0</ns3:atemp>
          </ns3:TrackPointExtension>
        </extensions>
      </trkpt>
      <trkpt lat="42.51560188829898834228515625" lon="20.0089746527373790740966796875">
        <ele>1914.199951171875</ele>
        <time>2026-06-19T09:17:34.000Z</time>
        <extensions>
          <ns3:TrackPointExtension>
            <ns3:atemp>16.0</ns3:atemp>
          </ns3:TrackPointExtension>
        </extensions>
      </trkpt>
      <trkpt lat="42.51564907841384410858154296875" lon="20.0090110301971435546875">
        <ele>1914</ele>
        <time>2026-06-19T09:17:35.000Z</time>
        <extensions>
          <ns3:TrackPointExtension>
            <ns3:atemp>16.0</ns3:atemp>
          </ns3:TrackPointExtension>
        </extensions>
      </trkpt>
      <trkpt lat="42.5156910717487335205078125" lon="20.0090668536722660064697265625">
        <ele>1913.5999755859375</ele>
        <time>2026-06-19T09:17:36.000Z</time>
        <extensions>
          <ns3:TrackPointExtension>
            <ns3:atemp>16.0</ns3:atemp>
          </ns3:TrackPointExtension>
        </extensions>
      </trkpt>
      <trkpt lat="42.5157244317233562469482421875" lon="20.0091251917183399200439453125">
        <ele>1913</ele>
        <time>2026-06-19T09:17:37.000Z</time>
        <extensions>
          <ns3:TrackPointExtension>
            <ns3:atemp>16.0</ns3:atemp>
          </ns3:TrackPointExtension>
        </extensions>
      </trkpt>
      <trkpt lat="42.51575016416609287261962890625" lon="20.00917891971766948699951171875">
        <ele>1912.4000244140625</ele>
        <time>2026-06-19T09:17:38.000Z</time>
        <extensions>
          <ns3:TrackPointExtension>
            <ns3:atemp>16.0</ns3:atemp>
          </ns3:TrackPointExtension>
        </extensions>
      </trkpt>
      <trkpt lat="42.51577220857143402099609375" lon="20.0092242658138275146484375">
        <ele>1912</ele>
        <time>2026-06-19T09:17:39.000Z</time>
        <extensions>
          <ns3:TrackPointExtension>
            <ns3:atemp>16.0</ns3:atemp>
          </ns3:TrackPointExtension>
        </extensions>
      </trkpt>
      <trkpt lat="42.5157921575009822845458984375" lon="20.00926609151065349578857421875">
        <ele>1911.4000244140625</ele>
        <time>2026-06-19T09:17:40.000Z</time>
        <extensions>
          <ns3:TrackPointExtension>
            <ns3:atemp>16.0</ns3:atemp>
          </ns3:TrackPointExtension>
        </extensions>
      </trkpt>
      <trkpt lat="42.5158126093447208404541015625" lon="20.009301044046878814697265625">
        <ele>1911.199951171875</ele>
        <time>2026-06-19T09:17:41.000Z</time>
        <extensions>
          <ns3:TrackPointExtension>
            <ns3:atemp>16.0</ns3:atemp>
          </ns3:TrackPointExtension>
        </extensions>
      </trkpt>
      <trkpt lat="42.51583348028361797332763671875" lon="20.00933499075472354888916015625">
        <ele>1910.800048828125</ele>
        <time>2026-06-19T09:17:42.000Z</time>
        <extensions>
          <ns3:TrackPointExtension>
            <ns3:atemp>16.0</ns3:atemp>
          </ns3:TrackPointExtension>
        </extensions>
      </trkpt>
      <trkpt lat="42.5158561952412128448486328125" lon="20.0093679316341876983642578125">
        <ele>1910.5999755859375</ele>
        <time>2026-06-19T09:17:43.000Z</time>
        <extensions>
          <ns3:TrackPointExtension>
            <ns3:atemp>16.0</ns3:atemp>
          </ns3:TrackPointExtension>
        </extensions>
      </trkpt>
      <trkpt lat="42.515875808894634246826171875" lon="20.00939835794270038604736328125">
        <ele>1910.199951171875</ele>
        <time>2026-06-19T09:17:44.000Z</time>
        <extensions>
          <ns3:TrackPointExtension>
            <ns3:atemp>16.0</ns3:atemp>
          </ns3:TrackPointExtension>
        </extensions>
      </trkpt>
      <trkpt lat="42.51589768566191196441650390625" lon="20.0094252638518810272216796875">
        <ele>1910</ele>
        <time>2026-06-19T09:17:45.000Z</time>
        <extensions>
          <ns3:TrackPointExtension>
            <ns3:atemp>16.0</ns3:atemp>
          </ns3:TrackPointExtension>
        </extensions>
      </trkpt>
      <trkpt lat="42.51591696403920650482177734375" lon="20.00945233739912509918212890625">
        <ele>1909.800048828125</ele>
        <time>2026-06-19T09:17:46.000Z</time>
        <extensions>
          <ns3:TrackPointExtension>
            <ns3:atemp>16.0</ns3:atemp>
          </ns3:TrackPointExtension>
        </extensions>
      </trkpt>
      <trkpt lat="42.51593607477843761444091796875" lon="20.00948083586990833282470703125">
        <ele>1909.5999755859375</ele>
        <time>2026-06-19T09:17:47.000Z</time>
        <extensions>
          <ns3:TrackPointExtension>
            <ns3:atemp>16.0</ns3:atemp>
          </ns3:TrackPointExtension>
        </extensions>
      </trkpt>
      <trkpt lat="42.5159624777734279632568359375" lon="20.0095151178538799285888671875">
        <ele>1909.5999755859375</ele>
        <time>2026-06-19T09:17:48.000Z</time>
        <extensions>
          <ns3:TrackPointExtension>
            <ns3:atemp>16.0</ns3:atemp>
          </ns3:TrackPointExtension>
        </extensions>
      </trkpt>
      <trkpt lat="42.51599340699613094329833984375" lon="20.009540431201457977294921875">
        <ele>1909.4000244140625</ele>
        <time>2026-06-19T09:17:49.000Z</time>
        <extensions>
          <ns3:TrackPointExtension>
            <ns3:atemp>16.0</ns3:atemp>
          </ns3:TrackPointExtension>
        </extensions>
      </trkpt>
      <trkpt lat="42.5160234980285167694091796875" lon="20.00957286916673183441162109375">
        <ele>1909.4000244140625</ele>
        <time>2026-06-19T09:17:50.000Z</time>
        <extensions>
          <ns3:TrackPointExtension>
            <ns3:atemp>16.0</ns3:atemp>
          </ns3:TrackPointExtension>
        </extensions>
      </trkpt>
      <trkpt lat="42.51605157740414142608642578125" lon="20.0096063129603862762451171875">
        <ele>1909.4000244140625</ele>
        <time>2026-06-19T09:17:51.000Z</time>
        <extensions>
          <ns3:TrackPointExtension>
            <ns3:atemp>16.0</ns3:atemp>
          </ns3:TrackPointExtension>
        </extensions>
      </trkpt>
      <trkpt lat="42.51607303507626056671142578125" lon="20.0096411816775798797607421875">
        <ele>1909.4000244140625</ele>
        <time>2026-06-19T09:17:52.000Z</time>
        <extensions>
          <ns3:TrackPointExtension>
            <ns3:atemp>16.0</ns3:atemp>
          </ns3:TrackPointExtension>
        </extensions>
      </trkpt>
      <trkpt lat="42.516094408929347991943359375" lon="20.00967429019510746002197265625">
        <ele>1909.5999755859375</ele>
        <time>2026-06-19T09:17:53.000Z</time>
        <extensions>
          <ns3:TrackPointExtension>
            <ns3:atemp>16.0</ns3:atemp>
          </ns3:TrackPointExtension>
        </extensions>
      </trkpt>
      <trkpt lat="42.51611360348761081695556640625" lon="20.00970681197941303253173828125">
        <ele>1909.800048828125</ele>
        <time>2026-06-19T09:17:54.000Z</time>
        <extensions>
          <ns3:TrackPointExtension>
            <ns3:atemp>16.0</ns3:atemp>
          </ns3:TrackPointExtension>
        </extensions>
      </trkpt>
      <trkpt lat="42.5161247514188289642333984375" lon="20.0097404234111309051513671875">
        <ele>1910</ele>
        <time>2026-06-19T09:17:55.000Z</time>
        <extensions>
          <ns3:TrackPointExtension>
            <ns3:atemp>16.0</ns3:atemp>
          </ns3:TrackPointExtension>
        </extensions>
      </trkpt>
      <trkpt lat="42.5161363184452056884765625" lon="20.0097689218819141387939453125">
        <ele>1910</ele>
        <time>2026-06-19T09:17:56.000Z</time>
        <extensions>
          <ns3:TrackPointExtension>
            <ns3:atemp>16.0</ns3:atemp>
          </ns3:TrackPointExtension>
        </extensions>
      </trkpt>
      <trkpt lat="42.51614327542483806610107421875" lon="20.0097960792481899261474609375">
        <ele>1910.199951171875</ele>
        <time>2026-06-19T09:17:57.000Z</time>
        <extensions>
          <ns3:TrackPointExtension>
            <ns3:atemp>16.0</ns3:atemp>
          </ns3:TrackPointExtension>
        </extensions>
      </trkpt>
      <trkpt lat="42.51614863984286785125732421875" lon="20.00981762073934078216552734375">
        <ele>1910.4000244140625</ele>
        <time>2026-06-19T09:17:58.000Z</time>
        <extensions>
          <ns3:TrackPointExtension>
            <ns3:atemp>16.0</ns3:atemp>
          </ns3:TrackPointExtension>
        </extensions>
      </trkpt>
      <trkpt lat="42.51615316607058048248291015625" lon="20.00984611921012401580810546875">
        <ele>1910.4000244140625</ele>
        <time>2026-06-19T09:17:59.000Z</time>
        <extensions>
          <ns3:TrackPointExtension>
            <ns3:atemp>16.0</ns3:atemp>
          </ns3:TrackPointExtension>
        </extensions>
      </trkpt>
      <trkpt lat="42.5161606259644031524658203125" lon="20.0098688341677188873291015625">
        <ele>1910.4000244140625</ele>
        <time>2026-06-19T09:18:00.000Z</time>
        <extensions>
          <ns3:TrackPointExtension>
            <ns3:atemp>16.0</ns3:atemp>
          </ns3:TrackPointExtension>
        </extensions>
      </trkpt>
      <trkpt lat="42.51617076806724071502685546875" lon="20.0098959915339946746826171875">
        <ele>1910.4000244140625</ele>
        <time>2026-06-19T09:18:01.000Z</time>
        <extensions>
          <ns3:TrackPointExtension>
            <ns3:atemp>16.0</ns3:atemp>
          </ns3:TrackPointExtension>
        </extensions>
      </trkpt>
      <trkpt lat="42.516185604035854339599609375" lon="20.00992105342447757720947265625">
        <ele>1910.199951171875</ele>
        <time>2026-06-19T09:18:02.000Z</time>
        <extensions>
          <ns3:TrackPointExtension>
            <ns3:atemp>16.0</ns3:atemp>
          </ns3:TrackPointExtension>
        </extensions>
      </trkpt>
      <trkpt lat="42.51620161347091197967529296875" lon="20.0099523179233074188232421875">
        <ele>1910.199951171875</ele>
        <time>2026-06-19T09:18:03.000Z</time>
        <extensions>
          <ns3:TrackPointExtension>
            <ns3:atemp>16.0</ns3:atemp>
          </ns3:TrackPointExtension>
        </extensions>
      </trkpt>
      <trkpt lat="42.51622089184820652008056640625" lon="20.009979642927646636962890625">
        <ele>1910.199951171875</ele>
        <time>2026-06-19T09:18:04.000Z</time>
        <extensions>
          <ns3:TrackPointExtension>
            <ns3:atemp>16.0</ns3:atemp>
          </ns3:TrackPointExtension>
        </extensions>
      </trkpt>
      <trkpt lat="42.5162357278168201446533203125" lon="20.01000705175101757049560546875">
        <ele>1910</ele>
        <time>2026-06-19T09:18:05.000Z</time>
        <extensions>
          <ns3:TrackPointExtension>
            <ns3:atemp>16.0</ns3:atemp>
          </ns3:TrackPointExtension>
        </extensions>
      </trkpt>
      <trkpt lat="42.51625634729862213134765625" lon="20.01003672368824481964111328125">
        <ele>1910</ele>
        <time>2026-06-19T09:18:06.000Z</time>
        <extensions>
          <ns3:TrackPointExtension>
            <ns3:atemp>16.0</ns3:atemp>
          </ns3:TrackPointExtension>
        </extensions>
      </trkpt>
      <trkpt lat="42.51627638004720211029052734375" lon="20.0100636295974254608154296875">
        <ele>1910</ele>
        <time>2026-06-19T09:18:07.000Z</time>
        <extensions>
          <ns3:TrackPointExtension>
            <ns3:atemp>16.0</ns3:atemp>
          </ns3:TrackPointExtension>
        </extensions>
      </trkpt>
      <trkpt lat="42.51629800535738468170166015625" lon="20.01009003259241580963134765625">
        <ele>1910</ele>
        <time>2026-06-19T09:18:08.000Z</time>
        <extensions>
          <ns3:TrackPointExtension>
            <ns3:atemp>16.0</ns3:atemp>
          </ns3:TrackPointExtension>
        </extensions>
      </trkpt>
      <trkpt lat="42.5163187086582183837890625" lon="20.01011853106319904327392578125">
        <ele>1910</ele>
        <time>2026-06-19T09:18:09.000Z</time>
        <extensions>
          <ns3:TrackPointExtension>
            <ns3:atemp>16.0</ns3:atemp>
          </ns3:TrackPointExtension>
        </extensions>
      </trkpt>
      <trkpt lat="42.51632750965654850006103515625" lon="20.010156668722629547119140625">
        <ele>1910</ele>
        <time>2026-06-19T09:18:10.000Z</time>
        <extensions>
          <ns3:TrackPointExtension>
            <ns3:atemp>16.0</ns3:atemp>
          </ns3:TrackPointExtension>
        </extensions>
      </trkpt>
      <trkpt lat="42.5163292698562145233154296875" lon="20.01020687632262706756591796875">
        <ele>1910</ele>
        <time>2026-06-19T09:18:11.000Z</time>
        <extensions>
          <ns3:TrackPointExtension>
            <ns3:atemp>16.0</ns3:atemp>
          </ns3:TrackPointExtension>
        </extensions>
      </trkpt>
      <trkpt lat="42.51633287407457828521728515625" lon="20.0102676451206207275390625">
        <ele>1909.800048828125</ele>
        <time>2026-06-19T09:18:12.000Z</time>
        <extensions>
          <ns3:TrackPointExtension>
            <ns3:atemp>16.0</ns3:atemp>
          </ns3:TrackPointExtension>
        </extensions>
      </trkpt>
      <trkpt lat="42.5163326226174831390380859375" lon="20.01031366176903247833251953125">
        <ele>1909.5999755859375</ele>
        <time>2026-06-19T09:18:13.000Z</time>
        <extensions>
          <ns3:TrackPointExtension>
            <ns3:atemp>16.0</ns3:atemp>
          </ns3:TrackPointExtension>
        </extensions>
      </trkpt>
      <trkpt lat="42.51633387990295886993408203125" lon="20.0103414058685302734375">
        <ele>1909.4000244140625</ele>
        <time>2026-06-19T09:18:14.000Z</time>
        <extensions>
          <ns3:TrackPointExtension>
            <ns3:atemp>16.0</ns3:atemp>
          </ns3:TrackPointExtension>
        </extensions>
      </trkpt>
      <trkpt lat="42.5163319520652294158935546875" lon="20.01036780886352062225341796875">
        <ele>1909.199951171875</ele>
        <time>2026-06-19T09:18:15.000Z</time>
        <extensions>
          <ns3:TrackPointExtension>
            <ns3:atemp>16.0</ns3:atemp>
          </ns3:TrackPointExtension>
        </extensions>
      </trkpt>
      <trkpt lat="42.5163279287517070770263671875" lon="20.01039194874465465545654296875">
        <ele>1909</ele>
        <time>2026-06-19T09:18:16.000Z</time>
        <extensions>
          <ns3:TrackPointExtension>
            <ns3:atemp>16.0</ns3:atemp>
          </ns3:TrackPointExtension>
        </extensions>
      </trkpt>
      <trkpt lat="42.5163249112665653228759765625" lon="20.0104099698364734649658203125">
        <ele>1908.800048828125</ele>
        <time>2026-06-19T09:18:17.000Z</time>
        <extensions>
          <ns3:TrackPointExtension>
            <ns3:atemp>16.0</ns3:atemp>
          </ns3:TrackPointExtension>
        </extensions>
      </trkpt>
      <trkpt lat="42.5163249112665653228759765625" lon="20.01042162068188190460205078125">
        <ele>1908.5999755859375</ele>
        <time>2026-06-19T09:18:18.000Z</time>
        <extensions>
          <ns3:TrackPointExtension>
            <ns3:atemp>16.0</ns3:atemp>
          </ns3:TrackPointExtension>
        </extensions>
      </trkpt>
      <trkpt lat="42.51632650382816791534423828125" lon="20.01043335534632205963134765625">
        <ele>1908.5999755859375</ele>
        <time>2026-06-19T09:18:19.000Z</time>
        <extensions>
          <ns3:TrackPointExtension>
            <ns3:atemp>16.0</ns3:atemp>
          </ns3:TrackPointExtension>
        </extensions>
      </trkpt>
      <trkpt lat="42.51632533036172389984130859375" lon="20.01045447774231433868408203125">
        <ele>1908.4000244140625</ele>
        <time>2026-06-19T09:18:20.000Z</time>
        <extensions>
          <ns3:TrackPointExtension>
            <ns3:atemp>16.0</ns3:atemp>
          </ns3:TrackPointExtension>
        </extensions>
      </trkpt>
      <trkpt lat="42.516324408352375030517578125" lon="20.01047509722411632537841796875">
        <ele>1908.4000244140625</ele>
        <time>2026-06-19T09:18:21.000Z</time>
        <extensions>
          <ns3:TrackPointExtension>
            <ns3:atemp>16.0</ns3:atemp>
          </ns3:TrackPointExtension>
        </extensions>
      </trkpt>
      <trkpt lat="42.51631761901080608367919921875" lon="20.010496638715267181396484375">
        <ele>1908.4000244140625</ele>
        <time>2026-06-19T09:18:22.000Z</time>
        <extensions>
          <ns3:TrackPointExtension>
            <ns3:atemp>16.0</ns3:atemp>
          </ns3:TrackPointExtension>
        </extensions>
      </trkpt>
      <trkpt lat="42.516304291784763336181640625" lon="20.01050611026585102081298828125">
        <ele>1908.4000244140625</ele>
        <time>2026-06-19T09:18:23.000Z</time>
        <extensions>
          <ns3:TrackPointExtension>
            <ns3:atemp>16.0</ns3:atemp>
          </ns3:TrackPointExtension>
        </extensions>
      </trkpt>
      <trkpt lat="42.51628878526389598846435546875" lon="20.01051097176969051361083984375">
        <ele>1908.4000244140625</ele>
        <time>2026-06-19T09:18:24.000Z</time>
        <extensions>
          <ns3:TrackPointExtension>
            <ns3:atemp>16.0</ns3:atemp>
          </ns3:TrackPointExtension>
        </extensions>
      </trkpt>
      <trkpt lat="42.5162679143249988555908203125" lon="20.01051147468388080596923828125">
        <ele>1908.4000244140625</ele>
        <time>2026-06-19T09:18:25.000Z</time>
        <extensions>
          <ns3:TrackPointExtension>
            <ns3:atemp>16.0</ns3:atemp>
          </ns3:TrackPointExtension>
        </extensions>
      </trkpt>
      <trkpt lat="42.516245283186435699462890625" lon="20.01051105558872222900390625">
        <ele>1908.5999755859375</ele>
        <time>2026-06-19T09:18:26.000Z</time>
        <extensions>
          <ns3:TrackPointExtension>
            <ns3:atemp>16.0</ns3:atemp>
          </ns3:TrackPointExtension>
        </extensions>
      </trkpt>
      <trkpt lat="42.51622592099010944366455078125" lon="20.01050326041877269744873046875">
        <ele>1908.800048828125</ele>
        <time>2026-06-19T09:18:27.000Z</time>
        <extensions>
          <ns3:TrackPointExtension>
            <ns3:atemp>16.0</ns3:atemp>
          </ns3:TrackPointExtension>
        </extensions>
      </trkpt>
      <trkpt lat="42.51620764844119548797607421875" lon="20.01049722544848918914794921875">
        <ele>1908.800048828125</ele>
        <time>2026-06-19T09:18:28.000Z</time>
        <extensions>
          <ns3:TrackPointExtension>
            <ns3:atemp>16.0</ns3:atemp>
          </ns3:TrackPointExtension>
        </extensions>
      </trkpt>
      <trkpt lat="42.51619272865355014801025390625" lon="20.01049152575433254241943359375">
        <ele>1909</ele>
        <time>2026-06-19T09:18:29.000Z</time>
        <extensions>
          <ns3:TrackPointExtension>
            <ns3:atemp>16.0</ns3:atemp>
          </ns3:TrackPointExtension>
        </extensions>
      </trkpt>
      <trkpt lat="42.51617579720914363861083984375" lon="20.0104874186217784881591796875">
        <ele>1909.199951171875</ele>
        <time>2026-06-19T09:18:30.000Z</time>
        <extensions>
          <ns3:TrackPointExtension>
            <ns3:atemp>16.0</ns3:atemp>
          </ns3:TrackPointExtension>
        </extensions>
      </trkpt>
      <trkpt lat="42.516163475811481475830078125" lon="20.0104820542037487030029296875">
        <ele>1909.4000244140625</ele>
        <time>2026-06-19T09:18:31.000Z</time>
        <extensions>
          <ns3:TrackPointExtension>
            <ns3:atemp>16.0</ns3:atemp>
          </ns3:TrackPointExtension>
        </extensions>
      </trkpt>
      <trkpt lat="42.5161498971283435821533203125" lon="20.01048046164214611053466796875">
        <ele>1909.5999755859375</ele>
        <time>2026-06-19T09:18:32.000Z</time>
        <extensions>
          <ns3:TrackPointExtension>
            <ns3:atemp>16.0</ns3:atemp>
          </ns3:TrackPointExtension>
        </extensions>
      </trkpt>
      <trkpt lat="42.5161321274936199188232421875" lon="20.01047576777637004852294921875">
        <ele>1909.800048828125</ele>
        <time>2026-06-19T09:18:33.000Z</time>
        <extensions>
          <ns3:TrackPointExtension>
            <ns3:atemp>16.0</ns3:atemp>
          </ns3:TrackPointExtension>
        </extensions>
      </trkpt>
      <trkpt lat="42.51611360348761081695556640625" lon="20.01047006808221340179443359375">
        <ele>1909.800048828125</ele>
        <time>2026-06-19T09:18:34.000Z</time>
        <extensions>
          <ns3:TrackPointExtension>
            <ns3:atemp>16.0</ns3:atemp>
          </ns3:TrackPointExtension>
        </extensions>
      </trkpt>
      <trkpt lat="42.51609466038644313812255859375" lon="20.0104659609496593475341796875">
        <ele>1909.800048828125</ele>
        <time>2026-06-19T09:18:35.000Z</time>
        <extensions>
          <ns3:TrackPointExtension>
            <ns3:atemp>16.0</ns3:atemp>
          </ns3:TrackPointExtension>
        </extensions>
      </trkpt>
      <trkpt lat="42.5160717777907848358154296875" lon="20.0104642845690250396728515625">
        <ele>1910</ele>
        <time>2026-06-19T09:18:36.000Z</time>
        <extensions>
          <ns3:TrackPointExtension>
            <ns3:atemp>16.0</ns3:atemp>
          </ns3:TrackPointExtension>
        </extensions>
      </trkpt>
      <trkpt lat="42.51605342142283916473388671875" lon="20.010463781654834747314453125">
        <ele>1910.199951171875</ele>
        <time>2026-06-19T09:18:37.000Z</time>
        <extensions>
          <ns3:TrackPointExtension>
            <ns3:atemp>16.0</ns3:atemp>
          </ns3:TrackPointExtension>
        </extensions>
      </trkpt>
      <trkpt lat="42.51603766344487667083740234375" lon="20.0104609318077564239501953125">
        <ele>1910.4000244140625</ele>
        <time>2026-06-19T09:18:38.000Z</time>
        <extensions>
          <ns3:TrackPointExtension>
            <ns3:atemp>16.0</ns3:atemp>
          </ns3:TrackPointExtension>
        </extensions>
      </trkpt>
      <trkpt lat="42.51602299511432647705078125" lon="20.01046218909323215484619140625">
        <ele>1910.5999755859375</ele>
        <time>2026-06-19T09:18:39.000Z</time>
        <extensions>
          <ns3:TrackPointExtension>
            <ns3:atemp>16.0</ns3:atemp>
          </ns3:TrackPointExtension>
        </extensions>
      </trkpt>
      <trkpt lat="42.51601955853402614593505859375" lon="20.01046956516802310943603515625">
        <ele>1910.800048828125</ele>
        <time>2026-06-19T09:18:40.000Z</time>
        <extensions>
          <ns3:TrackPointExtension>
            <ns3:atemp>16.0</ns3:atemp>
          </ns3:TrackPointExtension>
        </extensions>
      </trkpt>
      <trkpt lat="42.516019977629184722900390625" lon="20.01047040335834026336669921875">
        <ele>1911.199951171875</ele>
        <time>2026-06-19T09:18:41.000Z</time>
        <extensions>
          <ns3:TrackPointExtension>
            <ns3:atemp>16.0</ns3:atemp>
          </ns3:TrackPointExtension>
        </extensions>
      </trkpt>
      <trkpt lat="42.516019977629184722900390625" lon="20.01047040335834026336669921875">
        <ele>1911.4000244140625</ele>
        <time>2026-06-19T09:18:42.000Z</time>
        <extensions>
          <ns3:TrackPointExtension>
            <ns3:atemp>16.0</ns3:atemp>
          </ns3:TrackPointExtension>
        </extensions>
      </trkpt>
      <trkpt lat="42.516019977629184722900390625" lon="20.01047040335834026336669921875">
        <ele>1911.5999755859375</ele>
        <time>2026-06-19T09:18:43.000Z</time>
        <extensions>
          <ns3:TrackPointExtension>
            <ns3:atemp>16.0</ns3:atemp>
          </ns3:TrackPointExtension>
        </extensions>
      </trkpt>
      <trkpt lat="42.516019977629184722900390625" lon="20.01047040335834026336669921875">
        <ele>1911.5999755859375</ele>
        <time>2026-06-19T09:18:44.000Z</time>
        <extensions>
          <ns3:TrackPointExtension>
            <ns3:atemp>16.0</ns3:atemp>
          </ns3:TrackPointExtension>
        </extensions>
      </trkpt>
      <trkpt lat="42.516019977629184722900390625" lon="20.01047040335834026336669921875">
        <ele>1911.800048828125</ele>
        <time>2026-06-19T09:18:45.000Z</time>
        <extensions>
          <ns3:TrackPointExtension>
            <ns3:atemp>16.0</ns3:atemp>
          </ns3:TrackPointExtension>
        </extensions>
      </trkpt>
      <trkpt lat="42.516019977629184722900390625" lon="20.01047040335834026336669921875">
        <ele>1911.800048828125</ele>
        <time>2026-06-19T09:18:46.000Z</time>
        <extensions>
          <ns3:TrackPointExtension>
            <ns3:atemp>16.0</ns3:atemp>
          </ns3:TrackPointExtension>
        </extensions>
      </trkpt>
      <trkpt lat="42.516019977629184722900390625" lon="20.01047040335834026336669921875">
        <ele>1911.800048828125</ele>
        <time>2026-06-19T09:18:47.000Z</time>
        <extensions>
          <ns3:TrackPointExtension>
            <ns3:atemp>16.0</ns3:atemp>
          </ns3:TrackPointExtension>
        </extensions>
      </trkpt>
      <trkpt lat="42.516019977629184722900390625" lon="20.01047040335834026336669921875">
        <ele>1911.5999755859375</ele>
        <time>2026-06-19T09:18:48.000Z</time>
        <extensions>
          <ns3:TrackPointExtension>
            <ns3:atemp>16.0</ns3:atemp>
          </ns3:TrackPointExtension>
        </extensions>
      </trkpt>
      <trkpt lat="42.516019977629184722900390625" lon="20.01047040335834026336669921875">
        <ele>1911.800048828125</ele>
        <time>2026-06-19T09:18:49.000Z</time>
        <extensions>
          <ns3:TrackPointExtension>
            <ns3:atemp>16.0</ns3:atemp>
          </ns3:TrackPointExtension>
        </extensions>
      </trkpt>
      <trkpt lat="42.516019977629184722900390625" lon="20.01047040335834026336669921875">
        <ele>1911.800048828125</ele>
        <time>2026-06-19T09:18:50.000Z</time>
        <extensions>
          <ns3:TrackPointExtension>
            <ns3:atemp>16.0</ns3:atemp>
          </ns3:TrackPointExtension>
        </extensions>
      </trkpt>
      <trkpt lat="42.516019977629184722900390625" lon="20.01047040335834026336669921875">
        <ele>1911.800048828125</ele>
        <time>2026-06-19T09:18:51.000Z</time>
        <extensions>
          <ns3:TrackPointExtension>
            <ns3:atemp>16.0</ns3:atemp>
          </ns3:TrackPointExtension>
        </extensions>
      </trkpt>
      <trkpt lat="42.516019977629184722900390625" lon="20.01047040335834026336669921875">
        <ele>1911.800048828125</ele>
        <time>2026-06-19T09:18:52.000Z</time>
        <extensions>
          <ns3:TrackPointExtension>
            <ns3:atemp>16.0</ns3:atemp>
          </ns3:TrackPointExtension>
        </extensions>
      </trkpt>
      <trkpt lat="42.516019977629184722900390625" lon="20.01047040335834026336669921875">
        <ele>1911.800048828125</ele>
        <time>2026-06-19T09:18:53.000Z</time>
        <extensions>
          <ns3:TrackPointExtension>
            <ns3:atemp>16.0</ns3:atemp>
          </ns3:TrackPointExtension>
        </extensions>
      </trkpt>
      <trkpt lat="42.516019977629184722900390625" lon="20.01047040335834026336669921875">
        <ele>1912</ele>
        <time>2026-06-19T09:18:54.000Z</time>
        <extensions>
          <ns3:TrackPointExtension>
            <ns3:atemp>16.0</ns3:atemp>
          </ns3:TrackPointExtension>
        </extensions>
      </trkpt>
      <trkpt lat="42.516019977629184722900390625" lon="20.01047040335834026336669921875">
        <ele>1912</ele>
        <time>2026-06-19T09:18:55.000Z</time>
        <extensions>
          <ns3:TrackPointExtension>
            <ns3:atemp>16.0</ns3:atemp>
          </ns3:TrackPointExtension>
        </extensions>
      </trkpt>
      <trkpt lat="42.516019977629184722900390625" lon="20.01047040335834026336669921875">
        <ele>1912</ele>
        <time>2026-06-19T09:18:56.000Z</time>
        <extensions>
          <ns3:TrackPointExtension>
            <ns3:atemp>16.0</ns3:atemp>
          </ns3:TrackPointExtension>
        </extensions>
      </trkpt>
      <trkpt lat="42.516019977629184722900390625" lon="20.01047040335834026336669921875">
        <ele>1912</ele>
        <time>2026-06-19T09:18:57.000Z</time>
        <extensions>
          <ns3:TrackPointExtension>
            <ns3:atemp>16.0</ns3:atemp>
          </ns3:TrackPointExtension>
        </extensions>
      </trkpt>
      <trkpt lat="42.516019977629184722900390625" lon="20.01047040335834026336669921875">
        <ele>1912.199951171875</ele>
        <time>2026-06-19T09:18:58.000Z</time>
        <extensions>
          <ns3:TrackPointExtension>
            <ns3:atemp>16.0</ns3:atemp>
          </ns3:TrackPointExtension>
        </extensions>
      </trkpt>
      <trkpt lat="42.516019977629184722900390625" lon="20.01047040335834026336669921875">
        <ele>1912.199951171875</ele>
        <time>2026-06-19T09:18:59.000Z</time>
        <extensions>
          <ns3:TrackPointExtension>
            <ns3:atemp>16.0</ns3:atemp>
          </ns3:TrackPointExtension>
        </extensions>
      </trkpt>
      <trkpt lat="42.516019977629184722900390625" lon="20.01047040335834026336669921875">
        <ele>1912.199951171875</ele>
        <time>2026-06-19T09:19:00.000Z</time>
        <extensions>
          <ns3:TrackPointExtension>
            <ns3:atemp>16.0</ns3:atemp>
          </ns3:TrackPointExtension>
        </extensions>
      </trkpt>
      <trkpt lat="42.516019977629184722900390625" lon="20.01047040335834026336669921875">
        <ele>1912.199951171875</ele>
        <time>2026-06-19T09:19:01.000Z</time>
        <extensions>
          <ns3:TrackPointExtension>
            <ns3:atemp>16.0</ns3:atemp>
          </ns3:TrackPointExtension>
        </extensions>
      </trkpt>
      <trkpt lat="42.516019977629184722900390625" lon="20.01047040335834026336669921875">
        <ele>1912</ele>
        <time>2026-06-19T09:19:02.000Z</time>
        <extensions>
          <ns3:TrackPointExtension>
            <ns3:atemp>16.0</ns3:atemp>
          </ns3:TrackPointExtension>
        </extensions>
      </trkpt>
      <trkpt lat="42.516019977629184722900390625" lon="20.01047040335834026336669921875">
        <ele>1912</ele>
        <time>2026-06-19T09:19:03.000Z</time>
        <extensions>
          <ns3:TrackPointExtension>
            <ns3:atemp>16.0</ns3:atemp>
          </ns3:TrackPointExtension>
        </extensions>
      </trkpt>
      <trkpt lat="42.516019977629184722900390625" lon="20.01047040335834026336669921875">
        <ele>1912</ele>
        <time>2026-06-19T09:19:04.000Z</time>
        <extensions>
          <ns3:TrackPointExtension>
            <ns3:atemp>16.0</ns3:atemp>
          </ns3:TrackPointExtension>
        </extensions>
      </trkpt>
      <trkpt lat="42.516019977629184722900390625" lon="20.01047040335834026336669921875">
        <ele>1912</ele>
        <time>2026-06-19T09:19:05.000Z</time>
        <extensions>
          <ns3:TrackPointExtension>
            <ns3:atemp>16.0</ns3:atemp>
          </ns3:TrackPointExtension>
        </extensions>
      </trkpt>
      <trkpt lat="42.516019977629184722900390625" lon="20.01047040335834026336669921875">
        <ele>1912</ele>
        <time>2026-06-19T09:19:06.000Z</time>
        <extensions>
          <ns3:TrackPointExtension>
            <ns3:atemp>16.0</ns3:atemp>
          </ns3:TrackPointExtension>
        </extensions>
      </trkpt>
      <trkpt lat="42.516019977629184722900390625" lon="20.01047040335834026336669921875">
        <ele>1911.800048828125</ele>
        <time>2026-06-19T09:19:07.000Z</time>
        <extensions>
          <ns3:TrackPointExtension>
            <ns3:atemp>16.0</ns3:atemp>
          </ns3:TrackPointExtension>
        </extensions>
      </trkpt>
      <trkpt lat="42.516019977629184722900390625" lon="20.01047040335834026336669921875">
        <ele>1911.800048828125</ele>
        <time>2026-06-19T09:19:08.000Z</time>
        <extensions>
          <ns3:TrackPointExtension>
            <ns3:atemp>16.0</ns3:atemp>
          </ns3:TrackPointExtension>
        </extensions>
      </trkpt>
      <trkpt lat="42.516019977629184722900390625" lon="20.01047040335834026336669921875">
        <ele>1911.800048828125</ele>
        <time>2026-06-19T09:19:09.000Z</time>
        <extensions>
          <ns3:TrackPointExtension>
            <ns3:atemp>16.0</ns3:atemp>
          </ns3:TrackPointExtension>
        </extensions>
      </trkpt>
      <trkpt lat="42.516019977629184722900390625" lon="20.01047040335834026336669921875">
        <ele>1911.800048828125</ele>
        <time>2026-06-19T09:19:10.000Z</time>
        <extensions>
          <ns3:TrackPointExtension>
            <ns3:atemp>16.0</ns3:atemp>
          </ns3:TrackPointExtension>
        </extensions>
      </trkpt>
      <trkpt lat="42.516019977629184722900390625" lon="20.01047040335834026336669921875">
        <ele>1911.800048828125</ele>
        <time>2026-06-19T09:19:11.000Z</time>
        <extensions>
          <ns3:TrackPointExtension>
            <ns3:atemp>16.0</ns3:atemp>
          </ns3:TrackPointExtension>
        </extensions>
      </trkpt>
      <trkpt lat="42.516019977629184722900390625" lon="20.01047040335834026336669921875">
        <ele>1911.5999755859375</ele>
        <time>2026-06-19T09:19:12.000Z</time>
        <extensions>
          <ns3:TrackPointExtension>
            <ns3:atemp>16.0</ns3:atemp>
          </ns3:TrackPointExtension>
        </extensions>
      </trkpt>
      <trkpt lat="42.516019977629184722900390625" lon="20.01047040335834026336669921875">
        <ele>1911.5999755859375</ele>
        <time>2026-06-19T09:19:13.000Z</time>
        <extensions>
          <ns3:TrackPointExtension>
            <ns3:atemp>16.0</ns3:atemp>
          </ns3:TrackPointExtension>
        </extensions>
      </trkpt>
      <trkpt lat="42.516019977629184722900390625" lon="20.01047040335834026336669921875">
        <ele>1911.5999755859375</ele>
        <time>2026-06-19T09:19:14.000Z</time>
        <extensions>
          <ns3:TrackPointExtension>
            <ns3:atemp>16.0</ns3:atemp>
          </ns3:TrackPointExtension>
        </extensions>
      </trkpt>
      <trkpt lat="42.516019977629184722900390625" lon="20.01047040335834026336669921875">
        <ele>1911.5999755859375</ele>
        <time>2026-06-19T09:19:15.000Z</time>
        <extensions>
          <ns3:TrackPointExtension>
            <ns3:atemp>16.0</ns3:atemp>
          </ns3:TrackPointExtension>
        </extensions>
      </trkpt>
      <trkpt lat="42.516019977629184722900390625" lon="20.01047040335834026336669921875">
        <ele>1911.5999755859375</ele>
        <time>2026-06-19T09:19:16.000Z</time>
        <extensions>
          <ns3:TrackPointExtension>
            <ns3:atemp>16.0</ns3:atemp>
          </ns3:TrackPointExtension>
        </extensions>
      </trkpt>
      <trkpt lat="42.516019977629184722900390625" lon="20.01047040335834026336669921875">
        <ele>1911.5999755859375</ele>
        <time>2026-06-19T09:19:17.000Z</time>
        <extensions>
          <ns3:TrackPointExtension>
            <ns3:atemp>16.0</ns3:atemp>
          </ns3:TrackPointExtension>
        </extensions>
      </trkpt>
      <trkpt lat="42.516019977629184722900390625" lon="20.01047040335834026336669921875">
        <ele>1911.5999755859375</ele>
        <time>2026-06-19T09:19:18.000Z</time>
        <extensions>
          <ns3:TrackPointExtension>
            <ns3:atemp>16.0</ns3:atemp>
          </ns3:TrackPointExtension>
        </extensions>
      </trkpt>
      <trkpt lat="42.516019977629184722900390625" lon="20.01047040335834026336669921875">
        <ele>1911.5999755859375</ele>
        <time>2026-06-19T09:19:19.000Z</time>
        <extensions>
          <ns3:TrackPointExtension>
            <ns3:atemp>16.0</ns3:atemp>
          </ns3:TrackPointExtension>
        </extensions>
      </trkpt>
      <trkpt lat="42.516019977629184722900390625" lon="20.01047040335834026336669921875">
        <ele>1911.5999755859375</ele>
        <time>2026-06-19T09:19:20.000Z</time>
        <extensions>
          <ns3:TrackPointExtension>
            <ns3:atemp>16.0</ns3:atemp>
          </ns3:TrackPointExtension>
        </extensions>
      </trkpt>
      <trkpt lat="42.516019977629184722900390625" lon="20.01047040335834026336669921875">
        <ele>1911.5999755859375</ele>
        <time>2026-06-19T09:19:21.000Z</time>
        <extensions>
          <ns3:TrackPointExtension>
            <ns3:atemp>16.0</ns3:atemp>
          </ns3:TrackPointExtension>
        </extensions>
      </trkpt>
      <trkpt lat="42.516019977629184722900390625" lon="20.01047040335834026336669921875">
        <ele>1911.5999755859375</ele>
        <time>2026-06-19T09:19:22.000Z</time>
        <extensions>
          <ns3:TrackPointExtension>
            <ns3:atemp>16.0</ns3:atemp>
          </ns3:TrackPointExtension>
        </extensions>
      </trkpt>
      <trkpt lat="42.516019977629184722900390625" lon="20.01047040335834026336669921875">
        <ele>1911.5999755859375</ele>
        <time>2026-06-19T09:19:23.000Z</time>
        <extensions>
          <ns3:TrackPointExtension>
            <ns3:atemp>16.0</ns3:atemp>
          </ns3:TrackPointExtension>
        </extensions>
      </trkpt>
      <trkpt lat="42.516019977629184722900390625" lon="20.01047040335834026336669921875">
        <ele>1911.5999755859375</ele>
        <time>2026-06-19T09:19:24.000Z</time>
        <extensions>
          <ns3:TrackPointExtension>
            <ns3:atemp>16.0</ns3:atemp>
          </ns3:TrackPointExtension>
        </extensions>
      </trkpt>
      <trkpt lat="42.516019977629184722900390625" lon="20.01047040335834026336669921875">
        <ele>1911.5999755859375</ele>
        <time>2026-06-19T09:19:25.000Z</time>
        <extensions>
          <ns3:TrackPointExtension>
            <ns3:atemp>16.0</ns3:atemp>
          </ns3:TrackPointExtension>
        </extensions>
      </trkpt>
      <trkpt lat="42.516019977629184722900390625" lon="20.01047040335834026336669921875">
        <ele>1911.5999755859375</ele>
        <time>2026-06-19T09:19:26.000Z</time>
        <extensions>
          <ns3:TrackPointExtension>
            <ns3:atemp>16.0</ns3:atemp>
          </ns3:TrackPointExtension>
        </extensions>
      </trkpt>
      <trkpt lat="42.516019977629184722900390625" lon="20.01047040335834026336669921875">
        <ele>1911.5999755859375</ele>
        <time>2026-06-19T09:19:27.000Z</time>
        <extensions>
          <ns3:TrackPointExtension>
            <ns3:atemp>16.0</ns3:atemp>
          </ns3:TrackPointExtension>
        </extensions>
      </trkpt>
      <trkpt lat="42.516019977629184722900390625" lon="20.01047040335834026336669921875">
        <ele>1911.4000244140625</ele>
        <time>2026-06-19T09:19:28.000Z</time>
        <extensions>
          <ns3:TrackPointExtension>
            <ns3:atemp>16.0</ns3:atemp>
          </ns3:TrackPointExtension>
        </extensions>
      </trkpt>
      <trkpt lat="42.516019977629184722900390625" lon="20.01047040335834026336669921875">
        <ele>1911.4000244140625</ele>
        <time>2026-06-19T09:19:29.000Z</time>
        <extensions>
          <ns3:TrackPointExtension>
            <ns3:atemp>16.0</ns3:atemp>
          </ns3:TrackPointExtension>
        </extensions>
      </trkpt>
      <trkpt lat="42.516019977629184722900390625" lon="20.01047040335834026336669921875">
        <ele>1911.4000244140625</ele>
        <time>2026-06-19T09:19:30.000Z</time>
        <extensions>
          <ns3:TrackPointExtension>
            <ns3:atemp>16.0</ns3:atemp>
          </ns3:TrackPointExtension>
        </extensions>
      </trkpt>
      <trkpt lat="42.516019977629184722900390625" lon="20.01047040335834026336669921875">
        <ele>1911.4000244140625</ele>
        <time>2026-06-19T09:19:31.000Z</time>
        <extensions>
          <ns3:TrackPointExtension>
            <ns3:atemp>16.0</ns3:atemp>
          </ns3:TrackPointExtension>
        </extensions>
      </trkpt>
      <trkpt lat="42.516019977629184722900390625" lon="20.01047040335834026336669921875">
        <ele>1911.4000244140625</ele>
        <time>2026-06-19T09:19:32.000Z</time>
        <extensions>
          <ns3:TrackPointExtension>
            <ns3:atemp>16.0</ns3:atemp>
          </ns3:TrackPointExtension>
        </extensions>
      </trkpt>
      <trkpt lat="42.516019977629184722900390625" lon="20.01047040335834026336669921875">
        <ele>1911.4000244140625</ele>
        <time>2026-06-19T09:19:33.000Z</time>
        <extensions>
          <ns3:TrackPointExtension>
            <ns3:atemp>16.0</ns3:atemp>
          </ns3:TrackPointExtension>
        </extensions>
      </trkpt>
      <trkpt lat="42.516019977629184722900390625" lon="20.01047040335834026336669921875">
        <ele>1911.4000244140625</ele>
        <time>2026-06-19T09:19:34.000Z</time>
        <extensions>
          <ns3:TrackPointExtension>
            <ns3:atemp>16.0</ns3:atemp>
          </ns3:TrackPointExtension>
        </extensions>
      </trkpt>
      <trkpt lat="42.516019977629184722900390625" lon="20.01047040335834026336669921875">
        <ele>1911.4000244140625</ele>
        <time>2026-06-19T09:19:35.000Z</time>
        <extensions>
          <ns3:TrackPointExtension>
            <ns3:atemp>16.0</ns3:atemp>
          </ns3:TrackPointExtension>
        </extensions>
      </trkpt>
      <trkpt lat="42.516019977629184722900390625" lon="20.01047040335834026336669921875">
        <ele>1911.4000244140625</ele>
        <time>2026-06-19T09:19:36.000Z</time>
        <extensions>
          <ns3:TrackPointExtension>
            <ns3:atemp>16.0</ns3:atemp>
          </ns3:TrackPointExtension>
        </extensions>
      </trkpt>
      <trkpt lat="42.516019977629184722900390625" lon="20.01047040335834026336669921875">
        <ele>1911.4000244140625</ele>
        <time>2026-06-19T09:19:37.000Z</time>
        <extensions>
          <ns3:TrackPointExtension>
            <ns3:atemp>16.0</ns3:atemp>
          </ns3:TrackPointExtension>
        </extensions>
      </trkpt>
      <trkpt lat="42.516019977629184722900390625" lon="20.01047040335834026336669921875">
        <ele>1911.4000244140625</ele>
        <time>2026-06-19T09:19:38.000Z</time>
        <extensions>
          <ns3:TrackPointExtension>
            <ns3:atemp>16.0</ns3:atemp>
          </ns3:TrackPointExtension>
        </extensions>
      </trkpt>
      <trkpt lat="42.516019977629184722900390625" lon="20.01047040335834026336669921875">
        <ele>1911.5999755859375</ele>
        <time>2026-06-19T09:19:39.000Z</time>
        <extensions>
          <ns3:TrackPointExtension>
            <ns3:atemp>16.0</ns3:atemp>
          </ns3:TrackPointExtension>
        </extensions>
      </trkpt>
      <trkpt lat="42.516019977629184722900390625" lon="20.01047040335834026336669921875">
        <ele>1911.5999755859375</ele>
        <time>2026-06-19T09:19:40.000Z</time>
        <extensions>
          <ns3:TrackPointExtension>
            <ns3:atemp>16.0</ns3:atemp>
          </ns3:TrackPointExtension>
        </extensions>
      </trkpt>
      <trkpt lat="42.516019977629184722900390625" lon="20.01047040335834026336669921875">
        <ele>1911.5999755859375</ele>
        <time>2026-06-19T09:19:41.000Z</time>
        <extensions>
          <ns3:TrackPointExtension>
            <ns3:atemp>16.0</ns3:atemp>
          </ns3:TrackPointExtension>
        </extensions>
      </trkpt>
      <trkpt lat="42.516019977629184722900390625" lon="20.01047040335834026336669921875">
        <ele>1911.5999755859375</ele>
        <time>2026-06-19T09:19:42.000Z</time>
        <extensions>
          <ns3:TrackPointExtension>
            <ns3:atemp>16.0</ns3:atemp>
          </ns3:TrackPointExtension>
        </extensions>
      </trkpt>
      <trkpt lat="42.516019977629184722900390625" lon="20.01047040335834026336669921875">
        <ele>1911.5999755859375</ele>
        <time>2026-06-19T09:19:43.000Z</time>
        <extensions>
          <ns3:TrackPointExtension>
            <ns3:atemp>16.0</ns3:atemp>
          </ns3:TrackPointExtension>
        </extensions>
      </trkpt>
      <trkpt lat="42.516019977629184722900390625" lon="20.01047040335834026336669921875">
        <ele>1911.5999755859375</ele>
        <time>2026-06-19T09:19:44.000Z</time>
        <extensions>
          <ns3:TrackPointExtension>
            <ns3:atemp>16.0</ns3:atemp>
          </ns3:TrackPointExtension>
        </extensions>
      </trkpt>
      <trkpt lat="42.516019977629184722900390625" lon="20.01047040335834026336669921875">
        <ele>1911.5999755859375</ele>
        <time>2026-06-19T09:19:45.000Z</time>
        <extensions>
          <ns3:TrackPointExtension>
            <ns3:atemp>16.0</ns3:atemp>
          </ns3:TrackPointExtension>
        </extensions>
      </trkpt>
      <trkpt lat="42.516019977629184722900390625" lon="20.01047040335834026336669921875">
        <ele>1911.5999755859375</ele>
        <time>2026-06-19T09:19:46.000Z</time>
        <extensions>
          <ns3:TrackPointExtension>
            <ns3:atemp>16.0</ns3:atemp>
          </ns3:TrackPointExtension>
        </extensions>
      </trkpt>
      <trkpt lat="42.516019977629184722900390625" lon="20.01047040335834026336669921875">
        <ele>1911.5999755859375</ele>
        <time>2026-06-19T09:19:47.000Z</time>
        <extensions>
          <ns3:TrackPointExtension>
            <ns3:atemp>16.0</ns3:atemp>
          </ns3:TrackPointExtension>
        </extensions>
      </trkpt>
      <trkpt lat="42.516019977629184722900390625" lon="20.01047040335834026336669921875">
        <ele>1911.5999755859375</ele>
        <time>2026-06-19T09:19:48.000Z</time>
        <extensions>
          <ns3:TrackPointExtension>
            <ns3:atemp>16.0</ns3:atemp>
          </ns3:TrackPointExtension>
        </extensions>
      </trkpt>
      <trkpt lat="42.516019977629184722900390625" lon="20.01047040335834026336669921875">
        <ele>1911.5999755859375</ele>
        <time>2026-06-19T09:19:49.000Z</time>
        <extensions>
          <ns3:TrackPointExtension>
            <ns3:atemp>16.0</ns3:atemp>
          </ns3:TrackPointExtension>
        </extensions>
      </trkpt>
      <trkpt lat="42.516019977629184722900390625" lon="20.01047040335834026336669921875">
        <ele>1911.5999755859375</ele>
        <time>2026-06-19T09:19:50.000Z</time>
        <extensions>
          <ns3:TrackPointExtension>
            <ns3:atemp>16.0</ns3:atemp>
          </ns3:TrackPointExtension>
        </extensions>
      </trkpt>
      <trkpt lat="42.516019977629184722900390625" lon="20.01047040335834026336669921875">
        <ele>1911.5999755859375</ele>
        <time>2026-06-19T09:19:51.000Z</time>
        <extensions>
          <ns3:TrackPointExtension>
            <ns3:atemp>16.0</ns3:atemp>
          </ns3:TrackPointExtension>
        </extensions>
      </trkpt>
      <trkpt lat="42.516019977629184722900390625" lon="20.01047040335834026336669921875">
        <ele>1911.5999755859375</ele>
        <time>2026-06-19T09:19:52.000Z</time>
        <extensions>
          <ns3:TrackPointExtension>
            <ns3:atemp>16.0</ns3:atemp>
          </ns3:TrackPointExtension>
        </extensions>
      </trkpt>
      <trkpt lat="42.516019977629184722900390625" lon="20.01047040335834026336669921875">
        <ele>1911.5999755859375</ele>
        <time>2026-06-19T09:19:53.000Z</time>
        <extensions>
          <ns3:TrackPointExtension>
            <ns3:atemp>16.0</ns3:atemp>
          </ns3:TrackPointExtension>
        </extensions>
      </trkpt>
      <trkpt lat="42.516019977629184722900390625" lon="20.01047040335834026336669921875">
        <ele>1911.5999755859375</ele>
        <time>2026-06-19T09:19:54.000Z</time>
        <extensions>
          <ns3:TrackPointExtension>
            <ns3:atemp>16.0</ns3:atemp>
          </ns3:TrackPointExtension>
        </extensions>
      </trkpt>
      <trkpt lat="42.516019977629184722900390625" lon="20.01047040335834026336669921875">
        <ele>1911.5999755859375</ele>
        <time>2026-06-19T09:19:55.000Z</time>
        <extensions>
          <ns3:TrackPointExtension>
            <ns3:atemp>16.0</ns3:atemp>
          </ns3:TrackPointExtension>
        </extensions>
      </trkpt>
      <trkpt lat="42.516019977629184722900390625" lon="20.01047040335834026336669921875">
        <ele>1911.5999755859375</ele>
        <time>2026-06-19T09:19:56.000Z</time>
        <extensions>
          <ns3:TrackPointExtension>
            <ns3:atemp>16.0</ns3:atemp>
          </ns3:TrackPointExtension>
        </extensions>
      </trkpt>
      <trkpt lat="42.516019977629184722900390625" lon="20.01047040335834026336669921875">
        <ele>1911.5999755859375</ele>
        <time>2026-06-19T09:19:57.000Z</time>
        <extensions>
          <ns3:TrackPointExtension>
            <ns3:atemp>16.0</ns3:atemp>
          </ns3:TrackPointExtension>
        </extensions>
      </trkpt>
      <trkpt lat="42.516019977629184722900390625" lon="20.01047040335834026336669921875">
        <ele>1911.5999755859375</ele>
        <time>2026-06-19T09:19:58.000Z</time>
        <extensions>
          <ns3:TrackPointExtension>
            <ns3:atemp>16.0</ns3:atemp>
          </ns3:TrackPointExtension>
        </extensions>
      </trkpt>
      <trkpt lat="42.516019977629184722900390625" lon="20.01047040335834026336669921875">
        <ele>1911.5999755859375</ele>
        <time>2026-06-19T09:19:59.000Z</time>
        <extensions>
          <ns3:TrackPointExtension>
            <ns3:atemp>16.0</ns3:atemp>
          </ns3:TrackPointExtension>
        </extensions>
      </trkpt>
      <trkpt lat="42.516019977629184722900390625" lon="20.01047040335834026336669921875">
        <ele>1911.5999755859375</ele>
        <time>2026-06-19T09:20:00.000Z</time>
        <extensions>
          <ns3:TrackPointExtension>
            <ns3:atemp>16.0</ns3:atemp>
          </ns3:TrackPointExtension>
        </extensions>
      </trkpt>
      <trkpt lat="42.516019977629184722900390625" lon="20.01047040335834026336669921875">
        <ele>1911.5999755859375</ele>
        <time>2026-06-19T09:20:01.000Z</time>
        <extensions>
          <ns3:TrackPointExtension>
            <ns3:atemp>16.0</ns3:atemp>
          </ns3:TrackPointExtension>
        </extensions>
      </trkpt>
      <trkpt lat="42.516019977629184722900390625" lon="20.01047040335834026336669921875">
        <ele>1911.5999755859375</ele>
        <time>2026-06-19T09:20:02.000Z</time>
        <extensions>
          <ns3:TrackPointExtension>
            <ns3:atemp>16.0</ns3:atemp>
          </ns3:TrackPointExtension>
        </extensions>
      </trkpt>
      <trkpt lat="42.516019977629184722900390625" lon="20.01047040335834026336669921875">
        <ele>1911.5999755859375</ele>
        <time>2026-06-19T09:20:03.000Z</time>
        <extensions>
          <ns3:TrackPointExtension>
            <ns3:atemp>16.0</ns3:atemp>
          </ns3:TrackPointExtension>
        </extensions>
      </trkpt>
      <trkpt lat="42.516019977629184722900390625" lon="20.01047040335834026336669921875">
        <ele>1911.5999755859375</ele>
        <time>2026-06-19T09:20:04.000Z</time>
        <extensions>
          <ns3:TrackPointExtension>
            <ns3:atemp>16.0</ns3:atemp>
          </ns3:TrackPointExtension>
        </extensions>
      </trkpt>
      <trkpt lat="42.516019977629184722900390625" lon="20.01047040335834026336669921875">
        <ele>1911.5999755859375</ele>
        <time>2026-06-19T09:20:05.000Z</time>
        <extensions>
          <ns3:TrackPointExtension>
            <ns3:atemp>16.0</ns3:atemp>
          </ns3:TrackPointExtension>
        </extensions>
      </trkpt>
      <trkpt lat="42.516019977629184722900390625" lon="20.01047040335834026336669921875">
        <ele>1911.5999755859375</ele>
        <time>2026-06-19T09:20:06.000Z</time>
        <extensions>
          <ns3:TrackPointExtension>
            <ns3:atemp>16.0</ns3:atemp>
          </ns3:TrackPointExtension>
        </extensions>
      </trkpt>
      <trkpt lat="42.516019977629184722900390625" lon="20.01047040335834026336669921875">
        <ele>1911.5999755859375</ele>
        <time>2026-06-19T09:20:07.000Z</time>
        <extensions>
          <ns3:TrackPointExtension>
            <ns3:atemp>16.0</ns3:atemp>
          </ns3:TrackPointExtension>
        </extensions>
      </trkpt>
      <trkpt lat="42.516019977629184722900390625" lon="20.01047040335834026336669921875">
        <ele>1911.5999755859375</ele>
        <time>2026-06-19T09:20:08.000Z</time>
        <extensions>
          <ns3:TrackPointExtension>
            <ns3:atemp>16.0</ns3:atemp>
          </ns3:TrackPointExtension>
        </extensions>
      </trkpt>
      <trkpt lat="42.516019977629184722900390625" lon="20.01047040335834026336669921875">
        <ele>1911.5999755859375</ele>
        <time>2026-06-19T09:20:09.000Z</time>
        <extensions>
          <ns3:TrackPointExtension>
            <ns3:atemp>16.0</ns3:atemp>
          </ns3:TrackPointExtension>
        </extensions>
      </trkpt>
      <trkpt lat="42.516019977629184722900390625" lon="20.01047040335834026336669921875">
        <ele>1911.5999755859375</ele>
        <time>2026-06-19T09:20:10.000Z</time>
        <extensions>
          <ns3:TrackPointExtension>
            <ns3:atemp>16.0</ns3:atemp>
          </ns3:TrackPointExtension>
        </extensions>
      </trkpt>
      <trkpt lat="42.516019977629184722900390625" lon="20.01047040335834026336669921875">
        <ele>1911.5999755859375</ele>
        <time>2026-06-19T09:20:11.000Z</time>
        <extensions>
          <ns3:TrackPointExtension>
            <ns3:atemp>16.0</ns3:atemp>
          </ns3:TrackPointExtension>
        </extensions>
      </trkpt>
      <trkpt lat="42.516019977629184722900390625" lon="20.01047040335834026336669921875">
        <ele>1911.5999755859375</ele>
        <time>2026-06-19T09:20:12.000Z</time>
        <extensions>
          <ns3:TrackPointExtension>
            <ns3:atemp>16.0</ns3:atemp>
          </ns3:TrackPointExtension>
        </extensions>
      </trkpt>
      <trkpt lat="42.516019977629184722900390625" lon="20.01047040335834026336669921875">
        <ele>1911.5999755859375</ele>
        <time>2026-06-19T09:20:13.000Z</time>
        <extensions>
          <ns3:TrackPointExtension>
            <ns3:atemp>16.0</ns3:atemp>
          </ns3:TrackPointExtension>
        </extensions>
      </trkpt>
      <trkpt lat="42.516019977629184722900390625" lon="20.01047040335834026336669921875">
        <ele>1911.5999755859375</ele>
        <time>2026-06-19T09:20:14.000Z</time>
        <extensions>
          <ns3:TrackPointExtension>
            <ns3:atemp>16.0</ns3:atemp>
          </ns3:TrackPointExtension>
        </extensions>
      </trkpt>
      <trkpt lat="42.516019977629184722900390625" lon="20.01047040335834026336669921875">
        <ele>1911.5999755859375</ele>
        <time>2026-06-19T09:20:15.000Z</time>
        <extensions>
          <ns3:TrackPointExtension>
            <ns3:atemp>16.0</ns3:atemp>
          </ns3:TrackPointExtension>
        </extensions>
      </trkpt>
      <trkpt lat="42.516019977629184722900390625" lon="20.01047040335834026336669921875">
        <ele>1911.5999755859375</ele>
        <time>2026-06-19T09:20:16.000Z</time>
        <extensions>
          <ns3:TrackPointExtension>
            <ns3:atemp>16.0</ns3:atemp>
          </ns3:TrackPointExtension>
        </extensions>
      </trkpt>
      <trkpt lat="42.516019977629184722900390625" lon="20.01047040335834026336669921875">
        <ele>1911.5999755859375</ele>
        <time>2026-06-19T09:20:17.000Z</time>
        <extensions>
          <ns3:TrackPointExtension>
            <ns3:atemp>16.0</ns3:atemp>
          </ns3:TrackPointExtension>
        </extensions>
      </trkpt>
      <trkpt lat="42.516019977629184722900390625" lon="20.01047040335834026336669921875">
        <ele>1911.5999755859375</ele>
        <time>2026-06-19T09:20:18.000Z</time>
        <extensions>
          <ns3:TrackPointExtension>
            <ns3:atemp>16.0</ns3:atemp>
          </ns3:TrackPointExtension>
        </extensions>
      </trkpt>
      <trkpt lat="42.516019977629184722900390625" lon="20.01047040335834026336669921875">
        <ele>1911.5999755859375</ele>
        <time>2026-06-19T09:20:19.000Z</time>
        <extensions>
          <ns3:TrackPointExtension>
            <ns3:atemp>16.0</ns3:atemp>
          </ns3:TrackPointExtension>
        </extensions>
      </trkpt>
      <trkpt lat="42.516019977629184722900390625" lon="20.01047040335834026336669921875">
        <ele>1911.5999755859375</ele>
        <time>2026-06-19T09:20:20.000Z</time>
        <extensions>
          <ns3:TrackPointExtension>
            <ns3:atemp>16.0</ns3:atemp>
          </ns3:TrackPointExtension>
        </extensions>
      </trkpt>
      <trkpt lat="42.516019977629184722900390625" lon="20.01047040335834026336669921875">
        <ele>1911.5999755859375</ele>
        <time>2026-06-19T09:20:21.000Z</time>
        <extensions>
          <ns3:TrackPointExtension>
            <ns3:atemp>16.0</ns3:atemp>
          </ns3:TrackPointExtension>
        </extensions>
      </trkpt>
      <trkpt lat="42.516019977629184722900390625" lon="20.01047040335834026336669921875">
        <ele>1911.5999755859375</ele>
        <time>2026-06-19T09:20:22.000Z</time>
        <extensions>
          <ns3:TrackPointExtension>
            <ns3:atemp>16.0</ns3:atemp>
          </ns3:TrackPointExtension>
        </extensions>
      </trkpt>
      <trkpt lat="42.516019977629184722900390625" lon="20.01047040335834026336669921875">
        <ele>1911.5999755859375</ele>
        <time>2026-06-19T09:20:23.000Z</time>
        <extensions>
          <ns3:TrackPointExtension>
            <ns3:atemp>16.0</ns3:atemp>
          </ns3:TrackPointExtension>
        </extensions>
      </trkpt>
      <trkpt lat="42.516019977629184722900390625" lon="20.01047040335834026336669921875">
        <ele>1911.5999755859375</ele>
        <time>2026-06-19T09:20:24.000Z</time>
        <extensions>
          <ns3:TrackPointExtension>
            <ns3:atemp>16.0</ns3:atemp>
          </ns3:TrackPointExtension>
        </extensions>
      </trkpt>
      <trkpt lat="42.516019977629184722900390625" lon="20.01047040335834026336669921875">
        <ele>1911.5999755859375</ele>
        <time>2026-06-19T09:20:25.000Z</time>
        <extensions>
          <ns3:TrackPointExtension>
            <ns3:atemp>16.0</ns3:atemp>
          </ns3:TrackPointExtension>
        </extensions>
      </trkpt>
      <trkpt lat="42.516019977629184722900390625" lon="20.01047040335834026336669921875">
        <ele>1911.5999755859375</ele>
        <time>2026-06-19T09:20:26.000Z</time>
        <extensions>
          <ns3:TrackPointExtension>
            <ns3:atemp>16.0</ns3:atemp>
          </ns3:TrackPointExtension>
        </extensions>
      </trkpt>
      <trkpt lat="42.516019977629184722900390625" lon="20.01047040335834026336669921875">
        <ele>1911.5999755859375</ele>
        <time>2026-06-19T09:20:27.000Z</time>
        <extensions>
          <ns3:TrackPointExtension>
            <ns3:atemp>16.0</ns3:atemp>
          </ns3:TrackPointExtension>
        </extensions>
      </trkpt>
      <trkpt lat="42.516019977629184722900390625" lon="20.01047040335834026336669921875">
        <ele>1911.5999755859375</ele>
        <time>2026-06-19T09:20:28.000Z</time>
        <extensions>
          <ns3:TrackPointExtension>
            <ns3:atemp>16.0</ns3:atemp>
          </ns3:TrackPointExtension>
        </extensions>
      </trkpt>
      <trkpt lat="42.516019977629184722900390625" lon="20.01047040335834026336669921875">
        <ele>1911.5999755859375</ele>
        <time>2026-06-19T09:20:29.000Z</time>
        <extensions>
          <ns3:TrackPointExtension>
            <ns3:atemp>16.0</ns3:atemp>
          </ns3:TrackPointExtension>
        </extensions>
      </trkpt>
      <trkpt lat="42.516019977629184722900390625" lon="20.01047040335834026336669921875">
        <ele>1911.5999755859375</ele>
        <time>2026-06-19T09:20:30.000Z</time>
        <extensions>
          <ns3:TrackPointExtension>
            <ns3:atemp>16.0</ns3:atemp>
          </ns3:TrackPointExtension>
        </extensions>
      </trkpt>
      <trkpt lat="42.516019977629184722900390625" lon="20.01047040335834026336669921875">
        <ele>1911.5999755859375</ele>
        <time>2026-06-19T09:20:31.000Z</time>
        <extensions>
          <ns3:TrackPointExtension>
            <ns3:atemp>16.0</ns3:atemp>
          </ns3:TrackPointExtension>
        </extensions>
      </trkpt>
      <trkpt lat="42.516019977629184722900390625" lon="20.01047040335834026336669921875">
        <ele>1911.5999755859375</ele>
        <time>2026-06-19T09:20:32.000Z</time>
        <extensions>
          <ns3:TrackPointExtension>
            <ns3:atemp>17.0</ns3:atemp>
          </ns3:TrackPointExtension>
        </extensions>
      </trkpt>
      <trkpt lat="42.516019977629184722900390625" lon="20.01047040335834026336669921875">
        <ele>1911.5999755859375</ele>
        <time>2026-06-19T09:20:33.000Z</time>
        <extensions>
          <ns3:TrackPointExtension>
            <ns3:atemp>17.0</ns3:atemp>
          </ns3:TrackPointExtension>
        </extensions>
      </trkpt>
      <trkpt lat="42.516019977629184722900390625" lon="20.01047040335834026336669921875">
        <ele>1911.5999755859375</ele>
        <time>2026-06-19T09:20:34.000Z</time>
        <extensions>
          <ns3:TrackPointExtension>
            <ns3:atemp>17.0</ns3:atemp>
          </ns3:TrackPointExtension>
        </extensions>
      </trkpt>
      <trkpt lat="42.516019977629184722900390625" lon="20.01047040335834026336669921875">
        <ele>1911.5999755859375</ele>
        <time>2026-06-19T09:20:35.000Z</time>
        <extensions>
          <ns3:TrackPointExtension>
            <ns3:atemp>17.0</ns3:atemp>
          </ns3:TrackPointExtension>
        </extensions>
      </trkpt>
      <trkpt lat="42.516019977629184722900390625" lon="20.01047040335834026336669921875">
        <ele>1911.5999755859375</ele>
        <time>2026-06-19T09:20:36.000Z</time>
        <extensions>
          <ns3:TrackPointExtension>
            <ns3:atemp>17.0</ns3:atemp>
          </ns3:TrackPointExtension>
        </extensions>
      </trkpt>
      <trkpt lat="42.516019977629184722900390625" lon="20.01047040335834026336669921875">
        <ele>1911.5999755859375</ele>
        <time>2026-06-19T09:20:37.000Z</time>
        <extensions>
          <ns3:TrackPointExtension>
            <ns3:atemp>17.0</ns3:atemp>
          </ns3:TrackPointExtension>
        </extensions>
      </trkpt>
      <trkpt lat="42.516019977629184722900390625" lon="20.01047040335834026336669921875">
        <ele>1911.5999755859375</ele>
        <time>2026-06-19T09:20:38.000Z</time>
        <extensions>
          <ns3:TrackPointExtension>
            <ns3:atemp>17.0</ns3:atemp>
          </ns3:TrackPointExtension>
        </extensions>
      </trkpt>
      <trkpt lat="42.516019977629184722900390625" lon="20.01047040335834026336669921875">
        <ele>1911.5999755859375</ele>
        <time>2026-06-19T09:20:39.000Z</time>
        <extensions>
          <ns3:TrackPointExtension>
            <ns3:atemp>16.0</ns3:atemp>
          </ns3:TrackPointExtension>
        </extensions>
      </trkpt>
      <trkpt lat="42.516019977629184722900390625" lon="20.01047040335834026336669921875">
        <ele>1911.5999755859375</ele>
        <time>2026-06-19T09:20:40.000Z</time>
        <extensions>
          <ns3:TrackPointExtension>
            <ns3:atemp>17.0</ns3:atemp>
          </ns3:TrackPointExtension>
        </extensions>
      </trkpt>
      <trkpt lat="42.516019977629184722900390625" lon="20.01047040335834026336669921875">
        <ele>1911.5999755859375</ele>
        <time>2026-06-19T09:20:41.000Z</time>
        <extensions>
          <ns3:TrackPointExtension>
            <ns3:atemp>17.0</ns3:atemp>
          </ns3:TrackPointExtension>
        </extensions>
      </trkpt>
      <trkpt lat="42.516019977629184722900390625" lon="20.01047040335834026336669921875">
        <ele>1911.5999755859375</ele>
        <time>2026-06-19T09:20:42.000Z</time>
        <extensions>
          <ns3:TrackPointExtension>
            <ns3:atemp>16.0</ns3:atemp>
          </ns3:TrackPointExtension>
        </extensions>
      </trkpt>
      <trkpt lat="42.516019977629184722900390625" lon="20.01047040335834026336669921875">
        <ele>1911.5999755859375</ele>
        <time>2026-06-19T09:20:43.000Z</time>
        <extensions>
          <ns3:TrackPointExtension>
            <ns3:atemp>17.0</ns3:atemp>
          </ns3:TrackPointExtension>
        </extensions>
      </trkpt>
      <trkpt lat="42.516019977629184722900390625" lon="20.01047040335834026336669921875">
        <ele>1911.5999755859375</ele>
        <time>2026-06-19T09:20:44.000Z</time>
        <extensions>
          <ns3:TrackPointExtension>
            <ns3:atemp>17.0</ns3:atemp>
          </ns3:TrackPointExtension>
        </extensions>
      </trkpt>
      <trkpt lat="42.516019977629184722900390625" lon="20.01047040335834026336669921875">
        <ele>1911.5999755859375</ele>
        <time>2026-06-19T09:20:45.000Z</time>
        <extensions>
          <ns3:TrackPointExtension>
            <ns3:atemp>17.0</ns3:atemp>
          </ns3:TrackPointExtension>
        </extensions>
      </trkpt>
      <trkpt lat="42.516019977629184722900390625" lon="20.01047040335834026336669921875">
        <ele>1911.5999755859375</ele>
        <time>2026-06-19T09:20:46.000Z</time>
        <extensions>
          <ns3:TrackPointExtension>
            <ns3:atemp>17.0</ns3:atemp>
          </ns3:TrackPointExtension>
        </extensions>
      </trkpt>
      <trkpt lat="42.516019977629184722900390625" lon="20.01047040335834026336669921875">
        <ele>1911.5999755859375</ele>
        <time>2026-06-19T09:20:47.000Z</time>
        <extensions>
          <ns3:TrackPointExtension>
            <ns3:atemp>17.0</ns3:atemp>
          </ns3:TrackPointExtension>
        </extensions>
      </trkpt>
      <trkpt lat="42.516019977629184722900390625" lon="20.01047040335834026336669921875">
        <ele>1911.5999755859375</ele>
        <time>2026-06-19T09:20:48.000Z</time>
        <extensions>
          <ns3:TrackPointExtension>
            <ns3:atemp>17.0</ns3:atemp>
          </ns3:TrackPointExtension>
        </extensions>
      </trkpt>
      <trkpt lat="42.516019977629184722900390625" lon="20.01047040335834026336669921875">
        <ele>1911.5999755859375</ele>
        <time>2026-06-19T09:20:49.000Z</time>
        <extensions>
          <ns3:TrackPointExtension>
            <ns3:atemp>17.0</ns3:atemp>
          </ns3:TrackPointExtension>
        </extensions>
      </trkpt>
      <trkpt lat="42.516019977629184722900390625" lon="20.01047040335834026336669921875">
        <ele>1911.5999755859375</ele>
        <time>2026-06-19T09:20:50.000Z</time>
        <extensions>
          <ns3:TrackPointExtension>
            <ns3:atemp>17.0</ns3:atemp>
          </ns3:TrackPointExtension>
        </extensions>
      </trkpt>
      <trkpt lat="42.516019977629184722900390625" lon="20.01047040335834026336669921875">
        <ele>1911.5999755859375</ele>
        <time>2026-06-19T09:20:51.000Z</time>
        <extensions>
          <ns3:TrackPointExtension>
            <ns3:atemp>17.0</ns3:atemp>
          </ns3:TrackPointExtension>
        </extensions>
      </trkpt>
      <trkpt lat="42.516019977629184722900390625" lon="20.01047040335834026336669921875">
        <ele>1911.5999755859375</ele>
        <time>2026-06-19T09:20:52.000Z</time>
        <extensions>
          <ns3:TrackPointExtension>
            <ns3:atemp>17.0</ns3:atemp>
          </ns3:TrackPointExtension>
        </extensions>
      </trkpt>
      <trkpt lat="42.516019977629184722900390625" lon="20.01047040335834026336669921875">
        <ele>1911.5999755859375</ele>
        <time>2026-06-19T09:20:53.000Z</time>
        <extensions>
          <ns3:TrackPointExtension>
            <ns3:atemp>17.0</ns3:atemp>
          </ns3:TrackPointExtension>
        </extensions>
      </trkpt>
      <trkpt lat="42.516019977629184722900390625" lon="20.01047040335834026336669921875">
        <ele>1911.5999755859375</ele>
        <time>2026-06-19T09:20:54.000Z</time>
        <extensions>
          <ns3:TrackPointExtension>
            <ns3:atemp>17.0</ns3:atemp>
          </ns3:TrackPointExtension>
        </extensions>
      </trkpt>
      <trkpt lat="42.516019977629184722900390625" lon="20.01047040335834026336669921875">
        <ele>1911.5999755859375</ele>
        <time>2026-06-19T09:20:55.000Z</time>
        <extensions>
          <ns3:TrackPointExtension>
            <ns3:atemp>17.0</ns3:atemp>
          </ns3:TrackPointExtension>
        </extensions>
      </trkpt>
      <trkpt lat="42.516019977629184722900390625" lon="20.01047040335834026336669921875">
        <ele>1911.5999755859375</ele>
        <time>2026-06-19T09:20:56.000Z</time>
        <extensions>
          <ns3:TrackPointExtension>
            <ns3:atemp>17.0</ns3:atemp>
          </ns3:TrackPointExtension>
        </extensions>
      </trkpt>
      <trkpt lat="42.516019977629184722900390625" lon="20.01047040335834026336669921875">
        <ele>1911.5999755859375</ele>
        <time>2026-06-19T09:20:57.000Z</time>
        <extensions>
          <ns3:TrackPointExtension>
            <ns3:atemp>17.0</ns3:atemp>
          </ns3:TrackPointExtension>
        </extensions>
      </trkpt>
      <trkpt lat="42.516019977629184722900390625" lon="20.01047040335834026336669921875">
        <ele>1911.5999755859375</ele>
        <time>2026-06-19T09:20:58.000Z</time>
        <extensions>
          <ns3:TrackPointExtension>
            <ns3:atemp>17.0</ns3:atemp>
          </ns3:TrackPointExtension>
        </extensions>
      </trkpt>
      <trkpt lat="42.516019977629184722900390625" lon="20.01047040335834026336669921875">
        <ele>1911.5999755859375</ele>
        <time>2026-06-19T09:20:59.000Z</time>
        <extensions>
          <ns3:TrackPointExtension>
            <ns3:atemp>17.0</ns3:atemp>
          </ns3:TrackPointExtension>
        </extensions>
      </trkpt>
      <trkpt lat="42.516019977629184722900390625" lon="20.01047040335834026336669921875">
        <ele>1911.5999755859375</ele>
        <time>2026-06-19T09:21:00.000Z</time>
        <extensions>
          <ns3:TrackPointExtension>
            <ns3:atemp>17.0</ns3:atemp>
          </ns3:TrackPointExtension>
        </extensions>
      </trkpt>
      <trkpt lat="42.516019977629184722900390625" lon="20.01047040335834026336669921875">
        <ele>1911.5999755859375</ele>
        <time>2026-06-19T09:21:01.000Z</time>
        <extensions>
          <ns3:TrackPointExtension>
            <ns3:atemp>17.0</ns3:atemp>
          </ns3:TrackPointExtension>
        </extensions>
      </trkpt>
      <trkpt lat="42.516019977629184722900390625" lon="20.01047040335834026336669921875">
        <ele>1911.5999755859375</ele>
        <time>2026-06-19T09:21:02.000Z</time>
        <extensions>
          <ns3:TrackPointExtension>
            <ns3:atemp>17.0</ns3:atemp>
          </ns3:TrackPointExtension>
        </extensions>
      </trkpt>
      <trkpt lat="42.516019977629184722900390625" lon="20.01047040335834026336669921875">
        <ele>1911.5999755859375</ele>
        <time>2026-06-19T09:21:03.000Z</time>
        <extensions>
          <ns3:TrackPointExtension>
            <ns3:atemp>17.0</ns3:atemp>
          </ns3:TrackPointExtension>
        </extensions>
      </trkpt>
      <trkpt lat="42.516019977629184722900390625" lon="20.01047040335834026336669921875">
        <ele>1911.5999755859375</ele>
        <time>2026-06-19T09:21:04.000Z</time>
        <extensions>
          <ns3:TrackPointExtension>
            <ns3:atemp>17.0</ns3:atemp>
          </ns3:TrackPointExtension>
        </extensions>
      </trkpt>
      <trkpt lat="42.516019977629184722900390625" lon="20.01047040335834026336669921875">
        <ele>1911.5999755859375</ele>
        <time>2026-06-19T09:21:05.000Z</time>
        <extensions>
          <ns3:TrackPointExtension>
            <ns3:atemp>17.0</ns3:atemp>
          </ns3:TrackPointExtension>
        </extensions>
      </trkpt>
      <trkpt lat="42.516019977629184722900390625" lon="20.01047040335834026336669921875">
        <ele>1911.5999755859375</ele>
        <time>2026-06-19T09:21:06.000Z</time>
        <extensions>
          <ns3:TrackPointExtension>
            <ns3:atemp>17.0</ns3:atemp>
          </ns3:TrackPointExtension>
        </extensions>
      </trkpt>
      <trkpt lat="42.516019977629184722900390625" lon="20.01047040335834026336669921875">
        <ele>1911.5999755859375</ele>
        <time>2026-06-19T09:21:07.000Z</time>
        <extensions>
          <ns3:TrackPointExtension>
            <ns3:atemp>17.0</ns3:atemp>
          </ns3:TrackPointExtension>
        </extensions>
      </trkpt>
      <trkpt lat="42.516019977629184722900390625" lon="20.01047040335834026336669921875">
        <ele>1911.5999755859375</ele>
        <time>2026-06-19T09:21:08.000Z</time>
        <extensions>
          <ns3:TrackPointExtension>
            <ns3:atemp>17.0</ns3:atemp>
          </ns3:TrackPointExtension>
        </extensions>
      </trkpt>
      <trkpt lat="42.516019977629184722900390625" lon="20.01047040335834026336669921875">
        <ele>1911.5999755859375</ele>
        <time>2026-06-19T09:21:09.000Z</time>
        <extensions>
          <ns3:TrackPointExtension>
            <ns3:atemp>17.0</ns3:atemp>
          </ns3:TrackPointExtension>
        </extensions>
      </trkpt>
      <trkpt lat="42.516019977629184722900390625" lon="20.01047040335834026336669921875">
        <ele>1911.5999755859375</ele>
        <time>2026-06-19T09:21:10.000Z</time>
        <extensions>
          <ns3:TrackPointExtension>
            <ns3:atemp>17.0</ns3:atemp>
          </ns3:TrackPointExtension>
        </extensions>
      </trkpt>
      <trkpt lat="42.516019977629184722900390625" lon="20.01047040335834026336669921875">
        <ele>1911.5999755859375</ele>
        <time>2026-06-19T09:21:11.000Z</time>
        <extensions>
          <ns3:TrackPointExtension>
            <ns3:atemp>17.0</ns3:atemp>
          </ns3:TrackPointExtension>
        </extensions>
      </trkpt>
      <trkpt lat="42.516019977629184722900390625" lon="20.01047040335834026336669921875">
        <ele>1911.5999755859375</ele>
        <time>2026-06-19T09:21:12.000Z</time>
        <extensions>
          <ns3:TrackPointExtension>
            <ns3:atemp>17.0</ns3:atemp>
          </ns3:TrackPointExtension>
        </extensions>
      </trkpt>
      <trkpt lat="42.516019977629184722900390625" lon="20.01047040335834026336669921875">
        <ele>1911.5999755859375</ele>
        <time>2026-06-19T09:21:13.000Z</time>
        <extensions>
          <ns3:TrackPointExtension>
            <ns3:atemp>17.0</ns3:atemp>
          </ns3:TrackPointExtension>
        </extensions>
      </trkpt>
      <trkpt lat="42.516019977629184722900390625" lon="20.01047040335834026336669921875">
        <ele>1911.5999755859375</ele>
        <time>2026-06-19T09:21:14.000Z</time>
        <extensions>
          <ns3:TrackPointExtension>
            <ns3:atemp>17.0</ns3:atemp>
          </ns3:TrackPointExtension>
        </extensions>
      </trkpt>
      <trkpt lat="42.516019977629184722900390625" lon="20.01047040335834026336669921875">
        <ele>1911.5999755859375</ele>
        <time>2026-06-19T09:21:15.000Z</time>
        <extensions>
          <ns3:TrackPointExtension>
            <ns3:atemp>17.0</ns3:atemp>
          </ns3:TrackPointExtension>
        </extensions>
      </trkpt>
      <trkpt lat="42.516019977629184722900390625" lon="20.01047040335834026336669921875">
        <ele>1911.5999755859375</ele>
        <time>2026-06-19T09:21:16.000Z</time>
        <extensions>
          <ns3:TrackPointExtension>
            <ns3:atemp>17.0</ns3:atemp>
          </ns3:TrackPointExtension>
        </extensions>
      </trkpt>
      <trkpt lat="42.516019977629184722900390625" lon="20.01047040335834026336669921875">
        <ele>1911.5999755859375</ele>
        <time>2026-06-19T09:21:17.000Z</time>
        <extensions>
          <ns3:TrackPointExtension>
            <ns3:atemp>17.0</ns3:atemp>
          </ns3:TrackPointExtension>
        </extensions>
      </trkpt>
      <trkpt lat="42.516019977629184722900390625" lon="20.01047040335834026336669921875">
        <ele>1911.5999755859375</ele>
        <time>2026-06-19T09:21:18.000Z</time>
        <extensions>
          <ns3:TrackPointExtension>
            <ns3:atemp>17.0</ns3:atemp>
          </ns3:TrackPointExtension>
        </extensions>
      </trkpt>
      <trkpt lat="42.516019977629184722900390625" lon="20.01047040335834026336669921875">
        <ele>1911.5999755859375</ele>
        <time>2026-06-19T09:21:19.000Z</time>
        <extensions>
          <ns3:TrackPointExtension>
            <ns3:atemp>17.0</ns3:atemp>
          </ns3:TrackPointExtension>
        </extensions>
      </trkpt>
      <trkpt lat="42.516019977629184722900390625" lon="20.01047040335834026336669921875">
        <ele>1911.5999755859375</ele>
        <time>2026-06-19T09:21:20.000Z</time>
        <extensions>
          <ns3:TrackPointExtension>
            <ns3:atemp>17.0</ns3:atemp>
          </ns3:TrackPointExtension>
        </extensions>
      </trkpt>
      <trkpt lat="42.516019977629184722900390625" lon="20.01047040335834026336669921875">
        <ele>1911.5999755859375</ele>
        <time>2026-06-19T09:21:21.000Z</time>
        <extensions>
          <ns3:TrackPointExtension>
            <ns3:atemp>17.0</ns3:atemp>
          </ns3:TrackPointExtension>
        </extensions>
      </trkpt>
      <trkpt lat="42.516019977629184722900390625" lon="20.01047040335834026336669921875">
        <ele>1911.5999755859375</ele>
        <time>2026-06-19T09:21:22.000Z</time>
        <extensions>
          <ns3:TrackPointExtension>
            <ns3:atemp>17.0</ns3:atemp>
          </ns3:TrackPointExtension>
        </extensions>
      </trkpt>
      <trkpt lat="42.516019977629184722900390625" lon="20.01047040335834026336669921875">
        <ele>1911.5999755859375</ele>
        <time>2026-06-19T09:21:23.000Z</time>
        <extensions>
          <ns3:TrackPointExtension>
            <ns3:atemp>17.0</ns3:atemp>
          </ns3:TrackPointExtension>
        </extensions>
      </trkpt>
      <trkpt lat="42.516019977629184722900390625" lon="20.01047040335834026336669921875">
        <ele>1911.5999755859375</ele>
        <time>2026-06-19T09:21:24.000Z</time>
        <extensions>
          <ns3:TrackPointExtension>
            <ns3:atemp>17.0</ns3:atemp>
          </ns3:TrackPointExtension>
        </extensions>
      </trkpt>
      <trkpt lat="42.516019977629184722900390625" lon="20.01047040335834026336669921875">
        <ele>1911.5999755859375</ele>
        <time>2026-06-19T09:21:25.000Z</time>
        <extensions>
          <ns3:TrackPointExtension>
            <ns3:atemp>17.0</ns3:atemp>
          </ns3:TrackPointExtension>
        </extensions>
      </trkpt>
      <trkpt lat="42.516019977629184722900390625" lon="20.01047040335834026336669921875">
        <ele>1911.5999755859375</ele>
        <time>2026-06-19T09:21:26.000Z</time>
        <extensions>
          <ns3:TrackPointExtension>
            <ns3:atemp>17.0</ns3:atemp>
          </ns3:TrackPointExtension>
        </extensions>
      </trkpt>
      <trkpt lat="42.516019977629184722900390625" lon="20.01047040335834026336669921875">
        <ele>1911.5999755859375</ele>
        <time>2026-06-19T09:21:27.000Z</time>
        <extensions>
          <ns3:TrackPointExtension>
            <ns3:atemp>17.0</ns3:atemp>
          </ns3:TrackPointExtension>
        </extensions>
      </trkpt>
      <trkpt lat="42.516019977629184722900390625" lon="20.01047040335834026336669921875">
        <ele>1911.5999755859375</ele>
        <time>2026-06-19T09:21:28.000Z</time>
        <extensions>
          <ns3:TrackPointExtension>
            <ns3:atemp>17.0</ns3:atemp>
          </ns3:TrackPointExtension>
        </extensions>
      </trkpt>
      <trkpt lat="42.516019977629184722900390625" lon="20.01047040335834026336669921875">
        <ele>1911.5999755859375</ele>
        <time>2026-06-19T09:21:29.000Z</time>
        <extensions>
          <ns3:TrackPointExtension>
            <ns3:atemp>17.0</ns3:atemp>
          </ns3:TrackPointExtension>
        </extensions>
      </trkpt>
      <trkpt lat="42.516019977629184722900390625" lon="20.01047040335834026336669921875">
        <ele>1911.5999755859375</ele>
        <time>2026-06-19T09:21:30.000Z</time>
        <extensions>
          <ns3:TrackPointExtension>
            <ns3:atemp>17.0</ns3:atemp>
          </ns3:TrackPointExtension>
        </extensions>
      </trkpt>
      <trkpt lat="42.516019977629184722900390625" lon="20.01047040335834026336669921875">
        <ele>1911.5999755859375</ele>
        <time>2026-06-19T09:21:31.000Z</time>
        <extensions>
          <ns3:TrackPointExtension>
            <ns3:atemp>17.0</ns3:atemp>
          </ns3:TrackPointExtension>
        </extensions>
      </trkpt>
      <trkpt lat="42.516019977629184722900390625" lon="20.01047040335834026336669921875">
        <ele>1911.5999755859375</ele>
        <time>2026-06-19T09:21:32.000Z</time>
        <extensions>
          <ns3:TrackPointExtension>
            <ns3:atemp>17.0</ns3:atemp>
          </ns3:TrackPointExtension>
        </extensions>
      </trkpt>
      <trkpt lat="42.516019977629184722900390625" lon="20.01047040335834026336669921875">
        <ele>1911.5999755859375</ele>
        <time>2026-06-19T09:21:33.000Z</time>
        <extensions>
          <ns3:TrackPointExtension>
            <ns3:atemp>17.0</ns3:atemp>
          </ns3:TrackPointExtension>
        </extensions>
      </trkpt>
      <trkpt lat="42.516019977629184722900390625" lon="20.01047040335834026336669921875">
        <ele>1911.5999755859375</ele>
        <time>2026-06-19T09:21:34.000Z</time>
        <extensions>
          <ns3:TrackPointExtension>
            <ns3:atemp>17.0</ns3:atemp>
          </ns3:TrackPointExtension>
        </extensions>
      </trkpt>
      <trkpt lat="42.516019977629184722900390625" lon="20.01047040335834026336669921875">
        <ele>1911.5999755859375</ele>
        <time>2026-06-19T09:21:35.000Z</time>
        <extensions>
          <ns3:TrackPointExtension>
            <ns3:atemp>17.0</ns3:atemp>
          </ns3:TrackPointExtension>
        </extensions>
      </trkpt>
      <trkpt lat="42.516019977629184722900390625" lon="20.01047040335834026336669921875">
        <ele>1911.5999755859375</ele>
        <time>2026-06-19T09:21:36.000Z</time>
        <extensions>
          <ns3:TrackPointExtension>
            <ns3:atemp>17.0</ns3:atemp>
          </ns3:TrackPointExtension>
        </extensions>
      </trkpt>
      <trkpt lat="42.516019977629184722900390625" lon="20.01047040335834026336669921875">
        <ele>1911.5999755859375</ele>
        <time>2026-06-19T09:21:37.000Z</time>
        <extensions>
          <ns3:TrackPointExtension>
            <ns3:atemp>17.0</ns3:atemp>
          </ns3:TrackPointExtension>
        </extensions>
      </trkpt>
      <trkpt lat="42.516019977629184722900390625" lon="20.01047040335834026336669921875">
        <ele>1911.5999755859375</ele>
        <time>2026-06-19T09:21:38.000Z</time>
        <extensions>
          <ns3:TrackPointExtension>
            <ns3:atemp>17.0</ns3:atemp>
          </ns3:TrackPointExtension>
        </extensions>
      </trkpt>
      <trkpt lat="42.516019977629184722900390625" lon="20.01047040335834026336669921875">
        <ele>1911.5999755859375</ele>
        <time>2026-06-19T09:21:39.000Z</time>
        <extensions>
          <ns3:TrackPointExtension>
            <ns3:atemp>17.0</ns3:atemp>
          </ns3:TrackPointExtension>
        </extensions>
      </trkpt>
      <trkpt lat="42.516019977629184722900390625" lon="20.01047040335834026336669921875">
        <ele>1911.5999755859375</ele>
        <time>2026-06-19T09:21:40.000Z</time>
        <extensions>
          <ns3:TrackPointExtension>
            <ns3:atemp>17.0</ns3:atemp>
          </ns3:TrackPointExtension>
        </extensions>
      </trkpt>
      <trkpt lat="42.516019977629184722900390625" lon="20.01047040335834026336669921875">
        <ele>1911.5999755859375</ele>
        <time>2026-06-19T09:21:41.000Z</time>
        <extensions>
          <ns3:TrackPointExtension>
            <ns3:atemp>17.0</ns3:atemp>
          </ns3:TrackPointExtension>
        </extensions>
      </trkpt>
      <trkpt lat="42.516019977629184722900390625" lon="20.01047040335834026336669921875">
        <ele>1911.5999755859375</ele>
        <time>2026-06-19T09:21:42.000Z</time>
        <extensions>
          <ns3:TrackPointExtension>
            <ns3:atemp>17.0</ns3:atemp>
          </ns3:TrackPointExtension>
        </extensions>
      </trkpt>
      <trkpt lat="42.516019977629184722900390625" lon="20.01047040335834026336669921875">
        <ele>1911.5999755859375</ele>
        <time>2026-06-19T09:21:43.000Z</time>
        <extensions>
          <ns3:TrackPointExtension>
            <ns3:atemp>17.0</ns3:atemp>
          </ns3:TrackPointExtension>
        </extensions>
      </trkpt>
      <trkpt lat="42.516019977629184722900390625" lon="20.01047040335834026336669921875">
        <ele>1911.5999755859375</ele>
        <time>2026-06-19T09:21:44.000Z</time>
        <extensions>
          <ns3:TrackPointExtension>
            <ns3:atemp>17.0</ns3:atemp>
          </ns3:TrackPointExtension>
        </extensions>
      </trkpt>
      <trkpt lat="42.516019977629184722900390625" lon="20.01047040335834026336669921875">
        <ele>1911.5999755859375</ele>
        <time>2026-06-19T09:21:45.000Z</time>
        <extensions>
          <ns3:TrackPointExtension>
            <ns3:atemp>17.0</ns3:atemp>
          </ns3:TrackPointExtension>
        </extensions>
      </trkpt>
      <trkpt lat="42.516019977629184722900390625" lon="20.01047040335834026336669921875">
        <ele>1911.5999755859375</ele>
        <time>2026-06-19T09:21:46.000Z</time>
        <extensions>
          <ns3:TrackPointExtension>
            <ns3:atemp>17.0</ns3:atemp>
          </ns3:TrackPointExtension>
        </extensions>
      </trkpt>
      <trkpt lat="42.516019977629184722900390625" lon="20.01047040335834026336669921875">
        <ele>1911.5999755859375</ele>
        <time>2026-06-19T09:21:47.000Z</time>
        <extensions>
          <ns3:TrackPointExtension>
            <ns3:atemp>17.0</ns3:atemp>
          </ns3:TrackPointExtension>
        </extensions>
      </trkpt>
      <trkpt lat="42.516019977629184722900390625" lon="20.01047040335834026336669921875">
        <ele>1911.5999755859375</ele>
        <time>2026-06-19T09:21:48.000Z</time>
        <extensions>
          <ns3:TrackPointExtension>
            <ns3:atemp>17.0</ns3:atemp>
          </ns3:TrackPointExtension>
        </extensions>
      </trkpt>
      <trkpt lat="42.516019977629184722900390625" lon="20.01047040335834026336669921875">
        <ele>1911.5999755859375</ele>
        <time>2026-06-19T09:21:49.000Z</time>
        <extensions>
          <ns3:TrackPointExtension>
            <ns3:atemp>17.0</ns3:atemp>
          </ns3:TrackPointExtension>
        </extensions>
      </trkpt>
      <trkpt lat="42.516019977629184722900390625" lon="20.01047040335834026336669921875">
        <ele>1911.5999755859375</ele>
        <time>2026-06-19T09:21:50.000Z</time>
        <extensions>
          <ns3:TrackPointExtension>
            <ns3:atemp>17.0</ns3:atemp>
          </ns3:TrackPointExtension>
        </extensions>
      </trkpt>
      <trkpt lat="42.516019977629184722900390625" lon="20.01047040335834026336669921875">
        <ele>1911.5999755859375</ele>
        <time>2026-06-19T09:21:51.000Z</time>
        <extensions>
          <ns3:TrackPointExtension>
            <ns3:atemp>17.0</ns3:atemp>
          </ns3:TrackPointExtension>
        </extensions>
      </trkpt>
      <trkpt lat="42.516019977629184722900390625" lon="20.01047040335834026336669921875">
        <ele>1911.5999755859375</ele>
        <time>2026-06-19T09:21:52.000Z</time>
        <extensions>
          <ns3:TrackPointExtension>
            <ns3:atemp>17.0</ns3:atemp>
          </ns3:TrackPointExtension>
        </extensions>
      </trkpt>
      <trkpt lat="42.516019977629184722900390625" lon="20.01047040335834026336669921875">
        <ele>1911.5999755859375</ele>
        <time>2026-06-19T09:21:53.000Z</time>
        <extensions>
          <ns3:TrackPointExtension>
            <ns3:atemp>17.0</ns3:atemp>
          </ns3:TrackPointExtension>
        </extensions>
      </trkpt>
      <trkpt lat="42.516019977629184722900390625" lon="20.01047040335834026336669921875">
        <ele>1911.5999755859375</ele>
        <time>2026-06-19T09:21:54.000Z</time>
        <extensions>
          <ns3:TrackPointExtension>
            <ns3:atemp>17.0</ns3:atemp>
          </ns3:TrackPointExtension>
        </extensions>
      </trkpt>
      <trkpt lat="42.516019977629184722900390625" lon="20.01047040335834026336669921875">
        <ele>1911.5999755859375</ele>
        <time>2026-06-19T09:21:55.000Z</time>
        <extensions>
          <ns3:TrackPointExtension>
            <ns3:atemp>17.0</ns3:atemp>
          </ns3:TrackPointExtension>
        </extensions>
      </trkpt>
      <trkpt lat="42.516019977629184722900390625" lon="20.01047040335834026336669921875">
        <ele>1911.5999755859375</ele>
        <time>2026-06-19T09:21:56.000Z</time>
        <extensions>
          <ns3:TrackPointExtension>
            <ns3:atemp>17.0</ns3:atemp>
          </ns3:TrackPointExtension>
        </extensions>
      </trkpt>
      <trkpt lat="42.516019977629184722900390625" lon="20.01047040335834026336669921875">
        <ele>1911.5999755859375</ele>
        <time>2026-06-19T09:21:57.000Z</time>
        <extensions>
          <ns3:TrackPointExtension>
            <ns3:atemp>17.0</ns3:atemp>
          </ns3:TrackPointExtension>
        </extensions>
      </trkpt>
      <trkpt lat="42.516019977629184722900390625" lon="20.01047040335834026336669921875">
        <ele>1911.5999755859375</ele>
        <time>2026-06-19T09:21:58.000Z</time>
        <extensions>
          <ns3:TrackPointExtension>
            <ns3:atemp>17.0</ns3:atemp>
          </ns3:TrackPointExtension>
        </extensions>
      </trkpt>
      <trkpt lat="42.516019977629184722900390625" lon="20.01047040335834026336669921875">
        <ele>1911.5999755859375</ele>
        <time>2026-06-19T09:21:59.000Z</time>
        <extensions>
          <ns3:TrackPointExtension>
            <ns3:atemp>17.0</ns3:atemp>
          </ns3:TrackPointExtension>
        </extensions>
      </trkpt>
      <trkpt lat="42.516019977629184722900390625" lon="20.01047040335834026336669921875">
        <ele>1911.5999755859375</ele>
        <time>2026-06-19T09:22:00.000Z</time>
        <extensions>
          <ns3:TrackPointExtension>
            <ns3:atemp>17.0</ns3:atemp>
          </ns3:TrackPointExtension>
        </extensions>
      </trkpt>
      <trkpt lat="42.516019977629184722900390625" lon="20.01047040335834026336669921875">
        <ele>1911.5999755859375</ele>
        <time>2026-06-19T09:22:01.000Z</time>
        <extensions>
          <ns3:TrackPointExtension>
            <ns3:atemp>17.0</ns3:atemp>
          </ns3:TrackPointExtension>
        </extensions>
      </trkpt>
      <trkpt lat="42.516019977629184722900390625" lon="20.01047040335834026336669921875">
        <ele>1911.5999755859375</ele>
        <time>2026-06-19T09:22:02.000Z</time>
        <extensions>
          <ns3:TrackPointExtension>
            <ns3:atemp>17.0</ns3:atemp>
          </ns3:TrackPointExtension>
        </extensions>
      </trkpt>
      <trkpt lat="42.516019977629184722900390625" lon="20.01047040335834026336669921875">
        <ele>1911.5999755859375</ele>
        <time>2026-06-19T09:22:03.000Z</time>
        <extensions>
          <ns3:TrackPointExtension>
            <ns3:atemp>17.0</ns3:atemp>
          </ns3:TrackPointExtension>
        </extensions>
      </trkpt>
      <trkpt lat="42.516019977629184722900390625" lon="20.01047040335834026336669921875">
        <ele>1911.5999755859375</ele>
        <time>2026-06-19T09:22:04.000Z</time>
        <extensions>
          <ns3:TrackPointExtension>
            <ns3:atemp>17.0</ns3:atemp>
          </ns3:TrackPointExtension>
        </extensions>
      </trkpt>
      <trkpt lat="42.516019977629184722900390625" lon="20.01047040335834026336669921875">
        <ele>1911.5999755859375</ele>
        <time>2026-06-19T09:22:05.000Z</time>
        <extensions>
          <ns3:TrackPointExtension>
            <ns3:atemp>17.0</ns3:atemp>
          </ns3:TrackPointExtension>
        </extensions>
      </trkpt>
      <trkpt lat="42.516019977629184722900390625" lon="20.01047040335834026336669921875">
        <ele>1911.5999755859375</ele>
        <time>2026-06-19T09:22:06.000Z</time>
        <extensions>
          <ns3:TrackPointExtension>
            <ns3:atemp>17.0</ns3:atemp>
          </ns3:TrackPointExtension>
        </extensions>
      </trkpt>
      <trkpt lat="42.516019977629184722900390625" lon="20.01047040335834026336669921875">
        <ele>1911.5999755859375</ele>
        <time>2026-06-19T09:22:07.000Z</time>
        <extensions>
          <ns3:TrackPointExtension>
            <ns3:atemp>17.0</ns3:atemp>
          </ns3:TrackPointExtension>
        </extensions>
      </trkpt>
      <trkpt lat="42.516019977629184722900390625" lon="20.01047040335834026336669921875">
        <ele>1911.5999755859375</ele>
        <time>2026-06-19T09:22:08.000Z</time>
        <extensions>
          <ns3:TrackPointExtension>
            <ns3:atemp>17.0</ns3:atemp>
          </ns3:TrackPointExtension>
        </extensions>
      </trkpt>
      <trkpt lat="42.516019977629184722900390625" lon="20.01047040335834026336669921875">
        <ele>1911.5999755859375</ele>
        <time>2026-06-19T09:22:09.000Z</time>
        <extensions>
          <ns3:TrackPointExtension>
            <ns3:atemp>17.0</ns3:atemp>
          </ns3:TrackPointExtension>
        </extensions>
      </trkpt>
      <trkpt lat="42.516019977629184722900390625" lon="20.01047040335834026336669921875">
        <ele>1911.5999755859375</ele>
        <time>2026-06-19T09:22:10.000Z</time>
        <extensions>
          <ns3:TrackPointExtension>
            <ns3:atemp>17.0</ns3:atemp>
          </ns3:TrackPointExtension>
        </extensions>
      </trkpt>
      <trkpt lat="42.516019977629184722900390625" lon="20.01047040335834026336669921875">
        <ele>1911.5999755859375</ele>
        <time>2026-06-19T09:22:11.000Z</time>
        <extensions>
          <ns3:TrackPointExtension>
            <ns3:atemp>17.0</ns3:atemp>
          </ns3:TrackPointExtension>
        </extensions>
      </trkpt>
      <trkpt lat="42.516019977629184722900390625" lon="20.01047040335834026336669921875">
        <ele>1911.5999755859375</ele>
        <time>2026-06-19T09:22:12.000Z</time>
        <extensions>
          <ns3:TrackPointExtension>
            <ns3:atemp>17.0</ns3:atemp>
          </ns3:TrackPointExtension>
        </extensions>
      </trkpt>
      <trkpt lat="42.516019977629184722900390625" lon="20.01047040335834026336669921875">
        <ele>1911.5999755859375</ele>
        <time>2026-06-19T09:22:13.000Z</time>
        <extensions>
          <ns3:TrackPointExtension>
            <ns3:atemp>17.0</ns3:atemp>
          </ns3:TrackPointExtension>
        </extensions>
      </trkpt>
      <trkpt lat="42.516019977629184722900390625" lon="20.01047040335834026336669921875">
        <ele>1911.5999755859375</ele>
        <time>2026-06-19T09:22:14.000Z</time>
        <extensions>
          <ns3:TrackPointExtension>
            <ns3:atemp>17.0</ns3:atemp>
          </ns3:TrackPointExtension>
        </extensions>
      </trkpt>
      <trkpt lat="42.516019977629184722900390625" lon="20.01047040335834026336669921875">
        <ele>1911.5999755859375</ele>
        <time>2026-06-19T09:22:15.000Z</time>
        <extensions>
          <ns3:TrackPointExtension>
            <ns3:atemp>17.0</ns3:atemp>
          </ns3:TrackPointExtension>
        </extensions>
      </trkpt>
      <trkpt lat="42.516019977629184722900390625" lon="20.01047040335834026336669921875">
        <ele>1911.5999755859375</ele>
        <time>2026-06-19T09:22:16.000Z</time>
        <extensions>
          <ns3:TrackPointExtension>
            <ns3:atemp>17.0</ns3:atemp>
          </ns3:TrackPointExtension>
        </extensions>
      </trkpt>
      <trkpt lat="42.516019977629184722900390625" lon="20.01047040335834026336669921875">
        <ele>1911.5999755859375</ele>
        <time>2026-06-19T09:22:17.000Z</time>
        <extensions>
          <ns3:TrackPointExtension>
            <ns3:atemp>17.0</ns3:atemp>
          </ns3:TrackPointExtension>
        </extensions>
      </trkpt>
      <trkpt lat="42.516019977629184722900390625" lon="20.01047040335834026336669921875">
        <ele>1911.5999755859375</ele>
        <time>2026-06-19T09:22:18.000Z</time>
        <extensions>
          <ns3:TrackPointExtension>
            <ns3:atemp>17.0</ns3:atemp>
          </ns3:TrackPointExtension>
        </extensions>
      </trkpt>
      <trkpt lat="42.516019977629184722900390625" lon="20.01047040335834026336669921875">
        <ele>1911.5999755859375</ele>
        <time>2026-06-19T09:22:19.000Z</time>
        <extensions>
          <ns3:TrackPointExtension>
            <ns3:atemp>17.0</ns3:atemp>
          </ns3:TrackPointExtension>
        </extensions>
      </trkpt>
      <trkpt lat="42.516019977629184722900390625" lon="20.01047040335834026336669921875">
        <ele>1911.5999755859375</ele>
        <time>2026-06-19T09:22:20.000Z</time>
        <extensions>
          <ns3:TrackPointExtension>
            <ns3:atemp>17.0</ns3:atemp>
          </ns3:TrackPointExtension>
        </extensions>
      </trkpt>
      <trkpt lat="42.516019977629184722900390625" lon="20.01047040335834026336669921875">
        <ele>1911.5999755859375</ele>
        <time>2026-06-19T09:22:21.000Z</time>
        <extensions>
          <ns3:TrackPointExtension>
            <ns3:atemp>17.0</ns3:atemp>
          </ns3:TrackPointExtension>
        </extensions>
      </trkpt>
      <trkpt lat="42.516019977629184722900390625" lon="20.01047040335834026336669921875">
        <ele>1911.5999755859375</ele>
        <time>2026-06-19T09:22:22.000Z</time>
        <extensions>
          <ns3:TrackPointExtension>
            <ns3:atemp>17.0</ns3:atemp>
          </ns3:TrackPointExtension>
        </extensions>
      </trkpt>
      <trkpt lat="42.516019977629184722900390625" lon="20.01047040335834026336669921875">
        <ele>1911.5999755859375</ele>
        <time>2026-06-19T09:22:23.000Z</time>
        <extensions>
          <ns3:TrackPointExtension>
            <ns3:atemp>17.0</ns3:atemp>
          </ns3:TrackPointExtension>
        </extensions>
      </trkpt>
      <trkpt lat="42.516019977629184722900390625" lon="20.01047040335834026336669921875">
        <ele>1911.5999755859375</ele>
        <time>2026-06-19T09:22:24.000Z</time>
        <extensions>
          <ns3:TrackPointExtension>
            <ns3:atemp>17.0</ns3:atemp>
          </ns3:TrackPointExtension>
        </extensions>
      </trkpt>
      <trkpt lat="42.516019977629184722900390625" lon="20.01047040335834026336669921875">
        <ele>1911.5999755859375</ele>
        <time>2026-06-19T09:22:25.000Z</time>
        <extensions>
          <ns3:TrackPointExtension>
            <ns3:atemp>17.0</ns3:atemp>
          </ns3:TrackPointExtension>
        </extensions>
      </trkpt>
      <trkpt lat="42.516019977629184722900390625" lon="20.01047040335834026336669921875">
        <ele>1911.5999755859375</ele>
        <time>2026-06-19T09:22:26.000Z</time>
        <extensions>
          <ns3:TrackPointExtension>
            <ns3:atemp>17.0</ns3:atemp>
          </ns3:TrackPointExtension>
        </extensions>
      </trkpt>
      <trkpt lat="42.516019977629184722900390625" lon="20.01047040335834026336669921875">
        <ele>1911.5999755859375</ele>
        <time>2026-06-19T09:22:27.000Z</time>
        <extensions>
          <ns3:TrackPointExtension>
            <ns3:atemp>17.0</ns3:atemp>
          </ns3:TrackPointExtension>
        </extensions>
      </trkpt>
      <trkpt lat="42.516019977629184722900390625" lon="20.01047040335834026336669921875">
        <ele>1911.5999755859375</ele>
        <time>2026-06-19T09:22:28.000Z</time>
        <extensions>
          <ns3:TrackPointExtension>
            <ns3:atemp>17.0</ns3:atemp>
          </ns3:TrackPointExtension>
        </extensions>
      </trkpt>
      <trkpt lat="42.516019977629184722900390625" lon="20.01047040335834026336669921875">
        <ele>1911.5999755859375</ele>
        <time>2026-06-19T09:22:29.000Z</time>
        <extensions>
          <ns3:TrackPointExtension>
            <ns3:atemp>17.0</ns3:atemp>
          </ns3:TrackPointExtension>
        </extensions>
      </trkpt>
      <trkpt lat="42.516019977629184722900390625" lon="20.01047040335834026336669921875">
        <ele>1911.5999755859375</ele>
        <time>2026-06-19T09:22:30.000Z</time>
        <extensions>
          <ns3:TrackPointExtension>
            <ns3:atemp>17.0</ns3:atemp>
          </ns3:TrackPointExtension>
        </extensions>
      </trkpt>
      <trkpt lat="42.516019977629184722900390625" lon="20.01047040335834026336669921875">
        <ele>1911.5999755859375</ele>
        <time>2026-06-19T09:22:31.000Z</time>
        <extensions>
          <ns3:TrackPointExtension>
            <ns3:atemp>17.0</ns3:atemp>
          </ns3:TrackPointExtension>
        </extensions>
      </trkpt>
      <trkpt lat="42.516019977629184722900390625" lon="20.01047040335834026336669921875">
        <ele>1911.5999755859375</ele>
        <time>2026-06-19T09:22:32.000Z</time>
        <extensions>
          <ns3:TrackPointExtension>
            <ns3:atemp>17.0</ns3:atemp>
          </ns3:TrackPointExtension>
        </extensions>
      </trkpt>
      <trkpt lat="42.516019977629184722900390625" lon="20.01047040335834026336669921875">
        <ele>1911.5999755859375</ele>
        <time>2026-06-19T09:22:33.000Z</time>
        <extensions>
          <ns3:TrackPointExtension>
            <ns3:atemp>17.0</ns3:atemp>
          </ns3:TrackPointExtension>
        </extensions>
      </trkpt>
      <trkpt lat="42.516019977629184722900390625" lon="20.01047040335834026336669921875">
        <ele>1911.5999755859375</ele>
        <time>2026-06-19T09:22:34.000Z</time>
        <extensions>
          <ns3:TrackPointExtension>
            <ns3:atemp>17.0</ns3:atemp>
          </ns3:TrackPointExtension>
        </extensions>
      </trkpt>
      <trkpt lat="42.516019977629184722900390625" lon="20.01047040335834026336669921875">
        <ele>1911.5999755859375</ele>
        <time>2026-06-19T09:22:35.000Z</time>
        <extensions>
          <ns3:TrackPointExtension>
            <ns3:atemp>17.0</ns3:atemp>
          </ns3:TrackPointExtension>
        </extensions>
      </trkpt>
      <trkpt lat="42.516019977629184722900390625" lon="20.01047040335834026336669921875">
        <ele>1911.5999755859375</ele>
        <time>2026-06-19T09:22:36.000Z</time>
        <extensions>
          <ns3:TrackPointExtension>
            <ns3:atemp>17.0</ns3:atemp>
          </ns3:TrackPointExtension>
        </extensions>
      </trkpt>
      <trkpt lat="42.516019977629184722900390625" lon="20.01047040335834026336669921875">
        <ele>1911.5999755859375</ele>
        <time>2026-06-19T09:22:37.000Z</time>
        <extensions>
          <ns3:TrackPointExtension>
            <ns3:atemp>17.0</ns3:atemp>
          </ns3:TrackPointExtension>
        </extensions>
      </trkpt>
      <trkpt lat="42.516019977629184722900390625" lon="20.01047040335834026336669921875">
        <ele>1911.5999755859375</ele>
        <time>2026-06-19T09:22:38.000Z</time>
        <extensions>
          <ns3:TrackPointExtension>
            <ns3:atemp>17.0</ns3:atemp>
          </ns3:TrackPointExtension>
        </extensions>
      </trkpt>
      <trkpt lat="42.516019977629184722900390625" lon="20.01047040335834026336669921875">
        <ele>1911.5999755859375</ele>
        <time>2026-06-19T09:22:39.000Z</time>
        <extensions>
          <ns3:TrackPointExtension>
            <ns3:atemp>17.0</ns3:atemp>
          </ns3:TrackPointExtension>
        </extensions>
      </trkpt>
      <trkpt lat="42.516019977629184722900390625" lon="20.01047040335834026336669921875">
        <ele>1911.5999755859375</ele>
        <time>2026-06-19T09:22:40.000Z</time>
        <extensions>
          <ns3:TrackPointExtension>
            <ns3:atemp>17.0</ns3:atemp>
          </ns3:TrackPointExtension>
        </extensions>
      </trkpt>
      <trkpt lat="42.516019977629184722900390625" lon="20.01047040335834026336669921875">
        <ele>1911.5999755859375</ele>
        <time>2026-06-19T09:22:41.000Z</time>
        <extensions>
          <ns3:TrackPointExtension>
            <ns3:atemp>17.0</ns3:atemp>
          </ns3:TrackPointExtension>
        </extensions>
      </trkpt>
      <trkpt lat="42.516019977629184722900390625" lon="20.01047040335834026336669921875">
        <ele>1911.5999755859375</ele>
        <time>2026-06-19T09:22:42.000Z</time>
        <extensions>
          <ns3:TrackPointExtension>
            <ns3:atemp>17.0</ns3:atemp>
          </ns3:TrackPointExtension>
        </extensions>
      </trkpt>
      <trkpt lat="42.516019977629184722900390625" lon="20.01047040335834026336669921875">
        <ele>1911.5999755859375</ele>
        <time>2026-06-19T09:22:43.000Z</time>
        <extensions>
          <ns3:TrackPointExtension>
            <ns3:atemp>17.0</ns3:atemp>
          </ns3:TrackPointExtension>
        </extensions>
      </trkpt>
      <trkpt lat="42.516019977629184722900390625" lon="20.01047040335834026336669921875">
        <ele>1911.5999755859375</ele>
        <time>2026-06-19T09:22:44.000Z</time>
        <extensions>
          <ns3:TrackPointExtension>
            <ns3:atemp>17.0</ns3:atemp>
          </ns3:TrackPointExtension>
        </extensions>
      </trkpt>
      <trkpt lat="42.516019977629184722900390625" lon="20.01047040335834026336669921875">
        <ele>1911.5999755859375</ele>
        <time>2026-06-19T09:22:45.000Z</time>
        <extensions>
          <ns3:TrackPointExtension>
            <ns3:atemp>17.0</ns3:atemp>
          </ns3:TrackPointExtension>
        </extensions>
      </trkpt>
      <trkpt lat="42.516019977629184722900390625" lon="20.01047040335834026336669921875">
        <ele>1911.5999755859375</ele>
        <time>2026-06-19T09:22:46.000Z</time>
        <extensions>
          <ns3:TrackPointExtension>
            <ns3:atemp>17.0</ns3:atemp>
          </ns3:TrackPointExtension>
        </extensions>
      </trkpt>
      <trkpt lat="42.516019977629184722900390625" lon="20.01047040335834026336669921875">
        <ele>1911.5999755859375</ele>
        <time>2026-06-19T09:22:47.000Z</time>
        <extensions>
          <ns3:TrackPointExtension>
            <ns3:atemp>17.0</ns3:atemp>
          </ns3:TrackPointExtension>
        </extensions>
      </trkpt>
      <trkpt lat="42.516019977629184722900390625" lon="20.01047040335834026336669921875">
        <ele>1911.5999755859375</ele>
        <time>2026-06-19T09:22:48.000Z</time>
        <extensions>
          <ns3:TrackPointExtension>
            <ns3:atemp>17.0</ns3:atemp>
          </ns3:TrackPointExtension>
        </extensions>
      </trkpt>
      <trkpt lat="42.516019977629184722900390625" lon="20.01047040335834026336669921875">
        <ele>1911.5999755859375</ele>
        <time>2026-06-19T09:22:49.000Z</time>
        <extensions>
          <ns3:TrackPointExtension>
            <ns3:atemp>17.0</ns3:atemp>
          </ns3:TrackPointExtension>
        </extensions>
      </trkpt>
      <trkpt lat="42.516019977629184722900390625" lon="20.01047040335834026336669921875">
        <ele>1911.5999755859375</ele>
        <time>2026-06-19T09:22:50.000Z</time>
        <extensions>
          <ns3:TrackPointExtension>
            <ns3:atemp>17.0</ns3:atemp>
          </ns3:TrackPointExtension>
        </extensions>
      </trkpt>
      <trkpt lat="42.516019977629184722900390625" lon="20.01047040335834026336669921875">
        <ele>1911.5999755859375</ele>
        <time>2026-06-19T09:22:51.000Z</time>
        <extensions>
          <ns3:TrackPointExtension>
            <ns3:atemp>17.0</ns3:atemp>
          </ns3:TrackPointExtension>
        </extensions>
      </trkpt>
      <trkpt lat="42.516019977629184722900390625" lon="20.01047040335834026336669921875">
        <ele>1911.5999755859375</ele>
        <time>2026-06-19T09:22:52.000Z</time>
        <extensions>
          <ns3:TrackPointExtension>
            <ns3:atemp>17.0</ns3:atemp>
          </ns3:TrackPointExtension>
        </extensions>
      </trkpt>
      <trkpt lat="42.516019977629184722900390625" lon="20.01047040335834026336669921875">
        <ele>1911.5999755859375</ele>
        <time>2026-06-19T09:22:53.000Z</time>
        <extensions>
          <ns3:TrackPointExtension>
            <ns3:atemp>17.0</ns3:atemp>
          </ns3:TrackPointExtension>
        </extensions>
      </trkpt>
      <trkpt lat="42.516019977629184722900390625" lon="20.01047040335834026336669921875">
        <ele>1911.5999755859375</ele>
        <time>2026-06-19T09:22:54.000Z</time>
        <extensions>
          <ns3:TrackPointExtension>
            <ns3:atemp>17.0</ns3:atemp>
          </ns3:TrackPointExtension>
        </extensions>
      </trkpt>
      <trkpt lat="42.516019977629184722900390625" lon="20.01047040335834026336669921875">
        <ele>1911.5999755859375</ele>
        <time>2026-06-19T09:22:55.000Z</time>
        <extensions>
          <ns3:TrackPointExtension>
            <ns3:atemp>17.0</ns3:atemp>
          </ns3:TrackPointExtension>
        </extensions>
      </trkpt>
      <trkpt lat="42.516019977629184722900390625" lon="20.01047040335834026336669921875">
        <ele>1911.5999755859375</ele>
        <time>2026-06-19T09:22:56.000Z</time>
        <extensions>
          <ns3:TrackPointExtension>
            <ns3:atemp>17.0</ns3:atemp>
          </ns3:TrackPointExtension>
        </extensions>
      </trkpt>
      <trkpt lat="42.516019977629184722900390625" lon="20.01047040335834026336669921875">
        <ele>1911.5999755859375</ele>
        <time>2026-06-19T09:22:57.000Z</time>
        <extensions>
          <ns3:TrackPointExtension>
            <ns3:atemp>17.0</ns3:atemp>
          </ns3:TrackPointExtension>
        </extensions>
      </trkpt>
      <trkpt lat="42.516019977629184722900390625" lon="20.01047040335834026336669921875">
        <ele>1911.5999755859375</ele>
        <time>2026-06-19T09:22:58.000Z</time>
        <extensions>
          <ns3:TrackPointExtension>
            <ns3:atemp>17.0</ns3:atemp>
          </ns3:TrackPointExtension>
        </extensions>
      </trkpt>
      <trkpt lat="42.516019977629184722900390625" lon="20.01047040335834026336669921875">
        <ele>1911.5999755859375</ele>
        <time>2026-06-19T09:22:59.000Z</time>
        <extensions>
          <ns3:TrackPointExtension>
            <ns3:atemp>17.0</ns3:atemp>
          </ns3:TrackPointExtension>
        </extensions>
      </trkpt>
      <trkpt lat="42.516019977629184722900390625" lon="20.01047040335834026336669921875">
        <ele>1911.5999755859375</ele>
        <time>2026-06-19T09:23:00.000Z</time>
        <extensions>
          <ns3:TrackPointExtension>
            <ns3:atemp>17.0</ns3:atemp>
          </ns3:TrackPointExtension>
        </extensions>
      </trkpt>
      <trkpt lat="42.516019977629184722900390625" lon="20.01047040335834026336669921875">
        <ele>1911.5999755859375</ele>
        <time>2026-06-19T09:23:01.000Z</time>
        <extensions>
          <ns3:TrackPointExtension>
            <ns3:atemp>17.0</ns3:atemp>
          </ns3:TrackPointExtension>
        </extensions>
      </trkpt>
      <trkpt lat="42.516019977629184722900390625" lon="20.01047040335834026336669921875">
        <ele>1911.5999755859375</ele>
        <time>2026-06-19T09:23:02.000Z</time>
        <extensions>
          <ns3:TrackPointExtension>
            <ns3:atemp>17.0</ns3:atemp>
          </ns3:TrackPointExtension>
        </extensions>
      </trkpt>
      <trkpt lat="42.516019977629184722900390625" lon="20.01047040335834026336669921875">
        <ele>1911.5999755859375</ele>
        <time>2026-06-19T09:23:03.000Z</time>
        <extensions>
          <ns3:TrackPointExtension>
            <ns3:atemp>17.0</ns3:atemp>
          </ns3:TrackPointExtension>
        </extensions>
      </trkpt>
      <trkpt lat="42.516019977629184722900390625" lon="20.01047040335834026336669921875">
        <ele>1911.5999755859375</ele>
        <time>2026-06-19T09:23:04.000Z</time>
        <extensions>
          <ns3:TrackPointExtension>
            <ns3:atemp>17.0</ns3:atemp>
          </ns3:TrackPointExtension>
        </extensions>
      </trkpt>
      <trkpt lat="42.516019977629184722900390625" lon="20.01047040335834026336669921875">
        <ele>1911.5999755859375</ele>
        <time>2026-06-19T09:23:05.000Z</time>
        <extensions>
          <ns3:TrackPointExtension>
            <ns3:atemp>17.0</ns3:atemp>
          </ns3:TrackPointExtension>
        </extensions>
      </trkpt>
      <trkpt lat="42.516019977629184722900390625" lon="20.01047040335834026336669921875">
        <ele>1911.5999755859375</ele>
        <time>2026-06-19T09:23:06.000Z</time>
        <extensions>
          <ns3:TrackPointExtension>
            <ns3:atemp>17.0</ns3:atemp>
          </ns3:TrackPointExtension>
        </extensions>
      </trkpt>
      <trkpt lat="42.516019977629184722900390625" lon="20.01047040335834026336669921875">
        <ele>1911.5999755859375</ele>
        <time>2026-06-19T09:23:07.000Z</time>
        <extensions>
          <ns3:TrackPointExtension>
            <ns3:atemp>17.0</ns3:atemp>
          </ns3:TrackPointExtension>
        </extensions>
      </trkpt>
      <trkpt lat="42.516019977629184722900390625" lon="20.01047040335834026336669921875">
        <ele>1911.5999755859375</ele>
        <time>2026-06-19T09:23:08.000Z</time>
        <extensions>
          <ns3:TrackPointExtension>
            <ns3:atemp>17.0</ns3:atemp>
          </ns3:TrackPointExtension>
        </extensions>
      </trkpt>
      <trkpt lat="42.516019977629184722900390625" lon="20.01047040335834026336669921875">
        <ele>1911.5999755859375</ele>
        <time>2026-06-19T09:23:09.000Z</time>
        <extensions>
          <ns3:TrackPointExtension>
            <ns3:atemp>17.0</ns3:atemp>
          </ns3:TrackPointExtension>
        </extensions>
      </trkpt>
      <trkpt lat="42.516019977629184722900390625" lon="20.01047040335834026336669921875">
        <ele>1911.5999755859375</ele>
        <time>2026-06-19T09:23:10.000Z</time>
        <extensions>
          <ns3:TrackPointExtension>
            <ns3:atemp>17.0</ns3:atemp>
          </ns3:TrackPointExtension>
        </extensions>
      </trkpt>
      <trkpt lat="42.516019977629184722900390625" lon="20.01047040335834026336669921875">
        <ele>1911.5999755859375</ele>
        <time>2026-06-19T09:23:11.000Z</time>
        <extensions>
          <ns3:TrackPointExtension>
            <ns3:atemp>17.0</ns3:atemp>
          </ns3:TrackPointExtension>
        </extensions>
      </trkpt>
      <trkpt lat="42.516019977629184722900390625" lon="20.01047040335834026336669921875">
        <ele>1911.5999755859375</ele>
        <time>2026-06-19T09:23:12.000Z</time>
        <extensions>
          <ns3:TrackPointExtension>
            <ns3:atemp>17.0</ns3:atemp>
          </ns3:TrackPointExtension>
        </extensions>
      </trkpt>
      <trkpt lat="42.516019977629184722900390625" lon="20.01047040335834026336669921875">
        <ele>1911.5999755859375</ele>
        <time>2026-06-19T09:23:13.000Z</time>
        <extensions>
          <ns3:TrackPointExtension>
            <ns3:atemp>17.0</ns3:atemp>
          </ns3:TrackPointExtension>
        </extensions>
      </trkpt>
      <trkpt lat="42.516019977629184722900390625" lon="20.01047040335834026336669921875">
        <ele>1911.5999755859375</ele>
        <time>2026-06-19T09:23:14.000Z</time>
        <extensions>
          <ns3:TrackPointExtension>
            <ns3:atemp>17.0</ns3:atemp>
          </ns3:TrackPointExtension>
        </extensions>
      </trkpt>
      <trkpt lat="42.516019977629184722900390625" lon="20.01047040335834026336669921875">
        <ele>1911.5999755859375</ele>
        <time>2026-06-19T09:23:15.000Z</time>
        <extensions>
          <ns3:TrackPointExtension>
            <ns3:atemp>17.0</ns3:atemp>
          </ns3:TrackPointExtension>
        </extensions>
      </trkpt>
      <trkpt lat="42.516019977629184722900390625" lon="20.01047040335834026336669921875">
        <ele>1911.5999755859375</ele>
        <time>2026-06-19T09:23:16.000Z</time>
        <extensions>
          <ns3:TrackPointExtension>
            <ns3:atemp>17.0</ns3:atemp>
          </ns3:TrackPointExtension>
        </extensions>
      </trkpt>
      <trkpt lat="42.516019977629184722900390625" lon="20.01047040335834026336669921875">
        <ele>1911.5999755859375</ele>
        <time>2026-06-19T09:23:17.000Z</time>
        <extensions>
          <ns3:TrackPointExtension>
            <ns3:atemp>17.0</ns3:atemp>
          </ns3:TrackPointExtension>
        </extensions>
      </trkpt>
      <trkpt lat="42.516019977629184722900390625" lon="20.01047040335834026336669921875">
        <ele>1911.5999755859375</ele>
        <time>2026-06-19T09:23:18.000Z</time>
        <extensions>
          <ns3:TrackPointExtension>
            <ns3:atemp>17.0</ns3:atemp>
          </ns3:TrackPointExtension>
        </extensions>
      </trkpt>
      <trkpt lat="42.516019977629184722900390625" lon="20.01047040335834026336669921875">
        <ele>1911.5999755859375</ele>
        <time>2026-06-19T09:23:19.000Z</time>
        <extensions>
          <ns3:TrackPointExtension>
            <ns3:atemp>17.0</ns3:atemp>
          </ns3:TrackPointExtension>
        </extensions>
      </trkpt>
      <trkpt lat="42.516019977629184722900390625" lon="20.01047040335834026336669921875">
        <ele>1911.5999755859375</ele>
        <time>2026-06-19T09:23:20.000Z</time>
        <extensions>
          <ns3:TrackPointExtension>
            <ns3:atemp>17.0</ns3:atemp>
          </ns3:TrackPointExtension>
        </extensions>
      </trkpt>
      <trkpt lat="42.516019977629184722900390625" lon="20.01047040335834026336669921875">
        <ele>1911.5999755859375</ele>
        <time>2026-06-19T09:23:21.000Z</time>
        <extensions>
          <ns3:TrackPointExtension>
            <ns3:atemp>17.0</ns3:atemp>
          </ns3:TrackPointExtension>
        </extensions>
      </trkpt>
      <trkpt lat="42.516019977629184722900390625" lon="20.01047040335834026336669921875">
        <ele>1911.5999755859375</ele>
        <time>2026-06-19T09:23:22.000Z</time>
        <extensions>
          <ns3:TrackPointExtension>
            <ns3:atemp>17.0</ns3:atemp>
          </ns3:TrackPointExtension>
        </extensions>
      </trkpt>
      <trkpt lat="42.516019977629184722900390625" lon="20.01047040335834026336669921875">
        <ele>1911.5999755859375</ele>
        <time>2026-06-19T09:23:23.000Z</time>
        <extensions>
          <ns3:TrackPointExtension>
            <ns3:atemp>17.0</ns3:atemp>
          </ns3:TrackPointExtension>
        </extensions>
      </trkpt>
      <trkpt lat="42.516019977629184722900390625" lon="20.01047040335834026336669921875">
        <ele>1911.5999755859375</ele>
        <time>2026-06-19T09:23:24.000Z</time>
        <extensions>
          <ns3:TrackPointExtension>
            <ns3:atemp>17.0</ns3:atemp>
          </ns3:TrackPointExtension>
        </extensions>
      </trkpt>
      <trkpt lat="42.516019977629184722900390625" lon="20.01047040335834026336669921875">
        <ele>1911.5999755859375</ele>
        <time>2026-06-19T09:23:25.000Z</time>
        <extensions>
          <ns3:TrackPointExtension>
            <ns3:atemp>17.0</ns3:atemp>
          </ns3:TrackPointExtension>
        </extensions>
      </trkpt>
      <trkpt lat="42.516019977629184722900390625" lon="20.01047040335834026336669921875">
        <ele>1911.5999755859375</ele>
        <time>2026-06-19T09:23:26.000Z</time>
        <extensions>
          <ns3:TrackPointExtension>
            <ns3:atemp>17.0</ns3:atemp>
          </ns3:TrackPointExtension>
        </extensions>
      </trkpt>
      <trkpt lat="42.516019977629184722900390625" lon="20.01047040335834026336669921875">
        <ele>1911.5999755859375</ele>
        <time>2026-06-19T09:23:27.000Z</time>
        <extensions>
          <ns3:TrackPointExtension>
            <ns3:atemp>17.0</ns3:atemp>
          </ns3:TrackPointExtension>
        </extensions>
      </trkpt>
      <trkpt lat="42.516019977629184722900390625" lon="20.01047040335834026336669921875">
        <ele>1911.5999755859375</ele>
        <time>2026-06-19T09:23:28.000Z</time>
        <extensions>
          <ns3:TrackPointExtension>
            <ns3:atemp>17.0</ns3:atemp>
          </ns3:TrackPointExtension>
        </extensions>
      </trkpt>
      <trkpt lat="42.516019977629184722900390625" lon="20.01047040335834026336669921875">
        <ele>1911.5999755859375</ele>
        <time>2026-06-19T09:23:29.000Z</time>
        <extensions>
          <ns3:TrackPointExtension>
            <ns3:atemp>17.0</ns3:atemp>
          </ns3:TrackPointExtension>
        </extensions>
      </trkpt>
      <trkpt lat="42.516019977629184722900390625" lon="20.01047040335834026336669921875">
        <ele>1911.5999755859375</ele>
        <time>2026-06-19T09:23:30.000Z</time>
        <extensions>
          <ns3:TrackPointExtension>
            <ns3:atemp>17.0</ns3:atemp>
          </ns3:TrackPointExtension>
        </extensions>
      </trkpt>
      <trkpt lat="42.516019977629184722900390625" lon="20.01047040335834026336669921875">
        <ele>1911.5999755859375</ele>
        <time>2026-06-19T09:23:31.000Z</time>
        <extensions>
          <ns3:TrackPointExtension>
            <ns3:atemp>17.0</ns3:atemp>
          </ns3:TrackPointExtension>
        </extensions>
      </trkpt>
      <trkpt lat="42.516019977629184722900390625" lon="20.01047040335834026336669921875">
        <ele>1911.5999755859375</ele>
        <time>2026-06-19T09:23:32.000Z</time>
        <extensions>
          <ns3:TrackPointExtension>
            <ns3:atemp>17.0</ns3:atemp>
          </ns3:TrackPointExtension>
        </extensions>
      </trkpt>
      <trkpt lat="42.516019977629184722900390625" lon="20.01047040335834026336669921875">
        <ele>1911.5999755859375</ele>
        <time>2026-06-19T09:23:33.000Z</time>
        <extensions>
          <ns3:TrackPointExtension>
            <ns3:atemp>17.0</ns3:atemp>
          </ns3:TrackPointExtension>
        </extensions>
      </trkpt>
      <trkpt lat="42.516019977629184722900390625" lon="20.01047040335834026336669921875">
        <ele>1911.5999755859375</ele>
        <time>2026-06-19T09:23:34.000Z</time>
        <extensions>
          <ns3:TrackPointExtension>
            <ns3:atemp>17.0</ns3:atemp>
          </ns3:TrackPointExtension>
        </extensions>
      </trkpt>
      <trkpt lat="42.516019977629184722900390625" lon="20.01047040335834026336669921875">
        <ele>1911.5999755859375</ele>
        <time>2026-06-19T09:23:35.000Z</time>
        <extensions>
          <ns3:TrackPointExtension>
            <ns3:atemp>17.0</ns3:atemp>
          </ns3:TrackPointExtension>
        </extensions>
      </trkpt>
      <trkpt lat="42.516019977629184722900390625" lon="20.01047040335834026336669921875">
        <ele>1911.5999755859375</ele>
        <time>2026-06-19T09:23:36.000Z</time>
        <extensions>
          <ns3:TrackPointExtension>
            <ns3:atemp>17.0</ns3:atemp>
          </ns3:TrackPointExtension>
        </extensions>
      </trkpt>
      <trkpt lat="42.516019977629184722900390625" lon="20.01047040335834026336669921875">
        <ele>1911.5999755859375</ele>
        <time>2026-06-19T09:23:37.000Z</time>
        <extensions>
          <ns3:TrackPointExtension>
            <ns3:atemp>17.0</ns3:atemp>
          </ns3:TrackPointExtension>
        </extensions>
      </trkpt>
      <trkpt lat="42.516019977629184722900390625" lon="20.01047040335834026336669921875">
        <ele>1911.5999755859375</ele>
        <time>2026-06-19T09:23:38.000Z</time>
        <extensions>
          <ns3:TrackPointExtension>
            <ns3:atemp>17.0</ns3:atemp>
          </ns3:TrackPointExtension>
        </extensions>
      </trkpt>
      <trkpt lat="42.516019977629184722900390625" lon="20.01047040335834026336669921875">
        <ele>1911.5999755859375</ele>
        <time>2026-06-19T09:23:39.000Z</time>
        <extensions>
          <ns3:TrackPointExtension>
            <ns3:atemp>17.0</ns3:atemp>
          </ns3:TrackPointExtension>
        </extensions>
      </trkpt>
      <trkpt lat="42.516019977629184722900390625" lon="20.01047040335834026336669921875">
        <ele>1911.5999755859375</ele>
        <time>2026-06-19T09:23:40.000Z</time>
        <extensions>
          <ns3:TrackPointExtension>
            <ns3:atemp>17.0</ns3:atemp>
          </ns3:TrackPointExtension>
        </extensions>
      </trkpt>
      <trkpt lat="42.516019977629184722900390625" lon="20.01047040335834026336669921875">
        <ele>1911.5999755859375</ele>
        <time>2026-06-19T09:23:41.000Z</time>
        <extensions>
          <ns3:TrackPointExtension>
            <ns3:atemp>17.0</ns3:atemp>
          </ns3:TrackPointExtension>
        </extensions>
      </trkpt>
      <trkpt lat="42.516019977629184722900390625" lon="20.01047040335834026336669921875">
        <ele>1911.5999755859375</ele>
        <time>2026-06-19T09:23:42.000Z</time>
        <extensions>
          <ns3:TrackPointExtension>
            <ns3:atemp>17.0</ns3:atemp>
          </ns3:TrackPointExtension>
        </extensions>
      </trkpt>
      <trkpt lat="42.516019977629184722900390625" lon="20.01047040335834026336669921875">
        <ele>1911.5999755859375</ele>
        <time>2026-06-19T09:23:43.000Z</time>
        <extensions>
          <ns3:TrackPointExtension>
            <ns3:atemp>17.0</ns3:atemp>
          </ns3:TrackPointExtension>
        </extensions>
      </trkpt>
      <trkpt lat="42.516019977629184722900390625" lon="20.01047040335834026336669921875">
        <ele>1911.5999755859375</ele>
        <time>2026-06-19T09:23:44.000Z</time>
        <extensions>
          <ns3:TrackPointExtension>
            <ns3:atemp>17.0</ns3:atemp>
          </ns3:TrackPointExtension>
        </extensions>
      </trkpt>
      <trkpt lat="42.516019977629184722900390625" lon="20.01047040335834026336669921875">
        <ele>1911.5999755859375</ele>
        <time>2026-06-19T09:23:45.000Z</time>
        <extensions>
          <ns3:TrackPointExtension>
            <ns3:atemp>17.0</ns3:atemp>
          </ns3:TrackPointExtension>
        </extensions>
      </trkpt>
      <trkpt lat="42.516019977629184722900390625" lon="20.01047040335834026336669921875">
        <ele>1911.5999755859375</ele>
        <time>2026-06-19T09:23:46.000Z</time>
        <extensions>
          <ns3:TrackPointExtension>
            <ns3:atemp>17.0</ns3:atemp>
          </ns3:TrackPointExtension>
        </extensions>
      </trkpt>
      <trkpt lat="42.516019977629184722900390625" lon="20.01047040335834026336669921875">
        <ele>1911.5999755859375</ele>
        <time>2026-06-19T09:23:47.000Z</time>
        <extensions>
          <ns3:TrackPointExtension>
            <ns3:atemp>17.0</ns3:atemp>
          </ns3:TrackPointExtension>
        </extensions>
      </trkpt>
      <trkpt lat="42.516019977629184722900390625" lon="20.01047040335834026336669921875">
        <ele>1911.5999755859375</ele>
        <time>2026-06-19T09:23:48.000Z</time>
        <extensions>
          <ns3:TrackPointExtension>
            <ns3:atemp>17.0</ns3:atemp>
          </ns3:TrackPointExtension>
        </extensions>
      </trkpt>
      <trkpt lat="42.516019977629184722900390625" lon="20.01047040335834026336669921875">
        <ele>1911.5999755859375</ele>
        <time>2026-06-19T09:23:49.000Z</time>
        <extensions>
          <ns3:TrackPointExtension>
            <ns3:atemp>17.0</ns3:atemp>
          </ns3:TrackPointExtension>
        </extensions>
      </trkpt>
      <trkpt lat="42.516019977629184722900390625" lon="20.01047040335834026336669921875">
        <ele>1911.5999755859375</ele>
        <time>2026-06-19T09:23:50.000Z</time>
        <extensions>
          <ns3:TrackPointExtension>
            <ns3:atemp>17.0</ns3:atemp>
          </ns3:TrackPointExtension>
        </extensions>
      </trkpt>
      <trkpt lat="42.516019977629184722900390625" lon="20.01047040335834026336669921875">
        <ele>1911.5999755859375</ele>
        <time>2026-06-19T09:23:51.000Z</time>
        <extensions>
          <ns3:TrackPointExtension>
            <ns3:atemp>17.0</ns3:atemp>
          </ns3:TrackPointExtension>
        </extensions>
      </trkpt>
      <trkpt lat="42.516019977629184722900390625" lon="20.01047040335834026336669921875">
        <ele>1911.5999755859375</ele>
        <time>2026-06-19T09:23:52.000Z</time>
        <extensions>
          <ns3:TrackPointExtension>
            <ns3:atemp>17.0</ns3:atemp>
          </ns3:TrackPointExtension>
        </extensions>
      </trkpt>
      <trkpt lat="42.516019977629184722900390625" lon="20.01047040335834026336669921875">
        <ele>1911.5999755859375</ele>
        <time>2026-06-19T09:23:53.000Z</time>
        <extensions>
          <ns3:TrackPointExtension>
            <ns3:atemp>17.0</ns3:atemp>
          </ns3:TrackPointExtension>
        </extensions>
      </trkpt>
      <trkpt lat="42.516019977629184722900390625" lon="20.01047040335834026336669921875">
        <ele>1911.5999755859375</ele>
        <time>2026-06-19T09:23:54.000Z</time>
        <extensions>
          <ns3:TrackPointExtension>
            <ns3:atemp>17.0</ns3:atemp>
          </ns3:TrackPointExtension>
        </extensions>
      </trkpt>
      <trkpt lat="42.516019977629184722900390625" lon="20.01047040335834026336669921875">
        <ele>1911.5999755859375</ele>
        <time>2026-06-19T09:23:55.000Z</time>
        <extensions>
          <ns3:TrackPointExtension>
            <ns3:atemp>18.0</ns3:atemp>
          </ns3:TrackPointExtension>
        </extensions>
      </trkpt>
      <trkpt lat="42.516019977629184722900390625" lon="20.01047040335834026336669921875">
        <ele>1911.5999755859375</ele>
        <time>2026-06-19T09:23:56.000Z</time>
        <extensions>
          <ns3:TrackPointExtension>
            <ns3:atemp>17.0</ns3:atemp>
          </ns3:TrackPointExtension>
        </extensions>
      </trkpt>
      <trkpt lat="42.516019977629184722900390625" lon="20.01047040335834026336669921875">
        <ele>1911.5999755859375</ele>
        <time>2026-06-19T09:23:57.000Z</time>
        <extensions>
          <ns3:TrackPointExtension>
            <ns3:atemp>17.0</ns3:atemp>
          </ns3:TrackPointExtension>
        </extensions>
      </trkpt>
      <trkpt lat="42.516019977629184722900390625" lon="20.01047040335834026336669921875">
        <ele>1911.5999755859375</ele>
        <time>2026-06-19T09:23:58.000Z</time>
        <extensions>
          <ns3:TrackPointExtension>
            <ns3:atemp>17.0</ns3:atemp>
          </ns3:TrackPointExtension>
        </extensions>
      </trkpt>
      <trkpt lat="42.516019977629184722900390625" lon="20.01047040335834026336669921875">
        <ele>1911.5999755859375</ele>
        <time>2026-06-19T09:23:59.000Z</time>
        <extensions>
          <ns3:TrackPointExtension>
            <ns3:atemp>17.0</ns3:atemp>
          </ns3:TrackPointExtension>
        </extensions>
      </trkpt>
      <trkpt lat="42.516019977629184722900390625" lon="20.01047040335834026336669921875">
        <ele>1911.5999755859375</ele>
        <time>2026-06-19T09:24:00.000Z</time>
        <extensions>
          <ns3:TrackPointExtension>
            <ns3:atemp>17.0</ns3:atemp>
          </ns3:TrackPointExtension>
        </extensions>
      </trkpt>
      <trkpt lat="42.516019977629184722900390625" lon="20.01047040335834026336669921875">
        <ele>1911.5999755859375</ele>
        <time>2026-06-19T09:24:01.000Z</time>
        <extensions>
          <ns3:TrackPointExtension>
            <ns3:atemp>17.0</ns3:atemp>
          </ns3:TrackPointExtension>
        </extensions>
      </trkpt>
      <trkpt lat="42.516019977629184722900390625" lon="20.01047040335834026336669921875">
        <ele>1911.5999755859375</ele>
        <time>2026-06-19T09:24:02.000Z</time>
        <extensions>
          <ns3:TrackPointExtension>
            <ns3:atemp>17.0</ns3:atemp>
          </ns3:TrackPointExtension>
        </extensions>
      </trkpt>
      <trkpt lat="42.516019977629184722900390625" lon="20.01047040335834026336669921875">
        <ele>1911.5999755859375</ele>
        <time>2026-06-19T09:24:03.000Z</time>
        <extensions>
          <ns3:TrackPointExtension>
            <ns3:atemp>17.0</ns3:atemp>
          </ns3:TrackPointExtension>
        </extensions>
      </trkpt>
      <trkpt lat="42.516019977629184722900390625" lon="20.01047040335834026336669921875">
        <ele>1911.5999755859375</ele>
        <time>2026-06-19T09:24:04.000Z</time>
        <extensions>
          <ns3:TrackPointExtension>
            <ns3:atemp>18.0</ns3:atemp>
          </ns3:TrackPointExtension>
        </extensions>
      </trkpt>
      <trkpt lat="42.516019977629184722900390625" lon="20.01047040335834026336669921875">
        <ele>1911.5999755859375</ele>
        <time>2026-06-19T09:24:05.000Z</time>
        <extensions>
          <ns3:TrackPointExtension>
            <ns3:atemp>18.0</ns3:atemp>
          </ns3:TrackPointExtension>
        </extensions>
      </trkpt>
      <trkpt lat="42.516019977629184722900390625" lon="20.01047040335834026336669921875">
        <ele>1911.5999755859375</ele>
        <time>2026-06-19T09:24:06.000Z</time>
        <extensions>
          <ns3:TrackPointExtension>
            <ns3:atemp>18.0</ns3:atemp>
          </ns3:TrackPointExtension>
        </extensions>
      </trkpt>
      <trkpt lat="42.516019977629184722900390625" lon="20.01047040335834026336669921875">
        <ele>1911.5999755859375</ele>
        <time>2026-06-19T09:24:07.000Z</time>
        <extensions>
          <ns3:TrackPointExtension>
            <ns3:atemp>18.0</ns3:atemp>
          </ns3:TrackPointExtension>
        </extensions>
      </trkpt>
      <trkpt lat="42.516019977629184722900390625" lon="20.01047040335834026336669921875">
        <ele>1911.5999755859375</ele>
        <time>2026-06-19T09:24:08.000Z</time>
        <extensions>
          <ns3:TrackPointExtension>
            <ns3:atemp>18.0</ns3:atemp>
          </ns3:TrackPointExtension>
        </extensions>
      </trkpt>
      <trkpt lat="42.516019977629184722900390625" lon="20.01047040335834026336669921875">
        <ele>1911.5999755859375</ele>
        <time>2026-06-19T09:24:09.000Z</time>
        <extensions>
          <ns3:TrackPointExtension>
            <ns3:atemp>18.0</ns3:atemp>
          </ns3:TrackPointExtension>
        </extensions>
      </trkpt>
      <trkpt lat="42.516019977629184722900390625" lon="20.01047040335834026336669921875">
        <ele>1911.5999755859375</ele>
        <time>2026-06-19T09:24:10.000Z</time>
        <extensions>
          <ns3:TrackPointExtension>
            <ns3:atemp>18.0</ns3:atemp>
          </ns3:TrackPointExtension>
        </extensions>
      </trkpt>
      <trkpt lat="42.516019977629184722900390625" lon="20.01047040335834026336669921875">
        <ele>1911.5999755859375</ele>
        <time>2026-06-19T09:24:11.000Z</time>
        <extensions>
          <ns3:TrackPointExtension>
            <ns3:atemp>18.0</ns3:atemp>
          </ns3:TrackPointExtension>
        </extensions>
      </trkpt>
      <trkpt lat="42.516019977629184722900390625" lon="20.01047040335834026336669921875">
        <ele>1911.5999755859375</ele>
        <time>2026-06-19T09:24:12.000Z</time>
        <extensions>
          <ns3:TrackPointExtension>
            <ns3:atemp>18.0</ns3:atemp>
          </ns3:TrackPointExtension>
        </extensions>
      </trkpt>
      <trkpt lat="42.516019977629184722900390625" lon="20.01047040335834026336669921875">
        <ele>1911.5999755859375</ele>
        <time>2026-06-19T09:24:13.000Z</time>
        <extensions>
          <ns3:TrackPointExtension>
            <ns3:atemp>18.0</ns3:atemp>
          </ns3:TrackPointExtension>
        </extensions>
      </trkpt>
      <trkpt lat="42.516019977629184722900390625" lon="20.01047040335834026336669921875">
        <ele>1911.5999755859375</ele>
        <time>2026-06-19T09:24:14.000Z</time>
        <extensions>
          <ns3:TrackPointExtension>
            <ns3:atemp>18.0</ns3:atemp>
          </ns3:TrackPointExtension>
        </extensions>
      </trkpt>
      <trkpt lat="42.516019977629184722900390625" lon="20.01047040335834026336669921875">
        <ele>1911.5999755859375</ele>
        <time>2026-06-19T09:24:15.000Z</time>
        <extensions>
          <ns3:TrackPointExtension>
            <ns3:atemp>18.0</ns3:atemp>
          </ns3:TrackPointExtension>
        </extensions>
      </trkpt>
      <trkpt lat="42.516019977629184722900390625" lon="20.01047040335834026336669921875">
        <ele>1911.5999755859375</ele>
        <time>2026-06-19T09:24:16.000Z</time>
        <extensions>
          <ns3:TrackPointExtension>
            <ns3:atemp>18.0</ns3:atemp>
          </ns3:TrackPointExtension>
        </extensions>
      </trkpt>
      <trkpt lat="42.516019977629184722900390625" lon="20.01047040335834026336669921875">
        <ele>1911.5999755859375</ele>
        <time>2026-06-19T09:24:17.000Z</time>
        <extensions>
          <ns3:TrackPointExtension>
            <ns3:atemp>18.0</ns3:atemp>
          </ns3:TrackPointExtension>
        </extensions>
      </trkpt>
      <trkpt lat="42.516019977629184722900390625" lon="20.01047040335834026336669921875">
        <ele>1911.5999755859375</ele>
        <time>2026-06-19T09:24:18.000Z</time>
        <extensions>
          <ns3:TrackPointExtension>
            <ns3:atemp>18.0</ns3:atemp>
          </ns3:TrackPointExtension>
        </extensions>
      </trkpt>
      <trkpt lat="42.516019977629184722900390625" lon="20.01047040335834026336669921875">
        <ele>1911.5999755859375</ele>
        <time>2026-06-19T09:24:19.000Z</time>
        <extensions>
          <ns3:TrackPointExtension>
            <ns3:atemp>18.0</ns3:atemp>
          </ns3:TrackPointExtension>
        </extensions>
      </trkpt>
      <trkpt lat="42.516019977629184722900390625" lon="20.01047040335834026336669921875">
        <ele>1911.5999755859375</ele>
        <time>2026-06-19T09:24:20.000Z</time>
        <extensions>
          <ns3:TrackPointExtension>
            <ns3:atemp>18.0</ns3:atemp>
          </ns3:TrackPointExtension>
        </extensions>
      </trkpt>
      <trkpt lat="42.516019977629184722900390625" lon="20.01047040335834026336669921875">
        <ele>1911.5999755859375</ele>
        <time>2026-06-19T09:24:21.000Z</time>
        <extensions>
          <ns3:TrackPointExtension>
            <ns3:atemp>18.0</ns3:atemp>
          </ns3:TrackPointExtension>
        </extensions>
      </trkpt>
      <trkpt lat="42.516019977629184722900390625" lon="20.01047040335834026336669921875">
        <ele>1911.5999755859375</ele>
        <time>2026-06-19T09:24:22.000Z</time>
        <extensions>
          <ns3:TrackPointExtension>
            <ns3:atemp>18.0</ns3:atemp>
          </ns3:TrackPointExtension>
        </extensions>
      </trkpt>
      <trkpt lat="42.516019977629184722900390625" lon="20.01047040335834026336669921875">
        <ele>1911.5999755859375</ele>
        <time>2026-06-19T09:24:23.000Z</time>
        <extensions>
          <ns3:TrackPointExtension>
            <ns3:atemp>18.0</ns3:atemp>
          </ns3:TrackPointExtension>
        </extensions>
      </trkpt>
      <trkpt lat="42.516019977629184722900390625" lon="20.01047040335834026336669921875">
        <ele>1911.5999755859375</ele>
        <time>2026-06-19T09:24:24.000Z</time>
        <extensions>
          <ns3:TrackPointExtension>
            <ns3:atemp>18.0</ns3:atemp>
          </ns3:TrackPointExtension>
        </extensions>
      </trkpt>
      <trkpt lat="42.516019977629184722900390625" lon="20.01047040335834026336669921875">
        <ele>1911.5999755859375</ele>
        <time>2026-06-19T09:24:25.000Z</time>
        <extensions>
          <ns3:TrackPointExtension>
            <ns3:atemp>18.0</ns3:atemp>
          </ns3:TrackPointExtension>
        </extensions>
      </trkpt>
      <trkpt lat="42.516019977629184722900390625" lon="20.01047040335834026336669921875">
        <ele>1911.5999755859375</ele>
        <time>2026-06-19T09:24:26.000Z</time>
        <extensions>
          <ns3:TrackPointExtension>
            <ns3:atemp>18.0</ns3:atemp>
          </ns3:TrackPointExtension>
        </extensions>
      </trkpt>
      <trkpt lat="42.516019977629184722900390625" lon="20.01047040335834026336669921875">
        <ele>1911.5999755859375</ele>
        <time>2026-06-19T09:24:27.000Z</time>
        <extensions>
          <ns3:TrackPointExtension>
            <ns3:atemp>18.0</ns3:atemp>
          </ns3:TrackPointExtension>
        </extensions>
      </trkpt>
      <trkpt lat="42.516019977629184722900390625" lon="20.01047040335834026336669921875">
        <ele>1911.5999755859375</ele>
        <time>2026-06-19T09:24:28.000Z</time>
        <extensions>
          <ns3:TrackPointExtension>
            <ns3:atemp>18.0</ns3:atemp>
          </ns3:TrackPointExtension>
        </extensions>
      </trkpt>
      <trkpt lat="42.516019977629184722900390625" lon="20.01047040335834026336669921875">
        <ele>1911.5999755859375</ele>
        <time>2026-06-19T09:24:29.000Z</time>
        <extensions>
          <ns3:TrackPointExtension>
            <ns3:atemp>18.0</ns3:atemp>
          </ns3:TrackPointExtension>
        </extensions>
      </trkpt>
      <trkpt lat="42.516019977629184722900390625" lon="20.01047040335834026336669921875">
        <ele>1911.5999755859375</ele>
        <time>2026-06-19T09:24:30.000Z</time>
        <extensions>
          <ns3:TrackPointExtension>
            <ns3:atemp>18.0</ns3:atemp>
          </ns3:TrackPointExtension>
        </extensions>
      </trkpt>
      <trkpt lat="42.516019977629184722900390625" lon="20.01047040335834026336669921875">
        <ele>1911.5999755859375</ele>
        <time>2026-06-19T09:24:31.000Z</time>
        <extensions>
          <ns3:TrackPointExtension>
            <ns3:atemp>18.0</ns3:atemp>
          </ns3:TrackPointExtension>
        </extensions>
      </trkpt>
      <trkpt lat="42.516019977629184722900390625" lon="20.01047040335834026336669921875">
        <ele>1911.5999755859375</ele>
        <time>2026-06-19T09:24:32.000Z</time>
        <extensions>
          <ns3:TrackPointExtension>
            <ns3:atemp>18.0</ns3:atemp>
          </ns3:TrackPointExtension>
        </extensions>
      </trkpt>
      <trkpt lat="42.516019977629184722900390625" lon="20.01047040335834026336669921875">
        <ele>1911.5999755859375</ele>
        <time>2026-06-19T09:24:33.000Z</time>
        <extensions>
          <ns3:TrackPointExtension>
            <ns3:atemp>18.0</ns3:atemp>
          </ns3:TrackPointExtension>
        </extensions>
      </trkpt>
      <trkpt lat="42.516019977629184722900390625" lon="20.01047040335834026336669921875">
        <ele>1911.5999755859375</ele>
        <time>2026-06-19T09:24:34.000Z</time>
        <extensions>
          <ns3:TrackPointExtension>
            <ns3:atemp>18.0</ns3:atemp>
          </ns3:TrackPointExtension>
        </extensions>
      </trkpt>
      <trkpt lat="42.516019977629184722900390625" lon="20.01047040335834026336669921875">
        <ele>1911.5999755859375</ele>
        <time>2026-06-19T09:24:35.000Z</time>
        <extensions>
          <ns3:TrackPointExtension>
            <ns3:atemp>18.0</ns3:atemp>
          </ns3:TrackPointExtension>
        </extensions>
      </trkpt>
      <trkpt lat="42.516019977629184722900390625" lon="20.01047040335834026336669921875">
        <ele>1911.5999755859375</ele>
        <time>2026-06-19T09:24:36.000Z</time>
        <extensions>
          <ns3:TrackPointExtension>
            <ns3:atemp>18.0</ns3:atemp>
          </ns3:TrackPointExtension>
        </extensions>
      </trkpt>
      <trkpt lat="42.516019977629184722900390625" lon="20.01047040335834026336669921875">
        <ele>1911.5999755859375</ele>
        <time>2026-06-19T09:24:37.000Z</time>
        <extensions>
          <ns3:TrackPointExtension>
            <ns3:atemp>18.0</ns3:atemp>
          </ns3:TrackPointExtension>
        </extensions>
      </trkpt>
      <trkpt lat="42.516019977629184722900390625" lon="20.01047040335834026336669921875">
        <ele>1911.5999755859375</ele>
        <time>2026-06-19T09:24:38.000Z</time>
        <extensions>
          <ns3:TrackPointExtension>
            <ns3:atemp>18.0</ns3:atemp>
          </ns3:TrackPointExtension>
        </extensions>
      </trkpt>
      <trkpt lat="42.516019977629184722900390625" lon="20.01047040335834026336669921875">
        <ele>1911.5999755859375</ele>
        <time>2026-06-19T09:24:39.000Z</time>
        <extensions>
          <ns3:TrackPointExtension>
            <ns3:atemp>18.0</ns3:atemp>
          </ns3:TrackPointExtension>
        </extensions>
      </trkpt>
      <trkpt lat="42.516019977629184722900390625" lon="20.01047040335834026336669921875">
        <ele>1911.5999755859375</ele>
        <time>2026-06-19T09:24:40.000Z</time>
        <extensions>
          <ns3:TrackPointExtension>
            <ns3:atemp>18.0</ns3:atemp>
          </ns3:TrackPointExtension>
        </extensions>
      </trkpt>
      <trkpt lat="42.516019977629184722900390625" lon="20.01047040335834026336669921875">
        <ele>1911.5999755859375</ele>
        <time>2026-06-19T09:24:41.000Z</time>
        <extensions>
          <ns3:TrackPointExtension>
            <ns3:atemp>18.0</ns3:atemp>
          </ns3:TrackPointExtension>
        </extensions>
      </trkpt>
      <trkpt lat="42.516019977629184722900390625" lon="20.01047040335834026336669921875">
        <ele>1911.5999755859375</ele>
        <time>2026-06-19T09:24:42.000Z</time>
        <extensions>
          <ns3:TrackPointExtension>
            <ns3:atemp>18.0</ns3:atemp>
          </ns3:TrackPointExtension>
        </extensions>
      </trkpt>
      <trkpt lat="42.516019977629184722900390625" lon="20.01047040335834026336669921875">
        <ele>1911.5999755859375</ele>
        <time>2026-06-19T09:24:43.000Z</time>
        <extensions>
          <ns3:TrackPointExtension>
            <ns3:atemp>18.0</ns3:atemp>
          </ns3:TrackPointExtension>
        </extensions>
      </trkpt>
      <trkpt lat="42.516019977629184722900390625" lon="20.01047040335834026336669921875">
        <ele>1911.5999755859375</ele>
        <time>2026-06-19T09:24:44.000Z</time>
        <extensions>
          <ns3:TrackPointExtension>
            <ns3:atemp>18.0</ns3:atemp>
          </ns3:TrackPointExtension>
        </extensions>
      </trkpt>
      <trkpt lat="42.516019977629184722900390625" lon="20.01047040335834026336669921875">
        <ele>1911.5999755859375</ele>
        <time>2026-06-19T09:24:45.000Z</time>
        <extensions>
          <ns3:TrackPointExtension>
            <ns3:atemp>18.0</ns3:atemp>
          </ns3:TrackPointExtension>
        </extensions>
      </trkpt>
      <trkpt lat="42.516019977629184722900390625" lon="20.01047040335834026336669921875">
        <ele>1911.5999755859375</ele>
        <time>2026-06-19T09:24:46.000Z</time>
        <extensions>
          <ns3:TrackPointExtension>
            <ns3:atemp>18.0</ns3:atemp>
          </ns3:TrackPointExtension>
        </extensions>
      </trkpt>
      <trkpt lat="42.516019977629184722900390625" lon="20.01047040335834026336669921875">
        <ele>1911.5999755859375</ele>
        <time>2026-06-19T09:24:47.000Z</time>
        <extensions>
          <ns3:TrackPointExtension>
            <ns3:atemp>18.0</ns3:atemp>
          </ns3:TrackPointExtension>
        </extensions>
      </trkpt>
      <trkpt lat="42.516019977629184722900390625" lon="20.01047040335834026336669921875">
        <ele>1911.5999755859375</ele>
        <time>2026-06-19T09:24:48.000Z</time>
        <extensions>
          <ns3:TrackPointExtension>
            <ns3:atemp>18.0</ns3:atemp>
          </ns3:TrackPointExtension>
        </extensions>
      </trkpt>
      <trkpt lat="42.516019977629184722900390625" lon="20.01047040335834026336669921875">
        <ele>1911.5999755859375</ele>
        <time>2026-06-19T09:24:49.000Z</time>
        <extensions>
          <ns3:TrackPointExtension>
            <ns3:atemp>18.0</ns3:atemp>
          </ns3:TrackPointExtension>
        </extensions>
      </trkpt>
      <trkpt lat="42.516019977629184722900390625" lon="20.01047040335834026336669921875">
        <ele>1911.5999755859375</ele>
        <time>2026-06-19T09:24:50.000Z</time>
        <extensions>
          <ns3:TrackPointExtension>
            <ns3:atemp>18.0</ns3:atemp>
          </ns3:TrackPointExtension>
        </extensions>
      </trkpt>
      <trkpt lat="42.516019977629184722900390625" lon="20.01047040335834026336669921875">
        <ele>1911.5999755859375</ele>
        <time>2026-06-19T09:24:51.000Z</time>
        <extensions>
          <ns3:TrackPointExtension>
            <ns3:atemp>18.0</ns3:atemp>
          </ns3:TrackPointExtension>
        </extensions>
      </trkpt>
      <trkpt lat="42.516019977629184722900390625" lon="20.01047040335834026336669921875">
        <ele>1911.5999755859375</ele>
        <time>2026-06-19T09:24:52.000Z</time>
        <extensions>
          <ns3:TrackPointExtension>
            <ns3:atemp>18.0</ns3:atemp>
          </ns3:TrackPointExtension>
        </extensions>
      </trkpt>
      <trkpt lat="42.516019977629184722900390625" lon="20.01047040335834026336669921875">
        <ele>1911.5999755859375</ele>
        <time>2026-06-19T09:24:53.000Z</time>
        <extensions>
          <ns3:TrackPointExtension>
            <ns3:atemp>18.0</ns3:atemp>
          </ns3:TrackPointExtension>
        </extensions>
      </trkpt>
      <trkpt lat="42.516019977629184722900390625" lon="20.01047040335834026336669921875">
        <ele>1911.5999755859375</ele>
        <time>2026-06-19T09:24:54.000Z</time>
        <extensions>
          <ns3:TrackPointExtension>
            <ns3:atemp>18.0</ns3:atemp>
          </ns3:TrackPointExtension>
        </extensions>
      </trkpt>
      <trkpt lat="42.516019977629184722900390625" lon="20.01047040335834026336669921875">
        <ele>1911.5999755859375</ele>
        <time>2026-06-19T09:24:55.000Z</time>
        <extensions>
          <ns3:TrackPointExtension>
            <ns3:atemp>18.0</ns3:atemp>
          </ns3:TrackPointExtension>
        </extensions>
      </trkpt>
      <trkpt lat="42.516019977629184722900390625" lon="20.01047040335834026336669921875">
        <ele>1911.5999755859375</ele>
        <time>2026-06-19T09:24:56.000Z</time>
        <extensions>
          <ns3:TrackPointExtension>
            <ns3:atemp>18.0</ns3:atemp>
          </ns3:TrackPointExtension>
        </extensions>
      </trkpt>
      <trkpt lat="42.516019977629184722900390625" lon="20.01047040335834026336669921875">
        <ele>1911.5999755859375</ele>
        <time>2026-06-19T09:24:57.000Z</time>
        <extensions>
          <ns3:TrackPointExtension>
            <ns3:atemp>18.0</ns3:atemp>
          </ns3:TrackPointExtension>
        </extensions>
      </trkpt>
      <trkpt lat="42.516019977629184722900390625" lon="20.01047040335834026336669921875">
        <ele>1911.5999755859375</ele>
        <time>2026-06-19T09:24:58.000Z</time>
        <extensions>
          <ns3:TrackPointExtension>
            <ns3:atemp>18.0</ns3:atemp>
          </ns3:TrackPointExtension>
        </extensions>
      </trkpt>
      <trkpt lat="42.516019977629184722900390625" lon="20.01047040335834026336669921875">
        <ele>1911.5999755859375</ele>
        <time>2026-06-19T09:24:59.000Z</time>
        <extensions>
          <ns3:TrackPointExtension>
            <ns3:atemp>18.0</ns3:atemp>
          </ns3:TrackPointExtension>
        </extensions>
      </trkpt>
      <trkpt lat="42.516019977629184722900390625" lon="20.01047040335834026336669921875">
        <ele>1911.5999755859375</ele>
        <time>2026-06-19T09:25:00.000Z</time>
        <extensions>
          <ns3:TrackPointExtension>
            <ns3:atemp>18.0</ns3:atemp>
          </ns3:TrackPointExtension>
        </extensions>
      </trkpt>
      <trkpt lat="42.516019977629184722900390625" lon="20.01047040335834026336669921875">
        <ele>1911.5999755859375</ele>
        <time>2026-06-19T09:25:01.000Z</time>
        <extensions>
          <ns3:TrackPointExtension>
            <ns3:atemp>18.0</ns3:atemp>
          </ns3:TrackPointExtension>
        </extensions>
      </trkpt>
      <trkpt lat="42.516019977629184722900390625" lon="20.01047040335834026336669921875">
        <ele>1911.5999755859375</ele>
        <time>2026-06-19T09:25:02.000Z</time>
        <extensions>
          <ns3:TrackPointExtension>
            <ns3:atemp>18.0</ns3:atemp>
          </ns3:TrackPointExtension>
        </extensions>
      </trkpt>
      <trkpt lat="42.516019977629184722900390625" lon="20.01047040335834026336669921875">
        <ele>1911.5999755859375</ele>
        <time>2026-06-19T09:25:03.000Z</time>
        <extensions>
          <ns3:TrackPointExtension>
            <ns3:atemp>18.0</ns3:atemp>
          </ns3:TrackPointExtension>
        </extensions>
      </trkpt>
      <trkpt lat="42.516019977629184722900390625" lon="20.01047040335834026336669921875">
        <ele>1911.5999755859375</ele>
        <time>2026-06-19T09:25:04.000Z</time>
        <extensions>
          <ns3:TrackPointExtension>
            <ns3:atemp>18.0</ns3:atemp>
          </ns3:TrackPointExtension>
        </extensions>
      </trkpt>
      <trkpt lat="42.516019977629184722900390625" lon="20.01047040335834026336669921875">
        <ele>1911.5999755859375</ele>
        <time>2026-06-19T09:25:05.000Z</time>
        <extensions>
          <ns3:TrackPointExtension>
            <ns3:atemp>18.0</ns3:atemp>
          </ns3:TrackPointExtension>
        </extensions>
      </trkpt>
      <trkpt lat="42.516019977629184722900390625" lon="20.01047040335834026336669921875">
        <ele>1911.5999755859375</ele>
        <time>2026-06-19T09:25:06.000Z</time>
        <extensions>
          <ns3:TrackPointExtension>
            <ns3:atemp>18.0</ns3:atemp>
          </ns3:TrackPointExtension>
        </extensions>
      </trkpt>
      <trkpt lat="42.516019977629184722900390625" lon="20.01047040335834026336669921875">
        <ele>1911.5999755859375</ele>
        <time>2026-06-19T09:25:07.000Z</time>
        <extensions>
          <ns3:TrackPointExtension>
            <ns3:atemp>18.0</ns3:atemp>
          </ns3:TrackPointExtension>
        </extensions>
      </trkpt>
      <trkpt lat="42.516019977629184722900390625" lon="20.01047040335834026336669921875">
        <ele>1911.5999755859375</ele>
        <time>2026-06-19T09:25:08.000Z</time>
        <extensions>
          <ns3:TrackPointExtension>
            <ns3:atemp>18.0</ns3:atemp>
          </ns3:TrackPointExtension>
        </extensions>
      </trkpt>
      <trkpt lat="42.516019977629184722900390625" lon="20.01047040335834026336669921875">
        <ele>1911.5999755859375</ele>
        <time>2026-06-19T09:25:09.000Z</time>
        <extensions>
          <ns3:TrackPointExtension>
            <ns3:atemp>18.0</ns3:atemp>
          </ns3:TrackPointExtension>
        </extensions>
      </trkpt>
      <trkpt lat="42.516019977629184722900390625" lon="20.01047040335834026336669921875">
        <ele>1911.5999755859375</ele>
        <time>2026-06-19T09:25:10.000Z</time>
        <extensions>
          <ns3:TrackPointExtension>
            <ns3:atemp>18.0</ns3:atemp>
          </ns3:TrackPointExtension>
        </extensions>
      </trkpt>
      <trkpt lat="42.516019977629184722900390625" lon="20.01047040335834026336669921875">
        <ele>1911.5999755859375</ele>
        <time>2026-06-19T09:25:11.000Z</time>
        <extensions>
          <ns3:TrackPointExtension>
            <ns3:atemp>18.0</ns3:atemp>
          </ns3:TrackPointExtension>
        </extensions>
      </trkpt>
      <trkpt lat="42.516019977629184722900390625" lon="20.01047040335834026336669921875">
        <ele>1911.5999755859375</ele>
        <time>2026-06-19T09:25:12.000Z</time>
        <extensions>
          <ns3:TrackPointExtension>
            <ns3:atemp>18.0</ns3:atemp>
          </ns3:TrackPointExtension>
        </extensions>
      </trkpt>
      <trkpt lat="42.516019977629184722900390625" lon="20.01047040335834026336669921875">
        <ele>1911.5999755859375</ele>
        <time>2026-06-19T09:25:13.000Z</time>
        <extensions>
          <ns3:TrackPointExtension>
            <ns3:atemp>18.0</ns3:atemp>
          </ns3:TrackPointExtension>
        </extensions>
      </trkpt>
      <trkpt lat="42.516019977629184722900390625" lon="20.01047040335834026336669921875">
        <ele>1911.5999755859375</ele>
        <time>2026-06-19T09:25:14.000Z</time>
        <extensions>
          <ns3:TrackPointExtension>
            <ns3:atemp>18.0</ns3:atemp>
          </ns3:TrackPointExtension>
        </extensions>
      </trkpt>
      <trkpt lat="42.516019977629184722900390625" lon="20.01047040335834026336669921875">
        <ele>1911.5999755859375</ele>
        <time>2026-06-19T09:25:15.000Z</time>
        <extensions>
          <ns3:TrackPointExtension>
            <ns3:atemp>18.0</ns3:atemp>
          </ns3:TrackPointExtension>
        </extensions>
      </trkpt>
      <trkpt lat="42.516019977629184722900390625" lon="20.01047040335834026336669921875">
        <ele>1911.5999755859375</ele>
        <time>2026-06-19T09:25:16.000Z</time>
        <extensions>
          <ns3:TrackPointExtension>
            <ns3:atemp>18.0</ns3:atemp>
          </ns3:TrackPointExtension>
        </extensions>
      </trkpt>
      <trkpt lat="42.516019977629184722900390625" lon="20.01047040335834026336669921875">
        <ele>1911.5999755859375</ele>
        <time>2026-06-19T09:25:17.000Z</time>
        <extensions>
          <ns3:TrackPointExtension>
            <ns3:atemp>18.0</ns3:atemp>
          </ns3:TrackPointExtension>
        </extensions>
      </trkpt>
      <trkpt lat="42.516019977629184722900390625" lon="20.01047040335834026336669921875">
        <ele>1911.5999755859375</ele>
        <time>2026-06-19T09:25:18.000Z</time>
        <extensions>
          <ns3:TrackPointExtension>
            <ns3:atemp>18.0</ns3:atemp>
          </ns3:TrackPointExtension>
        </extensions>
      </trkpt>
      <trkpt lat="42.516019977629184722900390625" lon="20.01047040335834026336669921875">
        <ele>1911.5999755859375</ele>
        <time>2026-06-19T09:25:19.000Z</time>
        <extensions>
          <ns3:TrackPointExtension>
            <ns3:atemp>18.0</ns3:atemp>
          </ns3:TrackPointExtension>
        </extensions>
      </trkpt>
      <trkpt lat="42.516019977629184722900390625" lon="20.01047040335834026336669921875">
        <ele>1911.5999755859375</ele>
        <time>2026-06-19T09:25:20.000Z</time>
        <extensions>
          <ns3:TrackPointExtension>
            <ns3:atemp>18.0</ns3:atemp>
          </ns3:TrackPointExtension>
        </extensions>
      </trkpt>
      <trkpt lat="42.516019977629184722900390625" lon="20.01047040335834026336669921875">
        <ele>1911.5999755859375</ele>
        <time>2026-06-19T09:25:21.000Z</time>
        <extensions>
          <ns3:TrackPointExtension>
            <ns3:atemp>18.0</ns3:atemp>
          </ns3:TrackPointExtension>
        </extensions>
      </trkpt>
      <trkpt lat="42.516019977629184722900390625" lon="20.01047040335834026336669921875">
        <ele>1911.5999755859375</ele>
        <time>2026-06-19T09:25:22.000Z</time>
        <extensions>
          <ns3:TrackPointExtension>
            <ns3:atemp>18.0</ns3:atemp>
          </ns3:TrackPointExtension>
        </extensions>
      </trkpt>
      <trkpt lat="42.516019977629184722900390625" lon="20.01047040335834026336669921875">
        <ele>1911.5999755859375</ele>
        <time>2026-06-19T09:25:23.000Z</time>
        <extensions>
          <ns3:TrackPointExtension>
            <ns3:atemp>18.0</ns3:atemp>
          </ns3:TrackPointExtension>
        </extensions>
      </trkpt>
      <trkpt lat="42.516019977629184722900390625" lon="20.01047040335834026336669921875">
        <ele>1911.5999755859375</ele>
        <time>2026-06-19T09:25:24.000Z</time>
        <extensions>
          <ns3:TrackPointExtension>
            <ns3:atemp>18.0</ns3:atemp>
          </ns3:TrackPointExtension>
        </extensions>
      </trkpt>
      <trkpt lat="42.516019977629184722900390625" lon="20.01047040335834026336669921875">
        <ele>1911.5999755859375</ele>
        <time>2026-06-19T09:25:25.000Z</time>
        <extensions>
          <ns3:TrackPointExtension>
            <ns3:atemp>18.0</ns3:atemp>
          </ns3:TrackPointExtension>
        </extensions>
      </trkpt>
      <trkpt lat="42.516019977629184722900390625" lon="20.01047040335834026336669921875">
        <ele>1911.5999755859375</ele>
        <time>2026-06-19T09:25:26.000Z</time>
        <extensions>
          <ns3:TrackPointExtension>
            <ns3:atemp>18.0</ns3:atemp>
          </ns3:TrackPointExtension>
        </extensions>
      </trkpt>
      <trkpt lat="42.516019977629184722900390625" lon="20.01047040335834026336669921875">
        <ele>1911.5999755859375</ele>
        <time>2026-06-19T09:25:27.000Z</time>
        <extensions>
          <ns3:TrackPointExtension>
            <ns3:atemp>18.0</ns3:atemp>
          </ns3:TrackPointExtension>
        </extensions>
      </trkpt>
      <trkpt lat="42.516019977629184722900390625" lon="20.01047040335834026336669921875">
        <ele>1911.5999755859375</ele>
        <time>2026-06-19T09:25:28.000Z</time>
        <extensions>
          <ns3:TrackPointExtension>
            <ns3:atemp>18.0</ns3:atemp>
          </ns3:TrackPointExtension>
        </extensions>
      </trkpt>
      <trkpt lat="42.516019977629184722900390625" lon="20.01047040335834026336669921875">
        <ele>1911.5999755859375</ele>
        <time>2026-06-19T09:25:29.000Z</time>
        <extensions>
          <ns3:TrackPointExtension>
            <ns3:atemp>18.0</ns3:atemp>
          </ns3:TrackPointExtension>
        </extensions>
      </trkpt>
      <trkpt lat="42.516019977629184722900390625" lon="20.01047040335834026336669921875">
        <ele>1911.5999755859375</ele>
        <time>2026-06-19T09:25:30.000Z</time>
        <extensions>
          <ns3:TrackPointExtension>
            <ns3:atemp>18.0</ns3:atemp>
          </ns3:TrackPointExtension>
        </extensions>
      </trkpt>
      <trkpt lat="42.516019977629184722900390625" lon="20.01047040335834026336669921875">
        <ele>1911.5999755859375</ele>
        <time>2026-06-19T09:25:31.000Z</time>
        <extensions>
          <ns3:TrackPointExtension>
            <ns3:atemp>18.0</ns3:atemp>
          </ns3:TrackPointExtension>
        </extensions>
      </trkpt>
      <trkpt lat="42.516019977629184722900390625" lon="20.01047040335834026336669921875">
        <ele>1911.5999755859375</ele>
        <time>2026-06-19T09:25:32.000Z</time>
        <extensions>
          <ns3:TrackPointExtension>
            <ns3:atemp>18.0</ns3:atemp>
          </ns3:TrackPointExtension>
        </extensions>
      </trkpt>
      <trkpt lat="42.516019977629184722900390625" lon="20.01047040335834026336669921875">
        <ele>1911.5999755859375</ele>
        <time>2026-06-19T09:25:33.000Z</time>
        <extensions>
          <ns3:TrackPointExtension>
            <ns3:atemp>18.0</ns3:atemp>
          </ns3:TrackPointExtension>
        </extensions>
      </trkpt>
      <trkpt lat="42.516019977629184722900390625" lon="20.01047040335834026336669921875">
        <ele>1911.5999755859375</ele>
        <time>2026-06-19T09:25:34.000Z</time>
        <extensions>
          <ns3:TrackPointExtension>
            <ns3:atemp>18.0</ns3:atemp>
          </ns3:TrackPointExtension>
        </extensions>
      </trkpt>
      <trkpt lat="42.516019977629184722900390625" lon="20.01047040335834026336669921875">
        <ele>1911.5999755859375</ele>
        <time>2026-06-19T09:25:35.000Z</time>
        <extensions>
          <ns3:TrackPointExtension>
            <ns3:atemp>18.0</ns3:atemp>
          </ns3:TrackPointExtension>
        </extensions>
      </trkpt>
      <trkpt lat="42.516019977629184722900390625" lon="20.01047040335834026336669921875">
        <ele>1911.5999755859375</ele>
        <time>2026-06-19T09:25:36.000Z</time>
        <extensions>
          <ns3:TrackPointExtension>
            <ns3:atemp>18.0</ns3:atemp>
          </ns3:TrackPointExtension>
        </extensions>
      </trkpt>
      <trkpt lat="42.516019977629184722900390625" lon="20.01047040335834026336669921875">
        <ele>1911.5999755859375</ele>
        <time>2026-06-19T09:25:37.000Z</time>
        <extensions>
          <ns3:TrackPointExtension>
            <ns3:atemp>18.0</ns3:atemp>
          </ns3:TrackPointExtension>
        </extensions>
      </trkpt>
      <trkpt lat="42.516019977629184722900390625" lon="20.01047040335834026336669921875">
        <ele>1911.5999755859375</ele>
        <time>2026-06-19T09:25:38.000Z</time>
        <extensions>
          <ns3:TrackPointExtension>
            <ns3:atemp>18.0</ns3:atemp>
          </ns3:TrackPointExtension>
        </extensions>
      </trkpt>
      <trkpt lat="42.516019977629184722900390625" lon="20.01047040335834026336669921875">
        <ele>1911.5999755859375</ele>
        <time>2026-06-19T09:25:39.000Z</time>
        <extensions>
          <ns3:TrackPointExtension>
            <ns3:atemp>18.0</ns3:atemp>
          </ns3:TrackPointExtension>
        </extensions>
      </trkpt>
      <trkpt lat="42.516019977629184722900390625" lon="20.01047040335834026336669921875">
        <ele>1911.5999755859375</ele>
        <time>2026-06-19T09:25:40.000Z</time>
        <extensions>
          <ns3:TrackPointExtension>
            <ns3:atemp>18.0</ns3:atemp>
          </ns3:TrackPointExtension>
        </extensions>
      </trkpt>
      <trkpt lat="42.516019977629184722900390625" lon="20.01047040335834026336669921875">
        <ele>1911.5999755859375</ele>
        <time>2026-06-19T09:25:41.000Z</time>
        <extensions>
          <ns3:TrackPointExtension>
            <ns3:atemp>18.0</ns3:atemp>
          </ns3:TrackPointExtension>
        </extensions>
      </trkpt>
      <trkpt lat="42.516019977629184722900390625" lon="20.01047040335834026336669921875">
        <ele>1911.5999755859375</ele>
        <time>2026-06-19T09:25:42.000Z</time>
        <extensions>
          <ns3:TrackPointExtension>
            <ns3:atemp>18.0</ns3:atemp>
          </ns3:TrackPointExtension>
        </extensions>
      </trkpt>
      <trkpt lat="42.516019977629184722900390625" lon="20.01047040335834026336669921875">
        <ele>1911.5999755859375</ele>
        <time>2026-06-19T09:25:43.000Z</time>
        <extensions>
          <ns3:TrackPointExtension>
            <ns3:atemp>18.0</ns3:atemp>
          </ns3:TrackPointExtension>
        </extensions>
      </trkpt>
      <trkpt lat="42.516019977629184722900390625" lon="20.01047040335834026336669921875">
        <ele>1911.5999755859375</ele>
        <time>2026-06-19T09:25:44.000Z</time>
        <extensions>
          <ns3:TrackPointExtension>
            <ns3:atemp>18.0</ns3:atemp>
          </ns3:TrackPointExtension>
        </extensions>
      </trkpt>
      <trkpt lat="42.516019977629184722900390625" lon="20.01047040335834026336669921875">
        <ele>1911.5999755859375</ele>
        <time>2026-06-19T09:25:45.000Z</time>
        <extensions>
          <ns3:TrackPointExtension>
            <ns3:atemp>18.0</ns3:atemp>
          </ns3:TrackPointExtension>
        </extensions>
      </trkpt>
      <trkpt lat="42.516019977629184722900390625" lon="20.01047040335834026336669921875">
        <ele>1911.5999755859375</ele>
        <time>2026-06-19T09:25:46.000Z</time>
        <extensions>
          <ns3:TrackPointExtension>
            <ns3:atemp>18.0</ns3:atemp>
          </ns3:TrackPointExtension>
        </extensions>
      </trkpt>
      <trkpt lat="42.516019977629184722900390625" lon="20.01047040335834026336669921875">
        <ele>1911.5999755859375</ele>
        <time>2026-06-19T09:25:47.000Z</time>
        <extensions>
          <ns3:TrackPointExtension>
            <ns3:atemp>18.0</ns3:atemp>
          </ns3:TrackPointExtension>
        </extensions>
      </trkpt>
      <trkpt lat="42.516019977629184722900390625" lon="20.01047040335834026336669921875">
        <ele>1911.5999755859375</ele>
        <time>2026-06-19T09:25:48.000Z</time>
        <extensions>
          <ns3:TrackPointExtension>
            <ns3:atemp>18.0</ns3:atemp>
          </ns3:TrackPointExtension>
        </extensions>
      </trkpt>
      <trkpt lat="42.516019977629184722900390625" lon="20.01047040335834026336669921875">
        <ele>1911.5999755859375</ele>
        <time>2026-06-19T09:25:49.000Z</time>
        <extensions>
          <ns3:TrackPointExtension>
            <ns3:atemp>18.0</ns3:atemp>
          </ns3:TrackPointExtension>
        </extensions>
      </trkpt>
      <trkpt lat="42.516019977629184722900390625" lon="20.01047040335834026336669921875">
        <ele>1911.5999755859375</ele>
        <time>2026-06-19T09:25:50.000Z</time>
        <extensions>
          <ns3:TrackPointExtension>
            <ns3:atemp>18.0</ns3:atemp>
          </ns3:TrackPointExtension>
        </extensions>
      </trkpt>
      <trkpt lat="42.516019977629184722900390625" lon="20.01047040335834026336669921875">
        <ele>1911.5999755859375</ele>
        <time>2026-06-19T09:25:51.000Z</time>
        <extensions>
          <ns3:TrackPointExtension>
            <ns3:atemp>18.0</ns3:atemp>
          </ns3:TrackPointExtension>
        </extensions>
      </trkpt>
      <trkpt lat="42.516019977629184722900390625" lon="20.01047040335834026336669921875">
        <ele>1911.5999755859375</ele>
        <time>2026-06-19T09:25:52.000Z</time>
        <extensions>
          <ns3:TrackPointExtension>
            <ns3:atemp>18.0</ns3:atemp>
          </ns3:TrackPointExtension>
        </extensions>
      </trkpt>
      <trkpt lat="42.516019977629184722900390625" lon="20.01047040335834026336669921875">
        <ele>1911.5999755859375</ele>
        <time>2026-06-19T09:25:53.000Z</time>
        <extensions>
          <ns3:TrackPointExtension>
            <ns3:atemp>18.0</ns3:atemp>
          </ns3:TrackPointExtension>
        </extensions>
      </trkpt>
      <trkpt lat="42.516019977629184722900390625" lon="20.01047040335834026336669921875">
        <ele>1911.5999755859375</ele>
        <time>2026-06-19T09:25:54.000Z</time>
        <extensions>
          <ns3:TrackPointExtension>
            <ns3:atemp>18.0</ns3:atemp>
          </ns3:TrackPointExtension>
        </extensions>
      </trkpt>
      <trkpt lat="42.516019977629184722900390625" lon="20.01047040335834026336669921875">
        <ele>1911.5999755859375</ele>
        <time>2026-06-19T09:25:55.000Z</time>
        <extensions>
          <ns3:TrackPointExtension>
            <ns3:atemp>18.0</ns3:atemp>
          </ns3:TrackPointExtension>
        </extensions>
      </trkpt>
      <trkpt lat="42.516019977629184722900390625" lon="20.01047040335834026336669921875">
        <ele>1911.5999755859375</ele>
        <time>2026-06-19T09:25:56.000Z</time>
        <extensions>
          <ns3:TrackPointExtension>
            <ns3:atemp>18.0</ns3:atemp>
          </ns3:TrackPointExtension>
        </extensions>
      </trkpt>
      <trkpt lat="42.516019977629184722900390625" lon="20.01047040335834026336669921875">
        <ele>1911.5999755859375</ele>
        <time>2026-06-19T09:25:57.000Z</time>
        <extensions>
          <ns3:TrackPointExtension>
            <ns3:atemp>18.0</ns3:atemp>
          </ns3:TrackPointExtension>
        </extensions>
      </trkpt>
      <trkpt lat="42.516019977629184722900390625" lon="20.01047040335834026336669921875">
        <ele>1911.5999755859375</ele>
        <time>2026-06-19T09:25:58.000Z</time>
        <extensions>
          <ns3:TrackPointExtension>
            <ns3:atemp>18.0</ns3:atemp>
          </ns3:TrackPointExtension>
        </extensions>
      </trkpt>
      <trkpt lat="42.516019977629184722900390625" lon="20.01047040335834026336669921875">
        <ele>1911.5999755859375</ele>
        <time>2026-06-19T09:25:59.000Z</time>
        <extensions>
          <ns3:TrackPointExtension>
            <ns3:atemp>18.0</ns3:atemp>
          </ns3:TrackPointExtension>
        </extensions>
      </trkpt>
      <trkpt lat="42.516019977629184722900390625" lon="20.01047040335834026336669921875">
        <ele>1911.5999755859375</ele>
        <time>2026-06-19T09:26:00.000Z</time>
        <extensions>
          <ns3:TrackPointExtension>
            <ns3:atemp>18.0</ns3:atemp>
          </ns3:TrackPointExtension>
        </extensions>
      </trkpt>
      <trkpt lat="42.516019977629184722900390625" lon="20.01047040335834026336669921875">
        <ele>1911.5999755859375</ele>
        <time>2026-06-19T09:26:01.000Z</time>
        <extensions>
          <ns3:TrackPointExtension>
            <ns3:atemp>18.0</ns3:atemp>
          </ns3:TrackPointExtension>
        </extensions>
      </trkpt>
      <trkpt lat="42.516019977629184722900390625" lon="20.01047040335834026336669921875">
        <ele>1911.5999755859375</ele>
        <time>2026-06-19T09:26:02.000Z</time>
        <extensions>
          <ns3:TrackPointExtension>
            <ns3:atemp>18.0</ns3:atemp>
          </ns3:TrackPointExtension>
        </extensions>
      </trkpt>
      <trkpt lat="42.516019977629184722900390625" lon="20.01047040335834026336669921875">
        <ele>1911.5999755859375</ele>
        <time>2026-06-19T09:26:03.000Z</time>
        <extensions>
          <ns3:TrackPointExtension>
            <ns3:atemp>18.0</ns3:atemp>
          </ns3:TrackPointExtension>
        </extensions>
      </trkpt>
      <trkpt lat="42.516019977629184722900390625" lon="20.01047040335834026336669921875">
        <ele>1911.5999755859375</ele>
        <time>2026-06-19T09:26:04.000Z</time>
        <extensions>
          <ns3:TrackPointExtension>
            <ns3:atemp>18.0</ns3:atemp>
          </ns3:TrackPointExtension>
        </extensions>
      </trkpt>
      <trkpt lat="42.516019977629184722900390625" lon="20.01047040335834026336669921875">
        <ele>1911.5999755859375</ele>
        <time>2026-06-19T09:26:05.000Z</time>
        <extensions>
          <ns3:TrackPointExtension>
            <ns3:atemp>18.0</ns3:atemp>
          </ns3:TrackPointExtension>
        </extensions>
      </trkpt>
      <trkpt lat="42.516019977629184722900390625" lon="20.01047040335834026336669921875">
        <ele>1911.5999755859375</ele>
        <time>2026-06-19T09:26:06.000Z</time>
        <extensions>
          <ns3:TrackPointExtension>
            <ns3:atemp>18.0</ns3:atemp>
          </ns3:TrackPointExtension>
        </extensions>
      </trkpt>
      <trkpt lat="42.516019977629184722900390625" lon="20.01047040335834026336669921875">
        <ele>1911.5999755859375</ele>
        <time>2026-06-19T09:26:07.000Z</time>
        <extensions>
          <ns3:TrackPointExtension>
            <ns3:atemp>18.0</ns3:atemp>
          </ns3:TrackPointExtension>
        </extensions>
      </trkpt>
      <trkpt lat="42.516019977629184722900390625" lon="20.01047040335834026336669921875">
        <ele>1911.5999755859375</ele>
        <time>2026-06-19T09:26:08.000Z</time>
        <extensions>
          <ns3:TrackPointExtension>
            <ns3:atemp>18.0</ns3:atemp>
          </ns3:TrackPointExtension>
        </extensions>
      </trkpt>
      <trkpt lat="42.516019977629184722900390625" lon="20.01047040335834026336669921875">
        <ele>1911.5999755859375</ele>
        <time>2026-06-19T09:26:09.000Z</time>
        <extensions>
          <ns3:TrackPointExtension>
            <ns3:atemp>18.0</ns3:atemp>
          </ns3:TrackPointExtension>
        </extensions>
      </trkpt>
      <trkpt lat="42.516019977629184722900390625" lon="20.01047040335834026336669921875">
        <ele>1911.5999755859375</ele>
        <time>2026-06-19T09:26:10.000Z</time>
        <extensions>
          <ns3:TrackPointExtension>
            <ns3:atemp>18.0</ns3:atemp>
          </ns3:TrackPointExtension>
        </extensions>
      </trkpt>
      <trkpt lat="42.516019977629184722900390625" lon="20.01047040335834026336669921875">
        <ele>1911.5999755859375</ele>
        <time>2026-06-19T09:26:11.000Z</time>
        <extensions>
          <ns3:TrackPointExtension>
            <ns3:atemp>18.0</ns3:atemp>
          </ns3:TrackPointExtension>
        </extensions>
      </trkpt>
      <trkpt lat="42.516019977629184722900390625" lon="20.01047040335834026336669921875">
        <ele>1911.5999755859375</ele>
        <time>2026-06-19T09:26:12.000Z</time>
        <extensions>
          <ns3:TrackPointExtension>
            <ns3:atemp>18.0</ns3:atemp>
          </ns3:TrackPointExtension>
        </extensions>
      </trkpt>
      <trkpt lat="42.516019977629184722900390625" lon="20.01047040335834026336669921875">
        <ele>1911.5999755859375</ele>
        <time>2026-06-19T09:26:13.000Z</time>
        <extensions>
          <ns3:TrackPointExtension>
            <ns3:atemp>18.0</ns3:atemp>
          </ns3:TrackPointExtension>
        </extensions>
      </trkpt>
      <trkpt lat="42.516019977629184722900390625" lon="20.01047040335834026336669921875">
        <ele>1911.5999755859375</ele>
        <time>2026-06-19T09:26:14.000Z</time>
        <extensions>
          <ns3:TrackPointExtension>
            <ns3:atemp>18.0</ns3:atemp>
          </ns3:TrackPointExtension>
        </extensions>
      </trkpt>
      <trkpt lat="42.516019977629184722900390625" lon="20.01047040335834026336669921875">
        <ele>1911.5999755859375</ele>
        <time>2026-06-19T09:26:15.000Z</time>
        <extensions>
          <ns3:TrackPointExtension>
            <ns3:atemp>18.0</ns3:atemp>
          </ns3:TrackPointExtension>
        </extensions>
      </trkpt>
      <trkpt lat="42.516019977629184722900390625" lon="20.01047040335834026336669921875">
        <ele>1911.5999755859375</ele>
        <time>2026-06-19T09:26:16.000Z</time>
        <extensions>
          <ns3:TrackPointExtension>
            <ns3:atemp>18.0</ns3:atemp>
          </ns3:TrackPointExtension>
        </extensions>
      </trkpt>
      <trkpt lat="42.516019977629184722900390625" lon="20.01047040335834026336669921875">
        <ele>1911.5999755859375</ele>
        <time>2026-06-19T09:26:17.000Z</time>
        <extensions>
          <ns3:TrackPointExtension>
            <ns3:atemp>18.0</ns3:atemp>
          </ns3:TrackPointExtension>
        </extensions>
      </trkpt>
      <trkpt lat="42.516019977629184722900390625" lon="20.01047040335834026336669921875">
        <ele>1911.5999755859375</ele>
        <time>2026-06-19T09:26:18.000Z</time>
        <extensions>
          <ns3:TrackPointExtension>
            <ns3:atemp>18.0</ns3:atemp>
          </ns3:TrackPointExtension>
        </extensions>
      </trkpt>
      <trkpt lat="42.516019977629184722900390625" lon="20.01047040335834026336669921875">
        <ele>1911.5999755859375</ele>
        <time>2026-06-19T09:26:19.000Z</time>
        <extensions>
          <ns3:TrackPointExtension>
            <ns3:atemp>18.0</ns3:atemp>
          </ns3:TrackPointExtension>
        </extensions>
      </trkpt>
      <trkpt lat="42.516019977629184722900390625" lon="20.01047040335834026336669921875">
        <ele>1911.5999755859375</ele>
        <time>2026-06-19T09:26:20.000Z</time>
        <extensions>
          <ns3:TrackPointExtension>
            <ns3:atemp>18.0</ns3:atemp>
          </ns3:TrackPointExtension>
        </extensions>
      </trkpt>
      <trkpt lat="42.516019977629184722900390625" lon="20.01047040335834026336669921875">
        <ele>1911.5999755859375</ele>
        <time>2026-06-19T09:26:21.000Z</time>
        <extensions>
          <ns3:TrackPointExtension>
            <ns3:atemp>18.0</ns3:atemp>
          </ns3:TrackPointExtension>
        </extensions>
      </trkpt>
      <trkpt lat="42.516019977629184722900390625" lon="20.01047040335834026336669921875">
        <ele>1911.5999755859375</ele>
        <time>2026-06-19T09:26:22.000Z</time>
        <extensions>
          <ns3:TrackPointExtension>
            <ns3:atemp>18.0</ns3:atemp>
          </ns3:TrackPointExtension>
        </extensions>
      </trkpt>
      <trkpt lat="42.516019977629184722900390625" lon="20.01047040335834026336669921875">
        <ele>1911.5999755859375</ele>
        <time>2026-06-19T09:26:23.000Z</time>
        <extensions>
          <ns3:TrackPointExtension>
            <ns3:atemp>18.0</ns3:atemp>
          </ns3:TrackPointExtension>
        </extensions>
      </trkpt>
      <trkpt lat="42.516019977629184722900390625" lon="20.01047040335834026336669921875">
        <ele>1911.5999755859375</ele>
        <time>2026-06-19T09:26:24.000Z</time>
        <extensions>
          <ns3:TrackPointExtension>
            <ns3:atemp>18.0</ns3:atemp>
          </ns3:TrackPointExtension>
        </extensions>
      </trkpt>
      <trkpt lat="42.516019977629184722900390625" lon="20.01047040335834026336669921875">
        <ele>1911.5999755859375</ele>
        <time>2026-06-19T09:26:25.000Z</time>
        <extensions>
          <ns3:TrackPointExtension>
            <ns3:atemp>18.0</ns3:atemp>
          </ns3:TrackPointExtension>
        </extensions>
      </trkpt>
      <trkpt lat="42.516019977629184722900390625" lon="20.01047040335834026336669921875">
        <ele>1911.5999755859375</ele>
        <time>2026-06-19T09:26:26.000Z</time>
        <extensions>
          <ns3:TrackPointExtension>
            <ns3:atemp>18.0</ns3:atemp>
          </ns3:TrackPointExtension>
        </extensions>
      </trkpt>
      <trkpt lat="42.516019977629184722900390625" lon="20.01047040335834026336669921875">
        <ele>1911.5999755859375</ele>
        <time>2026-06-19T09:26:27.000Z</time>
        <extensions>
          <ns3:TrackPointExtension>
            <ns3:atemp>18.0</ns3:atemp>
          </ns3:TrackPointExtension>
        </extensions>
      </trkpt>
      <trkpt lat="42.516019977629184722900390625" lon="20.01047040335834026336669921875">
        <ele>1911.5999755859375</ele>
        <time>2026-06-19T09:26:28.000Z</time>
        <extensions>
          <ns3:TrackPointExtension>
            <ns3:atemp>18.0</ns3:atemp>
          </ns3:TrackPointExtension>
        </extensions>
      </trkpt>
      <trkpt lat="42.516019977629184722900390625" lon="20.01047040335834026336669921875">
        <ele>1911.5999755859375</ele>
        <time>2026-06-19T09:26:29.000Z</time>
        <extensions>
          <ns3:TrackPointExtension>
            <ns3:atemp>18.0</ns3:atemp>
          </ns3:TrackPointExtension>
        </extensions>
      </trkpt>
      <trkpt lat="42.516019977629184722900390625" lon="20.01047040335834026336669921875">
        <ele>1911.5999755859375</ele>
        <time>2026-06-19T09:26:30.000Z</time>
        <extensions>
          <ns3:TrackPointExtension>
            <ns3:atemp>18.0</ns3:atemp>
          </ns3:TrackPointExtension>
        </extensions>
      </trkpt>
      <trkpt lat="42.516019977629184722900390625" lon="20.01047040335834026336669921875">
        <ele>1911.5999755859375</ele>
        <time>2026-06-19T09:26:31.000Z</time>
        <extensions>
          <ns3:TrackPointExtension>
            <ns3:atemp>18.0</ns3:atemp>
          </ns3:TrackPointExtension>
        </extensions>
      </trkpt>
      <trkpt lat="42.516019977629184722900390625" lon="20.01047040335834026336669921875">
        <ele>1911.5999755859375</ele>
        <time>2026-06-19T09:26:32.000Z</time>
        <extensions>
          <ns3:TrackPointExtension>
            <ns3:atemp>18.0</ns3:atemp>
          </ns3:TrackPointExtension>
        </extensions>
      </trkpt>
      <trkpt lat="42.516019977629184722900390625" lon="20.01047040335834026336669921875">
        <ele>1911.5999755859375</ele>
        <time>2026-06-19T09:26:33.000Z</time>
        <extensions>
          <ns3:TrackPointExtension>
            <ns3:atemp>18.0</ns3:atemp>
          </ns3:TrackPointExtension>
        </extensions>
      </trkpt>
      <trkpt lat="42.516019977629184722900390625" lon="20.01047040335834026336669921875">
        <ele>1911.5999755859375</ele>
        <time>2026-06-19T09:26:34.000Z</time>
        <extensions>
          <ns3:TrackPointExtension>
            <ns3:atemp>18.0</ns3:atemp>
          </ns3:TrackPointExtension>
        </extensions>
      </trkpt>
      <trkpt lat="42.516019977629184722900390625" lon="20.01047040335834026336669921875">
        <ele>1911.5999755859375</ele>
        <time>2026-06-19T09:26:35.000Z</time>
        <extensions>
          <ns3:TrackPointExtension>
            <ns3:atemp>18.0</ns3:atemp>
          </ns3:TrackPointExtension>
        </extensions>
      </trkpt>
      <trkpt lat="42.516019977629184722900390625" lon="20.01047040335834026336669921875">
        <ele>1911.5999755859375</ele>
        <time>2026-06-19T09:26:36.000Z</time>
        <extensions>
          <ns3:TrackPointExtension>
            <ns3:atemp>18.0</ns3:atemp>
          </ns3:TrackPointExtension>
        </extensions>
      </trkpt>
      <trkpt lat="42.516019977629184722900390625" lon="20.01047040335834026336669921875">
        <ele>1911.5999755859375</ele>
        <time>2026-06-19T09:26:37.000Z</time>
        <extensions>
          <ns3:TrackPointExtension>
            <ns3:atemp>18.0</ns3:atemp>
          </ns3:TrackPointExtension>
        </extensions>
      </trkpt>
      <trkpt lat="42.516019977629184722900390625" lon="20.01047040335834026336669921875">
        <ele>1911.5999755859375</ele>
        <time>2026-06-19T09:26:38.000Z</time>
        <extensions>
          <ns3:TrackPointExtension>
            <ns3:atemp>18.0</ns3:atemp>
          </ns3:TrackPointExtension>
        </extensions>
      </trkpt>
      <trkpt lat="42.516019977629184722900390625" lon="20.01047040335834026336669921875">
        <ele>1911.5999755859375</ele>
        <time>2026-06-19T09:26:39.000Z</time>
        <extensions>
          <ns3:TrackPointExtension>
            <ns3:atemp>18.0</ns3:atemp>
          </ns3:TrackPointExtension>
        </extensions>
      </trkpt>
      <trkpt lat="42.516019977629184722900390625" lon="20.01047040335834026336669921875">
        <ele>1911.5999755859375</ele>
        <time>2026-06-19T09:26:40.000Z</time>
        <extensions>
          <ns3:TrackPointExtension>
            <ns3:atemp>18.0</ns3:atemp>
          </ns3:TrackPointExtension>
        </extensions>
      </trkpt>
      <trkpt lat="42.516019977629184722900390625" lon="20.01047040335834026336669921875">
        <ele>1911.5999755859375</ele>
        <time>2026-06-19T09:26:41.000Z</time>
        <extensions>
          <ns3:TrackPointExtension>
            <ns3:atemp>18.0</ns3:atemp>
          </ns3:TrackPointExtension>
        </extensions>
      </trkpt>
      <trkpt lat="42.516019977629184722900390625" lon="20.01047040335834026336669921875">
        <ele>1911.5999755859375</ele>
        <time>2026-06-19T09:26:42.000Z</time>
        <extensions>
          <ns3:TrackPointExtension>
            <ns3:atemp>18.0</ns3:atemp>
          </ns3:TrackPointExtension>
        </extensions>
      </trkpt>
      <trkpt lat="42.516019977629184722900390625" lon="20.01047040335834026336669921875">
        <ele>1911.5999755859375</ele>
        <time>2026-06-19T09:26:43.000Z</time>
        <extensions>
          <ns3:TrackPointExtension>
            <ns3:atemp>18.0</ns3:atemp>
          </ns3:TrackPointExtension>
        </extensions>
      </trkpt>
      <trkpt lat="42.516019977629184722900390625" lon="20.01047040335834026336669921875">
        <ele>1911.5999755859375</ele>
        <time>2026-06-19T09:26:44.000Z</time>
        <extensions>
          <ns3:TrackPointExtension>
            <ns3:atemp>18.0</ns3:atemp>
          </ns3:TrackPointExtension>
        </extensions>
      </trkpt>
      <trkpt lat="42.516019977629184722900390625" lon="20.01047040335834026336669921875">
        <ele>1911.5999755859375</ele>
        <time>2026-06-19T09:26:45.000Z</time>
        <extensions>
          <ns3:TrackPointExtension>
            <ns3:atemp>18.0</ns3:atemp>
          </ns3:TrackPointExtension>
        </extensions>
      </trkpt>
      <trkpt lat="42.516019977629184722900390625" lon="20.01047040335834026336669921875">
        <ele>1911.5999755859375</ele>
        <time>2026-06-19T09:26:46.000Z</time>
        <extensions>
          <ns3:TrackPointExtension>
            <ns3:atemp>18.0</ns3:atemp>
          </ns3:TrackPointExtension>
        </extensions>
      </trkpt>
      <trkpt lat="42.516019977629184722900390625" lon="20.01047040335834026336669921875">
        <ele>1911.5999755859375</ele>
        <time>2026-06-19T09:26:47.000Z</time>
        <extensions>
          <ns3:TrackPointExtension>
            <ns3:atemp>18.0</ns3:atemp>
          </ns3:TrackPointExtension>
        </extensions>
      </trkpt>
      <trkpt lat="42.516019977629184722900390625" lon="20.01047040335834026336669921875">
        <ele>1911.5999755859375</ele>
        <time>2026-06-19T09:26:48.000Z</time>
        <extensions>
          <ns3:TrackPointExtension>
            <ns3:atemp>18.0</ns3:atemp>
          </ns3:TrackPointExtension>
        </extensions>
      </trkpt>
      <trkpt lat="42.516019977629184722900390625" lon="20.01047040335834026336669921875">
        <ele>1911.5999755859375</ele>
        <time>2026-06-19T09:26:49.000Z</time>
        <extensions>
          <ns3:TrackPointExtension>
            <ns3:atemp>18.0</ns3:atemp>
          </ns3:TrackPointExtension>
        </extensions>
      </trkpt>
      <trkpt lat="42.516019977629184722900390625" lon="20.01047040335834026336669921875">
        <ele>1911.5999755859375</ele>
        <time>2026-06-19T09:26:50.000Z</time>
        <extensions>
          <ns3:TrackPointExtension>
            <ns3:atemp>18.0</ns3:atemp>
          </ns3:TrackPointExtension>
        </extensions>
      </trkpt>
      <trkpt lat="42.516019977629184722900390625" lon="20.01047040335834026336669921875">
        <ele>1911.5999755859375</ele>
        <time>2026-06-19T09:26:51.000Z</time>
        <extensions>
          <ns3:TrackPointExtension>
            <ns3:atemp>18.0</ns3:atemp>
          </ns3:TrackPointExtension>
        </extensions>
      </trkpt>
      <trkpt lat="42.516019977629184722900390625" lon="20.01047040335834026336669921875">
        <ele>1911.5999755859375</ele>
        <time>2026-06-19T09:26:52.000Z</time>
        <extensions>
          <ns3:TrackPointExtension>
            <ns3:atemp>18.0</ns3:atemp>
          </ns3:TrackPointExtension>
        </extensions>
      </trkpt>
      <trkpt lat="42.516019977629184722900390625" lon="20.01047040335834026336669921875">
        <ele>1911.5999755859375</ele>
        <time>2026-06-19T09:26:53.000Z</time>
        <extensions>
          <ns3:TrackPointExtension>
            <ns3:atemp>18.0</ns3:atemp>
          </ns3:TrackPointExtension>
        </extensions>
      </trkpt>
      <trkpt lat="42.516019977629184722900390625" lon="20.01047040335834026336669921875">
        <ele>1911.5999755859375</ele>
        <time>2026-06-19T09:26:54.000Z</time>
        <extensions>
          <ns3:TrackPointExtension>
            <ns3:atemp>18.0</ns3:atemp>
          </ns3:TrackPointExtension>
        </extensions>
      </trkpt>
      <trkpt lat="42.516019977629184722900390625" lon="20.01047040335834026336669921875">
        <ele>1911.5999755859375</ele>
        <time>2026-06-19T09:26:55.000Z</time>
        <extensions>
          <ns3:TrackPointExtension>
            <ns3:atemp>18.0</ns3:atemp>
          </ns3:TrackPointExtension>
        </extensions>
      </trkpt>
      <trkpt lat="42.516019977629184722900390625" lon="20.01047040335834026336669921875">
        <ele>1911.5999755859375</ele>
        <time>2026-06-19T09:26:56.000Z</time>
        <extensions>
          <ns3:TrackPointExtension>
            <ns3:atemp>18.0</ns3:atemp>
          </ns3:TrackPointExtension>
        </extensions>
      </trkpt>
      <trkpt lat="42.516019977629184722900390625" lon="20.01047040335834026336669921875">
        <ele>1911.5999755859375</ele>
        <time>2026-06-19T09:26:57.000Z</time>
        <extensions>
          <ns3:TrackPointExtension>
            <ns3:atemp>18.0</ns3:atemp>
          </ns3:TrackPointExtension>
        </extensions>
      </trkpt>
      <trkpt lat="42.516019977629184722900390625" lon="20.01047040335834026336669921875">
        <ele>1911.5999755859375</ele>
        <time>2026-06-19T09:26:58.000Z</time>
        <extensions>
          <ns3:TrackPointExtension>
            <ns3:atemp>18.0</ns3:atemp>
          </ns3:TrackPointExtension>
        </extensions>
      </trkpt>
      <trkpt lat="42.516019977629184722900390625" lon="20.01047040335834026336669921875">
        <ele>1911.5999755859375</ele>
        <time>2026-06-19T09:26:59.000Z</time>
        <extensions>
          <ns3:TrackPointExtension>
            <ns3:atemp>18.0</ns3:atemp>
          </ns3:TrackPointExtension>
        </extensions>
      </trkpt>
      <trkpt lat="42.516019977629184722900390625" lon="20.01047040335834026336669921875">
        <ele>1911.5999755859375</ele>
        <time>2026-06-19T09:27:00.000Z</time>
        <extensions>
          <ns3:TrackPointExtension>
            <ns3:atemp>18.0</ns3:atemp>
          </ns3:TrackPointExtension>
        </extensions>
      </trkpt>
      <trkpt lat="42.516019977629184722900390625" lon="20.01047040335834026336669921875">
        <ele>1911.5999755859375</ele>
        <time>2026-06-19T09:27:01.000Z</time>
        <extensions>
          <ns3:TrackPointExtension>
            <ns3:atemp>18.0</ns3:atemp>
          </ns3:TrackPointExtension>
        </extensions>
      </trkpt>
      <trkpt lat="42.516019977629184722900390625" lon="20.01047040335834026336669921875">
        <ele>1911.5999755859375</ele>
        <time>2026-06-19T09:27:02.000Z</time>
        <extensions>
          <ns3:TrackPointExtension>
            <ns3:atemp>18.0</ns3:atemp>
          </ns3:TrackPointExtension>
        </extensions>
      </trkpt>
      <trkpt lat="42.516019977629184722900390625" lon="20.01047040335834026336669921875">
        <ele>1911.5999755859375</ele>
        <time>2026-06-19T09:27:03.000Z</time>
        <extensions>
          <ns3:TrackPointExtension>
            <ns3:atemp>18.0</ns3:atemp>
          </ns3:TrackPointExtension>
        </extensions>
      </trkpt>
      <trkpt lat="42.516019977629184722900390625" lon="20.01047040335834026336669921875">
        <ele>1911.5999755859375</ele>
        <time>2026-06-19T09:27:04.000Z</time>
        <extensions>
          <ns3:TrackPointExtension>
            <ns3:atemp>18.0</ns3:atemp>
          </ns3:TrackPointExtension>
        </extensions>
      </trkpt>
      <trkpt lat="42.516019977629184722900390625" lon="20.01047040335834026336669921875">
        <ele>1911.5999755859375</ele>
        <time>2026-06-19T09:27:05.000Z</time>
        <extensions>
          <ns3:TrackPointExtension>
            <ns3:atemp>18.0</ns3:atemp>
          </ns3:TrackPointExtension>
        </extensions>
      </trkpt>
      <trkpt lat="42.516019977629184722900390625" lon="20.01047040335834026336669921875">
        <ele>1911.5999755859375</ele>
        <time>2026-06-19T09:27:06.000Z</time>
        <extensions>
          <ns3:TrackPointExtension>
            <ns3:atemp>18.0</ns3:atemp>
          </ns3:TrackPointExtension>
        </extensions>
      </trkpt>
      <trkpt lat="42.516019977629184722900390625" lon="20.01047040335834026336669921875">
        <ele>1911.5999755859375</ele>
        <time>2026-06-19T09:27:07.000Z</time>
        <extensions>
          <ns3:TrackPointExtension>
            <ns3:atemp>18.0</ns3:atemp>
          </ns3:TrackPointExtension>
        </extensions>
      </trkpt>
      <trkpt lat="42.516019977629184722900390625" lon="20.01047040335834026336669921875">
        <ele>1911.5999755859375</ele>
        <time>2026-06-19T09:27:08.000Z</time>
        <extensions>
          <ns3:TrackPointExtension>
            <ns3:atemp>18.0</ns3:atemp>
          </ns3:TrackPointExtension>
        </extensions>
      </trkpt>
      <trkpt lat="42.516019977629184722900390625" lon="20.01047040335834026336669921875">
        <ele>1911.5999755859375</ele>
        <time>2026-06-19T09:27:09.000Z</time>
        <extensions>
          <ns3:TrackPointExtension>
            <ns3:atemp>18.0</ns3:atemp>
          </ns3:TrackPointExtension>
        </extensions>
      </trkpt>
      <trkpt lat="42.516019977629184722900390625" lon="20.01047040335834026336669921875">
        <ele>1911.5999755859375</ele>
        <time>2026-06-19T09:27:10.000Z</time>
        <extensions>
          <ns3:TrackPointExtension>
            <ns3:atemp>18.0</ns3:atemp>
          </ns3:TrackPointExtension>
        </extensions>
      </trkpt>
      <trkpt lat="42.516019977629184722900390625" lon="20.01047040335834026336669921875">
        <ele>1911.5999755859375</ele>
        <time>2026-06-19T09:27:11.000Z</time>
        <extensions>
          <ns3:TrackPointExtension>
            <ns3:atemp>18.0</ns3:atemp>
          </ns3:TrackPointExtension>
        </extensions>
      </trkpt>
      <trkpt lat="42.516019977629184722900390625" lon="20.01047040335834026336669921875">
        <ele>1911.5999755859375</ele>
        <time>2026-06-19T09:27:12.000Z</time>
        <extensions>
          <ns3:TrackPointExtension>
            <ns3:atemp>18.0</ns3:atemp>
          </ns3:TrackPointExtension>
        </extensions>
      </trkpt>
      <trkpt lat="42.516019977629184722900390625" lon="20.01047040335834026336669921875">
        <ele>1911.5999755859375</ele>
        <time>2026-06-19T09:27:13.000Z</time>
        <extensions>
          <ns3:TrackPointExtension>
            <ns3:atemp>18.0</ns3:atemp>
          </ns3:TrackPointExtension>
        </extensions>
      </trkpt>
      <trkpt lat="42.516019977629184722900390625" lon="20.01047040335834026336669921875">
        <ele>1911.5999755859375</ele>
        <time>2026-06-19T09:27:14.000Z</time>
        <extensions>
          <ns3:TrackPointExtension>
            <ns3:atemp>18.0</ns3:atemp>
          </ns3:TrackPointExtension>
        </extensions>
      </trkpt>
      <trkpt lat="42.516019977629184722900390625" lon="20.01047040335834026336669921875">
        <ele>1911.5999755859375</ele>
        <time>2026-06-19T09:27:15.000Z</time>
        <extensions>
          <ns3:TrackPointExtension>
            <ns3:atemp>18.0</ns3:atemp>
          </ns3:TrackPointExtension>
        </extensions>
      </trkpt>
      <trkpt lat="42.516019977629184722900390625" lon="20.01047040335834026336669921875">
        <ele>1911.5999755859375</ele>
        <time>2026-06-19T09:27:16.000Z</time>
        <extensions>
          <ns3:TrackPointExtension>
            <ns3:atemp>18.0</ns3:atemp>
          </ns3:TrackPointExtension>
        </extensions>
      </trkpt>
      <trkpt lat="42.516019977629184722900390625" lon="20.01047040335834026336669921875">
        <ele>1911.5999755859375</ele>
        <time>2026-06-19T09:27:17.000Z</time>
        <extensions>
          <ns3:TrackPointExtension>
            <ns3:atemp>18.0</ns3:atemp>
          </ns3:TrackPointExtension>
        </extensions>
      </trkpt>
      <trkpt lat="42.516019977629184722900390625" lon="20.01047040335834026336669921875">
        <ele>1911.5999755859375</ele>
        <time>2026-06-19T09:27:18.000Z</time>
        <extensions>
          <ns3:TrackPointExtension>
            <ns3:atemp>18.0</ns3:atemp>
          </ns3:TrackPointExtension>
        </extensions>
      </trkpt>
      <trkpt lat="42.516019977629184722900390625" lon="20.01047040335834026336669921875">
        <ele>1911.5999755859375</ele>
        <time>2026-06-19T09:27:19.000Z</time>
        <extensions>
          <ns3:TrackPointExtension>
            <ns3:atemp>18.0</ns3:atemp>
          </ns3:TrackPointExtension>
        </extensions>
      </trkpt>
      <trkpt lat="42.516019977629184722900390625" lon="20.01047040335834026336669921875">
        <ele>1911.5999755859375</ele>
        <time>2026-06-19T09:27:20.000Z</time>
        <extensions>
          <ns3:TrackPointExtension>
            <ns3:atemp>18.0</ns3:atemp>
          </ns3:TrackPointExtension>
        </extensions>
      </trkpt>
      <trkpt lat="42.516019977629184722900390625" lon="20.01047040335834026336669921875">
        <ele>1911.5999755859375</ele>
        <time>2026-06-19T09:27:21.000Z</time>
        <extensions>
          <ns3:TrackPointExtension>
            <ns3:atemp>18.0</ns3:atemp>
          </ns3:TrackPointExtension>
        </extensions>
      </trkpt>
      <trkpt lat="42.516019977629184722900390625" lon="20.01047040335834026336669921875">
        <ele>1911.5999755859375</ele>
        <time>2026-06-19T09:27:22.000Z</time>
        <extensions>
          <ns3:TrackPointExtension>
            <ns3:atemp>18.0</ns3:atemp>
          </ns3:TrackPointExtension>
        </extensions>
      </trkpt>
      <trkpt lat="42.516019977629184722900390625" lon="20.01047040335834026336669921875">
        <ele>1911.5999755859375</ele>
        <time>2026-06-19T09:27:23.000Z</time>
        <extensions>
          <ns3:TrackPointExtension>
            <ns3:atemp>19.0</ns3:atemp>
          </ns3:TrackPointExtension>
        </extensions>
      </trkpt>
      <trkpt lat="42.516019977629184722900390625" lon="20.01047040335834026336669921875">
        <ele>1911.5999755859375</ele>
        <time>2026-06-19T09:27:24.000Z</time>
        <extensions>
          <ns3:TrackPointExtension>
            <ns3:atemp>19.0</ns3:atemp>
          </ns3:TrackPointExtension>
        </extensions>
      </trkpt>
      <trkpt lat="42.516019977629184722900390625" lon="20.01047040335834026336669921875">
        <ele>1911.5999755859375</ele>
        <time>2026-06-19T09:27:25.000Z</time>
        <extensions>
          <ns3:TrackPointExtension>
            <ns3:atemp>19.0</ns3:atemp>
          </ns3:TrackPointExtension>
        </extensions>
      </trkpt>
      <trkpt lat="42.516019977629184722900390625" lon="20.01047040335834026336669921875">
        <ele>1911.5999755859375</ele>
        <time>2026-06-19T09:27:26.000Z</time>
        <extensions>
          <ns3:TrackPointExtension>
            <ns3:atemp>18.0</ns3:atemp>
          </ns3:TrackPointExtension>
        </extensions>
      </trkpt>
      <trkpt lat="42.516019977629184722900390625" lon="20.01047040335834026336669921875">
        <ele>1911.5999755859375</ele>
        <time>2026-06-19T09:27:27.000Z</time>
        <extensions>
          <ns3:TrackPointExtension>
            <ns3:atemp>18.0</ns3:atemp>
          </ns3:TrackPointExtension>
        </extensions>
      </trkpt>
      <trkpt lat="42.516019977629184722900390625" lon="20.01047040335834026336669921875">
        <ele>1911.5999755859375</ele>
        <time>2026-06-19T09:27:28.000Z</time>
        <extensions>
          <ns3:TrackPointExtension>
            <ns3:atemp>18.0</ns3:atemp>
          </ns3:TrackPointExtension>
        </extensions>
      </trkpt>
      <trkpt lat="42.516019977629184722900390625" lon="20.01047040335834026336669921875">
        <ele>1911.5999755859375</ele>
        <time>2026-06-19T09:27:29.000Z</time>
        <extensions>
          <ns3:TrackPointExtension>
            <ns3:atemp>18.0</ns3:atemp>
          </ns3:TrackPointExtension>
        </extensions>
      </trkpt>
      <trkpt lat="42.516019977629184722900390625" lon="20.01047040335834026336669921875">
        <ele>1911.5999755859375</ele>
        <time>2026-06-19T09:27:30.000Z</time>
        <extensions>
          <ns3:TrackPointExtension>
            <ns3:atemp>19.0</ns3:atemp>
          </ns3:TrackPointExtension>
        </extensions>
      </trkpt>
      <trkpt lat="42.516019977629184722900390625" lon="20.01047040335834026336669921875">
        <ele>1911.5999755859375</ele>
        <time>2026-06-19T09:27:31.000Z</time>
        <extensions>
          <ns3:TrackPointExtension>
            <ns3:atemp>19.0</ns3:atemp>
          </ns3:TrackPointExtension>
        </extensions>
      </trkpt>
      <trkpt lat="42.516019977629184722900390625" lon="20.01047040335834026336669921875">
        <ele>1911.5999755859375</ele>
        <time>2026-06-19T09:27:32.000Z</time>
        <extensions>
          <ns3:TrackPointExtension>
            <ns3:atemp>19.0</ns3:atemp>
          </ns3:TrackPointExtension>
        </extensions>
      </trkpt>
      <trkpt lat="42.516019977629184722900390625" lon="20.01047040335834026336669921875">
        <ele>1911.5999755859375</ele>
        <time>2026-06-19T09:27:33.000Z</time>
        <extensions>
          <ns3:TrackPointExtension>
            <ns3:atemp>18.0</ns3:atemp>
          </ns3:TrackPointExtension>
        </extensions>
      </trkpt>
      <trkpt lat="42.516019977629184722900390625" lon="20.01047040335834026336669921875">
        <ele>1911.5999755859375</ele>
        <time>2026-06-19T09:27:34.000Z</time>
        <extensions>
          <ns3:TrackPointExtension>
            <ns3:atemp>19.0</ns3:atemp>
          </ns3:TrackPointExtension>
        </extensions>
      </trkpt>
      <trkpt lat="42.516019977629184722900390625" lon="20.01047040335834026336669921875">
        <ele>1911.5999755859375</ele>
        <time>2026-06-19T09:27:35.000Z</time>
        <extensions>
          <ns3:TrackPointExtension>
            <ns3:atemp>19.0</ns3:atemp>
          </ns3:TrackPointExtension>
        </extensions>
      </trkpt>
      <trkpt lat="42.516019977629184722900390625" lon="20.01047040335834026336669921875">
        <ele>1911.5999755859375</ele>
        <time>2026-06-19T09:27:36.000Z</time>
        <extensions>
          <ns3:TrackPointExtension>
            <ns3:atemp>19.0</ns3:atemp>
          </ns3:TrackPointExtension>
        </extensions>
      </trkpt>
      <trkpt lat="42.516019977629184722900390625" lon="20.01047040335834026336669921875">
        <ele>1911.5999755859375</ele>
        <time>2026-06-19T09:27:37.000Z</time>
        <extensions>
          <ns3:TrackPointExtension>
            <ns3:atemp>19.0</ns3:atemp>
          </ns3:TrackPointExtension>
        </extensions>
      </trkpt>
      <trkpt lat="42.516019977629184722900390625" lon="20.01047040335834026336669921875">
        <ele>1911.5999755859375</ele>
        <time>2026-06-19T09:27:38.000Z</time>
        <extensions>
          <ns3:TrackPointExtension>
            <ns3:atemp>19.0</ns3:atemp>
          </ns3:TrackPointExtension>
        </extensions>
      </trkpt>
      <trkpt lat="42.516019977629184722900390625" lon="20.01047040335834026336669921875">
        <ele>1911.5999755859375</ele>
        <time>2026-06-19T09:27:39.000Z</time>
        <extensions>
          <ns3:TrackPointExtension>
            <ns3:atemp>19.0</ns3:atemp>
          </ns3:TrackPointExtension>
        </extensions>
      </trkpt>
      <trkpt lat="42.516019977629184722900390625" lon="20.01047040335834026336669921875">
        <ele>1911.5999755859375</ele>
        <time>2026-06-19T09:27:40.000Z</time>
        <extensions>
          <ns3:TrackPointExtension>
            <ns3:atemp>19.0</ns3:atemp>
          </ns3:TrackPointExtension>
        </extensions>
      </trkpt>
      <trkpt lat="42.516019977629184722900390625" lon="20.01047040335834026336669921875">
        <ele>1911.5999755859375</ele>
        <time>2026-06-19T09:27:41.000Z</time>
        <extensions>
          <ns3:TrackPointExtension>
            <ns3:atemp>19.0</ns3:atemp>
          </ns3:TrackPointExtension>
        </extensions>
      </trkpt>
      <trkpt lat="42.516019977629184722900390625" lon="20.01047040335834026336669921875">
        <ele>1911.5999755859375</ele>
        <time>2026-06-19T09:27:42.000Z</time>
        <extensions>
          <ns3:TrackPointExtension>
            <ns3:atemp>19.0</ns3:atemp>
          </ns3:TrackPointExtension>
        </extensions>
      </trkpt>
      <trkpt lat="42.516019977629184722900390625" lon="20.01047040335834026336669921875">
        <ele>1911.5999755859375</ele>
        <time>2026-06-19T09:27:43.000Z</time>
        <extensions>
          <ns3:TrackPointExtension>
            <ns3:atemp>19.0</ns3:atemp>
          </ns3:TrackPointExtension>
        </extensions>
      </trkpt>
      <trkpt lat="42.516019977629184722900390625" lon="20.01047040335834026336669921875">
        <ele>1911.5999755859375</ele>
        <time>2026-06-19T09:27:44.000Z</time>
        <extensions>
          <ns3:TrackPointExtension>
            <ns3:atemp>19.0</ns3:atemp>
          </ns3:TrackPointExtension>
        </extensions>
      </trkpt>
      <trkpt lat="42.516019977629184722900390625" lon="20.01047040335834026336669921875">
        <ele>1911.5999755859375</ele>
        <time>2026-06-19T09:27:45.000Z</time>
        <extensions>
          <ns3:TrackPointExtension>
            <ns3:atemp>19.0</ns3:atemp>
          </ns3:TrackPointExtension>
        </extensions>
      </trkpt>
      <trkpt lat="42.516019977629184722900390625" lon="20.01047040335834026336669921875">
        <ele>1911.5999755859375</ele>
        <time>2026-06-19T09:27:46.000Z</time>
        <extensions>
          <ns3:TrackPointExtension>
            <ns3:atemp>19.0</ns3:atemp>
          </ns3:TrackPointExtension>
        </extensions>
      </trkpt>
      <trkpt lat="42.516019977629184722900390625" lon="20.01047040335834026336669921875">
        <ele>1911.5999755859375</ele>
        <time>2026-06-19T09:27:47.000Z</time>
        <extensions>
          <ns3:TrackPointExtension>
            <ns3:atemp>19.0</ns3:atemp>
          </ns3:TrackPointExtension>
        </extensions>
      </trkpt>
      <trkpt lat="42.516019977629184722900390625" lon="20.01047040335834026336669921875">
        <ele>1911.5999755859375</ele>
        <time>2026-06-19T09:27:48.000Z</time>
        <extensions>
          <ns3:TrackPointExtension>
            <ns3:atemp>19.0</ns3:atemp>
          </ns3:TrackPointExtension>
        </extensions>
      </trkpt>
      <trkpt lat="42.516019977629184722900390625" lon="20.01047040335834026336669921875">
        <ele>1911.5999755859375</ele>
        <time>2026-06-19T09:27:49.000Z</time>
        <extensions>
          <ns3:TrackPointExtension>
            <ns3:atemp>19.0</ns3:atemp>
          </ns3:TrackPointExtension>
        </extensions>
      </trkpt>
      <trkpt lat="42.516019977629184722900390625" lon="20.01047040335834026336669921875">
        <ele>1911.5999755859375</ele>
        <time>2026-06-19T09:27:50.000Z</time>
        <extensions>
          <ns3:TrackPointExtension>
            <ns3:atemp>19.0</ns3:atemp>
          </ns3:TrackPointExtension>
        </extensions>
      </trkpt>
      <trkpt lat="42.516019977629184722900390625" lon="20.01047040335834026336669921875">
        <ele>1911.5999755859375</ele>
        <time>2026-06-19T09:27:51.000Z</time>
        <extensions>
          <ns3:TrackPointExtension>
            <ns3:atemp>19.0</ns3:atemp>
          </ns3:TrackPointExtension>
        </extensions>
      </trkpt>
      <trkpt lat="42.516019977629184722900390625" lon="20.01047040335834026336669921875">
        <ele>1911.5999755859375</ele>
        <time>2026-06-19T09:27:52.000Z</time>
        <extensions>
          <ns3:TrackPointExtension>
            <ns3:atemp>19.0</ns3:atemp>
          </ns3:TrackPointExtension>
        </extensions>
      </trkpt>
      <trkpt lat="42.516019977629184722900390625" lon="20.01047040335834026336669921875">
        <ele>1911.5999755859375</ele>
        <time>2026-06-19T09:27:53.000Z</time>
        <extensions>
          <ns3:TrackPointExtension>
            <ns3:atemp>19.0</ns3:atemp>
          </ns3:TrackPointExtension>
        </extensions>
      </trkpt>
      <trkpt lat="42.516019977629184722900390625" lon="20.01047040335834026336669921875">
        <ele>1911.5999755859375</ele>
        <time>2026-06-19T09:27:54.000Z</time>
        <extensions>
          <ns3:TrackPointExtension>
            <ns3:atemp>19.0</ns3:atemp>
          </ns3:TrackPointExtension>
        </extensions>
      </trkpt>
      <trkpt lat="42.516019977629184722900390625" lon="20.01047040335834026336669921875">
        <ele>1911.5999755859375</ele>
        <time>2026-06-19T09:27:55.000Z</time>
        <extensions>
          <ns3:TrackPointExtension>
            <ns3:atemp>19.0</ns3:atemp>
          </ns3:TrackPointExtension>
        </extensions>
      </trkpt>
      <trkpt lat="42.516019977629184722900390625" lon="20.01047040335834026336669921875">
        <ele>1911.5999755859375</ele>
        <time>2026-06-19T09:27:56.000Z</time>
        <extensions>
          <ns3:TrackPointExtension>
            <ns3:atemp>19.0</ns3:atemp>
          </ns3:TrackPointExtension>
        </extensions>
      </trkpt>
      <trkpt lat="42.516019977629184722900390625" lon="20.01047040335834026336669921875">
        <ele>1911.5999755859375</ele>
        <time>2026-06-19T09:27:57.000Z</time>
        <extensions>
          <ns3:TrackPointExtension>
            <ns3:atemp>19.0</ns3:atemp>
          </ns3:TrackPointExtension>
        </extensions>
      </trkpt>
      <trkpt lat="42.516019977629184722900390625" lon="20.01047040335834026336669921875">
        <ele>1911.5999755859375</ele>
        <time>2026-06-19T09:27:58.000Z</time>
        <extensions>
          <ns3:TrackPointExtension>
            <ns3:atemp>19.0</ns3:atemp>
          </ns3:TrackPointExtension>
        </extensions>
      </trkpt>
      <trkpt lat="42.516019977629184722900390625" lon="20.01047040335834026336669921875">
        <ele>1911.5999755859375</ele>
        <time>2026-06-19T09:27:59.000Z</time>
        <extensions>
          <ns3:TrackPointExtension>
            <ns3:atemp>19.0</ns3:atemp>
          </ns3:TrackPointExtension>
        </extensions>
      </trkpt>
      <trkpt lat="42.516019977629184722900390625" lon="20.01047040335834026336669921875">
        <ele>1911.5999755859375</ele>
        <time>2026-06-19T09:28:00.000Z</time>
        <extensions>
          <ns3:TrackPointExtension>
            <ns3:atemp>19.0</ns3:atemp>
          </ns3:TrackPointExtension>
        </extensions>
      </trkpt>
      <trkpt lat="42.516019977629184722900390625" lon="20.01047040335834026336669921875">
        <ele>1911.5999755859375</ele>
        <time>2026-06-19T09:28:01.000Z</time>
        <extensions>
          <ns3:TrackPointExtension>
            <ns3:atemp>19.0</ns3:atemp>
          </ns3:TrackPointExtension>
        </extensions>
      </trkpt>
      <trkpt lat="42.516019977629184722900390625" lon="20.01047040335834026336669921875">
        <ele>1911.5999755859375</ele>
        <time>2026-06-19T09:28:02.000Z</time>
        <extensions>
          <ns3:TrackPointExtension>
            <ns3:atemp>19.0</ns3:atemp>
          </ns3:TrackPointExtension>
        </extensions>
      </trkpt>
      <trkpt lat="42.516019977629184722900390625" lon="20.01047040335834026336669921875">
        <ele>1911.5999755859375</ele>
        <time>2026-06-19T09:28:03.000Z</time>
        <extensions>
          <ns3:TrackPointExtension>
            <ns3:atemp>19.0</ns3:atemp>
          </ns3:TrackPointExtension>
        </extensions>
      </trkpt>
      <trkpt lat="42.516019977629184722900390625" lon="20.01047040335834026336669921875">
        <ele>1911.5999755859375</ele>
        <time>2026-06-19T09:28:04.000Z</time>
        <extensions>
          <ns3:TrackPointExtension>
            <ns3:atemp>19.0</ns3:atemp>
          </ns3:TrackPointExtension>
        </extensions>
      </trkpt>
      <trkpt lat="42.516019977629184722900390625" lon="20.01047040335834026336669921875">
        <ele>1911.5999755859375</ele>
        <time>2026-06-19T09:28:05.000Z</time>
        <extensions>
          <ns3:TrackPointExtension>
            <ns3:atemp>19.0</ns3:atemp>
          </ns3:TrackPointExtension>
        </extensions>
      </trkpt>
      <trkpt lat="42.516019977629184722900390625" lon="20.01047040335834026336669921875">
        <ele>1911.5999755859375</ele>
        <time>2026-06-19T09:28:06.000Z</time>
        <extensions>
          <ns3:TrackPointExtension>
            <ns3:atemp>19.0</ns3:atemp>
          </ns3:TrackPointExtension>
        </extensions>
      </trkpt>
      <trkpt lat="42.516019977629184722900390625" lon="20.01047040335834026336669921875">
        <ele>1911.5999755859375</ele>
        <time>2026-06-19T09:28:07.000Z</time>
        <extensions>
          <ns3:TrackPointExtension>
            <ns3:atemp>19.0</ns3:atemp>
          </ns3:TrackPointExtension>
        </extensions>
      </trkpt>
      <trkpt lat="42.516019977629184722900390625" lon="20.01047040335834026336669921875">
        <ele>1911.5999755859375</ele>
        <time>2026-06-19T09:28:08.000Z</time>
        <extensions>
          <ns3:TrackPointExtension>
            <ns3:atemp>19.0</ns3:atemp>
          </ns3:TrackPointExtension>
        </extensions>
      </trkpt>
      <trkpt lat="42.516019977629184722900390625" lon="20.01047040335834026336669921875">
        <ele>1911.5999755859375</ele>
        <time>2026-06-19T09:28:09.000Z</time>
        <extensions>
          <ns3:TrackPointExtension>
            <ns3:atemp>19.0</ns3:atemp>
          </ns3:TrackPointExtension>
        </extensions>
      </trkpt>
      <trkpt lat="42.516019977629184722900390625" lon="20.01047040335834026336669921875">
        <ele>1911.5999755859375</ele>
        <time>2026-06-19T09:28:10.000Z</time>
        <extensions>
          <ns3:TrackPointExtension>
            <ns3:atemp>19.0</ns3:atemp>
          </ns3:TrackPointExtension>
        </extensions>
      </trkpt>
      <trkpt lat="42.516019977629184722900390625" lon="20.01047040335834026336669921875">
        <ele>1911.5999755859375</ele>
        <time>2026-06-19T09:28:11.000Z</time>
        <extensions>
          <ns3:TrackPointExtension>
            <ns3:atemp>19.0</ns3:atemp>
          </ns3:TrackPointExtension>
        </extensions>
      </trkpt>
      <trkpt lat="42.516019977629184722900390625" lon="20.01047040335834026336669921875">
        <ele>1911.5999755859375</ele>
        <time>2026-06-19T09:28:12.000Z</time>
        <extensions>
          <ns3:TrackPointExtension>
            <ns3:atemp>19.0</ns3:atemp>
          </ns3:TrackPointExtension>
        </extensions>
      </trkpt>
      <trkpt lat="42.516019977629184722900390625" lon="20.01047040335834026336669921875">
        <ele>1911.5999755859375</ele>
        <time>2026-06-19T09:28:13.000Z</time>
        <extensions>
          <ns3:TrackPointExtension>
            <ns3:atemp>19.0</ns3:atemp>
          </ns3:TrackPointExtension>
        </extensions>
      </trkpt>
      <trkpt lat="42.516019977629184722900390625" lon="20.01047040335834026336669921875">
        <ele>1911.5999755859375</ele>
        <time>2026-06-19T09:28:14.000Z</time>
        <extensions>
          <ns3:TrackPointExtension>
            <ns3:atemp>19.0</ns3:atemp>
          </ns3:TrackPointExtension>
        </extensions>
      </trkpt>
      <trkpt lat="42.516019977629184722900390625" lon="20.01047040335834026336669921875">
        <ele>1911.5999755859375</ele>
        <time>2026-06-19T09:28:15.000Z</time>
        <extensions>
          <ns3:TrackPointExtension>
            <ns3:atemp>19.0</ns3:atemp>
          </ns3:TrackPointExtension>
        </extensions>
      </trkpt>
      <trkpt lat="42.516019977629184722900390625" lon="20.01047040335834026336669921875">
        <ele>1911.5999755859375</ele>
        <time>2026-06-19T09:28:16.000Z</time>
        <extensions>
          <ns3:TrackPointExtension>
            <ns3:atemp>19.0</ns3:atemp>
          </ns3:TrackPointExtension>
        </extensions>
      </trkpt>
      <trkpt lat="42.516019977629184722900390625" lon="20.01047040335834026336669921875">
        <ele>1911.5999755859375</ele>
        <time>2026-06-19T09:28:17.000Z</time>
        <extensions>
          <ns3:TrackPointExtension>
            <ns3:atemp>19.0</ns3:atemp>
          </ns3:TrackPointExtension>
        </extensions>
      </trkpt>
      <trkpt lat="42.516019977629184722900390625" lon="20.01047040335834026336669921875">
        <ele>1911.5999755859375</ele>
        <time>2026-06-19T09:28:18.000Z</time>
        <extensions>
          <ns3:TrackPointExtension>
            <ns3:atemp>19.0</ns3:atemp>
          </ns3:TrackPointExtension>
        </extensions>
      </trkpt>
      <trkpt lat="42.516019977629184722900390625" lon="20.01047040335834026336669921875">
        <ele>1911.5999755859375</ele>
        <time>2026-06-19T09:28:19.000Z</time>
        <extensions>
          <ns3:TrackPointExtension>
            <ns3:atemp>19.0</ns3:atemp>
          </ns3:TrackPointExtension>
        </extensions>
      </trkpt>
      <trkpt lat="42.516019977629184722900390625" lon="20.01047040335834026336669921875">
        <ele>1911.5999755859375</ele>
        <time>2026-06-19T09:28:20.000Z</time>
        <extensions>
          <ns3:TrackPointExtension>
            <ns3:atemp>19.0</ns3:atemp>
          </ns3:TrackPointExtension>
        </extensions>
      </trkpt>
      <trkpt lat="42.516019977629184722900390625" lon="20.01047040335834026336669921875">
        <ele>1911.5999755859375</ele>
        <time>2026-06-19T09:28:21.000Z</time>
        <extensions>
          <ns3:TrackPointExtension>
            <ns3:atemp>19.0</ns3:atemp>
          </ns3:TrackPointExtension>
        </extensions>
      </trkpt>
      <trkpt lat="42.516019977629184722900390625" lon="20.01047040335834026336669921875">
        <ele>1911.5999755859375</ele>
        <time>2026-06-19T09:28:22.000Z</time>
        <extensions>
          <ns3:TrackPointExtension>
            <ns3:atemp>19.0</ns3:atemp>
          </ns3:TrackPointExtension>
        </extensions>
      </trkpt>
      <trkpt lat="42.516019977629184722900390625" lon="20.01047040335834026336669921875">
        <ele>1911.5999755859375</ele>
        <time>2026-06-19T09:28:23.000Z</time>
        <extensions>
          <ns3:TrackPointExtension>
            <ns3:atemp>19.0</ns3:atemp>
          </ns3:TrackPointExtension>
        </extensions>
      </trkpt>
      <trkpt lat="42.516019977629184722900390625" lon="20.01047040335834026336669921875">
        <ele>1911.5999755859375</ele>
        <time>2026-06-19T09:28:24.000Z</time>
        <extensions>
          <ns3:TrackPointExtension>
            <ns3:atemp>19.0</ns3:atemp>
          </ns3:TrackPointExtension>
        </extensions>
      </trkpt>
      <trkpt lat="42.516019977629184722900390625" lon="20.01047040335834026336669921875">
        <ele>1911.5999755859375</ele>
        <time>2026-06-19T09:28:25.000Z</time>
        <extensions>
          <ns3:TrackPointExtension>
            <ns3:atemp>19.0</ns3:atemp>
          </ns3:TrackPointExtension>
        </extensions>
      </trkpt>
      <trkpt lat="42.516019977629184722900390625" lon="20.01047040335834026336669921875">
        <ele>1911.5999755859375</ele>
        <time>2026-06-19T09:28:26.000Z</time>
        <extensions>
          <ns3:TrackPointExtension>
            <ns3:atemp>19.0</ns3:atemp>
          </ns3:TrackPointExtension>
        </extensions>
      </trkpt>
      <trkpt lat="42.516019977629184722900390625" lon="20.01047040335834026336669921875">
        <ele>1911.5999755859375</ele>
        <time>2026-06-19T09:28:27.000Z</time>
        <extensions>
          <ns3:TrackPointExtension>
            <ns3:atemp>19.0</ns3:atemp>
          </ns3:TrackPointExtension>
        </extensions>
      </trkpt>
      <trkpt lat="42.516019977629184722900390625" lon="20.01047040335834026336669921875">
        <ele>1911.5999755859375</ele>
        <time>2026-06-19T09:28:28.000Z</time>
        <extensions>
          <ns3:TrackPointExtension>
            <ns3:atemp>19.0</ns3:atemp>
          </ns3:TrackPointExtension>
        </extensions>
      </trkpt>
      <trkpt lat="42.516019977629184722900390625" lon="20.01047040335834026336669921875">
        <ele>1911.5999755859375</ele>
        <time>2026-06-19T09:28:29.000Z</time>
        <extensions>
          <ns3:TrackPointExtension>
            <ns3:atemp>19.0</ns3:atemp>
          </ns3:TrackPointExtension>
        </extensions>
      </trkpt>
      <trkpt lat="42.516019977629184722900390625" lon="20.01047040335834026336669921875">
        <ele>1911.5999755859375</ele>
        <time>2026-06-19T09:28:30.000Z</time>
        <extensions>
          <ns3:TrackPointExtension>
            <ns3:atemp>19.0</ns3:atemp>
          </ns3:TrackPointExtension>
        </extensions>
      </trkpt>
      <trkpt lat="42.516019977629184722900390625" lon="20.01047040335834026336669921875">
        <ele>1911.5999755859375</ele>
        <time>2026-06-19T09:28:31.000Z</time>
        <extensions>
          <ns3:TrackPointExtension>
            <ns3:atemp>19.0</ns3:atemp>
          </ns3:TrackPointExtension>
        </extensions>
      </trkpt>
      <trkpt lat="42.516019977629184722900390625" lon="20.01047040335834026336669921875">
        <ele>1911.5999755859375</ele>
        <time>2026-06-19T09:28:32.000Z</time>
        <extensions>
          <ns3:TrackPointExtension>
            <ns3:atemp>19.0</ns3:atemp>
          </ns3:TrackPointExtension>
        </extensions>
      </trkpt>
      <trkpt lat="42.516019977629184722900390625" lon="20.01047040335834026336669921875">
        <ele>1911.5999755859375</ele>
        <time>2026-06-19T09:28:33.000Z</time>
        <extensions>
          <ns3:TrackPointExtension>
            <ns3:atemp>19.0</ns3:atemp>
          </ns3:TrackPointExtension>
        </extensions>
      </trkpt>
      <trkpt lat="42.516019977629184722900390625" lon="20.01047040335834026336669921875">
        <ele>1911.5999755859375</ele>
        <time>2026-06-19T09:28:34.000Z</time>
        <extensions>
          <ns3:TrackPointExtension>
            <ns3:atemp>19.0</ns3:atemp>
          </ns3:TrackPointExtension>
        </extensions>
      </trkpt>
      <trkpt lat="42.516019977629184722900390625" lon="20.01047040335834026336669921875">
        <ele>1911.5999755859375</ele>
        <time>2026-06-19T09:28:35.000Z</time>
        <extensions>
          <ns3:TrackPointExtension>
            <ns3:atemp>19.0</ns3:atemp>
          </ns3:TrackPointExtension>
        </extensions>
      </trkpt>
      <trkpt lat="42.516019977629184722900390625" lon="20.01047040335834026336669921875">
        <ele>1911.5999755859375</ele>
        <time>2026-06-19T09:28:36.000Z</time>
        <extensions>
          <ns3:TrackPointExtension>
            <ns3:atemp>19.0</ns3:atemp>
          </ns3:TrackPointExtension>
        </extensions>
      </trkpt>
      <trkpt lat="42.516019977629184722900390625" lon="20.01047040335834026336669921875">
        <ele>1911.5999755859375</ele>
        <time>2026-06-19T09:28:37.000Z</time>
        <extensions>
          <ns3:TrackPointExtension>
            <ns3:atemp>19.0</ns3:atemp>
          </ns3:TrackPointExtension>
        </extensions>
      </trkpt>
      <trkpt lat="42.516019977629184722900390625" lon="20.01047040335834026336669921875">
        <ele>1911.5999755859375</ele>
        <time>2026-06-19T09:28:38.000Z</time>
        <extensions>
          <ns3:TrackPointExtension>
            <ns3:atemp>19.0</ns3:atemp>
          </ns3:TrackPointExtension>
        </extensions>
      </trkpt>
      <trkpt lat="42.516019977629184722900390625" lon="20.01047040335834026336669921875">
        <ele>1911.5999755859375</ele>
        <time>2026-06-19T09:28:39.000Z</time>
        <extensions>
          <ns3:TrackPointExtension>
            <ns3:atemp>19.0</ns3:atemp>
          </ns3:TrackPointExtension>
        </extensions>
      </trkpt>
      <trkpt lat="42.516019977629184722900390625" lon="20.01047040335834026336669921875">
        <ele>1911.5999755859375</ele>
        <time>2026-06-19T09:28:40.000Z</time>
        <extensions>
          <ns3:TrackPointExtension>
            <ns3:atemp>19.0</ns3:atemp>
          </ns3:TrackPointExtension>
        </extensions>
      </trkpt>
      <trkpt lat="42.516019977629184722900390625" lon="20.01047040335834026336669921875">
        <ele>1911.5999755859375</ele>
        <time>2026-06-19T09:28:41.000Z</time>
        <extensions>
          <ns3:TrackPointExtension>
            <ns3:atemp>19.0</ns3:atemp>
          </ns3:TrackPointExtension>
        </extensions>
      </trkpt>
      <trkpt lat="42.516019977629184722900390625" lon="20.01047040335834026336669921875">
        <ele>1911.5999755859375</ele>
        <time>2026-06-19T09:28:42.000Z</time>
        <extensions>
          <ns3:TrackPointExtension>
            <ns3:atemp>19.0</ns3:atemp>
          </ns3:TrackPointExtension>
        </extensions>
      </trkpt>
      <trkpt lat="42.516019977629184722900390625" lon="20.01047040335834026336669921875">
        <ele>1911.5999755859375</ele>
        <time>2026-06-19T09:28:43.000Z</time>
        <extensions>
          <ns3:TrackPointExtension>
            <ns3:atemp>19.0</ns3:atemp>
          </ns3:TrackPointExtension>
        </extensions>
      </trkpt>
      <trkpt lat="42.516019977629184722900390625" lon="20.01047040335834026336669921875">
        <ele>1911.5999755859375</ele>
        <time>2026-06-19T09:28:44.000Z</time>
        <extensions>
          <ns3:TrackPointExtension>
            <ns3:atemp>19.0</ns3:atemp>
          </ns3:TrackPointExtension>
        </extensions>
      </trkpt>
      <trkpt lat="42.516019977629184722900390625" lon="20.01047040335834026336669921875">
        <ele>1911.5999755859375</ele>
        <time>2026-06-19T09:28:45.000Z</time>
        <extensions>
          <ns3:TrackPointExtension>
            <ns3:atemp>19.0</ns3:atemp>
          </ns3:TrackPointExtension>
        </extensions>
      </trkpt>
      <trkpt lat="42.516019977629184722900390625" lon="20.01047040335834026336669921875">
        <ele>1911.5999755859375</ele>
        <time>2026-06-19T09:28:46.000Z</time>
        <extensions>
          <ns3:TrackPointExtension>
            <ns3:atemp>19.0</ns3:atemp>
          </ns3:TrackPointExtension>
        </extensions>
      </trkpt>
      <trkpt lat="42.516019977629184722900390625" lon="20.01047040335834026336669921875">
        <ele>1911.5999755859375</ele>
        <time>2026-06-19T09:28:47.000Z</time>
        <extensions>
          <ns3:TrackPointExtension>
            <ns3:atemp>19.0</ns3:atemp>
          </ns3:TrackPointExtension>
        </extensions>
      </trkpt>
      <trkpt lat="42.516019977629184722900390625" lon="20.01047040335834026336669921875">
        <ele>1911.5999755859375</ele>
        <time>2026-06-19T09:28:48.000Z</time>
        <extensions>
          <ns3:TrackPointExtension>
            <ns3:atemp>19.0</ns3:atemp>
          </ns3:TrackPointExtension>
        </extensions>
      </trkpt>
      <trkpt lat="42.516019977629184722900390625" lon="20.01047040335834026336669921875">
        <ele>1911.5999755859375</ele>
        <time>2026-06-19T09:28:49.000Z</time>
        <extensions>
          <ns3:TrackPointExtension>
            <ns3:atemp>19.0</ns3:atemp>
          </ns3:TrackPointExtension>
        </extensions>
      </trkpt>
      <trkpt lat="42.516019977629184722900390625" lon="20.01047040335834026336669921875">
        <ele>1911.5999755859375</ele>
        <time>2026-06-19T09:28:50.000Z</time>
        <extensions>
          <ns3:TrackPointExtension>
            <ns3:atemp>19.0</ns3:atemp>
          </ns3:TrackPointExtension>
        </extensions>
      </trkpt>
      <trkpt lat="42.516019977629184722900390625" lon="20.01047040335834026336669921875">
        <ele>1911.5999755859375</ele>
        <time>2026-06-19T09:28:51.000Z</time>
        <extensions>
          <ns3:TrackPointExtension>
            <ns3:atemp>19.0</ns3:atemp>
          </ns3:TrackPointExtension>
        </extensions>
      </trkpt>
      <trkpt lat="42.516019977629184722900390625" lon="20.01047040335834026336669921875">
        <ele>1911.5999755859375</ele>
        <time>2026-06-19T09:28:52.000Z</time>
        <extensions>
          <ns3:TrackPointExtension>
            <ns3:atemp>19.0</ns3:atemp>
          </ns3:TrackPointExtension>
        </extensions>
      </trkpt>
      <trkpt lat="42.516019977629184722900390625" lon="20.01047040335834026336669921875">
        <ele>1911.5999755859375</ele>
        <time>2026-06-19T09:28:53.000Z</time>
        <extensions>
          <ns3:TrackPointExtension>
            <ns3:atemp>19.0</ns3:atemp>
          </ns3:TrackPointExtension>
        </extensions>
      </trkpt>
      <trkpt lat="42.516019977629184722900390625" lon="20.01047040335834026336669921875">
        <ele>1911.5999755859375</ele>
        <time>2026-06-19T09:28:54.000Z</time>
        <extensions>
          <ns3:TrackPointExtension>
            <ns3:atemp>19.0</ns3:atemp>
          </ns3:TrackPointExtension>
        </extensions>
      </trkpt>
      <trkpt lat="42.516019977629184722900390625" lon="20.01047040335834026336669921875">
        <ele>1911.5999755859375</ele>
        <time>2026-06-19T09:28:55.000Z</time>
        <extensions>
          <ns3:TrackPointExtension>
            <ns3:atemp>19.0</ns3:atemp>
          </ns3:TrackPointExtension>
        </extensions>
      </trkpt>
      <trkpt lat="42.516019977629184722900390625" lon="20.01047040335834026336669921875">
        <ele>1911.5999755859375</ele>
        <time>2026-06-19T09:28:56.000Z</time>
        <extensions>
          <ns3:TrackPointExtension>
            <ns3:atemp>19.0</ns3:atemp>
          </ns3:TrackPointExtension>
        </extensions>
      </trkpt>
      <trkpt lat="42.516019977629184722900390625" lon="20.01047040335834026336669921875">
        <ele>1911.5999755859375</ele>
        <time>2026-06-19T09:28:57.000Z</time>
        <extensions>
          <ns3:TrackPointExtension>
            <ns3:atemp>19.0</ns3:atemp>
          </ns3:TrackPointExtension>
        </extensions>
      </trkpt>
      <trkpt lat="42.516019977629184722900390625" lon="20.01047040335834026336669921875">
        <ele>1911.5999755859375</ele>
        <time>2026-06-19T09:28:58.000Z</time>
        <extensions>
          <ns3:TrackPointExtension>
            <ns3:atemp>19.0</ns3:atemp>
          </ns3:TrackPointExtension>
        </extensions>
      </trkpt>
      <trkpt lat="42.516019977629184722900390625" lon="20.01047040335834026336669921875">
        <ele>1911.5999755859375</ele>
        <time>2026-06-19T09:28:59.000Z</time>
        <extensions>
          <ns3:TrackPointExtension>
            <ns3:atemp>19.0</ns3:atemp>
          </ns3:TrackPointExtension>
        </extensions>
      </trkpt>
      <trkpt lat="42.516019977629184722900390625" lon="20.01047040335834026336669921875">
        <ele>1911.5999755859375</ele>
        <time>2026-06-19T09:29:00.000Z</time>
        <extensions>
          <ns3:TrackPointExtension>
            <ns3:atemp>19.0</ns3:atemp>
          </ns3:TrackPointExtension>
        </extensions>
      </trkpt>
      <trkpt lat="42.516019977629184722900390625" lon="20.01047040335834026336669921875">
        <ele>1911.5999755859375</ele>
        <time>2026-06-19T09:29:01.000Z</time>
        <extensions>
          <ns3:TrackPointExtension>
            <ns3:atemp>19.0</ns3:atemp>
          </ns3:TrackPointExtension>
        </extensions>
      </trkpt>
      <trkpt lat="42.516019977629184722900390625" lon="20.01047040335834026336669921875">
        <ele>1911.5999755859375</ele>
        <time>2026-06-19T09:29:02.000Z</time>
        <extensions>
          <ns3:TrackPointExtension>
            <ns3:atemp>19.0</ns3:atemp>
          </ns3:TrackPointExtension>
        </extensions>
      </trkpt>
      <trkpt lat="42.516019977629184722900390625" lon="20.01047040335834026336669921875">
        <ele>1911.5999755859375</ele>
        <time>2026-06-19T09:29:03.000Z</time>
        <extensions>
          <ns3:TrackPointExtension>
            <ns3:atemp>19.0</ns3:atemp>
          </ns3:TrackPointExtension>
        </extensions>
      </trkpt>
      <trkpt lat="42.516019977629184722900390625" lon="20.01047040335834026336669921875">
        <ele>1911.5999755859375</ele>
        <time>2026-06-19T09:29:04.000Z</time>
        <extensions>
          <ns3:TrackPointExtension>
            <ns3:atemp>19.0</ns3:atemp>
          </ns3:TrackPointExtension>
        </extensions>
      </trkpt>
      <trkpt lat="42.516019977629184722900390625" lon="20.01047040335834026336669921875">
        <ele>1911.5999755859375</ele>
        <time>2026-06-19T09:29:05.000Z</time>
        <extensions>
          <ns3:TrackPointExtension>
            <ns3:atemp>19.0</ns3:atemp>
          </ns3:TrackPointExtension>
        </extensions>
      </trkpt>
      <trkpt lat="42.516019977629184722900390625" lon="20.01047040335834026336669921875">
        <ele>1911.5999755859375</ele>
        <time>2026-06-19T09:29:06.000Z</time>
        <extensions>
          <ns3:TrackPointExtension>
            <ns3:atemp>19.0</ns3:atemp>
          </ns3:TrackPointExtension>
        </extensions>
      </trkpt>
      <trkpt lat="42.516019977629184722900390625" lon="20.01047040335834026336669921875">
        <ele>1911.5999755859375</ele>
        <time>2026-06-19T09:29:07.000Z</time>
        <extensions>
          <ns3:TrackPointExtension>
            <ns3:atemp>19.0</ns3:atemp>
          </ns3:TrackPointExtension>
        </extensions>
      </trkpt>
      <trkpt lat="42.516019977629184722900390625" lon="20.01047040335834026336669921875">
        <ele>1911.5999755859375</ele>
        <time>2026-06-19T09:29:08.000Z</time>
        <extensions>
          <ns3:TrackPointExtension>
            <ns3:atemp>19.0</ns3:atemp>
          </ns3:TrackPointExtension>
        </extensions>
      </trkpt>
      <trkpt lat="42.516019977629184722900390625" lon="20.01047040335834026336669921875">
        <ele>1911.5999755859375</ele>
        <time>2026-06-19T09:29:09.000Z</time>
        <extensions>
          <ns3:TrackPointExtension>
            <ns3:atemp>19.0</ns3:atemp>
          </ns3:TrackPointExtension>
        </extensions>
      </trkpt>
      <trkpt lat="42.516019977629184722900390625" lon="20.01047040335834026336669921875">
        <ele>1911.5999755859375</ele>
        <time>2026-06-19T09:29:10.000Z</time>
        <extensions>
          <ns3:TrackPointExtension>
            <ns3:atemp>19.0</ns3:atemp>
          </ns3:TrackPointExtension>
        </extensions>
      </trkpt>
      <trkpt lat="42.516019977629184722900390625" lon="20.01047040335834026336669921875">
        <ele>1911.5999755859375</ele>
        <time>2026-06-19T09:29:11.000Z</time>
        <extensions>
          <ns3:TrackPointExtension>
            <ns3:atemp>19.0</ns3:atemp>
          </ns3:TrackPointExtension>
        </extensions>
      </trkpt>
      <trkpt lat="42.516019977629184722900390625" lon="20.01047040335834026336669921875">
        <ele>1911.5999755859375</ele>
        <time>2026-06-19T09:29:12.000Z</time>
        <extensions>
          <ns3:TrackPointExtension>
            <ns3:atemp>19.0</ns3:atemp>
          </ns3:TrackPointExtension>
        </extensions>
      </trkpt>
      <trkpt lat="42.516019977629184722900390625" lon="20.01047040335834026336669921875">
        <ele>1911.5999755859375</ele>
        <time>2026-06-19T09:29:13.000Z</time>
        <extensions>
          <ns3:TrackPointExtension>
            <ns3:atemp>19.0</ns3:atemp>
          </ns3:TrackPointExtension>
        </extensions>
      </trkpt>
      <trkpt lat="42.516019977629184722900390625" lon="20.01047040335834026336669921875">
        <ele>1911.5999755859375</ele>
        <time>2026-06-19T09:29:14.000Z</time>
        <extensions>
          <ns3:TrackPointExtension>
            <ns3:atemp>19.0</ns3:atemp>
          </ns3:TrackPointExtension>
        </extensions>
      </trkpt>
      <trkpt lat="42.516019977629184722900390625" lon="20.01047040335834026336669921875">
        <ele>1911.5999755859375</ele>
        <time>2026-06-19T09:29:15.000Z</time>
        <extensions>
          <ns3:TrackPointExtension>
            <ns3:atemp>19.0</ns3:atemp>
          </ns3:TrackPointExtension>
        </extensions>
      </trkpt>
      <trkpt lat="42.516019977629184722900390625" lon="20.01047040335834026336669921875">
        <ele>1911.5999755859375</ele>
        <time>2026-06-19T09:29:16.000Z</time>
        <extensions>
          <ns3:TrackPointExtension>
            <ns3:atemp>19.0</ns3:atemp>
          </ns3:TrackPointExtension>
        </extensions>
      </trkpt>
      <trkpt lat="42.516019977629184722900390625" lon="20.01047040335834026336669921875">
        <ele>1911.5999755859375</ele>
        <time>2026-06-19T09:29:17.000Z</time>
        <extensions>
          <ns3:TrackPointExtension>
            <ns3:atemp>19.0</ns3:atemp>
          </ns3:TrackPointExtension>
        </extensions>
      </trkpt>
      <trkpt lat="42.516019977629184722900390625" lon="20.01047040335834026336669921875">
        <ele>1911.5999755859375</ele>
        <time>2026-06-19T09:29:18.000Z</time>
        <extensions>
          <ns3:TrackPointExtension>
            <ns3:atemp>19.0</ns3:atemp>
          </ns3:TrackPointExtension>
        </extensions>
      </trkpt>
      <trkpt lat="42.516019977629184722900390625" lon="20.01047040335834026336669921875">
        <ele>1911.5999755859375</ele>
        <time>2026-06-19T09:29:19.000Z</time>
        <extensions>
          <ns3:TrackPointExtension>
            <ns3:atemp>19.0</ns3:atemp>
          </ns3:TrackPointExtension>
        </extensions>
      </trkpt>
      <trkpt lat="42.516019977629184722900390625" lon="20.01047040335834026336669921875">
        <ele>1911.5999755859375</ele>
        <time>2026-06-19T09:29:20.000Z</time>
        <extensions>
          <ns3:TrackPointExtension>
            <ns3:atemp>19.0</ns3:atemp>
          </ns3:TrackPointExtension>
        </extensions>
      </trkpt>
      <trkpt lat="42.516019977629184722900390625" lon="20.01047040335834026336669921875">
        <ele>1911.5999755859375</ele>
        <time>2026-06-19T09:29:21.000Z</time>
        <extensions>
          <ns3:TrackPointExtension>
            <ns3:atemp>19.0</ns3:atemp>
          </ns3:TrackPointExtension>
        </extensions>
      </trkpt>
      <trkpt lat="42.516019977629184722900390625" lon="20.01047040335834026336669921875">
        <ele>1911.5999755859375</ele>
        <time>2026-06-19T09:29:22.000Z</time>
        <extensions>
          <ns3:TrackPointExtension>
            <ns3:atemp>19.0</ns3:atemp>
          </ns3:TrackPointExtension>
        </extensions>
      </trkpt>
      <trkpt lat="42.516019977629184722900390625" lon="20.01047040335834026336669921875">
        <ele>1911.5999755859375</ele>
        <time>2026-06-19T09:29:23.000Z</time>
        <extensions>
          <ns3:TrackPointExtension>
            <ns3:atemp>19.0</ns3:atemp>
          </ns3:TrackPointExtension>
        </extensions>
      </trkpt>
      <trkpt lat="42.516019977629184722900390625" lon="20.01047040335834026336669921875">
        <ele>1911.5999755859375</ele>
        <time>2026-06-19T09:29:24.000Z</time>
        <extensions>
          <ns3:TrackPointExtension>
            <ns3:atemp>19.0</ns3:atemp>
          </ns3:TrackPointExtension>
        </extensions>
      </trkpt>
      <trkpt lat="42.516019977629184722900390625" lon="20.01047040335834026336669921875">
        <ele>1911.5999755859375</ele>
        <time>2026-06-19T09:29:25.000Z</time>
        <extensions>
          <ns3:TrackPointExtension>
            <ns3:atemp>19.0</ns3:atemp>
          </ns3:TrackPointExtension>
        </extensions>
      </trkpt>
      <trkpt lat="42.516019977629184722900390625" lon="20.01047040335834026336669921875">
        <ele>1911.5999755859375</ele>
        <time>2026-06-19T09:29:26.000Z</time>
        <extensions>
          <ns3:TrackPointExtension>
            <ns3:atemp>19.0</ns3:atemp>
          </ns3:TrackPointExtension>
        </extensions>
      </trkpt>
      <trkpt lat="42.516019977629184722900390625" lon="20.01047040335834026336669921875">
        <ele>1911.5999755859375</ele>
        <time>2026-06-19T09:29:27.000Z</time>
        <extensions>
          <ns3:TrackPointExtension>
            <ns3:atemp>19.0</ns3:atemp>
          </ns3:TrackPointExtension>
        </extensions>
      </trkpt>
      <trkpt lat="42.516019977629184722900390625" lon="20.01047040335834026336669921875">
        <ele>1911.5999755859375</ele>
        <time>2026-06-19T09:29:28.000Z</time>
        <extensions>
          <ns3:TrackPointExtension>
            <ns3:atemp>19.0</ns3:atemp>
          </ns3:TrackPointExtension>
        </extensions>
      </trkpt>
      <trkpt lat="42.516019977629184722900390625" lon="20.01047040335834026336669921875">
        <ele>1911.5999755859375</ele>
        <time>2026-06-19T09:29:29.000Z</time>
        <extensions>
          <ns3:TrackPointExtension>
            <ns3:atemp>19.0</ns3:atemp>
          </ns3:TrackPointExtension>
        </extensions>
      </trkpt>
      <trkpt lat="42.516019977629184722900390625" lon="20.01047040335834026336669921875">
        <ele>1911.5999755859375</ele>
        <time>2026-06-19T09:29:30.000Z</time>
        <extensions>
          <ns3:TrackPointExtension>
            <ns3:atemp>19.0</ns3:atemp>
          </ns3:TrackPointExtension>
        </extensions>
      </trkpt>
      <trkpt lat="42.516019977629184722900390625" lon="20.01047040335834026336669921875">
        <ele>1911.5999755859375</ele>
        <time>2026-06-19T09:29:31.000Z</time>
        <extensions>
          <ns3:TrackPointExtension>
            <ns3:atemp>19.0</ns3:atemp>
          </ns3:TrackPointExtension>
        </extensions>
      </trkpt>
      <trkpt lat="42.516019977629184722900390625" lon="20.01047040335834026336669921875">
        <ele>1911.5999755859375</ele>
        <time>2026-06-19T09:29:32.000Z</time>
        <extensions>
          <ns3:TrackPointExtension>
            <ns3:atemp>19.0</ns3:atemp>
          </ns3:TrackPointExtension>
        </extensions>
      </trkpt>
      <trkpt lat="42.516019977629184722900390625" lon="20.01047040335834026336669921875">
        <ele>1911.5999755859375</ele>
        <time>2026-06-19T09:29:33.000Z</time>
        <extensions>
          <ns3:TrackPointExtension>
            <ns3:atemp>19.0</ns3:atemp>
          </ns3:TrackPointExtension>
        </extensions>
      </trkpt>
      <trkpt lat="42.516019977629184722900390625" lon="20.01047040335834026336669921875">
        <ele>1911.5999755859375</ele>
        <time>2026-06-19T09:29:34.000Z</time>
        <extensions>
          <ns3:TrackPointExtension>
            <ns3:atemp>19.0</ns3:atemp>
          </ns3:TrackPointExtension>
        </extensions>
      </trkpt>
      <trkpt lat="42.516019977629184722900390625" lon="20.01047040335834026336669921875">
        <ele>1911.5999755859375</ele>
        <time>2026-06-19T09:29:35.000Z</time>
        <extensions>
          <ns3:TrackPointExtension>
            <ns3:atemp>19.0</ns3:atemp>
          </ns3:TrackPointExtension>
        </extensions>
      </trkpt>
      <trkpt lat="42.516019977629184722900390625" lon="20.01047040335834026336669921875">
        <ele>1911.5999755859375</ele>
        <time>2026-06-19T09:29:36.000Z</time>
        <extensions>
          <ns3:TrackPointExtension>
            <ns3:atemp>19.0</ns3:atemp>
          </ns3:TrackPointExtension>
        </extensions>
      </trkpt>
      <trkpt lat="42.516019977629184722900390625" lon="20.01047040335834026336669921875">
        <ele>1911.5999755859375</ele>
        <time>2026-06-19T09:29:37.000Z</time>
        <extensions>
          <ns3:TrackPointExtension>
            <ns3:atemp>19.0</ns3:atemp>
          </ns3:TrackPointExtension>
        </extensions>
      </trkpt>
      <trkpt lat="42.516019977629184722900390625" lon="20.01047040335834026336669921875">
        <ele>1911.5999755859375</ele>
        <time>2026-06-19T09:29:38.000Z</time>
        <extensions>
          <ns3:TrackPointExtension>
            <ns3:atemp>19.0</ns3:atemp>
          </ns3:TrackPointExtension>
        </extensions>
      </trkpt>
      <trkpt lat="42.516019977629184722900390625" lon="20.01047040335834026336669921875">
        <ele>1911.5999755859375</ele>
        <time>2026-06-19T09:29:39.000Z</time>
        <extensions>
          <ns3:TrackPointExtension>
            <ns3:atemp>19.0</ns3:atemp>
          </ns3:TrackPointExtension>
        </extensions>
      </trkpt>
      <trkpt lat="42.516019977629184722900390625" lon="20.01047040335834026336669921875">
        <ele>1911.5999755859375</ele>
        <time>2026-06-19T09:29:40.000Z</time>
        <extensions>
          <ns3:TrackPointExtension>
            <ns3:atemp>19.0</ns3:atemp>
          </ns3:TrackPointExtension>
        </extensions>
      </trkpt>
      <trkpt lat="42.516019977629184722900390625" lon="20.01047040335834026336669921875">
        <ele>1911.5999755859375</ele>
        <time>2026-06-19T09:29:41.000Z</time>
        <extensions>
          <ns3:TrackPointExtension>
            <ns3:atemp>19.0</ns3:atemp>
          </ns3:TrackPointExtension>
        </extensions>
      </trkpt>
      <trkpt lat="42.516019977629184722900390625" lon="20.01047040335834026336669921875">
        <ele>1911.5999755859375</ele>
        <time>2026-06-19T09:29:42.000Z</time>
        <extensions>
          <ns3:TrackPointExtension>
            <ns3:atemp>19.0</ns3:atemp>
          </ns3:TrackPointExtension>
        </extensions>
      </trkpt>
      <trkpt lat="42.516019977629184722900390625" lon="20.01047040335834026336669921875">
        <ele>1911.5999755859375</ele>
        <time>2026-06-19T09:29:43.000Z</time>
        <extensions>
          <ns3:TrackPointExtension>
            <ns3:atemp>19.0</ns3:atemp>
          </ns3:TrackPointExtension>
        </extensions>
      </trkpt>
      <trkpt lat="42.516019977629184722900390625" lon="20.01047040335834026336669921875">
        <ele>1911.5999755859375</ele>
        <time>2026-06-19T09:29:44.000Z</time>
        <extensions>
          <ns3:TrackPointExtension>
            <ns3:atemp>19.0</ns3:atemp>
          </ns3:TrackPointExtension>
        </extensions>
      </trkpt>
      <trkpt lat="42.516019977629184722900390625" lon="20.01047040335834026336669921875">
        <ele>1911.5999755859375</ele>
        <time>2026-06-19T09:29:45.000Z</time>
        <extensions>
          <ns3:TrackPointExtension>
            <ns3:atemp>19.0</ns3:atemp>
          </ns3:TrackPointExtension>
        </extensions>
      </trkpt>
      <trkpt lat="42.516019977629184722900390625" lon="20.01047040335834026336669921875">
        <ele>1911.5999755859375</ele>
        <time>2026-06-19T09:29:46.000Z</time>
        <extensions>
          <ns3:TrackPointExtension>
            <ns3:atemp>19.0</ns3:atemp>
          </ns3:TrackPointExtension>
        </extensions>
      </trkpt>
      <trkpt lat="42.516019977629184722900390625" lon="20.01047040335834026336669921875">
        <ele>1911.5999755859375</ele>
        <time>2026-06-19T09:29:47.000Z</time>
        <extensions>
          <ns3:TrackPointExtension>
            <ns3:atemp>19.0</ns3:atemp>
          </ns3:TrackPointExtension>
        </extensions>
      </trkpt>
      <trkpt lat="42.516019977629184722900390625" lon="20.01047040335834026336669921875">
        <ele>1911.5999755859375</ele>
        <time>2026-06-19T09:29:48.000Z</time>
        <extensions>
          <ns3:TrackPointExtension>
            <ns3:atemp>19.0</ns3:atemp>
          </ns3:TrackPointExtension>
        </extensions>
      </trkpt>
      <trkpt lat="42.516019977629184722900390625" lon="20.01047040335834026336669921875">
        <ele>1911.5999755859375</ele>
        <time>2026-06-19T09:29:49.000Z</time>
        <extensions>
          <ns3:TrackPointExtension>
            <ns3:atemp>19.0</ns3:atemp>
          </ns3:TrackPointExtension>
        </extensions>
      </trkpt>
      <trkpt lat="42.516019977629184722900390625" lon="20.01047040335834026336669921875">
        <ele>1911.5999755859375</ele>
        <time>2026-06-19T09:29:50.000Z</time>
        <extensions>
          <ns3:TrackPointExtension>
            <ns3:atemp>19.0</ns3:atemp>
          </ns3:TrackPointExtension>
        </extensions>
      </trkpt>
      <trkpt lat="42.516019977629184722900390625" lon="20.01047040335834026336669921875">
        <ele>1911.5999755859375</ele>
        <time>2026-06-19T09:29:51.000Z</time>
        <extensions>
          <ns3:TrackPointExtension>
            <ns3:atemp>19.0</ns3:atemp>
          </ns3:TrackPointExtension>
        </extensions>
      </trkpt>
      <trkpt lat="42.516019977629184722900390625" lon="20.01047040335834026336669921875">
        <ele>1911.5999755859375</ele>
        <time>2026-06-19T09:29:52.000Z</time>
        <extensions>
          <ns3:TrackPointExtension>
            <ns3:atemp>19.0</ns3:atemp>
          </ns3:TrackPointExtension>
        </extensions>
      </trkpt>
      <trkpt lat="42.516019977629184722900390625" lon="20.01047040335834026336669921875">
        <ele>1911.5999755859375</ele>
        <time>2026-06-19T09:29:53.000Z</time>
        <extensions>
          <ns3:TrackPointExtension>
            <ns3:atemp>19.0</ns3:atemp>
          </ns3:TrackPointExtension>
        </extensions>
      </trkpt>
      <trkpt lat="42.516019977629184722900390625" lon="20.01047040335834026336669921875">
        <ele>1911.5999755859375</ele>
        <time>2026-06-19T09:29:54.000Z</time>
        <extensions>
          <ns3:TrackPointExtension>
            <ns3:atemp>19.0</ns3:atemp>
          </ns3:TrackPointExtension>
        </extensions>
      </trkpt>
      <trkpt lat="42.516019977629184722900390625" lon="20.01047040335834026336669921875">
        <ele>1911.5999755859375</ele>
        <time>2026-06-19T09:29:55.000Z</time>
        <extensions>
          <ns3:TrackPointExtension>
            <ns3:atemp>19.0</ns3:atemp>
          </ns3:TrackPointExtension>
        </extensions>
      </trkpt>
      <trkpt lat="42.516019977629184722900390625" lon="20.01047040335834026336669921875">
        <ele>1911.5999755859375</ele>
        <time>2026-06-19T09:29:56.000Z</time>
        <extensions>
          <ns3:TrackPointExtension>
            <ns3:atemp>19.0</ns3:atemp>
          </ns3:TrackPointExtension>
        </extensions>
      </trkpt>
      <trkpt lat="42.516019977629184722900390625" lon="20.01047040335834026336669921875">
        <ele>1911.5999755859375</ele>
        <time>2026-06-19T09:29:57.000Z</time>
        <extensions>
          <ns3:TrackPointExtension>
            <ns3:atemp>19.0</ns3:atemp>
          </ns3:TrackPointExtension>
        </extensions>
      </trkpt>
      <trkpt lat="42.516019977629184722900390625" lon="20.01047040335834026336669921875">
        <ele>1911.5999755859375</ele>
        <time>2026-06-19T09:29:58.000Z</time>
        <extensions>
          <ns3:TrackPointExtension>
            <ns3:atemp>19.0</ns3:atemp>
          </ns3:TrackPointExtension>
        </extensions>
      </trkpt>
      <trkpt lat="42.516019977629184722900390625" lon="20.01047040335834026336669921875">
        <ele>1911.5999755859375</ele>
        <time>2026-06-19T09:29:59.000Z</time>
        <extensions>
          <ns3:TrackPointExtension>
            <ns3:atemp>19.0</ns3:atemp>
          </ns3:TrackPointExtension>
        </extensions>
      </trkpt>
      <trkpt lat="42.516019977629184722900390625" lon="20.01047040335834026336669921875">
        <ele>1911.5999755859375</ele>
        <time>2026-06-19T09:30:00.000Z</time>
        <extensions>
          <ns3:TrackPointExtension>
            <ns3:atemp>19.0</ns3:atemp>
          </ns3:TrackPointExtension>
        </extensions>
      </trkpt>
      <trkpt lat="42.516019977629184722900390625" lon="20.01047040335834026336669921875">
        <ele>1911.5999755859375</ele>
        <time>2026-06-19T09:30:01.000Z</time>
        <extensions>
          <ns3:TrackPointExtension>
            <ns3:atemp>19.0</ns3:atemp>
          </ns3:TrackPointExtension>
        </extensions>
      </trkpt>
      <trkpt lat="42.516019977629184722900390625" lon="20.01047040335834026336669921875">
        <ele>1911.5999755859375</ele>
        <time>2026-06-19T09:30:02.000Z</time>
        <extensions>
          <ns3:TrackPointExtension>
            <ns3:atemp>19.0</ns3:atemp>
          </ns3:TrackPointExtension>
        </extensions>
      </trkpt>
      <trkpt lat="42.516019977629184722900390625" lon="20.01047040335834026336669921875">
        <ele>1911.5999755859375</ele>
        <time>2026-06-19T09:30:03.000Z</time>
        <extensions>
          <ns3:TrackPointExtension>
            <ns3:atemp>19.0</ns3:atemp>
          </ns3:TrackPointExtension>
        </extensions>
      </trkpt>
      <trkpt lat="42.516019977629184722900390625" lon="20.01047040335834026336669921875">
        <ele>1911.5999755859375</ele>
        <time>2026-06-19T09:30:04.000Z</time>
        <extensions>
          <ns3:TrackPointExtension>
            <ns3:atemp>19.0</ns3:atemp>
          </ns3:TrackPointExtension>
        </extensions>
      </trkpt>
      <trkpt lat="42.516019977629184722900390625" lon="20.01047040335834026336669921875">
        <ele>1911.5999755859375</ele>
        <time>2026-06-19T09:30:05.000Z</time>
        <extensions>
          <ns3:TrackPointExtension>
            <ns3:atemp>19.0</ns3:atemp>
          </ns3:TrackPointExtension>
        </extensions>
      </trkpt>
      <trkpt lat="42.516019977629184722900390625" lon="20.01047040335834026336669921875">
        <ele>1911.5999755859375</ele>
        <time>2026-06-19T09:30:06.000Z</time>
        <extensions>
          <ns3:TrackPointExtension>
            <ns3:atemp>19.0</ns3:atemp>
          </ns3:TrackPointExtension>
        </extensions>
      </trkpt>
      <trkpt lat="42.516019977629184722900390625" lon="20.01047040335834026336669921875">
        <ele>1911.5999755859375</ele>
        <time>2026-06-19T09:30:07.000Z</time>
        <extensions>
          <ns3:TrackPointExtension>
            <ns3:atemp>19.0</ns3:atemp>
          </ns3:TrackPointExtension>
        </extensions>
      </trkpt>
      <trkpt lat="42.516019977629184722900390625" lon="20.01047040335834026336669921875">
        <ele>1911.5999755859375</ele>
        <time>2026-06-19T09:30:08.000Z</time>
        <extensions>
          <ns3:TrackPointExtension>
            <ns3:atemp>19.0</ns3:atemp>
          </ns3:TrackPointExtension>
        </extensions>
      </trkpt>
      <trkpt lat="42.516019977629184722900390625" lon="20.01047040335834026336669921875">
        <ele>1911.5999755859375</ele>
        <time>2026-06-19T09:30:09.000Z</time>
        <extensions>
          <ns3:TrackPointExtension>
            <ns3:atemp>19.0</ns3:atemp>
          </ns3:TrackPointExtension>
        </extensions>
      </trkpt>
      <trkpt lat="42.516019977629184722900390625" lon="20.01047040335834026336669921875">
        <ele>1911.5999755859375</ele>
        <time>2026-06-19T09:30:10.000Z</time>
        <extensions>
          <ns3:TrackPointExtension>
            <ns3:atemp>19.0</ns3:atemp>
          </ns3:TrackPointExtension>
        </extensions>
      </trkpt>
      <trkpt lat="42.516019977629184722900390625" lon="20.01047040335834026336669921875">
        <ele>1911.5999755859375</ele>
        <time>2026-06-19T09:30:11.000Z</time>
        <extensions>
          <ns3:TrackPointExtension>
            <ns3:atemp>19.0</ns3:atemp>
          </ns3:TrackPointExtension>
        </extensions>
      </trkpt>
      <trkpt lat="42.516019977629184722900390625" lon="20.01047040335834026336669921875">
        <ele>1911.5999755859375</ele>
        <time>2026-06-19T09:30:12.000Z</time>
        <extensions>
          <ns3:TrackPointExtension>
            <ns3:atemp>19.0</ns3:atemp>
          </ns3:TrackPointExtension>
        </extensions>
      </trkpt>
      <trkpt lat="42.516019977629184722900390625" lon="20.01047040335834026336669921875">
        <ele>1911.5999755859375</ele>
        <time>2026-06-19T09:30:13.000Z</time>
        <extensions>
          <ns3:TrackPointExtension>
            <ns3:atemp>19.0</ns3:atemp>
          </ns3:TrackPointExtension>
        </extensions>
      </trkpt>
      <trkpt lat="42.516019977629184722900390625" lon="20.01047040335834026336669921875">
        <ele>1911.5999755859375</ele>
        <time>2026-06-19T09:30:14.000Z</time>
        <extensions>
          <ns3:TrackPointExtension>
            <ns3:atemp>19.0</ns3:atemp>
          </ns3:TrackPointExtension>
        </extensions>
      </trkpt>
      <trkpt lat="42.516019977629184722900390625" lon="20.01047040335834026336669921875">
        <ele>1911.5999755859375</ele>
        <time>2026-06-19T09:30:15.000Z</time>
        <extensions>
          <ns3:TrackPointExtension>
            <ns3:atemp>19.0</ns3:atemp>
          </ns3:TrackPointExtension>
        </extensions>
      </trkpt>
      <trkpt lat="42.516019977629184722900390625" lon="20.01047040335834026336669921875">
        <ele>1911.5999755859375</ele>
        <time>2026-06-19T09:30:16.000Z</time>
        <extensions>
          <ns3:TrackPointExtension>
            <ns3:atemp>19.0</ns3:atemp>
          </ns3:TrackPointExtension>
        </extensions>
      </trkpt>
      <trkpt lat="42.516019977629184722900390625" lon="20.01047040335834026336669921875">
        <ele>1911.5999755859375</ele>
        <time>2026-06-19T09:30:17.000Z</time>
        <extensions>
          <ns3:TrackPointExtension>
            <ns3:atemp>19.0</ns3:atemp>
          </ns3:TrackPointExtension>
        </extensions>
      </trkpt>
      <trkpt lat="42.516019977629184722900390625" lon="20.01047040335834026336669921875">
        <ele>1911.5999755859375</ele>
        <time>2026-06-19T09:30:18.000Z</time>
        <extensions>
          <ns3:TrackPointExtension>
            <ns3:atemp>19.0</ns3:atemp>
          </ns3:TrackPointExtension>
        </extensions>
      </trkpt>
      <trkpt lat="42.516019977629184722900390625" lon="20.01047040335834026336669921875">
        <ele>1911.5999755859375</ele>
        <time>2026-06-19T09:30:19.000Z</time>
        <extensions>
          <ns3:TrackPointExtension>
            <ns3:atemp>19.0</ns3:atemp>
          </ns3:TrackPointExtension>
        </extensions>
      </trkpt>
      <trkpt lat="42.516019977629184722900390625" lon="20.01047040335834026336669921875">
        <ele>1911.5999755859375</ele>
        <time>2026-06-19T09:30:20.000Z</time>
        <extensions>
          <ns3:TrackPointExtension>
            <ns3:atemp>19.0</ns3:atemp>
          </ns3:TrackPointExtension>
        </extensions>
      </trkpt>
      <trkpt lat="42.516019977629184722900390625" lon="20.01047040335834026336669921875">
        <ele>1911.5999755859375</ele>
        <time>2026-06-19T09:30:21.000Z</time>
        <extensions>
          <ns3:TrackPointExtension>
            <ns3:atemp>19.0</ns3:atemp>
          </ns3:TrackPointExtension>
        </extensions>
      </trkpt>
      <trkpt lat="42.516019977629184722900390625" lon="20.01047040335834026336669921875">
        <ele>1911.5999755859375</ele>
        <time>2026-06-19T09:30:22.000Z</time>
        <extensions>
          <ns3:TrackPointExtension>
            <ns3:atemp>19.0</ns3:atemp>
          </ns3:TrackPointExtension>
        </extensions>
      </trkpt>
      <trkpt lat="42.516019977629184722900390625" lon="20.01047040335834026336669921875">
        <ele>1911.5999755859375</ele>
        <time>2026-06-19T09:30:23.000Z</time>
        <extensions>
          <ns3:TrackPointExtension>
            <ns3:atemp>19.0</ns3:atemp>
          </ns3:TrackPointExtension>
        </extensions>
      </trkpt>
      <trkpt lat="42.516019977629184722900390625" lon="20.01047040335834026336669921875">
        <ele>1911.5999755859375</ele>
        <time>2026-06-19T09:30:24.000Z</time>
        <extensions>
          <ns3:TrackPointExtension>
            <ns3:atemp>19.0</ns3:atemp>
          </ns3:TrackPointExtension>
        </extensions>
      </trkpt>
      <trkpt lat="42.516019977629184722900390625" lon="20.01047040335834026336669921875">
        <ele>1911.5999755859375</ele>
        <time>2026-06-19T09:30:25.000Z</time>
        <extensions>
          <ns3:TrackPointExtension>
            <ns3:atemp>19.0</ns3:atemp>
          </ns3:TrackPointExtension>
        </extensions>
      </trkpt>
      <trkpt lat="42.516019977629184722900390625" lon="20.01047040335834026336669921875">
        <ele>1911.5999755859375</ele>
        <time>2026-06-19T09:30:26.000Z</time>
        <extensions>
          <ns3:TrackPointExtension>
            <ns3:atemp>19.0</ns3:atemp>
          </ns3:TrackPointExtension>
        </extensions>
      </trkpt>
      <trkpt lat="42.516019977629184722900390625" lon="20.01047040335834026336669921875">
        <ele>1911.5999755859375</ele>
        <time>2026-06-19T09:30:27.000Z</time>
        <extensions>
          <ns3:TrackPointExtension>
            <ns3:atemp>19.0</ns3:atemp>
          </ns3:TrackPointExtension>
        </extensions>
      </trkpt>
      <trkpt lat="42.516019977629184722900390625" lon="20.01047040335834026336669921875">
        <ele>1911.5999755859375</ele>
        <time>2026-06-19T09:30:28.000Z</time>
        <extensions>
          <ns3:TrackPointExtension>
            <ns3:atemp>19.0</ns3:atemp>
          </ns3:TrackPointExtension>
        </extensions>
      </trkpt>
      <trkpt lat="42.516019977629184722900390625" lon="20.01047040335834026336669921875">
        <ele>1911.5999755859375</ele>
        <time>2026-06-19T09:30:29.000Z</time>
        <extensions>
          <ns3:TrackPointExtension>
            <ns3:atemp>19.0</ns3:atemp>
          </ns3:TrackPointExtension>
        </extensions>
      </trkpt>
      <trkpt lat="42.516019977629184722900390625" lon="20.01047040335834026336669921875">
        <ele>1911.5999755859375</ele>
        <time>2026-06-19T09:30:30.000Z</time>
        <extensions>
          <ns3:TrackPointExtension>
            <ns3:atemp>19.0</ns3:atemp>
          </ns3:TrackPointExtension>
        </extensions>
      </trkpt>
      <trkpt lat="42.516019977629184722900390625" lon="20.01047040335834026336669921875">
        <ele>1911.5999755859375</ele>
        <time>2026-06-19T09:30:31.000Z</time>
        <extensions>
          <ns3:TrackPointExtension>
            <ns3:atemp>19.0</ns3:atemp>
          </ns3:TrackPointExtension>
        </extensions>
      </trkpt>
      <trkpt lat="42.516019977629184722900390625" lon="20.01047040335834026336669921875">
        <ele>1911.5999755859375</ele>
        <time>2026-06-19T09:30:32.000Z</time>
        <extensions>
          <ns3:TrackPointExtension>
            <ns3:atemp>19.0</ns3:atemp>
          </ns3:TrackPointExtension>
        </extensions>
      </trkpt>
      <trkpt lat="42.516019977629184722900390625" lon="20.01047040335834026336669921875">
        <ele>1911.5999755859375</ele>
        <time>2026-06-19T09:30:33.000Z</time>
        <extensions>
          <ns3:TrackPointExtension>
            <ns3:atemp>19.0</ns3:atemp>
          </ns3:TrackPointExtension>
        </extensions>
      </trkpt>
      <trkpt lat="42.516019977629184722900390625" lon="20.01047040335834026336669921875">
        <ele>1911.5999755859375</ele>
        <time>2026-06-19T09:30:34.000Z</time>
        <extensions>
          <ns3:TrackPointExtension>
            <ns3:atemp>19.0</ns3:atemp>
          </ns3:TrackPointExtension>
        </extensions>
      </trkpt>
      <trkpt lat="42.516019977629184722900390625" lon="20.01047040335834026336669921875">
        <ele>1911.5999755859375</ele>
        <time>2026-06-19T09:30:35.000Z</time>
        <extensions>
          <ns3:TrackPointExtension>
            <ns3:atemp>19.0</ns3:atemp>
          </ns3:TrackPointExtension>
        </extensions>
      </trkpt>
      <trkpt lat="42.516019977629184722900390625" lon="20.01047040335834026336669921875">
        <ele>1911.5999755859375</ele>
        <time>2026-06-19T09:30:36.000Z</time>
        <extensions>
          <ns3:TrackPointExtension>
            <ns3:atemp>19.0</ns3:atemp>
          </ns3:TrackPointExtension>
        </extensions>
      </trkpt>
      <trkpt lat="42.516019977629184722900390625" lon="20.01047040335834026336669921875">
        <ele>1911.5999755859375</ele>
        <time>2026-06-19T09:30:37.000Z</time>
        <extensions>
          <ns3:TrackPointExtension>
            <ns3:atemp>19.0</ns3:atemp>
          </ns3:TrackPointExtension>
        </extensions>
      </trkpt>
      <trkpt lat="42.516019977629184722900390625" lon="20.01047040335834026336669921875">
        <ele>1911.5999755859375</ele>
        <time>2026-06-19T09:30:38.000Z</time>
        <extensions>
          <ns3:TrackPointExtension>
            <ns3:atemp>19.0</ns3:atemp>
          </ns3:TrackPointExtension>
        </extensions>
      </trkpt>
      <trkpt lat="42.516019977629184722900390625" lon="20.01047040335834026336669921875">
        <ele>1911.5999755859375</ele>
        <time>2026-06-19T09:30:39.000Z</time>
        <extensions>
          <ns3:TrackPointExtension>
            <ns3:atemp>19.0</ns3:atemp>
          </ns3:TrackPointExtension>
        </extensions>
      </trkpt>
      <trkpt lat="42.516019977629184722900390625" lon="20.01047040335834026336669921875">
        <ele>1911.5999755859375</ele>
        <time>2026-06-19T09:30:40.000Z</time>
        <extensions>
          <ns3:TrackPointExtension>
            <ns3:atemp>19.0</ns3:atemp>
          </ns3:TrackPointExtension>
        </extensions>
      </trkpt>
      <trkpt lat="42.516019977629184722900390625" lon="20.01047040335834026336669921875">
        <ele>1911.5999755859375</ele>
        <time>2026-06-19T09:30:41.000Z</time>
        <extensions>
          <ns3:TrackPointExtension>
            <ns3:atemp>19.0</ns3:atemp>
          </ns3:TrackPointExtension>
        </extensions>
      </trkpt>
      <trkpt lat="42.516019977629184722900390625" lon="20.01047040335834026336669921875">
        <ele>1911.5999755859375</ele>
        <time>2026-06-19T09:30:42.000Z</time>
        <extensions>
          <ns3:TrackPointExtension>
            <ns3:atemp>19.0</ns3:atemp>
          </ns3:TrackPointExtension>
        </extensions>
      </trkpt>
      <trkpt lat="42.516019977629184722900390625" lon="20.01047040335834026336669921875">
        <ele>1911.5999755859375</ele>
        <time>2026-06-19T09:30:43.000Z</time>
        <extensions>
          <ns3:TrackPointExtension>
            <ns3:atemp>19.0</ns3:atemp>
          </ns3:TrackPointExtension>
        </extensions>
      </trkpt>
      <trkpt lat="42.516019977629184722900390625" lon="20.01047040335834026336669921875">
        <ele>1911.5999755859375</ele>
        <time>2026-06-19T09:30:44.000Z</time>
        <extensions>
          <ns3:TrackPointExtension>
            <ns3:atemp>19.0</ns3:atemp>
          </ns3:TrackPointExtension>
        </extensions>
      </trkpt>
      <trkpt lat="42.516019977629184722900390625" lon="20.01047040335834026336669921875">
        <ele>1911.5999755859375</ele>
        <time>2026-06-19T09:30:45.000Z</time>
        <extensions>
          <ns3:TrackPointExtension>
            <ns3:atemp>19.0</ns3:atemp>
          </ns3:TrackPointExtension>
        </extensions>
      </trkpt>
      <trkpt lat="42.516019977629184722900390625" lon="20.01047040335834026336669921875">
        <ele>1911.5999755859375</ele>
        <time>2026-06-19T09:30:46.000Z</time>
        <extensions>
          <ns3:TrackPointExtension>
            <ns3:atemp>19.0</ns3:atemp>
          </ns3:TrackPointExtension>
        </extensions>
      </trkpt>
      <trkpt lat="42.516019977629184722900390625" lon="20.01047040335834026336669921875">
        <ele>1911.5999755859375</ele>
        <time>2026-06-19T09:30:47.000Z</time>
        <extensions>
          <ns3:TrackPointExtension>
            <ns3:atemp>19.0</ns3:atemp>
          </ns3:TrackPointExtension>
        </extensions>
      </trkpt>
      <trkpt lat="42.516019977629184722900390625" lon="20.01047040335834026336669921875">
        <ele>1911.5999755859375</ele>
        <time>2026-06-19T09:30:48.000Z</time>
        <extensions>
          <ns3:TrackPointExtension>
            <ns3:atemp>19.0</ns3:atemp>
          </ns3:TrackPointExtension>
        </extensions>
      </trkpt>
      <trkpt lat="42.516019977629184722900390625" lon="20.01047040335834026336669921875">
        <ele>1911.5999755859375</ele>
        <time>2026-06-19T09:30:49.000Z</time>
        <extensions>
          <ns3:TrackPointExtension>
            <ns3:atemp>19.0</ns3:atemp>
          </ns3:TrackPointExtension>
        </extensions>
      </trkpt>
      <trkpt lat="42.516019977629184722900390625" lon="20.01047040335834026336669921875">
        <ele>1911.5999755859375</ele>
        <time>2026-06-19T09:30:50.000Z</time>
        <extensions>
          <ns3:TrackPointExtension>
            <ns3:atemp>19.0</ns3:atemp>
          </ns3:TrackPointExtension>
        </extensions>
      </trkpt>
      <trkpt lat="42.516019977629184722900390625" lon="20.01047040335834026336669921875">
        <ele>1911.5999755859375</ele>
        <time>2026-06-19T09:30:51.000Z</time>
        <extensions>
          <ns3:TrackPointExtension>
            <ns3:atemp>19.0</ns3:atemp>
          </ns3:TrackPointExtension>
        </extensions>
      </trkpt>
      <trkpt lat="42.516019977629184722900390625" lon="20.01047040335834026336669921875">
        <ele>1911.5999755859375</ele>
        <time>2026-06-19T09:30:52.000Z</time>
        <extensions>
          <ns3:TrackPointExtension>
            <ns3:atemp>19.0</ns3:atemp>
          </ns3:TrackPointExtension>
        </extensions>
      </trkpt>
      <trkpt lat="42.516019977629184722900390625" lon="20.01047040335834026336669921875">
        <ele>1911.5999755859375</ele>
        <time>2026-06-19T09:30:53.000Z</time>
        <extensions>
          <ns3:TrackPointExtension>
            <ns3:atemp>19.0</ns3:atemp>
          </ns3:TrackPointExtension>
        </extensions>
      </trkpt>
      <trkpt lat="42.516019977629184722900390625" lon="20.01047040335834026336669921875">
        <ele>1911.5999755859375</ele>
        <time>2026-06-19T09:30:54.000Z</time>
        <extensions>
          <ns3:TrackPointExtension>
            <ns3:atemp>19.0</ns3:atemp>
          </ns3:TrackPointExtension>
        </extensions>
      </trkpt>
      <trkpt lat="42.516019977629184722900390625" lon="20.01047040335834026336669921875">
        <ele>1911.5999755859375</ele>
        <time>2026-06-19T09:30:55.000Z</time>
        <extensions>
          <ns3:TrackPointExtension>
            <ns3:atemp>19.0</ns3:atemp>
          </ns3:TrackPointExtension>
        </extensions>
      </trkpt>
      <trkpt lat="42.516019977629184722900390625" lon="20.01047040335834026336669921875">
        <ele>1911.5999755859375</ele>
        <time>2026-06-19T09:30:56.000Z</time>
        <extensions>
          <ns3:TrackPointExtension>
            <ns3:atemp>19.0</ns3:atemp>
          </ns3:TrackPointExtension>
        </extensions>
      </trkpt>
      <trkpt lat="42.516019977629184722900390625" lon="20.01047040335834026336669921875">
        <ele>1911.5999755859375</ele>
        <time>2026-06-19T09:30:57.000Z</time>
        <extensions>
          <ns3:TrackPointExtension>
            <ns3:atemp>20.0</ns3:atemp>
          </ns3:TrackPointExtension>
        </extensions>
      </trkpt>
      <trkpt lat="42.516019977629184722900390625" lon="20.01047040335834026336669921875">
        <ele>1911.5999755859375</ele>
        <time>2026-06-19T09:30:58.000Z</time>
        <extensions>
          <ns3:TrackPointExtension>
            <ns3:atemp>19.0</ns3:atemp>
          </ns3:TrackPointExtension>
        </extensions>
      </trkpt>
      <trkpt lat="42.516019977629184722900390625" lon="20.01047040335834026336669921875">
        <ele>1911.5999755859375</ele>
        <time>2026-06-19T09:30:59.000Z</time>
        <extensions>
          <ns3:TrackPointExtension>
            <ns3:atemp>19.0</ns3:atemp>
          </ns3:TrackPointExtension>
        </extensions>
      </trkpt>
      <trkpt lat="42.516019977629184722900390625" lon="20.01047040335834026336669921875">
        <ele>1911.5999755859375</ele>
        <time>2026-06-19T09:31:00.000Z</time>
        <extensions>
          <ns3:TrackPointExtension>
            <ns3:atemp>19.0</ns3:atemp>
          </ns3:TrackPointExtension>
        </extensions>
      </trkpt>
      <trkpt lat="42.516019977629184722900390625" lon="20.01047040335834026336669921875">
        <ele>1911.5999755859375</ele>
        <time>2026-06-19T09:31:01.000Z</time>
        <extensions>
          <ns3:TrackPointExtension>
            <ns3:atemp>19.0</ns3:atemp>
          </ns3:TrackPointExtension>
        </extensions>
      </trkpt>
      <trkpt lat="42.516019977629184722900390625" lon="20.01047040335834026336669921875">
        <ele>1911.5999755859375</ele>
        <time>2026-06-19T09:31:02.000Z</time>
        <extensions>
          <ns3:TrackPointExtension>
            <ns3:atemp>19.0</ns3:atemp>
          </ns3:TrackPointExtension>
        </extensions>
      </trkpt>
      <trkpt lat="42.516019977629184722900390625" lon="20.01047040335834026336669921875">
        <ele>1911.5999755859375</ele>
        <time>2026-06-19T09:31:03.000Z</time>
        <extensions>
          <ns3:TrackPointExtension>
            <ns3:atemp>19.0</ns3:atemp>
          </ns3:TrackPointExtension>
        </extensions>
      </trkpt>
      <trkpt lat="42.516019977629184722900390625" lon="20.01047040335834026336669921875">
        <ele>1911.5999755859375</ele>
        <time>2026-06-19T09:31:04.000Z</time>
        <extensions>
          <ns3:TrackPointExtension>
            <ns3:atemp>19.0</ns3:atemp>
          </ns3:TrackPointExtension>
        </extensions>
      </trkpt>
      <trkpt lat="42.516019977629184722900390625" lon="20.01047040335834026336669921875">
        <ele>1911.5999755859375</ele>
        <time>2026-06-19T09:31:05.000Z</time>
        <extensions>
          <ns3:TrackPointExtension>
            <ns3:atemp>19.0</ns3:atemp>
          </ns3:TrackPointExtension>
        </extensions>
      </trkpt>
      <trkpt lat="42.516019977629184722900390625" lon="20.01047040335834026336669921875">
        <ele>1911.5999755859375</ele>
        <time>2026-06-19T09:31:06.000Z</time>
        <extensions>
          <ns3:TrackPointExtension>
            <ns3:atemp>19.0</ns3:atemp>
          </ns3:TrackPointExtension>
        </extensions>
      </trkpt>
      <trkpt lat="42.516019977629184722900390625" lon="20.01047040335834026336669921875">
        <ele>1911.5999755859375</ele>
        <time>2026-06-19T09:31:07.000Z</time>
        <extensions>
          <ns3:TrackPointExtension>
            <ns3:atemp>19.0</ns3:atemp>
          </ns3:TrackPointExtension>
        </extensions>
      </trkpt>
      <trkpt lat="42.516019977629184722900390625" lon="20.01047040335834026336669921875">
        <ele>1911.5999755859375</ele>
        <time>2026-06-19T09:31:08.000Z</time>
        <extensions>
          <ns3:TrackPointExtension>
            <ns3:atemp>20.0</ns3:atemp>
          </ns3:TrackPointExtension>
        </extensions>
      </trkpt>
      <trkpt lat="42.516019977629184722900390625" lon="20.01047040335834026336669921875">
        <ele>1911.5999755859375</ele>
        <time>2026-06-19T09:31:09.000Z</time>
        <extensions>
          <ns3:TrackPointExtension>
            <ns3:atemp>20.0</ns3:atemp>
          </ns3:TrackPointExtension>
        </extensions>
      </trkpt>
      <trkpt lat="42.516019977629184722900390625" lon="20.01047040335834026336669921875">
        <ele>1911.5999755859375</ele>
        <time>2026-06-19T09:31:10.000Z</time>
        <extensions>
          <ns3:TrackPointExtension>
            <ns3:atemp>20.0</ns3:atemp>
          </ns3:TrackPointExtension>
        </extensions>
      </trkpt>
      <trkpt lat="42.516019977629184722900390625" lon="20.01047040335834026336669921875">
        <ele>1911.5999755859375</ele>
        <time>2026-06-19T09:31:11.000Z</time>
        <extensions>
          <ns3:TrackPointExtension>
            <ns3:atemp>20.0</ns3:atemp>
          </ns3:TrackPointExtension>
        </extensions>
      </trkpt>
      <trkpt lat="42.516019977629184722900390625" lon="20.01047040335834026336669921875">
        <ele>1911.5999755859375</ele>
        <time>2026-06-19T09:31:12.000Z</time>
        <extensions>
          <ns3:TrackPointExtension>
            <ns3:atemp>20.0</ns3:atemp>
          </ns3:TrackPointExtension>
        </extensions>
      </trkpt>
      <trkpt lat="42.516019977629184722900390625" lon="20.01047040335834026336669921875">
        <ele>1911.5999755859375</ele>
        <time>2026-06-19T09:31:13.000Z</time>
        <extensions>
          <ns3:TrackPointExtension>
            <ns3:atemp>20.0</ns3:atemp>
          </ns3:TrackPointExtension>
        </extensions>
      </trkpt>
      <trkpt lat="42.516019977629184722900390625" lon="20.01047040335834026336669921875">
        <ele>1911.5999755859375</ele>
        <time>2026-06-19T09:31:14.000Z</time>
        <extensions>
          <ns3:TrackPointExtension>
            <ns3:atemp>20.0</ns3:atemp>
          </ns3:TrackPointExtension>
        </extensions>
      </trkpt>
      <trkpt lat="42.516019977629184722900390625" lon="20.01047040335834026336669921875">
        <ele>1911.5999755859375</ele>
        <time>2026-06-19T09:31:15.000Z</time>
        <extensions>
          <ns3:TrackPointExtension>
            <ns3:atemp>20.0</ns3:atemp>
          </ns3:TrackPointExtension>
        </extensions>
      </trkpt>
      <trkpt lat="42.516019977629184722900390625" lon="20.01047040335834026336669921875">
        <ele>1911.5999755859375</ele>
        <time>2026-06-19T09:31:16.000Z</time>
        <extensions>
          <ns3:TrackPointExtension>
            <ns3:atemp>20.0</ns3:atemp>
          </ns3:TrackPointExtension>
        </extensions>
      </trkpt>
      <trkpt lat="42.516019977629184722900390625" lon="20.01047040335834026336669921875">
        <ele>1911.5999755859375</ele>
        <time>2026-06-19T09:31:17.000Z</time>
        <extensions>
          <ns3:TrackPointExtension>
            <ns3:atemp>20.0</ns3:atemp>
          </ns3:TrackPointExtension>
        </extensions>
      </trkpt>
      <trkpt lat="42.516019977629184722900390625" lon="20.01047040335834026336669921875">
        <ele>1911.5999755859375</ele>
        <time>2026-06-19T09:31:18.000Z</time>
        <extensions>
          <ns3:TrackPointExtension>
            <ns3:atemp>20.0</ns3:atemp>
          </ns3:TrackPointExtension>
        </extensions>
      </trkpt>
      <trkpt lat="42.516019977629184722900390625" lon="20.01047040335834026336669921875">
        <ele>1911.5999755859375</ele>
        <time>2026-06-19T09:31:19.000Z</time>
        <extensions>
          <ns3:TrackPointExtension>
            <ns3:atemp>20.0</ns3:atemp>
          </ns3:TrackPointExtension>
        </extensions>
      </trkpt>
      <trkpt lat="42.516019977629184722900390625" lon="20.01047040335834026336669921875">
        <ele>1911.5999755859375</ele>
        <time>2026-06-19T09:31:20.000Z</time>
        <extensions>
          <ns3:TrackPointExtension>
            <ns3:atemp>20.0</ns3:atemp>
          </ns3:TrackPointExtension>
        </extensions>
      </trkpt>
      <trkpt lat="42.516019977629184722900390625" lon="20.01047040335834026336669921875">
        <ele>1911.5999755859375</ele>
        <time>2026-06-19T09:31:21.000Z</time>
        <extensions>
          <ns3:TrackPointExtension>
            <ns3:atemp>20.0</ns3:atemp>
          </ns3:TrackPointExtension>
        </extensions>
      </trkpt>
      <trkpt lat="42.516019977629184722900390625" lon="20.01047040335834026336669921875">
        <ele>1911.5999755859375</ele>
        <time>2026-06-19T09:31:22.000Z</time>
        <extensions>
          <ns3:TrackPointExtension>
            <ns3:atemp>20.0</ns3:atemp>
          </ns3:TrackPointExtension>
        </extensions>
      </trkpt>
      <trkpt lat="42.516019977629184722900390625" lon="20.01047040335834026336669921875">
        <ele>1911.5999755859375</ele>
        <time>2026-06-19T09:31:23.000Z</time>
        <extensions>
          <ns3:TrackPointExtension>
            <ns3:atemp>20.0</ns3:atemp>
          </ns3:TrackPointExtension>
        </extensions>
      </trkpt>
      <trkpt lat="42.516019977629184722900390625" lon="20.01047040335834026336669921875">
        <ele>1911.5999755859375</ele>
        <time>2026-06-19T09:31:24.000Z</time>
        <extensions>
          <ns3:TrackPointExtension>
            <ns3:atemp>20.0</ns3:atemp>
          </ns3:TrackPointExtension>
        </extensions>
      </trkpt>
      <trkpt lat="42.516019977629184722900390625" lon="20.01047040335834026336669921875">
        <ele>1911.5999755859375</ele>
        <time>2026-06-19T09:31:25.000Z</time>
        <extensions>
          <ns3:TrackPointExtension>
            <ns3:atemp>20.0</ns3:atemp>
          </ns3:TrackPointExtension>
        </extensions>
      </trkpt>
      <trkpt lat="42.516019977629184722900390625" lon="20.01047040335834026336669921875">
        <ele>1911.5999755859375</ele>
        <time>2026-06-19T09:31:26.000Z</time>
        <extensions>
          <ns3:TrackPointExtension>
            <ns3:atemp>20.0</ns3:atemp>
          </ns3:TrackPointExtension>
        </extensions>
      </trkpt>
      <trkpt lat="42.516019977629184722900390625" lon="20.01047040335834026336669921875">
        <ele>1911.5999755859375</ele>
        <time>2026-06-19T09:31:27.000Z</time>
        <extensions>
          <ns3:TrackPointExtension>
            <ns3:atemp>20.0</ns3:atemp>
          </ns3:TrackPointExtension>
        </extensions>
      </trkpt>
      <trkpt lat="42.516019977629184722900390625" lon="20.01047040335834026336669921875">
        <ele>1911.5999755859375</ele>
        <time>2026-06-19T09:31:28.000Z</time>
        <extensions>
          <ns3:TrackPointExtension>
            <ns3:atemp>20.0</ns3:atemp>
          </ns3:TrackPointExtension>
        </extensions>
      </trkpt>
      <trkpt lat="42.516019977629184722900390625" lon="20.01047040335834026336669921875">
        <ele>1911.5999755859375</ele>
        <time>2026-06-19T09:31:29.000Z</time>
        <extensions>
          <ns3:TrackPointExtension>
            <ns3:atemp>20.0</ns3:atemp>
          </ns3:TrackPointExtension>
        </extensions>
      </trkpt>
      <trkpt lat="42.516019977629184722900390625" lon="20.01047040335834026336669921875">
        <ele>1911.5999755859375</ele>
        <time>2026-06-19T09:31:30.000Z</time>
        <extensions>
          <ns3:TrackPointExtension>
            <ns3:atemp>20.0</ns3:atemp>
          </ns3:TrackPointExtension>
        </extensions>
      </trkpt>
      <trkpt lat="42.516019977629184722900390625" lon="20.01047040335834026336669921875">
        <ele>1911.5999755859375</ele>
        <time>2026-06-19T09:31:31.000Z</time>
        <extensions>
          <ns3:TrackPointExtension>
            <ns3:atemp>20.0</ns3:atemp>
          </ns3:TrackPointExtension>
        </extensions>
      </trkpt>
      <trkpt lat="42.516019977629184722900390625" lon="20.01047040335834026336669921875">
        <ele>1911.5999755859375</ele>
        <time>2026-06-19T09:31:32.000Z</time>
        <extensions>
          <ns3:TrackPointExtension>
            <ns3:atemp>20.0</ns3:atemp>
          </ns3:TrackPointExtension>
        </extensions>
      </trkpt>
      <trkpt lat="42.516019977629184722900390625" lon="20.01047040335834026336669921875">
        <ele>1911.5999755859375</ele>
        <time>2026-06-19T09:31:33.000Z</time>
        <extensions>
          <ns3:TrackPointExtension>
            <ns3:atemp>20.0</ns3:atemp>
          </ns3:TrackPointExtension>
        </extensions>
      </trkpt>
      <trkpt lat="42.516019977629184722900390625" lon="20.01047040335834026336669921875">
        <ele>1911.5999755859375</ele>
        <time>2026-06-19T09:31:34.000Z</time>
        <extensions>
          <ns3:TrackPointExtension>
            <ns3:atemp>20.0</ns3:atemp>
          </ns3:TrackPointExtension>
        </extensions>
      </trkpt>
      <trkpt lat="42.516019977629184722900390625" lon="20.01047040335834026336669921875">
        <ele>1911.5999755859375</ele>
        <time>2026-06-19T09:31:35.000Z</time>
        <extensions>
          <ns3:TrackPointExtension>
            <ns3:atemp>20.0</ns3:atemp>
          </ns3:TrackPointExtension>
        </extensions>
      </trkpt>
      <trkpt lat="42.516019977629184722900390625" lon="20.01047040335834026336669921875">
        <ele>1911.5999755859375</ele>
        <time>2026-06-19T09:31:36.000Z</time>
        <extensions>
          <ns3:TrackPointExtension>
            <ns3:atemp>20.0</ns3:atemp>
          </ns3:TrackPointExtension>
        </extensions>
      </trkpt>
      <trkpt lat="42.516019977629184722900390625" lon="20.01047040335834026336669921875">
        <ele>1911.5999755859375</ele>
        <time>2026-06-19T09:31:37.000Z</time>
        <extensions>
          <ns3:TrackPointExtension>
            <ns3:atemp>20.0</ns3:atemp>
          </ns3:TrackPointExtension>
        </extensions>
      </trkpt>
      <trkpt lat="42.516019977629184722900390625" lon="20.01047040335834026336669921875">
        <ele>1911.5999755859375</ele>
        <time>2026-06-19T09:31:38.000Z</time>
        <extensions>
          <ns3:TrackPointExtension>
            <ns3:atemp>20.0</ns3:atemp>
          </ns3:TrackPointExtension>
        </extensions>
      </trkpt>
      <trkpt lat="42.516019977629184722900390625" lon="20.01047040335834026336669921875">
        <ele>1911.5999755859375</ele>
        <time>2026-06-19T09:31:39.000Z</time>
        <extensions>
          <ns3:TrackPointExtension>
            <ns3:atemp>20.0</ns3:atemp>
          </ns3:TrackPointExtension>
        </extensions>
      </trkpt>
      <trkpt lat="42.516019977629184722900390625" lon="20.01047040335834026336669921875">
        <ele>1911.5999755859375</ele>
        <time>2026-06-19T09:31:40.000Z</time>
        <extensions>
          <ns3:TrackPointExtension>
            <ns3:atemp>20.0</ns3:atemp>
          </ns3:TrackPointExtension>
        </extensions>
      </trkpt>
      <trkpt lat="42.516019977629184722900390625" lon="20.01047040335834026336669921875">
        <ele>1911.5999755859375</ele>
        <time>2026-06-19T09:31:41.000Z</time>
        <extensions>
          <ns3:TrackPointExtension>
            <ns3:atemp>20.0</ns3:atemp>
          </ns3:TrackPointExtension>
        </extensions>
      </trkpt>
      <trkpt lat="42.516019977629184722900390625" lon="20.01047040335834026336669921875">
        <ele>1911.5999755859375</ele>
        <time>2026-06-19T09:31:42.000Z</time>
        <extensions>
          <ns3:TrackPointExtension>
            <ns3:atemp>20.0</ns3:atemp>
          </ns3:TrackPointExtension>
        </extensions>
      </trkpt>
      <trkpt lat="42.516019977629184722900390625" lon="20.01047040335834026336669921875">
        <ele>1911.5999755859375</ele>
        <time>2026-06-19T09:31:43.000Z</time>
        <extensions>
          <ns3:TrackPointExtension>
            <ns3:atemp>20.0</ns3:atemp>
          </ns3:TrackPointExtension>
        </extensions>
      </trkpt>
      <trkpt lat="42.516019977629184722900390625" lon="20.01047040335834026336669921875">
        <ele>1911.5999755859375</ele>
        <time>2026-06-19T09:31:44.000Z</time>
        <extensions>
          <ns3:TrackPointExtension>
            <ns3:atemp>20.0</ns3:atemp>
          </ns3:TrackPointExtension>
        </extensions>
      </trkpt>
      <trkpt lat="42.516019977629184722900390625" lon="20.01047040335834026336669921875">
        <ele>1911.5999755859375</ele>
        <time>2026-06-19T09:31:45.000Z</time>
        <extensions>
          <ns3:TrackPointExtension>
            <ns3:atemp>20.0</ns3:atemp>
          </ns3:TrackPointExtension>
        </extensions>
      </trkpt>
      <trkpt lat="42.516019977629184722900390625" lon="20.01047040335834026336669921875">
        <ele>1911.5999755859375</ele>
        <time>2026-06-19T09:31:46.000Z</time>
        <extensions>
          <ns3:TrackPointExtension>
            <ns3:atemp>20.0</ns3:atemp>
          </ns3:TrackPointExtension>
        </extensions>
      </trkpt>
      <trkpt lat="42.516019977629184722900390625" lon="20.01047040335834026336669921875">
        <ele>1911.5999755859375</ele>
        <time>2026-06-19T09:31:47.000Z</time>
        <extensions>
          <ns3:TrackPointExtension>
            <ns3:atemp>20.0</ns3:atemp>
          </ns3:TrackPointExtension>
        </extensions>
      </trkpt>
      <trkpt lat="42.516019977629184722900390625" lon="20.01047040335834026336669921875">
        <ele>1911.5999755859375</ele>
        <time>2026-06-19T09:31:48.000Z</time>
        <extensions>
          <ns3:TrackPointExtension>
            <ns3:atemp>20.0</ns3:atemp>
          </ns3:TrackPointExtension>
        </extensions>
      </trkpt>
      <trkpt lat="42.516019977629184722900390625" lon="20.01047040335834026336669921875">
        <ele>1911.5999755859375</ele>
        <time>2026-06-19T09:31:49.000Z</time>
        <extensions>
          <ns3:TrackPointExtension>
            <ns3:atemp>20.0</ns3:atemp>
          </ns3:TrackPointExtension>
        </extensions>
      </trkpt>
      <trkpt lat="42.516019977629184722900390625" lon="20.01047040335834026336669921875">
        <ele>1911.5999755859375</ele>
        <time>2026-06-19T09:31:50.000Z</time>
        <extensions>
          <ns3:TrackPointExtension>
            <ns3:atemp>20.0</ns3:atemp>
          </ns3:TrackPointExtension>
        </extensions>
      </trkpt>
      <trkpt lat="42.516019977629184722900390625" lon="20.01047040335834026336669921875">
        <ele>1911.5999755859375</ele>
        <time>2026-06-19T09:31:51.000Z</time>
        <extensions>
          <ns3:TrackPointExtension>
            <ns3:atemp>20.0</ns3:atemp>
          </ns3:TrackPointExtension>
        </extensions>
      </trkpt>
      <trkpt lat="42.516019977629184722900390625" lon="20.01047040335834026336669921875">
        <ele>1911.5999755859375</ele>
        <time>2026-06-19T09:31:52.000Z</time>
        <extensions>
          <ns3:TrackPointExtension>
            <ns3:atemp>20.0</ns3:atemp>
          </ns3:TrackPointExtension>
        </extensions>
      </trkpt>
      <trkpt lat="42.516019977629184722900390625" lon="20.01047040335834026336669921875">
        <ele>1911.5999755859375</ele>
        <time>2026-06-19T09:31:53.000Z</time>
        <extensions>
          <ns3:TrackPointExtension>
            <ns3:atemp>20.0</ns3:atemp>
          </ns3:TrackPointExtension>
        </extensions>
      </trkpt>
      <trkpt lat="42.516019977629184722900390625" lon="20.01047040335834026336669921875">
        <ele>1911.5999755859375</ele>
        <time>2026-06-19T09:31:54.000Z</time>
        <extensions>
          <ns3:TrackPointExtension>
            <ns3:atemp>20.0</ns3:atemp>
          </ns3:TrackPointExtension>
        </extensions>
      </trkpt>
      <trkpt lat="42.516019977629184722900390625" lon="20.01047040335834026336669921875">
        <ele>1911.5999755859375</ele>
        <time>2026-06-19T09:31:55.000Z</time>
        <extensions>
          <ns3:TrackPointExtension>
            <ns3:atemp>20.0</ns3:atemp>
          </ns3:TrackPointExtension>
        </extensions>
      </trkpt>
      <trkpt lat="42.516019977629184722900390625" lon="20.01047040335834026336669921875">
        <ele>1911.5999755859375</ele>
        <time>2026-06-19T09:31:56.000Z</time>
        <extensions>
          <ns3:TrackPointExtension>
            <ns3:atemp>20.0</ns3:atemp>
          </ns3:TrackPointExtension>
        </extensions>
      </trkpt>
      <trkpt lat="42.516019977629184722900390625" lon="20.01047040335834026336669921875">
        <ele>1911.5999755859375</ele>
        <time>2026-06-19T09:31:57.000Z</time>
        <extensions>
          <ns3:TrackPointExtension>
            <ns3:atemp>20.0</ns3:atemp>
          </ns3:TrackPointExtension>
        </extensions>
      </trkpt>
      <trkpt lat="42.516019977629184722900390625" lon="20.01047040335834026336669921875">
        <ele>1911.5999755859375</ele>
        <time>2026-06-19T09:31:58.000Z</time>
        <extensions>
          <ns3:TrackPointExtension>
            <ns3:atemp>20.0</ns3:atemp>
          </ns3:TrackPointExtension>
        </extensions>
      </trkpt>
      <trkpt lat="42.516019977629184722900390625" lon="20.01047040335834026336669921875">
        <ele>1911.5999755859375</ele>
        <time>2026-06-19T09:31:59.000Z</time>
        <extensions>
          <ns3:TrackPointExtension>
            <ns3:atemp>20.0</ns3:atemp>
          </ns3:TrackPointExtension>
        </extensions>
      </trkpt>
      <trkpt lat="42.516019977629184722900390625" lon="20.01047040335834026336669921875">
        <ele>1911.5999755859375</ele>
        <time>2026-06-19T09:32:00.000Z</time>
        <extensions>
          <ns3:TrackPointExtension>
            <ns3:atemp>20.0</ns3:atemp>
          </ns3:TrackPointExtension>
        </extensions>
      </trkpt>
      <trkpt lat="42.516019977629184722900390625" lon="20.01047040335834026336669921875">
        <ele>1911.5999755859375</ele>
        <time>2026-06-19T09:32:01.000Z</time>
        <extensions>
          <ns3:TrackPointExtension>
            <ns3:atemp>20.0</ns3:atemp>
          </ns3:TrackPointExtension>
        </extensions>
      </trkpt>
      <trkpt lat="42.516019977629184722900390625" lon="20.01047040335834026336669921875">
        <ele>1911.5999755859375</ele>
        <time>2026-06-19T09:32:02.000Z</time>
        <extensions>
          <ns3:TrackPointExtension>
            <ns3:atemp>20.0</ns3:atemp>
          </ns3:TrackPointExtension>
        </extensions>
      </trkpt>
      <trkpt lat="42.516019977629184722900390625" lon="20.01047040335834026336669921875">
        <ele>1911.5999755859375</ele>
        <time>2026-06-19T09:32:03.000Z</time>
        <extensions>
          <ns3:TrackPointExtension>
            <ns3:atemp>20.0</ns3:atemp>
          </ns3:TrackPointExtension>
        </extensions>
      </trkpt>
      <trkpt lat="42.516019977629184722900390625" lon="20.01047040335834026336669921875">
        <ele>1911.5999755859375</ele>
        <time>2026-06-19T09:32:04.000Z</time>
        <extensions>
          <ns3:TrackPointExtension>
            <ns3:atemp>20.0</ns3:atemp>
          </ns3:TrackPointExtension>
        </extensions>
      </trkpt>
      <trkpt lat="42.516019977629184722900390625" lon="20.01047040335834026336669921875">
        <ele>1911.5999755859375</ele>
        <time>2026-06-19T09:32:05.000Z</time>
        <extensions>
          <ns3:TrackPointExtension>
            <ns3:atemp>20.0</ns3:atemp>
          </ns3:TrackPointExtension>
        </extensions>
      </trkpt>
      <trkpt lat="42.516019977629184722900390625" lon="20.01047040335834026336669921875">
        <ele>1911.5999755859375</ele>
        <time>2026-06-19T09:32:06.000Z</time>
        <extensions>
          <ns3:TrackPointExtension>
            <ns3:atemp>20.0</ns3:atemp>
          </ns3:TrackPointExtension>
        </extensions>
      </trkpt>
      <trkpt lat="42.516019977629184722900390625" lon="20.01047040335834026336669921875">
        <ele>1911.5999755859375</ele>
        <time>2026-06-19T09:32:07.000Z</time>
        <extensions>
          <ns3:TrackPointExtension>
            <ns3:atemp>20.0</ns3:atemp>
          </ns3:TrackPointExtension>
        </extensions>
      </trkpt>
      <trkpt lat="42.516019977629184722900390625" lon="20.01047040335834026336669921875">
        <ele>1911.5999755859375</ele>
        <time>2026-06-19T09:32:08.000Z</time>
        <extensions>
          <ns3:TrackPointExtension>
            <ns3:atemp>20.0</ns3:atemp>
          </ns3:TrackPointExtension>
        </extensions>
      </trkpt>
      <trkpt lat="42.516019977629184722900390625" lon="20.01047040335834026336669921875">
        <ele>1911.5999755859375</ele>
        <time>2026-06-19T09:32:09.000Z</time>
        <extensions>
          <ns3:TrackPointExtension>
            <ns3:atemp>20.0</ns3:atemp>
          </ns3:TrackPointExtension>
        </extensions>
      </trkpt>
      <trkpt lat="42.516019977629184722900390625" lon="20.01047040335834026336669921875">
        <ele>1911.5999755859375</ele>
        <time>2026-06-19T09:32:10.000Z</time>
        <extensions>
          <ns3:TrackPointExtension>
            <ns3:atemp>20.0</ns3:atemp>
          </ns3:TrackPointExtension>
        </extensions>
      </trkpt>
      <trkpt lat="42.516019977629184722900390625" lon="20.01047040335834026336669921875">
        <ele>1911.5999755859375</ele>
        <time>2026-06-19T09:32:11.000Z</time>
        <extensions>
          <ns3:TrackPointExtension>
            <ns3:atemp>20.0</ns3:atemp>
          </ns3:TrackPointExtension>
        </extensions>
      </trkpt>
      <trkpt lat="42.516019977629184722900390625" lon="20.01047040335834026336669921875">
        <ele>1911.5999755859375</ele>
        <time>2026-06-19T09:32:12.000Z</time>
        <extensions>
          <ns3:TrackPointExtension>
            <ns3:atemp>20.0</ns3:atemp>
          </ns3:TrackPointExtension>
        </extensions>
      </trkpt>
      <trkpt lat="42.516019977629184722900390625" lon="20.01047040335834026336669921875">
        <ele>1911.5999755859375</ele>
        <time>2026-06-19T09:32:13.000Z</time>
        <extensions>
          <ns3:TrackPointExtension>
            <ns3:atemp>20.0</ns3:atemp>
          </ns3:TrackPointExtension>
        </extensions>
      </trkpt>
      <trkpt lat="42.516019977629184722900390625" lon="20.01047040335834026336669921875">
        <ele>1911.5999755859375</ele>
        <time>2026-06-19T09:32:14.000Z</time>
        <extensions>
          <ns3:TrackPointExtension>
            <ns3:atemp>20.0</ns3:atemp>
          </ns3:TrackPointExtension>
        </extensions>
      </trkpt>
      <trkpt lat="42.516019977629184722900390625" lon="20.01047040335834026336669921875">
        <ele>1911.5999755859375</ele>
        <time>2026-06-19T09:32:15.000Z</time>
        <extensions>
          <ns3:TrackPointExtension>
            <ns3:atemp>20.0</ns3:atemp>
          </ns3:TrackPointExtension>
        </extensions>
      </trkpt>
      <trkpt lat="42.516019977629184722900390625" lon="20.01047040335834026336669921875">
        <ele>1911.5999755859375</ele>
        <time>2026-06-19T09:32:16.000Z</time>
        <extensions>
          <ns3:TrackPointExtension>
            <ns3:atemp>20.0</ns3:atemp>
          </ns3:TrackPointExtension>
        </extensions>
      </trkpt>
      <trkpt lat="42.516019977629184722900390625" lon="20.01047040335834026336669921875">
        <ele>1911.5999755859375</ele>
        <time>2026-06-19T09:32:17.000Z</time>
        <extensions>
          <ns3:TrackPointExtension>
            <ns3:atemp>20.0</ns3:atemp>
          </ns3:TrackPointExtension>
        </extensions>
      </trkpt>
      <trkpt lat="42.516019977629184722900390625" lon="20.01047040335834026336669921875">
        <ele>1911.5999755859375</ele>
        <time>2026-06-19T09:32:18.000Z</time>
        <extensions>
          <ns3:TrackPointExtension>
            <ns3:atemp>20.0</ns3:atemp>
          </ns3:TrackPointExtension>
        </extensions>
      </trkpt>
      <trkpt lat="42.516019977629184722900390625" lon="20.01047040335834026336669921875">
        <ele>1911.5999755859375</ele>
        <time>2026-06-19T09:32:19.000Z</time>
        <extensions>
          <ns3:TrackPointExtension>
            <ns3:atemp>20.0</ns3:atemp>
          </ns3:TrackPointExtension>
        </extensions>
      </trkpt>
      <trkpt lat="42.516019977629184722900390625" lon="20.01047040335834026336669921875">
        <ele>1911.5999755859375</ele>
        <time>2026-06-19T09:32:20.000Z</time>
        <extensions>
          <ns3:TrackPointExtension>
            <ns3:atemp>20.0</ns3:atemp>
          </ns3:TrackPointExtension>
        </extensions>
      </trkpt>
      <trkpt lat="42.516019977629184722900390625" lon="20.01047040335834026336669921875">
        <ele>1911.5999755859375</ele>
        <time>2026-06-19T09:32:21.000Z</time>
        <extensions>
          <ns3:TrackPointExtension>
            <ns3:atemp>20.0</ns3:atemp>
          </ns3:TrackPointExtension>
        </extensions>
      </trkpt>
      <trkpt lat="42.516019977629184722900390625" lon="20.01047040335834026336669921875">
        <ele>1911.5999755859375</ele>
        <time>2026-06-19T09:32:22.000Z</time>
        <extensions>
          <ns3:TrackPointExtension>
            <ns3:atemp>20.0</ns3:atemp>
          </ns3:TrackPointExtension>
        </extensions>
      </trkpt>
      <trkpt lat="42.516019977629184722900390625" lon="20.01047040335834026336669921875">
        <ele>1911.5999755859375</ele>
        <time>2026-06-19T09:32:23.000Z</time>
        <extensions>
          <ns3:TrackPointExtension>
            <ns3:atemp>20.0</ns3:atemp>
          </ns3:TrackPointExtension>
        </extensions>
      </trkpt>
      <trkpt lat="42.516019977629184722900390625" lon="20.01047040335834026336669921875">
        <ele>1911.5999755859375</ele>
        <time>2026-06-19T09:32:24.000Z</time>
        <extensions>
          <ns3:TrackPointExtension>
            <ns3:atemp>20.0</ns3:atemp>
          </ns3:TrackPointExtension>
        </extensions>
      </trkpt>
      <trkpt lat="42.516019977629184722900390625" lon="20.01047040335834026336669921875">
        <ele>1911.5999755859375</ele>
        <time>2026-06-19T09:32:25.000Z</time>
        <extensions>
          <ns3:TrackPointExtension>
            <ns3:atemp>20.0</ns3:atemp>
          </ns3:TrackPointExtension>
        </extensions>
      </trkpt>
      <trkpt lat="42.516019977629184722900390625" lon="20.01047040335834026336669921875">
        <ele>1911.5999755859375</ele>
        <time>2026-06-19T09:32:26.000Z</time>
        <extensions>
          <ns3:TrackPointExtension>
            <ns3:atemp>20.0</ns3:atemp>
          </ns3:TrackPointExtension>
        </extensions>
      </trkpt>
      <trkpt lat="42.516019977629184722900390625" lon="20.01047040335834026336669921875">
        <ele>1911.5999755859375</ele>
        <time>2026-06-19T09:32:27.000Z</time>
        <extensions>
          <ns3:TrackPointExtension>
            <ns3:atemp>20.0</ns3:atemp>
          </ns3:TrackPointExtension>
        </extensions>
      </trkpt>
      <trkpt lat="42.516019977629184722900390625" lon="20.01047040335834026336669921875">
        <ele>1911.5999755859375</ele>
        <time>2026-06-19T09:32:28.000Z</time>
        <extensions>
          <ns3:TrackPointExtension>
            <ns3:atemp>20.0</ns3:atemp>
          </ns3:TrackPointExtension>
        </extensions>
      </trkpt>
      <trkpt lat="42.516019977629184722900390625" lon="20.01047040335834026336669921875">
        <ele>1911.5999755859375</ele>
        <time>2026-06-19T09:32:29.000Z</time>
        <extensions>
          <ns3:TrackPointExtension>
            <ns3:atemp>20.0</ns3:atemp>
          </ns3:TrackPointExtension>
        </extensions>
      </trkpt>
      <trkpt lat="42.516019977629184722900390625" lon="20.01047040335834026336669921875">
        <ele>1911.5999755859375</ele>
        <time>2026-06-19T09:32:30.000Z</time>
        <extensions>
          <ns3:TrackPointExtension>
            <ns3:atemp>20.0</ns3:atemp>
          </ns3:TrackPointExtension>
        </extensions>
      </trkpt>
      <trkpt lat="42.516019977629184722900390625" lon="20.01047040335834026336669921875">
        <ele>1911.5999755859375</ele>
        <time>2026-06-19T09:32:31.000Z</time>
        <extensions>
          <ns3:TrackPointExtension>
            <ns3:atemp>20.0</ns3:atemp>
          </ns3:TrackPointExtension>
        </extensions>
      </trkpt>
      <trkpt lat="42.516019977629184722900390625" lon="20.01047040335834026336669921875">
        <ele>1911.5999755859375</ele>
        <time>2026-06-19T09:32:32.000Z</time>
        <extensions>
          <ns3:TrackPointExtension>
            <ns3:atemp>20.0</ns3:atemp>
          </ns3:TrackPointExtension>
        </extensions>
      </trkpt>
      <trkpt lat="42.516019977629184722900390625" lon="20.01047040335834026336669921875">
        <ele>1911.5999755859375</ele>
        <time>2026-06-19T09:32:33.000Z</time>
        <extensions>
          <ns3:TrackPointExtension>
            <ns3:atemp>20.0</ns3:atemp>
          </ns3:TrackPointExtension>
        </extensions>
      </trkpt>
      <trkpt lat="42.516019977629184722900390625" lon="20.01047040335834026336669921875">
        <ele>1911.5999755859375</ele>
        <time>2026-06-19T09:32:34.000Z</time>
        <extensions>
          <ns3:TrackPointExtension>
            <ns3:atemp>20.0</ns3:atemp>
          </ns3:TrackPointExtension>
        </extensions>
      </trkpt>
      <trkpt lat="42.516019977629184722900390625" lon="20.01047040335834026336669921875">
        <ele>1911.5999755859375</ele>
        <time>2026-06-19T09:32:35.000Z</time>
        <extensions>
          <ns3:TrackPointExtension>
            <ns3:atemp>20.0</ns3:atemp>
          </ns3:TrackPointExtension>
        </extensions>
      </trkpt>
      <trkpt lat="42.516019977629184722900390625" lon="20.01047040335834026336669921875">
        <ele>1911.5999755859375</ele>
        <time>2026-06-19T09:32:36.000Z</time>
        <extensions>
          <ns3:TrackPointExtension>
            <ns3:atemp>20.0</ns3:atemp>
          </ns3:TrackPointExtension>
        </extensions>
      </trkpt>
      <trkpt lat="42.516019977629184722900390625" lon="20.01047040335834026336669921875">
        <ele>1911.5999755859375</ele>
        <time>2026-06-19T09:32:37.000Z</time>
        <extensions>
          <ns3:TrackPointExtension>
            <ns3:atemp>20.0</ns3:atemp>
          </ns3:TrackPointExtension>
        </extensions>
      </trkpt>
      <trkpt lat="42.516019977629184722900390625" lon="20.01047040335834026336669921875">
        <ele>1911.5999755859375</ele>
        <time>2026-06-19T09:32:38.000Z</time>
        <extensions>
          <ns3:TrackPointExtension>
            <ns3:atemp>20.0</ns3:atemp>
          </ns3:TrackPointExtension>
        </extensions>
      </trkpt>
      <trkpt lat="42.516019977629184722900390625" lon="20.01047040335834026336669921875">
        <ele>1911.5999755859375</ele>
        <time>2026-06-19T09:32:39.000Z</time>
        <extensions>
          <ns3:TrackPointExtension>
            <ns3:atemp>20.0</ns3:atemp>
          </ns3:TrackPointExtension>
        </extensions>
      </trkpt>
      <trkpt lat="42.516019977629184722900390625" lon="20.01047040335834026336669921875">
        <ele>1911.5999755859375</ele>
        <time>2026-06-19T09:32:40.000Z</time>
        <extensions>
          <ns3:TrackPointExtension>
            <ns3:atemp>20.0</ns3:atemp>
          </ns3:TrackPointExtension>
        </extensions>
      </trkpt>
      <trkpt lat="42.516019977629184722900390625" lon="20.01047040335834026336669921875">
        <ele>1911.5999755859375</ele>
        <time>2026-06-19T09:32:41.000Z</time>
        <extensions>
          <ns3:TrackPointExtension>
            <ns3:atemp>20.0</ns3:atemp>
          </ns3:TrackPointExtension>
        </extensions>
      </trkpt>
      <trkpt lat="42.516019977629184722900390625" lon="20.01047040335834026336669921875">
        <ele>1911.5999755859375</ele>
        <time>2026-06-19T09:32:42.000Z</time>
        <extensions>
          <ns3:TrackPointExtension>
            <ns3:atemp>20.0</ns3:atemp>
          </ns3:TrackPointExtension>
        </extensions>
      </trkpt>
      <trkpt lat="42.516019977629184722900390625" lon="20.01047040335834026336669921875">
        <ele>1911.5999755859375</ele>
        <time>2026-06-19T09:32:43.000Z</time>
        <extensions>
          <ns3:TrackPointExtension>
            <ns3:atemp>20.0</ns3:atemp>
          </ns3:TrackPointExtension>
        </extensions>
      </trkpt>
      <trkpt lat="42.516019977629184722900390625" lon="20.01047040335834026336669921875">
        <ele>1911.5999755859375</ele>
        <time>2026-06-19T09:32:44.000Z</time>
        <extensions>
          <ns3:TrackPointExtension>
            <ns3:atemp>20.0</ns3:atemp>
          </ns3:TrackPointExtension>
        </extensions>
      </trkpt>
      <trkpt lat="42.516019977629184722900390625" lon="20.01047040335834026336669921875">
        <ele>1911.5999755859375</ele>
        <time>2026-06-19T09:32:45.000Z</time>
        <extensions>
          <ns3:TrackPointExtension>
            <ns3:atemp>20.0</ns3:atemp>
          </ns3:TrackPointExtension>
        </extensions>
      </trkpt>
      <trkpt lat="42.516019977629184722900390625" lon="20.01047040335834026336669921875">
        <ele>1911.5999755859375</ele>
        <time>2026-06-19T09:32:46.000Z</time>
        <extensions>
          <ns3:TrackPointExtension>
            <ns3:atemp>20.0</ns3:atemp>
          </ns3:TrackPointExtension>
        </extensions>
      </trkpt>
      <trkpt lat="42.516019977629184722900390625" lon="20.01047040335834026336669921875">
        <ele>1911.5999755859375</ele>
        <time>2026-06-19T09:32:47.000Z</time>
        <extensions>
          <ns3:TrackPointExtension>
            <ns3:atemp>20.0</ns3:atemp>
          </ns3:TrackPointExtension>
        </extensions>
      </trkpt>
      <trkpt lat="42.516019977629184722900390625" lon="20.01047040335834026336669921875">
        <ele>1911.5999755859375</ele>
        <time>2026-06-19T09:32:48.000Z</time>
        <extensions>
          <ns3:TrackPointExtension>
            <ns3:atemp>20.0</ns3:atemp>
          </ns3:TrackPointExtension>
        </extensions>
      </trkpt>
      <trkpt lat="42.516019977629184722900390625" lon="20.01047040335834026336669921875">
        <ele>1911.5999755859375</ele>
        <time>2026-06-19T09:32:49.000Z</time>
        <extensions>
          <ns3:TrackPointExtension>
            <ns3:atemp>20.0</ns3:atemp>
          </ns3:TrackPointExtension>
        </extensions>
      </trkpt>
      <trkpt lat="42.516019977629184722900390625" lon="20.01047040335834026336669921875">
        <ele>1911.5999755859375</ele>
        <time>2026-06-19T09:32:50.000Z</time>
        <extensions>
          <ns3:TrackPointExtension>
            <ns3:atemp>20.0</ns3:atemp>
          </ns3:TrackPointExtension>
        </extensions>
      </trkpt>
      <trkpt lat="42.516019977629184722900390625" lon="20.01047040335834026336669921875">
        <ele>1911.5999755859375</ele>
        <time>2026-06-19T09:32:51.000Z</time>
        <extensions>
          <ns3:TrackPointExtension>
            <ns3:atemp>20.0</ns3:atemp>
          </ns3:TrackPointExtension>
        </extensions>
      </trkpt>
      <trkpt lat="42.516019977629184722900390625" lon="20.01047040335834026336669921875">
        <ele>1911.5999755859375</ele>
        <time>2026-06-19T09:32:52.000Z</time>
        <extensions>
          <ns3:TrackPointExtension>
            <ns3:atemp>20.0</ns3:atemp>
          </ns3:TrackPointExtension>
        </extensions>
      </trkpt>
      <trkpt lat="42.516019977629184722900390625" lon="20.01047040335834026336669921875">
        <ele>1911.5999755859375</ele>
        <time>2026-06-19T09:32:53.000Z</time>
        <extensions>
          <ns3:TrackPointExtension>
            <ns3:atemp>20.0</ns3:atemp>
          </ns3:TrackPointExtension>
        </extensions>
      </trkpt>
      <trkpt lat="42.516019977629184722900390625" lon="20.01047040335834026336669921875">
        <ele>1911.5999755859375</ele>
        <time>2026-06-19T09:32:54.000Z</time>
        <extensions>
          <ns3:TrackPointExtension>
            <ns3:atemp>20.0</ns3:atemp>
          </ns3:TrackPointExtension>
        </extensions>
      </trkpt>
      <trkpt lat="42.516019977629184722900390625" lon="20.01047040335834026336669921875">
        <ele>1911.5999755859375</ele>
        <time>2026-06-19T09:32:55.000Z</time>
        <extensions>
          <ns3:TrackPointExtension>
            <ns3:atemp>20.0</ns3:atemp>
          </ns3:TrackPointExtension>
        </extensions>
      </trkpt>
      <trkpt lat="42.516019977629184722900390625" lon="20.01047040335834026336669921875">
        <ele>1911.5999755859375</ele>
        <time>2026-06-19T09:32:56.000Z</time>
        <extensions>
          <ns3:TrackPointExtension>
            <ns3:atemp>20.0</ns3:atemp>
          </ns3:TrackPointExtension>
        </extensions>
      </trkpt>
      <trkpt lat="42.516019977629184722900390625" lon="20.01047040335834026336669921875">
        <ele>1911.5999755859375</ele>
        <time>2026-06-19T09:32:57.000Z</time>
        <extensions>
          <ns3:TrackPointExtension>
            <ns3:atemp>20.0</ns3:atemp>
          </ns3:TrackPointExtension>
        </extensions>
      </trkpt>
      <trkpt lat="42.516019977629184722900390625" lon="20.01047040335834026336669921875">
        <ele>1911.5999755859375</ele>
        <time>2026-06-19T09:32:58.000Z</time>
        <extensions>
          <ns3:TrackPointExtension>
            <ns3:atemp>20.0</ns3:atemp>
          </ns3:TrackPointExtension>
        </extensions>
      </trkpt>
      <trkpt lat="42.516019977629184722900390625" lon="20.01047040335834026336669921875">
        <ele>1911.5999755859375</ele>
        <time>2026-06-19T09:32:59.000Z</time>
        <extensions>
          <ns3:TrackPointExtension>
            <ns3:atemp>20.0</ns3:atemp>
          </ns3:TrackPointExtension>
        </extensions>
      </trkpt>
      <trkpt lat="42.516019977629184722900390625" lon="20.01047040335834026336669921875">
        <ele>1911.5999755859375</ele>
        <time>2026-06-19T09:33:00.000Z</time>
        <extensions>
          <ns3:TrackPointExtension>
            <ns3:atemp>20.0</ns3:atemp>
          </ns3:TrackPointExtension>
        </extensions>
      </trkpt>
      <trkpt lat="42.516019977629184722900390625" lon="20.01047040335834026336669921875">
        <ele>1911.5999755859375</ele>
        <time>2026-06-19T09:33:01.000Z</time>
        <extensions>
          <ns3:TrackPointExtension>
            <ns3:atemp>20.0</ns3:atemp>
          </ns3:TrackPointExtension>
        </extensions>
      </trkpt>
      <trkpt lat="42.516019977629184722900390625" lon="20.01047040335834026336669921875">
        <ele>1911.5999755859375</ele>
        <time>2026-06-19T09:33:02.000Z</time>
        <extensions>
          <ns3:TrackPointExtension>
            <ns3:atemp>20.0</ns3:atemp>
          </ns3:TrackPointExtension>
        </extensions>
      </trkpt>
      <trkpt lat="42.516019977629184722900390625" lon="20.01047040335834026336669921875">
        <ele>1911.5999755859375</ele>
        <time>2026-06-19T09:33:03.000Z</time>
        <extensions>
          <ns3:TrackPointExtension>
            <ns3:atemp>20.0</ns3:atemp>
          </ns3:TrackPointExtension>
        </extensions>
      </trkpt>
      <trkpt lat="42.516019977629184722900390625" lon="20.01047040335834026336669921875">
        <ele>1911.5999755859375</ele>
        <time>2026-06-19T09:33:04.000Z</time>
        <extensions>
          <ns3:TrackPointExtension>
            <ns3:atemp>20.0</ns3:atemp>
          </ns3:TrackPointExtension>
        </extensions>
      </trkpt>
      <trkpt lat="42.516019977629184722900390625" lon="20.01047040335834026336669921875">
        <ele>1911.5999755859375</ele>
        <time>2026-06-19T09:33:05.000Z</time>
        <extensions>
          <ns3:TrackPointExtension>
            <ns3:atemp>20.0</ns3:atemp>
          </ns3:TrackPointExtension>
        </extensions>
      </trkpt>
      <trkpt lat="42.516019977629184722900390625" lon="20.01047040335834026336669921875">
        <ele>1911.5999755859375</ele>
        <time>2026-06-19T09:33:06.000Z</time>
        <extensions>
          <ns3:TrackPointExtension>
            <ns3:atemp>20.0</ns3:atemp>
          </ns3:TrackPointExtension>
        </extensions>
      </trkpt>
      <trkpt lat="42.516019977629184722900390625" lon="20.01047040335834026336669921875">
        <ele>1911.5999755859375</ele>
        <time>2026-06-19T09:33:07.000Z</time>
        <extensions>
          <ns3:TrackPointExtension>
            <ns3:atemp>20.0</ns3:atemp>
          </ns3:TrackPointExtension>
        </extensions>
      </trkpt>
      <trkpt lat="42.516019977629184722900390625" lon="20.01047040335834026336669921875">
        <ele>1911.5999755859375</ele>
        <time>2026-06-19T09:33:08.000Z</time>
        <extensions>
          <ns3:TrackPointExtension>
            <ns3:atemp>20.0</ns3:atemp>
          </ns3:TrackPointExtension>
        </extensions>
      </trkpt>
      <trkpt lat="42.516019977629184722900390625" lon="20.01047040335834026336669921875">
        <ele>1911.5999755859375</ele>
        <time>2026-06-19T09:33:09.000Z</time>
        <extensions>
          <ns3:TrackPointExtension>
            <ns3:atemp>20.0</ns3:atemp>
          </ns3:TrackPointExtension>
        </extensions>
      </trkpt>
      <trkpt lat="42.516019977629184722900390625" lon="20.01047040335834026336669921875">
        <ele>1911.5999755859375</ele>
        <time>2026-06-19T09:33:10.000Z</time>
        <extensions>
          <ns3:TrackPointExtension>
            <ns3:atemp>20.0</ns3:atemp>
          </ns3:TrackPointExtension>
        </extensions>
      </trkpt>
      <trkpt lat="42.516019977629184722900390625" lon="20.01047040335834026336669921875">
        <ele>1911.5999755859375</ele>
        <time>2026-06-19T09:33:11.000Z</time>
        <extensions>
          <ns3:TrackPointExtension>
            <ns3:atemp>20.0</ns3:atemp>
          </ns3:TrackPointExtension>
        </extensions>
      </trkpt>
      <trkpt lat="42.516019977629184722900390625" lon="20.01047040335834026336669921875">
        <ele>1911.5999755859375</ele>
        <time>2026-06-19T09:33:12.000Z</time>
        <extensions>
          <ns3:TrackPointExtension>
            <ns3:atemp>20.0</ns3:atemp>
          </ns3:TrackPointExtension>
        </extensions>
      </trkpt>
      <trkpt lat="42.516019977629184722900390625" lon="20.01047040335834026336669921875">
        <ele>1911.5999755859375</ele>
        <time>2026-06-19T09:33:13.000Z</time>
        <extensions>
          <ns3:TrackPointExtension>
            <ns3:atemp>20.0</ns3:atemp>
          </ns3:TrackPointExtension>
        </extensions>
      </trkpt>
      <trkpt lat="42.516019977629184722900390625" lon="20.01047040335834026336669921875">
        <ele>1911.5999755859375</ele>
        <time>2026-06-19T09:33:14.000Z</time>
        <extensions>
          <ns3:TrackPointExtension>
            <ns3:atemp>20.0</ns3:atemp>
          </ns3:TrackPointExtension>
        </extensions>
      </trkpt>
      <trkpt lat="42.516019977629184722900390625" lon="20.01047040335834026336669921875">
        <ele>1911.5999755859375</ele>
        <time>2026-06-19T09:33:15.000Z</time>
        <extensions>
          <ns3:TrackPointExtension>
            <ns3:atemp>20.0</ns3:atemp>
          </ns3:TrackPointExtension>
        </extensions>
      </trkpt>
      <trkpt lat="42.516019977629184722900390625" lon="20.01047040335834026336669921875">
        <ele>1911.5999755859375</ele>
        <time>2026-06-19T09:33:16.000Z</time>
        <extensions>
          <ns3:TrackPointExtension>
            <ns3:atemp>20.0</ns3:atemp>
          </ns3:TrackPointExtension>
        </extensions>
      </trkpt>
      <trkpt lat="42.516019977629184722900390625" lon="20.01047040335834026336669921875">
        <ele>1911.5999755859375</ele>
        <time>2026-06-19T09:33:17.000Z</time>
        <extensions>
          <ns3:TrackPointExtension>
            <ns3:atemp>20.0</ns3:atemp>
          </ns3:TrackPointExtension>
        </extensions>
      </trkpt>
      <trkpt lat="42.516019977629184722900390625" lon="20.01047040335834026336669921875">
        <ele>1911.5999755859375</ele>
        <time>2026-06-19T09:33:18.000Z</time>
        <extensions>
          <ns3:TrackPointExtension>
            <ns3:atemp>20.0</ns3:atemp>
          </ns3:TrackPointExtension>
        </extensions>
      </trkpt>
      <trkpt lat="42.516019977629184722900390625" lon="20.01047040335834026336669921875">
        <ele>1911.5999755859375</ele>
        <time>2026-06-19T09:33:19.000Z</time>
        <extensions>
          <ns3:TrackPointExtension>
            <ns3:atemp>20.0</ns3:atemp>
          </ns3:TrackPointExtension>
        </extensions>
      </trkpt>
      <trkpt lat="42.516019977629184722900390625" lon="20.01047040335834026336669921875">
        <ele>1911.5999755859375</ele>
        <time>2026-06-19T09:33:20.000Z</time>
        <extensions>
          <ns3:TrackPointExtension>
            <ns3:atemp>20.0</ns3:atemp>
          </ns3:TrackPointExtension>
        </extensions>
      </trkpt>
      <trkpt lat="42.516019977629184722900390625" lon="20.01047040335834026336669921875">
        <ele>1911.5999755859375</ele>
        <time>2026-06-19T09:33:21.000Z</time>
        <extensions>
          <ns3:TrackPointExtension>
            <ns3:atemp>20.0</ns3:atemp>
          </ns3:TrackPointExtension>
        </extensions>
      </trkpt>
      <trkpt lat="42.516019977629184722900390625" lon="20.01047040335834026336669921875">
        <ele>1911.5999755859375</ele>
        <time>2026-06-19T09:33:22.000Z</time>
        <extensions>
          <ns3:TrackPointExtension>
            <ns3:atemp>20.0</ns3:atemp>
          </ns3:TrackPointExtension>
        </extensions>
      </trkpt>
      <trkpt lat="42.516019977629184722900390625" lon="20.01047040335834026336669921875">
        <ele>1911.5999755859375</ele>
        <time>2026-06-19T09:33:23.000Z</time>
        <extensions>
          <ns3:TrackPointExtension>
            <ns3:atemp>20.0</ns3:atemp>
          </ns3:TrackPointExtension>
        </extensions>
      </trkpt>
      <trkpt lat="42.516019977629184722900390625" lon="20.01047040335834026336669921875">
        <ele>1911.5999755859375</ele>
        <time>2026-06-19T09:33:24.000Z</time>
        <extensions>
          <ns3:TrackPointExtension>
            <ns3:atemp>20.0</ns3:atemp>
          </ns3:TrackPointExtension>
        </extensions>
      </trkpt>
      <trkpt lat="42.516019977629184722900390625" lon="20.01047040335834026336669921875">
        <ele>1911.5999755859375</ele>
        <time>2026-06-19T09:33:25.000Z</time>
        <extensions>
          <ns3:TrackPointExtension>
            <ns3:atemp>20.0</ns3:atemp>
          </ns3:TrackPointExtension>
        </extensions>
      </trkpt>
      <trkpt lat="42.516019977629184722900390625" lon="20.01047040335834026336669921875">
        <ele>1911.5999755859375</ele>
        <time>2026-06-19T09:33:26.000Z</time>
        <extensions>
          <ns3:TrackPointExtension>
            <ns3:atemp>20.0</ns3:atemp>
          </ns3:TrackPointExtension>
        </extensions>
      </trkpt>
      <trkpt lat="42.516019977629184722900390625" lon="20.01047040335834026336669921875">
        <ele>1911.5999755859375</ele>
        <time>2026-06-19T09:33:27.000Z</time>
        <extensions>
          <ns3:TrackPointExtension>
            <ns3:atemp>20.0</ns3:atemp>
          </ns3:TrackPointExtension>
        </extensions>
      </trkpt>
      <trkpt lat="42.516019977629184722900390625" lon="20.01047040335834026336669921875">
        <ele>1911.5999755859375</ele>
        <time>2026-06-19T09:33:28.000Z</time>
        <extensions>
          <ns3:TrackPointExtension>
            <ns3:atemp>20.0</ns3:atemp>
          </ns3:TrackPointExtension>
        </extensions>
      </trkpt>
      <trkpt lat="42.516019977629184722900390625" lon="20.01047040335834026336669921875">
        <ele>1911.5999755859375</ele>
        <time>2026-06-19T09:33:29.000Z</time>
        <extensions>
          <ns3:TrackPointExtension>
            <ns3:atemp>20.0</ns3:atemp>
          </ns3:TrackPointExtension>
        </extensions>
      </trkpt>
      <trkpt lat="42.516019977629184722900390625" lon="20.01047040335834026336669921875">
        <ele>1911.5999755859375</ele>
        <time>2026-06-19T09:33:30.000Z</time>
        <extensions>
          <ns3:TrackPointExtension>
            <ns3:atemp>20.0</ns3:atemp>
          </ns3:TrackPointExtension>
        </extensions>
      </trkpt>
      <trkpt lat="42.516019977629184722900390625" lon="20.01047040335834026336669921875">
        <ele>1911.5999755859375</ele>
        <time>2026-06-19T09:33:31.000Z</time>
        <extensions>
          <ns3:TrackPointExtension>
            <ns3:atemp>20.0</ns3:atemp>
          </ns3:TrackPointExtension>
        </extensions>
      </trkpt>
      <trkpt lat="42.516019977629184722900390625" lon="20.01047040335834026336669921875">
        <ele>1911.5999755859375</ele>
        <time>2026-06-19T09:33:32.000Z</time>
        <extensions>
          <ns3:TrackPointExtension>
            <ns3:atemp>20.0</ns3:atemp>
          </ns3:TrackPointExtension>
        </extensions>
      </trkpt>
      <trkpt lat="42.516019977629184722900390625" lon="20.01047040335834026336669921875">
        <ele>1911.5999755859375</ele>
        <time>2026-06-19T09:33:33.000Z</time>
        <extensions>
          <ns3:TrackPointExtension>
            <ns3:atemp>20.0</ns3:atemp>
          </ns3:TrackPointExtension>
        </extensions>
      </trkpt>
      <trkpt lat="42.516019977629184722900390625" lon="20.01047040335834026336669921875">
        <ele>1911.5999755859375</ele>
        <time>2026-06-19T09:33:34.000Z</time>
        <extensions>
          <ns3:TrackPointExtension>
            <ns3:atemp>20.0</ns3:atemp>
          </ns3:TrackPointExtension>
        </extensions>
      </trkpt>
      <trkpt lat="42.516019977629184722900390625" lon="20.01047040335834026336669921875">
        <ele>1911.5999755859375</ele>
        <time>2026-06-19T09:33:35.000Z</time>
        <extensions>
          <ns3:TrackPointExtension>
            <ns3:atemp>20.0</ns3:atemp>
          </ns3:TrackPointExtension>
        </extensions>
      </trkpt>
      <trkpt lat="42.516019977629184722900390625" lon="20.01047040335834026336669921875">
        <ele>1911.5999755859375</ele>
        <time>2026-06-19T09:33:36.000Z</time>
        <extensions>
          <ns3:TrackPointExtension>
            <ns3:atemp>20.0</ns3:atemp>
          </ns3:TrackPointExtension>
        </extensions>
      </trkpt>
      <trkpt lat="42.516019977629184722900390625" lon="20.01047040335834026336669921875">
        <ele>1911.5999755859375</ele>
        <time>2026-06-19T09:33:37.000Z</time>
        <extensions>
          <ns3:TrackPointExtension>
            <ns3:atemp>20.0</ns3:atemp>
          </ns3:TrackPointExtension>
        </extensions>
      </trkpt>
      <trkpt lat="42.516019977629184722900390625" lon="20.01047040335834026336669921875">
        <ele>1911.5999755859375</ele>
        <time>2026-06-19T09:33:38.000Z</time>
        <extensions>
          <ns3:TrackPointExtension>
            <ns3:atemp>20.0</ns3:atemp>
          </ns3:TrackPointExtension>
        </extensions>
      </trkpt>
      <trkpt lat="42.516019977629184722900390625" lon="20.01047040335834026336669921875">
        <ele>1911.5999755859375</ele>
        <time>2026-06-19T09:33:39.000Z</time>
        <extensions>
          <ns3:TrackPointExtension>
            <ns3:atemp>20.0</ns3:atemp>
          </ns3:TrackPointExtension>
        </extensions>
      </trkpt>
      <trkpt lat="42.516019977629184722900390625" lon="20.01047040335834026336669921875">
        <ele>1911.5999755859375</ele>
        <time>2026-06-19T09:33:40.000Z</time>
        <extensions>
          <ns3:TrackPointExtension>
            <ns3:atemp>20.0</ns3:atemp>
          </ns3:TrackPointExtension>
        </extensions>
      </trkpt>
      <trkpt lat="42.516019977629184722900390625" lon="20.01047040335834026336669921875">
        <ele>1911.5999755859375</ele>
        <time>2026-06-19T09:33:41.000Z</time>
        <extensions>
          <ns3:TrackPointExtension>
            <ns3:atemp>20.0</ns3:atemp>
          </ns3:TrackPointExtension>
        </extensions>
      </trkpt>
      <trkpt lat="42.516019977629184722900390625" lon="20.01047040335834026336669921875">
        <ele>1911.5999755859375</ele>
        <time>2026-06-19T09:33:42.000Z</time>
        <extensions>
          <ns3:TrackPointExtension>
            <ns3:atemp>20.0</ns3:atemp>
          </ns3:TrackPointExtension>
        </extensions>
      </trkpt>
      <trkpt lat="42.516019977629184722900390625" lon="20.01047040335834026336669921875">
        <ele>1911.5999755859375</ele>
        <time>2026-06-19T09:33:43.000Z</time>
        <extensions>
          <ns3:TrackPointExtension>
            <ns3:atemp>20.0</ns3:atemp>
          </ns3:TrackPointExtension>
        </extensions>
      </trkpt>
      <trkpt lat="42.516019977629184722900390625" lon="20.01047040335834026336669921875">
        <ele>1911.5999755859375</ele>
        <time>2026-06-19T09:33:44.000Z</time>
        <extensions>
          <ns3:TrackPointExtension>
            <ns3:atemp>20.0</ns3:atemp>
          </ns3:TrackPointExtension>
        </extensions>
      </trkpt>
      <trkpt lat="42.516019977629184722900390625" lon="20.01047040335834026336669921875">
        <ele>1911.5999755859375</ele>
        <time>2026-06-19T09:33:45.000Z</time>
        <extensions>
          <ns3:TrackPointExtension>
            <ns3:atemp>20.0</ns3:atemp>
          </ns3:TrackPointExtension>
        </extensions>
      </trkpt>
      <trkpt lat="42.516019977629184722900390625" lon="20.01047040335834026336669921875">
        <ele>1911.5999755859375</ele>
        <time>2026-06-19T09:33:46.000Z</time>
        <extensions>
          <ns3:TrackPointExtension>
            <ns3:atemp>20.0</ns3:atemp>
          </ns3:TrackPointExtension>
        </extensions>
      </trkpt>
      <trkpt lat="42.516019977629184722900390625" lon="20.01047040335834026336669921875">
        <ele>1911.5999755859375</ele>
        <time>2026-06-19T09:33:47.000Z</time>
        <extensions>
          <ns3:TrackPointExtension>
            <ns3:atemp>20.0</ns3:atemp>
          </ns3:TrackPointExtension>
        </extensions>
      </trkpt>
      <trkpt lat="42.516019977629184722900390625" lon="20.01047040335834026336669921875">
        <ele>1911.5999755859375</ele>
        <time>2026-06-19T09:33:48.000Z</time>
        <extensions>
          <ns3:TrackPointExtension>
            <ns3:atemp>20.0</ns3:atemp>
          </ns3:TrackPointExtension>
        </extensions>
      </trkpt>
      <trkpt lat="42.516019977629184722900390625" lon="20.01047040335834026336669921875">
        <ele>1911.5999755859375</ele>
        <time>2026-06-19T09:33:49.000Z</time>
        <extensions>
          <ns3:TrackPointExtension>
            <ns3:atemp>20.0</ns3:atemp>
          </ns3:TrackPointExtension>
        </extensions>
      </trkpt>
      <trkpt lat="42.516019977629184722900390625" lon="20.01047040335834026336669921875">
        <ele>1911.5999755859375</ele>
        <time>2026-06-19T09:33:50.000Z</time>
        <extensions>
          <ns3:TrackPointExtension>
            <ns3:atemp>20.0</ns3:atemp>
          </ns3:TrackPointExtension>
        </extensions>
      </trkpt>
      <trkpt lat="42.516019977629184722900390625" lon="20.01047040335834026336669921875">
        <ele>1911.5999755859375</ele>
        <time>2026-06-19T09:33:51.000Z</time>
        <extensions>
          <ns3:TrackPointExtension>
            <ns3:atemp>20.0</ns3:atemp>
          </ns3:TrackPointExtension>
        </extensions>
      </trkpt>
      <trkpt lat="42.516019977629184722900390625" lon="20.01047040335834026336669921875">
        <ele>1911.5999755859375</ele>
        <time>2026-06-19T09:33:52.000Z</time>
        <extensions>
          <ns3:TrackPointExtension>
            <ns3:atemp>20.0</ns3:atemp>
          </ns3:TrackPointExtension>
        </extensions>
      </trkpt>
      <trkpt lat="42.516019977629184722900390625" lon="20.01047040335834026336669921875">
        <ele>1911.5999755859375</ele>
        <time>2026-06-19T09:33:53.000Z</time>
        <extensions>
          <ns3:TrackPointExtension>
            <ns3:atemp>20.0</ns3:atemp>
          </ns3:TrackPointExtension>
        </extensions>
      </trkpt>
      <trkpt lat="42.516019977629184722900390625" lon="20.01047040335834026336669921875">
        <ele>1911.5999755859375</ele>
        <time>2026-06-19T09:33:54.000Z</time>
        <extensions>
          <ns3:TrackPointExtension>
            <ns3:atemp>20.0</ns3:atemp>
          </ns3:TrackPointExtension>
        </extensions>
      </trkpt>
      <trkpt lat="42.516019977629184722900390625" lon="20.01047040335834026336669921875">
        <ele>1911.5999755859375</ele>
        <time>2026-06-19T09:33:55.000Z</time>
        <extensions>
          <ns3:TrackPointExtension>
            <ns3:atemp>20.0</ns3:atemp>
          </ns3:TrackPointExtension>
        </extensions>
      </trkpt>
      <trkpt lat="42.516019977629184722900390625" lon="20.01047040335834026336669921875">
        <ele>1911.5999755859375</ele>
        <time>2026-06-19T09:33:56.000Z</time>
        <extensions>
          <ns3:TrackPointExtension>
            <ns3:atemp>20.0</ns3:atemp>
          </ns3:TrackPointExtension>
        </extensions>
      </trkpt>
      <trkpt lat="42.516019977629184722900390625" lon="20.01047040335834026336669921875">
        <ele>1911.5999755859375</ele>
        <time>2026-06-19T09:33:57.000Z</time>
        <extensions>
          <ns3:TrackPointExtension>
            <ns3:atemp>20.0</ns3:atemp>
          </ns3:TrackPointExtension>
        </extensions>
      </trkpt>
      <trkpt lat="42.516019977629184722900390625" lon="20.01047040335834026336669921875">
        <ele>1911.5999755859375</ele>
        <time>2026-06-19T09:33:58.000Z</time>
        <extensions>
          <ns3:TrackPointExtension>
            <ns3:atemp>20.0</ns3:atemp>
          </ns3:TrackPointExtension>
        </extensions>
      </trkpt>
      <trkpt lat="42.516019977629184722900390625" lon="20.01047040335834026336669921875">
        <ele>1911.5999755859375</ele>
        <time>2026-06-19T09:33:59.000Z</time>
        <extensions>
          <ns3:TrackPointExtension>
            <ns3:atemp>20.0</ns3:atemp>
          </ns3:TrackPointExtension>
        </extensions>
      </trkpt>
      <trkpt lat="42.516019977629184722900390625" lon="20.01047040335834026336669921875">
        <ele>1911.5999755859375</ele>
        <time>2026-06-19T09:34:00.000Z</time>
        <extensions>
          <ns3:TrackPointExtension>
            <ns3:atemp>20.0</ns3:atemp>
          </ns3:TrackPointExtension>
        </extensions>
      </trkpt>
      <trkpt lat="42.516019977629184722900390625" lon="20.01047040335834026336669921875">
        <ele>1911.5999755859375</ele>
        <time>2026-06-19T09:34:01.000Z</time>
        <extensions>
          <ns3:TrackPointExtension>
            <ns3:atemp>20.0</ns3:atemp>
          </ns3:TrackPointExtension>
        </extensions>
      </trkpt>
      <trkpt lat="42.516019977629184722900390625" lon="20.01047040335834026336669921875">
        <ele>1911.5999755859375</ele>
        <time>2026-06-19T09:34:02.000Z</time>
        <extensions>
          <ns3:TrackPointExtension>
            <ns3:atemp>20.0</ns3:atemp>
          </ns3:TrackPointExtension>
        </extensions>
      </trkpt>
      <trkpt lat="42.516019977629184722900390625" lon="20.01047040335834026336669921875">
        <ele>1911.5999755859375</ele>
        <time>2026-06-19T09:34:03.000Z</time>
        <extensions>
          <ns3:TrackPointExtension>
            <ns3:atemp>20.0</ns3:atemp>
          </ns3:TrackPointExtension>
        </extensions>
      </trkpt>
      <trkpt lat="42.516019977629184722900390625" lon="20.01047040335834026336669921875">
        <ele>1911.5999755859375</ele>
        <time>2026-06-19T09:34:04.000Z</time>
        <extensions>
          <ns3:TrackPointExtension>
            <ns3:atemp>20.0</ns3:atemp>
          </ns3:TrackPointExtension>
        </extensions>
      </trkpt>
      <trkpt lat="42.516019977629184722900390625" lon="20.01047040335834026336669921875">
        <ele>1911.5999755859375</ele>
        <time>2026-06-19T09:34:05.000Z</time>
        <extensions>
          <ns3:TrackPointExtension>
            <ns3:atemp>20.0</ns3:atemp>
          </ns3:TrackPointExtension>
        </extensions>
      </trkpt>
      <trkpt lat="42.516019977629184722900390625" lon="20.01047040335834026336669921875">
        <ele>1911.5999755859375</ele>
        <time>2026-06-19T09:34:06.000Z</time>
        <extensions>
          <ns3:TrackPointExtension>
            <ns3:atemp>20.0</ns3:atemp>
          </ns3:TrackPointExtension>
        </extensions>
      </trkpt>
      <trkpt lat="42.516019977629184722900390625" lon="20.01047040335834026336669921875">
        <ele>1911.5999755859375</ele>
        <time>2026-06-19T09:34:07.000Z</time>
        <extensions>
          <ns3:TrackPointExtension>
            <ns3:atemp>20.0</ns3:atemp>
          </ns3:TrackPointExtension>
        </extensions>
      </trkpt>
      <trkpt lat="42.516019977629184722900390625" lon="20.01047040335834026336669921875">
        <ele>1911.5999755859375</ele>
        <time>2026-06-19T09:34:08.000Z</time>
        <extensions>
          <ns3:TrackPointExtension>
            <ns3:atemp>20.0</ns3:atemp>
          </ns3:TrackPointExtension>
        </extensions>
      </trkpt>
      <trkpt lat="42.516019977629184722900390625" lon="20.01047040335834026336669921875">
        <ele>1911.5999755859375</ele>
        <time>2026-06-19T09:34:09.000Z</time>
        <extensions>
          <ns3:TrackPointExtension>
            <ns3:atemp>20.0</ns3:atemp>
          </ns3:TrackPointExtension>
        </extensions>
      </trkpt>
      <trkpt lat="42.516019977629184722900390625" lon="20.01047040335834026336669921875">
        <ele>1911.5999755859375</ele>
        <time>2026-06-19T09:34:10.000Z</time>
        <extensions>
          <ns3:TrackPointExtension>
            <ns3:atemp>20.0</ns3:atemp>
          </ns3:TrackPointExtension>
        </extensions>
      </trkpt>
      <trkpt lat="42.516019977629184722900390625" lon="20.01047040335834026336669921875">
        <ele>1911.5999755859375</ele>
        <time>2026-06-19T09:34:11.000Z</time>
        <extensions>
          <ns3:TrackPointExtension>
            <ns3:atemp>20.0</ns3:atemp>
          </ns3:TrackPointExtension>
        </extensions>
      </trkpt>
      <trkpt lat="42.516019977629184722900390625" lon="20.01047040335834026336669921875">
        <ele>1911.5999755859375</ele>
        <time>2026-06-19T09:34:12.000Z</time>
        <extensions>
          <ns3:TrackPointExtension>
            <ns3:atemp>20.0</ns3:atemp>
          </ns3:TrackPointExtension>
        </extensions>
      </trkpt>
      <trkpt lat="42.516019977629184722900390625" lon="20.01047040335834026336669921875">
        <ele>1911.5999755859375</ele>
        <time>2026-06-19T09:34:13.000Z</time>
        <extensions>
          <ns3:TrackPointExtension>
            <ns3:atemp>20.0</ns3:atemp>
          </ns3:TrackPointExtension>
        </extensions>
      </trkpt>
      <trkpt lat="42.516019977629184722900390625" lon="20.01047040335834026336669921875">
        <ele>1911.5999755859375</ele>
        <time>2026-06-19T09:34:14.000Z</time>
        <extensions>
          <ns3:TrackPointExtension>
            <ns3:atemp>20.0</ns3:atemp>
          </ns3:TrackPointExtension>
        </extensions>
      </trkpt>
      <trkpt lat="42.516019977629184722900390625" lon="20.01047040335834026336669921875">
        <ele>1911.5999755859375</ele>
        <time>2026-06-19T09:34:15.000Z</time>
        <extensions>
          <ns3:TrackPointExtension>
            <ns3:atemp>20.0</ns3:atemp>
          </ns3:TrackPointExtension>
        </extensions>
      </trkpt>
      <trkpt lat="42.516019977629184722900390625" lon="20.01047040335834026336669921875">
        <ele>1911.5999755859375</ele>
        <time>2026-06-19T09:34:16.000Z</time>
        <extensions>
          <ns3:TrackPointExtension>
            <ns3:atemp>20.0</ns3:atemp>
          </ns3:TrackPointExtension>
        </extensions>
      </trkpt>
      <trkpt lat="42.516019977629184722900390625" lon="20.01047040335834026336669921875">
        <ele>1911.5999755859375</ele>
        <time>2026-06-19T09:34:17.000Z</time>
        <extensions>
          <ns3:TrackPointExtension>
            <ns3:atemp>20.0</ns3:atemp>
          </ns3:TrackPointExtension>
        </extensions>
      </trkpt>
      <trkpt lat="42.516019977629184722900390625" lon="20.01047040335834026336669921875">
        <ele>1911.5999755859375</ele>
        <time>2026-06-19T09:34:18.000Z</time>
        <extensions>
          <ns3:TrackPointExtension>
            <ns3:atemp>20.0</ns3:atemp>
          </ns3:TrackPointExtension>
        </extensions>
      </trkpt>
      <trkpt lat="42.516019977629184722900390625" lon="20.01047040335834026336669921875">
        <ele>1911.5999755859375</ele>
        <time>2026-06-19T09:34:19.000Z</time>
        <extensions>
          <ns3:TrackPointExtension>
            <ns3:atemp>20.0</ns3:atemp>
          </ns3:TrackPointExtension>
        </extensions>
      </trkpt>
      <trkpt lat="42.516019977629184722900390625" lon="20.01047040335834026336669921875">
        <ele>1911.5999755859375</ele>
        <time>2026-06-19T09:34:20.000Z</time>
        <extensions>
          <ns3:TrackPointExtension>
            <ns3:atemp>20.0</ns3:atemp>
          </ns3:TrackPointExtension>
        </extensions>
      </trkpt>
      <trkpt lat="42.516019977629184722900390625" lon="20.01047040335834026336669921875">
        <ele>1911.5999755859375</ele>
        <time>2026-06-19T09:34:21.000Z</time>
        <extensions>
          <ns3:TrackPointExtension>
            <ns3:atemp>20.0</ns3:atemp>
          </ns3:TrackPointExtension>
        </extensions>
      </trkpt>
      <trkpt lat="42.516019977629184722900390625" lon="20.01047040335834026336669921875">
        <ele>1911.5999755859375</ele>
        <time>2026-06-19T09:34:22.000Z</time>
        <extensions>
          <ns3:TrackPointExtension>
            <ns3:atemp>20.0</ns3:atemp>
          </ns3:TrackPointExtension>
        </extensions>
      </trkpt>
      <trkpt lat="42.516019977629184722900390625" lon="20.01047040335834026336669921875">
        <ele>1911.5999755859375</ele>
        <time>2026-06-19T09:34:23.000Z</time>
        <extensions>
          <ns3:TrackPointExtension>
            <ns3:atemp>20.0</ns3:atemp>
          </ns3:TrackPointExtension>
        </extensions>
      </trkpt>
      <trkpt lat="42.516019977629184722900390625" lon="20.01047040335834026336669921875">
        <ele>1911.5999755859375</ele>
        <time>2026-06-19T09:34:24.000Z</time>
        <extensions>
          <ns3:TrackPointExtension>
            <ns3:atemp>20.0</ns3:atemp>
          </ns3:TrackPointExtension>
        </extensions>
      </trkpt>
      <trkpt lat="42.516019977629184722900390625" lon="20.01047040335834026336669921875">
        <ele>1911.5999755859375</ele>
        <time>2026-06-19T09:34:25.000Z</time>
        <extensions>
          <ns3:TrackPointExtension>
            <ns3:atemp>20.0</ns3:atemp>
          </ns3:TrackPointExtension>
        </extensions>
      </trkpt>
      <trkpt lat="42.516019977629184722900390625" lon="20.01047040335834026336669921875">
        <ele>1911.5999755859375</ele>
        <time>2026-06-19T09:34:26.000Z</time>
        <extensions>
          <ns3:TrackPointExtension>
            <ns3:atemp>20.0</ns3:atemp>
          </ns3:TrackPointExtension>
        </extensions>
      </trkpt>
      <trkpt lat="42.516019977629184722900390625" lon="20.01047040335834026336669921875">
        <ele>1911.5999755859375</ele>
        <time>2026-06-19T09:34:27.000Z</time>
        <extensions>
          <ns3:TrackPointExtension>
            <ns3:atemp>20.0</ns3:atemp>
          </ns3:TrackPointExtension>
        </extensions>
      </trkpt>
      <trkpt lat="42.516019977629184722900390625" lon="20.01047040335834026336669921875">
        <ele>1911.5999755859375</ele>
        <time>2026-06-19T09:34:28.000Z</time>
        <extensions>
          <ns3:TrackPointExtension>
            <ns3:atemp>20.0</ns3:atemp>
          </ns3:TrackPointExtension>
        </extensions>
      </trkpt>
      <trkpt lat="42.516019977629184722900390625" lon="20.01047040335834026336669921875">
        <ele>1911.5999755859375</ele>
        <time>2026-06-19T09:34:29.000Z</time>
        <extensions>
          <ns3:TrackPointExtension>
            <ns3:atemp>20.0</ns3:atemp>
          </ns3:TrackPointExtension>
        </extensions>
      </trkpt>
      <trkpt lat="42.516019977629184722900390625" lon="20.01047040335834026336669921875">
        <ele>1911.5999755859375</ele>
        <time>2026-06-19T09:34:30.000Z</time>
        <extensions>
          <ns3:TrackPointExtension>
            <ns3:atemp>20.0</ns3:atemp>
          </ns3:TrackPointExtension>
        </extensions>
      </trkpt>
      <trkpt lat="42.516019977629184722900390625" lon="20.01047040335834026336669921875">
        <ele>1911.5999755859375</ele>
        <time>2026-06-19T09:34:31.000Z</time>
        <extensions>
          <ns3:TrackPointExtension>
            <ns3:atemp>20.0</ns3:atemp>
          </ns3:TrackPointExtension>
        </extensions>
      </trkpt>
      <trkpt lat="42.516019977629184722900390625" lon="20.01047040335834026336669921875">
        <ele>1911.5999755859375</ele>
        <time>2026-06-19T09:34:32.000Z</time>
        <extensions>
          <ns3:TrackPointExtension>
            <ns3:atemp>20.0</ns3:atemp>
          </ns3:TrackPointExtension>
        </extensions>
      </trkpt>
      <trkpt lat="42.516019977629184722900390625" lon="20.01047040335834026336669921875">
        <ele>1911.5999755859375</ele>
        <time>2026-06-19T09:34:33.000Z</time>
        <extensions>
          <ns3:TrackPointExtension>
            <ns3:atemp>20.0</ns3:atemp>
          </ns3:TrackPointExtension>
        </extensions>
      </trkpt>
      <trkpt lat="42.516019977629184722900390625" lon="20.01047040335834026336669921875">
        <ele>1911.5999755859375</ele>
        <time>2026-06-19T09:34:34.000Z</time>
        <extensions>
          <ns3:TrackPointExtension>
            <ns3:atemp>20.0</ns3:atemp>
          </ns3:TrackPointExtension>
        </extensions>
      </trkpt>
      <trkpt lat="42.516019977629184722900390625" lon="20.01047040335834026336669921875">
        <ele>1911.5999755859375</ele>
        <time>2026-06-19T09:34:35.000Z</time>
        <extensions>
          <ns3:TrackPointExtension>
            <ns3:atemp>20.0</ns3:atemp>
          </ns3:TrackPointExtension>
        </extensions>
      </trkpt>
      <trkpt lat="42.516019977629184722900390625" lon="20.01047040335834026336669921875">
        <ele>1911.5999755859375</ele>
        <time>2026-06-19T09:34:36.000Z</time>
        <extensions>
          <ns3:TrackPointExtension>
            <ns3:atemp>20.0</ns3:atemp>
          </ns3:TrackPointExtension>
        </extensions>
      </trkpt>
      <trkpt lat="42.516019977629184722900390625" lon="20.01047040335834026336669921875">
        <ele>1911.5999755859375</ele>
        <time>2026-06-19T09:34:37.000Z</time>
        <extensions>
          <ns3:TrackPointExtension>
            <ns3:atemp>20.0</ns3:atemp>
          </ns3:TrackPointExtension>
        </extensions>
      </trkpt>
      <trkpt lat="42.516019977629184722900390625" lon="20.01047040335834026336669921875">
        <ele>1911.5999755859375</ele>
        <time>2026-06-19T09:34:38.000Z</time>
        <extensions>
          <ns3:TrackPointExtension>
            <ns3:atemp>20.0</ns3:atemp>
          </ns3:TrackPointExtension>
        </extensions>
      </trkpt>
      <trkpt lat="42.516019977629184722900390625" lon="20.01047040335834026336669921875">
        <ele>1911.5999755859375</ele>
        <time>2026-06-19T09:34:39.000Z</time>
        <extensions>
          <ns3:TrackPointExtension>
            <ns3:atemp>20.0</ns3:atemp>
          </ns3:TrackPointExtension>
        </extensions>
      </trkpt>
      <trkpt lat="42.516019977629184722900390625" lon="20.01047040335834026336669921875">
        <ele>1911.5999755859375</ele>
        <time>2026-06-19T09:34:40.000Z</time>
        <extensions>
          <ns3:TrackPointExtension>
            <ns3:atemp>20.0</ns3:atemp>
          </ns3:TrackPointExtension>
        </extensions>
      </trkpt>
      <trkpt lat="42.516019977629184722900390625" lon="20.01047040335834026336669921875">
        <ele>1911.5999755859375</ele>
        <time>2026-06-19T09:34:41.000Z</time>
        <extensions>
          <ns3:TrackPointExtension>
            <ns3:atemp>20.0</ns3:atemp>
          </ns3:TrackPointExtension>
        </extensions>
      </trkpt>
      <trkpt lat="42.516019977629184722900390625" lon="20.01047040335834026336669921875">
        <ele>1911.5999755859375</ele>
        <time>2026-06-19T09:34:42.000Z</time>
        <extensions>
          <ns3:TrackPointExtension>
            <ns3:atemp>20.0</ns3:atemp>
          </ns3:TrackPointExtension>
        </extensions>
      </trkpt>
      <trkpt lat="42.516019977629184722900390625" lon="20.01047040335834026336669921875">
        <ele>1911.5999755859375</ele>
        <time>2026-06-19T09:34:43.000Z</time>
        <extensions>
          <ns3:TrackPointExtension>
            <ns3:atemp>20.0</ns3:atemp>
          </ns3:TrackPointExtension>
        </extensions>
      </trkpt>
      <trkpt lat="42.516019977629184722900390625" lon="20.01047040335834026336669921875">
        <ele>1911.5999755859375</ele>
        <time>2026-06-19T09:34:44.000Z</time>
        <extensions>
          <ns3:TrackPointExtension>
            <ns3:atemp>20.0</ns3:atemp>
          </ns3:TrackPointExtension>
        </extensions>
      </trkpt>
      <trkpt lat="42.516019977629184722900390625" lon="20.01047040335834026336669921875">
        <ele>1911.5999755859375</ele>
        <time>2026-06-19T09:34:45.000Z</time>
        <extensions>
          <ns3:TrackPointExtension>
            <ns3:atemp>20.0</ns3:atemp>
          </ns3:TrackPointExtension>
        </extensions>
      </trkpt>
      <trkpt lat="42.516019977629184722900390625" lon="20.01047040335834026336669921875">
        <ele>1911.5999755859375</ele>
        <time>2026-06-19T09:34:46.000Z</time>
        <extensions>
          <ns3:TrackPointExtension>
            <ns3:atemp>20.0</ns3:atemp>
          </ns3:TrackPointExtension>
        </extensions>
      </trkpt>
      <trkpt lat="42.516019977629184722900390625" lon="20.01047040335834026336669921875">
        <ele>1911.5999755859375</ele>
        <time>2026-06-19T09:34:47.000Z</time>
        <extensions>
          <ns3:TrackPointExtension>
            <ns3:atemp>20.0</ns3:atemp>
          </ns3:TrackPointExtension>
        </extensions>
      </trkpt>
      <trkpt lat="42.516019977629184722900390625" lon="20.01047040335834026336669921875">
        <ele>1911.5999755859375</ele>
        <time>2026-06-19T09:34:48.000Z</time>
        <extensions>
          <ns3:TrackPointExtension>
            <ns3:atemp>20.0</ns3:atemp>
          </ns3:TrackPointExtension>
        </extensions>
      </trkpt>
      <trkpt lat="42.516019977629184722900390625" lon="20.01047040335834026336669921875">
        <ele>1911.5999755859375</ele>
        <time>2026-06-19T09:34:49.000Z</time>
        <extensions>
          <ns3:TrackPointExtension>
            <ns3:atemp>20.0</ns3:atemp>
          </ns3:TrackPointExtension>
        </extensions>
      </trkpt>
      <trkpt lat="42.516019977629184722900390625" lon="20.01047040335834026336669921875">
        <ele>1911.5999755859375</ele>
        <time>2026-06-19T09:34:50.000Z</time>
        <extensions>
          <ns3:TrackPointExtension>
            <ns3:atemp>20.0</ns3:atemp>
          </ns3:TrackPointExtension>
        </extensions>
      </trkpt>
      <trkpt lat="42.516019977629184722900390625" lon="20.01047040335834026336669921875">
        <ele>1911.5999755859375</ele>
        <time>2026-06-19T09:34:51.000Z</time>
        <extensions>
          <ns3:TrackPointExtension>
            <ns3:atemp>20.0</ns3:atemp>
          </ns3:TrackPointExtension>
        </extensions>
      </trkpt>
      <trkpt lat="42.516019977629184722900390625" lon="20.01047040335834026336669921875">
        <ele>1911.5999755859375</ele>
        <time>2026-06-19T09:34:52.000Z</time>
        <extensions>
          <ns3:TrackPointExtension>
            <ns3:atemp>20.0</ns3:atemp>
          </ns3:TrackPointExtension>
        </extensions>
      </trkpt>
      <trkpt lat="42.516019977629184722900390625" lon="20.01047040335834026336669921875">
        <ele>1911.5999755859375</ele>
        <time>2026-06-19T09:34:53.000Z</time>
        <extensions>
          <ns3:TrackPointExtension>
            <ns3:atemp>20.0</ns3:atemp>
          </ns3:TrackPointExtension>
        </extensions>
      </trkpt>
      <trkpt lat="42.516019977629184722900390625" lon="20.01047040335834026336669921875">
        <ele>1911.5999755859375</ele>
        <time>2026-06-19T09:34:54.000Z</time>
        <extensions>
          <ns3:TrackPointExtension>
            <ns3:atemp>20.0</ns3:atemp>
          </ns3:TrackPointExtension>
        </extensions>
      </trkpt>
      <trkpt lat="42.516019977629184722900390625" lon="20.01047040335834026336669921875">
        <ele>1911.5999755859375</ele>
        <time>2026-06-19T09:34:55.000Z</time>
        <extensions>
          <ns3:TrackPointExtension>
            <ns3:atemp>20.0</ns3:atemp>
          </ns3:TrackPointExtension>
        </extensions>
      </trkpt>
      <trkpt lat="42.516019977629184722900390625" lon="20.01047040335834026336669921875">
        <ele>1911.5999755859375</ele>
        <time>2026-06-19T09:34:56.000Z</time>
        <extensions>
          <ns3:TrackPointExtension>
            <ns3:atemp>20.0</ns3:atemp>
          </ns3:TrackPointExtension>
        </extensions>
      </trkpt>
      <trkpt lat="42.516019977629184722900390625" lon="20.01047040335834026336669921875">
        <ele>1911.5999755859375</ele>
        <time>2026-06-19T09:34:57.000Z</time>
        <extensions>
          <ns3:TrackPointExtension>
            <ns3:atemp>20.0</ns3:atemp>
          </ns3:TrackPointExtension>
        </extensions>
      </trkpt>
      <trkpt lat="42.516019977629184722900390625" lon="20.01047040335834026336669921875">
        <ele>1911.5999755859375</ele>
        <time>2026-06-19T09:34:58.000Z</time>
        <extensions>
          <ns3:TrackPointExtension>
            <ns3:atemp>20.0</ns3:atemp>
          </ns3:TrackPointExtension>
        </extensions>
      </trkpt>
      <trkpt lat="42.516019977629184722900390625" lon="20.01047040335834026336669921875">
        <ele>1911.5999755859375</ele>
        <time>2026-06-19T09:34:59.000Z</time>
        <extensions>
          <ns3:TrackPointExtension>
            <ns3:atemp>20.0</ns3:atemp>
          </ns3:TrackPointExtension>
        </extensions>
      </trkpt>
      <trkpt lat="42.516019977629184722900390625" lon="20.01047040335834026336669921875">
        <ele>1911.5999755859375</ele>
        <time>2026-06-19T09:35:00.000Z</time>
        <extensions>
          <ns3:TrackPointExtension>
            <ns3:atemp>20.0</ns3:atemp>
          </ns3:TrackPointExtension>
        </extensions>
      </trkpt>
      <trkpt lat="42.516019977629184722900390625" lon="20.01047040335834026336669921875">
        <ele>1911.5999755859375</ele>
        <time>2026-06-19T09:35:01.000Z</time>
        <extensions>
          <ns3:TrackPointExtension>
            <ns3:atemp>20.0</ns3:atemp>
          </ns3:TrackPointExtension>
        </extensions>
      </trkpt>
      <trkpt lat="42.516019977629184722900390625" lon="20.01047040335834026336669921875">
        <ele>1911.5999755859375</ele>
        <time>2026-06-19T09:35:02.000Z</time>
        <extensions>
          <ns3:TrackPointExtension>
            <ns3:atemp>20.0</ns3:atemp>
          </ns3:TrackPointExtension>
        </extensions>
      </trkpt>
      <trkpt lat="42.516019977629184722900390625" lon="20.01047040335834026336669921875">
        <ele>1911.5999755859375</ele>
        <time>2026-06-19T09:35:03.000Z</time>
        <extensions>
          <ns3:TrackPointExtension>
            <ns3:atemp>20.0</ns3:atemp>
          </ns3:TrackPointExtension>
        </extensions>
      </trkpt>
      <trkpt lat="42.516019977629184722900390625" lon="20.01047040335834026336669921875">
        <ele>1911.5999755859375</ele>
        <time>2026-06-19T09:35:04.000Z</time>
        <extensions>
          <ns3:TrackPointExtension>
            <ns3:atemp>20.0</ns3:atemp>
          </ns3:TrackPointExtension>
        </extensions>
      </trkpt>
      <trkpt lat="42.516019977629184722900390625" lon="20.01047040335834026336669921875">
        <ele>1911.5999755859375</ele>
        <time>2026-06-19T09:35:05.000Z</time>
        <extensions>
          <ns3:TrackPointExtension>
            <ns3:atemp>20.0</ns3:atemp>
          </ns3:TrackPointExtension>
        </extensions>
      </trkpt>
      <trkpt lat="42.516019977629184722900390625" lon="20.01047040335834026336669921875">
        <ele>1911.5999755859375</ele>
        <time>2026-06-19T09:35:06.000Z</time>
        <extensions>
          <ns3:TrackPointExtension>
            <ns3:atemp>20.0</ns3:atemp>
          </ns3:TrackPointExtension>
        </extensions>
      </trkpt>
      <trkpt lat="42.516019977629184722900390625" lon="20.01047040335834026336669921875">
        <ele>1911.5999755859375</ele>
        <time>2026-06-19T09:35:07.000Z</time>
        <extensions>
          <ns3:TrackPointExtension>
            <ns3:atemp>20.0</ns3:atemp>
          </ns3:TrackPointExtension>
        </extensions>
      </trkpt>
      <trkpt lat="42.516019977629184722900390625" lon="20.01047040335834026336669921875">
        <ele>1911.5999755859375</ele>
        <time>2026-06-19T09:35:08.000Z</time>
        <extensions>
          <ns3:TrackPointExtension>
            <ns3:atemp>20.0</ns3:atemp>
          </ns3:TrackPointExtension>
        </extensions>
      </trkpt>
      <trkpt lat="42.516019977629184722900390625" lon="20.01047040335834026336669921875">
        <ele>1911.5999755859375</ele>
        <time>2026-06-19T09:35:09.000Z</time>
        <extensions>
          <ns3:TrackPointExtension>
            <ns3:atemp>20.0</ns3:atemp>
          </ns3:TrackPointExtension>
        </extensions>
      </trkpt>
      <trkpt lat="42.516019977629184722900390625" lon="20.01047040335834026336669921875">
        <ele>1911.5999755859375</ele>
        <time>2026-06-19T09:35:10.000Z</time>
        <extensions>
          <ns3:TrackPointExtension>
            <ns3:atemp>20.0</ns3:atemp>
          </ns3:TrackPointExtension>
        </extensions>
      </trkpt>
      <trkpt lat="42.516019977629184722900390625" lon="20.01047040335834026336669921875">
        <ele>1911.5999755859375</ele>
        <time>2026-06-19T09:35:11.000Z</time>
        <extensions>
          <ns3:TrackPointExtension>
            <ns3:atemp>20.0</ns3:atemp>
          </ns3:TrackPointExtension>
        </extensions>
      </trkpt>
      <trkpt lat="42.516019977629184722900390625" lon="20.01047040335834026336669921875">
        <ele>1911.5999755859375</ele>
        <time>2026-06-19T09:35:12.000Z</time>
        <extensions>
          <ns3:TrackPointExtension>
            <ns3:atemp>20.0</ns3:atemp>
          </ns3:TrackPointExtension>
        </extensions>
      </trkpt>
      <trkpt lat="42.516019977629184722900390625" lon="20.01047040335834026336669921875">
        <ele>1911.5999755859375</ele>
        <time>2026-06-19T09:35:13.000Z</time>
        <extensions>
          <ns3:TrackPointExtension>
            <ns3:atemp>20.0</ns3:atemp>
          </ns3:TrackPointExtension>
        </extensions>
      </trkpt>
      <trkpt lat="42.516019977629184722900390625" lon="20.01047040335834026336669921875">
        <ele>1911.5999755859375</ele>
        <time>2026-06-19T09:35:14.000Z</time>
        <extensions>
          <ns3:TrackPointExtension>
            <ns3:atemp>20.0</ns3:atemp>
          </ns3:TrackPointExtension>
        </extensions>
      </trkpt>
      <trkpt lat="42.516019977629184722900390625" lon="20.01047040335834026336669921875">
        <ele>1911.5999755859375</ele>
        <time>2026-06-19T09:35:15.000Z</time>
        <extensions>
          <ns3:TrackPointExtension>
            <ns3:atemp>20.0</ns3:atemp>
          </ns3:TrackPointExtension>
        </extensions>
      </trkpt>
      <trkpt lat="42.516019977629184722900390625" lon="20.01047040335834026336669921875">
        <ele>1911.5999755859375</ele>
        <time>2026-06-19T09:35:16.000Z</time>
        <extensions>
          <ns3:TrackPointExtension>
            <ns3:atemp>20.0</ns3:atemp>
          </ns3:TrackPointExtension>
        </extensions>
      </trkpt>
      <trkpt lat="42.516019977629184722900390625" lon="20.01047040335834026336669921875">
        <ele>1911.5999755859375</ele>
        <time>2026-06-19T09:35:17.000Z</time>
        <extensions>
          <ns3:TrackPointExtension>
            <ns3:atemp>20.0</ns3:atemp>
          </ns3:TrackPointExtension>
        </extensions>
      </trkpt>
      <trkpt lat="42.516019977629184722900390625" lon="20.01047040335834026336669921875">
        <ele>1911.5999755859375</ele>
        <time>2026-06-19T09:35:18.000Z</time>
        <extensions>
          <ns3:TrackPointExtension>
            <ns3:atemp>20.0</ns3:atemp>
          </ns3:TrackPointExtension>
        </extensions>
      </trkpt>
      <trkpt lat="42.516019977629184722900390625" lon="20.01047040335834026336669921875">
        <ele>1911.5999755859375</ele>
        <time>2026-06-19T09:35:19.000Z</time>
        <extensions>
          <ns3:TrackPointExtension>
            <ns3:atemp>20.0</ns3:atemp>
          </ns3:TrackPointExtension>
        </extensions>
      </trkpt>
      <trkpt lat="42.516019977629184722900390625" lon="20.01047040335834026336669921875">
        <ele>1911.5999755859375</ele>
        <time>2026-06-19T09:35:20.000Z</time>
        <extensions>
          <ns3:TrackPointExtension>
            <ns3:atemp>20.0</ns3:atemp>
          </ns3:TrackPointExtension>
        </extensions>
      </trkpt>
      <trkpt lat="42.516019977629184722900390625" lon="20.01047040335834026336669921875">
        <ele>1911.5999755859375</ele>
        <time>2026-06-19T09:35:21.000Z</time>
        <extensions>
          <ns3:TrackPointExtension>
            <ns3:atemp>20.0</ns3:atemp>
          </ns3:TrackPointExtension>
        </extensions>
      </trkpt>
      <trkpt lat="42.516019977629184722900390625" lon="20.01047040335834026336669921875">
        <ele>1911.5999755859375</ele>
        <time>2026-06-19T09:35:22.000Z</time>
        <extensions>
          <ns3:TrackPointExtension>
            <ns3:atemp>20.0</ns3:atemp>
          </ns3:TrackPointExtension>
        </extensions>
      </trkpt>
      <trkpt lat="42.516019977629184722900390625" lon="20.01047040335834026336669921875">
        <ele>1911.5999755859375</ele>
        <time>2026-06-19T09:35:23.000Z</time>
        <extensions>
          <ns3:TrackPointExtension>
            <ns3:atemp>20.0</ns3:atemp>
          </ns3:TrackPointExtension>
        </extensions>
      </trkpt>
      <trkpt lat="42.516019977629184722900390625" lon="20.01047040335834026336669921875">
        <ele>1911.5999755859375</ele>
        <time>2026-06-19T09:35:24.000Z</time>
        <extensions>
          <ns3:TrackPointExtension>
            <ns3:atemp>21.0</ns3:atemp>
          </ns3:TrackPointExtension>
        </extensions>
      </trkpt>
      <trkpt lat="42.516019977629184722900390625" lon="20.01047040335834026336669921875">
        <ele>1911.5999755859375</ele>
        <time>2026-06-19T09:35:25.000Z</time>
        <extensions>
          <ns3:TrackPointExtension>
            <ns3:atemp>20.0</ns3:atemp>
          </ns3:TrackPointExtension>
        </extensions>
      </trkpt>
      <trkpt lat="42.516019977629184722900390625" lon="20.01047040335834026336669921875">
        <ele>1911.5999755859375</ele>
        <time>2026-06-19T09:35:26.000Z</time>
        <extensions>
          <ns3:TrackPointExtension>
            <ns3:atemp>20.0</ns3:atemp>
          </ns3:TrackPointExtension>
        </extensions>
      </trkpt>
      <trkpt lat="42.516019977629184722900390625" lon="20.01047040335834026336669921875">
        <ele>1911.5999755859375</ele>
        <time>2026-06-19T09:35:27.000Z</time>
        <extensions>
          <ns3:TrackPointExtension>
            <ns3:atemp>20.0</ns3:atemp>
          </ns3:TrackPointExtension>
        </extensions>
      </trkpt>
      <trkpt lat="42.516019977629184722900390625" lon="20.01047040335834026336669921875">
        <ele>1911.5999755859375</ele>
        <time>2026-06-19T09:35:28.000Z</time>
        <extensions>
          <ns3:TrackPointExtension>
            <ns3:atemp>20.0</ns3:atemp>
          </ns3:TrackPointExtension>
        </extensions>
      </trkpt>
      <trkpt lat="42.516019977629184722900390625" lon="20.01047040335834026336669921875">
        <ele>1911.5999755859375</ele>
        <time>2026-06-19T09:35:29.000Z</time>
        <extensions>
          <ns3:TrackPointExtension>
            <ns3:atemp>20.0</ns3:atemp>
          </ns3:TrackPointExtension>
        </extensions>
      </trkpt>
      <trkpt lat="42.516019977629184722900390625" lon="20.01047040335834026336669921875">
        <ele>1911.5999755859375</ele>
        <time>2026-06-19T09:35:30.000Z</time>
        <extensions>
          <ns3:TrackPointExtension>
            <ns3:atemp>20.0</ns3:atemp>
          </ns3:TrackPointExtension>
        </extensions>
      </trkpt>
      <trkpt lat="42.516019977629184722900390625" lon="20.01047040335834026336669921875">
        <ele>1911.5999755859375</ele>
        <time>2026-06-19T09:35:31.000Z</time>
        <extensions>
          <ns3:TrackPointExtension>
            <ns3:atemp>20.0</ns3:atemp>
          </ns3:TrackPointExtension>
        </extensions>
      </trkpt>
      <trkpt lat="42.516019977629184722900390625" lon="20.01047040335834026336669921875">
        <ele>1911.5999755859375</ele>
        <time>2026-06-19T09:35:32.000Z</time>
        <extensions>
          <ns3:TrackPointExtension>
            <ns3:atemp>20.0</ns3:atemp>
          </ns3:TrackPointExtension>
        </extensions>
      </trkpt>
      <trkpt lat="42.516019977629184722900390625" lon="20.01047040335834026336669921875">
        <ele>1911.5999755859375</ele>
        <time>2026-06-19T09:35:33.000Z</time>
        <extensions>
          <ns3:TrackPointExtension>
            <ns3:atemp>20.0</ns3:atemp>
          </ns3:TrackPointExtension>
        </extensions>
      </trkpt>
      <trkpt lat="42.516019977629184722900390625" lon="20.01047040335834026336669921875">
        <ele>1911.5999755859375</ele>
        <time>2026-06-19T09:35:34.000Z</time>
        <extensions>
          <ns3:TrackPointExtension>
            <ns3:atemp>20.0</ns3:atemp>
          </ns3:TrackPointExtension>
        </extensions>
      </trkpt>
      <trkpt lat="42.516019977629184722900390625" lon="20.01047040335834026336669921875">
        <ele>1911.5999755859375</ele>
        <time>2026-06-19T09:35:35.000Z</time>
        <extensions>
          <ns3:TrackPointExtension>
            <ns3:atemp>20.0</ns3:atemp>
          </ns3:TrackPointExtension>
        </extensions>
      </trkpt>
      <trkpt lat="42.516019977629184722900390625" lon="20.01047040335834026336669921875">
        <ele>1911.5999755859375</ele>
        <time>2026-06-19T09:35:36.000Z</time>
        <extensions>
          <ns3:TrackPointExtension>
            <ns3:atemp>20.0</ns3:atemp>
          </ns3:TrackPointExtension>
        </extensions>
      </trkpt>
      <trkpt lat="42.516019977629184722900390625" lon="20.01047040335834026336669921875">
        <ele>1911.5999755859375</ele>
        <time>2026-06-19T09:35:37.000Z</time>
        <extensions>
          <ns3:TrackPointExtension>
            <ns3:atemp>20.0</ns3:atemp>
          </ns3:TrackPointExtension>
        </extensions>
      </trkpt>
      <trkpt lat="42.516019977629184722900390625" lon="20.01047040335834026336669921875">
        <ele>1911.5999755859375</ele>
        <time>2026-06-19T09:35:38.000Z</time>
        <extensions>
          <ns3:TrackPointExtension>
            <ns3:atemp>20.0</ns3:atemp>
          </ns3:TrackPointExtension>
        </extensions>
      </trkpt>
      <trkpt lat="42.516019977629184722900390625" lon="20.01047040335834026336669921875">
        <ele>1911.5999755859375</ele>
        <time>2026-06-19T09:35:39.000Z</time>
        <extensions>
          <ns3:TrackPointExtension>
            <ns3:atemp>20.0</ns3:atemp>
          </ns3:TrackPointExtension>
        </extensions>
      </trkpt>
      <trkpt lat="42.516019977629184722900390625" lon="20.01047040335834026336669921875">
        <ele>1911.5999755859375</ele>
        <time>2026-06-19T09:35:40.000Z</time>
        <extensions>
          <ns3:TrackPointExtension>
            <ns3:atemp>20.0</ns3:atemp>
          </ns3:TrackPointExtension>
        </extensions>
      </trkpt>
      <trkpt lat="42.516019977629184722900390625" lon="20.01047040335834026336669921875">
        <ele>1911.5999755859375</ele>
        <time>2026-06-19T09:35:41.000Z</time>
        <extensions>
          <ns3:TrackPointExtension>
            <ns3:atemp>20.0</ns3:atemp>
          </ns3:TrackPointExtension>
        </extensions>
      </trkpt>
      <trkpt lat="42.516019977629184722900390625" lon="20.01047040335834026336669921875">
        <ele>1911.5999755859375</ele>
        <time>2026-06-19T09:35:42.000Z</time>
        <extensions>
          <ns3:TrackPointExtension>
            <ns3:atemp>20.0</ns3:atemp>
          </ns3:TrackPointExtension>
        </extensions>
      </trkpt>
      <trkpt lat="42.516019977629184722900390625" lon="20.01047040335834026336669921875">
        <ele>1911.5999755859375</ele>
        <time>2026-06-19T09:35:43.000Z</time>
        <extensions>
          <ns3:TrackPointExtension>
            <ns3:atemp>20.0</ns3:atemp>
          </ns3:TrackPointExtension>
        </extensions>
      </trkpt>
      <trkpt lat="42.516019977629184722900390625" lon="20.01047040335834026336669921875">
        <ele>1911.5999755859375</ele>
        <time>2026-06-19T09:35:44.000Z</time>
        <extensions>
          <ns3:TrackPointExtension>
            <ns3:atemp>21.0</ns3:atemp>
          </ns3:TrackPointExtension>
        </extensions>
      </trkpt>
      <trkpt lat="42.516019977629184722900390625" lon="20.01047040335834026336669921875">
        <ele>1911.5999755859375</ele>
        <time>2026-06-19T09:35:45.000Z</time>
        <extensions>
          <ns3:TrackPointExtension>
            <ns3:atemp>21.0</ns3:atemp>
          </ns3:TrackPointExtension>
        </extensions>
      </trkpt>
      <trkpt lat="42.516019977629184722900390625" lon="20.01047040335834026336669921875">
        <ele>1911.5999755859375</ele>
        <time>2026-06-19T09:35:46.000Z</time>
        <extensions>
          <ns3:TrackPointExtension>
            <ns3:atemp>21.0</ns3:atemp>
          </ns3:TrackPointExtension>
        </extensions>
      </trkpt>
      <trkpt lat="42.516019977629184722900390625" lon="20.01047040335834026336669921875">
        <ele>1911.5999755859375</ele>
        <time>2026-06-19T09:35:47.000Z</time>
        <extensions>
          <ns3:TrackPointExtension>
            <ns3:atemp>21.0</ns3:atemp>
          </ns3:TrackPointExtension>
        </extensions>
      </trkpt>
      <trkpt lat="42.516019977629184722900390625" lon="20.01047040335834026336669921875">
        <ele>1911.5999755859375</ele>
        <time>2026-06-19T09:35:48.000Z</time>
        <extensions>
          <ns3:TrackPointExtension>
            <ns3:atemp>21.0</ns3:atemp>
          </ns3:TrackPointExtension>
        </extensions>
      </trkpt>
      <trkpt lat="42.516019977629184722900390625" lon="20.01047040335834026336669921875">
        <ele>1911.5999755859375</ele>
        <time>2026-06-19T09:35:49.000Z</time>
        <extensions>
          <ns3:TrackPointExtension>
            <ns3:atemp>21.0</ns3:atemp>
          </ns3:TrackPointExtension>
        </extensions>
      </trkpt>
      <trkpt lat="42.516019977629184722900390625" lon="20.01047040335834026336669921875">
        <ele>1911.5999755859375</ele>
        <time>2026-06-19T09:35:50.000Z</time>
        <extensions>
          <ns3:TrackPointExtension>
            <ns3:atemp>21.0</ns3:atemp>
          </ns3:TrackPointExtension>
        </extensions>
      </trkpt>
      <trkpt lat="42.516019977629184722900390625" lon="20.01047040335834026336669921875">
        <ele>1911.5999755859375</ele>
        <time>2026-06-19T09:35:51.000Z</time>
        <extensions>
          <ns3:TrackPointExtension>
            <ns3:atemp>21.0</ns3:atemp>
          </ns3:TrackPointExtension>
        </extensions>
      </trkpt>
      <trkpt lat="42.516019977629184722900390625" lon="20.01047040335834026336669921875">
        <ele>1911.5999755859375</ele>
        <time>2026-06-19T09:35:52.000Z</time>
        <extensions>
          <ns3:TrackPointExtension>
            <ns3:atemp>21.0</ns3:atemp>
          </ns3:TrackPointExtension>
        </extensions>
      </trkpt>
      <trkpt lat="42.516019977629184722900390625" lon="20.01047040335834026336669921875">
        <ele>1911.5999755859375</ele>
        <time>2026-06-19T09:35:53.000Z</time>
        <extensions>
          <ns3:TrackPointExtension>
            <ns3:atemp>21.0</ns3:atemp>
          </ns3:TrackPointExtension>
        </extensions>
      </trkpt>
      <trkpt lat="42.516019977629184722900390625" lon="20.01047040335834026336669921875">
        <ele>1911.5999755859375</ele>
        <time>2026-06-19T09:35:54.000Z</time>
        <extensions>
          <ns3:TrackPointExtension>
            <ns3:atemp>21.0</ns3:atemp>
          </ns3:TrackPointExtension>
        </extensions>
      </trkpt>
      <trkpt lat="42.516019977629184722900390625" lon="20.01047040335834026336669921875">
        <ele>1911.5999755859375</ele>
        <time>2026-06-19T09:35:55.000Z</time>
        <extensions>
          <ns3:TrackPointExtension>
            <ns3:atemp>21.0</ns3:atemp>
          </ns3:TrackPointExtension>
        </extensions>
      </trkpt>
      <trkpt lat="42.516019977629184722900390625" lon="20.01047040335834026336669921875">
        <ele>1911.5999755859375</ele>
        <time>2026-06-19T09:35:56.000Z</time>
        <extensions>
          <ns3:TrackPointExtension>
            <ns3:atemp>21.0</ns3:atemp>
          </ns3:TrackPointExtension>
        </extensions>
      </trkpt>
      <trkpt lat="42.516019977629184722900390625" lon="20.01047040335834026336669921875">
        <ele>1911.5999755859375</ele>
        <time>2026-06-19T09:35:57.000Z</time>
        <extensions>
          <ns3:TrackPointExtension>
            <ns3:atemp>21.0</ns3:atemp>
          </ns3:TrackPointExtension>
        </extensions>
      </trkpt>
      <trkpt lat="42.516019977629184722900390625" lon="20.01047040335834026336669921875">
        <ele>1911.5999755859375</ele>
        <time>2026-06-19T09:35:58.000Z</time>
        <extensions>
          <ns3:TrackPointExtension>
            <ns3:atemp>21.0</ns3:atemp>
          </ns3:TrackPointExtension>
        </extensions>
      </trkpt>
      <trkpt lat="42.516019977629184722900390625" lon="20.01047040335834026336669921875">
        <ele>1911.5999755859375</ele>
        <time>2026-06-19T09:35:59.000Z</time>
        <extensions>
          <ns3:TrackPointExtension>
            <ns3:atemp>21.0</ns3:atemp>
          </ns3:TrackPointExtension>
        </extensions>
      </trkpt>
      <trkpt lat="42.516019977629184722900390625" lon="20.01047040335834026336669921875">
        <ele>1911.5999755859375</ele>
        <time>2026-06-19T09:36:00.000Z</time>
        <extensions>
          <ns3:TrackPointExtension>
            <ns3:atemp>21.0</ns3:atemp>
          </ns3:TrackPointExtension>
        </extensions>
      </trkpt>
      <trkpt lat="42.516019977629184722900390625" lon="20.01047040335834026336669921875">
        <ele>1911.5999755859375</ele>
        <time>2026-06-19T09:36:01.000Z</time>
        <extensions>
          <ns3:TrackPointExtension>
            <ns3:atemp>21.0</ns3:atemp>
          </ns3:TrackPointExtension>
        </extensions>
      </trkpt>
      <trkpt lat="42.516019977629184722900390625" lon="20.01047040335834026336669921875">
        <ele>1911.5999755859375</ele>
        <time>2026-06-19T09:36:02.000Z</time>
        <extensions>
          <ns3:TrackPointExtension>
            <ns3:atemp>21.0</ns3:atemp>
          </ns3:TrackPointExtension>
        </extensions>
      </trkpt>
      <trkpt lat="42.516019977629184722900390625" lon="20.01047040335834026336669921875">
        <ele>1911.5999755859375</ele>
        <time>2026-06-19T09:36:03.000Z</time>
        <extensions>
          <ns3:TrackPointExtension>
            <ns3:atemp>21.0</ns3:atemp>
          </ns3:TrackPointExtension>
        </extensions>
      </trkpt>
      <trkpt lat="42.516019977629184722900390625" lon="20.01047040335834026336669921875">
        <ele>1911.5999755859375</ele>
        <time>2026-06-19T09:36:04.000Z</time>
        <extensions>
          <ns3:TrackPointExtension>
            <ns3:atemp>21.0</ns3:atemp>
          </ns3:TrackPointExtension>
        </extensions>
      </trkpt>
      <trkpt lat="42.516019977629184722900390625" lon="20.01047040335834026336669921875">
        <ele>1911.5999755859375</ele>
        <time>2026-06-19T09:36:05.000Z</time>
        <extensions>
          <ns3:TrackPointExtension>
            <ns3:atemp>21.0</ns3:atemp>
          </ns3:TrackPointExtension>
        </extensions>
      </trkpt>
      <trkpt lat="42.516019977629184722900390625" lon="20.01047040335834026336669921875">
        <ele>1911.5999755859375</ele>
        <time>2026-06-19T09:36:06.000Z</time>
        <extensions>
          <ns3:TrackPointExtension>
            <ns3:atemp>21.0</ns3:atemp>
          </ns3:TrackPointExtension>
        </extensions>
      </trkpt>
      <trkpt lat="42.516019977629184722900390625" lon="20.01047040335834026336669921875">
        <ele>1911.5999755859375</ele>
        <time>2026-06-19T09:36:07.000Z</time>
        <extensions>
          <ns3:TrackPointExtension>
            <ns3:atemp>21.0</ns3:atemp>
          </ns3:TrackPointExtension>
        </extensions>
      </trkpt>
      <trkpt lat="42.516019977629184722900390625" lon="20.01047040335834026336669921875">
        <ele>1911.5999755859375</ele>
        <time>2026-06-19T09:36:08.000Z</time>
        <extensions>
          <ns3:TrackPointExtension>
            <ns3:atemp>21.0</ns3:atemp>
          </ns3:TrackPointExtension>
        </extensions>
      </trkpt>
      <trkpt lat="42.516019977629184722900390625" lon="20.01047040335834026336669921875">
        <ele>1911.5999755859375</ele>
        <time>2026-06-19T09:36:09.000Z</time>
        <extensions>
          <ns3:TrackPointExtension>
            <ns3:atemp>21.0</ns3:atemp>
          </ns3:TrackPointExtension>
        </extensions>
      </trkpt>
      <trkpt lat="42.516019977629184722900390625" lon="20.01047040335834026336669921875">
        <ele>1911.5999755859375</ele>
        <time>2026-06-19T09:36:10.000Z</time>
        <extensions>
          <ns3:TrackPointExtension>
            <ns3:atemp>21.0</ns3:atemp>
          </ns3:TrackPointExtension>
        </extensions>
      </trkpt>
      <trkpt lat="42.516019977629184722900390625" lon="20.01047040335834026336669921875">
        <ele>1911.5999755859375</ele>
        <time>2026-06-19T09:36:11.000Z</time>
        <extensions>
          <ns3:TrackPointExtension>
            <ns3:atemp>21.0</ns3:atemp>
          </ns3:TrackPointExtension>
        </extensions>
      </trkpt>
      <trkpt lat="42.516019977629184722900390625" lon="20.01047040335834026336669921875">
        <ele>1911.5999755859375</ele>
        <time>2026-06-19T09:36:12.000Z</time>
        <extensions>
          <ns3:TrackPointExtension>
            <ns3:atemp>21.0</ns3:atemp>
          </ns3:TrackPointExtension>
        </extensions>
      </trkpt>
      <trkpt lat="42.516019977629184722900390625" lon="20.01047040335834026336669921875">
        <ele>1911.5999755859375</ele>
        <time>2026-06-19T09:36:13.000Z</time>
        <extensions>
          <ns3:TrackPointExtension>
            <ns3:atemp>21.0</ns3:atemp>
          </ns3:TrackPointExtension>
        </extensions>
      </trkpt>
      <trkpt lat="42.516019977629184722900390625" lon="20.01047040335834026336669921875">
        <ele>1911.5999755859375</ele>
        <time>2026-06-19T09:36:14.000Z</time>
        <extensions>
          <ns3:TrackPointExtension>
            <ns3:atemp>21.0</ns3:atemp>
          </ns3:TrackPointExtension>
        </extensions>
      </trkpt>
      <trkpt lat="42.516019977629184722900390625" lon="20.01047040335834026336669921875">
        <ele>1911.5999755859375</ele>
        <time>2026-06-19T09:36:15.000Z</time>
        <extensions>
          <ns3:TrackPointExtension>
            <ns3:atemp>21.0</ns3:atemp>
          </ns3:TrackPointExtension>
        </extensions>
      </trkpt>
      <trkpt lat="42.516019977629184722900390625" lon="20.01047040335834026336669921875">
        <ele>1911.5999755859375</ele>
        <time>2026-06-19T09:36:16.000Z</time>
        <extensions>
          <ns3:TrackPointExtension>
            <ns3:atemp>21.0</ns3:atemp>
          </ns3:TrackPointExtension>
        </extensions>
      </trkpt>
      <trkpt lat="42.516019977629184722900390625" lon="20.01047040335834026336669921875">
        <ele>1911.5999755859375</ele>
        <time>2026-06-19T09:36:17.000Z</time>
        <extensions>
          <ns3:TrackPointExtension>
            <ns3:atemp>21.0</ns3:atemp>
          </ns3:TrackPointExtension>
        </extensions>
      </trkpt>
      <trkpt lat="42.516019977629184722900390625" lon="20.01047040335834026336669921875">
        <ele>1911.5999755859375</ele>
        <time>2026-06-19T09:36:18.000Z</time>
        <extensions>
          <ns3:TrackPointExtension>
            <ns3:atemp>21.0</ns3:atemp>
          </ns3:TrackPointExtension>
        </extensions>
      </trkpt>
      <trkpt lat="42.516019977629184722900390625" lon="20.01047040335834026336669921875">
        <ele>1911.5999755859375</ele>
        <time>2026-06-19T09:36:19.000Z</time>
        <extensions>
          <ns3:TrackPointExtension>
            <ns3:atemp>21.0</ns3:atemp>
          </ns3:TrackPointExtension>
        </extensions>
      </trkpt>
      <trkpt lat="42.516019977629184722900390625" lon="20.01047040335834026336669921875">
        <ele>1911.5999755859375</ele>
        <time>2026-06-19T09:36:20.000Z</time>
        <extensions>
          <ns3:TrackPointExtension>
            <ns3:atemp>21.0</ns3:atemp>
          </ns3:TrackPointExtension>
        </extensions>
      </trkpt>
      <trkpt lat="42.516019977629184722900390625" lon="20.01047040335834026336669921875">
        <ele>1911.5999755859375</ele>
        <time>2026-06-19T09:36:21.000Z</time>
        <extensions>
          <ns3:TrackPointExtension>
            <ns3:atemp>21.0</ns3:atemp>
          </ns3:TrackPointExtension>
        </extensions>
      </trkpt>
      <trkpt lat="42.516019977629184722900390625" lon="20.01047040335834026336669921875">
        <ele>1911.5999755859375</ele>
        <time>2026-06-19T09:36:22.000Z</time>
        <extensions>
          <ns3:TrackPointExtension>
            <ns3:atemp>21.0</ns3:atemp>
          </ns3:TrackPointExtension>
        </extensions>
      </trkpt>
      <trkpt lat="42.516019977629184722900390625" lon="20.01047040335834026336669921875">
        <ele>1911.5999755859375</ele>
        <time>2026-06-19T09:36:23.000Z</time>
        <extensions>
          <ns3:TrackPointExtension>
            <ns3:atemp>21.0</ns3:atemp>
          </ns3:TrackPointExtension>
        </extensions>
      </trkpt>
      <trkpt lat="42.516019977629184722900390625" lon="20.01047040335834026336669921875">
        <ele>1911.5999755859375</ele>
        <time>2026-06-19T09:36:24.000Z</time>
        <extensions>
          <ns3:TrackPointExtension>
            <ns3:atemp>21.0</ns3:atemp>
          </ns3:TrackPointExtension>
        </extensions>
      </trkpt>
      <trkpt lat="42.516019977629184722900390625" lon="20.01047040335834026336669921875">
        <ele>1911.5999755859375</ele>
        <time>2026-06-19T09:36:25.000Z</time>
        <extensions>
          <ns3:TrackPointExtension>
            <ns3:atemp>21.0</ns3:atemp>
          </ns3:TrackPointExtension>
        </extensions>
      </trkpt>
      <trkpt lat="42.516019977629184722900390625" lon="20.01047040335834026336669921875">
        <ele>1911.5999755859375</ele>
        <time>2026-06-19T09:36:26.000Z</time>
        <extensions>
          <ns3:TrackPointExtension>
            <ns3:atemp>21.0</ns3:atemp>
          </ns3:TrackPointExtension>
        </extensions>
      </trkpt>
      <trkpt lat="42.516019977629184722900390625" lon="20.01047040335834026336669921875">
        <ele>1911.5999755859375</ele>
        <time>2026-06-19T09:36:27.000Z</time>
        <extensions>
          <ns3:TrackPointExtension>
            <ns3:atemp>21.0</ns3:atemp>
          </ns3:TrackPointExtension>
        </extensions>
      </trkpt>
      <trkpt lat="42.516019977629184722900390625" lon="20.01047040335834026336669921875">
        <ele>1911.5999755859375</ele>
        <time>2026-06-19T09:36:28.000Z</time>
        <extensions>
          <ns3:TrackPointExtension>
            <ns3:atemp>21.0</ns3:atemp>
          </ns3:TrackPointExtension>
        </extensions>
      </trkpt>
      <trkpt lat="42.516019977629184722900390625" lon="20.01047040335834026336669921875">
        <ele>1911.5999755859375</ele>
        <time>2026-06-19T09:36:29.000Z</time>
        <extensions>
          <ns3:TrackPointExtension>
            <ns3:atemp>21.0</ns3:atemp>
          </ns3:TrackPointExtension>
        </extensions>
      </trkpt>
      <trkpt lat="42.516019977629184722900390625" lon="20.01047040335834026336669921875">
        <ele>1911.5999755859375</ele>
        <time>2026-06-19T09:36:30.000Z</time>
        <extensions>
          <ns3:TrackPointExtension>
            <ns3:atemp>21.0</ns3:atemp>
          </ns3:TrackPointExtension>
        </extensions>
      </trkpt>
      <trkpt lat="42.516019977629184722900390625" lon="20.01047040335834026336669921875">
        <ele>1911.5999755859375</ele>
        <time>2026-06-19T09:36:31.000Z</time>
        <extensions>
          <ns3:TrackPointExtension>
            <ns3:atemp>21.0</ns3:atemp>
          </ns3:TrackPointExtension>
        </extensions>
      </trkpt>
      <trkpt lat="42.516019977629184722900390625" lon="20.01047040335834026336669921875">
        <ele>1911.5999755859375</ele>
        <time>2026-06-19T09:36:32.000Z</time>
        <extensions>
          <ns3:TrackPointExtension>
            <ns3:atemp>21.0</ns3:atemp>
          </ns3:TrackPointExtension>
        </extensions>
      </trkpt>
      <trkpt lat="42.516019977629184722900390625" lon="20.01047040335834026336669921875">
        <ele>1911.5999755859375</ele>
        <time>2026-06-19T09:36:33.000Z</time>
        <extensions>
          <ns3:TrackPointExtension>
            <ns3:atemp>21.0</ns3:atemp>
          </ns3:TrackPointExtension>
        </extensions>
      </trkpt>
      <trkpt lat="42.516019977629184722900390625" lon="20.01047040335834026336669921875">
        <ele>1911.5999755859375</ele>
        <time>2026-06-19T09:36:34.000Z</time>
        <extensions>
          <ns3:TrackPointExtension>
            <ns3:atemp>21.0</ns3:atemp>
          </ns3:TrackPointExtension>
        </extensions>
      </trkpt>
      <trkpt lat="42.516019977629184722900390625" lon="20.01047040335834026336669921875">
        <ele>1911.5999755859375</ele>
        <time>2026-06-19T09:36:35.000Z</time>
        <extensions>
          <ns3:TrackPointExtension>
            <ns3:atemp>21.0</ns3:atemp>
          </ns3:TrackPointExtension>
        </extensions>
      </trkpt>
      <trkpt lat="42.516019977629184722900390625" lon="20.01047040335834026336669921875">
        <ele>1911.5999755859375</ele>
        <time>2026-06-19T09:36:36.000Z</time>
        <extensions>
          <ns3:TrackPointExtension>
            <ns3:atemp>21.0</ns3:atemp>
          </ns3:TrackPointExtension>
        </extensions>
      </trkpt>
      <trkpt lat="42.516019977629184722900390625" lon="20.01047040335834026336669921875">
        <ele>1911.5999755859375</ele>
        <time>2026-06-19T09:36:37.000Z</time>
        <extensions>
          <ns3:TrackPointExtension>
            <ns3:atemp>21.0</ns3:atemp>
          </ns3:TrackPointExtension>
        </extensions>
      </trkpt>
      <trkpt lat="42.516019977629184722900390625" lon="20.01047040335834026336669921875">
        <ele>1911.5999755859375</ele>
        <time>2026-06-19T09:36:38.000Z</time>
        <extensions>
          <ns3:TrackPointExtension>
            <ns3:atemp>21.0</ns3:atemp>
          </ns3:TrackPointExtension>
        </extensions>
      </trkpt>
      <trkpt lat="42.516019977629184722900390625" lon="20.01047040335834026336669921875">
        <ele>1911.5999755859375</ele>
        <time>2026-06-19T09:36:39.000Z</time>
        <extensions>
          <ns3:TrackPointExtension>
            <ns3:atemp>21.0</ns3:atemp>
          </ns3:TrackPointExtension>
        </extensions>
      </trkpt>
      <trkpt lat="42.516019977629184722900390625" lon="20.01047040335834026336669921875">
        <ele>1911.5999755859375</ele>
        <time>2026-06-19T09:36:40.000Z</time>
        <extensions>
          <ns3:TrackPointExtension>
            <ns3:atemp>21.0</ns3:atemp>
          </ns3:TrackPointExtension>
        </extensions>
      </trkpt>
      <trkpt lat="42.516019977629184722900390625" lon="20.01047040335834026336669921875">
        <ele>1911.5999755859375</ele>
        <time>2026-06-19T09:36:41.000Z</time>
        <extensions>
          <ns3:TrackPointExtension>
            <ns3:atemp>21.0</ns3:atemp>
          </ns3:TrackPointExtension>
        </extensions>
      </trkpt>
      <trkpt lat="42.516019977629184722900390625" lon="20.01047040335834026336669921875">
        <ele>1911.5999755859375</ele>
        <time>2026-06-19T09:36:42.000Z</time>
        <extensions>
          <ns3:TrackPointExtension>
            <ns3:atemp>21.0</ns3:atemp>
          </ns3:TrackPointExtension>
        </extensions>
      </trkpt>
      <trkpt lat="42.516019977629184722900390625" lon="20.01047040335834026336669921875">
        <ele>1911.5999755859375</ele>
        <time>2026-06-19T09:36:43.000Z</time>
        <extensions>
          <ns3:TrackPointExtension>
            <ns3:atemp>21.0</ns3:atemp>
          </ns3:TrackPointExtension>
        </extensions>
      </trkpt>
      <trkpt lat="42.516019977629184722900390625" lon="20.01047040335834026336669921875">
        <ele>1911.5999755859375</ele>
        <time>2026-06-19T09:36:44.000Z</time>
        <extensions>
          <ns3:TrackPointExtension>
            <ns3:atemp>21.0</ns3:atemp>
          </ns3:TrackPointExtension>
        </extensions>
      </trkpt>
      <trkpt lat="42.516019977629184722900390625" lon="20.01047040335834026336669921875">
        <ele>1911.5999755859375</ele>
        <time>2026-06-19T09:36:45.000Z</time>
        <extensions>
          <ns3:TrackPointExtension>
            <ns3:atemp>21.0</ns3:atemp>
          </ns3:TrackPointExtension>
        </extensions>
      </trkpt>
      <trkpt lat="42.516019977629184722900390625" lon="20.01047040335834026336669921875">
        <ele>1911.5999755859375</ele>
        <time>2026-06-19T09:36:46.000Z</time>
        <extensions>
          <ns3:TrackPointExtension>
            <ns3:atemp>21.0</ns3:atemp>
          </ns3:TrackPointExtension>
        </extensions>
      </trkpt>
      <trkpt lat="42.516019977629184722900390625" lon="20.01047040335834026336669921875">
        <ele>1911.5999755859375</ele>
        <time>2026-06-19T09:36:47.000Z</time>
        <extensions>
          <ns3:TrackPointExtension>
            <ns3:atemp>21.0</ns3:atemp>
          </ns3:TrackPointExtension>
        </extensions>
      </trkpt>
      <trkpt lat="42.516019977629184722900390625" lon="20.01047040335834026336669921875">
        <ele>1911.5999755859375</ele>
        <time>2026-06-19T09:36:48.000Z</time>
        <extensions>
          <ns3:TrackPointExtension>
            <ns3:atemp>21.0</ns3:atemp>
          </ns3:TrackPointExtension>
        </extensions>
      </trkpt>
      <trkpt lat="42.516019977629184722900390625" lon="20.01047040335834026336669921875">
        <ele>1911.5999755859375</ele>
        <time>2026-06-19T09:36:49.000Z</time>
        <extensions>
          <ns3:TrackPointExtension>
            <ns3:atemp>21.0</ns3:atemp>
          </ns3:TrackPointExtension>
        </extensions>
      </trkpt>
      <trkpt lat="42.516019977629184722900390625" lon="20.01047040335834026336669921875">
        <ele>1911.5999755859375</ele>
        <time>2026-06-19T09:36:50.000Z</time>
        <extensions>
          <ns3:TrackPointExtension>
            <ns3:atemp>21.0</ns3:atemp>
          </ns3:TrackPointExtension>
        </extensions>
      </trkpt>
      <trkpt lat="42.516019977629184722900390625" lon="20.01047040335834026336669921875">
        <ele>1911.5999755859375</ele>
        <time>2026-06-19T09:36:51.000Z</time>
        <extensions>
          <ns3:TrackPointExtension>
            <ns3:atemp>21.0</ns3:atemp>
          </ns3:TrackPointExtension>
        </extensions>
      </trkpt>
      <trkpt lat="42.516019977629184722900390625" lon="20.01047040335834026336669921875">
        <ele>1911.5999755859375</ele>
        <time>2026-06-19T09:36:52.000Z</time>
        <extensions>
          <ns3:TrackPointExtension>
            <ns3:atemp>21.0</ns3:atemp>
          </ns3:TrackPointExtension>
        </extensions>
      </trkpt>
      <trkpt lat="42.516019977629184722900390625" lon="20.01047040335834026336669921875">
        <ele>1911.5999755859375</ele>
        <time>2026-06-19T09:36:53.000Z</time>
        <extensions>
          <ns3:TrackPointExtension>
            <ns3:atemp>21.0</ns3:atemp>
          </ns3:TrackPointExtension>
        </extensions>
      </trkpt>
      <trkpt lat="42.516019977629184722900390625" lon="20.01047040335834026336669921875">
        <ele>1911.5999755859375</ele>
        <time>2026-06-19T09:36:54.000Z</time>
        <extensions>
          <ns3:TrackPointExtension>
            <ns3:atemp>21.0</ns3:atemp>
          </ns3:TrackPointExtension>
        </extensions>
      </trkpt>
      <trkpt lat="42.516019977629184722900390625" lon="20.01047040335834026336669921875">
        <ele>1911.5999755859375</ele>
        <time>2026-06-19T09:36:55.000Z</time>
        <extensions>
          <ns3:TrackPointExtension>
            <ns3:atemp>21.0</ns3:atemp>
          </ns3:TrackPointExtension>
        </extensions>
      </trkpt>
      <trkpt lat="42.516019977629184722900390625" lon="20.01047040335834026336669921875">
        <ele>1911.5999755859375</ele>
        <time>2026-06-19T09:36:56.000Z</time>
        <extensions>
          <ns3:TrackPointExtension>
            <ns3:atemp>21.0</ns3:atemp>
          </ns3:TrackPointExtension>
        </extensions>
      </trkpt>
      <trkpt lat="42.516019977629184722900390625" lon="20.01047040335834026336669921875">
        <ele>1911.5999755859375</ele>
        <time>2026-06-19T09:36:57.000Z</time>
        <extensions>
          <ns3:TrackPointExtension>
            <ns3:atemp>21.0</ns3:atemp>
          </ns3:TrackPointExtension>
        </extensions>
      </trkpt>
      <trkpt lat="42.516019977629184722900390625" lon="20.01047040335834026336669921875">
        <ele>1911.5999755859375</ele>
        <time>2026-06-19T09:36:58.000Z</time>
        <extensions>
          <ns3:TrackPointExtension>
            <ns3:atemp>21.0</ns3:atemp>
          </ns3:TrackPointExtension>
        </extensions>
      </trkpt>
      <trkpt lat="42.516019977629184722900390625" lon="20.01047040335834026336669921875">
        <ele>1911.5999755859375</ele>
        <time>2026-06-19T09:36:59.000Z</time>
        <extensions>
          <ns3:TrackPointExtension>
            <ns3:atemp>21.0</ns3:atemp>
          </ns3:TrackPointExtension>
        </extensions>
      </trkpt>
      <trkpt lat="42.516019977629184722900390625" lon="20.01047040335834026336669921875">
        <ele>1911.5999755859375</ele>
        <time>2026-06-19T09:37:00.000Z</time>
        <extensions>
          <ns3:TrackPointExtension>
            <ns3:atemp>21.0</ns3:atemp>
          </ns3:TrackPointExtension>
        </extensions>
      </trkpt>
      <trkpt lat="42.516019977629184722900390625" lon="20.01047040335834026336669921875">
        <ele>1911.5999755859375</ele>
        <time>2026-06-19T09:37:01.000Z</time>
        <extensions>
          <ns3:TrackPointExtension>
            <ns3:atemp>21.0</ns3:atemp>
          </ns3:TrackPointExtension>
        </extensions>
      </trkpt>
      <trkpt lat="42.516019977629184722900390625" lon="20.01047040335834026336669921875">
        <ele>1911.5999755859375</ele>
        <time>2026-06-19T09:37:02.000Z</time>
        <extensions>
          <ns3:TrackPointExtension>
            <ns3:atemp>21.0</ns3:atemp>
          </ns3:TrackPointExtension>
        </extensions>
      </trkpt>
      <trkpt lat="42.516019977629184722900390625" lon="20.01047040335834026336669921875">
        <ele>1911.5999755859375</ele>
        <time>2026-06-19T09:37:03.000Z</time>
        <extensions>
          <ns3:TrackPointExtension>
            <ns3:atemp>21.0</ns3:atemp>
          </ns3:TrackPointExtension>
        </extensions>
      </trkpt>
      <trkpt lat="42.516019977629184722900390625" lon="20.01047040335834026336669921875">
        <ele>1911.5999755859375</ele>
        <time>2026-06-19T09:37:04.000Z</time>
        <extensions>
          <ns3:TrackPointExtension>
            <ns3:atemp>21.0</ns3:atemp>
          </ns3:TrackPointExtension>
        </extensions>
      </trkpt>
      <trkpt lat="42.516019977629184722900390625" lon="20.01047040335834026336669921875">
        <ele>1911.5999755859375</ele>
        <time>2026-06-19T09:37:05.000Z</time>
        <extensions>
          <ns3:TrackPointExtension>
            <ns3:atemp>21.0</ns3:atemp>
          </ns3:TrackPointExtension>
        </extensions>
      </trkpt>
      <trkpt lat="42.516019977629184722900390625" lon="20.01047040335834026336669921875">
        <ele>1911.5999755859375</ele>
        <time>2026-06-19T09:37:06.000Z</time>
        <extensions>
          <ns3:TrackPointExtension>
            <ns3:atemp>21.0</ns3:atemp>
          </ns3:TrackPointExtension>
        </extensions>
      </trkpt>
      <trkpt lat="42.516019977629184722900390625" lon="20.01047040335834026336669921875">
        <ele>1911.5999755859375</ele>
        <time>2026-06-19T09:37:07.000Z</time>
        <extensions>
          <ns3:TrackPointExtension>
            <ns3:atemp>21.0</ns3:atemp>
          </ns3:TrackPointExtension>
        </extensions>
      </trkpt>
      <trkpt lat="42.516019977629184722900390625" lon="20.01047040335834026336669921875">
        <ele>1911.5999755859375</ele>
        <time>2026-06-19T09:37:08.000Z</time>
        <extensions>
          <ns3:TrackPointExtension>
            <ns3:atemp>21.0</ns3:atemp>
          </ns3:TrackPointExtension>
        </extensions>
      </trkpt>
      <trkpt lat="42.516019977629184722900390625" lon="20.01047040335834026336669921875">
        <ele>1911.5999755859375</ele>
        <time>2026-06-19T09:37:09.000Z</time>
        <extensions>
          <ns3:TrackPointExtension>
            <ns3:atemp>21.0</ns3:atemp>
          </ns3:TrackPointExtension>
        </extensions>
      </trkpt>
      <trkpt lat="42.516019977629184722900390625" lon="20.01047040335834026336669921875">
        <ele>1911.5999755859375</ele>
        <time>2026-06-19T09:37:10.000Z</time>
        <extensions>
          <ns3:TrackPointExtension>
            <ns3:atemp>21.0</ns3:atemp>
          </ns3:TrackPointExtension>
        </extensions>
      </trkpt>
      <trkpt lat="42.516019977629184722900390625" lon="20.01047040335834026336669921875">
        <ele>1911.5999755859375</ele>
        <time>2026-06-19T09:37:11.000Z</time>
        <extensions>
          <ns3:TrackPointExtension>
            <ns3:atemp>21.0</ns3:atemp>
          </ns3:TrackPointExtension>
        </extensions>
      </trkpt>
      <trkpt lat="42.516019977629184722900390625" lon="20.01047040335834026336669921875">
        <ele>1911.5999755859375</ele>
        <time>2026-06-19T09:37:12.000Z</time>
        <extensions>
          <ns3:TrackPointExtension>
            <ns3:atemp>21.0</ns3:atemp>
          </ns3:TrackPointExtension>
        </extensions>
      </trkpt>
      <trkpt lat="42.516019977629184722900390625" lon="20.01047040335834026336669921875">
        <ele>1911.5999755859375</ele>
        <time>2026-06-19T09:37:13.000Z</time>
        <extensions>
          <ns3:TrackPointExtension>
            <ns3:atemp>21.0</ns3:atemp>
          </ns3:TrackPointExtension>
        </extensions>
      </trkpt>
      <trkpt lat="42.516019977629184722900390625" lon="20.01047040335834026336669921875">
        <ele>1911.5999755859375</ele>
        <time>2026-06-19T09:37:14.000Z</time>
        <extensions>
          <ns3:TrackPointExtension>
            <ns3:atemp>21.0</ns3:atemp>
          </ns3:TrackPointExtension>
        </extensions>
      </trkpt>
      <trkpt lat="42.516019977629184722900390625" lon="20.01047040335834026336669921875">
        <ele>1911.5999755859375</ele>
        <time>2026-06-19T09:37:15.000Z</time>
        <extensions>
          <ns3:TrackPointExtension>
            <ns3:atemp>21.0</ns3:atemp>
          </ns3:TrackPointExtension>
        </extensions>
      </trkpt>
      <trkpt lat="42.516019977629184722900390625" lon="20.01047040335834026336669921875">
        <ele>1911.5999755859375</ele>
        <time>2026-06-19T09:37:16.000Z</time>
        <extensions>
          <ns3:TrackPointExtension>
            <ns3:atemp>21.0</ns3:atemp>
          </ns3:TrackPointExtension>
        </extensions>
      </trkpt>
      <trkpt lat="42.516019977629184722900390625" lon="20.01047040335834026336669921875">
        <ele>1911.5999755859375</ele>
        <time>2026-06-19T09:37:17.000Z</time>
        <extensions>
          <ns3:TrackPointExtension>
            <ns3:atemp>21.0</ns3:atemp>
          </ns3:TrackPointExtension>
        </extensions>
      </trkpt>
      <trkpt lat="42.516019977629184722900390625" lon="20.01047040335834026336669921875">
        <ele>1911.5999755859375</ele>
        <time>2026-06-19T09:37:18.000Z</time>
        <extensions>
          <ns3:TrackPointExtension>
            <ns3:atemp>21.0</ns3:atemp>
          </ns3:TrackPointExtension>
        </extensions>
      </trkpt>
      <trkpt lat="42.516019977629184722900390625" lon="20.01047040335834026336669921875">
        <ele>1911.5999755859375</ele>
        <time>2026-06-19T09:37:19.000Z</time>
        <extensions>
          <ns3:TrackPointExtension>
            <ns3:atemp>21.0</ns3:atemp>
          </ns3:TrackPointExtension>
        </extensions>
      </trkpt>
      <trkpt lat="42.516019977629184722900390625" lon="20.01047040335834026336669921875">
        <ele>1911.5999755859375</ele>
        <time>2026-06-19T09:37:20.000Z</time>
        <extensions>
          <ns3:TrackPointExtension>
            <ns3:atemp>21.0</ns3:atemp>
          </ns3:TrackPointExtension>
        </extensions>
      </trkpt>
      <trkpt lat="42.516019977629184722900390625" lon="20.01047040335834026336669921875">
        <ele>1911.5999755859375</ele>
        <time>2026-06-19T09:37:21.000Z</time>
        <extensions>
          <ns3:TrackPointExtension>
            <ns3:atemp>21.0</ns3:atemp>
          </ns3:TrackPointExtension>
        </extensions>
      </trkpt>
      <trkpt lat="42.516019977629184722900390625" lon="20.01047040335834026336669921875">
        <ele>1911.5999755859375</ele>
        <time>2026-06-19T09:37:22.000Z</time>
        <extensions>
          <ns3:TrackPointExtension>
            <ns3:atemp>21.0</ns3:atemp>
          </ns3:TrackPointExtension>
        </extensions>
      </trkpt>
      <trkpt lat="42.516019977629184722900390625" lon="20.01047040335834026336669921875">
        <ele>1911.5999755859375</ele>
        <time>2026-06-19T09:37:23.000Z</time>
        <extensions>
          <ns3:TrackPointExtension>
            <ns3:atemp>21.0</ns3:atemp>
          </ns3:TrackPointExtension>
        </extensions>
      </trkpt>
      <trkpt lat="42.516019977629184722900390625" lon="20.01047040335834026336669921875">
        <ele>1911.5999755859375</ele>
        <time>2026-06-19T09:37:24.000Z</time>
        <extensions>
          <ns3:TrackPointExtension>
            <ns3:atemp>21.0</ns3:atemp>
          </ns3:TrackPointExtension>
        </extensions>
      </trkpt>
      <trkpt lat="42.516019977629184722900390625" lon="20.01047040335834026336669921875">
        <ele>1911.5999755859375</ele>
        <time>2026-06-19T09:37:25.000Z</time>
        <extensions>
          <ns3:TrackPointExtension>
            <ns3:atemp>21.0</ns3:atemp>
          </ns3:TrackPointExtension>
        </extensions>
      </trkpt>
      <trkpt lat="42.516019977629184722900390625" lon="20.01047040335834026336669921875">
        <ele>1911.5999755859375</ele>
        <time>2026-06-19T09:37:26.000Z</time>
        <extensions>
          <ns3:TrackPointExtension>
            <ns3:atemp>21.0</ns3:atemp>
          </ns3:TrackPointExtension>
        </extensions>
      </trkpt>
      <trkpt lat="42.516019977629184722900390625" lon="20.01047040335834026336669921875">
        <ele>1911.5999755859375</ele>
        <time>2026-06-19T09:37:27.000Z</time>
        <extensions>
          <ns3:TrackPointExtension>
            <ns3:atemp>21.0</ns3:atemp>
          </ns3:TrackPointExtension>
        </extensions>
      </trkpt>
      <trkpt lat="42.516019977629184722900390625" lon="20.01047040335834026336669921875">
        <ele>1911.5999755859375</ele>
        <time>2026-06-19T09:37:28.000Z</time>
        <extensions>
          <ns3:TrackPointExtension>
            <ns3:atemp>21.0</ns3:atemp>
          </ns3:TrackPointExtension>
        </extensions>
      </trkpt>
      <trkpt lat="42.516019977629184722900390625" lon="20.01047040335834026336669921875">
        <ele>1911.5999755859375</ele>
        <time>2026-06-19T09:37:29.000Z</time>
        <extensions>
          <ns3:TrackPointExtension>
            <ns3:atemp>21.0</ns3:atemp>
          </ns3:TrackPointExtension>
        </extensions>
      </trkpt>
      <trkpt lat="42.516019977629184722900390625" lon="20.01047040335834026336669921875">
        <ele>1911.5999755859375</ele>
        <time>2026-06-19T09:37:30.000Z</time>
        <extensions>
          <ns3:TrackPointExtension>
            <ns3:atemp>21.0</ns3:atemp>
          </ns3:TrackPointExtension>
        </extensions>
      </trkpt>
      <trkpt lat="42.516019977629184722900390625" lon="20.01047040335834026336669921875">
        <ele>1911.5999755859375</ele>
        <time>2026-06-19T09:37:31.000Z</time>
        <extensions>
          <ns3:TrackPointExtension>
            <ns3:atemp>21.0</ns3:atemp>
          </ns3:TrackPointExtension>
        </extensions>
      </trkpt>
      <trkpt lat="42.516019977629184722900390625" lon="20.01047040335834026336669921875">
        <ele>1911.5999755859375</ele>
        <time>2026-06-19T09:37:32.000Z</time>
        <extensions>
          <ns3:TrackPointExtension>
            <ns3:atemp>21.0</ns3:atemp>
          </ns3:TrackPointExtension>
        </extensions>
      </trkpt>
      <trkpt lat="42.516019977629184722900390625" lon="20.01047040335834026336669921875">
        <ele>1911.5999755859375</ele>
        <time>2026-06-19T09:37:33.000Z</time>
        <extensions>
          <ns3:TrackPointExtension>
            <ns3:atemp>21.0</ns3:atemp>
          </ns3:TrackPointExtension>
        </extensions>
      </trkpt>
      <trkpt lat="42.516019977629184722900390625" lon="20.01047040335834026336669921875">
        <ele>1911.5999755859375</ele>
        <time>2026-06-19T09:37:34.000Z</time>
        <extensions>
          <ns3:TrackPointExtension>
            <ns3:atemp>21.0</ns3:atemp>
          </ns3:TrackPointExtension>
        </extensions>
      </trkpt>
      <trkpt lat="42.516019977629184722900390625" lon="20.01047040335834026336669921875">
        <ele>1911.5999755859375</ele>
        <time>2026-06-19T09:37:35.000Z</time>
        <extensions>
          <ns3:TrackPointExtension>
            <ns3:atemp>21.0</ns3:atemp>
          </ns3:TrackPointExtension>
        </extensions>
      </trkpt>
      <trkpt lat="42.516019977629184722900390625" lon="20.01047040335834026336669921875">
        <ele>1911.5999755859375</ele>
        <time>2026-06-19T09:37:36.000Z</time>
        <extensions>
          <ns3:TrackPointExtension>
            <ns3:atemp>21.0</ns3:atemp>
          </ns3:TrackPointExtension>
        </extensions>
      </trkpt>
      <trkpt lat="42.516019977629184722900390625" lon="20.01047040335834026336669921875">
        <ele>1911.5999755859375</ele>
        <time>2026-06-19T09:37:37.000Z</time>
        <extensions>
          <ns3:TrackPointExtension>
            <ns3:atemp>21.0</ns3:atemp>
          </ns3:TrackPointExtension>
        </extensions>
      </trkpt>
      <trkpt lat="42.516019977629184722900390625" lon="20.01047040335834026336669921875">
        <ele>1911.5999755859375</ele>
        <time>2026-06-19T09:37:38.000Z</time>
        <extensions>
          <ns3:TrackPointExtension>
            <ns3:atemp>21.0</ns3:atemp>
          </ns3:TrackPointExtension>
        </extensions>
      </trkpt>
      <trkpt lat="42.516019977629184722900390625" lon="20.01047040335834026336669921875">
        <ele>1911.5999755859375</ele>
        <time>2026-06-19T09:37:39.000Z</time>
        <extensions>
          <ns3:TrackPointExtension>
            <ns3:atemp>21.0</ns3:atemp>
          </ns3:TrackPointExtension>
        </extensions>
      </trkpt>
      <trkpt lat="42.516019977629184722900390625" lon="20.01047040335834026336669921875">
        <ele>1911.5999755859375</ele>
        <time>2026-06-19T09:37:40.000Z</time>
        <extensions>
          <ns3:TrackPointExtension>
            <ns3:atemp>21.0</ns3:atemp>
          </ns3:TrackPointExtension>
        </extensions>
      </trkpt>
      <trkpt lat="42.516019977629184722900390625" lon="20.01047040335834026336669921875">
        <ele>1911.5999755859375</ele>
        <time>2026-06-19T09:37:41.000Z</time>
        <extensions>
          <ns3:TrackPointExtension>
            <ns3:atemp>21.0</ns3:atemp>
          </ns3:TrackPointExtension>
        </extensions>
      </trkpt>
      <trkpt lat="42.516019977629184722900390625" lon="20.01047040335834026336669921875">
        <ele>1911.5999755859375</ele>
        <time>2026-06-19T09:37:42.000Z</time>
        <extensions>
          <ns3:TrackPointExtension>
            <ns3:atemp>21.0</ns3:atemp>
          </ns3:TrackPointExtension>
        </extensions>
      </trkpt>
      <trkpt lat="42.516019977629184722900390625" lon="20.01047040335834026336669921875">
        <ele>1911.5999755859375</ele>
        <time>2026-06-19T09:37:43.000Z</time>
        <extensions>
          <ns3:TrackPointExtension>
            <ns3:atemp>21.0</ns3:atemp>
          </ns3:TrackPointExtension>
        </extensions>
      </trkpt>
      <trkpt lat="42.516019977629184722900390625" lon="20.01047040335834026336669921875">
        <ele>1911.5999755859375</ele>
        <time>2026-06-19T09:37:44.000Z</time>
        <extensions>
          <ns3:TrackPointExtension>
            <ns3:atemp>21.0</ns3:atemp>
          </ns3:TrackPointExtension>
        </extensions>
      </trkpt>
      <trkpt lat="42.516019977629184722900390625" lon="20.01047040335834026336669921875">
        <ele>1911.5999755859375</ele>
        <time>2026-06-19T09:37:45.000Z</time>
        <extensions>
          <ns3:TrackPointExtension>
            <ns3:atemp>21.0</ns3:atemp>
          </ns3:TrackPointExtension>
        </extensions>
      </trkpt>
      <trkpt lat="42.516019977629184722900390625" lon="20.01047040335834026336669921875">
        <ele>1911.5999755859375</ele>
        <time>2026-06-19T09:37:46.000Z</time>
        <extensions>
          <ns3:TrackPointExtension>
            <ns3:atemp>21.0</ns3:atemp>
          </ns3:TrackPointExtension>
        </extensions>
      </trkpt>
      <trkpt lat="42.516019977629184722900390625" lon="20.01047040335834026336669921875">
        <ele>1911.5999755859375</ele>
        <time>2026-06-19T09:37:47.000Z</time>
        <extensions>
          <ns3:TrackPointExtension>
            <ns3:atemp>21.0</ns3:atemp>
          </ns3:TrackPointExtension>
        </extensions>
      </trkpt>
      <trkpt lat="42.516019977629184722900390625" lon="20.01047040335834026336669921875">
        <ele>1911.5999755859375</ele>
        <time>2026-06-19T09:37:48.000Z</time>
        <extensions>
          <ns3:TrackPointExtension>
            <ns3:atemp>21.0</ns3:atemp>
          </ns3:TrackPointExtension>
        </extensions>
      </trkpt>
      <trkpt lat="42.516019977629184722900390625" lon="20.01047040335834026336669921875">
        <ele>1911.5999755859375</ele>
        <time>2026-06-19T09:37:49.000Z</time>
        <extensions>
          <ns3:TrackPointExtension>
            <ns3:atemp>21.0</ns3:atemp>
          </ns3:TrackPointExtension>
        </extensions>
      </trkpt>
      <trkpt lat="42.516019977629184722900390625" lon="20.01047040335834026336669921875">
        <ele>1911.5999755859375</ele>
        <time>2026-06-19T09:37:50.000Z</time>
        <extensions>
          <ns3:TrackPointExtension>
            <ns3:atemp>21.0</ns3:atemp>
          </ns3:TrackPointExtension>
        </extensions>
      </trkpt>
      <trkpt lat="42.516019977629184722900390625" lon="20.01047040335834026336669921875">
        <ele>1911.5999755859375</ele>
        <time>2026-06-19T09:37:51.000Z</time>
        <extensions>
          <ns3:TrackPointExtension>
            <ns3:atemp>21.0</ns3:atemp>
          </ns3:TrackPointExtension>
        </extensions>
      </trkpt>
      <trkpt lat="42.516019977629184722900390625" lon="20.01047040335834026336669921875">
        <ele>1911.5999755859375</ele>
        <time>2026-06-19T09:37:52.000Z</time>
        <extensions>
          <ns3:TrackPointExtension>
            <ns3:atemp>21.0</ns3:atemp>
          </ns3:TrackPointExtension>
        </extensions>
      </trkpt>
      <trkpt lat="42.516019977629184722900390625" lon="20.01047040335834026336669921875">
        <ele>1911.5999755859375</ele>
        <time>2026-06-19T09:37:53.000Z</time>
        <extensions>
          <ns3:TrackPointExtension>
            <ns3:atemp>21.0</ns3:atemp>
          </ns3:TrackPointExtension>
        </extensions>
      </trkpt>
      <trkpt lat="42.516019977629184722900390625" lon="20.01047040335834026336669921875">
        <ele>1911.5999755859375</ele>
        <time>2026-06-19T09:37:54.000Z</time>
        <extensions>
          <ns3:TrackPointExtension>
            <ns3:atemp>21.0</ns3:atemp>
          </ns3:TrackPointExtension>
        </extensions>
      </trkpt>
      <trkpt lat="42.516019977629184722900390625" lon="20.01047040335834026336669921875">
        <ele>1911.5999755859375</ele>
        <time>2026-06-19T09:37:55.000Z</time>
        <extensions>
          <ns3:TrackPointExtension>
            <ns3:atemp>21.0</ns3:atemp>
          </ns3:TrackPointExtension>
        </extensions>
      </trkpt>
      <trkpt lat="42.516019977629184722900390625" lon="20.01047040335834026336669921875">
        <ele>1911.5999755859375</ele>
        <time>2026-06-19T09:37:56.000Z</time>
        <extensions>
          <ns3:TrackPointExtension>
            <ns3:atemp>21.0</ns3:atemp>
          </ns3:TrackPointExtension>
        </extensions>
      </trkpt>
      <trkpt lat="42.516019977629184722900390625" lon="20.01047040335834026336669921875">
        <ele>1911.5999755859375</ele>
        <time>2026-06-19T09:37:57.000Z</time>
        <extensions>
          <ns3:TrackPointExtension>
            <ns3:atemp>21.0</ns3:atemp>
          </ns3:TrackPointExtension>
        </extensions>
      </trkpt>
      <trkpt lat="42.516019977629184722900390625" lon="20.01047040335834026336669921875">
        <ele>1911.5999755859375</ele>
        <time>2026-06-19T09:37:58.000Z</time>
        <extensions>
          <ns3:TrackPointExtension>
            <ns3:atemp>21.0</ns3:atemp>
          </ns3:TrackPointExtension>
        </extensions>
      </trkpt>
      <trkpt lat="42.516019977629184722900390625" lon="20.01047040335834026336669921875">
        <ele>1911.5999755859375</ele>
        <time>2026-06-19T09:37:59.000Z</time>
        <extensions>
          <ns3:TrackPointExtension>
            <ns3:atemp>21.0</ns3:atemp>
          </ns3:TrackPointExtension>
        </extensions>
      </trkpt>
      <trkpt lat="42.516019977629184722900390625" lon="20.01047040335834026336669921875">
        <ele>1911.5999755859375</ele>
        <time>2026-06-19T09:38:00.000Z</time>
        <extensions>
          <ns3:TrackPointExtension>
            <ns3:atemp>21.0</ns3:atemp>
          </ns3:TrackPointExtension>
        </extensions>
      </trkpt>
      <trkpt lat="42.516019977629184722900390625" lon="20.01047040335834026336669921875">
        <ele>1911.5999755859375</ele>
        <time>2026-06-19T09:38:01.000Z</time>
        <extensions>
          <ns3:TrackPointExtension>
            <ns3:atemp>21.0</ns3:atemp>
          </ns3:TrackPointExtension>
        </extensions>
      </trkpt>
      <trkpt lat="42.516019977629184722900390625" lon="20.01047040335834026336669921875">
        <ele>1911.5999755859375</ele>
        <time>2026-06-19T09:38:02.000Z</time>
        <extensions>
          <ns3:TrackPointExtension>
            <ns3:atemp>21.0</ns3:atemp>
          </ns3:TrackPointExtension>
        </extensions>
      </trkpt>
      <trkpt lat="42.516019977629184722900390625" lon="20.01047040335834026336669921875">
        <ele>1911.5999755859375</ele>
        <time>2026-06-19T09:38:03.000Z</time>
        <extensions>
          <ns3:TrackPointExtension>
            <ns3:atemp>21.0</ns3:atemp>
          </ns3:TrackPointExtension>
        </extensions>
      </trkpt>
      <trkpt lat="42.516019977629184722900390625" lon="20.01047040335834026336669921875">
        <ele>1911.5999755859375</ele>
        <time>2026-06-19T09:38:04.000Z</time>
        <extensions>
          <ns3:TrackPointExtension>
            <ns3:atemp>21.0</ns3:atemp>
          </ns3:TrackPointExtension>
        </extensions>
      </trkpt>
      <trkpt lat="42.516019977629184722900390625" lon="20.01047040335834026336669921875">
        <ele>1911.5999755859375</ele>
        <time>2026-06-19T09:38:05.000Z</time>
        <extensions>
          <ns3:TrackPointExtension>
            <ns3:atemp>21.0</ns3:atemp>
          </ns3:TrackPointExtension>
        </extensions>
      </trkpt>
      <trkpt lat="42.516019977629184722900390625" lon="20.01047040335834026336669921875">
        <ele>1911.5999755859375</ele>
        <time>2026-06-19T09:38:06.000Z</time>
        <extensions>
          <ns3:TrackPointExtension>
            <ns3:atemp>21.0</ns3:atemp>
          </ns3:TrackPointExtension>
        </extensions>
      </trkpt>
      <trkpt lat="42.516019977629184722900390625" lon="20.01047040335834026336669921875">
        <ele>1911.5999755859375</ele>
        <time>2026-06-19T09:38:07.000Z</time>
        <extensions>
          <ns3:TrackPointExtension>
            <ns3:atemp>21.0</ns3:atemp>
          </ns3:TrackPointExtension>
        </extensions>
      </trkpt>
      <trkpt lat="42.516019977629184722900390625" lon="20.01047040335834026336669921875">
        <ele>1911.5999755859375</ele>
        <time>2026-06-19T09:38:08.000Z</time>
        <extensions>
          <ns3:TrackPointExtension>
            <ns3:atemp>21.0</ns3:atemp>
          </ns3:TrackPointExtension>
        </extensions>
      </trkpt>
      <trkpt lat="42.516019977629184722900390625" lon="20.01047040335834026336669921875">
        <ele>1911.5999755859375</ele>
        <time>2026-06-19T09:38:09.000Z</time>
        <extensions>
          <ns3:TrackPointExtension>
            <ns3:atemp>21.0</ns3:atemp>
          </ns3:TrackPointExtension>
        </extensions>
      </trkpt>
      <trkpt lat="42.516019977629184722900390625" lon="20.01047040335834026336669921875">
        <ele>1911.5999755859375</ele>
        <time>2026-06-19T09:38:10.000Z</time>
        <extensions>
          <ns3:TrackPointExtension>
            <ns3:atemp>21.0</ns3:atemp>
          </ns3:TrackPointExtension>
        </extensions>
      </trkpt>
      <trkpt lat="42.516019977629184722900390625" lon="20.01047040335834026336669921875">
        <ele>1911.5999755859375</ele>
        <time>2026-06-19T09:38:11.000Z</time>
        <extensions>
          <ns3:TrackPointExtension>
            <ns3:atemp>21.0</ns3:atemp>
          </ns3:TrackPointExtension>
        </extensions>
      </trkpt>
      <trkpt lat="42.516019977629184722900390625" lon="20.01047040335834026336669921875">
        <ele>1911.5999755859375</ele>
        <time>2026-06-19T09:38:12.000Z</time>
        <extensions>
          <ns3:TrackPointExtension>
            <ns3:atemp>21.0</ns3:atemp>
          </ns3:TrackPointExtension>
        </extensions>
      </trkpt>
      <trkpt lat="42.516019977629184722900390625" lon="20.01047040335834026336669921875">
        <ele>1911.5999755859375</ele>
        <time>2026-06-19T09:38:13.000Z</time>
        <extensions>
          <ns3:TrackPointExtension>
            <ns3:atemp>21.0</ns3:atemp>
          </ns3:TrackPointExtension>
        </extensions>
      </trkpt>
      <trkpt lat="42.516019977629184722900390625" lon="20.01047040335834026336669921875">
        <ele>1911.5999755859375</ele>
        <time>2026-06-19T09:38:14.000Z</time>
        <extensions>
          <ns3:TrackPointExtension>
            <ns3:atemp>21.0</ns3:atemp>
          </ns3:TrackPointExtension>
        </extensions>
      </trkpt>
      <trkpt lat="42.516019977629184722900390625" lon="20.01047040335834026336669921875">
        <ele>1911.5999755859375</ele>
        <time>2026-06-19T09:38:15.000Z</time>
        <extensions>
          <ns3:TrackPointExtension>
            <ns3:atemp>21.0</ns3:atemp>
          </ns3:TrackPointExtension>
        </extensions>
      </trkpt>
      <trkpt lat="42.516019977629184722900390625" lon="20.01047040335834026336669921875">
        <ele>1911.5999755859375</ele>
        <time>2026-06-19T09:38:16.000Z</time>
        <extensions>
          <ns3:TrackPointExtension>
            <ns3:atemp>21.0</ns3:atemp>
          </ns3:TrackPointExtension>
        </extensions>
      </trkpt>
      <trkpt lat="42.516019977629184722900390625" lon="20.01047040335834026336669921875">
        <ele>1911.5999755859375</ele>
        <time>2026-06-19T09:38:17.000Z</time>
        <extensions>
          <ns3:TrackPointExtension>
            <ns3:atemp>21.0</ns3:atemp>
          </ns3:TrackPointExtension>
        </extensions>
      </trkpt>
      <trkpt lat="42.516019977629184722900390625" lon="20.01047040335834026336669921875">
        <ele>1911.5999755859375</ele>
        <time>2026-06-19T09:38:18.000Z</time>
        <extensions>
          <ns3:TrackPointExtension>
            <ns3:atemp>21.0</ns3:atemp>
          </ns3:TrackPointExtension>
        </extensions>
      </trkpt>
      <trkpt lat="42.516019977629184722900390625" lon="20.01047040335834026336669921875">
        <ele>1911.5999755859375</ele>
        <time>2026-06-19T09:38:19.000Z</time>
        <extensions>
          <ns3:TrackPointExtension>
            <ns3:atemp>21.0</ns3:atemp>
          </ns3:TrackPointExtension>
        </extensions>
      </trkpt>
      <trkpt lat="42.516019977629184722900390625" lon="20.01047040335834026336669921875">
        <ele>1911.5999755859375</ele>
        <time>2026-06-19T09:38:20.000Z</time>
        <extensions>
          <ns3:TrackPointExtension>
            <ns3:atemp>21.0</ns3:atemp>
          </ns3:TrackPointExtension>
        </extensions>
      </trkpt>
      <trkpt lat="42.516019977629184722900390625" lon="20.01047040335834026336669921875">
        <ele>1911.5999755859375</ele>
        <time>2026-06-19T09:38:21.000Z</time>
        <extensions>
          <ns3:TrackPointExtension>
            <ns3:atemp>21.0</ns3:atemp>
          </ns3:TrackPointExtension>
        </extensions>
      </trkpt>
      <trkpt lat="42.516019977629184722900390625" lon="20.01047040335834026336669921875">
        <ele>1911.5999755859375</ele>
        <time>2026-06-19T09:38:22.000Z</time>
        <extensions>
          <ns3:TrackPointExtension>
            <ns3:atemp>21.0</ns3:atemp>
          </ns3:TrackPointExtension>
        </extensions>
      </trkpt>
      <trkpt lat="42.516019977629184722900390625" lon="20.01047040335834026336669921875">
        <ele>1911.5999755859375</ele>
        <time>2026-06-19T09:38:23.000Z</time>
        <extensions>
          <ns3:TrackPointExtension>
            <ns3:atemp>21.0</ns3:atemp>
          </ns3:TrackPointExtension>
        </extensions>
      </trkpt>
      <trkpt lat="42.516019977629184722900390625" lon="20.01047040335834026336669921875">
        <ele>1911.5999755859375</ele>
        <time>2026-06-19T09:38:24.000Z</time>
        <extensions>
          <ns3:TrackPointExtension>
            <ns3:atemp>21.0</ns3:atemp>
          </ns3:TrackPointExtension>
        </extensions>
      </trkpt>
      <trkpt lat="42.516019977629184722900390625" lon="20.01047040335834026336669921875">
        <ele>1911.5999755859375</ele>
        <time>2026-06-19T09:38:25.000Z</time>
        <extensions>
          <ns3:TrackPointExtension>
            <ns3:atemp>21.0</ns3:atemp>
          </ns3:TrackPointExtension>
        </extensions>
      </trkpt>
      <trkpt lat="42.516019977629184722900390625" lon="20.01047040335834026336669921875">
        <ele>1911.5999755859375</ele>
        <time>2026-06-19T09:38:26.000Z</time>
        <extensions>
          <ns3:TrackPointExtension>
            <ns3:atemp>21.0</ns3:atemp>
          </ns3:TrackPointExtension>
        </extensions>
      </trkpt>
      <trkpt lat="42.516019977629184722900390625" lon="20.01047040335834026336669921875">
        <ele>1911.5999755859375</ele>
        <time>2026-06-19T09:38:27.000Z</time>
        <extensions>
          <ns3:TrackPointExtension>
            <ns3:atemp>21.0</ns3:atemp>
          </ns3:TrackPointExtension>
        </extensions>
      </trkpt>
      <trkpt lat="42.516019977629184722900390625" lon="20.01047040335834026336669921875">
        <ele>1911.5999755859375</ele>
        <time>2026-06-19T09:38:28.000Z</time>
        <extensions>
          <ns3:TrackPointExtension>
            <ns3:atemp>21.0</ns3:atemp>
          </ns3:TrackPointExtension>
        </extensions>
      </trkpt>
      <trkpt lat="42.516019977629184722900390625" lon="20.01047040335834026336669921875">
        <ele>1911.5999755859375</ele>
        <time>2026-06-19T09:38:29.000Z</time>
        <extensions>
          <ns3:TrackPointExtension>
            <ns3:atemp>21.0</ns3:atemp>
          </ns3:TrackPointExtension>
        </extensions>
      </trkpt>
      <trkpt lat="42.516019977629184722900390625" lon="20.01047040335834026336669921875">
        <ele>1911.5999755859375</ele>
        <time>2026-06-19T09:38:30.000Z</time>
        <extensions>
          <ns3:TrackPointExtension>
            <ns3:atemp>21.0</ns3:atemp>
          </ns3:TrackPointExtension>
        </extensions>
      </trkpt>
      <trkpt lat="42.516019977629184722900390625" lon="20.01047040335834026336669921875">
        <ele>1911.5999755859375</ele>
        <time>2026-06-19T09:38:31.000Z</time>
        <extensions>
          <ns3:TrackPointExtension>
            <ns3:atemp>21.0</ns3:atemp>
          </ns3:TrackPointExtension>
        </extensions>
      </trkpt>
      <trkpt lat="42.516019977629184722900390625" lon="20.01047040335834026336669921875">
        <ele>1911.5999755859375</ele>
        <time>2026-06-19T09:38:32.000Z</time>
        <extensions>
          <ns3:TrackPointExtension>
            <ns3:atemp>21.0</ns3:atemp>
          </ns3:TrackPointExtension>
        </extensions>
      </trkpt>
      <trkpt lat="42.516019977629184722900390625" lon="20.01047040335834026336669921875">
        <ele>1911.5999755859375</ele>
        <time>2026-06-19T09:38:33.000Z</time>
        <extensions>
          <ns3:TrackPointExtension>
            <ns3:atemp>21.0</ns3:atemp>
          </ns3:TrackPointExtension>
        </extensions>
      </trkpt>
      <trkpt lat="42.516019977629184722900390625" lon="20.01047040335834026336669921875">
        <ele>1911.5999755859375</ele>
        <time>2026-06-19T09:38:34.000Z</time>
        <extensions>
          <ns3:TrackPointExtension>
            <ns3:atemp>21.0</ns3:atemp>
          </ns3:TrackPointExtension>
        </extensions>
      </trkpt>
      <trkpt lat="42.516019977629184722900390625" lon="20.01047040335834026336669921875">
        <ele>1911.5999755859375</ele>
        <time>2026-06-19T09:38:35.000Z</time>
        <extensions>
          <ns3:TrackPointExtension>
            <ns3:atemp>21.0</ns3:atemp>
          </ns3:TrackPointExtension>
        </extensions>
      </trkpt>
      <trkpt lat="42.516019977629184722900390625" lon="20.01047040335834026336669921875">
        <ele>1911.5999755859375</ele>
        <time>2026-06-19T09:38:36.000Z</time>
        <extensions>
          <ns3:TrackPointExtension>
            <ns3:atemp>21.0</ns3:atemp>
          </ns3:TrackPointExtension>
        </extensions>
      </trkpt>
      <trkpt lat="42.516019977629184722900390625" lon="20.01047040335834026336669921875">
        <ele>1911.5999755859375</ele>
        <time>2026-06-19T09:38:37.000Z</time>
        <extensions>
          <ns3:TrackPointExtension>
            <ns3:atemp>21.0</ns3:atemp>
          </ns3:TrackPointExtension>
        </extensions>
      </trkpt>
      <trkpt lat="42.516019977629184722900390625" lon="20.01047040335834026336669921875">
        <ele>1911.5999755859375</ele>
        <time>2026-06-19T09:38:38.000Z</time>
        <extensions>
          <ns3:TrackPointExtension>
            <ns3:atemp>21.0</ns3:atemp>
          </ns3:TrackPointExtension>
        </extensions>
      </trkpt>
      <trkpt lat="42.516019977629184722900390625" lon="20.01047040335834026336669921875">
        <ele>1911.5999755859375</ele>
        <time>2026-06-19T09:38:39.000Z</time>
        <extensions>
          <ns3:TrackPointExtension>
            <ns3:atemp>21.0</ns3:atemp>
          </ns3:TrackPointExtension>
        </extensions>
      </trkpt>
      <trkpt lat="42.516019977629184722900390625" lon="20.01047040335834026336669921875">
        <ele>1911.5999755859375</ele>
        <time>2026-06-19T09:38:40.000Z</time>
        <extensions>
          <ns3:TrackPointExtension>
            <ns3:atemp>21.0</ns3:atemp>
          </ns3:TrackPointExtension>
        </extensions>
      </trkpt>
      <trkpt lat="42.516019977629184722900390625" lon="20.01047040335834026336669921875">
        <ele>1911.5999755859375</ele>
        <time>2026-06-19T09:38:41.000Z</time>
        <extensions>
          <ns3:TrackPointExtension>
            <ns3:atemp>21.0</ns3:atemp>
          </ns3:TrackPointExtension>
        </extensions>
      </trkpt>
      <trkpt lat="42.516019977629184722900390625" lon="20.01047040335834026336669921875">
        <ele>1911.5999755859375</ele>
        <time>2026-06-19T09:38:42.000Z</time>
        <extensions>
          <ns3:TrackPointExtension>
            <ns3:atemp>21.0</ns3:atemp>
          </ns3:TrackPointExtension>
        </extensions>
      </trkpt>
      <trkpt lat="42.516019977629184722900390625" lon="20.01047040335834026336669921875">
        <ele>1911.5999755859375</ele>
        <time>2026-06-19T09:38:43.000Z</time>
        <extensions>
          <ns3:TrackPointExtension>
            <ns3:atemp>21.0</ns3:atemp>
          </ns3:TrackPointExtension>
        </extensions>
      </trkpt>
      <trkpt lat="42.516019977629184722900390625" lon="20.01047040335834026336669921875">
        <ele>1911.5999755859375</ele>
        <time>2026-06-19T09:38:44.000Z</time>
        <extensions>
          <ns3:TrackPointExtension>
            <ns3:atemp>21.0</ns3:atemp>
          </ns3:TrackPointExtension>
        </extensions>
      </trkpt>
      <trkpt lat="42.516019977629184722900390625" lon="20.01047040335834026336669921875">
        <ele>1911.5999755859375</ele>
        <time>2026-06-19T09:38:45.000Z</time>
        <extensions>
          <ns3:TrackPointExtension>
            <ns3:atemp>21.0</ns3:atemp>
          </ns3:TrackPointExtension>
        </extensions>
      </trkpt>
      <trkpt lat="42.516019977629184722900390625" lon="20.01047040335834026336669921875">
        <ele>1911.5999755859375</ele>
        <time>2026-06-19T09:38:46.000Z</time>
        <extensions>
          <ns3:TrackPointExtension>
            <ns3:atemp>21.0</ns3:atemp>
          </ns3:TrackPointExtension>
        </extensions>
      </trkpt>
      <trkpt lat="42.516019977629184722900390625" lon="20.01047040335834026336669921875">
        <ele>1911.5999755859375</ele>
        <time>2026-06-19T09:38:47.000Z</time>
        <extensions>
          <ns3:TrackPointExtension>
            <ns3:atemp>21.0</ns3:atemp>
          </ns3:TrackPointExtension>
        </extensions>
      </trkpt>
      <trkpt lat="42.516019977629184722900390625" lon="20.01047040335834026336669921875">
        <ele>1911.5999755859375</ele>
        <time>2026-06-19T09:38:48.000Z</time>
        <extensions>
          <ns3:TrackPointExtension>
            <ns3:atemp>21.0</ns3:atemp>
          </ns3:TrackPointExtension>
        </extensions>
      </trkpt>
      <trkpt lat="42.516019977629184722900390625" lon="20.01047040335834026336669921875">
        <ele>1911.5999755859375</ele>
        <time>2026-06-19T09:38:49.000Z</time>
        <extensions>
          <ns3:TrackPointExtension>
            <ns3:atemp>21.0</ns3:atemp>
          </ns3:TrackPointExtension>
        </extensions>
      </trkpt>
      <trkpt lat="42.516019977629184722900390625" lon="20.01047040335834026336669921875">
        <ele>1911.5999755859375</ele>
        <time>2026-06-19T09:38:50.000Z</time>
        <extensions>
          <ns3:TrackPointExtension>
            <ns3:atemp>21.0</ns3:atemp>
          </ns3:TrackPointExtension>
        </extensions>
      </trkpt>
      <trkpt lat="42.516019977629184722900390625" lon="20.01047040335834026336669921875">
        <ele>1911.5999755859375</ele>
        <time>2026-06-19T09:38:51.000Z</time>
        <extensions>
          <ns3:TrackPointExtension>
            <ns3:atemp>21.0</ns3:atemp>
          </ns3:TrackPointExtension>
        </extensions>
      </trkpt>
      <trkpt lat="42.516019977629184722900390625" lon="20.01047040335834026336669921875">
        <ele>1911.5999755859375</ele>
        <time>2026-06-19T09:38:52.000Z</time>
        <extensions>
          <ns3:TrackPointExtension>
            <ns3:atemp>21.0</ns3:atemp>
          </ns3:TrackPointExtension>
        </extensions>
      </trkpt>
      <trkpt lat="42.516019977629184722900390625" lon="20.01047040335834026336669921875">
        <ele>1911.5999755859375</ele>
        <time>2026-06-19T09:38:53.000Z</time>
        <extensions>
          <ns3:TrackPointExtension>
            <ns3:atemp>21.0</ns3:atemp>
          </ns3:TrackPointExtension>
        </extensions>
      </trkpt>
      <trkpt lat="42.516019977629184722900390625" lon="20.01047040335834026336669921875">
        <ele>1911.5999755859375</ele>
        <time>2026-06-19T09:38:54.000Z</time>
        <extensions>
          <ns3:TrackPointExtension>
            <ns3:atemp>21.0</ns3:atemp>
          </ns3:TrackPointExtension>
        </extensions>
      </trkpt>
      <trkpt lat="42.516019977629184722900390625" lon="20.01047040335834026336669921875">
        <ele>1911.5999755859375</ele>
        <time>2026-06-19T09:38:55.000Z</time>
        <extensions>
          <ns3:TrackPointExtension>
            <ns3:atemp>21.0</ns3:atemp>
          </ns3:TrackPointExtension>
        </extensions>
      </trkpt>
      <trkpt lat="42.516019977629184722900390625" lon="20.01047040335834026336669921875">
        <ele>1911.5999755859375</ele>
        <time>2026-06-19T09:38:56.000Z</time>
        <extensions>
          <ns3:TrackPointExtension>
            <ns3:atemp>21.0</ns3:atemp>
          </ns3:TrackPointExtension>
        </extensions>
      </trkpt>
      <trkpt lat="42.516019977629184722900390625" lon="20.01047040335834026336669921875">
        <ele>1911.5999755859375</ele>
        <time>2026-06-19T09:38:57.000Z</time>
        <extensions>
          <ns3:TrackPointExtension>
            <ns3:atemp>21.0</ns3:atemp>
          </ns3:TrackPointExtension>
        </extensions>
      </trkpt>
      <trkpt lat="42.516019977629184722900390625" lon="20.01047040335834026336669921875">
        <ele>1911.5999755859375</ele>
        <time>2026-06-19T09:38:58.000Z</time>
        <extensions>
          <ns3:TrackPointExtension>
            <ns3:atemp>21.0</ns3:atemp>
          </ns3:TrackPointExtension>
        </extensions>
      </trkpt>
      <trkpt lat="42.516019977629184722900390625" lon="20.01047040335834026336669921875">
        <ele>1911.5999755859375</ele>
        <time>2026-06-19T09:38:59.000Z</time>
        <extensions>
          <ns3:TrackPointExtension>
            <ns3:atemp>21.0</ns3:atemp>
          </ns3:TrackPointExtension>
        </extensions>
      </trkpt>
      <trkpt lat="42.516019977629184722900390625" lon="20.01047040335834026336669921875">
        <ele>1911.5999755859375</ele>
        <time>2026-06-19T09:39:00.000Z</time>
        <extensions>
          <ns3:TrackPointExtension>
            <ns3:atemp>21.0</ns3:atemp>
          </ns3:TrackPointExtension>
        </extensions>
      </trkpt>
      <trkpt lat="42.516019977629184722900390625" lon="20.01047040335834026336669921875">
        <ele>1911.5999755859375</ele>
        <time>2026-06-19T09:39:01.000Z</time>
        <extensions>
          <ns3:TrackPointExtension>
            <ns3:atemp>21.0</ns3:atemp>
          </ns3:TrackPointExtension>
        </extensions>
      </trkpt>
      <trkpt lat="42.516019977629184722900390625" lon="20.01047040335834026336669921875">
        <ele>1911.5999755859375</ele>
        <time>2026-06-19T09:39:02.000Z</time>
        <extensions>
          <ns3:TrackPointExtension>
            <ns3:atemp>21.0</ns3:atemp>
          </ns3:TrackPointExtension>
        </extensions>
      </trkpt>
      <trkpt lat="42.516019977629184722900390625" lon="20.01047040335834026336669921875">
        <ele>1911.5999755859375</ele>
        <time>2026-06-19T09:39:03.000Z</time>
        <extensions>
          <ns3:TrackPointExtension>
            <ns3:atemp>21.0</ns3:atemp>
          </ns3:TrackPointExtension>
        </extensions>
      </trkpt>
      <trkpt lat="42.516019977629184722900390625" lon="20.01047040335834026336669921875">
        <ele>1911.5999755859375</ele>
        <time>2026-06-19T09:39:04.000Z</time>
        <extensions>
          <ns3:TrackPointExtension>
            <ns3:atemp>21.0</ns3:atemp>
          </ns3:TrackPointExtension>
        </extensions>
      </trkpt>
      <trkpt lat="42.516019977629184722900390625" lon="20.01047040335834026336669921875">
        <ele>1911.5999755859375</ele>
        <time>2026-06-19T09:39:05.000Z</time>
        <extensions>
          <ns3:TrackPointExtension>
            <ns3:atemp>21.0</ns3:atemp>
          </ns3:TrackPointExtension>
        </extensions>
      </trkpt>
      <trkpt lat="42.516019977629184722900390625" lon="20.01047040335834026336669921875">
        <ele>1911.5999755859375</ele>
        <time>2026-06-19T09:39:06.000Z</time>
        <extensions>
          <ns3:TrackPointExtension>
            <ns3:atemp>21.0</ns3:atemp>
          </ns3:TrackPointExtension>
        </extensions>
      </trkpt>
      <trkpt lat="42.516019977629184722900390625" lon="20.01047040335834026336669921875">
        <ele>1911.5999755859375</ele>
        <time>2026-06-19T09:39:07.000Z</time>
        <extensions>
          <ns3:TrackPointExtension>
            <ns3:atemp>21.0</ns3:atemp>
          </ns3:TrackPointExtension>
        </extensions>
      </trkpt>
      <trkpt lat="42.516019977629184722900390625" lon="20.01047040335834026336669921875">
        <ele>1911.5999755859375</ele>
        <time>2026-06-19T09:39:08.000Z</time>
        <extensions>
          <ns3:TrackPointExtension>
            <ns3:atemp>21.0</ns3:atemp>
          </ns3:TrackPointExtension>
        </extensions>
      </trkpt>
      <trkpt lat="42.516019977629184722900390625" lon="20.01047040335834026336669921875">
        <ele>1911.5999755859375</ele>
        <time>2026-06-19T09:39:09.000Z</time>
        <extensions>
          <ns3:TrackPointExtension>
            <ns3:atemp>21.0</ns3:atemp>
          </ns3:TrackPointExtension>
        </extensions>
      </trkpt>
      <trkpt lat="42.516019977629184722900390625" lon="20.01047040335834026336669921875">
        <ele>1911.5999755859375</ele>
        <time>2026-06-19T09:39:10.000Z</time>
        <extensions>
          <ns3:TrackPointExtension>
            <ns3:atemp>21.0</ns3:atemp>
          </ns3:TrackPointExtension>
        </extensions>
      </trkpt>
      <trkpt lat="42.516019977629184722900390625" lon="20.01047040335834026336669921875">
        <ele>1911.5999755859375</ele>
        <time>2026-06-19T09:39:11.000Z</time>
        <extensions>
          <ns3:TrackPointExtension>
            <ns3:atemp>21.0</ns3:atemp>
          </ns3:TrackPointExtension>
        </extensions>
      </trkpt>
      <trkpt lat="42.516019977629184722900390625" lon="20.01047040335834026336669921875">
        <ele>1911.5999755859375</ele>
        <time>2026-06-19T09:39:12.000Z</time>
        <extensions>
          <ns3:TrackPointExtension>
            <ns3:atemp>21.0</ns3:atemp>
          </ns3:TrackPointExtension>
        </extensions>
      </trkpt>
      <trkpt lat="42.516019977629184722900390625" lon="20.01047040335834026336669921875">
        <ele>1911.5999755859375</ele>
        <time>2026-06-19T09:39:13.000Z</time>
        <extensions>
          <ns3:TrackPointExtension>
            <ns3:atemp>21.0</ns3:atemp>
          </ns3:TrackPointExtension>
        </extensions>
      </trkpt>
      <trkpt lat="42.516019977629184722900390625" lon="20.01047040335834026336669921875">
        <ele>1911.5999755859375</ele>
        <time>2026-06-19T09:39:14.000Z</time>
        <extensions>
          <ns3:TrackPointExtension>
            <ns3:atemp>21.0</ns3:atemp>
          </ns3:TrackPointExtension>
        </extensions>
      </trkpt>
      <trkpt lat="42.516019977629184722900390625" lon="20.01047040335834026336669921875">
        <ele>1911.5999755859375</ele>
        <time>2026-06-19T09:39:15.000Z</time>
        <extensions>
          <ns3:TrackPointExtension>
            <ns3:atemp>21.0</ns3:atemp>
          </ns3:TrackPointExtension>
        </extensions>
      </trkpt>
      <trkpt lat="42.516019977629184722900390625" lon="20.01047040335834026336669921875">
        <ele>1911.5999755859375</ele>
        <time>2026-06-19T09:39:16.000Z</time>
        <extensions>
          <ns3:TrackPointExtension>
            <ns3:atemp>21.0</ns3:atemp>
          </ns3:TrackPointExtension>
        </extensions>
      </trkpt>
      <trkpt lat="42.516019977629184722900390625" lon="20.01047040335834026336669921875">
        <ele>1911.5999755859375</ele>
        <time>2026-06-19T09:39:17.000Z</time>
        <extensions>
          <ns3:TrackPointExtension>
            <ns3:atemp>21.0</ns3:atemp>
          </ns3:TrackPointExtension>
        </extensions>
      </trkpt>
      <trkpt lat="42.516019977629184722900390625" lon="20.01047040335834026336669921875">
        <ele>1911.5999755859375</ele>
        <time>2026-06-19T09:39:18.000Z</time>
        <extensions>
          <ns3:TrackPointExtension>
            <ns3:atemp>21.0</ns3:atemp>
          </ns3:TrackPointExtension>
        </extensions>
      </trkpt>
      <trkpt lat="42.516019977629184722900390625" lon="20.01047040335834026336669921875">
        <ele>1911.5999755859375</ele>
        <time>2026-06-19T09:39:19.000Z</time>
        <extensions>
          <ns3:TrackPointExtension>
            <ns3:atemp>21.0</ns3:atemp>
          </ns3:TrackPointExtension>
        </extensions>
      </trkpt>
      <trkpt lat="42.516019977629184722900390625" lon="20.01047040335834026336669921875">
        <ele>1911.5999755859375</ele>
        <time>2026-06-19T09:39:20.000Z</time>
        <extensions>
          <ns3:TrackPointExtension>
            <ns3:atemp>21.0</ns3:atemp>
          </ns3:TrackPointExtension>
        </extensions>
      </trkpt>
      <trkpt lat="42.516019977629184722900390625" lon="20.01047040335834026336669921875">
        <ele>1911.5999755859375</ele>
        <time>2026-06-19T09:39:21.000Z</time>
        <extensions>
          <ns3:TrackPointExtension>
            <ns3:atemp>21.0</ns3:atemp>
          </ns3:TrackPointExtension>
        </extensions>
      </trkpt>
      <trkpt lat="42.516019977629184722900390625" lon="20.01047040335834026336669921875">
        <ele>1911.5999755859375</ele>
        <time>2026-06-19T09:39:22.000Z</time>
        <extensions>
          <ns3:TrackPointExtension>
            <ns3:atemp>21.0</ns3:atemp>
          </ns3:TrackPointExtension>
        </extensions>
      </trkpt>
      <trkpt lat="42.516019977629184722900390625" lon="20.01047040335834026336669921875">
        <ele>1911.5999755859375</ele>
        <time>2026-06-19T09:39:23.000Z</time>
        <extensions>
          <ns3:TrackPointExtension>
            <ns3:atemp>21.0</ns3:atemp>
          </ns3:TrackPointExtension>
        </extensions>
      </trkpt>
      <trkpt lat="42.516019977629184722900390625" lon="20.01047040335834026336669921875">
        <ele>1911.5999755859375</ele>
        <time>2026-06-19T09:39:24.000Z</time>
        <extensions>
          <ns3:TrackPointExtension>
            <ns3:atemp>21.0</ns3:atemp>
          </ns3:TrackPointExtension>
        </extensions>
      </trkpt>
      <trkpt lat="42.516019977629184722900390625" lon="20.01047040335834026336669921875">
        <ele>1911.5999755859375</ele>
        <time>2026-06-19T09:39:25.000Z</time>
        <extensions>
          <ns3:TrackPointExtension>
            <ns3:atemp>21.0</ns3:atemp>
          </ns3:TrackPointExtension>
        </extensions>
      </trkpt>
      <trkpt lat="42.516019977629184722900390625" lon="20.01047040335834026336669921875">
        <ele>1911.5999755859375</ele>
        <time>2026-06-19T09:39:26.000Z</time>
        <extensions>
          <ns3:TrackPointExtension>
            <ns3:atemp>21.0</ns3:atemp>
          </ns3:TrackPointExtension>
        </extensions>
      </trkpt>
      <trkpt lat="42.516019977629184722900390625" lon="20.01047040335834026336669921875">
        <ele>1911.5999755859375</ele>
        <time>2026-06-19T09:39:27.000Z</time>
        <extensions>
          <ns3:TrackPointExtension>
            <ns3:atemp>21.0</ns3:atemp>
          </ns3:TrackPointExtension>
        </extensions>
      </trkpt>
      <trkpt lat="42.516019977629184722900390625" lon="20.01047040335834026336669921875">
        <ele>1911.5999755859375</ele>
        <time>2026-06-19T09:39:28.000Z</time>
        <extensions>
          <ns3:TrackPointExtension>
            <ns3:atemp>21.0</ns3:atemp>
          </ns3:TrackPointExtension>
        </extensions>
      </trkpt>
      <trkpt lat="42.516019977629184722900390625" lon="20.01047040335834026336669921875">
        <ele>1911.5999755859375</ele>
        <time>2026-06-19T09:39:29.000Z</time>
        <extensions>
          <ns3:TrackPointExtension>
            <ns3:atemp>21.0</ns3:atemp>
          </ns3:TrackPointExtension>
        </extensions>
      </trkpt>
      <trkpt lat="42.516019977629184722900390625" lon="20.01047040335834026336669921875">
        <ele>1911.5999755859375</ele>
        <time>2026-06-19T09:39:30.000Z</time>
        <extensions>
          <ns3:TrackPointExtension>
            <ns3:atemp>21.0</ns3:atemp>
          </ns3:TrackPointExtension>
        </extensions>
      </trkpt>
      <trkpt lat="42.516019977629184722900390625" lon="20.01047040335834026336669921875">
        <ele>1911.5999755859375</ele>
        <time>2026-06-19T09:39:31.000Z</time>
        <extensions>
          <ns3:TrackPointExtension>
            <ns3:atemp>21.0</ns3:atemp>
          </ns3:TrackPointExtension>
        </extensions>
      </trkpt>
      <trkpt lat="42.516019977629184722900390625" lon="20.01047040335834026336669921875">
        <ele>1911.5999755859375</ele>
        <time>2026-06-19T09:39:32.000Z</time>
        <extensions>
          <ns3:TrackPointExtension>
            <ns3:atemp>21.0</ns3:atemp>
          </ns3:TrackPointExtension>
        </extensions>
      </trkpt>
      <trkpt lat="42.516019977629184722900390625" lon="20.01047040335834026336669921875">
        <ele>1911.5999755859375</ele>
        <time>2026-06-19T09:39:33.000Z</time>
        <extensions>
          <ns3:TrackPointExtension>
            <ns3:atemp>21.0</ns3:atemp>
          </ns3:TrackPointExtension>
        </extensions>
      </trkpt>
      <trkpt lat="42.516019977629184722900390625" lon="20.01047040335834026336669921875">
        <ele>1911.5999755859375</ele>
        <time>2026-06-19T09:39:34.000Z</time>
        <extensions>
          <ns3:TrackPointExtension>
            <ns3:atemp>21.0</ns3:atemp>
          </ns3:TrackPointExtension>
        </extensions>
      </trkpt>
      <trkpt lat="42.516019977629184722900390625" lon="20.01047040335834026336669921875">
        <ele>1911.5999755859375</ele>
        <time>2026-06-19T09:39:35.000Z</time>
        <extensions>
          <ns3:TrackPointExtension>
            <ns3:atemp>21.0</ns3:atemp>
          </ns3:TrackPointExtension>
        </extensions>
      </trkpt>
      <trkpt lat="42.516019977629184722900390625" lon="20.01047040335834026336669921875">
        <ele>1911.5999755859375</ele>
        <time>2026-06-19T09:39:36.000Z</time>
        <extensions>
          <ns3:TrackPointExtension>
            <ns3:atemp>21.0</ns3:atemp>
          </ns3:TrackPointExtension>
        </extensions>
      </trkpt>
      <trkpt lat="42.516019977629184722900390625" lon="20.01047040335834026336669921875">
        <ele>1911.5999755859375</ele>
        <time>2026-06-19T09:39:37.000Z</time>
        <extensions>
          <ns3:TrackPointExtension>
            <ns3:atemp>21.0</ns3:atemp>
          </ns3:TrackPointExtension>
        </extensions>
      </trkpt>
      <trkpt lat="42.516019977629184722900390625" lon="20.01047040335834026336669921875">
        <ele>1911.5999755859375</ele>
        <time>2026-06-19T09:39:38.000Z</time>
        <extensions>
          <ns3:TrackPointExtension>
            <ns3:atemp>21.0</ns3:atemp>
          </ns3:TrackPointExtension>
        </extensions>
      </trkpt>
      <trkpt lat="42.516019977629184722900390625" lon="20.01047040335834026336669921875">
        <ele>1911.5999755859375</ele>
        <time>2026-06-19T09:39:39.000Z</time>
        <extensions>
          <ns3:TrackPointExtension>
            <ns3:atemp>21.0</ns3:atemp>
          </ns3:TrackPointExtension>
        </extensions>
      </trkpt>
      <trkpt lat="42.516019977629184722900390625" lon="20.01047040335834026336669921875">
        <ele>1911.5999755859375</ele>
        <time>2026-06-19T09:39:40.000Z</time>
        <extensions>
          <ns3:TrackPointExtension>
            <ns3:atemp>21.0</ns3:atemp>
          </ns3:TrackPointExtension>
        </extensions>
      </trkpt>
      <trkpt lat="42.516019977629184722900390625" lon="20.01047040335834026336669921875">
        <ele>1911.5999755859375</ele>
        <time>2026-06-19T09:39:41.000Z</time>
        <extensions>
          <ns3:TrackPointExtension>
            <ns3:atemp>21.0</ns3:atemp>
          </ns3:TrackPointExtension>
        </extensions>
      </trkpt>
      <trkpt lat="42.516019977629184722900390625" lon="20.01047040335834026336669921875">
        <ele>1911.5999755859375</ele>
        <time>2026-06-19T09:39:42.000Z</time>
        <extensions>
          <ns3:TrackPointExtension>
            <ns3:atemp>21.0</ns3:atemp>
          </ns3:TrackPointExtension>
        </extensions>
      </trkpt>
      <trkpt lat="42.516019977629184722900390625" lon="20.01047040335834026336669921875">
        <ele>1911.5999755859375</ele>
        <time>2026-06-19T09:39:43.000Z</time>
        <extensions>
          <ns3:TrackPointExtension>
            <ns3:atemp>21.0</ns3:atemp>
          </ns3:TrackPointExtension>
        </extensions>
      </trkpt>
      <trkpt lat="42.516019977629184722900390625" lon="20.01047040335834026336669921875">
        <ele>1911.5999755859375</ele>
        <time>2026-06-19T09:39:44.000Z</time>
        <extensions>
          <ns3:TrackPointExtension>
            <ns3:atemp>21.0</ns3:atemp>
          </ns3:TrackPointExtension>
        </extensions>
      </trkpt>
      <trkpt lat="42.516019977629184722900390625" lon="20.01047040335834026336669921875">
        <ele>1911.5999755859375</ele>
        <time>2026-06-19T09:39:45.000Z</time>
        <extensions>
          <ns3:TrackPointExtension>
            <ns3:atemp>21.0</ns3:atemp>
          </ns3:TrackPointExtension>
        </extensions>
      </trkpt>
      <trkpt lat="42.516019977629184722900390625" lon="20.01047040335834026336669921875">
        <ele>1911.5999755859375</ele>
        <time>2026-06-19T09:39:46.000Z</time>
        <extensions>
          <ns3:TrackPointExtension>
            <ns3:atemp>21.0</ns3:atemp>
          </ns3:TrackPointExtension>
        </extensions>
      </trkpt>
      <trkpt lat="42.516019977629184722900390625" lon="20.01047040335834026336669921875">
        <ele>1911.5999755859375</ele>
        <time>2026-06-19T09:39:47.000Z</time>
        <extensions>
          <ns3:TrackPointExtension>
            <ns3:atemp>21.0</ns3:atemp>
          </ns3:TrackPointExtension>
        </extensions>
      </trkpt>
      <trkpt lat="42.516019977629184722900390625" lon="20.01047040335834026336669921875">
        <ele>1911.5999755859375</ele>
        <time>2026-06-19T09:39:48.000Z</time>
        <extensions>
          <ns3:TrackPointExtension>
            <ns3:atemp>21.0</ns3:atemp>
          </ns3:TrackPointExtension>
        </extensions>
      </trkpt>
      <trkpt lat="42.516019977629184722900390625" lon="20.01047040335834026336669921875">
        <ele>1911.5999755859375</ele>
        <time>2026-06-19T09:39:49.000Z</time>
        <extensions>
          <ns3:TrackPointExtension>
            <ns3:atemp>21.0</ns3:atemp>
          </ns3:TrackPointExtension>
        </extensions>
      </trkpt>
      <trkpt lat="42.516019977629184722900390625" lon="20.01047040335834026336669921875">
        <ele>1911.5999755859375</ele>
        <time>2026-06-19T09:39:50.000Z</time>
        <extensions>
          <ns3:TrackPointExtension>
            <ns3:atemp>21.0</ns3:atemp>
          </ns3:TrackPointExtension>
        </extensions>
      </trkpt>
      <trkpt lat="42.516019977629184722900390625" lon="20.01047040335834026336669921875">
        <ele>1911.5999755859375</ele>
        <time>2026-06-19T09:39:51.000Z</time>
        <extensions>
          <ns3:TrackPointExtension>
            <ns3:atemp>21.0</ns3:atemp>
          </ns3:TrackPointExtension>
        </extensions>
      </trkpt>
      <trkpt lat="42.516019977629184722900390625" lon="20.01047040335834026336669921875">
        <ele>1911.5999755859375</ele>
        <time>2026-06-19T09:39:52.000Z</time>
        <extensions>
          <ns3:TrackPointExtension>
            <ns3:atemp>21.0</ns3:atemp>
          </ns3:TrackPointExtension>
        </extensions>
      </trkpt>
      <trkpt lat="42.516019977629184722900390625" lon="20.01047040335834026336669921875">
        <ele>1911.5999755859375</ele>
        <time>2026-06-19T09:39:53.000Z</time>
        <extensions>
          <ns3:TrackPointExtension>
            <ns3:atemp>21.0</ns3:atemp>
          </ns3:TrackPointExtension>
        </extensions>
      </trkpt>
      <trkpt lat="42.516019977629184722900390625" lon="20.01047040335834026336669921875">
        <ele>1911.5999755859375</ele>
        <time>2026-06-19T09:39:54.000Z</time>
        <extensions>
          <ns3:TrackPointExtension>
            <ns3:atemp>21.0</ns3:atemp>
          </ns3:TrackPointExtension>
        </extensions>
      </trkpt>
      <trkpt lat="42.516019977629184722900390625" lon="20.01047040335834026336669921875">
        <ele>1911.5999755859375</ele>
        <time>2026-06-19T09:39:55.000Z</time>
        <extensions>
          <ns3:TrackPointExtension>
            <ns3:atemp>21.0</ns3:atemp>
          </ns3:TrackPointExtension>
        </extensions>
      </trkpt>
      <trkpt lat="42.516019977629184722900390625" lon="20.01047040335834026336669921875">
        <ele>1911.5999755859375</ele>
        <time>2026-06-19T09:39:56.000Z</time>
        <extensions>
          <ns3:TrackPointExtension>
            <ns3:atemp>21.0</ns3:atemp>
          </ns3:TrackPointExtension>
        </extensions>
      </trkpt>
      <trkpt lat="42.516019977629184722900390625" lon="20.01047040335834026336669921875">
        <ele>1911.5999755859375</ele>
        <time>2026-06-19T09:39:57.000Z</time>
        <extensions>
          <ns3:TrackPointExtension>
            <ns3:atemp>21.0</ns3:atemp>
          </ns3:TrackPointExtension>
        </extensions>
      </trkpt>
      <trkpt lat="42.516019977629184722900390625" lon="20.01047040335834026336669921875">
        <ele>1911.5999755859375</ele>
        <time>2026-06-19T09:39:58.000Z</time>
        <extensions>
          <ns3:TrackPointExtension>
            <ns3:atemp>21.0</ns3:atemp>
          </ns3:TrackPointExtension>
        </extensions>
      </trkpt>
      <trkpt lat="42.516019977629184722900390625" lon="20.01047040335834026336669921875">
        <ele>1911.5999755859375</ele>
        <time>2026-06-19T09:39:59.000Z</time>
        <extensions>
          <ns3:TrackPointExtension>
            <ns3:atemp>21.0</ns3:atemp>
          </ns3:TrackPointExtension>
        </extensions>
      </trkpt>
      <trkpt lat="42.516019977629184722900390625" lon="20.01047040335834026336669921875">
        <ele>1911.5999755859375</ele>
        <time>2026-06-19T09:40:00.000Z</time>
        <extensions>
          <ns3:TrackPointExtension>
            <ns3:atemp>21.0</ns3:atemp>
          </ns3:TrackPointExtension>
        </extensions>
      </trkpt>
      <trkpt lat="42.516019977629184722900390625" lon="20.01047040335834026336669921875">
        <ele>1911.5999755859375</ele>
        <time>2026-06-19T09:40:01.000Z</time>
        <extensions>
          <ns3:TrackPointExtension>
            <ns3:atemp>21.0</ns3:atemp>
          </ns3:TrackPointExtension>
        </extensions>
      </trkpt>
      <trkpt lat="42.516019977629184722900390625" lon="20.01047040335834026336669921875">
        <ele>1911.5999755859375</ele>
        <time>2026-06-19T09:40:02.000Z</time>
        <extensions>
          <ns3:TrackPointExtension>
            <ns3:atemp>21.0</ns3:atemp>
          </ns3:TrackPointExtension>
        </extensions>
      </trkpt>
      <trkpt lat="42.516019977629184722900390625" lon="20.01047040335834026336669921875">
        <ele>1911.5999755859375</ele>
        <time>2026-06-19T09:40:03.000Z</time>
        <extensions>
          <ns3:TrackPointExtension>
            <ns3:atemp>21.0</ns3:atemp>
          </ns3:TrackPointExtension>
        </extensions>
      </trkpt>
      <trkpt lat="42.516019977629184722900390625" lon="20.01047040335834026336669921875">
        <ele>1911.5999755859375</ele>
        <time>2026-06-19T09:40:04.000Z</time>
        <extensions>
          <ns3:TrackPointExtension>
            <ns3:atemp>21.0</ns3:atemp>
          </ns3:TrackPointExtension>
        </extensions>
      </trkpt>
      <trkpt lat="42.516019977629184722900390625" lon="20.01047040335834026336669921875">
        <ele>1911.5999755859375</ele>
        <time>2026-06-19T09:40:05.000Z</time>
        <extensions>
          <ns3:TrackPointExtension>
            <ns3:atemp>21.0</ns3:atemp>
          </ns3:TrackPointExtension>
        </extensions>
      </trkpt>
      <trkpt lat="42.516019977629184722900390625" lon="20.01047040335834026336669921875">
        <ele>1911.5999755859375</ele>
        <time>2026-06-19T09:40:06.000Z</time>
        <extensions>
          <ns3:TrackPointExtension>
            <ns3:atemp>21.0</ns3:atemp>
          </ns3:TrackPointExtension>
        </extensions>
      </trkpt>
      <trkpt lat="42.516019977629184722900390625" lon="20.01047040335834026336669921875">
        <ele>1911.5999755859375</ele>
        <time>2026-06-19T09:40:07.000Z</time>
        <extensions>
          <ns3:TrackPointExtension>
            <ns3:atemp>21.0</ns3:atemp>
          </ns3:TrackPointExtension>
        </extensions>
      </trkpt>
      <trkpt lat="42.516019977629184722900390625" lon="20.01047040335834026336669921875">
        <ele>1911.5999755859375</ele>
        <time>2026-06-19T09:40:08.000Z</time>
        <extensions>
          <ns3:TrackPointExtension>
            <ns3:atemp>21.0</ns3:atemp>
          </ns3:TrackPointExtension>
        </extensions>
      </trkpt>
      <trkpt lat="42.516019977629184722900390625" lon="20.01047040335834026336669921875">
        <ele>1911.5999755859375</ele>
        <time>2026-06-19T09:40:09.000Z</time>
        <extensions>
          <ns3:TrackPointExtension>
            <ns3:atemp>21.0</ns3:atemp>
          </ns3:TrackPointExtension>
        </extensions>
      </trkpt>
      <trkpt lat="42.516019977629184722900390625" lon="20.01047040335834026336669921875">
        <ele>1911.5999755859375</ele>
        <time>2026-06-19T09:40:10.000Z</time>
        <extensions>
          <ns3:TrackPointExtension>
            <ns3:atemp>21.0</ns3:atemp>
          </ns3:TrackPointExtension>
        </extensions>
      </trkpt>
      <trkpt lat="42.516019977629184722900390625" lon="20.01047040335834026336669921875">
        <ele>1911.5999755859375</ele>
        <time>2026-06-19T09:40:11.000Z</time>
        <extensions>
          <ns3:TrackPointExtension>
            <ns3:atemp>21.0</ns3:atemp>
          </ns3:TrackPointExtension>
        </extensions>
      </trkpt>
      <trkpt lat="42.516019977629184722900390625" lon="20.01047040335834026336669921875">
        <ele>1911.5999755859375</ele>
        <time>2026-06-19T09:40:12.000Z</time>
        <extensions>
          <ns3:TrackPointExtension>
            <ns3:atemp>21.0</ns3:atemp>
          </ns3:TrackPointExtension>
        </extensions>
      </trkpt>
      <trkpt lat="42.516019977629184722900390625" lon="20.01047040335834026336669921875">
        <ele>1911.5999755859375</ele>
        <time>2026-06-19T09:40:13.000Z</time>
        <extensions>
          <ns3:TrackPointExtension>
            <ns3:atemp>21.0</ns3:atemp>
          </ns3:TrackPointExtension>
        </extensions>
      </trkpt>
      <trkpt lat="42.516019977629184722900390625" lon="20.01047040335834026336669921875">
        <ele>1911.5999755859375</ele>
        <time>2026-06-19T09:40:14.000Z</time>
        <extensions>
          <ns3:TrackPointExtension>
            <ns3:atemp>21.0</ns3:atemp>
          </ns3:TrackPointExtension>
        </extensions>
      </trkpt>
      <trkpt lat="42.516019977629184722900390625" lon="20.01047040335834026336669921875">
        <ele>1911.5999755859375</ele>
        <time>2026-06-19T09:40:15.000Z</time>
        <extensions>
          <ns3:TrackPointExtension>
            <ns3:atemp>21.0</ns3:atemp>
          </ns3:TrackPointExtension>
        </extensions>
      </trkpt>
      <trkpt lat="42.516019977629184722900390625" lon="20.01047040335834026336669921875">
        <ele>1911.5999755859375</ele>
        <time>2026-06-19T09:40:16.000Z</time>
        <extensions>
          <ns3:TrackPointExtension>
            <ns3:atemp>21.0</ns3:atemp>
          </ns3:TrackPointExtension>
        </extensions>
      </trkpt>
      <trkpt lat="42.516019977629184722900390625" lon="20.01047040335834026336669921875">
        <ele>1911.5999755859375</ele>
        <time>2026-06-19T09:40:17.000Z</time>
        <extensions>
          <ns3:TrackPointExtension>
            <ns3:atemp>21.0</ns3:atemp>
          </ns3:TrackPointExtension>
        </extensions>
      </trkpt>
      <trkpt lat="42.516019977629184722900390625" lon="20.01047040335834026336669921875">
        <ele>1911.5999755859375</ele>
        <time>2026-06-19T09:40:18.000Z</time>
        <extensions>
          <ns3:TrackPointExtension>
            <ns3:atemp>21.0</ns3:atemp>
          </ns3:TrackPointExtension>
        </extensions>
      </trkpt>
      <trkpt lat="42.516019977629184722900390625" lon="20.01047040335834026336669921875">
        <ele>1911.5999755859375</ele>
        <time>2026-06-19T09:40:19.000Z</time>
        <extensions>
          <ns3:TrackPointExtension>
            <ns3:atemp>21.0</ns3:atemp>
          </ns3:TrackPointExtension>
        </extensions>
      </trkpt>
      <trkpt lat="42.516019977629184722900390625" lon="20.01047040335834026336669921875">
        <ele>1911.5999755859375</ele>
        <time>2026-06-19T09:40:20.000Z</time>
        <extensions>
          <ns3:TrackPointExtension>
            <ns3:atemp>21.0</ns3:atemp>
          </ns3:TrackPointExtension>
        </extensions>
      </trkpt>
      <trkpt lat="42.516019977629184722900390625" lon="20.01047040335834026336669921875">
        <ele>1911.5999755859375</ele>
        <time>2026-06-19T09:40:21.000Z</time>
        <extensions>
          <ns3:TrackPointExtension>
            <ns3:atemp>21.0</ns3:atemp>
          </ns3:TrackPointExtension>
        </extensions>
      </trkpt>
      <trkpt lat="42.516019977629184722900390625" lon="20.01047040335834026336669921875">
        <ele>1911.5999755859375</ele>
        <time>2026-06-19T09:40:22.000Z</time>
        <extensions>
          <ns3:TrackPointExtension>
            <ns3:atemp>21.0</ns3:atemp>
          </ns3:TrackPointExtension>
        </extensions>
      </trkpt>
      <trkpt lat="42.516019977629184722900390625" lon="20.01047040335834026336669921875">
        <ele>1911.5999755859375</ele>
        <time>2026-06-19T09:40:23.000Z</time>
        <extensions>
          <ns3:TrackPointExtension>
            <ns3:atemp>21.0</ns3:atemp>
          </ns3:TrackPointExtension>
        </extensions>
      </trkpt>
      <trkpt lat="42.516019977629184722900390625" lon="20.01047040335834026336669921875">
        <ele>1911.5999755859375</ele>
        <time>2026-06-19T09:40:24.000Z</time>
        <extensions>
          <ns3:TrackPointExtension>
            <ns3:atemp>21.0</ns3:atemp>
          </ns3:TrackPointExtension>
        </extensions>
      </trkpt>
      <trkpt lat="42.516019977629184722900390625" lon="20.01047040335834026336669921875">
        <ele>1911.5999755859375</ele>
        <time>2026-06-19T09:40:25.000Z</time>
        <extensions>
          <ns3:TrackPointExtension>
            <ns3:atemp>21.0</ns3:atemp>
          </ns3:TrackPointExtension>
        </extensions>
      </trkpt>
      <trkpt lat="42.516019977629184722900390625" lon="20.01047040335834026336669921875">
        <ele>1911.5999755859375</ele>
        <time>2026-06-19T09:40:26.000Z</time>
        <extensions>
          <ns3:TrackPointExtension>
            <ns3:atemp>21.0</ns3:atemp>
          </ns3:TrackPointExtension>
        </extensions>
      </trkpt>
      <trkpt lat="42.516019977629184722900390625" lon="20.01047040335834026336669921875">
        <ele>1911.5999755859375</ele>
        <time>2026-06-19T09:40:27.000Z</time>
        <extensions>
          <ns3:TrackPointExtension>
            <ns3:atemp>21.0</ns3:atemp>
          </ns3:TrackPointExtension>
        </extensions>
      </trkpt>
      <trkpt lat="42.516019977629184722900390625" lon="20.01047040335834026336669921875">
        <ele>1911.5999755859375</ele>
        <time>2026-06-19T09:40:28.000Z</time>
        <extensions>
          <ns3:TrackPointExtension>
            <ns3:atemp>21.0</ns3:atemp>
          </ns3:TrackPointExtension>
        </extensions>
      </trkpt>
      <trkpt lat="42.516019977629184722900390625" lon="20.01047040335834026336669921875">
        <ele>1911.5999755859375</ele>
        <time>2026-06-19T09:40:29.000Z</time>
        <extensions>
          <ns3:TrackPointExtension>
            <ns3:atemp>21.0</ns3:atemp>
          </ns3:TrackPointExtension>
        </extensions>
      </trkpt>
      <trkpt lat="42.516019977629184722900390625" lon="20.01047040335834026336669921875">
        <ele>1911.5999755859375</ele>
        <time>2026-06-19T09:40:30.000Z</time>
        <extensions>
          <ns3:TrackPointExtension>
            <ns3:atemp>21.0</ns3:atemp>
          </ns3:TrackPointExtension>
        </extensions>
      </trkpt>
      <trkpt lat="42.516019977629184722900390625" lon="20.01047040335834026336669921875">
        <ele>1911.5999755859375</ele>
        <time>2026-06-19T09:40:31.000Z</time>
        <extensions>
          <ns3:TrackPointExtension>
            <ns3:atemp>21.0</ns3:atemp>
          </ns3:TrackPointExtension>
        </extensions>
      </trkpt>
      <trkpt lat="42.516019977629184722900390625" lon="20.01047040335834026336669921875">
        <ele>1911.5999755859375</ele>
        <time>2026-06-19T09:40:32.000Z</time>
        <extensions>
          <ns3:TrackPointExtension>
            <ns3:atemp>21.0</ns3:atemp>
          </ns3:TrackPointExtension>
        </extensions>
      </trkpt>
      <trkpt lat="42.516019977629184722900390625" lon="20.01047040335834026336669921875">
        <ele>1911.5999755859375</ele>
        <time>2026-06-19T09:40:33.000Z</time>
        <extensions>
          <ns3:TrackPointExtension>
            <ns3:atemp>21.0</ns3:atemp>
          </ns3:TrackPointExtension>
        </extensions>
      </trkpt>
      <trkpt lat="42.516019977629184722900390625" lon="20.01047040335834026336669921875">
        <ele>1911.5999755859375</ele>
        <time>2026-06-19T09:40:34.000Z</time>
        <extensions>
          <ns3:TrackPointExtension>
            <ns3:atemp>21.0</ns3:atemp>
          </ns3:TrackPointExtension>
        </extensions>
      </trkpt>
      <trkpt lat="42.516019977629184722900390625" lon="20.01047040335834026336669921875">
        <ele>1911.5999755859375</ele>
        <time>2026-06-19T09:40:35.000Z</time>
        <extensions>
          <ns3:TrackPointExtension>
            <ns3:atemp>21.0</ns3:atemp>
          </ns3:TrackPointExtension>
        </extensions>
      </trkpt>
      <trkpt lat="42.516019977629184722900390625" lon="20.01047040335834026336669921875">
        <ele>1911.5999755859375</ele>
        <time>2026-06-19T09:40:36.000Z</time>
        <extensions>
          <ns3:TrackPointExtension>
            <ns3:atemp>21.0</ns3:atemp>
          </ns3:TrackPointExtension>
        </extensions>
      </trkpt>
      <trkpt lat="42.516019977629184722900390625" lon="20.01047040335834026336669921875">
        <ele>1911.5999755859375</ele>
        <time>2026-06-19T09:40:37.000Z</time>
        <extensions>
          <ns3:TrackPointExtension>
            <ns3:atemp>21.0</ns3:atemp>
          </ns3:TrackPointExtension>
        </extensions>
      </trkpt>
      <trkpt lat="42.516019977629184722900390625" lon="20.01047040335834026336669921875">
        <ele>1911.5999755859375</ele>
        <time>2026-06-19T09:40:38.000Z</time>
        <extensions>
          <ns3:TrackPointExtension>
            <ns3:atemp>21.0</ns3:atemp>
          </ns3:TrackPointExtension>
        </extensions>
      </trkpt>
      <trkpt lat="42.516019977629184722900390625" lon="20.01047040335834026336669921875">
        <ele>1911.5999755859375</ele>
        <time>2026-06-19T09:40:39.000Z</time>
        <extensions>
          <ns3:TrackPointExtension>
            <ns3:atemp>21.0</ns3:atemp>
          </ns3:TrackPointExtension>
        </extensions>
      </trkpt>
      <trkpt lat="42.516019977629184722900390625" lon="20.01047040335834026336669921875">
        <ele>1911.5999755859375</ele>
        <time>2026-06-19T09:40:40.000Z</time>
        <extensions>
          <ns3:TrackPointExtension>
            <ns3:atemp>21.0</ns3:atemp>
          </ns3:TrackPointExtension>
        </extensions>
      </trkpt>
      <trkpt lat="42.516019977629184722900390625" lon="20.01047040335834026336669921875">
        <ele>1911.5999755859375</ele>
        <time>2026-06-19T09:40:41.000Z</time>
        <extensions>
          <ns3:TrackPointExtension>
            <ns3:atemp>21.0</ns3:atemp>
          </ns3:TrackPointExtension>
        </extensions>
      </trkpt>
      <trkpt lat="42.516019977629184722900390625" lon="20.01047040335834026336669921875">
        <ele>1911.5999755859375</ele>
        <time>2026-06-19T09:40:42.000Z</time>
        <extensions>
          <ns3:TrackPointExtension>
            <ns3:atemp>21.0</ns3:atemp>
          </ns3:TrackPointExtension>
        </extensions>
      </trkpt>
      <trkpt lat="42.516019977629184722900390625" lon="20.01047040335834026336669921875">
        <ele>1911.5999755859375</ele>
        <time>2026-06-19T09:40:43.000Z</time>
        <extensions>
          <ns3:TrackPointExtension>
            <ns3:atemp>21.0</ns3:atemp>
          </ns3:TrackPointExtension>
        </extensions>
      </trkpt>
      <trkpt lat="42.516019977629184722900390625" lon="20.01047040335834026336669921875">
        <ele>1911.5999755859375</ele>
        <time>2026-06-19T09:40:44.000Z</time>
        <extensions>
          <ns3:TrackPointExtension>
            <ns3:atemp>21.0</ns3:atemp>
          </ns3:TrackPointExtension>
        </extensions>
      </trkpt>
      <trkpt lat="42.516019977629184722900390625" lon="20.01047040335834026336669921875">
        <ele>1911.5999755859375</ele>
        <time>2026-06-19T09:40:45.000Z</time>
        <extensions>
          <ns3:TrackPointExtension>
            <ns3:atemp>21.0</ns3:atemp>
          </ns3:TrackPointExtension>
        </extensions>
      </trkpt>
      <trkpt lat="42.516019977629184722900390625" lon="20.01047040335834026336669921875">
        <ele>1911.5999755859375</ele>
        <time>2026-06-19T09:40:46.000Z</time>
        <extensions>
          <ns3:TrackPointExtension>
            <ns3:atemp>21.0</ns3:atemp>
          </ns3:TrackPointExtension>
        </extensions>
      </trkpt>
      <trkpt lat="42.516019977629184722900390625" lon="20.01047040335834026336669921875">
        <ele>1911.5999755859375</ele>
        <time>2026-06-19T09:40:47.000Z</time>
        <extensions>
          <ns3:TrackPointExtension>
            <ns3:atemp>21.0</ns3:atemp>
          </ns3:TrackPointExtension>
        </extensions>
      </trkpt>
      <trkpt lat="42.516019977629184722900390625" lon="20.01047040335834026336669921875">
        <ele>1911.5999755859375</ele>
        <time>2026-06-19T09:40:48.000Z</time>
        <extensions>
          <ns3:TrackPointExtension>
            <ns3:atemp>21.0</ns3:atemp>
          </ns3:TrackPointExtension>
        </extensions>
      </trkpt>
      <trkpt lat="42.516019977629184722900390625" lon="20.01047040335834026336669921875">
        <ele>1911.5999755859375</ele>
        <time>2026-06-19T09:40:49.000Z</time>
        <extensions>
          <ns3:TrackPointExtension>
            <ns3:atemp>21.0</ns3:atemp>
          </ns3:TrackPointExtension>
        </extensions>
      </trkpt>
      <trkpt lat="42.516019977629184722900390625" lon="20.01047040335834026336669921875">
        <ele>1911.5999755859375</ele>
        <time>2026-06-19T09:40:50.000Z</time>
        <extensions>
          <ns3:TrackPointExtension>
            <ns3:atemp>21.0</ns3:atemp>
          </ns3:TrackPointExtension>
        </extensions>
      </trkpt>
      <trkpt lat="42.516019977629184722900390625" lon="20.01047040335834026336669921875">
        <ele>1911.5999755859375</ele>
        <time>2026-06-19T09:40:51.000Z</time>
        <extensions>
          <ns3:TrackPointExtension>
            <ns3:atemp>21.0</ns3:atemp>
          </ns3:TrackPointExtension>
        </extensions>
      </trkpt>
      <trkpt lat="42.516019977629184722900390625" lon="20.01047040335834026336669921875">
        <ele>1911.5999755859375</ele>
        <time>2026-06-19T09:40:52.000Z</time>
        <extensions>
          <ns3:TrackPointExtension>
            <ns3:atemp>21.0</ns3:atemp>
          </ns3:TrackPointExtension>
        </extensions>
      </trkpt>
      <trkpt lat="42.516019977629184722900390625" lon="20.01047040335834026336669921875">
        <ele>1911.5999755859375</ele>
        <time>2026-06-19T09:40:53.000Z</time>
        <extensions>
          <ns3:TrackPointExtension>
            <ns3:atemp>21.0</ns3:atemp>
          </ns3:TrackPointExtension>
        </extensions>
      </trkpt>
      <trkpt lat="42.516019977629184722900390625" lon="20.01047040335834026336669921875">
        <ele>1911.5999755859375</ele>
        <time>2026-06-19T09:40:54.000Z</time>
        <extensions>
          <ns3:TrackPointExtension>
            <ns3:atemp>21.0</ns3:atemp>
          </ns3:TrackPointExtension>
        </extensions>
      </trkpt>
      <trkpt lat="42.516019977629184722900390625" lon="20.01047040335834026336669921875">
        <ele>1911.5999755859375</ele>
        <time>2026-06-19T09:40:55.000Z</time>
        <extensions>
          <ns3:TrackPointExtension>
            <ns3:atemp>21.0</ns3:atemp>
          </ns3:TrackPointExtension>
        </extensions>
      </trkpt>
      <trkpt lat="42.516019977629184722900390625" lon="20.01047040335834026336669921875">
        <ele>1911.5999755859375</ele>
        <time>2026-06-19T09:40:56.000Z</time>
        <extensions>
          <ns3:TrackPointExtension>
            <ns3:atemp>21.0</ns3:atemp>
          </ns3:TrackPointExtension>
        </extensions>
      </trkpt>
      <trkpt lat="42.516019977629184722900390625" lon="20.01047040335834026336669921875">
        <ele>1911.5999755859375</ele>
        <time>2026-06-19T09:40:57.000Z</time>
        <extensions>
          <ns3:TrackPointExtension>
            <ns3:atemp>21.0</ns3:atemp>
          </ns3:TrackPointExtension>
        </extensions>
      </trkpt>
      <trkpt lat="42.516019977629184722900390625" lon="20.01047040335834026336669921875">
        <ele>1911.5999755859375</ele>
        <time>2026-06-19T09:40:58.000Z</time>
        <extensions>
          <ns3:TrackPointExtension>
            <ns3:atemp>21.0</ns3:atemp>
          </ns3:TrackPointExtension>
        </extensions>
      </trkpt>
      <trkpt lat="42.516019977629184722900390625" lon="20.01047040335834026336669921875">
        <ele>1911.5999755859375</ele>
        <time>2026-06-19T09:40:59.000Z</time>
        <extensions>
          <ns3:TrackPointExtension>
            <ns3:atemp>21.0</ns3:atemp>
          </ns3:TrackPointExtension>
        </extensions>
      </trkpt>
      <trkpt lat="42.516019977629184722900390625" lon="20.01047040335834026336669921875">
        <ele>1911.5999755859375</ele>
        <time>2026-06-19T09:41:00.000Z</time>
        <extensions>
          <ns3:TrackPointExtension>
            <ns3:atemp>21.0</ns3:atemp>
          </ns3:TrackPointExtension>
        </extensions>
      </trkpt>
      <trkpt lat="42.516019977629184722900390625" lon="20.01047040335834026336669921875">
        <ele>1911.5999755859375</ele>
        <time>2026-06-19T09:41:01.000Z</time>
        <extensions>
          <ns3:TrackPointExtension>
            <ns3:atemp>21.0</ns3:atemp>
          </ns3:TrackPointExtension>
        </extensions>
      </trkpt>
      <trkpt lat="42.516019977629184722900390625" lon="20.01047040335834026336669921875">
        <ele>1911.5999755859375</ele>
        <time>2026-06-19T09:41:02.000Z</time>
        <extensions>
          <ns3:TrackPointExtension>
            <ns3:atemp>21.0</ns3:atemp>
          </ns3:TrackPointExtension>
        </extensions>
      </trkpt>
      <trkpt lat="42.516019977629184722900390625" lon="20.01047040335834026336669921875">
        <ele>1911.5999755859375</ele>
        <time>2026-06-19T09:41:03.000Z</time>
        <extensions>
          <ns3:TrackPointExtension>
            <ns3:atemp>21.0</ns3:atemp>
          </ns3:TrackPointExtension>
        </extensions>
      </trkpt>
      <trkpt lat="42.516019977629184722900390625" lon="20.01047040335834026336669921875">
        <ele>1911.5999755859375</ele>
        <time>2026-06-19T09:41:04.000Z</time>
        <extensions>
          <ns3:TrackPointExtension>
            <ns3:atemp>21.0</ns3:atemp>
          </ns3:TrackPointExtension>
        </extensions>
      </trkpt>
      <trkpt lat="42.516019977629184722900390625" lon="20.01047040335834026336669921875">
        <ele>1911.5999755859375</ele>
        <time>2026-06-19T09:41:05.000Z</time>
        <extensions>
          <ns3:TrackPointExtension>
            <ns3:atemp>21.0</ns3:atemp>
          </ns3:TrackPointExtension>
        </extensions>
      </trkpt>
      <trkpt lat="42.516019977629184722900390625" lon="20.01047040335834026336669921875">
        <ele>1911.5999755859375</ele>
        <time>2026-06-19T09:41:06.000Z</time>
        <extensions>
          <ns3:TrackPointExtension>
            <ns3:atemp>21.0</ns3:atemp>
          </ns3:TrackPointExtension>
        </extensions>
      </trkpt>
      <trkpt lat="42.516019977629184722900390625" lon="20.01047040335834026336669921875">
        <ele>1911.5999755859375</ele>
        <time>2026-06-19T09:41:07.000Z</time>
        <extensions>
          <ns3:TrackPointExtension>
            <ns3:atemp>21.0</ns3:atemp>
          </ns3:TrackPointExtension>
        </extensions>
      </trkpt>
      <trkpt lat="42.516019977629184722900390625" lon="20.01047040335834026336669921875">
        <ele>1911.5999755859375</ele>
        <time>2026-06-19T09:41:08.000Z</time>
        <extensions>
          <ns3:TrackPointExtension>
            <ns3:atemp>21.0</ns3:atemp>
          </ns3:TrackPointExtension>
        </extensions>
      </trkpt>
      <trkpt lat="42.516019977629184722900390625" lon="20.01047040335834026336669921875">
        <ele>1911.5999755859375</ele>
        <time>2026-06-19T09:41:09.000Z</time>
        <extensions>
          <ns3:TrackPointExtension>
            <ns3:atemp>21.0</ns3:atemp>
          </ns3:TrackPointExtension>
        </extensions>
      </trkpt>
      <trkpt lat="42.516019977629184722900390625" lon="20.01047040335834026336669921875">
        <ele>1911.5999755859375</ele>
        <time>2026-06-19T09:41:10.000Z</time>
        <extensions>
          <ns3:TrackPointExtension>
            <ns3:atemp>21.0</ns3:atemp>
          </ns3:TrackPointExtension>
        </extensions>
      </trkpt>
      <trkpt lat="42.516019977629184722900390625" lon="20.01047040335834026336669921875">
        <ele>1911.5999755859375</ele>
        <time>2026-06-19T09:41:11.000Z</time>
        <extensions>
          <ns3:TrackPointExtension>
            <ns3:atemp>21.0</ns3:atemp>
          </ns3:TrackPointExtension>
        </extensions>
      </trkpt>
      <trkpt lat="42.516019977629184722900390625" lon="20.01047040335834026336669921875">
        <ele>1911.5999755859375</ele>
        <time>2026-06-19T09:41:12.000Z</time>
        <extensions>
          <ns3:TrackPointExtension>
            <ns3:atemp>21.0</ns3:atemp>
          </ns3:TrackPointExtension>
        </extensions>
      </trkpt>
      <trkpt lat="42.516019977629184722900390625" lon="20.01047040335834026336669921875">
        <ele>1911.5999755859375</ele>
        <time>2026-06-19T09:41:13.000Z</time>
        <extensions>
          <ns3:TrackPointExtension>
            <ns3:atemp>21.0</ns3:atemp>
          </ns3:TrackPointExtension>
        </extensions>
      </trkpt>
      <trkpt lat="42.516019977629184722900390625" lon="20.01047040335834026336669921875">
        <ele>1911.5999755859375</ele>
        <time>2026-06-19T09:41:14.000Z</time>
        <extensions>
          <ns3:TrackPointExtension>
            <ns3:atemp>21.0</ns3:atemp>
          </ns3:TrackPointExtension>
        </extensions>
      </trkpt>
      <trkpt lat="42.516019977629184722900390625" lon="20.01047040335834026336669921875">
        <ele>1911.5999755859375</ele>
        <time>2026-06-19T09:41:15.000Z</time>
        <extensions>
          <ns3:TrackPointExtension>
            <ns3:atemp>21.0</ns3:atemp>
          </ns3:TrackPointExtension>
        </extensions>
      </trkpt>
      <trkpt lat="42.516019977629184722900390625" lon="20.01047040335834026336669921875">
        <ele>1911.5999755859375</ele>
        <time>2026-06-19T09:41:16.000Z</time>
        <extensions>
          <ns3:TrackPointExtension>
            <ns3:atemp>21.0</ns3:atemp>
          </ns3:TrackPointExtension>
        </extensions>
      </trkpt>
      <trkpt lat="42.516019977629184722900390625" lon="20.01047040335834026336669921875">
        <ele>1911.5999755859375</ele>
        <time>2026-06-19T09:41:17.000Z</time>
        <extensions>
          <ns3:TrackPointExtension>
            <ns3:atemp>21.0</ns3:atemp>
          </ns3:TrackPointExtension>
        </extensions>
      </trkpt>
      <trkpt lat="42.516019977629184722900390625" lon="20.01047040335834026336669921875">
        <ele>1911.5999755859375</ele>
        <time>2026-06-19T09:41:18.000Z</time>
        <extensions>
          <ns3:TrackPointExtension>
            <ns3:atemp>21.0</ns3:atemp>
          </ns3:TrackPointExtension>
        </extensions>
      </trkpt>
      <trkpt lat="42.516019977629184722900390625" lon="20.01047040335834026336669921875">
        <ele>1911.5999755859375</ele>
        <time>2026-06-19T09:41:19.000Z</time>
        <extensions>
          <ns3:TrackPointExtension>
            <ns3:atemp>21.0</ns3:atemp>
          </ns3:TrackPointExtension>
        </extensions>
      </trkpt>
      <trkpt lat="42.516019977629184722900390625" lon="20.01047040335834026336669921875">
        <ele>1911.5999755859375</ele>
        <time>2026-06-19T09:41:20.000Z</time>
        <extensions>
          <ns3:TrackPointExtension>
            <ns3:atemp>21.0</ns3:atemp>
          </ns3:TrackPointExtension>
        </extensions>
      </trkpt>
      <trkpt lat="42.516019977629184722900390625" lon="20.01047040335834026336669921875">
        <ele>1911.5999755859375</ele>
        <time>2026-06-19T09:41:21.000Z</time>
        <extensions>
          <ns3:TrackPointExtension>
            <ns3:atemp>21.0</ns3:atemp>
          </ns3:TrackPointExtension>
        </extensions>
      </trkpt>
      <trkpt lat="42.516019977629184722900390625" lon="20.01047040335834026336669921875">
        <ele>1911.5999755859375</ele>
        <time>2026-06-19T09:41:22.000Z</time>
        <extensions>
          <ns3:TrackPointExtension>
            <ns3:atemp>21.0</ns3:atemp>
          </ns3:TrackPointExtension>
        </extensions>
      </trkpt>
      <trkpt lat="42.516019977629184722900390625" lon="20.01047040335834026336669921875">
        <ele>1911.5999755859375</ele>
        <time>2026-06-19T09:41:23.000Z</time>
        <extensions>
          <ns3:TrackPointExtension>
            <ns3:atemp>21.0</ns3:atemp>
          </ns3:TrackPointExtension>
        </extensions>
      </trkpt>
      <trkpt lat="42.516019977629184722900390625" lon="20.01047040335834026336669921875">
        <ele>1911.5999755859375</ele>
        <time>2026-06-19T09:41:24.000Z</time>
        <extensions>
          <ns3:TrackPointExtension>
            <ns3:atemp>21.0</ns3:atemp>
          </ns3:TrackPointExtension>
        </extensions>
      </trkpt>
      <trkpt lat="42.516019977629184722900390625" lon="20.01047040335834026336669921875">
        <ele>1911.5999755859375</ele>
        <time>2026-06-19T09:41:25.000Z</time>
        <extensions>
          <ns3:TrackPointExtension>
            <ns3:atemp>21.0</ns3:atemp>
          </ns3:TrackPointExtension>
        </extensions>
      </trkpt>
      <trkpt lat="42.516019977629184722900390625" lon="20.01047040335834026336669921875">
        <ele>1911.5999755859375</ele>
        <time>2026-06-19T09:41:26.000Z</time>
        <extensions>
          <ns3:TrackPointExtension>
            <ns3:atemp>21.0</ns3:atemp>
          </ns3:TrackPointExtension>
        </extensions>
      </trkpt>
      <trkpt lat="42.516019977629184722900390625" lon="20.01047040335834026336669921875">
        <ele>1911.5999755859375</ele>
        <time>2026-06-19T09:41:27.000Z</time>
        <extensions>
          <ns3:TrackPointExtension>
            <ns3:atemp>21.0</ns3:atemp>
          </ns3:TrackPointExtension>
        </extensions>
      </trkpt>
      <trkpt lat="42.516019977629184722900390625" lon="20.01047040335834026336669921875">
        <ele>1911.5999755859375</ele>
        <time>2026-06-19T09:41:28.000Z</time>
        <extensions>
          <ns3:TrackPointExtension>
            <ns3:atemp>21.0</ns3:atemp>
          </ns3:TrackPointExtension>
        </extensions>
      </trkpt>
      <trkpt lat="42.516019977629184722900390625" lon="20.01047040335834026336669921875">
        <ele>1911.5999755859375</ele>
        <time>2026-06-19T09:41:29.000Z</time>
        <extensions>
          <ns3:TrackPointExtension>
            <ns3:atemp>21.0</ns3:atemp>
          </ns3:TrackPointExtension>
        </extensions>
      </trkpt>
      <trkpt lat="42.516019977629184722900390625" lon="20.01047040335834026336669921875">
        <ele>1911.5999755859375</ele>
        <time>2026-06-19T09:41:30.000Z</time>
        <extensions>
          <ns3:TrackPointExtension>
            <ns3:atemp>21.0</ns3:atemp>
          </ns3:TrackPointExtension>
        </extensions>
      </trkpt>
      <trkpt lat="42.516019977629184722900390625" lon="20.01047040335834026336669921875">
        <ele>1911.5999755859375</ele>
        <time>2026-06-19T09:41:31.000Z</time>
        <extensions>
          <ns3:TrackPointExtension>
            <ns3:atemp>21.0</ns3:atemp>
          </ns3:TrackPointExtension>
        </extensions>
      </trkpt>
      <trkpt lat="42.516019977629184722900390625" lon="20.01047040335834026336669921875">
        <ele>1911.5999755859375</ele>
        <time>2026-06-19T09:41:32.000Z</time>
        <extensions>
          <ns3:TrackPointExtension>
            <ns3:atemp>21.0</ns3:atemp>
          </ns3:TrackPointExtension>
        </extensions>
      </trkpt>
      <trkpt lat="42.516019977629184722900390625" lon="20.01047040335834026336669921875">
        <ele>1911.5999755859375</ele>
        <time>2026-06-19T09:41:33.000Z</time>
        <extensions>
          <ns3:TrackPointExtension>
            <ns3:atemp>21.0</ns3:atemp>
          </ns3:TrackPointExtension>
        </extensions>
      </trkpt>
      <trkpt lat="42.516019977629184722900390625" lon="20.01047040335834026336669921875">
        <ele>1911.5999755859375</ele>
        <time>2026-06-19T09:41:34.000Z</time>
        <extensions>
          <ns3:TrackPointExtension>
            <ns3:atemp>21.0</ns3:atemp>
          </ns3:TrackPointExtension>
        </extensions>
      </trkpt>
      <trkpt lat="42.516019977629184722900390625" lon="20.01047040335834026336669921875">
        <ele>1911.5999755859375</ele>
        <time>2026-06-19T09:41:35.000Z</time>
        <extensions>
          <ns3:TrackPointExtension>
            <ns3:atemp>21.0</ns3:atemp>
          </ns3:TrackPointExtension>
        </extensions>
      </trkpt>
      <trkpt lat="42.516019977629184722900390625" lon="20.01047040335834026336669921875">
        <ele>1911.5999755859375</ele>
        <time>2026-06-19T09:41:36.000Z</time>
        <extensions>
          <ns3:TrackPointExtension>
            <ns3:atemp>21.0</ns3:atemp>
          </ns3:TrackPointExtension>
        </extensions>
      </trkpt>
      <trkpt lat="42.516019977629184722900390625" lon="20.01047040335834026336669921875">
        <ele>1911.5999755859375</ele>
        <time>2026-06-19T09:41:37.000Z</time>
        <extensions>
          <ns3:TrackPointExtension>
            <ns3:atemp>21.0</ns3:atemp>
          </ns3:TrackPointExtension>
        </extensions>
      </trkpt>
      <trkpt lat="42.516019977629184722900390625" lon="20.01047040335834026336669921875">
        <ele>1911.5999755859375</ele>
        <time>2026-06-19T09:41:38.000Z</time>
        <extensions>
          <ns3:TrackPointExtension>
            <ns3:atemp>21.0</ns3:atemp>
          </ns3:TrackPointExtension>
        </extensions>
      </trkpt>
      <trkpt lat="42.516019977629184722900390625" lon="20.01047040335834026336669921875">
        <ele>1911.5999755859375</ele>
        <time>2026-06-19T09:41:39.000Z</time>
        <extensions>
          <ns3:TrackPointExtension>
            <ns3:atemp>21.0</ns3:atemp>
          </ns3:TrackPointExtension>
        </extensions>
      </trkpt>
      <trkpt lat="42.516019977629184722900390625" lon="20.01047040335834026336669921875">
        <ele>1911.5999755859375</ele>
        <time>2026-06-19T09:41:40.000Z</time>
        <extensions>
          <ns3:TrackPointExtension>
            <ns3:atemp>21.0</ns3:atemp>
          </ns3:TrackPointExtension>
        </extensions>
      </trkpt>
      <trkpt lat="42.516019977629184722900390625" lon="20.01047040335834026336669921875">
        <ele>1911.5999755859375</ele>
        <time>2026-06-19T09:41:41.000Z</time>
        <extensions>
          <ns3:TrackPointExtension>
            <ns3:atemp>21.0</ns3:atemp>
          </ns3:TrackPointExtension>
        </extensions>
      </trkpt>
      <trkpt lat="42.516019977629184722900390625" lon="20.01047040335834026336669921875">
        <ele>1911.5999755859375</ele>
        <time>2026-06-19T09:41:42.000Z</time>
        <extensions>
          <ns3:TrackPointExtension>
            <ns3:atemp>21.0</ns3:atemp>
          </ns3:TrackPointExtension>
        </extensions>
      </trkpt>
      <trkpt lat="42.516019977629184722900390625" lon="20.01047040335834026336669921875">
        <ele>1911.5999755859375</ele>
        <time>2026-06-19T09:41:43.000Z</time>
        <extensions>
          <ns3:TrackPointExtension>
            <ns3:atemp>21.0</ns3:atemp>
          </ns3:TrackPointExtension>
        </extensions>
      </trkpt>
      <trkpt lat="42.516019977629184722900390625" lon="20.01047040335834026336669921875">
        <ele>1911.5999755859375</ele>
        <time>2026-06-19T09:41:44.000Z</time>
        <extensions>
          <ns3:TrackPointExtension>
            <ns3:atemp>21.0</ns3:atemp>
          </ns3:TrackPointExtension>
        </extensions>
      </trkpt>
      <trkpt lat="42.516019977629184722900390625" lon="20.01047040335834026336669921875">
        <ele>1911.5999755859375</ele>
        <time>2026-06-19T09:41:45.000Z</time>
        <extensions>
          <ns3:TrackPointExtension>
            <ns3:atemp>21.0</ns3:atemp>
          </ns3:TrackPointExtension>
        </extensions>
      </trkpt>
      <trkpt lat="42.516019977629184722900390625" lon="20.01047040335834026336669921875">
        <ele>1911.5999755859375</ele>
        <time>2026-06-19T09:41:46.000Z</time>
        <extensions>
          <ns3:TrackPointExtension>
            <ns3:atemp>21.0</ns3:atemp>
          </ns3:TrackPointExtension>
        </extensions>
      </trkpt>
      <trkpt lat="42.516019977629184722900390625" lon="20.01047040335834026336669921875">
        <ele>1911.5999755859375</ele>
        <time>2026-06-19T09:41:47.000Z</time>
        <extensions>
          <ns3:TrackPointExtension>
            <ns3:atemp>21.0</ns3:atemp>
          </ns3:TrackPointExtension>
        </extensions>
      </trkpt>
      <trkpt lat="42.516019977629184722900390625" lon="20.01047040335834026336669921875">
        <ele>1911.5999755859375</ele>
        <time>2026-06-19T09:41:48.000Z</time>
        <extensions>
          <ns3:TrackPointExtension>
            <ns3:atemp>21.0</ns3:atemp>
          </ns3:TrackPointExtension>
        </extensions>
      </trkpt>
      <trkpt lat="42.516019977629184722900390625" lon="20.01047040335834026336669921875">
        <ele>1911.5999755859375</ele>
        <time>2026-06-19T09:41:49.000Z</time>
        <extensions>
          <ns3:TrackPointExtension>
            <ns3:atemp>21.0</ns3:atemp>
          </ns3:TrackPointExtension>
        </extensions>
      </trkpt>
      <trkpt lat="42.516019977629184722900390625" lon="20.01047040335834026336669921875">
        <ele>1911.5999755859375</ele>
        <time>2026-06-19T09:41:50.000Z</time>
        <extensions>
          <ns3:TrackPointExtension>
            <ns3:atemp>21.0</ns3:atemp>
          </ns3:TrackPointExtension>
        </extensions>
      </trkpt>
      <trkpt lat="42.516019977629184722900390625" lon="20.01047040335834026336669921875">
        <ele>1911.5999755859375</ele>
        <time>2026-06-19T09:41:51.000Z</time>
        <extensions>
          <ns3:TrackPointExtension>
            <ns3:atemp>21.0</ns3:atemp>
          </ns3:TrackPointExtension>
        </extensions>
      </trkpt>
      <trkpt lat="42.516019977629184722900390625" lon="20.01047040335834026336669921875">
        <ele>1911.5999755859375</ele>
        <time>2026-06-19T09:41:52.000Z</time>
        <extensions>
          <ns3:TrackPointExtension>
            <ns3:atemp>21.0</ns3:atemp>
          </ns3:TrackPointExtension>
        </extensions>
      </trkpt>
      <trkpt lat="42.516019977629184722900390625" lon="20.01047040335834026336669921875">
        <ele>1911.5999755859375</ele>
        <time>2026-06-19T09:41:53.000Z</time>
        <extensions>
          <ns3:TrackPointExtension>
            <ns3:atemp>21.0</ns3:atemp>
          </ns3:TrackPointExtension>
        </extensions>
      </trkpt>
      <trkpt lat="42.516019977629184722900390625" lon="20.01047040335834026336669921875">
        <ele>1911.5999755859375</ele>
        <time>2026-06-19T09:41:54.000Z</time>
        <extensions>
          <ns3:TrackPointExtension>
            <ns3:atemp>21.0</ns3:atemp>
          </ns3:TrackPointExtension>
        </extensions>
      </trkpt>
      <trkpt lat="42.516019977629184722900390625" lon="20.01047040335834026336669921875">
        <ele>1911.5999755859375</ele>
        <time>2026-06-19T09:41:55.000Z</time>
        <extensions>
          <ns3:TrackPointExtension>
            <ns3:atemp>21.0</ns3:atemp>
          </ns3:TrackPointExtension>
        </extensions>
      </trkpt>
      <trkpt lat="42.516019977629184722900390625" lon="20.01047040335834026336669921875">
        <ele>1911.5999755859375</ele>
        <time>2026-06-19T09:41:56.000Z</time>
        <extensions>
          <ns3:TrackPointExtension>
            <ns3:atemp>21.0</ns3:atemp>
          </ns3:TrackPointExtension>
        </extensions>
      </trkpt>
      <trkpt lat="42.516019977629184722900390625" lon="20.01047040335834026336669921875">
        <ele>1911.5999755859375</ele>
        <time>2026-06-19T09:41:57.000Z</time>
        <extensions>
          <ns3:TrackPointExtension>
            <ns3:atemp>21.0</ns3:atemp>
          </ns3:TrackPointExtension>
        </extensions>
      </trkpt>
      <trkpt lat="42.516019977629184722900390625" lon="20.01047040335834026336669921875">
        <ele>1911.5999755859375</ele>
        <time>2026-06-19T09:41:58.000Z</time>
        <extensions>
          <ns3:TrackPointExtension>
            <ns3:atemp>21.0</ns3:atemp>
          </ns3:TrackPointExtension>
        </extensions>
      </trkpt>
      <trkpt lat="42.516019977629184722900390625" lon="20.01047040335834026336669921875">
        <ele>1911.5999755859375</ele>
        <time>2026-06-19T09:41:59.000Z</time>
        <extensions>
          <ns3:TrackPointExtension>
            <ns3:atemp>21.0</ns3:atemp>
          </ns3:TrackPointExtension>
        </extensions>
      </trkpt>
      <trkpt lat="42.516019977629184722900390625" lon="20.01047040335834026336669921875">
        <ele>1911.5999755859375</ele>
        <time>2026-06-19T09:42:00.000Z</time>
        <extensions>
          <ns3:TrackPointExtension>
            <ns3:atemp>21.0</ns3:atemp>
          </ns3:TrackPointExtension>
        </extensions>
      </trkpt>
      <trkpt lat="42.516019977629184722900390625" lon="20.01047040335834026336669921875">
        <ele>1911.5999755859375</ele>
        <time>2026-06-19T09:42:01.000Z</time>
        <extensions>
          <ns3:TrackPointExtension>
            <ns3:atemp>21.0</ns3:atemp>
          </ns3:TrackPointExtension>
        </extensions>
      </trkpt>
      <trkpt lat="42.516019977629184722900390625" lon="20.01047040335834026336669921875">
        <ele>1911.5999755859375</ele>
        <time>2026-06-19T09:42:02.000Z</time>
        <extensions>
          <ns3:TrackPointExtension>
            <ns3:atemp>21.0</ns3:atemp>
          </ns3:TrackPointExtension>
        </extensions>
      </trkpt>
      <trkpt lat="42.516019977629184722900390625" lon="20.01047040335834026336669921875">
        <ele>1911.5999755859375</ele>
        <time>2026-06-19T09:42:03.000Z</time>
        <extensions>
          <ns3:TrackPointExtension>
            <ns3:atemp>21.0</ns3:atemp>
          </ns3:TrackPointExtension>
        </extensions>
      </trkpt>
      <trkpt lat="42.516019977629184722900390625" lon="20.01047040335834026336669921875">
        <ele>1911.5999755859375</ele>
        <time>2026-06-19T09:42:04.000Z</time>
        <extensions>
          <ns3:TrackPointExtension>
            <ns3:atemp>21.0</ns3:atemp>
          </ns3:TrackPointExtension>
        </extensions>
      </trkpt>
      <trkpt lat="42.516019977629184722900390625" lon="20.01047040335834026336669921875">
        <ele>1911.5999755859375</ele>
        <time>2026-06-19T09:42:05.000Z</time>
        <extensions>
          <ns3:TrackPointExtension>
            <ns3:atemp>21.0</ns3:atemp>
          </ns3:TrackPointExtension>
        </extensions>
      </trkpt>
      <trkpt lat="42.516019977629184722900390625" lon="20.01047040335834026336669921875">
        <ele>1911.5999755859375</ele>
        <time>2026-06-19T09:42:06.000Z</time>
        <extensions>
          <ns3:TrackPointExtension>
            <ns3:atemp>21.0</ns3:atemp>
          </ns3:TrackPointExtension>
        </extensions>
      </trkpt>
      <trkpt lat="42.516019977629184722900390625" lon="20.01047040335834026336669921875">
        <ele>1911.5999755859375</ele>
        <time>2026-06-19T09:42:07.000Z</time>
        <extensions>
          <ns3:TrackPointExtension>
            <ns3:atemp>21.0</ns3:atemp>
          </ns3:TrackPointExtension>
        </extensions>
      </trkpt>
      <trkpt lat="42.516019977629184722900390625" lon="20.01047040335834026336669921875">
        <ele>1911.5999755859375</ele>
        <time>2026-06-19T09:42:08.000Z</time>
        <extensions>
          <ns3:TrackPointExtension>
            <ns3:atemp>21.0</ns3:atemp>
          </ns3:TrackPointExtension>
        </extensions>
      </trkpt>
      <trkpt lat="42.516019977629184722900390625" lon="20.01047040335834026336669921875">
        <ele>1911.5999755859375</ele>
        <time>2026-06-19T09:42:09.000Z</time>
        <extensions>
          <ns3:TrackPointExtension>
            <ns3:atemp>21.0</ns3:atemp>
          </ns3:TrackPointExtension>
        </extensions>
      </trkpt>
      <trkpt lat="42.516019977629184722900390625" lon="20.01047040335834026336669921875">
        <ele>1911.5999755859375</ele>
        <time>2026-06-19T09:42:10.000Z</time>
        <extensions>
          <ns3:TrackPointExtension>
            <ns3:atemp>21.0</ns3:atemp>
          </ns3:TrackPointExtension>
        </extensions>
      </trkpt>
      <trkpt lat="42.516019977629184722900390625" lon="20.01047040335834026336669921875">
        <ele>1911.5999755859375</ele>
        <time>2026-06-19T09:42:11.000Z</time>
        <extensions>
          <ns3:TrackPointExtension>
            <ns3:atemp>21.0</ns3:atemp>
          </ns3:TrackPointExtension>
        </extensions>
      </trkpt>
      <trkpt lat="42.516019977629184722900390625" lon="20.01047040335834026336669921875">
        <ele>1911.5999755859375</ele>
        <time>2026-06-19T09:42:12.000Z</time>
        <extensions>
          <ns3:TrackPointExtension>
            <ns3:atemp>21.0</ns3:atemp>
          </ns3:TrackPointExtension>
        </extensions>
      </trkpt>
      <trkpt lat="42.516019977629184722900390625" lon="20.01047040335834026336669921875">
        <ele>1911.5999755859375</ele>
        <time>2026-06-19T09:42:13.000Z</time>
        <extensions>
          <ns3:TrackPointExtension>
            <ns3:atemp>21.0</ns3:atemp>
          </ns3:TrackPointExtension>
        </extensions>
      </trkpt>
      <trkpt lat="42.516019977629184722900390625" lon="20.01047040335834026336669921875">
        <ele>1911.5999755859375</ele>
        <time>2026-06-19T09:42:14.000Z</time>
        <extensions>
          <ns3:TrackPointExtension>
            <ns3:atemp>21.0</ns3:atemp>
          </ns3:TrackPointExtension>
        </extensions>
      </trkpt>
      <trkpt lat="42.516019977629184722900390625" lon="20.01047040335834026336669921875">
        <ele>1911.5999755859375</ele>
        <time>2026-06-19T09:42:15.000Z</time>
        <extensions>
          <ns3:TrackPointExtension>
            <ns3:atemp>21.0</ns3:atemp>
          </ns3:TrackPointExtension>
        </extensions>
      </trkpt>
      <trkpt lat="42.516019977629184722900390625" lon="20.01047040335834026336669921875">
        <ele>1911.5999755859375</ele>
        <time>2026-06-19T09:42:16.000Z</time>
        <extensions>
          <ns3:TrackPointExtension>
            <ns3:atemp>21.0</ns3:atemp>
          </ns3:TrackPointExtension>
        </extensions>
      </trkpt>
      <trkpt lat="42.516019977629184722900390625" lon="20.01047040335834026336669921875">
        <ele>1911.5999755859375</ele>
        <time>2026-06-19T09:42:17.000Z</time>
        <extensions>
          <ns3:TrackPointExtension>
            <ns3:atemp>21.0</ns3:atemp>
          </ns3:TrackPointExtension>
        </extensions>
      </trkpt>
      <trkpt lat="42.516019977629184722900390625" lon="20.01047040335834026336669921875">
        <ele>1911.5999755859375</ele>
        <time>2026-06-19T09:42:18.000Z</time>
        <extensions>
          <ns3:TrackPointExtension>
            <ns3:atemp>21.0</ns3:atemp>
          </ns3:TrackPointExtension>
        </extensions>
      </trkpt>
      <trkpt lat="42.516019977629184722900390625" lon="20.01047040335834026336669921875">
        <ele>1911.5999755859375</ele>
        <time>2026-06-19T09:42:19.000Z</time>
        <extensions>
          <ns3:TrackPointExtension>
            <ns3:atemp>21.0</ns3:atemp>
          </ns3:TrackPointExtension>
        </extensions>
      </trkpt>
      <trkpt lat="42.516019977629184722900390625" lon="20.01047040335834026336669921875">
        <ele>1911.5999755859375</ele>
        <time>2026-06-19T09:42:20.000Z</time>
        <extensions>
          <ns3:TrackPointExtension>
            <ns3:atemp>21.0</ns3:atemp>
          </ns3:TrackPointExtension>
        </extensions>
      </trkpt>
      <trkpt lat="42.516019977629184722900390625" lon="20.01047040335834026336669921875">
        <ele>1911.5999755859375</ele>
        <time>2026-06-19T09:42:21.000Z</time>
        <extensions>
          <ns3:TrackPointExtension>
            <ns3:atemp>21.0</ns3:atemp>
          </ns3:TrackPointExtension>
        </extensions>
      </trkpt>
      <trkpt lat="42.516019977629184722900390625" lon="20.01047040335834026336669921875">
        <ele>1911.5999755859375</ele>
        <time>2026-06-19T09:42:22.000Z</time>
        <extensions>
          <ns3:TrackPointExtension>
            <ns3:atemp>21.0</ns3:atemp>
          </ns3:TrackPointExtension>
        </extensions>
      </trkpt>
      <trkpt lat="42.516019977629184722900390625" lon="20.01047040335834026336669921875">
        <ele>1911.5999755859375</ele>
        <time>2026-06-19T09:42:23.000Z</time>
        <extensions>
          <ns3:TrackPointExtension>
            <ns3:atemp>21.0</ns3:atemp>
          </ns3:TrackPointExtension>
        </extensions>
      </trkpt>
      <trkpt lat="42.516019977629184722900390625" lon="20.01047040335834026336669921875">
        <ele>1911.5999755859375</ele>
        <time>2026-06-19T09:42:24.000Z</time>
        <extensions>
          <ns3:TrackPointExtension>
            <ns3:atemp>21.0</ns3:atemp>
          </ns3:TrackPointExtension>
        </extensions>
      </trkpt>
      <trkpt lat="42.516019977629184722900390625" lon="20.01047040335834026336669921875">
        <ele>1911.5999755859375</ele>
        <time>2026-06-19T09:42:25.000Z</time>
        <extensions>
          <ns3:TrackPointExtension>
            <ns3:atemp>21.0</ns3:atemp>
          </ns3:TrackPointExtension>
        </extensions>
      </trkpt>
      <trkpt lat="42.516019977629184722900390625" lon="20.01047040335834026336669921875">
        <ele>1911.5999755859375</ele>
        <time>2026-06-19T09:42:26.000Z</time>
        <extensions>
          <ns3:TrackPointExtension>
            <ns3:atemp>21.0</ns3:atemp>
          </ns3:TrackPointExtension>
        </extensions>
      </trkpt>
      <trkpt lat="42.516019977629184722900390625" lon="20.01047040335834026336669921875">
        <ele>1911.5999755859375</ele>
        <time>2026-06-19T09:42:27.000Z</time>
        <extensions>
          <ns3:TrackPointExtension>
            <ns3:atemp>21.0</ns3:atemp>
          </ns3:TrackPointExtension>
        </extensions>
      </trkpt>
      <trkpt lat="42.516019977629184722900390625" lon="20.01047040335834026336669921875">
        <ele>1911.5999755859375</ele>
        <time>2026-06-19T09:42:28.000Z</time>
        <extensions>
          <ns3:TrackPointExtension>
            <ns3:atemp>21.0</ns3:atemp>
          </ns3:TrackPointExtension>
        </extensions>
      </trkpt>
      <trkpt lat="42.516019977629184722900390625" lon="20.01047040335834026336669921875">
        <ele>1911.5999755859375</ele>
        <time>2026-06-19T09:42:29.000Z</time>
        <extensions>
          <ns3:TrackPointExtension>
            <ns3:atemp>21.0</ns3:atemp>
          </ns3:TrackPointExtension>
        </extensions>
      </trkpt>
      <trkpt lat="42.516019977629184722900390625" lon="20.01047040335834026336669921875">
        <ele>1911.5999755859375</ele>
        <time>2026-06-19T09:42:30.000Z</time>
        <extensions>
          <ns3:TrackPointExtension>
            <ns3:atemp>21.0</ns3:atemp>
          </ns3:TrackPointExtension>
        </extensions>
      </trkpt>
      <trkpt lat="42.516019977629184722900390625" lon="20.01047040335834026336669921875">
        <ele>1911.5999755859375</ele>
        <time>2026-06-19T09:42:31.000Z</time>
        <extensions>
          <ns3:TrackPointExtension>
            <ns3:atemp>21.0</ns3:atemp>
          </ns3:TrackPointExtension>
        </extensions>
      </trkpt>
      <trkpt lat="42.516019977629184722900390625" lon="20.01047040335834026336669921875">
        <ele>1911.5999755859375</ele>
        <time>2026-06-19T09:42:32.000Z</time>
        <extensions>
          <ns3:TrackPointExtension>
            <ns3:atemp>21.0</ns3:atemp>
          </ns3:TrackPointExtension>
        </extensions>
      </trkpt>
      <trkpt lat="42.516019977629184722900390625" lon="20.01047040335834026336669921875">
        <ele>1911.5999755859375</ele>
        <time>2026-06-19T09:42:33.000Z</time>
        <extensions>
          <ns3:TrackPointExtension>
            <ns3:atemp>21.0</ns3:atemp>
          </ns3:TrackPointExtension>
        </extensions>
      </trkpt>
      <trkpt lat="42.516019977629184722900390625" lon="20.01047040335834026336669921875">
        <ele>1911.5999755859375</ele>
        <time>2026-06-19T09:42:34.000Z</time>
        <extensions>
          <ns3:TrackPointExtension>
            <ns3:atemp>21.0</ns3:atemp>
          </ns3:TrackPointExtension>
        </extensions>
      </trkpt>
      <trkpt lat="42.516019977629184722900390625" lon="20.01047040335834026336669921875">
        <ele>1911.5999755859375</ele>
        <time>2026-06-19T09:42:35.000Z</time>
        <extensions>
          <ns3:TrackPointExtension>
            <ns3:atemp>21.0</ns3:atemp>
          </ns3:TrackPointExtension>
        </extensions>
      </trkpt>
      <trkpt lat="42.516019977629184722900390625" lon="20.01047040335834026336669921875">
        <ele>1911.5999755859375</ele>
        <time>2026-06-19T09:42:36.000Z</time>
        <extensions>
          <ns3:TrackPointExtension>
            <ns3:atemp>21.0</ns3:atemp>
          </ns3:TrackPointExtension>
        </extensions>
      </trkpt>
      <trkpt lat="42.516019977629184722900390625" lon="20.01047040335834026336669921875">
        <ele>1911.5999755859375</ele>
        <time>2026-06-19T09:42:37.000Z</time>
        <extensions>
          <ns3:TrackPointExtension>
            <ns3:atemp>21.0</ns3:atemp>
          </ns3:TrackPointExtension>
        </extensions>
      </trkpt>
      <trkpt lat="42.516019977629184722900390625" lon="20.01047040335834026336669921875">
        <ele>1911.5999755859375</ele>
        <time>2026-06-19T09:42:38.000Z</time>
        <extensions>
          <ns3:TrackPointExtension>
            <ns3:atemp>21.0</ns3:atemp>
          </ns3:TrackPointExtension>
        </extensions>
      </trkpt>
      <trkpt lat="42.516019977629184722900390625" lon="20.01047040335834026336669921875">
        <ele>1911.5999755859375</ele>
        <time>2026-06-19T09:42:39.000Z</time>
        <extensions>
          <ns3:TrackPointExtension>
            <ns3:atemp>21.0</ns3:atemp>
          </ns3:TrackPointExtension>
        </extensions>
      </trkpt>
      <trkpt lat="42.516019977629184722900390625" lon="20.01047040335834026336669921875">
        <ele>1911.5999755859375</ele>
        <time>2026-06-19T09:42:40.000Z</time>
        <extensions>
          <ns3:TrackPointExtension>
            <ns3:atemp>21.0</ns3:atemp>
          </ns3:TrackPointExtension>
        </extensions>
      </trkpt>
      <trkpt lat="42.516019977629184722900390625" lon="20.01047040335834026336669921875">
        <ele>1911.5999755859375</ele>
        <time>2026-06-19T09:42:41.000Z</time>
        <extensions>
          <ns3:TrackPointExtension>
            <ns3:atemp>21.0</ns3:atemp>
          </ns3:TrackPointExtension>
        </extensions>
      </trkpt>
      <trkpt lat="42.516019977629184722900390625" lon="20.01047040335834026336669921875">
        <ele>1911.5999755859375</ele>
        <time>2026-06-19T09:42:42.000Z</time>
        <extensions>
          <ns3:TrackPointExtension>
            <ns3:atemp>21.0</ns3:atemp>
          </ns3:TrackPointExtension>
        </extensions>
      </trkpt>
      <trkpt lat="42.516019977629184722900390625" lon="20.01047040335834026336669921875">
        <ele>1911.5999755859375</ele>
        <time>2026-06-19T09:42:43.000Z</time>
        <extensions>
          <ns3:TrackPointExtension>
            <ns3:atemp>21.0</ns3:atemp>
          </ns3:TrackPointExtension>
        </extensions>
      </trkpt>
      <trkpt lat="42.516019977629184722900390625" lon="20.01047040335834026336669921875">
        <ele>1911.5999755859375</ele>
        <time>2026-06-19T09:42:44.000Z</time>
        <extensions>
          <ns3:TrackPointExtension>
            <ns3:atemp>21.0</ns3:atemp>
          </ns3:TrackPointExtension>
        </extensions>
      </trkpt>
      <trkpt lat="42.516019977629184722900390625" lon="20.01047040335834026336669921875">
        <ele>1911.5999755859375</ele>
        <time>2026-06-19T09:42:45.000Z</time>
        <extensions>
          <ns3:TrackPointExtension>
            <ns3:atemp>21.0</ns3:atemp>
          </ns3:TrackPointExtension>
        </extensions>
      </trkpt>
      <trkpt lat="42.516019977629184722900390625" lon="20.01047040335834026336669921875">
        <ele>1911.5999755859375</ele>
        <time>2026-06-19T09:42:46.000Z</time>
        <extensions>
          <ns3:TrackPointExtension>
            <ns3:atemp>21.0</ns3:atemp>
          </ns3:TrackPointExtension>
        </extensions>
      </trkpt>
      <trkpt lat="42.516019977629184722900390625" lon="20.01047040335834026336669921875">
        <ele>1911.5999755859375</ele>
        <time>2026-06-19T09:42:47.000Z</time>
        <extensions>
          <ns3:TrackPointExtension>
            <ns3:atemp>21.0</ns3:atemp>
          </ns3:TrackPointExtension>
        </extensions>
      </trkpt>
      <trkpt lat="42.516019977629184722900390625" lon="20.01047040335834026336669921875">
        <ele>1911.5999755859375</ele>
        <time>2026-06-19T09:42:48.000Z</time>
        <extensions>
          <ns3:TrackPointExtension>
            <ns3:atemp>21.0</ns3:atemp>
          </ns3:TrackPointExtension>
        </extensions>
      </trkpt>
      <trkpt lat="42.516019977629184722900390625" lon="20.01047040335834026336669921875">
        <ele>1911.5999755859375</ele>
        <time>2026-06-19T09:42:49.000Z</time>
        <extensions>
          <ns3:TrackPointExtension>
            <ns3:atemp>21.0</ns3:atemp>
          </ns3:TrackPointExtension>
        </extensions>
      </trkpt>
      <trkpt lat="42.516019977629184722900390625" lon="20.01047040335834026336669921875">
        <ele>1911.5999755859375</ele>
        <time>2026-06-19T09:42:50.000Z</time>
        <extensions>
          <ns3:TrackPointExtension>
            <ns3:atemp>21.0</ns3:atemp>
          </ns3:TrackPointExtension>
        </extensions>
      </trkpt>
      <trkpt lat="42.516019977629184722900390625" lon="20.01047040335834026336669921875">
        <ele>1911.5999755859375</ele>
        <time>2026-06-19T09:42:51.000Z</time>
        <extensions>
          <ns3:TrackPointExtension>
            <ns3:atemp>21.0</ns3:atemp>
          </ns3:TrackPointExtension>
        </extensions>
      </trkpt>
      <trkpt lat="42.516019977629184722900390625" lon="20.01047040335834026336669921875">
        <ele>1911.5999755859375</ele>
        <time>2026-06-19T09:42:52.000Z</time>
        <extensions>
          <ns3:TrackPointExtension>
            <ns3:atemp>21.0</ns3:atemp>
          </ns3:TrackPointExtension>
        </extensions>
      </trkpt>
      <trkpt lat="42.516019977629184722900390625" lon="20.01047040335834026336669921875">
        <ele>1911.5999755859375</ele>
        <time>2026-06-19T09:42:53.000Z</time>
        <extensions>
          <ns3:TrackPointExtension>
            <ns3:atemp>21.0</ns3:atemp>
          </ns3:TrackPointExtension>
        </extensions>
      </trkpt>
      <trkpt lat="42.516019977629184722900390625" lon="20.01047040335834026336669921875">
        <ele>1911.5999755859375</ele>
        <time>2026-06-19T09:42:54.000Z</time>
        <extensions>
          <ns3:TrackPointExtension>
            <ns3:atemp>21.0</ns3:atemp>
          </ns3:TrackPointExtension>
        </extensions>
      </trkpt>
      <trkpt lat="42.516019977629184722900390625" lon="20.01047040335834026336669921875">
        <ele>1911.5999755859375</ele>
        <time>2026-06-19T09:42:55.000Z</time>
        <extensions>
          <ns3:TrackPointExtension>
            <ns3:atemp>21.0</ns3:atemp>
          </ns3:TrackPointExtension>
        </extensions>
      </trkpt>
      <trkpt lat="42.516019977629184722900390625" lon="20.01047040335834026336669921875">
        <ele>1911.5999755859375</ele>
        <time>2026-06-19T09:42:56.000Z</time>
        <extensions>
          <ns3:TrackPointExtension>
            <ns3:atemp>21.0</ns3:atemp>
          </ns3:TrackPointExtension>
        </extensions>
      </trkpt>
      <trkpt lat="42.516019977629184722900390625" lon="20.01047040335834026336669921875">
        <ele>1911.5999755859375</ele>
        <time>2026-06-19T09:42:57.000Z</time>
        <extensions>
          <ns3:TrackPointExtension>
            <ns3:atemp>21.0</ns3:atemp>
          </ns3:TrackPointExtension>
        </extensions>
      </trkpt>
      <trkpt lat="42.516019977629184722900390625" lon="20.01047040335834026336669921875">
        <ele>1911.5999755859375</ele>
        <time>2026-06-19T09:42:58.000Z</time>
        <extensions>
          <ns3:TrackPointExtension>
            <ns3:atemp>21.0</ns3:atemp>
          </ns3:TrackPointExtension>
        </extensions>
      </trkpt>
      <trkpt lat="42.516019977629184722900390625" lon="20.01047040335834026336669921875">
        <ele>1911.5999755859375</ele>
        <time>2026-06-19T09:42:59.000Z</time>
        <extensions>
          <ns3:TrackPointExtension>
            <ns3:atemp>21.0</ns3:atemp>
          </ns3:TrackPointExtension>
        </extensions>
      </trkpt>
      <trkpt lat="42.516019977629184722900390625" lon="20.01047040335834026336669921875">
        <ele>1911.5999755859375</ele>
        <time>2026-06-19T09:43:00.000Z</time>
        <extensions>
          <ns3:TrackPointExtension>
            <ns3:atemp>21.0</ns3:atemp>
          </ns3:TrackPointExtension>
        </extensions>
      </trkpt>
      <trkpt lat="42.516019977629184722900390625" lon="20.01047040335834026336669921875">
        <ele>1911.5999755859375</ele>
        <time>2026-06-19T09:43:01.000Z</time>
        <extensions>
          <ns3:TrackPointExtension>
            <ns3:atemp>21.0</ns3:atemp>
          </ns3:TrackPointExtension>
        </extensions>
      </trkpt>
      <trkpt lat="42.516019977629184722900390625" lon="20.01047040335834026336669921875">
        <ele>1911.5999755859375</ele>
        <time>2026-06-19T09:43:02.000Z</time>
        <extensions>
          <ns3:TrackPointExtension>
            <ns3:atemp>21.0</ns3:atemp>
          </ns3:TrackPointExtension>
        </extensions>
      </trkpt>
      <trkpt lat="42.516019977629184722900390625" lon="20.01047040335834026336669921875">
        <ele>1911.5999755859375</ele>
        <time>2026-06-19T09:43:03.000Z</time>
        <extensions>
          <ns3:TrackPointExtension>
            <ns3:atemp>21.0</ns3:atemp>
          </ns3:TrackPointExtension>
        </extensions>
      </trkpt>
      <trkpt lat="42.516019977629184722900390625" lon="20.01047040335834026336669921875">
        <ele>1911.5999755859375</ele>
        <time>2026-06-19T09:43:04.000Z</time>
        <extensions>
          <ns3:TrackPointExtension>
            <ns3:atemp>21.0</ns3:atemp>
          </ns3:TrackPointExtension>
        </extensions>
      </trkpt>
      <trkpt lat="42.516019977629184722900390625" lon="20.01047040335834026336669921875">
        <ele>1911.5999755859375</ele>
        <time>2026-06-19T09:43:05.000Z</time>
        <extensions>
          <ns3:TrackPointExtension>
            <ns3:atemp>21.0</ns3:atemp>
          </ns3:TrackPointExtension>
        </extensions>
      </trkpt>
      <trkpt lat="42.516019977629184722900390625" lon="20.01047040335834026336669921875">
        <ele>1911.5999755859375</ele>
        <time>2026-06-19T09:43:06.000Z</time>
        <extensions>
          <ns3:TrackPointExtension>
            <ns3:atemp>21.0</ns3:atemp>
          </ns3:TrackPointExtension>
        </extensions>
      </trkpt>
      <trkpt lat="42.516019977629184722900390625" lon="20.01047040335834026336669921875">
        <ele>1911.5999755859375</ele>
        <time>2026-06-19T09:43:07.000Z</time>
        <extensions>
          <ns3:TrackPointExtension>
            <ns3:atemp>21.0</ns3:atemp>
          </ns3:TrackPointExtension>
        </extensions>
      </trkpt>
      <trkpt lat="42.516019977629184722900390625" lon="20.01047040335834026336669921875">
        <ele>1911.5999755859375</ele>
        <time>2026-06-19T09:43:08.000Z</time>
        <extensions>
          <ns3:TrackPointExtension>
            <ns3:atemp>21.0</ns3:atemp>
          </ns3:TrackPointExtension>
        </extensions>
      </trkpt>
      <trkpt lat="42.516019977629184722900390625" lon="20.01047040335834026336669921875">
        <ele>1911.5999755859375</ele>
        <time>2026-06-19T09:43:09.000Z</time>
        <extensions>
          <ns3:TrackPointExtension>
            <ns3:atemp>21.0</ns3:atemp>
          </ns3:TrackPointExtension>
        </extensions>
      </trkpt>
      <trkpt lat="42.516019977629184722900390625" lon="20.01047040335834026336669921875">
        <ele>1911.5999755859375</ele>
        <time>2026-06-19T09:43:10.000Z</time>
        <extensions>
          <ns3:TrackPointExtension>
            <ns3:atemp>21.0</ns3:atemp>
          </ns3:TrackPointExtension>
        </extensions>
      </trkpt>
      <trkpt lat="42.516019977629184722900390625" lon="20.01047040335834026336669921875">
        <ele>1911.5999755859375</ele>
        <time>2026-06-19T09:43:11.000Z</time>
        <extensions>
          <ns3:TrackPointExtension>
            <ns3:atemp>21.0</ns3:atemp>
          </ns3:TrackPointExtension>
        </extensions>
      </trkpt>
      <trkpt lat="42.516019977629184722900390625" lon="20.01047040335834026336669921875">
        <ele>1911.5999755859375</ele>
        <time>2026-06-19T09:43:12.000Z</time>
        <extensions>
          <ns3:TrackPointExtension>
            <ns3:atemp>21.0</ns3:atemp>
          </ns3:TrackPointExtension>
        </extensions>
      </trkpt>
      <trkpt lat="42.516019977629184722900390625" lon="20.01047040335834026336669921875">
        <ele>1911.5999755859375</ele>
        <time>2026-06-19T09:43:13.000Z</time>
        <extensions>
          <ns3:TrackPointExtension>
            <ns3:atemp>21.0</ns3:atemp>
          </ns3:TrackPointExtension>
        </extensions>
      </trkpt>
      <trkpt lat="42.516019977629184722900390625" lon="20.01047040335834026336669921875">
        <ele>1911.5999755859375</ele>
        <time>2026-06-19T09:43:14.000Z</time>
        <extensions>
          <ns3:TrackPointExtension>
            <ns3:atemp>21.0</ns3:atemp>
          </ns3:TrackPointExtension>
        </extensions>
      </trkpt>
      <trkpt lat="42.516019977629184722900390625" lon="20.01047040335834026336669921875">
        <ele>1911.5999755859375</ele>
        <time>2026-06-19T09:43:15.000Z</time>
        <extensions>
          <ns3:TrackPointExtension>
            <ns3:atemp>21.0</ns3:atemp>
          </ns3:TrackPointExtension>
        </extensions>
      </trkpt>
      <trkpt lat="42.516019977629184722900390625" lon="20.01047040335834026336669921875">
        <ele>1911.5999755859375</ele>
        <time>2026-06-19T09:43:16.000Z</time>
        <extensions>
          <ns3:TrackPointExtension>
            <ns3:atemp>21.0</ns3:atemp>
          </ns3:TrackPointExtension>
        </extensions>
      </trkpt>
      <trkpt lat="42.516019977629184722900390625" lon="20.01047040335834026336669921875">
        <ele>1911.5999755859375</ele>
        <time>2026-06-19T09:43:17.000Z</time>
        <extensions>
          <ns3:TrackPointExtension>
            <ns3:atemp>21.0</ns3:atemp>
          </ns3:TrackPointExtension>
        </extensions>
      </trkpt>
      <trkpt lat="42.516019977629184722900390625" lon="20.01047040335834026336669921875">
        <ele>1911.5999755859375</ele>
        <time>2026-06-19T09:43:18.000Z</time>
        <extensions>
          <ns3:TrackPointExtension>
            <ns3:atemp>21.0</ns3:atemp>
          </ns3:TrackPointExtension>
        </extensions>
      </trkpt>
      <trkpt lat="42.516019977629184722900390625" lon="20.01047040335834026336669921875">
        <ele>1911.5999755859375</ele>
        <time>2026-06-19T09:43:19.000Z</time>
        <extensions>
          <ns3:TrackPointExtension>
            <ns3:atemp>21.0</ns3:atemp>
          </ns3:TrackPointExtension>
        </extensions>
      </trkpt>
      <trkpt lat="42.516019977629184722900390625" lon="20.01047040335834026336669921875">
        <ele>1911.5999755859375</ele>
        <time>2026-06-19T09:43:20.000Z</time>
        <extensions>
          <ns3:TrackPointExtension>
            <ns3:atemp>21.0</ns3:atemp>
          </ns3:TrackPointExtension>
        </extensions>
      </trkpt>
      <trkpt lat="42.516019977629184722900390625" lon="20.01047040335834026336669921875">
        <ele>1911.5999755859375</ele>
        <time>2026-06-19T09:43:21.000Z</time>
        <extensions>
          <ns3:TrackPointExtension>
            <ns3:atemp>21.0</ns3:atemp>
          </ns3:TrackPointExtension>
        </extensions>
      </trkpt>
      <trkpt lat="42.516019977629184722900390625" lon="20.01047040335834026336669921875">
        <ele>1911.5999755859375</ele>
        <time>2026-06-19T09:43:22.000Z</time>
        <extensions>
          <ns3:TrackPointExtension>
            <ns3:atemp>21.0</ns3:atemp>
          </ns3:TrackPointExtension>
        </extensions>
      </trkpt>
      <trkpt lat="42.516019977629184722900390625" lon="20.01047040335834026336669921875">
        <ele>1911.5999755859375</ele>
        <time>2026-06-19T09:43:23.000Z</time>
        <extensions>
          <ns3:TrackPointExtension>
            <ns3:atemp>21.0</ns3:atemp>
          </ns3:TrackPointExtension>
        </extensions>
      </trkpt>
      <trkpt lat="42.516019977629184722900390625" lon="20.01047040335834026336669921875">
        <ele>1911.5999755859375</ele>
        <time>2026-06-19T09:43:24.000Z</time>
        <extensions>
          <ns3:TrackPointExtension>
            <ns3:atemp>21.0</ns3:atemp>
          </ns3:TrackPointExtension>
        </extensions>
      </trkpt>
      <trkpt lat="42.516019977629184722900390625" lon="20.01047040335834026336669921875">
        <ele>1911.5999755859375</ele>
        <time>2026-06-19T09:43:25.000Z</time>
        <extensions>
          <ns3:TrackPointExtension>
            <ns3:atemp>21.0</ns3:atemp>
          </ns3:TrackPointExtension>
        </extensions>
      </trkpt>
      <trkpt lat="42.516019977629184722900390625" lon="20.01047040335834026336669921875">
        <ele>1911.5999755859375</ele>
        <time>2026-06-19T09:43:26.000Z</time>
        <extensions>
          <ns3:TrackPointExtension>
            <ns3:atemp>21.0</ns3:atemp>
          </ns3:TrackPointExtension>
        </extensions>
      </trkpt>
      <trkpt lat="42.516019977629184722900390625" lon="20.01047040335834026336669921875">
        <ele>1911.5999755859375</ele>
        <time>2026-06-19T09:43:27.000Z</time>
        <extensions>
          <ns3:TrackPointExtension>
            <ns3:atemp>21.0</ns3:atemp>
          </ns3:TrackPointExtension>
        </extensions>
      </trkpt>
      <trkpt lat="42.516019977629184722900390625" lon="20.01047040335834026336669921875">
        <ele>1911.5999755859375</ele>
        <time>2026-06-19T09:43:28.000Z</time>
        <extensions>
          <ns3:TrackPointExtension>
            <ns3:atemp>21.0</ns3:atemp>
          </ns3:TrackPointExtension>
        </extensions>
      </trkpt>
      <trkpt lat="42.516019977629184722900390625" lon="20.01047040335834026336669921875">
        <ele>1911.5999755859375</ele>
        <time>2026-06-19T09:43:29.000Z</time>
        <extensions>
          <ns3:TrackPointExtension>
            <ns3:atemp>21.0</ns3:atemp>
          </ns3:TrackPointExtension>
        </extensions>
      </trkpt>
      <trkpt lat="42.516019977629184722900390625" lon="20.01047040335834026336669921875">
        <ele>1911.5999755859375</ele>
        <time>2026-06-19T09:43:30.000Z</time>
        <extensions>
          <ns3:TrackPointExtension>
            <ns3:atemp>21.0</ns3:atemp>
          </ns3:TrackPointExtension>
        </extensions>
      </trkpt>
      <trkpt lat="42.516019977629184722900390625" lon="20.01047040335834026336669921875">
        <ele>1911.5999755859375</ele>
        <time>2026-06-19T09:43:31.000Z</time>
        <extensions>
          <ns3:TrackPointExtension>
            <ns3:atemp>21.0</ns3:atemp>
          </ns3:TrackPointExtension>
        </extensions>
      </trkpt>
      <trkpt lat="42.516019977629184722900390625" lon="20.01047040335834026336669921875">
        <ele>1911.5999755859375</ele>
        <time>2026-06-19T09:43:32.000Z</time>
        <extensions>
          <ns3:TrackPointExtension>
            <ns3:atemp>21.0</ns3:atemp>
          </ns3:TrackPointExtension>
        </extensions>
      </trkpt>
      <trkpt lat="42.516019977629184722900390625" lon="20.01047040335834026336669921875">
        <ele>1911.5999755859375</ele>
        <time>2026-06-19T09:43:33.000Z</time>
        <extensions>
          <ns3:TrackPointExtension>
            <ns3:atemp>21.0</ns3:atemp>
          </ns3:TrackPointExtension>
        </extensions>
      </trkpt>
      <trkpt lat="42.516019977629184722900390625" lon="20.01047040335834026336669921875">
        <ele>1911.5999755859375</ele>
        <time>2026-06-19T09:43:34.000Z</time>
        <extensions>
          <ns3:TrackPointExtension>
            <ns3:atemp>21.0</ns3:atemp>
          </ns3:TrackPointExtension>
        </extensions>
      </trkpt>
      <trkpt lat="42.516019977629184722900390625" lon="20.01047040335834026336669921875">
        <ele>1911.5999755859375</ele>
        <time>2026-06-19T09:43:35.000Z</time>
        <extensions>
          <ns3:TrackPointExtension>
            <ns3:atemp>21.0</ns3:atemp>
          </ns3:TrackPointExtension>
        </extensions>
      </trkpt>
      <trkpt lat="42.516019977629184722900390625" lon="20.01047040335834026336669921875">
        <ele>1911.5999755859375</ele>
        <time>2026-06-19T09:43:36.000Z</time>
        <extensions>
          <ns3:TrackPointExtension>
            <ns3:atemp>21.0</ns3:atemp>
          </ns3:TrackPointExtension>
        </extensions>
      </trkpt>
      <trkpt lat="42.516019977629184722900390625" lon="20.01047040335834026336669921875">
        <ele>1911.5999755859375</ele>
        <time>2026-06-19T09:43:37.000Z</time>
        <extensions>
          <ns3:TrackPointExtension>
            <ns3:atemp>21.0</ns3:atemp>
          </ns3:TrackPointExtension>
        </extensions>
      </trkpt>
      <trkpt lat="42.516019977629184722900390625" lon="20.01047040335834026336669921875">
        <ele>1911.5999755859375</ele>
        <time>2026-06-19T09:43:38.000Z</time>
        <extensions>
          <ns3:TrackPointExtension>
            <ns3:atemp>21.0</ns3:atemp>
          </ns3:TrackPointExtension>
        </extensions>
      </trkpt>
      <trkpt lat="42.516019977629184722900390625" lon="20.01047040335834026336669921875">
        <ele>1911.5999755859375</ele>
        <time>2026-06-19T09:43:39.000Z</time>
        <extensions>
          <ns3:TrackPointExtension>
            <ns3:atemp>21.0</ns3:atemp>
          </ns3:TrackPointExtension>
        </extensions>
      </trkpt>
      <trkpt lat="42.516019977629184722900390625" lon="20.01047040335834026336669921875">
        <ele>1911.5999755859375</ele>
        <time>2026-06-19T09:43:40.000Z</time>
        <extensions>
          <ns3:TrackPointExtension>
            <ns3:atemp>21.0</ns3:atemp>
          </ns3:TrackPointExtension>
        </extensions>
      </trkpt>
      <trkpt lat="42.516019977629184722900390625" lon="20.01047040335834026336669921875">
        <ele>1911.5999755859375</ele>
        <time>2026-06-19T09:43:41.000Z</time>
        <extensions>
          <ns3:TrackPointExtension>
            <ns3:atemp>21.0</ns3:atemp>
          </ns3:TrackPointExtension>
        </extensions>
      </trkpt>
      <trkpt lat="42.516019977629184722900390625" lon="20.01047040335834026336669921875">
        <ele>1911.5999755859375</ele>
        <time>2026-06-19T09:43:42.000Z</time>
        <extensions>
          <ns3:TrackPointExtension>
            <ns3:atemp>21.0</ns3:atemp>
          </ns3:TrackPointExtension>
        </extensions>
      </trkpt>
      <trkpt lat="42.516019977629184722900390625" lon="20.01047040335834026336669921875">
        <ele>1911.5999755859375</ele>
        <time>2026-06-19T09:43:43.000Z</time>
        <extensions>
          <ns3:TrackPointExtension>
            <ns3:atemp>21.0</ns3:atemp>
          </ns3:TrackPointExtension>
        </extensions>
      </trkpt>
      <trkpt lat="42.516019977629184722900390625" lon="20.01047040335834026336669921875">
        <ele>1911.5999755859375</ele>
        <time>2026-06-19T09:43:44.000Z</time>
        <extensions>
          <ns3:TrackPointExtension>
            <ns3:atemp>21.0</ns3:atemp>
          </ns3:TrackPointExtension>
        </extensions>
      </trkpt>
      <trkpt lat="42.516019977629184722900390625" lon="20.01047040335834026336669921875">
        <ele>1911.5999755859375</ele>
        <time>2026-06-19T09:43:45.000Z</time>
        <extensions>
          <ns3:TrackPointExtension>
            <ns3:atemp>21.0</ns3:atemp>
          </ns3:TrackPointExtension>
        </extensions>
      </trkpt>
      <trkpt lat="42.516019977629184722900390625" lon="20.01047040335834026336669921875">
        <ele>1911.5999755859375</ele>
        <time>2026-06-19T09:43:46.000Z</time>
        <extensions>
          <ns3:TrackPointExtension>
            <ns3:atemp>21.0</ns3:atemp>
          </ns3:TrackPointExtension>
        </extensions>
      </trkpt>
      <trkpt lat="42.516019977629184722900390625" lon="20.01047040335834026336669921875">
        <ele>1911.5999755859375</ele>
        <time>2026-06-19T09:43:47.000Z</time>
        <extensions>
          <ns3:TrackPointExtension>
            <ns3:atemp>21.0</ns3:atemp>
          </ns3:TrackPointExtension>
        </extensions>
      </trkpt>
      <trkpt lat="42.516019977629184722900390625" lon="20.01047040335834026336669921875">
        <ele>1911.5999755859375</ele>
        <time>2026-06-19T09:43:48.000Z</time>
        <extensions>
          <ns3:TrackPointExtension>
            <ns3:atemp>21.0</ns3:atemp>
          </ns3:TrackPointExtension>
        </extensions>
      </trkpt>
      <trkpt lat="42.516019977629184722900390625" lon="20.01047040335834026336669921875">
        <ele>1911.5999755859375</ele>
        <time>2026-06-19T09:43:49.000Z</time>
        <extensions>
          <ns3:TrackPointExtension>
            <ns3:atemp>21.0</ns3:atemp>
          </ns3:TrackPointExtension>
        </extensions>
      </trkpt>
      <trkpt lat="42.516019977629184722900390625" lon="20.01047040335834026336669921875">
        <ele>1911.5999755859375</ele>
        <time>2026-06-19T09:43:50.000Z</time>
        <extensions>
          <ns3:TrackPointExtension>
            <ns3:atemp>21.0</ns3:atemp>
          </ns3:TrackPointExtension>
        </extensions>
      </trkpt>
      <trkpt lat="42.516019977629184722900390625" lon="20.01047040335834026336669921875">
        <ele>1911.5999755859375</ele>
        <time>2026-06-19T09:43:51.000Z</time>
        <extensions>
          <ns3:TrackPointExtension>
            <ns3:atemp>21.0</ns3:atemp>
          </ns3:TrackPointExtension>
        </extensions>
      </trkpt>
      <trkpt lat="42.516019977629184722900390625" lon="20.01047040335834026336669921875">
        <ele>1911.5999755859375</ele>
        <time>2026-06-19T09:43:52.000Z</time>
        <extensions>
          <ns3:TrackPointExtension>
            <ns3:atemp>21.0</ns3:atemp>
          </ns3:TrackPointExtension>
        </extensions>
      </trkpt>
      <trkpt lat="42.516019977629184722900390625" lon="20.01047040335834026336669921875">
        <ele>1911.5999755859375</ele>
        <time>2026-06-19T09:43:53.000Z</time>
        <extensions>
          <ns3:TrackPointExtension>
            <ns3:atemp>21.0</ns3:atemp>
          </ns3:TrackPointExtension>
        </extensions>
      </trkpt>
      <trkpt lat="42.516019977629184722900390625" lon="20.01047040335834026336669921875">
        <ele>1911.5999755859375</ele>
        <time>2026-06-19T09:43:54.000Z</time>
        <extensions>
          <ns3:TrackPointExtension>
            <ns3:atemp>21.0</ns3:atemp>
          </ns3:TrackPointExtension>
        </extensions>
      </trkpt>
      <trkpt lat="42.516019977629184722900390625" lon="20.01047040335834026336669921875">
        <ele>1911.5999755859375</ele>
        <time>2026-06-19T09:43:55.000Z</time>
        <extensions>
          <ns3:TrackPointExtension>
            <ns3:atemp>21.0</ns3:atemp>
          </ns3:TrackPointExtension>
        </extensions>
      </trkpt>
      <trkpt lat="42.516019977629184722900390625" lon="20.01047040335834026336669921875">
        <ele>1911.5999755859375</ele>
        <time>2026-06-19T09:43:56.000Z</time>
        <extensions>
          <ns3:TrackPointExtension>
            <ns3:atemp>21.0</ns3:atemp>
          </ns3:TrackPointExtension>
        </extensions>
      </trkpt>
      <trkpt lat="42.516019977629184722900390625" lon="20.01047040335834026336669921875">
        <ele>1911.5999755859375</ele>
        <time>2026-06-19T09:43:57.000Z</time>
        <extensions>
          <ns3:TrackPointExtension>
            <ns3:atemp>21.0</ns3:atemp>
          </ns3:TrackPointExtension>
        </extensions>
      </trkpt>
      <trkpt lat="42.516019977629184722900390625" lon="20.01047040335834026336669921875">
        <ele>1911.5999755859375</ele>
        <time>2026-06-19T09:43:58.000Z</time>
        <extensions>
          <ns3:TrackPointExtension>
            <ns3:atemp>21.0</ns3:atemp>
          </ns3:TrackPointExtension>
        </extensions>
      </trkpt>
      <trkpt lat="42.516019977629184722900390625" lon="20.01047040335834026336669921875">
        <ele>1911.5999755859375</ele>
        <time>2026-06-19T09:43:59.000Z</time>
        <extensions>
          <ns3:TrackPointExtension>
            <ns3:atemp>21.0</ns3:atemp>
          </ns3:TrackPointExtension>
        </extensions>
      </trkpt>
      <trkpt lat="42.516019977629184722900390625" lon="20.01047040335834026336669921875">
        <ele>1911.5999755859375</ele>
        <time>2026-06-19T09:44:00.000Z</time>
        <extensions>
          <ns3:TrackPointExtension>
            <ns3:atemp>21.0</ns3:atemp>
          </ns3:TrackPointExtension>
        </extensions>
      </trkpt>
      <trkpt lat="42.516019977629184722900390625" lon="20.01047040335834026336669921875">
        <ele>1911.5999755859375</ele>
        <time>2026-06-19T09:44:01.000Z</time>
        <extensions>
          <ns3:TrackPointExtension>
            <ns3:atemp>21.0</ns3:atemp>
          </ns3:TrackPointExtension>
        </extensions>
      </trkpt>
      <trkpt lat="42.516019977629184722900390625" lon="20.01047040335834026336669921875">
        <ele>1911.5999755859375</ele>
        <time>2026-06-19T09:44:02.000Z</time>
        <extensions>
          <ns3:TrackPointExtension>
            <ns3:atemp>21.0</ns3:atemp>
          </ns3:TrackPointExtension>
        </extensions>
      </trkpt>
      <trkpt lat="42.516019977629184722900390625" lon="20.01047040335834026336669921875">
        <ele>1911.5999755859375</ele>
        <time>2026-06-19T09:44:03.000Z</time>
        <extensions>
          <ns3:TrackPointExtension>
            <ns3:atemp>22.0</ns3:atemp>
          </ns3:TrackPointExtension>
        </extensions>
      </trkpt>
      <trkpt lat="42.516019977629184722900390625" lon="20.01047040335834026336669921875">
        <ele>1911.5999755859375</ele>
        <time>2026-06-19T09:44:04.000Z</time>
        <extensions>
          <ns3:TrackPointExtension>
            <ns3:atemp>21.0</ns3:atemp>
          </ns3:TrackPointExtension>
        </extensions>
      </trkpt>
      <trkpt lat="42.516019977629184722900390625" lon="20.01047040335834026336669921875">
        <ele>1911.5999755859375</ele>
        <time>2026-06-19T09:44:05.000Z</time>
        <extensions>
          <ns3:TrackPointExtension>
            <ns3:atemp>21.0</ns3:atemp>
          </ns3:TrackPointExtension>
        </extensions>
      </trkpt>
      <trkpt lat="42.516019977629184722900390625" lon="20.01047040335834026336669921875">
        <ele>1911.5999755859375</ele>
        <time>2026-06-19T09:44:06.000Z</time>
        <extensions>
          <ns3:TrackPointExtension>
            <ns3:atemp>21.0</ns3:atemp>
          </ns3:TrackPointExtension>
        </extensions>
      </trkpt>
      <trkpt lat="42.516019977629184722900390625" lon="20.01047040335834026336669921875">
        <ele>1911.5999755859375</ele>
        <time>2026-06-19T09:44:07.000Z</time>
        <extensions>
          <ns3:TrackPointExtension>
            <ns3:atemp>21.0</ns3:atemp>
          </ns3:TrackPointExtension>
        </extensions>
      </trkpt>
      <trkpt lat="42.516019977629184722900390625" lon="20.01047040335834026336669921875">
        <ele>1911.5999755859375</ele>
        <time>2026-06-19T09:44:08.000Z</time>
        <extensions>
          <ns3:TrackPointExtension>
            <ns3:atemp>21.0</ns3:atemp>
          </ns3:TrackPointExtension>
        </extensions>
      </trkpt>
      <trkpt lat="42.516019977629184722900390625" lon="20.01047040335834026336669921875">
        <ele>1911.5999755859375</ele>
        <time>2026-06-19T09:44:09.000Z</time>
        <extensions>
          <ns3:TrackPointExtension>
            <ns3:atemp>21.0</ns3:atemp>
          </ns3:TrackPointExtension>
        </extensions>
      </trkpt>
      <trkpt lat="42.516019977629184722900390625" lon="20.01047040335834026336669921875">
        <ele>1911.5999755859375</ele>
        <time>2026-06-19T09:44:10.000Z</time>
        <extensions>
          <ns3:TrackPointExtension>
            <ns3:atemp>21.0</ns3:atemp>
          </ns3:TrackPointExtension>
        </extensions>
      </trkpt>
      <trkpt lat="42.516019977629184722900390625" lon="20.01047040335834026336669921875">
        <ele>1911.5999755859375</ele>
        <time>2026-06-19T09:44:11.000Z</time>
        <extensions>
          <ns3:TrackPointExtension>
            <ns3:atemp>21.0</ns3:atemp>
          </ns3:TrackPointExtension>
        </extensions>
      </trkpt>
      <trkpt lat="42.516019977629184722900390625" lon="20.01047040335834026336669921875">
        <ele>1911.5999755859375</ele>
        <time>2026-06-19T09:44:12.000Z</time>
        <extensions>
          <ns3:TrackPointExtension>
            <ns3:atemp>21.0</ns3:atemp>
          </ns3:TrackPointExtension>
        </extensions>
      </trkpt>
      <trkpt lat="42.516019977629184722900390625" lon="20.01047040335834026336669921875">
        <ele>1911.5999755859375</ele>
        <time>2026-06-19T09:44:13.000Z</time>
        <extensions>
          <ns3:TrackPointExtension>
            <ns3:atemp>21.0</ns3:atemp>
          </ns3:TrackPointExtension>
        </extensions>
      </trkpt>
      <trkpt lat="42.516019977629184722900390625" lon="20.01047040335834026336669921875">
        <ele>1911.5999755859375</ele>
        <time>2026-06-19T09:44:14.000Z</time>
        <extensions>
          <ns3:TrackPointExtension>
            <ns3:atemp>21.0</ns3:atemp>
          </ns3:TrackPointExtension>
        </extensions>
      </trkpt>
      <trkpt lat="42.516019977629184722900390625" lon="20.01047040335834026336669921875">
        <ele>1911.5999755859375</ele>
        <time>2026-06-19T09:44:15.000Z</time>
        <extensions>
          <ns3:TrackPointExtension>
            <ns3:atemp>21.0</ns3:atemp>
          </ns3:TrackPointExtension>
        </extensions>
      </trkpt>
      <trkpt lat="42.516019977629184722900390625" lon="20.01047040335834026336669921875">
        <ele>1911.5999755859375</ele>
        <time>2026-06-19T09:44:16.000Z</time>
        <extensions>
          <ns3:TrackPointExtension>
            <ns3:atemp>21.0</ns3:atemp>
          </ns3:TrackPointExtension>
        </extensions>
      </trkpt>
      <trkpt lat="42.516019977629184722900390625" lon="20.01047040335834026336669921875">
        <ele>1911.5999755859375</ele>
        <time>2026-06-19T09:44:17.000Z</time>
        <extensions>
          <ns3:TrackPointExtension>
            <ns3:atemp>21.0</ns3:atemp>
          </ns3:TrackPointExtension>
        </extensions>
      </trkpt>
      <trkpt lat="42.516019977629184722900390625" lon="20.01047040335834026336669921875">
        <ele>1911.5999755859375</ele>
        <time>2026-06-19T09:44:18.000Z</time>
        <extensions>
          <ns3:TrackPointExtension>
            <ns3:atemp>21.0</ns3:atemp>
          </ns3:TrackPointExtension>
        </extensions>
      </trkpt>
      <trkpt lat="42.516019977629184722900390625" lon="20.01047040335834026336669921875">
        <ele>1911.5999755859375</ele>
        <time>2026-06-19T09:44:19.000Z</time>
        <extensions>
          <ns3:TrackPointExtension>
            <ns3:atemp>21.0</ns3:atemp>
          </ns3:TrackPointExtension>
        </extensions>
      </trkpt>
      <trkpt lat="42.516019977629184722900390625" lon="20.01047040335834026336669921875">
        <ele>1911.5999755859375</ele>
        <time>2026-06-19T09:44:20.000Z</time>
        <extensions>
          <ns3:TrackPointExtension>
            <ns3:atemp>21.0</ns3:atemp>
          </ns3:TrackPointExtension>
        </extensions>
      </trkpt>
      <trkpt lat="42.516019977629184722900390625" lon="20.01047040335834026336669921875">
        <ele>1911.5999755859375</ele>
        <time>2026-06-19T09:44:21.000Z</time>
        <extensions>
          <ns3:TrackPointExtension>
            <ns3:atemp>21.0</ns3:atemp>
          </ns3:TrackPointExtension>
        </extensions>
      </trkpt>
      <trkpt lat="42.516019977629184722900390625" lon="20.01047040335834026336669921875">
        <ele>1911.5999755859375</ele>
        <time>2026-06-19T09:44:22.000Z</time>
        <extensions>
          <ns3:TrackPointExtension>
            <ns3:atemp>21.0</ns3:atemp>
          </ns3:TrackPointExtension>
        </extensions>
      </trkpt>
      <trkpt lat="42.516019977629184722900390625" lon="20.01047040335834026336669921875">
        <ele>1911.5999755859375</ele>
        <time>2026-06-19T09:44:23.000Z</time>
        <extensions>
          <ns3:TrackPointExtension>
            <ns3:atemp>21.0</ns3:atemp>
          </ns3:TrackPointExtension>
        </extensions>
      </trkpt>
      <trkpt lat="42.516019977629184722900390625" lon="20.01047040335834026336669921875">
        <ele>1911.5999755859375</ele>
        <time>2026-06-19T09:44:24.000Z</time>
        <extensions>
          <ns3:TrackPointExtension>
            <ns3:atemp>21.0</ns3:atemp>
          </ns3:TrackPointExtension>
        </extensions>
      </trkpt>
      <trkpt lat="42.516019977629184722900390625" lon="20.01047040335834026336669921875">
        <ele>1911.5999755859375</ele>
        <time>2026-06-19T09:44:25.000Z</time>
        <extensions>
          <ns3:TrackPointExtension>
            <ns3:atemp>21.0</ns3:atemp>
          </ns3:TrackPointExtension>
        </extensions>
      </trkpt>
      <trkpt lat="42.516019977629184722900390625" lon="20.01047040335834026336669921875">
        <ele>1911.5999755859375</ele>
        <time>2026-06-19T09:44:26.000Z</time>
        <extensions>
          <ns3:TrackPointExtension>
            <ns3:atemp>21.0</ns3:atemp>
          </ns3:TrackPointExtension>
        </extensions>
      </trkpt>
      <trkpt lat="42.516019977629184722900390625" lon="20.01047040335834026336669921875">
        <ele>1911.5999755859375</ele>
        <time>2026-06-19T09:44:27.000Z</time>
        <extensions>
          <ns3:TrackPointExtension>
            <ns3:atemp>21.0</ns3:atemp>
          </ns3:TrackPointExtension>
        </extensions>
      </trkpt>
      <trkpt lat="42.516019977629184722900390625" lon="20.01047040335834026336669921875">
        <ele>1911.5999755859375</ele>
        <time>2026-06-19T09:44:28.000Z</time>
        <extensions>
          <ns3:TrackPointExtension>
            <ns3:atemp>22.0</ns3:atemp>
          </ns3:TrackPointExtension>
        </extensions>
      </trkpt>
      <trkpt lat="42.516019977629184722900390625" lon="20.01047040335834026336669921875">
        <ele>1911.5999755859375</ele>
        <time>2026-06-19T09:44:29.000Z</time>
        <extensions>
          <ns3:TrackPointExtension>
            <ns3:atemp>21.0</ns3:atemp>
          </ns3:TrackPointExtension>
        </extensions>
      </trkpt>
      <trkpt lat="42.516019977629184722900390625" lon="20.01047040335834026336669921875">
        <ele>1911.5999755859375</ele>
        <time>2026-06-19T09:44:30.000Z</time>
        <extensions>
          <ns3:TrackPointExtension>
            <ns3:atemp>22.0</ns3:atemp>
          </ns3:TrackPointExtension>
        </extensions>
      </trkpt>
      <trkpt lat="42.516019977629184722900390625" lon="20.01047040335834026336669921875">
        <ele>1911.5999755859375</ele>
        <time>2026-06-19T09:44:31.000Z</time>
        <extensions>
          <ns3:TrackPointExtension>
            <ns3:atemp>21.0</ns3:atemp>
          </ns3:TrackPointExtension>
        </extensions>
      </trkpt>
      <trkpt lat="42.516019977629184722900390625" lon="20.01047040335834026336669921875">
        <ele>1911.5999755859375</ele>
        <time>2026-06-19T09:44:32.000Z</time>
        <extensions>
          <ns3:TrackPointExtension>
            <ns3:atemp>21.0</ns3:atemp>
          </ns3:TrackPointExtension>
        </extensions>
      </trkpt>
      <trkpt lat="42.516019977629184722900390625" lon="20.01047040335834026336669921875">
        <ele>1911.5999755859375</ele>
        <time>2026-06-19T09:44:33.000Z</time>
        <extensions>
          <ns3:TrackPointExtension>
            <ns3:atemp>21.0</ns3:atemp>
          </ns3:TrackPointExtension>
        </extensions>
      </trkpt>
      <trkpt lat="42.516019977629184722900390625" lon="20.01047040335834026336669921875">
        <ele>1911.5999755859375</ele>
        <time>2026-06-19T09:44:34.000Z</time>
        <extensions>
          <ns3:TrackPointExtension>
            <ns3:atemp>21.0</ns3:atemp>
          </ns3:TrackPointExtension>
        </extensions>
      </trkpt>
      <trkpt lat="42.516019977629184722900390625" lon="20.01047040335834026336669921875">
        <ele>1911.5999755859375</ele>
        <time>2026-06-19T09:44:35.000Z</time>
        <extensions>
          <ns3:TrackPointExtension>
            <ns3:atemp>21.0</ns3:atemp>
          </ns3:TrackPointExtension>
        </extensions>
      </trkpt>
      <trkpt lat="42.516019977629184722900390625" lon="20.01047040335834026336669921875">
        <ele>1911.5999755859375</ele>
        <time>2026-06-19T09:44:36.000Z</time>
        <extensions>
          <ns3:TrackPointExtension>
            <ns3:atemp>21.0</ns3:atemp>
          </ns3:TrackPointExtension>
        </extensions>
      </trkpt>
      <trkpt lat="42.516019977629184722900390625" lon="20.01047040335834026336669921875">
        <ele>1911.5999755859375</ele>
        <time>2026-06-19T09:44:37.000Z</time>
        <extensions>
          <ns3:TrackPointExtension>
            <ns3:atemp>21.0</ns3:atemp>
          </ns3:TrackPointExtension>
        </extensions>
      </trkpt>
      <trkpt lat="42.516019977629184722900390625" lon="20.01047040335834026336669921875">
        <ele>1911.5999755859375</ele>
        <time>2026-06-19T09:44:38.000Z</time>
        <extensions>
          <ns3:TrackPointExtension>
            <ns3:atemp>21.0</ns3:atemp>
          </ns3:TrackPointExtension>
        </extensions>
      </trkpt>
      <trkpt lat="42.516019977629184722900390625" lon="20.01047040335834026336669921875">
        <ele>1911.5999755859375</ele>
        <time>2026-06-19T09:44:39.000Z</time>
        <extensions>
          <ns3:TrackPointExtension>
            <ns3:atemp>21.0</ns3:atemp>
          </ns3:TrackPointExtension>
        </extensions>
      </trkpt>
      <trkpt lat="42.516019977629184722900390625" lon="20.01047040335834026336669921875">
        <ele>1911.5999755859375</ele>
        <time>2026-06-19T09:44:40.000Z</time>
        <extensions>
          <ns3:TrackPointExtension>
            <ns3:atemp>21.0</ns3:atemp>
          </ns3:TrackPointExtension>
        </extensions>
      </trkpt>
      <trkpt lat="42.516019977629184722900390625" lon="20.01047040335834026336669921875">
        <ele>1911.5999755859375</ele>
        <time>2026-06-19T09:44:41.000Z</time>
        <extensions>
          <ns3:TrackPointExtension>
            <ns3:atemp>21.0</ns3:atemp>
          </ns3:TrackPointExtension>
        </extensions>
      </trkpt>
      <trkpt lat="42.516019977629184722900390625" lon="20.01047040335834026336669921875">
        <ele>1911.5999755859375</ele>
        <time>2026-06-19T09:44:42.000Z</time>
        <extensions>
          <ns3:TrackPointExtension>
            <ns3:atemp>21.0</ns3:atemp>
          </ns3:TrackPointExtension>
        </extensions>
      </trkpt>
      <trkpt lat="42.516019977629184722900390625" lon="20.01047040335834026336669921875">
        <ele>1911.5999755859375</ele>
        <time>2026-06-19T09:44:43.000Z</time>
        <extensions>
          <ns3:TrackPointExtension>
            <ns3:atemp>21.0</ns3:atemp>
          </ns3:TrackPointExtension>
        </extensions>
      </trkpt>
      <trkpt lat="42.516019977629184722900390625" lon="20.01047040335834026336669921875">
        <ele>1911.5999755859375</ele>
        <time>2026-06-19T09:44:44.000Z</time>
        <extensions>
          <ns3:TrackPointExtension>
            <ns3:atemp>21.0</ns3:atemp>
          </ns3:TrackPointExtension>
        </extensions>
      </trkpt>
      <trkpt lat="42.516019977629184722900390625" lon="20.01047040335834026336669921875">
        <ele>1911.5999755859375</ele>
        <time>2026-06-19T09:44:45.000Z</time>
        <extensions>
          <ns3:TrackPointExtension>
            <ns3:atemp>21.0</ns3:atemp>
          </ns3:TrackPointExtension>
        </extensions>
      </trkpt>
      <trkpt lat="42.516019977629184722900390625" lon="20.01047040335834026336669921875">
        <ele>1911.5999755859375</ele>
        <time>2026-06-19T09:44:46.000Z</time>
        <extensions>
          <ns3:TrackPointExtension>
            <ns3:atemp>21.0</ns3:atemp>
          </ns3:TrackPointExtension>
        </extensions>
      </trkpt>
      <trkpt lat="42.516019977629184722900390625" lon="20.01047040335834026336669921875">
        <ele>1911.5999755859375</ele>
        <time>2026-06-19T09:44:47.000Z</time>
        <extensions>
          <ns3:TrackPointExtension>
            <ns3:atemp>21.0</ns3:atemp>
          </ns3:TrackPointExtension>
        </extensions>
      </trkpt>
      <trkpt lat="42.516019977629184722900390625" lon="20.01047040335834026336669921875">
        <ele>1911.5999755859375</ele>
        <time>2026-06-19T09:44:48.000Z</time>
        <extensions>
          <ns3:TrackPointExtension>
            <ns3:atemp>22.0</ns3:atemp>
          </ns3:TrackPointExtension>
        </extensions>
      </trkpt>
      <trkpt lat="42.516019977629184722900390625" lon="20.01047040335834026336669921875">
        <ele>1911.5999755859375</ele>
        <time>2026-06-19T09:44:49.000Z</time>
        <extensions>
          <ns3:TrackPointExtension>
            <ns3:atemp>22.0</ns3:atemp>
          </ns3:TrackPointExtension>
        </extensions>
      </trkpt>
      <trkpt lat="42.516019977629184722900390625" lon="20.01047040335834026336669921875">
        <ele>1911.5999755859375</ele>
        <time>2026-06-19T09:44:50.000Z</time>
        <extensions>
          <ns3:TrackPointExtension>
            <ns3:atemp>22.0</ns3:atemp>
          </ns3:TrackPointExtension>
        </extensions>
      </trkpt>
      <trkpt lat="42.516019977629184722900390625" lon="20.01047040335834026336669921875">
        <ele>1911.5999755859375</ele>
        <time>2026-06-19T09:44:51.000Z</time>
        <extensions>
          <ns3:TrackPointExtension>
            <ns3:atemp>22.0</ns3:atemp>
          </ns3:TrackPointExtension>
        </extensions>
      </trkpt>
      <trkpt lat="42.516019977629184722900390625" lon="20.01047040335834026336669921875">
        <ele>1911.5999755859375</ele>
        <time>2026-06-19T09:44:52.000Z</time>
        <extensions>
          <ns3:TrackPointExtension>
            <ns3:atemp>22.0</ns3:atemp>
          </ns3:TrackPointExtension>
        </extensions>
      </trkpt>
      <trkpt lat="42.516019977629184722900390625" lon="20.01047040335834026336669921875">
        <ele>1911.5999755859375</ele>
        <time>2026-06-19T09:44:53.000Z</time>
        <extensions>
          <ns3:TrackPointExtension>
            <ns3:atemp>22.0</ns3:atemp>
          </ns3:TrackPointExtension>
        </extensions>
      </trkpt>
      <trkpt lat="42.516019977629184722900390625" lon="20.01047040335834026336669921875">
        <ele>1911.5999755859375</ele>
        <time>2026-06-19T09:44:54.000Z</time>
        <extensions>
          <ns3:TrackPointExtension>
            <ns3:atemp>22.0</ns3:atemp>
          </ns3:TrackPointExtension>
        </extensions>
      </trkpt>
      <trkpt lat="42.516019977629184722900390625" lon="20.01047040335834026336669921875">
        <ele>1911.5999755859375</ele>
        <time>2026-06-19T09:44:55.000Z</time>
        <extensions>
          <ns3:TrackPointExtension>
            <ns3:atemp>22.0</ns3:atemp>
          </ns3:TrackPointExtension>
        </extensions>
      </trkpt>
      <trkpt lat="42.516019977629184722900390625" lon="20.01047040335834026336669921875">
        <ele>1911.5999755859375</ele>
        <time>2026-06-19T09:44:56.000Z</time>
        <extensions>
          <ns3:TrackPointExtension>
            <ns3:atemp>22.0</ns3:atemp>
          </ns3:TrackPointExtension>
        </extensions>
      </trkpt>
      <trkpt lat="42.516019977629184722900390625" lon="20.01047040335834026336669921875">
        <ele>1911.5999755859375</ele>
        <time>2026-06-19T09:44:57.000Z</time>
        <extensions>
          <ns3:TrackPointExtension>
            <ns3:atemp>22.0</ns3:atemp>
          </ns3:TrackPointExtension>
        </extensions>
      </trkpt>
      <trkpt lat="42.516019977629184722900390625" lon="20.01047040335834026336669921875">
        <ele>1911.5999755859375</ele>
        <time>2026-06-19T09:44:58.000Z</time>
        <extensions>
          <ns3:TrackPointExtension>
            <ns3:atemp>22.0</ns3:atemp>
          </ns3:TrackPointExtension>
        </extensions>
      </trkpt>
      <trkpt lat="42.516019977629184722900390625" lon="20.01047040335834026336669921875">
        <ele>1911.5999755859375</ele>
        <time>2026-06-19T09:44:59.000Z</time>
        <extensions>
          <ns3:TrackPointExtension>
            <ns3:atemp>22.0</ns3:atemp>
          </ns3:TrackPointExtension>
        </extensions>
      </trkpt>
      <trkpt lat="42.516019977629184722900390625" lon="20.01047040335834026336669921875">
        <ele>1911.5999755859375</ele>
        <time>2026-06-19T09:45:00.000Z</time>
        <extensions>
          <ns3:TrackPointExtension>
            <ns3:atemp>22.0</ns3:atemp>
          </ns3:TrackPointExtension>
        </extensions>
      </trkpt>
      <trkpt lat="42.516019977629184722900390625" lon="20.01047040335834026336669921875">
        <ele>1911.5999755859375</ele>
        <time>2026-06-19T09:45:01.000Z</time>
        <extensions>
          <ns3:TrackPointExtension>
            <ns3:atemp>22.0</ns3:atemp>
          </ns3:TrackPointExtension>
        </extensions>
      </trkpt>
      <trkpt lat="42.516019977629184722900390625" lon="20.01047040335834026336669921875">
        <ele>1911.5999755859375</ele>
        <time>2026-06-19T09:45:02.000Z</time>
        <extensions>
          <ns3:TrackPointExtension>
            <ns3:atemp>22.0</ns3:atemp>
          </ns3:TrackPointExtension>
        </extensions>
      </trkpt>
      <trkpt lat="42.516019977629184722900390625" lon="20.01047040335834026336669921875">
        <ele>1911.5999755859375</ele>
        <time>2026-06-19T09:45:03.000Z</time>
        <extensions>
          <ns3:TrackPointExtension>
            <ns3:atemp>22.0</ns3:atemp>
          </ns3:TrackPointExtension>
        </extensions>
      </trkpt>
      <trkpt lat="42.516019977629184722900390625" lon="20.01047040335834026336669921875">
        <ele>1911.5999755859375</ele>
        <time>2026-06-19T09:45:04.000Z</time>
        <extensions>
          <ns3:TrackPointExtension>
            <ns3:atemp>22.0</ns3:atemp>
          </ns3:TrackPointExtension>
        </extensions>
      </trkpt>
      <trkpt lat="42.516019977629184722900390625" lon="20.01047040335834026336669921875">
        <ele>1911.5999755859375</ele>
        <time>2026-06-19T09:45:05.000Z</time>
        <extensions>
          <ns3:TrackPointExtension>
            <ns3:atemp>22.0</ns3:atemp>
          </ns3:TrackPointExtension>
        </extensions>
      </trkpt>
      <trkpt lat="42.516019977629184722900390625" lon="20.01047040335834026336669921875">
        <ele>1911.5999755859375</ele>
        <time>2026-06-19T09:45:06.000Z</time>
        <extensions>
          <ns3:TrackPointExtension>
            <ns3:atemp>22.0</ns3:atemp>
          </ns3:TrackPointExtension>
        </extensions>
      </trkpt>
      <trkpt lat="42.516019977629184722900390625" lon="20.01047040335834026336669921875">
        <ele>1911.5999755859375</ele>
        <time>2026-06-19T09:45:07.000Z</time>
        <extensions>
          <ns3:TrackPointExtension>
            <ns3:atemp>22.0</ns3:atemp>
          </ns3:TrackPointExtension>
        </extensions>
      </trkpt>
      <trkpt lat="42.516019977629184722900390625" lon="20.01047040335834026336669921875">
        <ele>1911.5999755859375</ele>
        <time>2026-06-19T09:45:08.000Z</time>
        <extensions>
          <ns3:TrackPointExtension>
            <ns3:atemp>22.0</ns3:atemp>
          </ns3:TrackPointExtension>
        </extensions>
      </trkpt>
      <trkpt lat="42.516019977629184722900390625" lon="20.01047040335834026336669921875">
        <ele>1911.5999755859375</ele>
        <time>2026-06-19T09:45:09.000Z</time>
        <extensions>
          <ns3:TrackPointExtension>
            <ns3:atemp>22.0</ns3:atemp>
          </ns3:TrackPointExtension>
        </extensions>
      </trkpt>
      <trkpt lat="42.516019977629184722900390625" lon="20.01047040335834026336669921875">
        <ele>1911.5999755859375</ele>
        <time>2026-06-19T09:45:10.000Z</time>
        <extensions>
          <ns3:TrackPointExtension>
            <ns3:atemp>22.0</ns3:atemp>
          </ns3:TrackPointExtension>
        </extensions>
      </trkpt>
      <trkpt lat="42.516019977629184722900390625" lon="20.01047040335834026336669921875">
        <ele>1911.5999755859375</ele>
        <time>2026-06-19T09:45:11.000Z</time>
        <extensions>
          <ns3:TrackPointExtension>
            <ns3:atemp>22.0</ns3:atemp>
          </ns3:TrackPointExtension>
        </extensions>
      </trkpt>
      <trkpt lat="42.516019977629184722900390625" lon="20.01047040335834026336669921875">
        <ele>1911.5999755859375</ele>
        <time>2026-06-19T09:45:12.000Z</time>
        <extensions>
          <ns3:TrackPointExtension>
            <ns3:atemp>22.0</ns3:atemp>
          </ns3:TrackPointExtension>
        </extensions>
      </trkpt>
      <trkpt lat="42.516019977629184722900390625" lon="20.01047040335834026336669921875">
        <ele>1911.5999755859375</ele>
        <time>2026-06-19T09:45:13.000Z</time>
        <extensions>
          <ns3:TrackPointExtension>
            <ns3:atemp>22.0</ns3:atemp>
          </ns3:TrackPointExtension>
        </extensions>
      </trkpt>
      <trkpt lat="42.516019977629184722900390625" lon="20.01047040335834026336669921875">
        <ele>1911.5999755859375</ele>
        <time>2026-06-19T09:45:14.000Z</time>
        <extensions>
          <ns3:TrackPointExtension>
            <ns3:atemp>22.0</ns3:atemp>
          </ns3:TrackPointExtension>
        </extensions>
      </trkpt>
      <trkpt lat="42.516019977629184722900390625" lon="20.01047040335834026336669921875">
        <ele>1911.5999755859375</ele>
        <time>2026-06-19T09:45:15.000Z</time>
        <extensions>
          <ns3:TrackPointExtension>
            <ns3:atemp>22.0</ns3:atemp>
          </ns3:TrackPointExtension>
        </extensions>
      </trkpt>
      <trkpt lat="42.516019977629184722900390625" lon="20.01047040335834026336669921875">
        <ele>1911.5999755859375</ele>
        <time>2026-06-19T09:45:16.000Z</time>
        <extensions>
          <ns3:TrackPointExtension>
            <ns3:atemp>22.0</ns3:atemp>
          </ns3:TrackPointExtension>
        </extensions>
      </trkpt>
      <trkpt lat="42.516019977629184722900390625" lon="20.01047040335834026336669921875">
        <ele>1911.5999755859375</ele>
        <time>2026-06-19T09:45:17.000Z</time>
        <extensions>
          <ns3:TrackPointExtension>
            <ns3:atemp>22.0</ns3:atemp>
          </ns3:TrackPointExtension>
        </extensions>
      </trkpt>
      <trkpt lat="42.516019977629184722900390625" lon="20.01047040335834026336669921875">
        <ele>1911.5999755859375</ele>
        <time>2026-06-19T09:45:18.000Z</time>
        <extensions>
          <ns3:TrackPointExtension>
            <ns3:atemp>22.0</ns3:atemp>
          </ns3:TrackPointExtension>
        </extensions>
      </trkpt>
      <trkpt lat="42.516019977629184722900390625" lon="20.01047040335834026336669921875">
        <ele>1911.5999755859375</ele>
        <time>2026-06-19T09:45:19.000Z</time>
        <extensions>
          <ns3:TrackPointExtension>
            <ns3:atemp>22.0</ns3:atemp>
          </ns3:TrackPointExtension>
        </extensions>
      </trkpt>
      <trkpt lat="42.516019977629184722900390625" lon="20.01047040335834026336669921875">
        <ele>1911.5999755859375</ele>
        <time>2026-06-19T09:45:20.000Z</time>
        <extensions>
          <ns3:TrackPointExtension>
            <ns3:atemp>22.0</ns3:atemp>
          </ns3:TrackPointExtension>
        </extensions>
      </trkpt>
      <trkpt lat="42.516019977629184722900390625" lon="20.01047040335834026336669921875">
        <ele>1911.5999755859375</ele>
        <time>2026-06-19T09:45:21.000Z</time>
        <extensions>
          <ns3:TrackPointExtension>
            <ns3:atemp>22.0</ns3:atemp>
          </ns3:TrackPointExtension>
        </extensions>
      </trkpt>
      <trkpt lat="42.516019977629184722900390625" lon="20.01047040335834026336669921875">
        <ele>1911.5999755859375</ele>
        <time>2026-06-19T09:45:22.000Z</time>
        <extensions>
          <ns3:TrackPointExtension>
            <ns3:atemp>22.0</ns3:atemp>
          </ns3:TrackPointExtension>
        </extensions>
      </trkpt>
      <trkpt lat="42.516019977629184722900390625" lon="20.01047040335834026336669921875">
        <ele>1911.5999755859375</ele>
        <time>2026-06-19T09:45:23.000Z</time>
        <extensions>
          <ns3:TrackPointExtension>
            <ns3:atemp>22.0</ns3:atemp>
          </ns3:TrackPointExtension>
        </extensions>
      </trkpt>
      <trkpt lat="42.516019977629184722900390625" lon="20.01047040335834026336669921875">
        <ele>1911.5999755859375</ele>
        <time>2026-06-19T09:45:24.000Z</time>
        <extensions>
          <ns3:TrackPointExtension>
            <ns3:atemp>22.0</ns3:atemp>
          </ns3:TrackPointExtension>
        </extensions>
      </trkpt>
      <trkpt lat="42.516019977629184722900390625" lon="20.01047040335834026336669921875">
        <ele>1911.5999755859375</ele>
        <time>2026-06-19T09:45:25.000Z</time>
        <extensions>
          <ns3:TrackPointExtension>
            <ns3:atemp>22.0</ns3:atemp>
          </ns3:TrackPointExtension>
        </extensions>
      </trkpt>
      <trkpt lat="42.516019977629184722900390625" lon="20.01047040335834026336669921875">
        <ele>1911.5999755859375</ele>
        <time>2026-06-19T09:45:26.000Z</time>
        <extensions>
          <ns3:TrackPointExtension>
            <ns3:atemp>22.0</ns3:atemp>
          </ns3:TrackPointExtension>
        </extensions>
      </trkpt>
      <trkpt lat="42.516019977629184722900390625" lon="20.01047040335834026336669921875">
        <ele>1911.5999755859375</ele>
        <time>2026-06-19T09:45:27.000Z</time>
        <extensions>
          <ns3:TrackPointExtension>
            <ns3:atemp>22.0</ns3:atemp>
          </ns3:TrackPointExtension>
        </extensions>
      </trkpt>
      <trkpt lat="42.516019977629184722900390625" lon="20.01047040335834026336669921875">
        <ele>1911.5999755859375</ele>
        <time>2026-06-19T09:45:28.000Z</time>
        <extensions>
          <ns3:TrackPointExtension>
            <ns3:atemp>22.0</ns3:atemp>
          </ns3:TrackPointExtension>
        </extensions>
      </trkpt>
      <trkpt lat="42.516019977629184722900390625" lon="20.01047040335834026336669921875">
        <ele>1911.5999755859375</ele>
        <time>2026-06-19T09:45:29.000Z</time>
        <extensions>
          <ns3:TrackPointExtension>
            <ns3:atemp>22.0</ns3:atemp>
          </ns3:TrackPointExtension>
        </extensions>
      </trkpt>
      <trkpt lat="42.516019977629184722900390625" lon="20.01047040335834026336669921875">
        <ele>1911.5999755859375</ele>
        <time>2026-06-19T09:45:30.000Z</time>
        <extensions>
          <ns3:TrackPointExtension>
            <ns3:atemp>22.0</ns3:atemp>
          </ns3:TrackPointExtension>
        </extensions>
      </trkpt>
      <trkpt lat="42.516019977629184722900390625" lon="20.01047040335834026336669921875">
        <ele>1911.5999755859375</ele>
        <time>2026-06-19T09:45:31.000Z</time>
        <extensions>
          <ns3:TrackPointExtension>
            <ns3:atemp>22.0</ns3:atemp>
          </ns3:TrackPointExtension>
        </extensions>
      </trkpt>
      <trkpt lat="42.516019977629184722900390625" lon="20.01047040335834026336669921875">
        <ele>1911.5999755859375</ele>
        <time>2026-06-19T09:45:32.000Z</time>
        <extensions>
          <ns3:TrackPointExtension>
            <ns3:atemp>22.0</ns3:atemp>
          </ns3:TrackPointExtension>
        </extensions>
      </trkpt>
      <trkpt lat="42.516019977629184722900390625" lon="20.01047040335834026336669921875">
        <ele>1911.5999755859375</ele>
        <time>2026-06-19T09:45:33.000Z</time>
        <extensions>
          <ns3:TrackPointExtension>
            <ns3:atemp>22.0</ns3:atemp>
          </ns3:TrackPointExtension>
        </extensions>
      </trkpt>
      <trkpt lat="42.516019977629184722900390625" lon="20.01047040335834026336669921875">
        <ele>1911.5999755859375</ele>
        <time>2026-06-19T09:45:34.000Z</time>
        <extensions>
          <ns3:TrackPointExtension>
            <ns3:atemp>22.0</ns3:atemp>
          </ns3:TrackPointExtension>
        </extensions>
      </trkpt>
      <trkpt lat="42.516019977629184722900390625" lon="20.01047040335834026336669921875">
        <ele>1911.5999755859375</ele>
        <time>2026-06-19T09:45:35.000Z</time>
        <extensions>
          <ns3:TrackPointExtension>
            <ns3:atemp>22.0</ns3:atemp>
          </ns3:TrackPointExtension>
        </extensions>
      </trkpt>
      <trkpt lat="42.516019977629184722900390625" lon="20.01047040335834026336669921875">
        <ele>1911.5999755859375</ele>
        <time>2026-06-19T09:45:36.000Z</time>
        <extensions>
          <ns3:TrackPointExtension>
            <ns3:atemp>22.0</ns3:atemp>
          </ns3:TrackPointExtension>
        </extensions>
      </trkpt>
      <trkpt lat="42.516019977629184722900390625" lon="20.01047040335834026336669921875">
        <ele>1911.5999755859375</ele>
        <time>2026-06-19T09:45:37.000Z</time>
        <extensions>
          <ns3:TrackPointExtension>
            <ns3:atemp>22.0</ns3:atemp>
          </ns3:TrackPointExtension>
        </extensions>
      </trkpt>
      <trkpt lat="42.516019977629184722900390625" lon="20.01047040335834026336669921875">
        <ele>1911.5999755859375</ele>
        <time>2026-06-19T09:45:38.000Z</time>
        <extensions>
          <ns3:TrackPointExtension>
            <ns3:atemp>22.0</ns3:atemp>
          </ns3:TrackPointExtension>
        </extensions>
      </trkpt>
      <trkpt lat="42.516019977629184722900390625" lon="20.01047040335834026336669921875">
        <ele>1911.5999755859375</ele>
        <time>2026-06-19T09:45:39.000Z</time>
        <extensions>
          <ns3:TrackPointExtension>
            <ns3:atemp>22.0</ns3:atemp>
          </ns3:TrackPointExtension>
        </extensions>
      </trkpt>
      <trkpt lat="42.516019977629184722900390625" lon="20.01047040335834026336669921875">
        <ele>1911.5999755859375</ele>
        <time>2026-06-19T09:45:40.000Z</time>
        <extensions>
          <ns3:TrackPointExtension>
            <ns3:atemp>22.0</ns3:atemp>
          </ns3:TrackPointExtension>
        </extensions>
      </trkpt>
      <trkpt lat="42.516019977629184722900390625" lon="20.01047040335834026336669921875">
        <ele>1911.5999755859375</ele>
        <time>2026-06-19T09:45:41.000Z</time>
        <extensions>
          <ns3:TrackPointExtension>
            <ns3:atemp>22.0</ns3:atemp>
          </ns3:TrackPointExtension>
        </extensions>
      </trkpt>
      <trkpt lat="42.516019977629184722900390625" lon="20.01047040335834026336669921875">
        <ele>1911.5999755859375</ele>
        <time>2026-06-19T09:45:42.000Z</time>
        <extensions>
          <ns3:TrackPointExtension>
            <ns3:atemp>22.0</ns3:atemp>
          </ns3:TrackPointExtension>
        </extensions>
      </trkpt>
      <trkpt lat="42.516019977629184722900390625" lon="20.01047040335834026336669921875">
        <ele>1911.5999755859375</ele>
        <time>2026-06-19T09:45:43.000Z</time>
        <extensions>
          <ns3:TrackPointExtension>
            <ns3:atemp>22.0</ns3:atemp>
          </ns3:TrackPointExtension>
        </extensions>
      </trkpt>
      <trkpt lat="42.516019977629184722900390625" lon="20.01047040335834026336669921875">
        <ele>1911.5999755859375</ele>
        <time>2026-06-19T09:45:44.000Z</time>
        <extensions>
          <ns3:TrackPointExtension>
            <ns3:atemp>22.0</ns3:atemp>
          </ns3:TrackPointExtension>
        </extensions>
      </trkpt>
      <trkpt lat="42.516019977629184722900390625" lon="20.01047040335834026336669921875">
        <ele>1911.5999755859375</ele>
        <time>2026-06-19T09:45:45.000Z</time>
        <extensions>
          <ns3:TrackPointExtension>
            <ns3:atemp>22.0</ns3:atemp>
          </ns3:TrackPointExtension>
        </extensions>
      </trkpt>
      <trkpt lat="42.516019977629184722900390625" lon="20.01047040335834026336669921875">
        <ele>1911.5999755859375</ele>
        <time>2026-06-19T09:45:46.000Z</time>
        <extensions>
          <ns3:TrackPointExtension>
            <ns3:atemp>22.0</ns3:atemp>
          </ns3:TrackPointExtension>
        </extensions>
      </trkpt>
      <trkpt lat="42.516019977629184722900390625" lon="20.01047040335834026336669921875">
        <ele>1911.5999755859375</ele>
        <time>2026-06-19T09:45:47.000Z</time>
        <extensions>
          <ns3:TrackPointExtension>
            <ns3:atemp>22.0</ns3:atemp>
          </ns3:TrackPointExtension>
        </extensions>
      </trkpt>
      <trkpt lat="42.516019977629184722900390625" lon="20.01047040335834026336669921875">
        <ele>1911.5999755859375</ele>
        <time>2026-06-19T09:45:48.000Z</time>
        <extensions>
          <ns3:TrackPointExtension>
            <ns3:atemp>22.0</ns3:atemp>
          </ns3:TrackPointExtension>
        </extensions>
      </trkpt>
      <trkpt lat="42.516019977629184722900390625" lon="20.01047040335834026336669921875">
        <ele>1911.5999755859375</ele>
        <time>2026-06-19T09:45:49.000Z</time>
        <extensions>
          <ns3:TrackPointExtension>
            <ns3:atemp>22.0</ns3:atemp>
          </ns3:TrackPointExtension>
        </extensions>
      </trkpt>
      <trkpt lat="42.516019977629184722900390625" lon="20.01047040335834026336669921875">
        <ele>1911.5999755859375</ele>
        <time>2026-06-19T09:45:50.000Z</time>
        <extensions>
          <ns3:TrackPointExtension>
            <ns3:atemp>22.0</ns3:atemp>
          </ns3:TrackPointExtension>
        </extensions>
      </trkpt>
      <trkpt lat="42.516019977629184722900390625" lon="20.01047040335834026336669921875">
        <ele>1911.5999755859375</ele>
        <time>2026-06-19T09:45:51.000Z</time>
        <extensions>
          <ns3:TrackPointExtension>
            <ns3:atemp>22.0</ns3:atemp>
          </ns3:TrackPointExtension>
        </extensions>
      </trkpt>
      <trkpt lat="42.516019977629184722900390625" lon="20.01047040335834026336669921875">
        <ele>1911.5999755859375</ele>
        <time>2026-06-19T09:45:52.000Z</time>
        <extensions>
          <ns3:TrackPointExtension>
            <ns3:atemp>22.0</ns3:atemp>
          </ns3:TrackPointExtension>
        </extensions>
      </trkpt>
      <trkpt lat="42.516019977629184722900390625" lon="20.01047040335834026336669921875">
        <ele>1911.5999755859375</ele>
        <time>2026-06-19T09:45:53.000Z</time>
        <extensions>
          <ns3:TrackPointExtension>
            <ns3:atemp>22.0</ns3:atemp>
          </ns3:TrackPointExtension>
        </extensions>
      </trkpt>
      <trkpt lat="42.516019977629184722900390625" lon="20.01047040335834026336669921875">
        <ele>1911.5999755859375</ele>
        <time>2026-06-19T09:45:54.000Z</time>
        <extensions>
          <ns3:TrackPointExtension>
            <ns3:atemp>22.0</ns3:atemp>
          </ns3:TrackPointExtension>
        </extensions>
      </trkpt>
      <trkpt lat="42.516019977629184722900390625" lon="20.01047040335834026336669921875">
        <ele>1911.5999755859375</ele>
        <time>2026-06-19T09:45:55.000Z</time>
        <extensions>
          <ns3:TrackPointExtension>
            <ns3:atemp>22.0</ns3:atemp>
          </ns3:TrackPointExtension>
        </extensions>
      </trkpt>
      <trkpt lat="42.516019977629184722900390625" lon="20.01047040335834026336669921875">
        <ele>1911.5999755859375</ele>
        <time>2026-06-19T09:45:56.000Z</time>
        <extensions>
          <ns3:TrackPointExtension>
            <ns3:atemp>22.0</ns3:atemp>
          </ns3:TrackPointExtension>
        </extensions>
      </trkpt>
      <trkpt lat="42.516019977629184722900390625" lon="20.01047040335834026336669921875">
        <ele>1911.5999755859375</ele>
        <time>2026-06-19T09:45:57.000Z</time>
        <extensions>
          <ns3:TrackPointExtension>
            <ns3:atemp>22.0</ns3:atemp>
          </ns3:TrackPointExtension>
        </extensions>
      </trkpt>
      <trkpt lat="42.516019977629184722900390625" lon="20.01047040335834026336669921875">
        <ele>1911.5999755859375</ele>
        <time>2026-06-19T09:45:58.000Z</time>
        <extensions>
          <ns3:TrackPointExtension>
            <ns3:atemp>22.0</ns3:atemp>
          </ns3:TrackPointExtension>
        </extensions>
      </trkpt>
      <trkpt lat="42.516019977629184722900390625" lon="20.01047040335834026336669921875">
        <ele>1911.5999755859375</ele>
        <time>2026-06-19T09:45:59.000Z</time>
        <extensions>
          <ns3:TrackPointExtension>
            <ns3:atemp>22.0</ns3:atemp>
          </ns3:TrackPointExtension>
        </extensions>
      </trkpt>
      <trkpt lat="42.516019977629184722900390625" lon="20.01047040335834026336669921875">
        <ele>1911.5999755859375</ele>
        <time>2026-06-19T09:46:00.000Z</time>
        <extensions>
          <ns3:TrackPointExtension>
            <ns3:atemp>22.0</ns3:atemp>
          </ns3:TrackPointExtension>
        </extensions>
      </trkpt>
      <trkpt lat="42.516019977629184722900390625" lon="20.01047040335834026336669921875">
        <ele>1911.5999755859375</ele>
        <time>2026-06-19T09:46:01.000Z</time>
        <extensions>
          <ns3:TrackPointExtension>
            <ns3:atemp>22.0</ns3:atemp>
          </ns3:TrackPointExtension>
        </extensions>
      </trkpt>
      <trkpt lat="42.516019977629184722900390625" lon="20.01047040335834026336669921875">
        <ele>1911.5999755859375</ele>
        <time>2026-06-19T09:46:02.000Z</time>
        <extensions>
          <ns3:TrackPointExtension>
            <ns3:atemp>22.0</ns3:atemp>
          </ns3:TrackPointExtension>
        </extensions>
      </trkpt>
      <trkpt lat="42.516019977629184722900390625" lon="20.01047040335834026336669921875">
        <ele>1911.5999755859375</ele>
        <time>2026-06-19T09:46:03.000Z</time>
        <extensions>
          <ns3:TrackPointExtension>
            <ns3:atemp>22.0</ns3:atemp>
          </ns3:TrackPointExtension>
        </extensions>
      </trkpt>
      <trkpt lat="42.516019977629184722900390625" lon="20.01047040335834026336669921875">
        <ele>1911.5999755859375</ele>
        <time>2026-06-19T09:46:04.000Z</time>
        <extensions>
          <ns3:TrackPointExtension>
            <ns3:atemp>22.0</ns3:atemp>
          </ns3:TrackPointExtension>
        </extensions>
      </trkpt>
      <trkpt lat="42.516019977629184722900390625" lon="20.01047040335834026336669921875">
        <ele>1911.5999755859375</ele>
        <time>2026-06-19T09:46:05.000Z</time>
        <extensions>
          <ns3:TrackPointExtension>
            <ns3:atemp>22.0</ns3:atemp>
          </ns3:TrackPointExtension>
        </extensions>
      </trkpt>
      <trkpt lat="42.516019977629184722900390625" lon="20.01047040335834026336669921875">
        <ele>1911.5999755859375</ele>
        <time>2026-06-19T09:46:06.000Z</time>
        <extensions>
          <ns3:TrackPointExtension>
            <ns3:atemp>22.0</ns3:atemp>
          </ns3:TrackPointExtension>
        </extensions>
      </trkpt>
      <trkpt lat="42.516019977629184722900390625" lon="20.01047040335834026336669921875">
        <ele>1911.5999755859375</ele>
        <time>2026-06-19T09:46:07.000Z</time>
        <extensions>
          <ns3:TrackPointExtension>
            <ns3:atemp>22.0</ns3:atemp>
          </ns3:TrackPointExtension>
        </extensions>
      </trkpt>
      <trkpt lat="42.516019977629184722900390625" lon="20.01047040335834026336669921875">
        <ele>1911.5999755859375</ele>
        <time>2026-06-19T09:46:08.000Z</time>
        <extensions>
          <ns3:TrackPointExtension>
            <ns3:atemp>22.0</ns3:atemp>
          </ns3:TrackPointExtension>
        </extensions>
      </trkpt>
      <trkpt lat="42.516019977629184722900390625" lon="20.01047040335834026336669921875">
        <ele>1911.5999755859375</ele>
        <time>2026-06-19T09:46:09.000Z</time>
        <extensions>
          <ns3:TrackPointExtension>
            <ns3:atemp>22.0</ns3:atemp>
          </ns3:TrackPointExtension>
        </extensions>
      </trkpt>
      <trkpt lat="42.516019977629184722900390625" lon="20.01047040335834026336669921875">
        <ele>1911.5999755859375</ele>
        <time>2026-06-19T09:46:10.000Z</time>
        <extensions>
          <ns3:TrackPointExtension>
            <ns3:atemp>22.0</ns3:atemp>
          </ns3:TrackPointExtension>
        </extensions>
      </trkpt>
      <trkpt lat="42.516019977629184722900390625" lon="20.01047040335834026336669921875">
        <ele>1911.5999755859375</ele>
        <time>2026-06-19T09:46:11.000Z</time>
        <extensions>
          <ns3:TrackPointExtension>
            <ns3:atemp>22.0</ns3:atemp>
          </ns3:TrackPointExtension>
        </extensions>
      </trkpt>
      <trkpt lat="42.516019977629184722900390625" lon="20.01047040335834026336669921875">
        <ele>1911.5999755859375</ele>
        <time>2026-06-19T09:46:12.000Z</time>
        <extensions>
          <ns3:TrackPointExtension>
            <ns3:atemp>22.0</ns3:atemp>
          </ns3:TrackPointExtension>
        </extensions>
      </trkpt>
      <trkpt lat="42.516019977629184722900390625" lon="20.01047040335834026336669921875">
        <ele>1911.5999755859375</ele>
        <time>2026-06-19T09:46:13.000Z</time>
        <extensions>
          <ns3:TrackPointExtension>
            <ns3:atemp>22.0</ns3:atemp>
          </ns3:TrackPointExtension>
        </extensions>
      </trkpt>
      <trkpt lat="42.516019977629184722900390625" lon="20.01047040335834026336669921875">
        <ele>1911.5999755859375</ele>
        <time>2026-06-19T09:46:14.000Z</time>
        <extensions>
          <ns3:TrackPointExtension>
            <ns3:atemp>22.0</ns3:atemp>
          </ns3:TrackPointExtension>
        </extensions>
      </trkpt>
      <trkpt lat="42.516019977629184722900390625" lon="20.01047040335834026336669921875">
        <ele>1911.5999755859375</ele>
        <time>2026-06-19T09:46:15.000Z</time>
        <extensions>
          <ns3:TrackPointExtension>
            <ns3:atemp>22.0</ns3:atemp>
          </ns3:TrackPointExtension>
        </extensions>
      </trkpt>
      <trkpt lat="42.516019977629184722900390625" lon="20.01047040335834026336669921875">
        <ele>1911.5999755859375</ele>
        <time>2026-06-19T09:46:16.000Z</time>
        <extensions>
          <ns3:TrackPointExtension>
            <ns3:atemp>22.0</ns3:atemp>
          </ns3:TrackPointExtension>
        </extensions>
      </trkpt>
      <trkpt lat="42.516019977629184722900390625" lon="20.01047040335834026336669921875">
        <ele>1911.5999755859375</ele>
        <time>2026-06-19T09:46:17.000Z</time>
        <extensions>
          <ns3:TrackPointExtension>
            <ns3:atemp>22.0</ns3:atemp>
          </ns3:TrackPointExtension>
        </extensions>
      </trkpt>
      <trkpt lat="42.516019977629184722900390625" lon="20.01047040335834026336669921875">
        <ele>1911.5999755859375</ele>
        <time>2026-06-19T09:46:18.000Z</time>
        <extensions>
          <ns3:TrackPointExtension>
            <ns3:atemp>22.0</ns3:atemp>
          </ns3:TrackPointExtension>
        </extensions>
      </trkpt>
      <trkpt lat="42.516019977629184722900390625" lon="20.01047040335834026336669921875">
        <ele>1911.5999755859375</ele>
        <time>2026-06-19T09:46:19.000Z</time>
        <extensions>
          <ns3:TrackPointExtension>
            <ns3:atemp>22.0</ns3:atemp>
          </ns3:TrackPointExtension>
        </extensions>
      </trkpt>
      <trkpt lat="42.516019977629184722900390625" lon="20.01047040335834026336669921875">
        <ele>1911.5999755859375</ele>
        <time>2026-06-19T09:46:20.000Z</time>
        <extensions>
          <ns3:TrackPointExtension>
            <ns3:atemp>22.0</ns3:atemp>
          </ns3:TrackPointExtension>
        </extensions>
      </trkpt>
      <trkpt lat="42.516019977629184722900390625" lon="20.01047040335834026336669921875">
        <ele>1911.5999755859375</ele>
        <time>2026-06-19T09:46:21.000Z</time>
        <extensions>
          <ns3:TrackPointExtension>
            <ns3:atemp>22.0</ns3:atemp>
          </ns3:TrackPointExtension>
        </extensions>
      </trkpt>
      <trkpt lat="42.516019977629184722900390625" lon="20.01047040335834026336669921875">
        <ele>1911.5999755859375</ele>
        <time>2026-06-19T09:46:22.000Z</time>
        <extensions>
          <ns3:TrackPointExtension>
            <ns3:atemp>22.0</ns3:atemp>
          </ns3:TrackPointExtension>
        </extensions>
      </trkpt>
      <trkpt lat="42.516019977629184722900390625" lon="20.01047040335834026336669921875">
        <ele>1911.5999755859375</ele>
        <time>2026-06-19T09:46:23.000Z</time>
        <extensions>
          <ns3:TrackPointExtension>
            <ns3:atemp>22.0</ns3:atemp>
          </ns3:TrackPointExtension>
        </extensions>
      </trkpt>
      <trkpt lat="42.516019977629184722900390625" lon="20.01047040335834026336669921875">
        <ele>1911.5999755859375</ele>
        <time>2026-06-19T09:46:24.000Z</time>
        <extensions>
          <ns3:TrackPointExtension>
            <ns3:atemp>22.0</ns3:atemp>
          </ns3:TrackPointExtension>
        </extensions>
      </trkpt>
      <trkpt lat="42.516019977629184722900390625" lon="20.01047040335834026336669921875">
        <ele>1911.5999755859375</ele>
        <time>2026-06-19T09:46:25.000Z</time>
        <extensions>
          <ns3:TrackPointExtension>
            <ns3:atemp>22.0</ns3:atemp>
          </ns3:TrackPointExtension>
        </extensions>
      </trkpt>
      <trkpt lat="42.516019977629184722900390625" lon="20.01047040335834026336669921875">
        <ele>1911.5999755859375</ele>
        <time>2026-06-19T09:46:26.000Z</time>
        <extensions>
          <ns3:TrackPointExtension>
            <ns3:atemp>22.0</ns3:atemp>
          </ns3:TrackPointExtension>
        </extensions>
      </trkpt>
      <trkpt lat="42.516019977629184722900390625" lon="20.01047040335834026336669921875">
        <ele>1911.5999755859375</ele>
        <time>2026-06-19T09:46:27.000Z</time>
        <extensions>
          <ns3:TrackPointExtension>
            <ns3:atemp>22.0</ns3:atemp>
          </ns3:TrackPointExtension>
        </extensions>
      </trkpt>
      <trkpt lat="42.516019977629184722900390625" lon="20.01047040335834026336669921875">
        <ele>1911.5999755859375</ele>
        <time>2026-06-19T09:46:28.000Z</time>
        <extensions>
          <ns3:TrackPointExtension>
            <ns3:atemp>22.0</ns3:atemp>
          </ns3:TrackPointExtension>
        </extensions>
      </trkpt>
      <trkpt lat="42.516019977629184722900390625" lon="20.01047040335834026336669921875">
        <ele>1911.5999755859375</ele>
        <time>2026-06-19T09:46:29.000Z</time>
        <extensions>
          <ns3:TrackPointExtension>
            <ns3:atemp>22.0</ns3:atemp>
          </ns3:TrackPointExtension>
        </extensions>
      </trkpt>
      <trkpt lat="42.516019977629184722900390625" lon="20.01047040335834026336669921875">
        <ele>1911.5999755859375</ele>
        <time>2026-06-19T09:46:30.000Z</time>
        <extensions>
          <ns3:TrackPointExtension>
            <ns3:atemp>22.0</ns3:atemp>
          </ns3:TrackPointExtension>
        </extensions>
      </trkpt>
      <trkpt lat="42.516019977629184722900390625" lon="20.01047040335834026336669921875">
        <ele>1911.5999755859375</ele>
        <time>2026-06-19T09:46:31.000Z</time>
        <extensions>
          <ns3:TrackPointExtension>
            <ns3:atemp>22.0</ns3:atemp>
          </ns3:TrackPointExtension>
        </extensions>
      </trkpt>
      <trkpt lat="42.516019977629184722900390625" lon="20.01047040335834026336669921875">
        <ele>1911.5999755859375</ele>
        <time>2026-06-19T09:46:32.000Z</time>
        <extensions>
          <ns3:TrackPointExtension>
            <ns3:atemp>22.0</ns3:atemp>
          </ns3:TrackPointExtension>
        </extensions>
      </trkpt>
      <trkpt lat="42.516019977629184722900390625" lon="20.01047040335834026336669921875">
        <ele>1911.5999755859375</ele>
        <time>2026-06-19T09:46:33.000Z</time>
        <extensions>
          <ns3:TrackPointExtension>
            <ns3:atemp>22.0</ns3:atemp>
          </ns3:TrackPointExtension>
        </extensions>
      </trkpt>
      <trkpt lat="42.516019977629184722900390625" lon="20.01047040335834026336669921875">
        <ele>1911.5999755859375</ele>
        <time>2026-06-19T09:46:34.000Z</time>
        <extensions>
          <ns3:TrackPointExtension>
            <ns3:atemp>22.0</ns3:atemp>
          </ns3:TrackPointExtension>
        </extensions>
      </trkpt>
      <trkpt lat="42.516019977629184722900390625" lon="20.01047040335834026336669921875">
        <ele>1911.5999755859375</ele>
        <time>2026-06-19T09:46:35.000Z</time>
        <extensions>
          <ns3:TrackPointExtension>
            <ns3:atemp>22.0</ns3:atemp>
          </ns3:TrackPointExtension>
        </extensions>
      </trkpt>
      <trkpt lat="42.516019977629184722900390625" lon="20.01047040335834026336669921875">
        <ele>1911.5999755859375</ele>
        <time>2026-06-19T09:46:36.000Z</time>
        <extensions>
          <ns3:TrackPointExtension>
            <ns3:atemp>22.0</ns3:atemp>
          </ns3:TrackPointExtension>
        </extensions>
      </trkpt>
      <trkpt lat="42.516019977629184722900390625" lon="20.01047040335834026336669921875">
        <ele>1911.5999755859375</ele>
        <time>2026-06-19T09:46:37.000Z</time>
        <extensions>
          <ns3:TrackPointExtension>
            <ns3:atemp>22.0</ns3:atemp>
          </ns3:TrackPointExtension>
        </extensions>
      </trkpt>
      <trkpt lat="42.516019977629184722900390625" lon="20.01047040335834026336669921875">
        <ele>1911.5999755859375</ele>
        <time>2026-06-19T09:46:38.000Z</time>
        <extensions>
          <ns3:TrackPointExtension>
            <ns3:atemp>22.0</ns3:atemp>
          </ns3:TrackPointExtension>
        </extensions>
      </trkpt>
      <trkpt lat="42.516019977629184722900390625" lon="20.01047040335834026336669921875">
        <ele>1911.5999755859375</ele>
        <time>2026-06-19T09:46:39.000Z</time>
        <extensions>
          <ns3:TrackPointExtension>
            <ns3:atemp>22.0</ns3:atemp>
          </ns3:TrackPointExtension>
        </extensions>
      </trkpt>
      <trkpt lat="42.516019977629184722900390625" lon="20.01047040335834026336669921875">
        <ele>1911.5999755859375</ele>
        <time>2026-06-19T09:46:40.000Z</time>
        <extensions>
          <ns3:TrackPointExtension>
            <ns3:atemp>22.0</ns3:atemp>
          </ns3:TrackPointExtension>
        </extensions>
      </trkpt>
      <trkpt lat="42.516019977629184722900390625" lon="20.01047040335834026336669921875">
        <ele>1911.5999755859375</ele>
        <time>2026-06-19T09:46:41.000Z</time>
        <extensions>
          <ns3:TrackPointExtension>
            <ns3:atemp>22.0</ns3:atemp>
          </ns3:TrackPointExtension>
        </extensions>
      </trkpt>
      <trkpt lat="42.516019977629184722900390625" lon="20.01047040335834026336669921875">
        <ele>1911.5999755859375</ele>
        <time>2026-06-19T09:46:42.000Z</time>
        <extensions>
          <ns3:TrackPointExtension>
            <ns3:atemp>22.0</ns3:atemp>
          </ns3:TrackPointExtension>
        </extensions>
      </trkpt>
      <trkpt lat="42.516019977629184722900390625" lon="20.01047040335834026336669921875">
        <ele>1911.5999755859375</ele>
        <time>2026-06-19T09:46:43.000Z</time>
        <extensions>
          <ns3:TrackPointExtension>
            <ns3:atemp>22.0</ns3:atemp>
          </ns3:TrackPointExtension>
        </extensions>
      </trkpt>
      <trkpt lat="42.516019977629184722900390625" lon="20.01047040335834026336669921875">
        <ele>1911.5999755859375</ele>
        <time>2026-06-19T09:46:44.000Z</time>
        <extensions>
          <ns3:TrackPointExtension>
            <ns3:atemp>22.0</ns3:atemp>
          </ns3:TrackPointExtension>
        </extensions>
      </trkpt>
      <trkpt lat="42.516019977629184722900390625" lon="20.01047040335834026336669921875">
        <ele>1911.5999755859375</ele>
        <time>2026-06-19T09:46:45.000Z</time>
        <extensions>
          <ns3:TrackPointExtension>
            <ns3:atemp>22.0</ns3:atemp>
          </ns3:TrackPointExtension>
        </extensions>
      </trkpt>
      <trkpt lat="42.516019977629184722900390625" lon="20.01047040335834026336669921875">
        <ele>1911.5999755859375</ele>
        <time>2026-06-19T09:46:46.000Z</time>
        <extensions>
          <ns3:TrackPointExtension>
            <ns3:atemp>22.0</ns3:atemp>
          </ns3:TrackPointExtension>
        </extensions>
      </trkpt>
      <trkpt lat="42.516019977629184722900390625" lon="20.01047040335834026336669921875">
        <ele>1911.5999755859375</ele>
        <time>2026-06-19T09:46:47.000Z</time>
        <extensions>
          <ns3:TrackPointExtension>
            <ns3:atemp>22.0</ns3:atemp>
          </ns3:TrackPointExtension>
        </extensions>
      </trkpt>
      <trkpt lat="42.516019977629184722900390625" lon="20.01047040335834026336669921875">
        <ele>1911.5999755859375</ele>
        <time>2026-06-19T09:46:48.000Z</time>
        <extensions>
          <ns3:TrackPointExtension>
            <ns3:atemp>22.0</ns3:atemp>
          </ns3:TrackPointExtension>
        </extensions>
      </trkpt>
      <trkpt lat="42.516019977629184722900390625" lon="20.01047040335834026336669921875">
        <ele>1911.5999755859375</ele>
        <time>2026-06-19T09:46:49.000Z</time>
        <extensions>
          <ns3:TrackPointExtension>
            <ns3:atemp>22.0</ns3:atemp>
          </ns3:TrackPointExtension>
        </extensions>
      </trkpt>
      <trkpt lat="42.516019977629184722900390625" lon="20.01047040335834026336669921875">
        <ele>1911.5999755859375</ele>
        <time>2026-06-19T09:46:50.000Z</time>
        <extensions>
          <ns3:TrackPointExtension>
            <ns3:atemp>22.0</ns3:atemp>
          </ns3:TrackPointExtension>
        </extensions>
      </trkpt>
      <trkpt lat="42.516019977629184722900390625" lon="20.01047040335834026336669921875">
        <ele>1911.5999755859375</ele>
        <time>2026-06-19T09:46:51.000Z</time>
        <extensions>
          <ns3:TrackPointExtension>
            <ns3:atemp>22.0</ns3:atemp>
          </ns3:TrackPointExtension>
        </extensions>
      </trkpt>
      <trkpt lat="42.516019977629184722900390625" lon="20.01047040335834026336669921875">
        <ele>1911.5999755859375</ele>
        <time>2026-06-19T09:46:52.000Z</time>
        <extensions>
          <ns3:TrackPointExtension>
            <ns3:atemp>22.0</ns3:atemp>
          </ns3:TrackPointExtension>
        </extensions>
      </trkpt>
      <trkpt lat="42.516019977629184722900390625" lon="20.01047040335834026336669921875">
        <ele>1911.5999755859375</ele>
        <time>2026-06-19T09:46:53.000Z</time>
        <extensions>
          <ns3:TrackPointExtension>
            <ns3:atemp>22.0</ns3:atemp>
          </ns3:TrackPointExtension>
        </extensions>
      </trkpt>
      <trkpt lat="42.516019977629184722900390625" lon="20.01047040335834026336669921875">
        <ele>1911.5999755859375</ele>
        <time>2026-06-19T09:46:54.000Z</time>
        <extensions>
          <ns3:TrackPointExtension>
            <ns3:atemp>22.0</ns3:atemp>
          </ns3:TrackPointExtension>
        </extensions>
      </trkpt>
      <trkpt lat="42.516019977629184722900390625" lon="20.01047040335834026336669921875">
        <ele>1911.5999755859375</ele>
        <time>2026-06-19T09:46:55.000Z</time>
        <extensions>
          <ns3:TrackPointExtension>
            <ns3:atemp>22.0</ns3:atemp>
          </ns3:TrackPointExtension>
        </extensions>
      </trkpt>
      <trkpt lat="42.516019977629184722900390625" lon="20.01047040335834026336669921875">
        <ele>1911.5999755859375</ele>
        <time>2026-06-19T09:46:56.000Z</time>
        <extensions>
          <ns3:TrackPointExtension>
            <ns3:atemp>22.0</ns3:atemp>
          </ns3:TrackPointExtension>
        </extensions>
      </trkpt>
      <trkpt lat="42.516019977629184722900390625" lon="20.01047040335834026336669921875">
        <ele>1911.5999755859375</ele>
        <time>2026-06-19T09:46:57.000Z</time>
        <extensions>
          <ns3:TrackPointExtension>
            <ns3:atemp>22.0</ns3:atemp>
          </ns3:TrackPointExtension>
        </extensions>
      </trkpt>
      <trkpt lat="42.516019977629184722900390625" lon="20.01047040335834026336669921875">
        <ele>1911.5999755859375</ele>
        <time>2026-06-19T09:46:58.000Z</time>
        <extensions>
          <ns3:TrackPointExtension>
            <ns3:atemp>22.0</ns3:atemp>
          </ns3:TrackPointExtension>
        </extensions>
      </trkpt>
      <trkpt lat="42.516019977629184722900390625" lon="20.01047040335834026336669921875">
        <ele>1911.5999755859375</ele>
        <time>2026-06-19T09:46:59.000Z</time>
        <extensions>
          <ns3:TrackPointExtension>
            <ns3:atemp>22.0</ns3:atemp>
          </ns3:TrackPointExtension>
        </extensions>
      </trkpt>
      <trkpt lat="42.516019977629184722900390625" lon="20.01047040335834026336669921875">
        <ele>1911.5999755859375</ele>
        <time>2026-06-19T09:47:00.000Z</time>
        <extensions>
          <ns3:TrackPointExtension>
            <ns3:atemp>22.0</ns3:atemp>
          </ns3:TrackPointExtension>
        </extensions>
      </trkpt>
      <trkpt lat="42.516019977629184722900390625" lon="20.01047040335834026336669921875">
        <ele>1911.5999755859375</ele>
        <time>2026-06-19T09:47:01.000Z</time>
        <extensions>
          <ns3:TrackPointExtension>
            <ns3:atemp>22.0</ns3:atemp>
          </ns3:TrackPointExtension>
        </extensions>
      </trkpt>
      <trkpt lat="42.516019977629184722900390625" lon="20.01047040335834026336669921875">
        <ele>1911.5999755859375</ele>
        <time>2026-06-19T09:47:02.000Z</time>
        <extensions>
          <ns3:TrackPointExtension>
            <ns3:atemp>22.0</ns3:atemp>
          </ns3:TrackPointExtension>
        </extensions>
      </trkpt>
      <trkpt lat="42.516019977629184722900390625" lon="20.01047040335834026336669921875">
        <ele>1911.5999755859375</ele>
        <time>2026-06-19T09:47:03.000Z</time>
        <extensions>
          <ns3:TrackPointExtension>
            <ns3:atemp>22.0</ns3:atemp>
          </ns3:TrackPointExtension>
        </extensions>
      </trkpt>
      <trkpt lat="42.516019977629184722900390625" lon="20.01047040335834026336669921875">
        <ele>1911.5999755859375</ele>
        <time>2026-06-19T09:47:04.000Z</time>
        <extensions>
          <ns3:TrackPointExtension>
            <ns3:atemp>22.0</ns3:atemp>
          </ns3:TrackPointExtension>
        </extensions>
      </trkpt>
      <trkpt lat="42.516019977629184722900390625" lon="20.01047040335834026336669921875">
        <ele>1911.5999755859375</ele>
        <time>2026-06-19T09:47:05.000Z</time>
        <extensions>
          <ns3:TrackPointExtension>
            <ns3:atemp>22.0</ns3:atemp>
          </ns3:TrackPointExtension>
        </extensions>
      </trkpt>
      <trkpt lat="42.516019977629184722900390625" lon="20.01047040335834026336669921875">
        <ele>1911.5999755859375</ele>
        <time>2026-06-19T09:47:06.000Z</time>
        <extensions>
          <ns3:TrackPointExtension>
            <ns3:atemp>22.0</ns3:atemp>
          </ns3:TrackPointExtension>
        </extensions>
      </trkpt>
      <trkpt lat="42.516019977629184722900390625" lon="20.01047040335834026336669921875">
        <ele>1911.5999755859375</ele>
        <time>2026-06-19T09:47:07.000Z</time>
        <extensions>
          <ns3:TrackPointExtension>
            <ns3:atemp>22.0</ns3:atemp>
          </ns3:TrackPointExtension>
        </extensions>
      </trkpt>
      <trkpt lat="42.516019977629184722900390625" lon="20.01047040335834026336669921875">
        <ele>1911.5999755859375</ele>
        <time>2026-06-19T09:47:08.000Z</time>
        <extensions>
          <ns3:TrackPointExtension>
            <ns3:atemp>22.0</ns3:atemp>
          </ns3:TrackPointExtension>
        </extensions>
      </trkpt>
      <trkpt lat="42.516019977629184722900390625" lon="20.01047040335834026336669921875">
        <ele>1911.5999755859375</ele>
        <time>2026-06-19T09:47:09.000Z</time>
        <extensions>
          <ns3:TrackPointExtension>
            <ns3:atemp>22.0</ns3:atemp>
          </ns3:TrackPointExtension>
        </extensions>
      </trkpt>
      <trkpt lat="42.516019977629184722900390625" lon="20.01047040335834026336669921875">
        <ele>1911.5999755859375</ele>
        <time>2026-06-19T09:47:10.000Z</time>
        <extensions>
          <ns3:TrackPointExtension>
            <ns3:atemp>22.0</ns3:atemp>
          </ns3:TrackPointExtension>
        </extensions>
      </trkpt>
      <trkpt lat="42.516019977629184722900390625" lon="20.01047040335834026336669921875">
        <ele>1911.5999755859375</ele>
        <time>2026-06-19T09:47:11.000Z</time>
        <extensions>
          <ns3:TrackPointExtension>
            <ns3:atemp>22.0</ns3:atemp>
          </ns3:TrackPointExtension>
        </extensions>
      </trkpt>
      <trkpt lat="42.516019977629184722900390625" lon="20.01047040335834026336669921875">
        <ele>1911.5999755859375</ele>
        <time>2026-06-19T09:47:12.000Z</time>
        <extensions>
          <ns3:TrackPointExtension>
            <ns3:atemp>22.0</ns3:atemp>
          </ns3:TrackPointExtension>
        </extensions>
      </trkpt>
      <trkpt lat="42.516019977629184722900390625" lon="20.01047040335834026336669921875">
        <ele>1911.5999755859375</ele>
        <time>2026-06-19T09:47:13.000Z</time>
        <extensions>
          <ns3:TrackPointExtension>
            <ns3:atemp>22.0</ns3:atemp>
          </ns3:TrackPointExtension>
        </extensions>
      </trkpt>
      <trkpt lat="42.516019977629184722900390625" lon="20.01047040335834026336669921875">
        <ele>1911.5999755859375</ele>
        <time>2026-06-19T09:47:14.000Z</time>
        <extensions>
          <ns3:TrackPointExtension>
            <ns3:atemp>22.0</ns3:atemp>
          </ns3:TrackPointExtension>
        </extensions>
      </trkpt>
      <trkpt lat="42.516019977629184722900390625" lon="20.01047040335834026336669921875">
        <ele>1911.5999755859375</ele>
        <time>2026-06-19T09:47:15.000Z</time>
        <extensions>
          <ns3:TrackPointExtension>
            <ns3:atemp>22.0</ns3:atemp>
          </ns3:TrackPointExtension>
        </extensions>
      </trkpt>
      <trkpt lat="42.516019977629184722900390625" lon="20.01047040335834026336669921875">
        <ele>1911.5999755859375</ele>
        <time>2026-06-19T09:47:16.000Z</time>
        <extensions>
          <ns3:TrackPointExtension>
            <ns3:atemp>22.0</ns3:atemp>
          </ns3:TrackPointExtension>
        </extensions>
      </trkpt>
      <trkpt lat="42.516019977629184722900390625" lon="20.01047040335834026336669921875">
        <ele>1911.5999755859375</ele>
        <time>2026-06-19T09:47:17.000Z</time>
        <extensions>
          <ns3:TrackPointExtension>
            <ns3:atemp>22.0</ns3:atemp>
          </ns3:TrackPointExtension>
        </extensions>
      </trkpt>
      <trkpt lat="42.516019977629184722900390625" lon="20.01047040335834026336669921875">
        <ele>1911.5999755859375</ele>
        <time>2026-06-19T09:47:18.000Z</time>
        <extensions>
          <ns3:TrackPointExtension>
            <ns3:atemp>22.0</ns3:atemp>
          </ns3:TrackPointExtension>
        </extensions>
      </trkpt>
      <trkpt lat="42.516019977629184722900390625" lon="20.01047040335834026336669921875">
        <ele>1911.5999755859375</ele>
        <time>2026-06-19T09:47:19.000Z</time>
        <extensions>
          <ns3:TrackPointExtension>
            <ns3:atemp>22.0</ns3:atemp>
          </ns3:TrackPointExtension>
        </extensions>
      </trkpt>
      <trkpt lat="42.516019977629184722900390625" lon="20.01047040335834026336669921875">
        <ele>1911.5999755859375</ele>
        <time>2026-06-19T09:47:20.000Z</time>
        <extensions>
          <ns3:TrackPointExtension>
            <ns3:atemp>22.0</ns3:atemp>
          </ns3:TrackPointExtension>
        </extensions>
      </trkpt>
      <trkpt lat="42.516019977629184722900390625" lon="20.01047040335834026336669921875">
        <ele>1911.5999755859375</ele>
        <time>2026-06-19T09:47:21.000Z</time>
        <extensions>
          <ns3:TrackPointExtension>
            <ns3:atemp>22.0</ns3:atemp>
          </ns3:TrackPointExtension>
        </extensions>
      </trkpt>
      <trkpt lat="42.516019977629184722900390625" lon="20.01047040335834026336669921875">
        <ele>1911.5999755859375</ele>
        <time>2026-06-19T09:47:22.000Z</time>
        <extensions>
          <ns3:TrackPointExtension>
            <ns3:atemp>22.0</ns3:atemp>
          </ns3:TrackPointExtension>
        </extensions>
      </trkpt>
      <trkpt lat="42.516019977629184722900390625" lon="20.01047040335834026336669921875">
        <ele>1911.5999755859375</ele>
        <time>2026-06-19T09:47:23.000Z</time>
        <extensions>
          <ns3:TrackPointExtension>
            <ns3:atemp>22.0</ns3:atemp>
          </ns3:TrackPointExtension>
        </extensions>
      </trkpt>
      <trkpt lat="42.516019977629184722900390625" lon="20.01047040335834026336669921875">
        <ele>1911.5999755859375</ele>
        <time>2026-06-19T09:47:24.000Z</time>
        <extensions>
          <ns3:TrackPointExtension>
            <ns3:atemp>22.0</ns3:atemp>
          </ns3:TrackPointExtension>
        </extensions>
      </trkpt>
      <trkpt lat="42.516019977629184722900390625" lon="20.01047040335834026336669921875">
        <ele>1911.5999755859375</ele>
        <time>2026-06-19T09:47:25.000Z</time>
        <extensions>
          <ns3:TrackPointExtension>
            <ns3:atemp>22.0</ns3:atemp>
          </ns3:TrackPointExtension>
        </extensions>
      </trkpt>
      <trkpt lat="42.516019977629184722900390625" lon="20.01047040335834026336669921875">
        <ele>1911.5999755859375</ele>
        <time>2026-06-19T09:47:26.000Z</time>
        <extensions>
          <ns3:TrackPointExtension>
            <ns3:atemp>22.0</ns3:atemp>
          </ns3:TrackPointExtension>
        </extensions>
      </trkpt>
      <trkpt lat="42.516019977629184722900390625" lon="20.01047040335834026336669921875">
        <ele>1911.5999755859375</ele>
        <time>2026-06-19T09:47:27.000Z</time>
        <extensions>
          <ns3:TrackPointExtension>
            <ns3:atemp>22.0</ns3:atemp>
          </ns3:TrackPointExtension>
        </extensions>
      </trkpt>
      <trkpt lat="42.516019977629184722900390625" lon="20.01047040335834026336669921875">
        <ele>1911.5999755859375</ele>
        <time>2026-06-19T09:47:28.000Z</time>
        <extensions>
          <ns3:TrackPointExtension>
            <ns3:atemp>22.0</ns3:atemp>
          </ns3:TrackPointExtension>
        </extensions>
      </trkpt>
      <trkpt lat="42.516019977629184722900390625" lon="20.01047040335834026336669921875">
        <ele>1911.5999755859375</ele>
        <time>2026-06-19T09:47:29.000Z</time>
        <extensions>
          <ns3:TrackPointExtension>
            <ns3:atemp>22.0</ns3:atemp>
          </ns3:TrackPointExtension>
        </extensions>
      </trkpt>
      <trkpt lat="42.516019977629184722900390625" lon="20.01047040335834026336669921875">
        <ele>1911.5999755859375</ele>
        <time>2026-06-19T09:47:30.000Z</time>
        <extensions>
          <ns3:TrackPointExtension>
            <ns3:atemp>22.0</ns3:atemp>
          </ns3:TrackPointExtension>
        </extensions>
      </trkpt>
      <trkpt lat="42.516019977629184722900390625" lon="20.01047040335834026336669921875">
        <ele>1911.5999755859375</ele>
        <time>2026-06-19T09:47:31.000Z</time>
        <extensions>
          <ns3:TrackPointExtension>
            <ns3:atemp>22.0</ns3:atemp>
          </ns3:TrackPointExtension>
        </extensions>
      </trkpt>
      <trkpt lat="42.516019977629184722900390625" lon="20.01047040335834026336669921875">
        <ele>1911.5999755859375</ele>
        <time>2026-06-19T09:47:32.000Z</time>
        <extensions>
          <ns3:TrackPointExtension>
            <ns3:atemp>22.0</ns3:atemp>
          </ns3:TrackPointExtension>
        </extensions>
      </trkpt>
      <trkpt lat="42.516019977629184722900390625" lon="20.01047040335834026336669921875">
        <ele>1911.5999755859375</ele>
        <time>2026-06-19T09:47:33.000Z</time>
        <extensions>
          <ns3:TrackPointExtension>
            <ns3:atemp>22.0</ns3:atemp>
          </ns3:TrackPointExtension>
        </extensions>
      </trkpt>
      <trkpt lat="42.516019977629184722900390625" lon="20.01047040335834026336669921875">
        <ele>1911.5999755859375</ele>
        <time>2026-06-19T09:47:34.000Z</time>
        <extensions>
          <ns3:TrackPointExtension>
            <ns3:atemp>22.0</ns3:atemp>
          </ns3:TrackPointExtension>
        </extensions>
      </trkpt>
      <trkpt lat="42.516019977629184722900390625" lon="20.01047040335834026336669921875">
        <ele>1911.5999755859375</ele>
        <time>2026-06-19T09:47:35.000Z</time>
        <extensions>
          <ns3:TrackPointExtension>
            <ns3:atemp>22.0</ns3:atemp>
          </ns3:TrackPointExtension>
        </extensions>
      </trkpt>
      <trkpt lat="42.516019977629184722900390625" lon="20.01047040335834026336669921875">
        <ele>1911.5999755859375</ele>
        <time>2026-06-19T09:47:36.000Z</time>
        <extensions>
          <ns3:TrackPointExtension>
            <ns3:atemp>22.0</ns3:atemp>
          </ns3:TrackPointExtension>
        </extensions>
      </trkpt>
      <trkpt lat="42.516019977629184722900390625" lon="20.01047040335834026336669921875">
        <ele>1911.5999755859375</ele>
        <time>2026-06-19T09:47:37.000Z</time>
        <extensions>
          <ns3:TrackPointExtension>
            <ns3:atemp>22.0</ns3:atemp>
          </ns3:TrackPointExtension>
        </extensions>
      </trkpt>
      <trkpt lat="42.516019977629184722900390625" lon="20.01047040335834026336669921875">
        <ele>1911.5999755859375</ele>
        <time>2026-06-19T09:47:38.000Z</time>
        <extensions>
          <ns3:TrackPointExtension>
            <ns3:atemp>22.0</ns3:atemp>
          </ns3:TrackPointExtension>
        </extensions>
      </trkpt>
      <trkpt lat="42.516019977629184722900390625" lon="20.01047040335834026336669921875">
        <ele>1911.5999755859375</ele>
        <time>2026-06-19T09:47:39.000Z</time>
        <extensions>
          <ns3:TrackPointExtension>
            <ns3:atemp>22.0</ns3:atemp>
          </ns3:TrackPointExtension>
        </extensions>
      </trkpt>
      <trkpt lat="42.516019977629184722900390625" lon="20.01047040335834026336669921875">
        <ele>1911.5999755859375</ele>
        <time>2026-06-19T09:47:40.000Z</time>
        <extensions>
          <ns3:TrackPointExtension>
            <ns3:atemp>22.0</ns3:atemp>
          </ns3:TrackPointExtension>
        </extensions>
      </trkpt>
      <trkpt lat="42.516019977629184722900390625" lon="20.01047040335834026336669921875">
        <ele>1911.5999755859375</ele>
        <time>2026-06-19T09:47:41.000Z</time>
        <extensions>
          <ns3:TrackPointExtension>
            <ns3:atemp>22.0</ns3:atemp>
          </ns3:TrackPointExtension>
        </extensions>
      </trkpt>
      <trkpt lat="42.516019977629184722900390625" lon="20.01047040335834026336669921875">
        <ele>1911.5999755859375</ele>
        <time>2026-06-19T09:47:42.000Z</time>
        <extensions>
          <ns3:TrackPointExtension>
            <ns3:atemp>22.0</ns3:atemp>
          </ns3:TrackPointExtension>
        </extensions>
      </trkpt>
      <trkpt lat="42.516019977629184722900390625" lon="20.01047040335834026336669921875">
        <ele>1911.5999755859375</ele>
        <time>2026-06-19T09:47:43.000Z</time>
        <extensions>
          <ns3:TrackPointExtension>
            <ns3:atemp>22.0</ns3:atemp>
          </ns3:TrackPointExtension>
        </extensions>
      </trkpt>
      <trkpt lat="42.516019977629184722900390625" lon="20.01047040335834026336669921875">
        <ele>1911.5999755859375</ele>
        <time>2026-06-19T09:47:44.000Z</time>
        <extensions>
          <ns3:TrackPointExtension>
            <ns3:atemp>22.0</ns3:atemp>
          </ns3:TrackPointExtension>
        </extensions>
      </trkpt>
      <trkpt lat="42.516019977629184722900390625" lon="20.01047040335834026336669921875">
        <ele>1911.5999755859375</ele>
        <time>2026-06-19T09:47:45.000Z</time>
        <extensions>
          <ns3:TrackPointExtension>
            <ns3:atemp>22.0</ns3:atemp>
          </ns3:TrackPointExtension>
        </extensions>
      </trkpt>
      <trkpt lat="42.516019977629184722900390625" lon="20.01047040335834026336669921875">
        <ele>1911.5999755859375</ele>
        <time>2026-06-19T09:47:46.000Z</time>
        <extensions>
          <ns3:TrackPointExtension>
            <ns3:atemp>22.0</ns3:atemp>
          </ns3:TrackPointExtension>
        </extensions>
      </trkpt>
      <trkpt lat="42.516019977629184722900390625" lon="20.01047040335834026336669921875">
        <ele>1911.5999755859375</ele>
        <time>2026-06-19T09:47:47.000Z</time>
        <extensions>
          <ns3:TrackPointExtension>
            <ns3:atemp>22.0</ns3:atemp>
          </ns3:TrackPointExtension>
        </extensions>
      </trkpt>
      <trkpt lat="42.516019977629184722900390625" lon="20.01047040335834026336669921875">
        <ele>1911.5999755859375</ele>
        <time>2026-06-19T09:47:48.000Z</time>
        <extensions>
          <ns3:TrackPointExtension>
            <ns3:atemp>22.0</ns3:atemp>
          </ns3:TrackPointExtension>
        </extensions>
      </trkpt>
      <trkpt lat="42.516019977629184722900390625" lon="20.01047040335834026336669921875">
        <ele>1911.5999755859375</ele>
        <time>2026-06-19T09:47:49.000Z</time>
        <extensions>
          <ns3:TrackPointExtension>
            <ns3:atemp>22.0</ns3:atemp>
          </ns3:TrackPointExtension>
        </extensions>
      </trkpt>
      <trkpt lat="42.516019977629184722900390625" lon="20.01047040335834026336669921875">
        <ele>1911.5999755859375</ele>
        <time>2026-06-19T09:47:50.000Z</time>
        <extensions>
          <ns3:TrackPointExtension>
            <ns3:atemp>22.0</ns3:atemp>
          </ns3:TrackPointExtension>
        </extensions>
      </trkpt>
      <trkpt lat="42.516019977629184722900390625" lon="20.01047040335834026336669921875">
        <ele>1911.5999755859375</ele>
        <time>2026-06-19T09:47:51.000Z</time>
        <extensions>
          <ns3:TrackPointExtension>
            <ns3:atemp>22.0</ns3:atemp>
          </ns3:TrackPointExtension>
        </extensions>
      </trkpt>
      <trkpt lat="42.516019977629184722900390625" lon="20.01047040335834026336669921875">
        <ele>1911.5999755859375</ele>
        <time>2026-06-19T09:47:52.000Z</time>
        <extensions>
          <ns3:TrackPointExtension>
            <ns3:atemp>22.0</ns3:atemp>
          </ns3:TrackPointExtension>
        </extensions>
      </trkpt>
      <trkpt lat="42.516019977629184722900390625" lon="20.01047040335834026336669921875">
        <ele>1911.5999755859375</ele>
        <time>2026-06-19T09:47:53.000Z</time>
        <extensions>
          <ns3:TrackPointExtension>
            <ns3:atemp>22.0</ns3:atemp>
          </ns3:TrackPointExtension>
        </extensions>
      </trkpt>
      <trkpt lat="42.516019977629184722900390625" lon="20.01047040335834026336669921875">
        <ele>1911.5999755859375</ele>
        <time>2026-06-19T09:47:54.000Z</time>
        <extensions>
          <ns3:TrackPointExtension>
            <ns3:atemp>22.0</ns3:atemp>
          </ns3:TrackPointExtension>
        </extensions>
      </trkpt>
      <trkpt lat="42.516019977629184722900390625" lon="20.01047040335834026336669921875">
        <ele>1911.5999755859375</ele>
        <time>2026-06-19T09:47:55.000Z</time>
        <extensions>
          <ns3:TrackPointExtension>
            <ns3:atemp>22.0</ns3:atemp>
          </ns3:TrackPointExtension>
        </extensions>
      </trkpt>
      <trkpt lat="42.516019977629184722900390625" lon="20.01047040335834026336669921875">
        <ele>1911.5999755859375</ele>
        <time>2026-06-19T09:47:56.000Z</time>
        <extensions>
          <ns3:TrackPointExtension>
            <ns3:atemp>22.0</ns3:atemp>
          </ns3:TrackPointExtension>
        </extensions>
      </trkpt>
      <trkpt lat="42.516019977629184722900390625" lon="20.01047040335834026336669921875">
        <ele>1911.5999755859375</ele>
        <time>2026-06-19T09:47:57.000Z</time>
        <extensions>
          <ns3:TrackPointExtension>
            <ns3:atemp>22.0</ns3:atemp>
          </ns3:TrackPointExtension>
        </extensions>
      </trkpt>
      <trkpt lat="42.516019977629184722900390625" lon="20.01047040335834026336669921875">
        <ele>1911.5999755859375</ele>
        <time>2026-06-19T09:47:58.000Z</time>
        <extensions>
          <ns3:TrackPointExtension>
            <ns3:atemp>22.0</ns3:atemp>
          </ns3:TrackPointExtension>
        </extensions>
      </trkpt>
      <trkpt lat="42.516019977629184722900390625" lon="20.01047040335834026336669921875">
        <ele>1911.5999755859375</ele>
        <time>2026-06-19T09:47:59.000Z</time>
        <extensions>
          <ns3:TrackPointExtension>
            <ns3:atemp>22.0</ns3:atemp>
          </ns3:TrackPointExtension>
        </extensions>
      </trkpt>
      <trkpt lat="42.516019977629184722900390625" lon="20.01047040335834026336669921875">
        <ele>1911.5999755859375</ele>
        <time>2026-06-19T09:48:00.000Z</time>
        <extensions>
          <ns3:TrackPointExtension>
            <ns3:atemp>22.0</ns3:atemp>
          </ns3:TrackPointExtension>
        </extensions>
      </trkpt>
      <trkpt lat="42.516019977629184722900390625" lon="20.01047040335834026336669921875">
        <ele>1911.5999755859375</ele>
        <time>2026-06-19T09:48:01.000Z</time>
        <extensions>
          <ns3:TrackPointExtension>
            <ns3:atemp>22.0</ns3:atemp>
          </ns3:TrackPointExtension>
        </extensions>
      </trkpt>
      <trkpt lat="42.516019977629184722900390625" lon="20.01047040335834026336669921875">
        <ele>1911.5999755859375</ele>
        <time>2026-06-19T09:48:02.000Z</time>
        <extensions>
          <ns3:TrackPointExtension>
            <ns3:atemp>22.0</ns3:atemp>
          </ns3:TrackPointExtension>
        </extensions>
      </trkpt>
      <trkpt lat="42.516019977629184722900390625" lon="20.01047040335834026336669921875">
        <ele>1911.5999755859375</ele>
        <time>2026-06-19T09:48:03.000Z</time>
        <extensions>
          <ns3:TrackPointExtension>
            <ns3:atemp>22.0</ns3:atemp>
          </ns3:TrackPointExtension>
        </extensions>
      </trkpt>
      <trkpt lat="42.516019977629184722900390625" lon="20.01047040335834026336669921875">
        <ele>1911.5999755859375</ele>
        <time>2026-06-19T09:48:04.000Z</time>
        <extensions>
          <ns3:TrackPointExtension>
            <ns3:atemp>22.0</ns3:atemp>
          </ns3:TrackPointExtension>
        </extensions>
      </trkpt>
      <trkpt lat="42.516019977629184722900390625" lon="20.01047040335834026336669921875">
        <ele>1911.5999755859375</ele>
        <time>2026-06-19T09:48:05.000Z</time>
        <extensions>
          <ns3:TrackPointExtension>
            <ns3:atemp>22.0</ns3:atemp>
          </ns3:TrackPointExtension>
        </extensions>
      </trkpt>
      <trkpt lat="42.516019977629184722900390625" lon="20.01047040335834026336669921875">
        <ele>1911.5999755859375</ele>
        <time>2026-06-19T09:48:06.000Z</time>
        <extensions>
          <ns3:TrackPointExtension>
            <ns3:atemp>22.0</ns3:atemp>
          </ns3:TrackPointExtension>
        </extensions>
      </trkpt>
      <trkpt lat="42.516019977629184722900390625" lon="20.01047040335834026336669921875">
        <ele>1911.5999755859375</ele>
        <time>2026-06-19T09:48:07.000Z</time>
        <extensions>
          <ns3:TrackPointExtension>
            <ns3:atemp>22.0</ns3:atemp>
          </ns3:TrackPointExtension>
        </extensions>
      </trkpt>
      <trkpt lat="42.516019977629184722900390625" lon="20.01047040335834026336669921875">
        <ele>1911.5999755859375</ele>
        <time>2026-06-19T09:48:08.000Z</time>
        <extensions>
          <ns3:TrackPointExtension>
            <ns3:atemp>22.0</ns3:atemp>
          </ns3:TrackPointExtension>
        </extensions>
      </trkpt>
      <trkpt lat="42.516019977629184722900390625" lon="20.01047040335834026336669921875">
        <ele>1911.5999755859375</ele>
        <time>2026-06-19T09:48:09.000Z</time>
        <extensions>
          <ns3:TrackPointExtension>
            <ns3:atemp>22.0</ns3:atemp>
          </ns3:TrackPointExtension>
        </extensions>
      </trkpt>
      <trkpt lat="42.516019977629184722900390625" lon="20.01047040335834026336669921875">
        <ele>1911.5999755859375</ele>
        <time>2026-06-19T09:48:10.000Z</time>
        <extensions>
          <ns3:TrackPointExtension>
            <ns3:atemp>22.0</ns3:atemp>
          </ns3:TrackPointExtension>
        </extensions>
      </trkpt>
      <trkpt lat="42.516019977629184722900390625" lon="20.01047040335834026336669921875">
        <ele>1911.5999755859375</ele>
        <time>2026-06-19T09:48:11.000Z</time>
        <extensions>
          <ns3:TrackPointExtension>
            <ns3:atemp>22.0</ns3:atemp>
          </ns3:TrackPointExtension>
        </extensions>
      </trkpt>
      <trkpt lat="42.516019977629184722900390625" lon="20.01047040335834026336669921875">
        <ele>1911.5999755859375</ele>
        <time>2026-06-19T09:48:12.000Z</time>
        <extensions>
          <ns3:TrackPointExtension>
            <ns3:atemp>22.0</ns3:atemp>
          </ns3:TrackPointExtension>
        </extensions>
      </trkpt>
      <trkpt lat="42.516019977629184722900390625" lon="20.01047040335834026336669921875">
        <ele>1911.5999755859375</ele>
        <time>2026-06-19T09:48:13.000Z</time>
        <extensions>
          <ns3:TrackPointExtension>
            <ns3:atemp>22.0</ns3:atemp>
          </ns3:TrackPointExtension>
        </extensions>
      </trkpt>
      <trkpt lat="42.516019977629184722900390625" lon="20.01047040335834026336669921875">
        <ele>1911.5999755859375</ele>
        <time>2026-06-19T09:48:14.000Z</time>
        <extensions>
          <ns3:TrackPointExtension>
            <ns3:atemp>22.0</ns3:atemp>
          </ns3:TrackPointExtension>
        </extensions>
      </trkpt>
      <trkpt lat="42.516019977629184722900390625" lon="20.01047040335834026336669921875">
        <ele>1911.5999755859375</ele>
        <time>2026-06-19T09:48:15.000Z</time>
        <extensions>
          <ns3:TrackPointExtension>
            <ns3:atemp>22.0</ns3:atemp>
          </ns3:TrackPointExtension>
        </extensions>
      </trkpt>
      <trkpt lat="42.516019977629184722900390625" lon="20.01047040335834026336669921875">
        <ele>1911.5999755859375</ele>
        <time>2026-06-19T09:48:16.000Z</time>
        <extensions>
          <ns3:TrackPointExtension>
            <ns3:atemp>22.0</ns3:atemp>
          </ns3:TrackPointExtension>
        </extensions>
      </trkpt>
      <trkpt lat="42.516019977629184722900390625" lon="20.01047040335834026336669921875">
        <ele>1911.5999755859375</ele>
        <time>2026-06-19T09:48:17.000Z</time>
        <extensions>
          <ns3:TrackPointExtension>
            <ns3:atemp>22.0</ns3:atemp>
          </ns3:TrackPointExtension>
        </extensions>
      </trkpt>
      <trkpt lat="42.516019977629184722900390625" lon="20.01047040335834026336669921875">
        <ele>1911.5999755859375</ele>
        <time>2026-06-19T09:48:18.000Z</time>
        <extensions>
          <ns3:TrackPointExtension>
            <ns3:atemp>22.0</ns3:atemp>
          </ns3:TrackPointExtension>
        </extensions>
      </trkpt>
      <trkpt lat="42.516019977629184722900390625" lon="20.01047040335834026336669921875">
        <ele>1911.5999755859375</ele>
        <time>2026-06-19T09:48:19.000Z</time>
        <extensions>
          <ns3:TrackPointExtension>
            <ns3:atemp>22.0</ns3:atemp>
          </ns3:TrackPointExtension>
        </extensions>
      </trkpt>
      <trkpt lat="42.516019977629184722900390625" lon="20.01047040335834026336669921875">
        <ele>1911.5999755859375</ele>
        <time>2026-06-19T09:48:20.000Z</time>
        <extensions>
          <ns3:TrackPointExtension>
            <ns3:atemp>22.0</ns3:atemp>
          </ns3:TrackPointExtension>
        </extensions>
      </trkpt>
      <trkpt lat="42.516019977629184722900390625" lon="20.01047040335834026336669921875">
        <ele>1911.5999755859375</ele>
        <time>2026-06-19T09:48:21.000Z</time>
        <extensions>
          <ns3:TrackPointExtension>
            <ns3:atemp>22.0</ns3:atemp>
          </ns3:TrackPointExtension>
        </extensions>
      </trkpt>
      <trkpt lat="42.516019977629184722900390625" lon="20.01047040335834026336669921875">
        <ele>1911.5999755859375</ele>
        <time>2026-06-19T09:48:22.000Z</time>
        <extensions>
          <ns3:TrackPointExtension>
            <ns3:atemp>22.0</ns3:atemp>
          </ns3:TrackPointExtension>
        </extensions>
      </trkpt>
      <trkpt lat="42.516019977629184722900390625" lon="20.01047040335834026336669921875">
        <ele>1911.5999755859375</ele>
        <time>2026-06-19T09:48:23.000Z</time>
        <extensions>
          <ns3:TrackPointExtension>
            <ns3:atemp>22.0</ns3:atemp>
          </ns3:TrackPointExtension>
        </extensions>
      </trkpt>
      <trkpt lat="42.516019977629184722900390625" lon="20.01047040335834026336669921875">
        <ele>1911.5999755859375</ele>
        <time>2026-06-19T09:48:24.000Z</time>
        <extensions>
          <ns3:TrackPointExtension>
            <ns3:atemp>22.0</ns3:atemp>
          </ns3:TrackPointExtension>
        </extensions>
      </trkpt>
      <trkpt lat="42.516019977629184722900390625" lon="20.01047040335834026336669921875">
        <ele>1911.5999755859375</ele>
        <time>2026-06-19T09:48:25.000Z</time>
        <extensions>
          <ns3:TrackPointExtension>
            <ns3:atemp>22.0</ns3:atemp>
          </ns3:TrackPointExtension>
        </extensions>
      </trkpt>
      <trkpt lat="42.516019977629184722900390625" lon="20.01047040335834026336669921875">
        <ele>1911.5999755859375</ele>
        <time>2026-06-19T09:48:26.000Z</time>
        <extensions>
          <ns3:TrackPointExtension>
            <ns3:atemp>22.0</ns3:atemp>
          </ns3:TrackPointExtension>
        </extensions>
      </trkpt>
      <trkpt lat="42.516019977629184722900390625" lon="20.01047040335834026336669921875">
        <ele>1911.5999755859375</ele>
        <time>2026-06-19T09:48:27.000Z</time>
        <extensions>
          <ns3:TrackPointExtension>
            <ns3:atemp>22.0</ns3:atemp>
          </ns3:TrackPointExtension>
        </extensions>
      </trkpt>
      <trkpt lat="42.516019977629184722900390625" lon="20.01047040335834026336669921875">
        <ele>1911.5999755859375</ele>
        <time>2026-06-19T09:48:28.000Z</time>
        <extensions>
          <ns3:TrackPointExtension>
            <ns3:atemp>22.0</ns3:atemp>
          </ns3:TrackPointExtension>
        </extensions>
      </trkpt>
      <trkpt lat="42.516019977629184722900390625" lon="20.01047040335834026336669921875">
        <ele>1911.5999755859375</ele>
        <time>2026-06-19T09:48:29.000Z</time>
        <extensions>
          <ns3:TrackPointExtension>
            <ns3:atemp>22.0</ns3:atemp>
          </ns3:TrackPointExtension>
        </extensions>
      </trkpt>
      <trkpt lat="42.516019977629184722900390625" lon="20.01047040335834026336669921875">
        <ele>1911.5999755859375</ele>
        <time>2026-06-19T09:48:30.000Z</time>
        <extensions>
          <ns3:TrackPointExtension>
            <ns3:atemp>22.0</ns3:atemp>
          </ns3:TrackPointExtension>
        </extensions>
      </trkpt>
      <trkpt lat="42.516019977629184722900390625" lon="20.01047040335834026336669921875">
        <ele>1911.5999755859375</ele>
        <time>2026-06-19T09:48:31.000Z</time>
        <extensions>
          <ns3:TrackPointExtension>
            <ns3:atemp>22.0</ns3:atemp>
          </ns3:TrackPointExtension>
        </extensions>
      </trkpt>
      <trkpt lat="42.516019977629184722900390625" lon="20.01047040335834026336669921875">
        <ele>1911.5999755859375</ele>
        <time>2026-06-19T09:48:32.000Z</time>
        <extensions>
          <ns3:TrackPointExtension>
            <ns3:atemp>22.0</ns3:atemp>
          </ns3:TrackPointExtension>
        </extensions>
      </trkpt>
      <trkpt lat="42.516019977629184722900390625" lon="20.01047040335834026336669921875">
        <ele>1911.5999755859375</ele>
        <time>2026-06-19T09:48:33.000Z</time>
        <extensions>
          <ns3:TrackPointExtension>
            <ns3:atemp>22.0</ns3:atemp>
          </ns3:TrackPointExtension>
        </extensions>
      </trkpt>
      <trkpt lat="42.516019977629184722900390625" lon="20.01047040335834026336669921875">
        <ele>1911.5999755859375</ele>
        <time>2026-06-19T09:48:34.000Z</time>
        <extensions>
          <ns3:TrackPointExtension>
            <ns3:atemp>22.0</ns3:atemp>
          </ns3:TrackPointExtension>
        </extensions>
      </trkpt>
      <trkpt lat="42.516019977629184722900390625" lon="20.01047040335834026336669921875">
        <ele>1911.5999755859375</ele>
        <time>2026-06-19T09:48:35.000Z</time>
        <extensions>
          <ns3:TrackPointExtension>
            <ns3:atemp>22.0</ns3:atemp>
          </ns3:TrackPointExtension>
        </extensions>
      </trkpt>
      <trkpt lat="42.516019977629184722900390625" lon="20.01047040335834026336669921875">
        <ele>1911.5999755859375</ele>
        <time>2026-06-19T09:48:36.000Z</time>
        <extensions>
          <ns3:TrackPointExtension>
            <ns3:atemp>22.0</ns3:atemp>
          </ns3:TrackPointExtension>
        </extensions>
      </trkpt>
      <trkpt lat="42.516019977629184722900390625" lon="20.01047040335834026336669921875">
        <ele>1911.5999755859375</ele>
        <time>2026-06-19T09:48:37.000Z</time>
        <extensions>
          <ns3:TrackPointExtension>
            <ns3:atemp>22.0</ns3:atemp>
          </ns3:TrackPointExtension>
        </extensions>
      </trkpt>
      <trkpt lat="42.516019977629184722900390625" lon="20.01047040335834026336669921875">
        <ele>1911.5999755859375</ele>
        <time>2026-06-19T09:48:38.000Z</time>
        <extensions>
          <ns3:TrackPointExtension>
            <ns3:atemp>22.0</ns3:atemp>
          </ns3:TrackPointExtension>
        </extensions>
      </trkpt>
      <trkpt lat="42.516019977629184722900390625" lon="20.01047040335834026336669921875">
        <ele>1911.5999755859375</ele>
        <time>2026-06-19T09:48:39.000Z</time>
        <extensions>
          <ns3:TrackPointExtension>
            <ns3:atemp>22.0</ns3:atemp>
          </ns3:TrackPointExtension>
        </extensions>
      </trkpt>
      <trkpt lat="42.516019977629184722900390625" lon="20.01047040335834026336669921875">
        <ele>1911.5999755859375</ele>
        <time>2026-06-19T09:48:40.000Z</time>
        <extensions>
          <ns3:TrackPointExtension>
            <ns3:atemp>22.0</ns3:atemp>
          </ns3:TrackPointExtension>
        </extensions>
      </trkpt>
      <trkpt lat="42.516019977629184722900390625" lon="20.01047040335834026336669921875">
        <ele>1911.5999755859375</ele>
        <time>2026-06-19T09:48:41.000Z</time>
        <extensions>
          <ns3:TrackPointExtension>
            <ns3:atemp>22.0</ns3:atemp>
          </ns3:TrackPointExtension>
        </extensions>
      </trkpt>
      <trkpt lat="42.516019977629184722900390625" lon="20.01047040335834026336669921875">
        <ele>1911.5999755859375</ele>
        <time>2026-06-19T09:48:42.000Z</time>
        <extensions>
          <ns3:TrackPointExtension>
            <ns3:atemp>22.0</ns3:atemp>
          </ns3:TrackPointExtension>
        </extensions>
      </trkpt>
      <trkpt lat="42.516019977629184722900390625" lon="20.01047040335834026336669921875">
        <ele>1911.5999755859375</ele>
        <time>2026-06-19T09:48:43.000Z</time>
        <extensions>
          <ns3:TrackPointExtension>
            <ns3:atemp>22.0</ns3:atemp>
          </ns3:TrackPointExtension>
        </extensions>
      </trkpt>
      <trkpt lat="42.516019977629184722900390625" lon="20.01047040335834026336669921875">
        <ele>1911.5999755859375</ele>
        <time>2026-06-19T09:48:44.000Z</time>
        <extensions>
          <ns3:TrackPointExtension>
            <ns3:atemp>22.0</ns3:atemp>
          </ns3:TrackPointExtension>
        </extensions>
      </trkpt>
      <trkpt lat="42.516019977629184722900390625" lon="20.01047040335834026336669921875">
        <ele>1911.5999755859375</ele>
        <time>2026-06-19T09:48:45.000Z</time>
        <extensions>
          <ns3:TrackPointExtension>
            <ns3:atemp>22.0</ns3:atemp>
          </ns3:TrackPointExtension>
        </extensions>
      </trkpt>
      <trkpt lat="42.516019977629184722900390625" lon="20.01047040335834026336669921875">
        <ele>1911.5999755859375</ele>
        <time>2026-06-19T09:48:46.000Z</time>
        <extensions>
          <ns3:TrackPointExtension>
            <ns3:atemp>22.0</ns3:atemp>
          </ns3:TrackPointExtension>
        </extensions>
      </trkpt>
      <trkpt lat="42.516019977629184722900390625" lon="20.01047040335834026336669921875">
        <ele>1911.5999755859375</ele>
        <time>2026-06-19T09:48:47.000Z</time>
        <extensions>
          <ns3:TrackPointExtension>
            <ns3:atemp>22.0</ns3:atemp>
          </ns3:TrackPointExtension>
        </extensions>
      </trkpt>
      <trkpt lat="42.516019977629184722900390625" lon="20.01047040335834026336669921875">
        <ele>1911.5999755859375</ele>
        <time>2026-06-19T09:48:48.000Z</time>
        <extensions>
          <ns3:TrackPointExtension>
            <ns3:atemp>22.0</ns3:atemp>
          </ns3:TrackPointExtension>
        </extensions>
      </trkpt>
      <trkpt lat="42.516019977629184722900390625" lon="20.01047040335834026336669921875">
        <ele>1911.5999755859375</ele>
        <time>2026-06-19T09:48:49.000Z</time>
        <extensions>
          <ns3:TrackPointExtension>
            <ns3:atemp>22.0</ns3:atemp>
          </ns3:TrackPointExtension>
        </extensions>
      </trkpt>
      <trkpt lat="42.516019977629184722900390625" lon="20.01047040335834026336669921875">
        <ele>1911.5999755859375</ele>
        <time>2026-06-19T09:48:50.000Z</time>
        <extensions>
          <ns3:TrackPointExtension>
            <ns3:atemp>22.0</ns3:atemp>
          </ns3:TrackPointExtension>
        </extensions>
      </trkpt>
      <trkpt lat="42.516019977629184722900390625" lon="20.01047040335834026336669921875">
        <ele>1911.5999755859375</ele>
        <time>2026-06-19T09:48:51.000Z</time>
        <extensions>
          <ns3:TrackPointExtension>
            <ns3:atemp>22.0</ns3:atemp>
          </ns3:TrackPointExtension>
        </extensions>
      </trkpt>
      <trkpt lat="42.516019977629184722900390625" lon="20.01047040335834026336669921875">
        <ele>1911.5999755859375</ele>
        <time>2026-06-19T09:48:52.000Z</time>
        <extensions>
          <ns3:TrackPointExtension>
            <ns3:atemp>22.0</ns3:atemp>
          </ns3:TrackPointExtension>
        </extensions>
      </trkpt>
      <trkpt lat="42.516019977629184722900390625" lon="20.01047040335834026336669921875">
        <ele>1911.5999755859375</ele>
        <time>2026-06-19T09:48:53.000Z</time>
        <extensions>
          <ns3:TrackPointExtension>
            <ns3:atemp>22.0</ns3:atemp>
          </ns3:TrackPointExtension>
        </extensions>
      </trkpt>
      <trkpt lat="42.516019977629184722900390625" lon="20.01047040335834026336669921875">
        <ele>1911.5999755859375</ele>
        <time>2026-06-19T09:48:54.000Z</time>
        <extensions>
          <ns3:TrackPointExtension>
            <ns3:atemp>22.0</ns3:atemp>
          </ns3:TrackPointExtension>
        </extensions>
      </trkpt>
      <trkpt lat="42.516019977629184722900390625" lon="20.01047040335834026336669921875">
        <ele>1911.5999755859375</ele>
        <time>2026-06-19T09:48:55.000Z</time>
        <extensions>
          <ns3:TrackPointExtension>
            <ns3:atemp>22.0</ns3:atemp>
          </ns3:TrackPointExtension>
        </extensions>
      </trkpt>
      <trkpt lat="42.516019977629184722900390625" lon="20.01047040335834026336669921875">
        <ele>1911.5999755859375</ele>
        <time>2026-06-19T09:48:56.000Z</time>
        <extensions>
          <ns3:TrackPointExtension>
            <ns3:atemp>22.0</ns3:atemp>
          </ns3:TrackPointExtension>
        </extensions>
      </trkpt>
      <trkpt lat="42.516019977629184722900390625" lon="20.01047040335834026336669921875">
        <ele>1911.5999755859375</ele>
        <time>2026-06-19T09:48:57.000Z</time>
        <extensions>
          <ns3:TrackPointExtension>
            <ns3:atemp>22.0</ns3:atemp>
          </ns3:TrackPointExtension>
        </extensions>
      </trkpt>
      <trkpt lat="42.516019977629184722900390625" lon="20.01047040335834026336669921875">
        <ele>1911.5999755859375</ele>
        <time>2026-06-19T09:48:58.000Z</time>
        <extensions>
          <ns3:TrackPointExtension>
            <ns3:atemp>22.0</ns3:atemp>
          </ns3:TrackPointExtension>
        </extensions>
      </trkpt>
      <trkpt lat="42.516019977629184722900390625" lon="20.01047040335834026336669921875">
        <ele>1911.5999755859375</ele>
        <time>2026-06-19T09:48:59.000Z</time>
        <extensions>
          <ns3:TrackPointExtension>
            <ns3:atemp>22.0</ns3:atemp>
          </ns3:TrackPointExtension>
        </extensions>
      </trkpt>
      <trkpt lat="42.516019977629184722900390625" lon="20.01047040335834026336669921875">
        <ele>1911.5999755859375</ele>
        <time>2026-06-19T09:49:00.000Z</time>
        <extensions>
          <ns3:TrackPointExtension>
            <ns3:atemp>22.0</ns3:atemp>
          </ns3:TrackPointExtension>
        </extensions>
      </trkpt>
      <trkpt lat="42.516019977629184722900390625" lon="20.01047040335834026336669921875">
        <ele>1911.5999755859375</ele>
        <time>2026-06-19T09:49:01.000Z</time>
        <extensions>
          <ns3:TrackPointExtension>
            <ns3:atemp>22.0</ns3:atemp>
          </ns3:TrackPointExtension>
        </extensions>
      </trkpt>
      <trkpt lat="42.516019977629184722900390625" lon="20.01047040335834026336669921875">
        <ele>1911.5999755859375</ele>
        <time>2026-06-19T09:49:02.000Z</time>
        <extensions>
          <ns3:TrackPointExtension>
            <ns3:atemp>22.0</ns3:atemp>
          </ns3:TrackPointExtension>
        </extensions>
      </trkpt>
      <trkpt lat="42.516019977629184722900390625" lon="20.01047040335834026336669921875">
        <ele>1911.5999755859375</ele>
        <time>2026-06-19T09:49:03.000Z</time>
        <extensions>
          <ns3:TrackPointExtension>
            <ns3:atemp>22.0</ns3:atemp>
          </ns3:TrackPointExtension>
        </extensions>
      </trkpt>
      <trkpt lat="42.516019977629184722900390625" lon="20.01047040335834026336669921875">
        <ele>1911.5999755859375</ele>
        <time>2026-06-19T09:49:04.000Z</time>
        <extensions>
          <ns3:TrackPointExtension>
            <ns3:atemp>22.0</ns3:atemp>
          </ns3:TrackPointExtension>
        </extensions>
      </trkpt>
      <trkpt lat="42.516019977629184722900390625" lon="20.01047040335834026336669921875">
        <ele>1911.5999755859375</ele>
        <time>2026-06-19T09:49:05.000Z</time>
        <extensions>
          <ns3:TrackPointExtension>
            <ns3:atemp>22.0</ns3:atemp>
          </ns3:TrackPointExtension>
        </extensions>
      </trkpt>
      <trkpt lat="42.516019977629184722900390625" lon="20.01047040335834026336669921875">
        <ele>1911.5999755859375</ele>
        <time>2026-06-19T09:49:06.000Z</time>
        <extensions>
          <ns3:TrackPointExtension>
            <ns3:atemp>22.0</ns3:atemp>
          </ns3:TrackPointExtension>
        </extensions>
      </trkpt>
      <trkpt lat="42.516019977629184722900390625" lon="20.01047040335834026336669921875">
        <ele>1911.5999755859375</ele>
        <time>2026-06-19T09:49:07.000Z</time>
        <extensions>
          <ns3:TrackPointExtension>
            <ns3:atemp>22.0</ns3:atemp>
          </ns3:TrackPointExtension>
        </extensions>
      </trkpt>
      <trkpt lat="42.516019977629184722900390625" lon="20.01047040335834026336669921875">
        <ele>1911.5999755859375</ele>
        <time>2026-06-19T09:49:08.000Z</time>
        <extensions>
          <ns3:TrackPointExtension>
            <ns3:atemp>22.0</ns3:atemp>
          </ns3:TrackPointExtension>
        </extensions>
      </trkpt>
      <trkpt lat="42.516019977629184722900390625" lon="20.01047040335834026336669921875">
        <ele>1911.5999755859375</ele>
        <time>2026-06-19T09:49:09.000Z</time>
        <extensions>
          <ns3:TrackPointExtension>
            <ns3:atemp>22.0</ns3:atemp>
          </ns3:TrackPointExtension>
        </extensions>
      </trkpt>
      <trkpt lat="42.516019977629184722900390625" lon="20.01047040335834026336669921875">
        <ele>1911.5999755859375</ele>
        <time>2026-06-19T09:49:10.000Z</time>
        <extensions>
          <ns3:TrackPointExtension>
            <ns3:atemp>22.0</ns3:atemp>
          </ns3:TrackPointExtension>
        </extensions>
      </trkpt>
      <trkpt lat="42.516019977629184722900390625" lon="20.01047040335834026336669921875">
        <ele>1911.5999755859375</ele>
        <time>2026-06-19T09:49:11.000Z</time>
        <extensions>
          <ns3:TrackPointExtension>
            <ns3:atemp>22.0</ns3:atemp>
          </ns3:TrackPointExtension>
        </extensions>
      </trkpt>
      <trkpt lat="42.516019977629184722900390625" lon="20.01047040335834026336669921875">
        <ele>1911.5999755859375</ele>
        <time>2026-06-19T09:49:12.000Z</time>
        <extensions>
          <ns3:TrackPointExtension>
            <ns3:atemp>22.0</ns3:atemp>
          </ns3:TrackPointExtension>
        </extensions>
      </trkpt>
      <trkpt lat="42.516019977629184722900390625" lon="20.01047040335834026336669921875">
        <ele>1911.5999755859375</ele>
        <time>2026-06-19T09:49:13.000Z</time>
        <extensions>
          <ns3:TrackPointExtension>
            <ns3:atemp>22.0</ns3:atemp>
          </ns3:TrackPointExtension>
        </extensions>
      </trkpt>
      <trkpt lat="42.516019977629184722900390625" lon="20.01047040335834026336669921875">
        <ele>1911.5999755859375</ele>
        <time>2026-06-19T09:49:14.000Z</time>
        <extensions>
          <ns3:TrackPointExtension>
            <ns3:atemp>22.0</ns3:atemp>
          </ns3:TrackPointExtension>
        </extensions>
      </trkpt>
      <trkpt lat="42.516019977629184722900390625" lon="20.01047040335834026336669921875">
        <ele>1911.5999755859375</ele>
        <time>2026-06-19T09:49:15.000Z</time>
        <extensions>
          <ns3:TrackPointExtension>
            <ns3:atemp>22.0</ns3:atemp>
          </ns3:TrackPointExtension>
        </extensions>
      </trkpt>
      <trkpt lat="42.516019977629184722900390625" lon="20.01047040335834026336669921875">
        <ele>1911.5999755859375</ele>
        <time>2026-06-19T09:49:16.000Z</time>
        <extensions>
          <ns3:TrackPointExtension>
            <ns3:atemp>22.0</ns3:atemp>
          </ns3:TrackPointExtension>
        </extensions>
      </trkpt>
      <trkpt lat="42.516019977629184722900390625" lon="20.01047040335834026336669921875">
        <ele>1911.5999755859375</ele>
        <time>2026-06-19T09:49:17.000Z</time>
        <extensions>
          <ns3:TrackPointExtension>
            <ns3:atemp>22.0</ns3:atemp>
          </ns3:TrackPointExtension>
        </extensions>
      </trkpt>
      <trkpt lat="42.516019977629184722900390625" lon="20.01047040335834026336669921875">
        <ele>1911.5999755859375</ele>
        <time>2026-06-19T09:49:18.000Z</time>
        <extensions>
          <ns3:TrackPointExtension>
            <ns3:atemp>22.0</ns3:atemp>
          </ns3:TrackPointExtension>
        </extensions>
      </trkpt>
      <trkpt lat="42.516019977629184722900390625" lon="20.01047040335834026336669921875">
        <ele>1911.5999755859375</ele>
        <time>2026-06-19T09:49:19.000Z</time>
        <extensions>
          <ns3:TrackPointExtension>
            <ns3:atemp>22.0</ns3:atemp>
          </ns3:TrackPointExtension>
        </extensions>
      </trkpt>
      <trkpt lat="42.516019977629184722900390625" lon="20.01047040335834026336669921875">
        <ele>1911.5999755859375</ele>
        <time>2026-06-19T09:49:20.000Z</time>
        <extensions>
          <ns3:TrackPointExtension>
            <ns3:atemp>22.0</ns3:atemp>
          </ns3:TrackPointExtension>
        </extensions>
      </trkpt>
      <trkpt lat="42.516019977629184722900390625" lon="20.01047040335834026336669921875">
        <ele>1911.5999755859375</ele>
        <time>2026-06-19T09:49:21.000Z</time>
        <extensions>
          <ns3:TrackPointExtension>
            <ns3:atemp>22.0</ns3:atemp>
          </ns3:TrackPointExtension>
        </extensions>
      </trkpt>
      <trkpt lat="42.516019977629184722900390625" lon="20.01047040335834026336669921875">
        <ele>1911.5999755859375</ele>
        <time>2026-06-19T09:49:22.000Z</time>
        <extensions>
          <ns3:TrackPointExtension>
            <ns3:atemp>22.0</ns3:atemp>
          </ns3:TrackPointExtension>
        </extensions>
      </trkpt>
      <trkpt lat="42.516019977629184722900390625" lon="20.01047040335834026336669921875">
        <ele>1911.5999755859375</ele>
        <time>2026-06-19T09:49:23.000Z</time>
        <extensions>
          <ns3:TrackPointExtension>
            <ns3:atemp>22.0</ns3:atemp>
          </ns3:TrackPointExtension>
        </extensions>
      </trkpt>
      <trkpt lat="42.516019977629184722900390625" lon="20.01047040335834026336669921875">
        <ele>1911.5999755859375</ele>
        <time>2026-06-19T09:49:24.000Z</time>
        <extensions>
          <ns3:TrackPointExtension>
            <ns3:atemp>22.0</ns3:atemp>
          </ns3:TrackPointExtension>
        </extensions>
      </trkpt>
      <trkpt lat="42.516019977629184722900390625" lon="20.01047040335834026336669921875">
        <ele>1911.5999755859375</ele>
        <time>2026-06-19T09:49:25.000Z</time>
        <extensions>
          <ns3:TrackPointExtension>
            <ns3:atemp>22.0</ns3:atemp>
          </ns3:TrackPointExtension>
        </extensions>
      </trkpt>
      <trkpt lat="42.516019977629184722900390625" lon="20.01047040335834026336669921875">
        <ele>1911.5999755859375</ele>
        <time>2026-06-19T09:49:26.000Z</time>
        <extensions>
          <ns3:TrackPointExtension>
            <ns3:atemp>22.0</ns3:atemp>
          </ns3:TrackPointExtension>
        </extensions>
      </trkpt>
      <trkpt lat="42.516019977629184722900390625" lon="20.01047040335834026336669921875">
        <ele>1911.5999755859375</ele>
        <time>2026-06-19T09:49:27.000Z</time>
        <extensions>
          <ns3:TrackPointExtension>
            <ns3:atemp>22.0</ns3:atemp>
          </ns3:TrackPointExtension>
        </extensions>
      </trkpt>
      <trkpt lat="42.516019977629184722900390625" lon="20.01047040335834026336669921875">
        <ele>1911.5999755859375</ele>
        <time>2026-06-19T09:49:28.000Z</time>
        <extensions>
          <ns3:TrackPointExtension>
            <ns3:atemp>22.0</ns3:atemp>
          </ns3:TrackPointExtension>
        </extensions>
      </trkpt>
      <trkpt lat="42.516019977629184722900390625" lon="20.01047040335834026336669921875">
        <ele>1911.5999755859375</ele>
        <time>2026-06-19T09:49:29.000Z</time>
        <extensions>
          <ns3:TrackPointExtension>
            <ns3:atemp>22.0</ns3:atemp>
          </ns3:TrackPointExtension>
        </extensions>
      </trkpt>
      <trkpt lat="42.516019977629184722900390625" lon="20.01047040335834026336669921875">
        <ele>1911.5999755859375</ele>
        <time>2026-06-19T09:49:30.000Z</time>
        <extensions>
          <ns3:TrackPointExtension>
            <ns3:atemp>22.0</ns3:atemp>
          </ns3:TrackPointExtension>
        </extensions>
      </trkpt>
      <trkpt lat="42.516019977629184722900390625" lon="20.01047040335834026336669921875">
        <ele>1911.5999755859375</ele>
        <time>2026-06-19T09:49:31.000Z</time>
        <extensions>
          <ns3:TrackPointExtension>
            <ns3:atemp>22.0</ns3:atemp>
          </ns3:TrackPointExtension>
        </extensions>
      </trkpt>
      <trkpt lat="42.516019977629184722900390625" lon="20.01047040335834026336669921875">
        <ele>1911.5999755859375</ele>
        <time>2026-06-19T09:49:32.000Z</time>
        <extensions>
          <ns3:TrackPointExtension>
            <ns3:atemp>22.0</ns3:atemp>
          </ns3:TrackPointExtension>
        </extensions>
      </trkpt>
      <trkpt lat="42.516019977629184722900390625" lon="20.01047040335834026336669921875">
        <ele>1911.5999755859375</ele>
        <time>2026-06-19T09:49:33.000Z</time>
        <extensions>
          <ns3:TrackPointExtension>
            <ns3:atemp>22.0</ns3:atemp>
          </ns3:TrackPointExtension>
        </extensions>
      </trkpt>
      <trkpt lat="42.516019977629184722900390625" lon="20.01047040335834026336669921875">
        <ele>1911.5999755859375</ele>
        <time>2026-06-19T09:49:34.000Z</time>
        <extensions>
          <ns3:TrackPointExtension>
            <ns3:atemp>22.0</ns3:atemp>
          </ns3:TrackPointExtension>
        </extensions>
      </trkpt>
      <trkpt lat="42.516019977629184722900390625" lon="20.01047040335834026336669921875">
        <ele>1911.5999755859375</ele>
        <time>2026-06-19T09:49:35.000Z</time>
        <extensions>
          <ns3:TrackPointExtension>
            <ns3:atemp>22.0</ns3:atemp>
          </ns3:TrackPointExtension>
        </extensions>
      </trkpt>
      <trkpt lat="42.516019977629184722900390625" lon="20.01047040335834026336669921875">
        <ele>1911.5999755859375</ele>
        <time>2026-06-19T09:49:36.000Z</time>
        <extensions>
          <ns3:TrackPointExtension>
            <ns3:atemp>22.0</ns3:atemp>
          </ns3:TrackPointExtension>
        </extensions>
      </trkpt>
      <trkpt lat="42.516019977629184722900390625" lon="20.01047040335834026336669921875">
        <ele>1911.5999755859375</ele>
        <time>2026-06-19T09:49:37.000Z</time>
        <extensions>
          <ns3:TrackPointExtension>
            <ns3:atemp>22.0</ns3:atemp>
          </ns3:TrackPointExtension>
        </extensions>
      </trkpt>
      <trkpt lat="42.516019977629184722900390625" lon="20.01047040335834026336669921875">
        <ele>1911.5999755859375</ele>
        <time>2026-06-19T09:49:38.000Z</time>
        <extensions>
          <ns3:TrackPointExtension>
            <ns3:atemp>22.0</ns3:atemp>
          </ns3:TrackPointExtension>
        </extensions>
      </trkpt>
      <trkpt lat="42.516019977629184722900390625" lon="20.01047040335834026336669921875">
        <ele>1911.5999755859375</ele>
        <time>2026-06-19T09:49:39.000Z</time>
        <extensions>
          <ns3:TrackPointExtension>
            <ns3:atemp>22.0</ns3:atemp>
          </ns3:TrackPointExtension>
        </extensions>
      </trkpt>
      <trkpt lat="42.516019977629184722900390625" lon="20.01047040335834026336669921875">
        <ele>1911.5999755859375</ele>
        <time>2026-06-19T09:49:40.000Z</time>
        <extensions>
          <ns3:TrackPointExtension>
            <ns3:atemp>22.0</ns3:atemp>
          </ns3:TrackPointExtension>
        </extensions>
      </trkpt>
      <trkpt lat="42.516019977629184722900390625" lon="20.01047040335834026336669921875">
        <ele>1911.5999755859375</ele>
        <time>2026-06-19T09:49:41.000Z</time>
        <extensions>
          <ns3:TrackPointExtension>
            <ns3:atemp>22.0</ns3:atemp>
          </ns3:TrackPointExtension>
        </extensions>
      </trkpt>
      <trkpt lat="42.516019977629184722900390625" lon="20.01047040335834026336669921875">
        <ele>1911.5999755859375</ele>
        <time>2026-06-19T09:49:42.000Z</time>
        <extensions>
          <ns3:TrackPointExtension>
            <ns3:atemp>22.0</ns3:atemp>
          </ns3:TrackPointExtension>
        </extensions>
      </trkpt>
      <trkpt lat="42.516019977629184722900390625" lon="20.01047040335834026336669921875">
        <ele>1911.5999755859375</ele>
        <time>2026-06-19T09:49:43.000Z</time>
        <extensions>
          <ns3:TrackPointExtension>
            <ns3:atemp>22.0</ns3:atemp>
          </ns3:TrackPointExtension>
        </extensions>
      </trkpt>
      <trkpt lat="42.516019977629184722900390625" lon="20.01047040335834026336669921875">
        <ele>1911.5999755859375</ele>
        <time>2026-06-19T09:49:44.000Z</time>
        <extensions>
          <ns3:TrackPointExtension>
            <ns3:atemp>22.0</ns3:atemp>
          </ns3:TrackPointExtension>
        </extensions>
      </trkpt>
      <trkpt lat="42.516019977629184722900390625" lon="20.01047040335834026336669921875">
        <ele>1911.5999755859375</ele>
        <time>2026-06-19T09:49:45.000Z</time>
        <extensions>
          <ns3:TrackPointExtension>
            <ns3:atemp>22.0</ns3:atemp>
          </ns3:TrackPointExtension>
        </extensions>
      </trkpt>
      <trkpt lat="42.516019977629184722900390625" lon="20.01047040335834026336669921875">
        <ele>1911.5999755859375</ele>
        <time>2026-06-19T09:49:46.000Z</time>
        <extensions>
          <ns3:TrackPointExtension>
            <ns3:atemp>22.0</ns3:atemp>
          </ns3:TrackPointExtension>
        </extensions>
      </trkpt>
      <trkpt lat="42.516019977629184722900390625" lon="20.01047040335834026336669921875">
        <ele>1911.5999755859375</ele>
        <time>2026-06-19T09:49:47.000Z</time>
        <extensions>
          <ns3:TrackPointExtension>
            <ns3:atemp>22.0</ns3:atemp>
          </ns3:TrackPointExtension>
        </extensions>
      </trkpt>
      <trkpt lat="42.516019977629184722900390625" lon="20.01047040335834026336669921875">
        <ele>1911.5999755859375</ele>
        <time>2026-06-19T09:49:48.000Z</time>
        <extensions>
          <ns3:TrackPointExtension>
            <ns3:atemp>22.0</ns3:atemp>
          </ns3:TrackPointExtension>
        </extensions>
      </trkpt>
      <trkpt lat="42.516019977629184722900390625" lon="20.01047040335834026336669921875">
        <ele>1911.5999755859375</ele>
        <time>2026-06-19T09:49:49.000Z</time>
        <extensions>
          <ns3:TrackPointExtension>
            <ns3:atemp>22.0</ns3:atemp>
          </ns3:TrackPointExtension>
        </extensions>
      </trkpt>
      <trkpt lat="42.516019977629184722900390625" lon="20.01047040335834026336669921875">
        <ele>1911.5999755859375</ele>
        <time>2026-06-19T09:49:50.000Z</time>
        <extensions>
          <ns3:TrackPointExtension>
            <ns3:atemp>22.0</ns3:atemp>
          </ns3:TrackPointExtension>
        </extensions>
      </trkpt>
      <trkpt lat="42.516019977629184722900390625" lon="20.01047040335834026336669921875">
        <ele>1911.5999755859375</ele>
        <time>2026-06-19T09:49:51.000Z</time>
        <extensions>
          <ns3:TrackPointExtension>
            <ns3:atemp>22.0</ns3:atemp>
          </ns3:TrackPointExtension>
        </extensions>
      </trkpt>
      <trkpt lat="42.516019977629184722900390625" lon="20.01047040335834026336669921875">
        <ele>1911.5999755859375</ele>
        <time>2026-06-19T09:49:52.000Z</time>
        <extensions>
          <ns3:TrackPointExtension>
            <ns3:atemp>22.0</ns3:atemp>
          </ns3:TrackPointExtension>
        </extensions>
      </trkpt>
      <trkpt lat="42.516019977629184722900390625" lon="20.01047040335834026336669921875">
        <ele>1911.5999755859375</ele>
        <time>2026-06-19T09:49:53.000Z</time>
        <extensions>
          <ns3:TrackPointExtension>
            <ns3:atemp>22.0</ns3:atemp>
          </ns3:TrackPointExtension>
        </extensions>
      </trkpt>
      <trkpt lat="42.516019977629184722900390625" lon="20.01047040335834026336669921875">
        <ele>1911.5999755859375</ele>
        <time>2026-06-19T09:49:54.000Z</time>
        <extensions>
          <ns3:TrackPointExtension>
            <ns3:atemp>22.0</ns3:atemp>
          </ns3:TrackPointExtension>
        </extensions>
      </trkpt>
      <trkpt lat="42.516019977629184722900390625" lon="20.01047040335834026336669921875">
        <ele>1911.5999755859375</ele>
        <time>2026-06-19T09:49:55.000Z</time>
        <extensions>
          <ns3:TrackPointExtension>
            <ns3:atemp>22.0</ns3:atemp>
          </ns3:TrackPointExtension>
        </extensions>
      </trkpt>
      <trkpt lat="42.516019977629184722900390625" lon="20.01047040335834026336669921875">
        <ele>1911.5999755859375</ele>
        <time>2026-06-19T09:49:56.000Z</time>
        <extensions>
          <ns3:TrackPointExtension>
            <ns3:atemp>22.0</ns3:atemp>
          </ns3:TrackPointExtension>
        </extensions>
      </trkpt>
      <trkpt lat="42.516019977629184722900390625" lon="20.01047040335834026336669921875">
        <ele>1911.5999755859375</ele>
        <time>2026-06-19T09:49:57.000Z</time>
        <extensions>
          <ns3:TrackPointExtension>
            <ns3:atemp>22.0</ns3:atemp>
          </ns3:TrackPointExtension>
        </extensions>
      </trkpt>
      <trkpt lat="42.516019977629184722900390625" lon="20.01047040335834026336669921875">
        <ele>1911.5999755859375</ele>
        <time>2026-06-19T09:49:58.000Z</time>
        <extensions>
          <ns3:TrackPointExtension>
            <ns3:atemp>22.0</ns3:atemp>
          </ns3:TrackPointExtension>
        </extensions>
      </trkpt>
      <trkpt lat="42.516019977629184722900390625" lon="20.01047040335834026336669921875">
        <ele>1911.5999755859375</ele>
        <time>2026-06-19T09:49:59.000Z</time>
        <extensions>
          <ns3:TrackPointExtension>
            <ns3:atemp>22.0</ns3:atemp>
          </ns3:TrackPointExtension>
        </extensions>
      </trkpt>
      <trkpt lat="42.516019977629184722900390625" lon="20.01047040335834026336669921875">
        <ele>1911.5999755859375</ele>
        <time>2026-06-19T09:50:00.000Z</time>
        <extensions>
          <ns3:TrackPointExtension>
            <ns3:atemp>22.0</ns3:atemp>
          </ns3:TrackPointExtension>
        </extensions>
      </trkpt>
      <trkpt lat="42.516019977629184722900390625" lon="20.01047040335834026336669921875">
        <ele>1911.5999755859375</ele>
        <time>2026-06-19T09:50:01.000Z</time>
        <extensions>
          <ns3:TrackPointExtension>
            <ns3:atemp>22.0</ns3:atemp>
          </ns3:TrackPointExtension>
        </extensions>
      </trkpt>
      <trkpt lat="42.516019977629184722900390625" lon="20.01047040335834026336669921875">
        <ele>1911.5999755859375</ele>
        <time>2026-06-19T09:50:02.000Z</time>
        <extensions>
          <ns3:TrackPointExtension>
            <ns3:atemp>22.0</ns3:atemp>
          </ns3:TrackPointExtension>
        </extensions>
      </trkpt>
      <trkpt lat="42.516019977629184722900390625" lon="20.01047040335834026336669921875">
        <ele>1911.5999755859375</ele>
        <time>2026-06-19T09:50:03.000Z</time>
        <extensions>
          <ns3:TrackPointExtension>
            <ns3:atemp>22.0</ns3:atemp>
          </ns3:TrackPointExtension>
        </extensions>
      </trkpt>
      <trkpt lat="42.516019977629184722900390625" lon="20.01047040335834026336669921875">
        <ele>1911.5999755859375</ele>
        <time>2026-06-19T09:50:04.000Z</time>
        <extensions>
          <ns3:TrackPointExtension>
            <ns3:atemp>22.0</ns3:atemp>
          </ns3:TrackPointExtension>
        </extensions>
      </trkpt>
      <trkpt lat="42.516019977629184722900390625" lon="20.01047040335834026336669921875">
        <ele>1911.5999755859375</ele>
        <time>2026-06-19T09:50:05.000Z</time>
        <extensions>
          <ns3:TrackPointExtension>
            <ns3:atemp>22.0</ns3:atemp>
          </ns3:TrackPointExtension>
        </extensions>
      </trkpt>
      <trkpt lat="42.516019977629184722900390625" lon="20.01047040335834026336669921875">
        <ele>1911.5999755859375</ele>
        <time>2026-06-19T09:50:06.000Z</time>
        <extensions>
          <ns3:TrackPointExtension>
            <ns3:atemp>22.0</ns3:atemp>
          </ns3:TrackPointExtension>
        </extensions>
      </trkpt>
      <trkpt lat="42.516019977629184722900390625" lon="20.01047040335834026336669921875">
        <ele>1911.5999755859375</ele>
        <time>2026-06-19T09:50:07.000Z</time>
        <extensions>
          <ns3:TrackPointExtension>
            <ns3:atemp>22.0</ns3:atemp>
          </ns3:TrackPointExtension>
        </extensions>
      </trkpt>
      <trkpt lat="42.516019977629184722900390625" lon="20.01047040335834026336669921875">
        <ele>1911.5999755859375</ele>
        <time>2026-06-19T09:50:08.000Z</time>
        <extensions>
          <ns3:TrackPointExtension>
            <ns3:atemp>22.0</ns3:atemp>
          </ns3:TrackPointExtension>
        </extensions>
      </trkpt>
      <trkpt lat="42.516019977629184722900390625" lon="20.01047040335834026336669921875">
        <ele>1911.5999755859375</ele>
        <time>2026-06-19T09:50:09.000Z</time>
        <extensions>
          <ns3:TrackPointExtension>
            <ns3:atemp>22.0</ns3:atemp>
          </ns3:TrackPointExtension>
        </extensions>
      </trkpt>
      <trkpt lat="42.516019977629184722900390625" lon="20.01047040335834026336669921875">
        <ele>1911.5999755859375</ele>
        <time>2026-06-19T09:50:10.000Z</time>
        <extensions>
          <ns3:TrackPointExtension>
            <ns3:atemp>22.0</ns3:atemp>
          </ns3:TrackPointExtension>
        </extensions>
      </trkpt>
      <trkpt lat="42.516019977629184722900390625" lon="20.01047040335834026336669921875">
        <ele>1911.5999755859375</ele>
        <time>2026-06-19T09:50:11.000Z</time>
        <extensions>
          <ns3:TrackPointExtension>
            <ns3:atemp>22.0</ns3:atemp>
          </ns3:TrackPointExtension>
        </extensions>
      </trkpt>
      <trkpt lat="42.516019977629184722900390625" lon="20.01047040335834026336669921875">
        <ele>1911.5999755859375</ele>
        <time>2026-06-19T09:50:12.000Z</time>
        <extensions>
          <ns3:TrackPointExtension>
            <ns3:atemp>22.0</ns3:atemp>
          </ns3:TrackPointExtension>
        </extensions>
      </trkpt>
      <trkpt lat="42.516019977629184722900390625" lon="20.01047040335834026336669921875">
        <ele>1911.5999755859375</ele>
        <time>2026-06-19T09:50:13.000Z</time>
        <extensions>
          <ns3:TrackPointExtension>
            <ns3:atemp>22.0</ns3:atemp>
          </ns3:TrackPointExtension>
        </extensions>
      </trkpt>
      <trkpt lat="42.516019977629184722900390625" lon="20.01047040335834026336669921875">
        <ele>1911.5999755859375</ele>
        <time>2026-06-19T09:50:14.000Z</time>
        <extensions>
          <ns3:TrackPointExtension>
            <ns3:atemp>22.0</ns3:atemp>
          </ns3:TrackPointExtension>
        </extensions>
      </trkpt>
      <trkpt lat="42.516019977629184722900390625" lon="20.01047040335834026336669921875">
        <ele>1911.5999755859375</ele>
        <time>2026-06-19T09:50:15.000Z</time>
        <extensions>
          <ns3:TrackPointExtension>
            <ns3:atemp>22.0</ns3:atemp>
          </ns3:TrackPointExtension>
        </extensions>
      </trkpt>
      <trkpt lat="42.516019977629184722900390625" lon="20.01047040335834026336669921875">
        <ele>1911.5999755859375</ele>
        <time>2026-06-19T09:50:16.000Z</time>
        <extensions>
          <ns3:TrackPointExtension>
            <ns3:atemp>22.0</ns3:atemp>
          </ns3:TrackPointExtension>
        </extensions>
      </trkpt>
      <trkpt lat="42.516019977629184722900390625" lon="20.01047040335834026336669921875">
        <ele>1911.5999755859375</ele>
        <time>2026-06-19T09:50:17.000Z</time>
        <extensions>
          <ns3:TrackPointExtension>
            <ns3:atemp>22.0</ns3:atemp>
          </ns3:TrackPointExtension>
        </extensions>
      </trkpt>
      <trkpt lat="42.516019977629184722900390625" lon="20.01047040335834026336669921875">
        <ele>1911.5999755859375</ele>
        <time>2026-06-19T09:50:18.000Z</time>
        <extensions>
          <ns3:TrackPointExtension>
            <ns3:atemp>22.0</ns3:atemp>
          </ns3:TrackPointExtension>
        </extensions>
      </trkpt>
      <trkpt lat="42.516019977629184722900390625" lon="20.01047040335834026336669921875">
        <ele>1911.5999755859375</ele>
        <time>2026-06-19T09:50:19.000Z</time>
        <extensions>
          <ns3:TrackPointExtension>
            <ns3:atemp>22.0</ns3:atemp>
          </ns3:TrackPointExtension>
        </extensions>
      </trkpt>
      <trkpt lat="42.516019977629184722900390625" lon="20.01047040335834026336669921875">
        <ele>1911.5999755859375</ele>
        <time>2026-06-19T09:50:20.000Z</time>
        <extensions>
          <ns3:TrackPointExtension>
            <ns3:atemp>22.0</ns3:atemp>
          </ns3:TrackPointExtension>
        </extensions>
      </trkpt>
      <trkpt lat="42.516019977629184722900390625" lon="20.01047040335834026336669921875">
        <ele>1911.5999755859375</ele>
        <time>2026-06-19T09:50:21.000Z</time>
        <extensions>
          <ns3:TrackPointExtension>
            <ns3:atemp>22.0</ns3:atemp>
          </ns3:TrackPointExtension>
        </extensions>
      </trkpt>
      <trkpt lat="42.516019977629184722900390625" lon="20.01047040335834026336669921875">
        <ele>1911.5999755859375</ele>
        <time>2026-06-19T09:50:22.000Z</time>
        <extensions>
          <ns3:TrackPointExtension>
            <ns3:atemp>22.0</ns3:atemp>
          </ns3:TrackPointExtension>
        </extensions>
      </trkpt>
      <trkpt lat="42.516019977629184722900390625" lon="20.01047040335834026336669921875">
        <ele>1911.5999755859375</ele>
        <time>2026-06-19T09:50:23.000Z</time>
        <extensions>
          <ns3:TrackPointExtension>
            <ns3:atemp>22.0</ns3:atemp>
          </ns3:TrackPointExtension>
        </extensions>
      </trkpt>
      <trkpt lat="42.516019977629184722900390625" lon="20.01047040335834026336669921875">
        <ele>1911.5999755859375</ele>
        <time>2026-06-19T09:50:24.000Z</time>
        <extensions>
          <ns3:TrackPointExtension>
            <ns3:atemp>22.0</ns3:atemp>
          </ns3:TrackPointExtension>
        </extensions>
      </trkpt>
      <trkpt lat="42.516019977629184722900390625" lon="20.01047040335834026336669921875">
        <ele>1911.5999755859375</ele>
        <time>2026-06-19T09:50:25.000Z</time>
        <extensions>
          <ns3:TrackPointExtension>
            <ns3:atemp>22.0</ns3:atemp>
          </ns3:TrackPointExtension>
        </extensions>
      </trkpt>
      <trkpt lat="42.516019977629184722900390625" lon="20.01047040335834026336669921875">
        <ele>1911.5999755859375</ele>
        <time>2026-06-19T09:50:26.000Z</time>
        <extensions>
          <ns3:TrackPointExtension>
            <ns3:atemp>22.0</ns3:atemp>
          </ns3:TrackPointExtension>
        </extensions>
      </trkpt>
      <trkpt lat="42.516019977629184722900390625" lon="20.01047040335834026336669921875">
        <ele>1911.5999755859375</ele>
        <time>2026-06-19T09:50:27.000Z</time>
        <extensions>
          <ns3:TrackPointExtension>
            <ns3:atemp>22.0</ns3:atemp>
          </ns3:TrackPointExtension>
        </extensions>
      </trkpt>
      <trkpt lat="42.516019977629184722900390625" lon="20.01047040335834026336669921875">
        <ele>1911.5999755859375</ele>
        <time>2026-06-19T09:50:28.000Z</time>
        <extensions>
          <ns3:TrackPointExtension>
            <ns3:atemp>22.0</ns3:atemp>
          </ns3:TrackPointExtension>
        </extensions>
      </trkpt>
      <trkpt lat="42.516019977629184722900390625" lon="20.01047040335834026336669921875">
        <ele>1911.5999755859375</ele>
        <time>2026-06-19T09:50:29.000Z</time>
        <extensions>
          <ns3:TrackPointExtension>
            <ns3:atemp>22.0</ns3:atemp>
          </ns3:TrackPointExtension>
        </extensions>
      </trkpt>
      <trkpt lat="42.516019977629184722900390625" lon="20.01047040335834026336669921875">
        <ele>1911.5999755859375</ele>
        <time>2026-06-19T09:50:30.000Z</time>
        <extensions>
          <ns3:TrackPointExtension>
            <ns3:atemp>22.0</ns3:atemp>
          </ns3:TrackPointExtension>
        </extensions>
      </trkpt>
      <trkpt lat="42.516019977629184722900390625" lon="20.01047040335834026336669921875">
        <ele>1911.5999755859375</ele>
        <time>2026-06-19T09:50:31.000Z</time>
        <extensions>
          <ns3:TrackPointExtension>
            <ns3:atemp>22.0</ns3:atemp>
          </ns3:TrackPointExtension>
        </extensions>
      </trkpt>
      <trkpt lat="42.516019977629184722900390625" lon="20.01047040335834026336669921875">
        <ele>1911.5999755859375</ele>
        <time>2026-06-19T09:50:32.000Z</time>
        <extensions>
          <ns3:TrackPointExtension>
            <ns3:atemp>22.0</ns3:atemp>
          </ns3:TrackPointExtension>
        </extensions>
      </trkpt>
      <trkpt lat="42.516019977629184722900390625" lon="20.01047040335834026336669921875">
        <ele>1911.5999755859375</ele>
        <time>2026-06-19T09:50:33.000Z</time>
        <extensions>
          <ns3:TrackPointExtension>
            <ns3:atemp>22.0</ns3:atemp>
          </ns3:TrackPointExtension>
        </extensions>
      </trkpt>
      <trkpt lat="42.516019977629184722900390625" lon="20.01047040335834026336669921875">
        <ele>1911.5999755859375</ele>
        <time>2026-06-19T09:50:34.000Z</time>
        <extensions>
          <ns3:TrackPointExtension>
            <ns3:atemp>22.0</ns3:atemp>
          </ns3:TrackPointExtension>
        </extensions>
      </trkpt>
      <trkpt lat="42.516019977629184722900390625" lon="20.01047040335834026336669921875">
        <ele>1911.5999755859375</ele>
        <time>2026-06-19T09:50:35.000Z</time>
        <extensions>
          <ns3:TrackPointExtension>
            <ns3:atemp>22.0</ns3:atemp>
          </ns3:TrackPointExtension>
        </extensions>
      </trkpt>
      <trkpt lat="42.516019977629184722900390625" lon="20.01047040335834026336669921875">
        <ele>1911.5999755859375</ele>
        <time>2026-06-19T09:50:36.000Z</time>
        <extensions>
          <ns3:TrackPointExtension>
            <ns3:atemp>22.0</ns3:atemp>
          </ns3:TrackPointExtension>
        </extensions>
      </trkpt>
      <trkpt lat="42.516019977629184722900390625" lon="20.01047040335834026336669921875">
        <ele>1911.5999755859375</ele>
        <time>2026-06-19T09:50:37.000Z</time>
        <extensions>
          <ns3:TrackPointExtension>
            <ns3:atemp>22.0</ns3:atemp>
          </ns3:TrackPointExtension>
        </extensions>
      </trkpt>
      <trkpt lat="42.516019977629184722900390625" lon="20.01047040335834026336669921875">
        <ele>1911.5999755859375</ele>
        <time>2026-06-19T09:50:38.000Z</time>
        <extensions>
          <ns3:TrackPointExtension>
            <ns3:atemp>22.0</ns3:atemp>
          </ns3:TrackPointExtension>
        </extensions>
      </trkpt>
      <trkpt lat="42.516019977629184722900390625" lon="20.01047040335834026336669921875">
        <ele>1911.5999755859375</ele>
        <time>2026-06-19T09:50:39.000Z</time>
        <extensions>
          <ns3:TrackPointExtension>
            <ns3:atemp>22.0</ns3:atemp>
          </ns3:TrackPointExtension>
        </extensions>
      </trkpt>
      <trkpt lat="42.516019977629184722900390625" lon="20.01047040335834026336669921875">
        <ele>1911.5999755859375</ele>
        <time>2026-06-19T09:50:40.000Z</time>
        <extensions>
          <ns3:TrackPointExtension>
            <ns3:atemp>22.0</ns3:atemp>
          </ns3:TrackPointExtension>
        </extensions>
      </trkpt>
      <trkpt lat="42.516019977629184722900390625" lon="20.01047040335834026336669921875">
        <ele>1911.5999755859375</ele>
        <time>2026-06-19T09:50:41.000Z</time>
        <extensions>
          <ns3:TrackPointExtension>
            <ns3:atemp>22.0</ns3:atemp>
          </ns3:TrackPointExtension>
        </extensions>
      </trkpt>
      <trkpt lat="42.516019977629184722900390625" lon="20.01047040335834026336669921875">
        <ele>1911.5999755859375</ele>
        <time>2026-06-19T09:50:42.000Z</time>
        <extensions>
          <ns3:TrackPointExtension>
            <ns3:atemp>22.0</ns3:atemp>
          </ns3:TrackPointExtension>
        </extensions>
      </trkpt>
      <trkpt lat="42.516019977629184722900390625" lon="20.01047040335834026336669921875">
        <ele>1911.5999755859375</ele>
        <time>2026-06-19T09:50:43.000Z</time>
        <extensions>
          <ns3:TrackPointExtension>
            <ns3:atemp>22.0</ns3:atemp>
          </ns3:TrackPointExtension>
        </extensions>
      </trkpt>
      <trkpt lat="42.516019977629184722900390625" lon="20.01047040335834026336669921875">
        <ele>1911.5999755859375</ele>
        <time>2026-06-19T09:50:44.000Z</time>
        <extensions>
          <ns3:TrackPointExtension>
            <ns3:atemp>22.0</ns3:atemp>
          </ns3:TrackPointExtension>
        </extensions>
      </trkpt>
      <trkpt lat="42.516019977629184722900390625" lon="20.01047040335834026336669921875">
        <ele>1911.5999755859375</ele>
        <time>2026-06-19T09:50:45.000Z</time>
        <extensions>
          <ns3:TrackPointExtension>
            <ns3:atemp>22.0</ns3:atemp>
          </ns3:TrackPointExtension>
        </extensions>
      </trkpt>
      <trkpt lat="42.516019977629184722900390625" lon="20.01047040335834026336669921875">
        <ele>1911.5999755859375</ele>
        <time>2026-06-19T09:50:46.000Z</time>
        <extensions>
          <ns3:TrackPointExtension>
            <ns3:atemp>22.0</ns3:atemp>
          </ns3:TrackPointExtension>
        </extensions>
      </trkpt>
      <trkpt lat="42.516019977629184722900390625" lon="20.01047040335834026336669921875">
        <ele>1911.5999755859375</ele>
        <time>2026-06-19T09:50:47.000Z</time>
        <extensions>
          <ns3:TrackPointExtension>
            <ns3:atemp>22.0</ns3:atemp>
          </ns3:TrackPointExtension>
        </extensions>
      </trkpt>
      <trkpt lat="42.516019977629184722900390625" lon="20.01047040335834026336669921875">
        <ele>1911.5999755859375</ele>
        <time>2026-06-19T09:50:48.000Z</time>
        <extensions>
          <ns3:TrackPointExtension>
            <ns3:atemp>22.0</ns3:atemp>
          </ns3:TrackPointExtension>
        </extensions>
      </trkpt>
      <trkpt lat="42.516019977629184722900390625" lon="20.01047040335834026336669921875">
        <ele>1911.5999755859375</ele>
        <time>2026-06-19T09:50:49.000Z</time>
        <extensions>
          <ns3:TrackPointExtension>
            <ns3:atemp>22.0</ns3:atemp>
          </ns3:TrackPointExtension>
        </extensions>
      </trkpt>
      <trkpt lat="42.516019977629184722900390625" lon="20.01047040335834026336669921875">
        <ele>1911.5999755859375</ele>
        <time>2026-06-19T09:50:50.000Z</time>
        <extensions>
          <ns3:TrackPointExtension>
            <ns3:atemp>22.0</ns3:atemp>
          </ns3:TrackPointExtension>
        </extensions>
      </trkpt>
      <trkpt lat="42.516019977629184722900390625" lon="20.01047040335834026336669921875">
        <ele>1911.5999755859375</ele>
        <time>2026-06-19T09:50:51.000Z</time>
        <extensions>
          <ns3:TrackPointExtension>
            <ns3:atemp>22.0</ns3:atemp>
          </ns3:TrackPointExtension>
        </extensions>
      </trkpt>
      <trkpt lat="42.516019977629184722900390625" lon="20.01047040335834026336669921875">
        <ele>1911.5999755859375</ele>
        <time>2026-06-19T09:50:52.000Z</time>
        <extensions>
          <ns3:TrackPointExtension>
            <ns3:atemp>22.0</ns3:atemp>
          </ns3:TrackPointExtension>
        </extensions>
      </trkpt>
      <trkpt lat="42.516019977629184722900390625" lon="20.01047040335834026336669921875">
        <ele>1911.5999755859375</ele>
        <time>2026-06-19T09:50:53.000Z</time>
        <extensions>
          <ns3:TrackPointExtension>
            <ns3:atemp>22.0</ns3:atemp>
          </ns3:TrackPointExtension>
        </extensions>
      </trkpt>
      <trkpt lat="42.516019977629184722900390625" lon="20.01047040335834026336669921875">
        <ele>1911.5999755859375</ele>
        <time>2026-06-19T09:50:54.000Z</time>
        <extensions>
          <ns3:TrackPointExtension>
            <ns3:atemp>22.0</ns3:atemp>
          </ns3:TrackPointExtension>
        </extensions>
      </trkpt>
      <trkpt lat="42.516019977629184722900390625" lon="20.01047040335834026336669921875">
        <ele>1911.5999755859375</ele>
        <time>2026-06-19T09:50:55.000Z</time>
        <extensions>
          <ns3:TrackPointExtension>
            <ns3:atemp>22.0</ns3:atemp>
          </ns3:TrackPointExtension>
        </extensions>
      </trkpt>
      <trkpt lat="42.516019977629184722900390625" lon="20.01047040335834026336669921875">
        <ele>1911.5999755859375</ele>
        <time>2026-06-19T09:50:56.000Z</time>
        <extensions>
          <ns3:TrackPointExtension>
            <ns3:atemp>22.0</ns3:atemp>
          </ns3:TrackPointExtension>
        </extensions>
      </trkpt>
      <trkpt lat="42.516019977629184722900390625" lon="20.01047040335834026336669921875">
        <ele>1911.5999755859375</ele>
        <time>2026-06-19T09:50:57.000Z</time>
        <extensions>
          <ns3:TrackPointExtension>
            <ns3:atemp>22.0</ns3:atemp>
          </ns3:TrackPointExtension>
        </extensions>
      </trkpt>
      <trkpt lat="42.516019977629184722900390625" lon="20.01047040335834026336669921875">
        <ele>1911.5999755859375</ele>
        <time>2026-06-19T09:50:58.000Z</time>
        <extensions>
          <ns3:TrackPointExtension>
            <ns3:atemp>22.0</ns3:atemp>
          </ns3:TrackPointExtension>
        </extensions>
      </trkpt>
      <trkpt lat="42.516019977629184722900390625" lon="20.01047040335834026336669921875">
        <ele>1911.5999755859375</ele>
        <time>2026-06-19T09:50:59.000Z</time>
        <extensions>
          <ns3:TrackPointExtension>
            <ns3:atemp>22.0</ns3:atemp>
          </ns3:TrackPointExtension>
        </extensions>
      </trkpt>
      <trkpt lat="42.516019977629184722900390625" lon="20.01047040335834026336669921875">
        <ele>1911.5999755859375</ele>
        <time>2026-06-19T09:51:00.000Z</time>
        <extensions>
          <ns3:TrackPointExtension>
            <ns3:atemp>22.0</ns3:atemp>
          </ns3:TrackPointExtension>
        </extensions>
      </trkpt>
      <trkpt lat="42.516019977629184722900390625" lon="20.01047040335834026336669921875">
        <ele>1911.5999755859375</ele>
        <time>2026-06-19T09:51:01.000Z</time>
        <extensions>
          <ns3:TrackPointExtension>
            <ns3:atemp>22.0</ns3:atemp>
          </ns3:TrackPointExtension>
        </extensions>
      </trkpt>
      <trkpt lat="42.516019977629184722900390625" lon="20.01047040335834026336669921875">
        <ele>1911.5999755859375</ele>
        <time>2026-06-19T09:51:02.000Z</time>
        <extensions>
          <ns3:TrackPointExtension>
            <ns3:atemp>22.0</ns3:atemp>
          </ns3:TrackPointExtension>
        </extensions>
      </trkpt>
      <trkpt lat="42.516019977629184722900390625" lon="20.01047040335834026336669921875">
        <ele>1911.5999755859375</ele>
        <time>2026-06-19T09:51:03.000Z</time>
        <extensions>
          <ns3:TrackPointExtension>
            <ns3:atemp>22.0</ns3:atemp>
          </ns3:TrackPointExtension>
        </extensions>
      </trkpt>
      <trkpt lat="42.516019977629184722900390625" lon="20.01047040335834026336669921875">
        <ele>1911.5999755859375</ele>
        <time>2026-06-19T09:51:04.000Z</time>
        <extensions>
          <ns3:TrackPointExtension>
            <ns3:atemp>22.0</ns3:atemp>
          </ns3:TrackPointExtension>
        </extensions>
      </trkpt>
      <trkpt lat="42.516019977629184722900390625" lon="20.01047040335834026336669921875">
        <ele>1911.5999755859375</ele>
        <time>2026-06-19T09:51:05.000Z</time>
        <extensions>
          <ns3:TrackPointExtension>
            <ns3:atemp>22.0</ns3:atemp>
          </ns3:TrackPointExtension>
        </extensions>
      </trkpt>
      <trkpt lat="42.516019977629184722900390625" lon="20.01047040335834026336669921875">
        <ele>1911.5999755859375</ele>
        <time>2026-06-19T09:51:06.000Z</time>
        <extensions>
          <ns3:TrackPointExtension>
            <ns3:atemp>22.0</ns3:atemp>
          </ns3:TrackPointExtension>
        </extensions>
      </trkpt>
      <trkpt lat="42.516019977629184722900390625" lon="20.01047040335834026336669921875">
        <ele>1911.5999755859375</ele>
        <time>2026-06-19T09:51:07.000Z</time>
        <extensions>
          <ns3:TrackPointExtension>
            <ns3:atemp>22.0</ns3:atemp>
          </ns3:TrackPointExtension>
        </extensions>
      </trkpt>
      <trkpt lat="42.516019977629184722900390625" lon="20.01047040335834026336669921875">
        <ele>1911.5999755859375</ele>
        <time>2026-06-19T09:51:08.000Z</time>
        <extensions>
          <ns3:TrackPointExtension>
            <ns3:atemp>22.0</ns3:atemp>
          </ns3:TrackPointExtension>
        </extensions>
      </trkpt>
      <trkpt lat="42.516019977629184722900390625" lon="20.01047040335834026336669921875">
        <ele>1911.5999755859375</ele>
        <time>2026-06-19T09:51:09.000Z</time>
        <extensions>
          <ns3:TrackPointExtension>
            <ns3:atemp>22.0</ns3:atemp>
          </ns3:TrackPointExtension>
        </extensions>
      </trkpt>
      <trkpt lat="42.516019977629184722900390625" lon="20.01047040335834026336669921875">
        <ele>1911.5999755859375</ele>
        <time>2026-06-19T09:51:10.000Z</time>
        <extensions>
          <ns3:TrackPointExtension>
            <ns3:atemp>22.0</ns3:atemp>
          </ns3:TrackPointExtension>
        </extensions>
      </trkpt>
      <trkpt lat="42.516019977629184722900390625" lon="20.01047040335834026336669921875">
        <ele>1911.5999755859375</ele>
        <time>2026-06-19T09:51:11.000Z</time>
        <extensions>
          <ns3:TrackPointExtension>
            <ns3:atemp>22.0</ns3:atemp>
          </ns3:TrackPointExtension>
        </extensions>
      </trkpt>
      <trkpt lat="42.516019977629184722900390625" lon="20.01047040335834026336669921875">
        <ele>1911.5999755859375</ele>
        <time>2026-06-19T09:51:12.000Z</time>
        <extensions>
          <ns3:TrackPointExtension>
            <ns3:atemp>22.0</ns3:atemp>
          </ns3:TrackPointExtension>
        </extensions>
      </trkpt>
      <trkpt lat="42.516019977629184722900390625" lon="20.01047040335834026336669921875">
        <ele>1911.5999755859375</ele>
        <time>2026-06-19T09:51:13.000Z</time>
        <extensions>
          <ns3:TrackPointExtension>
            <ns3:atemp>22.0</ns3:atemp>
          </ns3:TrackPointExtension>
        </extensions>
      </trkpt>
      <trkpt lat="42.516019977629184722900390625" lon="20.01047040335834026336669921875">
        <ele>1911.5999755859375</ele>
        <time>2026-06-19T09:51:14.000Z</time>
        <extensions>
          <ns3:TrackPointExtension>
            <ns3:atemp>22.0</ns3:atemp>
          </ns3:TrackPointExtension>
        </extensions>
      </trkpt>
      <trkpt lat="42.516019977629184722900390625" lon="20.01047040335834026336669921875">
        <ele>1911.5999755859375</ele>
        <time>2026-06-19T09:51:15.000Z</time>
        <extensions>
          <ns3:TrackPointExtension>
            <ns3:atemp>22.0</ns3:atemp>
          </ns3:TrackPointExtension>
        </extensions>
      </trkpt>
      <trkpt lat="42.516019977629184722900390625" lon="20.01047040335834026336669921875">
        <ele>1911.5999755859375</ele>
        <time>2026-06-19T09:51:16.000Z</time>
        <extensions>
          <ns3:TrackPointExtension>
            <ns3:atemp>22.0</ns3:atemp>
          </ns3:TrackPointExtension>
        </extensions>
      </trkpt>
      <trkpt lat="42.516019977629184722900390625" lon="20.01047040335834026336669921875">
        <ele>1911.5999755859375</ele>
        <time>2026-06-19T09:51:17.000Z</time>
        <extensions>
          <ns3:TrackPointExtension>
            <ns3:atemp>22.0</ns3:atemp>
          </ns3:TrackPointExtension>
        </extensions>
      </trkpt>
      <trkpt lat="42.516019977629184722900390625" lon="20.01047040335834026336669921875">
        <ele>1911.5999755859375</ele>
        <time>2026-06-19T09:51:18.000Z</time>
        <extensions>
          <ns3:TrackPointExtension>
            <ns3:atemp>22.0</ns3:atemp>
          </ns3:TrackPointExtension>
        </extensions>
      </trkpt>
      <trkpt lat="42.516019977629184722900390625" lon="20.01047040335834026336669921875">
        <ele>1911.5999755859375</ele>
        <time>2026-06-19T09:51:19.000Z</time>
        <extensions>
          <ns3:TrackPointExtension>
            <ns3:atemp>22.0</ns3:atemp>
          </ns3:TrackPointExtension>
        </extensions>
      </trkpt>
      <trkpt lat="42.516019977629184722900390625" lon="20.01047040335834026336669921875">
        <ele>1911.5999755859375</ele>
        <time>2026-06-19T09:51:20.000Z</time>
        <extensions>
          <ns3:TrackPointExtension>
            <ns3:atemp>22.0</ns3:atemp>
          </ns3:TrackPointExtension>
        </extensions>
      </trkpt>
      <trkpt lat="42.516019977629184722900390625" lon="20.01047040335834026336669921875">
        <ele>1911.5999755859375</ele>
        <time>2026-06-19T09:51:21.000Z</time>
        <extensions>
          <ns3:TrackPointExtension>
            <ns3:atemp>22.0</ns3:atemp>
          </ns3:TrackPointExtension>
        </extensions>
      </trkpt>
      <trkpt lat="42.516019977629184722900390625" lon="20.01047040335834026336669921875">
        <ele>1911.5999755859375</ele>
        <time>2026-06-19T09:51:22.000Z</time>
        <extensions>
          <ns3:TrackPointExtension>
            <ns3:atemp>22.0</ns3:atemp>
          </ns3:TrackPointExtension>
        </extensions>
      </trkpt>
      <trkpt lat="42.516019977629184722900390625" lon="20.01047040335834026336669921875">
        <ele>1911.5999755859375</ele>
        <time>2026-06-19T09:51:23.000Z</time>
        <extensions>
          <ns3:TrackPointExtension>
            <ns3:atemp>22.0</ns3:atemp>
          </ns3:TrackPointExtension>
        </extensions>
      </trkpt>
      <trkpt lat="42.516019977629184722900390625" lon="20.01047040335834026336669921875">
        <ele>1911.5999755859375</ele>
        <time>2026-06-19T09:51:24.000Z</time>
        <extensions>
          <ns3:TrackPointExtension>
            <ns3:atemp>22.0</ns3:atemp>
          </ns3:TrackPointExtension>
        </extensions>
      </trkpt>
      <trkpt lat="42.516019977629184722900390625" lon="20.01047040335834026336669921875">
        <ele>1911.5999755859375</ele>
        <time>2026-06-19T09:51:25.000Z</time>
        <extensions>
          <ns3:TrackPointExtension>
            <ns3:atemp>22.0</ns3:atemp>
          </ns3:TrackPointExtension>
        </extensions>
      </trkpt>
      <trkpt lat="42.516019977629184722900390625" lon="20.01047040335834026336669921875">
        <ele>1911.5999755859375</ele>
        <time>2026-06-19T09:51:26.000Z</time>
        <extensions>
          <ns3:TrackPointExtension>
            <ns3:atemp>22.0</ns3:atemp>
          </ns3:TrackPointExtension>
        </extensions>
      </trkpt>
      <trkpt lat="42.516019977629184722900390625" lon="20.01047040335834026336669921875">
        <ele>1911.5999755859375</ele>
        <time>2026-06-19T09:51:27.000Z</time>
        <extensions>
          <ns3:TrackPointExtension>
            <ns3:atemp>22.0</ns3:atemp>
          </ns3:TrackPointExtension>
        </extensions>
      </trkpt>
      <trkpt lat="42.516019977629184722900390625" lon="20.01047040335834026336669921875">
        <ele>1911.5999755859375</ele>
        <time>2026-06-19T09:51:28.000Z</time>
        <extensions>
          <ns3:TrackPointExtension>
            <ns3:atemp>22.0</ns3:atemp>
          </ns3:TrackPointExtension>
        </extensions>
      </trkpt>
      <trkpt lat="42.516019977629184722900390625" lon="20.01047040335834026336669921875">
        <ele>1911.5999755859375</ele>
        <time>2026-06-19T09:51:29.000Z</time>
        <extensions>
          <ns3:TrackPointExtension>
            <ns3:atemp>22.0</ns3:atemp>
          </ns3:TrackPointExtension>
        </extensions>
      </trkpt>
      <trkpt lat="42.516019977629184722900390625" lon="20.01047040335834026336669921875">
        <ele>1911.5999755859375</ele>
        <time>2026-06-19T09:51:30.000Z</time>
        <extensions>
          <ns3:TrackPointExtension>
            <ns3:atemp>22.0</ns3:atemp>
          </ns3:TrackPointExtension>
        </extensions>
      </trkpt>
      <trkpt lat="42.516019977629184722900390625" lon="20.01047040335834026336669921875">
        <ele>1911.5999755859375</ele>
        <time>2026-06-19T09:51:31.000Z</time>
        <extensions>
          <ns3:TrackPointExtension>
            <ns3:atemp>22.0</ns3:atemp>
          </ns3:TrackPointExtension>
        </extensions>
      </trkpt>
      <trkpt lat="42.516019977629184722900390625" lon="20.01047040335834026336669921875">
        <ele>1911.5999755859375</ele>
        <time>2026-06-19T09:51:32.000Z</time>
        <extensions>
          <ns3:TrackPointExtension>
            <ns3:atemp>22.0</ns3:atemp>
          </ns3:TrackPointExtension>
        </extensions>
      </trkpt>
      <trkpt lat="42.516019977629184722900390625" lon="20.01047040335834026336669921875">
        <ele>1911.5999755859375</ele>
        <time>2026-06-19T09:51:33.000Z</time>
        <extensions>
          <ns3:TrackPointExtension>
            <ns3:atemp>22.0</ns3:atemp>
          </ns3:TrackPointExtension>
        </extensions>
      </trkpt>
      <trkpt lat="42.516019977629184722900390625" lon="20.01047040335834026336669921875">
        <ele>1911.5999755859375</ele>
        <time>2026-06-19T09:51:34.000Z</time>
        <extensions>
          <ns3:TrackPointExtension>
            <ns3:atemp>22.0</ns3:atemp>
          </ns3:TrackPointExtension>
        </extensions>
      </trkpt>
      <trkpt lat="42.516019977629184722900390625" lon="20.01047040335834026336669921875">
        <ele>1911.5999755859375</ele>
        <time>2026-06-19T09:51:35.000Z</time>
        <extensions>
          <ns3:TrackPointExtension>
            <ns3:atemp>22.0</ns3:atemp>
          </ns3:TrackPointExtension>
        </extensions>
      </trkpt>
      <trkpt lat="42.516019977629184722900390625" lon="20.01047040335834026336669921875">
        <ele>1911.5999755859375</ele>
        <time>2026-06-19T09:51:36.000Z</time>
        <extensions>
          <ns3:TrackPointExtension>
            <ns3:atemp>22.0</ns3:atemp>
          </ns3:TrackPointExtension>
        </extensions>
      </trkpt>
      <trkpt lat="42.516019977629184722900390625" lon="20.01047040335834026336669921875">
        <ele>1911.5999755859375</ele>
        <time>2026-06-19T09:51:37.000Z</time>
        <extensions>
          <ns3:TrackPointExtension>
            <ns3:atemp>22.0</ns3:atemp>
          </ns3:TrackPointExtension>
        </extensions>
      </trkpt>
      <trkpt lat="42.516019977629184722900390625" lon="20.01047040335834026336669921875">
        <ele>1911.5999755859375</ele>
        <time>2026-06-19T09:51:38.000Z</time>
        <extensions>
          <ns3:TrackPointExtension>
            <ns3:atemp>22.0</ns3:atemp>
          </ns3:TrackPointExtension>
        </extensions>
      </trkpt>
      <trkpt lat="42.516019977629184722900390625" lon="20.01047040335834026336669921875">
        <ele>1911.5999755859375</ele>
        <time>2026-06-19T09:51:39.000Z</time>
        <extensions>
          <ns3:TrackPointExtension>
            <ns3:atemp>22.0</ns3:atemp>
          </ns3:TrackPointExtension>
        </extensions>
      </trkpt>
      <trkpt lat="42.516019977629184722900390625" lon="20.01047040335834026336669921875">
        <ele>1911.5999755859375</ele>
        <time>2026-06-19T09:51:40.000Z</time>
        <extensions>
          <ns3:TrackPointExtension>
            <ns3:atemp>22.0</ns3:atemp>
          </ns3:TrackPointExtension>
        </extensions>
      </trkpt>
      <trkpt lat="42.516019977629184722900390625" lon="20.01047040335834026336669921875">
        <ele>1911.5999755859375</ele>
        <time>2026-06-19T09:51:41.000Z</time>
        <extensions>
          <ns3:TrackPointExtension>
            <ns3:atemp>22.0</ns3:atemp>
          </ns3:TrackPointExtension>
        </extensions>
      </trkpt>
      <trkpt lat="42.516019977629184722900390625" lon="20.01047040335834026336669921875">
        <ele>1911.5999755859375</ele>
        <time>2026-06-19T09:51:42.000Z</time>
        <extensions>
          <ns3:TrackPointExtension>
            <ns3:atemp>22.0</ns3:atemp>
          </ns3:TrackPointExtension>
        </extensions>
      </trkpt>
      <trkpt lat="42.516019977629184722900390625" lon="20.01047040335834026336669921875">
        <ele>1911.5999755859375</ele>
        <time>2026-06-19T09:51:43.000Z</time>
        <extensions>
          <ns3:TrackPointExtension>
            <ns3:atemp>22.0</ns3:atemp>
          </ns3:TrackPointExtension>
        </extensions>
      </trkpt>
      <trkpt lat="42.516019977629184722900390625" lon="20.01047040335834026336669921875">
        <ele>1911.5999755859375</ele>
        <time>2026-06-19T09:51:44.000Z</time>
        <extensions>
          <ns3:TrackPointExtension>
            <ns3:atemp>22.0</ns3:atemp>
          </ns3:TrackPointExtension>
        </extensions>
      </trkpt>
      <trkpt lat="42.516019977629184722900390625" lon="20.01047040335834026336669921875">
        <ele>1911.5999755859375</ele>
        <time>2026-06-19T09:51:45.000Z</time>
        <extensions>
          <ns3:TrackPointExtension>
            <ns3:atemp>22.0</ns3:atemp>
          </ns3:TrackPointExtension>
        </extensions>
      </trkpt>
      <trkpt lat="42.516019977629184722900390625" lon="20.01047040335834026336669921875">
        <ele>1911.5999755859375</ele>
        <time>2026-06-19T09:51:46.000Z</time>
        <extensions>
          <ns3:TrackPointExtension>
            <ns3:atemp>22.0</ns3:atemp>
          </ns3:TrackPointExtension>
        </extensions>
      </trkpt>
      <trkpt lat="42.516019977629184722900390625" lon="20.01047040335834026336669921875">
        <ele>1911.5999755859375</ele>
        <time>2026-06-19T09:51:47.000Z</time>
        <extensions>
          <ns3:TrackPointExtension>
            <ns3:atemp>22.0</ns3:atemp>
          </ns3:TrackPointExtension>
        </extensions>
      </trkpt>
      <trkpt lat="42.516019977629184722900390625" lon="20.01047040335834026336669921875">
        <ele>1911.5999755859375</ele>
        <time>2026-06-19T09:51:48.000Z</time>
        <extensions>
          <ns3:TrackPointExtension>
            <ns3:atemp>22.0</ns3:atemp>
          </ns3:TrackPointExtension>
        </extensions>
      </trkpt>
      <trkpt lat="42.516019977629184722900390625" lon="20.01047040335834026336669921875">
        <ele>1911.5999755859375</ele>
        <time>2026-06-19T09:51:49.000Z</time>
        <extensions>
          <ns3:TrackPointExtension>
            <ns3:atemp>22.0</ns3:atemp>
          </ns3:TrackPointExtension>
        </extensions>
      </trkpt>
      <trkpt lat="42.516019977629184722900390625" lon="20.01047040335834026336669921875">
        <ele>1911.5999755859375</ele>
        <time>2026-06-19T09:51:50.000Z</time>
        <extensions>
          <ns3:TrackPointExtension>
            <ns3:atemp>22.0</ns3:atemp>
          </ns3:TrackPointExtension>
        </extensions>
      </trkpt>
      <trkpt lat="42.516019977629184722900390625" lon="20.01047040335834026336669921875">
        <ele>1911.5999755859375</ele>
        <time>2026-06-19T09:51:51.000Z</time>
        <extensions>
          <ns3:TrackPointExtension>
            <ns3:atemp>22.0</ns3:atemp>
          </ns3:TrackPointExtension>
        </extensions>
      </trkpt>
      <trkpt lat="42.516019977629184722900390625" lon="20.01047040335834026336669921875">
        <ele>1911.5999755859375</ele>
        <time>2026-06-19T09:51:52.000Z</time>
        <extensions>
          <ns3:TrackPointExtension>
            <ns3:atemp>22.0</ns3:atemp>
          </ns3:TrackPointExtension>
        </extensions>
      </trkpt>
      <trkpt lat="42.516019977629184722900390625" lon="20.01047040335834026336669921875">
        <ele>1911.5999755859375</ele>
        <time>2026-06-19T09:51:53.000Z</time>
        <extensions>
          <ns3:TrackPointExtension>
            <ns3:atemp>22.0</ns3:atemp>
          </ns3:TrackPointExtension>
        </extensions>
      </trkpt>
      <trkpt lat="42.516019977629184722900390625" lon="20.01047040335834026336669921875">
        <ele>1911.5999755859375</ele>
        <time>2026-06-19T09:51:54.000Z</time>
        <extensions>
          <ns3:TrackPointExtension>
            <ns3:atemp>22.0</ns3:atemp>
          </ns3:TrackPointExtension>
        </extensions>
      </trkpt>
      <trkpt lat="42.516019977629184722900390625" lon="20.01047040335834026336669921875">
        <ele>1911.5999755859375</ele>
        <time>2026-06-19T09:51:55.000Z</time>
        <extensions>
          <ns3:TrackPointExtension>
            <ns3:atemp>22.0</ns3:atemp>
          </ns3:TrackPointExtension>
        </extensions>
      </trkpt>
      <trkpt lat="42.516019977629184722900390625" lon="20.01047040335834026336669921875">
        <ele>1911.5999755859375</ele>
        <time>2026-06-19T09:51:56.000Z</time>
        <extensions>
          <ns3:TrackPointExtension>
            <ns3:atemp>22.0</ns3:atemp>
          </ns3:TrackPointExtension>
        </extensions>
      </trkpt>
      <trkpt lat="42.516019977629184722900390625" lon="20.01047040335834026336669921875">
        <ele>1911.5999755859375</ele>
        <time>2026-06-19T09:51:57.000Z</time>
        <extensions>
          <ns3:TrackPointExtension>
            <ns3:atemp>22.0</ns3:atemp>
          </ns3:TrackPointExtension>
        </extensions>
      </trkpt>
      <trkpt lat="42.516019977629184722900390625" lon="20.01047040335834026336669921875">
        <ele>1911.5999755859375</ele>
        <time>2026-06-19T09:51:58.000Z</time>
        <extensions>
          <ns3:TrackPointExtension>
            <ns3:atemp>22.0</ns3:atemp>
          </ns3:TrackPointExtension>
        </extensions>
      </trkpt>
      <trkpt lat="42.516019977629184722900390625" lon="20.01047040335834026336669921875">
        <ele>1911.5999755859375</ele>
        <time>2026-06-19T09:51:59.000Z</time>
        <extensions>
          <ns3:TrackPointExtension>
            <ns3:atemp>22.0</ns3:atemp>
          </ns3:TrackPointExtension>
        </extensions>
      </trkpt>
      <trkpt lat="42.516019977629184722900390625" lon="20.01047040335834026336669921875">
        <ele>1911.5999755859375</ele>
        <time>2026-06-19T09:52:00.000Z</time>
        <extensions>
          <ns3:TrackPointExtension>
            <ns3:atemp>22.0</ns3:atemp>
          </ns3:TrackPointExtension>
        </extensions>
      </trkpt>
      <trkpt lat="42.516019977629184722900390625" lon="20.01047040335834026336669921875">
        <ele>1911.5999755859375</ele>
        <time>2026-06-19T09:52:01.000Z</time>
        <extensions>
          <ns3:TrackPointExtension>
            <ns3:atemp>22.0</ns3:atemp>
          </ns3:TrackPointExtension>
        </extensions>
      </trkpt>
      <trkpt lat="42.516019977629184722900390625" lon="20.01047040335834026336669921875">
        <ele>1911.5999755859375</ele>
        <time>2026-06-19T09:52:02.000Z</time>
        <extensions>
          <ns3:TrackPointExtension>
            <ns3:atemp>22.0</ns3:atemp>
          </ns3:TrackPointExtension>
        </extensions>
      </trkpt>
      <trkpt lat="42.516019977629184722900390625" lon="20.01047040335834026336669921875">
        <ele>1911.5999755859375</ele>
        <time>2026-06-19T09:52:03.000Z</time>
        <extensions>
          <ns3:TrackPointExtension>
            <ns3:atemp>22.0</ns3:atemp>
          </ns3:TrackPointExtension>
        </extensions>
      </trkpt>
      <trkpt lat="42.516019977629184722900390625" lon="20.01047040335834026336669921875">
        <ele>1911.5999755859375</ele>
        <time>2026-06-19T09:52:04.000Z</time>
        <extensions>
          <ns3:TrackPointExtension>
            <ns3:atemp>22.0</ns3:atemp>
          </ns3:TrackPointExtension>
        </extensions>
      </trkpt>
      <trkpt lat="42.516019977629184722900390625" lon="20.01047040335834026336669921875">
        <ele>1911.5999755859375</ele>
        <time>2026-06-19T09:52:05.000Z</time>
        <extensions>
          <ns3:TrackPointExtension>
            <ns3:atemp>22.0</ns3:atemp>
          </ns3:TrackPointExtension>
        </extensions>
      </trkpt>
      <trkpt lat="42.516019977629184722900390625" lon="20.01047040335834026336669921875">
        <ele>1911.5999755859375</ele>
        <time>2026-06-19T09:52:06.000Z</time>
        <extensions>
          <ns3:TrackPointExtension>
            <ns3:atemp>22.0</ns3:atemp>
          </ns3:TrackPointExtension>
        </extensions>
      </trkpt>
      <trkpt lat="42.516019977629184722900390625" lon="20.01047040335834026336669921875">
        <ele>1911.5999755859375</ele>
        <time>2026-06-19T09:52:07.000Z</time>
        <extensions>
          <ns3:TrackPointExtension>
            <ns3:atemp>22.0</ns3:atemp>
          </ns3:TrackPointExtension>
        </extensions>
      </trkpt>
      <trkpt lat="42.516019977629184722900390625" lon="20.01047040335834026336669921875">
        <ele>1911.5999755859375</ele>
        <time>2026-06-19T09:52:08.000Z</time>
        <extensions>
          <ns3:TrackPointExtension>
            <ns3:atemp>22.0</ns3:atemp>
          </ns3:TrackPointExtension>
        </extensions>
      </trkpt>
      <trkpt lat="42.516019977629184722900390625" lon="20.01047040335834026336669921875">
        <ele>1911.5999755859375</ele>
        <time>2026-06-19T09:52:09.000Z</time>
        <extensions>
          <ns3:TrackPointExtension>
            <ns3:atemp>22.0</ns3:atemp>
          </ns3:TrackPointExtension>
        </extensions>
      </trkpt>
      <trkpt lat="42.516019977629184722900390625" lon="20.01047040335834026336669921875">
        <ele>1911.5999755859375</ele>
        <time>2026-06-19T09:52:10.000Z</time>
        <extensions>
          <ns3:TrackPointExtension>
            <ns3:atemp>22.0</ns3:atemp>
          </ns3:TrackPointExtension>
        </extensions>
      </trkpt>
      <trkpt lat="42.516019977629184722900390625" lon="20.01047040335834026336669921875">
        <ele>1911.5999755859375</ele>
        <time>2026-06-19T09:52:11.000Z</time>
        <extensions>
          <ns3:TrackPointExtension>
            <ns3:atemp>22.0</ns3:atemp>
          </ns3:TrackPointExtension>
        </extensions>
      </trkpt>
      <trkpt lat="42.516019977629184722900390625" lon="20.01047040335834026336669921875">
        <ele>1911.5999755859375</ele>
        <time>2026-06-19T09:52:12.000Z</time>
        <extensions>
          <ns3:TrackPointExtension>
            <ns3:atemp>22.0</ns3:atemp>
          </ns3:TrackPointExtension>
        </extensions>
      </trkpt>
      <trkpt lat="42.516019977629184722900390625" lon="20.01047040335834026336669921875">
        <ele>1911.5999755859375</ele>
        <time>2026-06-19T09:52:13.000Z</time>
        <extensions>
          <ns3:TrackPointExtension>
            <ns3:atemp>22.0</ns3:atemp>
          </ns3:TrackPointExtension>
        </extensions>
      </trkpt>
      <trkpt lat="42.516019977629184722900390625" lon="20.01047040335834026336669921875">
        <ele>1911.5999755859375</ele>
        <time>2026-06-19T09:52:14.000Z</time>
        <extensions>
          <ns3:TrackPointExtension>
            <ns3:atemp>22.0</ns3:atemp>
          </ns3:TrackPointExtension>
        </extensions>
      </trkpt>
      <trkpt lat="42.516019977629184722900390625" lon="20.01047040335834026336669921875">
        <ele>1911.5999755859375</ele>
        <time>2026-06-19T09:52:15.000Z</time>
        <extensions>
          <ns3:TrackPointExtension>
            <ns3:atemp>22.0</ns3:atemp>
          </ns3:TrackPointExtension>
        </extensions>
      </trkpt>
      <trkpt lat="42.516019977629184722900390625" lon="20.01047040335834026336669921875">
        <ele>1911.5999755859375</ele>
        <time>2026-06-19T09:52:16.000Z</time>
        <extensions>
          <ns3:TrackPointExtension>
            <ns3:atemp>22.0</ns3:atemp>
          </ns3:TrackPointExtension>
        </extensions>
      </trkpt>
      <trkpt lat="42.516019977629184722900390625" lon="20.01047040335834026336669921875">
        <ele>1911.5999755859375</ele>
        <time>2026-06-19T09:52:17.000Z</time>
        <extensions>
          <ns3:TrackPointExtension>
            <ns3:atemp>22.0</ns3:atemp>
          </ns3:TrackPointExtension>
        </extensions>
      </trkpt>
      <trkpt lat="42.516019977629184722900390625" lon="20.01047040335834026336669921875">
        <ele>1911.5999755859375</ele>
        <time>2026-06-19T09:52:18.000Z</time>
        <extensions>
          <ns3:TrackPointExtension>
            <ns3:atemp>22.0</ns3:atemp>
          </ns3:TrackPointExtension>
        </extensions>
      </trkpt>
      <trkpt lat="42.516019977629184722900390625" lon="20.01047040335834026336669921875">
        <ele>1911.5999755859375</ele>
        <time>2026-06-19T09:52:19.000Z</time>
        <extensions>
          <ns3:TrackPointExtension>
            <ns3:atemp>22.0</ns3:atemp>
          </ns3:TrackPointExtension>
        </extensions>
      </trkpt>
      <trkpt lat="42.516019977629184722900390625" lon="20.01047040335834026336669921875">
        <ele>1911.5999755859375</ele>
        <time>2026-06-19T09:52:20.000Z</time>
        <extensions>
          <ns3:TrackPointExtension>
            <ns3:atemp>22.0</ns3:atemp>
          </ns3:TrackPointExtension>
        </extensions>
      </trkpt>
      <trkpt lat="42.516019977629184722900390625" lon="20.01047040335834026336669921875">
        <ele>1911.5999755859375</ele>
        <time>2026-06-19T09:52:21.000Z</time>
        <extensions>
          <ns3:TrackPointExtension>
            <ns3:atemp>22.0</ns3:atemp>
          </ns3:TrackPointExtension>
        </extensions>
      </trkpt>
      <trkpt lat="42.516019977629184722900390625" lon="20.01047040335834026336669921875">
        <ele>1911.5999755859375</ele>
        <time>2026-06-19T09:52:22.000Z</time>
        <extensions>
          <ns3:TrackPointExtension>
            <ns3:atemp>22.0</ns3:atemp>
          </ns3:TrackPointExtension>
        </extensions>
      </trkpt>
      <trkpt lat="42.516019977629184722900390625" lon="20.01047040335834026336669921875">
        <ele>1911.5999755859375</ele>
        <time>2026-06-19T09:52:23.000Z</time>
        <extensions>
          <ns3:TrackPointExtension>
            <ns3:atemp>22.0</ns3:atemp>
          </ns3:TrackPointExtension>
        </extensions>
      </trkpt>
      <trkpt lat="42.516019977629184722900390625" lon="20.01047040335834026336669921875">
        <ele>1911.5999755859375</ele>
        <time>2026-06-19T09:52:24.000Z</time>
        <extensions>
          <ns3:TrackPointExtension>
            <ns3:atemp>22.0</ns3:atemp>
          </ns3:TrackPointExtension>
        </extensions>
      </trkpt>
      <trkpt lat="42.516019977629184722900390625" lon="20.01047040335834026336669921875">
        <ele>1911.5999755859375</ele>
        <time>2026-06-19T09:52:25.000Z</time>
        <extensions>
          <ns3:TrackPointExtension>
            <ns3:atemp>22.0</ns3:atemp>
          </ns3:TrackPointExtension>
        </extensions>
      </trkpt>
      <trkpt lat="42.516019977629184722900390625" lon="20.01047040335834026336669921875">
        <ele>1911.5999755859375</ele>
        <time>2026-06-19T09:52:26.000Z</time>
        <extensions>
          <ns3:TrackPointExtension>
            <ns3:atemp>22.0</ns3:atemp>
          </ns3:TrackPointExtension>
        </extensions>
      </trkpt>
      <trkpt lat="42.516019977629184722900390625" lon="20.01047040335834026336669921875">
        <ele>1911.5999755859375</ele>
        <time>2026-06-19T09:52:27.000Z</time>
        <extensions>
          <ns3:TrackPointExtension>
            <ns3:atemp>22.0</ns3:atemp>
          </ns3:TrackPointExtension>
        </extensions>
      </trkpt>
      <trkpt lat="42.516019977629184722900390625" lon="20.01047040335834026336669921875">
        <ele>1911.5999755859375</ele>
        <time>2026-06-19T09:52:28.000Z</time>
        <extensions>
          <ns3:TrackPointExtension>
            <ns3:atemp>22.0</ns3:atemp>
          </ns3:TrackPointExtension>
        </extensions>
      </trkpt>
      <trkpt lat="42.516019977629184722900390625" lon="20.01047040335834026336669921875">
        <ele>1911.5999755859375</ele>
        <time>2026-06-19T09:52:29.000Z</time>
        <extensions>
          <ns3:TrackPointExtension>
            <ns3:atemp>22.0</ns3:atemp>
          </ns3:TrackPointExtension>
        </extensions>
      </trkpt>
      <trkpt lat="42.516019977629184722900390625" lon="20.01047040335834026336669921875">
        <ele>1911.5999755859375</ele>
        <time>2026-06-19T09:52:30.000Z</time>
        <extensions>
          <ns3:TrackPointExtension>
            <ns3:atemp>22.0</ns3:atemp>
          </ns3:TrackPointExtension>
        </extensions>
      </trkpt>
      <trkpt lat="42.516019977629184722900390625" lon="20.01047040335834026336669921875">
        <ele>1911.5999755859375</ele>
        <time>2026-06-19T09:52:31.000Z</time>
        <extensions>
          <ns3:TrackPointExtension>
            <ns3:atemp>22.0</ns3:atemp>
          </ns3:TrackPointExtension>
        </extensions>
      </trkpt>
      <trkpt lat="42.516019977629184722900390625" lon="20.01047040335834026336669921875">
        <ele>1911.5999755859375</ele>
        <time>2026-06-19T09:52:32.000Z</time>
        <extensions>
          <ns3:TrackPointExtension>
            <ns3:atemp>22.0</ns3:atemp>
          </ns3:TrackPointExtension>
        </extensions>
      </trkpt>
      <trkpt lat="42.516019977629184722900390625" lon="20.01047040335834026336669921875">
        <ele>1911.5999755859375</ele>
        <time>2026-06-19T09:52:33.000Z</time>
        <extensions>
          <ns3:TrackPointExtension>
            <ns3:atemp>22.0</ns3:atemp>
          </ns3:TrackPointExtension>
        </extensions>
      </trkpt>
      <trkpt lat="42.516019977629184722900390625" lon="20.01047040335834026336669921875">
        <ele>1911.5999755859375</ele>
        <time>2026-06-19T09:52:34.000Z</time>
        <extensions>
          <ns3:TrackPointExtension>
            <ns3:atemp>22.0</ns3:atemp>
          </ns3:TrackPointExtension>
        </extensions>
      </trkpt>
      <trkpt lat="42.516019977629184722900390625" lon="20.01047040335834026336669921875">
        <ele>1911.5999755859375</ele>
        <time>2026-06-19T09:52:35.000Z</time>
        <extensions>
          <ns3:TrackPointExtension>
            <ns3:atemp>22.0</ns3:atemp>
          </ns3:TrackPointExtension>
        </extensions>
      </trkpt>
      <trkpt lat="42.516019977629184722900390625" lon="20.01047040335834026336669921875">
        <ele>1911.5999755859375</ele>
        <time>2026-06-19T09:52:36.000Z</time>
        <extensions>
          <ns3:TrackPointExtension>
            <ns3:atemp>22.0</ns3:atemp>
          </ns3:TrackPointExtension>
        </extensions>
      </trkpt>
      <trkpt lat="42.516019977629184722900390625" lon="20.01047040335834026336669921875">
        <ele>1911.5999755859375</ele>
        <time>2026-06-19T09:52:37.000Z</time>
        <extensions>
          <ns3:TrackPointExtension>
            <ns3:atemp>22.0</ns3:atemp>
          </ns3:TrackPointExtension>
        </extensions>
      </trkpt>
      <trkpt lat="42.516019977629184722900390625" lon="20.01047040335834026336669921875">
        <ele>1911.5999755859375</ele>
        <time>2026-06-19T09:52:38.000Z</time>
        <extensions>
          <ns3:TrackPointExtension>
            <ns3:atemp>22.0</ns3:atemp>
          </ns3:TrackPointExtension>
        </extensions>
      </trkpt>
      <trkpt lat="42.516019977629184722900390625" lon="20.01047040335834026336669921875">
        <ele>1911.5999755859375</ele>
        <time>2026-06-19T09:52:39.000Z</time>
        <extensions>
          <ns3:TrackPointExtension>
            <ns3:atemp>22.0</ns3:atemp>
          </ns3:TrackPointExtension>
        </extensions>
      </trkpt>
      <trkpt lat="42.516019977629184722900390625" lon="20.01047040335834026336669921875">
        <ele>1911.5999755859375</ele>
        <time>2026-06-19T09:52:40.000Z</time>
        <extensions>
          <ns3:TrackPointExtension>
            <ns3:atemp>22.0</ns3:atemp>
          </ns3:TrackPointExtension>
        </extensions>
      </trkpt>
      <trkpt lat="42.516019977629184722900390625" lon="20.01047040335834026336669921875">
        <ele>1911.5999755859375</ele>
        <time>2026-06-19T09:52:41.000Z</time>
        <extensions>
          <ns3:TrackPointExtension>
            <ns3:atemp>22.0</ns3:atemp>
          </ns3:TrackPointExtension>
        </extensions>
      </trkpt>
      <trkpt lat="42.516019977629184722900390625" lon="20.01047040335834026336669921875">
        <ele>1911.5999755859375</ele>
        <time>2026-06-19T09:52:42.000Z</time>
        <extensions>
          <ns3:TrackPointExtension>
            <ns3:atemp>22.0</ns3:atemp>
          </ns3:TrackPointExtension>
        </extensions>
      </trkpt>
      <trkpt lat="42.516019977629184722900390625" lon="20.01047040335834026336669921875">
        <ele>1911.5999755859375</ele>
        <time>2026-06-19T09:52:43.000Z</time>
        <extensions>
          <ns3:TrackPointExtension>
            <ns3:atemp>22.0</ns3:atemp>
          </ns3:TrackPointExtension>
        </extensions>
      </trkpt>
      <trkpt lat="42.516019977629184722900390625" lon="20.01047040335834026336669921875">
        <ele>1911.5999755859375</ele>
        <time>2026-06-19T09:52:44.000Z</time>
        <extensions>
          <ns3:TrackPointExtension>
            <ns3:atemp>22.0</ns3:atemp>
          </ns3:TrackPointExtension>
        </extensions>
      </trkpt>
      <trkpt lat="42.516019977629184722900390625" lon="20.01047040335834026336669921875">
        <ele>1911.5999755859375</ele>
        <time>2026-06-19T09:52:45.000Z</time>
        <extensions>
          <ns3:TrackPointExtension>
            <ns3:atemp>22.0</ns3:atemp>
          </ns3:TrackPointExtension>
        </extensions>
      </trkpt>
      <trkpt lat="42.516019977629184722900390625" lon="20.01047040335834026336669921875">
        <ele>1911.5999755859375</ele>
        <time>2026-06-19T09:52:46.000Z</time>
        <extensions>
          <ns3:TrackPointExtension>
            <ns3:atemp>22.0</ns3:atemp>
          </ns3:TrackPointExtension>
        </extensions>
      </trkpt>
      <trkpt lat="42.516019977629184722900390625" lon="20.01047040335834026336669921875">
        <ele>1911.5999755859375</ele>
        <time>2026-06-19T09:52:47.000Z</time>
        <extensions>
          <ns3:TrackPointExtension>
            <ns3:atemp>22.0</ns3:atemp>
          </ns3:TrackPointExtension>
        </extensions>
      </trkpt>
      <trkpt lat="42.516019977629184722900390625" lon="20.01047040335834026336669921875">
        <ele>1911.5999755859375</ele>
        <time>2026-06-19T09:52:48.000Z</time>
        <extensions>
          <ns3:TrackPointExtension>
            <ns3:atemp>22.0</ns3:atemp>
          </ns3:TrackPointExtension>
        </extensions>
      </trkpt>
      <trkpt lat="42.516019977629184722900390625" lon="20.01047040335834026336669921875">
        <ele>1911.5999755859375</ele>
        <time>2026-06-19T09:52:49.000Z</time>
        <extensions>
          <ns3:TrackPointExtension>
            <ns3:atemp>22.0</ns3:atemp>
          </ns3:TrackPointExtension>
        </extensions>
      </trkpt>
      <trkpt lat="42.516019977629184722900390625" lon="20.01047040335834026336669921875">
        <ele>1911.5999755859375</ele>
        <time>2026-06-19T09:52:50.000Z</time>
        <extensions>
          <ns3:TrackPointExtension>
            <ns3:atemp>22.0</ns3:atemp>
          </ns3:TrackPointExtension>
        </extensions>
      </trkpt>
      <trkpt lat="42.516019977629184722900390625" lon="20.01047040335834026336669921875">
        <ele>1911.5999755859375</ele>
        <time>2026-06-19T09:52:51.000Z</time>
        <extensions>
          <ns3:TrackPointExtension>
            <ns3:atemp>22.0</ns3:atemp>
          </ns3:TrackPointExtension>
        </extensions>
      </trkpt>
      <trkpt lat="42.516019977629184722900390625" lon="20.01047040335834026336669921875">
        <ele>1911.5999755859375</ele>
        <time>2026-06-19T09:52:52.000Z</time>
        <extensions>
          <ns3:TrackPointExtension>
            <ns3:atemp>22.0</ns3:atemp>
          </ns3:TrackPointExtension>
        </extensions>
      </trkpt>
      <trkpt lat="42.516019977629184722900390625" lon="20.01047040335834026336669921875">
        <ele>1911.5999755859375</ele>
        <time>2026-06-19T09:52:53.000Z</time>
        <extensions>
          <ns3:TrackPointExtension>
            <ns3:atemp>22.0</ns3:atemp>
          </ns3:TrackPointExtension>
        </extensions>
      </trkpt>
      <trkpt lat="42.516019977629184722900390625" lon="20.01047040335834026336669921875">
        <ele>1911.5999755859375</ele>
        <time>2026-06-19T09:52:54.000Z</time>
        <extensions>
          <ns3:TrackPointExtension>
            <ns3:atemp>22.0</ns3:atemp>
          </ns3:TrackPointExtension>
        </extensions>
      </trkpt>
      <trkpt lat="42.516019977629184722900390625" lon="20.01047040335834026336669921875">
        <ele>1911.5999755859375</ele>
        <time>2026-06-19T09:52:55.000Z</time>
        <extensions>
          <ns3:TrackPointExtension>
            <ns3:atemp>22.0</ns3:atemp>
          </ns3:TrackPointExtension>
        </extensions>
      </trkpt>
      <trkpt lat="42.516019977629184722900390625" lon="20.01047040335834026336669921875">
        <ele>1911.5999755859375</ele>
        <time>2026-06-19T09:52:56.000Z</time>
        <extensions>
          <ns3:TrackPointExtension>
            <ns3:atemp>22.0</ns3:atemp>
          </ns3:TrackPointExtension>
        </extensions>
      </trkpt>
      <trkpt lat="42.516019977629184722900390625" lon="20.01047040335834026336669921875">
        <ele>1911.5999755859375</ele>
        <time>2026-06-19T09:52:57.000Z</time>
        <extensions>
          <ns3:TrackPointExtension>
            <ns3:atemp>22.0</ns3:atemp>
          </ns3:TrackPointExtension>
        </extensions>
      </trkpt>
      <trkpt lat="42.516019977629184722900390625" lon="20.01047040335834026336669921875">
        <ele>1911.5999755859375</ele>
        <time>2026-06-19T09:52:58.000Z</time>
        <extensions>
          <ns3:TrackPointExtension>
            <ns3:atemp>22.0</ns3:atemp>
          </ns3:TrackPointExtension>
        </extensions>
      </trkpt>
      <trkpt lat="42.516019977629184722900390625" lon="20.01047040335834026336669921875">
        <ele>1911.5999755859375</ele>
        <time>2026-06-19T09:52:59.000Z</time>
        <extensions>
          <ns3:TrackPointExtension>
            <ns3:atemp>22.0</ns3:atemp>
          </ns3:TrackPointExtension>
        </extensions>
      </trkpt>
      <trkpt lat="42.516019977629184722900390625" lon="20.01047040335834026336669921875">
        <ele>1911.5999755859375</ele>
        <time>2026-06-19T09:53:00.000Z</time>
        <extensions>
          <ns3:TrackPointExtension>
            <ns3:atemp>22.0</ns3:atemp>
          </ns3:TrackPointExtension>
        </extensions>
      </trkpt>
      <trkpt lat="42.516019977629184722900390625" lon="20.01047040335834026336669921875">
        <ele>1911.5999755859375</ele>
        <time>2026-06-19T09:53:01.000Z</time>
        <extensions>
          <ns3:TrackPointExtension>
            <ns3:atemp>22.0</ns3:atemp>
          </ns3:TrackPointExtension>
        </extensions>
      </trkpt>
      <trkpt lat="42.516019977629184722900390625" lon="20.01047040335834026336669921875">
        <ele>1911.5999755859375</ele>
        <time>2026-06-19T09:53:02.000Z</time>
        <extensions>
          <ns3:TrackPointExtension>
            <ns3:atemp>22.0</ns3:atemp>
          </ns3:TrackPointExtension>
        </extensions>
      </trkpt>
      <trkpt lat="42.516019977629184722900390625" lon="20.01047040335834026336669921875">
        <ele>1911.5999755859375</ele>
        <time>2026-06-19T09:53:03.000Z</time>
        <extensions>
          <ns3:TrackPointExtension>
            <ns3:atemp>22.0</ns3:atemp>
          </ns3:TrackPointExtension>
        </extensions>
      </trkpt>
      <trkpt lat="42.516019977629184722900390625" lon="20.01047040335834026336669921875">
        <ele>1911.5999755859375</ele>
        <time>2026-06-19T09:53:04.000Z</time>
        <extensions>
          <ns3:TrackPointExtension>
            <ns3:atemp>22.0</ns3:atemp>
          </ns3:TrackPointExtension>
        </extensions>
      </trkpt>
      <trkpt lat="42.516019977629184722900390625" lon="20.01047040335834026336669921875">
        <ele>1911.5999755859375</ele>
        <time>2026-06-19T09:53:05.000Z</time>
        <extensions>
          <ns3:TrackPointExtension>
            <ns3:atemp>22.0</ns3:atemp>
          </ns3:TrackPointExtension>
        </extensions>
      </trkpt>
      <trkpt lat="42.516019977629184722900390625" lon="20.01047040335834026336669921875">
        <ele>1911.5999755859375</ele>
        <time>2026-06-19T09:53:06.000Z</time>
        <extensions>
          <ns3:TrackPointExtension>
            <ns3:atemp>22.0</ns3:atemp>
          </ns3:TrackPointExtension>
        </extensions>
      </trkpt>
      <trkpt lat="42.516019977629184722900390625" lon="20.01047040335834026336669921875">
        <ele>1911.5999755859375</ele>
        <time>2026-06-19T09:53:07.000Z</time>
        <extensions>
          <ns3:TrackPointExtension>
            <ns3:atemp>22.0</ns3:atemp>
          </ns3:TrackPointExtension>
        </extensions>
      </trkpt>
      <trkpt lat="42.516019977629184722900390625" lon="20.01047040335834026336669921875">
        <ele>1911.5999755859375</ele>
        <time>2026-06-19T09:53:08.000Z</time>
        <extensions>
          <ns3:TrackPointExtension>
            <ns3:atemp>22.0</ns3:atemp>
          </ns3:TrackPointExtension>
        </extensions>
      </trkpt>
      <trkpt lat="42.516019977629184722900390625" lon="20.01047040335834026336669921875">
        <ele>1911.5999755859375</ele>
        <time>2026-06-19T09:53:09.000Z</time>
        <extensions>
          <ns3:TrackPointExtension>
            <ns3:atemp>22.0</ns3:atemp>
          </ns3:TrackPointExtension>
        </extensions>
      </trkpt>
      <trkpt lat="42.516019977629184722900390625" lon="20.01047040335834026336669921875">
        <ele>1911.5999755859375</ele>
        <time>2026-06-19T09:53:10.000Z</time>
        <extensions>
          <ns3:TrackPointExtension>
            <ns3:atemp>22.0</ns3:atemp>
          </ns3:TrackPointExtension>
        </extensions>
      </trkpt>
      <trkpt lat="42.516019977629184722900390625" lon="20.01047040335834026336669921875">
        <ele>1911.5999755859375</ele>
        <time>2026-06-19T09:53:11.000Z</time>
        <extensions>
          <ns3:TrackPointExtension>
            <ns3:atemp>22.0</ns3:atemp>
          </ns3:TrackPointExtension>
        </extensions>
      </trkpt>
      <trkpt lat="42.516019977629184722900390625" lon="20.01047040335834026336669921875">
        <ele>1911.5999755859375</ele>
        <time>2026-06-19T09:53:12.000Z</time>
        <extensions>
          <ns3:TrackPointExtension>
            <ns3:atemp>22.0</ns3:atemp>
          </ns3:TrackPointExtension>
        </extensions>
      </trkpt>
      <trkpt lat="42.516019977629184722900390625" lon="20.01047040335834026336669921875">
        <ele>1911.5999755859375</ele>
        <time>2026-06-19T09:53:13.000Z</time>
        <extensions>
          <ns3:TrackPointExtension>
            <ns3:atemp>22.0</ns3:atemp>
          </ns3:TrackPointExtension>
        </extensions>
      </trkpt>
      <trkpt lat="42.516019977629184722900390625" lon="20.01047040335834026336669921875">
        <ele>1911.5999755859375</ele>
        <time>2026-06-19T09:53:14.000Z</time>
        <extensions>
          <ns3:TrackPointExtension>
            <ns3:atemp>22.0</ns3:atemp>
          </ns3:TrackPointExtension>
        </extensions>
      </trkpt>
      <trkpt lat="42.516019977629184722900390625" lon="20.01047040335834026336669921875">
        <ele>1911.5999755859375</ele>
        <time>2026-06-19T09:53:15.000Z</time>
        <extensions>
          <ns3:TrackPointExtension>
            <ns3:atemp>22.0</ns3:atemp>
          </ns3:TrackPointExtension>
        </extensions>
      </trkpt>
      <trkpt lat="42.516019977629184722900390625" lon="20.01047040335834026336669921875">
        <ele>1911.5999755859375</ele>
        <time>2026-06-19T09:53:16.000Z</time>
        <extensions>
          <ns3:TrackPointExtension>
            <ns3:atemp>22.0</ns3:atemp>
          </ns3:TrackPointExtension>
        </extensions>
      </trkpt>
      <trkpt lat="42.516019977629184722900390625" lon="20.01047040335834026336669921875">
        <ele>1911.5999755859375</ele>
        <time>2026-06-19T09:53:17.000Z</time>
        <extensions>
          <ns3:TrackPointExtension>
            <ns3:atemp>22.0</ns3:atemp>
          </ns3:TrackPointExtension>
        </extensions>
      </trkpt>
      <trkpt lat="42.516019977629184722900390625" lon="20.01047040335834026336669921875">
        <ele>1911.5999755859375</ele>
        <time>2026-06-19T09:53:18.000Z</time>
        <extensions>
          <ns3:TrackPointExtension>
            <ns3:atemp>22.0</ns3:atemp>
          </ns3:TrackPointExtension>
        </extensions>
      </trkpt>
      <trkpt lat="42.516019977629184722900390625" lon="20.01047040335834026336669921875">
        <ele>1911.5999755859375</ele>
        <time>2026-06-19T09:53:19.000Z</time>
        <extensions>
          <ns3:TrackPointExtension>
            <ns3:atemp>22.0</ns3:atemp>
          </ns3:TrackPointExtension>
        </extensions>
      </trkpt>
      <trkpt lat="42.516019977629184722900390625" lon="20.01047040335834026336669921875">
        <ele>1911.5999755859375</ele>
        <time>2026-06-19T09:53:20.000Z</time>
        <extensions>
          <ns3:TrackPointExtension>
            <ns3:atemp>22.0</ns3:atemp>
          </ns3:TrackPointExtension>
        </extensions>
      </trkpt>
      <trkpt lat="42.516019977629184722900390625" lon="20.01047040335834026336669921875">
        <ele>1911.5999755859375</ele>
        <time>2026-06-19T09:53:21.000Z</time>
        <extensions>
          <ns3:TrackPointExtension>
            <ns3:atemp>22.0</ns3:atemp>
          </ns3:TrackPointExtension>
        </extensions>
      </trkpt>
      <trkpt lat="42.516019977629184722900390625" lon="20.01047040335834026336669921875">
        <ele>1911.5999755859375</ele>
        <time>2026-06-19T09:53:22.000Z</time>
        <extensions>
          <ns3:TrackPointExtension>
            <ns3:atemp>22.0</ns3:atemp>
          </ns3:TrackPointExtension>
        </extensions>
      </trkpt>
      <trkpt lat="42.516019977629184722900390625" lon="20.01047040335834026336669921875">
        <ele>1911.5999755859375</ele>
        <time>2026-06-19T09:53:23.000Z</time>
        <extensions>
          <ns3:TrackPointExtension>
            <ns3:atemp>22.0</ns3:atemp>
          </ns3:TrackPointExtension>
        </extensions>
      </trkpt>
      <trkpt lat="42.516019977629184722900390625" lon="20.01047040335834026336669921875">
        <ele>1911.5999755859375</ele>
        <time>2026-06-19T09:53:24.000Z</time>
        <extensions>
          <ns3:TrackPointExtension>
            <ns3:atemp>22.0</ns3:atemp>
          </ns3:TrackPointExtension>
        </extensions>
      </trkpt>
      <trkpt lat="42.516019977629184722900390625" lon="20.01047040335834026336669921875">
        <ele>1911.5999755859375</ele>
        <time>2026-06-19T09:53:25.000Z</time>
        <extensions>
          <ns3:TrackPointExtension>
            <ns3:atemp>22.0</ns3:atemp>
          </ns3:TrackPointExtension>
        </extensions>
      </trkpt>
      <trkpt lat="42.516019977629184722900390625" lon="20.01047040335834026336669921875">
        <ele>1911.5999755859375</ele>
        <time>2026-06-19T09:53:26.000Z</time>
        <extensions>
          <ns3:TrackPointExtension>
            <ns3:atemp>22.0</ns3:atemp>
          </ns3:TrackPointExtension>
        </extensions>
      </trkpt>
      <trkpt lat="42.516019977629184722900390625" lon="20.01047040335834026336669921875">
        <ele>1911.5999755859375</ele>
        <time>2026-06-19T09:53:27.000Z</time>
        <extensions>
          <ns3:TrackPointExtension>
            <ns3:atemp>22.0</ns3:atemp>
          </ns3:TrackPointExtension>
        </extensions>
      </trkpt>
      <trkpt lat="42.516019977629184722900390625" lon="20.01047040335834026336669921875">
        <ele>1911.5999755859375</ele>
        <time>2026-06-19T09:53:28.000Z</time>
        <extensions>
          <ns3:TrackPointExtension>
            <ns3:atemp>22.0</ns3:atemp>
          </ns3:TrackPointExtension>
        </extensions>
      </trkpt>
      <trkpt lat="42.516019977629184722900390625" lon="20.01047040335834026336669921875">
        <ele>1911.5999755859375</ele>
        <time>2026-06-19T09:53:29.000Z</time>
        <extensions>
          <ns3:TrackPointExtension>
            <ns3:atemp>22.0</ns3:atemp>
          </ns3:TrackPointExtension>
        </extensions>
      </trkpt>
      <trkpt lat="42.516019977629184722900390625" lon="20.01047040335834026336669921875">
        <ele>1911.5999755859375</ele>
        <time>2026-06-19T09:53:30.000Z</time>
        <extensions>
          <ns3:TrackPointExtension>
            <ns3:atemp>22.0</ns3:atemp>
          </ns3:TrackPointExtension>
        </extensions>
      </trkpt>
      <trkpt lat="42.516019977629184722900390625" lon="20.01047040335834026336669921875">
        <ele>1911.5999755859375</ele>
        <time>2026-06-19T09:53:31.000Z</time>
        <extensions>
          <ns3:TrackPointExtension>
            <ns3:atemp>22.0</ns3:atemp>
          </ns3:TrackPointExtension>
        </extensions>
      </trkpt>
      <trkpt lat="42.516019977629184722900390625" lon="20.01047040335834026336669921875">
        <ele>1911.5999755859375</ele>
        <time>2026-06-19T09:53:32.000Z</time>
        <extensions>
          <ns3:TrackPointExtension>
            <ns3:atemp>22.0</ns3:atemp>
          </ns3:TrackPointExtension>
        </extensions>
      </trkpt>
      <trkpt lat="42.516019977629184722900390625" lon="20.01047040335834026336669921875">
        <ele>1911.5999755859375</ele>
        <time>2026-06-19T09:53:33.000Z</time>
        <extensions>
          <ns3:TrackPointExtension>
            <ns3:atemp>22.0</ns3:atemp>
          </ns3:TrackPointExtension>
        </extensions>
      </trkpt>
      <trkpt lat="42.516019977629184722900390625" lon="20.01047040335834026336669921875">
        <ele>1911.5999755859375</ele>
        <time>2026-06-19T09:53:34.000Z</time>
        <extensions>
          <ns3:TrackPointExtension>
            <ns3:atemp>22.0</ns3:atemp>
          </ns3:TrackPointExtension>
        </extensions>
      </trkpt>
      <trkpt lat="42.516019977629184722900390625" lon="20.01047040335834026336669921875">
        <ele>1911.5999755859375</ele>
        <time>2026-06-19T09:53:35.000Z</time>
        <extensions>
          <ns3:TrackPointExtension>
            <ns3:atemp>22.0</ns3:atemp>
          </ns3:TrackPointExtension>
        </extensions>
      </trkpt>
      <trkpt lat="42.516019977629184722900390625" lon="20.01047040335834026336669921875">
        <ele>1911.5999755859375</ele>
        <time>2026-06-19T09:53:36.000Z</time>
        <extensions>
          <ns3:TrackPointExtension>
            <ns3:atemp>22.0</ns3:atemp>
          </ns3:TrackPointExtension>
        </extensions>
      </trkpt>
      <trkpt lat="42.516019977629184722900390625" lon="20.01047040335834026336669921875">
        <ele>1911.5999755859375</ele>
        <time>2026-06-19T09:53:37.000Z</time>
        <extensions>
          <ns3:TrackPointExtension>
            <ns3:atemp>22.0</ns3:atemp>
          </ns3:TrackPointExtension>
        </extensions>
      </trkpt>
      <trkpt lat="42.516019977629184722900390625" lon="20.01047040335834026336669921875">
        <ele>1911.5999755859375</ele>
        <time>2026-06-19T09:53:38.000Z</time>
        <extensions>
          <ns3:TrackPointExtension>
            <ns3:atemp>22.0</ns3:atemp>
          </ns3:TrackPointExtension>
        </extensions>
      </trkpt>
      <trkpt lat="42.516019977629184722900390625" lon="20.01047040335834026336669921875">
        <ele>1911.5999755859375</ele>
        <time>2026-06-19T09:53:39.000Z</time>
        <extensions>
          <ns3:TrackPointExtension>
            <ns3:atemp>22.0</ns3:atemp>
          </ns3:TrackPointExtension>
        </extensions>
      </trkpt>
      <trkpt lat="42.516019977629184722900390625" lon="20.01047040335834026336669921875">
        <ele>1911.5999755859375</ele>
        <time>2026-06-19T09:53:40.000Z</time>
        <extensions>
          <ns3:TrackPointExtension>
            <ns3:atemp>22.0</ns3:atemp>
          </ns3:TrackPointExtension>
        </extensions>
      </trkpt>
      <trkpt lat="42.516019977629184722900390625" lon="20.01047040335834026336669921875">
        <ele>1911.5999755859375</ele>
        <time>2026-06-19T09:53:41.000Z</time>
        <extensions>
          <ns3:TrackPointExtension>
            <ns3:atemp>22.0</ns3:atemp>
          </ns3:TrackPointExtension>
        </extensions>
      </trkpt>
      <trkpt lat="42.516019977629184722900390625" lon="20.01047040335834026336669921875">
        <ele>1911.5999755859375</ele>
        <time>2026-06-19T09:53:42.000Z</time>
        <extensions>
          <ns3:TrackPointExtension>
            <ns3:atemp>22.0</ns3:atemp>
          </ns3:TrackPointExtension>
        </extensions>
      </trkpt>
      <trkpt lat="42.516019977629184722900390625" lon="20.01047040335834026336669921875">
        <ele>1911.5999755859375</ele>
        <time>2026-06-19T09:53:43.000Z</time>
        <extensions>
          <ns3:TrackPointExtension>
            <ns3:atemp>22.0</ns3:atemp>
          </ns3:TrackPointExtension>
        </extensions>
      </trkpt>
      <trkpt lat="42.516019977629184722900390625" lon="20.01047040335834026336669921875">
        <ele>1911.5999755859375</ele>
        <time>2026-06-19T09:53:44.000Z</time>
        <extensions>
          <ns3:TrackPointExtension>
            <ns3:atemp>22.0</ns3:atemp>
          </ns3:TrackPointExtension>
        </extensions>
      </trkpt>
      <trkpt lat="42.516019977629184722900390625" lon="20.01047040335834026336669921875">
        <ele>1911.5999755859375</ele>
        <time>2026-06-19T09:53:45.000Z</time>
        <extensions>
          <ns3:TrackPointExtension>
            <ns3:atemp>22.0</ns3:atemp>
          </ns3:TrackPointExtension>
        </extensions>
      </trkpt>
      <trkpt lat="42.516019977629184722900390625" lon="20.01047040335834026336669921875">
        <ele>1911.5999755859375</ele>
        <time>2026-06-19T09:53:46.000Z</time>
        <extensions>
          <ns3:TrackPointExtension>
            <ns3:atemp>22.0</ns3:atemp>
          </ns3:TrackPointExtension>
        </extensions>
      </trkpt>
      <trkpt lat="42.516019977629184722900390625" lon="20.01047040335834026336669921875">
        <ele>1911.5999755859375</ele>
        <time>2026-06-19T09:53:47.000Z</time>
        <extensions>
          <ns3:TrackPointExtension>
            <ns3:atemp>22.0</ns3:atemp>
          </ns3:TrackPointExtension>
        </extensions>
      </trkpt>
      <trkpt lat="42.516019977629184722900390625" lon="20.01047040335834026336669921875">
        <ele>1911.5999755859375</ele>
        <time>2026-06-19T09:53:48.000Z</time>
        <extensions>
          <ns3:TrackPointExtension>
            <ns3:atemp>22.0</ns3:atemp>
          </ns3:TrackPointExtension>
        </extensions>
      </trkpt>
      <trkpt lat="42.516019977629184722900390625" lon="20.01047040335834026336669921875">
        <ele>1911.5999755859375</ele>
        <time>2026-06-19T09:53:49.000Z</time>
        <extensions>
          <ns3:TrackPointExtension>
            <ns3:atemp>22.0</ns3:atemp>
          </ns3:TrackPointExtension>
        </extensions>
      </trkpt>
      <trkpt lat="42.516019977629184722900390625" lon="20.01047040335834026336669921875">
        <ele>1911.5999755859375</ele>
        <time>2026-06-19T09:53:50.000Z</time>
        <extensions>
          <ns3:TrackPointExtension>
            <ns3:atemp>22.0</ns3:atemp>
          </ns3:TrackPointExtension>
        </extensions>
      </trkpt>
      <trkpt lat="42.516019977629184722900390625" lon="20.01047040335834026336669921875">
        <ele>1911.5999755859375</ele>
        <time>2026-06-19T09:53:51.000Z</time>
        <extensions>
          <ns3:TrackPointExtension>
            <ns3:atemp>22.0</ns3:atemp>
          </ns3:TrackPointExtension>
        </extensions>
      </trkpt>
      <trkpt lat="42.516019977629184722900390625" lon="20.01047040335834026336669921875">
        <ele>1911.5999755859375</ele>
        <time>2026-06-19T09:53:52.000Z</time>
        <extensions>
          <ns3:TrackPointExtension>
            <ns3:atemp>22.0</ns3:atemp>
          </ns3:TrackPointExtension>
        </extensions>
      </trkpt>
      <trkpt lat="42.516019977629184722900390625" lon="20.01047040335834026336669921875">
        <ele>1911.5999755859375</ele>
        <time>2026-06-19T09:53:53.000Z</time>
        <extensions>
          <ns3:TrackPointExtension>
            <ns3:atemp>22.0</ns3:atemp>
          </ns3:TrackPointExtension>
        </extensions>
      </trkpt>
      <trkpt lat="42.516019977629184722900390625" lon="20.01047040335834026336669921875">
        <ele>1911.5999755859375</ele>
        <time>2026-06-19T09:53:54.000Z</time>
        <extensions>
          <ns3:TrackPointExtension>
            <ns3:atemp>22.0</ns3:atemp>
          </ns3:TrackPointExtension>
        </extensions>
      </trkpt>
      <trkpt lat="42.516019977629184722900390625" lon="20.01047040335834026336669921875">
        <ele>1911.5999755859375</ele>
        <time>2026-06-19T09:53:55.000Z</time>
        <extensions>
          <ns3:TrackPointExtension>
            <ns3:atemp>22.0</ns3:atemp>
          </ns3:TrackPointExtension>
        </extensions>
      </trkpt>
      <trkpt lat="42.516019977629184722900390625" lon="20.01047040335834026336669921875">
        <ele>1911.5999755859375</ele>
        <time>2026-06-19T09:53:56.000Z</time>
        <extensions>
          <ns3:TrackPointExtension>
            <ns3:atemp>22.0</ns3:atemp>
          </ns3:TrackPointExtension>
        </extensions>
      </trkpt>
      <trkpt lat="42.516019977629184722900390625" lon="20.01047040335834026336669921875">
        <ele>1911.5999755859375</ele>
        <time>2026-06-19T09:53:57.000Z</time>
        <extensions>
          <ns3:TrackPointExtension>
            <ns3:atemp>22.0</ns3:atemp>
          </ns3:TrackPointExtension>
        </extensions>
      </trkpt>
      <trkpt lat="42.516019977629184722900390625" lon="20.01047040335834026336669921875">
        <ele>1911.5999755859375</ele>
        <time>2026-06-19T09:53:58.000Z</time>
        <extensions>
          <ns3:TrackPointExtension>
            <ns3:atemp>22.0</ns3:atemp>
          </ns3:TrackPointExtension>
        </extensions>
      </trkpt>
      <trkpt lat="42.516019977629184722900390625" lon="20.01047040335834026336669921875">
        <ele>1911.5999755859375</ele>
        <time>2026-06-19T09:53:59.000Z</time>
        <extensions>
          <ns3:TrackPointExtension>
            <ns3:atemp>22.0</ns3:atemp>
          </ns3:TrackPointExtension>
        </extensions>
      </trkpt>
      <trkpt lat="42.516019977629184722900390625" lon="20.01047040335834026336669921875">
        <ele>1911.5999755859375</ele>
        <time>2026-06-19T09:54:00.000Z</time>
        <extensions>
          <ns3:TrackPointExtension>
            <ns3:atemp>22.0</ns3:atemp>
          </ns3:TrackPointExtension>
        </extensions>
      </trkpt>
      <trkpt lat="42.516019977629184722900390625" lon="20.01047040335834026336669921875">
        <ele>1911.5999755859375</ele>
        <time>2026-06-19T09:54:01.000Z</time>
        <extensions>
          <ns3:TrackPointExtension>
            <ns3:atemp>22.0</ns3:atemp>
          </ns3:TrackPointExtension>
        </extensions>
      </trkpt>
      <trkpt lat="42.516019977629184722900390625" lon="20.01047040335834026336669921875">
        <ele>1911.5999755859375</ele>
        <time>2026-06-19T09:54:02.000Z</time>
        <extensions>
          <ns3:TrackPointExtension>
            <ns3:atemp>22.0</ns3:atemp>
          </ns3:TrackPointExtension>
        </extensions>
      </trkpt>
      <trkpt lat="42.516019977629184722900390625" lon="20.01047040335834026336669921875">
        <ele>1911.5999755859375</ele>
        <time>2026-06-19T09:54:03.000Z</time>
        <extensions>
          <ns3:TrackPointExtension>
            <ns3:atemp>22.0</ns3:atemp>
          </ns3:TrackPointExtension>
        </extensions>
      </trkpt>
      <trkpt lat="42.516019977629184722900390625" lon="20.01047040335834026336669921875">
        <ele>1911.5999755859375</ele>
        <time>2026-06-19T09:54:04.000Z</time>
        <extensions>
          <ns3:TrackPointExtension>
            <ns3:atemp>22.0</ns3:atemp>
          </ns3:TrackPointExtension>
        </extensions>
      </trkpt>
      <trkpt lat="42.516019977629184722900390625" lon="20.01047040335834026336669921875">
        <ele>1911.5999755859375</ele>
        <time>2026-06-19T09:54:05.000Z</time>
        <extensions>
          <ns3:TrackPointExtension>
            <ns3:atemp>22.0</ns3:atemp>
          </ns3:TrackPointExtension>
        </extensions>
      </trkpt>
      <trkpt lat="42.516019977629184722900390625" lon="20.01047040335834026336669921875">
        <ele>1911.5999755859375</ele>
        <time>2026-06-19T09:54:06.000Z</time>
        <extensions>
          <ns3:TrackPointExtension>
            <ns3:atemp>22.0</ns3:atemp>
          </ns3:TrackPointExtension>
        </extensions>
      </trkpt>
      <trkpt lat="42.516019977629184722900390625" lon="20.01047040335834026336669921875">
        <ele>1911.5999755859375</ele>
        <time>2026-06-19T09:54:07.000Z</time>
        <extensions>
          <ns3:TrackPointExtension>
            <ns3:atemp>22.0</ns3:atemp>
          </ns3:TrackPointExtension>
        </extensions>
      </trkpt>
      <trkpt lat="42.516019977629184722900390625" lon="20.01047040335834026336669921875">
        <ele>1911.5999755859375</ele>
        <time>2026-06-19T09:54:08.000Z</time>
        <extensions>
          <ns3:TrackPointExtension>
            <ns3:atemp>22.0</ns3:atemp>
          </ns3:TrackPointExtension>
        </extensions>
      </trkpt>
      <trkpt lat="42.516019977629184722900390625" lon="20.01047040335834026336669921875">
        <ele>1911.5999755859375</ele>
        <time>2026-06-19T09:54:09.000Z</time>
        <extensions>
          <ns3:TrackPointExtension>
            <ns3:atemp>22.0</ns3:atemp>
          </ns3:TrackPointExtension>
        </extensions>
      </trkpt>
      <trkpt lat="42.516019977629184722900390625" lon="20.01047040335834026336669921875">
        <ele>1911.5999755859375</ele>
        <time>2026-06-19T09:54:10.000Z</time>
        <extensions>
          <ns3:TrackPointExtension>
            <ns3:atemp>22.0</ns3:atemp>
          </ns3:TrackPointExtension>
        </extensions>
      </trkpt>
      <trkpt lat="42.516019977629184722900390625" lon="20.01047040335834026336669921875">
        <ele>1911.5999755859375</ele>
        <time>2026-06-19T09:54:11.000Z</time>
        <extensions>
          <ns3:TrackPointExtension>
            <ns3:atemp>22.0</ns3:atemp>
          </ns3:TrackPointExtension>
        </extensions>
      </trkpt>
      <trkpt lat="42.516019977629184722900390625" lon="20.01047040335834026336669921875">
        <ele>1911.5999755859375</ele>
        <time>2026-06-19T09:54:12.000Z</time>
        <extensions>
          <ns3:TrackPointExtension>
            <ns3:atemp>22.0</ns3:atemp>
          </ns3:TrackPointExtension>
        </extensions>
      </trkpt>
      <trkpt lat="42.516019977629184722900390625" lon="20.01047040335834026336669921875">
        <ele>1911.5999755859375</ele>
        <time>2026-06-19T09:54:13.000Z</time>
        <extensions>
          <ns3:TrackPointExtension>
            <ns3:atemp>22.0</ns3:atemp>
          </ns3:TrackPointExtension>
        </extensions>
      </trkpt>
      <trkpt lat="42.516019977629184722900390625" lon="20.01047040335834026336669921875">
        <ele>1911.5999755859375</ele>
        <time>2026-06-19T09:54:14.000Z</time>
        <extensions>
          <ns3:TrackPointExtension>
            <ns3:atemp>22.0</ns3:atemp>
          </ns3:TrackPointExtension>
        </extensions>
      </trkpt>
      <trkpt lat="42.516019977629184722900390625" lon="20.01047040335834026336669921875">
        <ele>1911.5999755859375</ele>
        <time>2026-06-19T09:54:15.000Z</time>
        <extensions>
          <ns3:TrackPointExtension>
            <ns3:atemp>22.0</ns3:atemp>
          </ns3:TrackPointExtension>
        </extensions>
      </trkpt>
      <trkpt lat="42.516019977629184722900390625" lon="20.01047040335834026336669921875">
        <ele>1911.5999755859375</ele>
        <time>2026-06-19T09:54:16.000Z</time>
        <extensions>
          <ns3:TrackPointExtension>
            <ns3:atemp>22.0</ns3:atemp>
          </ns3:TrackPointExtension>
        </extensions>
      </trkpt>
      <trkpt lat="42.516019977629184722900390625" lon="20.01047040335834026336669921875">
        <ele>1911.5999755859375</ele>
        <time>2026-06-19T09:54:17.000Z</time>
        <extensions>
          <ns3:TrackPointExtension>
            <ns3:atemp>22.0</ns3:atemp>
          </ns3:TrackPointExtension>
        </extensions>
      </trkpt>
      <trkpt lat="42.516019977629184722900390625" lon="20.01047040335834026336669921875">
        <ele>1911.5999755859375</ele>
        <time>2026-06-19T09:54:18.000Z</time>
        <extensions>
          <ns3:TrackPointExtension>
            <ns3:atemp>22.0</ns3:atemp>
          </ns3:TrackPointExtension>
        </extensions>
      </trkpt>
      <trkpt lat="42.516019977629184722900390625" lon="20.01047040335834026336669921875">
        <ele>1911.5999755859375</ele>
        <time>2026-06-19T09:54:19.000Z</time>
        <extensions>
          <ns3:TrackPointExtension>
            <ns3:atemp>22.0</ns3:atemp>
          </ns3:TrackPointExtension>
        </extensions>
      </trkpt>
      <trkpt lat="42.516019977629184722900390625" lon="20.01047040335834026336669921875">
        <ele>1911.5999755859375</ele>
        <time>2026-06-19T09:54:20.000Z</time>
        <extensions>
          <ns3:TrackPointExtension>
            <ns3:atemp>22.0</ns3:atemp>
          </ns3:TrackPointExtension>
        </extensions>
      </trkpt>
      <trkpt lat="42.516019977629184722900390625" lon="20.01047040335834026336669921875">
        <ele>1911.5999755859375</ele>
        <time>2026-06-19T09:54:21.000Z</time>
        <extensions>
          <ns3:TrackPointExtension>
            <ns3:atemp>22.0</ns3:atemp>
          </ns3:TrackPointExtension>
        </extensions>
      </trkpt>
      <trkpt lat="42.516019977629184722900390625" lon="20.01047040335834026336669921875">
        <ele>1911.5999755859375</ele>
        <time>2026-06-19T09:54:22.000Z</time>
        <extensions>
          <ns3:TrackPointExtension>
            <ns3:atemp>22.0</ns3:atemp>
          </ns3:TrackPointExtension>
        </extensions>
      </trkpt>
      <trkpt lat="42.516019977629184722900390625" lon="20.01047040335834026336669921875">
        <ele>1911.5999755859375</ele>
        <time>2026-06-19T09:54:23.000Z</time>
        <extensions>
          <ns3:TrackPointExtension>
            <ns3:atemp>22.0</ns3:atemp>
          </ns3:TrackPointExtension>
        </extensions>
      </trkpt>
      <trkpt lat="42.516019977629184722900390625" lon="20.01047040335834026336669921875">
        <ele>1911.5999755859375</ele>
        <time>2026-06-19T09:54:24.000Z</time>
        <extensions>
          <ns3:TrackPointExtension>
            <ns3:atemp>22.0</ns3:atemp>
          </ns3:TrackPointExtension>
        </extensions>
      </trkpt>
      <trkpt lat="42.516019977629184722900390625" lon="20.01047040335834026336669921875">
        <ele>1911.5999755859375</ele>
        <time>2026-06-19T09:54:25.000Z</time>
        <extensions>
          <ns3:TrackPointExtension>
            <ns3:atemp>22.0</ns3:atemp>
          </ns3:TrackPointExtension>
        </extensions>
      </trkpt>
      <trkpt lat="42.516019977629184722900390625" lon="20.01047040335834026336669921875">
        <ele>1911.5999755859375</ele>
        <time>2026-06-19T09:54:26.000Z</time>
        <extensions>
          <ns3:TrackPointExtension>
            <ns3:atemp>22.0</ns3:atemp>
          </ns3:TrackPointExtension>
        </extensions>
      </trkpt>
      <trkpt lat="42.516019977629184722900390625" lon="20.01047040335834026336669921875">
        <ele>1911.5999755859375</ele>
        <time>2026-06-19T09:54:27.000Z</time>
        <extensions>
          <ns3:TrackPointExtension>
            <ns3:atemp>22.0</ns3:atemp>
          </ns3:TrackPointExtension>
        </extensions>
      </trkpt>
      <trkpt lat="42.516019977629184722900390625" lon="20.01047040335834026336669921875">
        <ele>1911.5999755859375</ele>
        <time>2026-06-19T09:54:28.000Z</time>
        <extensions>
          <ns3:TrackPointExtension>
            <ns3:atemp>22.0</ns3:atemp>
          </ns3:TrackPointExtension>
        </extensions>
      </trkpt>
      <trkpt lat="42.516019977629184722900390625" lon="20.01047040335834026336669921875">
        <ele>1911.5999755859375</ele>
        <time>2026-06-19T09:54:29.000Z</time>
        <extensions>
          <ns3:TrackPointExtension>
            <ns3:atemp>22.0</ns3:atemp>
          </ns3:TrackPointExtension>
        </extensions>
      </trkpt>
      <trkpt lat="42.516019977629184722900390625" lon="20.01047040335834026336669921875">
        <ele>1911.5999755859375</ele>
        <time>2026-06-19T09:54:30.000Z</time>
        <extensions>
          <ns3:TrackPointExtension>
            <ns3:atemp>22.0</ns3:atemp>
          </ns3:TrackPointExtension>
        </extensions>
      </trkpt>
      <trkpt lat="42.516019977629184722900390625" lon="20.01047040335834026336669921875">
        <ele>1911.5999755859375</ele>
        <time>2026-06-19T09:54:31.000Z</time>
        <extensions>
          <ns3:TrackPointExtension>
            <ns3:atemp>22.0</ns3:atemp>
          </ns3:TrackPointExtension>
        </extensions>
      </trkpt>
      <trkpt lat="42.516019977629184722900390625" lon="20.01047040335834026336669921875">
        <ele>1911.5999755859375</ele>
        <time>2026-06-19T09:54:32.000Z</time>
        <extensions>
          <ns3:TrackPointExtension>
            <ns3:atemp>22.0</ns3:atemp>
          </ns3:TrackPointExtension>
        </extensions>
      </trkpt>
      <trkpt lat="42.516019977629184722900390625" lon="20.01047040335834026336669921875">
        <ele>1911.5999755859375</ele>
        <time>2026-06-19T09:54:33.000Z</time>
        <extensions>
          <ns3:TrackPointExtension>
            <ns3:atemp>22.0</ns3:atemp>
          </ns3:TrackPointExtension>
        </extensions>
      </trkpt>
      <trkpt lat="42.516019977629184722900390625" lon="20.01047040335834026336669921875">
        <ele>1911.5999755859375</ele>
        <time>2026-06-19T09:54:34.000Z</time>
        <extensions>
          <ns3:TrackPointExtension>
            <ns3:atemp>22.0</ns3:atemp>
          </ns3:TrackPointExtension>
        </extensions>
      </trkpt>
      <trkpt lat="42.516019977629184722900390625" lon="20.01047040335834026336669921875">
        <ele>1911.5999755859375</ele>
        <time>2026-06-19T09:54:35.000Z</time>
        <extensions>
          <ns3:TrackPointExtension>
            <ns3:atemp>22.0</ns3:atemp>
          </ns3:TrackPointExtension>
        </extensions>
      </trkpt>
      <trkpt lat="42.516019977629184722900390625" lon="20.01047040335834026336669921875">
        <ele>1911.5999755859375</ele>
        <time>2026-06-19T09:54:36.000Z</time>
        <extensions>
          <ns3:TrackPointExtension>
            <ns3:atemp>22.0</ns3:atemp>
          </ns3:TrackPointExtension>
        </extensions>
      </trkpt>
      <trkpt lat="42.516019977629184722900390625" lon="20.01047040335834026336669921875">
        <ele>1911.5999755859375</ele>
        <time>2026-06-19T09:54:37.000Z</time>
        <extensions>
          <ns3:TrackPointExtension>
            <ns3:atemp>22.0</ns3:atemp>
          </ns3:TrackPointExtension>
        </extensions>
      </trkpt>
      <trkpt lat="42.516019977629184722900390625" lon="20.01047040335834026336669921875">
        <ele>1911.5999755859375</ele>
        <time>2026-06-19T09:54:38.000Z</time>
        <extensions>
          <ns3:TrackPointExtension>
            <ns3:atemp>22.0</ns3:atemp>
          </ns3:TrackPointExtension>
        </extensions>
      </trkpt>
      <trkpt lat="42.516019977629184722900390625" lon="20.01047040335834026336669921875">
        <ele>1911.5999755859375</ele>
        <time>2026-06-19T09:54:39.000Z</time>
        <extensions>
          <ns3:TrackPointExtension>
            <ns3:atemp>22.0</ns3:atemp>
          </ns3:TrackPointExtension>
        </extensions>
      </trkpt>
      <trkpt lat="42.516019977629184722900390625" lon="20.01047040335834026336669921875">
        <ele>1911.5999755859375</ele>
        <time>2026-06-19T09:54:40.000Z</time>
        <extensions>
          <ns3:TrackPointExtension>
            <ns3:atemp>22.0</ns3:atemp>
          </ns3:TrackPointExtension>
        </extensions>
      </trkpt>
      <trkpt lat="42.516019977629184722900390625" lon="20.01047040335834026336669921875">
        <ele>1911.5999755859375</ele>
        <time>2026-06-19T09:54:41.000Z</time>
        <extensions>
          <ns3:TrackPointExtension>
            <ns3:atemp>22.0</ns3:atemp>
          </ns3:TrackPointExtension>
        </extensions>
      </trkpt>
      <trkpt lat="42.516019977629184722900390625" lon="20.01047040335834026336669921875">
        <ele>1911.5999755859375</ele>
        <time>2026-06-19T09:54:42.000Z</time>
        <extensions>
          <ns3:TrackPointExtension>
            <ns3:atemp>22.0</ns3:atemp>
          </ns3:TrackPointExtension>
        </extensions>
      </trkpt>
      <trkpt lat="42.516019977629184722900390625" lon="20.01047040335834026336669921875">
        <ele>1911.5999755859375</ele>
        <time>2026-06-19T09:54:43.000Z</time>
        <extensions>
          <ns3:TrackPointExtension>
            <ns3:atemp>22.0</ns3:atemp>
          </ns3:TrackPointExtension>
        </extensions>
      </trkpt>
      <trkpt lat="42.516019977629184722900390625" lon="20.01047040335834026336669921875">
        <ele>1911.5999755859375</ele>
        <time>2026-06-19T09:54:44.000Z</time>
        <extensions>
          <ns3:TrackPointExtension>
            <ns3:atemp>22.0</ns3:atemp>
          </ns3:TrackPointExtension>
        </extensions>
      </trkpt>
      <trkpt lat="42.516019977629184722900390625" lon="20.01047040335834026336669921875">
        <ele>1911.5999755859375</ele>
        <time>2026-06-19T09:54:45.000Z</time>
        <extensions>
          <ns3:TrackPointExtension>
            <ns3:atemp>22.0</ns3:atemp>
          </ns3:TrackPointExtension>
        </extensions>
      </trkpt>
      <trkpt lat="42.516019977629184722900390625" lon="20.01047040335834026336669921875">
        <ele>1911.5999755859375</ele>
        <time>2026-06-19T09:54:46.000Z</time>
        <extensions>
          <ns3:TrackPointExtension>
            <ns3:atemp>22.0</ns3:atemp>
          </ns3:TrackPointExtension>
        </extensions>
      </trkpt>
      <trkpt lat="42.516019977629184722900390625" lon="20.01047040335834026336669921875">
        <ele>1911.5999755859375</ele>
        <time>2026-06-19T09:54:47.000Z</time>
        <extensions>
          <ns3:TrackPointExtension>
            <ns3:atemp>22.0</ns3:atemp>
          </ns3:TrackPointExtension>
        </extensions>
      </trkpt>
      <trkpt lat="42.516019977629184722900390625" lon="20.01047040335834026336669921875">
        <ele>1911.5999755859375</ele>
        <time>2026-06-19T09:54:48.000Z</time>
        <extensions>
          <ns3:TrackPointExtension>
            <ns3:atemp>22.0</ns3:atemp>
          </ns3:TrackPointExtension>
        </extensions>
      </trkpt>
      <trkpt lat="42.516019977629184722900390625" lon="20.01047040335834026336669921875">
        <ele>1911.5999755859375</ele>
        <time>2026-06-19T09:54:49.000Z</time>
        <extensions>
          <ns3:TrackPointExtension>
            <ns3:atemp>22.0</ns3:atemp>
          </ns3:TrackPointExtension>
        </extensions>
      </trkpt>
      <trkpt lat="42.516019977629184722900390625" lon="20.01047040335834026336669921875">
        <ele>1911.5999755859375</ele>
        <time>2026-06-19T09:54:50.000Z</time>
        <extensions>
          <ns3:TrackPointExtension>
            <ns3:atemp>22.0</ns3:atemp>
          </ns3:TrackPointExtension>
        </extensions>
      </trkpt>
      <trkpt lat="42.516019977629184722900390625" lon="20.01047040335834026336669921875">
        <ele>1911.5999755859375</ele>
        <time>2026-06-19T09:54:51.000Z</time>
        <extensions>
          <ns3:TrackPointExtension>
            <ns3:atemp>22.0</ns3:atemp>
          </ns3:TrackPointExtension>
        </extensions>
      </trkpt>
      <trkpt lat="42.516019977629184722900390625" lon="20.01047040335834026336669921875">
        <ele>1911.5999755859375</ele>
        <time>2026-06-19T09:54:52.000Z</time>
        <extensions>
          <ns3:TrackPointExtension>
            <ns3:atemp>22.0</ns3:atemp>
          </ns3:TrackPointExtension>
        </extensions>
      </trkpt>
      <trkpt lat="42.516019977629184722900390625" lon="20.01047040335834026336669921875">
        <ele>1911.5999755859375</ele>
        <time>2026-06-19T09:54:53.000Z</time>
        <extensions>
          <ns3:TrackPointExtension>
            <ns3:atemp>22.0</ns3:atemp>
          </ns3:TrackPointExtension>
        </extensions>
      </trkpt>
      <trkpt lat="42.516019977629184722900390625" lon="20.01047040335834026336669921875">
        <ele>1911.5999755859375</ele>
        <time>2026-06-19T09:54:54.000Z</time>
        <extensions>
          <ns3:TrackPointExtension>
            <ns3:atemp>22.0</ns3:atemp>
          </ns3:TrackPointExtension>
        </extensions>
      </trkpt>
      <trkpt lat="42.516019977629184722900390625" lon="20.01047040335834026336669921875">
        <ele>1911.5999755859375</ele>
        <time>2026-06-19T09:54:55.000Z</time>
        <extensions>
          <ns3:TrackPointExtension>
            <ns3:atemp>22.0</ns3:atemp>
          </ns3:TrackPointExtension>
        </extensions>
      </trkpt>
      <trkpt lat="42.516019977629184722900390625" lon="20.01047040335834026336669921875">
        <ele>1911.5999755859375</ele>
        <time>2026-06-19T09:54:56.000Z</time>
        <extensions>
          <ns3:TrackPointExtension>
            <ns3:atemp>22.0</ns3:atemp>
          </ns3:TrackPointExtension>
        </extensions>
      </trkpt>
      <trkpt lat="42.516019977629184722900390625" lon="20.01047040335834026336669921875">
        <ele>1911.5999755859375</ele>
        <time>2026-06-19T09:54:57.000Z</time>
        <extensions>
          <ns3:TrackPointExtension>
            <ns3:atemp>22.0</ns3:atemp>
          </ns3:TrackPointExtension>
        </extensions>
      </trkpt>
      <trkpt lat="42.516019977629184722900390625" lon="20.01047040335834026336669921875">
        <ele>1911.5999755859375</ele>
        <time>2026-06-19T09:54:58.000Z</time>
        <extensions>
          <ns3:TrackPointExtension>
            <ns3:atemp>22.0</ns3:atemp>
          </ns3:TrackPointExtension>
        </extensions>
      </trkpt>
      <trkpt lat="42.516019977629184722900390625" lon="20.01047040335834026336669921875">
        <ele>1911.5999755859375</ele>
        <time>2026-06-19T09:54:59.000Z</time>
        <extensions>
          <ns3:TrackPointExtension>
            <ns3:atemp>22.0</ns3:atemp>
          </ns3:TrackPointExtension>
        </extensions>
      </trkpt>
      <trkpt lat="42.516019977629184722900390625" lon="20.01047040335834026336669921875">
        <ele>1911.5999755859375</ele>
        <time>2026-06-19T09:55:00.000Z</time>
        <extensions>
          <ns3:TrackPointExtension>
            <ns3:atemp>22.0</ns3:atemp>
          </ns3:TrackPointExtension>
        </extensions>
      </trkpt>
      <trkpt lat="42.516019977629184722900390625" lon="20.01047040335834026336669921875">
        <ele>1911.5999755859375</ele>
        <time>2026-06-19T09:55:01.000Z</time>
        <extensions>
          <ns3:TrackPointExtension>
            <ns3:atemp>22.0</ns3:atemp>
          </ns3:TrackPointExtension>
        </extensions>
      </trkpt>
      <trkpt lat="42.516019977629184722900390625" lon="20.01047040335834026336669921875">
        <ele>1911.5999755859375</ele>
        <time>2026-06-19T09:55:02.000Z</time>
        <extensions>
          <ns3:TrackPointExtension>
            <ns3:atemp>22.0</ns3:atemp>
          </ns3:TrackPointExtension>
        </extensions>
      </trkpt>
      <trkpt lat="42.516019977629184722900390625" lon="20.01047040335834026336669921875">
        <ele>1911.5999755859375</ele>
        <time>2026-06-19T09:55:03.000Z</time>
        <extensions>
          <ns3:TrackPointExtension>
            <ns3:atemp>22.0</ns3:atemp>
          </ns3:TrackPointExtension>
        </extensions>
      </trkpt>
      <trkpt lat="42.516019977629184722900390625" lon="20.01047040335834026336669921875">
        <ele>1911.5999755859375</ele>
        <time>2026-06-19T09:55:04.000Z</time>
        <extensions>
          <ns3:TrackPointExtension>
            <ns3:atemp>22.0</ns3:atemp>
          </ns3:TrackPointExtension>
        </extensions>
      </trkpt>
      <trkpt lat="42.516019977629184722900390625" lon="20.01047040335834026336669921875">
        <ele>1911.5999755859375</ele>
        <time>2026-06-19T09:55:05.000Z</time>
        <extensions>
          <ns3:TrackPointExtension>
            <ns3:atemp>22.0</ns3:atemp>
          </ns3:TrackPointExtension>
        </extensions>
      </trkpt>
      <trkpt lat="42.516019977629184722900390625" lon="20.01047040335834026336669921875">
        <ele>1911.5999755859375</ele>
        <time>2026-06-19T09:55:06.000Z</time>
        <extensions>
          <ns3:TrackPointExtension>
            <ns3:atemp>22.0</ns3:atemp>
          </ns3:TrackPointExtension>
        </extensions>
      </trkpt>
      <trkpt lat="42.516019977629184722900390625" lon="20.01047040335834026336669921875">
        <ele>1911.5999755859375</ele>
        <time>2026-06-19T09:55:07.000Z</time>
        <extensions>
          <ns3:TrackPointExtension>
            <ns3:atemp>22.0</ns3:atemp>
          </ns3:TrackPointExtension>
        </extensions>
      </trkpt>
      <trkpt lat="42.516019977629184722900390625" lon="20.01047040335834026336669921875">
        <ele>1911.5999755859375</ele>
        <time>2026-06-19T09:55:08.000Z</time>
        <extensions>
          <ns3:TrackPointExtension>
            <ns3:atemp>22.0</ns3:atemp>
          </ns3:TrackPointExtension>
        </extensions>
      </trkpt>
      <trkpt lat="42.516019977629184722900390625" lon="20.01047040335834026336669921875">
        <ele>1911.5999755859375</ele>
        <time>2026-06-19T09:55:09.000Z</time>
        <extensions>
          <ns3:TrackPointExtension>
            <ns3:atemp>22.0</ns3:atemp>
          </ns3:TrackPointExtension>
        </extensions>
      </trkpt>
      <trkpt lat="42.516019977629184722900390625" lon="20.01047040335834026336669921875">
        <ele>1911.5999755859375</ele>
        <time>2026-06-19T09:55:10.000Z</time>
        <extensions>
          <ns3:TrackPointExtension>
            <ns3:atemp>22.0</ns3:atemp>
          </ns3:TrackPointExtension>
        </extensions>
      </trkpt>
      <trkpt lat="42.516019977629184722900390625" lon="20.01047040335834026336669921875">
        <ele>1911.5999755859375</ele>
        <time>2026-06-19T09:55:11.000Z</time>
        <extensions>
          <ns3:TrackPointExtension>
            <ns3:atemp>22.0</ns3:atemp>
          </ns3:TrackPointExtension>
        </extensions>
      </trkpt>
      <trkpt lat="42.516019977629184722900390625" lon="20.01047040335834026336669921875">
        <ele>1911.5999755859375</ele>
        <time>2026-06-19T09:55:12.000Z</time>
        <extensions>
          <ns3:TrackPointExtension>
            <ns3:atemp>22.0</ns3:atemp>
          </ns3:TrackPointExtension>
        </extensions>
      </trkpt>
      <trkpt lat="42.516019977629184722900390625" lon="20.01047040335834026336669921875">
        <ele>1911.5999755859375</ele>
        <time>2026-06-19T09:55:13.000Z</time>
        <extensions>
          <ns3:TrackPointExtension>
            <ns3:atemp>22.0</ns3:atemp>
          </ns3:TrackPointExtension>
        </extensions>
      </trkpt>
      <trkpt lat="42.516019977629184722900390625" lon="20.01047040335834026336669921875">
        <ele>1911.5999755859375</ele>
        <time>2026-06-19T09:55:14.000Z</time>
        <extensions>
          <ns3:TrackPointExtension>
            <ns3:atemp>22.0</ns3:atemp>
          </ns3:TrackPointExtension>
        </extensions>
      </trkpt>
      <trkpt lat="42.516019977629184722900390625" lon="20.01047040335834026336669921875">
        <ele>1911.5999755859375</ele>
        <time>2026-06-19T09:55:15.000Z</time>
        <extensions>
          <ns3:TrackPointExtension>
            <ns3:atemp>22.0</ns3:atemp>
          </ns3:TrackPointExtension>
        </extensions>
      </trkpt>
      <trkpt lat="42.516019977629184722900390625" lon="20.01047040335834026336669921875">
        <ele>1911.5999755859375</ele>
        <time>2026-06-19T09:55:16.000Z</time>
        <extensions>
          <ns3:TrackPointExtension>
            <ns3:atemp>22.0</ns3:atemp>
          </ns3:TrackPointExtension>
        </extensions>
      </trkpt>
      <trkpt lat="42.516019977629184722900390625" lon="20.01047040335834026336669921875">
        <ele>1911.5999755859375</ele>
        <time>2026-06-19T09:55:17.000Z</time>
        <extensions>
          <ns3:TrackPointExtension>
            <ns3:atemp>22.0</ns3:atemp>
          </ns3:TrackPointExtension>
        </extensions>
      </trkpt>
      <trkpt lat="42.516019977629184722900390625" lon="20.01047040335834026336669921875">
        <ele>1911.5999755859375</ele>
        <time>2026-06-19T09:55:18.000Z</time>
        <extensions>
          <ns3:TrackPointExtension>
            <ns3:atemp>22.0</ns3:atemp>
          </ns3:TrackPointExtension>
        </extensions>
      </trkpt>
      <trkpt lat="42.516019977629184722900390625" lon="20.01047040335834026336669921875">
        <ele>1911.5999755859375</ele>
        <time>2026-06-19T09:55:19.000Z</time>
        <extensions>
          <ns3:TrackPointExtension>
            <ns3:atemp>22.0</ns3:atemp>
          </ns3:TrackPointExtension>
        </extensions>
      </trkpt>
      <trkpt lat="42.516019977629184722900390625" lon="20.01047040335834026336669921875">
        <ele>1911.5999755859375</ele>
        <time>2026-06-19T09:55:20.000Z</time>
        <extensions>
          <ns3:TrackPointExtension>
            <ns3:atemp>22.0</ns3:atemp>
          </ns3:TrackPointExtension>
        </extensions>
      </trkpt>
      <trkpt lat="42.516019977629184722900390625" lon="20.01047040335834026336669921875">
        <ele>1911.5999755859375</ele>
        <time>2026-06-19T09:55:21.000Z</time>
        <extensions>
          <ns3:TrackPointExtension>
            <ns3:atemp>22.0</ns3:atemp>
          </ns3:TrackPointExtension>
        </extensions>
      </trkpt>
      <trkpt lat="42.516019977629184722900390625" lon="20.01047040335834026336669921875">
        <ele>1911.5999755859375</ele>
        <time>2026-06-19T09:55:22.000Z</time>
        <extensions>
          <ns3:TrackPointExtension>
            <ns3:atemp>22.0</ns3:atemp>
          </ns3:TrackPointExtension>
        </extensions>
      </trkpt>
      <trkpt lat="42.516019977629184722900390625" lon="20.01047040335834026336669921875">
        <ele>1911.5999755859375</ele>
        <time>2026-06-19T09:55:23.000Z</time>
        <extensions>
          <ns3:TrackPointExtension>
            <ns3:atemp>22.0</ns3:atemp>
          </ns3:TrackPointExtension>
        </extensions>
      </trkpt>
      <trkpt lat="42.516019977629184722900390625" lon="20.01047040335834026336669921875">
        <ele>1911.5999755859375</ele>
        <time>2026-06-19T09:55:24.000Z</time>
        <extensions>
          <ns3:TrackPointExtension>
            <ns3:atemp>22.0</ns3:atemp>
          </ns3:TrackPointExtension>
        </extensions>
      </trkpt>
      <trkpt lat="42.516019977629184722900390625" lon="20.01047040335834026336669921875">
        <ele>1911.5999755859375</ele>
        <time>2026-06-19T09:55:25.000Z</time>
        <extensions>
          <ns3:TrackPointExtension>
            <ns3:atemp>22.0</ns3:atemp>
          </ns3:TrackPointExtension>
        </extensions>
      </trkpt>
      <trkpt lat="42.516019977629184722900390625" lon="20.01047040335834026336669921875">
        <ele>1911.5999755859375</ele>
        <time>2026-06-19T09:55:26.000Z</time>
        <extensions>
          <ns3:TrackPointExtension>
            <ns3:atemp>22.0</ns3:atemp>
          </ns3:TrackPointExtension>
        </extensions>
      </trkpt>
      <trkpt lat="42.516019977629184722900390625" lon="20.01047040335834026336669921875">
        <ele>1911.5999755859375</ele>
        <time>2026-06-19T09:55:27.000Z</time>
        <extensions>
          <ns3:TrackPointExtension>
            <ns3:atemp>22.0</ns3:atemp>
          </ns3:TrackPointExtension>
        </extensions>
      </trkpt>
      <trkpt lat="42.516019977629184722900390625" lon="20.01047040335834026336669921875">
        <ele>1911.5999755859375</ele>
        <time>2026-06-19T09:55:28.000Z</time>
        <extensions>
          <ns3:TrackPointExtension>
            <ns3:atemp>22.0</ns3:atemp>
          </ns3:TrackPointExtension>
        </extensions>
      </trkpt>
      <trkpt lat="42.516019977629184722900390625" lon="20.01047040335834026336669921875">
        <ele>1911.5999755859375</ele>
        <time>2026-06-19T09:55:29.000Z</time>
        <extensions>
          <ns3:TrackPointExtension>
            <ns3:atemp>22.0</ns3:atemp>
          </ns3:TrackPointExtension>
        </extensions>
      </trkpt>
      <trkpt lat="42.516019977629184722900390625" lon="20.01047040335834026336669921875">
        <ele>1911.5999755859375</ele>
        <time>2026-06-19T09:55:30.000Z</time>
        <extensions>
          <ns3:TrackPointExtension>
            <ns3:atemp>22.0</ns3:atemp>
          </ns3:TrackPointExtension>
        </extensions>
      </trkpt>
      <trkpt lat="42.516019977629184722900390625" lon="20.01047040335834026336669921875">
        <ele>1911.5999755859375</ele>
        <time>2026-06-19T09:55:31.000Z</time>
        <extensions>
          <ns3:TrackPointExtension>
            <ns3:atemp>22.0</ns3:atemp>
          </ns3:TrackPointExtension>
        </extensions>
      </trkpt>
      <trkpt lat="42.516019977629184722900390625" lon="20.01047040335834026336669921875">
        <ele>1911.5999755859375</ele>
        <time>2026-06-19T09:55:32.000Z</time>
        <extensions>
          <ns3:TrackPointExtension>
            <ns3:atemp>22.0</ns3:atemp>
          </ns3:TrackPointExtension>
        </extensions>
      </trkpt>
      <trkpt lat="42.516019977629184722900390625" lon="20.01047040335834026336669921875">
        <ele>1911.5999755859375</ele>
        <time>2026-06-19T09:55:33.000Z</time>
        <extensions>
          <ns3:TrackPointExtension>
            <ns3:atemp>22.0</ns3:atemp>
          </ns3:TrackPointExtension>
        </extensions>
      </trkpt>
      <trkpt lat="42.516019977629184722900390625" lon="20.01047040335834026336669921875">
        <ele>1911.5999755859375</ele>
        <time>2026-06-19T09:55:34.000Z</time>
        <extensions>
          <ns3:TrackPointExtension>
            <ns3:atemp>22.0</ns3:atemp>
          </ns3:TrackPointExtension>
        </extensions>
      </trkpt>
      <trkpt lat="42.516019977629184722900390625" lon="20.01047040335834026336669921875">
        <ele>1911.5999755859375</ele>
        <time>2026-06-19T09:55:35.000Z</time>
        <extensions>
          <ns3:TrackPointExtension>
            <ns3:atemp>22.0</ns3:atemp>
          </ns3:TrackPointExtension>
        </extensions>
      </trkpt>
      <trkpt lat="42.516019977629184722900390625" lon="20.01047040335834026336669921875">
        <ele>1911.5999755859375</ele>
        <time>2026-06-19T09:55:36.000Z</time>
        <extensions>
          <ns3:TrackPointExtension>
            <ns3:atemp>22.0</ns3:atemp>
          </ns3:TrackPointExtension>
        </extensions>
      </trkpt>
      <trkpt lat="42.516019977629184722900390625" lon="20.01047040335834026336669921875">
        <ele>1911.5999755859375</ele>
        <time>2026-06-19T09:55:37.000Z</time>
        <extensions>
          <ns3:TrackPointExtension>
            <ns3:atemp>22.0</ns3:atemp>
          </ns3:TrackPointExtension>
        </extensions>
      </trkpt>
      <trkpt lat="42.516019977629184722900390625" lon="20.01047040335834026336669921875">
        <ele>1911.5999755859375</ele>
        <time>2026-06-19T09:55:38.000Z</time>
        <extensions>
          <ns3:TrackPointExtension>
            <ns3:atemp>22.0</ns3:atemp>
          </ns3:TrackPointExtension>
        </extensions>
      </trkpt>
      <trkpt lat="42.516019977629184722900390625" lon="20.01047040335834026336669921875">
        <ele>1911.5999755859375</ele>
        <time>2026-06-19T09:55:39.000Z</time>
        <extensions>
          <ns3:TrackPointExtension>
            <ns3:atemp>22.0</ns3:atemp>
          </ns3:TrackPointExtension>
        </extensions>
      </trkpt>
      <trkpt lat="42.516019977629184722900390625" lon="20.01047040335834026336669921875">
        <ele>1911.5999755859375</ele>
        <time>2026-06-19T09:55:40.000Z</time>
        <extensions>
          <ns3:TrackPointExtension>
            <ns3:atemp>22.0</ns3:atemp>
          </ns3:TrackPointExtension>
        </extensions>
      </trkpt>
      <trkpt lat="42.516019977629184722900390625" lon="20.01047040335834026336669921875">
        <ele>1911.5999755859375</ele>
        <time>2026-06-19T09:55:41.000Z</time>
        <extensions>
          <ns3:TrackPointExtension>
            <ns3:atemp>22.0</ns3:atemp>
          </ns3:TrackPointExtension>
        </extensions>
      </trkpt>
      <trkpt lat="42.516019977629184722900390625" lon="20.01047040335834026336669921875">
        <ele>1911.5999755859375</ele>
        <time>2026-06-19T09:55:42.000Z</time>
        <extensions>
          <ns3:TrackPointExtension>
            <ns3:atemp>22.0</ns3:atemp>
          </ns3:TrackPointExtension>
        </extensions>
      </trkpt>
      <trkpt lat="42.516019977629184722900390625" lon="20.01047040335834026336669921875">
        <ele>1911.5999755859375</ele>
        <time>2026-06-19T09:55:43.000Z</time>
        <extensions>
          <ns3:TrackPointExtension>
            <ns3:atemp>22.0</ns3:atemp>
          </ns3:TrackPointExtension>
        </extensions>
      </trkpt>
      <trkpt lat="42.516019977629184722900390625" lon="20.01047040335834026336669921875">
        <ele>1911.5999755859375</ele>
        <time>2026-06-19T09:55:44.000Z</time>
        <extensions>
          <ns3:TrackPointExtension>
            <ns3:atemp>22.0</ns3:atemp>
          </ns3:TrackPointExtension>
        </extensions>
      </trkpt>
      <trkpt lat="42.516019977629184722900390625" lon="20.01047040335834026336669921875">
        <ele>1911.5999755859375</ele>
        <time>2026-06-19T09:55:45.000Z</time>
        <extensions>
          <ns3:TrackPointExtension>
            <ns3:atemp>22.0</ns3:atemp>
          </ns3:TrackPointExtension>
        </extensions>
      </trkpt>
      <trkpt lat="42.516019977629184722900390625" lon="20.01047040335834026336669921875">
        <ele>1911.5999755859375</ele>
        <time>2026-06-19T09:55:46.000Z</time>
        <extensions>
          <ns3:TrackPointExtension>
            <ns3:atemp>22.0</ns3:atemp>
          </ns3:TrackPointExtension>
        </extensions>
      </trkpt>
      <trkpt lat="42.516019977629184722900390625" lon="20.01047040335834026336669921875">
        <ele>1911.5999755859375</ele>
        <time>2026-06-19T09:55:47.000Z</time>
        <extensions>
          <ns3:TrackPointExtension>
            <ns3:atemp>22.0</ns3:atemp>
          </ns3:TrackPointExtension>
        </extensions>
      </trkpt>
      <trkpt lat="42.516019977629184722900390625" lon="20.01047040335834026336669921875">
        <ele>1911.5999755859375</ele>
        <time>2026-06-19T09:55:48.000Z</time>
        <extensions>
          <ns3:TrackPointExtension>
            <ns3:atemp>22.0</ns3:atemp>
          </ns3:TrackPointExtension>
        </extensions>
      </trkpt>
      <trkpt lat="42.516019977629184722900390625" lon="20.01047040335834026336669921875">
        <ele>1911.5999755859375</ele>
        <time>2026-06-19T09:55:49.000Z</time>
        <extensions>
          <ns3:TrackPointExtension>
            <ns3:atemp>22.0</ns3:atemp>
          </ns3:TrackPointExtension>
        </extensions>
      </trkpt>
      <trkpt lat="42.516019977629184722900390625" lon="20.01047040335834026336669921875">
        <ele>1911.5999755859375</ele>
        <time>2026-06-19T09:55:50.000Z</time>
        <extensions>
          <ns3:TrackPointExtension>
            <ns3:atemp>22.0</ns3:atemp>
          </ns3:TrackPointExtension>
        </extensions>
      </trkpt>
      <trkpt lat="42.516019977629184722900390625" lon="20.01047040335834026336669921875">
        <ele>1911.5999755859375</ele>
        <time>2026-06-19T09:55:51.000Z</time>
        <extensions>
          <ns3:TrackPointExtension>
            <ns3:atemp>22.0</ns3:atemp>
          </ns3:TrackPointExtension>
        </extensions>
      </trkpt>
      <trkpt lat="42.516019977629184722900390625" lon="20.01047040335834026336669921875">
        <ele>1911.5999755859375</ele>
        <time>2026-06-19T09:55:52.000Z</time>
        <extensions>
          <ns3:TrackPointExtension>
            <ns3:atemp>22.0</ns3:atemp>
          </ns3:TrackPointExtension>
        </extensions>
      </trkpt>
      <trkpt lat="42.516019977629184722900390625" lon="20.01047040335834026336669921875">
        <ele>1911.5999755859375</ele>
        <time>2026-06-19T09:55:53.000Z</time>
        <extensions>
          <ns3:TrackPointExtension>
            <ns3:atemp>22.0</ns3:atemp>
          </ns3:TrackPointExtension>
        </extensions>
      </trkpt>
      <trkpt lat="42.516019977629184722900390625" lon="20.01047040335834026336669921875">
        <ele>1911.5999755859375</ele>
        <time>2026-06-19T09:55:54.000Z</time>
        <extensions>
          <ns3:TrackPointExtension>
            <ns3:atemp>22.0</ns3:atemp>
          </ns3:TrackPointExtension>
        </extensions>
      </trkpt>
      <trkpt lat="42.516019977629184722900390625" lon="20.01047040335834026336669921875">
        <ele>1911.5999755859375</ele>
        <time>2026-06-19T09:55:55.000Z</time>
        <extensions>
          <ns3:TrackPointExtension>
            <ns3:atemp>22.0</ns3:atemp>
          </ns3:TrackPointExtension>
        </extensions>
      </trkpt>
      <trkpt lat="42.516019977629184722900390625" lon="20.01047040335834026336669921875">
        <ele>1911.5999755859375</ele>
        <time>2026-06-19T09:55:56.000Z</time>
        <extensions>
          <ns3:TrackPointExtension>
            <ns3:atemp>22.0</ns3:atemp>
          </ns3:TrackPointExtension>
        </extensions>
      </trkpt>
      <trkpt lat="42.516019977629184722900390625" lon="20.01047040335834026336669921875">
        <ele>1911.5999755859375</ele>
        <time>2026-06-19T09:55:57.000Z</time>
        <extensions>
          <ns3:TrackPointExtension>
            <ns3:atemp>22.0</ns3:atemp>
          </ns3:TrackPointExtension>
        </extensions>
      </trkpt>
      <trkpt lat="42.516019977629184722900390625" lon="20.01047040335834026336669921875">
        <ele>1911.5999755859375</ele>
        <time>2026-06-19T09:55:58.000Z</time>
        <extensions>
          <ns3:TrackPointExtension>
            <ns3:atemp>22.0</ns3:atemp>
          </ns3:TrackPointExtension>
        </extensions>
      </trkpt>
      <trkpt lat="42.516019977629184722900390625" lon="20.01047040335834026336669921875">
        <ele>1911.5999755859375</ele>
        <time>2026-06-19T09:55:59.000Z</time>
        <extensions>
          <ns3:TrackPointExtension>
            <ns3:atemp>22.0</ns3:atemp>
          </ns3:TrackPointExtension>
        </extensions>
      </trkpt>
      <trkpt lat="42.516019977629184722900390625" lon="20.01047040335834026336669921875">
        <ele>1911.5999755859375</ele>
        <time>2026-06-19T09:56:00.000Z</time>
        <extensions>
          <ns3:TrackPointExtension>
            <ns3:atemp>22.0</ns3:atemp>
          </ns3:TrackPointExtension>
        </extensions>
      </trkpt>
      <trkpt lat="42.516019977629184722900390625" lon="20.01047040335834026336669921875">
        <ele>1911.5999755859375</ele>
        <time>2026-06-19T09:56:01.000Z</time>
        <extensions>
          <ns3:TrackPointExtension>
            <ns3:atemp>22.0</ns3:atemp>
          </ns3:TrackPointExtension>
        </extensions>
      </trkpt>
      <trkpt lat="42.516019977629184722900390625" lon="20.01047040335834026336669921875">
        <ele>1911.5999755859375</ele>
        <time>2026-06-19T09:56:02.000Z</time>
        <extensions>
          <ns3:TrackPointExtension>
            <ns3:atemp>22.0</ns3:atemp>
          </ns3:TrackPointExtension>
        </extensions>
      </trkpt>
      <trkpt lat="42.516019977629184722900390625" lon="20.01047040335834026336669921875">
        <ele>1911.5999755859375</ele>
        <time>2026-06-19T09:56:03.000Z</time>
        <extensions>
          <ns3:TrackPointExtension>
            <ns3:atemp>22.0</ns3:atemp>
          </ns3:TrackPointExtension>
        </extensions>
      </trkpt>
      <trkpt lat="42.516019977629184722900390625" lon="20.01047040335834026336669921875">
        <ele>1911.5999755859375</ele>
        <time>2026-06-19T09:56:04.000Z</time>
        <extensions>
          <ns3:TrackPointExtension>
            <ns3:atemp>22.0</ns3:atemp>
          </ns3:TrackPointExtension>
        </extensions>
      </trkpt>
      <trkpt lat="42.516019977629184722900390625" lon="20.01047040335834026336669921875">
        <ele>1911.5999755859375</ele>
        <time>2026-06-19T09:56:05.000Z</time>
        <extensions>
          <ns3:TrackPointExtension>
            <ns3:atemp>22.0</ns3:atemp>
          </ns3:TrackPointExtension>
        </extensions>
      </trkpt>
      <trkpt lat="42.516019977629184722900390625" lon="20.01047040335834026336669921875">
        <ele>1911.5999755859375</ele>
        <time>2026-06-19T09:56:06.000Z</time>
        <extensions>
          <ns3:TrackPointExtension>
            <ns3:atemp>22.0</ns3:atemp>
          </ns3:TrackPointExtension>
        </extensions>
      </trkpt>
      <trkpt lat="42.516019977629184722900390625" lon="20.01047040335834026336669921875">
        <ele>1911.5999755859375</ele>
        <time>2026-06-19T09:56:07.000Z</time>
        <extensions>
          <ns3:TrackPointExtension>
            <ns3:atemp>22.0</ns3:atemp>
          </ns3:TrackPointExtension>
        </extensions>
      </trkpt>
      <trkpt lat="42.516019977629184722900390625" lon="20.01047040335834026336669921875">
        <ele>1911.5999755859375</ele>
        <time>2026-06-19T09:56:08.000Z</time>
        <extensions>
          <ns3:TrackPointExtension>
            <ns3:atemp>22.0</ns3:atemp>
          </ns3:TrackPointExtension>
        </extensions>
      </trkpt>
      <trkpt lat="42.516019977629184722900390625" lon="20.01047040335834026336669921875">
        <ele>1911.5999755859375</ele>
        <time>2026-06-19T09:56:09.000Z</time>
        <extensions>
          <ns3:TrackPointExtension>
            <ns3:atemp>22.0</ns3:atemp>
          </ns3:TrackPointExtension>
        </extensions>
      </trkpt>
      <trkpt lat="42.516019977629184722900390625" lon="20.01047040335834026336669921875">
        <ele>1911.5999755859375</ele>
        <time>2026-06-19T09:56:10.000Z</time>
        <extensions>
          <ns3:TrackPointExtension>
            <ns3:atemp>22.0</ns3:atemp>
          </ns3:TrackPointExtension>
        </extensions>
      </trkpt>
      <trkpt lat="42.516019977629184722900390625" lon="20.01047040335834026336669921875">
        <ele>1911.5999755859375</ele>
        <time>2026-06-19T09:56:11.000Z</time>
        <extensions>
          <ns3:TrackPointExtension>
            <ns3:atemp>22.0</ns3:atemp>
          </ns3:TrackPointExtension>
        </extensions>
      </trkpt>
      <trkpt lat="42.516019977629184722900390625" lon="20.01047040335834026336669921875">
        <ele>1911.5999755859375</ele>
        <time>2026-06-19T09:56:12.000Z</time>
        <extensions>
          <ns3:TrackPointExtension>
            <ns3:atemp>22.0</ns3:atemp>
          </ns3:TrackPointExtension>
        </extensions>
      </trkpt>
      <trkpt lat="42.516019977629184722900390625" lon="20.01047040335834026336669921875">
        <ele>1911.5999755859375</ele>
        <time>2026-06-19T09:56:13.000Z</time>
        <extensions>
          <ns3:TrackPointExtension>
            <ns3:atemp>22.0</ns3:atemp>
          </ns3:TrackPointExtension>
        </extensions>
      </trkpt>
      <trkpt lat="42.516019977629184722900390625" lon="20.01047040335834026336669921875">
        <ele>1911.5999755859375</ele>
        <time>2026-06-19T09:56:14.000Z</time>
        <extensions>
          <ns3:TrackPointExtension>
            <ns3:atemp>22.0</ns3:atemp>
          </ns3:TrackPointExtension>
        </extensions>
      </trkpt>
      <trkpt lat="42.516019977629184722900390625" lon="20.01047040335834026336669921875">
        <ele>1911.5999755859375</ele>
        <time>2026-06-19T09:56:15.000Z</time>
        <extensions>
          <ns3:TrackPointExtension>
            <ns3:atemp>22.0</ns3:atemp>
          </ns3:TrackPointExtension>
        </extensions>
      </trkpt>
      <trkpt lat="42.516019977629184722900390625" lon="20.01047040335834026336669921875">
        <ele>1911.5999755859375</ele>
        <time>2026-06-19T09:56:16.000Z</time>
        <extensions>
          <ns3:TrackPointExtension>
            <ns3:atemp>22.0</ns3:atemp>
          </ns3:TrackPointExtension>
        </extensions>
      </trkpt>
      <trkpt lat="42.516019977629184722900390625" lon="20.01047040335834026336669921875">
        <ele>1911.5999755859375</ele>
        <time>2026-06-19T09:56:17.000Z</time>
        <extensions>
          <ns3:TrackPointExtension>
            <ns3:atemp>22.0</ns3:atemp>
          </ns3:TrackPointExtension>
        </extensions>
      </trkpt>
      <trkpt lat="42.516019977629184722900390625" lon="20.01047040335834026336669921875">
        <ele>1911.5999755859375</ele>
        <time>2026-06-19T09:56:18.000Z</time>
        <extensions>
          <ns3:TrackPointExtension>
            <ns3:atemp>22.0</ns3:atemp>
          </ns3:TrackPointExtension>
        </extensions>
      </trkpt>
      <trkpt lat="42.516019977629184722900390625" lon="20.01047040335834026336669921875">
        <ele>1911.5999755859375</ele>
        <time>2026-06-19T09:56:19.000Z</time>
        <extensions>
          <ns3:TrackPointExtension>
            <ns3:atemp>22.0</ns3:atemp>
          </ns3:TrackPointExtension>
        </extensions>
      </trkpt>
      <trkpt lat="42.516019977629184722900390625" lon="20.01047040335834026336669921875">
        <ele>1911.5999755859375</ele>
        <time>2026-06-19T09:56:20.000Z</time>
        <extensions>
          <ns3:TrackPointExtension>
            <ns3:atemp>22.0</ns3:atemp>
          </ns3:TrackPointExtension>
        </extensions>
      </trkpt>
      <trkpt lat="42.516019977629184722900390625" lon="20.01047040335834026336669921875">
        <ele>1911.5999755859375</ele>
        <time>2026-06-19T09:56:21.000Z</time>
        <extensions>
          <ns3:TrackPointExtension>
            <ns3:atemp>22.0</ns3:atemp>
          </ns3:TrackPointExtension>
        </extensions>
      </trkpt>
      <trkpt lat="42.516019977629184722900390625" lon="20.01047040335834026336669921875">
        <ele>1911.5999755859375</ele>
        <time>2026-06-19T09:56:22.000Z</time>
        <extensions>
          <ns3:TrackPointExtension>
            <ns3:atemp>22.0</ns3:atemp>
          </ns3:TrackPointExtension>
        </extensions>
      </trkpt>
      <trkpt lat="42.516019977629184722900390625" lon="20.01047040335834026336669921875">
        <ele>1911.5999755859375</ele>
        <time>2026-06-19T09:56:23.000Z</time>
        <extensions>
          <ns3:TrackPointExtension>
            <ns3:atemp>22.0</ns3:atemp>
          </ns3:TrackPointExtension>
        </extensions>
      </trkpt>
      <trkpt lat="42.516019977629184722900390625" lon="20.01047040335834026336669921875">
        <ele>1911.5999755859375</ele>
        <time>2026-06-19T09:56:24.000Z</time>
        <extensions>
          <ns3:TrackPointExtension>
            <ns3:atemp>22.0</ns3:atemp>
          </ns3:TrackPointExtension>
        </extensions>
      </trkpt>
      <trkpt lat="42.516019977629184722900390625" lon="20.01047040335834026336669921875">
        <ele>1911.5999755859375</ele>
        <time>2026-06-19T09:56:25.000Z</time>
        <extensions>
          <ns3:TrackPointExtension>
            <ns3:atemp>22.0</ns3:atemp>
          </ns3:TrackPointExtension>
        </extensions>
      </trkpt>
      <trkpt lat="42.516019977629184722900390625" lon="20.01047040335834026336669921875">
        <ele>1911.5999755859375</ele>
        <time>2026-06-19T09:56:26.000Z</time>
        <extensions>
          <ns3:TrackPointExtension>
            <ns3:atemp>22.0</ns3:atemp>
          </ns3:TrackPointExtension>
        </extensions>
      </trkpt>
      <trkpt lat="42.516019977629184722900390625" lon="20.01047040335834026336669921875">
        <ele>1911.5999755859375</ele>
        <time>2026-06-19T09:56:27.000Z</time>
        <extensions>
          <ns3:TrackPointExtension>
            <ns3:atemp>22.0</ns3:atemp>
          </ns3:TrackPointExtension>
        </extensions>
      </trkpt>
      <trkpt lat="42.516019977629184722900390625" lon="20.01047040335834026336669921875">
        <ele>1911.5999755859375</ele>
        <time>2026-06-19T09:56:28.000Z</time>
        <extensions>
          <ns3:TrackPointExtension>
            <ns3:atemp>22.0</ns3:atemp>
          </ns3:TrackPointExtension>
        </extensions>
      </trkpt>
      <trkpt lat="42.516019977629184722900390625" lon="20.01047040335834026336669921875">
        <ele>1911.5999755859375</ele>
        <time>2026-06-19T09:56:29.000Z</time>
        <extensions>
          <ns3:TrackPointExtension>
            <ns3:atemp>22.0</ns3:atemp>
          </ns3:TrackPointExtension>
        </extensions>
      </trkpt>
      <trkpt lat="42.516019977629184722900390625" lon="20.01047040335834026336669921875">
        <ele>1911.5999755859375</ele>
        <time>2026-06-19T09:56:30.000Z</time>
        <extensions>
          <ns3:TrackPointExtension>
            <ns3:atemp>22.0</ns3:atemp>
          </ns3:TrackPointExtension>
        </extensions>
      </trkpt>
      <trkpt lat="42.516019977629184722900390625" lon="20.01047040335834026336669921875">
        <ele>1911.5999755859375</ele>
        <time>2026-06-19T09:56:31.000Z</time>
        <extensions>
          <ns3:TrackPointExtension>
            <ns3:atemp>22.0</ns3:atemp>
          </ns3:TrackPointExtension>
        </extensions>
      </trkpt>
      <trkpt lat="42.516019977629184722900390625" lon="20.01047040335834026336669921875">
        <ele>1911.5999755859375</ele>
        <time>2026-06-19T09:56:32.000Z</time>
        <extensions>
          <ns3:TrackPointExtension>
            <ns3:atemp>22.0</ns3:atemp>
          </ns3:TrackPointExtension>
        </extensions>
      </trkpt>
      <trkpt lat="42.516019977629184722900390625" lon="20.01047040335834026336669921875">
        <ele>1911.5999755859375</ele>
        <time>2026-06-19T09:56:33.000Z</time>
        <extensions>
          <ns3:TrackPointExtension>
            <ns3:atemp>22.0</ns3:atemp>
          </ns3:TrackPointExtension>
        </extensions>
      </trkpt>
      <trkpt lat="42.516019977629184722900390625" lon="20.01047040335834026336669921875">
        <ele>1911.5999755859375</ele>
        <time>2026-06-19T09:56:34.000Z</time>
        <extensions>
          <ns3:TrackPointExtension>
            <ns3:atemp>22.0</ns3:atemp>
          </ns3:TrackPointExtension>
        </extensions>
      </trkpt>
      <trkpt lat="42.516019977629184722900390625" lon="20.01047040335834026336669921875">
        <ele>1911.5999755859375</ele>
        <time>2026-06-19T09:56:35.000Z</time>
        <extensions>
          <ns3:TrackPointExtension>
            <ns3:atemp>22.0</ns3:atemp>
          </ns3:TrackPointExtension>
        </extensions>
      </trkpt>
      <trkpt lat="42.516019977629184722900390625" lon="20.01047040335834026336669921875">
        <ele>1911.5999755859375</ele>
        <time>2026-06-19T09:56:36.000Z</time>
        <extensions>
          <ns3:TrackPointExtension>
            <ns3:atemp>22.0</ns3:atemp>
          </ns3:TrackPointExtension>
        </extensions>
      </trkpt>
      <trkpt lat="42.516019977629184722900390625" lon="20.01047040335834026336669921875">
        <ele>1911.5999755859375</ele>
        <time>2026-06-19T09:56:37.000Z</time>
        <extensions>
          <ns3:TrackPointExtension>
            <ns3:atemp>22.0</ns3:atemp>
          </ns3:TrackPointExtension>
        </extensions>
      </trkpt>
      <trkpt lat="42.516019977629184722900390625" lon="20.01047040335834026336669921875">
        <ele>1911.5999755859375</ele>
        <time>2026-06-19T09:56:38.000Z</time>
        <extensions>
          <ns3:TrackPointExtension>
            <ns3:atemp>22.0</ns3:atemp>
          </ns3:TrackPointExtension>
        </extensions>
      </trkpt>
      <trkpt lat="42.516019977629184722900390625" lon="20.01047040335834026336669921875">
        <ele>1911.5999755859375</ele>
        <time>2026-06-19T09:56:39.000Z</time>
        <extensions>
          <ns3:TrackPointExtension>
            <ns3:atemp>22.0</ns3:atemp>
          </ns3:TrackPointExtension>
        </extensions>
      </trkpt>
      <trkpt lat="42.516019977629184722900390625" lon="20.01047040335834026336669921875">
        <ele>1911.5999755859375</ele>
        <time>2026-06-19T09:56:40.000Z</time>
        <extensions>
          <ns3:TrackPointExtension>
            <ns3:atemp>22.0</ns3:atemp>
          </ns3:TrackPointExtension>
        </extensions>
      </trkpt>
      <trkpt lat="42.516019977629184722900390625" lon="20.01047040335834026336669921875">
        <ele>1911.5999755859375</ele>
        <time>2026-06-19T09:56:41.000Z</time>
        <extensions>
          <ns3:TrackPointExtension>
            <ns3:atemp>22.0</ns3:atemp>
          </ns3:TrackPointExtension>
        </extensions>
      </trkpt>
      <trkpt lat="42.516019977629184722900390625" lon="20.01047040335834026336669921875">
        <ele>1911.5999755859375</ele>
        <time>2026-06-19T09:56:42.000Z</time>
        <extensions>
          <ns3:TrackPointExtension>
            <ns3:atemp>22.0</ns3:atemp>
          </ns3:TrackPointExtension>
        </extensions>
      </trkpt>
      <trkpt lat="42.516019977629184722900390625" lon="20.01047040335834026336669921875">
        <ele>1911.5999755859375</ele>
        <time>2026-06-19T09:56:43.000Z</time>
        <extensions>
          <ns3:TrackPointExtension>
            <ns3:atemp>22.0</ns3:atemp>
          </ns3:TrackPointExtension>
        </extensions>
      </trkpt>
      <trkpt lat="42.516019977629184722900390625" lon="20.01047040335834026336669921875">
        <ele>1911.5999755859375</ele>
        <time>2026-06-19T09:56:44.000Z</time>
        <extensions>
          <ns3:TrackPointExtension>
            <ns3:atemp>22.0</ns3:atemp>
          </ns3:TrackPointExtension>
        </extensions>
      </trkpt>
      <trkpt lat="42.5160268507897853851318359375" lon="20.010470487177371978759765625">
        <ele>1911.5999755859375</ele>
        <time>2026-06-19T09:56:45.000Z</time>
        <extensions>
          <ns3:TrackPointExtension>
            <ns3:atemp>22.0</ns3:atemp>
          </ns3:TrackPointExtension>
        </extensions>
      </trkpt>
      <trkpt lat="42.51602525822818279266357421875" lon="20.01047090627253055572509765625">
        <ele>1911.5999755859375</ele>
        <time>2026-06-19T09:56:46.000Z</time>
        <extensions>
          <ns3:TrackPointExtension>
            <ns3:atemp>22.0</ns3:atemp>
          </ns3:TrackPointExtension>
        </extensions>
      </trkpt>
      <trkpt lat="42.51602106727659702301025390625" lon="20.01046973280608654022216796875">
        <ele>1911.5999755859375</ele>
        <time>2026-06-19T09:56:47.000Z</time>
        <extensions>
          <ns3:TrackPointExtension>
            <ns3:atemp>22.0</ns3:atemp>
          </ns3:TrackPointExtension>
        </extensions>
      </trkpt>
      <trkpt lat="42.516019977629184722900390625" lon="20.01047040335834026336669921875">
        <ele>1911.5999755859375</ele>
        <time>2026-06-19T09:56:48.000Z</time>
        <extensions>
          <ns3:TrackPointExtension>
            <ns3:atemp>22.0</ns3:atemp>
          </ns3:TrackPointExtension>
        </extensions>
      </trkpt>
      <trkpt lat="42.516019977629184722900390625" lon="20.01047040335834026336669921875">
        <ele>1911.5999755859375</ele>
        <time>2026-06-19T09:56:49.000Z</time>
        <extensions>
          <ns3:TrackPointExtension>
            <ns3:atemp>22.0</ns3:atemp>
          </ns3:TrackPointExtension>
        </extensions>
      </trkpt>
      <trkpt lat="42.516019977629184722900390625" lon="20.01047040335834026336669921875">
        <ele>1911.5999755859375</ele>
        <time>2026-06-19T09:56:50.000Z</time>
        <extensions>
          <ns3:TrackPointExtension>
            <ns3:atemp>22.0</ns3:atemp>
          </ns3:TrackPointExtension>
        </extensions>
      </trkpt>
      <trkpt lat="42.516019977629184722900390625" lon="20.01047040335834026336669921875">
        <ele>1911.5999755859375</ele>
        <time>2026-06-19T09:56:51.000Z</time>
        <extensions>
          <ns3:TrackPointExtension>
            <ns3:atemp>22.0</ns3:atemp>
          </ns3:TrackPointExtension>
        </extensions>
      </trkpt>
      <trkpt lat="42.516019977629184722900390625" lon="20.01047040335834026336669921875">
        <ele>1911.5999755859375</ele>
        <time>2026-06-19T09:56:52.000Z</time>
        <extensions>
          <ns3:TrackPointExtension>
            <ns3:atemp>22.0</ns3:atemp>
          </ns3:TrackPointExtension>
        </extensions>
      </trkpt>
      <trkpt lat="42.516019977629184722900390625" lon="20.01047040335834026336669921875">
        <ele>1911.5999755859375</ele>
        <time>2026-06-19T09:56:53.000Z</time>
        <extensions>
          <ns3:TrackPointExtension>
            <ns3:atemp>22.0</ns3:atemp>
          </ns3:TrackPointExtension>
        </extensions>
      </trkpt>
      <trkpt lat="42.516019977629184722900390625" lon="20.01047040335834026336669921875">
        <ele>1911.5999755859375</ele>
        <time>2026-06-19T09:56:54.000Z</time>
        <extensions>
          <ns3:TrackPointExtension>
            <ns3:atemp>22.0</ns3:atemp>
          </ns3:TrackPointExtension>
        </extensions>
      </trkpt>
      <trkpt lat="42.516019977629184722900390625" lon="20.01047040335834026336669921875">
        <ele>1911.5999755859375</ele>
        <time>2026-06-19T09:56:55.000Z</time>
        <extensions>
          <ns3:TrackPointExtension>
            <ns3:atemp>22.0</ns3:atemp>
          </ns3:TrackPointExtension>
        </extensions>
      </trkpt>
      <trkpt lat="42.516019977629184722900390625" lon="20.01047040335834026336669921875">
        <ele>1911.5999755859375</ele>
        <time>2026-06-19T09:56:56.000Z</time>
        <extensions>
          <ns3:TrackPointExtension>
            <ns3:atemp>22.0</ns3:atemp>
          </ns3:TrackPointExtension>
        </extensions>
      </trkpt>
      <trkpt lat="42.516019977629184722900390625" lon="20.01047040335834026336669921875">
        <ele>1911.5999755859375</ele>
        <time>2026-06-19T09:56:57.000Z</time>
        <extensions>
          <ns3:TrackPointExtension>
            <ns3:atemp>22.0</ns3:atemp>
          </ns3:TrackPointExtension>
        </extensions>
      </trkpt>
      <trkpt lat="42.516019977629184722900390625" lon="20.01047040335834026336669921875">
        <ele>1911.5999755859375</ele>
        <time>2026-06-19T09:56:58.000Z</time>
        <extensions>
          <ns3:TrackPointExtension>
            <ns3:atemp>22.0</ns3:atemp>
          </ns3:TrackPointExtension>
        </extensions>
      </trkpt>
      <trkpt lat="42.516019977629184722900390625" lon="20.01047040335834026336669921875">
        <ele>1911.5999755859375</ele>
        <time>2026-06-19T09:56:59.000Z</time>
        <extensions>
          <ns3:TrackPointExtension>
            <ns3:atemp>21.0</ns3:atemp>
          </ns3:TrackPointExtension>
        </extensions>
      </trkpt>
      <trkpt lat="42.516019977629184722900390625" lon="20.01047040335834026336669921875">
        <ele>1911.5999755859375</ele>
        <time>2026-06-19T09:57:00.000Z</time>
        <extensions>
          <ns3:TrackPointExtension>
            <ns3:atemp>21.0</ns3:atemp>
          </ns3:TrackPointExtension>
        </extensions>
      </trkpt>
      <trkpt lat="42.516019977629184722900390625" lon="20.01047040335834026336669921875">
        <ele>1911.5999755859375</ele>
        <time>2026-06-19T09:57:01.000Z</time>
        <extensions>
          <ns3:TrackPointExtension>
            <ns3:atemp>21.0</ns3:atemp>
          </ns3:TrackPointExtension>
        </extensions>
      </trkpt>
      <trkpt lat="42.51601771451532840728759765625" lon="20.010464452207088470458984375">
        <ele>1911.5999755859375</ele>
        <time>2026-06-19T09:57:02.000Z</time>
        <extensions>
          <ns3:TrackPointExtension>
            <ns3:atemp>22.0</ns3:atemp>
          </ns3:TrackPointExtension>
        </extensions>
      </trkpt>
      <trkpt lat="42.51601402647793292999267578125" lon="20.01045146025717258453369140625">
        <ele>1911.5999755859375</ele>
        <time>2026-06-19T09:57:03.000Z</time>
        <extensions>
          <ns3:TrackPointExtension>
            <ns3:atemp>21.0</ns3:atemp>
          </ns3:TrackPointExtension>
        </extensions>
      </trkpt>
      <trkpt lat="42.51601402647793292999267578125" lon="20.010451376438140869140625">
        <ele>1911.5999755859375</ele>
        <time>2026-06-19T09:57:04.000Z</time>
        <extensions>
          <ns3:TrackPointExtension>
            <ns3:atemp>21.0</ns3:atemp>
          </ns3:TrackPointExtension>
        </extensions>
      </trkpt>
      <trkpt lat="42.51601402647793292999267578125" lon="20.010451376438140869140625">
        <ele>1911.5999755859375</ele>
        <time>2026-06-19T09:57:05.000Z</time>
        <extensions>
          <ns3:TrackPointExtension>
            <ns3:atemp>22.0</ns3:atemp>
          </ns3:TrackPointExtension>
        </extensions>
      </trkpt>
      <trkpt lat="42.51601402647793292999267578125" lon="20.010451376438140869140625">
        <ele>1911.5999755859375</ele>
        <time>2026-06-19T09:57:06.000Z</time>
        <extensions>
          <ns3:TrackPointExtension>
            <ns3:atemp>22.0</ns3:atemp>
          </ns3:TrackPointExtension>
        </extensions>
      </trkpt>
      <trkpt lat="42.51601402647793292999267578125" lon="20.010451376438140869140625">
        <ele>1911.5999755859375</ele>
        <time>2026-06-19T09:57:07.000Z</time>
        <extensions>
          <ns3:TrackPointExtension>
            <ns3:atemp>21.0</ns3:atemp>
          </ns3:TrackPointExtension>
        </extensions>
      </trkpt>
      <trkpt lat="42.51601402647793292999267578125" lon="20.010451376438140869140625">
        <ele>1911.5999755859375</ele>
        <time>2026-06-19T09:57:08.000Z</time>
        <extensions>
          <ns3:TrackPointExtension>
            <ns3:atemp>21.0</ns3:atemp>
          </ns3:TrackPointExtension>
        </extensions>
      </trkpt>
      <trkpt lat="42.51601402647793292999267578125" lon="20.010451376438140869140625">
        <ele>1911.5999755859375</ele>
        <time>2026-06-19T09:57:09.000Z</time>
        <extensions>
          <ns3:TrackPointExtension>
            <ns3:atemp>21.0</ns3:atemp>
          </ns3:TrackPointExtension>
        </extensions>
      </trkpt>
      <trkpt lat="42.51601402647793292999267578125" lon="20.010451376438140869140625">
        <ele>1911.5999755859375</ele>
        <time>2026-06-19T09:57:10.000Z</time>
        <extensions>
          <ns3:TrackPointExtension>
            <ns3:atemp>21.0</ns3:atemp>
          </ns3:TrackPointExtension>
        </extensions>
      </trkpt>
      <trkpt lat="42.51601402647793292999267578125" lon="20.010451376438140869140625">
        <ele>1911.5999755859375</ele>
        <time>2026-06-19T09:57:11.000Z</time>
        <extensions>
          <ns3:TrackPointExtension>
            <ns3:atemp>21.0</ns3:atemp>
          </ns3:TrackPointExtension>
        </extensions>
      </trkpt>
      <trkpt lat="42.51601402647793292999267578125" lon="20.010451376438140869140625">
        <ele>1911.5999755859375</ele>
        <time>2026-06-19T09:57:12.000Z</time>
        <extensions>
          <ns3:TrackPointExtension>
            <ns3:atemp>22.0</ns3:atemp>
          </ns3:TrackPointExtension>
        </extensions>
      </trkpt>
      <trkpt lat="42.51601402647793292999267578125" lon="20.010451376438140869140625">
        <ele>1911.5999755859375</ele>
        <time>2026-06-19T09:57:13.000Z</time>
        <extensions>
          <ns3:TrackPointExtension>
            <ns3:atemp>22.0</ns3:atemp>
          </ns3:TrackPointExtension>
        </extensions>
      </trkpt>
      <trkpt lat="42.51601402647793292999267578125" lon="20.010451376438140869140625">
        <ele>1911.5999755859375</ele>
        <time>2026-06-19T09:57:14.000Z</time>
        <extensions>
          <ns3:TrackPointExtension>
            <ns3:atemp>21.0</ns3:atemp>
          </ns3:TrackPointExtension>
        </extensions>
      </trkpt>
      <trkpt lat="42.51601402647793292999267578125" lon="20.010451376438140869140625">
        <ele>1911.5999755859375</ele>
        <time>2026-06-19T09:57:15.000Z</time>
        <extensions>
          <ns3:TrackPointExtension>
            <ns3:atemp>21.0</ns3:atemp>
          </ns3:TrackPointExtension>
        </extensions>
      </trkpt>
      <trkpt lat="42.51601402647793292999267578125" lon="20.010451376438140869140625">
        <ele>1911.5999755859375</ele>
        <time>2026-06-19T09:57:16.000Z</time>
        <extensions>
          <ns3:TrackPointExtension>
            <ns3:atemp>21.0</ns3:atemp>
          </ns3:TrackPointExtension>
        </extensions>
      </trkpt>
      <trkpt lat="42.51601402647793292999267578125" lon="20.010451376438140869140625">
        <ele>1911.5999755859375</ele>
        <time>2026-06-19T09:57:17.000Z</time>
        <extensions>
          <ns3:TrackPointExtension>
            <ns3:atemp>21.0</ns3:atemp>
          </ns3:TrackPointExtension>
        </extensions>
      </trkpt>
      <trkpt lat="42.51601402647793292999267578125" lon="20.010451376438140869140625">
        <ele>1911.5999755859375</ele>
        <time>2026-06-19T09:57:18.000Z</time>
        <extensions>
          <ns3:TrackPointExtension>
            <ns3:atemp>21.0</ns3:atemp>
          </ns3:TrackPointExtension>
        </extensions>
      </trkpt>
      <trkpt lat="42.51601402647793292999267578125" lon="20.010451376438140869140625">
        <ele>1911.5999755859375</ele>
        <time>2026-06-19T09:57:19.000Z</time>
        <extensions>
          <ns3:TrackPointExtension>
            <ns3:atemp>21.0</ns3:atemp>
          </ns3:TrackPointExtension>
        </extensions>
      </trkpt>
      <trkpt lat="42.51601402647793292999267578125" lon="20.010451376438140869140625">
        <ele>1911.5999755859375</ele>
        <time>2026-06-19T09:57:20.000Z</time>
        <extensions>
          <ns3:TrackPointExtension>
            <ns3:atemp>21.0</ns3:atemp>
          </ns3:TrackPointExtension>
        </extensions>
      </trkpt>
      <trkpt lat="42.51601402647793292999267578125" lon="20.010451376438140869140625">
        <ele>1911.5999755859375</ele>
        <time>2026-06-19T09:57:21.000Z</time>
        <extensions>
          <ns3:TrackPointExtension>
            <ns3:atemp>21.0</ns3:atemp>
          </ns3:TrackPointExtension>
        </extensions>
      </trkpt>
      <trkpt lat="42.51601402647793292999267578125" lon="20.010451376438140869140625">
        <ele>1911.5999755859375</ele>
        <time>2026-06-19T09:57:22.000Z</time>
        <extensions>
          <ns3:TrackPointExtension>
            <ns3:atemp>21.0</ns3:atemp>
          </ns3:TrackPointExtension>
        </extensions>
      </trkpt>
      <trkpt lat="42.51601402647793292999267578125" lon="20.010451376438140869140625">
        <ele>1911.5999755859375</ele>
        <time>2026-06-19T09:57:23.000Z</time>
        <extensions>
          <ns3:TrackPointExtension>
            <ns3:atemp>21.0</ns3:atemp>
          </ns3:TrackPointExtension>
        </extensions>
      </trkpt>
      <trkpt lat="42.51601402647793292999267578125" lon="20.010451376438140869140625">
        <ele>1911.5999755859375</ele>
        <time>2026-06-19T09:57:24.000Z</time>
        <extensions>
          <ns3:TrackPointExtension>
            <ns3:atemp>21.0</ns3:atemp>
          </ns3:TrackPointExtension>
        </extensions>
      </trkpt>
      <trkpt lat="42.51601402647793292999267578125" lon="20.010451376438140869140625">
        <ele>1911.5999755859375</ele>
        <time>2026-06-19T09:57:25.000Z</time>
        <extensions>
          <ns3:TrackPointExtension>
            <ns3:atemp>21.0</ns3:atemp>
          </ns3:TrackPointExtension>
        </extensions>
      </trkpt>
      <trkpt lat="42.51601402647793292999267578125" lon="20.010451376438140869140625">
        <ele>1911.5999755859375</ele>
        <time>2026-06-19T09:57:26.000Z</time>
        <extensions>
          <ns3:TrackPointExtension>
            <ns3:atemp>21.0</ns3:atemp>
          </ns3:TrackPointExtension>
        </extensions>
      </trkpt>
      <trkpt lat="42.51601402647793292999267578125" lon="20.010451376438140869140625">
        <ele>1911.5999755859375</ele>
        <time>2026-06-19T09:57:27.000Z</time>
        <extensions>
          <ns3:TrackPointExtension>
            <ns3:atemp>21.0</ns3:atemp>
          </ns3:TrackPointExtension>
        </extensions>
      </trkpt>
      <trkpt lat="42.51601402647793292999267578125" lon="20.010451376438140869140625">
        <ele>1911.5999755859375</ele>
        <time>2026-06-19T09:57:28.000Z</time>
        <extensions>
          <ns3:TrackPointExtension>
            <ns3:atemp>21.0</ns3:atemp>
          </ns3:TrackPointExtension>
        </extensions>
      </trkpt>
      <trkpt lat="42.51601402647793292999267578125" lon="20.010451376438140869140625">
        <ele>1911.5999755859375</ele>
        <time>2026-06-19T09:57:29.000Z</time>
        <extensions>
          <ns3:TrackPointExtension>
            <ns3:atemp>21.0</ns3:atemp>
          </ns3:TrackPointExtension>
        </extensions>
      </trkpt>
      <trkpt lat="42.51601402647793292999267578125" lon="20.010451376438140869140625">
        <ele>1911.5999755859375</ele>
        <time>2026-06-19T09:57:30.000Z</time>
        <extensions>
          <ns3:TrackPointExtension>
            <ns3:atemp>21.0</ns3:atemp>
          </ns3:TrackPointExtension>
        </extensions>
      </trkpt>
      <trkpt lat="42.51601402647793292999267578125" lon="20.010451376438140869140625">
        <ele>1911.5999755859375</ele>
        <time>2026-06-19T09:57:31.000Z</time>
        <extensions>
          <ns3:TrackPointExtension>
            <ns3:atemp>21.0</ns3:atemp>
          </ns3:TrackPointExtension>
        </extensions>
      </trkpt>
      <trkpt lat="42.51601402647793292999267578125" lon="20.010451376438140869140625">
        <ele>1911.5999755859375</ele>
        <time>2026-06-19T09:57:32.000Z</time>
        <extensions>
          <ns3:TrackPointExtension>
            <ns3:atemp>21.0</ns3:atemp>
          </ns3:TrackPointExtension>
        </extensions>
      </trkpt>
      <trkpt lat="42.51601402647793292999267578125" lon="20.010451376438140869140625">
        <ele>1911.5999755859375</ele>
        <time>2026-06-19T09:57:33.000Z</time>
        <extensions>
          <ns3:TrackPointExtension>
            <ns3:atemp>21.0</ns3:atemp>
          </ns3:TrackPointExtension>
        </extensions>
      </trkpt>
      <trkpt lat="42.51601402647793292999267578125" lon="20.010451376438140869140625">
        <ele>1911.5999755859375</ele>
        <time>2026-06-19T09:57:34.000Z</time>
        <extensions>
          <ns3:TrackPointExtension>
            <ns3:atemp>21.0</ns3:atemp>
          </ns3:TrackPointExtension>
        </extensions>
      </trkpt>
      <trkpt lat="42.51601402647793292999267578125" lon="20.010451376438140869140625">
        <ele>1911.5999755859375</ele>
        <time>2026-06-19T09:57:35.000Z</time>
        <extensions>
          <ns3:TrackPointExtension>
            <ns3:atemp>21.0</ns3:atemp>
          </ns3:TrackPointExtension>
        </extensions>
      </trkpt>
      <trkpt lat="42.51601402647793292999267578125" lon="20.010451376438140869140625">
        <ele>1911.5999755859375</ele>
        <time>2026-06-19T09:57:36.000Z</time>
        <extensions>
          <ns3:TrackPointExtension>
            <ns3:atemp>21.0</ns3:atemp>
          </ns3:TrackPointExtension>
        </extensions>
      </trkpt>
      <trkpt lat="42.51601402647793292999267578125" lon="20.010451376438140869140625">
        <ele>1911.5999755859375</ele>
        <time>2026-06-19T09:57:37.000Z</time>
        <extensions>
          <ns3:TrackPointExtension>
            <ns3:atemp>21.0</ns3:atemp>
          </ns3:TrackPointExtension>
        </extensions>
      </trkpt>
      <trkpt lat="42.51601402647793292999267578125" lon="20.010451376438140869140625">
        <ele>1911.5999755859375</ele>
        <time>2026-06-19T09:57:38.000Z</time>
        <extensions>
          <ns3:TrackPointExtension>
            <ns3:atemp>21.0</ns3:atemp>
          </ns3:TrackPointExtension>
        </extensions>
      </trkpt>
      <trkpt lat="42.51601402647793292999267578125" lon="20.010451376438140869140625">
        <ele>1911.5999755859375</ele>
        <time>2026-06-19T09:57:39.000Z</time>
        <extensions>
          <ns3:TrackPointExtension>
            <ns3:atemp>21.0</ns3:atemp>
          </ns3:TrackPointExtension>
        </extensions>
      </trkpt>
      <trkpt lat="42.51601402647793292999267578125" lon="20.010451376438140869140625">
        <ele>1911.5999755859375</ele>
        <time>2026-06-19T09:57:40.000Z</time>
        <extensions>
          <ns3:TrackPointExtension>
            <ns3:atemp>21.0</ns3:atemp>
          </ns3:TrackPointExtension>
        </extensions>
      </trkpt>
      <trkpt lat="42.51601402647793292999267578125" lon="20.010451376438140869140625">
        <ele>1911.5999755859375</ele>
        <time>2026-06-19T09:57:41.000Z</time>
        <extensions>
          <ns3:TrackPointExtension>
            <ns3:atemp>21.0</ns3:atemp>
          </ns3:TrackPointExtension>
        </extensions>
      </trkpt>
      <trkpt lat="42.51601402647793292999267578125" lon="20.010451376438140869140625">
        <ele>1911.5999755859375</ele>
        <time>2026-06-19T09:57:42.000Z</time>
        <extensions>
          <ns3:TrackPointExtension>
            <ns3:atemp>21.0</ns3:atemp>
          </ns3:TrackPointExtension>
        </extensions>
      </trkpt>
      <trkpt lat="42.51601402647793292999267578125" lon="20.010451376438140869140625">
        <ele>1911.5999755859375</ele>
        <time>2026-06-19T09:57:43.000Z</time>
        <extensions>
          <ns3:TrackPointExtension>
            <ns3:atemp>21.0</ns3:atemp>
          </ns3:TrackPointExtension>
        </extensions>
      </trkpt>
      <trkpt lat="42.51601402647793292999267578125" lon="20.010451376438140869140625">
        <ele>1911.5999755859375</ele>
        <time>2026-06-19T09:57:44.000Z</time>
        <extensions>
          <ns3:TrackPointExtension>
            <ns3:atemp>21.0</ns3:atemp>
          </ns3:TrackPointExtension>
        </extensions>
      </trkpt>
      <trkpt lat="42.51601402647793292999267578125" lon="20.010451376438140869140625">
        <ele>1911.5999755859375</ele>
        <time>2026-06-19T09:57:45.000Z</time>
        <extensions>
          <ns3:TrackPointExtension>
            <ns3:atemp>21.0</ns3:atemp>
          </ns3:TrackPointExtension>
        </extensions>
      </trkpt>
      <trkpt lat="42.51601402647793292999267578125" lon="20.010451376438140869140625">
        <ele>1911.5999755859375</ele>
        <time>2026-06-19T09:57:46.000Z</time>
        <extensions>
          <ns3:TrackPointExtension>
            <ns3:atemp>21.0</ns3:atemp>
          </ns3:TrackPointExtension>
        </extensions>
      </trkpt>
      <trkpt lat="42.51601402647793292999267578125" lon="20.010451376438140869140625">
        <ele>1911.5999755859375</ele>
        <time>2026-06-19T09:57:47.000Z</time>
        <extensions>
          <ns3:TrackPointExtension>
            <ns3:atemp>21.0</ns3:atemp>
          </ns3:TrackPointExtension>
        </extensions>
      </trkpt>
      <trkpt lat="42.51601402647793292999267578125" lon="20.010451376438140869140625">
        <ele>1911.5999755859375</ele>
        <time>2026-06-19T09:57:48.000Z</time>
        <extensions>
          <ns3:TrackPointExtension>
            <ns3:atemp>21.0</ns3:atemp>
          </ns3:TrackPointExtension>
        </extensions>
      </trkpt>
      <trkpt lat="42.51601402647793292999267578125" lon="20.010451376438140869140625">
        <ele>1911.5999755859375</ele>
        <time>2026-06-19T09:57:49.000Z</time>
        <extensions>
          <ns3:TrackPointExtension>
            <ns3:atemp>21.0</ns3:atemp>
          </ns3:TrackPointExtension>
        </extensions>
      </trkpt>
      <trkpt lat="42.5160117633640766143798828125" lon="20.010447688400745391845703125">
        <ele>1911.5999755859375</ele>
        <time>2026-06-19T09:57:50.000Z</time>
        <extensions>
          <ns3:TrackPointExtension>
            <ns3:atemp>21.0</ns3:atemp>
          </ns3:TrackPointExtension>
        </extensions>
      </trkpt>
      <trkpt lat="42.51600497402250766754150390625" lon="20.01042581163346767425537109375">
        <ele>1911.5999755859375</ele>
        <time>2026-06-19T09:57:51.000Z</time>
        <extensions>
          <ns3:TrackPointExtension>
            <ns3:atemp>21.0</ns3:atemp>
          </ns3:TrackPointExtension>
        </extensions>
      </trkpt>
      <trkpt lat="42.51600162126123905181884765625" lon="20.01041608862578868865966796875">
        <ele>1911.5999755859375</ele>
        <time>2026-06-19T09:57:52.000Z</time>
        <extensions>
          <ns3:TrackPointExtension>
            <ns3:atemp>21.0</ns3:atemp>
          </ns3:TrackPointExtension>
        </extensions>
      </trkpt>
      <trkpt lat="42.5160030461847782135009765625" lon="20.0104069523513317108154296875">
        <ele>1911.800048828125</ele>
        <time>2026-06-19T09:57:53.000Z</time>
        <extensions>
          <ns3:TrackPointExtension>
            <ns3:atemp>21.0</ns3:atemp>
          </ns3:TrackPointExtension>
        </extensions>
      </trkpt>
      <trkpt lat="42.5160033814609050750732421875" lon="20.0103982351720333099365234375">
        <ele>1911.800048828125</ele>
        <time>2026-06-19T09:57:54.000Z</time>
        <extensions>
          <ns3:TrackPointExtension>
            <ns3:atemp>21.0</ns3:atemp>
          </ns3:TrackPointExtension>
        </extensions>
      </trkpt>
      <trkpt lat="42.5160033814609050750732421875" lon="20.010398067533969879150390625">
        <ele>1911.5999755859375</ele>
        <time>2026-06-19T09:57:55.000Z</time>
        <extensions>
          <ns3:TrackPointExtension>
            <ns3:atemp>21.0</ns3:atemp>
          </ns3:TrackPointExtension>
        </extensions>
      </trkpt>
      <trkpt lat="42.51599860377609729766845703125" lon="20.01037987880408763885498046875">
        <ele>1911.5999755859375</ele>
        <time>2026-06-19T09:57:56.000Z</time>
        <extensions>
          <ns3:TrackPointExtension>
            <ns3:atemp>21.0</ns3:atemp>
          </ns3:TrackPointExtension>
        </extensions>
      </trkpt>
      <trkpt lat="42.51599608920514583587646484375" lon="20.01036822795867919921875">
        <ele>1911.4000244140625</ele>
        <time>2026-06-19T09:57:57.000Z</time>
        <extensions>
          <ns3:TrackPointExtension>
            <ns3:atemp>21.0</ns3:atemp>
          </ns3:TrackPointExtension>
        </extensions>
      </trkpt>
      <trkpt lat="42.51599541865289211273193359375" lon="20.01035372726619243621826171875">
        <ele>1911.199951171875</ele>
        <time>2026-06-19T09:57:58.000Z</time>
        <extensions>
          <ns3:TrackPointExtension>
            <ns3:atemp>21.0</ns3:atemp>
          </ns3:TrackPointExtension>
        </extensions>
      </trkpt>
      <trkpt lat="42.5160023756325244903564453125" lon="20.0103338621556758880615234375">
        <ele>1911.199951171875</ele>
        <time>2026-06-19T09:57:59.000Z</time>
        <extensions>
          <ns3:TrackPointExtension>
            <ns3:atemp>21.0</ns3:atemp>
          </ns3:TrackPointExtension>
        </extensions>
      </trkpt>
      <trkpt lat="42.51601226627826690673828125" lon="20.01031014136970043182373046875">
        <ele>1911</ele>
        <time>2026-06-19T09:58:00.000Z</time>
        <extensions>
          <ns3:TrackPointExtension>
            <ns3:atemp>21.0</ns3:atemp>
          </ns3:TrackPointExtension>
        </extensions>
      </trkpt>
      <trkpt lat="42.51602232456207275390625" lon="20.01028348691761493682861328125">
        <ele>1910.800048828125</ele>
        <time>2026-06-19T09:58:01.000Z</time>
        <extensions>
          <ns3:TrackPointExtension>
            <ns3:atemp>21.0</ns3:atemp>
          </ns3:TrackPointExtension>
        </extensions>
      </trkpt>
      <trkpt lat="42.5160335563123226165771484375" lon="20.0102517195045948028564453125">
        <ele>1910.199951171875</ele>
        <time>2026-06-19T09:58:02.000Z</time>
        <extensions>
          <ns3:TrackPointExtension>
            <ns3:atemp>21.0</ns3:atemp>
          </ns3:TrackPointExtension>
        </extensions>
      </trkpt>
      <trkpt lat="42.51604939810931682586669921875" lon="20.0102020986378192901611328125">
        <ele>1910</ele>
        <time>2026-06-19T09:58:03.000Z</time>
        <extensions>
          <ns3:TrackPointExtension>
            <ns3:atemp>21.0</ns3:atemp>
          </ns3:TrackPointExtension>
        </extensions>
      </trkpt>
      <trkpt lat="42.5160566903650760650634765625" lon="20.01015876419842243194580078125">
        <ele>1909.5999755859375</ele>
        <time>2026-06-19T09:58:04.000Z</time>
        <extensions>
          <ns3:TrackPointExtension>
            <ns3:atemp>21.0</ns3:atemp>
          </ns3:TrackPointExtension>
        </extensions>
      </trkpt>
      <trkpt lat="42.5160553492605686187744140625" lon="20.01012925989925861358642578125">
        <ele>1909.4000244140625</ele>
        <time>2026-06-19T09:58:05.000Z</time>
        <extensions>
          <ns3:TrackPointExtension>
            <ns3:atemp>21.0</ns3:atemp>
          </ns3:TrackPointExtension>
        </extensions>
      </trkpt>
      <trkpt lat="42.5160516612231731414794921875" lon="20.01011568121612071990966796875">
        <ele>1909.4000244140625</ele>
        <time>2026-06-19T09:58:06.000Z</time>
        <extensions>
          <ns3:TrackPointExtension>
            <ns3:atemp>21.0</ns3:atemp>
          </ns3:TrackPointExtension>
        </extensions>
      </trkpt>
      <trkpt lat="42.5160536728799343109130859375" lon="20.01010813750326633453369140625">
        <ele>1909.5999755859375</ele>
        <time>2026-06-19T09:58:07.000Z</time>
        <extensions>
          <ns3:TrackPointExtension>
            <ns3:atemp>21.0</ns3:atemp>
          </ns3:TrackPointExtension>
        </extensions>
      </trkpt>
      <trkpt lat="42.51605006866157054901123046875" lon="20.01009388826787471771240234375">
        <ele>1909.800048828125</ele>
        <time>2026-06-19T09:58:08.000Z</time>
        <extensions>
          <ns3:TrackPointExtension>
            <ns3:atemp>21.0</ns3:atemp>
          </ns3:TrackPointExtension>
        </extensions>
      </trkpt>
      <trkpt lat="42.51604822464287281036376953125" lon="20.010080225765705108642578125">
        <ele>1909.800048828125</ele>
        <time>2026-06-19T09:58:09.000Z</time>
        <extensions>
          <ns3:TrackPointExtension>
            <ns3:atemp>21.0</ns3:atemp>
          </ns3:TrackPointExtension>
        </extensions>
      </trkpt>
      <trkpt lat="42.51603967510163784027099609375" lon="20.01005482859909534454345703125">
        <ele>1910</ele>
        <time>2026-06-19T09:58:10.000Z</time>
        <extensions>
          <ns3:TrackPointExtension>
            <ns3:atemp>21.0</ns3:atemp>
          </ns3:TrackPointExtension>
        </extensions>
      </trkpt>
      <trkpt lat="42.5160291977226734161376953125" lon="20.01003152690827846527099609375">
        <ele>1910</ele>
        <time>2026-06-19T09:58:11.000Z</time>
        <extensions>
          <ns3:TrackPointExtension>
            <ns3:atemp>21.0</ns3:atemp>
          </ns3:TrackPointExtension>
        </extensions>
      </trkpt>
      <trkpt lat="42.51602031290531158447265625" lon="20.0100173614919185638427734375">
        <ele>1910.199951171875</ele>
        <time>2026-06-19T09:58:12.000Z</time>
        <extensions>
          <ns3:TrackPointExtension>
            <ns3:atemp>21.0</ns3:atemp>
          </ns3:TrackPointExtension>
        </extensions>
      </trkpt>
      <trkpt lat="42.516022659838199615478515625" lon="20.01001241616904735565185546875">
        <ele>1910.199951171875</ele>
        <time>2026-06-19T09:58:13.000Z</time>
        <extensions>
          <ns3:TrackPointExtension>
            <ns3:atemp>21.0</ns3:atemp>
          </ns3:TrackPointExtension>
        </extensions>
      </trkpt>
      <trkpt lat="42.516022659838199615478515625" lon="20.01001241616904735565185546875">
        <ele>1910.199951171875</ele>
        <time>2026-06-19T09:58:14.000Z</time>
        <extensions>
          <ns3:TrackPointExtension>
            <ns3:atemp>21.0</ns3:atemp>
          </ns3:TrackPointExtension>
        </extensions>
      </trkpt>
      <trkpt lat="42.516022659838199615478515625" lon="20.01001241616904735565185546875">
        <ele>1910.4000244140625</ele>
        <time>2026-06-19T09:58:15.000Z</time>
        <extensions>
          <ns3:TrackPointExtension>
            <ns3:atemp>21.0</ns3:atemp>
          </ns3:TrackPointExtension>
        </extensions>
      </trkpt>
      <trkpt lat="42.516022659838199615478515625" lon="20.01001241616904735565185546875">
        <ele>1910.4000244140625</ele>
        <time>2026-06-19T09:58:16.000Z</time>
        <extensions>
          <ns3:TrackPointExtension>
            <ns3:atemp>21.0</ns3:atemp>
          </ns3:TrackPointExtension>
        </extensions>
      </trkpt>
      <trkpt lat="42.516022659838199615478515625" lon="20.01001241616904735565185546875">
        <ele>1910.4000244140625</ele>
        <time>2026-06-19T09:58:17.000Z</time>
        <extensions>
          <ns3:TrackPointExtension>
            <ns3:atemp>21.0</ns3:atemp>
          </ns3:TrackPointExtension>
        </extensions>
      </trkpt>
      <trkpt lat="42.516022659838199615478515625" lon="20.01001241616904735565185546875">
        <ele>1910.4000244140625</ele>
        <time>2026-06-19T09:58:18.000Z</time>
        <extensions>
          <ns3:TrackPointExtension>
            <ns3:atemp>21.0</ns3:atemp>
          </ns3:TrackPointExtension>
        </extensions>
      </trkpt>
      <trkpt lat="42.516022659838199615478515625" lon="20.01001241616904735565185546875">
        <ele>1910.4000244140625</ele>
        <time>2026-06-19T09:58:19.000Z</time>
        <extensions>
          <ns3:TrackPointExtension>
            <ns3:atemp>21.0</ns3:atemp>
          </ns3:TrackPointExtension>
        </extensions>
      </trkpt>
      <trkpt lat="42.516022659838199615478515625" lon="20.01001241616904735565185546875">
        <ele>1910.4000244140625</ele>
        <time>2026-06-19T09:58:20.000Z</time>
        <extensions>
          <ns3:TrackPointExtension>
            <ns3:atemp>21.0</ns3:atemp>
          </ns3:TrackPointExtension>
        </extensions>
      </trkpt>
      <trkpt lat="42.516022659838199615478515625" lon="20.01001241616904735565185546875">
        <ele>1910.199951171875</ele>
        <time>2026-06-19T09:58:21.000Z</time>
        <extensions>
          <ns3:TrackPointExtension>
            <ns3:atemp>21.0</ns3:atemp>
          </ns3:TrackPointExtension>
        </extensions>
      </trkpt>
      <trkpt lat="42.516022659838199615478515625" lon="20.01001241616904735565185546875">
        <ele>1910.199951171875</ele>
        <time>2026-06-19T09:58:22.000Z</time>
        <extensions>
          <ns3:TrackPointExtension>
            <ns3:atemp>21.0</ns3:atemp>
          </ns3:TrackPointExtension>
        </extensions>
      </trkpt>
      <trkpt lat="42.516022659838199615478515625" lon="20.01001241616904735565185546875">
        <ele>1910.199951171875</ele>
        <time>2026-06-19T09:58:23.000Z</time>
        <extensions>
          <ns3:TrackPointExtension>
            <ns3:atemp>21.0</ns3:atemp>
          </ns3:TrackPointExtension>
        </extensions>
      </trkpt>
      <trkpt lat="42.516022659838199615478515625" lon="20.01001241616904735565185546875">
        <ele>1910.199951171875</ele>
        <time>2026-06-19T09:58:24.000Z</time>
        <extensions>
          <ns3:TrackPointExtension>
            <ns3:atemp>21.0</ns3:atemp>
          </ns3:TrackPointExtension>
        </extensions>
      </trkpt>
      <trkpt lat="42.516022659838199615478515625" lon="20.01001241616904735565185546875">
        <ele>1910.199951171875</ele>
        <time>2026-06-19T09:58:25.000Z</time>
        <extensions>
          <ns3:TrackPointExtension>
            <ns3:atemp>21.0</ns3:atemp>
          </ns3:TrackPointExtension>
        </extensions>
      </trkpt>
      <trkpt lat="42.516022659838199615478515625" lon="20.01001241616904735565185546875">
        <ele>1910.199951171875</ele>
        <time>2026-06-19T09:58:26.000Z</time>
        <extensions>
          <ns3:TrackPointExtension>
            <ns3:atemp>21.0</ns3:atemp>
          </ns3:TrackPointExtension>
        </extensions>
      </trkpt>
      <trkpt lat="42.516022659838199615478515625" lon="20.01001241616904735565185546875">
        <ele>1910.199951171875</ele>
        <time>2026-06-19T09:58:27.000Z</time>
        <extensions>
          <ns3:TrackPointExtension>
            <ns3:atemp>21.0</ns3:atemp>
          </ns3:TrackPointExtension>
        </extensions>
      </trkpt>
      <trkpt lat="42.516022659838199615478515625" lon="20.01001241616904735565185546875">
        <ele>1910</ele>
        <time>2026-06-19T09:58:28.000Z</time>
        <extensions>
          <ns3:TrackPointExtension>
            <ns3:atemp>21.0</ns3:atemp>
          </ns3:TrackPointExtension>
        </extensions>
      </trkpt>
      <trkpt lat="42.516022659838199615478515625" lon="20.01001241616904735565185546875">
        <ele>1910</ele>
        <time>2026-06-19T09:58:29.000Z</time>
        <extensions>
          <ns3:TrackPointExtension>
            <ns3:atemp>21.0</ns3:atemp>
          </ns3:TrackPointExtension>
        </extensions>
      </trkpt>
      <trkpt lat="42.516022659838199615478515625" lon="20.01001241616904735565185546875">
        <ele>1910</ele>
        <time>2026-06-19T09:58:30.000Z</time>
        <extensions>
          <ns3:TrackPointExtension>
            <ns3:atemp>21.0</ns3:atemp>
          </ns3:TrackPointExtension>
        </extensions>
      </trkpt>
      <trkpt lat="42.516022659838199615478515625" lon="20.01001241616904735565185546875">
        <ele>1910</ele>
        <time>2026-06-19T09:58:31.000Z</time>
        <extensions>
          <ns3:TrackPointExtension>
            <ns3:atemp>21.0</ns3:atemp>
          </ns3:TrackPointExtension>
        </extensions>
      </trkpt>
      <trkpt lat="42.516022659838199615478515625" lon="20.01001241616904735565185546875">
        <ele>1910</ele>
        <time>2026-06-19T09:58:32.000Z</time>
        <extensions>
          <ns3:TrackPointExtension>
            <ns3:atemp>21.0</ns3:atemp>
          </ns3:TrackPointExtension>
        </extensions>
      </trkpt>
      <trkpt lat="42.516022659838199615478515625" lon="20.01001241616904735565185546875">
        <ele>1910</ele>
        <time>2026-06-19T09:58:33.000Z</time>
        <extensions>
          <ns3:TrackPointExtension>
            <ns3:atemp>21.0</ns3:atemp>
          </ns3:TrackPointExtension>
        </extensions>
      </trkpt>
      <trkpt lat="42.516022659838199615478515625" lon="20.01001241616904735565185546875">
        <ele>1910</ele>
        <time>2026-06-19T09:58:34.000Z</time>
        <extensions>
          <ns3:TrackPointExtension>
            <ns3:atemp>21.0</ns3:atemp>
          </ns3:TrackPointExtension>
        </extensions>
      </trkpt>
      <trkpt lat="42.516022659838199615478515625" lon="20.01001241616904735565185546875">
        <ele>1910</ele>
        <time>2026-06-19T09:58:35.000Z</time>
        <extensions>
          <ns3:TrackPointExtension>
            <ns3:atemp>21.0</ns3:atemp>
          </ns3:TrackPointExtension>
        </extensions>
      </trkpt>
      <trkpt lat="42.516022659838199615478515625" lon="20.01001241616904735565185546875">
        <ele>1910</ele>
        <time>2026-06-19T09:58:36.000Z</time>
        <extensions>
          <ns3:TrackPointExtension>
            <ns3:atemp>21.0</ns3:atemp>
          </ns3:TrackPointExtension>
        </extensions>
      </trkpt>
      <trkpt lat="42.516022659838199615478515625" lon="20.01001241616904735565185546875">
        <ele>1910</ele>
        <time>2026-06-19T09:58:37.000Z</time>
        <extensions>
          <ns3:TrackPointExtension>
            <ns3:atemp>21.0</ns3:atemp>
          </ns3:TrackPointExtension>
        </extensions>
      </trkpt>
      <trkpt lat="42.516022659838199615478515625" lon="20.01001241616904735565185546875">
        <ele>1910</ele>
        <time>2026-06-19T09:58:38.000Z</time>
        <extensions>
          <ns3:TrackPointExtension>
            <ns3:atemp>21.0</ns3:atemp>
          </ns3:TrackPointExtension>
        </extensions>
      </trkpt>
      <trkpt lat="42.516022659838199615478515625" lon="20.01001241616904735565185546875">
        <ele>1910.199951171875</ele>
        <time>2026-06-19T09:58:39.000Z</time>
        <extensions>
          <ns3:TrackPointExtension>
            <ns3:atemp>21.0</ns3:atemp>
          </ns3:TrackPointExtension>
        </extensions>
      </trkpt>
      <trkpt lat="42.516022659838199615478515625" lon="20.01001241616904735565185546875">
        <ele>1910.199951171875</ele>
        <time>2026-06-19T09:58:40.000Z</time>
        <extensions>
          <ns3:TrackPointExtension>
            <ns3:atemp>21.0</ns3:atemp>
          </ns3:TrackPointExtension>
        </extensions>
      </trkpt>
      <trkpt lat="42.516022659838199615478515625" lon="20.01001241616904735565185546875">
        <ele>1910.199951171875</ele>
        <time>2026-06-19T09:58:41.000Z</time>
        <extensions>
          <ns3:TrackPointExtension>
            <ns3:atemp>21.0</ns3:atemp>
          </ns3:TrackPointExtension>
        </extensions>
      </trkpt>
      <trkpt lat="42.516022659838199615478515625" lon="20.01001241616904735565185546875">
        <ele>1910.199951171875</ele>
        <time>2026-06-19T09:58:42.000Z</time>
        <extensions>
          <ns3:TrackPointExtension>
            <ns3:atemp>21.0</ns3:atemp>
          </ns3:TrackPointExtension>
        </extensions>
      </trkpt>
      <trkpt lat="42.516022659838199615478515625" lon="20.01001241616904735565185546875">
        <ele>1910.199951171875</ele>
        <time>2026-06-19T09:58:43.000Z</time>
        <extensions>
          <ns3:TrackPointExtension>
            <ns3:atemp>21.0</ns3:atemp>
          </ns3:TrackPointExtension>
        </extensions>
      </trkpt>
      <trkpt lat="42.516022659838199615478515625" lon="20.01001241616904735565185546875">
        <ele>1910.4000244140625</ele>
        <time>2026-06-19T09:58:44.000Z</time>
        <extensions>
          <ns3:TrackPointExtension>
            <ns3:atemp>21.0</ns3:atemp>
          </ns3:TrackPointExtension>
        </extensions>
      </trkpt>
      <trkpt lat="42.516022659838199615478515625" lon="20.01001241616904735565185546875">
        <ele>1910.4000244140625</ele>
        <time>2026-06-19T09:58:45.000Z</time>
        <extensions>
          <ns3:TrackPointExtension>
            <ns3:atemp>21.0</ns3:atemp>
          </ns3:TrackPointExtension>
        </extensions>
      </trkpt>
      <trkpt lat="42.516022659838199615478515625" lon="20.01001241616904735565185546875">
        <ele>1910.4000244140625</ele>
        <time>2026-06-19T09:58:46.000Z</time>
        <extensions>
          <ns3:TrackPointExtension>
            <ns3:atemp>21.0</ns3:atemp>
          </ns3:TrackPointExtension>
        </extensions>
      </trkpt>
      <trkpt lat="42.516022659838199615478515625" lon="20.01001241616904735565185546875">
        <ele>1910.199951171875</ele>
        <time>2026-06-19T09:58:47.000Z</time>
        <extensions>
          <ns3:TrackPointExtension>
            <ns3:atemp>21.0</ns3:atemp>
          </ns3:TrackPointExtension>
        </extensions>
      </trkpt>
      <trkpt lat="42.516022659838199615478515625" lon="20.01001241616904735565185546875">
        <ele>1910.199951171875</ele>
        <time>2026-06-19T09:58:48.000Z</time>
        <extensions>
          <ns3:TrackPointExtension>
            <ns3:atemp>21.0</ns3:atemp>
          </ns3:TrackPointExtension>
        </extensions>
      </trkpt>
      <trkpt lat="42.516022659838199615478515625" lon="20.01001241616904735565185546875">
        <ele>1910.199951171875</ele>
        <time>2026-06-19T09:58:49.000Z</time>
        <extensions>
          <ns3:TrackPointExtension>
            <ns3:atemp>21.0</ns3:atemp>
          </ns3:TrackPointExtension>
        </extensions>
      </trkpt>
      <trkpt lat="42.516022659838199615478515625" lon="20.01001241616904735565185546875">
        <ele>1910.199951171875</ele>
        <time>2026-06-19T09:58:50.000Z</time>
        <extensions>
          <ns3:TrackPointExtension>
            <ns3:atemp>21.0</ns3:atemp>
          </ns3:TrackPointExtension>
        </extensions>
      </trkpt>
      <trkpt lat="42.516022659838199615478515625" lon="20.01001241616904735565185546875">
        <ele>1910.199951171875</ele>
        <time>2026-06-19T09:58:51.000Z</time>
        <extensions>
          <ns3:TrackPointExtension>
            <ns3:atemp>21.0</ns3:atemp>
          </ns3:TrackPointExtension>
        </extensions>
      </trkpt>
      <trkpt lat="42.516022659838199615478515625" lon="20.01001241616904735565185546875">
        <ele>1910.199951171875</ele>
        <time>2026-06-19T09:58:52.000Z</time>
        <extensions>
          <ns3:TrackPointExtension>
            <ns3:atemp>21.0</ns3:atemp>
          </ns3:TrackPointExtension>
        </extensions>
      </trkpt>
      <trkpt lat="42.516022659838199615478515625" lon="20.01001241616904735565185546875">
        <ele>1910.199951171875</ele>
        <time>2026-06-19T09:58:53.000Z</time>
        <extensions>
          <ns3:TrackPointExtension>
            <ns3:atemp>21.0</ns3:atemp>
          </ns3:TrackPointExtension>
        </extensions>
      </trkpt>
      <trkpt lat="42.516022659838199615478515625" lon="20.01001241616904735565185546875">
        <ele>1910.199951171875</ele>
        <time>2026-06-19T09:58:54.000Z</time>
        <extensions>
          <ns3:TrackPointExtension>
            <ns3:atemp>21.0</ns3:atemp>
          </ns3:TrackPointExtension>
        </extensions>
      </trkpt>
      <trkpt lat="42.516022659838199615478515625" lon="20.01001241616904735565185546875">
        <ele>1910.4000244140625</ele>
        <time>2026-06-19T09:58:55.000Z</time>
        <extensions>
          <ns3:TrackPointExtension>
            <ns3:atemp>21.0</ns3:atemp>
          </ns3:TrackPointExtension>
        </extensions>
      </trkpt>
      <trkpt lat="42.516022659838199615478515625" lon="20.01001241616904735565185546875">
        <ele>1910.4000244140625</ele>
        <time>2026-06-19T09:58:56.000Z</time>
        <extensions>
          <ns3:TrackPointExtension>
            <ns3:atemp>21.0</ns3:atemp>
          </ns3:TrackPointExtension>
        </extensions>
      </trkpt>
      <trkpt lat="42.516022659838199615478515625" lon="20.01001241616904735565185546875">
        <ele>1910.4000244140625</ele>
        <time>2026-06-19T09:58:57.000Z</time>
        <extensions>
          <ns3:TrackPointExtension>
            <ns3:atemp>21.0</ns3:atemp>
          </ns3:TrackPointExtension>
        </extensions>
      </trkpt>
      <trkpt lat="42.516022659838199615478515625" lon="20.01001241616904735565185546875">
        <ele>1910.4000244140625</ele>
        <time>2026-06-19T09:58:58.000Z</time>
        <extensions>
          <ns3:TrackPointExtension>
            <ns3:atemp>21.0</ns3:atemp>
          </ns3:TrackPointExtension>
        </extensions>
      </trkpt>
      <trkpt lat="42.516022659838199615478515625" lon="20.01001241616904735565185546875">
        <ele>1910.4000244140625</ele>
        <time>2026-06-19T09:58:59.000Z</time>
        <extensions>
          <ns3:TrackPointExtension>
            <ns3:atemp>21.0</ns3:atemp>
          </ns3:TrackPointExtension>
        </extensions>
      </trkpt>
      <trkpt lat="42.516022659838199615478515625" lon="20.01001241616904735565185546875">
        <ele>1910.4000244140625</ele>
        <time>2026-06-19T09:59:00.000Z</time>
        <extensions>
          <ns3:TrackPointExtension>
            <ns3:atemp>21.0</ns3:atemp>
          </ns3:TrackPointExtension>
        </extensions>
      </trkpt>
      <trkpt lat="42.516022659838199615478515625" lon="20.01001241616904735565185546875">
        <ele>1910.4000244140625</ele>
        <time>2026-06-19T09:59:01.000Z</time>
        <extensions>
          <ns3:TrackPointExtension>
            <ns3:atemp>21.0</ns3:atemp>
          </ns3:TrackPointExtension>
        </extensions>
      </trkpt>
      <trkpt lat="42.516022659838199615478515625" lon="20.01001241616904735565185546875">
        <ele>1910.5999755859375</ele>
        <time>2026-06-19T09:59:02.000Z</time>
        <extensions>
          <ns3:TrackPointExtension>
            <ns3:atemp>21.0</ns3:atemp>
          </ns3:TrackPointExtension>
        </extensions>
      </trkpt>
      <trkpt lat="42.516022659838199615478515625" lon="20.01001241616904735565185546875">
        <ele>1910.5999755859375</ele>
        <time>2026-06-19T09:59:03.000Z</time>
        <extensions>
          <ns3:TrackPointExtension>
            <ns3:atemp>21.0</ns3:atemp>
          </ns3:TrackPointExtension>
        </extensions>
      </trkpt>
      <trkpt lat="42.516022659838199615478515625" lon="20.01001241616904735565185546875">
        <ele>1910.5999755859375</ele>
        <time>2026-06-19T09:59:04.000Z</time>
        <extensions>
          <ns3:TrackPointExtension>
            <ns3:atemp>21.0</ns3:atemp>
          </ns3:TrackPointExtension>
        </extensions>
      </trkpt>
      <trkpt lat="42.516022659838199615478515625" lon="20.01001241616904735565185546875">
        <ele>1910.5999755859375</ele>
        <time>2026-06-19T09:59:05.000Z</time>
        <extensions>
          <ns3:TrackPointExtension>
            <ns3:atemp>21.0</ns3:atemp>
          </ns3:TrackPointExtension>
        </extensions>
      </trkpt>
      <trkpt lat="42.516022659838199615478515625" lon="20.01001241616904735565185546875">
        <ele>1910.5999755859375</ele>
        <time>2026-06-19T09:59:06.000Z</time>
        <extensions>
          <ns3:TrackPointExtension>
            <ns3:atemp>21.0</ns3:atemp>
          </ns3:TrackPointExtension>
        </extensions>
      </trkpt>
      <trkpt lat="42.516022659838199615478515625" lon="20.01001241616904735565185546875">
        <ele>1910.5999755859375</ele>
        <time>2026-06-19T09:59:07.000Z</time>
        <extensions>
          <ns3:TrackPointExtension>
            <ns3:atemp>21.0</ns3:atemp>
          </ns3:TrackPointExtension>
        </extensions>
      </trkpt>
      <trkpt lat="42.516022659838199615478515625" lon="20.01001241616904735565185546875">
        <ele>1910.5999755859375</ele>
        <time>2026-06-19T09:59:08.000Z</time>
        <extensions>
          <ns3:TrackPointExtension>
            <ns3:atemp>21.0</ns3:atemp>
          </ns3:TrackPointExtension>
        </extensions>
      </trkpt>
      <trkpt lat="42.516022659838199615478515625" lon="20.01001241616904735565185546875">
        <ele>1910.5999755859375</ele>
        <time>2026-06-19T09:59:09.000Z</time>
        <extensions>
          <ns3:TrackPointExtension>
            <ns3:atemp>21.0</ns3:atemp>
          </ns3:TrackPointExtension>
        </extensions>
      </trkpt>
      <trkpt lat="42.516022659838199615478515625" lon="20.01001241616904735565185546875">
        <ele>1910.5999755859375</ele>
        <time>2026-06-19T09:59:10.000Z</time>
        <extensions>
          <ns3:TrackPointExtension>
            <ns3:atemp>21.0</ns3:atemp>
          </ns3:TrackPointExtension>
        </extensions>
      </trkpt>
      <trkpt lat="42.516022659838199615478515625" lon="20.01001241616904735565185546875">
        <ele>1910.5999755859375</ele>
        <time>2026-06-19T09:59:11.000Z</time>
        <extensions>
          <ns3:TrackPointExtension>
            <ns3:atemp>21.0</ns3:atemp>
          </ns3:TrackPointExtension>
        </extensions>
      </trkpt>
      <trkpt lat="42.516022659838199615478515625" lon="20.01001241616904735565185546875">
        <ele>1910.5999755859375</ele>
        <time>2026-06-19T09:59:12.000Z</time>
        <extensions>
          <ns3:TrackPointExtension>
            <ns3:atemp>21.0</ns3:atemp>
          </ns3:TrackPointExtension>
        </extensions>
      </trkpt>
      <trkpt lat="42.516022659838199615478515625" lon="20.01001241616904735565185546875">
        <ele>1910.4000244140625</ele>
        <time>2026-06-19T09:59:13.000Z</time>
        <extensions>
          <ns3:TrackPointExtension>
            <ns3:atemp>21.0</ns3:atemp>
          </ns3:TrackPointExtension>
        </extensions>
      </trkpt>
      <trkpt lat="42.516022659838199615478515625" lon="20.01001241616904735565185546875">
        <ele>1910.5999755859375</ele>
        <time>2026-06-19T09:59:14.000Z</time>
        <extensions>
          <ns3:TrackPointExtension>
            <ns3:atemp>21.0</ns3:atemp>
          </ns3:TrackPointExtension>
        </extensions>
      </trkpt>
      <trkpt lat="42.516022659838199615478515625" lon="20.01001241616904735565185546875">
        <ele>1910.5999755859375</ele>
        <time>2026-06-19T09:59:15.000Z</time>
        <extensions>
          <ns3:TrackPointExtension>
            <ns3:atemp>21.0</ns3:atemp>
          </ns3:TrackPointExtension>
        </extensions>
      </trkpt>
      <trkpt lat="42.516022659838199615478515625" lon="20.01001241616904735565185546875">
        <ele>1910.5999755859375</ele>
        <time>2026-06-19T09:59:16.000Z</time>
        <extensions>
          <ns3:TrackPointExtension>
            <ns3:atemp>21.0</ns3:atemp>
          </ns3:TrackPointExtension>
        </extensions>
      </trkpt>
      <trkpt lat="42.516022659838199615478515625" lon="20.01001241616904735565185546875">
        <ele>1910.5999755859375</ele>
        <time>2026-06-19T09:59:17.000Z</time>
        <extensions>
          <ns3:TrackPointExtension>
            <ns3:atemp>21.0</ns3:atemp>
          </ns3:TrackPointExtension>
        </extensions>
      </trkpt>
      <trkpt lat="42.516022659838199615478515625" lon="20.01001241616904735565185546875">
        <ele>1910.4000244140625</ele>
        <time>2026-06-19T09:59:18.000Z</time>
        <extensions>
          <ns3:TrackPointExtension>
            <ns3:atemp>21.0</ns3:atemp>
          </ns3:TrackPointExtension>
        </extensions>
      </trkpt>
      <trkpt lat="42.516022659838199615478515625" lon="20.01001241616904735565185546875">
        <ele>1910.4000244140625</ele>
        <time>2026-06-19T09:59:19.000Z</time>
        <extensions>
          <ns3:TrackPointExtension>
            <ns3:atemp>21.0</ns3:atemp>
          </ns3:TrackPointExtension>
        </extensions>
      </trkpt>
      <trkpt lat="42.516022659838199615478515625" lon="20.01001241616904735565185546875">
        <ele>1910.4000244140625</ele>
        <time>2026-06-19T09:59:20.000Z</time>
        <extensions>
          <ns3:TrackPointExtension>
            <ns3:atemp>21.0</ns3:atemp>
          </ns3:TrackPointExtension>
        </extensions>
      </trkpt>
      <trkpt lat="42.516022659838199615478515625" lon="20.01001241616904735565185546875">
        <ele>1910.4000244140625</ele>
        <time>2026-06-19T09:59:21.000Z</time>
        <extensions>
          <ns3:TrackPointExtension>
            <ns3:atemp>21.0</ns3:atemp>
          </ns3:TrackPointExtension>
        </extensions>
      </trkpt>
      <trkpt lat="42.516022659838199615478515625" lon="20.01001241616904735565185546875">
        <ele>1910.4000244140625</ele>
        <time>2026-06-19T09:59:22.000Z</time>
        <extensions>
          <ns3:TrackPointExtension>
            <ns3:atemp>21.0</ns3:atemp>
          </ns3:TrackPointExtension>
        </extensions>
      </trkpt>
      <trkpt lat="42.516022659838199615478515625" lon="20.01001241616904735565185546875">
        <ele>1910.5999755859375</ele>
        <time>2026-06-19T09:59:23.000Z</time>
        <extensions>
          <ns3:TrackPointExtension>
            <ns3:atemp>21.0</ns3:atemp>
          </ns3:TrackPointExtension>
        </extensions>
      </trkpt>
      <trkpt lat="42.516022659838199615478515625" lon="20.01001241616904735565185546875">
        <ele>1910.5999755859375</ele>
        <time>2026-06-19T09:59:24.000Z</time>
        <extensions>
          <ns3:TrackPointExtension>
            <ns3:atemp>21.0</ns3:atemp>
          </ns3:TrackPointExtension>
        </extensions>
      </trkpt>
      <trkpt lat="42.516022659838199615478515625" lon="20.01001241616904735565185546875">
        <ele>1910.5999755859375</ele>
        <time>2026-06-19T09:59:25.000Z</time>
        <extensions>
          <ns3:TrackPointExtension>
            <ns3:atemp>21.0</ns3:atemp>
          </ns3:TrackPointExtension>
        </extensions>
      </trkpt>
      <trkpt lat="42.516022659838199615478515625" lon="20.01001241616904735565185546875">
        <ele>1910.5999755859375</ele>
        <time>2026-06-19T09:59:26.000Z</time>
        <extensions>
          <ns3:TrackPointExtension>
            <ns3:atemp>21.0</ns3:atemp>
          </ns3:TrackPointExtension>
        </extensions>
      </trkpt>
      <trkpt lat="42.516022659838199615478515625" lon="20.01001241616904735565185546875">
        <ele>1910.4000244140625</ele>
        <time>2026-06-19T09:59:27.000Z</time>
        <extensions>
          <ns3:TrackPointExtension>
            <ns3:atemp>21.0</ns3:atemp>
          </ns3:TrackPointExtension>
        </extensions>
      </trkpt>
      <trkpt lat="42.516022659838199615478515625" lon="20.01001241616904735565185546875">
        <ele>1910.4000244140625</ele>
        <time>2026-06-19T09:59:28.000Z</time>
        <extensions>
          <ns3:TrackPointExtension>
            <ns3:atemp>21.0</ns3:atemp>
          </ns3:TrackPointExtension>
        </extensions>
      </trkpt>
      <trkpt lat="42.516022659838199615478515625" lon="20.01001241616904735565185546875">
        <ele>1910.199951171875</ele>
        <time>2026-06-19T09:59:29.000Z</time>
        <extensions>
          <ns3:TrackPointExtension>
            <ns3:atemp>21.0</ns3:atemp>
          </ns3:TrackPointExtension>
        </extensions>
      </trkpt>
      <trkpt lat="42.516022659838199615478515625" lon="20.01001241616904735565185546875">
        <ele>1910</ele>
        <time>2026-06-19T09:59:30.000Z</time>
        <extensions>
          <ns3:TrackPointExtension>
            <ns3:atemp>21.0</ns3:atemp>
          </ns3:TrackPointExtension>
        </extensions>
      </trkpt>
      <trkpt lat="42.516022659838199615478515625" lon="20.01001241616904735565185546875">
        <ele>1909.800048828125</ele>
        <time>2026-06-19T09:59:31.000Z</time>
        <extensions>
          <ns3:TrackPointExtension>
            <ns3:atemp>21.0</ns3:atemp>
          </ns3:TrackPointExtension>
        </extensions>
      </trkpt>
      <trkpt lat="42.5160209834575653076171875" lon="20.0100136734545230865478515625">
        <ele>1909.800048828125</ele>
        <time>2026-06-19T09:59:32.000Z</time>
        <extensions>
          <ns3:TrackPointExtension>
            <ns3:atemp>21.0</ns3:atemp>
          </ns3:TrackPointExtension>
        </extensions>
      </trkpt>
      <trkpt lat="42.516022659838199615478515625" lon="20.01001241616904735565185546875">
        <ele>1909.800048828125</ele>
        <time>2026-06-19T09:59:33.000Z</time>
        <extensions>
          <ns3:TrackPointExtension>
            <ns3:atemp>21.0</ns3:atemp>
          </ns3:TrackPointExtension>
        </extensions>
      </trkpt>
      <trkpt lat="42.516022659838199615478515625" lon="20.01001241616904735565185546875">
        <ele>1909.800048828125</ele>
        <time>2026-06-19T09:59:34.000Z</time>
        <extensions>
          <ns3:TrackPointExtension>
            <ns3:atemp>21.0</ns3:atemp>
          </ns3:TrackPointExtension>
        </extensions>
      </trkpt>
      <trkpt lat="42.516022659838199615478515625" lon="20.01001241616904735565185546875">
        <ele>1909.800048828125</ele>
        <time>2026-06-19T09:59:35.000Z</time>
        <extensions>
          <ns3:TrackPointExtension>
            <ns3:atemp>21.0</ns3:atemp>
          </ns3:TrackPointExtension>
        </extensions>
      </trkpt>
      <trkpt lat="42.516022659838199615478515625" lon="20.01001241616904735565185546875">
        <ele>1909.800048828125</ele>
        <time>2026-06-19T09:59:36.000Z</time>
        <extensions>
          <ns3:TrackPointExtension>
            <ns3:atemp>21.0</ns3:atemp>
          </ns3:TrackPointExtension>
        </extensions>
      </trkpt>
      <trkpt lat="42.516022659838199615478515625" lon="20.01001241616904735565185546875">
        <ele>1910</ele>
        <time>2026-06-19T09:59:37.000Z</time>
        <extensions>
          <ns3:TrackPointExtension>
            <ns3:atemp>21.0</ns3:atemp>
          </ns3:TrackPointExtension>
        </extensions>
      </trkpt>
      <trkpt lat="42.516022659838199615478515625" lon="20.01001241616904735565185546875">
        <ele>1910</ele>
        <time>2026-06-19T09:59:38.000Z</time>
        <extensions>
          <ns3:TrackPointExtension>
            <ns3:atemp>21.0</ns3:atemp>
          </ns3:TrackPointExtension>
        </extensions>
      </trkpt>
      <trkpt lat="42.5160156190395355224609375" lon="20.0100170262157917022705078125">
        <ele>1910</ele>
        <time>2026-06-19T09:59:39.000Z</time>
        <extensions>
          <ns3:TrackPointExtension>
            <ns3:atemp>21.0</ns3:atemp>
          </ns3:TrackPointExtension>
        </extensions>
      </trkpt>
      <trkpt lat="42.51600815914571285247802734375" lon="20.01001023687422275543212890625">
        <ele>1910</ele>
        <time>2026-06-19T09:59:40.000Z</time>
        <extensions>
          <ns3:TrackPointExtension>
            <ns3:atemp>21.0</ns3:atemp>
          </ns3:TrackPointExtension>
        </extensions>
      </trkpt>
      <trkpt lat="42.5160020403563976287841796875" lon="20.00998961739242076873779296875">
        <ele>1910</ele>
        <time>2026-06-19T09:59:41.000Z</time>
        <extensions>
          <ns3:TrackPointExtension>
            <ns3:atemp>21.0</ns3:atemp>
          </ns3:TrackPointExtension>
        </extensions>
      </trkpt>
      <trkpt lat="42.51599751412868499755859375" lon="20.0099754519760608673095703125">
        <ele>1910</ele>
        <time>2026-06-19T09:59:42.000Z</time>
        <extensions>
          <ns3:TrackPointExtension>
            <ns3:atemp>21.0</ns3:atemp>
          </ns3:TrackPointExtension>
        </extensions>
      </trkpt>
      <trkpt lat="42.515992484986782073974609375" lon="20.009962879121303558349609375">
        <ele>1910</ele>
        <time>2026-06-19T09:59:43.000Z</time>
        <extensions>
          <ns3:TrackPointExtension>
            <ns3:atemp>21.0</ns3:atemp>
          </ns3:TrackPointExtension>
        </extensions>
      </trkpt>
      <trkpt lat="42.51599349081516265869140625" lon="20.00994334928691387176513671875">
        <ele>1910</ele>
        <time>2026-06-19T09:59:44.000Z</time>
        <extensions>
          <ns3:TrackPointExtension>
            <ns3:atemp>21.0</ns3:atemp>
          </ns3:TrackPointExtension>
        </extensions>
      </trkpt>
      <trkpt lat="42.515994496643543243408203125" lon="20.00991334207355976104736328125">
        <ele>1910</ele>
        <time>2026-06-19T09:59:45.000Z</time>
        <extensions>
          <ns3:TrackPointExtension>
            <ns3:atemp>21.0</ns3:atemp>
          </ns3:TrackPointExtension>
        </extensions>
      </trkpt>
      <trkpt lat="42.5159946642816066741943359375" lon="20.009887777268886566162109375">
        <ele>1910</ele>
        <time>2026-06-19T09:59:46.000Z</time>
        <extensions>
          <ns3:TrackPointExtension>
            <ns3:atemp>21.0</ns3:atemp>
          </ns3:TrackPointExtension>
        </extensions>
      </trkpt>
      <trkpt lat="42.515987791121006011962890625" lon="20.00986397266387939453125">
        <ele>1910.199951171875</ele>
        <time>2026-06-19T09:59:47.000Z</time>
        <extensions>
          <ns3:TrackPointExtension>
            <ns3:atemp>21.0</ns3:atemp>
          </ns3:TrackPointExtension>
        </extensions>
      </trkpt>
      <trkpt lat="42.515979744493961334228515625" lon="20.0098379887640476226806640625">
        <ele>1910.199951171875</ele>
        <time>2026-06-19T09:59:48.000Z</time>
        <extensions>
          <ns3:TrackPointExtension>
            <ns3:atemp>21.0</ns3:atemp>
          </ns3:TrackPointExtension>
        </extensions>
      </trkpt>
      <trkpt lat="42.515971697866916656494140625" lon="20.00980773009359836578369140625">
        <ele>1910</ele>
        <time>2026-06-19T09:59:49.000Z</time>
        <extensions>
          <ns3:TrackPointExtension>
            <ns3:atemp>21.0</ns3:atemp>
          </ns3:TrackPointExtension>
        </extensions>
      </trkpt>
      <trkpt lat="42.51596641726791858673095703125" lon="20.0097786448895931243896484375">
        <ele>1910.199951171875</ele>
        <time>2026-06-19T09:59:50.000Z</time>
        <extensions>
          <ns3:TrackPointExtension>
            <ns3:atemp>21.0</ns3:atemp>
          </ns3:TrackPointExtension>
        </extensions>
      </trkpt>
      <trkpt lat="42.51595996320247650146484375" lon="20.00975592993199825286865234375">
        <ele>1910.199951171875</ele>
        <time>2026-06-19T09:59:51.000Z</time>
        <extensions>
          <ns3:TrackPointExtension>
            <ns3:atemp>21.0</ns3:atemp>
          </ns3:TrackPointExtension>
        </extensions>
      </trkpt>
      <trkpt lat="42.51595149748027324676513671875" lon="20.00973455607891082763671875">
        <ele>1910</ele>
        <time>2026-06-19T09:59:52.000Z</time>
        <extensions>
          <ns3:TrackPointExtension>
            <ns3:atemp>21.0</ns3:atemp>
          </ns3:TrackPointExtension>
        </extensions>
      </trkpt>
      <trkpt lat="42.51594965346157550811767578125" lon="20.009706057608127593994140625">
        <ele>1910</ele>
        <time>2026-06-19T09:59:53.000Z</time>
        <extensions>
          <ns3:TrackPointExtension>
            <ns3:atemp>21.0</ns3:atemp>
          </ns3:TrackPointExtension>
        </extensions>
      </trkpt>
      <trkpt lat="42.51594923436641693115234375" lon="20.0096770562231540679931640625">
        <ele>1910</ele>
        <time>2026-06-19T09:59:54.000Z</time>
        <extensions>
          <ns3:TrackPointExtension>
            <ns3:atemp>21.0</ns3:atemp>
          </ns3:TrackPointExtension>
        </extensions>
      </trkpt>
      <trkpt lat="42.51594680361449718475341796875" lon="20.0096515752375125885009765625">
        <ele>1910</ele>
        <time>2026-06-19T09:59:55.000Z</time>
        <extensions>
          <ns3:TrackPointExtension>
            <ns3:atemp>21.0</ns3:atemp>
          </ns3:TrackPointExtension>
        </extensions>
      </trkpt>
      <trkpt lat="42.51594546250998973846435546875" lon="20.009630285203456878662109375">
        <ele>1910</ele>
        <time>2026-06-19T09:59:56.000Z</time>
        <extensions>
          <ns3:TrackPointExtension>
            <ns3:atemp>21.0</ns3:atemp>
          </ns3:TrackPointExtension>
        </extensions>
      </trkpt>
      <trkpt lat="42.5159457139670848846435546875" lon="20.009604804217815399169921875">
        <ele>1910</ele>
        <time>2026-06-19T09:59:57.000Z</time>
        <extensions>
          <ns3:TrackPointExtension>
            <ns3:atemp>21.0</ns3:atemp>
          </ns3:TrackPointExtension>
        </extensions>
      </trkpt>
      <trkpt lat="42.5159483961760997772216796875" lon="20.00958074815571308135986328125">
        <ele>1910</ele>
        <time>2026-06-19T09:59:58.000Z</time>
        <extensions>
          <ns3:TrackPointExtension>
            <ns3:atemp>21.0</ns3:atemp>
          </ns3:TrackPointExtension>
        </extensions>
      </trkpt>
      <trkpt lat="42.5159416906535625457763671875" lon="20.0095607154071331024169921875">
        <ele>1910.199951171875</ele>
        <time>2026-06-19T09:59:59.000Z</time>
        <extensions>
          <ns3:TrackPointExtension>
            <ns3:atemp>21.0</ns3:atemp>
          </ns3:TrackPointExtension>
        </extensions>
      </trkpt>
      <trkpt lat="42.51593641005456447601318359375" lon="20.00953297130763530731201171875">
        <ele>1910.199951171875</ele>
        <time>2026-06-19T10:00:00.000Z</time>
        <extensions>
          <ns3:TrackPointExtension>
            <ns3:atemp>21.0</ns3:atemp>
          </ns3:TrackPointExtension>
        </extensions>
      </trkpt>
      <trkpt lat="42.51593104563653469085693359375" lon="20.0095084123313426971435546875">
        <ele>1910.199951171875</ele>
        <time>2026-06-19T10:00:01.000Z</time>
        <extensions>
          <ns3:TrackPointExtension>
            <ns3:atemp>21.0</ns3:atemp>
          </ns3:TrackPointExtension>
        </extensions>
      </trkpt>
      <trkpt lat="42.515926100313663482666015625" lon="20.00949592329561710357666015625">
        <ele>1910.4000244140625</ele>
        <time>2026-06-19T10:00:02.000Z</time>
        <extensions>
          <ns3:TrackPointExtension>
            <ns3:atemp>21.0</ns3:atemp>
          </ns3:TrackPointExtension>
        </extensions>
      </trkpt>
      <trkpt lat="42.51591931097209453582763671875" lon="20.0094772316515445709228515625">
        <ele>1910.4000244140625</ele>
        <time>2026-06-19T10:00:03.000Z</time>
        <extensions>
          <ns3:TrackPointExtension>
            <ns3:atemp>21.0</ns3:atemp>
          </ns3:TrackPointExtension>
        </extensions>
      </trkpt>
      <trkpt lat="42.51590774394571781158447265625" lon="20.0094611383974552154541015625">
        <ele>1910.4000244140625</ele>
        <time>2026-06-19T10:00:04.000Z</time>
        <extensions>
          <ns3:TrackPointExtension>
            <ns3:atemp>21.0</ns3:atemp>
          </ns3:TrackPointExtension>
        </extensions>
      </trkpt>
      <trkpt lat="42.515895925462245941162109375" lon="20.009446553885936737060546875">
        <ele>1910.5999755859375</ele>
        <time>2026-06-19T10:00:05.000Z</time>
        <extensions>
          <ns3:TrackPointExtension>
            <ns3:atemp>21.0</ns3:atemp>
          </ns3:TrackPointExtension>
        </extensions>
      </trkpt>
      <trkpt lat="42.5158870406448841094970703125" lon="20.00942769460380077362060546875">
        <ele>1910.5999755859375</ele>
        <time>2026-06-19T10:00:06.000Z</time>
        <extensions>
          <ns3:TrackPointExtension>
            <ns3:atemp>21.0</ns3:atemp>
          </ns3:TrackPointExtension>
        </extensions>
      </trkpt>
      <trkpt lat="42.5158806703984737396240234375" lon="20.00940858386456966400146484375">
        <ele>1910.5999755859375</ele>
        <time>2026-06-19T10:00:07.000Z</time>
        <extensions>
          <ns3:TrackPointExtension>
            <ns3:atemp>21.0</ns3:atemp>
          </ns3:TrackPointExtension>
        </extensions>
      </trkpt>
      <trkpt lat="42.51587237231433391571044921875" lon="20.00938461162149906158447265625">
        <ele>1910.5999755859375</ele>
        <time>2026-06-19T10:00:08.000Z</time>
        <extensions>
          <ns3:TrackPointExtension>
            <ns3:atemp>21.0</ns3:atemp>
          </ns3:TrackPointExtension>
        </extensions>
      </trkpt>
      <trkpt lat="42.5158602185547351837158203125" lon="20.0093588791787624359130859375">
        <ele>1910.5999755859375</ele>
        <time>2026-06-19T10:00:09.000Z</time>
        <extensions>
          <ns3:TrackPointExtension>
            <ns3:atemp>21.0</ns3:atemp>
          </ns3:TrackPointExtension>
        </extensions>
      </trkpt>
      <trkpt lat="42.51584789715707302093505859375" lon="20.009334571659564971923828125">
        <ele>1910.5999755859375</ele>
        <time>2026-06-19T10:00:10.000Z</time>
        <extensions>
          <ns3:TrackPointExtension>
            <ns3:atemp>21.0</ns3:atemp>
          </ns3:TrackPointExtension>
        </extensions>
      </trkpt>
      <trkpt lat="42.5158359110355377197265625" lon="20.00931420363485813140869140625">
        <ele>1910.800048828125</ele>
        <time>2026-06-19T10:00:11.000Z</time>
        <extensions>
          <ns3:TrackPointExtension>
            <ns3:atemp>21.0</ns3:atemp>
          </ns3:TrackPointExtension>
        </extensions>
      </trkpt>
      <trkpt lat="42.5158219970762729644775390625" lon="20.0092948414385318756103515625">
        <ele>1910.800048828125</ele>
        <time>2026-06-19T10:00:12.000Z</time>
        <extensions>
          <ns3:TrackPointExtension>
            <ns3:atemp>21.0</ns3:atemp>
          </ns3:TrackPointExtension>
        </extensions>
      </trkpt>
      <trkpt lat="42.51580816693603992462158203125" lon="20.0092723779380321502685546875">
        <ele>1911</ele>
        <time>2026-06-19T10:00:13.000Z</time>
        <extensions>
          <ns3:TrackPointExtension>
            <ns3:atemp>21.0</ns3:atemp>
          </ns3:TrackPointExtension>
        </extensions>
      </trkpt>
      <trkpt lat="42.51579525880515575408935546875" lon="20.00924631021916866302490234375">
        <ele>1911.199951171875</ele>
        <time>2026-06-19T10:00:14.000Z</time>
        <extensions>
          <ns3:TrackPointExtension>
            <ns3:atemp>21.0</ns3:atemp>
          </ns3:TrackPointExtension>
        </extensions>
      </trkpt>
      <trkpt lat="42.51578570343554019927978515625" lon="20.00922200269997119903564453125">
        <ele>1911.4000244140625</ele>
        <time>2026-06-19T10:00:15.000Z</time>
        <extensions>
          <ns3:TrackPointExtension>
            <ns3:atemp>21.0</ns3:atemp>
          </ns3:TrackPointExtension>
        </extensions>
      </trkpt>
      <trkpt lat="42.515775226056575775146484375" lon="20.00920037738978862762451171875">
        <ele>1911.5999755859375</ele>
        <time>2026-06-19T10:00:16.000Z</time>
        <extensions>
          <ns3:TrackPointExtension>
            <ns3:atemp>21.0</ns3:atemp>
          </ns3:TrackPointExtension>
        </extensions>
      </trkpt>
      <trkpt lat="42.51576139591634273529052734375" lon="20.00917556695640087127685546875">
        <ele>1911.800048828125</ele>
        <time>2026-06-19T10:00:17.000Z</time>
        <extensions>
          <ns3:TrackPointExtension>
            <ns3:atemp>21.0</ns3:atemp>
          </ns3:TrackPointExtension>
        </extensions>
      </trkpt>
      <trkpt lat="42.51574899069964885711669921875" lon="20.0091518461704254150390625">
        <ele>1912</ele>
        <time>2026-06-19T10:00:18.000Z</time>
        <extensions>
          <ns3:TrackPointExtension>
            <ns3:atemp>21.0</ns3:atemp>
          </ns3:TrackPointExtension>
        </extensions>
      </trkpt>
      <trkpt lat="42.51573599874973297119140625" lon="20.00912779010832309722900390625">
        <ele>1912</ele>
        <time>2026-06-19T10:00:19.000Z</time>
        <extensions>
          <ns3:TrackPointExtension>
            <ns3:atemp>21.0</ns3:atemp>
          </ns3:TrackPointExtension>
        </extensions>
      </trkpt>
      <trkpt lat="42.5157207436859607696533203125" lon="20.0091027282178401947021484375">
        <ele>1912.199951171875</ele>
        <time>2026-06-19T10:00:20.000Z</time>
        <extensions>
          <ns3:TrackPointExtension>
            <ns3:atemp>21.0</ns3:atemp>
          </ns3:TrackPointExtension>
        </extensions>
      </trkpt>
      <trkpt lat="42.515704147517681121826171875" lon="20.00908051617443561553955078125">
        <ele>1912.4000244140625</ele>
        <time>2026-06-19T10:00:21.000Z</time>
        <extensions>
          <ns3:TrackPointExtension>
            <ns3:atemp>21.0</ns3:atemp>
          </ns3:TrackPointExtension>
        </extensions>
      </trkpt>
      <trkpt lat="42.51568906009197235107421875" lon="20.00906073488295078277587890625">
        <ele>1912.5999755859375</ele>
        <time>2026-06-19T10:00:22.000Z</time>
        <extensions>
          <ns3:TrackPointExtension>
            <ns3:atemp>21.0</ns3:atemp>
          </ns3:TrackPointExtension>
        </extensions>
      </trkpt>
      <trkpt lat="42.51567564904689788818359375" lon="20.00904112122952938079833984375">
        <ele>1912.800048828125</ele>
        <time>2026-06-19T10:00:23.000Z</time>
        <extensions>
          <ns3:TrackPointExtension>
            <ns3:atemp>21.0</ns3:atemp>
          </ns3:TrackPointExtension>
        </extensions>
      </trkpt>
      <trkpt lat="42.51566131599247455596923828125" lon="20.00901949591934680938720703125">
        <ele>1913</ele>
        <time>2026-06-19T10:00:24.000Z</time>
        <extensions>
          <ns3:TrackPointExtension>
            <ns3:atemp>21.0</ns3:atemp>
          </ns3:TrackPointExtension>
        </extensions>
      </trkpt>
      <trkpt lat="42.51564388163387775421142578125" lon="20.00899954698979854583740234375">
        <ele>1913.199951171875</ele>
        <time>2026-06-19T10:00:25.000Z</time>
        <extensions>
          <ns3:TrackPointExtension>
            <ns3:atemp>21.0</ns3:atemp>
          </ns3:TrackPointExtension>
        </extensions>
      </trkpt>
      <trkpt lat="42.515631727874279022216796875" lon="20.00897708348929882049560546875">
        <ele>1913.4000244140625</ele>
        <time>2026-06-19T10:00:26.000Z</time>
        <extensions>
          <ns3:TrackPointExtension>
            <ns3:atemp>21.0</ns3:atemp>
          </ns3:TrackPointExtension>
        </extensions>
      </trkpt>
      <trkpt lat="42.51561856828629970550537109375" lon="20.0089602358639240264892578125">
        <ele>1913.800048828125</ele>
        <time>2026-06-19T10:00:27.000Z</time>
        <extensions>
          <ns3:TrackPointExtension>
            <ns3:atemp>21.0</ns3:atemp>
          </ns3:TrackPointExtension>
        </extensions>
      </trkpt>
      <trkpt lat="42.515607587993144989013671875" lon="20.00894204713404178619384765625">
        <ele>1914</ele>
        <time>2026-06-19T10:00:28.000Z</time>
        <extensions>
          <ns3:TrackPointExtension>
            <ns3:atemp>21.0</ns3:atemp>
          </ns3:TrackPointExtension>
        </extensions>
      </trkpt>
      <trkpt lat="42.51559325493872165679931640625" lon="20.00892587006092071533203125">
        <ele>1914.4000244140625</ele>
        <time>2026-06-19T10:00:29.000Z</time>
        <extensions>
          <ns3:TrackPointExtension>
            <ns3:atemp>21.0</ns3:atemp>
          </ns3:TrackPointExtension>
        </extensions>
      </trkpt>
      <trkpt lat="42.51557799987494945526123046875" lon="20.0089143030345439910888671875">
        <ele>1914.800048828125</ele>
        <time>2026-06-19T10:00:30.000Z</time>
        <extensions>
          <ns3:TrackPointExtension>
            <ns3:atemp>21.0</ns3:atemp>
          </ns3:TrackPointExtension>
        </extensions>
      </trkpt>
      <trkpt lat="42.51556023024022579193115234375" lon="20.00890248455107212066650390625">
        <ele>1915.199951171875</ele>
        <time>2026-06-19T10:00:31.000Z</time>
        <extensions>
          <ns3:TrackPointExtension>
            <ns3:atemp>21.0</ns3:atemp>
          </ns3:TrackPointExtension>
        </extensions>
      </trkpt>
      <trkpt lat="42.51554430462419986724853515625" lon="20.008890666067600250244140625">
        <ele>1915.5999755859375</ele>
        <time>2026-06-19T10:00:32.000Z</time>
        <extensions>
          <ns3:TrackPointExtension>
            <ns3:atemp>21.0</ns3:atemp>
          </ns3:TrackPointExtension>
        </extensions>
      </trkpt>
      <trkpt lat="42.51553089357912540435791015625" lon="20.00887767411768436431884765625">
        <ele>1915.800048828125</ele>
        <time>2026-06-19T10:00:33.000Z</time>
        <extensions>
          <ns3:TrackPointExtension>
            <ns3:atemp>21.0</ns3:atemp>
          </ns3:TrackPointExtension>
        </extensions>
      </trkpt>
      <trkpt lat="42.5155179016292095184326171875" lon="20.0088630057871341705322265625">
        <ele>1916</ele>
        <time>2026-06-19T10:00:34.000Z</time>
        <extensions>
          <ns3:TrackPointExtension>
            <ns3:atemp>21.0</ns3:atemp>
          </ns3:TrackPointExtension>
        </extensions>
      </trkpt>
      <trkpt lat="42.515503652393817901611328125" lon="20.008845068514347076416015625">
        <ele>1916.4000244140625</ele>
        <time>2026-06-19T10:00:35.000Z</time>
        <extensions>
          <ns3:TrackPointExtension>
            <ns3:atemp>21.0</ns3:atemp>
          </ns3:TrackPointExtension>
        </extensions>
      </trkpt>
      <trkpt lat="42.51549183391034603118896484375" lon="20.00882587395608425140380859375">
        <ele>1916.5999755859375</ele>
        <time>2026-06-19T10:00:36.000Z</time>
        <extensions>
          <ns3:TrackPointExtension>
            <ns3:atemp>21.0</ns3:atemp>
          </ns3:TrackPointExtension>
        </extensions>
      </trkpt>
      <trkpt lat="42.515483535826206207275390625" lon="20.00880475156009197235107421875">
        <ele>1916.800048828125</ele>
        <time>2026-06-19T10:00:37.000Z</time>
        <extensions>
          <ns3:TrackPointExtension>
            <ns3:atemp>21.0</ns3:atemp>
          </ns3:TrackPointExtension>
        </extensions>
      </trkpt>
      <trkpt lat="42.515479512512683868408203125" lon="20.00877876766026020050048828125">
        <ele>1917.199951171875</ele>
        <time>2026-06-19T10:00:38.000Z</time>
        <extensions>
          <ns3:TrackPointExtension>
            <ns3:atemp>21.0</ns3:atemp>
          </ns3:TrackPointExtension>
        </extensions>
      </trkpt>
      <trkpt lat="42.51548294909298419952392578125" lon="20.00876183621585369110107421875">
        <ele>1917.4000244140625</ele>
        <time>2026-06-19T10:00:39.000Z</time>
        <extensions>
          <ns3:TrackPointExtension>
            <ns3:atemp>21.0</ns3:atemp>
          </ns3:TrackPointExtension>
        </extensions>
      </trkpt>
      <trkpt lat="42.5154904089868068695068359375" lon="20.00874574296176433563232421875">
        <ele>1917.5999755859375</ele>
        <time>2026-06-19T10:00:40.000Z</time>
        <extensions>
          <ns3:TrackPointExtension>
            <ns3:atemp>21.0</ns3:atemp>
          </ns3:TrackPointExtension>
        </extensions>
      </trkpt>
      <trkpt lat="42.51549887470901012420654296875" lon="20.00873819924890995025634765625">
        <ele>1918</ele>
        <time>2026-06-19T10:00:41.000Z</time>
        <extensions>
          <ns3:TrackPointExtension>
            <ns3:atemp>21.0</ns3:atemp>
          </ns3:TrackPointExtension>
        </extensions>
      </trkpt>
      <trkpt lat="42.51551094464957714080810546875" lon="20.008735768496990203857421875">
        <ele>1918.199951171875</ele>
        <time>2026-06-19T10:00:42.000Z</time>
        <extensions>
          <ns3:TrackPointExtension>
            <ns3:atemp>21.0</ns3:atemp>
          </ns3:TrackPointExtension>
        </extensions>
      </trkpt>
      <trkpt lat="42.51552167348563671112060546875" lon="20.00873115845024585723876953125">
        <ele>1918.4000244140625</ele>
        <time>2026-06-19T10:00:43.000Z</time>
        <extensions>
          <ns3:TrackPointExtension>
            <ns3:atemp>21.0</ns3:atemp>
          </ns3:TrackPointExtension>
        </extensions>
      </trkpt>
      <trkpt lat="42.5155333243310451507568359375" lon="20.00872629694640636444091796875">
        <ele>1918.5999755859375</ele>
        <time>2026-06-19T10:00:44.000Z</time>
        <extensions>
          <ns3:TrackPointExtension>
            <ns3:atemp>21.0</ns3:atemp>
          </ns3:TrackPointExtension>
        </extensions>
      </trkpt>
      <trkpt lat="42.51554179005324840545654296875" lon="20.00871892087161540985107421875">
        <ele>1918.800048828125</ele>
        <time>2026-06-19T10:00:45.000Z</time>
        <extensions>
          <ns3:TrackPointExtension>
            <ns3:atemp>21.0</ns3:atemp>
          </ns3:TrackPointExtension>
        </extensions>
      </trkpt>
      <trkpt lat="42.5155556201934814453125" lon="20.008712969720363616943359375">
        <ele>1919</ele>
        <time>2026-06-19T10:00:46.000Z</time>
        <extensions>
          <ns3:TrackPointExtension>
            <ns3:atemp>21.0</ns3:atemp>
          </ns3:TrackPointExtension>
        </extensions>
      </trkpt>
      <trkpt lat="42.51556861214339733123779296875" lon="20.00871875323355197906494140625">
        <ele>1919</ele>
        <time>2026-06-19T10:00:47.000Z</time>
        <extensions>
          <ns3:TrackPointExtension>
            <ns3:atemp>21.0</ns3:atemp>
          </ns3:TrackPointExtension>
        </extensions>
      </trkpt>
      <trkpt lat="42.5155809335410594940185546875" lon="20.00872646458446979522705078125">
        <ele>1919.199951171875</ele>
        <time>2026-06-19T10:00:48.000Z</time>
        <extensions>
          <ns3:TrackPointExtension>
            <ns3:atemp>21.0</ns3:atemp>
          </ns3:TrackPointExtension>
        </extensions>
      </trkpt>
      <trkpt lat="42.51559811644256114959716796875" lon="20.00873266719281673431396484375">
        <ele>1919.199951171875</ele>
        <time>2026-06-19T10:00:49.000Z</time>
        <extensions>
          <ns3:TrackPointExtension>
            <ns3:atemp>21.0</ns3:atemp>
          </ns3:TrackPointExtension>
        </extensions>
      </trkpt>
      <trkpt lat="42.5156168080866336822509765625" lon="20.0087320804595947265625">
        <ele>1919.199951171875</ele>
        <time>2026-06-19T10:00:50.000Z</time>
        <extensions>
          <ns3:TrackPointExtension>
            <ns3:atemp>21.0</ns3:atemp>
          </ns3:TrackPointExtension>
        </extensions>
      </trkpt>
      <trkpt lat="42.51563214696943759918212890625" lon="20.00873551703989505767822265625">
        <ele>1919.4000244140625</ele>
        <time>2026-06-19T10:00:51.000Z</time>
        <extensions>
          <ns3:TrackPointExtension>
            <ns3:atemp>21.0</ns3:atemp>
          </ns3:TrackPointExtension>
        </extensions>
      </trkpt>
      <trkpt lat="42.515647150576114654541015625" lon="20.00872780568897724151611328125">
        <ele>1919.5999755859375</ele>
        <time>2026-06-19T10:00:52.000Z</time>
        <extensions>
          <ns3:TrackPointExtension>
            <ns3:atemp>21.0</ns3:atemp>
          </ns3:TrackPointExtension>
        </extensions>
      </trkpt>
      <trkpt lat="42.51566885970532894134521484375" lon="20.00872344709932804107666015625">
        <ele>1920</ele>
        <time>2026-06-19T10:00:53.000Z</time>
        <extensions>
          <ns3:TrackPointExtension>
            <ns3:atemp>21.0</ns3:atemp>
          </ns3:TrackPointExtension>
        </extensions>
      </trkpt>
      <trkpt lat="42.51568662934005260467529296875" lon="20.008722357451915740966796875">
        <ele>1920.199951171875</ele>
        <time>2026-06-19T10:00:54.000Z</time>
        <extensions>
          <ns3:TrackPointExtension>
            <ns3:atemp>21.0</ns3:atemp>
          </ns3:TrackPointExtension>
        </extensions>
      </trkpt>
      <trkpt lat="42.5156986154615879058837890625" lon="20.00872696749866008758544921875">
        <ele>1920.4000244140625</ele>
        <time>2026-06-19T10:00:55.000Z</time>
        <extensions>
          <ns3:TrackPointExtension>
            <ns3:atemp>21.0</ns3:atemp>
          </ns3:TrackPointExtension>
        </extensions>
      </trkpt>
      <trkpt lat="42.515710182487964630126953125" lon="20.00872596167027950286865234375">
        <ele>1920.5999755859375</ele>
        <time>2026-06-19T10:00:56.000Z</time>
        <extensions>
          <ns3:TrackPointExtension>
            <ns3:atemp>21.0</ns3:atemp>
          </ns3:TrackPointExtension>
        </extensions>
      </trkpt>
      <trkpt lat="42.51572418026626110076904296875" lon="20.0087255425751209259033203125">
        <ele>1920.800048828125</ele>
        <time>2026-06-19T10:00:57.000Z</time>
        <extensions>
          <ns3:TrackPointExtension>
            <ns3:atemp>21.0</ns3:atemp>
          </ns3:TrackPointExtension>
        </extensions>
      </trkpt>
      <trkpt lat="42.51574278809130191802978515625" lon="20.0087248720228672027587890625">
        <ele>1921.199951171875</ele>
        <time>2026-06-19T10:00:58.000Z</time>
        <extensions>
          <ns3:TrackPointExtension>
            <ns3:atemp>21.0</ns3:atemp>
          </ns3:TrackPointExtension>
        </extensions>
      </trkpt>
      <trkpt lat="42.5157616473734378814697265625" lon="20.0087205134332180023193359375">
        <ele>1921.4000244140625</ele>
        <time>2026-06-19T10:00:59.000Z</time>
        <extensions>
          <ns3:TrackPointExtension>
            <ns3:atemp>21.0</ns3:atemp>
          </ns3:TrackPointExtension>
        </extensions>
      </trkpt>
      <trkpt lat="42.515780590474605560302734375" lon="20.008719004690647125244140625">
        <ele>1921.5999755859375</ele>
        <time>2026-06-19T10:01:00.000Z</time>
        <extensions>
          <ns3:TrackPointExtension>
            <ns3:atemp>21.0</ns3:atemp>
          </ns3:TrackPointExtension>
        </extensions>
      </trkpt>
      <trkpt lat="42.51579701900482177734375" lon="20.0087211839854717254638671875">
        <ele>1921.800048828125</ele>
        <time>2026-06-19T10:01:01.000Z</time>
        <extensions>
          <ns3:TrackPointExtension>
            <ns3:atemp>21.0</ns3:atemp>
          </ns3:TrackPointExtension>
        </extensions>
      </trkpt>
      <trkpt lat="42.51581286080181598663330078125" lon="20.0087215192615985870361328125">
        <ele>1922.199951171875</ele>
        <time>2026-06-19T10:01:02.000Z</time>
        <extensions>
          <ns3:TrackPointExtension>
            <ns3:atemp>21.0</ns3:atemp>
          </ns3:TrackPointExtension>
        </extensions>
      </trkpt>
      <trkpt lat="42.51583063043653964996337890625" lon="20.00872135162353515625">
        <ele>1922.4000244140625</ele>
        <time>2026-06-19T10:01:03.000Z</time>
        <extensions>
          <ns3:TrackPointExtension>
            <ns3:atemp>21.0</ns3:atemp>
          </ns3:TrackPointExtension>
        </extensions>
      </trkpt>
      <trkpt lat="42.51584731042385101318359375" lon="20.00872395001351833343505859375">
        <ele>1922.5999755859375</ele>
        <time>2026-06-19T10:01:04.000Z</time>
        <extensions>
          <ns3:TrackPointExtension>
            <ns3:atemp>21.0</ns3:atemp>
          </ns3:TrackPointExtension>
        </extensions>
      </trkpt>
      <trkpt lat="42.51586348749697208404541015625" lon="20.008731074631214141845703125">
        <ele>1923</ele>
        <time>2026-06-19T10:01:05.000Z</time>
        <extensions>
          <ns3:TrackPointExtension>
            <ns3:atemp>21.0</ns3:atemp>
          </ns3:TrackPointExtension>
        </extensions>
      </trkpt>
      <trkpt lat="42.5158830173313617706298828125" lon="20.00873719342052936553955078125">
        <ele>1923.199951171875</ele>
        <time>2026-06-19T10:01:06.000Z</time>
        <extensions>
          <ns3:TrackPointExtension>
            <ns3:atemp>21.0</ns3:atemp>
          </ns3:TrackPointExtension>
        </extensions>
      </trkpt>
      <trkpt lat="42.51590254716575145721435546875" lon="20.008745491504669189453125">
        <ele>1923.4000244140625</ele>
        <time>2026-06-19T10:01:07.000Z</time>
        <extensions>
          <ns3:TrackPointExtension>
            <ns3:atemp>21.0</ns3:atemp>
          </ns3:TrackPointExtension>
        </extensions>
      </trkpt>
      <trkpt lat="42.51591796986758708953857421875" lon="20.00875328667461872100830078125">
        <ele>1923.5999755859375</ele>
        <time>2026-06-19T10:01:08.000Z</time>
        <extensions>
          <ns3:TrackPointExtension>
            <ns3:atemp>21.0</ns3:atemp>
          </ns3:TrackPointExtension>
        </extensions>
      </trkpt>
      <trkpt lat="42.5159366615116596221923828125" lon="20.0087602436542510986328125">
        <ele>1923.800048828125</ele>
        <time>2026-06-19T10:01:09.000Z</time>
        <extensions>
          <ns3:TrackPointExtension>
            <ns3:atemp>21.0</ns3:atemp>
          </ns3:TrackPointExtension>
        </extensions>
      </trkpt>
      <trkpt lat="42.515954934060573577880859375" lon="20.00876963138580322265625">
        <ele>1924.199951171875</ele>
        <time>2026-06-19T10:01:10.000Z</time>
        <extensions>
          <ns3:TrackPointExtension>
            <ns3:atemp>21.0</ns3:atemp>
          </ns3:TrackPointExtension>
        </extensions>
      </trkpt>
      <trkpt lat="42.5159688480198383331298828125" lon="20.008782707154750823974609375">
        <ele>1924.199951171875</ele>
        <time>2026-06-19T10:01:11.000Z</time>
        <extensions>
          <ns3:TrackPointExtension>
            <ns3:atemp>21.0</ns3:atemp>
          </ns3:TrackPointExtension>
        </extensions>
      </trkpt>
      <trkpt lat="42.51599080860614776611328125" lon="20.00879385508596897125244140625">
        <ele>1924.4000244140625</ele>
        <time>2026-06-19T10:01:12.000Z</time>
        <extensions>
          <ns3:TrackPointExtension>
            <ns3:atemp>21.0</ns3:atemp>
          </ns3:TrackPointExtension>
        </extensions>
      </trkpt>
      <trkpt lat="42.51601033844053745269775390625" lon="20.008804835379123687744140625">
        <ele>1924.5999755859375</ele>
        <time>2026-06-19T10:01:13.000Z</time>
        <extensions>
          <ns3:TrackPointExtension>
            <ns3:atemp>21.0</ns3:atemp>
          </ns3:TrackPointExtension>
        </extensions>
      </trkpt>
      <trkpt lat="42.5160285271704196929931640625" lon="20.0088167376816272735595703125">
        <ele>1924.800048828125</ele>
        <time>2026-06-19T10:01:14.000Z</time>
        <extensions>
          <ns3:TrackPointExtension>
            <ns3:atemp>21.0</ns3:atemp>
          </ns3:TrackPointExtension>
        </extensions>
      </trkpt>
      <trkpt lat="42.51604923047125339508056640625" lon="20.0088272988796234130859375">
        <ele>1925</ele>
        <time>2026-06-19T10:01:15.000Z</time>
        <extensions>
          <ns3:TrackPointExtension>
            <ns3:atemp>21.0</ns3:atemp>
          </ns3:TrackPointExtension>
        </extensions>
      </trkpt>
      <trkpt lat="42.51607269980013370513916015625" lon="20.008836351335048675537109375">
        <ele>1925.199951171875</ele>
        <time>2026-06-19T10:01:16.000Z</time>
        <extensions>
          <ns3:TrackPointExtension>
            <ns3:atemp>21.0</ns3:atemp>
          </ns3:TrackPointExtension>
        </extensions>
      </trkpt>
      <trkpt lat="42.5160969235002994537353515625" lon="20.008845068514347076416015625">
        <ele>1925.4000244140625</ele>
        <time>2026-06-19T10:01:17.000Z</time>
        <extensions>
          <ns3:TrackPointExtension>
            <ns3:atemp>21.0</ns3:atemp>
          </ns3:TrackPointExtension>
        </extensions>
      </trkpt>
      <trkpt lat="42.5161163695156574249267578125" lon="20.00885789282619953155517578125">
        <ele>1925.4000244140625</ele>
        <time>2026-06-19T10:01:18.000Z</time>
        <extensions>
          <ns3:TrackPointExtension>
            <ns3:atemp>21.0</ns3:atemp>
          </ns3:TrackPointExtension>
        </extensions>
      </trkpt>
      <trkpt lat="42.51613221131265163421630859375" lon="20.0088693760335445404052734375">
        <ele>1925.5999755859375</ele>
        <time>2026-06-19T10:01:19.000Z</time>
        <extensions>
          <ns3:TrackPointExtension>
            <ns3:atemp>21.0</ns3:atemp>
          </ns3:TrackPointExtension>
        </extensions>
      </trkpt>
      <trkpt lat="42.51615182496607303619384765625" lon="20.0088854692876338958740234375">
        <ele>1925.800048828125</ele>
        <time>2026-06-19T10:01:20.000Z</time>
        <extensions>
          <ns3:TrackPointExtension>
            <ns3:atemp>21.0</ns3:atemp>
          </ns3:TrackPointExtension>
        </extensions>
      </trkpt>
      <trkpt lat="42.51617009751498699188232421875" lon="20.00890516676008701324462890625">
        <ele>1926</ele>
        <time>2026-06-19T10:01:21.000Z</time>
        <extensions>
          <ns3:TrackPointExtension>
            <ns3:atemp>21.0</ns3:atemp>
          </ns3:TrackPointExtension>
        </extensions>
      </trkpt>
      <trkpt lat="42.51618652604520320892333984375" lon="20.00892050564289093017578125">
        <ele>1926.199951171875</ele>
        <time>2026-06-19T10:01:22.000Z</time>
        <extensions>
          <ns3:TrackPointExtension>
            <ns3:atemp>21.0</ns3:atemp>
          </ns3:TrackPointExtension>
        </extensions>
      </trkpt>
      <trkpt lat="42.5162028707563877105712890625" lon="20.0089359283447265625">
        <ele>1926.4000244140625</ele>
        <time>2026-06-19T10:01:23.000Z</time>
        <extensions>
          <ns3:TrackPointExtension>
            <ns3:atemp>21.0</ns3:atemp>
          </ns3:TrackPointExtension>
        </extensions>
      </trkpt>
      <trkpt lat="42.5162203051149845123291015625" lon="20.0089505128562450408935546875">
        <ele>1926.5999755859375</ele>
        <time>2026-06-19T10:01:24.000Z</time>
        <extensions>
          <ns3:TrackPointExtension>
            <ns3:atemp>21.0</ns3:atemp>
          </ns3:TrackPointExtension>
        </extensions>
      </trkpt>
      <trkpt lat="42.51623916439712047576904296875" lon="20.0089656002819538116455078125">
        <ele>1926.800048828125</ele>
        <time>2026-06-19T10:01:25.000Z</time>
        <extensions>
          <ns3:TrackPointExtension>
            <ns3:atemp>21.0</ns3:atemp>
          </ns3:TrackPointExtension>
        </extensions>
      </trkpt>
      <trkpt lat="42.51625978387892246246337890625" lon="20.0089820288121700286865234375">
        <ele>1927</ele>
        <time>2026-06-19T10:01:26.000Z</time>
        <extensions>
          <ns3:TrackPointExtension>
            <ns3:atemp>21.0</ns3:atemp>
          </ns3:TrackPointExtension>
        </extensions>
      </trkpt>
      <trkpt lat="42.51628124155104160308837890625" lon="20.0090024806559085845947265625">
        <ele>1927</ele>
        <time>2026-06-19T10:01:27.000Z</time>
        <extensions>
          <ns3:TrackPointExtension>
            <ns3:atemp>21.0</ns3:atemp>
          </ns3:TrackPointExtension>
        </extensions>
      </trkpt>
      <trkpt lat="42.51630286686122417449951171875" lon="20.009022764861583709716796875">
        <ele>1927.199951171875</ele>
        <time>2026-06-19T10:01:28.000Z</time>
        <extensions>
          <ns3:TrackPointExtension>
            <ns3:atemp>21.0</ns3:atemp>
          </ns3:TrackPointExtension>
        </extensions>
      </trkpt>
      <trkpt lat="42.51632834784686565399169921875" lon="20.00904330052435398101806640625">
        <ele>1927.199951171875</ele>
        <time>2026-06-19T10:01:29.000Z</time>
        <extensions>
          <ns3:TrackPointExtension>
            <ns3:atemp>21.0</ns3:atemp>
          </ns3:TrackPointExtension>
        </extensions>
      </trkpt>
      <trkpt lat="42.51635416410863399505615234375" lon="20.0090594775974750518798828125">
        <ele>1927.199951171875</ele>
        <time>2026-06-19T10:01:30.000Z</time>
        <extensions>
          <ns3:TrackPointExtension>
            <ns3:atemp>21.0</ns3:atemp>
          </ns3:TrackPointExtension>
        </extensions>
      </trkpt>
      <trkpt lat="42.51637880690395832061767578125" lon="20.00907749868929386138916015625">
        <ele>1927.4000244140625</ele>
        <time>2026-06-19T10:01:31.000Z</time>
        <extensions>
          <ns3:TrackPointExtension>
            <ns3:atemp>21.0</ns3:atemp>
          </ns3:TrackPointExtension>
        </extensions>
      </trkpt>
      <trkpt lat="42.5164016894996166229248046875" lon="20.0090963579714298248291015625">
        <ele>1927.4000244140625</ele>
        <time>2026-06-19T10:01:32.000Z</time>
        <extensions>
          <ns3:TrackPointExtension>
            <ns3:atemp>21.0</ns3:atemp>
          </ns3:TrackPointExtension>
        </extensions>
      </trkpt>
      <trkpt lat="42.5164224766194820404052734375" lon="20.00911504961550235748291015625">
        <ele>1927.5999755859375</ele>
        <time>2026-06-19T10:01:33.000Z</time>
        <extensions>
          <ns3:TrackPointExtension>
            <ns3:atemp>21.0</ns3:atemp>
          </ns3:TrackPointExtension>
        </extensions>
      </trkpt>
      <trkpt lat="42.51644502393901348114013671875" lon="20.00913105905055999755859375">
        <ele>1927.5999755859375</ele>
        <time>2026-06-19T10:01:34.000Z</time>
        <extensions>
          <ns3:TrackPointExtension>
            <ns3:atemp>21.0</ns3:atemp>
          </ns3:TrackPointExtension>
        </extensions>
      </trkpt>
      <trkpt lat="42.516464553773403167724609375" lon="20.0091526843607425689697265625">
        <ele>1927.800048828125</ele>
        <time>2026-06-19T10:01:35.000Z</time>
        <extensions>
          <ns3:TrackPointExtension>
            <ns3:atemp>21.0</ns3:atemp>
          </ns3:TrackPointExtension>
        </extensions>
      </trkpt>
      <trkpt lat="42.516481988131999969482421875" lon="20.00917623750865459442138671875">
        <ele>1928</ele>
        <time>2026-06-19T10:01:36.000Z</time>
        <extensions>
          <ns3:TrackPointExtension>
            <ns3:atemp>21.0</ns3:atemp>
          </ns3:TrackPointExtension>
        </extensions>
      </trkpt>
      <trkpt lat="42.51649766229093074798583984375" lon="20.009195767343044281005859375">
        <ele>1928.199951171875</ele>
        <time>2026-06-19T10:01:37.000Z</time>
        <extensions>
          <ns3:TrackPointExtension>
            <ns3:atemp>21.0</ns3:atemp>
          </ns3:TrackPointExtension>
        </extensions>
      </trkpt>
      <trkpt lat="42.51651476137340068817138671875" lon="20.00921613536775112152099609375">
        <ele>1928.199951171875</ele>
        <time>2026-06-19T10:01:38.000Z</time>
        <extensions>
          <ns3:TrackPointExtension>
            <ns3:atemp>21.0</ns3:atemp>
          </ns3:TrackPointExtension>
        </extensions>
      </trkpt>
      <trkpt lat="42.51652917824685573577880859375" lon="20.00924262218177318572998046875">
        <ele>1928.4000244140625</ele>
        <time>2026-06-19T10:01:39.000Z</time>
        <extensions>
          <ns3:TrackPointExtension>
            <ns3:atemp>21.0</ns3:atemp>
          </ns3:TrackPointExtension>
        </extensions>
      </trkpt>
      <trkpt lat="42.51654225401580333709716796875" lon="20.009270869195461273193359375">
        <ele>1928.5999755859375</ele>
        <time>2026-06-19T10:01:40.000Z</time>
        <extensions>
          <ns3:TrackPointExtension>
            <ns3:atemp>21.0</ns3:atemp>
          </ns3:TrackPointExtension>
        </extensions>
      </trkpt>
      <trkpt lat="42.516556419432163238525390625" lon="20.0092948414385318756103515625">
        <ele>1928.800048828125</ele>
        <time>2026-06-19T10:01:41.000Z</time>
        <extensions>
          <ns3:TrackPointExtension>
            <ns3:atemp>21.0</ns3:atemp>
          </ns3:TrackPointExtension>
        </extensions>
      </trkpt>
      <trkpt lat="42.516569159924983978271484375" lon="20.0093132816255092620849609375">
        <ele>1929</ele>
        <time>2026-06-19T10:01:42.000Z</time>
        <extensions>
          <ns3:TrackPointExtension>
            <ns3:atemp>21.0</ns3:atemp>
          </ns3:TrackPointExtension>
        </extensions>
      </trkpt>
      <trkpt lat="42.51658131368458271026611328125" lon="20.0093290396034717559814453125">
        <ele>1929.199951171875</ele>
        <time>2026-06-19T10:01:43.000Z</time>
        <extensions>
          <ns3:TrackPointExtension>
            <ns3:atemp>21.0</ns3:atemp>
          </ns3:TrackPointExtension>
        </extensions>
      </trkpt>
      <trkpt lat="42.51659405417740345001220703125" lon="20.00935007818043231964111328125">
        <ele>1929.4000244140625</ele>
        <time>2026-06-19T10:01:44.000Z</time>
        <extensions>
          <ns3:TrackPointExtension>
            <ns3:atemp>21.0</ns3:atemp>
          </ns3:TrackPointExtension>
        </extensions>
      </trkpt>
      <trkpt lat="42.51660997979342937469482421875" lon="20.0093722902238368988037109375">
        <ele>1929.5999755859375</ele>
        <time>2026-06-19T10:01:45.000Z</time>
        <extensions>
          <ns3:TrackPointExtension>
            <ns3:atemp>21.0</ns3:atemp>
          </ns3:TrackPointExtension>
        </extensions>
      </trkpt>
      <trkpt lat="42.51662372611463069915771484375" lon="20.00939668156206607818603515625">
        <ele>1929.800048828125</ele>
        <time>2026-06-19T10:01:46.000Z</time>
        <extensions>
          <ns3:TrackPointExtension>
            <ns3:atemp>21.0</ns3:atemp>
          </ns3:TrackPointExtension>
        </extensions>
      </trkpt>
      <trkpt lat="42.5166404061019420623779296875" lon="20.00941562466323375701904296875">
        <ele>1930.199951171875</ele>
        <time>2026-06-19T10:01:47.000Z</time>
        <extensions>
          <ns3:TrackPointExtension>
            <ns3:atemp>21.0</ns3:atemp>
          </ns3:TrackPointExtension>
        </extensions>
      </trkpt>
      <trkpt lat="42.5166568346321582794189453125" lon="20.00943993218243122100830078125">
        <ele>1930.4000244140625</ele>
        <time>2026-06-19T10:01:48.000Z</time>
        <extensions>
          <ns3:TrackPointExtension>
            <ns3:atemp>21.0</ns3:atemp>
          </ns3:TrackPointExtension>
        </extensions>
      </trkpt>
      <trkpt lat="42.51667384989559650421142578125" lon="20.0094641558825969696044921875">
        <ele>1930.5999755859375</ele>
        <time>2026-06-19T10:01:49.000Z</time>
        <extensions>
          <ns3:TrackPointExtension>
            <ns3:atemp>21.0</ns3:atemp>
          </ns3:TrackPointExtension>
        </extensions>
      </trkpt>
      <trkpt lat="42.5166933797299861907958984375" lon="20.0094896368682384490966796875">
        <ele>1931</ele>
        <time>2026-06-19T10:01:50.000Z</time>
        <extensions>
          <ns3:TrackPointExtension>
            <ns3:atemp>21.0</ns3:atemp>
          </ns3:TrackPointExtension>
        </extensions>
      </trkpt>
      <trkpt lat="42.51670964062213897705078125" lon="20.00951821915805339813232421875">
        <ele>1931.199951171875</ele>
        <time>2026-06-19T10:01:51.000Z</time>
        <extensions>
          <ns3:TrackPointExtension>
            <ns3:atemp>21.0</ns3:atemp>
          </ns3:TrackPointExtension>
        </extensions>
      </trkpt>
      <trkpt lat="42.51672648824751377105712890625" lon="20.009544789791107177734375">
        <ele>1931.4000244140625</ele>
        <time>2026-06-19T10:01:52.000Z</time>
        <extensions>
          <ns3:TrackPointExtension>
            <ns3:atemp>21.0</ns3:atemp>
          </ns3:TrackPointExtension>
        </extensions>
      </trkpt>
      <trkpt lat="42.5167446769773960113525390625" lon="20.009566582739353179931640625">
        <ele>1931.5999755859375</ele>
        <time>2026-06-19T10:01:53.000Z</time>
        <extensions>
          <ns3:TrackPointExtension>
            <ns3:atemp>21.0</ns3:atemp>
          </ns3:TrackPointExtension>
        </extensions>
      </trkpt>
      <trkpt lat="42.51676387153565883636474609375" lon="20.00958644784986972808837890625">
        <ele>1931.800048828125</ele>
        <time>2026-06-19T10:01:54.000Z</time>
        <extensions>
          <ns3:TrackPointExtension>
            <ns3:atemp>21.0</ns3:atemp>
          </ns3:TrackPointExtension>
        </extensions>
      </trkpt>
      <trkpt lat="42.51678340137004852294921875" lon="20.009608156979084014892578125">
        <ele>1932</ele>
        <time>2026-06-19T10:01:55.000Z</time>
        <extensions>
          <ns3:TrackPointExtension>
            <ns3:atemp>21.0</ns3:atemp>
          </ns3:TrackPointExtension>
        </extensions>
      </trkpt>
      <trkpt lat="42.51680376939475536346435546875" lon="20.00962802208960056304931640625">
        <ele>1932.4000244140625</ele>
        <time>2026-06-19T10:01:56.000Z</time>
        <extensions>
          <ns3:TrackPointExtension>
            <ns3:atemp>21.0</ns3:atemp>
          </ns3:TrackPointExtension>
        </extensions>
      </trkpt>
      <trkpt lat="42.51682824455201625823974609375" lon="20.009649060666561126708984375">
        <ele>1932.5999755859375</ele>
        <time>2026-06-19T10:01:57.000Z</time>
        <extensions>
          <ns3:TrackPointExtension>
            <ns3:atemp>21.0</ns3:atemp>
          </ns3:TrackPointExtension>
        </extensions>
      </trkpt>
      <trkpt lat="42.5168533064424991607666015625" lon="20.0096626393496990203857421875">
        <ele>1933</ele>
        <time>2026-06-19T10:01:58.000Z</time>
        <extensions>
          <ns3:TrackPointExtension>
            <ns3:atemp>21.0</ns3:atemp>
          </ns3:TrackPointExtension>
        </extensions>
      </trkpt>
      <trkpt lat="42.51687518320977687835693359375" lon="20.00967085361480712890625">
        <ele>1933.199951171875</ele>
        <time>2026-06-19T10:01:59.000Z</time>
        <extensions>
          <ns3:TrackPointExtension>
            <ns3:atemp>21.0</ns3:atemp>
          </ns3:TrackPointExtension>
        </extensions>
      </trkpt>
      <trkpt lat="42.51689664088189601898193359375" lon="20.0096804089844226837158203125">
        <ele>1933.4000244140625</ele>
        <time>2026-06-19T10:02:00.000Z</time>
        <extensions>
          <ns3:TrackPointExtension>
            <ns3:atemp>21.0</ns3:atemp>
          </ns3:TrackPointExtension>
        </extensions>
      </trkpt>
      <trkpt lat="42.51691692508757114410400390625" lon="20.0096904672682285308837890625">
        <ele>1933.5999755859375</ele>
        <time>2026-06-19T10:02:01.000Z</time>
        <extensions>
          <ns3:TrackPointExtension>
            <ns3:atemp>20.0</ns3:atemp>
          </ns3:TrackPointExtension>
        </extensions>
      </trkpt>
      <trkpt lat="42.516942657530307769775390625" lon="20.009691976010799407958984375">
        <ele>1933.800048828125</ele>
        <time>2026-06-19T10:02:02.000Z</time>
        <extensions>
          <ns3:TrackPointExtension>
            <ns3:atemp>21.0</ns3:atemp>
          </ns3:TrackPointExtension>
        </extensions>
      </trkpt>
      <trkpt lat="42.51696771942079067230224609375" lon="20.0096951611340045928955078125">
        <ele>1934</ele>
        <time>2026-06-19T10:02:03.000Z</time>
        <extensions>
          <ns3:TrackPointExtension>
            <ns3:atemp>21.0</ns3:atemp>
          </ns3:TrackPointExtension>
        </extensions>
      </trkpt>
      <trkpt lat="42.51699152402579784393310546875" lon="20.00969968736171722412109375">
        <ele>1934.199951171875</ele>
        <time>2026-06-19T10:02:04.000Z</time>
        <extensions>
          <ns3:TrackPointExtension>
            <ns3:atemp>21.0</ns3:atemp>
          </ns3:TrackPointExtension>
        </extensions>
      </trkpt>
      <trkpt lat="42.51701415516436100006103515625" lon="20.00970379449427127838134765625">
        <ele>1934.4000244140625</ele>
        <time>2026-06-19T10:02:05.000Z</time>
        <extensions>
          <ns3:TrackPointExtension>
            <ns3:atemp>20.0</ns3:atemp>
          </ns3:TrackPointExtension>
        </extensions>
      </trkpt>
      <trkpt lat="42.5170387141406536102294921875" lon="20.0097089074552059173583984375">
        <ele>1934.5999755859375</ele>
        <time>2026-06-19T10:02:06.000Z</time>
        <extensions>
          <ns3:TrackPointExtension>
            <ns3:atemp>20.0</ns3:atemp>
          </ns3:TrackPointExtension>
        </extensions>
      </trkpt>
      <trkpt lat="42.517064698040485382080078125" lon="20.0097092427313327789306640625">
        <ele>1934.800048828125</ele>
        <time>2026-06-19T10:02:07.000Z</time>
        <extensions>
          <ns3:TrackPointExtension>
            <ns3:atemp>20.0</ns3:atemp>
          </ns3:TrackPointExtension>
        </extensions>
      </trkpt>
      <trkpt lat="42.5170910172164440155029296875" lon="20.00970882363617420196533203125">
        <ele>1935.199951171875</ele>
        <time>2026-06-19T10:02:08.000Z</time>
        <extensions>
          <ns3:TrackPointExtension>
            <ns3:atemp>20.0</ns3:atemp>
          </ns3:TrackPointExtension>
        </extensions>
      </trkpt>
      <trkpt lat="42.51711004413664340972900390625" lon="20.00970982946455478668212890625">
        <ele>1935.4000244140625</ele>
        <time>2026-06-19T10:02:09.000Z</time>
        <extensions>
          <ns3:TrackPointExtension>
            <ns3:atemp>20.0</ns3:atemp>
          </ns3:TrackPointExtension>
        </extensions>
      </trkpt>
      <trkpt lat="42.5171295739710330963134765625" lon="20.00971334986388683319091796875">
        <ele>1935.800048828125</ele>
        <time>2026-06-19T10:02:10.000Z</time>
        <extensions>
          <ns3:TrackPointExtension>
            <ns3:atemp>20.0</ns3:atemp>
          </ns3:TrackPointExtension>
        </extensions>
      </trkpt>
      <trkpt lat="42.5171557255089282989501953125" lon="20.0097216479480266571044921875">
        <ele>1936.199951171875</ele>
        <time>2026-06-19T10:02:11.000Z</time>
        <extensions>
          <ns3:TrackPointExtension>
            <ns3:atemp>20.0</ns3:atemp>
          </ns3:TrackPointExtension>
        </extensions>
      </trkpt>
      <trkpt lat="42.5171823799610137939453125" lon="20.00972458161413669586181640625">
        <ele>1936.5999755859375</ele>
        <time>2026-06-19T10:02:12.000Z</time>
        <extensions>
          <ns3:TrackPointExtension>
            <ns3:atemp>20.0</ns3:atemp>
          </ns3:TrackPointExtension>
        </extensions>
      </trkpt>
      <trkpt lat="42.5172078609466552734375" lon="20.00972709618508815765380859375">
        <ele>1937</ele>
        <time>2026-06-19T10:02:13.000Z</time>
        <extensions>
          <ns3:TrackPointExtension>
            <ns3:atemp>20.0</ns3:atemp>
          </ns3:TrackPointExtension>
        </extensions>
      </trkpt>
      <trkpt lat="42.5172351859509944915771484375" lon="20.0097357295453548431396484375">
        <ele>1937.199951171875</ele>
        <time>2026-06-19T10:02:14.000Z</time>
        <extensions>
          <ns3:TrackPointExtension>
            <ns3:atemp>20.0</ns3:atemp>
          </ns3:TrackPointExtension>
        </extensions>
      </trkpt>
      <trkpt lat="42.51726142130792140960693359375" lon="20.0097461231052875518798828125">
        <ele>1937.5999755859375</ele>
        <time>2026-06-19T10:02:15.000Z</time>
        <extensions>
          <ns3:TrackPointExtension>
            <ns3:atemp>20.0</ns3:atemp>
          </ns3:TrackPointExtension>
        </extensions>
      </trkpt>
      <trkpt lat="42.51728220842778682708740234375" lon="20.009763054549694061279296875">
        <ele>1937.800048828125</ele>
        <time>2026-06-19T10:02:16.000Z</time>
        <extensions>
          <ns3:TrackPointExtension>
            <ns3:atemp>20.0</ns3:atemp>
          </ns3:TrackPointExtension>
        </extensions>
      </trkpt>
      <trkpt lat="42.51730232499539852142333984375" lon="20.009778477251529693603515625">
        <ele>1937.800048828125</ele>
        <time>2026-06-19T10:02:17.000Z</time>
        <extensions>
          <ns3:TrackPointExtension>
            <ns3:atemp>20.0</ns3:atemp>
          </ns3:TrackPointExtension>
        </extensions>
      </trkpt>
      <trkpt lat="42.5173210166394710540771484375" lon="20.00979666598141193389892578125">
        <ele>1938</ele>
        <time>2026-06-19T10:02:18.000Z</time>
        <extensions>
          <ns3:TrackPointExtension>
            <ns3:atemp>20.0</ns3:atemp>
          </ns3:TrackPointExtension>
        </extensions>
      </trkpt>
      <trkpt lat="42.51734222285449504852294921875" lon="20.00981368124485015869140625">
        <ele>1938.199951171875</ele>
        <time>2026-06-19T10:02:19.000Z</time>
        <extensions>
          <ns3:TrackPointExtension>
            <ns3:atemp>20.0</ns3:atemp>
          </ns3:TrackPointExtension>
        </extensions>
      </trkpt>
      <trkpt lat="42.5173647701740264892578125" lon="20.00982709228992462158203125">
        <ele>1938.4000244140625</ele>
        <time>2026-06-19T10:02:20.000Z</time>
        <extensions>
          <ns3:TrackPointExtension>
            <ns3:atemp>20.0</ns3:atemp>
          </ns3:TrackPointExtension>
        </extensions>
      </trkpt>
      <trkpt lat="42.517378516495227813720703125" lon="20.00984184443950653076171875">
        <ele>1938.5999755859375</ele>
        <time>2026-06-19T10:02:21.000Z</time>
        <extensions>
          <ns3:TrackPointExtension>
            <ns3:atemp>20.0</ns3:atemp>
          </ns3:TrackPointExtension>
        </extensions>
      </trkpt>
      <trkpt lat="42.51739494502544403076171875" lon="20.00985969789326190948486328125">
        <ele>1938.800048828125</ele>
        <time>2026-06-19T10:02:22.000Z</time>
        <extensions>
          <ns3:TrackPointExtension>
            <ns3:atemp>20.0</ns3:atemp>
          </ns3:TrackPointExtension>
        </extensions>
      </trkpt>
      <trkpt lat="42.51741698943078517913818359375" lon="20.00987763516604900360107421875">
        <ele>1939</ele>
        <time>2026-06-19T10:02:23.000Z</time>
        <extensions>
          <ns3:TrackPointExtension>
            <ns3:atemp>20.0</ns3:atemp>
          </ns3:TrackPointExtension>
        </extensions>
      </trkpt>
      <trkpt lat="42.51743760891258716583251953125" lon="20.00989791937172412872314453125">
        <ele>1939.4000244140625</ele>
        <time>2026-06-19T10:02:24.000Z</time>
        <extensions>
          <ns3:TrackPointExtension>
            <ns3:atemp>20.0</ns3:atemp>
          </ns3:TrackPointExtension>
        </extensions>
      </trkpt>
      <trkpt lat="42.5174598209559917449951171875" lon="20.0099181197583675384521484375">
        <ele>1939.4000244140625</ele>
        <time>2026-06-19T10:02:25.000Z</time>
        <extensions>
          <ns3:TrackPointExtension>
            <ns3:atemp>20.0</ns3:atemp>
          </ns3:TrackPointExtension>
        </extensions>
      </trkpt>
      <trkpt lat="42.51747901551425457000732421875" lon="20.00993865542113780975341796875">
        <ele>1939.5999755859375</ele>
        <time>2026-06-19T10:02:26.000Z</time>
        <extensions>
          <ns3:TrackPointExtension>
            <ns3:atemp>20.0</ns3:atemp>
          </ns3:TrackPointExtension>
        </extensions>
      </trkpt>
      <trkpt lat="42.5175010599195957183837890625" lon="20.0099573470652103424072265625">
        <ele>1939.800048828125</ele>
        <time>2026-06-19T10:02:27.000Z</time>
        <extensions>
          <ns3:TrackPointExtension>
            <ns3:atemp>20.0</ns3:atemp>
          </ns3:TrackPointExtension>
        </extensions>
      </trkpt>
      <trkpt lat="42.51752276904881000518798828125" lon="20.0099767930805683135986328125">
        <ele>1940</ele>
        <time>2026-06-19T10:02:28.000Z</time>
        <extensions>
          <ns3:TrackPointExtension>
            <ns3:atemp>20.0</ns3:atemp>
          </ns3:TrackPointExtension>
        </extensions>
      </trkpt>
      <trkpt lat="42.51754246652126312255859375" lon="20.0099938921630382537841796875">
        <ele>1940.199951171875</ele>
        <time>2026-06-19T10:02:29.000Z</time>
        <extensions>
          <ns3:TrackPointExtension>
            <ns3:atemp>20.0</ns3:atemp>
          </ns3:TrackPointExtension>
        </extensions>
      </trkpt>
      <trkpt lat="42.51756501384079456329345703125" lon="20.01001627184450626373291015625">
        <ele>1940.4000244140625</ele>
        <time>2026-06-19T10:02:30.000Z</time>
        <extensions>
          <ns3:TrackPointExtension>
            <ns3:atemp>20.0</ns3:atemp>
          </ns3:TrackPointExtension>
        </extensions>
      </trkpt>
      <trkpt lat="42.517587728798389434814453125" lon="20.01003705896437168121337890625">
        <ele>1940.5999755859375</ele>
        <time>2026-06-19T10:02:31.000Z</time>
        <extensions>
          <ns3:TrackPointExtension>
            <ns3:atemp>20.0</ns3:atemp>
          </ns3:TrackPointExtension>
        </extensions>
      </trkpt>
      <trkpt lat="42.51761195249855518341064453125" lon="20.0100529007613658905029296875">
        <ele>1940.800048828125</ele>
        <time>2026-06-19T10:02:32.000Z</time>
        <extensions>
          <ns3:TrackPointExtension>
            <ns3:atemp>20.0</ns3:atemp>
          </ns3:TrackPointExtension>
        </extensions>
      </trkpt>
      <trkpt lat="42.51763391308486461639404296875" lon="20.01006505452096462249755859375">
        <ele>1941</ele>
        <time>2026-06-19T10:02:33.000Z</time>
        <extensions>
          <ns3:TrackPointExtension>
            <ns3:atemp>20.0</ns3:atemp>
          </ns3:TrackPointExtension>
        </extensions>
      </trkpt>
      <trkpt lat="42.51765285618603229522705078125" lon="20.01007913611829280853271484375">
        <ele>1941.199951171875</ele>
        <time>2026-06-19T10:02:34.000Z</time>
        <extensions>
          <ns3:TrackPointExtension>
            <ns3:atemp>20.0</ns3:atemp>
          </ns3:TrackPointExtension>
        </extensions>
      </trkpt>
      <trkpt lat="42.5176705420017242431640625" lon="20.01009221188724040985107421875">
        <ele>1941.4000244140625</ele>
        <time>2026-06-19T10:02:35.000Z</time>
        <extensions>
          <ns3:TrackPointExtension>
            <ns3:atemp>20.0</ns3:atemp>
          </ns3:TrackPointExtension>
        </extensions>
      </trkpt>
      <trkpt lat="42.5176925025880336761474609375" lon="20.01010897569358348846435546875">
        <ele>1941.5999755859375</ele>
        <time>2026-06-19T10:02:36.000Z</time>
        <extensions>
          <ns3:TrackPointExtension>
            <ns3:atemp>20.0</ns3:atemp>
          </ns3:TrackPointExtension>
        </extensions>
      </trkpt>
      <trkpt lat="42.5177186541259288787841796875" lon="20.01012573949992656707763671875">
        <ele>1941.800048828125</ele>
        <time>2026-06-19T10:02:37.000Z</time>
        <extensions>
          <ns3:TrackPointExtension>
            <ns3:atemp>20.0</ns3:atemp>
          </ns3:TrackPointExtension>
        </extensions>
      </trkpt>
      <trkpt lat="42.5177434645593166351318359375" lon="20.010142587125301361083984375">
        <ele>1942</ele>
        <time>2026-06-19T10:02:38.000Z</time>
        <extensions>
          <ns3:TrackPointExtension>
            <ns3:atemp>20.0</ns3:atemp>
          </ns3:TrackPointExtension>
        </extensions>
      </trkpt>
      <trkpt lat="42.5177692808210849761962890625" lon="20.01016479916870594024658203125">
        <ele>1942.199951171875</ele>
        <time>2026-06-19T10:02:39.000Z</time>
        <extensions>
          <ns3:TrackPointExtension>
            <ns3:atemp>20.0</ns3:atemp>
          </ns3:TrackPointExtension>
        </extensions>
      </trkpt>
      <trkpt lat="42.517795599997043609619140625" lon="20.01018541865050792694091796875">
        <ele>1942.4000244140625</ele>
        <time>2026-06-19T10:02:40.000Z</time>
        <extensions>
          <ns3:TrackPointExtension>
            <ns3:atemp>20.0</ns3:atemp>
          </ns3:TrackPointExtension>
        </extensions>
      </trkpt>
      <trkpt lat="42.51781781204044818878173828125" lon="20.01019857823848724365234375">
        <ele>1942.800048828125</ele>
        <time>2026-06-19T10:02:41.000Z</time>
        <extensions>
          <ns3:TrackPointExtension>
            <ns3:atemp>20.0</ns3:atemp>
          </ns3:TrackPointExtension>
        </extensions>
      </trkpt>
      <trkpt lat="42.51784144900739192962646484375" lon="20.010219030082225799560546875">
        <ele>1943</ele>
        <time>2026-06-19T10:02:42.000Z</time>
        <extensions>
          <ns3:TrackPointExtension>
            <ns3:atemp>20.0</ns3:atemp>
          </ns3:TrackPointExtension>
        </extensions>
      </trkpt>
      <trkpt lat="42.51786441542208194732666015625" lon="20.010239146649837493896484375">
        <ele>1943.4000244140625</ele>
        <time>2026-06-19T10:02:43.000Z</time>
        <extensions>
          <ns3:TrackPointExtension>
            <ns3:atemp>20.0</ns3:atemp>
          </ns3:TrackPointExtension>
        </extensions>
      </trkpt>
      <trkpt lat="42.51788444817066192626953125" lon="20.010262615978717803955078125">
        <ele>1943.5999755859375</ele>
        <time>2026-06-19T10:02:44.000Z</time>
        <extensions>
          <ns3:TrackPointExtension>
            <ns3:atemp>20.0</ns3:atemp>
          </ns3:TrackPointExtension>
        </extensions>
      </trkpt>
      <trkpt lat="42.51790632493793964385986328125" lon="20.01028851605951786041259765625">
        <ele>1943.800048828125</ele>
        <time>2026-06-19T10:02:45.000Z</time>
        <extensions>
          <ns3:TrackPointExtension>
            <ns3:atemp>20.0</ns3:atemp>
          </ns3:TrackPointExtension>
        </extensions>
      </trkpt>
      <trkpt lat="42.51792543567717075347900390625" lon="20.010314248502254486083984375">
        <ele>1944</ele>
        <time>2026-06-19T10:02:46.000Z</time>
        <extensions>
          <ns3:TrackPointExtension>
            <ns3:atemp>20.0</ns3:atemp>
          </ns3:TrackPointExtension>
        </extensions>
      </trkpt>
      <trkpt lat="42.5179468095302581787109375" lon="20.01033511944115161895751953125">
        <ele>1944.199951171875</ele>
        <time>2026-06-19T10:02:47.000Z</time>
        <extensions>
          <ns3:TrackPointExtension>
            <ns3:atemp>20.0</ns3:atemp>
          </ns3:TrackPointExtension>
        </extensions>
      </trkpt>
      <trkpt lat="42.51797354780137538909912109375" lon="20.0103543139994144439697265625">
        <ele>1944.4000244140625</ele>
        <time>2026-06-19T10:02:48.000Z</time>
        <extensions>
          <ns3:TrackPointExtension>
            <ns3:atemp>20.0</ns3:atemp>
          </ns3:TrackPointExtension>
        </extensions>
      </trkpt>
      <trkpt lat="42.51799752004444599151611328125" lon="20.01037417910993099212646484375">
        <ele>1944.5999755859375</ele>
        <time>2026-06-19T10:02:49.000Z</time>
        <extensions>
          <ns3:TrackPointExtension>
            <ns3:atemp>20.0</ns3:atemp>
          </ns3:TrackPointExtension>
        </extensions>
      </trkpt>
      <trkpt lat="42.5180219113826751708984375" lon="20.010390020906925201416015625">
        <ele>1944.800048828125</ele>
        <time>2026-06-19T10:02:50.000Z</time>
        <extensions>
          <ns3:TrackPointExtension>
            <ns3:atemp>20.0</ns3:atemp>
          </ns3:TrackPointExtension>
        </extensions>
      </trkpt>
      <trkpt lat="42.51804613508284091949462890625" lon="20.01040083356201648712158203125">
        <ele>1945</ele>
        <time>2026-06-19T10:02:51.000Z</time>
        <extensions>
          <ns3:TrackPointExtension>
            <ns3:atemp>20.0</ns3:atemp>
          </ns3:TrackPointExtension>
        </extensions>
      </trkpt>
      <trkpt lat="42.5180710293352603912353515625" lon="20.010404102504253387451171875">
        <ele>1945.199951171875</ele>
        <time>2026-06-19T10:02:52.000Z</time>
        <extensions>
          <ns3:TrackPointExtension>
            <ns3:atemp>20.0</ns3:atemp>
          </ns3:TrackPointExtension>
        </extensions>
      </trkpt>
      <trkpt lat="42.51809776760637760162353515625" lon="20.01041114330291748046875">
        <ele>1945.4000244140625</ele>
        <time>2026-06-19T10:02:53.000Z</time>
        <extensions>
          <ns3:TrackPointExtension>
            <ns3:atemp>20.0</ns3:atemp>
          </ns3:TrackPointExtension>
        </extensions>
      </trkpt>
      <trkpt lat="42.51812727190554141998291015625" lon="20.01041541807353496551513671875">
        <ele>1945.5999755859375</ele>
        <time>2026-06-19T10:02:54.000Z</time>
        <extensions>
          <ns3:TrackPointExtension>
            <ns3:atemp>20.0</ns3:atemp>
          </ns3:TrackPointExtension>
        </extensions>
      </trkpt>
      <trkpt lat="42.51815811730921268463134765625" lon="20.010418184101581573486328125">
        <ele>1945.800048828125</ele>
        <time>2026-06-19T10:02:55.000Z</time>
        <extensions>
          <ns3:TrackPointExtension>
            <ns3:atemp>20.0</ns3:atemp>
          </ns3:TrackPointExtension>
        </extensions>
      </trkpt>
      <trkpt lat="42.51818795688450336456298828125" lon="20.01042254269123077392578125">
        <ele>1946.199951171875</ele>
        <time>2026-06-19T10:02:56.000Z</time>
        <extensions>
          <ns3:TrackPointExtension>
            <ns3:atemp>20.0</ns3:atemp>
          </ns3:TrackPointExtension>
        </extensions>
      </trkpt>
      <trkpt lat="42.5182128511369228363037109375" lon="20.01042790710926055908203125">
        <ele>1946.4000244140625</ele>
        <time>2026-06-19T10:02:57.000Z</time>
        <extensions>
          <ns3:TrackPointExtension>
            <ns3:atemp>20.0</ns3:atemp>
          </ns3:TrackPointExtension>
        </extensions>
      </trkpt>
      <trkpt lat="42.51823975704610347747802734375" lon="20.0104384683072566986083984375">
        <ele>1946.4000244140625</ele>
        <time>2026-06-19T10:02:58.000Z</time>
        <extensions>
          <ns3:TrackPointExtension>
            <ns3:atemp>20.0</ns3:atemp>
          </ns3:TrackPointExtension>
        </extensions>
      </trkpt>
      <trkpt lat="42.518267668783664703369140625" lon="20.010454393923282623291015625">
        <ele>1946.5999755859375</ele>
        <time>2026-06-19T10:02:59.000Z</time>
        <extensions>
          <ns3:TrackPointExtension>
            <ns3:atemp>20.0</ns3:atemp>
          </ns3:TrackPointExtension>
        </extensions>
      </trkpt>
      <trkpt lat="42.51829943619668483734130859375" lon="20.01047224737703800201416015625">
        <ele>1946.5999755859375</ele>
        <time>2026-06-19T10:03:00.000Z</time>
        <extensions>
          <ns3:TrackPointExtension>
            <ns3:atemp>20.0</ns3:atemp>
          </ns3:TrackPointExtension>
        </extensions>
      </trkpt>
      <trkpt lat="42.518334053456783294677734375" lon="20.0104941241443157196044921875">
        <ele>1946.5999755859375</ele>
        <time>2026-06-19T10:03:01.000Z</time>
        <extensions>
          <ns3:TrackPointExtension>
            <ns3:atemp>20.0</ns3:atemp>
          </ns3:TrackPointExtension>
        </extensions>
      </trkpt>
      <trkpt lat="42.51837420277297496795654296875" lon="20.010520778596401214599609375">
        <ele>1946.4000244140625</ele>
        <time>2026-06-19T10:03:02.000Z</time>
        <extensions>
          <ns3:TrackPointExtension>
            <ns3:atemp>20.0</ns3:atemp>
          </ns3:TrackPointExtension>
        </extensions>
      </trkpt>
      <trkpt lat="42.518412508070468902587890625" lon="20.01055053435266017913818359375">
        <ele>1946.199951171875</ele>
        <time>2026-06-19T10:03:03.000Z</time>
        <extensions>
          <ns3:TrackPointExtension>
            <ns3:atemp>20.0</ns3:atemp>
          </ns3:TrackPointExtension>
        </extensions>
      </trkpt>
      <trkpt lat="42.518444359302520751953125" lon="20.01058942638337612152099609375">
        <ele>1946</ele>
        <time>2026-06-19T10:03:04.000Z</time>
        <extensions>
          <ns3:TrackPointExtension>
            <ns3:atemp>20.0</ns3:atemp>
          </ns3:TrackPointExtension>
        </extensions>
      </trkpt>
      <trkpt lat="42.51846112310886383056640625" lon="20.0106248818337917327880859375">
        <ele>1945.5999755859375</ele>
        <time>2026-06-19T10:03:05.000Z</time>
        <extensions>
          <ns3:TrackPointExtension>
            <ns3:atemp>20.0</ns3:atemp>
          </ns3:TrackPointExtension>
        </extensions>
      </trkpt>
      <trkpt lat="42.51847478561103343963623046875" lon="20.0106557272374629974365234375">
        <ele>1945.5999755859375</ele>
        <time>2026-06-19T10:03:06.000Z</time>
        <extensions>
          <ns3:TrackPointExtension>
            <ns3:atemp>20.0</ns3:atemp>
          </ns3:TrackPointExtension>
        </extensions>
      </trkpt>
      <trkpt lat="42.5184884481132030487060546875" lon="20.01068900339305400848388671875">
        <ele>1945.4000244140625</ele>
        <time>2026-06-19T10:03:07.000Z</time>
        <extensions>
          <ns3:TrackPointExtension>
            <ns3:atemp>20.0</ns3:atemp>
          </ns3:TrackPointExtension>
        </extensions>
      </trkpt>
      <trkpt lat="42.51851200126111507415771484375" lon="20.0107207708060741424560546875">
        <ele>1945.4000244140625</ele>
        <time>2026-06-19T10:03:08.000Z</time>
        <extensions>
          <ns3:TrackPointExtension>
            <ns3:atemp>20.0</ns3:atemp>
          </ns3:TrackPointExtension>
        </extensions>
      </trkpt>
      <trkpt lat="42.5185434333980083465576171875" lon="20.01075807027518749237060546875">
        <ele>1945.4000244140625</ele>
        <time>2026-06-19T10:03:09.000Z</time>
        <extensions>
          <ns3:TrackPointExtension>
            <ns3:atemp>20.0</ns3:atemp>
          </ns3:TrackPointExtension>
        </extensions>
      </trkpt>
      <trkpt lat="42.51858123578131198883056640625" lon="20.0107968784868717193603515625">
        <ele>1945.4000244140625</ele>
        <time>2026-06-19T10:03:10.000Z</time>
        <extensions>
          <ns3:TrackPointExtension>
            <ns3:atemp>20.0</ns3:atemp>
          </ns3:TrackPointExtension>
        </extensions>
      </trkpt>
      <trkpt lat="42.5186232291162014007568359375" lon="20.01082797534763813018798828125">
        <ele>1945.199951171875</ele>
        <time>2026-06-19T10:03:11.000Z</time>
        <extensions>
          <ns3:TrackPointExtension>
            <ns3:atemp>20.0</ns3:atemp>
          </ns3:TrackPointExtension>
        </extensions>
      </trkpt>
      <trkpt lat="42.51866522245109081268310546875" lon="20.01085798256099224090576171875">
        <ele>1945</ele>
        <time>2026-06-19T10:03:12.000Z</time>
        <extensions>
          <ns3:TrackPointExtension>
            <ns3:atemp>20.0</ns3:atemp>
          </ns3:TrackPointExtension>
        </extensions>
      </trkpt>
      <trkpt lat="42.51870595850050449371337890625" lon="20.0108874030411243438720703125">
        <ele>1944.800048828125</ele>
        <time>2026-06-19T10:03:13.000Z</time>
        <extensions>
          <ns3:TrackPointExtension>
            <ns3:atemp>20.0</ns3:atemp>
          </ns3:TrackPointExtension>
        </extensions>
      </trkpt>
      <trkpt lat="42.51873848028481006622314453125" lon="20.01092017628252506256103515625">
        <ele>1944.800048828125</ele>
        <time>2026-06-19T10:03:14.000Z</time>
        <extensions>
          <ns3:TrackPointExtension>
            <ns3:atemp>20.0</ns3:atemp>
          </ns3:TrackPointExtension>
        </extensions>
      </trkpt>
      <trkpt lat="42.518766224384307861328125" lon="20.01095789484679698944091796875">
        <ele>1944.800048828125</ele>
        <time>2026-06-19T10:03:15.000Z</time>
        <extensions>
          <ns3:TrackPointExtension>
            <ns3:atemp>20.0</ns3:atemp>
          </ns3:TrackPointExtension>
        </extensions>
      </trkpt>
      <trkpt lat="42.5187915377318859100341796875" lon="20.01099410466849803924560546875">
        <ele>1944.800048828125</ele>
        <time>2026-06-19T10:03:16.000Z</time>
        <extensions>
          <ns3:TrackPointExtension>
            <ns3:atemp>20.0</ns3:atemp>
          </ns3:TrackPointExtension>
        </extensions>
      </trkpt>
      <trkpt lat="42.51881559379398822784423828125" lon="20.0110241957008838653564453125">
        <ele>1944.800048828125</ele>
        <time>2026-06-19T10:03:17.000Z</time>
        <extensions>
          <ns3:TrackPointExtension>
            <ns3:atemp>20.0</ns3:atemp>
          </ns3:TrackPointExtension>
        </extensions>
      </trkpt>
      <trkpt lat="42.5188426673412322998046875" lon="20.01105998642742633819580078125">
        <ele>1944.800048828125</ele>
        <time>2026-06-19T10:03:18.000Z</time>
        <extensions>
          <ns3:TrackPointExtension>
            <ns3:atemp>20.0</ns3:atemp>
          </ns3:TrackPointExtension>
        </extensions>
      </trkpt>
      <trkpt lat="42.51887661404907703399658203125" lon="20.01109032891690731048583984375">
        <ele>1944.800048828125</ele>
        <time>2026-06-19T10:03:19.000Z</time>
        <extensions>
          <ns3:TrackPointExtension>
            <ns3:atemp>20.0</ns3:atemp>
          </ns3:TrackPointExtension>
        </extensions>
      </trkpt>
      <trkpt lat="42.518912740051746368408203125" lon="20.01111614517867565155029296875">
        <ele>1944.5999755859375</ele>
        <time>2026-06-19T10:03:20.000Z</time>
        <extensions>
          <ns3:TrackPointExtension>
            <ns3:atemp>20.0</ns3:atemp>
          </ns3:TrackPointExtension>
        </extensions>
      </trkpt>
      <trkpt lat="42.518946267664432525634765625" lon="20.0111475773155689239501953125">
        <ele>1944.4000244140625</ele>
        <time>2026-06-19T10:03:21.000Z</time>
        <extensions>
          <ns3:TrackPointExtension>
            <ns3:atemp>20.0</ns3:atemp>
          </ns3:TrackPointExtension>
        </extensions>
      </trkpt>
      <trkpt lat="42.51898356713354587554931640625" lon="20.01117398031055927276611328125">
        <ele>1944.4000244140625</ele>
        <time>2026-06-19T10:03:22.000Z</time>
        <extensions>
          <ns3:TrackPointExtension>
            <ns3:atemp>20.0</ns3:atemp>
          </ns3:TrackPointExtension>
        </extensions>
      </trkpt>
      <trkpt lat="42.5190212018787860870361328125" lon="20.01119728200137615203857421875">
        <ele>1944.199951171875</ele>
        <time>2026-06-19T10:03:23.000Z</time>
        <extensions>
          <ns3:TrackPointExtension>
            <ns3:atemp>20.0</ns3:atemp>
          </ns3:TrackPointExtension>
        </extensions>
      </trkpt>
      <trkpt lat="42.519061602652072906494140625" lon="20.01122091896831989288330078125">
        <ele>1944</ele>
        <time>2026-06-19T10:03:24.000Z</time>
        <extensions>
          <ns3:TrackPointExtension>
            <ns3:atemp>20.0</ns3:atemp>
          </ns3:TrackPointExtension>
        </extensions>
      </trkpt>
      <trkpt lat="42.519103176891803741455078125" lon="20.01124908216297626495361328125">
        <ele>1944</ele>
        <time>2026-06-19T10:03:25.000Z</time>
        <extensions>
          <ns3:TrackPointExtension>
            <ns3:atemp>20.0</ns3:atemp>
          </ns3:TrackPointExtension>
        </extensions>
      </trkpt>
      <trkpt lat="42.51914282329380512237548828125" lon="20.01127003692090511322021484375">
        <ele>1943.800048828125</ele>
        <time>2026-06-19T10:03:26.000Z</time>
        <extensions>
          <ns3:TrackPointExtension>
            <ns3:atemp>20.0</ns3:atemp>
          </ns3:TrackPointExtension>
        </extensions>
      </trkpt>
      <trkpt lat="42.51917886547744274139404296875" lon="20.0112883932888507843017578125">
        <ele>1943.800048828125</ele>
        <time>2026-06-19T10:03:27.000Z</time>
        <extensions>
          <ns3:TrackPointExtension>
            <ns3:atemp>20.0</ns3:atemp>
          </ns3:TrackPointExtension>
        </extensions>
      </trkpt>
      <trkpt lat="42.5192176736891269683837890625" lon="20.01131647266447544097900390625">
        <ele>1943.800048828125</ele>
        <time>2026-06-19T10:03:28.000Z</time>
        <extensions>
          <ns3:TrackPointExtension>
            <ns3:atemp>20.0</ns3:atemp>
          </ns3:TrackPointExtension>
        </extensions>
      </trkpt>
      <trkpt lat="42.5192589126527309417724609375" lon="20.0113380141556262969970703125">
        <ele>1943.5999755859375</ele>
        <time>2026-06-19T10:03:29.000Z</time>
        <extensions>
          <ns3:TrackPointExtension>
            <ns3:atemp>20.0</ns3:atemp>
          </ns3:TrackPointExtension>
        </extensions>
      </trkpt>
      <trkpt lat="42.51929671503603458404541015625" lon="20.01135234721004962921142578125">
        <ele>1943.5999755859375</ele>
        <time>2026-06-19T10:03:30.000Z</time>
        <extensions>
          <ns3:TrackPointExtension>
            <ns3:atemp>20.0</ns3:atemp>
          </ns3:TrackPointExtension>
        </extensions>
      </trkpt>
      <trkpt lat="42.51933460123836994171142578125" lon="20.01135871745645999908447265625">
        <ele>1943.5999755859375</ele>
        <time>2026-06-19T10:03:31.000Z</time>
        <extensions>
          <ns3:TrackPointExtension>
            <ns3:atemp>20.0</ns3:atemp>
          </ns3:TrackPointExtension>
        </extensions>
      </trkpt>
      <trkpt lat="42.51936946995556354522705078125" lon="20.0113641656935214996337890625">
        <ele>1943.5999755859375</ele>
        <time>2026-06-19T10:03:32.000Z</time>
        <extensions>
          <ns3:TrackPointExtension>
            <ns3:atemp>20.0</ns3:atemp>
          </ns3:TrackPointExtension>
        </extensions>
      </trkpt>
      <trkpt lat="42.51940282993018627166748046875" lon="20.0113646686077117919921875">
        <ele>1943.5999755859375</ele>
        <time>2026-06-19T10:03:33.000Z</time>
        <extensions>
          <ns3:TrackPointExtension>
            <ns3:atemp>20.0</ns3:atemp>
          </ns3:TrackPointExtension>
        </extensions>
      </trkpt>
      <trkpt lat="42.51943786628544330596923828125" lon="20.01135653816163539886474609375">
        <ele>1943.5999755859375</ele>
        <time>2026-06-19T10:03:34.000Z</time>
        <extensions>
          <ns3:TrackPointExtension>
            <ns3:atemp>20.0</ns3:atemp>
          </ns3:TrackPointExtension>
        </extensions>
      </trkpt>
      <trkpt lat="42.5194703042507171630859375" lon="20.01134547404944896697998046875">
        <ele>1943.4000244140625</ele>
        <time>2026-06-19T10:03:35.000Z</time>
        <extensions>
          <ns3:TrackPointExtension>
            <ns3:atemp>20.0</ns3:atemp>
          </ns3:TrackPointExtension>
        </extensions>
      </trkpt>
      <trkpt lat="42.51951212994754314422607421875" lon="20.01132569275796413421630859375">
        <ele>1943</ele>
        <time>2026-06-19T10:03:36.000Z</time>
        <extensions>
          <ns3:TrackPointExtension>
            <ns3:atemp>20.0</ns3:atemp>
          </ns3:TrackPointExtension>
        </extensions>
      </trkpt>
      <trkpt lat="42.51956024207174777984619140625" lon="20.011298954486846923828125">
        <ele>1942.5999755859375</ele>
        <time>2026-06-19T10:03:37.000Z</time>
        <extensions>
          <ns3:TrackPointExtension>
            <ns3:atemp>20.0</ns3:atemp>
          </ns3:TrackPointExtension>
        </extensions>
      </trkpt>
      <trkpt lat="42.519606761634349822998046875" lon="20.0112682767212390899658203125">
        <ele>1942</ele>
        <time>2026-06-19T10:03:38.000Z</time>
        <extensions>
          <ns3:TrackPointExtension>
            <ns3:atemp>20.0</ns3:atemp>
          </ns3:TrackPointExtension>
        </extensions>
      </trkpt>
      <trkpt lat="42.519655041396617889404296875" lon="20.0112354196608066558837890625">
        <ele>1941.5999755859375</ele>
        <time>2026-06-19T10:03:39.000Z</time>
        <extensions>
          <ns3:TrackPointExtension>
            <ns3:atemp>20.0</ns3:atemp>
          </ns3:TrackPointExtension>
        </extensions>
      </trkpt>
      <trkpt lat="42.5196977891027927398681640625" lon="20.0112122856080532073974609375">
        <ele>1941</ele>
        <time>2026-06-19T10:03:40.000Z</time>
        <extensions>
          <ns3:TrackPointExtension>
            <ns3:atemp>20.0</ns3:atemp>
          </ns3:TrackPointExtension>
        </extensions>
      </trkpt>
      <trkpt lat="42.5197412073612213134765625" lon="20.01119728200137615203857421875">
        <ele>1940.5999755859375</ele>
        <time>2026-06-19T10:03:41.000Z</time>
        <extensions>
          <ns3:TrackPointExtension>
            <ns3:atemp>20.0</ns3:atemp>
          </ns3:TrackPointExtension>
        </extensions>
      </trkpt>
      <trkpt lat="42.51978437416255474090576171875" lon="20.0111911632120609283447265625">
        <ele>1940.199951171875</ele>
        <time>2026-06-19T10:03:42.000Z</time>
        <extensions>
          <ns3:TrackPointExtension>
            <ns3:atemp>20.0</ns3:atemp>
          </ns3:TrackPointExtension>
        </extensions>
      </trkpt>
      <trkpt lat="42.5198295526206493377685546875" lon="20.01117766834795475006103515625">
        <ele>1939.800048828125</ele>
        <time>2026-06-19T10:03:43.000Z</time>
        <extensions>
          <ns3:TrackPointExtension>
            <ns3:atemp>20.0</ns3:atemp>
          </ns3:TrackPointExtension>
        </extensions>
      </trkpt>
      <trkpt lat="42.5198686122894287109375" lon="20.01116425730288028717041015625">
        <ele>1939.4000244140625</ele>
        <time>2026-06-19T10:03:44.000Z</time>
        <extensions>
          <ns3:TrackPointExtension>
            <ns3:atemp>20.0</ns3:atemp>
          </ns3:TrackPointExtension>
        </extensions>
      </trkpt>
      <trkpt lat="42.51991194672882556915283203125" lon="20.01113609410822391510009765625">
        <ele>1939</ele>
        <time>2026-06-19T10:03:45.000Z</time>
        <extensions>
          <ns3:TrackPointExtension>
            <ns3:atemp>20.0</ns3:atemp>
          </ns3:TrackPointExtension>
        </extensions>
      </trkpt>
      <trkpt lat="42.51994715072214603424072265625" lon="20.01111748628318309783935546875">
        <ele>1938.5999755859375</ele>
        <time>2026-06-19T10:03:46.000Z</time>
        <extensions>
          <ns3:TrackPointExtension>
            <ns3:atemp>20.0</ns3:atemp>
          </ns3:TrackPointExtension>
        </extensions>
      </trkpt>
      <trkpt lat="42.5199894793331623077392578125" lon="20.0110999681055545806884765625">
        <ele>1938.4000244140625</ele>
        <time>2026-06-19T10:03:47.000Z</time>
        <extensions>
          <ns3:TrackPointExtension>
            <ns3:atemp>20.0</ns3:atemp>
          </ns3:TrackPointExtension>
        </extensions>
      </trkpt>
      <trkpt lat="42.52003264613449573516845703125" lon="20.011082030832767486572265625">
        <ele>1938</ele>
        <time>2026-06-19T10:03:48.000Z</time>
        <extensions>
          <ns3:TrackPointExtension>
            <ns3:atemp>20.0</ns3:atemp>
          </ns3:TrackPointExtension>
        </extensions>
      </trkpt>
      <trkpt lat="42.5200830213725566864013671875" lon="20.0110741518437862396240234375">
        <ele>1937.5999755859375</ele>
        <time>2026-06-19T10:03:49.000Z</time>
        <extensions>
          <ns3:TrackPointExtension>
            <ns3:atemp>20.0</ns3:atemp>
          </ns3:TrackPointExtension>
        </extensions>
      </trkpt>
      <trkpt lat="42.5201286189258098602294921875" lon="20.0110778398811817169189453125">
        <ele>1937.4000244140625</ele>
        <time>2026-06-19T10:03:50.000Z</time>
        <extensions>
          <ns3:TrackPointExtension>
            <ns3:atemp>20.0</ns3:atemp>
          </ns3:TrackPointExtension>
        </extensions>
      </trkpt>
      <trkpt lat="42.52017564140260219573974609375" lon="20.0110991299152374267578125">
        <ele>1937</ele>
        <time>2026-06-19T10:03:51.000Z</time>
        <extensions>
          <ns3:TrackPointExtension>
            <ns3:atemp>20.0</ns3:atemp>
          </ns3:TrackPointExtension>
        </extensions>
      </trkpt>
      <trkpt lat="42.5202224962413311004638671875" lon="20.01112469471991062164306640625">
        <ele>1936.800048828125</ele>
        <time>2026-06-19T10:03:52.000Z</time>
        <extensions>
          <ns3:TrackPointExtension>
            <ns3:atemp>20.0</ns3:atemp>
          </ns3:TrackPointExtension>
        </extensions>
      </trkpt>
      <trkpt lat="42.52027136273682117462158203125" lon="20.01115939579904079437255859375">
        <ele>1936.5999755859375</ele>
        <time>2026-06-19T10:03:53.000Z</time>
        <extensions>
          <ns3:TrackPointExtension>
            <ns3:atemp>20.0</ns3:atemp>
          </ns3:TrackPointExtension>
        </extensions>
      </trkpt>
      <trkpt lat="42.520316876471042633056640625" lon="20.011188983917236328125">
        <ele>1936.199951171875</ele>
        <time>2026-06-19T10:03:54.000Z</time>
        <extensions>
          <ns3:TrackPointExtension>
            <ns3:atemp>20.0</ns3:atemp>
          </ns3:TrackPointExtension>
        </extensions>
      </trkpt>
      <trkpt lat="42.520349062979221343994140625" lon="20.01120449043810367584228515625">
        <ele>1935.800048828125</ele>
        <time>2026-06-19T10:03:55.000Z</time>
        <extensions>
          <ns3:TrackPointExtension>
            <ns3:atemp>20.0</ns3:atemp>
          </ns3:TrackPointExtension>
        </extensions>
      </trkpt>
      <trkpt lat="42.52037613652646541595458984375" lon="20.01121790148317813873291015625">
        <ele>1935.5999755859375</ele>
        <time>2026-06-19T10:03:56.000Z</time>
        <extensions>
          <ns3:TrackPointExtension>
            <ns3:atemp>20.0</ns3:atemp>
          </ns3:TrackPointExtension>
        </extensions>
      </trkpt>
      <trkpt lat="42.52039692364633083343505859375" lon="20.01122653484344482421875">
        <ele>1935.4000244140625</ele>
        <time>2026-06-19T10:03:57.000Z</time>
        <extensions>
          <ns3:TrackPointExtension>
            <ns3:atemp>20.0</ns3:atemp>
          </ns3:TrackPointExtension>
        </extensions>
      </trkpt>
      <trkpt lat="42.5204203091561794281005859375" lon="20.01123131252825260162353515625">
        <ele>1935.4000244140625</ele>
        <time>2026-06-19T10:03:58.000Z</time>
        <extensions>
          <ns3:TrackPointExtension>
            <ns3:atemp>20.0</ns3:atemp>
          </ns3:TrackPointExtension>
        </extensions>
      </trkpt>
      <trkpt lat="42.5204439461231231689453125" lon="20.011242963373661041259765625">
        <ele>1935.199951171875</ele>
        <time>2026-06-19T10:03:59.000Z</time>
        <extensions>
          <ns3:TrackPointExtension>
            <ns3:atemp>20.0</ns3:atemp>
          </ns3:TrackPointExtension>
        </extensions>
      </trkpt>
      <trkpt lat="42.52046213485300540924072265625" lon="20.0112528540194034576416015625">
        <ele>1935.199951171875</ele>
        <time>2026-06-19T10:04:00.000Z</time>
        <extensions>
          <ns3:TrackPointExtension>
            <ns3:atemp>20.0</ns3:atemp>
          </ns3:TrackPointExtension>
        </extensions>
      </trkpt>
      <trkpt lat="42.52048359252512454986572265625" lon="20.01126819290220737457275390625">
        <ele>1935.199951171875</ele>
        <time>2026-06-19T10:04:01.000Z</time>
        <extensions>
          <ns3:TrackPointExtension>
            <ns3:atemp>20.0</ns3:atemp>
          </ns3:TrackPointExtension>
        </extensions>
      </trkpt>
      <trkpt lat="42.52050253562629222869873046875" lon="20.0112816877663135528564453125">
        <ele>1935.199951171875</ele>
        <time>2026-06-19T10:04:02.000Z</time>
        <extensions>
          <ns3:TrackPointExtension>
            <ns3:atemp>20.0</ns3:atemp>
          </ns3:TrackPointExtension>
        </extensions>
      </trkpt>
      <trkpt lat="42.5205212272703647613525390625" lon="20.01130155287683010101318359375">
        <ele>1935.199951171875</ele>
        <time>2026-06-19T10:04:03.000Z</time>
        <extensions>
          <ns3:TrackPointExtension>
            <ns3:atemp>20.0</ns3:atemp>
          </ns3:TrackPointExtension>
        </extensions>
      </trkpt>
      <trkpt lat="42.52053891308605670928955078125" lon="20.01131647266447544097900390625">
        <ele>1935.4000244140625</ele>
        <time>2026-06-19T10:04:04.000Z</time>
        <extensions>
          <ns3:TrackPointExtension>
            <ns3:atemp>20.0</ns3:atemp>
          </ns3:TrackPointExtension>
        </extensions>
      </trkpt>
      <trkpt lat="42.52055718563497066497802734375" lon="20.01133273355662822723388671875">
        <ele>1935.5999755859375</ele>
        <time>2026-06-19T10:04:05.000Z</time>
        <extensions>
          <ns3:TrackPointExtension>
            <ns3:atemp>20.0</ns3:atemp>
          </ns3:TrackPointExtension>
        </extensions>
      </trkpt>
      <trkpt lat="42.5205748714506626129150390625" lon="20.0113460607826709747314453125">
        <ele>1936</ele>
        <time>2026-06-19T10:04:06.000Z</time>
        <extensions>
          <ns3:TrackPointExtension>
            <ns3:atemp>20.0</ns3:atemp>
          </ns3:TrackPointExtension>
        </extensions>
      </trkpt>
      <trkpt lat="42.5205936469137668609619140625" lon="20.01135905273258686065673828125">
        <ele>1936.199951171875</ele>
        <time>2026-06-19T10:04:07.000Z</time>
        <extensions>
          <ns3:TrackPointExtension>
            <ns3:atemp>20.0</ns3:atemp>
          </ns3:TrackPointExtension>
        </extensions>
      </trkpt>
      <trkpt lat="42.5206047110259532928466796875" lon="20.01137397252023220062255859375">
        <ele>1936.5999755859375</ele>
        <time>2026-06-19T10:04:08.000Z</time>
        <extensions>
          <ns3:TrackPointExtension>
            <ns3:atemp>20.0</ns3:atemp>
          </ns3:TrackPointExtension>
        </extensions>
      </trkpt>
      <trkpt lat="42.52061787061393260955810546875" lon="20.0113919936120510101318359375">
        <ele>1936.800048828125</ele>
        <time>2026-06-19T10:04:09.000Z</time>
        <extensions>
          <ns3:TrackPointExtension>
            <ns3:atemp>20.0</ns3:atemp>
          </ns3:TrackPointExtension>
        </extensions>
      </trkpt>
      <trkpt lat="42.52062709070742130279541015625" lon="20.01140984706580638885498046875">
        <ele>1937.199951171875</ele>
        <time>2026-06-19T10:04:10.000Z</time>
        <extensions>
          <ns3:TrackPointExtension>
            <ns3:atemp>20.0</ns3:atemp>
          </ns3:TrackPointExtension>
        </extensions>
      </trkpt>
      <trkpt lat="42.52064310014247894287109375" lon="20.0114285387098789215087890625">
        <ele>1937.4000244140625</ele>
        <time>2026-06-19T10:04:11.000Z</time>
        <extensions>
          <ns3:TrackPointExtension>
            <ns3:atemp>20.0</ns3:atemp>
          </ns3:TrackPointExtension>
        </extensions>
      </trkpt>
      <trkpt lat="42.52065693028271198272705078125" lon="20.01144723035395145416259765625">
        <ele>1937.800048828125</ele>
        <time>2026-06-19T10:04:12.000Z</time>
        <extensions>
          <ns3:TrackPointExtension>
            <ns3:atemp>20.0</ns3:atemp>
          </ns3:TrackPointExtension>
        </extensions>
      </trkpt>
      <trkpt lat="42.520670592784881591796875" lon="20.0114640779793262481689453125">
        <ele>1938</ele>
        <time>2026-06-19T10:04:13.000Z</time>
        <extensions>
          <ns3:TrackPointExtension>
            <ns3:atemp>20.0</ns3:atemp>
          </ns3:TrackPointExtension>
        </extensions>
      </trkpt>
      <trkpt lat="42.52068425528705120086669921875" lon="20.0114835239946842193603515625">
        <ele>1938.4000244140625</ele>
        <time>2026-06-19T10:04:14.000Z</time>
        <extensions>
          <ns3:TrackPointExtension>
            <ns3:atemp>20.0</ns3:atemp>
          </ns3:TrackPointExtension>
        </extensions>
      </trkpt>
      <trkpt lat="42.5206975825130939483642578125" lon="20.0115022994577884674072265625">
        <ele>1938.5999755859375</ele>
        <time>2026-06-19T10:04:15.000Z</time>
        <extensions>
          <ns3:TrackPointExtension>
            <ns3:atemp>20.0</ns3:atemp>
          </ns3:TrackPointExtension>
        </extensions>
      </trkpt>
      <trkpt lat="42.5207140110433101654052734375" lon="20.0115180574357509613037109375">
        <ele>1938.800048828125</ele>
        <time>2026-06-19T10:04:16.000Z</time>
        <extensions>
          <ns3:TrackPointExtension>
            <ns3:atemp>20.0</ns3:atemp>
          </ns3:TrackPointExtension>
        </extensions>
      </trkpt>
      <trkpt lat="42.52073161303997039794921875" lon="20.01153456978499889373779296875">
        <ele>1939.199951171875</ele>
        <time>2026-06-19T10:04:17.000Z</time>
        <extensions>
          <ns3:TrackPointExtension>
            <ns3:atemp>20.0</ns3:atemp>
          </ns3:TrackPointExtension>
        </extensions>
      </trkpt>
      <trkpt lat="42.52074779011309146881103515625" lon="20.0115562789142131805419921875">
        <ele>1939.4000244140625</ele>
        <time>2026-06-19T10:04:18.000Z</time>
        <extensions>
          <ns3:TrackPointExtension>
            <ns3:atemp>20.0</ns3:atemp>
          </ns3:TrackPointExtension>
        </extensions>
      </trkpt>
      <trkpt lat="42.5207636319100856781005859375" lon="20.0115780718624591827392578125">
        <ele>1939.4000244140625</ele>
        <time>2026-06-19T10:04:19.000Z</time>
        <extensions>
          <ns3:TrackPointExtension>
            <ns3:atemp>20.0</ns3:atemp>
          </ns3:TrackPointExtension>
        </extensions>
      </trkpt>
      <trkpt lat="42.52078081481158733367919921875" lon="20.011604726314544677734375">
        <ele>1939.4000244140625</ele>
        <time>2026-06-19T10:04:20.000Z</time>
        <extensions>
          <ns3:TrackPointExtension>
            <ns3:atemp>20.0</ns3:atemp>
          </ns3:TrackPointExtension>
        </extensions>
      </trkpt>
      <trkpt lat="42.52079741097986698150634765625" lon="20.01163230277597904205322265625">
        <ele>1939.5999755859375</ele>
        <time>2026-06-19T10:04:21.000Z</time>
        <extensions>
          <ns3:TrackPointExtension>
            <ns3:atemp>20.0</ns3:atemp>
          </ns3:TrackPointExtension>
        </extensions>
      </trkpt>
      <trkpt lat="42.52081098966300487518310546875" lon="20.01165610738098621368408203125">
        <ele>1939.5999755859375</ele>
        <time>2026-06-19T10:04:22.000Z</time>
        <extensions>
          <ns3:TrackPointExtension>
            <ns3:atemp>20.0</ns3:atemp>
          </ns3:TrackPointExtension>
        </extensions>
      </trkpt>
      <trkpt lat="42.52082347869873046875" lon="20.01167823560535907745361328125">
        <ele>1939.800048828125</ele>
        <time>2026-06-19T10:04:23.000Z</time>
        <extensions>
          <ns3:TrackPointExtension>
            <ns3:atemp>20.0</ns3:atemp>
          </ns3:TrackPointExtension>
        </extensions>
      </trkpt>
      <trkpt lat="42.5208320282399654388427734375" lon="20.011698938906192779541015625">
        <ele>1939.800048828125</ele>
        <time>2026-06-19T10:04:24.000Z</time>
        <extensions>
          <ns3:TrackPointExtension>
            <ns3:atemp>20.0</ns3:atemp>
          </ns3:TrackPointExtension>
        </extensions>
      </trkpt>
      <trkpt lat="42.52083932049572467803955078125" lon="20.0117192231118679046630859375">
        <ele>1940</ele>
        <time>2026-06-19T10:04:25.000Z</time>
        <extensions>
          <ns3:TrackPointExtension>
            <ns3:atemp>20.0</ns3:atemp>
          </ns3:TrackPointExtension>
        </extensions>
      </trkpt>
      <trkpt lat="42.52084552310407161712646484375" lon="20.0117390044033527374267578125">
        <ele>1940</ele>
        <time>2026-06-19T10:04:26.000Z</time>
        <extensions>
          <ns3:TrackPointExtension>
            <ns3:atemp>20.0</ns3:atemp>
          </ns3:TrackPointExtension>
        </extensions>
      </trkpt>
      <trkpt lat="42.52085809595882892608642578125" lon="20.011754930019378662109375">
        <ele>1940</ele>
        <time>2026-06-19T10:04:27.000Z</time>
        <extensions>
          <ns3:TrackPointExtension>
            <ns3:atemp>20.0</ns3:atemp>
          </ns3:TrackPointExtension>
        </extensions>
      </trkpt>
      <trkpt lat="42.52086916007101535797119140625" lon="20.0117696821689605712890625">
        <ele>1940</ele>
        <time>2026-06-19T10:04:28.000Z</time>
        <extensions>
          <ns3:TrackPointExtension>
            <ns3:atemp>20.0</ns3:atemp>
          </ns3:TrackPointExtension>
        </extensions>
      </trkpt>
      <trkpt lat="42.5208796374499797821044921875" lon="20.0117862783372402191162109375">
        <ele>1940</ele>
        <time>2026-06-19T10:04:29.000Z</time>
        <extensions>
          <ns3:TrackPointExtension>
            <ns3:atemp>20.0</ns3:atemp>
          </ns3:TrackPointExtension>
        </extensions>
      </trkpt>
      <trkpt lat="42.52088894136250019073486328125" lon="20.0118057243525981903076171875">
        <ele>1940</ele>
        <time>2026-06-19T10:04:30.000Z</time>
        <extensions>
          <ns3:TrackPointExtension>
            <ns3:atemp>20.0</ns3:atemp>
          </ns3:TrackPointExtension>
        </extensions>
      </trkpt>
      <trkpt lat="42.5208980776369571685791015625" lon="20.01182542182505130767822265625">
        <ele>1940</ele>
        <time>2026-06-19T10:04:31.000Z</time>
        <extensions>
          <ns3:TrackPointExtension>
            <ns3:atemp>20.0</ns3:atemp>
          </ns3:TrackPointExtension>
        </extensions>
      </trkpt>
      <trkpt lat="42.52090956084430217742919921875" lon="20.01184302382171154022216796875">
        <ele>1940</ele>
        <time>2026-06-19T10:04:32.000Z</time>
        <extensions>
          <ns3:TrackPointExtension>
            <ns3:atemp>20.0</ns3:atemp>
          </ns3:TrackPointExtension>
        </extensions>
      </trkpt>
      <trkpt lat="42.52091777510941028594970703125" lon="20.0118627212941646575927734375">
        <ele>1940</ele>
        <time>2026-06-19T10:04:33.000Z</time>
        <extensions>
          <ns3:TrackPointExtension>
            <ns3:atemp>20.0</ns3:atemp>
          </ns3:TrackPointExtension>
        </extensions>
      </trkpt>
      <trkpt lat="42.52092431299388408660888671875" lon="20.01187806017696857452392578125">
        <ele>1940.199951171875</ele>
        <time>2026-06-19T10:04:34.000Z</time>
        <extensions>
          <ns3:TrackPointExtension>
            <ns3:atemp>20.0</ns3:atemp>
          </ns3:TrackPointExtension>
        </extensions>
      </trkpt>
      <trkpt lat="42.52093001268804073333740234375" lon="20.01189448870718479156494140625">
        <ele>1940.199951171875</ele>
        <time>2026-06-19T10:04:35.000Z</time>
        <extensions>
          <ns3:TrackPointExtension>
            <ns3:atemp>20.0</ns3:atemp>
          </ns3:TrackPointExtension>
        </extensions>
      </trkpt>
      <trkpt lat="42.5209342874586582183837890625" lon="20.01191510818898677825927734375">
        <ele>1940.4000244140625</ele>
        <time>2026-06-19T10:04:36.000Z</time>
        <extensions>
          <ns3:TrackPointExtension>
            <ns3:atemp>20.0</ns3:atemp>
          </ns3:TrackPointExtension>
        </extensions>
      </trkpt>
      <trkpt lat="42.52094484865665435791015625" lon="20.011928267776966094970703125">
        <ele>1940.4000244140625</ele>
        <time>2026-06-19T10:04:37.000Z</time>
        <extensions>
          <ns3:TrackPointExtension>
            <ns3:atemp>20.0</ns3:atemp>
          </ns3:TrackPointExtension>
        </extensions>
      </trkpt>
      <trkpt lat="42.52095423638820648193359375" lon="20.01194964163005352020263671875">
        <ele>1940.5999755859375</ele>
        <time>2026-06-19T10:04:38.000Z</time>
        <extensions>
          <ns3:TrackPointExtension>
            <ns3:atemp>20.0</ns3:atemp>
          </ns3:TrackPointExtension>
        </extensions>
      </trkpt>
      <trkpt lat="42.52096303738653659820556640625" lon="20.011964477598667144775390625">
        <ele>1940.800048828125</ele>
        <time>2026-06-19T10:04:39.000Z</time>
        <extensions>
          <ns3:TrackPointExtension>
            <ns3:atemp>20.0</ns3:atemp>
          </ns3:TrackPointExtension>
        </extensions>
      </trkpt>
      <trkpt lat="42.5209721736609935760498046875" lon="20.01198492944240570068359375">
        <ele>1941</ele>
        <time>2026-06-19T10:04:40.000Z</time>
        <extensions>
          <ns3:TrackPointExtension>
            <ns3:atemp>20.0</ns3:atemp>
          </ns3:TrackPointExtension>
        </extensions>
      </trkpt>
      <trkpt lat="42.52098105847835540771484375" lon="20.01200973987579345703125">
        <ele>1941.199951171875</ele>
        <time>2026-06-19T10:04:41.000Z</time>
        <extensions>
          <ns3:TrackPointExtension>
            <ns3:atemp>20.0</ns3:atemp>
          </ns3:TrackPointExtension>
        </extensions>
      </trkpt>
      <trkpt lat="42.52099304459989070892333984375" lon="20.012033544480800628662109375">
        <ele>1941.4000244140625</ele>
        <time>2026-06-19T10:04:42.000Z</time>
        <extensions>
          <ns3:TrackPointExtension>
            <ns3:atemp>20.0</ns3:atemp>
          </ns3:TrackPointExtension>
        </extensions>
      </trkpt>
      <trkpt lat="42.52100511454045772552490234375" lon="20.0120566785335540771484375">
        <ele>1941.800048828125</ele>
        <time>2026-06-19T10:04:43.000Z</time>
        <extensions>
          <ns3:TrackPointExtension>
            <ns3:atemp>20.0</ns3:atemp>
          </ns3:TrackPointExtension>
        </extensions>
      </trkpt>
      <trkpt lat="42.52101366408169269561767578125" lon="20.0120772980153560638427734375">
        <ele>1942</ele>
        <time>2026-06-19T10:04:44.000Z</time>
        <extensions>
          <ns3:TrackPointExtension>
            <ns3:atemp>20.0</ns3:atemp>
          </ns3:TrackPointExtension>
        </extensions>
      </trkpt>
      <trkpt lat="42.52101718448102474212646484375" lon="20.0121004320681095123291015625">
        <ele>1942.4000244140625</ele>
        <time>2026-06-19T10:04:45.000Z</time>
        <extensions>
          <ns3:TrackPointExtension>
            <ns3:atemp>20.0</ns3:atemp>
          </ns3:TrackPointExtension>
        </extensions>
      </trkpt>
      <trkpt lat="42.52102305181324481964111328125" lon="20.01213069073855876922607421875">
        <ele>1942.800048828125</ele>
        <time>2026-06-19T10:04:46.000Z</time>
        <extensions>
          <ns3:TrackPointExtension>
            <ns3:atemp>20.0</ns3:atemp>
          </ns3:TrackPointExtension>
        </extensions>
      </trkpt>
      <trkpt lat="42.52103336155414581298828125" lon="20.01215667463839054107666015625">
        <ele>1943.4000244140625</ele>
        <time>2026-06-19T10:04:47.000Z</time>
        <extensions>
          <ns3:TrackPointExtension>
            <ns3:atemp>20.0</ns3:atemp>
          </ns3:TrackPointExtension>
        </extensions>
      </trkpt>
      <trkpt lat="42.52104333601891994476318359375" lon="20.0121867656707763671875">
        <ele>1943.800048828125</ele>
        <time>2026-06-19T10:04:48.000Z</time>
        <extensions>
          <ns3:TrackPointExtension>
            <ns3:atemp>20.0</ns3:atemp>
          </ns3:TrackPointExtension>
        </extensions>
      </trkpt>
      <trkpt lat="42.5210489518940448760986328125" lon="20.0122120790183544158935546875">
        <ele>1944.199951171875</ele>
        <time>2026-06-19T10:04:49.000Z</time>
        <extensions>
          <ns3:TrackPointExtension>
            <ns3:atemp>20.0</ns3:atemp>
          </ns3:TrackPointExtension>
        </extensions>
      </trkpt>
      <trkpt lat="42.52105272375047206878662109375" lon="20.01224242150783538818359375">
        <ele>1944.5999755859375</ele>
        <time>2026-06-19T10:04:50.000Z</time>
        <extensions>
          <ns3:TrackPointExtension>
            <ns3:atemp>20.0</ns3:atemp>
          </ns3:TrackPointExtension>
        </extensions>
      </trkpt>
      <trkpt lat="42.52105481922626495361328125" lon="20.01227167434990406036376953125">
        <ele>1945</ele>
        <time>2026-06-19T10:04:51.000Z</time>
        <extensions>
          <ns3:TrackPointExtension>
            <ns3:atemp>20.0</ns3:atemp>
          </ns3:TrackPointExtension>
        </extensions>
      </trkpt>
      <trkpt lat="42.52105657942593097686767578125" lon="20.01230084337294101715087890625">
        <ele>1945.4000244140625</ele>
        <time>2026-06-19T10:04:52.000Z</time>
        <extensions>
          <ns3:TrackPointExtension>
            <ns3:atemp>20.0</ns3:atemp>
          </ns3:TrackPointExtension>
        </extensions>
      </trkpt>
      <trkpt lat="42.52105942927300930023193359375" lon="20.01232263632118701934814453125">
        <ele>1945.5999755859375</ele>
        <time>2026-06-19T10:04:53.000Z</time>
        <extensions>
          <ns3:TrackPointExtension>
            <ns3:atemp>20.0</ns3:atemp>
          </ns3:TrackPointExtension>
        </extensions>
      </trkpt>
      <trkpt lat="42.5210640393197536468505859375" lon="20.0123435072600841522216796875">
        <ele>1945.800048828125</ele>
        <time>2026-06-19T10:04:54.000Z</time>
        <extensions>
          <ns3:TrackPointExtension>
            <ns3:atemp>20.0</ns3:atemp>
          </ns3:TrackPointExtension>
        </extensions>
      </trkpt>
      <trkpt lat="42.521065883338451385498046875" lon="20.0123673118650913238525390625">
        <ele>1945.800048828125</ele>
        <time>2026-06-19T10:04:55.000Z</time>
        <extensions>
          <ns3:TrackPointExtension>
            <ns3:atemp>20.0</ns3:atemp>
          </ns3:TrackPointExtension>
        </extensions>
      </trkpt>
      <trkpt lat="42.5210653804242610931396484375" lon="20.0123892724514007568359375">
        <ele>1945.800048828125</ele>
        <time>2026-06-19T10:04:56.000Z</time>
        <extensions>
          <ns3:TrackPointExtension>
            <ns3:atemp>20.0</ns3:atemp>
          </ns3:TrackPointExtension>
        </extensions>
      </trkpt>
      <trkpt lat="42.52106823027133941650390625" lon="20.0124107301235198974609375">
        <ele>1945.800048828125</ele>
        <time>2026-06-19T10:04:57.000Z</time>
        <extensions>
          <ns3:TrackPointExtension>
            <ns3:atemp>20.0</ns3:atemp>
          </ns3:TrackPointExtension>
        </extensions>
      </trkpt>
      <trkpt lat="42.52107133157551288604736328125" lon="20.0124296732246875762939453125">
        <ele>1945.800048828125</ele>
        <time>2026-06-19T10:04:58.000Z</time>
        <extensions>
          <ns3:TrackPointExtension>
            <ns3:atemp>20.0</ns3:atemp>
          </ns3:TrackPointExtension>
        </extensions>
      </trkpt>
      <trkpt lat="42.521072924137115478515625" lon="20.012445934116840362548828125">
        <ele>1946</ele>
        <time>2026-06-19T10:04:59.000Z</time>
        <extensions>
          <ns3:TrackPointExtension>
            <ns3:atemp>20.0</ns3:atemp>
          </ns3:TrackPointExtension>
        </extensions>
      </trkpt>
      <trkpt lat="42.52107233740389347076416015625" lon="20.012463368475437164306640625">
        <ele>1946</ele>
        <time>2026-06-19T10:05:00.000Z</time>
        <extensions>
          <ns3:TrackPointExtension>
            <ns3:atemp>20.0</ns3:atemp>
          </ns3:TrackPointExtension>
        </extensions>
      </trkpt>
      <trkpt lat="42.52107334323227405548095703125" lon="20.0124858319759368896484375">
        <ele>1946</ele>
        <time>2026-06-19T10:05:01.000Z</time>
        <extensions>
          <ns3:TrackPointExtension>
            <ns3:atemp>20.0</ns3:atemp>
          </ns3:TrackPointExtension>
        </extensions>
      </trkpt>
      <trkpt lat="42.52107652835547924041748046875" lon="20.0125044398009777069091796875">
        <ele>1946</ele>
        <time>2026-06-19T10:05:02.000Z</time>
        <extensions>
          <ns3:TrackPointExtension>
            <ns3:atemp>20.0</ns3:atemp>
          </ns3:TrackPointExtension>
        </extensions>
      </trkpt>
      <trkpt lat="42.52108155749738216400146484375" lon="20.01252715475857257843017578125">
        <ele>1946.199951171875</ele>
        <time>2026-06-19T10:05:03.000Z</time>
        <extensions>
          <ns3:TrackPointExtension>
            <ns3:atemp>20.0</ns3:atemp>
          </ns3:TrackPointExtension>
        </extensions>
      </trkpt>
      <trkpt lat="42.5210895203053951263427734375" lon="20.01255297102034091949462890625">
        <ele>1946.199951171875</ele>
        <time>2026-06-19T10:05:04.000Z</time>
        <extensions>
          <ns3:TrackPointExtension>
            <ns3:atemp>20.0</ns3:atemp>
          </ns3:TrackPointExtension>
        </extensions>
      </trkpt>
      <trkpt lat="42.52109714783728122711181640625" lon="20.0125761888921260833740234375">
        <ele>1946.5999755859375</ele>
        <time>2026-06-19T10:05:05.000Z</time>
        <extensions>
          <ns3:TrackPointExtension>
            <ns3:atemp>20.0</ns3:atemp>
          </ns3:TrackPointExtension>
        </extensions>
      </trkpt>
      <trkpt lat="42.5211042724549770355224609375" lon="20.01260024495422840118408203125">
        <ele>1946.800048828125</ele>
        <time>2026-06-19T10:05:06.000Z</time>
        <extensions>
          <ns3:TrackPointExtension>
            <ns3:atemp>20.0</ns3:atemp>
          </ns3:TrackPointExtension>
        </extensions>
      </trkpt>
      <trkpt lat="42.52111240290105342864990234375" lon="20.0126174278557300567626953125">
        <ele>1947</ele>
        <time>2026-06-19T10:05:07.000Z</time>
        <extensions>
          <ns3:TrackPointExtension>
            <ns3:atemp>20.0</ns3:atemp>
          </ns3:TrackPointExtension>
        </extensions>
      </trkpt>
      <trkpt lat="42.5211193598806858062744140625" lon="20.01263326965272426605224609375">
        <ele>1947.199951171875</ele>
        <time>2026-06-19T10:05:08.000Z</time>
        <extensions>
          <ns3:TrackPointExtension>
            <ns3:atemp>20.0</ns3:atemp>
          </ns3:TrackPointExtension>
        </extensions>
      </trkpt>
      <trkpt lat="42.52112648449838161468505859375" lon="20.01264601014554500579833984375">
        <ele>1947.4000244140625</ele>
        <time>2026-06-19T10:05:09.000Z</time>
        <extensions>
          <ns3:TrackPointExtension>
            <ns3:atemp>20.0</ns3:atemp>
          </ns3:TrackPointExtension>
        </extensions>
      </trkpt>
      <trkpt lat="42.52114006318151950836181640625" lon="20.0126610137522220611572265625">
        <ele>1947.4000244140625</ele>
        <time>2026-06-19T10:05:10.000Z</time>
        <extensions>
          <ns3:TrackPointExtension>
            <ns3:atemp>20.0</ns3:atemp>
          </ns3:TrackPointExtension>
        </extensions>
      </trkpt>
      <trkpt lat="42.52115146256983280181884765625" lon="20.01267802901566028594970703125">
        <ele>1947.5999755859375</ele>
        <time>2026-06-19T10:05:11.000Z</time>
        <extensions>
          <ns3:TrackPointExtension>
            <ns3:atemp>20.0</ns3:atemp>
          </ns3:TrackPointExtension>
        </extensions>
      </trkpt>
      <trkpt lat="42.52116118557751178741455078125" lon="20.0126908533275127410888671875">
        <ele>1947.5999755859375</ele>
        <time>2026-06-19T10:05:12.000Z</time>
        <extensions>
          <ns3:TrackPointExtension>
            <ns3:atemp>19.0</ns3:atemp>
          </ns3:TrackPointExtension>
        </extensions>
      </trkpt>
      <trkpt lat="42.52117224968969821929931640625" lon="20.01270267181098461151123046875">
        <ele>1947.800048828125</ele>
        <time>2026-06-19T10:05:13.000Z</time>
        <extensions>
          <ns3:TrackPointExtension>
            <ns3:atemp>20.0</ns3:atemp>
          </ns3:TrackPointExtension>
        </extensions>
      </trkpt>
      <trkpt lat="42.52118230797350406646728515625" lon="20.01271273009479045867919921875">
        <ele>1948</ele>
        <time>2026-06-19T10:05:14.000Z</time>
        <extensions>
          <ns3:TrackPointExtension>
            <ns3:atemp>19.0</ns3:atemp>
          </ns3:TrackPointExtension>
        </extensions>
      </trkpt>
      <trkpt lat="42.52119588665664196014404296875" lon="20.01272857189178466796875">
        <ele>1948.199951171875</ele>
        <time>2026-06-19T10:05:15.000Z</time>
        <extensions>
          <ns3:TrackPointExtension>
            <ns3:atemp>19.0</ns3:atemp>
          </ns3:TrackPointExtension>
        </extensions>
      </trkpt>
      <trkpt lat="42.52120695076882839202880859375" lon="20.0127381272614002227783203125">
        <ele>1948.4000244140625</ele>
        <time>2026-06-19T10:05:16.000Z</time>
        <extensions>
          <ns3:TrackPointExtension>
            <ns3:atemp>19.0</ns3:atemp>
          </ns3:TrackPointExtension>
        </extensions>
      </trkpt>
      <trkpt lat="42.52121835015714168548583984375" lon="20.01274441368877887725830078125">
        <ele>1948.800048828125</ele>
        <time>2026-06-19T10:05:17.000Z</time>
        <extensions>
          <ns3:TrackPointExtension>
            <ns3:atemp>20.0</ns3:atemp>
          </ns3:TrackPointExtension>
        </extensions>
      </trkpt>
      <trkpt lat="42.52122958190739154815673828125" lon="20.01275514252483844757080078125">
        <ele>1949</ele>
        <time>2026-06-19T10:05:18.000Z</time>
        <extensions>
          <ns3:TrackPointExtension>
            <ns3:atemp>20.0</ns3:atemp>
          </ns3:TrackPointExtension>
        </extensions>
      </trkpt>
      <trkpt lat="42.52124232240021228790283203125" lon="20.012772493064403533935546875">
        <ele>1949.4000244140625</ele>
        <time>2026-06-19T10:05:19.000Z</time>
        <extensions>
          <ns3:TrackPointExtension>
            <ns3:atemp>20.0</ns3:atemp>
          </ns3:TrackPointExtension>
        </extensions>
      </trkpt>
      <trkpt lat="42.521258331835269927978515625" lon="20.01278632320463657379150390625">
        <ele>1949.5999755859375</ele>
        <time>2026-06-19T10:05:20.000Z</time>
        <extensions>
          <ns3:TrackPointExtension>
            <ns3:atemp>19.0</ns3:atemp>
          </ns3:TrackPointExtension>
        </extensions>
      </trkpt>
      <trkpt lat="42.52127367071807384490966796875" lon="20.01280300319194793701171875">
        <ele>1949.5999755859375</ele>
        <time>2026-06-19T10:05:21.000Z</time>
        <extensions>
          <ns3:TrackPointExtension>
            <ns3:atemp>19.0</ns3:atemp>
          </ns3:TrackPointExtension>
        </extensions>
      </trkpt>
      <trkpt lat="42.5212869979441165924072265625" lon="20.0128209404647350311279296875">
        <ele>1949.800048828125</ele>
        <time>2026-06-19T10:05:22.000Z</time>
        <extensions>
          <ns3:TrackPointExtension>
            <ns3:atemp>20.0</ns3:atemp>
          </ns3:TrackPointExtension>
        </extensions>
      </trkpt>
      <trkpt lat="42.52129898406565189361572265625" lon="20.0128373689949512481689453125">
        <ele>1950</ele>
        <time>2026-06-19T10:05:23.000Z</time>
        <extensions>
          <ns3:TrackPointExtension>
            <ns3:atemp>20.0</ns3:atemp>
          </ns3:TrackPointExtension>
        </extensions>
      </trkpt>
      <trkpt lat="42.52131189219653606414794921875" lon="20.01285388134419918060302734375">
        <ele>1950.199951171875</ele>
        <time>2026-06-19T10:05:24.000Z</time>
        <extensions>
          <ns3:TrackPointExtension>
            <ns3:atemp>20.0</ns3:atemp>
          </ns3:TrackPointExtension>
        </extensions>
      </trkpt>
      <trkpt lat="42.52132982946932315826416015625" lon="20.012873075902462005615234375">
        <ele>1950.4000244140625</ele>
        <time>2026-06-19T10:05:25.000Z</time>
        <extensions>
          <ns3:TrackPointExtension>
            <ns3:atemp>19.0</ns3:atemp>
          </ns3:TrackPointExtension>
        </extensions>
      </trkpt>
      <trkpt lat="42.521348185837268829345703125" lon="20.012889839708805084228515625">
        <ele>1950.5999755859375</ele>
        <time>2026-06-19T10:05:26.000Z</time>
        <extensions>
          <ns3:TrackPointExtension>
            <ns3:atemp>20.0</ns3:atemp>
          </ns3:TrackPointExtension>
        </extensions>
      </trkpt>
      <trkpt lat="42.52136033959686756134033203125" lon="20.01290333457291126251220703125">
        <ele>1950.5999755859375</ele>
        <time>2026-06-19T10:05:27.000Z</time>
        <extensions>
          <ns3:TrackPointExtension>
            <ns3:atemp>19.0</ns3:atemp>
          </ns3:TrackPointExtension>
        </extensions>
      </trkpt>
      <trkpt lat="42.521374337375164031982421875" lon="20.01291573978960514068603515625">
        <ele>1950.5999755859375</ele>
        <time>2026-06-19T10:05:28.000Z</time>
        <extensions>
          <ns3:TrackPointExtension>
            <ns3:atemp>19.0</ns3:atemp>
          </ns3:TrackPointExtension>
        </extensions>
      </trkpt>
      <trkpt lat="42.52138816751539707183837890625" lon="20.01292412169277667999267578125">
        <ele>1950.800048828125</ele>
        <time>2026-06-19T10:05:29.000Z</time>
        <extensions>
          <ns3:TrackPointExtension>
            <ns3:atemp>19.0</ns3:atemp>
          </ns3:TrackPointExtension>
        </extensions>
      </trkpt>
      <trkpt lat="42.5213996507227420806884765625" lon="20.012935101985931396484375">
        <ele>1951</ele>
        <time>2026-06-19T10:05:30.000Z</time>
        <extensions>
          <ns3:TrackPointExtension>
            <ns3:atemp>19.0</ns3:atemp>
          </ns3:TrackPointExtension>
        </extensions>
      </trkpt>
      <trkpt lat="42.52141297794878482818603515625" lon="20.0129459984600543975830078125">
        <ele>1951.199951171875</ele>
        <time>2026-06-19T10:05:31.000Z</time>
        <extensions>
          <ns3:TrackPointExtension>
            <ns3:atemp>19.0</ns3:atemp>
          </ns3:TrackPointExtension>
        </extensions>
      </trkpt>
      <trkpt lat="42.52142907120287418365478515625" lon="20.01295580528676509857177734375">
        <ele>1951.4000244140625</ele>
        <time>2026-06-19T10:05:32.000Z</time>
        <extensions>
          <ns3:TrackPointExtension>
            <ns3:atemp>19.0</ns3:atemp>
          </ns3:TrackPointExtension>
        </extensions>
      </trkpt>
      <trkpt lat="42.5214465893805027008056640625" lon="20.01296821050345897674560546875">
        <ele>1951.800048828125</ele>
        <time>2026-06-19T10:05:33.000Z</time>
        <extensions>
          <ns3:TrackPointExtension>
            <ns3:atemp>19.0</ns3:atemp>
          </ns3:TrackPointExtension>
        </extensions>
      </trkpt>
      <trkpt lat="42.52145807258784770965576171875" lon="20.01298061572015285491943359375">
        <ele>1952</ele>
        <time>2026-06-19T10:05:34.000Z</time>
        <extensions>
          <ns3:TrackPointExtension>
            <ns3:atemp>19.0</ns3:atemp>
          </ns3:TrackPointExtension>
        </extensions>
      </trkpt>
      <trkpt lat="42.5214760936796665191650390625" lon="20.012995786964893341064453125">
        <ele>1952.199951171875</ele>
        <time>2026-06-19T10:05:35.000Z</time>
        <extensions>
          <ns3:TrackPointExtension>
            <ns3:atemp>19.0</ns3:atemp>
          </ns3:TrackPointExtension>
        </extensions>
      </trkpt>
      <trkpt lat="42.52149411477148532867431640625" lon="20.0130076892673969268798828125">
        <ele>1952.199951171875</ele>
        <time>2026-06-19T10:05:36.000Z</time>
        <extensions>
          <ns3:TrackPointExtension>
            <ns3:atemp>19.0</ns3:atemp>
          </ns3:TrackPointExtension>
        </extensions>
      </trkpt>
      <trkpt lat="42.5215089507400989532470703125" lon="20.01301833428442478179931640625">
        <ele>1952.4000244140625</ele>
        <time>2026-06-19T10:05:37.000Z</time>
        <extensions>
          <ns3:TrackPointExtension>
            <ns3:atemp>19.0</ns3:atemp>
          </ns3:TrackPointExtension>
        </extensions>
      </trkpt>
      <trkpt lat="42.521521858870983123779296875" lon="20.0130291469395160675048828125">
        <ele>1952.5999755859375</ele>
        <time>2026-06-19T10:05:38.000Z</time>
        <extensions>
          <ns3:TrackPointExtension>
            <ns3:atemp>19.0</ns3:atemp>
          </ns3:TrackPointExtension>
        </extensions>
      </trkpt>
      <trkpt lat="42.52153384499251842498779296875" lon="20.01304498873651027679443359375">
        <ele>1952.5999755859375</ele>
        <time>2026-06-19T10:05:39.000Z</time>
        <extensions>
          <ns3:TrackPointExtension>
            <ns3:atemp>19.0</ns3:atemp>
          </ns3:TrackPointExtension>
        </extensions>
      </trkpt>
      <trkpt lat="42.52155161462724208831787109375" lon="20.013049431145191192626953125">
        <ele>1952.800048828125</ele>
        <time>2026-06-19T10:05:40.000Z</time>
        <extensions>
          <ns3:TrackPointExtension>
            <ns3:atemp>19.0</ns3:atemp>
          </ns3:TrackPointExtension>
        </extensions>
      </trkpt>
      <trkpt lat="42.52157256938517093658447265625" lon="20.0130569748580455780029296875">
        <ele>1953</ele>
        <time>2026-06-19T10:05:41.000Z</time>
        <extensions>
          <ns3:TrackPointExtension>
            <ns3:atemp>19.0</ns3:atemp>
          </ns3:TrackPointExtension>
        </extensions>
      </trkpt>
      <trkpt lat="42.521588243544101715087890625" lon="20.01306393183767795562744140625">
        <ele>1953.199951171875</ele>
        <time>2026-06-19T10:05:42.000Z</time>
        <extensions>
          <ns3:TrackPointExtension>
            <ns3:atemp>19.0</ns3:atemp>
          </ns3:TrackPointExtension>
        </extensions>
      </trkpt>
      <trkpt lat="42.52160106785595417022705078125" lon="20.0130747444927692413330078125">
        <ele>1953.199951171875</ele>
        <time>2026-06-19T10:05:43.000Z</time>
        <extensions>
          <ns3:TrackPointExtension>
            <ns3:atemp>19.0</ns3:atemp>
          </ns3:TrackPointExtension>
        </extensions>
      </trkpt>
      <trkpt lat="42.52161783166229724884033203125" lon="20.01308656297624111175537109375">
        <ele>1953.199951171875</ele>
        <time>2026-06-19T10:05:44.000Z</time>
        <extensions>
          <ns3:TrackPointExtension>
            <ns3:atemp>19.0</ns3:atemp>
          </ns3:TrackPointExtension>
        </extensions>
      </trkpt>
      <trkpt lat="42.5216366909444332122802734375" lon="20.0131008960306644439697265625">
        <ele>1953.4000244140625</ele>
        <time>2026-06-19T10:05:45.000Z</time>
        <extensions>
          <ns3:TrackPointExtension>
            <ns3:atemp>19.0</ns3:atemp>
          </ns3:TrackPointExtension>
        </extensions>
      </trkpt>
      <trkpt lat="42.52165370620787143707275390625" lon="20.01311774365603923797607421875">
        <ele>1953.5999755859375</ele>
        <time>2026-06-19T10:05:46.000Z</time>
        <extensions>
          <ns3:TrackPointExtension>
            <ns3:atemp>19.0</ns3:atemp>
          </ns3:TrackPointExtension>
        </extensions>
      </trkpt>
      <trkpt lat="42.52166762016713619232177734375" lon="20.013133585453033447265625">
        <ele>1953.800048828125</ele>
        <time>2026-06-19T10:05:47.000Z</time>
        <extensions>
          <ns3:TrackPointExtension>
            <ns3:atemp>19.0</ns3:atemp>
          </ns3:TrackPointExtension>
        </extensions>
      </trkpt>
      <trkpt lat="42.5216789357364177703857421875" lon="20.0131481699645519256591796875">
        <ele>1953.800048828125</ele>
        <time>2026-06-19T10:05:48.000Z</time>
        <extensions>
          <ns3:TrackPointExtension>
            <ns3:atemp>19.0</ns3:atemp>
          </ns3:TrackPointExtension>
        </extensions>
      </trkpt>
      <trkpt lat="42.52169058658182621002197265625" lon="20.01315730623900890350341796875">
        <ele>1954</ele>
        <time>2026-06-19T10:05:49.000Z</time>
        <extensions>
          <ns3:TrackPointExtension>
            <ns3:atemp>19.0</ns3:atemp>
          </ns3:TrackPointExtension>
        </extensions>
      </trkpt>
      <trkpt lat="42.5216987170279026031494140625" lon="20.01316367648541927337646484375">
        <ele>1954.199951171875</ele>
        <time>2026-06-19T10:05:50.000Z</time>
        <extensions>
          <ns3:TrackPointExtension>
            <ns3:atemp>19.0</ns3:atemp>
          </ns3:TrackPointExtension>
        </extensions>
      </trkpt>
      <trkpt lat="42.52170718275010585784912109375" lon="20.01317524351179599761962890625">
        <ele>1954.199951171875</ele>
        <time>2026-06-19T10:05:51.000Z</time>
        <extensions>
          <ns3:TrackPointExtension>
            <ns3:atemp>19.0</ns3:atemp>
          </ns3:TrackPointExtension>
        </extensions>
      </trkpt>
      <trkpt lat="42.52171866595745086669921875" lon="20.013184882700443267822265625">
        <ele>1954.4000244140625</ele>
        <time>2026-06-19T10:05:52.000Z</time>
        <extensions>
          <ns3:TrackPointExtension>
            <ns3:atemp>19.0</ns3:atemp>
          </ns3:TrackPointExtension>
        </extensions>
      </trkpt>
      <trkpt lat="42.52173098735511302947998046875" lon="20.01319183968007564544677734375">
        <ele>1954.5999755859375</ele>
        <time>2026-06-19T10:05:53.000Z</time>
        <extensions>
          <ns3:TrackPointExtension>
            <ns3:atemp>19.0</ns3:atemp>
          </ns3:TrackPointExtension>
        </extensions>
      </trkpt>
      <trkpt lat="42.52174473367631435394287109375" lon="20.01319753937423229217529296875">
        <ele>1954.5999755859375</ele>
        <time>2026-06-19T10:05:54.000Z</time>
        <extensions>
          <ns3:TrackPointExtension>
            <ns3:atemp>19.0</ns3:atemp>
          </ns3:TrackPointExtension>
        </extensions>
      </trkpt>
      <trkpt lat="42.52176049165427684783935546875" lon="20.0132055021822452545166015625">
        <ele>1954.800048828125</ele>
        <time>2026-06-19T10:05:55.000Z</time>
        <extensions>
          <ns3:TrackPointExtension>
            <ns3:atemp>19.0</ns3:atemp>
          </ns3:TrackPointExtension>
        </extensions>
      </trkpt>
      <trkpt lat="42.52177507616579532623291015625" lon="20.01321178860962390899658203125">
        <ele>1955</ele>
        <time>2026-06-19T10:05:56.000Z</time>
        <extensions>
          <ns3:TrackPointExtension>
            <ns3:atemp>19.0</ns3:atemp>
          </ns3:TrackPointExtension>
        </extensions>
      </trkpt>
      <trkpt lat="42.5217915885150432586669921875" lon="20.01321832649409770965576171875">
        <ele>1955.199951171875</ele>
        <time>2026-06-19T10:05:57.000Z</time>
        <extensions>
          <ns3:TrackPointExtension>
            <ns3:atemp>19.0</ns3:atemp>
          </ns3:TrackPointExtension>
        </extensions>
      </trkpt>
      <trkpt lat="42.52180642448365688323974609375" lon="20.01322268508374691009521484375">
        <ele>1955.4000244140625</ele>
        <time>2026-06-19T10:05:58.000Z</time>
        <extensions>
          <ns3:TrackPointExtension>
            <ns3:atemp>19.0</ns3:atemp>
          </ns3:TrackPointExtension>
        </extensions>
      </trkpt>
      <trkpt lat="42.521816901862621307373046875" lon="20.01322419382631778717041015625">
        <ele>1955.4000244140625</ele>
        <time>2026-06-19T10:05:59.000Z</time>
        <extensions>
          <ns3:TrackPointExtension>
            <ns3:atemp>19.0</ns3:atemp>
          </ns3:TrackPointExtension>
        </extensions>
      </trkpt>
      <trkpt lat="42.521829307079315185546875" lon="20.01322721131145954132080078125">
        <ele>1955.5999755859375</ele>
        <time>2026-06-19T10:06:00.000Z</time>
        <extensions>
          <ns3:TrackPointExtension>
            <ns3:atemp>19.0</ns3:atemp>
          </ns3:TrackPointExtension>
        </extensions>
      </trkpt>
      <trkpt lat="42.521839700639247894287109375" lon="20.01323089934885501861572265625">
        <ele>1955.800048828125</ele>
        <time>2026-06-19T10:06:01.000Z</time>
        <extensions>
          <ns3:TrackPointExtension>
            <ns3:atemp>19.0</ns3:atemp>
          </ns3:TrackPointExtension>
        </extensions>
      </trkpt>
      <trkpt lat="42.52185503952205181121826171875" lon="20.01323190517723560333251953125">
        <ele>1955.800048828125</ele>
        <time>2026-06-19T10:06:02.000Z</time>
        <extensions>
          <ns3:TrackPointExtension>
            <ns3:atemp>19.0</ns3:atemp>
          </ns3:TrackPointExtension>
        </extensions>
      </trkpt>
      <trkpt lat="42.52186995930969715118408203125" lon="20.0132373534142971038818359375">
        <ele>1956</ele>
        <time>2026-06-19T10:06:03.000Z</time>
        <extensions>
          <ns3:TrackPointExtension>
            <ns3:atemp>19.0</ns3:atemp>
          </ns3:TrackPointExtension>
        </extensions>
      </trkpt>
      <trkpt lat="42.52188538201153278350830078125" lon="20.01324263401329517364501953125">
        <ele>1956</ele>
        <time>2026-06-19T10:06:04.000Z</time>
        <extensions>
          <ns3:TrackPointExtension>
            <ns3:atemp>19.0</ns3:atemp>
          </ns3:TrackPointExtension>
        </extensions>
      </trkpt>
      <trkpt lat="42.52190130762755870819091796875" lon="20.0132437236607074737548828125">
        <ele>1956.199951171875</ele>
        <time>2026-06-19T10:06:05.000Z</time>
        <extensions>
          <ns3:TrackPointExtension>
            <ns3:atemp>19.0</ns3:atemp>
          </ns3:TrackPointExtension>
        </extensions>
      </trkpt>
      <trkpt lat="42.52191849052906036376953125" lon="20.01325093209743499755859375">
        <ele>1956.4000244140625</ele>
        <time>2026-06-19T10:06:06.000Z</time>
        <extensions>
          <ns3:TrackPointExtension>
            <ns3:atemp>19.0</ns3:atemp>
          </ns3:TrackPointExtension>
        </extensions>
      </trkpt>
      <trkpt lat="42.5219364278018474578857421875" lon="20.0132631696760654449462890625">
        <ele>1956.5999755859375</ele>
        <time>2026-06-19T10:06:07.000Z</time>
        <extensions>
          <ns3:TrackPointExtension>
            <ns3:atemp>19.0</ns3:atemp>
          </ns3:TrackPointExtension>
        </extensions>
      </trkpt>
      <trkpt lat="42.5219567120075225830078125" lon="20.0132688693702220916748046875">
        <ele>1956.800048828125</ele>
        <time>2026-06-19T10:06:08.000Z</time>
        <extensions>
          <ns3:TrackPointExtension>
            <ns3:atemp>19.0</ns3:atemp>
          </ns3:TrackPointExtension>
        </extensions>
      </trkpt>
      <trkpt lat="42.52197347581386566162109375" lon="20.01327146776020526885986328125">
        <ele>1957</ele>
        <time>2026-06-19T10:06:09.000Z</time>
        <extensions>
          <ns3:TrackPointExtension>
            <ns3:atemp>19.0</ns3:atemp>
          </ns3:TrackPointExtension>
        </extensions>
      </trkpt>
      <trkpt lat="42.5219843722879886627197265625" lon="20.01327934674918651580810546875">
        <ele>1957.199951171875</ele>
        <time>2026-06-19T10:06:10.000Z</time>
        <extensions>
          <ns3:TrackPointExtension>
            <ns3:atemp>19.0</ns3:atemp>
          </ns3:TrackPointExtension>
        </extensions>
      </trkpt>
      <trkpt lat="42.522003650665283203125" lon="20.0132852979004383087158203125">
        <ele>1957.5999755859375</ele>
        <time>2026-06-19T10:06:11.000Z</time>
        <extensions>
          <ns3:TrackPointExtension>
            <ns3:atemp>19.0</ns3:atemp>
          </ns3:TrackPointExtension>
        </extensions>
      </trkpt>
      <trkpt lat="42.52202250994741916656494140625" lon="20.0132923386991024017333984375">
        <ele>1957.800048828125</ele>
        <time>2026-06-19T10:06:12.000Z</time>
        <extensions>
          <ns3:TrackPointExtension>
            <ns3:atemp>19.0</ns3:atemp>
          </ns3:TrackPointExtension>
        </extensions>
      </trkpt>
      <trkpt lat="42.52204011194407939910888671875" lon="20.01329409889876842498779296875">
        <ele>1958</ele>
        <time>2026-06-19T10:06:13.000Z</time>
        <extensions>
          <ns3:TrackPointExtension>
            <ns3:atemp>19.0</ns3:atemp>
          </ns3:TrackPointExtension>
        </extensions>
      </trkpt>
      <trkpt lat="42.52206106670200824737548828125" lon="20.0132977031171321868896484375">
        <ele>1958.4000244140625</ele>
        <time>2026-06-19T10:06:14.000Z</time>
        <extensions>
          <ns3:TrackPointExtension>
            <ns3:atemp>19.0</ns3:atemp>
          </ns3:TrackPointExtension>
        </extensions>
      </trkpt>
      <trkpt lat="42.5220795907080173492431640625" lon="20.0133060850203037261962890625">
        <ele>1958.5999755859375</ele>
        <time>2026-06-19T10:06:15.000Z</time>
        <extensions>
          <ns3:TrackPointExtension>
            <ns3:atemp>19.0</ns3:atemp>
          </ns3:TrackPointExtension>
        </extensions>
      </trkpt>
      <trkpt lat="42.52210649661719799041748046875" lon="20.0133184902369976043701171875">
        <ele>1958.800048828125</ele>
        <time>2026-06-19T10:06:16.000Z</time>
        <extensions>
          <ns3:TrackPointExtension>
            <ns3:atemp>19.0</ns3:atemp>
          </ns3:TrackPointExtension>
        </extensions>
      </trkpt>
      <trkpt lat="42.52213164232671260833740234375" lon="20.0133282132446765899658203125">
        <ele>1959.199951171875</ele>
        <time>2026-06-19T10:06:17.000Z</time>
        <extensions>
          <ns3:TrackPointExtension>
            <ns3:atemp>19.0</ns3:atemp>
          </ns3:TrackPointExtension>
        </extensions>
      </trkpt>
      <trkpt lat="42.52215578220784664154052734375" lon="20.01333734951913356781005859375">
        <ele>1959.4000244140625</ele>
        <time>2026-06-19T10:06:18.000Z</time>
        <extensions>
          <ns3:TrackPointExtension>
            <ns3:atemp>19.0</ns3:atemp>
          </ns3:TrackPointExtension>
        </extensions>
      </trkpt>
      <trkpt lat="42.5221754796802997589111328125" lon="20.01334874890744686126708984375">
        <ele>1959.5999755859375</ele>
        <time>2026-06-19T10:06:19.000Z</time>
        <extensions>
          <ns3:TrackPointExtension>
            <ns3:atemp>19.0</ns3:atemp>
          </ns3:TrackPointExtension>
        </extensions>
      </trkpt>
      <trkpt lat="42.52219366841018199920654296875" lon="20.01335394568741321563720703125">
        <ele>1960</ele>
        <time>2026-06-19T10:06:20.000Z</time>
        <extensions>
          <ns3:TrackPointExtension>
            <ns3:atemp>19.0</ns3:atemp>
          </ns3:TrackPointExtension>
        </extensions>
      </trkpt>
      <trkpt lat="42.52220775000751018524169921875" lon="20.01336492598056793212890625">
        <ele>1960.199951171875</ele>
        <time>2026-06-19T10:06:21.000Z</time>
        <extensions>
          <ns3:TrackPointExtension>
            <ns3:atemp>19.0</ns3:atemp>
          </ns3:TrackPointExtension>
        </extensions>
      </trkpt>
      <trkpt lat="42.5222217477858066558837890625" lon="20.01337322406470775604248046875">
        <ele>1960.4000244140625</ele>
        <time>2026-06-19T10:06:22.000Z</time>
        <extensions>
          <ns3:TrackPointExtension>
            <ns3:atemp>19.0</ns3:atemp>
          </ns3:TrackPointExtension>
        </extensions>
      </trkpt>
      <trkpt lat="42.522238008677959442138671875" lon="20.0133862160146236419677734375">
        <ele>1960.5999755859375</ele>
        <time>2026-06-19T10:06:23.000Z</time>
        <extensions>
          <ns3:TrackPointExtension>
            <ns3:atemp>19.0</ns3:atemp>
          </ns3:TrackPointExtension>
        </extensions>
      </trkpt>
      <trkpt lat="42.522254772484302520751953125" lon="20.01339317299425601959228515625">
        <ele>1960.800048828125</ele>
        <time>2026-06-19T10:06:24.000Z</time>
        <extensions>
          <ns3:TrackPointExtension>
            <ns3:atemp>19.0</ns3:atemp>
          </ns3:TrackPointExtension>
        </extensions>
      </trkpt>
      <trkpt lat="42.52226826734840869903564453125" lon="20.0133972801268100738525390625">
        <ele>1961</ele>
        <time>2026-06-19T10:06:25.000Z</time>
        <extensions>
          <ns3:TrackPointExtension>
            <ns3:atemp>19.0</ns3:atemp>
          </ns3:TrackPointExtension>
        </extensions>
      </trkpt>
      <trkpt lat="42.5222810916602611541748046875" lon="20.01340448856353759765625">
        <ele>1961.199951171875</ele>
        <time>2026-06-19T10:06:26.000Z</time>
        <extensions>
          <ns3:TrackPointExtension>
            <ns3:atemp>19.0</ns3:atemp>
          </ns3:TrackPointExtension>
        </extensions>
      </trkpt>
      <trkpt lat="42.52229492180049419403076171875" lon="20.013418234884738922119140625">
        <ele>1961.4000244140625</ele>
        <time>2026-06-19T10:06:27.000Z</time>
        <extensions>
          <ns3:TrackPointExtension>
            <ns3:atemp>19.0</ns3:atemp>
          </ns3:TrackPointExtension>
        </extensions>
      </trkpt>
      <trkpt lat="42.5223085843026638031005859375" lon="20.0134291313588619232177734375">
        <ele>1961.4000244140625</ele>
        <time>2026-06-19T10:06:28.000Z</time>
        <extensions>
          <ns3:TrackPointExtension>
            <ns3:atemp>19.0</ns3:atemp>
          </ns3:TrackPointExtension>
        </extensions>
      </trkpt>
      <trkpt lat="42.522324509918689727783203125" lon="20.01344597898423671722412109375">
        <ele>1961.5999755859375</ele>
        <time>2026-06-19T10:06:29.000Z</time>
        <extensions>
          <ns3:TrackPointExtension>
            <ns3:atemp>19.0</ns3:atemp>
          </ns3:TrackPointExtension>
        </extensions>
      </trkpt>
      <trkpt lat="42.52233884297311305999755859375" lon="20.01346123404800891876220703125">
        <ele>1961.5999755859375</ele>
        <time>2026-06-19T10:06:30.000Z</time>
        <extensions>
          <ns3:TrackPointExtension>
            <ns3:atemp>19.0</ns3:atemp>
          </ns3:TrackPointExtension>
        </extensions>
      </trkpt>
      <trkpt lat="42.5223561935126781463623046875" lon="20.01347783021628856658935546875">
        <ele>1961.5999755859375</ele>
        <time>2026-06-19T10:06:31.000Z</time>
        <extensions>
          <ns3:TrackPointExtension>
            <ns3:atemp>19.0</ns3:atemp>
          </ns3:TrackPointExtension>
        </extensions>
      </trkpt>
      <trkpt lat="42.522370778024196624755859375" lon="20.01349794678390026092529296875">
        <ele>1961.5999755859375</ele>
        <time>2026-06-19T10:06:32.000Z</time>
        <extensions>
          <ns3:TrackPointExtension>
            <ns3:atemp>19.0</ns3:atemp>
          </ns3:TrackPointExtension>
        </extensions>
      </trkpt>
      <trkpt lat="42.5223870389163494110107421875" lon="20.013516135513782501220703125">
        <ele>1961.5999755859375</ele>
        <time>2026-06-19T10:06:33.000Z</time>
        <extensions>
          <ns3:TrackPointExtension>
            <ns3:atemp>19.0</ns3:atemp>
          </ns3:TrackPointExtension>
        </extensions>
      </trkpt>
      <trkpt lat="42.522400952875614166259765625" lon="20.013531558215618133544921875">
        <ele>1961.5999755859375</ele>
        <time>2026-06-19T10:06:34.000Z</time>
        <extensions>
          <ns3:TrackPointExtension>
            <ns3:atemp>19.0</ns3:atemp>
          </ns3:TrackPointExtension>
        </extensions>
      </trkpt>
      <trkpt lat="42.52241226844489574432373046875" lon="20.013548992574214935302734375">
        <ele>1961.800048828125</ele>
        <time>2026-06-19T10:06:35.000Z</time>
        <extensions>
          <ns3:TrackPointExtension>
            <ns3:atemp>19.0</ns3:atemp>
          </ns3:TrackPointExtension>
        </extensions>
      </trkpt>
      <trkpt lat="42.5224272720515727996826171875" lon="20.01356542110443115234375">
        <ele>1961.800048828125</ele>
        <time>2026-06-19T10:06:36.000Z</time>
        <extensions>
          <ns3:TrackPointExtension>
            <ns3:atemp>19.0</ns3:atemp>
          </ns3:TrackPointExtension>
        </extensions>
      </trkpt>
      <trkpt lat="42.52243355847895145416259765625" lon="20.0135813467204570770263671875">
        <ele>1962</ele>
        <time>2026-06-19T10:06:37.000Z</time>
        <extensions>
          <ns3:TrackPointExtension>
            <ns3:atemp>19.0</ns3:atemp>
          </ns3:TrackPointExtension>
        </extensions>
      </trkpt>
      <trkpt lat="42.52244194038212299346923828125" lon="20.01360364258289337158203125">
        <ele>1962.4000244140625</ele>
        <time>2026-06-19T10:06:38.000Z</time>
        <extensions>
          <ns3:TrackPointExtension>
            <ns3:atemp>19.0</ns3:atemp>
          </ns3:TrackPointExtension>
        </extensions>
      </trkpt>
      <trkpt lat="42.52245484851300716400146484375" lon="20.0136225856840610504150390625">
        <ele>1962.5999755859375</ele>
        <time>2026-06-19T10:06:39.000Z</time>
        <extensions>
          <ns3:TrackPointExtension>
            <ns3:atemp>19.0</ns3:atemp>
          </ns3:TrackPointExtension>
        </extensions>
      </trkpt>
      <trkpt lat="42.52246876247227191925048828125" lon="20.01363985240459442138671875">
        <ele>1962.800048828125</ele>
        <time>2026-06-19T10:06:40.000Z</time>
        <extensions>
          <ns3:TrackPointExtension>
            <ns3:atemp>19.0</ns3:atemp>
          </ns3:TrackPointExtension>
        </extensions>
      </trkpt>
      <trkpt lat="42.522485442459583282470703125" lon="20.01365217380225658416748046875">
        <ele>1962.800048828125</ele>
        <time>2026-06-19T10:06:41.000Z</time>
        <extensions>
          <ns3:TrackPointExtension>
            <ns3:atemp>19.0</ns3:atemp>
          </ns3:TrackPointExtension>
        </extensions>
      </trkpt>
      <trkpt lat="42.52250027842819690704345703125" lon="20.0136661715805530548095703125">
        <ele>1963.199951171875</ele>
        <time>2026-06-19T10:06:42.000Z</time>
        <extensions>
          <ns3:TrackPointExtension>
            <ns3:atemp>19.0</ns3:atemp>
          </ns3:TrackPointExtension>
        </extensions>
      </trkpt>
      <trkpt lat="42.5225157849490642547607421875" lon="20.01367547549307346343994140625">
        <ele>1963.199951171875</ele>
        <time>2026-06-19T10:06:43.000Z</time>
        <extensions>
          <ns3:TrackPointExtension>
            <ns3:atemp>19.0</ns3:atemp>
          </ns3:TrackPointExtension>
        </extensions>
      </trkpt>
      <trkpt lat="42.52252927981317043304443359375" lon="20.01368117518723011016845703125">
        <ele>1963.5999755859375</ele>
        <time>2026-06-19T10:06:44.000Z</time>
        <extensions>
          <ns3:TrackPointExtension>
            <ns3:atemp>19.0</ns3:atemp>
          </ns3:TrackPointExtension>
        </extensions>
      </trkpt>
      <trkpt lat="42.52254604361951351165771484375" lon="20.01369391568005084991455078125">
        <ele>1963.800048828125</ele>
        <time>2026-06-19T10:06:45.000Z</time>
        <extensions>
          <ns3:TrackPointExtension>
            <ns3:atemp>19.0</ns3:atemp>
          </ns3:TrackPointExtension>
        </extensions>
      </trkpt>
      <trkpt lat="42.52256347797811031341552734375" lon="20.01370598562061786651611328125">
        <ele>1963.800048828125</ele>
        <time>2026-06-19T10:06:46.000Z</time>
        <extensions>
          <ns3:TrackPointExtension>
            <ns3:atemp>19.0</ns3:atemp>
          </ns3:TrackPointExtension>
        </extensions>
      </trkpt>
      <trkpt lat="42.5225801579654216766357421875" lon="20.0137184746563434600830078125">
        <ele>1964</ele>
        <time>2026-06-19T10:06:47.000Z</time>
        <extensions>
          <ns3:TrackPointExtension>
            <ns3:atemp>19.0</ns3:atemp>
          </ns3:TrackPointExtension>
        </extensions>
      </trkpt>
      <trkpt lat="42.52259734086692333221435546875" lon="20.01372492872178554534912109375">
        <ele>1964.199951171875</ele>
        <time>2026-06-19T10:06:48.000Z</time>
        <extensions>
          <ns3:TrackPointExtension>
            <ns3:atemp>19.0</ns3:atemp>
          </ns3:TrackPointExtension>
        </extensions>
      </trkpt>
      <trkpt lat="42.522612847387790679931640625" lon="20.01372476108372211456298828125">
        <ele>1964.199951171875</ele>
        <time>2026-06-19T10:06:49.000Z</time>
        <extensions>
          <ns3:TrackPointExtension>
            <ns3:atemp>19.0</ns3:atemp>
          </ns3:TrackPointExtension>
        </extensions>
      </trkpt>
      <trkpt lat="42.5226326286792755126953125" lon="20.0137218274176120758056640625">
        <ele>1964.199951171875</ele>
        <time>2026-06-19T10:06:50.000Z</time>
        <extensions>
          <ns3:TrackPointExtension>
            <ns3:atemp>19.0</ns3:atemp>
          </ns3:TrackPointExtension>
        </extensions>
      </trkpt>
      <trkpt lat="42.522652409970760345458984375" lon="20.01372174359858036041259765625">
        <ele>1964.4000244140625</ele>
        <time>2026-06-19T10:06:51.000Z</time>
        <extensions>
          <ns3:TrackPointExtension>
            <ns3:atemp>19.0</ns3:atemp>
          </ns3:TrackPointExtension>
        </extensions>
      </trkpt>
      <trkpt lat="42.52267059870064258575439453125" lon="20.0137191452085971832275390625">
        <ele>1964.5999755859375</ele>
        <time>2026-06-19T10:06:52.000Z</time>
        <extensions>
          <ns3:TrackPointExtension>
            <ns3:atemp>19.0</ns3:atemp>
          </ns3:TrackPointExtension>
        </extensions>
      </trkpt>
      <trkpt lat="42.52268736250698566436767578125" lon="20.01371570862829685211181640625">
        <ele>1964.5999755859375</ele>
        <time>2026-06-19T10:06:53.000Z</time>
        <extensions>
          <ns3:TrackPointExtension>
            <ns3:atemp>19.0</ns3:atemp>
          </ns3:TrackPointExtension>
        </extensions>
      </trkpt>
      <trkpt lat="42.522704713046550750732421875" lon="20.0137110985815525054931640625">
        <ele>1964.800048828125</ele>
        <time>2026-06-19T10:06:54.000Z</time>
        <extensions>
          <ns3:TrackPointExtension>
            <ns3:atemp>19.0</ns3:atemp>
          </ns3:TrackPointExtension>
        </extensions>
      </trkpt>
      <trkpt lat="42.52272256650030612945556640625" lon="20.013708584010601043701171875">
        <ele>1964.5999755859375</ele>
        <time>2026-06-19T10:06:55.000Z</time>
        <extensions>
          <ns3:TrackPointExtension>
            <ns3:atemp>19.0</ns3:atemp>
          </ns3:TrackPointExtension>
        </extensions>
      </trkpt>
      <trkpt lat="42.5227387435734272003173828125" lon="20.01370481215417385101318359375">
        <ele>1964.5999755859375</ele>
        <time>2026-06-19T10:06:56.000Z</time>
        <extensions>
          <ns3:TrackPointExtension>
            <ns3:atemp>19.0</ns3:atemp>
          </ns3:TrackPointExtension>
        </extensions>
      </trkpt>
      <trkpt lat="42.52275609411299228668212890625" lon="20.01369575969874858856201171875">
        <ele>1964.4000244140625</ele>
        <time>2026-06-19T10:06:57.000Z</time>
        <extensions>
          <ns3:TrackPointExtension>
            <ns3:atemp>19.0</ns3:atemp>
          </ns3:TrackPointExtension>
        </extensions>
      </trkpt>
      <trkpt lat="42.52277587540447711944580078125" lon="20.0136826001107692718505859375">
        <ele>1964.4000244140625</ele>
        <time>2026-06-19T10:06:58.000Z</time>
        <extensions>
          <ns3:TrackPointExtension>
            <ns3:atemp>19.0</ns3:atemp>
          </ns3:TrackPointExtension>
        </extensions>
      </trkpt>
      <trkpt lat="42.52279666252434253692626953125" lon="20.01366826705634593963623046875">
        <ele>1964.199951171875</ele>
        <time>2026-06-19T10:06:59.000Z</time>
        <extensions>
          <ns3:TrackPointExtension>
            <ns3:atemp>19.0</ns3:atemp>
          </ns3:TrackPointExtension>
        </extensions>
      </trkpt>
      <trkpt lat="42.5228182040154933929443359375" lon="20.01365602947771549224853515625">
        <ele>1964</ele>
        <time>2026-06-19T10:07:00.000Z</time>
        <extensions>
          <ns3:TrackPointExtension>
            <ns3:atemp>19.0</ns3:atemp>
          </ns3:TrackPointExtension>
        </extensions>
      </trkpt>
      <trkpt lat="42.522838823497295379638671875" lon="20.0136453844606876373291015625">
        <ele>1963.800048828125</ele>
        <time>2026-06-19T10:07:01.000Z</time>
        <extensions>
          <ns3:TrackPointExtension>
            <ns3:atemp>19.0</ns3:atemp>
          </ns3:TrackPointExtension>
        </extensions>
      </trkpt>
      <trkpt lat="42.522864975035190582275390625" lon="20.01362736336886882781982421875">
        <ele>1963.5999755859375</ele>
        <time>2026-06-19T10:07:02.000Z</time>
        <extensions>
          <ns3:TrackPointExtension>
            <ns3:atemp>19.0</ns3:atemp>
          </ns3:TrackPointExtension>
        </extensions>
      </trkpt>
      <trkpt lat="42.5228926353156566619873046875" lon="20.01360632479190826416015625">
        <ele>1963.4000244140625</ele>
        <time>2026-06-19T10:07:03.000Z</time>
        <extensions>
          <ns3:TrackPointExtension>
            <ns3:atemp>19.0</ns3:atemp>
          </ns3:TrackPointExtension>
        </extensions>
      </trkpt>
      <trkpt lat="42.52292322926223278045654296875" lon="20.0135800056159496307373046875">
        <ele>1963.199951171875</ele>
        <time>2026-06-19T10:07:04.000Z</time>
        <extensions>
          <ns3:TrackPointExtension>
            <ns3:atemp>19.0</ns3:atemp>
          </ns3:TrackPointExtension>
        </extensions>
      </trkpt>
      <trkpt lat="42.522954158484935760498046875" lon="20.01355997286736965179443359375">
        <ele>1962.800048828125</ele>
        <time>2026-06-19T10:07:05.000Z</time>
        <extensions>
          <ns3:TrackPointExtension>
            <ns3:atemp>19.0</ns3:atemp>
          </ns3:TrackPointExtension>
        </extensions>
      </trkpt>
      <trkpt lat="42.5229808129370212554931640625" lon="20.01354572363197803497314453125">
        <ele>1962.800048828125</ele>
        <time>2026-06-19T10:07:06.000Z</time>
        <extensions>
          <ns3:TrackPointExtension>
            <ns3:atemp>19.0</ns3:atemp>
          </ns3:TrackPointExtension>
        </extensions>
      </trkpt>
      <trkpt lat="42.5230103172361850738525390625" lon="20.01353524625301361083984375">
        <ele>1962.5999755859375</ele>
        <time>2026-06-19T10:07:07.000Z</time>
        <extensions>
          <ns3:TrackPointExtension>
            <ns3:atemp>19.0</ns3:atemp>
          </ns3:TrackPointExtension>
        </extensions>
      </trkpt>
      <trkpt lat="42.5230357982218265533447265625" lon="20.01352946273982524871826171875">
        <ele>1962.4000244140625</ele>
        <time>2026-06-19T10:07:08.000Z</time>
        <extensions>
          <ns3:TrackPointExtension>
            <ns3:atemp>19.0</ns3:atemp>
          </ns3:TrackPointExtension>
        </extensions>
      </trkpt>
      <trkpt lat="42.523059435188770294189453125" lon="20.0135193206369876861572265625">
        <ele>1962.4000244140625</ele>
        <time>2026-06-19T10:07:09.000Z</time>
        <extensions>
          <ns3:TrackPointExtension>
            <ns3:atemp>19.0</ns3:atemp>
          </ns3:TrackPointExtension>
        </extensions>
      </trkpt>
      <trkpt lat="42.52308483235538005828857421875" lon="20.0135129503905773162841796875">
        <ele>1962.4000244140625</ele>
        <time>2026-06-19T10:07:10.000Z</time>
        <extensions>
          <ns3:TrackPointExtension>
            <ns3:atemp>19.0</ns3:atemp>
          </ns3:TrackPointExtension>
        </extensions>
      </trkpt>
      <trkpt lat="42.52310670912265777587890625" lon="20.01350574195384979248046875">
        <ele>1962.199951171875</ele>
        <time>2026-06-19T10:07:11.000Z</time>
        <extensions>
          <ns3:TrackPointExtension>
            <ns3:atemp>19.0</ns3:atemp>
          </ns3:TrackPointExtension>
        </extensions>
      </trkpt>
      <trkpt lat="42.5231273286044597625732421875" lon="20.01350842416286468505859375">
        <ele>1962.199951171875</ele>
        <time>2026-06-19T10:07:12.000Z</time>
        <extensions>
          <ns3:TrackPointExtension>
            <ns3:atemp>19.0</ns3:atemp>
          </ns3:TrackPointExtension>
        </extensions>
      </trkpt>
      <trkpt lat="42.5231528095901012420654296875" lon="20.01351119019091129302978515625">
        <ele>1962.199951171875</ele>
        <time>2026-06-19T10:07:13.000Z</time>
        <extensions>
          <ns3:TrackPointExtension>
            <ns3:atemp>19.0</ns3:atemp>
          </ns3:TrackPointExtension>
        </extensions>
      </trkpt>
      <trkpt lat="42.52318038605153560638427734375" lon="20.01352258957922458648681640625">
        <ele>1961.800048828125</ele>
        <time>2026-06-19T10:07:14.000Z</time>
        <extensions>
          <ns3:TrackPointExtension>
            <ns3:atemp>19.0</ns3:atemp>
          </ns3:TrackPointExtension>
        </extensions>
      </trkpt>
      <trkpt lat="42.52320720814168453216552734375" lon="20.01354195177555084228515625">
        <ele>1961.800048828125</ele>
        <time>2026-06-19T10:07:15.000Z</time>
        <extensions>
          <ns3:TrackPointExtension>
            <ns3:atemp>19.0</ns3:atemp>
          </ns3:TrackPointExtension>
        </extensions>
      </trkpt>
      <trkpt lat="42.52322983928024768829345703125" lon="20.01355628482997417449951171875">
        <ele>1961.800048828125</ele>
        <time>2026-06-19T10:07:16.000Z</time>
        <extensions>
          <ns3:TrackPointExtension>
            <ns3:atemp>19.0</ns3:atemp>
          </ns3:TrackPointExtension>
        </extensions>
      </trkpt>
      <trkpt lat="42.52325029112398624420166015625" lon="20.01356584019958972930908203125">
        <ele>1961.5999755859375</ele>
        <time>2026-06-19T10:07:17.000Z</time>
        <extensions>
          <ns3:TrackPointExtension>
            <ns3:atemp>19.0</ns3:atemp>
          </ns3:TrackPointExtension>
        </extensions>
      </trkpt>
      <trkpt lat="42.52327032387256622314453125" lon="20.01357841305434703826904296875">
        <ele>1961.5999755859375</ele>
        <time>2026-06-19T10:07:18.000Z</time>
        <extensions>
          <ns3:TrackPointExtension>
            <ns3:atemp>19.0</ns3:atemp>
          </ns3:TrackPointExtension>
        </extensions>
      </trkpt>
      <trkpt lat="42.5232924520969390869140625" lon="20.01359065063297748565673828125">
        <ele>1961.5999755859375</ele>
        <time>2026-06-19T10:07:19.000Z</time>
        <extensions>
          <ns3:TrackPointExtension>
            <ns3:atemp>19.0</ns3:atemp>
          </ns3:TrackPointExtension>
        </extensions>
      </trkpt>
      <trkpt lat="42.5233187712728977203369140625" lon="20.0136038102209568023681640625">
        <ele>1961.5999755859375</ele>
        <time>2026-06-19T10:07:20.000Z</time>
        <extensions>
          <ns3:TrackPointExtension>
            <ns3:atemp>19.0</ns3:atemp>
          </ns3:TrackPointExtension>
        </extensions>
      </trkpt>
      <trkpt lat="42.5233419053256511688232421875" lon="20.01361244358122348785400390625">
        <ele>1961.5999755859375</ele>
        <time>2026-06-19T10:07:21.000Z</time>
        <extensions>
          <ns3:TrackPointExtension>
            <ns3:atemp>19.0</ns3:atemp>
          </ns3:TrackPointExtension>
        </extensions>
      </trkpt>
      <trkpt lat="42.5233616866171360015869140625" lon="20.01362199895083904266357421875">
        <ele>1961.800048828125</ele>
        <time>2026-06-19T10:07:22.000Z</time>
        <extensions>
          <ns3:TrackPointExtension>
            <ns3:atemp>19.0</ns3:atemp>
          </ns3:TrackPointExtension>
        </extensions>
      </trkpt>
      <trkpt lat="42.5233794562518596649169921875" lon="20.0136309675872325897216796875">
        <ele>1962</ele>
        <time>2026-06-19T10:07:23.000Z</time>
        <extensions>
          <ns3:TrackPointExtension>
            <ns3:atemp>19.0</ns3:atemp>
          </ns3:TrackPointExtension>
        </extensions>
      </trkpt>
      <trkpt lat="42.523401081562042236328125" lon="20.0136391818523406982421875">
        <ele>1962.199951171875</ele>
        <time>2026-06-19T10:07:24.000Z</time>
        <extensions>
          <ns3:TrackPointExtension>
            <ns3:atemp>19.0</ns3:atemp>
          </ns3:TrackPointExtension>
        </extensions>
      </trkpt>
      <trkpt lat="42.523419521749019622802734375" lon="20.013640187680721282958984375">
        <ele>1962.4000244140625</ele>
        <time>2026-06-19T10:07:25.000Z</time>
        <extensions>
          <ns3:TrackPointExtension>
            <ns3:atemp>19.0</ns3:atemp>
          </ns3:TrackPointExtension>
        </extensions>
      </trkpt>
      <trkpt lat="42.52343930304050445556640625" lon="20.01363775692880153656005859375">
        <ele>1962.5999755859375</ele>
        <time>2026-06-19T10:07:26.000Z</time>
        <extensions>
          <ns3:TrackPointExtension>
            <ns3:atemp>19.0</ns3:atemp>
          </ns3:TrackPointExtension>
        </extensions>
      </trkpt>
      <trkpt lat="42.523461766541004180908203125" lon="20.01363658346235752105712890625">
        <ele>1962.800048828125</ele>
        <time>2026-06-19T10:07:27.000Z</time>
        <extensions>
          <ns3:TrackPointExtension>
            <ns3:atemp>19.0</ns3:atemp>
          </ns3:TrackPointExtension>
        </extensions>
      </trkpt>
      <trkpt lat="42.52347953617572784423828125" lon="20.0136346556246280670166015625">
        <ele>1963</ele>
        <time>2026-06-19T10:07:28.000Z</time>
        <extensions>
          <ns3:TrackPointExtension>
            <ns3:atemp>19.0</ns3:atemp>
          </ns3:TrackPointExtension>
        </extensions>
      </trkpt>
      <trkpt lat="42.5234971381723880767822265625" lon="20.0136403553187847137451171875">
        <ele>1963.199951171875</ele>
        <time>2026-06-19T10:07:29.000Z</time>
        <extensions>
          <ns3:TrackPointExtension>
            <ns3:atemp>19.0</ns3:atemp>
          </ns3:TrackPointExtension>
        </extensions>
      </trkpt>
      <trkpt lat="42.5235204398632049560546875" lon="20.0136445462703704833984375">
        <ele>1963.199951171875</ele>
        <time>2026-06-19T10:07:30.000Z</time>
        <extensions>
          <ns3:TrackPointExtension>
            <ns3:atemp>19.0</ns3:atemp>
          </ns3:TrackPointExtension>
        </extensions>
      </trkpt>
      <trkpt lat="42.523550279438495635986328125" lon="20.01364882104098796844482421875">
        <ele>1963.199951171875</ele>
        <time>2026-06-19T10:07:31.000Z</time>
        <extensions>
          <ns3:TrackPointExtension>
            <ns3:atemp>19.0</ns3:atemp>
          </ns3:TrackPointExtension>
        </extensions>
      </trkpt>
      <trkpt lat="42.5235822983086109161376953125" lon="20.01365418545901775360107421875">
        <ele>1963.199951171875</ele>
        <time>2026-06-19T10:07:32.000Z</time>
        <extensions>
          <ns3:TrackPointExtension>
            <ns3:atemp>19.0</ns3:atemp>
          </ns3:TrackPointExtension>
        </extensions>
      </trkpt>
      <trkpt lat="42.52361456863582134246826171875" lon="20.0136598013341426849365234375">
        <ele>1963.199951171875</ele>
        <time>2026-06-19T10:07:33.000Z</time>
        <extensions>
          <ns3:TrackPointExtension>
            <ns3:atemp>19.0</ns3:atemp>
          </ns3:TrackPointExtension>
        </extensions>
      </trkpt>
      <trkpt lat="42.52364189364016056060791015625" lon="20.01366558484733104705810546875">
        <ele>1963</ele>
        <time>2026-06-19T10:07:34.000Z</time>
        <extensions>
          <ns3:TrackPointExtension>
            <ns3:atemp>19.0</ns3:atemp>
          </ns3:TrackPointExtension>
        </extensions>
      </trkpt>
      <trkpt lat="42.5236718170344829559326171875" lon="20.01367229036986827850341796875">
        <ele>1963</ele>
        <time>2026-06-19T10:07:35.000Z</time>
        <extensions>
          <ns3:TrackPointExtension>
            <ns3:atemp>19.0</ns3:atemp>
          </ns3:TrackPointExtension>
        </extensions>
      </trkpt>
      <trkpt lat="42.5237006507813930511474609375" lon="20.01367832534015178680419921875">
        <ele>1962.800048828125</ele>
        <time>2026-06-19T10:07:36.000Z</time>
        <extensions>
          <ns3:TrackPointExtension>
            <ns3:atemp>19.0</ns3:atemp>
          </ns3:TrackPointExtension>
        </extensions>
      </trkpt>
      <trkpt lat="42.52373166382312774658203125" lon="20.0136849470436573028564453125">
        <ele>1962.800048828125</ele>
        <time>2026-06-19T10:07:37.000Z</time>
        <extensions>
          <ns3:TrackPointExtension>
            <ns3:atemp>19.0</ns3:atemp>
          </ns3:TrackPointExtension>
        </extensions>
      </trkpt>
      <trkpt lat="42.52376225776970386505126953125" lon="20.01368519850075244903564453125">
        <ele>1962.5999755859375</ele>
        <time>2026-06-19T10:07:38.000Z</time>
        <extensions>
          <ns3:TrackPointExtension>
            <ns3:atemp>19.0</ns3:atemp>
          </ns3:TrackPointExtension>
        </extensions>
      </trkpt>
      <trkpt lat="42.5237913429737091064453125" lon="20.01369223929941654205322265625">
        <ele>1962.4000244140625</ele>
        <time>2026-06-19T10:07:39.000Z</time>
        <extensions>
          <ns3:TrackPointExtension>
            <ns3:atemp>19.0</ns3:atemp>
          </ns3:TrackPointExtension>
        </extensions>
      </trkpt>
      <trkpt lat="42.52381883561611175537109375" lon="20.01369416713714599609375">
        <ele>1962.199951171875</ele>
        <time>2026-06-19T10:07:40.000Z</time>
        <extensions>
          <ns3:TrackPointExtension>
            <ns3:atemp>19.0</ns3:atemp>
          </ns3:TrackPointExtension>
        </extensions>
      </trkpt>
      <trkpt lat="42.52383920364081859588623046875" lon="20.01370162703096866607666015625">
        <ele>1962</ele>
        <time>2026-06-19T10:07:41.000Z</time>
        <extensions>
          <ns3:TrackPointExtension>
            <ns3:atemp>19.0</ns3:atemp>
          </ns3:TrackPointExtension>
        </extensions>
      </trkpt>
      <trkpt lat="42.5238629244267940521240234375" lon="20.0137064047157764434814453125">
        <ele>1961.5999755859375</ele>
        <time>2026-06-19T10:07:42.000Z</time>
        <extensions>
          <ns3:TrackPointExtension>
            <ns3:atemp>19.0</ns3:atemp>
          </ns3:TrackPointExtension>
        </extensions>
      </trkpt>
      <trkpt lat="42.52389117144048213958740234375" lon="20.01370699144899845123291015625">
        <ele>1961.4000244140625</ele>
        <time>2026-06-19T10:07:43.000Z</time>
        <extensions>
          <ns3:TrackPointExtension>
            <ns3:atemp>19.0</ns3:atemp>
          </ns3:TrackPointExtension>
        </extensions>
      </trkpt>
      <trkpt lat="42.5239269621670246124267578125" lon="20.01370782963931560516357421875">
        <ele>1961.199951171875</ele>
        <time>2026-06-19T10:07:44.000Z</time>
        <extensions>
          <ns3:TrackPointExtension>
            <ns3:atemp>19.0</ns3:atemp>
          </ns3:TrackPointExtension>
        </extensions>
      </trkpt>
      <trkpt lat="42.5239655189216136932373046875" lon="20.01370497979223728179931640625">
        <ele>1961.199951171875</ele>
        <time>2026-06-19T10:07:45.000Z</time>
        <extensions>
          <ns3:TrackPointExtension>
            <ns3:atemp>19.0</ns3:atemp>
          </ns3:TrackPointExtension>
        </extensions>
      </trkpt>
      <trkpt lat="42.52399745397269725799560546875" lon="20.01369743607938289642333984375">
        <ele>1961</ele>
        <time>2026-06-19T10:07:46.000Z</time>
        <extensions>
          <ns3:TrackPointExtension>
            <ns3:atemp>19.0</ns3:atemp>
          </ns3:TrackPointExtension>
        </extensions>
      </trkpt>
      <trkpt lat="42.5240194983780384063720703125" lon="20.0136939994990825653076171875">
        <ele>1961</ele>
        <time>2026-06-19T10:07:47.000Z</time>
        <extensions>
          <ns3:TrackPointExtension>
            <ns3:atemp>19.0</ns3:atemp>
          </ns3:TrackPointExtension>
        </extensions>
      </trkpt>
      <trkpt lat="42.52403332851827144622802734375" lon="20.01368804834783077239990234375">
        <ele>1961</ele>
        <time>2026-06-19T10:07:48.000Z</time>
        <extensions>
          <ns3:TrackPointExtension>
            <ns3:atemp>19.0</ns3:atemp>
          </ns3:TrackPointExtension>
        </extensions>
      </trkpt>
      <trkpt lat="42.524045817553997039794921875" lon="20.01368352212011814117431640625">
        <ele>1961.199951171875</ele>
        <time>2026-06-19T10:07:49.000Z</time>
        <extensions>
          <ns3:TrackPointExtension>
            <ns3:atemp>19.0</ns3:atemp>
          </ns3:TrackPointExtension>
        </extensions>
      </trkpt>
      <trkpt lat="42.52405713312327861785888671875" lon="20.01368368975818157196044921875">
        <ele>1961.199951171875</ele>
        <time>2026-06-19T10:07:50.000Z</time>
        <extensions>
          <ns3:TrackPointExtension>
            <ns3:atemp>19.0</ns3:atemp>
          </ns3:TrackPointExtension>
        </extensions>
      </trkpt>
      <trkpt lat="42.52407574094831943511962890625" lon="20.0136856175959110260009765625">
        <ele>1961.199951171875</ele>
        <time>2026-06-19T10:07:51.000Z</time>
        <extensions>
          <ns3:TrackPointExtension>
            <ns3:atemp>19.0</ns3:atemp>
          </ns3:TrackPointExtension>
        </extensions>
      </trkpt>
      <trkpt lat="42.524095438420772552490234375" lon="20.01368821598589420318603515625">
        <ele>1961.199951171875</ele>
        <time>2026-06-19T10:07:52.000Z</time>
        <extensions>
          <ns3:TrackPointExtension>
            <ns3:atemp>19.0</ns3:atemp>
          </ns3:TrackPointExtension>
        </extensions>
      </trkpt>
      <trkpt lat="42.5241163931787014007568359375" lon="20.0136893056333065032958984375">
        <ele>1961</ele>
        <time>2026-06-19T10:07:53.000Z</time>
        <extensions>
          <ns3:TrackPointExtension>
            <ns3:atemp>19.0</ns3:atemp>
          </ns3:TrackPointExtension>
        </extensions>
      </trkpt>
      <trkpt lat="42.5241338275372982025146484375" lon="20.01369156874716281890869140625">
        <ele>1961</ele>
        <time>2026-06-19T10:07:54.000Z</time>
        <extensions>
          <ns3:TrackPointExtension>
            <ns3:atemp>19.0</ns3:atemp>
          </ns3:TrackPointExtension>
        </extensions>
      </trkpt>
      <trkpt lat="42.52415008842945098876953125" lon="20.01369458623230457305908203125">
        <ele>1961</ele>
        <time>2026-06-19T10:07:55.000Z</time>
        <extensions>
          <ns3:TrackPointExtension>
            <ns3:atemp>19.0</ns3:atemp>
          </ns3:TrackPointExtension>
        </extensions>
      </trkpt>
      <trkpt lat="42.5241614878177642822265625" lon="20.01369928009808063507080078125">
        <ele>1961</ele>
        <time>2026-06-19T10:07:56.000Z</time>
        <extensions>
          <ns3:TrackPointExtension>
            <ns3:atemp>19.0</ns3:atemp>
          </ns3:TrackPointExtension>
        </extensions>
      </trkpt>
      <trkpt lat="42.52417288720607757568359375" lon="20.013705901801586151123046875">
        <ele>1960.800048828125</ele>
        <time>2026-06-19T10:07:57.000Z</time>
        <extensions>
          <ns3:TrackPointExtension>
            <ns3:atemp>19.0</ns3:atemp>
          </ns3:TrackPointExtension>
        </extensions>
      </trkpt>
      <trkpt lat="42.5241829454898834228515625" lon="20.01371168531477451324462890625">
        <ele>1960.800048828125</ele>
        <time>2026-06-19T10:07:58.000Z</time>
        <extensions>
          <ns3:TrackPointExtension>
            <ns3:atemp>19.0</ns3:atemp>
          </ns3:TrackPointExtension>
        </extensions>
      </trkpt>
      <trkpt lat="42.52419593743979930877685546875" lon="20.01372207887470722198486328125">
        <ele>1960.800048828125</ele>
        <time>2026-06-19T10:07:59.000Z</time>
        <extensions>
          <ns3:TrackPointExtension>
            <ns3:atemp>19.0</ns3:atemp>
          </ns3:TrackPointExtension>
        </extensions>
      </trkpt>
      <trkpt lat="42.5242097675800323486328125" lon="20.01373532228171825408935546875">
        <ele>1960.800048828125</ele>
        <time>2026-06-19T10:08:00.000Z</time>
        <extensions>
          <ns3:TrackPointExtension>
            <ns3:atemp>19.0</ns3:atemp>
          </ns3:TrackPointExtension>
        </extensions>
      </trkpt>
      <trkpt lat="42.52422728575766086578369140625" lon="20.0137426145374774932861328125">
        <ele>1960.800048828125</ele>
        <time>2026-06-19T10:08:01.000Z</time>
        <extensions>
          <ns3:TrackPointExtension>
            <ns3:atemp>19.0</ns3:atemp>
          </ns3:TrackPointExtension>
        </extensions>
      </trkpt>
      <trkpt lat="42.5242471508681774139404296875" lon="20.01374521292746067047119140625">
        <ele>1960.800048828125</ele>
        <time>2026-06-19T10:08:02.000Z</time>
        <extensions>
          <ns3:TrackPointExtension>
            <ns3:atemp>19.0</ns3:atemp>
          </ns3:TrackPointExtension>
        </extensions>
      </trkpt>
      <trkpt lat="42.524267770349979400634765625" lon="20.01375393010675907135009765625">
        <ele>1960.800048828125</ele>
        <time>2026-06-19T10:08:03.000Z</time>
        <extensions>
          <ns3:TrackPointExtension>
            <ns3:atemp>19.0</ns3:atemp>
          </ns3:TrackPointExtension>
        </extensions>
      </trkpt>
      <trkpt lat="42.524287216365337371826171875" lon="20.0137625634670257568359375">
        <ele>1960.800048828125</ele>
        <time>2026-06-19T10:08:04.000Z</time>
        <extensions>
          <ns3:TrackPointExtension>
            <ns3:atemp>19.0</ns3:atemp>
          </ns3:TrackPointExtension>
        </extensions>
      </trkpt>
      <trkpt lat="42.52430741675198078155517578125" lon="20.01377840526401996612548828125">
        <ele>1960.800048828125</ele>
        <time>2026-06-19T10:08:05.000Z</time>
        <extensions>
          <ns3:TrackPointExtension>
            <ns3:atemp>19.0</ns3:atemp>
          </ns3:TrackPointExtension>
        </extensions>
      </trkpt>
      <trkpt lat="42.524324767291545867919921875" lon="20.0137965939939022064208984375">
        <ele>1961</ele>
        <time>2026-06-19T10:08:06.000Z</time>
        <extensions>
          <ns3:TrackPointExtension>
            <ns3:atemp>19.0</ns3:atemp>
          </ns3:TrackPointExtension>
        </extensions>
      </trkpt>
      <trkpt lat="42.52434463240206241607666015625" lon="20.01381956040859222412109375">
        <ele>1961</ele>
        <time>2026-06-19T10:08:07.000Z</time>
        <extensions>
          <ns3:TrackPointExtension>
            <ns3:atemp>19.0</ns3:atemp>
          </ns3:TrackPointExtension>
        </extensions>
      </trkpt>
      <trkpt lat="42.52436307258903980255126953125" lon="20.013841353356838226318359375">
        <ele>1961</ele>
        <time>2026-06-19T10:08:08.000Z</time>
        <extensions>
          <ns3:TrackPointExtension>
            <ns3:atemp>19.0</ns3:atemp>
          </ns3:TrackPointExtension>
        </extensions>
      </trkpt>
      <trkpt lat="42.524381764233112335205078125" lon="20.01385937444865703582763671875">
        <ele>1961</ele>
        <time>2026-06-19T10:08:09.000Z</time>
        <extensions>
          <ns3:TrackPointExtension>
            <ns3:atemp>19.0</ns3:atemp>
          </ns3:TrackPointExtension>
        </extensions>
      </trkpt>
      <trkpt lat="42.524402551352977752685546875" lon="20.01387655735015869140625">
        <ele>1961.199951171875</ele>
        <time>2026-06-19T10:08:10.000Z</time>
        <extensions>
          <ns3:TrackPointExtension>
            <ns3:atemp>19.0</ns3:atemp>
          </ns3:TrackPointExtension>
        </extensions>
      </trkpt>
      <trkpt lat="42.5244241766631603240966796875" lon="20.0138914771378040313720703125">
        <ele>1961.4000244140625</ele>
        <time>2026-06-19T10:08:11.000Z</time>
        <extensions>
          <ns3:TrackPointExtension>
            <ns3:atemp>19.0</ns3:atemp>
          </ns3:TrackPointExtension>
        </extensions>
      </trkpt>
      <trkpt lat="42.5244449637830257415771484375" lon="20.01390329562127590179443359375">
        <ele>1961.5999755859375</ele>
        <time>2026-06-19T10:08:12.000Z</time>
        <extensions>
          <ns3:TrackPointExtension>
            <ns3:atemp>19.0</ns3:atemp>
          </ns3:TrackPointExtension>
        </extensions>
      </trkpt>
      <trkpt lat="42.52446784637868404388427734375" lon="20.0139193050563335418701171875">
        <ele>1961.800048828125</ele>
        <time>2026-06-19T10:08:13.000Z</time>
        <extensions>
          <ns3:TrackPointExtension>
            <ns3:atemp>19.0</ns3:atemp>
          </ns3:TrackPointExtension>
        </extensions>
      </trkpt>
      <trkpt lat="42.5244912318885326385498046875" lon="20.013935901224613189697265625">
        <ele>1962</ele>
        <time>2026-06-19T10:08:14.000Z</time>
        <extensions>
          <ns3:TrackPointExtension>
            <ns3:atemp>19.0</ns3:atemp>
          </ns3:TrackPointExtension>
        </extensions>
      </trkpt>
      <trkpt lat="42.52451218664646148681640625" lon="20.013950653374195098876953125">
        <ele>1962.199951171875</ele>
        <time>2026-06-19T10:08:15.000Z</time>
        <extensions>
          <ns3:TrackPointExtension>
            <ns3:atemp>19.0</ns3:atemp>
          </ns3:TrackPointExtension>
        </extensions>
      </trkpt>
      <trkpt lat="42.524532973766326904296875" lon="20.0139719434082508087158203125">
        <ele>1962.4000244140625</ele>
        <time>2026-06-19T10:08:16.000Z</time>
        <extensions>
          <ns3:TrackPointExtension>
            <ns3:atemp>19.0</ns3:atemp>
          </ns3:TrackPointExtension>
        </extensions>
      </trkpt>
      <trkpt lat="42.52455317415297031402587890625" lon="20.01399415545165538787841796875">
        <ele>1962.5999755859375</ele>
        <time>2026-06-19T10:08:17.000Z</time>
        <extensions>
          <ns3:TrackPointExtension>
            <ns3:atemp>19.0</ns3:atemp>
          </ns3:TrackPointExtension>
        </extensions>
      </trkpt>
      <trkpt lat="42.5245743803679943084716796875" lon="20.014019049704074859619140625">
        <ele>1962.800048828125</ele>
        <time>2026-06-19T10:08:18.000Z</time>
        <extensions>
          <ns3:TrackPointExtension>
            <ns3:atemp>19.0</ns3:atemp>
          </ns3:TrackPointExtension>
        </extensions>
      </trkpt>
      <trkpt lat="42.52459399402141571044921875" lon="20.01404084265232086181640625">
        <ele>1963</ele>
        <time>2026-06-19T10:08:19.000Z</time>
        <extensions>
          <ns3:TrackPointExtension>
            <ns3:atemp>19.0</ns3:atemp>
          </ns3:TrackPointExtension>
        </extensions>
      </trkpt>
      <trkpt lat="42.52461218275129795074462890625" lon="20.014060623943805694580078125">
        <ele>1963</ele>
        <time>2026-06-19T10:08:20.000Z</time>
        <extensions>
          <ns3:TrackPointExtension>
            <ns3:atemp>19.0</ns3:atemp>
          </ns3:TrackPointExtension>
        </extensions>
      </trkpt>
      <trkpt lat="42.5246310420334339141845703125" lon="20.0140825845301151275634765625">
        <ele>1963.199951171875</ele>
        <time>2026-06-19T10:08:21.000Z</time>
        <extensions>
          <ns3:TrackPointExtension>
            <ns3:atemp>19.0</ns3:atemp>
          </ns3:TrackPointExtension>
        </extensions>
      </trkpt>
      <trkpt lat="42.5246474705636501312255859375" lon="20.0141070596873760223388671875">
        <ele>1963.199951171875</ele>
        <time>2026-06-19T10:08:22.000Z</time>
        <extensions>
          <ns3:TrackPointExtension>
            <ns3:atemp>19.0</ns3:atemp>
          </ns3:TrackPointExtension>
        </extensions>
      </trkpt>
      <trkpt lat="42.52466239035129547119140625" lon="20.01413497142493724822998046875">
        <ele>1963.4000244140625</ele>
        <time>2026-06-19T10:08:23.000Z</time>
        <extensions>
          <ns3:TrackPointExtension>
            <ns3:atemp>19.0</ns3:atemp>
          </ns3:TrackPointExtension>
        </extensions>
      </trkpt>
      <trkpt lat="42.52467554993927478790283203125" lon="20.0141613744199275970458984375">
        <ele>1963.5999755859375</ele>
        <time>2026-06-19T10:08:24.000Z</time>
        <extensions>
          <ns3:TrackPointExtension>
            <ns3:atemp>19.0</ns3:atemp>
          </ns3:TrackPointExtension>
        </extensions>
      </trkpt>
      <trkpt lat="42.52468761987984180450439453125" lon="20.0141863524913787841796875">
        <ele>1963.5999755859375</ele>
        <time>2026-06-19T10:08:25.000Z</time>
        <extensions>
          <ns3:TrackPointExtension>
            <ns3:atemp>19.0</ns3:atemp>
          </ns3:TrackPointExtension>
        </extensions>
      </trkpt>
      <trkpt lat="42.524698935449123382568359375" lon="20.014210827648639678955078125">
        <ele>1963.800048828125</ele>
        <time>2026-06-19T10:08:26.000Z</time>
        <extensions>
          <ns3:TrackPointExtension>
            <ns3:atemp>19.0</ns3:atemp>
          </ns3:TrackPointExtension>
        </extensions>
      </trkpt>
      <trkpt lat="42.5247054733335971832275390625" lon="20.0142354704439640045166015625">
        <ele>1963.800048828125</ele>
        <time>2026-06-19T10:08:27.000Z</time>
        <extensions>
          <ns3:TrackPointExtension>
            <ns3:atemp>19.0</ns3:atemp>
          </ns3:TrackPointExtension>
        </extensions>
      </trkpt>
      <trkpt lat="42.52471494488418102264404296875" lon="20.0142619572579860687255859375">
        <ele>1963.800048828125</ele>
        <time>2026-06-19T10:08:28.000Z</time>
        <extensions>
          <ns3:TrackPointExtension>
            <ns3:atemp>19.0</ns3:atemp>
          </ns3:TrackPointExtension>
        </extensions>
      </trkpt>
      <trkpt lat="42.524722404778003692626953125" lon="20.014289952814579010009765625">
        <ele>1963.800048828125</ele>
        <time>2026-06-19T10:08:29.000Z</time>
        <extensions>
          <ns3:TrackPointExtension>
            <ns3:atemp>19.0</ns3:atemp>
          </ns3:TrackPointExtension>
        </extensions>
      </trkpt>
      <trkpt lat="42.52473212778568267822265625" lon="20.01431384123861789703369140625">
        <ele>1963.800048828125</ele>
        <time>2026-06-19T10:08:30.000Z</time>
        <extensions>
          <ns3:TrackPointExtension>
            <ns3:atemp>19.0</ns3:atemp>
          </ns3:TrackPointExtension>
        </extensions>
      </trkpt>
      <trkpt lat="42.524741180241107940673828125" lon="20.01433362253010272979736328125">
        <ele>1964</ele>
        <time>2026-06-19T10:08:31.000Z</time>
        <extensions>
          <ns3:TrackPointExtension>
            <ns3:atemp>19.0</ns3:atemp>
          </ns3:TrackPointExtension>
        </extensions>
      </trkpt>
      <trkpt lat="42.5247510708868503570556640625" lon="20.01435935497283935546875">
        <ele>1964</ele>
        <time>2026-06-19T10:08:32.000Z</time>
        <extensions>
          <ns3:TrackPointExtension>
            <ns3:atemp>19.0</ns3:atemp>
          </ns3:TrackPointExtension>
        </extensions>
      </trkpt>
      <trkpt lat="42.52476473338901996612548828125" lon="20.01438324339687824249267578125">
        <ele>1964</ele>
        <time>2026-06-19T10:08:33.000Z</time>
        <extensions>
          <ns3:TrackPointExtension>
            <ns3:atemp>19.0</ns3:atemp>
          </ns3:TrackPointExtension>
        </extensions>
      </trkpt>
      <trkpt lat="42.52478132955729961395263671875" lon="20.0144071318209171295166015625">
        <ele>1964.199951171875</ele>
        <time>2026-06-19T10:08:34.000Z</time>
        <extensions>
          <ns3:TrackPointExtension>
            <ns3:atemp>19.0</ns3:atemp>
          </ns3:TrackPointExtension>
        </extensions>
      </trkpt>
      <trkpt lat="42.52479507587850093841552734375" lon="20.01443454064428806304931640625">
        <ele>1964.4000244140625</ele>
        <time>2026-06-19T10:08:35.000Z</time>
        <extensions>
          <ns3:TrackPointExtension>
            <ns3:atemp>19.0</ns3:atemp>
          </ns3:TrackPointExtension>
        </extensions>
      </trkpt>
      <trkpt lat="42.524813599884510040283203125" lon="20.0144599378108978271484375">
        <ele>1964.5999755859375</ele>
        <time>2026-06-19T10:08:36.000Z</time>
        <extensions>
          <ns3:TrackPointExtension>
            <ns3:atemp>19.0</ns3:atemp>
          </ns3:TrackPointExtension>
        </extensions>
      </trkpt>
      <trkpt lat="42.5248281843960285186767578125" lon="20.0144886039197444915771484375">
        <ele>1964.800048828125</ele>
        <time>2026-06-19T10:08:37.000Z</time>
        <extensions>
          <ns3:TrackPointExtension>
            <ns3:atemp>19.0</ns3:atemp>
          </ns3:TrackPointExtension>
        </extensions>
      </trkpt>
      <trkpt lat="42.5248476304113864898681640625" lon="20.01451165415346622467041015625">
        <ele>1965</ele>
        <time>2026-06-19T10:08:38.000Z</time>
        <extensions>
          <ns3:TrackPointExtension>
            <ns3:atemp>19.0</ns3:atemp>
          </ns3:TrackPointExtension>
        </extensions>
      </trkpt>
      <trkpt lat="42.52486565150320529937744140625" lon="20.01453679986298084259033203125">
        <ele>1965.199951171875</ele>
        <time>2026-06-19T10:08:39.000Z</time>
        <extensions>
          <ns3:TrackPointExtension>
            <ns3:atemp>19.0</ns3:atemp>
          </ns3:TrackPointExtension>
        </extensions>
      </trkpt>
      <trkpt lat="42.52488275058567523956298828125" lon="20.014555491507053375244140625">
        <ele>1965.5999755859375</ele>
        <time>2026-06-19T10:08:40.000Z</time>
        <extensions>
          <ns3:TrackPointExtension>
            <ns3:atemp>19.0</ns3:atemp>
          </ns3:TrackPointExtension>
        </extensions>
      </trkpt>
      <trkpt lat="42.52490186132490634918212890625" lon="20.01457267440855503082275390625">
        <ele>1965.800048828125</ele>
        <time>2026-06-19T10:08:41.000Z</time>
        <extensions>
          <ns3:TrackPointExtension>
            <ns3:atemp>19.0</ns3:atemp>
          </ns3:TrackPointExtension>
        </extensions>
      </trkpt>
      <trkpt lat="42.524924241006374359130859375" lon="20.0145885162055492401123046875">
        <ele>1966</ele>
        <time>2026-06-19T10:08:42.000Z</time>
        <extensions>
          <ns3:TrackPointExtension>
            <ns3:atemp>19.0</ns3:atemp>
          </ns3:TrackPointExtension>
        </extensions>
      </trkpt>
      <trkpt lat="42.52494360320270061492919921875" lon="20.01460201106965541839599609375">
        <ele>1966.199951171875</ele>
        <time>2026-06-19T10:08:43.000Z</time>
        <extensions>
          <ns3:TrackPointExtension>
            <ns3:atemp>19.0</ns3:atemp>
          </ns3:TrackPointExtension>
        </extensions>
      </trkpt>
      <trkpt lat="42.52495902590453624725341796875" lon="20.01461760140955448150634765625">
        <ele>1966.4000244140625</ele>
        <time>2026-06-19T10:08:44.000Z</time>
        <extensions>
          <ns3:TrackPointExtension>
            <ns3:atemp>19.0</ns3:atemp>
          </ns3:TrackPointExtension>
        </extensions>
      </trkpt>
      <trkpt lat="42.524976544082164764404296875" lon="20.01463486813008785247802734375">
        <ele>1966.5999755859375</ele>
        <time>2026-06-19T10:08:45.000Z</time>
        <extensions>
          <ns3:TrackPointExtension>
            <ns3:atemp>19.0</ns3:atemp>
          </ns3:TrackPointExtension>
        </extensions>
      </trkpt>
      <trkpt lat="42.52499230206012725830078125" lon="20.01466018147766590118408203125">
        <ele>1967</ele>
        <time>2026-06-19T10:08:46.000Z</time>
        <extensions>
          <ns3:TrackPointExtension>
            <ns3:atemp>19.0</ns3:atemp>
          </ns3:TrackPointExtension>
        </extensions>
      </trkpt>
      <trkpt lat="42.52500847913324832916259765625" lon="20.01468096859753131866455078125">
        <ele>1967.199951171875</ele>
        <time>2026-06-19T10:08:47.000Z</time>
        <extensions>
          <ns3:TrackPointExtension>
            <ns3:atemp>19.0</ns3:atemp>
          </ns3:TrackPointExtension>
        </extensions>
      </trkpt>
      <trkpt lat="42.52502725459635257720947265625" lon="20.01470041461288928985595703125">
        <ele>1967.4000244140625</ele>
        <time>2026-06-19T10:08:48.000Z</time>
        <extensions>
          <ns3:TrackPointExtension>
            <ns3:atemp>19.0</ns3:atemp>
          </ns3:TrackPointExtension>
        </extensions>
      </trkpt>
      <trkpt lat="42.52504435367882251739501953125" lon="20.01471566967666149139404296875">
        <ele>1967.5999755859375</ele>
        <time>2026-06-19T10:08:49.000Z</time>
        <extensions>
          <ns3:TrackPointExtension>
            <ns3:atemp>19.0</ns3:atemp>
          </ns3:TrackPointExtension>
        </extensions>
      </trkpt>
      <trkpt lat="42.52506069839000701904296875" lon="20.014730505645275115966796875">
        <ele>1968</ele>
        <time>2026-06-19T10:08:50.000Z</time>
        <extensions>
          <ns3:TrackPointExtension>
            <ns3:atemp>19.0</ns3:atemp>
          </ns3:TrackPointExtension>
        </extensions>
      </trkpt>
      <trkpt lat="42.52507687546312808990478515625" lon="20.01474886201322078704833984375">
        <ele>1968.199951171875</ele>
        <time>2026-06-19T10:08:51.000Z</time>
        <extensions>
          <ns3:TrackPointExtension>
            <ns3:atemp>19.0</ns3:atemp>
          </ns3:TrackPointExtension>
        </extensions>
      </trkpt>
      <trkpt lat="42.52509447745978832244873046875" lon="20.01477031968533992767333984375">
        <ele>1968.5999755859375</ele>
        <time>2026-06-19T10:08:52.000Z</time>
        <extensions>
          <ns3:TrackPointExtension>
            <ns3:atemp>19.0</ns3:atemp>
          </ns3:TrackPointExtension>
        </extensions>
      </trkpt>
      <trkpt lat="42.525112330913543701171875" lon="20.01479295082390308380126953125">
        <ele>1968.800048828125</ele>
        <time>2026-06-19T10:08:53.000Z</time>
        <extensions>
          <ns3:TrackPointExtension>
            <ns3:atemp>19.0</ns3:atemp>
          </ns3:TrackPointExtension>
        </extensions>
      </trkpt>
      <trkpt lat="42.5251316092908382415771484375" lon="20.0148128159344196319580078125">
        <ele>1969</ele>
        <time>2026-06-19T10:08:54.000Z</time>
        <extensions>
          <ns3:TrackPointExtension>
            <ns3:atemp>19.0</ns3:atemp>
          </ns3:TrackPointExtension>
        </extensions>
      </trkpt>
      <trkpt lat="42.5251485407352447509765625" lon="20.01483536325395107269287109375">
        <ele>1969</ele>
        <time>2026-06-19T10:08:55.000Z</time>
        <extensions>
          <ns3:TrackPointExtension>
            <ns3:atemp>19.0</ns3:atemp>
          </ns3:TrackPointExtension>
        </extensions>
      </trkpt>
      <trkpt lat="42.5251684896647930145263671875" lon="20.0148533843457698822021484375">
        <ele>1969.199951171875</ele>
        <time>2026-06-19T10:08:56.000Z</time>
        <extensions>
          <ns3:TrackPointExtension>
            <ns3:atemp>19.0</ns3:atemp>
          </ns3:TrackPointExtension>
        </extensions>
      </trkpt>
      <trkpt lat="42.52518550492823123931884765625" lon="20.01487542875111103057861328125">
        <ele>1969.5999755859375</ele>
        <time>2026-06-19T10:08:57.000Z</time>
        <extensions>
          <ns3:TrackPointExtension>
            <ns3:atemp>19.0</ns3:atemp>
          </ns3:TrackPointExtension>
        </extensions>
      </trkpt>
      <trkpt lat="42.52520176582038402557373046875" lon="20.01489286310970783233642578125">
        <ele>1969.800048828125</ele>
        <time>2026-06-19T10:08:58.000Z</time>
        <extensions>
          <ns3:TrackPointExtension>
            <ns3:atemp>19.0</ns3:atemp>
          </ns3:TrackPointExtension>
        </extensions>
      </trkpt>
      <trkpt lat="42.52522137947380542755126953125" lon="20.01491121947765350341796875">
        <ele>1970.199951171875</ele>
        <time>2026-06-19T10:08:59.000Z</time>
        <extensions>
          <ns3:TrackPointExtension>
            <ns3:atemp>19.0</ns3:atemp>
          </ns3:TrackPointExtension>
        </extensions>
      </trkpt>
      <trkpt lat="42.5252405740320682525634765625" lon="20.01492706127464771270751953125">
        <ele>1970.5999755859375</ele>
        <time>2026-06-19T10:09:00.000Z</time>
        <extensions>
          <ns3:TrackPointExtension>
            <ns3:atemp>19.0</ns3:atemp>
          </ns3:TrackPointExtension>
        </extensions>
      </trkpt>
      <trkpt lat="42.5252585113048553466796875" lon="20.01494265161454677581787109375">
        <ele>1971</ele>
        <time>2026-06-19T10:09:01.000Z</time>
        <extensions>
          <ns3:TrackPointExtension>
            <ns3:atemp>19.0</ns3:atemp>
          </ns3:TrackPointExtension>
        </extensions>
      </trkpt>
      <trkpt lat="42.525277622044086456298828125" lon="20.01496042124927043914794921875">
        <ele>1971.4000244140625</ele>
        <time>2026-06-19T10:09:02.000Z</time>
        <extensions>
          <ns3:TrackPointExtension>
            <ns3:atemp>19.0</ns3:atemp>
          </ns3:TrackPointExtension>
        </extensions>
      </trkpt>
      <trkpt lat="42.52529480494558811187744140625" lon="20.01497869379818439483642578125">
        <ele>1972</ele>
        <time>2026-06-19T10:09:03.000Z</time>
        <extensions>
          <ns3:TrackPointExtension>
            <ns3:atemp>19.0</ns3:atemp>
          </ns3:TrackPointExtension>
        </extensions>
      </trkpt>
      <trkpt lat="42.52531014382839202880859375" lon="20.0149948708713054656982421875">
        <ele>1972.4000244140625</ele>
        <time>2026-06-19T10:09:04.000Z</time>
        <extensions>
          <ns3:TrackPointExtension>
            <ns3:atemp>19.0</ns3:atemp>
          </ns3:TrackPointExtension>
        </extensions>
      </trkpt>
      <trkpt lat="42.52532581798732280731201171875" lon="20.01501238904893398284912109375">
        <ele>1972.800048828125</ele>
        <time>2026-06-19T10:09:05.000Z</time>
        <extensions>
          <ns3:TrackPointExtension>
            <ns3:atemp>19.0</ns3:atemp>
          </ns3:TrackPointExtension>
        </extensions>
      </trkpt>
      <trkpt lat="42.52533956430852413177490234375" lon="20.01502999104559421539306640625">
        <ele>1973</ele>
        <time>2026-06-19T10:09:06.000Z</time>
        <extensions>
          <ns3:TrackPointExtension>
            <ns3:atemp>19.0</ns3:atemp>
          </ns3:TrackPointExtension>
        </extensions>
      </trkpt>
      <trkpt lat="42.52535280771553516387939453125" lon="20.0150458328425884246826171875">
        <ele>1973.4000244140625</ele>
        <time>2026-06-19T10:09:07.000Z</time>
        <extensions>
          <ns3:TrackPointExtension>
            <ns3:atemp>19.0</ns3:atemp>
          </ns3:TrackPointExtension>
        </extensions>
      </trkpt>
      <trkpt lat="42.5253716669976711273193359375" lon="20.0150639377534389495849609375">
        <ele>1973.800048828125</ele>
        <time>2026-06-19T10:09:08.000Z</time>
        <extensions>
          <ns3:TrackPointExtension>
            <ns3:atemp>19.0</ns3:atemp>
          </ns3:TrackPointExtension>
        </extensions>
      </trkpt>
      <trkpt lat="42.525386251509189605712890625" lon="20.01508430577814579010009765625">
        <ele>1974.199951171875</ele>
        <time>2026-06-19T10:09:09.000Z</time>
        <extensions>
          <ns3:TrackPointExtension>
            <ns3:atemp>19.0</ns3:atemp>
          </ns3:TrackPointExtension>
        </extensions>
      </trkpt>
      <trkpt lat="42.5253998301923274993896484375" lon="20.01510542817413806915283203125">
        <ele>1974.4000244140625</ele>
        <time>2026-06-19T10:09:10.000Z</time>
        <extensions>
          <ns3:TrackPointExtension>
            <ns3:atemp>19.0</ns3:atemp>
          </ns3:TrackPointExtension>
        </extensions>
      </trkpt>
      <trkpt lat="42.5254125706851482391357421875" lon="20.01512403599917888641357421875">
        <ele>1974.800048828125</ele>
        <time>2026-06-19T10:09:11.000Z</time>
        <extensions>
          <ns3:TrackPointExtension>
            <ns3:atemp>19.0</ns3:atemp>
          </ns3:TrackPointExtension>
        </extensions>
      </trkpt>
      <trkpt lat="42.52542455680668354034423828125" lon="20.0151474215090274810791015625">
        <ele>1975</ele>
        <time>2026-06-19T10:09:12.000Z</time>
        <extensions>
          <ns3:TrackPointExtension>
            <ns3:atemp>19.0</ns3:atemp>
          </ns3:TrackPointExtension>
        </extensions>
      </trkpt>
      <trkpt lat="42.525432519614696502685546875" lon="20.0151712261140346527099609375">
        <ele>1975.199951171875</ele>
        <time>2026-06-19T10:09:13.000Z</time>
        <extensions>
          <ns3:TrackPointExtension>
            <ns3:atemp>19.0</ns3:atemp>
          </ns3:TrackPointExtension>
        </extensions>
      </trkpt>
      <trkpt lat="42.52543914131820201873779296875" lon="20.0151913426816463470458984375">
        <ele>1975.4000244140625</ele>
        <time>2026-06-19T10:09:14.000Z</time>
        <extensions>
          <ns3:TrackPointExtension>
            <ns3:atemp>19.0</ns3:atemp>
          </ns3:TrackPointExtension>
        </extensions>
      </trkpt>
      <trkpt lat="42.5254481099545955657958984375" lon="20.01521171070635318756103515625">
        <ele>1975.800048828125</ele>
        <time>2026-06-19T10:09:15.000Z</time>
        <extensions>
          <ns3:TrackPointExtension>
            <ns3:atemp>19.0</ns3:atemp>
          </ns3:TrackPointExtension>
        </extensions>
      </trkpt>
      <trkpt lat="42.52545406110584735870361328125" lon="20.0152329169213771820068359375">
        <ele>1976</ele>
        <time>2026-06-19T10:09:16.000Z</time>
        <extensions>
          <ns3:TrackPointExtension>
            <ns3:atemp>19.0</ns3:atemp>
          </ns3:TrackPointExtension>
        </extensions>
      </trkpt>
      <trkpt lat="42.52545909024775028228759765625" lon="20.01525454223155975341796875">
        <ele>1976.199951171875</ele>
        <time>2026-06-19T10:09:17.000Z</time>
        <extensions>
          <ns3:TrackPointExtension>
            <ns3:atemp>19.0</ns3:atemp>
          </ns3:TrackPointExtension>
        </extensions>
      </trkpt>
      <trkpt lat="42.5254704058170318603515625" lon="20.0152806937694549560546875">
        <ele>1976.4000244140625</ele>
        <time>2026-06-19T10:09:18.000Z</time>
        <extensions>
          <ns3:TrackPointExtension>
            <ns3:atemp>19.0</ns3:atemp>
          </ns3:TrackPointExtension>
        </extensions>
      </trkpt>
      <trkpt lat="42.525482475757598876953125" lon="20.015303157269954681396484375">
        <ele>1976.800048828125</ele>
        <time>2026-06-19T10:09:19.000Z</time>
        <extensions>
          <ns3:TrackPointExtension>
            <ns3:atemp>19.0</ns3:atemp>
          </ns3:TrackPointExtension>
        </extensions>
      </trkpt>
      <trkpt lat="42.52549144439399242401123046875" lon="20.0153298117220401763916015625">
        <ele>1977</ele>
        <time>2026-06-19T10:09:20.000Z</time>
        <extensions>
          <ns3:TrackPointExtension>
            <ns3:atemp>19.0</ns3:atemp>
          </ns3:TrackPointExtension>
        </extensions>
      </trkpt>
      <trkpt lat="42.52549923956394195556640625" lon="20.015352107584476470947265625">
        <ele>1977.199951171875</ele>
        <time>2026-06-19T10:09:21.000Z</time>
        <extensions>
          <ns3:TrackPointExtension>
            <ns3:atemp>19.0</ns3:atemp>
          </ns3:TrackPointExtension>
        </extensions>
      </trkpt>
      <trkpt lat="42.5255071185529232025146484375" lon="20.0153767503798007965087890625">
        <ele>1977.4000244140625</ele>
        <time>2026-06-19T10:09:22.000Z</time>
        <extensions>
          <ns3:TrackPointExtension>
            <ns3:atemp>19.0</ns3:atemp>
          </ns3:TrackPointExtension>
        </extensions>
      </trkpt>
      <trkpt lat="42.525519020855426788330078125" lon="20.01540449447929859161376953125">
        <ele>1977.800048828125</ele>
        <time>2026-06-19T10:09:23.000Z</time>
        <extensions>
          <ns3:TrackPointExtension>
            <ns3:atemp>19.0</ns3:atemp>
          </ns3:TrackPointExtension>
        </extensions>
      </trkpt>
      <trkpt lat="42.52552765421569347381591796875" lon="20.0154330767691135406494140625">
        <ele>1978</ele>
        <time>2026-06-19T10:09:24.000Z</time>
        <extensions>
          <ns3:TrackPointExtension>
            <ns3:atemp>19.0</ns3:atemp>
          </ns3:TrackPointExtension>
        </extensions>
      </trkpt>
      <trkpt lat="42.52553335390985012054443359375" lon="20.0154590606689453125">
        <ele>1978.199951171875</ele>
        <time>2026-06-19T10:09:25.000Z</time>
        <extensions>
          <ns3:TrackPointExtension>
            <ns3:atemp>19.0</ns3:atemp>
          </ns3:TrackPointExtension>
        </extensions>
      </trkpt>
      <trkpt lat="42.5255372934043407440185546875" lon="20.015482194721698760986328125">
        <ele>1978.4000244140625</ele>
        <time>2026-06-19T10:09:26.000Z</time>
        <extensions>
          <ns3:TrackPointExtension>
            <ns3:atemp>19.0</ns3:atemp>
          </ns3:TrackPointExtension>
        </extensions>
      </trkpt>
      <trkpt lat="42.52554215490818023681640625" lon="20.015504993498325347900390625">
        <ele>1978.800048828125</ele>
        <time>2026-06-19T10:09:27.000Z</time>
        <extensions>
          <ns3:TrackPointExtension>
            <ns3:atemp>19.0</ns3:atemp>
          </ns3:TrackPointExtension>
        </extensions>
      </trkpt>
      <trkpt lat="42.52554609440267086029052734375" lon="20.0155319832265377044677734375">
        <ele>1979</ele>
        <time>2026-06-19T10:09:28.000Z</time>
        <extensions>
          <ns3:TrackPointExtension>
            <ns3:atemp>19.0</ns3:atemp>
          </ns3:TrackPointExtension>
        </extensions>
      </trkpt>
      <trkpt lat="42.52554726786911487579345703125" lon="20.01556165516376495361328125">
        <ele>1979.199951171875</ele>
        <time>2026-06-19T10:09:29.000Z</time>
        <extensions>
          <ns3:TrackPointExtension>
            <ns3:atemp>19.0</ns3:atemp>
          </ns3:TrackPointExtension>
        </extensions>
      </trkpt>
      <trkpt lat="42.52555062063038349151611328125" lon="20.01559208147227764129638671875">
        <ele>1979.4000244140625</ele>
        <time>2026-06-19T10:09:30.000Z</time>
        <extensions>
          <ns3:TrackPointExtension>
            <ns3:atemp>19.0</ns3:atemp>
          </ns3:TrackPointExtension>
        </extensions>
      </trkpt>
      <trkpt lat="42.52555212937295436859130859375" lon="20.0156245194375514984130859375">
        <ele>1979.5999755859375</ele>
        <time>2026-06-19T10:09:31.000Z</time>
        <extensions>
          <ns3:TrackPointExtension>
            <ns3:atemp>19.0</ns3:atemp>
          </ns3:TrackPointExtension>
        </extensions>
      </trkpt>
      <trkpt lat="42.5255481898784637451171875" lon="20.01566148363053798675537109375">
        <ele>1979.5999755859375</ele>
        <time>2026-06-19T10:09:32.000Z</time>
        <extensions>
          <ns3:TrackPointExtension>
            <ns3:atemp>19.0</ns3:atemp>
          </ns3:TrackPointExtension>
        </extensions>
      </trkpt>
      <trkpt lat="42.52554659731686115264892578125" lon="20.01569953747093677520751953125">
        <ele>1979.5999755859375</ele>
        <time>2026-06-19T10:09:33.000Z</time>
        <extensions>
          <ns3:TrackPointExtension>
            <ns3:atemp>19.0</ns3:atemp>
          </ns3:TrackPointExtension>
        </extensions>
      </trkpt>
      <trkpt lat="42.5255503691732883453369140625" lon="20.01573759131133556365966796875">
        <ele>1979.5999755859375</ele>
        <time>2026-06-19T10:09:34.000Z</time>
        <extensions>
          <ns3:TrackPointExtension>
            <ns3:atemp>19.0</ns3:atemp>
          </ns3:TrackPointExtension>
        </extensions>
      </trkpt>
      <trkpt lat="42.525557577610015869140625" lon="20.0157656706869602203369140625">
        <ele>1979.5999755859375</ele>
        <time>2026-06-19T10:09:35.000Z</time>
        <extensions>
          <ns3:TrackPointExtension>
            <ns3:atemp>19.0</ns3:atemp>
          </ns3:TrackPointExtension>
        </extensions>
      </trkpt>
      <trkpt lat="42.52556989900767803192138671875" lon="20.01579844392836093902587890625">
        <ele>1979.800048828125</ele>
        <time>2026-06-19T10:09:36.000Z</time>
        <extensions>
          <ns3:TrackPointExtension>
            <ns3:atemp>19.0</ns3:atemp>
          </ns3:TrackPointExtension>
        </extensions>
      </trkpt>
      <trkpt lat="42.52557962201535701751708984375" lon="20.0158345699310302734375">
        <ele>1979.800048828125</ele>
        <time>2026-06-19T10:09:37.000Z</time>
        <extensions>
          <ns3:TrackPointExtension>
            <ns3:atemp>19.0</ns3:atemp>
          </ns3:TrackPointExtension>
        </extensions>
      </trkpt>
      <trkpt lat="42.52558750100433826446533203125" lon="20.01587069593369960784912109375">
        <ele>1979.800048828125</ele>
        <time>2026-06-19T10:09:38.000Z</time>
        <extensions>
          <ns3:TrackPointExtension>
            <ns3:atemp>19.0</ns3:atemp>
          </ns3:TrackPointExtension>
        </extensions>
      </trkpt>
      <trkpt lat="42.5255902670323848724365234375" lon="20.01589701510965824127197265625">
        <ele>1979.800048828125</ele>
        <time>2026-06-19T10:09:39.000Z</time>
        <extensions>
          <ns3:TrackPointExtension>
            <ns3:atemp>19.0</ns3:atemp>
          </ns3:TrackPointExtension>
        </extensions>
      </trkpt>
      <trkpt lat="42.525586076080799102783203125" lon="20.0159229151904582977294921875">
        <ele>1979.800048828125</ele>
        <time>2026-06-19T10:09:40.000Z</time>
        <extensions>
          <ns3:TrackPointExtension>
            <ns3:atemp>19.0</ns3:atemp>
          </ns3:TrackPointExtension>
        </extensions>
      </trkpt>
      <trkpt lat="42.52558750100433826446533203125" lon="20.015949904918670654296875">
        <ele>1980</ele>
        <time>2026-06-19T10:09:41.000Z</time>
        <extensions>
          <ns3:TrackPointExtension>
            <ns3:atemp>19.0</ns3:atemp>
          </ns3:TrackPointExtension>
        </extensions>
      </trkpt>
      <trkpt lat="42.5255892612040042877197265625" lon="20.015974380075931549072265625">
        <ele>1980.199951171875</ele>
        <time>2026-06-19T10:09:42.000Z</time>
        <extensions>
          <ns3:TrackPointExtension>
            <ns3:atemp>19.0</ns3:atemp>
          </ns3:TrackPointExtension>
        </extensions>
      </trkpt>
      <trkpt lat="42.5255875848233699798583984375" lon="20.01599424518644809722900390625">
        <ele>1980.4000244140625</ele>
        <time>2026-06-19T10:09:43.000Z</time>
        <extensions>
          <ns3:TrackPointExtension>
            <ns3:atemp>19.0</ns3:atemp>
          </ns3:TrackPointExtension>
        </extensions>
      </trkpt>
      <trkpt lat="42.5255830585956573486328125" lon="20.0160236656665802001953125">
        <ele>1980.5999755859375</ele>
        <time>2026-06-19T10:09:44.000Z</time>
        <extensions>
          <ns3:TrackPointExtension>
            <ns3:atemp>19.0</ns3:atemp>
          </ns3:TrackPointExtension>
        </extensions>
      </trkpt>
      <trkpt lat="42.52557811327278614044189453125" lon="20.01605275087058544158935546875">
        <ele>1980.800048828125</ele>
        <time>2026-06-19T10:09:45.000Z</time>
        <extensions>
          <ns3:TrackPointExtension>
            <ns3:atemp>19.0</ns3:atemp>
          </ns3:TrackPointExtension>
        </extensions>
      </trkpt>
      <trkpt lat="42.5255763530731201171875" lon="20.01608141697943210601806640625">
        <ele>1981</ele>
        <time>2026-06-19T10:09:46.000Z</time>
        <extensions>
          <ns3:TrackPointExtension>
            <ns3:atemp>19.0</ns3:atemp>
          </ns3:TrackPointExtension>
        </extensions>
      </trkpt>
      <trkpt lat="42.5255745090544223785400390625" lon="20.016111843287944793701171875">
        <ele>1981.199951171875</ele>
        <time>2026-06-19T10:09:47.000Z</time>
        <extensions>
          <ns3:TrackPointExtension>
            <ns3:atemp>19.0</ns3:atemp>
          </ns3:TrackPointExtension>
        </extensions>
      </trkpt>
      <trkpt lat="42.52557408995926380157470703125" lon="20.0161358155310153961181640625">
        <ele>1981.5999755859375</ele>
        <time>2026-06-19T10:09:48.000Z</time>
        <extensions>
          <ns3:TrackPointExtension>
            <ns3:atemp>19.0</ns3:atemp>
          </ns3:TrackPointExtension>
        </extensions>
      </trkpt>
      <trkpt lat="42.52557392232120037078857421875" lon="20.016163475811481475830078125">
        <ele>1981.800048828125</ele>
        <time>2026-06-19T10:09:49.000Z</time>
        <extensions>
          <ns3:TrackPointExtension>
            <ns3:atemp>19.0</ns3:atemp>
          </ns3:TrackPointExtension>
        </extensions>
      </trkpt>
      <trkpt lat="42.52557434141635894775390625" lon="20.01618862152099609375">
        <ele>1982</ele>
        <time>2026-06-19T10:09:50.000Z</time>
        <extensions>
          <ns3:TrackPointExtension>
            <ns3:atemp>19.0</ns3:atemp>
          </ns3:TrackPointExtension>
        </extensions>
      </trkpt>
      <trkpt lat="42.52558012492954730987548828125" lon="20.016209743916988372802734375">
        <ele>1982.199951171875</ele>
        <time>2026-06-19T10:09:51.000Z</time>
        <extensions>
          <ns3:TrackPointExtension>
            <ns3:atemp>19.0</ns3:atemp>
          </ns3:TrackPointExtension>
        </extensions>
      </trkpt>
      <trkpt lat="42.5255802087485790252685546875" lon="20.01622608862817287445068359375">
        <ele>1982.4000244140625</ele>
        <time>2026-06-19T10:09:52.000Z</time>
        <extensions>
          <ns3:TrackPointExtension>
            <ns3:atemp>19.0</ns3:atemp>
          </ns3:TrackPointExtension>
        </extensions>
      </trkpt>
      <trkpt lat="42.5255812145769596099853515625" lon="20.016235895454883575439453125">
        <ele>1982.5999755859375</ele>
        <time>2026-06-19T10:09:53.000Z</time>
        <extensions>
          <ns3:TrackPointExtension>
            <ns3:atemp>19.0</ns3:atemp>
          </ns3:TrackPointExtension>
        </extensions>
      </trkpt>
      <trkpt lat="42.52558079548180103302001953125" lon="20.0162528268992900848388671875">
        <ele>1982.800048828125</ele>
        <time>2026-06-19T10:09:54.000Z</time>
        <extensions>
          <ns3:TrackPointExtension>
            <ns3:atemp>19.0</ns3:atemp>
          </ns3:TrackPointExtension>
        </extensions>
      </trkpt>
      <trkpt lat="42.525580711662769317626953125" lon="20.01626414246857166290283203125">
        <ele>1983</ele>
        <time>2026-06-19T10:09:55.000Z</time>
        <extensions>
          <ns3:TrackPointExtension>
            <ns3:atemp>19.0</ns3:atemp>
          </ns3:TrackPointExtension>
        </extensions>
      </trkpt>
      <trkpt lat="42.52558029256761074066162109375" lon="20.0162793137133121490478515625">
        <ele>1983</ele>
        <time>2026-06-19T10:09:56.000Z</time>
        <extensions>
          <ns3:TrackPointExtension>
            <ns3:atemp>19.0</ns3:atemp>
          </ns3:TrackPointExtension>
        </extensions>
      </trkpt>
      <trkpt lat="42.52558372914791107177734375" lon="20.01629314385354518890380859375">
        <ele>1983</ele>
        <time>2026-06-19T10:09:57.000Z</time>
        <extensions>
          <ns3:TrackPointExtension>
            <ns3:atemp>19.0</ns3:atemp>
          </ns3:TrackPointExtension>
        </extensions>
      </trkpt>
      <trkpt lat="42.5255832262337207794189453125" lon="20.01630588434636592864990234375">
        <ele>1983</ele>
        <time>2026-06-19T10:09:58.000Z</time>
        <extensions>
          <ns3:TrackPointExtension>
            <ns3:atemp>19.0</ns3:atemp>
          </ns3:TrackPointExtension>
        </extensions>
      </trkpt>
      <trkpt lat="42.525580041110515594482421875" lon="20.0163242407143115997314453125">
        <ele>1983</ele>
        <time>2026-06-19T10:09:59.000Z</time>
        <extensions>
          <ns3:TrackPointExtension>
            <ns3:atemp>19.0</ns3:atemp>
          </ns3:TrackPointExtension>
        </extensions>
      </trkpt>
      <trkpt lat="42.5255781970918178558349609375" lon="20.0163487158715724945068359375">
        <ele>1983</ele>
        <time>2026-06-19T10:10:00.000Z</time>
        <extensions>
          <ns3:TrackPointExtension>
            <ns3:atemp>20.0</ns3:atemp>
          </ns3:TrackPointExtension>
        </extensions>
      </trkpt>
      <trkpt lat="42.52557526342570781707763671875" lon="20.0163772143423557281494140625">
        <ele>1983</ele>
        <time>2026-06-19T10:10:01.000Z</time>
        <extensions>
          <ns3:TrackPointExtension>
            <ns3:atemp>20.0</ns3:atemp>
          </ns3:TrackPointExtension>
        </extensions>
      </trkpt>
      <trkpt lat="42.525574676692485809326171875" lon="20.01640797592699527740478515625">
        <ele>1983</ele>
        <time>2026-06-19T10:10:02.000Z</time>
        <extensions>
          <ns3:TrackPointExtension>
            <ns3:atemp>20.0</ns3:atemp>
          </ns3:TrackPointExtension>
        </extensions>
      </trkpt>
      <trkpt lat="42.5255771912634372711181640625" lon="20.01643831841647624969482421875">
        <ele>1983</ele>
        <time>2026-06-19T10:10:03.000Z</time>
        <extensions>
          <ns3:TrackPointExtension>
            <ns3:atemp>19.0</ns3:atemp>
          </ns3:TrackPointExtension>
        </extensions>
      </trkpt>
      <trkpt lat="42.5255832262337207794189453125" lon="20.0164697505533695220947265625">
        <ele>1983</ele>
        <time>2026-06-19T10:10:04.000Z</time>
        <extensions>
          <ns3:TrackPointExtension>
            <ns3:atemp>20.0</ns3:atemp>
          </ns3:TrackPointExtension>
        </extensions>
      </trkpt>
      <trkpt lat="42.52558733336627483367919921875" lon="20.0164999254047870635986328125">
        <ele>1983</ele>
        <time>2026-06-19T10:10:05.000Z</time>
        <extensions>
          <ns3:TrackPointExtension>
            <ns3:atemp>20.0</ns3:atemp>
          </ns3:TrackPointExtension>
        </extensions>
      </trkpt>
      <trkpt lat="42.52558800391852855682373046875" lon="20.01652657985687255859375">
        <ele>1983.199951171875</ele>
        <time>2026-06-19T10:10:06.000Z</time>
        <extensions>
          <ns3:TrackPointExtension>
            <ns3:atemp>20.0</ns3:atemp>
          </ns3:TrackPointExtension>
        </extensions>
      </trkpt>
      <trkpt lat="42.52559253014624118804931640625" lon="20.01655046828091144561767578125">
        <ele>1983.199951171875</ele>
        <time>2026-06-19T10:10:07.000Z</time>
        <extensions>
          <ns3:TrackPointExtension>
            <ns3:atemp>20.0</ns3:atemp>
          </ns3:TrackPointExtension>
        </extensions>
      </trkpt>
      <trkpt lat="42.52559605054557323455810546875" lon="20.016567818820476531982421875">
        <ele>1983.4000244140625</ele>
        <time>2026-06-19T10:10:08.000Z</time>
        <extensions>
          <ns3:TrackPointExtension>
            <ns3:atemp>20.0</ns3:atemp>
          </ns3:TrackPointExtension>
        </extensions>
      </trkpt>
      <trkpt lat="42.5256036780774593353271484375" lon="20.016589947044849395751953125">
        <ele>1983.5999755859375</ele>
        <time>2026-06-19T10:10:09.000Z</time>
        <extensions>
          <ns3:TrackPointExtension>
            <ns3:atemp>20.0</ns3:atemp>
          </ns3:TrackPointExtension>
        </extensions>
      </trkpt>
      <trkpt lat="42.5256087072193622589111328125" lon="20.01661098562180995941162109375">
        <ele>1983.800048828125</ele>
        <time>2026-06-19T10:10:10.000Z</time>
        <extensions>
          <ns3:TrackPointExtension>
            <ns3:atemp>20.0</ns3:atemp>
          </ns3:TrackPointExtension>
        </extensions>
      </trkpt>
      <trkpt lat="42.5256167538464069366455078125" lon="20.01663160510361194610595703125">
        <ele>1984</ele>
        <time>2026-06-19T10:10:11.000Z</time>
        <extensions>
          <ns3:TrackPointExtension>
            <ns3:atemp>20.0</ns3:atemp>
          </ns3:TrackPointExtension>
        </extensions>
      </trkpt>
      <trkpt lat="42.52562438137829303741455078125" lon="20.0166494585573673248291015625">
        <ele>1984.199951171875</ele>
        <time>2026-06-19T10:10:12.000Z</time>
        <extensions>
          <ns3:TrackPointExtension>
            <ns3:atemp>20.0</ns3:atemp>
          </ns3:TrackPointExtension>
        </extensions>
      </trkpt>
      <trkpt lat="42.5256313383579254150390625" lon="20.01667535863816738128662109375">
        <ele>1984.4000244140625</ele>
        <time>2026-06-19T10:10:13.000Z</time>
        <extensions>
          <ns3:TrackPointExtension>
            <ns3:atemp>20.0</ns3:atemp>
          </ns3:TrackPointExtension>
        </extensions>
      </trkpt>
      <trkpt lat="42.52564139664173126220703125" lon="20.016695223748683929443359375">
        <ele>1984.800048828125</ele>
        <time>2026-06-19T10:10:14.000Z</time>
        <extensions>
          <ns3:TrackPointExtension>
            <ns3:atemp>20.0</ns3:atemp>
          </ns3:TrackPointExtension>
        </extensions>
      </trkpt>
      <trkpt lat="42.52565254457294940948486328125" lon="20.01671475358307361602783203125">
        <ele>1985</ele>
        <time>2026-06-19T10:10:15.000Z</time>
        <extensions>
          <ns3:TrackPointExtension>
            <ns3:atemp>20.0</ns3:atemp>
          </ns3:TrackPointExtension>
        </extensions>
      </trkpt>
      <trkpt lat="42.52566411159932613372802734375" lon="20.01673780381679534912109375">
        <ele>1985.4000244140625</ele>
        <time>2026-06-19T10:10:16.000Z</time>
        <extensions>
          <ns3:TrackPointExtension>
            <ns3:atemp>20.0</ns3:atemp>
          </ns3:TrackPointExtension>
        </extensions>
      </trkpt>
      <trkpt lat="42.52567634917795658111572265625" lon="20.0167612731456756591796875">
        <ele>1985.800048828125</ele>
        <time>2026-06-19T10:10:17.000Z</time>
        <extensions>
          <ns3:TrackPointExtension>
            <ns3:atemp>20.0</ns3:atemp>
          </ns3:TrackPointExtension>
        </extensions>
      </trkpt>
      <trkpt lat="42.525688000023365020751953125" lon="20.01677862368524074554443359375">
        <ele>1986</ele>
        <time>2026-06-19T10:10:18.000Z</time>
        <extensions>
          <ns3:TrackPointExtension>
            <ns3:atemp>20.0</ns3:atemp>
          </ns3:TrackPointExtension>
        </extensions>
      </trkpt>
      <trkpt lat="42.5257005728781223297119140625" lon="20.0167973153293132781982421875">
        <ele>1986.4000244140625</ele>
        <time>2026-06-19T10:10:19.000Z</time>
        <extensions>
          <ns3:TrackPointExtension>
            <ns3:atemp>20.0</ns3:atemp>
          </ns3:TrackPointExtension>
        </extensions>
      </trkpt>
      <trkpt lat="42.5257109664380550384521484375" lon="20.0168110616505146026611328125">
        <ele>1986.800048828125</ele>
        <time>2026-06-19T10:10:20.000Z</time>
        <extensions>
          <ns3:TrackPointExtension>
            <ns3:atemp>20.0</ns3:atemp>
          </ns3:TrackPointExtension>
        </extensions>
      </trkpt>
      <trkpt lat="42.52572043798863887786865234375" lon="20.0168261490762233734130859375">
        <ele>1987.4000244140625</ele>
        <time>2026-06-19T10:10:21.000Z</time>
        <extensions>
          <ns3:TrackPointExtension>
            <ns3:atemp>20.0</ns3:atemp>
          </ns3:TrackPointExtension>
        </extensions>
      </trkpt>
      <trkpt lat="42.52573234029114246368408203125" lon="20.01683830283582210540771484375">
        <ele>1987.800048828125</ele>
        <time>2026-06-19T10:10:22.000Z</time>
        <extensions>
          <ns3:TrackPointExtension>
            <ns3:atemp>20.0</ns3:atemp>
          </ns3:TrackPointExtension>
        </extensions>
      </trkpt>
      <trkpt lat="42.5257451646029949188232421875" lon="20.01684802584350109100341796875">
        <ele>1988</ele>
        <time>2026-06-19T10:10:23.000Z</time>
        <extensions>
          <ns3:TrackPointExtension>
            <ns3:atemp>20.0</ns3:atemp>
          </ns3:TrackPointExtension>
        </extensions>
      </trkpt>
      <trkpt lat="42.52575815655291080474853515625" lon="20.01686177216470241546630859375">
        <ele>1988.4000244140625</ele>
        <time>2026-06-19T10:10:24.000Z</time>
        <extensions>
          <ns3:TrackPointExtension>
            <ns3:atemp>20.0</ns3:atemp>
          </ns3:TrackPointExtension>
        </extensions>
      </trkpt>
      <trkpt lat="42.5257750041782855987548828125" lon="20.01687191426753997802734375">
        <ele>1988.5999755859375</ele>
        <time>2026-06-19T10:10:25.000Z</time>
        <extensions>
          <ns3:TrackPointExtension>
            <ns3:atemp>20.0</ns3:atemp>
          </ns3:TrackPointExtension>
        </extensions>
      </trkpt>
      <trkpt lat="42.525793612003326416015625" lon="20.01687669195234775543212890625">
        <ele>1989</ele>
        <time>2026-06-19T10:10:26.000Z</time>
        <extensions>
          <ns3:TrackPointExtension>
            <ns3:atemp>20.0</ns3:atemp>
          </ns3:TrackPointExtension>
        </extensions>
      </trkpt>
      <trkpt lat="42.52581532113254070281982421875" lon="20.01687786541879177093505859375">
        <ele>1989.199951171875</ele>
        <time>2026-06-19T10:10:27.000Z</time>
        <extensions>
          <ns3:TrackPointExtension>
            <ns3:atemp>20.0</ns3:atemp>
          </ns3:TrackPointExtension>
        </extensions>
      </trkpt>
      <trkpt lat="42.52583795227110385894775390625" lon="20.01687057316303253173828125">
        <ele>1989.4000244140625</ele>
        <time>2026-06-19T10:10:28.000Z</time>
        <extensions>
          <ns3:TrackPointExtension>
            <ns3:atemp>20.0</ns3:atemp>
          </ns3:TrackPointExtension>
        </extensions>
      </trkpt>
      <trkpt lat="42.5258594937622547149658203125" lon="20.0168586708605289459228515625">
        <ele>1989.5999755859375</ele>
        <time>2026-06-19T10:10:29.000Z</time>
        <extensions>
          <ns3:TrackPointExtension>
            <ns3:atemp>20.0</ns3:atemp>
          </ns3:TrackPointExtension>
        </extensions>
      </trkpt>
      <trkpt lat="42.52587743103504180908203125" lon="20.01684232614934444427490234375">
        <ele>1989.5999755859375</ele>
        <time>2026-06-19T10:10:30.000Z</time>
        <extensions>
          <ns3:TrackPointExtension>
            <ns3:atemp>20.0</ns3:atemp>
          </ns3:TrackPointExtension>
        </extensions>
      </trkpt>
      <trkpt lat="42.5258913449943065643310546875" lon="20.01682120375335216522216796875">
        <ele>1989.800048828125</ele>
        <time>2026-06-19T10:10:31.000Z</time>
        <extensions>
          <ns3:TrackPointExtension>
            <ns3:atemp>20.0</ns3:atemp>
          </ns3:TrackPointExtension>
        </extensions>
      </trkpt>
      <trkpt lat="42.525903247296810150146484375" lon="20.01679547131061553955078125">
        <ele>1990</ele>
        <time>2026-06-19T10:10:32.000Z</time>
        <extensions>
          <ns3:TrackPointExtension>
            <ns3:atemp>20.0</ns3:atemp>
          </ns3:TrackPointExtension>
        </extensions>
      </trkpt>
      <trkpt lat="42.52591556869447231292724609375" lon="20.0167694874107837677001953125">
        <ele>1990.199951171875</ele>
        <time>2026-06-19T10:10:33.000Z</time>
        <extensions>
          <ns3:TrackPointExtension>
            <ns3:atemp>20.0</ns3:atemp>
          </ns3:TrackPointExtension>
        </extensions>
      </trkpt>
      <trkpt lat="42.52592780627310276031494140625" lon="20.016746856272220611572265625">
        <ele>1990.199951171875</ele>
        <time>2026-06-19T10:10:34.000Z</time>
        <extensions>
          <ns3:TrackPointExtension>
            <ns3:atemp>20.0</ns3:atemp>
          </ns3:TrackPointExtension>
        </extensions>
      </trkpt>
      <trkpt lat="42.5259406305849552154541015625" lon="20.01672296784818172454833984375">
        <ele>1990.199951171875</ele>
        <time>2026-06-19T10:10:35.000Z</time>
        <extensions>
          <ns3:TrackPointExtension>
            <ns3:atemp>20.0</ns3:atemp>
          </ns3:TrackPointExtension>
        </extensions>
      </trkpt>
      <trkpt lat="42.52595110796391963958740234375" lon="20.01670218072831630706787109375">
        <ele>1990.4000244140625</ele>
        <time>2026-06-19T10:10:36.000Z</time>
        <extensions>
          <ns3:TrackPointExtension>
            <ns3:atemp>20.0</ns3:atemp>
          </ns3:TrackPointExtension>
        </extensions>
      </trkpt>
      <trkpt lat="42.52596057951450347900390625" lon="20.016679130494594573974609375">
        <ele>1990.5999755859375</ele>
        <time>2026-06-19T10:10:37.000Z</time>
        <extensions>
          <ns3:TrackPointExtension>
            <ns3:atemp>20.0</ns3:atemp>
          </ns3:TrackPointExtension>
        </extensions>
      </trkpt>
      <trkpt lat="42.52597130835056304931640625" lon="20.01665121875703334808349609375">
        <ele>1991</ele>
        <time>2026-06-19T10:10:38.000Z</time>
        <extensions>
          <ns3:TrackPointExtension>
            <ns3:atemp>20.0</ns3:atemp>
          </ns3:TrackPointExtension>
        </extensions>
      </trkpt>
      <trkpt lat="42.52598245628178119659423828125" lon="20.016628168523311614990234375">
        <ele>1991.199951171875</ele>
        <time>2026-06-19T10:10:39.000Z</time>
        <extensions>
          <ns3:TrackPointExtension>
            <ns3:atemp>20.0</ns3:atemp>
          </ns3:TrackPointExtension>
        </extensions>
      </trkpt>
      <trkpt lat="42.5259966216981410980224609375" lon="20.01660511828958988189697265625">
        <ele>1991.4000244140625</ele>
        <time>2026-06-19T10:10:40.000Z</time>
        <extensions>
          <ns3:TrackPointExtension>
            <ns3:atemp>20.0</ns3:atemp>
          </ns3:TrackPointExtension>
        </extensions>
      </trkpt>
      <trkpt lat="42.52601045183837413787841796875" lon="20.01658366061747074127197265625">
        <ele>1991.5999755859375</ele>
        <time>2026-06-19T10:10:41.000Z</time>
        <extensions>
          <ns3:TrackPointExtension>
            <ns3:atemp>20.0</ns3:atemp>
          </ns3:TrackPointExtension>
        </extensions>
      </trkpt>
      <trkpt lat="42.52602252177894115447998046875" lon="20.016560442745685577392578125">
        <ele>1991.5999755859375</ele>
        <time>2026-06-19T10:10:42.000Z</time>
        <extensions>
          <ns3:TrackPointExtension>
            <ns3:atemp>20.0</ns3:atemp>
          </ns3:TrackPointExtension>
        </extensions>
      </trkpt>
      <trkpt lat="42.5260378606617450714111328125" lon="20.01653839834034442901611328125">
        <ele>1991.800048828125</ele>
        <time>2026-06-19T10:10:43.000Z</time>
        <extensions>
          <ns3:TrackPointExtension>
            <ns3:atemp>20.0</ns3:atemp>
          </ns3:TrackPointExtension>
        </extensions>
      </trkpt>
      <trkpt lat="42.52605051733553409576416015625" lon="20.01651878468692302703857421875">
        <ele>1992</ele>
        <time>2026-06-19T10:10:44.000Z</time>
        <extensions>
          <ns3:TrackPointExtension>
            <ns3:atemp>20.0</ns3:atemp>
          </ns3:TrackPointExtension>
        </extensions>
      </trkpt>
      <trkpt lat="42.526064850389957427978515625" lon="20.0164989195764064788818359375">
        <ele>1992.199951171875</ele>
        <time>2026-06-19T10:10:45.000Z</time>
        <extensions>
          <ns3:TrackPointExtension>
            <ns3:atemp>20.0</ns3:atemp>
          </ns3:TrackPointExtension>
        </extensions>
      </trkpt>
      <trkpt lat="42.52607901580631732940673828125" lon="20.01648374833166599273681640625">
        <ele>1992.199951171875</ele>
        <time>2026-06-19T10:10:46.000Z</time>
        <extensions>
          <ns3:TrackPointExtension>
            <ns3:atemp>20.0</ns3:atemp>
          </ns3:TrackPointExtension>
        </extensions>
      </trkpt>
      <trkpt lat="42.52609376795589923858642578125" lon="20.01647100783884525299072265625">
        <ele>1992.4000244140625</ele>
        <time>2026-06-19T10:10:47.000Z</time>
        <extensions>
          <ns3:TrackPointExtension>
            <ns3:atemp>20.0</ns3:atemp>
          </ns3:TrackPointExtension>
        </extensions>
      </trkpt>
      <trkpt lat="42.5261092744767665863037109375" lon="20.01645885407924652099609375">
        <ele>1992.5999755859375</ele>
        <time>2026-06-19T10:10:48.000Z</time>
        <extensions>
          <ns3:TrackPointExtension>
            <ns3:atemp>20.0</ns3:atemp>
          </ns3:TrackPointExtension>
        </extensions>
      </trkpt>
      <trkpt lat="42.526126541197299957275390625" lon="20.01644569449126720428466796875">
        <ele>1992.800048828125</ele>
        <time>2026-06-19T10:10:49.000Z</time>
        <extensions>
          <ns3:TrackPointExtension>
            <ns3:atemp>20.0</ns3:atemp>
          </ns3:TrackPointExtension>
        </extensions>
      </trkpt>
      <trkpt lat="42.5261431373655796051025390625" lon="20.01643027178943157196044921875">
        <ele>1993</ele>
        <time>2026-06-19T10:10:50.000Z</time>
        <extensions>
          <ns3:TrackPointExtension>
            <ns3:atemp>20.0</ns3:atemp>
          </ns3:TrackPointExtension>
        </extensions>
      </trkpt>
      <trkpt lat="42.52616015262901782989501953125" lon="20.0164147652685642242431640625">
        <ele>1993.199951171875</ele>
        <time>2026-06-19T10:10:51.000Z</time>
        <extensions>
          <ns3:TrackPointExtension>
            <ns3:atemp>20.0</ns3:atemp>
          </ns3:TrackPointExtension>
        </extensions>
      </trkpt>
      <trkpt lat="42.526174820959568023681640625" lon="20.0163964927196502685546875">
        <ele>1993.4000244140625</ele>
        <time>2026-06-19T10:10:52.000Z</time>
        <extensions>
          <ns3:TrackPointExtension>
            <ns3:atemp>20.0</ns3:atemp>
          </ns3:TrackPointExtension>
        </extensions>
      </trkpt>
      <trkpt lat="42.5261919200420379638671875" lon="20.01638031564652919769287109375">
        <ele>1993.4000244140625</ele>
        <time>2026-06-19T10:10:53.000Z</time>
        <extensions>
          <ns3:TrackPointExtension>
            <ns3:atemp>20.0</ns3:atemp>
          </ns3:TrackPointExtension>
        </extensions>
      </trkpt>
      <trkpt lat="42.5262080132961273193359375" lon="20.0163624621927738189697265625">
        <ele>1993.5999755859375</ele>
        <time>2026-06-19T10:10:54.000Z</time>
        <extensions>
          <ns3:TrackPointExtension>
            <ns3:atemp>20.0</ns3:atemp>
          </ns3:TrackPointExtension>
        </extensions>
      </trkpt>
      <trkpt lat="42.5262241065502166748046875" lon="20.01634058542549610137939453125">
        <ele>1993.5999755859375</ele>
        <time>2026-06-19T10:10:55.000Z</time>
        <extensions>
          <ns3:TrackPointExtension>
            <ns3:atemp>20.0</ns3:atemp>
          </ns3:TrackPointExtension>
        </extensions>
      </trkpt>
      <trkpt lat="42.5262383557856082916259765625" lon="20.01632046885788440704345703125">
        <ele>1993.800048828125</ele>
        <time>2026-06-19T10:10:56.000Z</time>
        <extensions>
          <ns3:TrackPointExtension>
            <ns3:atemp>20.0</ns3:atemp>
          </ns3:TrackPointExtension>
        </extensions>
      </trkpt>
      <trkpt lat="42.526255287230014801025390625" lon="20.01630320213735103607177734375">
        <ele>1993.800048828125</ele>
        <time>2026-06-19T10:10:57.000Z</time>
        <extensions>
          <ns3:TrackPointExtension>
            <ns3:atemp>20.0</ns3:atemp>
          </ns3:TrackPointExtension>
        </extensions>
      </trkpt>
      <trkpt lat="42.52627012319862842559814453125" lon="20.01628476195037364959716796875">
        <ele>1994</ele>
        <time>2026-06-19T10:10:58.000Z</time>
        <extensions>
          <ns3:TrackPointExtension>
            <ns3:atemp>20.0</ns3:atemp>
          </ns3:TrackPointExtension>
        </extensions>
      </trkpt>
      <trkpt lat="42.52628378570079803466796875" lon="20.01626749522984027862548828125">
        <ele>1994</ele>
        <time>2026-06-19T10:10:59.000Z</time>
        <extensions>
          <ns3:TrackPointExtension>
            <ns3:atemp>20.0</ns3:atemp>
          </ns3:TrackPointExtension>
        </extensions>
      </trkpt>
      <trkpt lat="42.5262966938316822052001953125" lon="20.0162504799664020538330078125">
        <ele>1994.199951171875</ele>
        <time>2026-06-19T10:11:00.000Z</time>
        <extensions>
          <ns3:TrackPointExtension>
            <ns3:atemp>20.0</ns3:atemp>
          </ns3:TrackPointExtension>
        </extensions>
      </trkpt>
      <trkpt lat="42.52631320618093013763427734375" lon="20.01622759737074375152587890625">
        <ele>1994.4000244140625</ele>
        <time>2026-06-19T10:11:01.000Z</time>
        <extensions>
          <ns3:TrackPointExtension>
            <ns3:atemp>20.0</ns3:atemp>
          </ns3:TrackPointExtension>
        </extensions>
      </trkpt>
      <trkpt lat="42.52633097581565380096435546875" lon="20.016209073364734649658203125">
        <ele>1994.4000244140625</ele>
        <time>2026-06-19T10:11:02.000Z</time>
        <extensions>
          <ns3:TrackPointExtension>
            <ns3:atemp>20.0</ns3:atemp>
          </ns3:TrackPointExtension>
        </extensions>
      </trkpt>
      <trkpt lat="42.52634891308844089508056640625" lon="20.0161911360919475555419921875">
        <ele>1994.5999755859375</ele>
        <time>2026-06-19T10:11:03.000Z</time>
        <extensions>
          <ns3:TrackPointExtension>
            <ns3:atemp>20.0</ns3:atemp>
          </ns3:TrackPointExtension>
        </extensions>
      </trkpt>
      <trkpt lat="42.526370622217655181884765625" lon="20.01617596484720706939697265625">
        <ele>1994.5999755859375</ele>
        <time>2026-06-19T10:11:04.000Z</time>
        <extensions>
          <ns3:TrackPointExtension>
            <ns3:atemp>20.0</ns3:atemp>
          </ns3:TrackPointExtension>
        </extensions>
      </trkpt>
      <trkpt lat="42.52638964913785457611083984375" lon="20.01616355963051319122314453125">
        <ele>1994.800048828125</ele>
        <time>2026-06-19T10:11:05.000Z</time>
        <extensions>
          <ns3:TrackPointExtension>
            <ns3:atemp>20.0</ns3:atemp>
          </ns3:TrackPointExtension>
        </extensions>
      </trkpt>
      <trkpt lat="42.52640406601130962371826171875" lon="20.01615048386156558990478515625">
        <ele>1995</ele>
        <time>2026-06-19T10:11:06.000Z</time>
        <extensions>
          <ns3:TrackPointExtension>
            <ns3:atemp>20.0</ns3:atemp>
          </ns3:TrackPointExtension>
        </extensions>
      </trkpt>
      <trkpt lat="42.5264167226850986480712890625" lon="20.016137994825839996337890625">
        <ele>1995.199951171875</ele>
        <time>2026-06-19T10:11:07.000Z</time>
        <extensions>
          <ns3:TrackPointExtension>
            <ns3:atemp>20.0</ns3:atemp>
          </ns3:TrackPointExtension>
        </extensions>
      </trkpt>
      <trkpt lat="42.526433654129505157470703125" lon="20.0161260925233364105224609375">
        <ele>1995.4000244140625</ele>
        <time>2026-06-19T10:11:08.000Z</time>
        <extensions>
          <ns3:TrackPointExtension>
            <ns3:atemp>20.0</ns3:atemp>
          </ns3:TrackPointExtension>
        </extensions>
      </trkpt>
      <trkpt lat="42.52644932828843593597412109375" lon="20.0161093287169933319091796875">
        <ele>1995.5999755859375</ele>
        <time>2026-06-19T10:11:09.000Z</time>
        <extensions>
          <ns3:TrackPointExtension>
            <ns3:atemp>20.0</ns3:atemp>
          </ns3:TrackPointExtension>
        </extensions>
      </trkpt>
      <trkpt lat="42.5264626555144786834716796875" lon="20.016094744205474853515625">
        <ele>1995.800048828125</ele>
        <time>2026-06-19T10:11:10.000Z</time>
        <extensions>
          <ns3:TrackPointExtension>
            <ns3:atemp>20.0</ns3:atemp>
          </ns3:TrackPointExtension>
        </extensions>
      </trkpt>
      <trkpt lat="42.526477910578250885009765625" lon="20.0160804949700832366943359375">
        <ele>1996</ele>
        <time>2026-06-19T10:11:11.000Z</time>
        <extensions>
          <ns3:TrackPointExtension>
            <ns3:atemp>20.0</ns3:atemp>
          </ns3:TrackPointExtension>
        </extensions>
      </trkpt>
      <trkpt lat="42.526491992175579071044921875" lon="20.01606599427759647369384765625">
        <ele>1996.199951171875</ele>
        <time>2026-06-19T10:11:12.000Z</time>
        <extensions>
          <ns3:TrackPointExtension>
            <ns3:atemp>20.0</ns3:atemp>
          </ns3:TrackPointExtension>
        </extensions>
      </trkpt>
      <trkpt lat="42.52650297246873378753662109375" lon="20.01605342142283916473388671875">
        <ele>1996.4000244140625</ele>
        <time>2026-06-19T10:11:13.000Z</time>
        <extensions>
          <ns3:TrackPointExtension>
            <ns3:atemp>20.0</ns3:atemp>
          </ns3:TrackPointExtension>
        </extensions>
      </trkpt>
      <trkpt lat="42.52651847898960113525390625" lon="20.01603481359779834747314453125">
        <ele>1996.5999755859375</ele>
        <time>2026-06-19T10:11:14.000Z</time>
        <extensions>
          <ns3:TrackPointExtension>
            <ns3:atemp>20.0</ns3:atemp>
          </ns3:TrackPointExtension>
        </extensions>
      </trkpt>
      <trkpt lat="42.526532895863056182861328125" lon="20.01602089963853359222412109375">
        <ele>1996.800048828125</ele>
        <time>2026-06-19T10:11:15.000Z</time>
        <extensions>
          <ns3:TrackPointExtension>
            <ns3:atemp>20.0</ns3:atemp>
          </ns3:TrackPointExtension>
        </extensions>
      </trkpt>
      <trkpt lat="42.52654639072716236114501953125" lon="20.01600287854671478271484375">
        <ele>1997</ele>
        <time>2026-06-19T10:11:16.000Z</time>
        <extensions>
          <ns3:TrackPointExtension>
            <ns3:atemp>20.0</ns3:atemp>
          </ns3:TrackPointExtension>
        </extensions>
      </trkpt>
      <trkpt lat="42.526563070714473724365234375" lon="20.0159856118261814117431640625">
        <ele>1997</ele>
        <time>2026-06-19T10:11:17.000Z</time>
        <extensions>
          <ns3:TrackPointExtension>
            <ns3:atemp>20.0</ns3:atemp>
          </ns3:TrackPointExtension>
        </extensions>
      </trkpt>
      <trkpt lat="42.52658293582499027252197265625" lon="20.01596725545823574066162109375">
        <ele>1997.199951171875</ele>
        <time>2026-06-19T10:11:18.000Z</time>
        <extensions>
          <ns3:TrackPointExtension>
            <ns3:atemp>20.0</ns3:atemp>
          </ns3:TrackPointExtension>
        </extensions>
      </trkpt>
      <trkpt lat="42.526600621640682220458984375" lon="20.01594965346157550811767578125">
        <ele>1997.199951171875</ele>
        <time>2026-06-19T10:11:19.000Z</time>
        <extensions>
          <ns3:TrackPointExtension>
            <ns3:atemp>20.0</ns3:atemp>
          </ns3:TrackPointExtension>
        </extensions>
      </trkpt>
      <trkpt lat="42.52662308514118194580078125" lon="20.0159366615116596221923828125">
        <ele>1997.4000244140625</ele>
        <time>2026-06-19T10:11:20.000Z</time>
        <extensions>
          <ns3:TrackPointExtension>
            <ns3:atemp>20.0</ns3:atemp>
          </ns3:TrackPointExtension>
        </extensions>
      </trkpt>
      <trkpt lat="42.52664613537490367889404296875" lon="20.01592635177075862884521484375">
        <ele>1997.4000244140625</ele>
        <time>2026-06-19T10:11:21.000Z</time>
        <extensions>
          <ns3:TrackPointExtension>
            <ns3:atemp>20.0</ns3:atemp>
          </ns3:TrackPointExtension>
        </extensions>
      </trkpt>
      <trkpt lat="42.52666843123733997344970703125" lon="20.015917383134365081787109375">
        <ele>1997.5999755859375</ele>
        <time>2026-06-19T10:11:22.000Z</time>
        <extensions>
          <ns3:TrackPointExtension>
            <ns3:atemp>20.0</ns3:atemp>
          </ns3:TrackPointExtension>
        </extensions>
      </trkpt>
      <trkpt lat="42.52668804489076137542724609375" lon="20.015915371477603912353515625">
        <ele>1997.800048828125</ele>
        <time>2026-06-19T10:11:23.000Z</time>
        <extensions>
          <ns3:TrackPointExtension>
            <ns3:atemp>20.0</ns3:atemp>
          </ns3:TrackPointExtension>
        </extensions>
      </trkpt>
      <trkpt lat="42.52670413814485073089599609375" lon="20.0159178860485553741455078125">
        <ele>1998</ele>
        <time>2026-06-19T10:11:24.000Z</time>
        <extensions>
          <ns3:TrackPointExtension>
            <ns3:atemp>20.0</ns3:atemp>
          </ns3:TrackPointExtension>
        </extensions>
      </trkpt>
      <trkpt lat="42.52672006376087665557861328125" lon="20.01591780222952365875244140625">
        <ele>1998.199951171875</ele>
        <time>2026-06-19T10:11:25.000Z</time>
        <extensions>
          <ns3:TrackPointExtension>
            <ns3:atemp>20.0</ns3:atemp>
          </ns3:TrackPointExtension>
        </extensions>
      </trkpt>
      <trkpt lat="42.52674269489943981170654296875" lon="20.01592375338077545166015625">
        <ele>1998.4000244140625</ele>
        <time>2026-06-19T10:11:26.000Z</time>
        <extensions>
          <ns3:TrackPointExtension>
            <ns3:atemp>20.0</ns3:atemp>
          </ns3:TrackPointExtension>
        </extensions>
      </trkpt>
      <trkpt lat="42.52676163800060749053955078125" lon="20.01593356020748615264892578125">
        <ele>1998.800048828125</ele>
        <time>2026-06-19T10:11:27.000Z</time>
        <extensions>
          <ns3:TrackPointExtension>
            <ns3:atemp>20.0</ns3:atemp>
          </ns3:TrackPointExtension>
        </extensions>
      </trkpt>
      <trkpt lat="42.52678276039659976959228515625" lon="20.01593490131199359893798828125">
        <ele>1999</ele>
        <time>2026-06-19T10:11:28.000Z</time>
        <extensions>
          <ns3:TrackPointExtension>
            <ns3:atemp>20.0</ns3:atemp>
          </ns3:TrackPointExtension>
        </extensions>
      </trkpt>
      <trkpt lat="42.5268063135445117950439453125" lon="20.015939511358737945556640625">
        <ele>1999.199951171875</ele>
        <time>2026-06-19T10:11:29.000Z</time>
        <extensions>
          <ns3:TrackPointExtension>
            <ns3:atemp>20.0</ns3:atemp>
          </ns3:TrackPointExtension>
        </extensions>
      </trkpt>
      <trkpt lat="42.526828944683074951171875" lon="20.01594697125256061553955078125">
        <ele>1999.199951171875</ele>
        <time>2026-06-19T10:11:30.000Z</time>
        <extensions>
          <ns3:TrackPointExtension>
            <ns3:atemp>20.0</ns3:atemp>
          </ns3:TrackPointExtension>
        </extensions>
      </trkpt>
      <trkpt lat="42.52685375511646270751953125" lon="20.0159567780792713165283203125">
        <ele>1999.4000244140625</ele>
        <time>2026-06-19T10:11:31.000Z</time>
        <extensions>
          <ns3:TrackPointExtension>
            <ns3:atemp>20.0</ns3:atemp>
          </ns3:TrackPointExtension>
        </extensions>
      </trkpt>
      <trkpt lat="42.52687521278858184814453125" lon="20.01596289686858654022216796875">
        <ele>1999.4000244140625</ele>
        <time>2026-06-19T10:11:32.000Z</time>
        <extensions>
          <ns3:TrackPointExtension>
            <ns3:atemp>20.0</ns3:atemp>
          </ns3:TrackPointExtension>
        </extensions>
      </trkpt>
      <trkpt lat="42.5268958322703838348388671875" lon="20.01596943475306034088134765625">
        <ele>1999.4000244140625</ele>
        <time>2026-06-19T10:11:33.000Z</time>
        <extensions>
          <ns3:TrackPointExtension>
            <ns3:atemp>20.0</ns3:atemp>
          </ns3:TrackPointExtension>
        </extensions>
      </trkpt>
      <trkpt lat="42.52691821195185184478759765625" lon="20.01597630791366100311279296875">
        <ele>1999.5999755859375</ele>
        <time>2026-06-19T10:11:34.000Z</time>
        <extensions>
          <ns3:TrackPointExtension>
            <ns3:atemp>20.0</ns3:atemp>
          </ns3:TrackPointExtension>
        </extensions>
      </trkpt>
      <trkpt lat="42.52693681977689266204833984375" lon="20.0159812532365322113037109375">
        <ele>1999.5999755859375</ele>
        <time>2026-06-19T10:11:35.000Z</time>
        <extensions>
          <ns3:TrackPointExtension>
            <ns3:atemp>20.0</ns3:atemp>
          </ns3:TrackPointExtension>
        </extensions>
      </trkpt>
      <trkpt lat="42.52695375122129917144775390625" lon="20.01598435454070568084716796875">
        <ele>1999.5999755859375</ele>
        <time>2026-06-19T10:11:36.000Z</time>
        <extensions>
          <ns3:TrackPointExtension>
            <ns3:atemp>20.0</ns3:atemp>
          </ns3:TrackPointExtension>
        </extensions>
      </trkpt>
      <trkpt lat="42.52697168849408626556396484375" lon="20.01598183996975421905517578125">
        <ele>1999.5999755859375</ele>
        <time>2026-06-19T10:11:37.000Z</time>
        <extensions>
          <ns3:TrackPointExtension>
            <ns3:atemp>20.0</ns3:atemp>
          </ns3:TrackPointExtension>
        </extensions>
      </trkpt>
      <trkpt lat="42.52699130214750766754150390625" lon="20.01598007977008819580078125">
        <ele>1999.5999755859375</ele>
        <time>2026-06-19T10:11:38.000Z</time>
        <extensions>
          <ns3:TrackPointExtension>
            <ns3:atemp>20.0</ns3:atemp>
          </ns3:TrackPointExtension>
        </extensions>
      </trkpt>
      <trkpt lat="42.52701929770410060882568359375" lon="20.0159755535423755645751953125">
        <ele>1999.5999755859375</ele>
        <time>2026-06-19T10:11:39.000Z</time>
        <extensions>
          <ns3:TrackPointExtension>
            <ns3:atemp>20.0</ns3:atemp>
          </ns3:TrackPointExtension>
        </extensions>
      </trkpt>
      <trkpt lat="42.527048550546169281005859375" lon="20.01596591435372829437255859375">
        <ele>1999.5999755859375</ele>
        <time>2026-06-19T10:11:40.000Z</time>
        <extensions>
          <ns3:TrackPointExtension>
            <ns3:atemp>20.0</ns3:atemp>
          </ns3:TrackPointExtension>
        </extensions>
      </trkpt>
      <trkpt lat="42.5270783901214599609375" lon="20.01595652662217617034912109375">
        <ele>1999.5999755859375</ele>
        <time>2026-06-19T10:11:41.000Z</time>
        <extensions>
          <ns3:TrackPointExtension>
            <ns3:atemp>20.0</ns3:atemp>
          </ns3:TrackPointExtension>
        </extensions>
      </trkpt>
      <trkpt lat="42.527113594114780426025390625" lon="20.015946887433528900146484375">
        <ele>1999.4000244140625</ele>
        <time>2026-06-19T10:11:42.000Z</time>
        <extensions>
          <ns3:TrackPointExtension>
            <ns3:atemp>20.0</ns3:atemp>
          </ns3:TrackPointExtension>
        </extensions>
      </trkpt>
      <trkpt lat="42.52714837901294231414794921875" lon="20.0159324705600738525390625">
        <ele>1999.199951171875</ele>
        <time>2026-06-19T10:11:43.000Z</time>
        <extensions>
          <ns3:TrackPointExtension>
            <ns3:atemp>20.0</ns3:atemp>
          </ns3:TrackPointExtension>
        </extensions>
      </trkpt>
      <trkpt lat="42.5271811522543430328369140625" lon="20.01592014916241168975830078125">
        <ele>1998.800048828125</ele>
        <time>2026-06-19T10:11:44.000Z</time>
        <extensions>
          <ns3:TrackPointExtension>
            <ns3:atemp>20.0</ns3:atemp>
          </ns3:TrackPointExtension>
        </extensions>
      </trkpt>
      <trkpt lat="42.52722197212278842926025390625" lon="20.01590766012668609619140625">
        <ele>1998.5999755859375</ele>
        <time>2026-06-19T10:11:45.000Z</time>
        <extensions>
          <ns3:TrackPointExtension>
            <ns3:atemp>20.0</ns3:atemp>
          </ns3:TrackPointExtension>
        </extensions>
      </trkpt>
      <trkpt lat="42.52725784666836261749267578125" lon="20.01589735038578510284423828125">
        <ele>1998.199951171875</ele>
        <time>2026-06-19T10:11:46.000Z</time>
        <extensions>
          <ns3:TrackPointExtension>
            <ns3:atemp>20.0</ns3:atemp>
          </ns3:TrackPointExtension>
        </extensions>
      </trkpt>
      <trkpt lat="42.5273008458316326141357421875" lon="20.01588343642652034759521484375">
        <ele>1998</ele>
        <time>2026-06-19T10:11:47.000Z</time>
        <extensions>
          <ns3:TrackPointExtension>
            <ns3:atemp>20.0</ns3:atemp>
          </ns3:TrackPointExtension>
        </extensions>
      </trkpt>
      <trkpt lat="42.52733655273914337158203125" lon="20.01587488688528537750244140625">
        <ele>1997.800048828125</ele>
        <time>2026-06-19T10:11:48.000Z</time>
        <extensions>
          <ns3:TrackPointExtension>
            <ns3:atemp>20.0</ns3:atemp>
          </ns3:TrackPointExtension>
        </extensions>
      </trkpt>
      <trkpt lat="42.52737552858889102935791015625" lon="20.015873797237873077392578125">
        <ele>1997.5999755859375</ele>
        <time>2026-06-19T10:11:49.000Z</time>
        <extensions>
          <ns3:TrackPointExtension>
            <ns3:atemp>20.0</ns3:atemp>
          </ns3:TrackPointExtension>
        </extensions>
      </trkpt>
      <trkpt lat="42.52741492353379726409912109375" lon="20.0158659182488918304443359375">
        <ele>1997.5999755859375</ele>
        <time>2026-06-19T10:11:50.000Z</time>
        <extensions>
          <ns3:TrackPointExtension>
            <ns3:atemp>20.0</ns3:atemp>
          </ns3:TrackPointExtension>
        </extensions>
      </trkpt>
      <trkpt lat="42.52744920551776885986328125" lon="20.0158600509166717529296875">
        <ele>1997.4000244140625</ele>
        <time>2026-06-19T10:11:51.000Z</time>
        <extensions>
          <ns3:TrackPointExtension>
            <ns3:atemp>20.0</ns3:atemp>
          </ns3:TrackPointExtension>
        </extensions>
      </trkpt>
      <trkpt lat="42.52748097293078899383544921875" lon="20.01586114056408405303955078125">
        <ele>1997.199951171875</ele>
        <time>2026-06-19T10:11:52.000Z</time>
        <extensions>
          <ns3:TrackPointExtension>
            <ns3:atemp>20.0</ns3:atemp>
          </ns3:TrackPointExtension>
        </extensions>
      </trkpt>
      <trkpt lat="42.52750678919255733489990234375" lon="20.01585175283253192901611328125">
        <ele>1997.4000244140625</ele>
        <time>2026-06-19T10:11:53.000Z</time>
        <extensions>
          <ns3:TrackPointExtension>
            <ns3:atemp>20.0</ns3:atemp>
          </ns3:TrackPointExtension>
        </extensions>
      </trkpt>
      <trkpt lat="42.52753428183495998382568359375" lon="20.0158384256064891815185546875">
        <ele>1997.4000244140625</ele>
        <time>2026-06-19T10:11:54.000Z</time>
        <extensions>
          <ns3:TrackPointExtension>
            <ns3:atemp>20.0</ns3:atemp>
          </ns3:TrackPointExtension>
        </extensions>
      </trkpt>
      <trkpt lat="42.5275700725615024566650390625" lon="20.0158149562776088714599609375">
        <ele>1997.4000244140625</ele>
        <time>2026-06-19T10:11:55.000Z</time>
        <extensions>
          <ns3:TrackPointExtension>
            <ns3:atemp>20.0</ns3:atemp>
          </ns3:TrackPointExtension>
        </extensions>
      </trkpt>
      <trkpt lat="42.52760477364063262939453125" lon="20.01578293740749359130859375">
        <ele>1997.4000244140625</ele>
        <time>2026-06-19T10:11:56.000Z</time>
        <extensions>
          <ns3:TrackPointExtension>
            <ns3:atemp>20.0</ns3:atemp>
          </ns3:TrackPointExtension>
        </extensions>
      </trkpt>
      <trkpt lat="42.527641318738460540771484375" lon="20.01575343310832977294921875">
        <ele>1997.199951171875</ele>
        <time>2026-06-19T10:11:57.000Z</time>
        <extensions>
          <ns3:TrackPointExtension>
            <ns3:atemp>20.0</ns3:atemp>
          </ns3:TrackPointExtension>
        </extensions>
      </trkpt>
      <trkpt lat="42.5276792049407958984375" lon="20.0157187320291996002197265625">
        <ele>1997</ele>
        <time>2026-06-19T10:11:58.000Z</time>
        <extensions>
          <ns3:TrackPointExtension>
            <ns3:atemp>20.0</ns3:atemp>
          </ns3:TrackPointExtension>
        </extensions>
      </trkpt>
      <trkpt lat="42.52772488631308078765869140625" lon="20.015672631561756134033203125">
        <ele>1996.5999755859375</ele>
        <time>2026-06-19T10:11:59.000Z</time>
        <extensions>
          <ns3:TrackPointExtension>
            <ns3:atemp>20.0</ns3:atemp>
          </ns3:TrackPointExtension>
        </extensions>
      </trkpt>
      <trkpt lat="42.5277735851705074310302734375" lon="20.0156369246542453765869140625">
        <ele>1996.199951171875</ele>
        <time>2026-06-19T10:12:00.000Z</time>
        <extensions>
          <ns3:TrackPointExtension>
            <ns3:atemp>20.0</ns3:atemp>
          </ns3:TrackPointExtension>
        </extensions>
      </trkpt>
      <trkpt lat="42.52782328985631465911865234375" lon="20.01562602818012237548828125">
        <ele>1995.800048828125</ele>
        <time>2026-06-19T10:12:01.000Z</time>
        <extensions>
          <ns3:TrackPointExtension>
            <ns3:atemp>20.0</ns3:atemp>
          </ns3:TrackPointExtension>
        </extensions>
      </trkpt>
      <trkpt lat="42.5278657861053943634033203125" lon="20.01563005149364471435546875">
        <ele>1995.5999755859375</ele>
        <time>2026-06-19T10:12:02.000Z</time>
        <extensions>
          <ns3:TrackPointExtension>
            <ns3:atemp>20.0</ns3:atemp>
          </ns3:TrackPointExtension>
        </extensions>
      </trkpt>
      <trkpt lat="42.5279019959270954132080078125" lon="20.01563549973070621490478515625">
        <ele>1995.4000244140625</ele>
        <time>2026-06-19T10:12:03.000Z</time>
        <extensions>
          <ns3:TrackPointExtension>
            <ns3:atemp>20.0</ns3:atemp>
          </ns3:TrackPointExtension>
        </extensions>
      </trkpt>
      <trkpt lat="42.52793929539620876312255859375" lon="20.0156349129974842071533203125">
        <ele>1995.199951171875</ele>
        <time>2026-06-19T10:12:04.000Z</time>
        <extensions>
          <ns3:TrackPointExtension>
            <ns3:atemp>20.0</ns3:atemp>
          </ns3:TrackPointExtension>
        </extensions>
      </trkpt>
      <trkpt lat="42.527971900999546051025390625" lon="20.015638768672943115234375">
        <ele>1995.199951171875</ele>
        <time>2026-06-19T10:12:05.000Z</time>
        <extensions>
          <ns3:TrackPointExtension>
            <ns3:atemp>20.0</ns3:atemp>
          </ns3:TrackPointExtension>
        </extensions>
      </trkpt>
      <trkpt lat="42.528010122478008270263671875" lon="20.01563399098813533782958984375">
        <ele>1995.4000244140625</ele>
        <time>2026-06-19T10:12:06.000Z</time>
        <extensions>
          <ns3:TrackPointExtension>
            <ns3:atemp>20.0</ns3:atemp>
          </ns3:TrackPointExtension>
        </extensions>
      </trkpt>
      <trkpt lat="42.52804708667099475860595703125" lon="20.0156248547136783599853515625">
        <ele>1995.4000244140625</ele>
        <time>2026-06-19T10:12:07.000Z</time>
        <extensions>
          <ns3:TrackPointExtension>
            <ns3:atemp>20.0</ns3:atemp>
          </ns3:TrackPointExtension>
        </extensions>
      </trkpt>
      <trkpt lat="42.52808145247399806976318359375" lon="20.015617311000823974609375">
        <ele>1995.5999755859375</ele>
        <time>2026-06-19T10:12:08.000Z</time>
        <extensions>
          <ns3:TrackPointExtension>
            <ns3:atemp>20.0</ns3:atemp>
          </ns3:TrackPointExtension>
        </extensions>
      </trkpt>
      <trkpt lat="42.52811447717249393463134765625" lon="20.0156077556312084197998046875">
        <ele>1995.5999755859375</ele>
        <time>2026-06-19T10:12:09.000Z</time>
        <extensions>
          <ns3:TrackPointExtension>
            <ns3:atemp>20.0</ns3:atemp>
          </ns3:TrackPointExtension>
        </extensions>
      </trkpt>
      <trkpt lat="42.5281450711190700531005859375" lon="20.01559258438646793365478515625">
        <ele>1995.5999755859375</ele>
        <time>2026-06-19T10:12:10.000Z</time>
        <extensions>
          <ns3:TrackPointExtension>
            <ns3:atemp>20.0</ns3:atemp>
          </ns3:TrackPointExtension>
        </extensions>
      </trkpt>
      <trkpt lat="42.52817449159920215606689453125" lon="20.01557766459882259368896484375">
        <ele>1995.800048828125</ele>
        <time>2026-06-19T10:12:11.000Z</time>
        <extensions>
          <ns3:TrackPointExtension>
            <ns3:atemp>20.0</ns3:atemp>
          </ns3:TrackPointExtension>
        </extensions>
      </trkpt>
      <trkpt lat="42.52820424735546112060546875" lon="20.0155638344585895538330078125">
        <ele>1995.800048828125</ele>
        <time>2026-06-19T10:12:12.000Z</time>
        <extensions>
          <ns3:TrackPointExtension>
            <ns3:atemp>20.0</ns3:atemp>
          </ns3:TrackPointExtension>
        </extensions>
      </trkpt>
      <trkpt lat="42.52823668532073497772216796875" lon="20.01554614864289760589599609375">
        <ele>1995.800048828125</ele>
        <time>2026-06-19T10:12:13.000Z</time>
        <extensions>
          <ns3:TrackPointExtension>
            <ns3:atemp>20.0</ns3:atemp>
          </ns3:TrackPointExtension>
        </extensions>
      </trkpt>
      <trkpt lat="42.52826996147632598876953125" lon="20.01553424634039402008056640625">
        <ele>1995.800048828125</ele>
        <time>2026-06-19T10:12:14.000Z</time>
        <extensions>
          <ns3:TrackPointExtension>
            <ns3:atemp>20.0</ns3:atemp>
          </ns3:TrackPointExtension>
        </extensions>
      </trkpt>
      <trkpt lat="42.52830005250871181488037109375" lon="20.01552066765725612640380859375">
        <ele>1995.5999755859375</ele>
        <time>2026-06-19T10:12:15.000Z</time>
        <extensions>
          <ns3:TrackPointExtension>
            <ns3:atemp>20.0</ns3:atemp>
          </ns3:TrackPointExtension>
        </extensions>
      </trkpt>
      <trkpt lat="42.52832905389368534088134765625" lon="20.01550490967929363250732421875">
        <ele>1995.5999755859375</ele>
        <time>2026-06-19T10:12:16.000Z</time>
        <extensions>
          <ns3:TrackPointExtension>
            <ns3:atemp>20.0</ns3:atemp>
          </ns3:TrackPointExtension>
        </extensions>
      </trkpt>
      <trkpt lat="42.5283564627170562744140625" lon="20.0154877267777919769287109375">
        <ele>1995.4000244140625</ele>
        <time>2026-06-19T10:12:17.000Z</time>
        <extensions>
          <ns3:TrackPointExtension>
            <ns3:atemp>20.0</ns3:atemp>
          </ns3:TrackPointExtension>
        </extensions>
      </trkpt>
      <trkpt lat="42.52837817184627056121826171875" lon="20.01546635292470455169677734375">
        <ele>1995.4000244140625</ele>
        <time>2026-06-19T10:12:18.000Z</time>
        <extensions>
          <ns3:TrackPointExtension>
            <ns3:atemp>20.0</ns3:atemp>
          </ns3:TrackPointExtension>
        </extensions>
      </trkpt>
      <trkpt lat="42.52840516157448291778564453125" lon="20.0154461525380611419677734375">
        <ele>1995.4000244140625</ele>
        <time>2026-06-19T10:12:19.000Z</time>
        <extensions>
          <ns3:TrackPointExtension>
            <ns3:atemp>20.0</ns3:atemp>
          </ns3:TrackPointExtension>
        </extensions>
      </trkpt>
      <trkpt lat="42.5284324027597904205322265625" lon="20.0154166482388973236083984375">
        <ele>1995.4000244140625</ele>
        <time>2026-06-19T10:12:20.000Z</time>
        <extensions>
          <ns3:TrackPointExtension>
            <ns3:atemp>20.0</ns3:atemp>
          </ns3:TrackPointExtension>
        </extensions>
      </trkpt>
      <trkpt lat="42.52845964394509792327880859375" lon="20.015388317406177520751953125">
        <ele>1995.4000244140625</ele>
        <time>2026-06-19T10:12:21.000Z</time>
        <extensions>
          <ns3:TrackPointExtension>
            <ns3:atemp>20.0</ns3:atemp>
          </ns3:TrackPointExtension>
        </extensions>
      </trkpt>
      <trkpt lat="42.5284893997013568878173828125" lon="20.0153625011444091796875">
        <ele>1995.199951171875</ele>
        <time>2026-06-19T10:12:22.000Z</time>
        <extensions>
          <ns3:TrackPointExtension>
            <ns3:atemp>20.0</ns3:atemp>
          </ns3:TrackPointExtension>
        </extensions>
      </trkpt>
      <trkpt lat="42.5285202451050281524658203125" lon="20.01533727161586284637451171875">
        <ele>1995.199951171875</ele>
        <time>2026-06-19T10:12:23.000Z</time>
        <extensions>
          <ns3:TrackPointExtension>
            <ns3:atemp>19.0</ns3:atemp>
          </ns3:TrackPointExtension>
        </extensions>
      </trkpt>
      <trkpt lat="42.52855234779417514801025390625" lon="20.015319921076297760009765625">
        <ele>1995.199951171875</ele>
        <time>2026-06-19T10:12:24.000Z</time>
        <extensions>
          <ns3:TrackPointExtension>
            <ns3:atemp>19.0</ns3:atemp>
          </ns3:TrackPointExtension>
        </extensions>
      </trkpt>
      <trkpt lat="42.52858486957848072052001953125" lon="20.015311539173126220703125">
        <ele>1995.199951171875</ele>
        <time>2026-06-19T10:12:25.000Z</time>
        <extensions>
          <ns3:TrackPointExtension>
            <ns3:atemp>19.0</ns3:atemp>
          </ns3:TrackPointExtension>
        </extensions>
      </trkpt>
      <trkpt lat="42.5286144576966762542724609375" lon="20.01530424691736698150634765625">
        <ele>1995.4000244140625</ele>
        <time>2026-06-19T10:12:26.000Z</time>
        <extensions>
          <ns3:TrackPointExtension>
            <ns3:atemp>19.0</ns3:atemp>
          </ns3:TrackPointExtension>
        </extensions>
      </trkpt>
      <trkpt lat="42.52864907495677471160888671875" lon="20.01529972068965435028076171875">
        <ele>1995.800048828125</ele>
        <time>2026-06-19T10:12:27.000Z</time>
        <extensions>
          <ns3:TrackPointExtension>
            <ns3:atemp>19.0</ns3:atemp>
          </ns3:TrackPointExtension>
        </extensions>
      </trkpt>
      <trkpt lat="42.52868528477847576141357421875" lon="20.0152919255197048187255859375">
        <ele>1996</ele>
        <time>2026-06-19T10:12:28.000Z</time>
        <extensions>
          <ns3:TrackPointExtension>
            <ns3:atemp>19.0</ns3:atemp>
          </ns3:TrackPointExtension>
        </extensions>
      </trkpt>
      <trkpt lat="42.52871881239116191864013671875" lon="20.0152860581874847412109375">
        <ele>1996.4000244140625</ele>
        <time>2026-06-19T10:12:29.000Z</time>
        <extensions>
          <ns3:TrackPointExtension>
            <ns3:atemp>19.0</ns3:atemp>
          </ns3:TrackPointExtension>
        </extensions>
      </trkpt>
      <trkpt lat="42.52875200472772121429443359375" lon="20.0152825377881526947021484375">
        <ele>1996.4000244140625</ele>
        <time>2026-06-19T10:12:30.000Z</time>
        <extensions>
          <ns3:TrackPointExtension>
            <ns3:atemp>19.0</ns3:atemp>
          </ns3:TrackPointExtension>
        </extensions>
      </trkpt>
      <trkpt lat="42.52878226339817047119140625" lon="20.01527893356978893280029296875">
        <ele>1996.5999755859375</ele>
        <time>2026-06-19T10:12:31.000Z</time>
        <extensions>
          <ns3:TrackPointExtension>
            <ns3:atemp>19.0</ns3:atemp>
          </ns3:TrackPointExtension>
        </extensions>
      </trkpt>
      <trkpt lat="42.52881168387830257415771484375" lon="20.01527608372271060943603515625">
        <ele>1996.800048828125</ele>
        <time>2026-06-19T10:12:32.000Z</time>
        <extensions>
          <ns3:TrackPointExtension>
            <ns3:atemp>19.0</ns3:atemp>
          </ns3:TrackPointExtension>
        </extensions>
      </trkpt>
      <trkpt lat="42.52884127199649810791015625" lon="20.0152751617133617401123046875">
        <ele>1996.800048828125</ele>
        <time>2026-06-19T10:12:33.000Z</time>
        <extensions>
          <ns3:TrackPointExtension>
            <ns3:atemp>19.0</ns3:atemp>
          </ns3:TrackPointExtension>
        </extensions>
      </trkpt>
      <trkpt lat="42.52887253649532794952392578125" lon="20.01527465879917144775390625">
        <ele>1997.199951171875</ele>
        <time>2026-06-19T10:12:34.000Z</time>
        <extensions>
          <ns3:TrackPointExtension>
            <ns3:atemp>19.0</ns3:atemp>
          </ns3:TrackPointExtension>
        </extensions>
      </trkpt>
      <trkpt lat="42.52890162169933319091796875" lon="20.01527541317045688629150390625">
        <ele>1997.199951171875</ele>
        <time>2026-06-19T10:12:35.000Z</time>
        <extensions>
          <ns3:TrackPointExtension>
            <ns3:atemp>19.0</ns3:atemp>
          </ns3:TrackPointExtension>
        </extensions>
      </trkpt>
      <trkpt lat="42.5289329700171947479248046875" lon="20.0152751617133617401123046875">
        <ele>1997.4000244140625</ele>
        <time>2026-06-19T10:12:36.000Z</time>
        <extensions>
          <ns3:TrackPointExtension>
            <ns3:atemp>19.0</ns3:atemp>
          </ns3:TrackPointExtension>
        </extensions>
      </trkpt>
      <trkpt lat="42.52896171994507312774658203125" lon="20.0152738206088542938232421875">
        <ele>1997.5999755859375</ele>
        <time>2026-06-19T10:12:37.000Z</time>
        <extensions>
          <ns3:TrackPointExtension>
            <ns3:atemp>19.0</ns3:atemp>
          </ns3:TrackPointExtension>
        </extensions>
      </trkpt>
      <trkpt lat="42.52899055369198322296142578125" lon="20.0152724795043468475341796875">
        <ele>1997.800048828125</ele>
        <time>2026-06-19T10:12:38.000Z</time>
        <extensions>
          <ns3:TrackPointExtension>
            <ns3:atemp>19.0</ns3:atemp>
          </ns3:TrackPointExtension>
        </extensions>
      </trkpt>
      <trkpt lat="42.529019974172115325927734375" lon="20.01526921056210994720458984375">
        <ele>1997.800048828125</ele>
        <time>2026-06-19T10:12:39.000Z</time>
        <extensions>
          <ns3:TrackPointExtension>
            <ns3:atemp>19.0</ns3:atemp>
          </ns3:TrackPointExtension>
        </extensions>
      </trkpt>
      <trkpt lat="42.5290489755570888519287109375" lon="20.015266276895999908447265625">
        <ele>1998</ele>
        <time>2026-06-19T10:12:40.000Z</time>
        <extensions>
          <ns3:TrackPointExtension>
            <ns3:atemp>19.0</ns3:atemp>
          </ns3:TrackPointExtension>
        </extensions>
      </trkpt>
      <trkpt lat="42.52907730638980865478515625" lon="20.015268959105014801025390625">
        <ele>1998.199951171875</ele>
        <time>2026-06-19T10:12:41.000Z</time>
        <extensions>
          <ns3:TrackPointExtension>
            <ns3:atemp>19.0</ns3:atemp>
          </ns3:TrackPointExtension>
        </extensions>
      </trkpt>
      <trkpt lat="42.52910706214606761932373046875" lon="20.0152714736759662628173828125">
        <ele>1998.199951171875</ele>
        <time>2026-06-19T10:12:42.000Z</time>
        <extensions>
          <ns3:TrackPointExtension>
            <ns3:atemp>19.0</ns3:atemp>
          </ns3:TrackPointExtension>
        </extensions>
      </trkpt>
      <trkpt lat="42.52913472242653369903564453125" lon="20.01527407206594944000244140625">
        <ele>1998.4000244140625</ele>
        <time>2026-06-19T10:12:43.000Z</time>
        <extensions>
          <ns3:TrackPointExtension>
            <ns3:atemp>19.0</ns3:atemp>
          </ns3:TrackPointExtension>
        </extensions>
      </trkpt>
      <trkpt lat="42.529164813458919525146484375" lon="20.01527868211269378662109375">
        <ele>1998.800048828125</ele>
        <time>2026-06-19T10:12:44.000Z</time>
        <extensions>
          <ns3:TrackPointExtension>
            <ns3:atemp>19.0</ns3:atemp>
          </ns3:TrackPointExtension>
        </extensions>
      </trkpt>
      <trkpt lat="42.52919507212936878204345703125" lon="20.0152842141687870025634765625">
        <ele>1999</ele>
        <time>2026-06-19T10:12:45.000Z</time>
        <extensions>
          <ns3:TrackPointExtension>
            <ns3:atemp>19.0</ns3:atemp>
          </ns3:TrackPointExtension>
        </extensions>
      </trkpt>
      <trkpt lat="42.529224492609500885009765625" lon="20.0152899138629436492919921875">
        <ele>1999.4000244140625</ele>
        <time>2026-06-19T10:12:46.000Z</time>
        <extensions>
          <ns3:TrackPointExtension>
            <ns3:atemp>19.0</ns3:atemp>
          </ns3:TrackPointExtension>
        </extensions>
      </trkpt>
      <trkpt lat="42.5292598642408847808837890625" lon="20.01529854722321033477783203125">
        <ele>1999.5999755859375</ele>
        <time>2026-06-19T10:12:47.000Z</time>
        <extensions>
          <ns3:TrackPointExtension>
            <ns3:atemp>19.0</ns3:atemp>
          </ns3:TrackPointExtension>
        </extensions>
      </trkpt>
      <trkpt lat="42.52929431386291980743408203125" lon="20.0153128802776336669921875">
        <ele>1999.800048828125</ele>
        <time>2026-06-19T10:12:48.000Z</time>
        <extensions>
          <ns3:TrackPointExtension>
            <ns3:atemp>19.0</ns3:atemp>
          </ns3:TrackPointExtension>
        </extensions>
      </trkpt>
      <trkpt lat="42.52932650037109851837158203125" lon="20.01533458940684795379638671875">
        <ele>1999.800048828125</ele>
        <time>2026-06-19T10:12:49.000Z</time>
        <extensions>
          <ns3:TrackPointExtension>
            <ns3:atemp>19.0</ns3:atemp>
          </ns3:TrackPointExtension>
        </extensions>
      </trkpt>
      <trkpt lat="42.5293544121086597442626953125" lon="20.0153559632599353790283203125">
        <ele>1999.800048828125</ele>
        <time>2026-06-19T10:12:50.000Z</time>
        <extensions>
          <ns3:TrackPointExtension>
            <ns3:atemp>19.0</ns3:atemp>
          </ns3:TrackPointExtension>
        </extensions>
      </trkpt>
      <trkpt lat="42.52937310375273227691650390625" lon="20.0153772532939910888671875">
        <ele>1999.800048828125</ele>
        <time>2026-06-19T10:12:51.000Z</time>
        <extensions>
          <ns3:TrackPointExtension>
            <ns3:atemp>19.0</ns3:atemp>
          </ns3:TrackPointExtension>
        </extensions>
      </trkpt>
      <trkpt lat="42.52939221449196338653564453125" lon="20.01540097407996654510498046875">
        <ele>2000</ele>
        <time>2026-06-19T10:12:52.000Z</time>
        <extensions>
          <ns3:TrackPointExtension>
            <ns3:atemp>19.0</ns3:atemp>
          </ns3:TrackPointExtension>
        </extensions>
      </trkpt>
      <trkpt lat="42.5294090621173381805419921875" lon="20.01542511396110057830810546875">
        <ele>1999.800048828125</ele>
        <time>2026-06-19T10:12:53.000Z</time>
        <extensions>
          <ns3:TrackPointExtension>
            <ns3:atemp>19.0</ns3:atemp>
          </ns3:TrackPointExtension>
        </extensions>
      </trkpt>
      <trkpt lat="42.52942607738077640533447265625" lon="20.01545361243188381195068359375">
        <ele>2000</ele>
        <time>2026-06-19T10:12:54.000Z</time>
        <extensions>
          <ns3:TrackPointExtension>
            <ns3:atemp>19.0</ns3:atemp>
          </ns3:TrackPointExtension>
        </extensions>
      </trkpt>
      <trkpt lat="42.52944099716842174530029296875" lon="20.01548144035041332244873046875">
        <ele>2000</ele>
        <time>2026-06-19T10:12:55.000Z</time>
        <extensions>
          <ns3:TrackPointExtension>
            <ns3:atemp>19.0</ns3:atemp>
          </ns3:TrackPointExtension>
        </extensions>
      </trkpt>
      <trkpt lat="42.52945910207927227020263671875" lon="20.01551513560116291046142578125">
        <ele>2000.199951171875</ele>
        <time>2026-06-19T10:12:56.000Z</time>
        <extensions>
          <ns3:TrackPointExtension>
            <ns3:atemp>19.0</ns3:atemp>
          </ns3:TrackPointExtension>
        </extensions>
      </trkpt>
      <trkpt lat="42.52947720699012279510498046875" lon="20.0155464000999927520751953125">
        <ele>2000.199951171875</ele>
        <time>2026-06-19T10:12:57.000Z</time>
        <extensions>
          <ns3:TrackPointExtension>
            <ns3:atemp>19.0</ns3:atemp>
          </ns3:TrackPointExtension>
        </extensions>
      </trkpt>
      <trkpt lat="42.52949832938611507415771484375" lon="20.015574060380458831787109375">
        <ele>2000.199951171875</ele>
        <time>2026-06-19T10:12:58.000Z</time>
        <extensions>
          <ns3:TrackPointExtension>
            <ns3:atemp>19.0</ns3:atemp>
          </ns3:TrackPointExtension>
        </extensions>
      </trkpt>
      <trkpt lat="42.52951945178210735321044921875" lon="20.0156000442802906036376953125">
        <ele>2000.4000244140625</ele>
        <time>2026-06-19T10:12:59.000Z</time>
        <extensions>
          <ns3:TrackPointExtension>
            <ns3:atemp>19.0</ns3:atemp>
          </ns3:TrackPointExtension>
        </extensions>
      </trkpt>
      <trkpt lat="42.52953805960714817047119140625" lon="20.01563080586493015289306640625">
        <ele>2000.5999755859375</ele>
        <time>2026-06-19T10:13:00.000Z</time>
        <extensions>
          <ns3:TrackPointExtension>
            <ns3:atemp>19.0</ns3:atemp>
          </ns3:TrackPointExtension>
        </extensions>
      </trkpt>
      <trkpt lat="42.52955608069896697998046875" lon="20.0156624056398868560791015625">
        <ele>2000.5999755859375</ele>
        <time>2026-06-19T10:13:01.000Z</time>
        <extensions>
          <ns3:TrackPointExtension>
            <ns3:atemp>19.0</ns3:atemp>
          </ns3:TrackPointExtension>
        </extensions>
      </trkpt>
      <trkpt lat="42.52957493998110294342041015625" lon="20.01569601707160472869873046875">
        <ele>2000.800048828125</ele>
        <time>2026-06-19T10:13:02.000Z</time>
        <extensions>
          <ns3:TrackPointExtension>
            <ns3:atemp>19.0</ns3:atemp>
          </ns3:TrackPointExtension>
        </extensions>
      </trkpt>
      <trkpt lat="42.52959270961582660675048828125" lon="20.0157261081039905548095703125">
        <ele>2001</ele>
        <time>2026-06-19T10:13:03.000Z</time>
        <extensions>
          <ns3:TrackPointExtension>
            <ns3:atemp>19.0</ns3:atemp>
          </ns3:TrackPointExtension>
        </extensions>
      </trkpt>
      <trkpt lat="42.5296098925173282623291015625" lon="20.01575611531734466552734375">
        <ele>2001.199951171875</ele>
        <time>2026-06-19T10:13:04.000Z</time>
        <extensions>
          <ns3:TrackPointExtension>
            <ns3:atemp>19.0</ns3:atemp>
          </ns3:TrackPointExtension>
        </extensions>
      </trkpt>
      <trkpt lat="42.52962606959044933319091796875" lon="20.0157903134822845458984375">
        <ele>2001.199951171875</ele>
        <time>2026-06-19T10:13:05.000Z</time>
        <extensions>
          <ns3:TrackPointExtension>
            <ns3:atemp>19.0</ns3:atemp>
          </ns3:TrackPointExtension>
        </extensions>
      </trkpt>
      <trkpt lat="42.52964015118777751922607421875" lon="20.01582375727593898773193359375">
        <ele>2001.4000244140625</ele>
        <time>2026-06-19T10:13:06.000Z</time>
        <extensions>
          <ns3:TrackPointExtension>
            <ns3:atemp>19.0</ns3:atemp>
          </ns3:TrackPointExtension>
        </extensions>
      </trkpt>
      <trkpt lat="42.529649622738361358642578125" lon="20.01586130820214748382568359375">
        <ele>2001.5999755859375</ele>
        <time>2026-06-19T10:13:07.000Z</time>
        <extensions>
          <ns3:TrackPointExtension>
            <ns3:atemp>19.0</ns3:atemp>
          </ns3:TrackPointExtension>
        </extensions>
      </trkpt>
      <trkpt lat="42.52965892665088176727294921875" lon="20.01589751802384853363037109375">
        <ele>2001.800048828125</ele>
        <time>2026-06-19T10:13:08.000Z</time>
        <extensions>
          <ns3:TrackPointExtension>
            <ns3:atemp>19.0</ns3:atemp>
          </ns3:TrackPointExtension>
        </extensions>
      </trkpt>
      <trkpt lat="42.52966982312500476837158203125" lon="20.015929453074932098388671875">
        <ele>2002.199951171875</ele>
        <time>2026-06-19T10:13:09.000Z</time>
        <extensions>
          <ns3:TrackPointExtension>
            <ns3:atemp>19.0</ns3:atemp>
          </ns3:TrackPointExtension>
        </extensions>
      </trkpt>
      <trkpt lat="42.52968155778944492340087890625" lon="20.015963651239871978759765625">
        <ele>2002.4000244140625</ele>
        <time>2026-06-19T10:13:10.000Z</time>
        <extensions>
          <ns3:TrackPointExtension>
            <ns3:atemp>19.0</ns3:atemp>
          </ns3:TrackPointExtension>
        </extensions>
      </trkpt>
      <trkpt lat="42.52968776039779186248779296875" lon="20.015993155539035797119140625">
        <ele>2002.800048828125</ele>
        <time>2026-06-19T10:13:11.000Z</time>
        <extensions>
          <ns3:TrackPointExtension>
            <ns3:atemp>19.0</ns3:atemp>
          </ns3:TrackPointExtension>
        </extensions>
      </trkpt>
      <trkpt lat="42.52969530411064624786376953125" lon="20.0160271860659122467041015625">
        <ele>2003</ele>
        <time>2026-06-19T10:13:12.000Z</time>
        <extensions>
          <ns3:TrackPointExtension>
            <ns3:atemp>19.0</ns3:atemp>
          </ns3:TrackPointExtension>
        </extensions>
      </trkpt>
      <trkpt lat="42.5297017581760883331298828125" lon="20.01605643890798091888427734375">
        <ele>2003</ele>
        <time>2026-06-19T10:13:13.000Z</time>
        <extensions>
          <ns3:TrackPointExtension>
            <ns3:atemp>19.0</ns3:atemp>
          </ns3:TrackPointExtension>
        </extensions>
      </trkpt>
      <trkpt lat="42.52970670349895954132080078125" lon="20.01609298400580883026123046875">
        <ele>2003.199951171875</ele>
        <time>2026-06-19T10:13:14.000Z</time>
        <extensions>
          <ns3:TrackPointExtension>
            <ns3:atemp>19.0</ns3:atemp>
          </ns3:TrackPointExtension>
        </extensions>
      </trkpt>
      <trkpt lat="42.5297134928405284881591796875" lon="20.01612399704754352569580078125">
        <ele>2003.199951171875</ele>
        <time>2026-06-19T10:13:15.000Z</time>
        <extensions>
          <ns3:TrackPointExtension>
            <ns3:atemp>19.0</ns3:atemp>
          </ns3:TrackPointExtension>
        </extensions>
      </trkpt>
      <trkpt lat="42.52971567213535308837890625" lon="20.01615769229829311370849609375">
        <ele>2003.199951171875</ele>
        <time>2026-06-19T10:13:16.000Z</time>
        <extensions>
          <ns3:TrackPointExtension>
            <ns3:atemp>19.0</ns3:atemp>
          </ns3:TrackPointExtension>
        </extensions>
      </trkpt>
      <trkpt lat="42.52971542067825794219970703125" lon="20.0161938183009624481201171875">
        <ele>2003.4000244140625</ele>
        <time>2026-06-19T10:13:17.000Z</time>
        <extensions>
          <ns3:TrackPointExtension>
            <ns3:atemp>19.0</ns3:atemp>
          </ns3:TrackPointExtension>
        </extensions>
      </trkpt>
      <trkpt lat="42.52971441484987735748291015625" lon="20.0162313692271709442138671875">
        <ele>2003.4000244140625</ele>
        <time>2026-06-19T10:13:18.000Z</time>
        <extensions>
          <ns3:TrackPointExtension>
            <ns3:atemp>19.0</ns3:atemp>
          </ns3:TrackPointExtension>
        </extensions>
      </trkpt>
      <trkpt lat="42.52971525304019451141357421875" lon="20.01626699231564998626708984375">
        <ele>2003.5999755859375</ele>
        <time>2026-06-19T10:13:19.000Z</time>
        <extensions>
          <ns3:TrackPointExtension>
            <ns3:atemp>19.0</ns3:atemp>
          </ns3:TrackPointExtension>
        </extensions>
      </trkpt>
      <trkpt lat="42.52971692942082881927490234375" lon="20.01630119048058986663818359375">
        <ele>2003.5999755859375</ele>
        <time>2026-06-19T10:13:20.000Z</time>
        <extensions>
          <ns3:TrackPointExtension>
            <ns3:atemp>19.0</ns3:atemp>
          </ns3:TrackPointExtension>
        </extensions>
      </trkpt>
      <trkpt lat="42.5297218747437000274658203125" lon="20.016334466636180877685546875">
        <ele>2003.800048828125</ele>
        <time>2026-06-19T10:13:21.000Z</time>
        <extensions>
          <ns3:TrackPointExtension>
            <ns3:atemp>19.0</ns3:atemp>
          </ns3:TrackPointExtension>
        </extensions>
      </trkpt>
      <trkpt lat="42.529727406799793243408203125" lon="20.016370676457881927490234375">
        <ele>2003.800048828125</ele>
        <time>2026-06-19T10:13:22.000Z</time>
        <extensions>
          <ns3:TrackPointExtension>
            <ns3:atemp>19.0</ns3:atemp>
          </ns3:TrackPointExtension>
        </extensions>
      </trkpt>
      <trkpt lat="42.52973922528326511383056640625" lon="20.01640252768993377685546875">
        <ele>2004</ele>
        <time>2026-06-19T10:13:23.000Z</time>
        <extensions>
          <ns3:TrackPointExtension>
            <ns3:atemp>19.0</ns3:atemp>
          </ns3:TrackPointExtension>
        </extensions>
      </trkpt>
      <trkpt lat="42.52974844537675380706787109375" lon="20.01643630675971508026123046875">
        <ele>2004.199951171875</ele>
        <time>2026-06-19T10:13:24.000Z</time>
        <extensions>
          <ns3:TrackPointExtension>
            <ns3:atemp>19.0</ns3:atemp>
          </ns3:TrackPointExtension>
        </extensions>
      </trkpt>
      <trkpt lat="42.52975414507091045379638671875" lon="20.0164710916578769683837890625">
        <ele>2004.199951171875</ele>
        <time>2026-06-19T10:13:25.000Z</time>
        <extensions>
          <ns3:TrackPointExtension>
            <ns3:atemp>19.0</ns3:atemp>
          </ns3:TrackPointExtension>
        </extensions>
      </trkpt>
      <trkpt lat="42.52975867129862308502197265625" lon="20.0165052898228168487548828125">
        <ele>2004.4000244140625</ele>
        <time>2026-06-19T10:13:26.000Z</time>
        <extensions>
          <ns3:TrackPointExtension>
            <ns3:atemp>19.0</ns3:atemp>
          </ns3:TrackPointExtension>
        </extensions>
      </trkpt>
      <trkpt lat="42.5297644548118114471435546875" lon="20.0165411643683910369873046875">
        <ele>2004.5999755859375</ele>
        <time>2026-06-19T10:13:27.000Z</time>
        <extensions>
          <ns3:TrackPointExtension>
            <ns3:atemp>19.0</ns3:atemp>
          </ns3:TrackPointExtension>
        </extensions>
      </trkpt>
      <trkpt lat="42.52977392636239528656005859375" lon="20.0165763683617115020751953125">
        <ele>2004.5999755859375</ele>
        <time>2026-06-19T10:13:28.000Z</time>
        <extensions>
          <ns3:TrackPointExtension>
            <ns3:atemp>19.0</ns3:atemp>
          </ns3:TrackPointExtension>
        </extensions>
      </trkpt>
      <trkpt lat="42.5297896005213260650634765625" lon="20.0166137516498565673828125">
        <ele>2004.5999755859375</ele>
        <time>2026-06-19T10:13:29.000Z</time>
        <extensions>
          <ns3:TrackPointExtension>
            <ns3:atemp>19.0</ns3:atemp>
          </ns3:TrackPointExtension>
        </extensions>
      </trkpt>
      <trkpt lat="42.5298060290515422821044921875" lon="20.01664652489125728607177734375">
        <ele>2004.5999755859375</ele>
        <time>2026-06-19T10:13:30.000Z</time>
        <extensions>
          <ns3:TrackPointExtension>
            <ns3:atemp>19.0</ns3:atemp>
          </ns3:TrackPointExtension>
        </extensions>
      </trkpt>
      <trkpt lat="42.52982438541948795318603515625" lon="20.01667602919042110443115234375">
        <ele>2004.800048828125</ele>
        <time>2026-06-19T10:13:31.000Z</time>
        <extensions>
          <ns3:TrackPointExtension>
            <ns3:atemp>19.0</ns3:atemp>
          </ns3:TrackPointExtension>
        </extensions>
      </trkpt>
      <trkpt lat="42.52984114922583103179931640625" lon="20.016705282032489776611328125">
        <ele>2004.800048828125</ele>
        <time>2026-06-19T10:13:32.000Z</time>
        <extensions>
          <ns3:TrackPointExtension>
            <ns3:atemp>19.0</ns3:atemp>
          </ns3:TrackPointExtension>
        </extensions>
      </trkpt>
      <trkpt lat="42.52985808067023754119873046875" lon="20.01672900281846523284912109375">
        <ele>2004.800048828125</ele>
        <time>2026-06-19T10:13:33.000Z</time>
        <extensions>
          <ns3:TrackPointExtension>
            <ns3:atemp>19.0</ns3:atemp>
          </ns3:TrackPointExtension>
        </extensions>
      </trkpt>
      <trkpt lat="42.52987249754369258880615234375" lon="20.0167490355670452117919921875">
        <ele>2004.800048828125</ele>
        <time>2026-06-19T10:13:34.000Z</time>
        <extensions>
          <ns3:TrackPointExtension>
            <ns3:atemp>19.0</ns3:atemp>
          </ns3:TrackPointExtension>
        </extensions>
      </trkpt>
      <trkpt lat="42.52988004125654697418212890625" lon="20.016765631735324859619140625">
        <ele>2004.800048828125</ele>
        <time>2026-06-19T10:13:35.000Z</time>
        <extensions>
          <ns3:TrackPointExtension>
            <ns3:atemp>19.0</ns3:atemp>
          </ns3:TrackPointExtension>
        </extensions>
      </trkpt>
      <trkpt lat="42.52988775260746479034423828125" lon="20.016792453825473785400390625">
        <ele>2004.800048828125</ele>
        <time>2026-06-19T10:13:36.000Z</time>
        <extensions>
          <ns3:TrackPointExtension>
            <ns3:atemp>19.0</ns3:atemp>
          </ns3:TrackPointExtension>
        </extensions>
      </trkpt>
      <trkpt lat="42.52989278174936771392822265625" lon="20.01682321541011333465576171875">
        <ele>2005</ele>
        <time>2026-06-19T10:13:37.000Z</time>
        <extensions>
          <ns3:TrackPointExtension>
            <ns3:atemp>19.0</ns3:atemp>
          </ns3:TrackPointExtension>
        </extensions>
      </trkpt>
      <trkpt lat="42.5298945419490337371826171875" lon="20.016850121319293975830078125">
        <ele>2005</ele>
        <time>2026-06-19T10:13:38.000Z</time>
        <extensions>
          <ns3:TrackPointExtension>
            <ns3:atemp>19.0</ns3:atemp>
          </ns3:TrackPointExtension>
        </extensions>
      </trkpt>
      <trkpt lat="42.52989211119711399078369140625" lon="20.01687400974333286285400390625">
        <ele>2005.199951171875</ele>
        <time>2026-06-19T10:13:39.000Z</time>
        <extensions>
          <ns3:TrackPointExtension>
            <ns3:atemp>19.0</ns3:atemp>
          </ns3:TrackPointExtension>
        </extensions>
      </trkpt>
      <trkpt lat="42.52988775260746479034423828125" lon="20.01689949072897434234619140625">
        <ele>2005.4000244140625</ele>
        <time>2026-06-19T10:13:40.000Z</time>
        <extensions>
          <ns3:TrackPointExtension>
            <ns3:atemp>19.0</ns3:atemp>
          </ns3:TrackPointExtension>
        </extensions>
      </trkpt>
      <trkpt lat="42.529881298542022705078125" lon="20.01692631281912326812744140625">
        <ele>2005.5999755859375</ele>
        <time>2026-06-19T10:13:41.000Z</time>
        <extensions>
          <ns3:TrackPointExtension>
            <ns3:atemp>19.0</ns3:atemp>
          </ns3:TrackPointExtension>
        </extensions>
      </trkpt>
      <trkpt lat="42.529874257743358612060546875" lon="20.0169505365192890167236328125">
        <ele>2005.800048828125</ele>
        <time>2026-06-19T10:13:42.000Z</time>
        <extensions>
          <ns3:TrackPointExtension>
            <ns3:atemp>19.0</ns3:atemp>
          </ns3:TrackPointExtension>
        </extensions>
      </trkpt>
      <trkpt lat="42.52986780367791652679443359375" lon="20.01697576604783535003662109375">
        <ele>2006.199951171875</ele>
        <time>2026-06-19T10:13:43.000Z</time>
        <extensions>
          <ns3:TrackPointExtension>
            <ns3:atemp>19.0</ns3:atemp>
          </ns3:TrackPointExtension>
        </extensions>
      </trkpt>
      <trkpt lat="42.52986294217407703399658203125" lon="20.01700560562312602996826171875">
        <ele>2006.5999755859375</ele>
        <time>2026-06-19T10:13:44.000Z</time>
        <extensions>
          <ns3:TrackPointExtension>
            <ns3:atemp>19.0</ns3:atemp>
          </ns3:TrackPointExtension>
        </extensions>
      </trkpt>
      <trkpt lat="42.5298610143363475799560546875" lon="20.01703418791294097900390625">
        <ele>2006.800048828125</ele>
        <time>2026-06-19T10:13:45.000Z</time>
        <extensions>
          <ns3:TrackPointExtension>
            <ns3:atemp>19.0</ns3:atemp>
          </ns3:TrackPointExtension>
        </extensions>
      </trkpt>
      <trkpt lat="42.52985741011798381805419921875" lon="20.01706293784081935882568359375">
        <ele>2007.199951171875</ele>
        <time>2026-06-19T10:13:46.000Z</time>
        <extensions>
          <ns3:TrackPointExtension>
            <ns3:atemp>19.0</ns3:atemp>
          </ns3:TrackPointExtension>
        </extensions>
      </trkpt>
      <trkpt lat="42.52985271625220775604248046875" lon="20.0170913524925708770751953125">
        <ele>2007.4000244140625</ele>
        <time>2026-06-19T10:13:47.000Z</time>
        <extensions>
          <ns3:TrackPointExtension>
            <ns3:atemp>19.0</ns3:atemp>
          </ns3:TrackPointExtension>
        </extensions>
      </trkpt>
      <trkpt lat="42.529852129518985748291015625" lon="20.0171218626201152801513671875">
        <ele>2007.800048828125</ele>
        <time>2026-06-19T10:13:48.000Z</time>
        <extensions>
          <ns3:TrackPointExtension>
            <ns3:atemp>19.0</ns3:atemp>
          </ns3:TrackPointExtension>
        </extensions>
      </trkpt>
      <trkpt lat="42.52985179424285888671875" lon="20.0171503610908985137939453125">
        <ele>2008.199951171875</ele>
        <time>2026-06-19T10:13:49.000Z</time>
        <extensions>
          <ns3:TrackPointExtension>
            <ns3:atemp>19.0</ns3:atemp>
          </ns3:TrackPointExtension>
        </extensions>
      </trkpt>
      <trkpt lat="42.52985070459544658660888671875" lon="20.0171796977519989013671875">
        <ele>2008.5999755859375</ele>
        <time>2026-06-19T10:13:50.000Z</time>
        <extensions>
          <ns3:TrackPointExtension>
            <ns3:atemp>19.0</ns3:atemp>
          </ns3:TrackPointExtension>
        </extensions>
      </trkpt>
      <trkpt lat="42.52985355444252490997314453125" lon="20.01721389591693878173828125">
        <ele>2009</ele>
        <time>2026-06-19T10:13:51.000Z</time>
        <extensions>
          <ns3:TrackPointExtension>
            <ns3:atemp>19.0</ns3:atemp>
          </ns3:TrackPointExtension>
        </extensions>
      </trkpt>
      <trkpt lat="42.52985372208058834075927734375" lon="20.017251111567020416259765625">
        <ele>2009.4000244140625</ele>
        <time>2026-06-19T10:13:52.000Z</time>
        <extensions>
          <ns3:TrackPointExtension>
            <ns3:atemp>19.0</ns3:atemp>
          </ns3:TrackPointExtension>
        </extensions>
      </trkpt>
      <trkpt lat="42.52985472790896892547607421875" lon="20.0172898359596729278564453125">
        <ele>2009.5999755859375</ele>
        <time>2026-06-19T10:13:53.000Z</time>
        <extensions>
          <ns3:TrackPointExtension>
            <ns3:atemp>19.0</ns3:atemp>
          </ns3:TrackPointExtension>
        </extensions>
      </trkpt>
      <trkpt lat="42.5298583321273326873779296875" lon="20.01732847653329372406005859375">
        <ele>2010.199951171875</ele>
        <time>2026-06-19T10:13:54.000Z</time>
        <extensions>
          <ns3:TrackPointExtension>
            <ns3:atemp>19.0</ns3:atemp>
          </ns3:TrackPointExtension>
        </extensions>
      </trkpt>
      <trkpt lat="42.5298569910228252410888671875" lon="20.01736217178404331207275390625">
        <ele>2010.4000244140625</ele>
        <time>2026-06-19T10:13:55.000Z</time>
        <extensions>
          <ns3:TrackPointExtension>
            <ns3:atemp>19.0</ns3:atemp>
          </ns3:TrackPointExtension>
        </extensions>
      </trkpt>
      <trkpt lat="42.52985657192766666412353515625" lon="20.01739754341542720794677734375">
        <ele>2010.800048828125</ele>
        <time>2026-06-19T10:13:56.000Z</time>
        <extensions>
          <ns3:TrackPointExtension>
            <ns3:atemp>19.0</ns3:atemp>
          </ns3:TrackPointExtension>
        </extensions>
      </trkpt>
      <trkpt lat="42.5298558175563812255859375" lon="20.01743040047585964202880859375">
        <ele>2011.199951171875</ele>
        <time>2026-06-19T10:13:57.000Z</time>
        <extensions>
          <ns3:TrackPointExtension>
            <ns3:atemp>19.0</ns3:atemp>
          </ns3:TrackPointExtension>
        </extensions>
      </trkpt>
      <trkpt lat="42.52985372208058834075927734375" lon="20.01746334135532379150390625">
        <ele>2011.5999755859375</ele>
        <time>2026-06-19T10:13:58.000Z</time>
        <extensions>
          <ns3:TrackPointExtension>
            <ns3:atemp>19.0</ns3:atemp>
          </ns3:TrackPointExtension>
        </extensions>
      </trkpt>
      <trkpt lat="42.52985422499477863311767578125" lon="20.01749577932059764862060546875">
        <ele>2011.800048828125</ele>
        <time>2026-06-19T10:13:59.000Z</time>
        <extensions>
          <ns3:TrackPointExtension>
            <ns3:atemp>19.0</ns3:atemp>
          </ns3:TrackPointExtension>
        </extensions>
      </trkpt>
      <trkpt lat="42.52985388971865177154541015625" lon="20.0175262056291103363037109375">
        <ele>2012.199951171875</ele>
        <time>2026-06-19T10:14:00.000Z</time>
        <extensions>
          <ns3:TrackPointExtension>
            <ns3:atemp>19.0</ns3:atemp>
          </ns3:TrackPointExtension>
        </extensions>
      </trkpt>
      <trkpt lat="42.52985204569995403289794921875" lon="20.01756333746016025543212890625">
        <ele>2012.4000244140625</ele>
        <time>2026-06-19T10:14:01.000Z</time>
        <extensions>
          <ns3:TrackPointExtension>
            <ns3:atemp>19.0</ns3:atemp>
          </ns3:TrackPointExtension>
        </extensions>
      </trkpt>
      <trkpt lat="42.52985321916639804840087890625" lon="20.01760139130055904388427734375">
        <ele>2012.5999755859375</ele>
        <time>2026-06-19T10:14:02.000Z</time>
        <extensions>
          <ns3:TrackPointExtension>
            <ns3:atemp>19.0</ns3:atemp>
          </ns3:TrackPointExtension>
        </extensions>
      </trkpt>
      <trkpt lat="42.5298543088138103485107421875" lon="20.01763927750289440155029296875">
        <ele>2012.800048828125</ele>
        <time>2026-06-19T10:14:03.000Z</time>
        <extensions>
          <ns3:TrackPointExtension>
            <ns3:atemp>19.0</ns3:atemp>
          </ns3:TrackPointExtension>
        </extensions>
      </trkpt>
      <trkpt lat="42.5298539735376834869384765625" lon="20.01767448149621486663818359375">
        <ele>2013</ele>
        <time>2026-06-19T10:14:04.000Z</time>
        <extensions>
          <ns3:TrackPointExtension>
            <ns3:atemp>19.0</ns3:atemp>
          </ns3:TrackPointExtension>
        </extensions>
      </trkpt>
      <trkpt lat="42.52985456027090549468994140625" lon="20.017707757651805877685546875">
        <ele>2013.199951171875</ele>
        <time>2026-06-19T10:14:05.000Z</time>
        <extensions>
          <ns3:TrackPointExtension>
            <ns3:atemp>19.0</ns3:atemp>
          </ns3:TrackPointExtension>
        </extensions>
      </trkpt>
      <trkpt lat="42.529854811728000640869140625" lon="20.01774136908352375030517578125">
        <ele>2013.4000244140625</ele>
        <time>2026-06-19T10:14:06.000Z</time>
        <extensions>
          <ns3:TrackPointExtension>
            <ns3:atemp>19.0</ns3:atemp>
          </ns3:TrackPointExtension>
        </extensions>
      </trkpt>
      <trkpt lat="42.5298553146421909332275390625" lon="20.0177751481533050537109375">
        <ele>2013.5999755859375</ele>
        <time>2026-06-19T10:14:07.000Z</time>
        <extensions>
          <ns3:TrackPointExtension>
            <ns3:atemp>19.0</ns3:atemp>
          </ns3:TrackPointExtension>
        </extensions>
      </trkpt>
      <trkpt lat="42.5298558175563812255859375" lon="20.01781529746949672698974609375">
        <ele>2013.800048828125</ele>
        <time>2026-06-19T10:14:08.000Z</time>
        <extensions>
          <ns3:TrackPointExtension>
            <ns3:atemp>19.0</ns3:atemp>
          </ns3:TrackPointExtension>
        </extensions>
      </trkpt>
      <trkpt lat="42.5298573262989521026611328125" lon="20.017848908901214599609375">
        <ele>2014</ele>
        <time>2026-06-19T10:14:09.000Z</time>
        <extensions>
          <ns3:TrackPointExtension>
            <ns3:atemp>19.0</ns3:atemp>
          </ns3:TrackPointExtension>
        </extensions>
      </trkpt>
      <trkpt lat="42.5298626907169818878173828125" lon="20.017883442342281341552734375">
        <ele>2014.199951171875</ele>
        <time>2026-06-19T10:14:10.000Z</time>
        <extensions>
          <ns3:TrackPointExtension>
            <ns3:atemp>19.0</ns3:atemp>
          </ns3:TrackPointExtension>
        </extensions>
      </trkpt>
      <trkpt lat="42.52986696548759937286376953125" lon="20.01791638322174549102783203125">
        <ele>2014.5999755859375</ele>
        <time>2026-06-19T10:14:11.000Z</time>
        <extensions>
          <ns3:TrackPointExtension>
            <ns3:atemp>19.0</ns3:atemp>
          </ns3:TrackPointExtension>
        </extensions>
      </trkpt>
      <trkpt lat="42.52987065352499485015869140625" lon="20.01794940792024135589599609375">
        <ele>2014.800048828125</ele>
        <time>2026-06-19T10:14:12.000Z</time>
        <extensions>
          <ns3:TrackPointExtension>
            <ns3:atemp>19.0</ns3:atemp>
          </ns3:TrackPointExtension>
        </extensions>
      </trkpt>
      <trkpt lat="42.5298767723143100738525390625" lon="20.01798176206648349761962890625">
        <ele>2015.199951171875</ele>
        <time>2026-06-19T10:14:13.000Z</time>
        <extensions>
          <ns3:TrackPointExtension>
            <ns3:atemp>19.0</ns3:atemp>
          </ns3:TrackPointExtension>
        </extensions>
      </trkpt>
      <trkpt lat="42.5298858247697353363037109375" lon="20.01801109872758388519287109375">
        <ele>2015.4000244140625</ele>
        <time>2026-06-19T10:14:14.000Z</time>
        <extensions>
          <ns3:TrackPointExtension>
            <ns3:atemp>19.0</ns3:atemp>
          </ns3:TrackPointExtension>
        </extensions>
      </trkpt>
      <trkpt lat="42.5298982299864292144775390625" lon="20.01804294995963573455810546875">
        <ele>2015.800048828125</ele>
        <time>2026-06-19T10:14:15.000Z</time>
        <extensions>
          <ns3:TrackPointExtension>
            <ns3:atemp>19.0</ns3:atemp>
          </ns3:TrackPointExtension>
        </extensions>
      </trkpt>
      <trkpt lat="42.52991373650729656219482421875" lon="20.0180730409920215606689453125">
        <ele>2016</ele>
        <time>2026-06-19T10:14:16.000Z</time>
        <extensions>
          <ns3:TrackPointExtension>
            <ns3:atemp>19.0</ns3:atemp>
          </ns3:TrackPointExtension>
        </extensions>
      </trkpt>
      <trkpt lat="42.52992756664752960205078125" lon="20.01810464076697826385498046875">
        <ele>2016.4000244140625</ele>
        <time>2026-06-19T10:14:17.000Z</time>
        <extensions>
          <ns3:TrackPointExtension>
            <ns3:atemp>19.0</ns3:atemp>
          </ns3:TrackPointExtension>
        </extensions>
      </trkpt>
      <trkpt lat="42.529943995177745819091796875" lon="20.01813230104744434356689453125">
        <ele>2016.800048828125</ele>
        <time>2026-06-19T10:14:18.000Z</time>
        <extensions>
          <ns3:TrackPointExtension>
            <ns3:atemp>19.0</ns3:atemp>
          </ns3:TrackPointExtension>
        </extensions>
      </trkpt>
      <trkpt lat="42.52996117807924747467041015625" lon="20.01815644092857837677001953125">
        <ele>2017</ele>
        <time>2026-06-19T10:14:19.000Z</time>
        <extensions>
          <ns3:TrackPointExtension>
            <ns3:atemp>19.0</ns3:atemp>
          </ns3:TrackPointExtension>
        </extensions>
      </trkpt>
      <trkpt lat="42.5299793668091297149658203125" lon="20.01817488111555576324462890625">
        <ele>2017.4000244140625</ele>
        <time>2026-06-19T10:14:20.000Z</time>
        <extensions>
          <ns3:TrackPointExtension>
            <ns3:atemp>19.0</ns3:atemp>
          </ns3:TrackPointExtension>
        </extensions>
      </trkpt>
      <trkpt lat="42.52999537624418735504150390625" lon="20.01819449476897716522216796875">
        <ele>2017.800048828125</ele>
        <time>2026-06-19T10:14:21.000Z</time>
        <extensions>
          <ns3:TrackPointExtension>
            <ns3:atemp>19.0</ns3:atemp>
          </ns3:TrackPointExtension>
        </extensions>
      </trkpt>
      <trkpt lat="42.53001012839376926422119140625" lon="20.01821729354560375213623046875">
        <ele>2018</ele>
        <time>2026-06-19T10:14:22.000Z</time>
        <extensions>
          <ns3:TrackPointExtension>
            <ns3:atemp>19.0</ns3:atemp>
          </ns3:TrackPointExtension>
        </extensions>
      </trkpt>
      <trkpt lat="42.53002521581947803497314453125" lon="20.01823573373258113861083984375">
        <ele>2018.4000244140625</ele>
        <time>2026-06-19T10:14:23.000Z</time>
        <extensions>
          <ns3:TrackPointExtension>
            <ns3:atemp>19.0</ns3:atemp>
          </ns3:TrackPointExtension>
        </extensions>
      </trkpt>
      <trkpt lat="42.530041225254535675048828125" lon="20.01825400628149509429931640625">
        <ele>2018.800048828125</ele>
        <time>2026-06-19T10:14:24.000Z</time>
        <extensions>
          <ns3:TrackPointExtension>
            <ns3:atemp>19.0</ns3:atemp>
          </ns3:TrackPointExtension>
        </extensions>
      </trkpt>
      <trkpt lat="42.5300561450421810150146484375" lon="20.018267333507537841796875">
        <ele>2019.199951171875</ele>
        <time>2026-06-19T10:14:25.000Z</time>
        <extensions>
          <ns3:TrackPointExtension>
            <ns3:atemp>19.0</ns3:atemp>
          </ns3:TrackPointExtension>
        </extensions>
      </trkpt>
      <trkpt lat="42.53006880171597003936767578125" lon="20.01827848143875598907470703125">
        <ele>2019.4000244140625</ele>
        <time>2026-06-19T10:14:26.000Z</time>
        <extensions>
          <ns3:TrackPointExtension>
            <ns3:atemp>19.0</ns3:atemp>
          </ns3:TrackPointExtension>
        </extensions>
      </trkpt>
      <trkpt lat="42.53008388914167881011962890625" lon="20.018287114799022674560546875">
        <ele>2019.800048828125</ele>
        <time>2026-06-19T10:14:27.000Z</time>
        <extensions>
          <ns3:TrackPointExtension>
            <ns3:atemp>19.0</ns3:atemp>
          </ns3:TrackPointExtension>
        </extensions>
      </trkpt>
      <trkpt lat="42.53010299988090991973876953125" lon="20.01828619278967380523681640625">
        <ele>2020.199951171875</ele>
        <time>2026-06-19T10:14:28.000Z</time>
        <extensions>
          <ns3:TrackPointExtension>
            <ns3:atemp>19.0</ns3:atemp>
          </ns3:TrackPointExtension>
        </extensions>
      </trkpt>
      <trkpt lat="42.5301245413720607757568359375" lon="20.01828418113291263580322265625">
        <ele>2020.800048828125</ele>
        <time>2026-06-19T10:14:29.000Z</time>
        <extensions>
          <ns3:TrackPointExtension>
            <ns3:atemp>19.0</ns3:atemp>
          </ns3:TrackPointExtension>
        </extensions>
      </trkpt>
      <trkpt lat="42.53014608286321163177490234375" lon="20.0182802416384220123291015625">
        <ele>2021</ele>
        <time>2026-06-19T10:14:30.000Z</time>
        <extensions>
          <ns3:TrackPointExtension>
            <ns3:atemp>19.0</ns3:atemp>
          </ns3:TrackPointExtension>
        </extensions>
      </trkpt>
      <trkpt lat="42.5301644392311573028564453125" lon="20.0182809121906757354736328125">
        <ele>2021.4000244140625</ele>
        <time>2026-06-19T10:14:31.000Z</time>
        <extensions>
          <ns3:TrackPointExtension>
            <ns3:atemp>19.0</ns3:atemp>
          </ns3:TrackPointExtension>
        </extensions>
      </trkpt>
      <trkpt lat="42.5301828794181346893310546875" lon="20.01828066073358058929443359375">
        <ele>2021.5999755859375</ele>
        <time>2026-06-19T10:14:32.000Z</time>
        <extensions>
          <ns3:TrackPointExtension>
            <ns3:atemp>19.0</ns3:atemp>
          </ns3:TrackPointExtension>
        </extensions>
      </trkpt>
      <trkpt lat="42.53020391799509525299072265625" lon="20.0182735361158847808837890625">
        <ele>2021.800048828125</ele>
        <time>2026-06-19T10:14:33.000Z</time>
        <extensions>
          <ns3:TrackPointExtension>
            <ns3:atemp>19.0</ns3:atemp>
          </ns3:TrackPointExtension>
        </extensions>
      </trkpt>
      <trkpt lat="42.53022453747689723968505859375" lon="20.018262304365634918212890625">
        <ele>2021.800048828125</ele>
        <time>2026-06-19T10:14:34.000Z</time>
        <extensions>
          <ns3:TrackPointExtension>
            <ns3:atemp>19.0</ns3:atemp>
          </ns3:TrackPointExtension>
        </extensions>
      </trkpt>
      <trkpt lat="42.53024532459676265716552734375" lon="20.0182493962347507476806640625">
        <ele>2021.800048828125</ele>
        <time>2026-06-19T10:14:35.000Z</time>
        <extensions>
          <ns3:TrackPointExtension>
            <ns3:atemp>19.0</ns3:atemp>
          </ns3:TrackPointExtension>
        </extensions>
      </trkpt>
      <trkpt lat="42.53026678226888179779052734375" lon="20.01823523081839084625244140625">
        <ele>2021.5999755859375</ele>
        <time>2026-06-19T10:14:36.000Z</time>
        <extensions>
          <ns3:TrackPointExtension>
            <ns3:atemp>19.0</ns3:atemp>
          </ns3:TrackPointExtension>
        </extensions>
      </trkpt>
      <trkpt lat="42.53028891049325466156005859375" lon="20.0182192213833332061767578125">
        <ele>2021.4000244140625</ele>
        <time>2026-06-19T10:14:37.000Z</time>
        <extensions>
          <ns3:TrackPointExtension>
            <ns3:atemp>19.0</ns3:atemp>
          </ns3:TrackPointExtension>
        </extensions>
      </trkpt>
      <trkpt lat="42.53031087107956409454345703125" lon="20.01820027828216552734375">
        <ele>2021</ele>
        <time>2026-06-19T10:14:38.000Z</time>
        <extensions>
          <ns3:TrackPointExtension>
            <ns3:atemp>19.0</ns3:atemp>
          </ns3:TrackPointExtension>
        </extensions>
      </trkpt>
      <trkpt lat="42.53033651970326900482177734375" lon="20.0181880407035350799560546875">
        <ele>2020.800048828125</ele>
        <time>2026-06-19T10:14:39.000Z</time>
        <extensions>
          <ns3:TrackPointExtension>
            <ns3:atemp>19.0</ns3:atemp>
          </ns3:TrackPointExtension>
        </extensions>
      </trkpt>
      <trkpt lat="42.53036166541278362274169921875" lon="20.01817806623876094818115234375">
        <ele>2020.5999755859375</ele>
        <time>2026-06-19T10:14:40.000Z</time>
        <extensions>
          <ns3:TrackPointExtension>
            <ns3:atemp>19.0</ns3:atemp>
          </ns3:TrackPointExtension>
        </extensions>
      </trkpt>
      <trkpt lat="42.53038865514099597930908203125" lon="20.01816398464143276214599609375">
        <ele>2020.5999755859375</ele>
        <time>2026-06-19T10:14:41.000Z</time>
        <extensions>
          <ns3:TrackPointExtension>
            <ns3:atemp>19.0</ns3:atemp>
          </ns3:TrackPointExtension>
        </extensions>
      </trkpt>
      <trkpt lat="42.53041748888790607452392578125" lon="20.01814462244510650634765625">
        <ele>2020.4000244140625</ele>
        <time>2026-06-19T10:14:42.000Z</time>
        <extensions>
          <ns3:TrackPointExtension>
            <ns3:atemp>19.0</ns3:atemp>
          </ns3:TrackPointExtension>
        </extensions>
      </trkpt>
      <trkpt lat="42.5304433889687061309814453125" lon="20.01811218447983264923095703125">
        <ele>2020.199951171875</ele>
        <time>2026-06-19T10:14:43.000Z</time>
        <extensions>
          <ns3:TrackPointExtension>
            <ns3:atemp>19.0</ns3:atemp>
          </ns3:TrackPointExtension>
        </extensions>
      </trkpt>
      <trkpt lat="42.5304695405066013336181640625" lon="20.01806440763175487518310546875">
        <ele>2019.800048828125</ele>
        <time>2026-06-19T10:14:44.000Z</time>
        <extensions>
          <ns3:TrackPointExtension>
            <ns3:atemp>19.0</ns3:atemp>
          </ns3:TrackPointExtension>
        </extensions>
      </trkpt>
      <trkpt lat="42.53048948943614959716796875" lon="20.0180059857666492462158203125">
        <ele>2019.4000244140625</ele>
        <time>2026-06-19T10:14:45.000Z</time>
        <extensions>
          <ns3:TrackPointExtension>
            <ns3:atemp>19.0</ns3:atemp>
          </ns3:TrackPointExtension>
        </extensions>
      </trkpt>
      <trkpt lat="42.5305050797760486602783203125" lon="20.017935074865818023681640625">
        <ele>2018.4000244140625</ele>
        <time>2026-06-19T10:14:46.000Z</time>
        <extensions>
          <ns3:TrackPointExtension>
            <ns3:atemp>19.0</ns3:atemp>
          </ns3:TrackPointExtension>
        </extensions>
      </trkpt>
      <trkpt lat="42.5305317342281341552734375" lon="20.0178705342113971710205078125">
        <ele>2017.800048828125</ele>
        <time>2026-06-19T10:14:47.000Z</time>
        <extensions>
          <ns3:TrackPointExtension>
            <ns3:atemp>19.0</ns3:atemp>
          </ns3:TrackPointExtension>
        </extensions>
      </trkpt>
      <trkpt lat="42.53056702204048633575439453125" lon="20.01780758611857891082763671875">
        <ele>2017</ele>
        <time>2026-06-19T10:14:48.000Z</time>
        <extensions>
          <ns3:TrackPointExtension>
            <ns3:atemp>19.0</ns3:atemp>
          </ns3:TrackPointExtension>
        </extensions>
      </trkpt>
      <trkpt lat="42.53061127848923206329345703125" lon="20.0177563726902008056640625">
        <ele>2016.4000244140625</ele>
        <time>2026-06-19T10:14:49.000Z</time>
        <extensions>
          <ns3:TrackPointExtension>
            <ns3:atemp>19.0</ns3:atemp>
          </ns3:TrackPointExtension>
        </extensions>
      </trkpt>
      <trkpt lat="42.5306686945259571075439453125" lon="20.0177260302007198333740234375">
        <ele>2015.800048828125</ele>
        <time>2026-06-19T10:14:50.000Z</time>
        <extensions>
          <ns3:TrackPointExtension>
            <ns3:atemp>19.0</ns3:atemp>
          </ns3:TrackPointExtension>
        </extensions>
      </trkpt>
      <trkpt lat="42.5307369232177734375" lon="20.01771681010723114013671875">
        <ele>2015</ele>
        <time>2026-06-19T10:14:51.000Z</time>
        <extensions>
          <ns3:TrackPointExtension>
            <ns3:atemp>19.0</ns3:atemp>
          </ns3:TrackPointExtension>
        </extensions>
      </trkpt>
      <trkpt lat="42.5308074988424777984619140625" lon="20.01770867966115474700927734375">
        <ele>2014.199951171875</ele>
        <time>2026-06-19T10:14:52.000Z</time>
        <extensions>
          <ns3:TrackPointExtension>
            <ns3:atemp>19.0</ns3:atemp>
          </ns3:TrackPointExtension>
        </extensions>
      </trkpt>
      <trkpt lat="42.53087329678237438201904296875" lon="20.0176921673119068145751953125">
        <ele>2013.800048828125</ele>
        <time>2026-06-19T10:14:53.000Z</time>
        <extensions>
          <ns3:TrackPointExtension>
            <ns3:atemp>19.0</ns3:atemp>
          </ns3:TrackPointExtension>
        </extensions>
      </trkpt>
      <trkpt lat="42.53093071281909942626953125" lon="20.017658136785030364990234375">
        <ele>2013.199951171875</ele>
        <time>2026-06-19T10:14:54.000Z</time>
        <extensions>
          <ns3:TrackPointExtension>
            <ns3:atemp>19.0</ns3:atemp>
          </ns3:TrackPointExtension>
        </extensions>
      </trkpt>
      <trkpt lat="42.530982010066509246826171875" lon="20.0176043249666690826416015625">
        <ele>2012.800048828125</ele>
        <time>2026-06-19T10:14:55.000Z</time>
        <extensions>
          <ns3:TrackPointExtension>
            <ns3:atemp>19.0</ns3:atemp>
          </ns3:TrackPointExtension>
        </extensions>
      </trkpt>
      <trkpt lat="42.53103473223745822906494140625" lon="20.01755713485181331634521484375">
        <ele>2012.4000244140625</ele>
        <time>2026-06-19T10:14:56.000Z</time>
        <extensions>
          <ns3:TrackPointExtension>
            <ns3:atemp>19.0</ns3:atemp>
          </ns3:TrackPointExtension>
        </extensions>
      </trkpt>
      <trkpt lat="42.53108628094196319580078125" lon="20.01751162111759185791015625">
        <ele>2012</ele>
        <time>2026-06-19T10:14:57.000Z</time>
        <extensions>
          <ns3:TrackPointExtension>
            <ns3:atemp>19.0</ns3:atemp>
          </ns3:TrackPointExtension>
        </extensions>
      </trkpt>
      <trkpt lat="42.53113095648586750030517578125" lon="20.01746736466884613037109375">
        <ele>2012</ele>
        <time>2026-06-19T10:14:58.000Z</time>
        <extensions>
          <ns3:TrackPointExtension>
            <ns3:atemp>19.0</ns3:atemp>
          </ns3:TrackPointExtension>
        </extensions>
      </trkpt>
      <trkpt lat="42.53117554821074008941650390625" lon="20.01742587424814701080322265625">
        <ele>2011.800048828125</ele>
        <time>2026-06-19T10:14:59.000Z</time>
        <extensions>
          <ns3:TrackPointExtension>
            <ns3:atemp>19.0</ns3:atemp>
          </ns3:TrackPointExtension>
        </extensions>
      </trkpt>
      <trkpt lat="42.53121410496532917022705078125" lon="20.0173773430287837982177734375">
        <ele>2011.800048828125</ele>
        <time>2026-06-19T10:15:00.000Z</time>
        <extensions>
          <ns3:TrackPointExtension>
            <ns3:atemp>19.0</ns3:atemp>
          </ns3:TrackPointExtension>
        </extensions>
      </trkpt>
      <trkpt lat="42.5312547571957111358642578125" lon="20.01733861863613128662109375">
        <ele>2011.5999755859375</ele>
        <time>2026-06-19T10:15:01.000Z</time>
        <extensions>
          <ns3:TrackPointExtension>
            <ns3:atemp>19.0</ns3:atemp>
          </ns3:TrackPointExtension>
        </extensions>
      </trkpt>
      <trkpt lat="42.53130245022475719451904296875" lon="20.01730903051793575286865234375">
        <ele>2011.4000244140625</ele>
        <time>2026-06-19T10:15:02.000Z</time>
        <extensions>
          <ns3:TrackPointExtension>
            <ns3:atemp>19.0</ns3:atemp>
          </ns3:TrackPointExtension>
        </extensions>
      </trkpt>
      <trkpt lat="42.53135408274829387664794921875" lon="20.01728103496134281158447265625">
        <ele>2011.199951171875</ele>
        <time>2026-06-19T10:15:03.000Z</time>
        <extensions>
          <ns3:TrackPointExtension>
            <ns3:atemp>19.0</ns3:atemp>
          </ns3:TrackPointExtension>
        </extensions>
      </trkpt>
      <trkpt lat="42.5314073078334331512451171875" lon="20.01723526977002620697021484375">
        <ele>2011</ele>
        <time>2026-06-19T10:15:04.000Z</time>
        <extensions>
          <ns3:TrackPointExtension>
            <ns3:atemp>19.0</ns3:atemp>
          </ns3:TrackPointExtension>
        </extensions>
      </trkpt>
      <trkpt lat="42.53145131282508373260498046875" lon="20.017172656953334808349609375">
        <ele>2010.5999755859375</ele>
        <time>2026-06-19T10:15:05.000Z</time>
        <extensions>
          <ns3:TrackPointExtension>
            <ns3:atemp>19.0</ns3:atemp>
          </ns3:TrackPointExtension>
        </extensions>
      </trkpt>
      <trkpt lat="42.53148819319903850555419921875" lon="20.01709629781544208526611328125">
        <ele>2010.199951171875</ele>
        <time>2026-06-19T10:15:06.000Z</time>
        <extensions>
          <ns3:TrackPointExtension>
            <ns3:atemp>19.0</ns3:atemp>
          </ns3:TrackPointExtension>
        </extensions>
      </trkpt>
      <trkpt lat="42.53152213990688323974609375" lon="20.0170229561626911163330078125">
        <ele>2009.5999755859375</ele>
        <time>2026-06-19T10:15:07.000Z</time>
        <extensions>
          <ns3:TrackPointExtension>
            <ns3:atemp>19.0</ns3:atemp>
          </ns3:TrackPointExtension>
        </extensions>
      </trkpt>
      <trkpt lat="42.531554996967315673828125" lon="20.01694500446319580078125">
        <ele>2008.800048828125</ele>
        <time>2026-06-19T10:15:08.000Z</time>
        <extensions>
          <ns3:TrackPointExtension>
            <ns3:atemp>19.0</ns3:atemp>
          </ns3:TrackPointExtension>
        </extensions>
      </trkpt>
      <trkpt lat="42.53159430809319019317626953125" lon="20.0168710760772228240966796875">
        <ele>2008.199951171875</ele>
        <time>2026-06-19T10:15:09.000Z</time>
        <extensions>
          <ns3:TrackPointExtension>
            <ns3:atemp>19.0</ns3:atemp>
          </ns3:TrackPointExtension>
        </extensions>
      </trkpt>
      <trkpt lat="42.531637810170650482177734375" lon="20.016797818243503570556640625">
        <ele>2007.4000244140625</ele>
        <time>2026-06-19T10:15:10.000Z</time>
        <extensions>
          <ns3:TrackPointExtension>
            <ns3:atemp>19.0</ns3:atemp>
          </ns3:TrackPointExtension>
        </extensions>
      </trkpt>
      <trkpt lat="42.53168399445712566375732421875" lon="20.0167386420071125030517578125">
        <ele>2006.800048828125</ele>
        <time>2026-06-19T10:15:11.000Z</time>
        <extensions>
          <ns3:TrackPointExtension>
            <ns3:atemp>19.0</ns3:atemp>
          </ns3:TrackPointExtension>
        </extensions>
      </trkpt>
      <trkpt lat="42.53172875382006168365478515625" lon="20.0166809745132923126220703125">
        <ele>2006.199951171875</ele>
        <time>2026-06-19T10:15:12.000Z</time>
        <extensions>
          <ns3:TrackPointExtension>
            <ns3:atemp>19.0</ns3:atemp>
          </ns3:TrackPointExtension>
        </extensions>
      </trkpt>
      <trkpt lat="42.5317694060504436492919921875" lon="20.016625486314296722412109375">
        <ele>2005.800048828125</ele>
        <time>2026-06-19T10:15:13.000Z</time>
        <extensions>
          <ns3:TrackPointExtension>
            <ns3:atemp>19.0</ns3:atemp>
          </ns3:TrackPointExtension>
        </extensions>
      </trkpt>
      <trkpt lat="42.53179782070219516754150390625" lon="20.016561448574066162109375">
        <ele>2005.199951171875</ele>
        <time>2026-06-19T10:15:14.000Z</time>
        <extensions>
          <ns3:TrackPointExtension>
            <ns3:atemp>19.0</ns3:atemp>
          </ns3:TrackPointExtension>
        </extensions>
      </trkpt>
      <trkpt lat="42.53182598389685153961181640625" lon="20.01650101505219936370849609375">
        <ele>2004.800048828125</ele>
        <time>2026-06-19T10:15:15.000Z</time>
        <extensions>
          <ns3:TrackPointExtension>
            <ns3:atemp>19.0</ns3:atemp>
          </ns3:TrackPointExtension>
        </extensions>
      </trkpt>
      <trkpt lat="42.531855069100856781005859375" lon="20.01644007861614227294921875">
        <ele>2004.4000244140625</ele>
        <time>2026-06-19T10:15:16.000Z</time>
        <extensions>
          <ns3:TrackPointExtension>
            <ns3:atemp>19.0</ns3:atemp>
          </ns3:TrackPointExtension>
        </extensions>
      </trkpt>
      <trkpt lat="42.53188298083841800689697265625" lon="20.01637847162783145904541015625">
        <ele>2003.800048828125</ele>
        <time>2026-06-19T10:15:17.000Z</time>
        <extensions>
          <ns3:TrackPointExtension>
            <ns3:atemp>19.0</ns3:atemp>
          </ns3:TrackPointExtension>
        </extensions>
      </trkpt>
      <trkpt lat="42.53191030584275722503662109375" lon="20.0163104943931102752685546875">
        <ele>2003.199951171875</ele>
        <time>2026-06-19T10:15:18.000Z</time>
        <extensions>
          <ns3:TrackPointExtension>
            <ns3:atemp>19.0</ns3:atemp>
          </ns3:TrackPointExtension>
        </extensions>
      </trkpt>
      <trkpt lat="42.53193922340869903564453125" lon="20.01624100841581821441650390625">
        <ele>2002.5999755859375</ele>
        <time>2026-06-19T10:15:19.000Z</time>
        <extensions>
          <ns3:TrackPointExtension>
            <ns3:atemp>19.0</ns3:atemp>
          </ns3:TrackPointExtension>
        </extensions>
      </trkpt>
      <trkpt lat="42.5319699011743068695068359375" lon="20.0161686725914478302001953125">
        <ele>2002</ele>
        <time>2026-06-19T10:15:20.000Z</time>
        <extensions>
          <ns3:TrackPointExtension>
            <ns3:atemp>19.0</ns3:atemp>
          </ns3:TrackPointExtension>
        </extensions>
      </trkpt>
      <trkpt lat="42.53200518898665904998779296875" lon="20.01610103063285350799560546875">
        <ele>2001.5999755859375</ele>
        <time>2026-06-19T10:15:21.000Z</time>
        <extensions>
          <ns3:TrackPointExtension>
            <ns3:atemp>19.0</ns3:atemp>
          </ns3:TrackPointExtension>
        </extensions>
      </trkpt>
      <trkpt lat="42.53203712403774261474609375" lon="20.0160533376038074493408203125">
        <ele>2001.199951171875</ele>
        <time>2026-06-19T10:15:22.000Z</time>
        <extensions>
          <ns3:TrackPointExtension>
            <ns3:atemp>19.0</ns3:atemp>
          </ns3:TrackPointExtension>
        </extensions>
      </trkpt>
      <trkpt lat="42.53206662833690643310546875" lon="20.0160134397447109222412109375">
        <ele>2001</ele>
        <time>2026-06-19T10:15:23.000Z</time>
        <extensions>
          <ns3:TrackPointExtension>
            <ns3:atemp>19.0</ns3:atemp>
          </ns3:TrackPointExtension>
        </extensions>
      </trkpt>
      <trkpt lat="42.53209537826478481292724609375" lon="20.015977732837200164794921875">
        <ele>2001</ele>
        <time>2026-06-19T10:15:24.000Z</time>
        <extensions>
          <ns3:TrackPointExtension>
            <ns3:atemp>19.0</ns3:atemp>
          </ns3:TrackPointExtension>
        </extensions>
      </trkpt>
      <trkpt lat="42.53212505020201206207275390625" lon="20.01594076864421367645263671875">
        <ele>2001</ele>
        <time>2026-06-19T10:15:25.000Z</time>
        <extensions>
          <ns3:TrackPointExtension>
            <ns3:atemp>19.0</ns3:atemp>
          </ns3:TrackPointExtension>
        </extensions>
      </trkpt>
      <trkpt lat="42.53215237520635128021240234375" lon="20.0159098394215106964111328125">
        <ele>2001</ele>
        <time>2026-06-19T10:15:26.000Z</time>
        <extensions>
          <ns3:TrackPointExtension>
            <ns3:atemp>19.0</ns3:atemp>
          </ns3:TrackPointExtension>
        </extensions>
      </trkpt>
      <trkpt lat="42.5321804545819759368896484375" lon="20.0158769823610782623291015625">
        <ele>2001.199951171875</ele>
        <time>2026-06-19T10:15:27.000Z</time>
        <extensions>
          <ns3:TrackPointExtension>
            <ns3:atemp>19.0</ns3:atemp>
          </ns3:TrackPointExtension>
        </extensions>
      </trkpt>
      <trkpt lat="42.53221155144274234771728515625" lon="20.0158538483083248138427734375">
        <ele>2001.199951171875</ele>
        <time>2026-06-19T10:15:28.000Z</time>
        <extensions>
          <ns3:TrackPointExtension>
            <ns3:atemp>19.0</ns3:atemp>
          </ns3:TrackPointExtension>
        </extensions>
      </trkpt>
      <trkpt lat="42.53223937936127185821533203125" lon="20.01583348028361797332763671875">
        <ele>2001</ele>
        <time>2026-06-19T10:15:29.000Z</time>
        <extensions>
          <ns3:TrackPointExtension>
            <ns3:atemp>19.0</ns3:atemp>
          </ns3:TrackPointExtension>
        </extensions>
      </trkpt>
      <trkpt lat="42.5322726555168628692626953125" lon="20.01581638120114803314208984375">
        <ele>2001</ele>
        <time>2026-06-19T10:15:30.000Z</time>
        <extensions>
          <ns3:TrackPointExtension>
            <ns3:atemp>19.0</ns3:atemp>
          </ns3:TrackPointExtension>
        </extensions>
      </trkpt>
      <trkpt lat="42.5323068536818027496337890625" lon="20.01579458825290203094482421875">
        <ele>2001</ele>
        <time>2026-06-19T10:15:31.000Z</time>
        <extensions>
          <ns3:TrackPointExtension>
            <ns3:atemp>19.0</ns3:atemp>
          </ns3:TrackPointExtension>
        </extensions>
      </trkpt>
      <trkpt lat="42.53234381787478923797607421875" lon="20.0157673470675945281982421875">
        <ele>2001</ele>
        <time>2026-06-19T10:15:32.000Z</time>
        <extensions>
          <ns3:TrackPointExtension>
            <ns3:atemp>19.0</ns3:atemp>
          </ns3:TrackPointExtension>
        </extensions>
      </trkpt>
      <trkpt lat="42.532377429306507110595703125" lon="20.0157405249774456024169921875">
        <ele>2001</ele>
        <time>2026-06-19T10:15:33.000Z</time>
        <extensions>
          <ns3:TrackPointExtension>
            <ns3:atemp>19.0</ns3:atemp>
          </ns3:TrackPointExtension>
        </extensions>
      </trkpt>
      <trkpt lat="42.53241372294723987579345703125" lon="20.015717558562755584716796875">
        <ele>2001</ele>
        <time>2026-06-19T10:15:34.000Z</time>
        <extensions>
          <ns3:TrackPointExtension>
            <ns3:atemp>19.0</ns3:atemp>
          </ns3:TrackPointExtension>
        </extensions>
      </trkpt>
      <trkpt lat="42.53244574181735515594482421875" lon="20.01570221967995166778564453125">
        <ele>2001</ele>
        <time>2026-06-19T10:15:35.000Z</time>
        <extensions>
          <ns3:TrackPointExtension>
            <ns3:atemp>19.0</ns3:atemp>
          </ns3:TrackPointExtension>
        </extensions>
      </trkpt>
      <trkpt lat="42.532476671040058135986328125" lon="20.01568914391100406646728515625">
        <ele>2001</ele>
        <time>2026-06-19T10:15:36.000Z</time>
        <extensions>
          <ns3:TrackPointExtension>
            <ns3:atemp>19.0</ns3:atemp>
          </ns3:TrackPointExtension>
        </extensions>
      </trkpt>
      <trkpt lat="42.532502822577953338623046875" lon="20.01567489467561244964599609375">
        <ele>2001</ele>
        <time>2026-06-19T10:15:37.000Z</time>
        <extensions>
          <ns3:TrackPointExtension>
            <ns3:atemp>19.0</ns3:atemp>
          </ns3:TrackPointExtension>
        </extensions>
      </trkpt>
      <trkpt lat="42.5325335003435611724853515625" lon="20.01566081307828426361083984375">
        <ele>2001</ele>
        <time>2026-06-19T10:15:38.000Z</time>
        <extensions>
          <ns3:TrackPointExtension>
            <ns3:atemp>19.0</ns3:atemp>
          </ns3:TrackPointExtension>
        </extensions>
      </trkpt>
      <trkpt lat="42.5325690396130084991455078125" lon="20.0156427919864654541015625">
        <ele>2001</ele>
        <time>2026-06-19T10:15:39.000Z</time>
        <extensions>
          <ns3:TrackPointExtension>
            <ns3:atemp>19.0</ns3:atemp>
          </ns3:TrackPointExtension>
        </extensions>
      </trkpt>
      <trkpt lat="42.53260575234889984130859375" lon="20.01562871038913726806640625">
        <ele>2001</ele>
        <time>2026-06-19T10:15:40.000Z</time>
        <extensions>
          <ns3:TrackPointExtension>
            <ns3:atemp>19.0</ns3:atemp>
          </ns3:TrackPointExtension>
        </extensions>
      </trkpt>
      <trkpt lat="42.53264070488512516021728515625" lon="20.01562066376209259033203125">
        <ele>2000.800048828125</ele>
        <time>2026-06-19T10:15:41.000Z</time>
        <extensions>
          <ns3:TrackPointExtension>
            <ns3:atemp>19.0</ns3:atemp>
          </ns3:TrackPointExtension>
        </extensions>
      </trkpt>
      <trkpt lat="42.53267775289714336395263671875" lon="20.0156084261834621429443359375">
        <ele>2000.5999755859375</ele>
        <time>2026-06-19T10:15:42.000Z</time>
        <extensions>
          <ns3:TrackPointExtension>
            <ns3:atemp>19.0</ns3:atemp>
          </ns3:TrackPointExtension>
        </extensions>
      </trkpt>
      <trkpt lat="42.5327192433178424835205078125" lon="20.01559928990900516510009765625">
        <ele>2000.4000244140625</ele>
        <time>2026-06-19T10:15:43.000Z</time>
        <extensions>
          <ns3:TrackPointExtension>
            <ns3:atemp>19.0</ns3:atemp>
          </ns3:TrackPointExtension>
        </extensions>
      </trkpt>
      <trkpt lat="42.5327564589679241180419921875" lon="20.01558856107294559478759765625">
        <ele>2000.199951171875</ele>
        <time>2026-06-19T10:15:44.000Z</time>
        <extensions>
          <ns3:TrackPointExtension>
            <ns3:atemp>19.0</ns3:atemp>
          </ns3:TrackPointExtension>
        </extensions>
      </trkpt>
      <trkpt lat="42.5328008830547332763671875" lon="20.01557238399982452392578125">
        <ele>2000</ele>
        <time>2026-06-19T10:15:45.000Z</time>
        <extensions>
          <ns3:TrackPointExtension>
            <ns3:atemp>19.0</ns3:atemp>
          </ns3:TrackPointExtension>
        </extensions>
      </trkpt>
      <trkpt lat="42.53284052945673465728759765625" lon="20.0155527703464031219482421875">
        <ele>1999.800048828125</ele>
        <time>2026-06-19T10:15:46.000Z</time>
        <extensions>
          <ns3:TrackPointExtension>
            <ns3:atemp>19.0</ns3:atemp>
          </ns3:TrackPointExtension>
        </extensions>
      </trkpt>
      <trkpt lat="42.53288009203970432281494140625" lon="20.01552301459014415740966796875">
        <ele>1999.5999755859375</ele>
        <time>2026-06-19T10:15:47.000Z</time>
        <extensions>
          <ns3:TrackPointExtension>
            <ns3:atemp>19.0</ns3:atemp>
          </ns3:TrackPointExtension>
        </extensions>
      </trkpt>
      <trkpt lat="42.5329194031655788421630859375" lon="20.015486888587474822998046875">
        <ele>1999.4000244140625</ele>
        <time>2026-06-19T10:15:48.000Z</time>
        <extensions>
          <ns3:TrackPointExtension>
            <ns3:atemp>19.0</ns3:atemp>
          </ns3:TrackPointExtension>
        </extensions>
      </trkpt>
      <trkpt lat="42.53295636735856533050537109375" lon="20.0154417939484119415283203125">
        <ele>1999</ele>
        <time>2026-06-19T10:15:49.000Z</time>
        <extensions>
          <ns3:TrackPointExtension>
            <ns3:atemp>19.0</ns3:atemp>
          </ns3:TrackPointExtension>
        </extensions>
      </trkpt>
      <trkpt lat="42.533001042902469635009765625" lon="20.01539661549031734466552734375">
        <ele>1998.800048828125</ele>
        <time>2026-06-19T10:15:50.000Z</time>
        <extensions>
          <ns3:TrackPointExtension>
            <ns3:atemp>19.0</ns3:atemp>
          </ns3:TrackPointExtension>
        </extensions>
      </trkpt>
      <trkpt lat="42.533045299351215362548828125" lon="20.015361495316028594970703125">
        <ele>1998.4000244140625</ele>
        <time>2026-06-19T10:15:51.000Z</time>
        <extensions>
          <ns3:TrackPointExtension>
            <ns3:atemp>19.0</ns3:atemp>
          </ns3:TrackPointExtension>
        </extensions>
      </trkpt>
      <trkpt lat="42.533089555799961090087890625" lon="20.01533475704491138458251953125">
        <ele>1998.199951171875</ele>
        <time>2026-06-19T10:15:52.000Z</time>
        <extensions>
          <ns3:TrackPointExtension>
            <ns3:atemp>19.0</ns3:atemp>
          </ns3:TrackPointExtension>
        </extensions>
      </trkpt>
      <trkpt lat="42.53313406370580196380615234375" lon="20.0153123773634433746337890625">
        <ele>1997.800048828125</ele>
        <time>2026-06-19T10:15:53.000Z</time>
        <extensions>
          <ns3:TrackPointExtension>
            <ns3:atemp>19.0</ns3:atemp>
          </ns3:TrackPointExtension>
        </extensions>
      </trkpt>
      <trkpt lat="42.53316625021398067474365234375" lon="20.0152959488332271575927734375">
        <ele>1997.5999755859375</ele>
        <time>2026-06-19T10:15:54.000Z</time>
        <extensions>
          <ns3:TrackPointExtension>
            <ns3:atemp>19.0</ns3:atemp>
          </ns3:TrackPointExtension>
        </extensions>
      </trkpt>
      <trkpt lat="42.5331933237612247467041015625" lon="20.01527977176010608673095703125">
        <ele>1997.5999755859375</ele>
        <time>2026-06-19T10:15:55.000Z</time>
        <extensions>
          <ns3:TrackPointExtension>
            <ns3:atemp>19.0</ns3:atemp>
          </ns3:TrackPointExtension>
        </extensions>
      </trkpt>
      <trkpt lat="42.53321955911815166473388671875" lon="20.0152607448399066925048828125">
        <ele>1997.800048828125</ele>
        <time>2026-06-19T10:15:56.000Z</time>
        <extensions>
          <ns3:TrackPointExtension>
            <ns3:atemp>19.0</ns3:atemp>
          </ns3:TrackPointExtension>
        </extensions>
      </trkpt>
      <trkpt lat="42.533255517482757568359375" lon="20.015242807567119598388671875">
        <ele>1998</ele>
        <time>2026-06-19T10:15:57.000Z</time>
        <extensions>
          <ns3:TrackPointExtension>
            <ns3:atemp>19.0</ns3:atemp>
          </ns3:TrackPointExtension>
        </extensions>
      </trkpt>
      <trkpt lat="42.5332872010767459869384765625" lon="20.01522730104625225067138671875">
        <ele>1998.199951171875</ele>
        <time>2026-06-19T10:15:58.000Z</time>
        <extensions>
          <ns3:TrackPointExtension>
            <ns3:atemp>19.0</ns3:atemp>
          </ns3:TrackPointExtension>
        </extensions>
      </trkpt>
      <trkpt lat="42.53332299180328845977783203125" lon="20.01521489582955837249755859375">
        <ele>1998.4000244140625</ele>
        <time>2026-06-19T10:15:59.000Z</time>
        <extensions>
          <ns3:TrackPointExtension>
            <ns3:atemp>19.0</ns3:atemp>
          </ns3:TrackPointExtension>
        </extensions>
      </trkpt>
      <trkpt lat="42.53335811197757720947265625" lon="20.0152029097080230712890625">
        <ele>1998.4000244140625</ele>
        <time>2026-06-19T10:16:00.000Z</time>
        <extensions>
          <ns3:TrackPointExtension>
            <ns3:atemp>19.0</ns3:atemp>
          </ns3:TrackPointExtension>
        </extensions>
      </trkpt>
      <trkpt lat="42.533395998179912567138671875" lon="20.01518824137747287750244140625">
        <ele>1998.5999755859375</ele>
        <time>2026-06-19T10:16:01.000Z</time>
        <extensions>
          <ns3:TrackPointExtension>
            <ns3:atemp>19.0</ns3:atemp>
          </ns3:TrackPointExtension>
        </extensions>
      </trkpt>
      <trkpt lat="42.5334343872964382171630859375" lon="20.01517801545560359954833984375">
        <ele>1998.800048828125</ele>
        <time>2026-06-19T10:16:02.000Z</time>
        <extensions>
          <ns3:TrackPointExtension>
            <ns3:atemp>19.0</ns3:atemp>
          </ns3:TrackPointExtension>
        </extensions>
      </trkpt>
      <trkpt lat="42.53346866928040981292724609375" lon="20.01516493968665599822998046875">
        <ele>1999</ele>
        <time>2026-06-19T10:16:03.000Z</time>
        <extensions>
          <ns3:TrackPointExtension>
            <ns3:atemp>19.0</ns3:atemp>
          </ns3:TrackPointExtension>
        </extensions>
      </trkpt>
      <trkpt lat="42.5335024483501911163330078125" lon="20.0151507742702960968017578125">
        <ele>1999.199951171875</ele>
        <time>2026-06-19T10:16:04.000Z</time>
        <extensions>
          <ns3:TrackPointExtension>
            <ns3:atemp>19.0</ns3:atemp>
          </ns3:TrackPointExtension>
        </extensions>
      </trkpt>
      <trkpt lat="42.5335326232016086578369140625" lon="20.01514247618615627288818359375">
        <ele>1999.4000244140625</ele>
        <time>2026-06-19T10:16:05.000Z</time>
        <extensions>
          <ns3:TrackPointExtension>
            <ns3:atemp>19.0</ns3:atemp>
          </ns3:TrackPointExtension>
        </extensions>
      </trkpt>
      <trkpt lat="42.53356338478624820709228515625" lon="20.0151370279490947723388671875">
        <ele>1999.4000244140625</ele>
        <time>2026-06-19T10:16:06.000Z</time>
        <extensions>
          <ns3:TrackPointExtension>
            <ns3:atemp>19.0</ns3:atemp>
          </ns3:TrackPointExtension>
        </extensions>
      </trkpt>
      <trkpt lat="42.53359414637088775634765625" lon="20.01513208262622356414794921875">
        <ele>1999.5999755859375</ele>
        <time>2026-06-19T10:16:07.000Z</time>
        <extensions>
          <ns3:TrackPointExtension>
            <ns3:atemp>19.0</ns3:atemp>
          </ns3:TrackPointExtension>
        </extensions>
      </trkpt>
      <trkpt lat="42.53362775780260562896728515625" lon="20.015128143131732940673828125">
        <ele>1999.5999755859375</ele>
        <time>2026-06-19T10:16:08.000Z</time>
        <extensions>
          <ns3:TrackPointExtension>
            <ns3:atemp>19.0</ns3:atemp>
          </ns3:TrackPointExtension>
        </extensions>
      </trkpt>
      <trkpt lat="42.533662877976894378662109375" lon="20.0151331722736358642578125">
        <ele>1999.5999755859375</ele>
        <time>2026-06-19T10:16:09.000Z</time>
        <extensions>
          <ns3:TrackPointExtension>
            <ns3:atemp>19.0</ns3:atemp>
          </ns3:TrackPointExtension>
        </extensions>
      </trkpt>
      <trkpt lat="42.53369749523699283599853515625" lon="20.01514230854809284210205078125">
        <ele>1999.5999755859375</ele>
        <time>2026-06-19T10:16:10.000Z</time>
        <extensions>
          <ns3:TrackPointExtension>
            <ns3:atemp>19.0</ns3:atemp>
          </ns3:TrackPointExtension>
        </extensions>
      </trkpt>
      <trkpt lat="42.53373320214450359344482421875" lon="20.0151470862329006195068359375">
        <ele>1999.4000244140625</ele>
        <time>2026-06-19T10:16:11.000Z</time>
        <extensions>
          <ns3:TrackPointExtension>
            <ns3:atemp>19.0</ns3:atemp>
          </ns3:TrackPointExtension>
        </extensions>
      </trkpt>
      <trkpt lat="42.53377142362296581268310546875" lon="20.01515018753707408905029296875">
        <ele>1999.4000244140625</ele>
        <time>2026-06-19T10:16:12.000Z</time>
        <extensions>
          <ns3:TrackPointExtension>
            <ns3:atemp>19.0</ns3:atemp>
          </ns3:TrackPointExtension>
        </extensions>
      </trkpt>
      <trkpt lat="42.53381182439625263214111328125" lon="20.015146918594837188720703125">
        <ele>1999.4000244140625</ele>
        <time>2026-06-19T10:16:13.000Z</time>
        <extensions>
          <ns3:TrackPointExtension>
            <ns3:atemp>19.0</ns3:atemp>
          </ns3:TrackPointExtension>
        </extensions>
      </trkpt>
      <trkpt lat="42.53385038115084171295166015625" lon="20.01514331437647342681884765625">
        <ele>1999.4000244140625</ele>
        <time>2026-06-19T10:16:14.000Z</time>
        <extensions>
          <ns3:TrackPointExtension>
            <ns3:atemp>19.0</ns3:atemp>
          </ns3:TrackPointExtension>
        </extensions>
      </trkpt>
      <trkpt lat="42.5338866747915744781494140625" lon="20.01513920724391937255859375">
        <ele>1999.4000244140625</ele>
        <time>2026-06-19T10:16:15.000Z</time>
        <extensions>
          <ns3:TrackPointExtension>
            <ns3:atemp>19.0</ns3:atemp>
          </ns3:TrackPointExtension>
        </extensions>
      </trkpt>
      <trkpt lat="42.53391928039491176605224609375" lon="20.01513727940618991851806640625">
        <ele>1999.5999755859375</ele>
        <time>2026-06-19T10:16:16.000Z</time>
        <extensions>
          <ns3:TrackPointExtension>
            <ns3:atemp>19.0</ns3:atemp>
          </ns3:TrackPointExtension>
        </extensions>
      </trkpt>
      <trkpt lat="42.53395012579858303070068359375" lon="20.01513510011136531829833984375">
        <ele>1999.5999755859375</ele>
        <time>2026-06-19T10:16:17.000Z</time>
        <extensions>
          <ns3:TrackPointExtension>
            <ns3:atemp>19.0</ns3:atemp>
          </ns3:TrackPointExtension>
        </extensions>
      </trkpt>
      <trkpt lat="42.5339805521070957183837890625" lon="20.01512520946562290191650390625">
        <ele>1999.800048828125</ele>
        <time>2026-06-19T10:16:18.000Z</time>
        <extensions>
          <ns3:TrackPointExtension>
            <ns3:atemp>19.0</ns3:atemp>
          </ns3:TrackPointExtension>
        </extensions>
      </trkpt>
      <trkpt lat="42.5340078771114349365234375" lon="20.0151192583143711090087890625">
        <ele>2000</ele>
        <time>2026-06-19T10:16:19.000Z</time>
        <extensions>
          <ns3:TrackPointExtension>
            <ns3:atemp>19.0</ns3:atemp>
          </ns3:TrackPointExtension>
        </extensions>
      </trkpt>
      <trkpt lat="42.5340315140783786773681640625" lon="20.0151115469634532928466796875">
        <ele>2000</ele>
        <time>2026-06-19T10:16:20.000Z</time>
        <extensions>
          <ns3:TrackPointExtension>
            <ns3:atemp>19.0</ns3:atemp>
          </ns3:TrackPointExtension>
        </extensions>
      </trkpt>
      <trkpt lat="42.5340543128550052642822265625" lon="20.01510391943156719207763671875">
        <ele>2000.199951171875</ele>
        <time>2026-06-19T10:16:21.000Z</time>
        <extensions>
          <ns3:TrackPointExtension>
            <ns3:atemp>19.0</ns3:atemp>
          </ns3:TrackPointExtension>
        </extensions>
      </trkpt>
      <trkpt lat="42.53408255986869335174560546875" lon="20.015098638832569122314453125">
        <ele>2000.4000244140625</ele>
        <time>2026-06-19T10:16:22.000Z</time>
        <extensions>
          <ns3:TrackPointExtension>
            <ns3:atemp>19.0</ns3:atemp>
          </ns3:TrackPointExtension>
        </extensions>
      </trkpt>
      <trkpt lat="42.5341129861772060394287109375" lon="20.01509218476712703704833984375">
        <ele>2000.5999755859375</ele>
        <time>2026-06-19T10:16:23.000Z</time>
        <extensions>
          <ns3:TrackPointExtension>
            <ns3:atemp>19.0</ns3:atemp>
          </ns3:TrackPointExtension>
        </extensions>
      </trkpt>
      <trkpt lat="42.53413905389606952667236328125" lon="20.015086568892002105712890625">
        <ele>2000.5999755859375</ele>
        <time>2026-06-19T10:16:24.000Z</time>
        <extensions>
          <ns3:TrackPointExtension>
            <ns3:atemp>19.0</ns3:atemp>
          </ns3:TrackPointExtension>
        </extensions>
      </trkpt>
      <trkpt lat="42.53416436724364757537841796875" lon="20.015083216130733489990234375">
        <ele>2000.800048828125</ele>
        <time>2026-06-19T10:16:25.000Z</time>
        <extensions>
          <ns3:TrackPointExtension>
            <ns3:atemp>19.0</ns3:atemp>
          </ns3:TrackPointExtension>
        </extensions>
      </trkpt>
      <trkpt lat="42.53419185988605022430419921875" lon="20.0150843895971775054931640625">
        <ele>2000.800048828125</ele>
        <time>2026-06-19T10:16:26.000Z</time>
        <extensions>
          <ns3:TrackPointExtension>
            <ns3:atemp>19.0</ns3:atemp>
          </ns3:TrackPointExtension>
        </extensions>
      </trkpt>
      <trkpt lat="42.5342149101197719573974609375" lon="20.0150894187390804290771484375">
        <ele>2001</ele>
        <time>2026-06-19T10:16:27.000Z</time>
        <extensions>
          <ns3:TrackPointExtension>
            <ns3:atemp>19.0</ns3:atemp>
          </ns3:TrackPointExtension>
        </extensions>
      </trkpt>
      <trkpt lat="42.5342390500009059906005859375" lon="20.0150967948138713836669921875">
        <ele>2001</ele>
        <time>2026-06-19T10:16:28.000Z</time>
        <extensions>
          <ns3:TrackPointExtension>
            <ns3:atemp>19.0</ns3:atemp>
          </ns3:TrackPointExtension>
        </extensions>
      </trkpt>
      <trkpt lat="42.534264363348484039306640625" lon="20.0151058472692966461181640625">
        <ele>2001</ele>
        <time>2026-06-19T10:16:29.000Z</time>
        <extensions>
          <ns3:TrackPointExtension>
            <ns3:atemp>19.0</ns3:atemp>
          </ns3:TrackPointExtension>
        </extensions>
      </trkpt>
      <trkpt lat="42.5342930294573307037353515625" lon="20.0151172466576099395751953125">
        <ele>2001</ele>
        <time>2026-06-19T10:16:30.000Z</time>
        <extensions>
          <ns3:TrackPointExtension>
            <ns3:atemp>19.0</ns3:atemp>
          </ns3:TrackPointExtension>
        </extensions>
      </trkpt>
      <trkpt lat="42.5343272276222705841064453125" lon="20.01512847840785980224609375">
        <ele>2000.800048828125</ele>
        <time>2026-06-19T10:16:31.000Z</time>
        <extensions>
          <ns3:TrackPointExtension>
            <ns3:atemp>19.0</ns3:atemp>
          </ns3:TrackPointExtension>
        </extensions>
      </trkpt>
      <trkpt lat="42.53436050377786159515380859375" lon="20.0151353515684604644775390625">
        <ele>2000.5999755859375</ele>
        <time>2026-06-19T10:16:32.000Z</time>
        <extensions>
          <ns3:TrackPointExtension>
            <ns3:atemp>19.0</ns3:atemp>
          </ns3:TrackPointExtension>
        </extensions>
      </trkpt>
      <trkpt lat="42.5343973003327846527099609375" lon="20.0151370279490947723388671875">
        <ele>2000.5999755859375</ele>
        <time>2026-06-19T10:16:33.000Z</time>
        <extensions>
          <ns3:TrackPointExtension>
            <ns3:atemp>19.0</ns3:atemp>
          </ns3:TrackPointExtension>
        </extensions>
      </trkpt>
      <trkpt lat="42.53443040885031223297119140625" lon="20.015137530863285064697265625">
        <ele>2000.4000244140625</ele>
        <time>2026-06-19T10:16:34.000Z</time>
        <extensions>
          <ns3:TrackPointExtension>
            <ns3:atemp>19.0</ns3:atemp>
          </ns3:TrackPointExtension>
        </extensions>
      </trkpt>
      <trkpt lat="42.53446913324296474456787109375" lon="20.01512923277914524078369140625">
        <ele>2000.199951171875</ele>
        <time>2026-06-19T10:16:35.000Z</time>
        <extensions>
          <ns3:TrackPointExtension>
            <ns3:atemp>19.0</ns3:atemp>
          </ns3:TrackPointExtension>
        </extensions>
      </trkpt>
      <trkpt lat="42.53450601361691951751708984375" lon="20.01511481590569019317626953125">
        <ele>2000.4000244140625</ele>
        <time>2026-06-19T10:16:36.000Z</time>
        <extensions>
          <ns3:TrackPointExtension>
            <ns3:atemp>19.0</ns3:atemp>
          </ns3:TrackPointExtension>
        </extensions>
      </trkpt>
      <trkpt lat="42.53454021178185939788818359375" lon="20.015101991593837738037109375">
        <ele>2000.4000244140625</ele>
        <time>2026-06-19T10:16:37.000Z</time>
        <extensions>
          <ns3:TrackPointExtension>
            <ns3:atemp>19.0</ns3:atemp>
          </ns3:TrackPointExtension>
        </extensions>
      </trkpt>
      <trkpt lat="42.53457474522292613983154296875" lon="20.01508313231170177459716796875">
        <ele>2000.199951171875</ele>
        <time>2026-06-19T10:16:38.000Z</time>
        <extensions>
          <ns3:TrackPointExtension>
            <ns3:atemp>19.0</ns3:atemp>
          </ns3:TrackPointExtension>
        </extensions>
      </trkpt>
      <trkpt lat="42.53461464308202266693115234375" lon="20.0150575675070285797119140625">
        <ele>2000</ele>
        <time>2026-06-19T10:16:39.000Z</time>
        <extensions>
          <ns3:TrackPointExtension>
            <ns3:atemp>19.0</ns3:atemp>
          </ns3:TrackPointExtension>
        </extensions>
      </trkpt>
      <trkpt lat="42.53466141410171985626220703125" lon="20.0150273926556110382080078125">
        <ele>1999.800048828125</ele>
        <time>2026-06-19T10:16:40.000Z</time>
        <extensions>
          <ns3:TrackPointExtension>
            <ns3:atemp>19.0</ns3:atemp>
          </ns3:TrackPointExtension>
        </extensions>
      </trkpt>
      <trkpt lat="42.5347121246159076690673828125" lon="20.0149828009307384490966796875">
        <ele>1999.4000244140625</ele>
        <time>2026-06-19T10:16:41.000Z</time>
        <extensions>
          <ns3:TrackPointExtension>
            <ns3:atemp>19.0</ns3:atemp>
          </ns3:TrackPointExtension>
        </extensions>
      </trkpt>
      <trkpt lat="42.5347677804529666900634765625" lon="20.0149425677955150604248046875">
        <ele>1999</ele>
        <time>2026-06-19T10:16:42.000Z</time>
        <extensions>
          <ns3:TrackPointExtension>
            <ns3:atemp>19.0</ns3:atemp>
          </ns3:TrackPointExtension>
        </extensions>
      </trkpt>
      <trkpt lat="42.53481882624328136444091796875" lon="20.01490225084125995635986328125">
        <ele>1998.4000244140625</ele>
        <time>2026-06-19T10:16:43.000Z</time>
        <extensions>
          <ns3:TrackPointExtension>
            <ns3:atemp>19.0</ns3:atemp>
          </ns3:TrackPointExtension>
        </extensions>
      </trkpt>
      <trkpt lat="42.5348770804703235626220703125" lon="20.01486721448600292205810546875">
        <ele>1997.800048828125</ele>
        <time>2026-06-19T10:16:44.000Z</time>
        <extensions>
          <ns3:TrackPointExtension>
            <ns3:atemp>19.0</ns3:atemp>
          </ns3:TrackPointExtension>
        </extensions>
      </trkpt>
      <trkpt lat="42.53493726253509521484375" lon="20.01482538878917694091796875">
        <ele>1997.4000244140625</ele>
        <time>2026-06-19T10:16:45.000Z</time>
        <extensions>
          <ns3:TrackPointExtension>
            <ns3:atemp>19.0</ns3:atemp>
          </ns3:TrackPointExtension>
        </extensions>
      </trkpt>
      <trkpt lat="42.53500498831272125244140625" lon="20.01479898579418659210205078125">
        <ele>1996.800048828125</ele>
        <time>2026-06-19T10:16:46.000Z</time>
        <extensions>
          <ns3:TrackPointExtension>
            <ns3:atemp>19.0</ns3:atemp>
          </ns3:TrackPointExtension>
        </extensions>
      </trkpt>
      <trkpt lat="42.53507698886096477508544921875" lon="20.0147779472172260284423828125">
        <ele>1996.199951171875</ele>
        <time>2026-06-19T10:16:47.000Z</time>
        <extensions>
          <ns3:TrackPointExtension>
            <ns3:atemp>19.0</ns3:atemp>
          </ns3:TrackPointExtension>
        </extensions>
      </trkpt>
      <trkpt lat="42.53515192307531833648681640625" lon="20.0147534720599651336669921875">
        <ele>1995.4000244140625</ele>
        <time>2026-06-19T10:16:48.000Z</time>
        <extensions>
          <ns3:TrackPointExtension>
            <ns3:atemp>19.0</ns3:atemp>
          </ns3:TrackPointExtension>
        </extensions>
      </trkpt>
      <trkpt lat="42.53522752784192562103271484375" lon="20.01472991891205310821533203125">
        <ele>1994.800048828125</ele>
        <time>2026-06-19T10:16:49.000Z</time>
        <extensions>
          <ns3:TrackPointExtension>
            <ns3:atemp>19.0</ns3:atemp>
          </ns3:TrackPointExtension>
        </extensions>
      </trkpt>
      <trkpt lat="42.53528871573507785797119140625" lon="20.0146924518048763275146484375">
        <ele>1994.199951171875</ele>
        <time>2026-06-19T10:16:50.000Z</time>
        <extensions>
          <ns3:TrackPointExtension>
            <ns3:atemp>19.0</ns3:atemp>
          </ns3:TrackPointExtension>
        </extensions>
      </trkpt>
      <trkpt lat="42.5353481434285640716552734375" lon="20.01465096138417720794677734375">
        <ele>1993.800048828125</ele>
        <time>2026-06-19T10:16:51.000Z</time>
        <extensions>
          <ns3:TrackPointExtension>
            <ns3:atemp>19.0</ns3:atemp>
          </ns3:TrackPointExtension>
        </extensions>
      </trkpt>
      <trkpt lat="42.5354037992656230926513671875" lon="20.01461592502892017364501953125">
        <ele>1993.5999755859375</ele>
        <time>2026-06-19T10:16:52.000Z</time>
        <extensions>
          <ns3:TrackPointExtension>
            <ns3:atemp>19.0</ns3:atemp>
          </ns3:TrackPointExtension>
        </extensions>
      </trkpt>
      <trkpt lat="42.53544914536178112030029296875" lon="20.01458541490137577056884765625">
        <ele>1993.199951171875</ele>
        <time>2026-06-19T10:16:53.000Z</time>
        <extensions>
          <ns3:TrackPointExtension>
            <ns3:atemp>19.0</ns3:atemp>
          </ns3:TrackPointExtension>
        </extensions>
      </trkpt>
      <trkpt lat="42.53549792803823947906494140625" lon="20.01456295140087604522705078125">
        <ele>1993</ele>
        <time>2026-06-19T10:16:54.000Z</time>
        <extensions>
          <ns3:TrackPointExtension>
            <ns3:atemp>19.0</ns3:atemp>
          </ns3:TrackPointExtension>
        </extensions>
      </trkpt>
      <trkpt lat="42.53554604016244411468505859375" lon="20.01455138437449932098388671875">
        <ele>1992.800048828125</ele>
        <time>2026-06-19T10:16:55.000Z</time>
        <extensions>
          <ns3:TrackPointExtension>
            <ns3:atemp>19.0</ns3:atemp>
          </ns3:TrackPointExtension>
        </extensions>
      </trkpt>
      <trkpt lat="42.535583674907684326171875" lon="20.01454618759453296661376953125">
        <ele>1992.800048828125</ele>
        <time>2026-06-19T10:16:56.000Z</time>
        <extensions>
          <ns3:TrackPointExtension>
            <ns3:atemp>19.0</ns3:atemp>
          </ns3:TrackPointExtension>
        </extensions>
      </trkpt>
      <trkpt lat="42.5356234051287174224853515625" lon="20.0145419128239154815673828125">
        <ele>1992.5999755859375</ele>
        <time>2026-06-19T10:16:57.000Z</time>
        <extensions>
          <ns3:TrackPointExtension>
            <ns3:atemp>19.0</ns3:atemp>
          </ns3:TrackPointExtension>
        </extensions>
      </trkpt>
      <trkpt lat="42.53566690720617771148681640625" lon="20.01453830860555171966552734375">
        <ele>1992.4000244140625</ele>
        <time>2026-06-19T10:16:58.000Z</time>
        <extensions>
          <ns3:TrackPointExtension>
            <ns3:atemp>19.0</ns3:atemp>
          </ns3:TrackPointExtension>
        </extensions>
      </trkpt>
      <trkpt lat="42.53571032546460628509521484375" lon="20.0145362131297588348388671875">
        <ele>1992.199951171875</ele>
        <time>2026-06-19T10:16:59.000Z</time>
        <extensions>
          <ns3:TrackPointExtension>
            <ns3:atemp>19.0</ns3:atemp>
          </ns3:TrackPointExtension>
        </extensions>
      </trkpt>
      <trkpt lat="42.53575290553271770477294921875" lon="20.01453612931072711944580078125">
        <ele>1992</ele>
        <time>2026-06-19T10:17:00.000Z</time>
        <extensions>
          <ns3:TrackPointExtension>
            <ns3:atemp>19.0</ns3:atemp>
          </ns3:TrackPointExtension>
        </extensions>
      </trkpt>
      <trkpt lat="42.535793222486972808837890625" lon="20.01453294418752193450927734375">
        <ele>1991.800048828125</ele>
        <time>2026-06-19T10:17:01.000Z</time>
        <extensions>
          <ns3:TrackPointExtension>
            <ns3:atemp>19.0</ns3:atemp>
          </ns3:TrackPointExtension>
        </extensions>
      </trkpt>
      <trkpt lat="42.53583270125091075897216796875" lon="20.01452757976949214935302734375">
        <ele>1991.800048828125</ele>
        <time>2026-06-19T10:17:02.000Z</time>
        <extensions>
          <ns3:TrackPointExtension>
            <ns3:atemp>19.0</ns3:atemp>
          </ns3:TrackPointExtension>
        </extensions>
      </trkpt>
      <trkpt lat="42.5358698330819606781005859375" lon="20.01453227363526821136474609375">
        <ele>1991.800048828125</ele>
        <time>2026-06-19T10:17:03.000Z</time>
        <extensions>
          <ns3:TrackPointExtension>
            <ns3:atemp>19.0</ns3:atemp>
          </ns3:TrackPointExtension>
        </extensions>
      </trkpt>
      <trkpt lat="42.535904534161090850830078125" lon="20.01452766358852386474609375">
        <ele>1991.5999755859375</ele>
        <time>2026-06-19T10:17:04.000Z</time>
        <extensions>
          <ns3:TrackPointExtension>
            <ns3:atemp>19.0</ns3:atemp>
          </ns3:TrackPointExtension>
        </extensions>
      </trkpt>
      <trkpt lat="42.53593764267861843109130859375" lon="20.01452791504561901092529296875">
        <ele>1991.5999755859375</ele>
        <time>2026-06-19T10:17:05.000Z</time>
        <extensions>
          <ns3:TrackPointExtension>
            <ns3:atemp>19.0</ns3:atemp>
          </ns3:TrackPointExtension>
        </extensions>
      </trkpt>
      <trkpt lat="42.53596899099647998809814453125" lon="20.01453445293009281158447265625">
        <ele>1991.5999755859375</ele>
        <time>2026-06-19T10:17:06.000Z</time>
        <extensions>
          <ns3:TrackPointExtension>
            <ns3:atemp>19.0</ns3:atemp>
          </ns3:TrackPointExtension>
        </extensions>
      </trkpt>
      <trkpt lat="42.536001093685626983642578125" lon="20.014539398252964019775390625">
        <ele>1991.5999755859375</ele>
        <time>2026-06-19T10:17:07.000Z</time>
        <extensions>
          <ns3:TrackPointExtension>
            <ns3:atemp>19.0</ns3:atemp>
          </ns3:TrackPointExtension>
        </extensions>
      </trkpt>
      <trkpt lat="42.5360264070332050323486328125" lon="20.01454182900488376617431640625">
        <ele>1991.4000244140625</ele>
        <time>2026-06-19T10:17:08.000Z</time>
        <extensions>
          <ns3:TrackPointExtension>
            <ns3:atemp>19.0</ns3:atemp>
          </ns3:TrackPointExtension>
        </extensions>
      </trkpt>
      <trkpt lat="42.5360481999814510345458984375" lon="20.01454375684261322021484375">
        <ele>1991.5999755859375</ele>
        <time>2026-06-19T10:17:09.000Z</time>
        <extensions>
          <ns3:TrackPointExtension>
            <ns3:atemp>19.0</ns3:atemp>
          </ns3:TrackPointExtension>
        </extensions>
      </trkpt>
      <trkpt lat="42.53607141785323619842529296875" lon="20.01453797332942485809326171875">
        <ele>1991.5999755859375</ele>
        <time>2026-06-19T10:17:10.000Z</time>
        <extensions>
          <ns3:TrackPointExtension>
            <ns3:atemp>19.0</ns3:atemp>
          </ns3:TrackPointExtension>
        </extensions>
      </trkpt>
      <trkpt lat="42.5360981561243534088134765625" lon="20.01453713513910770416259765625">
        <ele>1991.5999755859375</ele>
        <time>2026-06-19T10:17:11.000Z</time>
        <extensions>
          <ns3:TrackPointExtension>
            <ns3:atemp>19.0</ns3:atemp>
          </ns3:TrackPointExtension>
        </extensions>
      </trkpt>
      <trkpt lat="42.53611651249229907989501953125" lon="20.0145399011671543121337890625">
        <ele>1991.5999755859375</ele>
        <time>2026-06-19T10:17:12.000Z</time>
        <extensions>
          <ns3:TrackPointExtension>
            <ns3:atemp>19.0</ns3:atemp>
          </ns3:TrackPointExtension>
        </extensions>
      </trkpt>
      <trkpt lat="42.53613277338445186614990234375" lon="20.014546774327754974365234375">
        <ele>1991.5999755859375</ele>
        <time>2026-06-19T10:17:13.000Z</time>
        <extensions>
          <ns3:TrackPointExtension>
            <ns3:atemp>19.0</ns3:atemp>
          </ns3:TrackPointExtension>
        </extensions>
      </trkpt>
      <trkpt lat="42.536147274076938629150390625" lon="20.01455373130738735198974609375">
        <ele>1991.5999755859375</ele>
        <time>2026-06-19T10:17:14.000Z</time>
        <extensions>
          <ns3:TrackPointExtension>
            <ns3:atemp>19.0</ns3:atemp>
          </ns3:TrackPointExtension>
        </extensions>
      </trkpt>
      <trkpt lat="42.53616504371166229248046875" lon="20.01455448567867279052734375">
        <ele>1991.5999755859375</ele>
        <time>2026-06-19T10:17:15.000Z</time>
        <extensions>
          <ns3:TrackPointExtension>
            <ns3:atemp>19.0</ns3:atemp>
          </ns3:TrackPointExtension>
        </extensions>
      </trkpt>
      <trkpt lat="42.53618650138378143310546875" lon="20.01455959863960742950439453125">
        <ele>1991.4000244140625</ele>
        <time>2026-06-19T10:17:16.000Z</time>
        <extensions>
          <ns3:TrackPointExtension>
            <ns3:atemp>19.0</ns3:atemp>
          </ns3:TrackPointExtension>
        </extensions>
      </trkpt>
      <trkpt lat="42.53620586358010768890380859375" lon="20.014564208686351776123046875">
        <ele>1991.199951171875</ele>
        <time>2026-06-19T10:17:17.000Z</time>
        <extensions>
          <ns3:TrackPointExtension>
            <ns3:atemp>19.0</ns3:atemp>
          </ns3:TrackPointExtension>
        </extensions>
      </trkpt>
      <trkpt lat="42.5362336076796054840087890625" lon="20.0145727582275867462158203125">
        <ele>1991.199951171875</ele>
        <time>2026-06-19T10:17:18.000Z</time>
        <extensions>
          <ns3:TrackPointExtension>
            <ns3:atemp>19.0</ns3:atemp>
          </ns3:TrackPointExtension>
        </extensions>
      </trkpt>
      <trkpt lat="42.5362681411206722259521484375" lon="20.0145834870636463165283203125">
        <ele>1991.199951171875</ele>
        <time>2026-06-19T10:17:19.000Z</time>
        <extensions>
          <ns3:TrackPointExtension>
            <ns3:atemp>19.0</ns3:atemp>
          </ns3:TrackPointExtension>
        </extensions>
      </trkpt>
      <trkpt lat="42.53630527295172214508056640625" lon="20.0145865045487880706787109375">
        <ele>1991.199951171875</ele>
        <time>2026-06-19T10:17:20.000Z</time>
        <extensions>
          <ns3:TrackPointExtension>
            <ns3:atemp>19.0</ns3:atemp>
          </ns3:TrackPointExtension>
        </extensions>
      </trkpt>
      <trkpt lat="42.53634533844888210296630859375" lon="20.01459245570003986358642578125">
        <ele>1991.199951171875</ele>
        <time>2026-06-19T10:17:21.000Z</time>
        <extensions>
          <ns3:TrackPointExtension>
            <ns3:atemp>19.0</ns3:atemp>
          </ns3:TrackPointExtension>
        </extensions>
      </trkpt>
      <trkpt lat="42.53639303147792816162109375" lon="20.0145935453474521636962890625">
        <ele>1991.4000244140625</ele>
        <time>2026-06-19T10:17:22.000Z</time>
        <extensions>
          <ns3:TrackPointExtension>
            <ns3:atemp>19.0</ns3:atemp>
          </ns3:TrackPointExtension>
        </extensions>
      </trkpt>
      <trkpt lat="42.5364344380795955657958984375" lon="20.01460142433643341064453125">
        <ele>1991.4000244140625</ele>
        <time>2026-06-19T10:17:23.000Z</time>
        <extensions>
          <ns3:TrackPointExtension>
            <ns3:atemp>19.0</ns3:atemp>
          </ns3:TrackPointExtension>
        </extensions>
      </trkpt>
      <trkpt lat="42.536477185785770416259765625" lon="20.01460603438317775726318359375">
        <ele>1991.4000244140625</ele>
        <time>2026-06-19T10:17:24.000Z</time>
        <extensions>
          <ns3:TrackPointExtension>
            <ns3:atemp>19.0</ns3:atemp>
          </ns3:TrackPointExtension>
        </extensions>
      </trkpt>
      <trkpt lat="42.5365222804248332977294921875" lon="20.0146114826202392578125">
        <ele>1991.5999755859375</ele>
        <time>2026-06-19T10:17:25.000Z</time>
        <extensions>
          <ns3:TrackPointExtension>
            <ns3:atemp>19.0</ns3:atemp>
          </ns3:TrackPointExtension>
        </extensions>
      </trkpt>
      <trkpt lat="42.5365658663213253021240234375" lon="20.014621205627918243408203125">
        <ele>1991.4000244140625</ele>
        <time>2026-06-19T10:17:26.000Z</time>
        <extensions>
          <ns3:TrackPointExtension>
            <ns3:atemp>19.0</ns3:atemp>
          </ns3:TrackPointExtension>
        </extensions>
      </trkpt>
      <trkpt lat="42.53661096096038818359375" lon="20.0146334432065486907958984375">
        <ele>1991.5999755859375</ele>
        <time>2026-06-19T10:17:27.000Z</time>
        <extensions>
          <ns3:TrackPointExtension>
            <ns3:atemp>19.0</ns3:atemp>
          </ns3:TrackPointExtension>
        </extensions>
      </trkpt>
      <trkpt lat="42.5366557203233242034912109375" lon="20.01464995555579662322998046875">
        <ele>1991.4000244140625</ele>
        <time>2026-06-19T10:17:28.000Z</time>
        <extensions>
          <ns3:TrackPointExtension>
            <ns3:atemp>19.0</ns3:atemp>
          </ns3:TrackPointExtension>
        </extensions>
      </trkpt>
      <trkpt lat="42.5366989709436893463134765625" lon="20.0146636180579662322998046875">
        <ele>1991.4000244140625</ele>
        <time>2026-06-19T10:17:29.000Z</time>
        <extensions>
          <ns3:TrackPointExtension>
            <ns3:atemp>19.0</ns3:atemp>
          </ns3:TrackPointExtension>
        </extensions>
      </trkpt>
      <trkpt lat="42.536738701164722442626953125" lon="20.01467761583626270294189453125">
        <ele>1991.199951171875</ele>
        <time>2026-06-19T10:17:30.000Z</time>
        <extensions>
          <ns3:TrackPointExtension>
            <ns3:atemp>19.0</ns3:atemp>
          </ns3:TrackPointExtension>
        </extensions>
      </trkpt>
      <trkpt lat="42.53677600063383579254150390625" lon="20.0146906077861785888671875">
        <ele>1991.199951171875</ele>
        <time>2026-06-19T10:17:31.000Z</time>
        <extensions>
          <ns3:TrackPointExtension>
            <ns3:atemp>19.0</ns3:atemp>
          </ns3:TrackPointExtension>
        </extensions>
      </trkpt>
      <trkpt lat="42.53681103698909282684326171875" lon="20.01469655893743038177490234375">
        <ele>1991</ele>
        <time>2026-06-19T10:17:32.000Z</time>
        <extensions>
          <ns3:TrackPointExtension>
            <ns3:atemp>19.0</ns3:atemp>
          </ns3:TrackPointExtension>
        </extensions>
      </trkpt>
      <trkpt lat="42.536838613450527191162109375" lon="20.01470192335546016693115234375">
        <ele>1991</ele>
        <time>2026-06-19T10:17:33.000Z</time>
        <extensions>
          <ns3:TrackPointExtension>
            <ns3:atemp>19.0</ns3:atemp>
          </ns3:TrackPointExtension>
        </extensions>
      </trkpt>
      <trkpt lat="42.53686920739710330963134765625" lon="20.0146988220512866973876953125">
        <ele>1991</ele>
        <time>2026-06-19T10:17:34.000Z</time>
        <extensions>
          <ns3:TrackPointExtension>
            <ns3:atemp>19.0</ns3:atemp>
          </ns3:TrackPointExtension>
        </extensions>
      </trkpt>
      <trkpt lat="42.53690374083817005157470703125" lon="20.01470745541155338287353515625">
        <ele>1991</ele>
        <time>2026-06-19T10:17:35.000Z</time>
        <extensions>
          <ns3:TrackPointExtension>
            <ns3:atemp>19.0</ns3:atemp>
          </ns3:TrackPointExtension>
        </extensions>
      </trkpt>
      <trkpt lat="42.5369309820234775543212890625" lon="20.0147182680666446685791015625">
        <ele>1991</ele>
        <time>2026-06-19T10:17:36.000Z</time>
        <extensions>
          <ns3:TrackPointExtension>
            <ns3:atemp>19.0</ns3:atemp>
          </ns3:TrackPointExtension>
        </extensions>
      </trkpt>
      <trkpt lat="42.53696124069392681121826171875" lon="20.01472069881856441497802734375">
        <ele>1991</ele>
        <time>2026-06-19T10:17:37.000Z</time>
        <extensions>
          <ns3:TrackPointExtension>
            <ns3:atemp>19.0</ns3:atemp>
          </ns3:TrackPointExtension>
        </extensions>
      </trkpt>
      <trkpt lat="42.5369923375546932220458984375" lon="20.0147219561040401458740234375">
        <ele>1991</ele>
        <time>2026-06-19T10:17:38.000Z</time>
        <extensions>
          <ns3:TrackPointExtension>
            <ns3:atemp>19.0</ns3:atemp>
          </ns3:TrackPointExtension>
        </extensions>
      </trkpt>
      <trkpt lat="42.5370280444622039794921875" lon="20.01472949981689453125">
        <ele>1991</ele>
        <time>2026-06-19T10:17:39.000Z</time>
        <extensions>
          <ns3:TrackPointExtension>
            <ns3:atemp>19.0</ns3:atemp>
          </ns3:TrackPointExtension>
        </extensions>
      </trkpt>
      <trkpt lat="42.537069618701934814453125" lon="20.01473025418817996978759765625">
        <ele>1991</ele>
        <time>2026-06-19T10:17:40.000Z</time>
        <extensions>
          <ns3:TrackPointExtension>
            <ns3:atemp>19.0</ns3:atemp>
          </ns3:TrackPointExtension>
        </extensions>
      </trkpt>
      <trkpt lat="42.53711764700710773468017578125" lon="20.01473075710237026214599609375">
        <ele>1991</ele>
        <time>2026-06-19T10:17:41.000Z</time>
        <extensions>
          <ns3:TrackPointExtension>
            <ns3:atemp>19.0</ns3:atemp>
          </ns3:TrackPointExtension>
        </extensions>
      </trkpt>
      <trkpt lat="42.537160478532314300537109375" lon="20.0147306732833385467529296875">
        <ele>1991.199951171875</ele>
        <time>2026-06-19T10:17:42.000Z</time>
        <extensions>
          <ns3:TrackPointExtension>
            <ns3:atemp>19.0</ns3:atemp>
          </ns3:TrackPointExtension>
        </extensions>
      </trkpt>
      <trkpt lat="42.53720079548656940460205078125" lon="20.014727823436260223388671875">
        <ele>1991.199951171875</ele>
        <time>2026-06-19T10:17:43.000Z</time>
        <extensions>
          <ns3:TrackPointExtension>
            <ns3:atemp>19.0</ns3:atemp>
          </ns3:TrackPointExtension>
        </extensions>
      </trkpt>
      <trkpt lat="42.53724253736436367034912109375" lon="20.0147313438355922698974609375">
        <ele>1991.4000244140625</ele>
        <time>2026-06-19T10:17:44.000Z</time>
        <extensions>
          <ns3:TrackPointExtension>
            <ns3:atemp>19.0</ns3:atemp>
          </ns3:TrackPointExtension>
        </extensions>
      </trkpt>
      <trkpt lat="42.53728830255568027496337890625" lon="20.01473880372941493988037109375">
        <ele>1991.5999755859375</ele>
        <time>2026-06-19T10:17:45.000Z</time>
        <extensions>
          <ns3:TrackPointExtension>
            <ns3:atemp>19.0</ns3:atemp>
          </ns3:TrackPointExtension>
        </extensions>
      </trkpt>
      <trkpt lat="42.5373323075473308563232421875" lon="20.01474718563258647918701171875">
        <ele>1991.5999755859375</ele>
        <time>2026-06-19T10:17:46.000Z</time>
        <extensions>
          <ns3:TrackPointExtension>
            <ns3:atemp>19.0</ns3:atemp>
          </ns3:TrackPointExtension>
        </extensions>
      </trkpt>
      <trkpt lat="42.53737430088222026824951171875" lon="20.01476847566664218902587890625">
        <ele>1991.5999755859375</ele>
        <time>2026-06-19T10:17:47.000Z</time>
        <extensions>
          <ns3:TrackPointExtension>
            <ns3:atemp>19.0</ns3:atemp>
          </ns3:TrackPointExtension>
        </extensions>
      </trkpt>
      <trkpt lat="42.53742107190191745758056640625" lon="20.01478222198784351348876953125">
        <ele>1991.5999755859375</ele>
        <time>2026-06-19T10:17:48.000Z</time>
        <extensions>
          <ns3:TrackPointExtension>
            <ns3:atemp>19.0</ns3:atemp>
          </ns3:TrackPointExtension>
        </extensions>
      </trkpt>
      <trkpt lat="42.53746323287487030029296875" lon="20.01479496248066425323486328125">
        <ele>1991.4000244140625</ele>
        <time>2026-06-19T10:17:49.000Z</time>
        <extensions>
          <ns3:TrackPointExtension>
            <ns3:atemp>19.0</ns3:atemp>
          </ns3:TrackPointExtension>
        </extensions>
      </trkpt>
      <trkpt lat="42.53750422038137912750244140625" lon="20.01480921171605587005615234375">
        <ele>1991.4000244140625</ele>
        <time>2026-06-19T10:17:50.000Z</time>
        <extensions>
          <ns3:TrackPointExtension>
            <ns3:atemp>19.0</ns3:atemp>
          </ns3:TrackPointExtension>
        </extensions>
      </trkpt>
      <trkpt lat="42.53754110075533390045166015625" lon="20.014825724065303802490234375">
        <ele>1991.4000244140625</ele>
        <time>2026-06-19T10:17:51.000Z</time>
        <extensions>
          <ns3:TrackPointExtension>
            <ns3:atemp>19.0</ns3:atemp>
          </ns3:TrackPointExtension>
        </extensions>
      </trkpt>
      <trkpt lat="42.537572868168354034423828125" lon="20.01484240405261516571044921875">
        <ele>1991.4000244140625</ele>
        <time>2026-06-19T10:17:52.000Z</time>
        <extensions>
          <ns3:TrackPointExtension>
            <ns3:atemp>19.0</ns3:atemp>
          </ns3:TrackPointExtension>
        </extensions>
      </trkpt>
      <trkpt lat="42.5376089103519916534423828125" lon="20.01485832966864109039306640625">
        <ele>1991.4000244140625</ele>
        <time>2026-06-19T10:17:53.000Z</time>
        <extensions>
          <ns3:TrackPointExtension>
            <ns3:atemp>19.0</ns3:atemp>
          </ns3:TrackPointExtension>
        </extensions>
      </trkpt>
      <trkpt lat="42.53764159977436065673828125" lon="20.01487425528466701507568359375">
        <ele>1991.5999755859375</ele>
        <time>2026-06-19T10:17:54.000Z</time>
        <extensions>
          <ns3:TrackPointExtension>
            <ns3:atemp>19.0</ns3:atemp>
          </ns3:TrackPointExtension>
        </extensions>
      </trkpt>
      <trkpt lat="42.537670768797397613525390625" lon="20.014890097081661224365234375">
        <ele>1991.800048828125</ele>
        <time>2026-06-19T10:17:55.000Z</time>
        <extensions>
          <ns3:TrackPointExtension>
            <ns3:atemp>19.0</ns3:atemp>
          </ns3:TrackPointExtension>
        </extensions>
      </trkpt>
      <trkpt lat="42.53769532777369022369384765625" lon="20.0149105489253997802734375">
        <ele>1992</ele>
        <time>2026-06-19T10:17:56.000Z</time>
        <extensions>
          <ns3:TrackPointExtension>
            <ns3:atemp>19.0</ns3:atemp>
          </ns3:TrackPointExtension>
        </extensions>
      </trkpt>
      <trkpt lat="42.53771795891225337982177734375" lon="20.0149293243885040283203125">
        <ele>1992.5999755859375</ele>
        <time>2026-06-19T10:17:57.000Z</time>
        <extensions>
          <ns3:TrackPointExtension>
            <ns3:atemp>19.0</ns3:atemp>
          </ns3:TrackPointExtension>
        </extensions>
      </trkpt>
      <trkpt lat="42.53774176351726055145263671875" lon="20.01495505683124065399169921875">
        <ele>1993</ele>
        <time>2026-06-19T10:17:58.000Z</time>
        <extensions>
          <ns3:TrackPointExtension>
            <ns3:atemp>19.0</ns3:atemp>
          </ns3:TrackPointExtension>
        </extensions>
      </trkpt>
      <trkpt lat="42.53776104189455509185791015625" lon="20.01498405821621417999267578125">
        <ele>1993.4000244140625</ele>
        <time>2026-06-19T10:17:59.000Z</time>
        <extensions>
          <ns3:TrackPointExtension>
            <ns3:atemp>19.0</ns3:atemp>
          </ns3:TrackPointExtension>
        </extensions>
      </trkpt>
      <trkpt lat="42.53778719343245029449462890625" lon="20.01500585116446018218994140625">
        <ele>1993.5999755859375</ele>
        <time>2026-06-19T10:18:00.000Z</time>
        <extensions>
          <ns3:TrackPointExtension>
            <ns3:atemp>19.0</ns3:atemp>
          </ns3:TrackPointExtension>
        </extensions>
      </trkpt>
      <trkpt lat="42.5378244929015636444091796875" lon="20.01501708291471004486083984375">
        <ele>1993.800048828125</ele>
        <time>2026-06-19T10:18:01.000Z</time>
        <extensions>
          <ns3:TrackPointExtension>
            <ns3:atemp>19.0</ns3:atemp>
          </ns3:TrackPointExtension>
        </extensions>
      </trkpt>
      <trkpt lat="42.5378640554845333099365234375" lon="20.01502655446529388427734375">
        <ele>1994</ele>
        <time>2026-06-19T10:18:02.000Z</time>
        <extensions>
          <ns3:TrackPointExtension>
            <ns3:atemp>19.0</ns3:atemp>
          </ns3:TrackPointExtension>
        </extensions>
      </trkpt>
      <trkpt lat="42.53790101967751979827880859375" lon="20.01503585837781429290771484375">
        <ele>1994</ele>
        <time>2026-06-19T10:18:03.000Z</time>
        <extensions>
          <ns3:TrackPointExtension>
            <ns3:atemp>19.0</ns3:atemp>
          </ns3:TrackPointExtension>
        </extensions>
      </trkpt>
      <trkpt lat="42.53793387673795223236083984375" lon="20.01505278982222080230712890625">
        <ele>1994.199951171875</ele>
        <time>2026-06-19T10:18:04.000Z</time>
        <extensions>
          <ns3:TrackPointExtension>
            <ns3:atemp>19.0</ns3:atemp>
          </ns3:TrackPointExtension>
        </extensions>
      </trkpt>
      <trkpt lat="42.5379626266658306121826171875" lon="20.0150726549327373504638671875">
        <ele>1994.4000244140625</ele>
        <time>2026-06-19T10:18:05.000Z</time>
        <extensions>
          <ns3:TrackPointExtension>
            <ns3:atemp>19.0</ns3:atemp>
          </ns3:TrackPointExtension>
        </extensions>
      </trkpt>
      <trkpt lat="42.5379874370992183685302734375" lon="20.01510006375610828399658203125">
        <ele>1994.5999755859375</ele>
        <time>2026-06-19T10:18:06.000Z</time>
        <extensions>
          <ns3:TrackPointExtension>
            <ns3:atemp>19.0</ns3:atemp>
          </ns3:TrackPointExtension>
        </extensions>
      </trkpt>
      <trkpt lat="42.538008391857147216796875" lon="20.0151385366916656494140625">
        <ele>1994.4000244140625</ele>
        <time>2026-06-19T10:18:07.000Z</time>
        <extensions>
          <ns3:TrackPointExtension>
            <ns3:atemp>19.0</ns3:atemp>
          </ns3:TrackPointExtension>
        </extensions>
      </trkpt>
      <trkpt lat="42.5380338728427886962890625" lon="20.0151863135397434234619140625">
        <ele>1994.4000244140625</ele>
        <time>2026-06-19T10:18:08.000Z</time>
        <extensions>
          <ns3:TrackPointExtension>
            <ns3:atemp>19.0</ns3:atemp>
          </ns3:TrackPointExtension>
        </extensions>
      </trkpt>
      <trkpt lat="42.53805935382843017578125" lon="20.01524758525192737579345703125">
        <ele>1994</ele>
        <time>2026-06-19T10:18:09.000Z</time>
        <extensions>
          <ns3:TrackPointExtension>
            <ns3:atemp>19.0</ns3:atemp>
          </ns3:TrackPointExtension>
        </extensions>
      </trkpt>
      <trkpt lat="42.53808575682342052459716796875" lon="20.01531916670501232147216796875">
        <ele>1993.5999755859375</ele>
        <time>2026-06-19T10:18:10.000Z</time>
        <extensions>
          <ns3:TrackPointExtension>
            <ns3:atemp>19.0</ns3:atemp>
          </ns3:TrackPointExtension>
        </extensions>
      </trkpt>
      <trkpt lat="42.53811425529420375823974609375" lon="20.01538328826427459716796875">
        <ele>1993.199951171875</ele>
        <time>2026-06-19T10:18:11.000Z</time>
        <extensions>
          <ns3:TrackPointExtension>
            <ns3:atemp>19.0</ns3:atemp>
          </ns3:TrackPointExtension>
        </extensions>
      </trkpt>
      <trkpt lat="42.53814208321273326873779296875" lon="20.01544556580483913421630859375">
        <ele>1992.800048828125</ele>
        <time>2026-06-19T10:18:12.000Z</time>
        <extensions>
          <ns3:TrackPointExtension>
            <ns3:atemp>19.0</ns3:atemp>
          </ns3:TrackPointExtension>
        </extensions>
      </trkpt>
      <trkpt lat="42.53816622309386730194091796875" lon="20.01548680476844310760498046875">
        <ele>1992.4000244140625</ele>
        <time>2026-06-19T10:18:13.000Z</time>
        <extensions>
          <ns3:TrackPointExtension>
            <ns3:atemp>19.0</ns3:atemp>
          </ns3:TrackPointExtension>
        </extensions>
      </trkpt>
      <trkpt lat="42.5381855852901935577392578125" lon="20.01552276313304901123046875">
        <ele>1992.199951171875</ele>
        <time>2026-06-19T10:18:14.000Z</time>
        <extensions>
          <ns3:TrackPointExtension>
            <ns3:atemp>19.0</ns3:atemp>
          </ns3:TrackPointExtension>
        </extensions>
      </trkpt>
      <trkpt lat="42.538207881152629852294921875" lon="20.0155591405928134918212890625">
        <ele>1992</ele>
        <time>2026-06-19T10:18:15.000Z</time>
        <extensions>
          <ns3:TrackPointExtension>
            <ns3:atemp>19.0</ns3:atemp>
          </ns3:TrackPointExtension>
        </extensions>
      </trkpt>
      <trkpt lat="42.53823512233793735504150390625" lon="20.01558202318847179412841796875">
        <ele>1992</ele>
        <time>2026-06-19T10:18:16.000Z</time>
        <extensions>
          <ns3:TrackPointExtension>
            <ns3:atemp>19.0</ns3:atemp>
          </ns3:TrackPointExtension>
        </extensions>
      </trkpt>
      <trkpt lat="42.5382618606090545654296875" lon="20.01561286859214305877685546875">
        <ele>1991.800048828125</ele>
        <time>2026-06-19T10:18:17.000Z</time>
        <extensions>
          <ns3:TrackPointExtension>
            <ns3:atemp>19.0</ns3:atemp>
          </ns3:TrackPointExtension>
        </extensions>
      </trkpt>
      <trkpt lat="42.5382878445088863372802734375" lon="20.01563885249197483062744140625">
        <ele>1991.800048828125</ele>
        <time>2026-06-19T10:18:18.000Z</time>
        <extensions>
          <ns3:TrackPointExtension>
            <ns3:atemp>19.0</ns3:atemp>
          </ns3:TrackPointExtension>
        </extensions>
      </trkpt>
      <trkpt lat="42.53831609152257442474365234375" lon="20.015671290457248687744140625">
        <ele>1991.5999755859375</ele>
        <time>2026-06-19T10:18:19.000Z</time>
        <extensions>
          <ns3:TrackPointExtension>
            <ns3:atemp>19.0</ns3:atemp>
          </ns3:TrackPointExtension>
        </extensions>
      </trkpt>
      <trkpt lat="42.5383476912975311279296875" lon="20.01571127213537693023681640625">
        <ele>1991.5999755859375</ele>
        <time>2026-06-19T10:18:20.000Z</time>
        <extensions>
          <ns3:TrackPointExtension>
            <ns3:atemp>19.0</ns3:atemp>
          </ns3:TrackPointExtension>
        </extensions>
      </trkpt>
      <trkpt lat="42.53838214091956615447998046875" lon="20.0157581269741058349609375">
        <ele>1991.4000244140625</ele>
        <time>2026-06-19T10:18:21.000Z</time>
        <extensions>
          <ns3:TrackPointExtension>
            <ns3:atemp>19.0</ns3:atemp>
          </ns3:TrackPointExtension>
        </extensions>
      </trkpt>
      <trkpt lat="42.5384149141609668731689453125" lon="20.0158117711544036865234375">
        <ele>1991</ele>
        <time>2026-06-19T10:18:22.000Z</time>
        <extensions>
          <ns3:TrackPointExtension>
            <ns3:atemp>19.0</ns3:atemp>
          </ns3:TrackPointExtension>
        </extensions>
      </trkpt>
      <trkpt lat="42.5384501181542873382568359375" lon="20.01586751081049442291259765625">
        <ele>1990.4000244140625</ele>
        <time>2026-06-19T10:18:23.000Z</time>
        <extensions>
          <ns3:TrackPointExtension>
            <ns3:atemp>19.0</ns3:atemp>
          </ns3:TrackPointExtension>
        </extensions>
      </trkpt>
      <trkpt lat="42.5384796224534511566162109375" lon="20.0159198977053165435791015625">
        <ele>1990</ele>
        <time>2026-06-19T10:18:24.000Z</time>
        <extensions>
          <ns3:TrackPointExtension>
            <ns3:atemp>19.0</ns3:atemp>
          </ns3:TrackPointExtension>
        </extensions>
      </trkpt>
      <trkpt lat="42.5385027565062046051025390625" lon="20.01596909947693347930908203125">
        <ele>1989.800048828125</ele>
        <time>2026-06-19T10:18:25.000Z</time>
        <extensions>
          <ns3:TrackPointExtension>
            <ns3:atemp>19.0</ns3:atemp>
          </ns3:TrackPointExtension>
        </extensions>
      </trkpt>
      <trkpt lat="42.53852496854960918426513671875" lon="20.01602056436240673065185546875">
        <ele>1989.4000244140625</ele>
        <time>2026-06-19T10:18:26.000Z</time>
        <extensions>
          <ns3:TrackPointExtension>
            <ns3:atemp>19.0</ns3:atemp>
          </ns3:TrackPointExtension>
        </extensions>
      </trkpt>
      <trkpt lat="42.53855044953525066375732421875" lon="20.01606364734470844268798828125">
        <ele>1989.4000244140625</ele>
        <time>2026-06-19T10:18:27.000Z</time>
        <extensions>
          <ns3:TrackPointExtension>
            <ns3:atemp>19.0</ns3:atemp>
          </ns3:TrackPointExtension>
        </extensions>
      </trkpt>
      <trkpt lat="42.5385748408734798431396484375" lon="20.016106478869915008544921875">
        <ele>1989.4000244140625</ele>
        <time>2026-06-19T10:18:28.000Z</time>
        <extensions>
          <ns3:TrackPointExtension>
            <ns3:atemp>19.0</ns3:atemp>
          </ns3:TrackPointExtension>
        </extensions>
      </trkpt>
      <trkpt lat="42.53860359080135822296142578125" lon="20.016154088079929351806640625">
        <ele>1989.4000244140625</ele>
        <time>2026-06-19T10:18:29.000Z</time>
        <extensions>
          <ns3:TrackPointExtension>
            <ns3:atemp>19.0</ns3:atemp>
          </ns3:TrackPointExtension>
        </extensions>
      </trkpt>
      <trkpt lat="42.53862605430185794830322265625" lon="20.0162149406969547271728515625">
        <ele>1989.199951171875</ele>
        <time>2026-06-19T10:18:30.000Z</time>
        <extensions>
          <ns3:TrackPointExtension>
            <ns3:atemp>19.0</ns3:atemp>
          </ns3:TrackPointExtension>
        </extensions>
      </trkpt>
      <trkpt lat="42.5386519543826580047607421875" lon="20.01629247330129146575927734375">
        <ele>1989</ele>
        <time>2026-06-19T10:18:31.000Z</time>
        <extensions>
          <ns3:TrackPointExtension>
            <ns3:atemp>19.0</ns3:atemp>
          </ns3:TrackPointExtension>
        </extensions>
      </trkpt>
      <trkpt lat="42.538671903312206268310546875" lon="20.016365312039852142333984375">
        <ele>1988.5999755859375</ele>
        <time>2026-06-19T10:18:32.000Z</time>
        <extensions>
          <ns3:TrackPointExtension>
            <ns3:atemp>19.0</ns3:atemp>
          </ns3:TrackPointExtension>
        </extensions>
      </trkpt>
      <trkpt lat="42.53869126550853252410888671875" lon="20.016427673399448394775390625">
        <ele>1988.199951171875</ele>
        <time>2026-06-19T10:18:33.000Z</time>
        <extensions>
          <ns3:TrackPointExtension>
            <ns3:atemp>19.0</ns3:atemp>
          </ns3:TrackPointExtension>
        </extensions>
      </trkpt>
      <trkpt lat="42.538708113133907318115234375" lon="20.0164845027029514312744140625">
        <ele>1988</ele>
        <time>2026-06-19T10:18:34.000Z</time>
        <extensions>
          <ns3:TrackPointExtension>
            <ns3:atemp>19.0</ns3:atemp>
          </ns3:TrackPointExtension>
        </extensions>
      </trkpt>
      <trkpt lat="42.5387237034738063812255859375" lon="20.0165337882936000823974609375">
        <ele>1987.800048828125</ele>
        <time>2026-06-19T10:18:35.000Z</time>
        <extensions>
          <ns3:TrackPointExtension>
            <ns3:atemp>19.0</ns3:atemp>
          </ns3:TrackPointExtension>
        </extensions>
      </trkpt>
      <trkpt lat="42.53874558024108409881591796875" lon="20.01657712273299694061279296875">
        <ele>1987.5999755859375</ele>
        <time>2026-06-19T10:18:36.000Z</time>
        <extensions>
          <ns3:TrackPointExtension>
            <ns3:atemp>19.0</ns3:atemp>
          </ns3:TrackPointExtension>
        </extensions>
      </trkpt>
      <trkpt lat="42.5387706421315670013427734375" lon="20.01661635003983974456787109375">
        <ele>1987.5999755859375</ele>
        <time>2026-06-19T10:18:37.000Z</time>
        <extensions>
          <ns3:TrackPointExtension>
            <ns3:atemp>19.0</ns3:atemp>
          </ns3:TrackPointExtension>
        </extensions>
      </trkpt>
      <trkpt lat="42.53879553638398647308349609375" lon="20.016648955643177032470703125">
        <ele>1987.800048828125</ele>
        <time>2026-06-19T10:18:38.000Z</time>
        <extensions>
          <ns3:TrackPointExtension>
            <ns3:atemp>19.0</ns3:atemp>
          </ns3:TrackPointExtension>
        </extensions>
      </trkpt>
      <trkpt lat="42.53882168792188167572021484375" lon="20.01668558456003665924072265625">
        <ele>1987.800048828125</ele>
        <time>2026-06-19T10:18:39.000Z</time>
        <extensions>
          <ns3:TrackPointExtension>
            <ns3:atemp>19.0</ns3:atemp>
          </ns3:TrackPointExtension>
        </extensions>
      </trkpt>
      <trkpt lat="42.53885035403072834014892578125" lon="20.0167108140885829925537109375">
        <ele>1987.800048828125</ele>
        <time>2026-06-19T10:18:40.000Z</time>
        <extensions>
          <ns3:TrackPointExtension>
            <ns3:atemp>19.0</ns3:atemp>
          </ns3:TrackPointExtension>
        </extensions>
      </trkpt>
      <trkpt lat="42.53887918777763843536376953125" lon="20.01673487015068531036376953125">
        <ele>1987.800048828125</ele>
        <time>2026-06-19T10:18:41.000Z</time>
        <extensions>
          <ns3:TrackPointExtension>
            <ns3:atemp>19.0</ns3:atemp>
          </ns3:TrackPointExtension>
        </extensions>
      </trkpt>
      <trkpt lat="42.53891254775226116180419921875" lon="20.01675901003181934356689453125">
        <ele>1987.800048828125</ele>
        <time>2026-06-19T10:18:42.000Z</time>
        <extensions>
          <ns3:TrackPointExtension>
            <ns3:atemp>19.0</ns3:atemp>
          </ns3:TrackPointExtension>
        </extensions>
      </trkpt>
      <trkpt lat="42.53894674591720104217529296875" lon="20.01678717322647571563720703125">
        <ele>1987.800048828125</ele>
        <time>2026-06-19T10:18:43.000Z</time>
        <extensions>
          <ns3:TrackPointExtension>
            <ns3:atemp>19.0</ns3:atemp>
          </ns3:TrackPointExtension>
        </extensions>
      </trkpt>
      <trkpt lat="42.53897574730217456817626953125" lon="20.01681181602180004119873046875">
        <ele>1987.5999755859375</ele>
        <time>2026-06-19T10:18:44.000Z</time>
        <extensions>
          <ns3:TrackPointExtension>
            <ns3:atemp>19.0</ns3:atemp>
          </ns3:TrackPointExtension>
        </extensions>
      </trkpt>
      <trkpt lat="42.53899787552654743194580078125" lon="20.016845762729644775390625">
        <ele>1987.5999755859375</ele>
        <time>2026-06-19T10:18:45.000Z</time>
        <extensions>
          <ns3:TrackPointExtension>
            <ns3:atemp>19.0</ns3:atemp>
          </ns3:TrackPointExtension>
        </extensions>
      </trkpt>
      <trkpt lat="42.53902436234056949615478515625" lon="20.0168781168758869171142578125">
        <ele>1987.5999755859375</ele>
        <time>2026-06-19T10:18:46.000Z</time>
        <extensions>
          <ns3:TrackPointExtension>
            <ns3:atemp>19.0</ns3:atemp>
          </ns3:TrackPointExtension>
        </extensions>
      </trkpt>
      <trkpt lat="42.5390516035258769989013671875" lon="20.01691491343080997467041015625">
        <ele>1987.4000244140625</ele>
        <time>2026-06-19T10:18:47.000Z</time>
        <extensions>
          <ns3:TrackPointExtension>
            <ns3:atemp>19.0</ns3:atemp>
          </ns3:TrackPointExtension>
        </extensions>
      </trkpt>
      <trkpt lat="42.53908169455826282501220703125" lon="20.01695028506219387054443359375">
        <ele>1987.199951171875</ele>
        <time>2026-06-19T10:18:48.000Z</time>
        <extensions>
          <ns3:TrackPointExtension>
            <ns3:atemp>19.0</ns3:atemp>
          </ns3:TrackPointExtension>
        </extensions>
      </trkpt>
      <trkpt lat="42.53910767845809459686279296875" lon="20.016984231770038604736328125">
        <ele>1986.800048828125</ele>
        <time>2026-06-19T10:18:49.000Z</time>
        <extensions>
          <ns3:TrackPointExtension>
            <ns3:atemp>19.0</ns3:atemp>
          </ns3:TrackPointExtension>
        </extensions>
      </trkpt>
      <trkpt lat="42.53913248889148235321044921875" lon="20.01701097004115581512451171875">
        <ele>1986.4000244140625</ele>
        <time>2026-06-19T10:18:50.000Z</time>
        <extensions>
          <ns3:TrackPointExtension>
            <ns3:atemp>19.0</ns3:atemp>
          </ns3:TrackPointExtension>
        </extensions>
      </trkpt>
      <trkpt lat="42.53914824686944484710693359375" lon="20.01704692840576171875">
        <ele>1986.199951171875</ele>
        <time>2026-06-19T10:18:51.000Z</time>
        <extensions>
          <ns3:TrackPointExtension>
            <ns3:atemp>19.0</ns3:atemp>
          </ns3:TrackPointExtension>
        </extensions>
      </trkpt>
      <trkpt lat="42.53914874978363513946533203125" lon="20.01708070747554302215576171875">
        <ele>1985.800048828125</ele>
        <time>2026-06-19T10:18:52.000Z</time>
        <extensions>
          <ns3:TrackPointExtension>
            <ns3:atemp>19.0</ns3:atemp>
          </ns3:TrackPointExtension>
        </extensions>
      </trkpt>
      <trkpt lat="42.539136596024036407470703125" lon="20.01711524091660976409912109375">
        <ele>1985.5999755859375</ele>
        <time>2026-06-19T10:18:53.000Z</time>
        <extensions>
          <ns3:TrackPointExtension>
            <ns3:atemp>19.0</ns3:atemp>
          </ns3:TrackPointExtension>
        </extensions>
      </trkpt>
      <trkpt lat="42.5391240231692790985107421875" lon="20.0171319209039211273193359375">
        <ele>1985.5999755859375</ele>
        <time>2026-06-19T10:18:54.000Z</time>
        <extensions>
          <ns3:TrackPointExtension>
            <ns3:atemp>19.0</ns3:atemp>
          </ns3:TrackPointExtension>
        </extensions>
      </trkpt>
      <trkpt lat="42.5391099415719509124755859375" lon="20.01714541576802730560302734375">
        <ele>1985.4000244140625</ele>
        <time>2026-06-19T10:18:55.000Z</time>
        <extensions>
          <ns3:TrackPointExtension>
            <ns3:atemp>19.0</ns3:atemp>
          </ns3:TrackPointExtension>
        </extensions>
      </trkpt>
      <trkpt lat="42.53909778781235218048095703125" lon="20.0171597488224506378173828125">
        <ele>1985.4000244140625</ele>
        <time>2026-06-19T10:18:56.000Z</time>
        <extensions>
          <ns3:TrackPointExtension>
            <ns3:atemp>19.0</ns3:atemp>
          </ns3:TrackPointExtension>
        </extensions>
      </trkpt>
      <trkpt lat="42.5390884838998317718505859375" lon="20.01718212850391864776611328125">
        <ele>1985.4000244140625</ele>
        <time>2026-06-19T10:18:57.000Z</time>
        <extensions>
          <ns3:TrackPointExtension>
            <ns3:atemp>19.0</ns3:atemp>
          </ns3:TrackPointExtension>
        </extensions>
      </trkpt>
      <trkpt lat="42.53907733596861362457275390625" lon="20.01719939522445201873779296875">
        <ele>1985.5999755859375</ele>
        <time>2026-06-19T10:18:58.000Z</time>
        <extensions>
          <ns3:TrackPointExtension>
            <ns3:atemp>19.0</ns3:atemp>
          </ns3:TrackPointExtension>
        </extensions>
      </trkpt>
      <trkpt lat="42.53906928934156894683837890625" lon="20.01722395420074462890625">
        <ele>1985.5999755859375</ele>
        <time>2026-06-19T10:18:59.000Z</time>
        <extensions>
          <ns3:TrackPointExtension>
            <ns3:atemp>19.0</ns3:atemp>
          </ns3:TrackPointExtension>
        </extensions>
      </trkpt>
      <trkpt lat="42.539063505828380584716796875" lon="20.01725739799439907073974609375">
        <ele>1985.5999755859375</ele>
        <time>2026-06-19T10:19:00.000Z</time>
        <extensions>
          <ns3:TrackPointExtension>
            <ns3:atemp>19.0</ns3:atemp>
          </ns3:TrackPointExtension>
        </extensions>
      </trkpt>
      <trkpt lat="42.5390732288360595703125" lon="20.01730819232761859893798828125">
        <ele>1985.4000244140625</ele>
        <time>2026-06-19T10:19:01.000Z</time>
        <extensions>
          <ns3:TrackPointExtension>
            <ns3:atemp>19.0</ns3:atemp>
          </ns3:TrackPointExtension>
        </extensions>
      </trkpt>
      <trkpt lat="42.53909007646143436431884765625" lon="20.0173540413379669189453125">
        <ele>1985.199951171875</ele>
        <time>2026-06-19T10:19:02.000Z</time>
        <extensions>
          <ns3:TrackPointExtension>
            <ns3:atemp>19.0</ns3:atemp>
          </ns3:TrackPointExtension>
        </extensions>
      </trkpt>
      <trkpt lat="42.539117150008678436279296875" lon="20.0173967890441417694091796875">
        <ele>1985</ele>
        <time>2026-06-19T10:19:03.000Z</time>
        <extensions>
          <ns3:TrackPointExtension>
            <ns3:atemp>19.0</ns3:atemp>
          </ns3:TrackPointExtension>
        </extensions>
      </trkpt>
      <trkpt lat="42.53914606757462024688720703125" lon="20.01744230277836322784423828125">
        <ele>1984.5999755859375</ele>
        <time>2026-06-19T10:19:04.000Z</time>
        <extensions>
          <ns3:TrackPointExtension>
            <ns3:atemp>19.0</ns3:atemp>
          </ns3:TrackPointExtension>
        </extensions>
      </trkpt>
      <trkpt lat="42.53917305730283260345458984375" lon="20.017499886453151702880859375">
        <ele>1984.4000244140625</ele>
        <time>2026-06-19T10:19:05.000Z</time>
        <extensions>
          <ns3:TrackPointExtension>
            <ns3:atemp>19.0</ns3:atemp>
          </ns3:TrackPointExtension>
        </extensions>
      </trkpt>
      <trkpt lat="42.53919619135558605194091796875" lon="20.0175632536411285400390625">
        <ele>1984</ele>
        <time>2026-06-19T10:19:06.000Z</time>
        <extensions>
          <ns3:TrackPointExtension>
            <ns3:atemp>19.0</ns3:atemp>
          </ns3:TrackPointExtension>
        </extensions>
      </trkpt>
      <trkpt lat="42.5392075069248676300048828125" lon="20.01763491891324520111083984375">
        <ele>1983.800048828125</ele>
        <time>2026-06-19T10:19:07.000Z</time>
        <extensions>
          <ns3:TrackPointExtension>
            <ns3:atemp>19.0</ns3:atemp>
          </ns3:TrackPointExtension>
        </extensions>
      </trkpt>
      <trkpt lat="42.53920800983905792236328125" lon="20.0176992081105709075927734375">
        <ele>1983.5999755859375</ele>
        <time>2026-06-19T10:19:08.000Z</time>
        <extensions>
          <ns3:TrackPointExtension>
            <ns3:atemp>19.0</ns3:atemp>
          </ns3:TrackPointExtension>
        </extensions>
      </trkpt>
      <trkpt lat="42.53920775838196277618408203125" lon="20.0177590548992156982421875">
        <ele>1983.4000244140625</ele>
        <time>2026-06-19T10:19:09.000Z</time>
        <extensions>
          <ns3:TrackPointExtension>
            <ns3:atemp>19.0</ns3:atemp>
          </ns3:TrackPointExtension>
        </extensions>
      </trkpt>
      <trkpt lat="42.53920708782970905303955078125" lon="20.01780842430889606475830078125">
        <ele>1983.4000244140625</ele>
        <time>2026-06-19T10:19:10.000Z</time>
        <extensions>
          <ns3:TrackPointExtension>
            <ns3:atemp>19.0</ns3:atemp>
          </ns3:TrackPointExtension>
        </extensions>
      </trkpt>
      <trkpt lat="42.53920440562069416046142578125" lon="20.01785184256732463836669921875">
        <ele>1983.4000244140625</ele>
        <time>2026-06-19T10:19:11.000Z</time>
        <extensions>
          <ns3:TrackPointExtension>
            <ns3:atemp>19.0</ns3:atemp>
          </ns3:TrackPointExtension>
        </extensions>
      </trkpt>
      <trkpt lat="42.53920054994523525238037109375" lon="20.01789576373994350433349609375">
        <ele>1983.4000244140625</ele>
        <time>2026-06-19T10:19:12.000Z</time>
        <extensions>
          <ns3:TrackPointExtension>
            <ns3:atemp>19.0</ns3:atemp>
          </ns3:TrackPointExtension>
        </extensions>
      </trkpt>
      <trkpt lat="42.53919786773622035980224609375" lon="20.017940104007720947265625">
        <ele>1983.5999755859375</ele>
        <time>2026-06-19T10:19:13.000Z</time>
        <extensions>
          <ns3:TrackPointExtension>
            <ns3:atemp>19.0</ns3:atemp>
          </ns3:TrackPointExtension>
        </extensions>
      </trkpt>
      <trkpt lat="42.53919099457561969757080078125" lon="20.01798595301806926727294921875">
        <ele>1983.5999755859375</ele>
        <time>2026-06-19T10:19:14.000Z</time>
        <extensions>
          <ns3:TrackPointExtension>
            <ns3:atemp>19.0</ns3:atemp>
          </ns3:TrackPointExtension>
        </extensions>
      </trkpt>
      <trkpt lat="42.5391780026257038116455078125" lon="20.01802861690521240234375">
        <ele>1983.5999755859375</ele>
        <time>2026-06-19T10:19:15.000Z</time>
        <extensions>
          <ns3:TrackPointExtension>
            <ns3:atemp>19.0</ns3:atemp>
          </ns3:TrackPointExtension>
        </extensions>
      </trkpt>
      <trkpt lat="42.53917448222637176513671875" lon="20.0180804170668125152587890625">
        <ele>1983.5999755859375</ele>
        <time>2026-06-19T10:19:16.000Z</time>
        <extensions>
          <ns3:TrackPointExtension>
            <ns3:atemp>19.0</ns3:atemp>
          </ns3:TrackPointExtension>
        </extensions>
      </trkpt>
      <trkpt lat="42.5391662679612636566162109375" lon="20.018125511705875396728515625">
        <ele>1983.4000244140625</ele>
        <time>2026-06-19T10:19:17.000Z</time>
        <extensions>
          <ns3:TrackPointExtension>
            <ns3:atemp>19.0</ns3:atemp>
          </ns3:TrackPointExtension>
        </extensions>
      </trkpt>
      <trkpt lat="42.539156712591648101806640625" lon="20.01816415227949619293212890625">
        <ele>1983.199951171875</ele>
        <time>2026-06-19T10:19:18.000Z</time>
        <extensions>
          <ns3:TrackPointExtension>
            <ns3:atemp>19.0</ns3:atemp>
          </ns3:TrackPointExtension>
        </extensions>
      </trkpt>
      <trkpt lat="42.5391464866697788238525390625" lon="20.01820539124310016632080078125">
        <ele>1983.199951171875</ele>
        <time>2026-06-19T10:19:19.000Z</time>
        <extensions>
          <ns3:TrackPointExtension>
            <ns3:atemp>19.0</ns3:atemp>
          </ns3:TrackPointExtension>
        </extensions>
      </trkpt>
      <trkpt lat="42.5391376018524169921875" lon="20.01825065352022647857666015625">
        <ele>1983</ele>
        <time>2026-06-19T10:19:20.000Z</time>
        <extensions>
          <ns3:TrackPointExtension>
            <ns3:atemp>19.0</ns3:atemp>
          </ns3:TrackPointExtension>
        </extensions>
      </trkpt>
      <trkpt lat="42.539127208292484283447265625" lon="20.0182956643402576446533203125">
        <ele>1983</ele>
        <time>2026-06-19T10:19:21.000Z</time>
        <extensions>
          <ns3:TrackPointExtension>
            <ns3:atemp>19.0</ns3:atemp>
          </ns3:TrackPointExtension>
        </extensions>
      </trkpt>
      <trkpt lat="42.53911136649549007415771484375" lon="20.01833908259868621826171875">
        <ele>1983</ele>
        <time>2026-06-19T10:19:22.000Z</time>
        <extensions>
          <ns3:TrackPointExtension>
            <ns3:atemp>19.0</ns3:atemp>
          </ns3:TrackPointExtension>
        </extensions>
      </trkpt>
      <trkpt lat="42.539105750620365142822265625" lon="20.01838468015193939208984375">
        <ele>1983</ele>
        <time>2026-06-19T10:19:23.000Z</time>
        <extensions>
          <ns3:TrackPointExtension>
            <ns3:atemp>19.0</ns3:atemp>
          </ns3:TrackPointExtension>
        </extensions>
      </trkpt>
      <trkpt lat="42.5390958599746227264404296875" lon="20.018436647951602935791015625">
        <ele>1983</ele>
        <time>2026-06-19T10:19:24.000Z</time>
        <extensions>
          <ns3:TrackPointExtension>
            <ns3:atemp>19.0</ns3:atemp>
          </ns3:TrackPointExtension>
        </extensions>
      </trkpt>
      <trkpt lat="42.53909728489816188812255859375" lon="20.01849196851253509521484375">
        <ele>1983</ele>
        <time>2026-06-19T10:19:25.000Z</time>
        <extensions>
          <ns3:TrackPointExtension>
            <ns3:atemp>19.0</ns3:atemp>
          </ns3:TrackPointExtension>
        </extensions>
      </trkpt>
      <trkpt lat="42.5391029007732868194580078125" lon="20.0185454450547695159912109375">
        <ele>1982.800048828125</ele>
        <time>2026-06-19T10:19:26.000Z</time>
        <extensions>
          <ns3:TrackPointExtension>
            <ns3:atemp>19.0</ns3:atemp>
          </ns3:TrackPointExtension>
        </extensions>
      </trkpt>
      <trkpt lat="42.53911555744707584381103515625" lon="20.01859523355960845947265625">
        <ele>1982.800048828125</ele>
        <time>2026-06-19T10:19:27.000Z</time>
        <extensions>
          <ns3:TrackPointExtension>
            <ns3:atemp>19.0</ns3:atemp>
          </ns3:TrackPointExtension>
        </extensions>
      </trkpt>
      <trkpt lat="42.53913265652954578399658203125" lon="20.0186520628631114959716796875">
        <ele>1982.5999755859375</ele>
        <time>2026-06-19T10:19:28.000Z</time>
        <extensions>
          <ns3:TrackPointExtension>
            <ns3:atemp>19.0</ns3:atemp>
          </ns3:TrackPointExtension>
        </extensions>
      </trkpt>
      <trkpt lat="42.5391468219459056854248046875" lon="20.01871920190751552581787109375">
        <ele>1982.4000244140625</ele>
        <time>2026-06-19T10:19:29.000Z</time>
        <extensions>
          <ns3:TrackPointExtension>
            <ns3:atemp>19.0</ns3:atemp>
          </ns3:TrackPointExtension>
        </extensions>
      </trkpt>
      <trkpt lat="42.539164088666439056396484375" lon="20.01879036426544189453125">
        <ele>1982.199951171875</ele>
        <time>2026-06-19T10:19:30.000Z</time>
        <extensions>
          <ns3:TrackPointExtension>
            <ns3:atemp>19.0</ns3:atemp>
          </ns3:TrackPointExtension>
        </extensions>
      </trkpt>
      <trkpt lat="42.53918613307178020477294921875" lon="20.01885029487311840057373046875">
        <ele>1981.800048828125</ele>
        <time>2026-06-19T10:19:31.000Z</time>
        <extensions>
          <ns3:TrackPointExtension>
            <ns3:atemp>19.0</ns3:atemp>
          </ns3:TrackPointExtension>
        </extensions>
      </trkpt>
      <trkpt lat="42.5392172299325466156005859375" lon="20.0189075432717800140380859375">
        <ele>1981.5999755859375</ele>
        <time>2026-06-19T10:19:32.000Z</time>
        <extensions>
          <ns3:TrackPointExtension>
            <ns3:atemp>19.0</ns3:atemp>
          </ns3:TrackPointExtension>
        </extensions>
      </trkpt>
      <trkpt lat="42.53924849443137645721435546875" lon="20.01896806061267852783203125">
        <ele>1981</ele>
        <time>2026-06-19T10:19:33.000Z</time>
        <extensions>
          <ns3:TrackPointExtension>
            <ns3:atemp>19.0</ns3:atemp>
          </ns3:TrackPointExtension>
        </extensions>
      </trkpt>
      <trkpt lat="42.53929710946977138519287109375" lon="20.01902396790683269500732421875">
        <ele>1980.4000244140625</ele>
        <time>2026-06-19T10:19:34.000Z</time>
        <extensions>
          <ns3:TrackPointExtension>
            <ns3:atemp>19.0</ns3:atemp>
          </ns3:TrackPointExtension>
        </extensions>
      </trkpt>
      <trkpt lat="42.5393456406891345977783203125" lon="20.019085071980953216552734375">
        <ele>1979.800048828125</ele>
        <time>2026-06-19T10:19:35.000Z</time>
        <extensions>
          <ns3:TrackPointExtension>
            <ns3:atemp>19.0</ns3:atemp>
          </ns3:TrackPointExtension>
        </extensions>
      </trkpt>
      <trkpt lat="42.53939651884138584136962890625" lon="20.01915623433887958526611328125">
        <ele>1978.800048828125</ele>
        <time>2026-06-19T10:19:36.000Z</time>
        <extensions>
          <ns3:TrackPointExtension>
            <ns3:atemp>19.0</ns3:atemp>
          </ns3:TrackPointExtension>
        </extensions>
      </trkpt>
      <trkpt lat="42.539443038403987884521484375" lon="20.01922194845974445343017578125">
        <ele>1977.800048828125</ele>
        <time>2026-06-19T10:19:37.000Z</time>
        <extensions>
          <ns3:TrackPointExtension>
            <ns3:atemp>19.0</ns3:atemp>
          </ns3:TrackPointExtension>
        </extensions>
      </trkpt>
      <trkpt lat="42.539489306509494781494140625" lon="20.01929285936057567596435546875">
        <ele>1977</ele>
        <time>2026-06-19T10:19:38.000Z</time>
        <extensions>
          <ns3:TrackPointExtension>
            <ns3:atemp>19.0</ns3:atemp>
          </ns3:TrackPointExtension>
        </extensions>
      </trkpt>
      <trkpt lat="42.53953683190047740936279296875" lon="20.019371397793292999267578125">
        <ele>1976</ele>
        <time>2026-06-19T10:19:39.000Z</time>
        <extensions>
          <ns3:TrackPointExtension>
            <ns3:atemp>19.0</ns3:atemp>
          </ns3:TrackPointExtension>
        </extensions>
      </trkpt>
      <trkpt lat="42.53959282301366329193115234375" lon="20.01943250186741352081298828125">
        <ele>1974.800048828125</ele>
        <time>2026-06-19T10:19:40.000Z</time>
        <extensions>
          <ns3:TrackPointExtension>
            <ns3:atemp>19.0</ns3:atemp>
          </ns3:TrackPointExtension>
        </extensions>
      </trkpt>
      <trkpt lat="42.53964613191783428192138671875" lon="20.01948849298059940338134765625">
        <ele>1974.199951171875</ele>
        <time>2026-06-19T10:19:41.000Z</time>
        <extensions>
          <ns3:TrackPointExtension>
            <ns3:atemp>19.0</ns3:atemp>
          </ns3:TrackPointExtension>
        </extensions>
      </trkpt>
      <trkpt lat="42.5397030450403690338134765625" lon="20.01954113133251667022705078125">
        <ele>1973.5999755859375</ele>
        <time>2026-06-19T10:19:42.000Z</time>
        <extensions>
          <ns3:TrackPointExtension>
            <ns3:atemp>19.0</ns3:atemp>
          </ns3:TrackPointExtension>
        </extensions>
      </trkpt>
      <trkpt lat="42.53975828178226947784423828125" lon="20.01959226094186305999755859375">
        <ele>1973</ele>
        <time>2026-06-19T10:19:43.000Z</time>
        <extensions>
          <ns3:TrackPointExtension>
            <ns3:atemp>19.0</ns3:atemp>
          </ns3:TrackPointExtension>
        </extensions>
      </trkpt>
      <trkpt lat="42.539800107479095458984375" lon="20.01966350711882114410400390625">
        <ele>1972.5999755859375</ele>
        <time>2026-06-19T10:19:44.000Z</time>
        <extensions>
          <ns3:TrackPointExtension>
            <ns3:atemp>19.0</ns3:atemp>
          </ns3:TrackPointExtension>
        </extensions>
      </trkpt>
      <trkpt lat="42.53983623348176479339599609375" lon="20.019737184047698974609375">
        <ele>1972</ele>
        <time>2026-06-19T10:19:45.000Z</time>
        <extensions>
          <ns3:TrackPointExtension>
            <ns3:atemp>19.0</ns3:atemp>
          </ns3:TrackPointExtension>
        </extensions>
      </trkpt>
      <trkpt lat="42.5398807413876056671142578125" lon="20.01979283988475799560546875">
        <ele>1971.4000244140625</ele>
        <time>2026-06-19T10:19:46.000Z</time>
        <extensions>
          <ns3:TrackPointExtension>
            <ns3:atemp>19.0</ns3:atemp>
          </ns3:TrackPointExtension>
        </extensions>
      </trkpt>
      <trkpt lat="42.53992759622633457183837890625" lon="20.01980817876756191253662109375">
        <ele>1970.800048828125</ele>
        <time>2026-06-19T10:19:47.000Z</time>
        <extensions>
          <ns3:TrackPointExtension>
            <ns3:atemp>19.0</ns3:atemp>
          </ns3:TrackPointExtension>
        </extensions>
      </trkpt>
      <trkpt lat="42.5399615429341793060302734375" lon="20.01979225315153598785400390625">
        <ele>1970.4000244140625</ele>
        <time>2026-06-19T10:19:48.000Z</time>
        <extensions>
          <ns3:TrackPointExtension>
            <ns3:atemp>19.0</ns3:atemp>
          </ns3:TrackPointExtension>
        </extensions>
      </trkpt>
      <trkpt lat="42.54000588320195674896240234375" lon="20.01979577355086803436279296875">
        <ele>1970</ele>
        <time>2026-06-19T10:19:49.000Z</time>
        <extensions>
          <ns3:TrackPointExtension>
            <ns3:atemp>19.0</ns3:atemp>
          </ns3:TrackPointExtension>
        </extensions>
      </trkpt>
      <trkpt lat="42.5400467030704021453857421875" lon="20.01981622539460659027099609375">
        <ele>1969.5999755859375</ele>
        <time>2026-06-19T10:19:50.000Z</time>
        <extensions>
          <ns3:TrackPointExtension>
            <ns3:atemp>19.0</ns3:atemp>
          </ns3:TrackPointExtension>
        </extensions>
      </trkpt>
      <trkpt lat="42.54006656818091869354248046875" lon="20.019845478236675262451171875">
        <ele>1969</ele>
        <time>2026-06-19T10:19:51.000Z</time>
        <extensions>
          <ns3:TrackPointExtension>
            <ns3:atemp>19.0</ns3:atemp>
          </ns3:TrackPointExtension>
        </extensions>
      </trkpt>
      <trkpt lat="42.5400829128921031951904296875" lon="20.0198704563081264495849609375">
        <ele>1968.4000244140625</ele>
        <time>2026-06-19T10:19:52.000Z</time>
        <extensions>
          <ns3:TrackPointExtension>
            <ns3:atemp>19.0</ns3:atemp>
          </ns3:TrackPointExtension>
        </extensions>
      </trkpt>
      <trkpt lat="42.5400896184146404266357421875" lon="20.01989208161830902099609375">
        <ele>1968</ele>
        <time>2026-06-19T10:19:53.000Z</time>
        <extensions>
          <ns3:TrackPointExtension>
            <ns3:atemp>19.0</ns3:atemp>
          </ns3:TrackPointExtension>
        </extensions>
      </trkpt>
      <trkpt lat="42.54009791649878025054931640625" lon="20.0199241004884243011474609375">
        <ele>1967.800048828125</ele>
        <time>2026-06-19T10:19:54.000Z</time>
        <extensions>
          <ns3:TrackPointExtension>
            <ns3:atemp>19.0</ns3:atemp>
          </ns3:TrackPointExtension>
        </extensions>
      </trkpt>
      <trkpt lat="42.5401063822209835052490234375" lon="20.01994815655052661895751953125">
        <ele>1967.4000244140625</ele>
        <time>2026-06-19T10:19:55.000Z</time>
        <extensions>
          <ns3:TrackPointExtension>
            <ns3:atemp>19.0</ns3:atemp>
          </ns3:TrackPointExtension>
        </extensions>
      </trkpt>
      <trkpt lat="42.54011082462966442108154296875" lon="20.01996760256588459014892578125">
        <ele>1967.4000244140625</ele>
        <time>2026-06-19T10:19:56.000Z</time>
        <extensions>
          <ns3:TrackPointExtension>
            <ns3:atemp>19.0</ns3:atemp>
          </ns3:TrackPointExtension>
        </extensions>
      </trkpt>
      <trkpt lat="42.54011987708508968353271484375" lon="20.01998721621930599212646484375">
        <ele>1967.4000244140625</ele>
        <time>2026-06-19T10:19:57.000Z</time>
        <extensions>
          <ns3:TrackPointExtension>
            <ns3:atemp>19.0</ns3:atemp>
          </ns3:TrackPointExtension>
        </extensions>
      </trkpt>
      <trkpt lat="42.5401281751692295074462890625" lon="20.0200121104717254638671875">
        <ele>1967.5999755859375</ele>
        <time>2026-06-19T10:19:58.000Z</time>
        <extensions>
          <ns3:TrackPointExtension>
            <ns3:atemp>19.0</ns3:atemp>
          </ns3:TrackPointExtension>
        </extensions>
      </trkpt>
      <trkpt lat="42.5401348806917667388916015625" lon="20.020031221210956573486328125">
        <ele>1967.800048828125</ele>
        <time>2026-06-19T10:19:59.000Z</time>
        <extensions>
          <ns3:TrackPointExtension>
            <ns3:atemp>19.0</ns3:atemp>
          </ns3:TrackPointExtension>
        </extensions>
      </trkpt>
      <trkpt lat="42.5401459448039531707763671875" lon="20.02005293034017086029052734375">
        <ele>1967.800048828125</ele>
        <time>2026-06-19T10:20:00.000Z</time>
        <extensions>
          <ns3:TrackPointExtension>
            <ns3:atemp>19.0</ns3:atemp>
          </ns3:TrackPointExtension>
        </extensions>
      </trkpt>
      <trkpt lat="42.54015910439193248748779296875" lon="20.02007623203098773956298828125">
        <ele>1968</ele>
        <time>2026-06-19T10:20:01.000Z</time>
        <extensions>
          <ns3:TrackPointExtension>
            <ns3:atemp>19.0</ns3:atemp>
          </ns3:TrackPointExtension>
        </extensions>
      </trkpt>
      <trkpt lat="42.5401744432747364044189453125" lon="20.02009517513215541839599609375">
        <ele>1968.199951171875</ele>
        <time>2026-06-19T10:20:02.000Z</time>
        <extensions>
          <ns3:TrackPointExtension>
            <ns3:atemp>19.0</ns3:atemp>
          </ns3:TrackPointExtension>
        </extensions>
      </trkpt>
      <trkpt lat="42.54019648768007755279541015625" lon="20.0201125256717205047607421875">
        <ele>1968.4000244140625</ele>
        <time>2026-06-19T10:20:03.000Z</time>
        <extensions>
          <ns3:TrackPointExtension>
            <ns3:atemp>19.0</ns3:atemp>
          </ns3:TrackPointExtension>
        </extensions>
      </trkpt>
      <trkpt lat="42.540223561227321624755859375" lon="20.02012434415519237518310546875">
        <ele>1968.5999755859375</ele>
        <time>2026-06-19T10:20:04.000Z</time>
        <extensions>
          <ns3:TrackPointExtension>
            <ns3:atemp>19.0</ns3:atemp>
          </ns3:TrackPointExtension>
        </extensions>
      </trkpt>
      <trkpt lat="42.5402552448213100433349609375" lon="20.02013884484767913818359375">
        <ele>1968.5999755859375</ele>
        <time>2026-06-19T10:20:05.000Z</time>
        <extensions>
          <ns3:TrackPointExtension>
            <ns3:atemp>19.0</ns3:atemp>
          </ns3:TrackPointExtension>
        </extensions>
      </trkpt>
      <trkpt lat="42.54027687013149261474609375" lon="20.0201691873371601104736328125">
        <ele>1968.5999755859375</ele>
        <time>2026-06-19T10:20:06.000Z</time>
        <extensions>
          <ns3:TrackPointExtension>
            <ns3:atemp>19.0</ns3:atemp>
          </ns3:TrackPointExtension>
        </extensions>
      </trkpt>
      <trkpt lat="42.54030025564134120941162109375" lon="20.02019743435084819793701171875">
        <ele>1968.5999755859375</ele>
        <time>2026-06-19T10:20:07.000Z</time>
        <extensions>
          <ns3:TrackPointExtension>
            <ns3:atemp>19.0</ns3:atemp>
          </ns3:TrackPointExtension>
        </extensions>
      </trkpt>
      <trkpt lat="42.54032691009342670440673828125" lon="20.0202184729278087615966796875">
        <ele>1968.800048828125</ele>
        <time>2026-06-19T10:20:08.000Z</time>
        <extensions>
          <ns3:TrackPointExtension>
            <ns3:atemp>19.0</ns3:atemp>
          </ns3:TrackPointExtension>
        </extensions>
      </trkpt>
      <trkpt lat="42.54035373218357563018798828125" lon="20.02024336718022823333740234375">
        <ele>1968.800048828125</ele>
        <time>2026-06-19T10:20:09.000Z</time>
        <extensions>
          <ns3:TrackPointExtension>
            <ns3:atemp>19.0</ns3:atemp>
          </ns3:TrackPointExtension>
        </extensions>
      </trkpt>
      <trkpt lat="42.540376447141170501708984375" lon="20.0202731229364871978759765625">
        <ele>1969</ele>
        <time>2026-06-19T10:20:10.000Z</time>
        <extensions>
          <ns3:TrackPointExtension>
            <ns3:atemp>19.0</ns3:atemp>
          </ns3:TrackPointExtension>
        </extensions>
      </trkpt>
      <trkpt lat="42.54039530642330646514892578125" lon="20.02030673436820507049560546875">
        <ele>1969</ele>
        <time>2026-06-19T10:20:11.000Z</time>
        <extensions>
          <ns3:TrackPointExtension>
            <ns3:atemp>19.0</ns3:atemp>
          </ns3:TrackPointExtension>
        </extensions>
      </trkpt>
      <trkpt lat="42.54041441716253757476806640625" lon="20.02034009434282779693603515625">
        <ele>1969</ele>
        <time>2026-06-19T10:20:12.000Z</time>
        <extensions>
          <ns3:TrackPointExtension>
            <ns3:atemp>20.0</ns3:atemp>
          </ns3:TrackPointExtension>
        </extensions>
      </trkpt>
      <trkpt lat="42.54044006578624248504638671875" lon="20.02037395723164081573486328125">
        <ele>1968.800048828125</ele>
        <time>2026-06-19T10:20:13.000Z</time>
        <extensions>
          <ns3:TrackPointExtension>
            <ns3:atemp>20.0</ns3:atemp>
          </ns3:TrackPointExtension>
        </extensions>
      </trkpt>
      <trkpt lat="42.5404746830463409423828125" lon="20.0204050540924072265625">
        <ele>1968.5999755859375</ele>
        <time>2026-06-19T10:20:14.000Z</time>
        <extensions>
          <ns3:TrackPointExtension>
            <ns3:atemp>20.0</ns3:atemp>
          </ns3:TrackPointExtension>
        </extensions>
      </trkpt>
      <trkpt lat="42.54050930030643939971923828125" lon="20.02043631859123706817626953125">
        <ele>1968.4000244140625</ele>
        <time>2026-06-19T10:20:15.000Z</time>
        <extensions>
          <ns3:TrackPointExtension>
            <ns3:atemp>20.0</ns3:atemp>
          </ns3:TrackPointExtension>
        </extensions>
      </trkpt>
      <trkpt lat="42.5405444204807281494140625" lon="20.02048191614449024200439453125">
        <ele>1968.199951171875</ele>
        <time>2026-06-19T10:20:16.000Z</time>
        <extensions>
          <ns3:TrackPointExtension>
            <ns3:atemp>19.0</ns3:atemp>
          </ns3:TrackPointExtension>
        </extensions>
      </trkpt>
      <trkpt lat="42.54057853482663631439208984375" lon="20.02052919007837772369384765625">
        <ele>1968</ele>
        <time>2026-06-19T10:20:17.000Z</time>
        <extensions>
          <ns3:TrackPointExtension>
            <ns3:atemp>19.0</ns3:atemp>
          </ns3:TrackPointExtension>
        </extensions>
      </trkpt>
      <trkpt lat="42.54060200415551662445068359375" lon="20.02058467827737331390380859375">
        <ele>1967.800048828125</ele>
        <time>2026-06-19T10:20:18.000Z</time>
        <extensions>
          <ns3:TrackPointExtension>
            <ns3:atemp>19.0</ns3:atemp>
          </ns3:TrackPointExtension>
        </extensions>
      </trkpt>
      <trkpt lat="42.54063653759658336639404296875" lon="20.0206196308135986328125">
        <ele>1967.800048828125</ele>
        <time>2026-06-19T10:20:19.000Z</time>
        <extensions>
          <ns3:TrackPointExtension>
            <ns3:atemp>19.0</ns3:atemp>
          </ns3:TrackPointExtension>
        </extensions>
      </trkpt>
      <trkpt lat="42.540675513446331024169921875" lon="20.020648129284381866455078125">
        <ele>1967.5999755859375</ele>
        <time>2026-06-19T10:20:20.000Z</time>
        <extensions>
          <ns3:TrackPointExtension>
            <ns3:atemp>20.0</ns3:atemp>
          </ns3:TrackPointExtension>
        </extensions>
      </trkpt>
      <trkpt lat="42.5407232902944087982177734375" lon="20.0206664018332958221435546875">
        <ele>1967.5999755859375</ele>
        <time>2026-06-19T10:20:21.000Z</time>
        <extensions>
          <ns3:TrackPointExtension>
            <ns3:atemp>20.0</ns3:atemp>
          </ns3:TrackPointExtension>
        </extensions>
      </trkpt>
      <trkpt lat="42.54077970050275325775146484375" lon="20.02070219255983829498291015625">
        <ele>1967.5999755859375</ele>
        <time>2026-06-19T10:20:22.000Z</time>
        <extensions>
          <ns3:TrackPointExtension>
            <ns3:atemp>19.0</ns3:atemp>
          </ns3:TrackPointExtension>
        </extensions>
      </trkpt>
      <trkpt lat="42.54081867635250091552734375" lon="20.02075633965432643890380859375">
        <ele>1967.800048828125</ele>
        <time>2026-06-19T10:20:23.000Z</time>
        <extensions>
          <ns3:TrackPointExtension>
            <ns3:atemp>19.0</ns3:atemp>
          </ns3:TrackPointExtension>
        </extensions>
      </trkpt>
      <trkpt lat="42.540841810405254364013671875" lon="20.02081182785332202911376953125">
        <ele>1967.800048828125</ele>
        <time>2026-06-19T10:20:24.000Z</time>
        <extensions>
          <ns3:TrackPointExtension>
            <ns3:atemp>20.0</ns3:atemp>
          </ns3:TrackPointExtension>
        </extensions>
      </trkpt>
      <trkpt lat="42.54085798747837543487548828125" lon="20.02085407264530658721923828125">
        <ele>1967.800048828125</ele>
        <time>2026-06-19T10:20:25.000Z</time>
        <extensions>
          <ns3:TrackPointExtension>
            <ns3:atemp>20.0</ns3:atemp>
          </ns3:TrackPointExtension>
        </extensions>
      </trkpt>
      <trkpt lat="42.540876008570194244384765625" lon="20.02087804488837718963623046875">
        <ele>1967.800048828125</ele>
        <time>2026-06-19T10:20:26.000Z</time>
        <extensions>
          <ns3:TrackPointExtension>
            <ns3:atemp>19.0</ns3:atemp>
          </ns3:TrackPointExtension>
        </extensions>
      </trkpt>
      <trkpt lat="42.540894113481044769287109375" lon="20.02090067602694034576416015625">
        <ele>1967.5999755859375</ele>
        <time>2026-06-19T10:20:27.000Z</time>
        <extensions>
          <ns3:TrackPointExtension>
            <ns3:atemp>19.0</ns3:atemp>
          </ns3:TrackPointExtension>
        </extensions>
      </trkpt>
      <trkpt lat="42.5409118831157684326171875" lon="20.02092230133712291717529296875">
        <ele>1967.5999755859375</ele>
        <time>2026-06-19T10:20:28.000Z</time>
        <extensions>
          <ns3:TrackPointExtension>
            <ns3:atemp>19.0</ns3:atemp>
          </ns3:TrackPointExtension>
        </extensions>
      </trkpt>
      <trkpt lat="42.540927641093730926513671875" lon="20.0209393166005611419677734375">
        <ele>1967.5999755859375</ele>
        <time>2026-06-19T10:20:29.000Z</time>
        <extensions>
          <ns3:TrackPointExtension>
            <ns3:atemp>19.0</ns3:atemp>
          </ns3:TrackPointExtension>
        </extensions>
      </trkpt>
      <trkpt lat="42.5409422256052494049072265625" lon="20.02095448784530162811279296875">
        <ele>1967.4000244140625</ele>
        <time>2026-06-19T10:20:30.000Z</time>
        <extensions>
          <ns3:TrackPointExtension>
            <ns3:atemp>19.0</ns3:atemp>
          </ns3:TrackPointExtension>
        </extensions>
      </trkpt>
      <trkpt lat="42.5409559719264507293701171875" lon="20.02097175456583499908447265625">
        <ele>1967.4000244140625</ele>
        <time>2026-06-19T10:20:31.000Z</time>
        <extensions>
          <ns3:TrackPointExtension>
            <ns3:atemp>20.0</ns3:atemp>
          </ns3:TrackPointExtension>
        </extensions>
      </trkpt>
      <trkpt lat="42.5409720651805400848388671875" lon="20.02099505625665187835693359375">
        <ele>1967.4000244140625</ele>
        <time>2026-06-19T10:20:32.000Z</time>
        <extensions>
          <ns3:TrackPointExtension>
            <ns3:atemp>20.0</ns3:atemp>
          </ns3:TrackPointExtension>
        </extensions>
      </trkpt>
      <trkpt lat="42.5409864820539951324462890625" lon="20.0210191123187541961669921875">
        <ele>1967.4000244140625</ele>
        <time>2026-06-19T10:20:33.000Z</time>
        <extensions>
          <ns3:TrackPointExtension>
            <ns3:atemp>20.0</ns3:atemp>
          </ns3:TrackPointExtension>
        </extensions>
      </trkpt>
      <trkpt lat="42.54099746234714984893798828125" lon="20.02103897742927074432373046875">
        <ele>1967.4000244140625</ele>
        <time>2026-06-19T10:20:34.000Z</time>
        <extensions>
          <ns3:TrackPointExtension>
            <ns3:atemp>20.0</ns3:atemp>
          </ns3:TrackPointExtension>
        </extensions>
      </trkpt>
      <trkpt lat="42.5410076044499874114990234375" lon="20.02105624414980411529541015625">
        <ele>1967.4000244140625</ele>
        <time>2026-06-19T10:20:35.000Z</time>
        <extensions>
          <ns3:TrackPointExtension>
            <ns3:atemp>20.0</ns3:atemp>
          </ns3:TrackPointExtension>
        </extensions>
      </trkpt>
      <trkpt lat="42.54101984202861785888671875" lon="20.02106730826199054718017578125">
        <ele>1967.5999755859375</ele>
        <time>2026-06-19T10:20:36.000Z</time>
        <extensions>
          <ns3:TrackPointExtension>
            <ns3:atemp>20.0</ns3:atemp>
          </ns3:TrackPointExtension>
        </extensions>
      </trkpt>
      <trkpt lat="42.54103124141693115234375" lon="20.02108541317284107208251953125">
        <ele>1967.800048828125</ele>
        <time>2026-06-19T10:20:37.000Z</time>
        <extensions>
          <ns3:TrackPointExtension>
            <ns3:atemp>20.0</ns3:atemp>
          </ns3:TrackPointExtension>
        </extensions>
      </trkpt>
      <trkpt lat="42.54104339517652988433837890625" lon="20.0211052782833576202392578125">
        <ele>1968</ele>
        <time>2026-06-19T10:20:38.000Z</time>
        <extensions>
          <ns3:TrackPointExtension>
            <ns3:atemp>20.0</ns3:atemp>
          </ns3:TrackPointExtension>
        </extensions>
      </trkpt>
      <trkpt lat="42.541061080992221832275390625" lon="20.0211233831942081451416015625">
        <ele>1968.199951171875</ele>
        <time>2026-06-19T10:20:39.000Z</time>
        <extensions>
          <ns3:TrackPointExtension>
            <ns3:atemp>20.0</ns3:atemp>
          </ns3:TrackPointExtension>
        </extensions>
      </trkpt>
      <trkpt lat="42.54107348620891571044921875" lon="20.0211404822766780853271484375">
        <ele>1968.5999755859375</ele>
        <time>2026-06-19T10:20:40.000Z</time>
        <extensions>
          <ns3:TrackPointExtension>
            <ns3:atemp>20.0</ns3:atemp>
          </ns3:TrackPointExtension>
        </extensions>
      </trkpt>
      <trkpt lat="42.5410835444927215576171875" lon="20.021159090101718902587890625">
        <ele>1968.800048828125</ele>
        <time>2026-06-19T10:20:41.000Z</time>
        <extensions>
          <ns3:TrackPointExtension>
            <ns3:atemp>20.0</ns3:atemp>
          </ns3:TrackPointExtension>
        </extensions>
      </trkpt>
      <trkpt lat="42.54109770990908145904541015625" lon="20.02117996104061603546142578125">
        <ele>1968.800048828125</ele>
        <time>2026-06-19T10:20:42.000Z</time>
        <extensions>
          <ns3:TrackPointExtension>
            <ns3:atemp>20.0</ns3:atemp>
          </ns3:TrackPointExtension>
        </extensions>
      </trkpt>
      <trkpt lat="42.5411125458776950836181640625" lon="20.02120913006365299224853515625">
        <ele>1968.800048828125</ele>
        <time>2026-06-19T10:20:43.000Z</time>
        <extensions>
          <ns3:TrackPointExtension>
            <ns3:atemp>20.0</ns3:atemp>
          </ns3:TrackPointExtension>
        </extensions>
      </trkpt>
      <trkpt lat="42.54112922586500644683837890625" lon="20.021248944103717803955078125">
        <ele>1968.800048828125</ele>
        <time>2026-06-19T10:20:44.000Z</time>
        <extensions>
          <ns3:TrackPointExtension>
            <ns3:atemp>20.0</ns3:atemp>
          </ns3:TrackPointExtension>
        </extensions>
      </trkpt>
      <trkpt lat="42.54113852977752685546875" lon="20.02130334265530109405517578125">
        <ele>1968.5999755859375</ele>
        <time>2026-06-19T10:20:45.000Z</time>
        <extensions>
          <ns3:TrackPointExtension>
            <ns3:atemp>20.0</ns3:atemp>
          </ns3:TrackPointExtension>
        </extensions>
      </trkpt>
      <trkpt lat="42.541145570576190948486328125" lon="20.02135983668267726898193359375">
        <ele>1968.4000244140625</ele>
        <time>2026-06-19T10:20:46.000Z</time>
        <extensions>
          <ns3:TrackPointExtension>
            <ns3:atemp>20.0</ns3:atemp>
          </ns3:TrackPointExtension>
        </extensions>
      </trkpt>
      <trkpt lat="42.54114867188036441802978515625" lon="20.021412558853626251220703125">
        <ele>1968.199951171875</ele>
        <time>2026-06-19T10:20:47.000Z</time>
        <extensions>
          <ns3:TrackPointExtension>
            <ns3:atemp>20.0</ns3:atemp>
          </ns3:TrackPointExtension>
        </extensions>
      </trkpt>
      <trkpt lat="42.54115101881325244903564453125" lon="20.02146184444427490234375">
        <ele>1968.199951171875</ele>
        <time>2026-06-19T10:20:48.000Z</time>
        <extensions>
          <ns3:TrackPointExtension>
            <ns3:atemp>20.0</ns3:atemp>
          </ns3:TrackPointExtension>
        </extensions>
      </trkpt>
      <trkpt lat="42.54114984534680843353271484375" lon="20.02150274813175201416015625">
        <ele>1968.199951171875</ele>
        <time>2026-06-19T10:20:49.000Z</time>
        <extensions>
          <ns3:TrackPointExtension>
            <ns3:atemp>20.0</ns3:atemp>
          </ns3:TrackPointExtension>
        </extensions>
      </trkpt>
      <trkpt lat="42.54115135408937931060791015625" lon="20.0215240381658077239990234375">
        <ele>1968.4000244140625</ele>
        <time>2026-06-19T10:20:50.000Z</time>
        <extensions>
          <ns3:TrackPointExtension>
            <ns3:atemp>20.0</ns3:atemp>
          </ns3:TrackPointExtension>
        </extensions>
      </trkpt>
      <trkpt lat="42.541156299412250518798828125" lon="20.02155094407498836517333984375">
        <ele>1968.4000244140625</ele>
        <time>2026-06-19T10:20:51.000Z</time>
        <extensions>
          <ns3:TrackPointExtension>
            <ns3:atemp>20.0</ns3:atemp>
          </ns3:TrackPointExtension>
        </extensions>
      </trkpt>
      <trkpt lat="42.54116929136216640472412109375" lon="20.02157961018383502960205078125">
        <ele>1968.4000244140625</ele>
        <time>2026-06-19T10:20:52.000Z</time>
        <extensions>
          <ns3:TrackPointExtension>
            <ns3:atemp>20.0</ns3:atemp>
          </ns3:TrackPointExtension>
        </extensions>
      </trkpt>
      <trkpt lat="42.54118287004530429840087890625" lon="20.02162856049835681915283203125">
        <ele>1968.199951171875</ele>
        <time>2026-06-19T10:20:53.000Z</time>
        <extensions>
          <ns3:TrackPointExtension>
            <ns3:atemp>20.0</ns3:atemp>
          </ns3:TrackPointExtension>
        </extensions>
      </trkpt>
      <trkpt lat="42.54118002019822597503662109375" lon="20.02168388105928897857666015625">
        <ele>1967.800048828125</ele>
        <time>2026-06-19T10:20:54.000Z</time>
        <extensions>
          <ns3:TrackPointExtension>
            <ns3:atemp>20.0</ns3:atemp>
          </ns3:TrackPointExtension>
        </extensions>
      </trkpt>
      <trkpt lat="42.54116878844797611236572265625" lon="20.02173568122088909149169921875">
        <ele>1967.4000244140625</ele>
        <time>2026-06-19T10:20:55.000Z</time>
        <extensions>
          <ns3:TrackPointExtension>
            <ns3:atemp>20.0</ns3:atemp>
          </ns3:TrackPointExtension>
        </extensions>
      </trkpt>
      <trkpt lat="42.541166357696056365966796875" lon="20.02178362570703029632568359375">
        <ele>1967.199951171875</ele>
        <time>2026-06-19T10:20:56.000Z</time>
        <extensions>
          <ns3:TrackPointExtension>
            <ns3:atemp>20.0</ns3:atemp>
          </ns3:TrackPointExtension>
        </extensions>
      </trkpt>
      <trkpt lat="42.54116627387702465057373046875" lon="20.0218277983367443084716796875">
        <ele>1967.199951171875</ele>
        <time>2026-06-19T10:20:57.000Z</time>
        <extensions>
          <ns3:TrackPointExtension>
            <ns3:atemp>20.0</ns3:atemp>
          </ns3:TrackPointExtension>
        </extensions>
      </trkpt>
      <trkpt lat="42.5411631725728511810302734375" lon="20.02187733538448810577392578125">
        <ele>1967</ele>
        <time>2026-06-19T10:20:58.000Z</time>
        <extensions>
          <ns3:TrackPointExtension>
            <ns3:atemp>20.0</ns3:atemp>
          </ns3:TrackPointExtension>
        </extensions>
      </trkpt>
      <trkpt lat="42.54116225056350231170654296875" lon="20.0219263695180416107177734375">
        <ele>1967</ele>
        <time>2026-06-19T10:20:59.000Z</time>
        <extensions>
          <ns3:TrackPointExtension>
            <ns3:atemp>20.0</ns3:atemp>
          </ns3:TrackPointExtension>
        </extensions>
      </trkpt>
      <trkpt lat="42.54116057418286800384521484375" lon="20.0219689495861530303955078125">
        <ele>1967</ele>
        <time>2026-06-19T10:21:00.000Z</time>
        <extensions>
          <ns3:TrackPointExtension>
            <ns3:atemp>20.0</ns3:atemp>
          </ns3:TrackPointExtension>
        </extensions>
      </trkpt>
      <trkpt lat="42.54116644151508808135986328125" lon="20.0220076739788055419921875">
        <ele>1967</ele>
        <time>2026-06-19T10:21:01.000Z</time>
        <extensions>
          <ns3:TrackPointExtension>
            <ns3:atemp>20.0</ns3:atemp>
          </ns3:TrackPointExtension>
        </extensions>
      </trkpt>
      <trkpt lat="42.541169710457324981689453125" lon="20.02204321324825286865234375">
        <ele>1967</ele>
        <time>2026-06-19T10:21:02.000Z</time>
        <extensions>
          <ns3:TrackPointExtension>
            <ns3:atemp>20.0</ns3:atemp>
          </ns3:TrackPointExtension>
        </extensions>
      </trkpt>
      <trkpt lat="42.54116593860089778900146484375" lon="20.02208478748798370361328125">
        <ele>1967</ele>
        <time>2026-06-19T10:21:03.000Z</time>
        <extensions>
          <ns3:TrackPointExtension>
            <ns3:atemp>20.0</ns3:atemp>
          </ns3:TrackPointExtension>
        </extensions>
      </trkpt>
      <trkpt lat="42.54116325639188289642333984375" lon="20.02212560735642910003662109375">
        <ele>1967.199951171875</ele>
        <time>2026-06-19T10:21:04.000Z</time>
        <extensions>
          <ns3:TrackPointExtension>
            <ns3:atemp>20.0</ns3:atemp>
          </ns3:TrackPointExtension>
        </extensions>
      </trkpt>
      <trkpt lat="42.5411685369908809661865234375" lon="20.02217355184257030487060546875">
        <ele>1967.199951171875</ele>
        <time>2026-06-19T10:21:05.000Z</time>
        <extensions>
          <ns3:TrackPointExtension>
            <ns3:atemp>20.0</ns3:atemp>
          </ns3:TrackPointExtension>
        </extensions>
      </trkpt>
      <trkpt lat="42.54117934964597225189208984375" lon="20.0222116895020008087158203125">
        <ele>1967.4000244140625</ele>
        <time>2026-06-19T10:21:06.000Z</time>
        <extensions>
          <ns3:TrackPointExtension>
            <ns3:atemp>20.0</ns3:atemp>
          </ns3:TrackPointExtension>
        </extensions>
      </trkpt>
      <trkpt lat="42.5411940179765224456787109375" lon="20.02224613912403583526611328125">
        <ele>1967.4000244140625</ele>
        <time>2026-06-19T10:21:07.000Z</time>
        <extensions>
          <ns3:TrackPointExtension>
            <ns3:atemp>20.0</ns3:atemp>
          </ns3:TrackPointExtension>
        </extensions>
      </trkpt>
      <trkpt lat="42.54120918922126293182373046875" lon="20.0222827680408954620361328125">
        <ele>1967.4000244140625</ele>
        <time>2026-06-19T10:21:08.000Z</time>
        <extensions>
          <ns3:TrackPointExtension>
            <ns3:atemp>20.0</ns3:atemp>
          </ns3:TrackPointExtension>
        </extensions>
      </trkpt>
      <trkpt lat="42.5412201695144176483154296875" lon="20.02231813967227935791015625">
        <ele>1967.199951171875</ele>
        <time>2026-06-19T10:21:09.000Z</time>
        <extensions>
          <ns3:TrackPointExtension>
            <ns3:atemp>20.0</ns3:atemp>
          </ns3:TrackPointExtension>
        </extensions>
      </trkpt>
      <trkpt lat="42.54123307764530181884765625" lon="20.0223501585423946380615234375">
        <ele>1967.199951171875</ele>
        <time>2026-06-19T10:21:10.000Z</time>
        <extensions>
          <ns3:TrackPointExtension>
            <ns3:atemp>20.0</ns3:atemp>
          </ns3:TrackPointExtension>
        </extensions>
      </trkpt>
      <trkpt lat="42.54124254919588565826416015625" lon="20.02236910164356231689453125">
        <ele>1967.199951171875</ele>
        <time>2026-06-19T10:21:11.000Z</time>
        <extensions>
          <ns3:TrackPointExtension>
            <ns3:atemp>20.0</ns3:atemp>
          </ns3:TrackPointExtension>
        </extensions>
      </trkpt>
      <trkpt lat="42.54125118255615234375" lon="20.02239181660115718841552734375">
        <ele>1967.199951171875</ele>
        <time>2026-06-19T10:21:12.000Z</time>
        <extensions>
          <ns3:TrackPointExtension>
            <ns3:atemp>20.0</ns3:atemp>
          </ns3:TrackPointExtension>
        </extensions>
      </trkpt>
      <trkpt lat="42.5412619113922119140625" lon="20.02241780050098896026611328125">
        <ele>1967.199951171875</ele>
        <time>2026-06-19T10:21:13.000Z</time>
        <extensions>
          <ns3:TrackPointExtension>
            <ns3:atemp>20.0</ns3:atemp>
          </ns3:TrackPointExtension>
        </extensions>
      </trkpt>
      <trkpt lat="42.5412728078663349151611328125" lon="20.022447891533374786376953125">
        <ele>1967.199951171875</ele>
        <time>2026-06-19T10:21:14.000Z</time>
        <extensions>
          <ns3:TrackPointExtension>
            <ns3:atemp>20.0</ns3:atemp>
          </ns3:TrackPointExtension>
        </extensions>
      </trkpt>
      <trkpt lat="42.541285045444965362548828125" lon="20.02247798256576061248779296875">
        <ele>1967.4000244140625</ele>
        <time>2026-06-19T10:21:15.000Z</time>
        <extensions>
          <ns3:TrackPointExtension>
            <ns3:atemp>20.0</ns3:atemp>
          </ns3:TrackPointExtension>
        </extensions>
      </trkpt>
      <trkpt lat="42.54129451699554920196533203125" lon="20.022505559027194976806640625">
        <ele>1967.5999755859375</ele>
        <time>2026-06-19T10:21:16.000Z</time>
        <extensions>
          <ns3:TrackPointExtension>
            <ns3:atemp>20.0</ns3:atemp>
          </ns3:TrackPointExtension>
        </extensions>
      </trkpt>
      <trkpt lat="42.5413033179938793182373046875" lon="20.02253095619380474090576171875">
        <ele>1967.800048828125</ele>
        <time>2026-06-19T10:21:17.000Z</time>
        <extensions>
          <ns3:TrackPointExtension>
            <ns3:atemp>20.0</ns3:atemp>
          </ns3:TrackPointExtension>
        </extensions>
      </trkpt>
      <trkpt lat="42.541313879191875457763671875" lon="20.02255694009363651275634765625">
        <ele>1968</ele>
        <time>2026-06-19T10:21:18.000Z</time>
        <extensions>
          <ns3:TrackPointExtension>
            <ns3:atemp>20.0</ns3:atemp>
          </ns3:TrackPointExtension>
        </extensions>
      </trkpt>
      <trkpt lat="42.5413227640092372894287109375" lon="20.0225845165550708770751953125">
        <ele>1968.4000244140625</ele>
        <time>2026-06-19T10:21:19.000Z</time>
        <extensions>
          <ns3:TrackPointExtension>
            <ns3:atemp>20.0</ns3:atemp>
          </ns3:TrackPointExtension>
        </extensions>
      </trkpt>
      <trkpt lat="42.54133122973144054412841796875" lon="20.02261091955006122589111328125">
        <ele>1968.800048828125</ele>
        <time>2026-06-19T10:21:20.000Z</time>
        <extensions>
          <ns3:TrackPointExtension>
            <ns3:atemp>20.0</ns3:atemp>
          </ns3:TrackPointExtension>
        </extensions>
      </trkpt>
      <trkpt lat="42.541337348520755767822265625" lon="20.02263925038278102874755859375">
        <ele>1969.199951171875</ele>
        <time>2026-06-19T10:21:21.000Z</time>
        <extensions>
          <ns3:TrackPointExtension>
            <ns3:atemp>20.0</ns3:atemp>
          </ns3:TrackPointExtension>
        </extensions>
      </trkpt>
      <trkpt lat="42.541349418461322784423828125" lon="20.02265450544655323028564453125">
        <ele>1969.4000244140625</ele>
        <time>2026-06-19T10:21:22.000Z</time>
        <extensions>
          <ns3:TrackPointExtension>
            <ns3:atemp>20.0</ns3:atemp>
          </ns3:TrackPointExtension>
        </extensions>
      </trkpt>
      <trkpt lat="42.54136023111641407012939453125" lon="20.022672526538372039794921875">
        <ele>1969.800048828125</ele>
        <time>2026-06-19T10:21:23.000Z</time>
        <extensions>
          <ns3:TrackPointExtension>
            <ns3:atemp>20.0</ns3:atemp>
          </ns3:TrackPointExtension>
        </extensions>
      </trkpt>
      <trkpt lat="42.54136995412409305572509765625" lon="20.02269188873469829559326171875">
        <ele>1970</ele>
        <time>2026-06-19T10:21:24.000Z</time>
        <extensions>
          <ns3:TrackPointExtension>
            <ns3:atemp>20.0</ns3:atemp>
          </ns3:TrackPointExtension>
        </extensions>
      </trkpt>
      <trkpt lat="42.54137883894145488739013671875" lon="20.02271653153002262115478515625">
        <ele>1970.199951171875</ele>
        <time>2026-06-19T10:21:25.000Z</time>
        <extensions>
          <ns3:TrackPointExtension>
            <ns3:atemp>20.0</ns3:atemp>
          </ns3:TrackPointExtension>
        </extensions>
      </trkpt>
      <trkpt lat="42.54138856194913387298583984375" lon="20.02274838276207447052001953125">
        <ele>1970.4000244140625</ele>
        <time>2026-06-19T10:21:26.000Z</time>
        <extensions>
          <ns3:TrackPointExtension>
            <ns3:atemp>20.0</ns3:atemp>
          </ns3:TrackPointExtension>
        </extensions>
      </trkpt>
      <trkpt lat="42.5414005480706691741943359375" lon="20.0227809883654117584228515625">
        <ele>1970.5999755859375</ele>
        <time>2026-06-19T10:21:27.000Z</time>
        <extensions>
          <ns3:TrackPointExtension>
            <ns3:atemp>20.0</ns3:atemp>
          </ns3:TrackPointExtension>
        </extensions>
      </trkpt>
      <trkpt lat="42.541415803134441375732421875" lon="20.0228195451200008392333984375">
        <ele>1970.5999755859375</ele>
        <time>2026-06-19T10:21:28.000Z</time>
        <extensions>
          <ns3:TrackPointExtension>
            <ns3:atemp>20.0</ns3:atemp>
          </ns3:TrackPointExtension>
        </extensions>
      </trkpt>
      <trkpt lat="42.5414273701608180999755859375" lon="20.02286522649228572845458984375">
        <ele>1970.800048828125</ele>
        <time>2026-06-19T10:21:29.000Z</time>
        <extensions>
          <ns3:TrackPointExtension>
            <ns3:atemp>20.0</ns3:atemp>
          </ns3:TrackPointExtension>
        </extensions>
      </trkpt>
      <trkpt lat="42.5414387695491313934326171875" lon="20.022913254797458648681640625">
        <ele>1970.800048828125</ele>
        <time>2026-06-19T10:21:30.000Z</time>
        <extensions>
          <ns3:TrackPointExtension>
            <ns3:atemp>20.0</ns3:atemp>
          </ns3:TrackPointExtension>
        </extensions>
      </trkpt>
      <trkpt lat="42.54144120030105113983154296875" lon="20.02296782098710536956787109375">
        <ele>1970.800048828125</ele>
        <time>2026-06-19T10:21:31.000Z</time>
        <extensions>
          <ns3:TrackPointExtension>
            <ns3:atemp>20.0</ns3:atemp>
          </ns3:TrackPointExtension>
        </extensions>
      </trkpt>
      <trkpt lat="42.54144321195781230926513671875" lon="20.023027248680591583251953125">
        <ele>1970.800048828125</ele>
        <time>2026-06-19T10:21:32.000Z</time>
        <extensions>
          <ns3:TrackPointExtension>
            <ns3:atemp>20.0</ns3:atemp>
          </ns3:TrackPointExtension>
        </extensions>
      </trkpt>
      <trkpt lat="42.54144136793911457061767578125" lon="20.023084245622158050537109375">
        <ele>1970.5999755859375</ele>
        <time>2026-06-19T10:21:33.000Z</time>
        <extensions>
          <ns3:TrackPointExtension>
            <ns3:atemp>20.0</ns3:atemp>
          </ns3:TrackPointExtension>
        </extensions>
      </trkpt>
      <trkpt lat="42.54144036211073398590087890625" lon="20.0231422483921051025390625">
        <ele>1970.5999755859375</ele>
        <time>2026-06-19T10:21:34.000Z</time>
        <extensions>
          <ns3:TrackPointExtension>
            <ns3:atemp>20.0</ns3:atemp>
          </ns3:TrackPointExtension>
        </extensions>
      </trkpt>
      <trkpt lat="42.5414384342730045318603515625" lon="20.02319849096238613128662109375">
        <ele>1970.5999755859375</ele>
        <time>2026-06-19T10:21:35.000Z</time>
        <extensions>
          <ns3:TrackPointExtension>
            <ns3:atemp>20.0</ns3:atemp>
          </ns3:TrackPointExtension>
        </extensions>
      </trkpt>
      <trkpt lat="42.5414364226162433624267578125" lon="20.02325632609426975250244140625">
        <ele>1970.5999755859375</ele>
        <time>2026-06-19T10:21:36.000Z</time>
        <extensions>
          <ns3:TrackPointExtension>
            <ns3:atemp>20.0</ns3:atemp>
          </ns3:TrackPointExtension>
        </extensions>
      </trkpt>
      <trkpt lat="42.5414375960826873779296875" lon="20.02331952564418315887451171875">
        <ele>1970.5999755859375</ele>
        <time>2026-06-19T10:21:37.000Z</time>
        <extensions>
          <ns3:TrackPointExtension>
            <ns3:atemp>20.0</ns3:atemp>
          </ns3:TrackPointExtension>
        </extensions>
      </trkpt>
      <trkpt lat="42.54143700934946537017822265625" lon="20.02339077182114124298095703125">
        <ele>1970.5999755859375</ele>
        <time>2026-06-19T10:21:38.000Z</time>
        <extensions>
          <ns3:TrackPointExtension>
            <ns3:atemp>20.0</ns3:atemp>
          </ns3:TrackPointExtension>
        </extensions>
      </trkpt>
      <trkpt lat="42.5414429605007171630859375" lon="20.02346872352063655853271484375">
        <ele>1970.4000244140625</ele>
        <time>2026-06-19T10:21:39.000Z</time>
        <extensions>
          <ns3:TrackPointExtension>
            <ns3:atemp>20.0</ns3:atemp>
          </ns3:TrackPointExtension>
        </extensions>
      </trkpt>
      <trkpt lat="42.5414454750716686248779296875" lon="20.02355195581912994384765625">
        <ele>1970</ele>
        <time>2026-06-19T10:21:40.000Z</time>
        <extensions>
          <ns3:TrackPointExtension>
            <ns3:atemp>20.0</ns3:atemp>
          </ns3:TrackPointExtension>
        </extensions>
      </trkpt>
      <trkpt lat="42.54145964048802852630615234375" lon="20.02363552339375019073486328125">
        <ele>1969.800048828125</ele>
        <time>2026-06-19T10:21:41.000Z</time>
        <extensions>
          <ns3:TrackPointExtension>
            <ns3:atemp>20.0</ns3:atemp>
          </ns3:TrackPointExtension>
        </extensions>
      </trkpt>
      <trkpt lat="42.5414793379604816436767578125" lon="20.0237081944942474365234375">
        <ele>1969.4000244140625</ele>
        <time>2026-06-19T10:21:42.000Z</time>
        <extensions>
          <ns3:TrackPointExtension>
            <ns3:atemp>20.0</ns3:atemp>
          </ns3:TrackPointExtension>
        </extensions>
      </trkpt>
      <trkpt lat="42.54149836488068103790283203125" lon="20.02376653254032135009765625">
        <ele>1969</ele>
        <time>2026-06-19T10:21:43.000Z</time>
        <extensions>
          <ns3:TrackPointExtension>
            <ns3:atemp>20.0</ns3:atemp>
          </ns3:TrackPointExtension>
        </extensions>
      </trkpt>
      <trkpt lat="42.54151043482124805450439453125" lon="20.02380886115133762359619140625">
        <ele>1968.800048828125</ele>
        <time>2026-06-19T10:21:44.000Z</time>
        <extensions>
          <ns3:TrackPointExtension>
            <ns3:atemp>20.0</ns3:atemp>
          </ns3:TrackPointExtension>
        </extensions>
      </trkpt>
      <trkpt lat="42.5415195710957050323486328125" lon="20.0238382816314697265625">
        <ele>1968.5999755859375</ele>
        <time>2026-06-19T10:21:45.000Z</time>
        <extensions>
          <ns3:TrackPointExtension>
            <ns3:atemp>20.0</ns3:atemp>
          </ns3:TrackPointExtension>
        </extensions>
      </trkpt>
      <trkpt lat="42.54153273068368434906005859375" lon="20.0238689593970775604248046875">
        <ele>1968.4000244140625</ele>
        <time>2026-06-19T10:21:46.000Z</time>
        <extensions>
          <ns3:TrackPointExtension>
            <ns3:atemp>20.0</ns3:atemp>
          </ns3:TrackPointExtension>
        </extensions>
      </trkpt>
      <trkpt lat="42.54154278896749019622802734375" lon="20.02389821223914623260498046875">
        <ele>1968.199951171875</ele>
        <time>2026-06-19T10:21:47.000Z</time>
        <extensions>
          <ns3:TrackPointExtension>
            <ns3:atemp>20.0</ns3:atemp>
          </ns3:TrackPointExtension>
        </extensions>
      </trkpt>
      <trkpt lat="42.54154899157583713531494140625" lon="20.0239202566444873809814453125">
        <ele>1968</ele>
        <time>2026-06-19T10:21:48.000Z</time>
        <extensions>
          <ns3:TrackPointExtension>
            <ns3:atemp>20.0</ns3:atemp>
          </ns3:TrackPointExtension>
        </extensions>
      </trkpt>
      <trkpt lat="42.5415551103651523590087890625" lon="20.0239400379359722137451171875">
        <ele>1967.800048828125</ele>
        <time>2026-06-19T10:21:49.000Z</time>
        <extensions>
          <ns3:TrackPointExtension>
            <ns3:atemp>20.0</ns3:atemp>
          </ns3:TrackPointExtension>
        </extensions>
      </trkpt>
      <trkpt lat="42.5415623188018798828125" lon="20.0239625014364719390869140625">
        <ele>1967.5999755859375</ele>
        <time>2026-06-19T10:21:50.000Z</time>
        <extensions>
          <ns3:TrackPointExtension>
            <ns3:atemp>20.0</ns3:atemp>
          </ns3:TrackPointExtension>
        </extensions>
      </trkpt>
      <trkpt lat="42.54156910814344882965087890625" lon="20.02398907206952571868896484375">
        <ele>1967.4000244140625</ele>
        <time>2026-06-19T10:21:51.000Z</time>
        <extensions>
          <ns3:TrackPointExtension>
            <ns3:atemp>20.0</ns3:atemp>
          </ns3:TrackPointExtension>
        </extensions>
      </trkpt>
      <trkpt lat="42.54157749004662036895751953125" lon="20.02401388250291347503662109375">
        <ele>1967.4000244140625</ele>
        <time>2026-06-19T10:21:52.000Z</time>
        <extensions>
          <ns3:TrackPointExtension>
            <ns3:atemp>20.0</ns3:atemp>
          </ns3:TrackPointExtension>
        </extensions>
      </trkpt>
      <trkpt lat="42.54158444702625274658203125" lon="20.0240365974605083465576171875">
        <ele>1967.199951171875</ele>
        <time>2026-06-19T10:21:53.000Z</time>
        <extensions>
          <ns3:TrackPointExtension>
            <ns3:atemp>20.0</ns3:atemp>
          </ns3:TrackPointExtension>
        </extensions>
      </trkpt>
      <trkpt lat="42.5415913201868534088134765625" lon="20.02405461855232715606689453125">
        <ele>1967.199951171875</ele>
        <time>2026-06-19T10:21:54.000Z</time>
        <extensions>
          <ns3:TrackPointExtension>
            <ns3:atemp>20.0</ns3:atemp>
          </ns3:TrackPointExtension>
        </extensions>
      </trkpt>
      <trkpt lat="42.54160062409937381744384765625" lon="20.02407305873930454254150390625">
        <ele>1967.199951171875</ele>
        <time>2026-06-19T10:21:55.000Z</time>
        <extensions>
          <ns3:TrackPointExtension>
            <ns3:atemp>20.0</ns3:atemp>
          </ns3:TrackPointExtension>
        </extensions>
      </trkpt>
      <trkpt lat="42.54161126911640167236328125" lon="20.02409652806818485260009765625">
        <ele>1967.199951171875</ele>
        <time>2026-06-19T10:21:56.000Z</time>
        <extensions>
          <ns3:TrackPointExtension>
            <ns3:atemp>20.0</ns3:atemp>
          </ns3:TrackPointExtension>
        </extensions>
      </trkpt>
      <trkpt lat="42.5416245125234127044677734375" lon="20.02412066794931888580322265625">
        <ele>1967.4000244140625</ele>
        <time>2026-06-19T10:21:57.000Z</time>
        <extensions>
          <ns3:TrackPointExtension>
            <ns3:atemp>20.0</ns3:atemp>
          </ns3:TrackPointExtension>
        </extensions>
      </trkpt>
      <trkpt lat="42.54163398407399654388427734375" lon="20.0241492502391338348388671875">
        <ele>1967.4000244140625</ele>
        <time>2026-06-19T10:21:58.000Z</time>
        <extensions>
          <ns3:TrackPointExtension>
            <ns3:atemp>20.0</ns3:atemp>
          </ns3:TrackPointExtension>
        </extensions>
      </trkpt>
      <trkpt lat="42.5416493229568004608154296875" lon="20.02418118529021739959716796875">
        <ele>1967.5999755859375</ele>
        <time>2026-06-19T10:21:59.000Z</time>
        <extensions>
          <ns3:TrackPointExtension>
            <ns3:atemp>20.0</ns3:atemp>
          </ns3:TrackPointExtension>
        </extensions>
      </trkpt>
      <trkpt lat="42.5416627340018749237060546875" lon="20.0242163054645061492919921875">
        <ele>1967.800048828125</ele>
        <time>2026-06-19T10:22:00.000Z</time>
        <extensions>
          <ns3:TrackPointExtension>
            <ns3:atemp>20.0</ns3:atemp>
          </ns3:TrackPointExtension>
        </extensions>
      </trkpt>
      <trkpt lat="42.5416771508753299713134765625" lon="20.0242572091519832611083984375">
        <ele>1967.800048828125</ele>
        <time>2026-06-19T10:22:01.000Z</time>
        <extensions>
          <ns3:TrackPointExtension>
            <ns3:atemp>20.0</ns3:atemp>
          </ns3:TrackPointExtension>
        </extensions>
      </trkpt>
      <trkpt lat="42.54169098101556301116943359375" lon="20.02429819665849208831787109375">
        <ele>1968</ele>
        <time>2026-06-19T10:22:02.000Z</time>
        <extensions>
          <ns3:TrackPointExtension>
            <ns3:atemp>20.0</ns3:atemp>
          </ns3:TrackPointExtension>
        </extensions>
      </trkpt>
      <trkpt lat="42.54169953055679798126220703125" lon="20.0243333168327808380126953125">
        <ele>1968.199951171875</ele>
        <time>2026-06-19T10:22:03.000Z</time>
        <extensions>
          <ns3:TrackPointExtension>
            <ns3:atemp>20.0</ns3:atemp>
          </ns3:TrackPointExtension>
        </extensions>
      </trkpt>
      <trkpt lat="42.5417069904506206512451171875" lon="20.02436541952192783355712890625">
        <ele>1968.4000244140625</ele>
        <time>2026-06-19T10:22:04.000Z</time>
        <extensions>
          <ns3:TrackPointExtension>
            <ns3:atemp>20.0</ns3:atemp>
          </ns3:TrackPointExtension>
        </extensions>
      </trkpt>
      <trkpt lat="42.54171528853476047515869140625" lon="20.02440079115331172943115234375">
        <ele>1968.5999755859375</ele>
        <time>2026-06-19T10:22:05.000Z</time>
        <extensions>
          <ns3:TrackPointExtension>
            <ns3:atemp>20.0</ns3:atemp>
          </ns3:TrackPointExtension>
        </extensions>
      </trkpt>
      <trkpt lat="42.541724927723407745361328125" lon="20.02442861907184123992919921875">
        <ele>1969</ele>
        <time>2026-06-19T10:22:06.000Z</time>
        <extensions>
          <ns3:TrackPointExtension>
            <ns3:atemp>20.0</ns3:atemp>
          </ns3:TrackPointExtension>
        </extensions>
      </trkpt>
      <trkpt lat="42.54173473455011844635009765625" lon="20.02445518970489501953125">
        <ele>1969.199951171875</ele>
        <time>2026-06-19T10:22:07.000Z</time>
        <extensions>
          <ns3:TrackPointExtension>
            <ns3:atemp>20.0</ns3:atemp>
          </ns3:TrackPointExtension>
        </extensions>
      </trkpt>
      <trkpt lat="42.5417475588619709014892578125" lon="20.02448628656566143035888671875">
        <ele>1969.4000244140625</ele>
        <time>2026-06-19T10:22:08.000Z</time>
        <extensions>
          <ns3:TrackPointExtension>
            <ns3:atemp>20.0</ns3:atemp>
          </ns3:TrackPointExtension>
        </extensions>
      </trkpt>
      <trkpt lat="42.5417609699070453643798828125" lon="20.024527944624423980712890625">
        <ele>1969.5999755859375</ele>
        <time>2026-06-19T10:22:09.000Z</time>
        <extensions>
          <ns3:TrackPointExtension>
            <ns3:atemp>20.0</ns3:atemp>
          </ns3:TrackPointExtension>
        </extensions>
      </trkpt>
      <trkpt lat="42.54177496768534183502197265625" lon="20.024569518864154815673828125">
        <ele>1969.800048828125</ele>
        <time>2026-06-19T10:22:10.000Z</time>
        <extensions>
          <ns3:TrackPointExtension>
            <ns3:atemp>20.0</ns3:atemp>
          </ns3:TrackPointExtension>
        </extensions>
      </trkpt>
      <trkpt lat="42.541787624359130859375" lon="20.024612434208393096923828125">
        <ele>1970</ele>
        <time>2026-06-19T10:22:11.000Z</time>
        <extensions>
          <ns3:TrackPointExtension>
            <ns3:atemp>20.0</ns3:atemp>
          </ns3:TrackPointExtension>
        </extensions>
      </trkpt>
      <trkpt lat="42.54180011339485645294189453125" lon="20.0246551819145679473876953125">
        <ele>1970.199951171875</ele>
        <time>2026-06-19T10:22:12.000Z</time>
        <extensions>
          <ns3:TrackPointExtension>
            <ns3:atemp>20.0</ns3:atemp>
          </ns3:TrackPointExtension>
        </extensions>
      </trkpt>
      <trkpt lat="42.54181134514510631561279296875" lon="20.0246947444975376129150390625">
        <ele>1970.5999755859375</ele>
        <time>2026-06-19T10:22:13.000Z</time>
        <extensions>
          <ns3:TrackPointExtension>
            <ns3:atemp>20.0</ns3:atemp>
          </ns3:TrackPointExtension>
        </extensions>
      </trkpt>
      <trkpt lat="42.54182592965662479400634765625" lon="20.02473019994795322418212890625">
        <ele>1970.800048828125</ele>
        <time>2026-06-19T10:22:14.000Z</time>
        <extensions>
          <ns3:TrackPointExtension>
            <ns3:atemp>20.0</ns3:atemp>
          </ns3:TrackPointExtension>
        </extensions>
      </trkpt>
      <trkpt lat="42.5418384186923503875732421875" lon="20.024765990674495697021484375">
        <ele>1971.199951171875</ele>
        <time>2026-06-19T10:22:15.000Z</time>
        <extensions>
          <ns3:TrackPointExtension>
            <ns3:atemp>20.0</ns3:atemp>
          </ns3:TrackPointExtension>
        </extensions>
      </trkpt>
      <trkpt lat="42.54185040481388568878173828125" lon="20.0248070620000362396240234375">
        <ele>1971.5999755859375</ele>
        <time>2026-06-19T10:22:16.000Z</time>
        <extensions>
          <ns3:TrackPointExtension>
            <ns3:atemp>20.0</ns3:atemp>
          </ns3:TrackPointExtension>
        </extensions>
      </trkpt>
      <trkpt lat="42.5418548472225666046142578125" lon="20.02484788186848163604736328125">
        <ele>1971.800048828125</ele>
        <time>2026-06-19T10:22:17.000Z</time>
        <extensions>
          <ns3:TrackPointExtension>
            <ns3:atemp>20.0</ns3:atemp>
          </ns3:TrackPointExtension>
        </extensions>
      </trkpt>
      <trkpt lat="42.541854344308376312255859375" lon="20.02489280886948108673095703125">
        <ele>1972</ele>
        <time>2026-06-19T10:22:18.000Z</time>
        <extensions>
          <ns3:TrackPointExtension>
            <ns3:atemp>20.0</ns3:atemp>
          </ns3:TrackPointExtension>
        </extensions>
      </trkpt>
      <trkpt lat="42.5418511591851711273193359375" lon="20.02494997344911098480224609375">
        <ele>1972.199951171875</ele>
        <time>2026-06-19T10:22:19.000Z</time>
        <extensions>
          <ns3:TrackPointExtension>
            <ns3:atemp>20.0</ns3:atemp>
          </ns3:TrackPointExtension>
        </extensions>
      </trkpt>
      <trkpt lat="42.5418437831103801727294921875" lon="20.02499322406947612762451171875">
        <ele>1972.4000244140625</ele>
        <time>2026-06-19T10:22:20.000Z</time>
        <extensions>
          <ns3:TrackPointExtension>
            <ns3:atemp>20.0</ns3:atemp>
          </ns3:TrackPointExtension>
        </extensions>
      </trkpt>
      <trkpt lat="42.54183364100754261016845703125" lon="20.02503278665244579315185546875">
        <ele>1972.5999755859375</ele>
        <time>2026-06-19T10:22:21.000Z</time>
        <extensions>
          <ns3:TrackPointExtension>
            <ns3:atemp>20.0</ns3:atemp>
          </ns3:TrackPointExtension>
        </extensions>
      </trkpt>
      <trkpt lat="42.54182090051472187042236328125" lon="20.02507285214960575103759765625">
        <ele>1972.5999755859375</ele>
        <time>2026-06-19T10:22:22.000Z</time>
        <extensions>
          <ns3:TrackPointExtension>
            <ns3:atemp>20.0</ns3:atemp>
          </ns3:TrackPointExtension>
        </extensions>
      </trkpt>
      <trkpt lat="42.541803382337093353271484375" lon="20.0251114927232265472412109375">
        <ele>1972.5999755859375</ele>
        <time>2026-06-19T10:22:23.000Z</time>
        <extensions>
          <ns3:TrackPointExtension>
            <ns3:atemp>20.0</ns3:atemp>
          </ns3:TrackPointExtension>
        </extensions>
      </trkpt>
      <trkpt lat="42.5417862832546234130859375" lon="20.02514895983040332794189453125">
        <ele>1972.800048828125</ele>
        <time>2026-06-19T10:22:24.000Z</time>
        <extensions>
          <ns3:TrackPointExtension>
            <ns3:atemp>20.0</ns3:atemp>
          </ns3:TrackPointExtension>
        </extensions>
      </trkpt>
      <trkpt lat="42.54177496768534183502197265625" lon="20.02518919296562671661376953125">
        <ele>1973</ele>
        <time>2026-06-19T10:22:25.000Z</time>
        <extensions>
          <ns3:TrackPointExtension>
            <ns3:atemp>20.0</ns3:atemp>
          </ns3:TrackPointExtension>
        </extensions>
      </trkpt>
      <trkpt lat="42.54177195020020008087158203125" lon="20.0252288393676280975341796875">
        <ele>1973.199951171875</ele>
        <time>2026-06-19T10:22:26.000Z</time>
        <extensions>
          <ns3:TrackPointExtension>
            <ns3:atemp>20.0</ns3:atemp>
          </ns3:TrackPointExtension>
        </extensions>
      </trkpt>
      <trkpt lat="42.54177480004727840423583984375" lon="20.02526161260902881622314453125">
        <ele>1973.5999755859375</ele>
        <time>2026-06-19T10:22:27.000Z</time>
        <extensions>
          <ns3:TrackPointExtension>
            <ns3:atemp>20.0</ns3:atemp>
          </ns3:TrackPointExtension>
        </extensions>
      </trkpt>
      <trkpt lat="42.54177949391305446624755859375" lon="20.02528843469917774200439453125">
        <ele>1974</ele>
        <time>2026-06-19T10:22:28.000Z</time>
        <extensions>
          <ns3:TrackPointExtension>
            <ns3:atemp>20.0</ns3:atemp>
          </ns3:TrackPointExtension>
        </extensions>
      </trkpt>
      <trkpt lat="42.54178854636847972869873046875" lon="20.02531324513256549835205078125">
        <ele>1974.4000244140625</ele>
        <time>2026-06-19T10:22:29.000Z</time>
        <extensions>
          <ns3:TrackPointExtension>
            <ns3:atemp>20.0</ns3:atemp>
          </ns3:TrackPointExtension>
        </extensions>
      </trkpt>
      <trkpt lat="42.54180438816547393798828125" lon="20.02533788792788982391357421875">
        <ele>1974.800048828125</ele>
        <time>2026-06-19T10:22:30.000Z</time>
        <extensions>
          <ns3:TrackPointExtension>
            <ns3:atemp>20.0</ns3:atemp>
          </ns3:TrackPointExtension>
        </extensions>
      </trkpt>
      <trkpt lat="42.541816122829914093017578125" lon="20.02536420710384845733642578125">
        <ele>1975.199951171875</ele>
        <time>2026-06-19T10:22:31.000Z</time>
        <extensions>
          <ns3:TrackPointExtension>
            <ns3:atemp>20.0</ns3:atemp>
          </ns3:TrackPointExtension>
        </extensions>
      </trkpt>
      <trkpt lat="42.54183347336947917938232421875" lon="20.025394298136234283447265625">
        <ele>1975.5999755859375</ele>
        <time>2026-06-19T10:22:32.000Z</time>
        <extensions>
          <ns3:TrackPointExtension>
            <ns3:atemp>20.0</ns3:atemp>
          </ns3:TrackPointExtension>
        </extensions>
      </trkpt>
      <trkpt lat="42.54184805788099765777587890625" lon="20.0254202820360660552978515625">
        <ele>1975.800048828125</ele>
        <time>2026-06-19T10:22:33.000Z</time>
        <extensions>
          <ns3:TrackPointExtension>
            <ns3:atemp>20.0</ns3:atemp>
          </ns3:TrackPointExtension>
        </extensions>
      </trkpt>
      <trkpt lat="42.54186297766864299774169921875" lon="20.0254476070404052734375">
        <ele>1976</ele>
        <time>2026-06-19T10:22:34.000Z</time>
        <extensions>
          <ns3:TrackPointExtension>
            <ns3:atemp>20.0</ns3:atemp>
          </ns3:TrackPointExtension>
        </extensions>
      </trkpt>
      <trkpt lat="42.54187840037047863006591796875" lon="20.025471411645412445068359375">
        <ele>1976.199951171875</ele>
        <time>2026-06-19T10:22:35.000Z</time>
        <extensions>
          <ns3:TrackPointExtension>
            <ns3:atemp>20.0</ns3:atemp>
          </ns3:TrackPointExtension>
        </extensions>
      </trkpt>
      <trkpt lat="42.54189533181488513946533203125" lon="20.02549714408814907073974609375">
        <ele>1976.4000244140625</ele>
        <time>2026-06-19T10:22:36.000Z</time>
        <extensions>
          <ns3:TrackPointExtension>
            <ns3:atemp>20.0</ns3:atemp>
          </ns3:TrackPointExtension>
        </extensions>
      </trkpt>
      <trkpt lat="42.541918717324733734130859375" lon="20.025521032512187957763671875">
        <ele>1976.5999755859375</ele>
        <time>2026-06-19T10:22:37.000Z</time>
        <extensions>
          <ns3:TrackPointExtension>
            <ns3:atemp>20.0</ns3:atemp>
          </ns3:TrackPointExtension>
        </extensions>
      </trkpt>
      <trkpt lat="42.541940510272979736328125" lon="20.0255470164120197296142578125">
        <ele>1976.800048828125</ele>
        <time>2026-06-19T10:22:38.000Z</time>
        <extensions>
          <ns3:TrackPointExtension>
            <ns3:atemp>20.0</ns3:atemp>
          </ns3:TrackPointExtension>
        </extensions>
      </trkpt>
      <trkpt lat="42.54196154884994029998779296875" lon="20.02557174302637577056884765625">
        <ele>1977</ele>
        <time>2026-06-19T10:22:39.000Z</time>
        <extensions>
          <ns3:TrackPointExtension>
            <ns3:atemp>20.0</ns3:atemp>
          </ns3:TrackPointExtension>
        </extensions>
      </trkpt>
      <trkpt lat="42.54198116250336170196533203125" lon="20.02560107968747615814208984375">
        <ele>1977</ele>
        <time>2026-06-19T10:22:40.000Z</time>
        <extensions>
          <ns3:TrackPointExtension>
            <ns3:atemp>20.0</ns3:atemp>
          </ns3:TrackPointExtension>
        </extensions>
      </trkpt>
      <trkpt lat="42.5419946573674678802490234375" lon="20.02563293091952800750732421875">
        <ele>1977.199951171875</ele>
        <time>2026-06-19T10:22:41.000Z</time>
        <extensions>
          <ns3:TrackPointExtension>
            <ns3:atemp>20.0</ns3:atemp>
          </ns3:TrackPointExtension>
        </extensions>
      </trkpt>
      <trkpt lat="42.5420120917260646820068359375" lon="20.0256636925041675567626953125">
        <ele>1977.199951171875</ele>
        <time>2026-06-19T10:22:42.000Z</time>
        <extensions>
          <ns3:TrackPointExtension>
            <ns3:atemp>20.0</ns3:atemp>
          </ns3:TrackPointExtension>
        </extensions>
      </trkpt>
      <trkpt lat="42.54202424548566341400146484375" lon="20.02569646574556827545166015625">
        <ele>1977.199951171875</ele>
        <time>2026-06-19T10:22:43.000Z</time>
        <extensions>
          <ns3:TrackPointExtension>
            <ns3:atemp>20.0</ns3:atemp>
          </ns3:TrackPointExtension>
        </extensions>
      </trkpt>
      <trkpt lat="42.5420330464839935302734375" lon="20.02572496421635150909423828125">
        <ele>1977.199951171875</ele>
        <time>2026-06-19T10:22:44.000Z</time>
        <extensions>
          <ns3:TrackPointExtension>
            <ns3:atemp>20.0</ns3:atemp>
          </ns3:TrackPointExtension>
        </extensions>
      </trkpt>
      <trkpt lat="42.54204050637781620025634765625" lon="20.0257532112300395965576171875">
        <ele>1977.199951171875</ele>
        <time>2026-06-19T10:22:45.000Z</time>
        <extensions>
          <ns3:TrackPointExtension>
            <ns3:atemp>20.0</ns3:atemp>
          </ns3:TrackPointExtension>
        </extensions>
      </trkpt>
      <trkpt lat="42.54204846918582916259765625" lon="20.0257815420627593994140625">
        <ele>1977.4000244140625</ele>
        <time>2026-06-19T10:22:46.000Z</time>
        <extensions>
          <ns3:TrackPointExtension>
            <ns3:atemp>20.0</ns3:atemp>
          </ns3:TrackPointExtension>
        </extensions>
      </trkpt>
      <trkpt lat="42.5420550070703029632568359375" lon="20.025810040533542633056640625">
        <ele>1977.5999755859375</ele>
        <time>2026-06-19T10:22:47.000Z</time>
        <extensions>
          <ns3:TrackPointExtension>
            <ns3:atemp>20.0</ns3:atemp>
          </ns3:TrackPointExtension>
        </extensions>
      </trkpt>
      <trkpt lat="42.54206447862088680267333984375" lon="20.02584298141300678253173828125">
        <ele>1977.800048828125</ele>
        <time>2026-06-19T10:22:48.000Z</time>
        <extensions>
          <ns3:TrackPointExtension>
            <ns3:atemp>20.0</ns3:atemp>
          </ns3:TrackPointExtension>
        </extensions>
      </trkpt>
      <trkpt lat="42.5420717708766460418701171875" lon="20.02587751485407352447509765625">
        <ele>1978</ele>
        <time>2026-06-19T10:22:49.000Z</time>
        <extensions>
          <ns3:TrackPointExtension>
            <ns3:atemp>20.0</ns3:atemp>
          </ns3:TrackPointExtension>
        </extensions>
      </trkpt>
      <trkpt lat="42.542081661522388458251953125" lon="20.02590701915323734283447265625">
        <ele>1978</ele>
        <time>2026-06-19T10:22:50.000Z</time>
        <extensions>
          <ns3:TrackPointExtension>
            <ns3:atemp>20.0</ns3:atemp>
          </ns3:TrackPointExtension>
        </extensions>
      </trkpt>
      <trkpt lat="42.5420898757874965667724609375" lon="20.02593551762402057647705078125">
        <ele>1978.199951171875</ele>
        <time>2026-06-19T10:22:51.000Z</time>
        <extensions>
          <ns3:TrackPointExtension>
            <ns3:atemp>20.0</ns3:atemp>
          </ns3:TrackPointExtension>
        </extensions>
      </trkpt>
      <trkpt lat="42.54209884442389011383056640625" lon="20.0259624235332012176513671875">
        <ele>1978.4000244140625</ele>
        <time>2026-06-19T10:22:52.000Z</time>
        <extensions>
          <ns3:TrackPointExtension>
            <ns3:atemp>20.0</ns3:atemp>
          </ns3:TrackPointExtension>
        </extensions>
      </trkpt>
      <trkpt lat="42.542106807231903076171875" lon="20.0259915925562381744384765625">
        <ele>1978.5999755859375</ele>
        <time>2026-06-19T10:22:53.000Z</time>
        <extensions>
          <ns3:TrackPointExtension>
            <ns3:atemp>20.0</ns3:atemp>
          </ns3:TrackPointExtension>
        </extensions>
      </trkpt>
      <trkpt lat="42.54211812280118465423583984375" lon="20.02602134831249713897705078125">
        <ele>1978.800048828125</ele>
        <time>2026-06-19T10:22:54.000Z</time>
        <extensions>
          <ns3:TrackPointExtension>
            <ns3:atemp>20.0</ns3:atemp>
          </ns3:TrackPointExtension>
        </extensions>
      </trkpt>
      <trkpt lat="42.5421250797808170318603515625" lon="20.02605454064905643463134765625">
        <ele>1979</ele>
        <time>2026-06-19T10:22:55.000Z</time>
        <extensions>
          <ns3:TrackPointExtension>
            <ns3:atemp>20.0</ns3:atemp>
          </ns3:TrackPointExtension>
        </extensions>
      </trkpt>
      <trkpt lat="42.5421337969601154327392578125" lon="20.026088654994964599609375">
        <ele>1979.199951171875</ele>
        <time>2026-06-19T10:22:56.000Z</time>
        <extensions>
          <ns3:TrackPointExtension>
            <ns3:atemp>20.0</ns3:atemp>
          </ns3:TrackPointExtension>
        </extensions>
      </trkpt>
      <trkpt lat="42.54214243032038211822509765625" lon="20.02612478099763393402099609375">
        <ele>1979.4000244140625</ele>
        <time>2026-06-19T10:22:57.000Z</time>
        <extensions>
          <ns3:TrackPointExtension>
            <ns3:atemp>20.0</ns3:atemp>
          </ns3:TrackPointExtension>
        </extensions>
      </trkpt>
      <trkpt lat="42.54215307533740997314453125" lon="20.0261552073061466217041015625">
        <ele>1979.800048828125</ele>
        <time>2026-06-19T10:22:58.000Z</time>
        <extensions>
          <ns3:TrackPointExtension>
            <ns3:atemp>20.0</ns3:atemp>
          </ns3:TrackPointExtension>
        </extensions>
      </trkpt>
      <trkpt lat="42.542165815830230712890625" lon="20.0261870585381984710693359375">
        <ele>1980</ele>
        <time>2026-06-19T10:22:59.000Z</time>
        <extensions>
          <ns3:TrackPointExtension>
            <ns3:atemp>20.0</ns3:atemp>
          </ns3:TrackPointExtension>
        </extensions>
      </trkpt>
      <trkpt lat="42.54217780195176601409912109375" lon="20.02622066996991634368896484375">
        <ele>1980.199951171875</ele>
        <time>2026-06-19T10:23:00.000Z</time>
        <extensions>
          <ns3:TrackPointExtension>
            <ns3:atemp>20.0</ns3:atemp>
          </ns3:TrackPointExtension>
        </extensions>
      </trkpt>
      <trkpt lat="42.54219238646328449249267578125" lon="20.02624967135488986968994140625">
        <ele>1980.4000244140625</ele>
        <time>2026-06-19T10:23:01.000Z</time>
        <extensions>
          <ns3:TrackPointExtension>
            <ns3:atemp>20.0</ns3:atemp>
          </ns3:TrackPointExtension>
        </extensions>
      </trkpt>
      <trkpt lat="42.54220546223223209381103515625" lon="20.026278756558895111083984375">
        <ele>1980.4000244140625</ele>
        <time>2026-06-19T10:23:02.000Z</time>
        <extensions>
          <ns3:TrackPointExtension>
            <ns3:atemp>20.0</ns3:atemp>
          </ns3:TrackPointExtension>
        </extensions>
      </trkpt>
      <trkpt lat="42.5422199629247188568115234375" lon="20.02630935050547122955322265625">
        <ele>1980.4000244140625</ele>
        <time>2026-06-19T10:23:03.000Z</time>
        <extensions>
          <ns3:TrackPointExtension>
            <ns3:atemp>20.0</ns3:atemp>
          </ns3:TrackPointExtension>
        </extensions>
      </trkpt>
      <trkpt lat="42.5422370620071887969970703125" lon="20.02634279429912567138671875">
        <ele>1980.4000244140625</ele>
        <time>2026-06-19T10:23:04.000Z</time>
        <extensions>
          <ns3:TrackPointExtension>
            <ns3:atemp>20.0</ns3:atemp>
          </ns3:TrackPointExtension>
        </extensions>
      </trkpt>
      <trkpt lat="42.54225768148899078369140625" lon="20.02637204714119434356689453125">
        <ele>1980.199951171875</ele>
        <time>2026-06-19T10:23:05.000Z</time>
        <extensions>
          <ns3:TrackPointExtension>
            <ns3:atemp>20.0</ns3:atemp>
          </ns3:TrackPointExtension>
        </extensions>
      </trkpt>
      <trkpt lat="42.5422776304185390472412109375" lon="20.0264002941548824310302734375">
        <ele>1980.199951171875</ele>
        <time>2026-06-19T10:23:06.000Z</time>
        <extensions>
          <ns3:TrackPointExtension>
            <ns3:atemp>20.0</ns3:atemp>
          </ns3:TrackPointExtension>
        </extensions>
      </trkpt>
      <trkpt lat="42.54229799844324588775634765625" lon="20.0264214165508747100830078125">
        <ele>1980</ele>
        <time>2026-06-19T10:23:07.000Z</time>
        <extensions>
          <ns3:TrackPointExtension>
            <ns3:atemp>20.0</ns3:atemp>
          </ns3:TrackPointExtension>
        </extensions>
      </trkpt>
      <trkpt lat="42.54231627099215984344482421875" lon="20.026444382965564727783203125">
        <ele>1980</ele>
        <time>2026-06-19T10:23:08.000Z</time>
        <extensions>
          <ns3:TrackPointExtension>
            <ns3:atemp>20.0</ns3:atemp>
          </ns3:TrackPointExtension>
        </extensions>
      </trkpt>
      <trkpt lat="42.54233974032104015350341796875" lon="20.02646961249411106109619140625">
        <ele>1980</ele>
        <time>2026-06-19T10:23:09.000Z</time>
        <extensions>
          <ns3:TrackPointExtension>
            <ns3:atemp>20.0</ns3:atemp>
          </ns3:TrackPointExtension>
        </extensions>
      </trkpt>
      <trkpt lat="42.542365975677967071533203125" lon="20.026496350765228271484375">
        <ele>1979.800048828125</ele>
        <time>2026-06-19T10:23:10.000Z</time>
        <extensions>
          <ns3:TrackPointExtension>
            <ns3:atemp>20.0</ns3:atemp>
          </ns3:TrackPointExtension>
        </extensions>
      </trkpt>
      <trkpt lat="42.542396150529384613037109375" lon="20.0265193171799182891845703125">
        <ele>1979.800048828125</ele>
        <time>2026-06-19T10:23:11.000Z</time>
        <extensions>
          <ns3:TrackPointExtension>
            <ns3:atemp>20.0</ns3:atemp>
          </ns3:TrackPointExtension>
        </extensions>
      </trkpt>
      <trkpt lat="42.5424238108098506927490234375" lon="20.0265444628894329071044921875">
        <ele>1980</ele>
        <time>2026-06-19T10:23:12.000Z</time>
        <extensions>
          <ns3:TrackPointExtension>
            <ns3:atemp>20.0</ns3:atemp>
          </ns3:TrackPointExtension>
        </extensions>
      </trkpt>
      <trkpt lat="42.5424486212432384490966796875" lon="20.02656809985637664794921875">
        <ele>1980</ele>
        <time>2026-06-19T10:23:13.000Z</time>
        <extensions>
          <ns3:TrackPointExtension>
            <ns3:atemp>20.0</ns3:atemp>
          </ns3:TrackPointExtension>
        </extensions>
      </trkpt>
      <trkpt lat="42.54247033037245273590087890625" lon="20.0265984423458576202392578125">
        <ele>1980</ele>
        <time>2026-06-19T10:23:14.000Z</time>
        <extensions>
          <ns3:TrackPointExtension>
            <ns3:atemp>20.0</ns3:atemp>
          </ns3:TrackPointExtension>
        </extensions>
      </trkpt>
      <trkpt lat="42.54248860292136669158935546875" lon="20.0266339816153049468994140625">
        <ele>1980.199951171875</ele>
        <time>2026-06-19T10:23:15.000Z</time>
        <extensions>
          <ns3:TrackPointExtension>
            <ns3:atemp>20.0</ns3:atemp>
          </ns3:TrackPointExtension>
        </extensions>
      </trkpt>
      <trkpt lat="42.5425052829086780548095703125" lon="20.0266688503324985504150390625">
        <ele>1980.199951171875</ele>
        <time>2026-06-19T10:23:16.000Z</time>
        <extensions>
          <ns3:TrackPointExtension>
            <ns3:atemp>20.0</ns3:atemp>
          </ns3:TrackPointExtension>
        </extensions>
      </trkpt>
      <trkpt lat="42.5425212085247039794921875" lon="20.0267084129154682159423828125">
        <ele>1980.199951171875</ele>
        <time>2026-06-19T10:23:17.000Z</time>
        <extensions>
          <ns3:TrackPointExtension>
            <ns3:atemp>20.0</ns3:atemp>
          </ns3:TrackPointExtension>
        </extensions>
      </trkpt>
      <trkpt lat="42.54253319464623928070068359375" lon="20.0267449580132961273193359375">
        <ele>1980.4000244140625</ele>
        <time>2026-06-19T10:23:18.000Z</time>
        <extensions>
          <ns3:TrackPointExtension>
            <ns3:atemp>20.0</ns3:atemp>
          </ns3:TrackPointExtension>
        </extensions>
      </trkpt>
      <trkpt lat="42.5425465218722820281982421875" lon="20.0267801620066165924072265625">
        <ele>1980.4000244140625</ele>
        <time>2026-06-19T10:23:19.000Z</time>
        <extensions>
          <ns3:TrackPointExtension>
            <ns3:atemp>20.0</ns3:atemp>
          </ns3:TrackPointExtension>
        </extensions>
      </trkpt>
      <trkpt lat="42.542557083070278167724609375" lon="20.02681595273315906524658203125">
        <ele>1980.5999755859375</ele>
        <time>2026-06-19T10:23:20.000Z</time>
        <extensions>
          <ns3:TrackPointExtension>
            <ns3:atemp>20.0</ns3:atemp>
          </ns3:TrackPointExtension>
        </extensions>
      </trkpt>
      <trkpt lat="42.542567141354084014892578125" lon="20.026854090392589569091796875">
        <ele>1980.5999755859375</ele>
        <time>2026-06-19T10:23:21.000Z</time>
        <extensions>
          <ns3:TrackPointExtension>
            <ns3:atemp>20.0</ns3:atemp>
          </ns3:TrackPointExtension>
        </extensions>
      </trkpt>
      <trkpt lat="42.54257393069565296173095703125" lon="20.02689398825168609619140625">
        <ele>1980.800048828125</ele>
        <time>2026-06-19T10:23:22.000Z</time>
        <extensions>
          <ns3:TrackPointExtension>
            <ns3:atemp>20.0</ns3:atemp>
          </ns3:TrackPointExtension>
        </extensions>
      </trkpt>
      <trkpt lat="42.54257879219949245452880859375" lon="20.02693413756787776947021484375">
        <ele>1981</ele>
        <time>2026-06-19T10:23:23.000Z</time>
        <extensions>
          <ns3:TrackPointExtension>
            <ns3:atemp>20.0</ns3:atemp>
          </ns3:TrackPointExtension>
        </extensions>
      </trkpt>
      <trkpt lat="42.5425857491791248321533203125" lon="20.0269669108092784881591796875">
        <ele>1981.4000244140625</ele>
        <time>2026-06-19T10:23:24.000Z</time>
        <extensions>
          <ns3:TrackPointExtension>
            <ns3:atemp>20.0</ns3:atemp>
          </ns3:TrackPointExtension>
        </extensions>
      </trkpt>
      <trkpt lat="42.5425927899777889251708984375" lon="20.02699784003198146820068359375">
        <ele>1981.5999755859375</ele>
        <time>2026-06-19T10:23:25.000Z</time>
        <extensions>
          <ns3:TrackPointExtension>
            <ns3:atemp>20.0</ns3:atemp>
          </ns3:TrackPointExtension>
        </extensions>
      </trkpt>
      <trkpt lat="42.54259840585291385650634765625" lon="20.0270341336727142333984375">
        <ele>1981.800048828125</ele>
        <time>2026-06-19T10:23:26.000Z</time>
        <extensions>
          <ns3:TrackPointExtension>
            <ns3:atemp>20.0</ns3:atemp>
          </ns3:TrackPointExtension>
        </extensions>
      </trkpt>
      <trkpt lat="42.54260963760316371917724609375" lon="20.027067661285400390625">
        <ele>1982</ele>
        <time>2026-06-19T10:23:27.000Z</time>
        <extensions>
          <ns3:TrackPointExtension>
            <ns3:atemp>20.0</ns3:atemp>
          </ns3:TrackPointExtension>
        </extensions>
      </trkpt>
      <trkpt lat="42.54262070171535015106201171875" lon="20.02710144035518169403076171875">
        <ele>1982.199951171875</ele>
        <time>2026-06-19T10:23:28.000Z</time>
        <extensions>
          <ns3:TrackPointExtension>
            <ns3:atemp>20.0</ns3:atemp>
          </ns3:TrackPointExtension>
        </extensions>
      </trkpt>
      <trkpt lat="42.54263159818947315216064453125" lon="20.02713563852012157440185546875">
        <ele>1982.4000244140625</ele>
        <time>2026-06-19T10:23:29.000Z</time>
        <extensions>
          <ns3:TrackPointExtension>
            <ns3:atemp>20.0</ns3:atemp>
          </ns3:TrackPointExtension>
        </extensions>
      </trkpt>
      <trkpt lat="42.542643584311008453369140625" lon="20.02717117778956890106201171875">
        <ele>1982.5999755859375</ele>
        <time>2026-06-19T10:23:30.000Z</time>
        <extensions>
          <ns3:TrackPointExtension>
            <ns3:atemp>20.0</ns3:atemp>
          </ns3:TrackPointExtension>
        </extensions>
      </trkpt>
      <trkpt lat="42.54265238530933856964111328125" lon="20.027211494743824005126953125">
        <ele>1982.800048828125</ele>
        <time>2026-06-19T10:23:31.000Z</time>
        <extensions>
          <ns3:TrackPointExtension>
            <ns3:atemp>20.0</ns3:atemp>
          </ns3:TrackPointExtension>
        </extensions>
      </trkpt>
      <trkpt lat="42.54265825264155864715576171875" lon="20.02725206315517425537109375">
        <ele>1983</ele>
        <time>2026-06-19T10:23:32.000Z</time>
        <extensions>
          <ns3:TrackPointExtension>
            <ns3:atemp>20.0</ns3:atemp>
          </ns3:TrackPointExtension>
        </extensions>
      </trkpt>
      <trkpt lat="42.542664706707000732421875" lon="20.0272969901561737060546875">
        <ele>1983.4000244140625</ele>
        <time>2026-06-19T10:23:33.000Z</time>
        <extensions>
          <ns3:TrackPointExtension>
            <ns3:atemp>20.0</ns3:atemp>
          </ns3:TrackPointExtension>
        </extensions>
      </trkpt>
      <trkpt lat="42.54266403615474700927734375" lon="20.02733211033046245574951171875">
        <ele>1983.800048828125</ele>
        <time>2026-06-19T10:23:34.000Z</time>
        <extensions>
          <ns3:TrackPointExtension>
            <ns3:atemp>20.0</ns3:atemp>
          </ns3:TrackPointExtension>
        </extensions>
      </trkpt>
      <trkpt lat="42.54266529344022274017333984375" lon="20.02736429683864116668701171875">
        <ele>1984.199951171875</ele>
        <time>2026-06-19T10:23:35.000Z</time>
        <extensions>
          <ns3:TrackPointExtension>
            <ns3:atemp>20.0</ns3:atemp>
          </ns3:TrackPointExtension>
        </extensions>
      </trkpt>
      <trkpt lat="42.54266914911568164825439453125" lon="20.0273974053561687469482421875">
        <ele>1984.5999755859375</ele>
        <time>2026-06-19T10:23:36.000Z</time>
        <extensions>
          <ns3:TrackPointExtension>
            <ns3:atemp>20.0</ns3:atemp>
          </ns3:TrackPointExtension>
        </extensions>
      </trkpt>
      <trkpt lat="42.5426714122295379638671875" lon="20.027429759502410888671875">
        <ele>1985</ele>
        <time>2026-06-19T10:23:37.000Z</time>
        <extensions>
          <ns3:TrackPointExtension>
            <ns3:atemp>20.0</ns3:atemp>
          </ns3:TrackPointExtension>
        </extensions>
      </trkpt>
      <trkpt lat="42.5426705740392208099365234375" lon="20.0274567492306232452392578125">
        <ele>1985.199951171875</ele>
        <time>2026-06-19T10:23:38.000Z</time>
        <extensions>
          <ns3:TrackPointExtension>
            <ns3:atemp>20.0</ns3:atemp>
          </ns3:TrackPointExtension>
        </extensions>
      </trkpt>
      <trkpt lat="42.5426715798676013946533203125" lon="20.0274847447872161865234375">
        <ele>1985.4000244140625</ele>
        <time>2026-06-19T10:23:39.000Z</time>
        <extensions>
          <ns3:TrackPointExtension>
            <ns3:atemp>20.0</ns3:atemp>
          </ns3:TrackPointExtension>
        </extensions>
      </trkpt>
      <trkpt lat="42.54266831092536449432373046875" lon="20.02751919440925121307373046875">
        <ele>1985.5999755859375</ele>
        <time>2026-06-19T10:23:40.000Z</time>
        <extensions>
          <ns3:TrackPointExtension>
            <ns3:atemp>20.0</ns3:atemp>
          </ns3:TrackPointExtension>
        </extensions>
      </trkpt>
      <trkpt lat="42.542665712535381317138671875" lon="20.0275549851357936859130859375">
        <ele>1985.800048828125</ele>
        <time>2026-06-19T10:23:41.000Z</time>
        <extensions>
          <ns3:TrackPointExtension>
            <ns3:atemp>20.0</ns3:atemp>
          </ns3:TrackPointExtension>
        </extensions>
      </trkpt>
      <trkpt lat="42.54266059957444667816162109375" lon="20.02759144641458988189697265625">
        <ele>1986</ele>
        <time>2026-06-19T10:23:42.000Z</time>
        <extensions>
          <ns3:TrackPointExtension>
            <ns3:atemp>20.0</ns3:atemp>
          </ns3:TrackPointExtension>
        </extensions>
      </trkpt>
      <trkpt lat="42.5426531396806240081787109375" lon="20.02763000316917896270751953125">
        <ele>1986.199951171875</ele>
        <time>2026-06-19T10:23:43.000Z</time>
        <extensions>
          <ns3:TrackPointExtension>
            <ns3:atemp>20.0</ns3:atemp>
          </ns3:TrackPointExtension>
        </extensions>
      </trkpt>
      <trkpt lat="42.54264936782419681549072265625" lon="20.02766453661024570465087890625">
        <ele>1986.4000244140625</ele>
        <time>2026-06-19T10:23:44.000Z</time>
        <extensions>
          <ns3:TrackPointExtension>
            <ns3:atemp>20.0</ns3:atemp>
          </ns3:TrackPointExtension>
        </extensions>
      </trkpt>
      <trkpt lat="42.54264534451067447662353515625" lon="20.027696974575519561767578125">
        <ele>1986.5999755859375</ele>
        <time>2026-06-19T10:23:45.000Z</time>
        <extensions>
          <ns3:TrackPointExtension>
            <ns3:atemp>20.0</ns3:atemp>
          </ns3:TrackPointExtension>
        </extensions>
      </trkpt>
      <trkpt lat="42.54264215938746929168701171875" lon="20.02772740088403224945068359375">
        <ele>1987</ele>
        <time>2026-06-19T10:23:46.000Z</time>
        <extensions>
          <ns3:TrackPointExtension>
            <ns3:atemp>20.0</ns3:atemp>
          </ns3:TrackPointExtension>
        </extensions>
      </trkpt>
      <trkpt lat="42.54263645969331264495849609375" lon="20.0277635268867015838623046875">
        <ele>1987</ele>
        <time>2026-06-19T10:23:47.000Z</time>
        <extensions>
          <ns3:TrackPointExtension>
            <ns3:atemp>20.0</ns3:atemp>
          </ns3:TrackPointExtension>
        </extensions>
      </trkpt>
      <trkpt lat="42.54263277165591716766357421875" lon="20.02780149690806865692138671875">
        <ele>1987.199951171875</ele>
        <time>2026-06-19T10:23:48.000Z</time>
        <extensions>
          <ns3:TrackPointExtension>
            <ns3:atemp>20.0</ns3:atemp>
          </ns3:TrackPointExtension>
        </extensions>
      </trkpt>
      <trkpt lat="42.54262925125658512115478515625" lon="20.02784860320389270782470703125">
        <ele>1987.4000244140625</ele>
        <time>2026-06-19T10:23:49.000Z</time>
        <extensions>
          <ns3:TrackPointExtension>
            <ns3:atemp>20.0</ns3:atemp>
          </ns3:TrackPointExtension>
        </extensions>
      </trkpt>
      <trkpt lat="42.54262288101017475128173828125" lon="20.027896128594875335693359375">
        <ele>1987.4000244140625</ele>
        <time>2026-06-19T10:23:50.000Z</time>
        <extensions>
          <ns3:TrackPointExtension>
            <ns3:atemp>20.0</ns3:atemp>
          </ns3:TrackPointExtension>
        </extensions>
      </trkpt>
      <trkpt lat="42.5426209531724452972412109375" lon="20.02793946303427219390869140625">
        <ele>1987.5999755859375</ele>
        <time>2026-06-19T10:23:51.000Z</time>
        <extensions>
          <ns3:TrackPointExtension>
            <ns3:atemp>20.0</ns3:atemp>
          </ns3:TrackPointExtension>
        </extensions>
      </trkpt>
      <trkpt lat="42.5426137447357177734375" lon="20.0279841385781764984130859375">
        <ele>1987.5999755859375</ele>
        <time>2026-06-19T10:23:52.000Z</time>
        <extensions>
          <ns3:TrackPointExtension>
            <ns3:atemp>20.0</ns3:atemp>
          </ns3:TrackPointExtension>
        </extensions>
      </trkpt>
      <trkpt lat="42.54260905086994171142578125" lon="20.0280310772359371185302734375">
        <ele>1987.800048828125</ele>
        <time>2026-06-19T10:23:53.000Z</time>
        <extensions>
          <ns3:TrackPointExtension>
            <ns3:atemp>20.0</ns3:atemp>
          </ns3:TrackPointExtension>
        </extensions>
      </trkpt>
      <trkpt lat="42.5426119007170200347900390625" lon="20.02807558514177799224853515625">
        <ele>1987.800048828125</ele>
        <time>2026-06-19T10:23:54.000Z</time>
        <extensions>
          <ns3:TrackPointExtension>
            <ns3:atemp>20.0</ns3:atemp>
          </ns3:TrackPointExtension>
        </extensions>
      </trkpt>
      <trkpt lat="42.54261600784957408905029296875" lon="20.028116740286350250244140625">
        <ele>1988</ele>
        <time>2026-06-19T10:23:55.000Z</time>
        <extensions>
          <ns3:TrackPointExtension>
            <ns3:atemp>20.0</ns3:atemp>
          </ns3:TrackPointExtension>
        </extensions>
      </trkpt>
      <trkpt lat="42.54262271337211132049560546875" lon="20.02815194427967071533203125">
        <ele>1988.199951171875</ele>
        <time>2026-06-19T10:23:56.000Z</time>
        <extensions>
          <ns3:TrackPointExtension>
            <ns3:atemp>20.0</ns3:atemp>
          </ns3:TrackPointExtension>
        </extensions>
      </trkpt>
      <trkpt lat="42.54263176582753658294677734375" lon="20.0281889922916889190673828125">
        <ele>1988.4000244140625</ele>
        <time>2026-06-19T10:23:57.000Z</time>
        <extensions>
          <ns3:TrackPointExtension>
            <ns3:atemp>20.0</ns3:atemp>
          </ns3:TrackPointExtension>
        </extensions>
      </trkpt>
      <trkpt lat="42.5426370464265346527099609375" lon="20.02822461538016796112060546875">
        <ele>1988.4000244140625</ele>
        <time>2026-06-19T10:23:58.000Z</time>
        <extensions>
          <ns3:TrackPointExtension>
            <ns3:atemp>20.0</ns3:atemp>
          </ns3:TrackPointExtension>
        </extensions>
      </trkpt>
      <trkpt lat="42.5426444225013256072998046875" lon="20.028256215155124664306640625">
        <ele>1988.5999755859375</ele>
        <time>2026-06-19T10:23:59.000Z</time>
        <extensions>
          <ns3:TrackPointExtension>
            <ns3:atemp>20.0</ns3:atemp>
          </ns3:TrackPointExtension>
        </extensions>
      </trkpt>
      <trkpt lat="42.54264794290065765380859375" lon="20.0282858870923519134521484375">
        <ele>1988.5999755859375</ele>
        <time>2026-06-19T10:24:00.000Z</time>
        <extensions>
          <ns3:TrackPointExtension>
            <ns3:atemp>20.0</ns3:atemp>
          </ns3:TrackPointExtension>
        </extensions>
      </trkpt>
      <trkpt lat="42.54265238530933856964111328125" lon="20.02831329591572284698486328125">
        <ele>1988.5999755859375</ele>
        <time>2026-06-19T10:24:01.000Z</time>
        <extensions>
          <ns3:TrackPointExtension>
            <ns3:atemp>20.0</ns3:atemp>
          </ns3:TrackPointExtension>
        </extensions>
      </trkpt>
      <trkpt lat="42.542656324803829193115234375" lon="20.02833995036780834197998046875">
        <ele>1988.800048828125</ele>
        <time>2026-06-19T10:24:02.000Z</time>
        <extensions>
          <ns3:TrackPointExtension>
            <ns3:atemp>20.0</ns3:atemp>
          </ns3:TrackPointExtension>
        </extensions>
      </trkpt>
      <trkpt lat="42.5426678918302059173583984375" lon="20.02835101447999477386474609375">
        <ele>1989</ele>
        <time>2026-06-19T10:24:03.000Z</time>
        <extensions>
          <ns3:TrackPointExtension>
            <ns3:atemp>20.0</ns3:atemp>
          </ns3:TrackPointExtension>
        </extensions>
      </trkpt>
      <trkpt lat="42.54267275333404541015625" lon="20.02835051156580448150634765625">
        <ele>1989.4000244140625</ele>
        <time>2026-06-19T10:24:04.000Z</time>
        <extensions>
          <ns3:TrackPointExtension>
            <ns3:atemp>20.0</ns3:atemp>
          </ns3:TrackPointExtension>
        </extensions>
      </trkpt>
      <trkpt lat="42.54267275333404541015625" lon="20.02835051156580448150634765625">
        <ele>1989.5999755859375</ele>
        <time>2026-06-19T10:24:05.000Z</time>
        <extensions>
          <ns3:TrackPointExtension>
            <ns3:atemp>20.0</ns3:atemp>
          </ns3:TrackPointExtension>
        </extensions>
      </trkpt>
      <trkpt lat="42.54267275333404541015625" lon="20.02835051156580448150634765625">
        <ele>1989.800048828125</ele>
        <time>2026-06-19T10:24:06.000Z</time>
        <extensions>
          <ns3:TrackPointExtension>
            <ns3:atemp>20.0</ns3:atemp>
          </ns3:TrackPointExtension>
        </extensions>
      </trkpt>
      <trkpt lat="42.54267275333404541015625" lon="20.02835051156580448150634765625">
        <ele>1990</ele>
        <time>2026-06-19T10:24:07.000Z</time>
        <extensions>
          <ns3:TrackPointExtension>
            <ns3:atemp>20.0</ns3:atemp>
          </ns3:TrackPointExtension>
        </extensions>
      </trkpt>
      <trkpt lat="42.54267275333404541015625" lon="20.02835051156580448150634765625">
        <ele>1990</ele>
        <time>2026-06-19T10:24:08.000Z</time>
        <extensions>
          <ns3:TrackPointExtension>
            <ns3:atemp>20.0</ns3:atemp>
          </ns3:TrackPointExtension>
        </extensions>
      </trkpt>
      <trkpt lat="42.54267275333404541015625" lon="20.02835051156580448150634765625">
        <ele>1989.800048828125</ele>
        <time>2026-06-19T10:24:09.000Z</time>
        <extensions>
          <ns3:TrackPointExtension>
            <ns3:atemp>20.0</ns3:atemp>
          </ns3:TrackPointExtension>
        </extensions>
      </trkpt>
      <trkpt lat="42.54267275333404541015625" lon="20.02835051156580448150634765625">
        <ele>1989.800048828125</ele>
        <time>2026-06-19T10:24:10.000Z</time>
        <extensions>
          <ns3:TrackPointExtension>
            <ns3:atemp>20.0</ns3:atemp>
          </ns3:TrackPointExtension>
        </extensions>
      </trkpt>
      <trkpt lat="42.54267275333404541015625" lon="20.02835051156580448150634765625">
        <ele>1989.5999755859375</ele>
        <time>2026-06-19T10:24:11.000Z</time>
        <extensions>
          <ns3:TrackPointExtension>
            <ns3:atemp>20.0</ns3:atemp>
          </ns3:TrackPointExtension>
        </extensions>
      </trkpt>
      <trkpt lat="42.54267275333404541015625" lon="20.02835051156580448150634765625">
        <ele>1989.4000244140625</ele>
        <time>2026-06-19T10:24:12.000Z</time>
        <extensions>
          <ns3:TrackPointExtension>
            <ns3:atemp>20.0</ns3:atemp>
          </ns3:TrackPointExtension>
        </extensions>
      </trkpt>
      <trkpt lat="42.54267275333404541015625" lon="20.02835051156580448150634765625">
        <ele>1989.199951171875</ele>
        <time>2026-06-19T10:24:13.000Z</time>
        <extensions>
          <ns3:TrackPointExtension>
            <ns3:atemp>20.0</ns3:atemp>
          </ns3:TrackPointExtension>
        </extensions>
      </trkpt>
      <trkpt lat="42.54267275333404541015625" lon="20.02835051156580448150634765625">
        <ele>1989.199951171875</ele>
        <time>2026-06-19T10:24:14.000Z</time>
        <extensions>
          <ns3:TrackPointExtension>
            <ns3:atemp>20.0</ns3:atemp>
          </ns3:TrackPointExtension>
        </extensions>
      </trkpt>
      <trkpt lat="42.54267275333404541015625" lon="20.02835051156580448150634765625">
        <ele>1989.199951171875</ele>
        <time>2026-06-19T10:24:15.000Z</time>
        <extensions>
          <ns3:TrackPointExtension>
            <ns3:atemp>20.0</ns3:atemp>
          </ns3:TrackPointExtension>
        </extensions>
      </trkpt>
      <trkpt lat="42.54267275333404541015625" lon="20.02835051156580448150634765625">
        <ele>1989.199951171875</ele>
        <time>2026-06-19T10:24:16.000Z</time>
        <extensions>
          <ns3:TrackPointExtension>
            <ns3:atemp>20.0</ns3:atemp>
          </ns3:TrackPointExtension>
        </extensions>
      </trkpt>
      <trkpt lat="42.54267275333404541015625" lon="20.02835051156580448150634765625">
        <ele>1989.199951171875</ele>
        <time>2026-06-19T10:24:17.000Z</time>
        <extensions>
          <ns3:TrackPointExtension>
            <ns3:atemp>20.0</ns3:atemp>
          </ns3:TrackPointExtension>
        </extensions>
      </trkpt>
      <trkpt lat="42.54267275333404541015625" lon="20.02835051156580448150634765625">
        <ele>1989.199951171875</ele>
        <time>2026-06-19T10:24:18.000Z</time>
        <extensions>
          <ns3:TrackPointExtension>
            <ns3:atemp>20.0</ns3:atemp>
          </ns3:TrackPointExtension>
        </extensions>
      </trkpt>
      <trkpt lat="42.54267275333404541015625" lon="20.02835051156580448150634765625">
        <ele>1989</ele>
        <time>2026-06-19T10:24:19.000Z</time>
        <extensions>
          <ns3:TrackPointExtension>
            <ns3:atemp>20.0</ns3:atemp>
          </ns3:TrackPointExtension>
        </extensions>
      </trkpt>
      <trkpt lat="42.54267275333404541015625" lon="20.02835051156580448150634765625">
        <ele>1989</ele>
        <time>2026-06-19T10:24:20.000Z</time>
        <extensions>
          <ns3:TrackPointExtension>
            <ns3:atemp>20.0</ns3:atemp>
          </ns3:TrackPointExtension>
        </extensions>
      </trkpt>
      <trkpt lat="42.54267275333404541015625" lon="20.02835051156580448150634765625">
        <ele>1989</ele>
        <time>2026-06-19T10:24:21.000Z</time>
        <extensions>
          <ns3:TrackPointExtension>
            <ns3:atemp>20.0</ns3:atemp>
          </ns3:TrackPointExtension>
        </extensions>
      </trkpt>
      <trkpt lat="42.54267275333404541015625" lon="20.02835051156580448150634765625">
        <ele>1989</ele>
        <time>2026-06-19T10:24:22.000Z</time>
        <extensions>
          <ns3:TrackPointExtension>
            <ns3:atemp>20.0</ns3:atemp>
          </ns3:TrackPointExtension>
        </extensions>
      </trkpt>
      <trkpt lat="42.54267275333404541015625" lon="20.02835051156580448150634765625">
        <ele>1989</ele>
        <time>2026-06-19T10:24:23.000Z</time>
        <extensions>
          <ns3:TrackPointExtension>
            <ns3:atemp>20.0</ns3:atemp>
          </ns3:TrackPointExtension>
        </extensions>
      </trkpt>
      <trkpt lat="42.54267275333404541015625" lon="20.02835051156580448150634765625">
        <ele>1988.800048828125</ele>
        <time>2026-06-19T10:24:24.000Z</time>
        <extensions>
          <ns3:TrackPointExtension>
            <ns3:atemp>20.0</ns3:atemp>
          </ns3:TrackPointExtension>
        </extensions>
      </trkpt>
      <trkpt lat="42.54267275333404541015625" lon="20.02835051156580448150634765625">
        <ele>1988.800048828125</ele>
        <time>2026-06-19T10:24:25.000Z</time>
        <extensions>
          <ns3:TrackPointExtension>
            <ns3:atemp>20.0</ns3:atemp>
          </ns3:TrackPointExtension>
        </extensions>
      </trkpt>
      <trkpt lat="42.54267275333404541015625" lon="20.02835051156580448150634765625">
        <ele>1988.800048828125</ele>
        <time>2026-06-19T10:24:26.000Z</time>
        <extensions>
          <ns3:TrackPointExtension>
            <ns3:atemp>20.0</ns3:atemp>
          </ns3:TrackPointExtension>
        </extensions>
      </trkpt>
      <trkpt lat="42.54267275333404541015625" lon="20.02835051156580448150634765625">
        <ele>1988.5999755859375</ele>
        <time>2026-06-19T10:24:27.000Z</time>
        <extensions>
          <ns3:TrackPointExtension>
            <ns3:atemp>20.0</ns3:atemp>
          </ns3:TrackPointExtension>
        </extensions>
      </trkpt>
      <trkpt lat="42.54267275333404541015625" lon="20.02835051156580448150634765625">
        <ele>1988.5999755859375</ele>
        <time>2026-06-19T10:24:28.000Z</time>
        <extensions>
          <ns3:TrackPointExtension>
            <ns3:atemp>20.0</ns3:atemp>
          </ns3:TrackPointExtension>
        </extensions>
      </trkpt>
      <trkpt lat="42.54267275333404541015625" lon="20.02835051156580448150634765625">
        <ele>1988.5999755859375</ele>
        <time>2026-06-19T10:24:29.000Z</time>
        <extensions>
          <ns3:TrackPointExtension>
            <ns3:atemp>20.0</ns3:atemp>
          </ns3:TrackPointExtension>
        </extensions>
      </trkpt>
      <trkpt lat="42.54267275333404541015625" lon="20.02835051156580448150634765625">
        <ele>1988.5999755859375</ele>
        <time>2026-06-19T10:24:30.000Z</time>
        <extensions>
          <ns3:TrackPointExtension>
            <ns3:atemp>20.0</ns3:atemp>
          </ns3:TrackPointExtension>
        </extensions>
      </trkpt>
      <trkpt lat="42.54267275333404541015625" lon="20.02835051156580448150634765625">
        <ele>1988.5999755859375</ele>
        <time>2026-06-19T10:24:31.000Z</time>
        <extensions>
          <ns3:TrackPointExtension>
            <ns3:atemp>20.0</ns3:atemp>
          </ns3:TrackPointExtension>
        </extensions>
      </trkpt>
      <trkpt lat="42.54267275333404541015625" lon="20.02835051156580448150634765625">
        <ele>1988.5999755859375</ele>
        <time>2026-06-19T10:24:32.000Z</time>
        <extensions>
          <ns3:TrackPointExtension>
            <ns3:atemp>20.0</ns3:atemp>
          </ns3:TrackPointExtension>
        </extensions>
      </trkpt>
      <trkpt lat="42.54267275333404541015625" lon="20.02835051156580448150634765625">
        <ele>1988.5999755859375</ele>
        <time>2026-06-19T10:24:33.000Z</time>
        <extensions>
          <ns3:TrackPointExtension>
            <ns3:atemp>20.0</ns3:atemp>
          </ns3:TrackPointExtension>
        </extensions>
      </trkpt>
      <trkpt lat="42.54267275333404541015625" lon="20.02835051156580448150634765625">
        <ele>1988.5999755859375</ele>
        <time>2026-06-19T10:24:34.000Z</time>
        <extensions>
          <ns3:TrackPointExtension>
            <ns3:atemp>20.0</ns3:atemp>
          </ns3:TrackPointExtension>
        </extensions>
      </trkpt>
      <trkpt lat="42.54267275333404541015625" lon="20.02835051156580448150634765625">
        <ele>1988.5999755859375</ele>
        <time>2026-06-19T10:24:35.000Z</time>
        <extensions>
          <ns3:TrackPointExtension>
            <ns3:atemp>20.0</ns3:atemp>
          </ns3:TrackPointExtension>
        </extensions>
      </trkpt>
      <trkpt lat="42.54267275333404541015625" lon="20.02835051156580448150634765625">
        <ele>1988.4000244140625</ele>
        <time>2026-06-19T10:24:36.000Z</time>
        <extensions>
          <ns3:TrackPointExtension>
            <ns3:atemp>20.0</ns3:atemp>
          </ns3:TrackPointExtension>
        </extensions>
      </trkpt>
      <trkpt lat="42.54267275333404541015625" lon="20.02835051156580448150634765625">
        <ele>1988.4000244140625</ele>
        <time>2026-06-19T10:24:37.000Z</time>
        <extensions>
          <ns3:TrackPointExtension>
            <ns3:atemp>20.0</ns3:atemp>
          </ns3:TrackPointExtension>
        </extensions>
      </trkpt>
      <trkpt lat="42.54267275333404541015625" lon="20.02835051156580448150634765625">
        <ele>1988.4000244140625</ele>
        <time>2026-06-19T10:24:38.000Z</time>
        <extensions>
          <ns3:TrackPointExtension>
            <ns3:atemp>20.0</ns3:atemp>
          </ns3:TrackPointExtension>
        </extensions>
      </trkpt>
      <trkpt lat="42.54267275333404541015625" lon="20.02835051156580448150634765625">
        <ele>1988.199951171875</ele>
        <time>2026-06-19T10:24:39.000Z</time>
        <extensions>
          <ns3:TrackPointExtension>
            <ns3:atemp>20.0</ns3:atemp>
          </ns3:TrackPointExtension>
        </extensions>
      </trkpt>
      <trkpt lat="42.54267275333404541015625" lon="20.02835051156580448150634765625">
        <ele>1988.199951171875</ele>
        <time>2026-06-19T10:24:40.000Z</time>
        <extensions>
          <ns3:TrackPointExtension>
            <ns3:atemp>20.0</ns3:atemp>
          </ns3:TrackPointExtension>
        </extensions>
      </trkpt>
      <trkpt lat="42.54267275333404541015625" lon="20.02835051156580448150634765625">
        <ele>1988.199951171875</ele>
        <time>2026-06-19T10:24:41.000Z</time>
        <extensions>
          <ns3:TrackPointExtension>
            <ns3:atemp>20.0</ns3:atemp>
          </ns3:TrackPointExtension>
        </extensions>
      </trkpt>
      <trkpt lat="42.54267275333404541015625" lon="20.02835051156580448150634765625">
        <ele>1988.199951171875</ele>
        <time>2026-06-19T10:24:42.000Z</time>
        <extensions>
          <ns3:TrackPointExtension>
            <ns3:atemp>20.0</ns3:atemp>
          </ns3:TrackPointExtension>
        </extensions>
      </trkpt>
      <trkpt lat="42.54266764037311077117919921875" lon="20.0283536128699779510498046875">
        <ele>1988.199951171875</ele>
        <time>2026-06-19T10:24:43.000Z</time>
        <extensions>
          <ns3:TrackPointExtension>
            <ns3:atemp>20.0</ns3:atemp>
          </ns3:TrackPointExtension>
        </extensions>
      </trkpt>
      <trkpt lat="42.54266110248863697052001953125" lon="20.02835352905094623565673828125">
        <ele>1988.199951171875</ele>
        <time>2026-06-19T10:24:44.000Z</time>
        <extensions>
          <ns3:TrackPointExtension>
            <ns3:atemp>20.0</ns3:atemp>
          </ns3:TrackPointExtension>
        </extensions>
      </trkpt>
      <trkpt lat="42.54266713745892047882080078125" lon="20.02835151739418506622314453125">
        <ele>1988.199951171875</ele>
        <time>2026-06-19T10:24:45.000Z</time>
        <extensions>
          <ns3:TrackPointExtension>
            <ns3:atemp>20.0</ns3:atemp>
          </ns3:TrackPointExtension>
        </extensions>
      </trkpt>
      <trkpt lat="42.54266940057277679443359375" lon="20.02835034392774105072021484375">
        <ele>1988.199951171875</ele>
        <time>2026-06-19T10:24:46.000Z</time>
        <extensions>
          <ns3:TrackPointExtension>
            <ns3:atemp>20.0</ns3:atemp>
          </ns3:TrackPointExtension>
        </extensions>
      </trkpt>
      <trkpt lat="42.54267275333404541015625" lon="20.02835051156580448150634765625">
        <ele>1988.5999755859375</ele>
        <time>2026-06-19T10:24:47.000Z</time>
        <extensions>
          <ns3:TrackPointExtension>
            <ns3:atemp>20.0</ns3:atemp>
          </ns3:TrackPointExtension>
        </extensions>
      </trkpt>
      <trkpt lat="42.54267275333404541015625" lon="20.02835051156580448150634765625">
        <ele>1989</ele>
        <time>2026-06-19T10:24:48.000Z</time>
        <extensions>
          <ns3:TrackPointExtension>
            <ns3:atemp>20.0</ns3:atemp>
          </ns3:TrackPointExtension>
        </extensions>
      </trkpt>
      <trkpt lat="42.54267275333404541015625" lon="20.02835051156580448150634765625">
        <ele>1989.4000244140625</ele>
        <time>2026-06-19T10:24:49.000Z</time>
        <extensions>
          <ns3:TrackPointExtension>
            <ns3:atemp>21.0</ns3:atemp>
          </ns3:TrackPointExtension>
        </extensions>
      </trkpt>
      <trkpt lat="42.54266797564923763275146484375" lon="20.0283475778996944427490234375">
        <ele>1990</ele>
        <time>2026-06-19T10:24:50.000Z</time>
        <extensions>
          <ns3:TrackPointExtension>
            <ns3:atemp>21.0</ns3:atemp>
          </ns3:TrackPointExtension>
        </extensions>
      </trkpt>
      <trkpt lat="42.5426870025694370269775390625" lon="20.02833575941622257232666015625">
        <ele>1990.199951171875</ele>
        <time>2026-06-19T10:24:51.000Z</time>
        <extensions>
          <ns3:TrackPointExtension>
            <ns3:atemp>21.0</ns3:atemp>
          </ns3:TrackPointExtension>
        </extensions>
      </trkpt>
      <trkpt lat="42.54270569421350955963134765625" lon="20.02832000143826007843017578125">
        <ele>1990.199951171875</ele>
        <time>2026-06-19T10:24:52.000Z</time>
        <extensions>
          <ns3:TrackPointExtension>
            <ns3:atemp>21.0</ns3:atemp>
          </ns3:TrackPointExtension>
        </extensions>
      </trkpt>
      <trkpt lat="42.54273117519915103912353515625" lon="20.0283135473728179931640625">
        <ele>1990</ele>
        <time>2026-06-19T10:24:53.000Z</time>
        <extensions>
          <ns3:TrackPointExtension>
            <ns3:atemp>21.0</ns3:atemp>
          </ns3:TrackPointExtension>
        </extensions>
      </trkpt>
      <trkpt lat="42.542766630649566650390625" lon="20.02831312827765941619873046875">
        <ele>1989.5999755859375</ele>
        <time>2026-06-19T10:24:54.000Z</time>
        <extensions>
          <ns3:TrackPointExtension>
            <ns3:atemp>21.0</ns3:atemp>
          </ns3:TrackPointExtension>
        </extensions>
      </trkpt>
      <trkpt lat="42.5428174249827861785888671875" lon="20.02830617129802703857421875">
        <ele>1989.4000244140625</ele>
        <time>2026-06-19T10:24:55.000Z</time>
        <extensions>
          <ns3:TrackPointExtension>
            <ns3:atemp>21.0</ns3:atemp>
          </ns3:TrackPointExtension>
        </extensions>
      </trkpt>
      <trkpt lat="42.54287048242986202239990234375" lon="20.02829401753842830657958984375">
        <ele>1989</ele>
        <time>2026-06-19T10:24:56.000Z</time>
        <extensions>
          <ns3:TrackPointExtension>
            <ns3:atemp>21.0</ns3:atemp>
          </ns3:TrackPointExtension>
        </extensions>
      </trkpt>
      <trkpt lat="42.54291884601116180419921875" lon="20.02827465534210205078125">
        <ele>1988.5999755859375</ele>
        <time>2026-06-19T10:24:57.000Z</time>
        <extensions>
          <ns3:TrackPointExtension>
            <ns3:atemp>21.0</ns3:atemp>
          </ns3:TrackPointExtension>
        </extensions>
      </trkpt>
      <trkpt lat="42.54296704195439815521240234375" lon="20.028268955647945404052734375">
        <ele>1988.4000244140625</ele>
        <time>2026-06-19T10:24:58.000Z</time>
        <extensions>
          <ns3:TrackPointExtension>
            <ns3:atemp>21.0</ns3:atemp>
          </ns3:TrackPointExtension>
        </extensions>
      </trkpt>
      <trkpt lat="42.5430093705654144287109375" lon="20.0282821990549564361572265625">
        <ele>1988</ele>
        <time>2026-06-19T10:24:59.000Z</time>
        <extensions>
          <ns3:TrackPointExtension>
            <ns3:atemp>21.0</ns3:atemp>
          </ns3:TrackPointExtension>
        </extensions>
      </trkpt>
      <trkpt lat="42.54304499365389347076416015625" lon="20.0282966159284114837646484375">
        <ele>1987.800048828125</ele>
        <time>2026-06-19T10:25:00.000Z</time>
        <extensions>
          <ns3:TrackPointExtension>
            <ns3:atemp>21.0</ns3:atemp>
          </ns3:TrackPointExtension>
        </extensions>
      </trkpt>
      <trkpt lat="42.54307567141950130462646484375" lon="20.02831145189702510833740234375">
        <ele>1987.800048828125</ele>
        <time>2026-06-19T10:25:01.000Z</time>
        <extensions>
          <ns3:TrackPointExtension>
            <ns3:atemp>21.0</ns3:atemp>
          </ns3:TrackPointExtension>
        </extensions>
      </trkpt>
      <trkpt lat="42.54310165531933307647705078125" lon="20.02832285128533840179443359375">
        <ele>1987.800048828125</ele>
        <time>2026-06-19T10:25:02.000Z</time>
        <extensions>
          <ns3:TrackPointExtension>
            <ns3:atemp>21.0</ns3:atemp>
          </ns3:TrackPointExtension>
        </extensions>
      </trkpt>
      <trkpt lat="42.54312898032367229461669921875" lon="20.02832888625562191009521484375">
        <ele>1988</ele>
        <time>2026-06-19T10:25:03.000Z</time>
        <extensions>
          <ns3:TrackPointExtension>
            <ns3:atemp>21.0</ns3:atemp>
          </ns3:TrackPointExtension>
        </extensions>
      </trkpt>
      <trkpt lat="42.54316234029829502105712890625" lon="20.0283314846456050872802734375">
        <ele>1988</ele>
        <time>2026-06-19T10:25:04.000Z</time>
        <extensions>
          <ns3:TrackPointExtension>
            <ns3:atemp>21.0</ns3:atemp>
          </ns3:TrackPointExtension>
        </extensions>
      </trkpt>
      <trkpt lat="42.54319268278777599334716796875" lon="20.02833827398717403411865234375">
        <ele>1988</ele>
        <time>2026-06-19T10:25:05.000Z</time>
        <extensions>
          <ns3:TrackPointExtension>
            <ns3:atemp>21.0</ns3:atemp>
          </ns3:TrackPointExtension>
        </extensions>
      </trkpt>
      <trkpt lat="42.54322486929595470428466796875" lon="20.02834129147231578826904296875">
        <ele>1988.199951171875</ele>
        <time>2026-06-19T10:25:06.000Z</time>
        <extensions>
          <ns3:TrackPointExtension>
            <ns3:atemp>21.0</ns3:atemp>
          </ns3:TrackPointExtension>
        </extensions>
      </trkpt>
      <trkpt lat="42.54325202666223049163818359375" lon="20.02834506332874298095703125">
        <ele>1988.4000244140625</ele>
        <time>2026-06-19T10:25:07.000Z</time>
        <extensions>
          <ns3:TrackPointExtension>
            <ns3:atemp>21.0</ns3:atemp>
          </ns3:TrackPointExtension>
        </extensions>
      </trkpt>
      <trkpt lat="42.54328488372266292572021484375" lon="20.02834632061421871185302734375">
        <ele>1988.5999755859375</ele>
        <time>2026-06-19T10:25:08.000Z</time>
        <extensions>
          <ns3:TrackPointExtension>
            <ns3:atemp>21.0</ns3:atemp>
          </ns3:TrackPointExtension>
        </extensions>
      </trkpt>
      <trkpt lat="42.54331723786890506744384765625" lon="20.02833894453942775726318359375">
        <ele>1988.800048828125</ele>
        <time>2026-06-19T10:25:09.000Z</time>
        <extensions>
          <ns3:TrackPointExtension>
            <ns3:atemp>21.0</ns3:atemp>
          </ns3:TrackPointExtension>
        </extensions>
      </trkpt>
      <trkpt lat="42.5433454848825931549072265625" lon="20.0283345021307468414306640625">
        <ele>1989</ele>
        <time>2026-06-19T10:25:10.000Z</time>
        <extensions>
          <ns3:TrackPointExtension>
            <ns3:atemp>21.0</ns3:atemp>
          </ns3:TrackPointExtension>
        </extensions>
      </trkpt>
      <trkpt lat="42.5433669425547122955322265625" lon="20.0283371843397617340087890625">
        <ele>1989</ele>
        <time>2026-06-19T10:25:11.000Z</time>
        <extensions>
          <ns3:TrackPointExtension>
            <ns3:atemp>21.0</ns3:atemp>
          </ns3:TrackPointExtension>
        </extensions>
      </trkpt>
      <trkpt lat="42.5433900766074657440185546875" lon="20.0283351726830005645751953125">
        <ele>1989</ele>
        <time>2026-06-19T10:25:12.000Z</time>
        <extensions>
          <ns3:TrackPointExtension>
            <ns3:atemp>21.0</ns3:atemp>
          </ns3:TrackPointExtension>
        </extensions>
      </trkpt>
      <trkpt lat="42.54341245628893375396728515625" lon="20.0283345021307468414306640625">
        <ele>1989</ele>
        <time>2026-06-19T10:25:13.000Z</time>
        <extensions>
          <ns3:TrackPointExtension>
            <ns3:atemp>21.0</ns3:atemp>
          </ns3:TrackPointExtension>
        </extensions>
      </trkpt>
      <trkpt lat="42.543428130447864532470703125" lon="20.0283331610262393951416015625">
        <ele>1989.199951171875</ele>
        <time>2026-06-19T10:25:14.000Z</time>
        <extensions>
          <ns3:TrackPointExtension>
            <ns3:atemp>21.0</ns3:atemp>
          </ns3:TrackPointExtension>
        </extensions>
      </trkpt>
      <trkpt lat="42.543442882597446441650390625" lon="20.028334669768810272216796875">
        <ele>1989.199951171875</ele>
        <time>2026-06-19T10:25:15.000Z</time>
        <extensions>
          <ns3:TrackPointExtension>
            <ns3:atemp>21.0</ns3:atemp>
          </ns3:TrackPointExtension>
        </extensions>
      </trkpt>
      <trkpt lat="42.5434599816799163818359375" lon="20.0283388607203960418701171875">
        <ele>1989</ele>
        <time>2026-06-19T10:25:16.000Z</time>
        <extensions>
          <ns3:TrackPointExtension>
            <ns3:atemp>21.0</ns3:atemp>
          </ns3:TrackPointExtension>
        </extensions>
      </trkpt>
      <trkpt lat="42.5434762425720691680908203125" lon="20.02834900282323360443115234375">
        <ele>1989</ele>
        <time>2026-06-19T10:25:17.000Z</time>
        <extensions>
          <ns3:TrackPointExtension>
            <ns3:atemp>21.0</ns3:atemp>
          </ns3:TrackPointExtension>
        </extensions>
      </trkpt>
      <trkpt lat="42.54349493421614170074462890625" lon="20.02836878411471843719482421875">
        <ele>1989</ele>
        <time>2026-06-19T10:25:18.000Z</time>
        <extensions>
          <ns3:TrackPointExtension>
            <ns3:atemp>21.0</ns3:atemp>
          </ns3:TrackPointExtension>
        </extensions>
      </trkpt>
      <trkpt lat="42.543519996106624603271484375" lon="20.028381608426570892333984375">
        <ele>1989</ele>
        <time>2026-06-19T10:25:19.000Z</time>
        <extensions>
          <ns3:TrackPointExtension>
            <ns3:atemp>21.0</ns3:atemp>
          </ns3:TrackPointExtension>
        </extensions>
      </trkpt>
      <trkpt lat="42.543540783226490020751953125" lon="20.0283794291317462921142578125">
        <ele>1989</ele>
        <time>2026-06-19T10:25:20.000Z</time>
        <extensions>
          <ns3:TrackPointExtension>
            <ns3:atemp>21.0</ns3:atemp>
          </ns3:TrackPointExtension>
        </extensions>
      </trkpt>
      <trkpt lat="42.543564923107624053955078125" lon="20.02838906832039356231689453125">
        <ele>1989</ele>
        <time>2026-06-19T10:25:21.000Z</time>
        <extensions>
          <ns3:TrackPointExtension>
            <ns3:atemp>21.0</ns3:atemp>
          </ns3:TrackPointExtension>
        </extensions>
      </trkpt>
      <trkpt lat="42.5435882247984409332275390625" lon="20.02840197645127773284912109375">
        <ele>1989.199951171875</ele>
        <time>2026-06-19T10:25:22.000Z</time>
        <extensions>
          <ns3:TrackPointExtension>
            <ns3:atemp>21.0</ns3:atemp>
          </ns3:TrackPointExtension>
        </extensions>
      </trkpt>
      <trkpt lat="42.543611191213130950927734375" lon="20.02842125482857227325439453125">
        <ele>1989.4000244140625</ele>
        <time>2026-06-19T10:25:23.000Z</time>
        <extensions>
          <ns3:TrackPointExtension>
            <ns3:atemp>21.0</ns3:atemp>
          </ns3:TrackPointExtension>
        </extensions>
      </trkpt>
      <trkpt lat="42.54363122396171092987060546875" lon="20.0284384377300739288330078125">
        <ele>1989.5999755859375</ele>
        <time>2026-06-19T10:25:24.000Z</time>
        <extensions>
          <ns3:TrackPointExtension>
            <ns3:atemp>21.0</ns3:atemp>
          </ns3:TrackPointExtension>
        </extensions>
      </trkpt>
      <trkpt lat="42.54364932887256145477294921875" lon="20.0284515134990215301513671875">
        <ele>1989.5999755859375</ele>
        <time>2026-06-19T10:25:25.000Z</time>
        <extensions>
          <ns3:TrackPointExtension>
            <ns3:atemp>21.0</ns3:atemp>
          </ns3:TrackPointExtension>
        </extensions>
      </trkpt>
      <trkpt lat="42.5436691939830780029296875" lon="20.028465092182159423828125">
        <ele>1989.800048828125</ele>
        <time>2026-06-19T10:25:26.000Z</time>
        <extensions>
          <ns3:TrackPointExtension>
            <ns3:atemp>21.0</ns3:atemp>
          </ns3:TrackPointExtension>
        </extensions>
      </trkpt>
      <trkpt lat="42.543687634170055389404296875" lon="20.02847841940820217132568359375">
        <ele>1990</ele>
        <time>2026-06-19T10:25:27.000Z</time>
        <extensions>
          <ns3:TrackPointExtension>
            <ns3:atemp>21.0</ns3:atemp>
          </ns3:TrackPointExtension>
        </extensions>
      </trkpt>
      <trkpt lat="42.54370716400444507598876953125" lon="20.028486885130405426025390625">
        <ele>1990</ele>
        <time>2026-06-19T10:25:28.000Z</time>
        <extensions>
          <ns3:TrackPointExtension>
            <ns3:atemp>21.0</ns3:atemp>
          </ns3:TrackPointExtension>
        </extensions>
      </trkpt>
      <trkpt lat="42.54372459836304187774658203125" lon="20.028502307832241058349609375">
        <ele>1990.199951171875</ele>
        <time>2026-06-19T10:25:29.000Z</time>
        <extensions>
          <ns3:TrackPointExtension>
            <ns3:atemp>21.0</ns3:atemp>
          </ns3:TrackPointExtension>
        </extensions>
      </trkpt>
      <trkpt lat="42.54374236799776554107666015625" lon="20.0285195745527744293212890625">
        <ele>1990.4000244140625</ele>
        <time>2026-06-19T10:25:30.000Z</time>
        <extensions>
          <ns3:TrackPointExtension>
            <ns3:atemp>21.0</ns3:atemp>
          </ns3:TrackPointExtension>
        </extensions>
      </trkpt>
      <trkpt lat="42.5437622331082820892333984375" lon="20.028533823788166046142578125">
        <ele>1990.5999755859375</ele>
        <time>2026-06-19T10:25:31.000Z</time>
        <extensions>
          <ns3:TrackPointExtension>
            <ns3:atemp>21.0</ns3:atemp>
          </ns3:TrackPointExtension>
        </extensions>
      </trkpt>
      <trkpt lat="42.5437806732952594757080078125" lon="20.02854631282389163970947265625">
        <ele>1991</ele>
        <time>2026-06-19T10:25:32.000Z</time>
        <extensions>
          <ns3:TrackPointExtension>
            <ns3:atemp>21.0</ns3:atemp>
          </ns3:TrackPointExtension>
        </extensions>
      </trkpt>
      <trkpt lat="42.5438021309673786163330078125" lon="20.02855972386896610260009765625">
        <ele>1991.199951171875</ele>
        <time>2026-06-19T10:25:33.000Z</time>
        <extensions>
          <ns3:TrackPointExtension>
            <ns3:atemp>21.0</ns3:atemp>
          </ns3:TrackPointExtension>
        </extensions>
      </trkpt>
      <trkpt lat="42.5438262708485126495361328125" lon="20.02857732586562633514404296875">
        <ele>1991.199951171875</ele>
        <time>2026-06-19T10:25:34.000Z</time>
        <extensions>
          <ns3:TrackPointExtension>
            <ns3:atemp>21.0</ns3:atemp>
          </ns3:TrackPointExtension>
        </extensions>
      </trkpt>
      <trkpt lat="42.54385082982480525970458984375" lon="20.02859693951904773712158203125">
        <ele>1991.199951171875</ele>
        <time>2026-06-19T10:25:35.000Z</time>
        <extensions>
          <ns3:TrackPointExtension>
            <ns3:atemp>21.0</ns3:atemp>
          </ns3:TrackPointExtension>
        </extensions>
      </trkpt>
      <trkpt lat="42.54388318397104740142822265625" lon="20.02861102111637592315673828125">
        <ele>1991.199951171875</ele>
        <time>2026-06-19T10:25:36.000Z</time>
        <extensions>
          <ns3:TrackPointExtension>
            <ns3:atemp>21.0</ns3:atemp>
          </ns3:TrackPointExtension>
        </extensions>
      </trkpt>
      <trkpt lat="42.5439221598207950592041015625" lon="20.0286214984953403472900390625">
        <ele>1991.4000244140625</ele>
        <time>2026-06-19T10:25:37.000Z</time>
        <extensions>
          <ns3:TrackPointExtension>
            <ns3:atemp>21.0</ns3:atemp>
          </ns3:TrackPointExtension>
        </extensions>
      </trkpt>
      <trkpt lat="42.54396080039441585540771484375" lon="20.0286442972719669342041015625">
        <ele>1991.4000244140625</ele>
        <time>2026-06-19T10:25:38.000Z</time>
        <extensions>
          <ns3:TrackPointExtension>
            <ns3:atemp>21.0</ns3:atemp>
          </ns3:TrackPointExtension>
        </extensions>
      </trkpt>
      <trkpt lat="42.5439908914268016815185546875" lon="20.02867254428565502166748046875">
        <ele>1991.4000244140625</ele>
        <time>2026-06-19T10:25:39.000Z</time>
        <extensions>
          <ns3:TrackPointExtension>
            <ns3:atemp>21.0</ns3:atemp>
          </ns3:TrackPointExtension>
        </extensions>
      </trkpt>
      <trkpt lat="42.54401729442179203033447265625" lon="20.02869333140552043914794921875">
        <ele>1991.4000244140625</ele>
        <time>2026-06-19T10:25:40.000Z</time>
        <extensions>
          <ns3:TrackPointExtension>
            <ns3:atemp>21.0</ns3:atemp>
          </ns3:TrackPointExtension>
        </extensions>
      </trkpt>
      <trkpt lat="42.54404093138873577117919921875" lon="20.02870791591703891754150390625">
        <ele>1991.4000244140625</ele>
        <time>2026-06-19T10:25:41.000Z</time>
        <extensions>
          <ns3:TrackPointExtension>
            <ns3:atemp>21.0</ns3:atemp>
          </ns3:TrackPointExtension>
        </extensions>
      </trkpt>
      <trkpt lat="42.5440629757940769195556640625" lon="20.02872451208531856536865234375">
        <ele>1991.199951171875</ele>
        <time>2026-06-19T10:25:42.000Z</time>
        <extensions>
          <ns3:TrackPointExtension>
            <ns3:atemp>21.0</ns3:atemp>
          </ns3:TrackPointExtension>
        </extensions>
      </trkpt>
      <trkpt lat="42.54408485256135463714599609375" lon="20.0287395156919956207275390625">
        <ele>1991.199951171875</ele>
        <time>2026-06-19T10:25:43.000Z</time>
        <extensions>
          <ns3:TrackPointExtension>
            <ns3:atemp>21.0</ns3:atemp>
          </ns3:TrackPointExtension>
        </extensions>
      </trkpt>
      <trkpt lat="42.5441042147576808929443359375" lon="20.02875049598515033721923828125">
        <ele>1991.199951171875</ele>
        <time>2026-06-19T10:25:44.000Z</time>
        <extensions>
          <ns3:TrackPointExtension>
            <ns3:atemp>21.0</ns3:atemp>
          </ns3:TrackPointExtension>
        </extensions>
      </trkpt>
      <trkpt lat="42.54412743262946605682373046875" lon="20.02876306883990764617919921875">
        <ele>1991.4000244140625</ele>
        <time>2026-06-19T10:25:45.000Z</time>
        <extensions>
          <ns3:TrackPointExtension>
            <ns3:atemp>21.0</ns3:atemp>
          </ns3:TrackPointExtension>
        </extensions>
      </trkpt>
      <trkpt lat="42.54414863884449005126953125" lon="20.02878083847463130950927734375">
        <ele>1991.5999755859375</ele>
        <time>2026-06-19T10:25:46.000Z</time>
        <extensions>
          <ns3:TrackPointExtension>
            <ns3:atemp>21.0</ns3:atemp>
          </ns3:TrackPointExtension>
        </extensions>
      </trkpt>
      <trkpt lat="42.544170431792736053466796875" lon="20.0288005359470844268798828125">
        <ele>1991.800048828125</ele>
        <time>2026-06-19T10:25:47.000Z</time>
        <extensions>
          <ns3:TrackPointExtension>
            <ns3:atemp>21.0</ns3:atemp>
          </ns3:TrackPointExtension>
        </extensions>
      </trkpt>
      <trkpt lat="42.5441900454461574554443359375" lon="20.02882459200918674468994140625">
        <ele>1992.199951171875</ele>
        <time>2026-06-19T10:25:48.000Z</time>
        <extensions>
          <ns3:TrackPointExtension>
            <ns3:atemp>21.0</ns3:atemp>
          </ns3:TrackPointExtension>
        </extensions>
      </trkpt>
      <trkpt lat="42.54421032965183258056640625" lon="20.0288518331944942474365234375">
        <ele>1992.4000244140625</ele>
        <time>2026-06-19T10:25:49.000Z</time>
        <extensions>
          <ns3:TrackPointExtension>
            <ns3:atemp>21.0</ns3:atemp>
          </ns3:TrackPointExtension>
        </extensions>
      </trkpt>
      <trkpt lat="42.54422985948622226715087890625" lon="20.02888242714107036590576171875">
        <ele>1992.5999755859375</ele>
        <time>2026-06-19T10:25:50.000Z</time>
        <extensions>
          <ns3:TrackPointExtension>
            <ns3:atemp>21.0</ns3:atemp>
          </ns3:TrackPointExtension>
        </extensions>
      </trkpt>
      <trkpt lat="42.54425215534865856170654296875" lon="20.0289098359644412994384765625">
        <ele>1992.5999755859375</ele>
        <time>2026-06-19T10:25:51.000Z</time>
        <extensions>
          <ns3:TrackPointExtension>
            <ns3:atemp>21.0</ns3:atemp>
          </ns3:TrackPointExtension>
        </extensions>
      </trkpt>
      <trkpt lat="42.54427336156368255615234375" lon="20.02893808297812938690185546875">
        <ele>1992.800048828125</ele>
        <time>2026-06-19T10:25:52.000Z</time>
        <extensions>
          <ns3:TrackPointExtension>
            <ns3:atemp>21.0</ns3:atemp>
          </ns3:TrackPointExtension>
        </extensions>
      </trkpt>
      <trkpt lat="42.54429859109222888946533203125" lon="20.02895887009799480438232421875">
        <ele>1993</ele>
        <time>2026-06-19T10:25:53.000Z</time>
        <extensions>
          <ns3:TrackPointExtension>
            <ns3:atemp>21.0</ns3:atemp>
          </ns3:TrackPointExtension>
        </extensions>
      </trkpt>
      <trkpt lat="42.54432574845850467681884765625" lon="20.0289735384285449981689453125">
        <ele>1993</ele>
        <time>2026-06-19T10:25:54.000Z</time>
        <extensions>
          <ns3:TrackPointExtension>
            <ns3:atemp>21.0</ns3:atemp>
          </ns3:TrackPointExtension>
        </extensions>
      </trkpt>
      <trkpt lat="42.54435022361576557159423828125" lon="20.028983764350414276123046875">
        <ele>1993.199951171875</ele>
        <time>2026-06-19T10:25:55.000Z</time>
        <extensions>
          <ns3:TrackPointExtension>
            <ns3:atemp>21.0</ns3:atemp>
          </ns3:TrackPointExtension>
        </extensions>
      </trkpt>
      <trkpt lat="42.54437369294464588165283203125" lon="20.02899675630033016204833984375">
        <ele>1993.4000244140625</ele>
        <time>2026-06-19T10:25:56.000Z</time>
        <extensions>
          <ns3:TrackPointExtension>
            <ns3:atemp>21.0</ns3:atemp>
          </ns3:TrackPointExtension>
        </extensions>
      </trkpt>
      <trkpt lat="42.5443979166448116302490234375" lon="20.02900999970734119415283203125">
        <ele>1993.4000244140625</ele>
        <time>2026-06-19T10:25:57.000Z</time>
        <extensions>
          <ns3:TrackPointExtension>
            <ns3:atemp>21.0</ns3:atemp>
          </ns3:TrackPointExtension>
        </extensions>
      </trkpt>
      <trkpt lat="42.54442146979272365570068359375" lon="20.0290258415043354034423828125">
        <ele>1993.5999755859375</ele>
        <time>2026-06-19T10:25:58.000Z</time>
        <extensions>
          <ns3:TrackPointExtension>
            <ns3:atemp>21.0</ns3:atemp>
          </ns3:TrackPointExtension>
        </extensions>
      </trkpt>
      <trkpt lat="42.5444470345973968505859375" lon="20.02904704771935939788818359375">
        <ele>1993.5999755859375</ele>
        <time>2026-06-19T10:25:59.000Z</time>
        <extensions>
          <ns3:TrackPointExtension>
            <ns3:atemp>21.0</ns3:atemp>
          </ns3:TrackPointExtension>
        </extensions>
      </trkpt>
      <trkpt lat="42.54447025246918201446533203125" lon="20.02907269634306430816650390625">
        <ele>1993.5999755859375</ele>
        <time>2026-06-19T10:26:00.000Z</time>
        <extensions>
          <ns3:TrackPointExtension>
            <ns3:atemp>21.0</ns3:atemp>
          </ns3:TrackPointExtension>
        </extensions>
      </trkpt>
      <trkpt lat="42.544497661292552947998046875" lon="20.02909784205257892608642578125">
        <ele>1993.800048828125</ele>
        <time>2026-06-19T10:26:01.000Z</time>
        <extensions>
          <ns3:TrackPointExtension>
            <ns3:atemp>21.0</ns3:atemp>
          </ns3:TrackPointExtension>
        </extensions>
      </trkpt>
      <trkpt lat="42.54451668821275234222412109375" lon="20.02912919037044048309326171875">
        <ele>1993.800048828125</ele>
        <time>2026-06-19T10:26:02.000Z</time>
        <extensions>
          <ns3:TrackPointExtension>
            <ns3:atemp>21.0</ns3:atemp>
          </ns3:TrackPointExtension>
        </extensions>
      </trkpt>
      <trkpt lat="42.54453596659004688262939453125" lon="20.0291609577834606170654296875">
        <ele>1994</ele>
        <time>2026-06-19T10:26:03.000Z</time>
        <extensions>
          <ns3:TrackPointExtension>
            <ns3:atemp>21.0</ns3:atemp>
          </ns3:TrackPointExtension>
        </extensions>
      </trkpt>
      <trkpt lat="42.5445544905960559844970703125" lon="20.0291867740452289581298828125">
        <ele>1994</ele>
        <time>2026-06-19T10:26:04.000Z</time>
        <extensions>
          <ns3:TrackPointExtension>
            <ns3:atemp>21.0</ns3:atemp>
          </ns3:TrackPointExtension>
        </extensions>
      </trkpt>
      <trkpt lat="42.54457619972527027130126953125" lon="20.029216445982456207275390625">
        <ele>1994.199951171875</ele>
        <time>2026-06-19T10:26:05.000Z</time>
        <extensions>
          <ns3:TrackPointExtension>
            <ns3:atemp>21.0</ns3:atemp>
          </ns3:TrackPointExtension>
        </extensions>
      </trkpt>
      <trkpt lat="42.5445972383022308349609375" lon="20.0292444415390491485595703125">
        <ele>1994.199951171875</ele>
        <time>2026-06-19T10:26:06.000Z</time>
        <extensions>
          <ns3:TrackPointExtension>
            <ns3:atemp>21.0</ns3:atemp>
          </ns3:TrackPointExtension>
        </extensions>
      </trkpt>
      <trkpt lat="42.544620372354984283447265625" lon="20.02927419729530811309814453125">
        <ele>1994.199951171875</ele>
        <time>2026-06-19T10:26:07.000Z</time>
        <extensions>
          <ns3:TrackPointExtension>
            <ns3:atemp>21.0</ns3:atemp>
          </ns3:TrackPointExtension>
        </extensions>
      </trkpt>
      <trkpt lat="42.54464191384613513946533203125" lon="20.02930638380348682403564453125">
        <ele>1994.4000244140625</ele>
        <time>2026-06-19T10:26:08.000Z</time>
        <extensions>
          <ns3:TrackPointExtension>
            <ns3:atemp>21.0</ns3:atemp>
          </ns3:TrackPointExtension>
        </extensions>
      </trkpt>
      <trkpt lat="42.54466496407985687255859375" lon="20.02934494055807590484619140625">
        <ele>1994.4000244140625</ele>
        <time>2026-06-19T10:26:09.000Z</time>
        <extensions>
          <ns3:TrackPointExtension>
            <ns3:atemp>21.0</ns3:atemp>
          </ns3:TrackPointExtension>
        </extensions>
      </trkpt>
      <trkpt lat="42.54468801431357860565185546875" lon="20.02938182093203067779541015625">
        <ele>1994.4000244140625</ele>
        <time>2026-06-19T10:26:10.000Z</time>
        <extensions>
          <ns3:TrackPointExtension>
            <ns3:atemp>21.0</ns3:atemp>
          </ns3:TrackPointExtension>
        </extensions>
      </trkpt>
      <trkpt lat="42.5447073765099048614501953125" lon="20.0294201262295246124267578125">
        <ele>1994.4000244140625</ele>
        <time>2026-06-19T10:26:11.000Z</time>
        <extensions>
          <ns3:TrackPointExtension>
            <ns3:atemp>21.0</ns3:atemp>
          </ns3:TrackPointExtension>
        </extensions>
      </trkpt>
      <trkpt lat="42.5447248108685016632080078125" lon="20.02945340238511562347412109375">
        <ele>1994.4000244140625</ele>
        <time>2026-06-19T10:26:12.000Z</time>
        <extensions>
          <ns3:TrackPointExtension>
            <ns3:atemp>21.0</ns3:atemp>
          </ns3:TrackPointExtension>
        </extensions>
      </trkpt>
      <trkpt lat="42.5447425805032253265380859375" lon="20.02948776818811893463134765625">
        <ele>1994.5999755859375</ele>
        <time>2026-06-19T10:26:13.000Z</time>
        <extensions>
          <ns3:TrackPointExtension>
            <ns3:atemp>21.0</ns3:atemp>
          </ns3:TrackPointExtension>
        </extensions>
      </trkpt>
      <trkpt lat="42.54475641064345836639404296875" lon="20.0295217148959636688232421875">
        <ele>1994.800048828125</ele>
        <time>2026-06-19T10:26:14.000Z</time>
        <extensions>
          <ns3:TrackPointExtension>
            <ns3:atemp>21.0</ns3:atemp>
          </ns3:TrackPointExtension>
        </extensions>
      </trkpt>
      <trkpt lat="42.544769905507564544677734375" lon="20.02955046482384204864501953125">
        <ele>1995</ele>
        <time>2026-06-19T10:26:15.000Z</time>
        <extensions>
          <ns3:TrackPointExtension>
            <ns3:atemp>21.0</ns3:atemp>
          </ns3:TrackPointExtension>
        </extensions>
      </trkpt>
      <trkpt lat="42.5447844900190830230712890625" lon="20.02958080731332302093505859375">
        <ele>1995.4000244140625</ele>
        <time>2026-06-19T10:26:16.000Z</time>
        <extensions>
          <ns3:TrackPointExtension>
            <ns3:atemp>21.0</ns3:atemp>
          </ns3:TrackPointExtension>
        </extensions>
      </trkpt>
      <trkpt lat="42.54479932598769664764404296875" lon="20.02960897050797939300537109375">
        <ele>1995.5999755859375</ele>
        <time>2026-06-19T10:26:17.000Z</time>
        <extensions>
          <ns3:TrackPointExtension>
            <ns3:atemp>21.0</ns3:atemp>
          </ns3:TrackPointExtension>
        </extensions>
      </trkpt>
      <trkpt lat="42.54481525160372257232666015625" lon="20.02963847480714321136474609375">
        <ele>1995.800048828125</ele>
        <time>2026-06-19T10:26:18.000Z</time>
        <extensions>
          <ns3:TrackPointExtension>
            <ns3:atemp>21.0</ns3:atemp>
          </ns3:TrackPointExtension>
        </extensions>
      </trkpt>
      <trkpt lat="42.54482799209654331207275390625" lon="20.02967149950563907623291015625">
        <ele>1995.800048828125</ele>
        <time>2026-06-19T10:26:19.000Z</time>
        <extensions>
          <ns3:TrackPointExtension>
            <ns3:atemp>21.0</ns3:atemp>
          </ns3:TrackPointExtension>
        </extensions>
      </trkpt>
      <trkpt lat="42.54484240896999835968017578125" lon="20.02970687113702297210693359375">
        <ele>1995.800048828125</ele>
        <time>2026-06-19T10:26:20.000Z</time>
        <extensions>
          <ns3:TrackPointExtension>
            <ns3:atemp>21.0</ns3:atemp>
          </ns3:TrackPointExtension>
        </extensions>
      </trkpt>
      <trkpt lat="42.54485665820538997650146484375" lon="20.02974207513034343719482421875">
        <ele>1995.800048828125</ele>
        <time>2026-06-19T10:26:21.000Z</time>
        <extensions>
          <ns3:TrackPointExtension>
            <ns3:atemp>21.0</ns3:atemp>
          </ns3:TrackPointExtension>
        </extensions>
      </trkpt>
      <trkpt lat="42.5448709912598133087158203125" lon="20.02978004515171051025390625">
        <ele>1995.800048828125</ele>
        <time>2026-06-19T10:26:22.000Z</time>
        <extensions>
          <ns3:TrackPointExtension>
            <ns3:atemp>21.0</ns3:atemp>
          </ns3:TrackPointExtension>
        </extensions>
      </trkpt>
      <trkpt lat="42.54488247446715831756591796875" lon="20.0298130698502063751220703125">
        <ele>1996</ele>
        <time>2026-06-19T10:26:23.000Z</time>
        <extensions>
          <ns3:TrackPointExtension>
            <ns3:atemp>21.0</ns3:atemp>
          </ns3:TrackPointExtension>
        </extensions>
      </trkpt>
      <trkpt lat="42.54489202983677387237548828125" lon="20.02984064631164073944091796875">
        <ele>1996.199951171875</ele>
        <time>2026-06-19T10:26:24.000Z</time>
        <extensions>
          <ns3:TrackPointExtension>
            <ns3:atemp>21.0</ns3:atemp>
          </ns3:TrackPointExtension>
        </extensions>
      </trkpt>
      <trkpt lat="42.54490208812057971954345703125" lon="20.0298613496124744415283203125">
        <ele>1996.4000244140625</ele>
        <time>2026-06-19T10:26:25.000Z</time>
        <extensions>
          <ns3:TrackPointExtension>
            <ns3:atemp>21.0</ns3:atemp>
          </ns3:TrackPointExtension>
        </extensions>
      </trkpt>
      <trkpt lat="42.5449098832905292510986328125" lon="20.0298834778368473052978515625">
        <ele>1996.5999755859375</ele>
        <time>2026-06-19T10:26:26.000Z</time>
        <extensions>
          <ns3:TrackPointExtension>
            <ns3:atemp>21.0</ns3:atemp>
          </ns3:TrackPointExtension>
        </extensions>
      </trkpt>
      <trkpt lat="42.54491885192692279815673828125" lon="20.02991222776472568511962890625">
        <ele>1996.800048828125</ele>
        <time>2026-06-19T10:26:27.000Z</time>
        <extensions>
          <ns3:TrackPointExtension>
            <ns3:atemp>21.0</ns3:atemp>
          </ns3:TrackPointExtension>
        </extensions>
      </trkpt>
      <trkpt lat="42.5449283234775066375732421875" lon="20.02993720583617687225341796875">
        <ele>1997</ele>
        <time>2026-06-19T10:26:28.000Z</time>
        <extensions>
          <ns3:TrackPointExtension>
            <ns3:atemp>21.0</ns3:atemp>
          </ns3:TrackPointExtension>
        </extensions>
      </trkpt>
      <trkpt lat="42.54493595100939273834228515625" lon="20.0299605913460254669189453125">
        <ele>1997.199951171875</ele>
        <time>2026-06-19T10:26:29.000Z</time>
        <extensions>
          <ns3:TrackPointExtension>
            <ns3:atemp>21.0</ns3:atemp>
          </ns3:TrackPointExtension>
        </extensions>
      </trkpt>
      <trkpt lat="42.54494257271289825439453125" lon="20.0299894250929355621337890625">
        <ele>1997.5999755859375</ele>
        <time>2026-06-19T10:26:30.000Z</time>
        <extensions>
          <ns3:TrackPointExtension>
            <ns3:atemp>21.0</ns3:atemp>
          </ns3:TrackPointExtension>
        </extensions>
      </trkpt>
      <trkpt lat="42.5449511222541332244873046875" lon="20.03001867793500423431396484375">
        <ele>1997.800048828125</ele>
        <time>2026-06-19T10:26:31.000Z</time>
        <extensions>
          <ns3:TrackPointExtension>
            <ns3:atemp>21.0</ns3:atemp>
          </ns3:TrackPointExtension>
        </extensions>
      </trkpt>
      <trkpt lat="42.54496109671890735626220703125" lon="20.03004558384418487548828125">
        <ele>1998</ele>
        <time>2026-06-19T10:26:32.000Z</time>
        <extensions>
          <ns3:TrackPointExtension>
            <ns3:atemp>21.0</ns3:atemp>
          </ns3:TrackPointExtension>
        </extensions>
      </trkpt>
      <trkpt lat="42.5449715740978717803955078125" lon="20.030072070658206939697265625">
        <ele>1998.4000244140625</ele>
        <time>2026-06-19T10:26:33.000Z</time>
        <extensions>
          <ns3:TrackPointExtension>
            <ns3:atemp>21.0</ns3:atemp>
          </ns3:TrackPointExtension>
        </extensions>
      </trkpt>
      <trkpt lat="42.5449802912771701812744140625" lon="20.03010199405252933502197265625">
        <ele>1998.5999755859375</ele>
        <time>2026-06-19T10:26:34.000Z</time>
        <extensions>
          <ns3:TrackPointExtension>
            <ns3:atemp>21.0</ns3:atemp>
          </ns3:TrackPointExtension>
        </extensions>
      </trkpt>
      <trkpt lat="42.54498976282775402069091796875" lon="20.0301225297152996063232421875">
        <ele>1999</ele>
        <time>2026-06-19T10:26:35.000Z</time>
        <extensions>
          <ns3:TrackPointExtension>
            <ns3:atemp>21.0</ns3:atemp>
          </ns3:TrackPointExtension>
        </extensions>
      </trkpt>
      <trkpt lat="42.54499697126448154449462890625" lon="20.03014071844518184661865234375">
        <ele>1999.4000244140625</ele>
        <time>2026-06-19T10:26:36.000Z</time>
        <extensions>
          <ns3:TrackPointExtension>
            <ns3:atemp>21.0</ns3:atemp>
          </ns3:TrackPointExtension>
        </extensions>
      </trkpt>
      <trkpt lat="42.54499948583543300628662109375" lon="20.03015153110027313232421875">
        <ele>1999.5999755859375</ele>
        <time>2026-06-19T10:26:37.000Z</time>
        <extensions>
          <ns3:TrackPointExtension>
            <ns3:atemp>21.0</ns3:atemp>
          </ns3:TrackPointExtension>
        </extensions>
      </trkpt>
      <trkpt lat="42.54500015638768672943115234375" lon="20.0301644392311573028564453125">
        <ele>1999.5999755859375</ele>
        <time>2026-06-19T10:26:38.000Z</time>
        <extensions>
          <ns3:TrackPointExtension>
            <ns3:atemp>21.0</ns3:atemp>
          </ns3:TrackPointExtension>
        </extensions>
      </trkpt>
      <trkpt lat="42.5450004078447818756103515625" lon="20.0301748327910900115966796875">
        <ele>1999.800048828125</ele>
        <time>2026-06-19T10:26:39.000Z</time>
        <extensions>
          <ns3:TrackPointExtension>
            <ns3:atemp>21.0</ns3:atemp>
          </ns3:TrackPointExtension>
        </extensions>
      </trkpt>
      <trkpt lat="42.54500552080571651458740234375" lon="20.030194111168384552001953125">
        <ele>1999.5999755859375</ele>
        <time>2026-06-19T10:26:40.000Z</time>
        <extensions>
          <ns3:TrackPointExtension>
            <ns3:atemp>21.0</ns3:atemp>
          </ns3:TrackPointExtension>
        </extensions>
      </trkpt>
      <trkpt lat="42.545010633766651153564453125" lon="20.030221603810787200927734375">
        <ele>1999.5999755859375</ele>
        <time>2026-06-19T10:26:41.000Z</time>
        <extensions>
          <ns3:TrackPointExtension>
            <ns3:atemp>21.0</ns3:atemp>
          </ns3:TrackPointExtension>
        </extensions>
      </trkpt>
      <trkpt lat="42.54501792602241039276123046875" lon="20.0302509404718875885009765625">
        <ele>1999.4000244140625</ele>
        <time>2026-06-19T10:26:42.000Z</time>
        <extensions>
          <ns3:TrackPointExtension>
            <ns3:atemp>21.0</ns3:atemp>
          </ns3:TrackPointExtension>
        </extensions>
      </trkpt>
      <trkpt lat="42.54502169787883758544921875" lon="20.0302774272859096527099609375">
        <ele>1999.4000244140625</ele>
        <time>2026-06-19T10:26:43.000Z</time>
        <extensions>
          <ns3:TrackPointExtension>
            <ns3:atemp>21.0</ns3:atemp>
          </ns3:TrackPointExtension>
        </extensions>
      </trkpt>
      <trkpt lat="42.5450275652110576629638671875" lon="20.03030181862413883209228515625">
        <ele>1999.199951171875</ele>
        <time>2026-06-19T10:26:44.000Z</time>
        <extensions>
          <ns3:TrackPointExtension>
            <ns3:atemp>21.0</ns3:atemp>
          </ns3:TrackPointExtension>
        </extensions>
      </trkpt>
      <trkpt lat="42.54503452219069004058837890625" lon="20.03033031709492206573486328125">
        <ele>1999.199951171875</ele>
        <time>2026-06-19T10:26:45.000Z</time>
        <extensions>
          <ns3:TrackPointExtension>
            <ns3:atemp>21.0</ns3:atemp>
          </ns3:TrackPointExtension>
        </extensions>
      </trkpt>
      <trkpt lat="42.5450433231890201568603515625" lon="20.03036853857338428497314453125">
        <ele>1999.199951171875</ele>
        <time>2026-06-19T10:26:46.000Z</time>
        <extensions>
          <ns3:TrackPointExtension>
            <ns3:atemp>21.0</ns3:atemp>
          </ns3:TrackPointExtension>
        </extensions>
      </trkpt>
      <trkpt lat="42.54505212418735027313232421875" lon="20.03041128627955913543701171875">
        <ele>1999</ele>
        <time>2026-06-19T10:26:47.000Z</time>
        <extensions>
          <ns3:TrackPointExtension>
            <ns3:atemp>21.0</ns3:atemp>
          </ns3:TrackPointExtension>
        </extensions>
      </trkpt>
      <trkpt lat="42.54506318829953670501708984375" lon="20.0304608233273029327392578125">
        <ele>1998.800048828125</ele>
        <time>2026-06-19T10:26:48.000Z</time>
        <extensions>
          <ns3:TrackPointExtension>
            <ns3:atemp>21.0</ns3:atemp>
          </ns3:TrackPointExtension>
        </extensions>
      </trkpt>
      <trkpt lat="42.5450771860778331756591796875" lon="20.03051790408790111541748046875">
        <ele>1998.5999755859375</ele>
        <time>2026-06-19T10:26:49.000Z</time>
        <extensions>
          <ns3:TrackPointExtension>
            <ns3:atemp>21.0</ns3:atemp>
          </ns3:TrackPointExtension>
        </extensions>
      </trkpt>
      <trkpt lat="42.54509336315095424652099609375" lon="20.030578337609767913818359375">
        <ele>1998.199951171875</ele>
        <time>2026-06-19T10:26:50.000Z</time>
        <extensions>
          <ns3:TrackPointExtension>
            <ns3:atemp>21.0</ns3:atemp>
          </ns3:TrackPointExtension>
        </extensions>
      </trkpt>
      <trkpt lat="42.545109204947948455810546875" lon="20.03063969314098358154296875">
        <ele>1998</ele>
        <time>2026-06-19T10:26:51.000Z</time>
        <extensions>
          <ns3:TrackPointExtension>
            <ns3:atemp>21.0</ns3:atemp>
          </ns3:TrackPointExtension>
        </extensions>
      </trkpt>
      <trkpt lat="42.5451237894594669342041015625" lon="20.03069627098739147186279296875">
        <ele>1997.5999755859375</ele>
        <time>2026-06-19T10:26:52.000Z</time>
        <extensions>
          <ns3:TrackPointExtension>
            <ns3:atemp>21.0</ns3:atemp>
          </ns3:TrackPointExtension>
        </extensions>
      </trkpt>
      <trkpt lat="42.54513292573392391204833984375" lon="20.03074186854064464569091796875">
        <ele>1997.4000244140625</ele>
        <time>2026-06-19T10:26:53.000Z</time>
        <extensions>
          <ns3:TrackPointExtension>
            <ns3:atemp>21.0</ns3:atemp>
          </ns3:TrackPointExtension>
        </extensions>
      </trkpt>
      <trkpt lat="42.54513569176197052001953125" lon="20.03077154047787189483642578125">
        <ele>1997.199951171875</ele>
        <time>2026-06-19T10:26:54.000Z</time>
        <extensions>
          <ns3:TrackPointExtension>
            <ns3:atemp>21.0</ns3:atemp>
          </ns3:TrackPointExtension>
        </extensions>
      </trkpt>
      <trkpt lat="42.54513342864811420440673828125" lon="20.03079249523580074310302734375">
        <ele>1997.199951171875</ele>
        <time>2026-06-19T10:26:55.000Z</time>
        <extensions>
          <ns3:TrackPointExtension>
            <ns3:atemp>21.0</ns3:atemp>
          </ns3:TrackPointExtension>
        </extensions>
      </trkpt>
      <trkpt lat="42.5451385416090488433837890625" lon="20.0308128632605075836181640625">
        <ele>1997.199951171875</ele>
        <time>2026-06-19T10:26:56.000Z</time>
        <extensions>
          <ns3:TrackPointExtension>
            <ns3:atemp>21.0</ns3:atemp>
          </ns3:TrackPointExtension>
        </extensions>
      </trkpt>
      <trkpt lat="42.54514482803642749786376953125" lon="20.030833147466182708740234375">
        <ele>1997.199951171875</ele>
        <time>2026-06-19T10:26:57.000Z</time>
        <extensions>
          <ns3:TrackPointExtension>
            <ns3:atemp>21.0</ns3:atemp>
          </ns3:TrackPointExtension>
        </extensions>
      </trkpt>
      <trkpt lat="42.54515203647315502166748046875" lon="20.030860640108585357666015625">
        <ele>1997.199951171875</ele>
        <time>2026-06-19T10:26:58.000Z</time>
        <extensions>
          <ns3:TrackPointExtension>
            <ns3:atemp>21.0</ns3:atemp>
          </ns3:TrackPointExtension>
        </extensions>
      </trkpt>
      <trkpt lat="42.5451586581766605377197265625" lon="20.03088645637035369873046875">
        <ele>1997</ele>
        <time>2026-06-19T10:26:59.000Z</time>
        <extensions>
          <ns3:TrackPointExtension>
            <ns3:atemp>21.0</ns3:atemp>
          </ns3:TrackPointExtension>
        </extensions>
      </trkpt>
      <trkpt lat="42.5451667048037052154541015625" lon="20.030910260975360870361328125">
        <ele>1996.800048828125</ele>
        <time>2026-06-19T10:27:00.000Z</time>
        <extensions>
          <ns3:TrackPointExtension>
            <ns3:atemp>21.0</ns3:atemp>
          </ns3:TrackPointExtension>
        </extensions>
      </trkpt>
      <trkpt lat="42.5451712310314178466796875" lon="20.03093532286584377288818359375">
        <ele>1996.800048828125</ele>
        <time>2026-06-19T10:27:01.000Z</time>
        <extensions>
          <ns3:TrackPointExtension>
            <ns3:atemp>22.0</ns3:atemp>
          </ns3:TrackPointExtension>
        </extensions>
      </trkpt>
      <trkpt lat="42.5451754219830036163330078125" lon="20.03096155822277069091796875">
        <ele>1996.5999755859375</ele>
        <time>2026-06-19T10:27:02.000Z</time>
        <extensions>
          <ns3:TrackPointExtension>
            <ns3:atemp>22.0</ns3:atemp>
          </ns3:TrackPointExtension>
        </extensions>
      </trkpt>
      <trkpt lat="42.54518053494393825531005859375" lon="20.0309885479509830474853515625">
        <ele>1996.5999755859375</ele>
        <time>2026-06-19T10:27:03.000Z</time>
        <extensions>
          <ns3:TrackPointExtension>
            <ns3:atemp>21.0</ns3:atemp>
          </ns3:TrackPointExtension>
        </extensions>
      </trkpt>
      <trkpt lat="42.5451873242855072021484375" lon="20.03101386129856109619140625">
        <ele>1996.4000244140625</ele>
        <time>2026-06-19T10:27:04.000Z</time>
        <extensions>
          <ns3:TrackPointExtension>
            <ns3:atemp>21.0</ns3:atemp>
          </ns3:TrackPointExtension>
        </extensions>
      </trkpt>
      <trkpt lat="42.5451958738267421722412109375" lon="20.0310378335416316986083984375">
        <ele>1996.4000244140625</ele>
        <time>2026-06-19T10:27:05.000Z</time>
        <extensions>
          <ns3:TrackPointExtension>
            <ns3:atemp>21.0</ns3:atemp>
          </ns3:TrackPointExtension>
        </extensions>
      </trkpt>
      <trkpt lat="42.5451962091028690338134765625" lon="20.03106172196567058563232421875">
        <ele>1996.4000244140625</ele>
        <time>2026-06-19T10:27:06.000Z</time>
        <extensions>
          <ns3:TrackPointExtension>
            <ns3:atemp>21.0</ns3:atemp>
          </ns3:TrackPointExtension>
        </extensions>
      </trkpt>
      <trkpt lat="42.54519964568316936492919921875" lon="20.03109038807451725006103515625">
        <ele>1996.199951171875</ele>
        <time>2026-06-19T10:27:07.000Z</time>
        <extensions>
          <ns3:TrackPointExtension>
            <ns3:atemp>21.0</ns3:atemp>
          </ns3:TrackPointExtension>
        </extensions>
      </trkpt>
      <trkpt lat="42.54520408809185028076171875" lon="20.0311186350882053375244140625">
        <ele>1996.199951171875</ele>
        <time>2026-06-19T10:27:08.000Z</time>
        <extensions>
          <ns3:TrackPointExtension>
            <ns3:atemp>21.0</ns3:atemp>
          </ns3:TrackPointExtension>
        </extensions>
      </trkpt>
      <trkpt lat="42.545212805271148681640625" lon="20.03114939667284488677978515625">
        <ele>1996</ele>
        <time>2026-06-19T10:27:09.000Z</time>
        <extensions>
          <ns3:TrackPointExtension>
            <ns3:atemp>21.0</ns3:atemp>
          </ns3:TrackPointExtension>
        </extensions>
      </trkpt>
      <trkpt lat="42.5452210195362567901611328125" lon="20.03118812106549739837646484375">
        <ele>1996</ele>
        <time>2026-06-19T10:27:10.000Z</time>
        <extensions>
          <ns3:TrackPointExtension>
            <ns3:atemp>21.0</ns3:atemp>
          </ns3:TrackPointExtension>
        </extensions>
      </trkpt>
      <trkpt lat="42.54522797651588916778564453125" lon="20.03122768364846706390380859375">
        <ele>1995.800048828125</ele>
        <time>2026-06-19T10:27:11.000Z</time>
        <extensions>
          <ns3:TrackPointExtension>
            <ns3:atemp>21.0</ns3:atemp>
          </ns3:TrackPointExtension>
        </extensions>
      </trkpt>
      <trkpt lat="42.545233927667140960693359375" lon="20.03126037307083606719970703125">
        <ele>1995.5999755859375</ele>
        <time>2026-06-19T10:27:12.000Z</time>
        <extensions>
          <ns3:TrackPointExtension>
            <ns3:atemp>21.0</ns3:atemp>
          </ns3:TrackPointExtension>
        </extensions>
      </trkpt>
      <trkpt lat="42.54524054937064647674560546875" lon="20.0312983430922031402587890625">
        <ele>1995.4000244140625</ele>
        <time>2026-06-19T10:27:13.000Z</time>
        <extensions>
          <ns3:TrackPointExtension>
            <ns3:atemp>22.0</ns3:atemp>
          </ns3:TrackPointExtension>
        </extensions>
      </trkpt>
      <trkpt lat="42.5452463328838348388671875" lon="20.03133446909487247467041015625">
        <ele>1995.4000244140625</ele>
        <time>2026-06-19T10:27:14.000Z</time>
        <extensions>
          <ns3:TrackPointExtension>
            <ns3:atemp>21.0</ns3:atemp>
          </ns3:TrackPointExtension>
        </extensions>
      </trkpt>
      <trkpt lat="42.545250691473484039306640625" lon="20.03136967308819293975830078125">
        <ele>1995.199951171875</ele>
        <time>2026-06-19T10:27:15.000Z</time>
        <extensions>
          <ns3:TrackPointExtension>
            <ns3:atemp>21.0</ns3:atemp>
          </ns3:TrackPointExtension>
        </extensions>
      </trkpt>
      <trkpt lat="42.54525546915829181671142578125" lon="20.03140303306281566619873046875">
        <ele>1994.800048828125</ele>
        <time>2026-06-19T10:27:16.000Z</time>
        <extensions>
          <ns3:TrackPointExtension>
            <ns3:atemp>22.0</ns3:atemp>
          </ns3:TrackPointExtension>
        </extensions>
      </trkpt>
      <trkpt lat="42.5452599115669727325439453125" lon="20.03143966197967529296875">
        <ele>1994.5999755859375</ele>
        <time>2026-06-19T10:27:17.000Z</time>
        <extensions>
          <ns3:TrackPointExtension>
            <ns3:atemp>22.0</ns3:atemp>
          </ns3:TrackPointExtension>
        </extensions>
      </trkpt>
      <trkpt lat="42.5452622584998607635498046875" lon="20.0314785540103912353515625">
        <ele>1994.199951171875</ele>
        <time>2026-06-19T10:27:18.000Z</time>
        <extensions>
          <ns3:TrackPointExtension>
            <ns3:atemp>22.0</ns3:atemp>
          </ns3:TrackPointExtension>
        </extensions>
      </trkpt>
      <trkpt lat="42.54526116885244846343994140625" lon="20.03152138553559780120849609375">
        <ele>1993.800048828125</ele>
        <time>2026-06-19T10:27:19.000Z</time>
        <extensions>
          <ns3:TrackPointExtension>
            <ns3:atemp>22.0</ns3:atemp>
          </ns3:TrackPointExtension>
        </extensions>
      </trkpt>
      <trkpt lat="42.54526385106146335601806640625" lon="20.03156916238367557525634765625">
        <ele>1993.4000244140625</ele>
        <time>2026-06-19T10:27:20.000Z</time>
        <extensions>
          <ns3:TrackPointExtension>
            <ns3:atemp>22.0</ns3:atemp>
          </ns3:TrackPointExtension>
        </extensions>
      </trkpt>
      <trkpt lat="42.54527156241238117218017578125" lon="20.0316051207482814788818359375">
        <ele>1992.800048828125</ele>
        <time>2026-06-19T10:27:21.000Z</time>
        <extensions>
          <ns3:TrackPointExtension>
            <ns3:atemp>22.0</ns3:atemp>
          </ns3:TrackPointExtension>
        </extensions>
      </trkpt>
      <trkpt lat="42.54528321325778961181640625" lon="20.0316426716744899749755859375">
        <ele>1992.4000244140625</ele>
        <time>2026-06-19T10:27:22.000Z</time>
        <extensions>
          <ns3:TrackPointExtension>
            <ns3:atemp>22.0</ns3:atemp>
          </ns3:TrackPointExtension>
        </extensions>
      </trkpt>
      <trkpt lat="42.54529553465545177459716796875" lon="20.0316743552684783935546875">
        <ele>1992.199951171875</ele>
        <time>2026-06-19T10:27:23.000Z</time>
        <extensions>
          <ns3:TrackPointExtension>
            <ns3:atemp>22.0</ns3:atemp>
          </ns3:TrackPointExtension>
        </extensions>
      </trkpt>
      <trkpt lat="42.5453068502247333526611328125" lon="20.0317050330340862274169921875">
        <ele>1991.800048828125</ele>
        <time>2026-06-19T10:27:24.000Z</time>
        <extensions>
          <ns3:TrackPointExtension>
            <ns3:atemp>22.0</ns3:atemp>
          </ns3:TrackPointExtension>
        </extensions>
      </trkpt>
      <trkpt lat="42.54531648941338062286376953125" lon="20.03174216486513614654541015625">
        <ele>1991.4000244140625</ele>
        <time>2026-06-19T10:27:25.000Z</time>
        <extensions>
          <ns3:TrackPointExtension>
            <ns3:atemp>22.0</ns3:atemp>
          </ns3:TrackPointExtension>
        </extensions>
      </trkpt>
      <trkpt lat="42.5453326664865016937255859375" lon="20.03178943879902362823486328125">
        <ele>1991</ele>
        <time>2026-06-19T10:27:26.000Z</time>
        <extensions>
          <ns3:TrackPointExtension>
            <ns3:atemp>22.0</ns3:atemp>
          </ns3:TrackPointExtension>
        </extensions>
      </trkpt>
      <trkpt lat="42.54535219632089138031005859375" lon="20.03183838911354541778564453125">
        <ele>1990.4000244140625</ele>
        <time>2026-06-19T10:27:27.000Z</time>
        <extensions>
          <ns3:TrackPointExtension>
            <ns3:atemp>22.0</ns3:atemp>
          </ns3:TrackPointExtension>
        </extensions>
      </trkpt>
      <trkpt lat="42.54537063650786876678466796875" lon="20.0318844057619571685791015625">
        <ele>1989.800048828125</ele>
        <time>2026-06-19T10:27:28.000Z</time>
        <extensions>
          <ns3:TrackPointExtension>
            <ns3:atemp>22.0</ns3:atemp>
          </ns3:TrackPointExtension>
        </extensions>
      </trkpt>
      <trkpt lat="42.54538605920970439910888671875" lon="20.031933523714542388916015625">
        <ele>1989.199951171875</ele>
        <time>2026-06-19T10:27:29.000Z</time>
        <extensions>
          <ns3:TrackPointExtension>
            <ns3:atemp>22.0</ns3:atemp>
          </ns3:TrackPointExtension>
        </extensions>
      </trkpt>
      <trkpt lat="42.54539988934993743896484375" lon="20.03197819925844669342041015625">
        <ele>1988.800048828125</ele>
        <time>2026-06-19T10:27:30.000Z</time>
        <extensions>
          <ns3:TrackPointExtension>
            <ns3:atemp>22.0</ns3:atemp>
          </ns3:TrackPointExtension>
        </extensions>
      </trkpt>
      <trkpt lat="42.54541254602372646331787109375" lon="20.0320257246494293212890625">
        <ele>1988.199951171875</ele>
        <time>2026-06-19T10:27:31.000Z</time>
        <extensions>
          <ns3:TrackPointExtension>
            <ns3:atemp>22.0</ns3:atemp>
          </ns3:TrackPointExtension>
        </extensions>
      </trkpt>
      <trkpt lat="42.54542595706880092620849609375" lon="20.0320711545646190643310546875">
        <ele>1987.800048828125</ele>
        <time>2026-06-19T10:27:32.000Z</time>
        <extensions>
          <ns3:TrackPointExtension>
            <ns3:atemp>22.0</ns3:atemp>
          </ns3:TrackPointExtension>
        </extensions>
      </trkpt>
      <trkpt lat="42.54543886519968509674072265625" lon="20.03211566247045993804931640625">
        <ele>1987.4000244140625</ele>
        <time>2026-06-19T10:27:33.000Z</time>
        <extensions>
          <ns3:TrackPointExtension>
            <ns3:atemp>22.0</ns3:atemp>
          </ns3:TrackPointExtension>
        </extensions>
      </trkpt>
      <trkpt lat="42.545450516045093536376953125" lon="20.03216461278498172760009765625">
        <ele>1987</ele>
        <time>2026-06-19T10:27:34.000Z</time>
        <extensions>
          <ns3:TrackPointExtension>
            <ns3:atemp>22.0</ns3:atemp>
          </ns3:TrackPointExtension>
        </extensions>
      </trkpt>
      <trkpt lat="42.5454637594521045684814453125" lon="20.03221507184207439422607421875">
        <ele>1986.5999755859375</ele>
        <time>2026-06-19T10:27:35.000Z</time>
        <extensions>
          <ns3:TrackPointExtension>
            <ns3:atemp>22.0</ns3:atemp>
          </ns3:TrackPointExtension>
        </extensions>
      </trkpt>
      <trkpt lat="42.54547893069684505462646484375" lon="20.03226435743272304534912109375">
        <ele>1986.199951171875</ele>
        <time>2026-06-19T10:27:36.000Z</time>
        <extensions>
          <ns3:TrackPointExtension>
            <ns3:atemp>22.0</ns3:atemp>
          </ns3:TrackPointExtension>
        </extensions>
      </trkpt>
      <trkpt lat="42.54549443721771240234375" lon="20.03231615759432315826416015625">
        <ele>1985.5999755859375</ele>
        <time>2026-06-19T10:27:37.000Z</time>
        <extensions>
          <ns3:TrackPointExtension>
            <ns3:atemp>22.0</ns3:atemp>
          </ns3:TrackPointExtension>
        </extensions>
      </trkpt>
      <trkpt lat="42.5455060042440891265869140625" lon="20.03236913122236728668212890625">
        <ele>1985.199951171875</ele>
        <time>2026-06-19T10:27:38.000Z</time>
        <extensions>
          <ns3:TrackPointExtension>
            <ns3:atemp>22.0</ns3:atemp>
          </ns3:TrackPointExtension>
        </extensions>
      </trkpt>
      <trkpt lat="42.5455157272517681121826171875" lon="20.03242336213588714599609375">
        <ele>1984.800048828125</ele>
        <time>2026-06-19T10:27:39.000Z</time>
        <extensions>
          <ns3:TrackPointExtension>
            <ns3:atemp>22.0</ns3:atemp>
          </ns3:TrackPointExtension>
        </extensions>
      </trkpt>
      <trkpt lat="42.54552268423140048980712890625" lon="20.0324768386781215667724609375">
        <ele>1984.4000244140625</ele>
        <time>2026-06-19T10:27:40.000Z</time>
        <extensions>
          <ns3:TrackPointExtension>
            <ns3:atemp>22.0</ns3:atemp>
          </ns3:TrackPointExtension>
        </extensions>
      </trkpt>
      <trkpt lat="42.54552997648715972900390625" lon="20.03252436406910419464111328125">
        <ele>1984</ele>
        <time>2026-06-19T10:27:41.000Z</time>
        <extensions>
          <ns3:TrackPointExtension>
            <ns3:atemp>22.0</ns3:atemp>
          </ns3:TrackPointExtension>
        </extensions>
      </trkpt>
      <trkpt lat="42.54553173668682575225830078125" lon="20.0325713865458965301513671875">
        <ele>1983.800048828125</ele>
        <time>2026-06-19T10:27:42.000Z</time>
        <extensions>
          <ns3:TrackPointExtension>
            <ns3:atemp>22.0</ns3:atemp>
          </ns3:TrackPointExtension>
        </extensions>
      </trkpt>
      <trkpt lat="42.54553425125777721405029296875" lon="20.03261455334722995758056640625">
        <ele>1983.5999755859375</ele>
        <time>2026-06-19T10:27:43.000Z</time>
        <extensions>
          <ns3:TrackPointExtension>
            <ns3:atemp>22.0</ns3:atemp>
          </ns3:TrackPointExtension>
        </extensions>
      </trkpt>
      <trkpt lat="42.54553827457129955291748046875" lon="20.03266015090048313140869140625">
        <ele>1983.4000244140625</ele>
        <time>2026-06-19T10:27:44.000Z</time>
        <extensions>
          <ns3:TrackPointExtension>
            <ns3:atemp>22.0</ns3:atemp>
          </ns3:TrackPointExtension>
        </extensions>
      </trkpt>
      <trkpt lat="42.545545399188995361328125" lon="20.0327011384069919586181640625">
        <ele>1983.199951171875</ele>
        <time>2026-06-19T10:27:45.000Z</time>
        <extensions>
          <ns3:TrackPointExtension>
            <ns3:atemp>22.0</ns3:atemp>
          </ns3:TrackPointExtension>
        </extensions>
      </trkpt>
      <trkpt lat="42.54555537365376949310302734375" lon="20.03274254500865936279296875">
        <ele>1983</ele>
        <time>2026-06-19T10:27:46.000Z</time>
        <extensions>
          <ns3:TrackPointExtension>
            <ns3:atemp>22.0</ns3:atemp>
          </ns3:TrackPointExtension>
        </extensions>
      </trkpt>
      <trkpt lat="42.5455666892230510711669921875" lon="20.03278034739196300506591796875">
        <ele>1983</ele>
        <time>2026-06-19T10:27:47.000Z</time>
        <extensions>
          <ns3:TrackPointExtension>
            <ns3:atemp>22.0</ns3:atemp>
          </ns3:TrackPointExtension>
        </extensions>
      </trkpt>
      <trkpt lat="42.545578591525554656982421875" lon="20.0328161381185054779052734375">
        <ele>1983</ele>
        <time>2026-06-19T10:27:48.000Z</time>
        <extensions>
          <ns3:TrackPointExtension>
            <ns3:atemp>22.0</ns3:atemp>
          </ns3:TrackPointExtension>
        </extensions>
      </trkpt>
      <trkpt lat="42.54558764398097991943359375" lon="20.03285092301666736602783203125">
        <ele>1983</ele>
        <time>2026-06-19T10:27:49.000Z</time>
        <extensions>
          <ns3:TrackPointExtension>
            <ns3:atemp>22.0</ns3:atemp>
          </ns3:TrackPointExtension>
        </extensions>
      </trkpt>
      <trkpt lat="42.54559594206511974334716796875" lon="20.03288780339062213897705078125">
        <ele>1983</ele>
        <time>2026-06-19T10:27:50.000Z</time>
        <extensions>
          <ns3:TrackPointExtension>
            <ns3:atemp>22.0</ns3:atemp>
          </ns3:TrackPointExtension>
        </extensions>
      </trkpt>
      <trkpt lat="42.5455992110073566436767578125" lon="20.032933987677097320556640625">
        <ele>1983</ele>
        <time>2026-06-19T10:27:51.000Z</time>
        <extensions>
          <ns3:TrackPointExtension>
            <ns3:atemp>22.0</ns3:atemp>
          </ns3:TrackPointExtension>
        </extensions>
      </trkpt>
      <trkpt lat="42.5456022284924983978271484375" lon="20.032986961305141448974609375">
        <ele>1983.199951171875</ele>
        <time>2026-06-19T10:27:52.000Z</time>
        <extensions>
          <ns3:TrackPointExtension>
            <ns3:atemp>22.0</ns3:atemp>
          </ns3:TrackPointExtension>
        </extensions>
      </trkpt>
      <trkpt lat="42.54560918547213077545166015625" lon="20.03303817473351955413818359375">
        <ele>1983.199951171875</ele>
        <time>2026-06-19T10:27:53.000Z</time>
        <extensions>
          <ns3:TrackPointExtension>
            <ns3:atemp>22.0</ns3:atemp>
          </ns3:TrackPointExtension>
        </extensions>
      </trkpt>
      <trkpt lat="42.5456122867763042449951171875" lon="20.033087544143199920654296875">
        <ele>1983.4000244140625</ele>
        <time>2026-06-19T10:27:54.000Z</time>
        <extensions>
          <ns3:TrackPointExtension>
            <ns3:atemp>22.0</ns3:atemp>
          </ns3:TrackPointExtension>
        </extensions>
      </trkpt>
      <trkpt lat="42.545618154108524322509765625" lon="20.033129118382930755615234375">
        <ele>1983.4000244140625</ele>
        <time>2026-06-19T10:27:55.000Z</time>
        <extensions>
          <ns3:TrackPointExtension>
            <ns3:atemp>22.0</ns3:atemp>
          </ns3:TrackPointExtension>
        </extensions>
      </trkpt>
      <trkpt lat="42.54562527872622013092041015625" lon="20.03317245282232761383056640625">
        <ele>1983.5999755859375</ele>
        <time>2026-06-19T10:27:56.000Z</time>
        <extensions>
          <ns3:TrackPointExtension>
            <ns3:atemp>22.0</ns3:atemp>
          </ns3:TrackPointExtension>
        </extensions>
      </trkpt>
      <trkpt lat="42.545635588467121124267578125" lon="20.03321805037558078765869140625">
        <ele>1983.800048828125</ele>
        <time>2026-06-19T10:27:57.000Z</time>
        <extensions>
          <ns3:TrackPointExtension>
            <ns3:atemp>22.0</ns3:atemp>
          </ns3:TrackPointExtension>
        </extensions>
      </trkpt>
      <trkpt lat="42.54564640112221240997314453125" lon="20.033259876072406768798828125">
        <ele>1984</ele>
        <time>2026-06-19T10:27:58.000Z</time>
        <extensions>
          <ns3:TrackPointExtension>
            <ns3:atemp>22.0</ns3:atemp>
          </ns3:TrackPointExtension>
        </extensions>
      </trkpt>
      <trkpt lat="42.54565813578665256500244140625" lon="20.0333002768456935882568359375">
        <ele>1984.199951171875</ele>
        <time>2026-06-19T10:27:59.000Z</time>
        <extensions>
          <ns3:TrackPointExtension>
            <ns3:atemp>22.0</ns3:atemp>
          </ns3:TrackPointExtension>
        </extensions>
      </trkpt>
      <trkpt lat="42.54566735588014125823974609375" lon="20.03334294073283672332763671875">
        <ele>1984.4000244140625</ele>
        <time>2026-06-19T10:28:00.000Z</time>
        <extensions>
          <ns3:TrackPointExtension>
            <ns3:atemp>22.0</ns3:atemp>
          </ns3:TrackPointExtension>
        </extensions>
      </trkpt>
      <trkpt lat="42.5456763245165348052978515625" lon="20.0333814136683940887451171875">
        <ele>1984.5999755859375</ele>
        <time>2026-06-19T10:28:01.000Z</time>
        <extensions>
          <ns3:TrackPointExtension>
            <ns3:atemp>22.0</ns3:atemp>
          </ns3:TrackPointExtension>
        </extensions>
      </trkpt>
      <trkpt lat="42.5456910766661167144775390625" lon="20.0334149412810802459716796875">
        <ele>1984.800048828125</ele>
        <time>2026-06-19T10:28:02.000Z</time>
        <extensions>
          <ns3:TrackPointExtension>
            <ns3:atemp>22.0</ns3:atemp>
          </ns3:TrackPointExtension>
        </extensions>
      </trkpt>
      <trkpt lat="42.5457031466066837310791015625" lon="20.03344905562698841094970703125">
        <ele>1985</ele>
        <time>2026-06-19T10:28:03.000Z</time>
        <extensions>
          <ns3:TrackPointExtension>
            <ns3:atemp>22.0</ns3:atemp>
          </ns3:TrackPointExtension>
        </extensions>
      </trkpt>
      <trkpt lat="42.54571437835693359375" lon="20.03348124213516712188720703125">
        <ele>1985.4000244140625</ele>
        <time>2026-06-19T10:28:04.000Z</time>
        <extensions>
          <ns3:TrackPointExtension>
            <ns3:atemp>22.0</ns3:atemp>
          </ns3:TrackPointExtension>
        </extensions>
      </trkpt>
      <trkpt lat="42.5457251071929931640625" lon="20.03351996652781963348388671875">
        <ele>1985.5999755859375</ele>
        <time>2026-06-19T10:28:05.000Z</time>
        <extensions>
          <ns3:TrackPointExtension>
            <ns3:atemp>22.0</ns3:atemp>
          </ns3:TrackPointExtension>
        </extensions>
      </trkpt>
      <trkpt lat="42.54573591984808444976806640625" lon="20.0335614569485187530517578125">
        <ele>1985.5999755859375</ele>
        <time>2026-06-19T10:28:06.000Z</time>
        <extensions>
          <ns3:TrackPointExtension>
            <ns3:atemp>22.0</ns3:atemp>
          </ns3:TrackPointExtension>
        </extensions>
      </trkpt>
      <trkpt lat="42.545746229588985443115234375" lon="20.033601857721805572509765625">
        <ele>1986</ele>
        <time>2026-06-19T10:28:07.000Z</time>
        <extensions>
          <ns3:TrackPointExtension>
            <ns3:atemp>22.0</ns3:atemp>
          </ns3:TrackPointExtension>
        </extensions>
      </trkpt>
      <trkpt lat="42.54575720988214015960693359375" lon="20.03363932482898235321044921875">
        <ele>1986</ele>
        <time>2026-06-19T10:28:08.000Z</time>
        <extensions>
          <ns3:TrackPointExtension>
            <ns3:atemp>22.0</ns3:atemp>
          </ns3:TrackPointExtension>
        </extensions>
      </trkpt>
      <trkpt lat="42.54576726816594600677490234375" lon="20.0336771272122859954833984375">
        <ele>1986.4000244140625</ele>
        <time>2026-06-19T10:28:09.000Z</time>
        <extensions>
          <ns3:TrackPointExtension>
            <ns3:atemp>22.0</ns3:atemp>
          </ns3:TrackPointExtension>
        </extensions>
      </trkpt>
      <trkpt lat="42.54577598534524440765380859375" lon="20.03371207974851131439208984375">
        <ele>1986.5999755859375</ele>
        <time>2026-06-19T10:28:10.000Z</time>
        <extensions>
          <ns3:TrackPointExtension>
            <ns3:atemp>22.0</ns3:atemp>
          </ns3:TrackPointExtension>
        </extensions>
      </trkpt>
      <trkpt lat="42.5457896478474140167236328125" lon="20.03374912776052951812744140625">
        <ele>1986.800048828125</ele>
        <time>2026-06-19T10:28:11.000Z</time>
        <extensions>
          <ns3:TrackPointExtension>
            <ns3:atemp>22.0</ns3:atemp>
          </ns3:TrackPointExtension>
        </extensions>
      </trkpt>
      <trkpt lat="42.54579962231218814849853515625" lon="20.0337837450206279754638671875">
        <ele>1986.800048828125</ele>
        <time>2026-06-19T10:28:12.000Z</time>
        <extensions>
          <ns3:TrackPointExtension>
            <ns3:atemp>22.0</ns3:atemp>
          </ns3:TrackPointExtension>
        </extensions>
      </trkpt>
      <trkpt lat="42.5458067469298839569091796875" lon="20.03382154740393161773681640625">
        <ele>1987</ele>
        <time>2026-06-19T10:28:13.000Z</time>
        <extensions>
          <ns3:TrackPointExtension>
            <ns3:atemp>22.0</ns3:atemp>
          </ns3:TrackPointExtension>
        </extensions>
      </trkpt>
      <trkpt lat="42.54581563174724578857421875" lon="20.03386261872947216033935546875">
        <ele>1987</ele>
        <time>2026-06-19T10:28:14.000Z</time>
        <extensions>
          <ns3:TrackPointExtension>
            <ns3:atemp>22.0</ns3:atemp>
          </ns3:TrackPointExtension>
        </extensions>
      </trkpt>
      <trkpt lat="42.54582636058330535888671875" lon="20.033905617892742156982421875">
        <ele>1987.199951171875</ele>
        <time>2026-06-19T10:28:15.000Z</time>
        <extensions>
          <ns3:TrackPointExtension>
            <ns3:atemp>22.0</ns3:atemp>
          </ns3:TrackPointExtension>
        </extensions>
      </trkpt>
      <trkpt lat="42.54583717323839664459228515625" lon="20.03395113162696361541748046875">
        <ele>1987.199951171875</ele>
        <time>2026-06-19T10:28:16.000Z</time>
        <extensions>
          <ns3:TrackPointExtension>
            <ns3:atemp>22.0</ns3:atemp>
          </ns3:TrackPointExtension>
        </extensions>
      </trkpt>
      <trkpt lat="42.5458483211696147918701171875" lon="20.034002847969532012939453125">
        <ele>1987.4000244140625</ele>
        <time>2026-06-19T10:28:17.000Z</time>
        <extensions>
          <ns3:TrackPointExtension>
            <ns3:atemp>22.0</ns3:atemp>
          </ns3:TrackPointExtension>
        </extensions>
      </trkpt>
      <trkpt lat="42.545854859054088592529296875" lon="20.03405037336051464080810546875">
        <ele>1987.5999755859375</ele>
        <time>2026-06-19T10:28:18.000Z</time>
        <extensions>
          <ns3:TrackPointExtension>
            <ns3:atemp>22.0</ns3:atemp>
          </ns3:TrackPointExtension>
        </extensions>
      </trkpt>
      <trkpt lat="42.545858882367610931396484375" lon="20.03408960066735744476318359375">
        <ele>1987.800048828125</ele>
        <time>2026-06-19T10:28:19.000Z</time>
        <extensions>
          <ns3:TrackPointExtension>
            <ns3:atemp>22.0</ns3:atemp>
          </ns3:TrackPointExtension>
        </extensions>
      </trkpt>
      <trkpt lat="42.54586298950016498565673828125" lon="20.03412279300391674041748046875">
        <ele>1988</ele>
        <time>2026-06-19T10:28:20.000Z</time>
        <extensions>
          <ns3:TrackPointExtension>
            <ns3:atemp>22.0</ns3:atemp>
          </ns3:TrackPointExtension>
        </extensions>
      </trkpt>
      <trkpt lat="42.54586248658597469329833984375" lon="20.03415741026401519775390625">
        <ele>1988.199951171875</ele>
        <time>2026-06-19T10:28:21.000Z</time>
        <extensions>
          <ns3:TrackPointExtension>
            <ns3:atemp>22.0</ns3:atemp>
          </ns3:TrackPointExtension>
        </extensions>
      </trkpt>
      <trkpt lat="42.54585829563438892364501953125" lon="20.03419755958020687103271484375">
        <ele>1988.5999755859375</ele>
        <time>2026-06-19T10:28:22.000Z</time>
        <extensions>
          <ns3:TrackPointExtension>
            <ns3:atemp>22.0</ns3:atemp>
          </ns3:TrackPointExtension>
        </extensions>
      </trkpt>
      <trkpt lat="42.54585050046443939208984375" lon="20.03423921763896942138671875">
        <ele>1988.800048828125</ele>
        <time>2026-06-19T10:28:23.000Z</time>
        <extensions>
          <ns3:TrackPointExtension>
            <ns3:atemp>22.0</ns3:atemp>
          </ns3:TrackPointExtension>
        </extensions>
      </trkpt>
      <trkpt lat="42.5458493269979953765869140625" lon="20.03427534364163875579833984375">
        <ele>1988.800048828125</ele>
        <time>2026-06-19T10:28:24.000Z</time>
        <extensions>
          <ns3:TrackPointExtension>
            <ns3:atemp>22.0</ns3:atemp>
          </ns3:TrackPointExtension>
        </extensions>
      </trkpt>
      <trkpt lat="42.5458516739308834075927734375" lon="20.03431423567235469818115234375">
        <ele>1988.800048828125</ele>
        <time>2026-06-19T10:28:25.000Z</time>
        <extensions>
          <ns3:TrackPointExtension>
            <ns3:atemp>22.0</ns3:atemp>
          </ns3:TrackPointExtension>
        </extensions>
      </trkpt>
      <trkpt lat="42.5458567030727863311767578125" lon="20.0343565642833709716796875">
        <ele>1989</ele>
        <time>2026-06-19T10:28:26.000Z</time>
        <extensions>
          <ns3:TrackPointExtension>
            <ns3:atemp>22.0</ns3:atemp>
          </ns3:TrackPointExtension>
        </extensions>
      </trkpt>
      <trkpt lat="42.54586567170917987823486328125" lon="20.03439872525632381439208984375">
        <ele>1989</ele>
        <time>2026-06-19T10:28:27.000Z</time>
        <extensions>
          <ns3:TrackPointExtension>
            <ns3:atemp>22.0</ns3:atemp>
          </ns3:TrackPointExtension>
        </extensions>
      </trkpt>
      <trkpt lat="42.545874975621700286865234375" lon="20.034435354173183441162109375">
        <ele>1989</ele>
        <time>2026-06-19T10:28:28.000Z</time>
        <extensions>
          <ns3:TrackPointExtension>
            <ns3:atemp>22.0</ns3:atemp>
          </ns3:TrackPointExtension>
        </extensions>
      </trkpt>
      <trkpt lat="42.5458838604390621185302734375" lon="20.034467540681362152099609375">
        <ele>1989.199951171875</ele>
        <time>2026-06-19T10:28:29.000Z</time>
        <extensions>
          <ns3:TrackPointExtension>
            <ns3:atemp>22.0</ns3:atemp>
          </ns3:TrackPointExtension>
        </extensions>
      </trkpt>
      <trkpt lat="42.5458895601332187652587890625" lon="20.0345012359321117401123046875">
        <ele>1989.199951171875</ele>
        <time>2026-06-19T10:28:30.000Z</time>
        <extensions>
          <ns3:TrackPointExtension>
            <ns3:atemp>22.0</ns3:atemp>
          </ns3:TrackPointExtension>
        </extensions>
      </trkpt>
      <trkpt lat="42.54589685238897800445556640625" lon="20.03453535027801990509033203125">
        <ele>1989.199951171875</ele>
        <time>2026-06-19T10:28:31.000Z</time>
        <extensions>
          <ns3:TrackPointExtension>
            <ns3:atemp>22.0</ns3:atemp>
          </ns3:TrackPointExtension>
        </extensions>
      </trkpt>
      <trkpt lat="42.54590758122503757476806640625" lon="20.03456988371908664703369140625">
        <ele>1989.199951171875</ele>
        <time>2026-06-19T10:28:32.000Z</time>
        <extensions>
          <ns3:TrackPointExtension>
            <ns3:atemp>22.0</ns3:atemp>
          </ns3:TrackPointExtension>
        </extensions>
      </trkpt>
      <trkpt lat="42.5459200702607631683349609375" lon="20.03460592590272426605224609375">
        <ele>1989.199951171875</ele>
        <time>2026-06-19T10:28:33.000Z</time>
        <extensions>
          <ns3:TrackPointExtension>
            <ns3:atemp>22.0</ns3:atemp>
          </ns3:TrackPointExtension>
        </extensions>
      </trkpt>
      <trkpt lat="42.54593473859131336212158203125" lon="20.0346490927040576934814453125">
        <ele>1989.199951171875</ele>
        <time>2026-06-19T10:28:34.000Z</time>
        <extensions>
          <ns3:TrackPointExtension>
            <ns3:atemp>22.0</ns3:atemp>
          </ns3:TrackPointExtension>
        </extensions>
      </trkpt>
      <trkpt lat="42.54594965837895870208740234375" lon="20.03469544462859630584716796875">
        <ele>1989</ele>
        <time>2026-06-19T10:28:35.000Z</time>
        <extensions>
          <ns3:TrackPointExtension>
            <ns3:atemp>22.0</ns3:atemp>
          </ns3:TrackPointExtension>
        </extensions>
      </trkpt>
      <trkpt lat="42.54596340470016002655029296875" lon="20.03474037162959575653076171875">
        <ele>1989</ele>
        <time>2026-06-19T10:28:36.000Z</time>
        <extensions>
          <ns3:TrackPointExtension>
            <ns3:atemp>22.0</ns3:atemp>
          </ns3:TrackPointExtension>
        </extensions>
      </trkpt>
      <trkpt lat="42.545968182384967803955078125" lon="20.03478244878351688385009765625">
        <ele>1989</ele>
        <time>2026-06-19T10:28:37.000Z</time>
        <extensions>
          <ns3:TrackPointExtension>
            <ns3:atemp>22.0</ns3:atemp>
          </ns3:TrackPointExtension>
        </extensions>
      </trkpt>
      <trkpt lat="42.54597262479364871978759765625" lon="20.03482301719486713409423828125">
        <ele>1988.800048828125</ele>
        <time>2026-06-19T10:28:38.000Z</time>
        <extensions>
          <ns3:TrackPointExtension>
            <ns3:atemp>22.0</ns3:atemp>
          </ns3:TrackPointExtension>
        </extensions>
      </trkpt>
      <trkpt lat="42.5459737144410610198974609375" lon="20.03485922701656818389892578125">
        <ele>1988.800048828125</ele>
        <time>2026-06-19T10:28:39.000Z</time>
        <extensions>
          <ns3:TrackPointExtension>
            <ns3:atemp>22.0</ns3:atemp>
          </ns3:TrackPointExtension>
        </extensions>
      </trkpt>
      <trkpt lat="42.54597648046910762786865234375" lon="20.0348908267915248870849609375">
        <ele>1988.800048828125</ele>
        <time>2026-06-19T10:28:40.000Z</time>
        <extensions>
          <ns3:TrackPointExtension>
            <ns3:atemp>22.0</ns3:atemp>
          </ns3:TrackPointExtension>
        </extensions>
      </trkpt>
      <trkpt lat="42.545980252325534820556640625" lon="20.03492292948067188262939453125">
        <ele>1988.800048828125</ele>
        <time>2026-06-19T10:28:41.000Z</time>
        <extensions>
          <ns3:TrackPointExtension>
            <ns3:atemp>22.0</ns3:atemp>
          </ns3:TrackPointExtension>
        </extensions>
      </trkpt>
      <trkpt lat="42.5459867902100086212158203125" lon="20.03495712764561176300048828125">
        <ele>1988.800048828125</ele>
        <time>2026-06-19T10:28:42.000Z</time>
        <extensions>
          <ns3:TrackPointExtension>
            <ns3:atemp>22.0</ns3:atemp>
          </ns3:TrackPointExtension>
        </extensions>
      </trkpt>
      <trkpt lat="42.54598955623805522918701171875" lon="20.03498931415379047393798828125">
        <ele>1988.5999755859375</ele>
        <time>2026-06-19T10:28:43.000Z</time>
        <extensions>
          <ns3:TrackPointExtension>
            <ns3:atemp>22.0</ns3:atemp>
          </ns3:TrackPointExtension>
        </extensions>
      </trkpt>
      <trkpt lat="42.54599156789481639862060546875" lon="20.03501764498651027679443359375">
        <ele>1988.199951171875</ele>
        <time>2026-06-19T10:28:44.000Z</time>
        <extensions>
          <ns3:TrackPointExtension>
            <ns3:atemp>22.0</ns3:atemp>
          </ns3:TrackPointExtension>
        </extensions>
      </trkpt>
      <trkpt lat="42.545996345579624176025390625" lon="20.03505234606564044952392578125">
        <ele>1988</ele>
        <time>2026-06-19T10:28:45.000Z</time>
        <extensions>
          <ns3:TrackPointExtension>
            <ns3:atemp>22.0</ns3:atemp>
          </ns3:TrackPointExtension>
        </extensions>
      </trkpt>
      <trkpt lat="42.54600665532052516937255859375" lon="20.0350822694599628448486328125">
        <ele>1987.800048828125</ele>
        <time>2026-06-19T10:28:46.000Z</time>
        <extensions>
          <ns3:TrackPointExtension>
            <ns3:atemp>22.0</ns3:atemp>
          </ns3:TrackPointExtension>
        </extensions>
      </trkpt>
      <trkpt lat="42.5460186414420604705810546875" lon="20.03511269576847553253173828125">
        <ele>1987.5999755859375</ele>
        <time>2026-06-19T10:28:47.000Z</time>
        <extensions>
          <ns3:TrackPointExtension>
            <ns3:atemp>22.0</ns3:atemp>
          </ns3:TrackPointExtension>
        </extensions>
      </trkpt>
      <trkpt lat="42.5460360758006572723388671875" lon="20.03513901494443416595458984375">
        <ele>1987.5999755859375</ele>
        <time>2026-06-19T10:28:48.000Z</time>
        <extensions>
          <ns3:TrackPointExtension>
            <ns3:atemp>22.0</ns3:atemp>
          </ns3:TrackPointExtension>
        </extensions>
      </trkpt>
      <trkpt lat="42.54605007357895374298095703125" lon="20.0351684354245662689208984375">
        <ele>1987.4000244140625</ele>
        <time>2026-06-19T10:28:49.000Z</time>
        <extensions>
          <ns3:TrackPointExtension>
            <ns3:atemp>22.0</ns3:atemp>
          </ns3:TrackPointExtension>
        </extensions>
      </trkpt>
      <trkpt lat="42.54606013186275959014892578125" lon="20.0351976044476032257080078125">
        <ele>1987.199951171875</ele>
        <time>2026-06-19T10:28:50.000Z</time>
        <extensions>
          <ns3:TrackPointExtension>
            <ns3:atemp>22.0</ns3:atemp>
          </ns3:TrackPointExtension>
        </extensions>
      </trkpt>
      <trkpt lat="42.54605770111083984375" lon="20.03523590974509716033935546875">
        <ele>1987.199951171875</ele>
        <time>2026-06-19T10:28:51.000Z</time>
        <extensions>
          <ns3:TrackPointExtension>
            <ns3:atemp>22.0</ns3:atemp>
          </ns3:TrackPointExtension>
        </extensions>
      </trkpt>
      <trkpt lat="42.54605434834957122802734375" lon="20.03526474349200725555419921875">
        <ele>1987.199951171875</ele>
        <time>2026-06-19T10:28:52.000Z</time>
        <extensions>
          <ns3:TrackPointExtension>
            <ns3:atemp>22.0</ns3:atemp>
          </ns3:TrackPointExtension>
        </extensions>
      </trkpt>
      <trkpt lat="42.546056024730205535888671875" lon="20.0353008694946765899658203125">
        <ele>1987.199951171875</ele>
        <time>2026-06-19T10:28:53.000Z</time>
        <extensions>
          <ns3:TrackPointExtension>
            <ns3:atemp>22.0</ns3:atemp>
          </ns3:TrackPointExtension>
        </extensions>
      </trkpt>
      <trkpt lat="42.54605560563504695892333984375" lon="20.03533783368766307830810546875">
        <ele>1987.199951171875</ele>
        <time>2026-06-19T10:28:54.000Z</time>
        <extensions>
          <ns3:TrackPointExtension>
            <ns3:atemp>22.0</ns3:atemp>
          </ns3:TrackPointExtension>
        </extensions>
      </trkpt>
      <trkpt lat="42.54605342634022235870361328125" lon="20.03537488169968128204345703125">
        <ele>1987.4000244140625</ele>
        <time>2026-06-19T10:28:55.000Z</time>
        <extensions>
          <ns3:TrackPointExtension>
            <ns3:atemp>22.0</ns3:atemp>
          </ns3:TrackPointExtension>
        </extensions>
      </trkpt>
      <trkpt lat="42.54605242051184177398681640625" lon="20.03541327081620693206787109375">
        <ele>1987.5999755859375</ele>
        <time>2026-06-19T10:28:56.000Z</time>
        <extensions>
          <ns3:TrackPointExtension>
            <ns3:atemp>22.0</ns3:atemp>
          </ns3:TrackPointExtension>
        </extensions>
      </trkpt>
      <trkpt lat="42.546052671968936920166015625" lon="20.0354463793337345123291015625">
        <ele>1987.800048828125</ele>
        <time>2026-06-19T10:28:57.000Z</time>
        <extensions>
          <ns3:TrackPointExtension>
            <ns3:atemp>22.0</ns3:atemp>
          </ns3:TrackPointExtension>
        </extensions>
      </trkpt>
      <trkpt lat="42.54605225287377834320068359375" lon="20.03547227941453456878662109375">
        <ele>1988</ele>
        <time>2026-06-19T10:28:58.000Z</time>
        <extensions>
          <ns3:TrackPointExtension>
            <ns3:atemp>22.0</ns3:atemp>
          </ns3:TrackPointExtension>
        </extensions>
      </trkpt>
      <trkpt lat="42.54605711437761783599853515625" lon="20.0354946590960025787353515625">
        <ele>1988.199951171875</ele>
        <time>2026-06-19T10:28:59.000Z</time>
        <extensions>
          <ns3:TrackPointExtension>
            <ns3:atemp>22.0</ns3:atemp>
          </ns3:TrackPointExtension>
        </extensions>
      </trkpt>
      <trkpt lat="42.54605946131050586700439453125" lon="20.03551787696778774261474609375">
        <ele>1988.4000244140625</ele>
        <time>2026-06-19T10:29:00.000Z</time>
        <extensions>
          <ns3:TrackPointExtension>
            <ns3:atemp>22.0</ns3:atemp>
          </ns3:TrackPointExtension>
        </extensions>
      </trkpt>
      <trkpt lat="42.54606130532920360565185546875" lon="20.0355402566492557525634765625">
        <ele>1988.5999755859375</ele>
        <time>2026-06-19T10:29:01.000Z</time>
        <extensions>
          <ns3:TrackPointExtension>
            <ns3:atemp>22.0</ns3:atemp>
          </ns3:TrackPointExtension>
        </extensions>
      </trkpt>
      <trkpt lat="42.5460649095475673675537109375" lon="20.0355717726051807403564453125">
        <ele>1988.5999755859375</ele>
        <time>2026-06-19T10:29:02.000Z</time>
        <extensions>
          <ns3:TrackPointExtension>
            <ns3:atemp>22.0</ns3:atemp>
          </ns3:TrackPointExtension>
        </extensions>
      </trkpt>
      <trkpt lat="42.5460702739655971527099609375" lon="20.03560940735042095184326171875">
        <ele>1988.5999755859375</ele>
        <time>2026-06-19T10:29:03.000Z</time>
        <extensions>
          <ns3:TrackPointExtension>
            <ns3:atemp>22.0</ns3:atemp>
          </ns3:TrackPointExtension>
        </extensions>
      </trkpt>
      <trkpt lat="42.54607714712619781494140625" lon="20.0356542505323886871337890625">
        <ele>1988.199951171875</ele>
        <time>2026-06-19T10:29:04.000Z</time>
        <extensions>
          <ns3:TrackPointExtension>
            <ns3:atemp>22.0</ns3:atemp>
          </ns3:TrackPointExtension>
        </extensions>
      </trkpt>
      <trkpt lat="42.54608460702002048492431640625" lon="20.03569699823856353759765625">
        <ele>1988</ele>
        <time>2026-06-19T10:29:05.000Z</time>
        <extensions>
          <ns3:TrackPointExtension>
            <ns3:atemp>22.0</ns3:atemp>
          </ns3:TrackPointExtension>
        </extensions>
      </trkpt>
      <trkpt lat="42.546098269522190093994140625" lon="20.03573060967028141021728515625">
        <ele>1987.800048828125</ele>
        <time>2026-06-19T10:29:06.000Z</time>
        <extensions>
          <ns3:TrackPointExtension>
            <ns3:atemp>22.0</ns3:atemp>
          </ns3:TrackPointExtension>
        </extensions>
      </trkpt>
      <trkpt lat="42.5461118482053279876708984375" lon="20.035769753158092498779296875">
        <ele>1987.4000244140625</ele>
        <time>2026-06-19T10:29:07.000Z</time>
        <extensions>
          <ns3:TrackPointExtension>
            <ns3:atemp>22.0</ns3:atemp>
          </ns3:TrackPointExtension>
        </extensions>
      </trkpt>
      <trkpt lat="42.54613003693521022796630859375" lon="20.03581233322620391845703125">
        <ele>1987.199951171875</ele>
        <time>2026-06-19T10:29:08.000Z</time>
        <extensions>
          <ns3:TrackPointExtension>
            <ns3:atemp>22.0</ns3:atemp>
          </ns3:TrackPointExtension>
        </extensions>
      </trkpt>
      <trkpt lat="42.5461530871689319610595703125" lon="20.0358634628355503082275390625">
        <ele>1986.800048828125</ele>
        <time>2026-06-19T10:29:09.000Z</time>
        <extensions>
          <ns3:TrackPointExtension>
            <ns3:atemp>22.0</ns3:atemp>
          </ns3:TrackPointExtension>
        </extensions>
      </trkpt>
      <trkpt lat="42.546184100210666656494140625" lon="20.03591693937778472900390625">
        <ele>1986.4000244140625</ele>
        <time>2026-06-19T10:29:10.000Z</time>
        <extensions>
          <ns3:TrackPointExtension>
            <ns3:atemp>22.0</ns3:atemp>
          </ns3:TrackPointExtension>
        </extensions>
      </trkpt>
      <trkpt lat="42.54622005857527256011962890625" lon="20.0359714217483997344970703125">
        <ele>1985.800048828125</ele>
        <time>2026-06-19T10:29:11.000Z</time>
        <extensions>
          <ns3:TrackPointExtension>
            <ns3:atemp>22.0</ns3:atemp>
          </ns3:TrackPointExtension>
        </extensions>
      </trkpt>
      <trkpt lat="42.54625274799764156341552734375" lon="20.0360250659286975860595703125">
        <ele>1985.4000244140625</ele>
        <time>2026-06-19T10:29:12.000Z</time>
        <extensions>
          <ns3:TrackPointExtension>
            <ns3:atemp>22.0</ns3:atemp>
          </ns3:TrackPointExtension>
        </extensions>
      </trkpt>
      <trkpt lat="42.54627697169780731201171875" lon="20.03608860075473785400390625">
        <ele>1985</ele>
        <time>2026-06-19T10:29:13.000Z</time>
        <extensions>
          <ns3:TrackPointExtension>
            <ns3:atemp>22.0</ns3:atemp>
          </ns3:TrackPointExtension>
        </extensions>
      </trkpt>
      <trkpt lat="42.54630605690181255340576171875" lon="20.0361410714685916900634765625">
        <ele>1984.5999755859375</ele>
        <time>2026-06-19T10:29:14.000Z</time>
        <extensions>
          <ns3:TrackPointExtension>
            <ns3:atemp>22.0</ns3:atemp>
          </ns3:TrackPointExtension>
        </extensions>
      </trkpt>
      <trkpt lat="42.54633120261132717132568359375" lon="20.03620217554271221160888671875">
        <ele>1984.199951171875</ele>
        <time>2026-06-19T10:29:15.000Z</time>
        <extensions>
          <ns3:TrackPointExtension>
            <ns3:atemp>22.0</ns3:atemp>
          </ns3:TrackPointExtension>
        </extensions>
      </trkpt>
      <trkpt lat="42.54635584540665149688720703125" lon="20.0362662971019744873046875">
        <ele>1983.5999755859375</ele>
        <time>2026-06-19T10:29:16.000Z</time>
        <extensions>
          <ns3:TrackPointExtension>
            <ns3:atemp>22.0</ns3:atemp>
          </ns3:TrackPointExtension>
        </extensions>
      </trkpt>
      <trkpt lat="42.54637545906007289886474609375" lon="20.03633494488894939422607421875">
        <ele>1983.199951171875</ele>
        <time>2026-06-19T10:29:17.000Z</time>
        <extensions>
          <ns3:TrackPointExtension>
            <ns3:atemp>22.0</ns3:atemp>
          </ns3:TrackPointExtension>
        </extensions>
      </trkpt>
      <trkpt lat="42.5463954918086528778076171875" lon="20.03639864735305309295654296875">
        <ele>1982.800048828125</ele>
        <time>2026-06-19T10:29:18.000Z</time>
        <extensions>
          <ns3:TrackPointExtension>
            <ns3:atemp>22.0</ns3:atemp>
          </ns3:TrackPointExtension>
        </extensions>
      </trkpt>
      <trkpt lat="42.5464162789285182952880859375" lon="20.0364609248936176300048828125">
        <ele>1982.4000244140625</ele>
        <time>2026-06-19T10:29:19.000Z</time>
        <extensions>
          <ns3:TrackPointExtension>
            <ns3:atemp>22.0</ns3:atemp>
          </ns3:TrackPointExtension>
        </extensions>
      </trkpt>
      <trkpt lat="42.5464372336864471435546875" lon="20.0365197658538818359375">
        <ele>1982</ele>
        <time>2026-06-19T10:29:20.000Z</time>
        <extensions>
          <ns3:TrackPointExtension>
            <ns3:atemp>22.0</ns3:atemp>
          </ns3:TrackPointExtension>
        </extensions>
      </trkpt>
      <trkpt lat="42.5464692525565624237060546875" lon="20.03657232038676738739013671875">
        <ele>1981.800048828125</ele>
        <time>2026-06-19T10:29:21.000Z</time>
        <extensions>
          <ns3:TrackPointExtension>
            <ns3:atemp>22.0</ns3:atemp>
          </ns3:TrackPointExtension>
        </extensions>
      </trkpt>
      <trkpt lat="42.54650554619729518890380859375" lon="20.03662529401481151580810546875">
        <ele>1981.5999755859375</ele>
        <time>2026-06-19T10:29:22.000Z</time>
        <extensions>
          <ns3:TrackPointExtension>
            <ns3:atemp>22.0</ns3:atemp>
          </ns3:TrackPointExtension>
        </extensions>
      </trkpt>
      <trkpt lat="42.54654276184737682342529296875" lon="20.0366793572902679443359375">
        <ele>1981.4000244140625</ele>
        <time>2026-06-19T10:29:23.000Z</time>
        <extensions>
          <ns3:TrackPointExtension>
            <ns3:atemp>22.0</ns3:atemp>
          </ns3:TrackPointExtension>
        </extensions>
      </trkpt>
      <trkpt lat="42.54657737910747528076171875" lon="20.03673308528959751129150390625">
        <ele>1981</ele>
        <time>2026-06-19T10:29:24.000Z</time>
        <extensions>
          <ns3:TrackPointExtension>
            <ns3:atemp>22.0</ns3:atemp>
          </ns3:TrackPointExtension>
        </extensions>
      </trkpt>
      <trkpt lat="42.54660780541598796844482421875" lon="20.0367968715727329254150390625">
        <ele>1980.800048828125</ele>
        <time>2026-06-19T10:29:25.000Z</time>
        <extensions>
          <ns3:TrackPointExtension>
            <ns3:atemp>22.0</ns3:atemp>
          </ns3:TrackPointExtension>
        </extensions>
      </trkpt>
      <trkpt lat="42.54663764499127864837646484375" lon="20.03685814328491687774658203125">
        <ele>1980.4000244140625</ele>
        <time>2026-06-19T10:29:26.000Z</time>
        <extensions>
          <ns3:TrackPointExtension>
            <ns3:atemp>22.0</ns3:atemp>
          </ns3:TrackPointExtension>
        </extensions>
      </trkpt>
      <trkpt lat="42.5466700829565525054931640625" lon="20.03691346384584903717041015625">
        <ele>1980.4000244140625</ele>
        <time>2026-06-19T10:29:27.000Z</time>
        <extensions>
          <ns3:TrackPointExtension>
            <ns3:atemp>22.0</ns3:atemp>
          </ns3:TrackPointExtension>
        </extensions>
      </trkpt>
      <trkpt lat="42.5467042811214923858642578125" lon="20.03696568310260772705078125">
        <ele>1980.199951171875</ele>
        <time>2026-06-19T10:29:28.000Z</time>
        <extensions>
          <ns3:TrackPointExtension>
            <ns3:atemp>22.0</ns3:atemp>
          </ns3:TrackPointExtension>
        </extensions>
      </trkpt>
      <trkpt lat="42.546731941401958465576171875" lon="20.037016980350017547607421875">
        <ele>1980</ele>
        <time>2026-06-19T10:29:29.000Z</time>
        <extensions>
          <ns3:TrackPointExtension>
            <ns3:atemp>22.0</ns3:atemp>
          </ns3:TrackPointExtension>
        </extensions>
      </trkpt>
      <trkpt lat="42.546756081283092498779296875" lon="20.0370709598064422607421875">
        <ele>1980</ele>
        <time>2026-06-19T10:29:30.000Z</time>
        <extensions>
          <ns3:TrackPointExtension>
            <ns3:atemp>22.0</ns3:atemp>
          </ns3:TrackPointExtension>
        </extensions>
      </trkpt>
      <trkpt lat="42.546778209507465362548828125" lon="20.0371204130351543426513671875">
        <ele>1980</ele>
        <time>2026-06-19T10:29:31.000Z</time>
        <extensions>
          <ns3:TrackPointExtension>
            <ns3:atemp>22.0</ns3:atemp>
          </ns3:TrackPointExtension>
        </extensions>
      </trkpt>
      <trkpt lat="42.54679840989410877227783203125" lon="20.03716609440743923187255859375">
        <ele>1980</ele>
        <time>2026-06-19T10:29:32.000Z</time>
        <extensions>
          <ns3:TrackPointExtension>
            <ns3:atemp>22.0</ns3:atemp>
          </ns3:TrackPointExtension>
        </extensions>
      </trkpt>
      <trkpt lat="42.546819113194942474365234375" lon="20.03721169196069240570068359375">
        <ele>1980</ele>
        <time>2026-06-19T10:29:33.000Z</time>
        <extensions>
          <ns3:TrackPointExtension>
            <ns3:atemp>22.0</ns3:atemp>
          </ns3:TrackPointExtension>
        </extensions>
      </trkpt>
      <trkpt lat="42.54683394916355609893798828125" lon="20.03725108690559864044189453125">
        <ele>1980</ele>
        <time>2026-06-19T10:29:34.000Z</time>
        <extensions>
          <ns3:TrackPointExtension>
            <ns3:atemp>22.0</ns3:atemp>
          </ns3:TrackPointExtension>
        </extensions>
      </trkpt>
      <trkpt lat="42.546847946941852569580078125" lon="20.03729500807821750640869140625">
        <ele>1980</ele>
        <time>2026-06-19T10:29:35.000Z</time>
        <extensions>
          <ns3:TrackPointExtension>
            <ns3:atemp>22.0</ns3:atemp>
          </ns3:TrackPointExtension>
        </extensions>
      </trkpt>
      <trkpt lat="42.54686177708208560943603515625" lon="20.037341527640819549560546875">
        <ele>1980</ele>
        <time>2026-06-19T10:29:36.000Z</time>
        <extensions>
          <ns3:TrackPointExtension>
            <ns3:atemp>22.0</ns3:atemp>
          </ns3:TrackPointExtension>
        </extensions>
      </trkpt>
      <trkpt lat="42.54688021726906299591064453125" lon="20.0373842753469944000244140625">
        <ele>1979.800048828125</ele>
        <time>2026-06-19T10:29:37.000Z</time>
        <extensions>
          <ns3:TrackPointExtension>
            <ns3:atemp>22.0</ns3:atemp>
          </ns3:TrackPointExtension>
        </extensions>
      </trkpt>
      <trkpt lat="42.5468987412750720977783203125" lon="20.0374349020421504974365234375">
        <ele>1979.800048828125</ele>
        <time>2026-06-19T10:29:38.000Z</time>
        <extensions>
          <ns3:TrackPointExtension>
            <ns3:atemp>22.0</ns3:atemp>
          </ns3:TrackPointExtension>
        </extensions>
      </trkpt>
      <trkpt lat="42.546919025480747222900390625" lon="20.037484355270862579345703125">
        <ele>1979.5999755859375</ele>
        <time>2026-06-19T10:29:39.000Z</time>
        <extensions>
          <ns3:TrackPointExtension>
            <ns3:atemp>22.0</ns3:atemp>
          </ns3:TrackPointExtension>
        </extensions>
      </trkpt>
      <trkpt lat="42.54694350063800811767578125" lon="20.0375296175479888916015625">
        <ele>1979.4000244140625</ele>
        <time>2026-06-19T10:29:40.000Z</time>
        <extensions>
          <ns3:TrackPointExtension>
            <ns3:atemp>22.0</ns3:atemp>
          </ns3:TrackPointExtension>
        </extensions>
      </trkpt>
      <trkpt lat="42.54696839489042758941650390625" lon="20.0375840999186038970947265625">
        <ele>1979.199951171875</ele>
        <time>2026-06-19T10:29:41.000Z</time>
        <extensions>
          <ns3:TrackPointExtension>
            <ns3:atemp>22.0</ns3:atemp>
          </ns3:TrackPointExtension>
        </extensions>
      </trkpt>
      <trkpt lat="42.54699186421930789947509765625" lon="20.0376410968601703643798828125">
        <ele>1979</ele>
        <time>2026-06-19T10:29:42.000Z</time>
        <extensions>
          <ns3:TrackPointExtension>
            <ns3:atemp>22.0</ns3:atemp>
          </ns3:TrackPointExtension>
        </extensions>
      </trkpt>
      <trkpt lat="42.54701114259660243988037109375" lon="20.037699602544307708740234375">
        <ele>1978.800048828125</ele>
        <time>2026-06-19T10:29:43.000Z</time>
        <extensions>
          <ns3:TrackPointExtension>
            <ns3:atemp>22.0</ns3:atemp>
          </ns3:TrackPointExtension>
        </extensions>
      </trkpt>
      <trkpt lat="42.5470325164496898651123046875" lon="20.03775500692427158355712890625">
        <ele>1978.800048828125</ele>
        <time>2026-06-19T10:29:44.000Z</time>
        <extensions>
          <ns3:TrackPointExtension>
            <ns3:atemp>22.0</ns3:atemp>
          </ns3:TrackPointExtension>
        </extensions>
      </trkpt>
      <trkpt lat="42.5470579974353313446044921875" lon="20.037805549800395965576171875">
        <ele>1978.5999755859375</ele>
        <time>2026-06-19T10:29:45.000Z</time>
        <extensions>
          <ns3:TrackPointExtension>
            <ns3:atemp>22.0</ns3:atemp>
          </ns3:TrackPointExtension>
        </extensions>
      </trkpt>
      <trkpt lat="42.54708456806838512420654296875" lon="20.0378563441336154937744140625">
        <ele>1978.4000244140625</ele>
        <time>2026-06-19T10:29:46.000Z</time>
        <extensions>
          <ns3:TrackPointExtension>
            <ns3:atemp>22.0</ns3:atemp>
          </ns3:TrackPointExtension>
        </extensions>
      </trkpt>
      <trkpt lat="42.5471131503582000732421875" lon="20.037911497056484222412109375">
        <ele>1978.4000244140625</ele>
        <time>2026-06-19T10:29:47.000Z</time>
        <extensions>
          <ns3:TrackPointExtension>
            <ns3:atemp>22.0</ns3:atemp>
          </ns3:TrackPointExtension>
        </extensions>
      </trkpt>
      <trkpt lat="42.54714198410511016845703125" lon="20.03797017037868499755859375">
        <ele>1978.199951171875</ele>
        <time>2026-06-19T10:29:48.000Z</time>
        <extensions>
          <ns3:TrackPointExtension>
            <ns3:atemp>22.0</ns3:atemp>
          </ns3:TrackPointExtension>
        </extensions>
      </trkpt>
      <trkpt lat="42.54716972820460796356201171875" lon="20.0380259938538074493408203125">
        <ele>1978</ele>
        <time>2026-06-19T10:29:49.000Z</time>
        <extensions>
          <ns3:TrackPointExtension>
            <ns3:atemp>22.0</ns3:atemp>
          </ns3:TrackPointExtension>
        </extensions>
      </trkpt>
      <trkpt lat="42.547197304666042327880859375" lon="20.0380866788327693939208984375">
        <ele>1977.800048828125</ele>
        <time>2026-06-19T10:29:50.000Z</time>
        <extensions>
          <ns3:TrackPointExtension>
            <ns3:atemp>22.0</ns3:atemp>
          </ns3:TrackPointExtension>
        </extensions>
      </trkpt>
      <trkpt lat="42.547221444547176361083984375" lon="20.0381493754684925079345703125">
        <ele>1977.5999755859375</ele>
        <time>2026-06-19T10:29:51.000Z</time>
        <extensions>
          <ns3:TrackPointExtension>
            <ns3:atemp>22.0</ns3:atemp>
          </ns3:TrackPointExtension>
        </extensions>
      </trkpt>
      <trkpt lat="42.54724516533315181732177734375" lon="20.03821425139904022216796875">
        <ele>1977.4000244140625</ele>
        <time>2026-06-19T10:29:52.000Z</time>
        <extensions>
          <ns3:TrackPointExtension>
            <ns3:atemp>22.0</ns3:atemp>
          </ns3:TrackPointExtension>
        </extensions>
      </trkpt>
      <trkpt lat="42.54726913757622241973876953125" lon="20.0382858328521251678466796875">
        <ele>1977.199951171875</ele>
        <time>2026-06-19T10:29:53.000Z</time>
        <extensions>
          <ns3:TrackPointExtension>
            <ns3:atemp>22.0</ns3:atemp>
          </ns3:TrackPointExtension>
        </extensions>
      </trkpt>
      <trkpt lat="42.54729478619992733001708984375" lon="20.038366802036762237548828125">
        <ele>1976.800048828125</ele>
        <time>2026-06-19T10:29:54.000Z</time>
        <extensions>
          <ns3:TrackPointExtension>
            <ns3:atemp>22.0</ns3:atemp>
          </ns3:TrackPointExtension>
        </extensions>
      </trkpt>
      <trkpt lat="42.5473211891949176788330078125" lon="20.03845020197331905364990234375">
        <ele>1976.4000244140625</ele>
        <time>2026-06-19T10:29:55.000Z</time>
        <extensions>
          <ns3:TrackPointExtension>
            <ns3:atemp>22.0</ns3:atemp>
          </ns3:TrackPointExtension>
        </extensions>
      </trkpt>
      <trkpt lat="42.54734692163765430450439453125" lon="20.03853955306112766265869140625">
        <ele>1976</ele>
        <time>2026-06-19T10:29:56.000Z</time>
        <extensions>
          <ns3:TrackPointExtension>
            <ns3:atemp>22.0</ns3:atemp>
          </ns3:TrackPointExtension>
        </extensions>
      </trkpt>
      <trkpt lat="42.547366619110107421875" lon="20.0386304967105388641357421875">
        <ele>1975.4000244140625</ele>
        <time>2026-06-19T10:29:57.000Z</time>
        <extensions>
          <ns3:TrackPointExtension>
            <ns3:atemp>22.0</ns3:atemp>
          </ns3:TrackPointExtension>
        </extensions>
      </trkpt>
      <trkpt lat="42.54738614894449710845947265625" lon="20.03871641121804714202880859375">
        <ele>1975</ele>
        <time>2026-06-19T10:29:58.000Z</time>
        <extensions>
          <ns3:TrackPointExtension>
            <ns3:atemp>22.0</ns3:atemp>
          </ns3:TrackPointExtension>
        </extensions>
      </trkpt>
      <trkpt lat="42.547404505312442779541015625" lon="20.03879754804074764251708984375">
        <ele>1974.800048828125</ele>
        <time>2026-06-19T10:29:59.000Z</time>
        <extensions>
          <ns3:TrackPointExtension>
            <ns3:atemp>22.0</ns3:atemp>
          </ns3:TrackPointExtension>
        </extensions>
      </trkpt>
      <trkpt lat="42.547422945499420166015625" lon="20.03886762075126171112060546875">
        <ele>1974.5999755859375</ele>
        <time>2026-06-19T10:30:00.000Z</time>
        <extensions>
          <ns3:TrackPointExtension>
            <ns3:atemp>22.0</ns3:atemp>
          </ns3:TrackPointExtension>
        </extensions>
      </trkpt>
      <trkpt lat="42.54744281060993671417236328125" lon="20.0389258749783039093017578125">
        <ele>1974.800048828125</ele>
        <time>2026-06-19T10:30:01.000Z</time>
        <extensions>
          <ns3:TrackPointExtension>
            <ns3:atemp>22.0</ns3:atemp>
          </ns3:TrackPointExtension>
        </extensions>
      </trkpt>
      <trkpt lat="42.54746426828205585479736328125" lon="20.0389681197702884674072265625">
        <ele>1974.800048828125</ele>
        <time>2026-06-19T10:30:02.000Z</time>
        <extensions>
          <ns3:TrackPointExtension>
            <ns3:atemp>22.0</ns3:atemp>
          </ns3:TrackPointExtension>
        </extensions>
      </trkpt>
      <trkpt lat="42.54748723469674587249755859375" lon="20.03901262767612934112548828125">
        <ele>1975</ele>
        <time>2026-06-19T10:30:03.000Z</time>
        <extensions>
          <ns3:TrackPointExtension>
            <ns3:atemp>22.0</ns3:atemp>
          </ns3:TrackPointExtension>
        </extensions>
      </trkpt>
      <trkpt lat="42.54751120693981647491455078125" lon="20.0390611588954925537109375">
        <ele>1975.199951171875</ele>
        <time>2026-06-19T10:30:04.000Z</time>
        <extensions>
          <ns3:TrackPointExtension>
            <ns3:atemp>22.0</ns3:atemp>
          </ns3:TrackPointExtension>
        </extensions>
      </trkpt>
      <trkpt lat="42.54753450863063335418701171875" lon="20.03910985775291919708251953125">
        <ele>1975.199951171875</ele>
        <time>2026-06-19T10:30:05.000Z</time>
        <extensions>
          <ns3:TrackPointExtension>
            <ns3:atemp>22.0</ns3:atemp>
          </ns3:TrackPointExtension>
        </extensions>
      </trkpt>
      <trkpt lat="42.54755898378789424896240234375" lon="20.0391629151999950408935546875">
        <ele>1975.199951171875</ele>
        <time>2026-06-19T10:30:06.000Z</time>
        <extensions>
          <ns3:TrackPointExtension>
            <ns3:atemp>22.0</ns3:atemp>
          </ns3:TrackPointExtension>
        </extensions>
      </trkpt>
      <trkpt lat="42.547585554420948028564453125" lon="20.0392135418951511383056640625">
        <ele>1975.199951171875</ele>
        <time>2026-06-19T10:30:07.000Z</time>
        <extensions>
          <ns3:TrackPointExtension>
            <ns3:atemp>22.0</ns3:atemp>
          </ns3:TrackPointExtension>
        </extensions>
      </trkpt>
      <trkpt lat="42.54761463962495326995849609375" lon="20.03927062265574932098388671875">
        <ele>1975</ele>
        <time>2026-06-19T10:30:08.000Z</time>
        <extensions>
          <ns3:TrackPointExtension>
            <ns3:atemp>22.0</ns3:atemp>
          </ns3:TrackPointExtension>
        </extensions>
      </trkpt>
      <trkpt lat="42.54764397628605365753173828125" lon="20.03932510502636432647705078125">
        <ele>1975</ele>
        <time>2026-06-19T10:30:09.000Z</time>
        <extensions>
          <ns3:TrackPointExtension>
            <ns3:atemp>22.0</ns3:atemp>
          </ns3:TrackPointExtension>
        </extensions>
      </trkpt>
      <trkpt lat="42.547671385109424591064453125" lon="20.03938009031116962432861328125">
        <ele>1974.800048828125</ele>
        <time>2026-06-19T10:30:10.000Z</time>
        <extensions>
          <ns3:TrackPointExtension>
            <ns3:atemp>22.0</ns3:atemp>
          </ns3:TrackPointExtension>
        </extensions>
      </trkpt>
      <trkpt lat="42.547696866095066070556640625" lon="20.0394351594150066375732421875">
        <ele>1974.800048828125</ele>
        <time>2026-06-19T10:30:11.000Z</time>
        <extensions>
          <ns3:TrackPointExtension>
            <ns3:atemp>22.0</ns3:atemp>
          </ns3:TrackPointExtension>
        </extensions>
      </trkpt>
      <trkpt lat="42.54772058688104152679443359375" lon="20.0394871272146701812744140625">
        <ele>1974.800048828125</ele>
        <time>2026-06-19T10:30:12.000Z</time>
        <extensions>
          <ns3:TrackPointExtension>
            <ns3:atemp>22.0</ns3:atemp>
          </ns3:TrackPointExtension>
        </extensions>
      </trkpt>
      <trkpt lat="42.5477473251521587371826171875" lon="20.03954152576625347137451171875">
        <ele>1974.800048828125</ele>
        <time>2026-06-19T10:30:13.000Z</time>
        <extensions>
          <ns3:TrackPointExtension>
            <ns3:atemp>22.0</ns3:atemp>
          </ns3:TrackPointExtension>
        </extensions>
      </trkpt>
      <trkpt lat="42.547777332365512847900390625" lon="20.03959617577493190765380859375">
        <ele>1974.5999755859375</ele>
        <time>2026-06-19T10:30:14.000Z</time>
        <extensions>
          <ns3:TrackPointExtension>
            <ns3:atemp>22.0</ns3:atemp>
          </ns3:TrackPointExtension>
        </extensions>
      </trkpt>
      <trkpt lat="42.54780759103596210479736328125" lon="20.039651580154895782470703125">
        <ele>1974.5999755859375</ele>
        <time>2026-06-19T10:30:15.000Z</time>
        <extensions>
          <ns3:TrackPointExtension>
            <ns3:atemp>22.0</ns3:atemp>
          </ns3:TrackPointExtension>
        </extensions>
      </trkpt>
      <trkpt lat="42.54783474840223789215087890625" lon="20.03971268422901630401611328125">
        <ele>1974.199951171875</ele>
        <time>2026-06-19T10:30:16.000Z</time>
        <extensions>
          <ns3:TrackPointExtension>
            <ns3:atemp>22.0</ns3:atemp>
          </ns3:TrackPointExtension>
        </extensions>
      </trkpt>
      <trkpt lat="42.5478666834533214569091796875" lon="20.0397818349301815032958984375">
        <ele>1974</ele>
        <time>2026-06-19T10:30:17.000Z</time>
        <extensions>
          <ns3:TrackPointExtension>
            <ns3:atemp>22.0</ns3:atemp>
          </ns3:TrackPointExtension>
        </extensions>
      </trkpt>
      <trkpt lat="42.5478998757898807525634765625" lon="20.03984637558460235595703125">
        <ele>1973.5999755859375</ele>
        <time>2026-06-19T10:30:18.000Z</time>
        <extensions>
          <ns3:TrackPointExtension>
            <ns3:atemp>22.0</ns3:atemp>
          </ns3:TrackPointExtension>
        </extensions>
      </trkpt>
      <trkpt lat="42.5479313917458057403564453125" lon="20.039897672832012176513671875">
        <ele>1973.4000244140625</ele>
        <time>2026-06-19T10:30:19.000Z</time>
        <extensions>
          <ns3:TrackPointExtension>
            <ns3:atemp>22.0</ns3:atemp>
          </ns3:TrackPointExtension>
        </extensions>
      </trkpt>
      <trkpt lat="42.5479575432837009429931640625" lon="20.03994318656623363494873046875">
        <ele>1973.199951171875</ele>
        <time>2026-06-19T10:30:20.000Z</time>
        <extensions>
          <ns3:TrackPointExtension>
            <ns3:atemp>22.0</ns3:atemp>
          </ns3:TrackPointExtension>
        </extensions>
      </trkpt>
      <trkpt lat="42.54798176698386669158935546875" lon="20.03998274914920330047607421875">
        <ele>1973.4000244140625</ele>
        <time>2026-06-19T10:30:21.000Z</time>
        <extensions>
          <ns3:TrackPointExtension>
            <ns3:atemp>22.0</ns3:atemp>
          </ns3:TrackPointExtension>
        </extensions>
      </trkpt>
      <trkpt lat="42.54800456576049327850341796875" lon="20.04002080298960208892822265625">
        <ele>1973.5999755859375</ele>
        <time>2026-06-19T10:30:22.000Z</time>
        <extensions>
          <ns3:TrackPointExtension>
            <ns3:atemp>22.0</ns3:atemp>
          </ns3:TrackPointExtension>
        </extensions>
      </trkpt>
      <trkpt lat="42.54802468232810497283935546875" lon="20.04005231894552707672119140625">
        <ele>1973.800048828125</ele>
        <time>2026-06-19T10:30:23.000Z</time>
        <extensions>
          <ns3:TrackPointExtension>
            <ns3:atemp>22.0</ns3:atemp>
          </ns3:TrackPointExtension>
        </extensions>
      </trkpt>
      <trkpt lat="42.5480467267334461212158203125" lon="20.040086098015308380126953125">
        <ele>1974</ele>
        <time>2026-06-19T10:30:24.000Z</time>
        <extensions>
          <ns3:TrackPointExtension>
            <ns3:atemp>22.0</ns3:atemp>
          </ns3:TrackPointExtension>
        </extensions>
      </trkpt>
      <trkpt lat="42.54806675948202610015869140625" lon="20.04011937417089939117431640625">
        <ele>1974</ele>
        <time>2026-06-19T10:30:25.000Z</time>
        <extensions>
          <ns3:TrackPointExtension>
            <ns3:atemp>22.0</ns3:atemp>
          </ns3:TrackPointExtension>
        </extensions>
      </trkpt>
      <trkpt lat="42.54808553494513034820556640625" lon="20.04015491344034671783447265625">
        <ele>1974</ele>
        <time>2026-06-19T10:30:26.000Z</time>
        <extensions>
          <ns3:TrackPointExtension>
            <ns3:atemp>22.0</ns3:atemp>
          </ns3:TrackPointExtension>
        </extensions>
      </trkpt>
      <trkpt lat="42.54810623824596405029296875" lon="20.04019129090011119842529296875">
        <ele>1974.199951171875</ele>
        <time>2026-06-19T10:30:27.000Z</time>
        <extensions>
          <ns3:TrackPointExtension>
            <ns3:atemp>22.0</ns3:atemp>
          </ns3:TrackPointExtension>
        </extensions>
      </trkpt>
      <trkpt lat="42.54812476225197315216064453125" lon="20.0402274169027805328369140625">
        <ele>1974.4000244140625</ele>
        <time>2026-06-19T10:30:28.000Z</time>
        <extensions>
          <ns3:TrackPointExtension>
            <ns3:atemp>22.0</ns3:atemp>
          </ns3:TrackPointExtension>
        </extensions>
      </trkpt>
      <trkpt lat="42.54814387299120426177978515625" lon="20.0402666442096233367919921875">
        <ele>1974.4000244140625</ele>
        <time>2026-06-19T10:30:29.000Z</time>
        <extensions>
          <ns3:TrackPointExtension>
            <ns3:atemp>22.0</ns3:atemp>
          </ns3:TrackPointExtension>
        </extensions>
      </trkpt>
      <trkpt lat="42.5481617264449596405029296875" lon="20.040302015841007232666015625">
        <ele>1974.5999755859375</ele>
        <time>2026-06-19T10:30:30.000Z</time>
        <extensions>
          <ns3:TrackPointExtension>
            <ns3:atemp>22.0</ns3:atemp>
          </ns3:TrackPointExtension>
        </extensions>
      </trkpt>
      <trkpt lat="42.54817538894712924957275390625" lon="20.04033428616821765899658203125">
        <ele>1974.800048828125</ele>
        <time>2026-06-19T10:30:31.000Z</time>
        <extensions>
          <ns3:TrackPointExtension>
            <ns3:atemp>22.0</ns3:atemp>
          </ns3:TrackPointExtension>
        </extensions>
      </trkpt>
      <trkpt lat="42.54819064401090145111083984375" lon="20.04036144353449344635009765625">
        <ele>1975</ele>
        <time>2026-06-19T10:30:32.000Z</time>
        <extensions>
          <ns3:TrackPointExtension>
            <ns3:atemp>22.0</ns3:atemp>
          </ns3:TrackPointExtension>
        </extensions>
      </trkpt>
      <trkpt lat="42.54819751717150211334228515625" lon="20.04038994200527667999267578125">
        <ele>1975.199951171875</ele>
        <time>2026-06-19T10:30:33.000Z</time>
        <extensions>
          <ns3:TrackPointExtension>
            <ns3:atemp>22.0</ns3:atemp>
          </ns3:TrackPointExtension>
        </extensions>
      </trkpt>
      <trkpt lat="42.54820757545530796051025390625" lon="20.04040955565869808197021484375">
        <ele>1975.4000244140625</ele>
        <time>2026-06-19T10:30:34.000Z</time>
        <extensions>
          <ns3:TrackPointExtension>
            <ns3:atemp>22.0</ns3:atemp>
          </ns3:TrackPointExtension>
        </extensions>
      </trkpt>
      <trkpt lat="42.5482163764536380767822265625" lon="20.04043570719659328460693359375">
        <ele>1975.5999755859375</ele>
        <time>2026-06-19T10:30:35.000Z</time>
        <extensions>
          <ns3:TrackPointExtension>
            <ns3:atemp>22.0</ns3:atemp>
          </ns3:TrackPointExtension>
        </extensions>
      </trkpt>
      <trkpt lat="42.5482250936329364776611328125" lon="20.0404612720012664794921875">
        <ele>1975.5999755859375</ele>
        <time>2026-06-19T10:30:36.000Z</time>
        <extensions>
          <ns3:TrackPointExtension>
            <ns3:atemp>22.0</ns3:atemp>
          </ns3:TrackPointExtension>
        </extensions>
      </trkpt>
      <trkpt lat="42.54823372699320316314697265625" lon="20.040487088263034820556640625">
        <ele>1975.5999755859375</ele>
        <time>2026-06-19T10:30:37.000Z</time>
        <extensions>
          <ns3:TrackPointExtension>
            <ns3:atemp>22.0</ns3:atemp>
          </ns3:TrackPointExtension>
        </extensions>
      </trkpt>
      <trkpt lat="42.5482418574392795562744140625" lon="20.04051600582897663116455078125">
        <ele>1975.5999755859375</ele>
        <time>2026-06-19T10:30:38.000Z</time>
        <extensions>
          <ns3:TrackPointExtension>
            <ns3:atemp>22.0</ns3:atemp>
          </ns3:TrackPointExtension>
        </extensions>
      </trkpt>
      <trkpt lat="42.54824797622859477996826171875" lon="20.0405435822904109954833984375">
        <ele>1975.800048828125</ele>
        <time>2026-06-19T10:30:39.000Z</time>
        <extensions>
          <ns3:TrackPointExtension>
            <ns3:atemp>22.0</ns3:atemp>
          </ns3:TrackPointExtension>
        </extensions>
      </trkpt>
      <trkpt lat="42.54825719632208347320556640625" lon="20.0405663810670375823974609375">
        <ele>1976</ele>
        <time>2026-06-19T10:30:40.000Z</time>
        <extensions>
          <ns3:TrackPointExtension>
            <ns3:atemp>22.0</ns3:atemp>
          </ns3:TrackPointExtension>
        </extensions>
      </trkpt>
      <trkpt lat="42.548267841339111328125" lon="20.04058876074850559234619140625">
        <ele>1976</ele>
        <time>2026-06-19T10:30:41.000Z</time>
        <extensions>
          <ns3:TrackPointExtension>
            <ns3:atemp>22.0</ns3:atemp>
          </ns3:TrackPointExtension>
        </extensions>
      </trkpt>
      <trkpt lat="42.54827982746064662933349609375" lon="20.0406143255531787872314453125">
        <ele>1976.199951171875</ele>
        <time>2026-06-19T10:30:42.000Z</time>
        <extensions>
          <ns3:TrackPointExtension>
            <ns3:atemp>22.0</ns3:atemp>
          </ns3:TrackPointExtension>
        </extensions>
      </trkpt>
      <trkpt lat="42.548291981220245361328125" lon="20.040642656385898590087890625">
        <ele>1976.4000244140625</ele>
        <time>2026-06-19T10:30:43.000Z</time>
        <extensions>
          <ns3:TrackPointExtension>
            <ns3:atemp>22.0</ns3:atemp>
          </ns3:TrackPointExtension>
        </extensions>
      </trkpt>
      <trkpt lat="42.5482998602092266082763671875" lon="20.0406703166663646697998046875">
        <ele>1976.5999755859375</ele>
        <time>2026-06-19T10:30:44.000Z</time>
        <extensions>
          <ns3:TrackPointExtension>
            <ns3:atemp>22.0</ns3:atemp>
          </ns3:TrackPointExtension>
        </extensions>
      </trkpt>
      <trkpt lat="42.54830597899854183197021484375" lon="20.040695630013942718505859375">
        <ele>1976.5999755859375</ele>
        <time>2026-06-19T10:30:45.000Z</time>
        <extensions>
          <ns3:TrackPointExtension>
            <ns3:atemp>22.0</ns3:atemp>
          </ns3:TrackPointExtension>
        </extensions>
      </trkpt>
      <trkpt lat="42.54831276834011077880859375" lon="20.04072052426636219024658203125">
        <ele>1976.800048828125</ele>
        <time>2026-06-19T10:30:46.000Z</time>
        <extensions>
          <ns3:TrackPointExtension>
            <ns3:atemp>22.0</ns3:atemp>
          </ns3:TrackPointExtension>
        </extensions>
      </trkpt>
      <trkpt lat="42.54832073114812374114990234375" lon="20.04074759781360626220703125">
        <ele>1977</ele>
        <time>2026-06-19T10:30:47.000Z</time>
        <extensions>
          <ns3:TrackPointExtension>
            <ns3:atemp>22.0</ns3:atemp>
          </ns3:TrackPointExtension>
        </extensions>
      </trkpt>
      <trkpt lat="42.54833112470805644989013671875" lon="20.04077307879924774169921875">
        <ele>1977.199951171875</ele>
        <time>2026-06-19T10:30:48.000Z</time>
        <extensions>
          <ns3:TrackPointExtension>
            <ns3:atemp>22.0</ns3:atemp>
          </ns3:TrackPointExtension>
        </extensions>
      </trkpt>
      <trkpt lat="42.54834034480154514312744140625" lon="20.0408004038035869598388671875">
        <ele>1977.4000244140625</ele>
        <time>2026-06-19T10:30:49.000Z</time>
        <extensions>
          <ns3:TrackPointExtension>
            <ns3:atemp>22.0</ns3:atemp>
          </ns3:TrackPointExtension>
        </extensions>
      </trkpt>
      <trkpt lat="42.54834688268601894378662109375" lon="20.04082865081727504730224609375">
        <ele>1977.4000244140625</ele>
        <time>2026-06-19T10:30:50.000Z</time>
        <extensions>
          <ns3:TrackPointExtension>
            <ns3:atemp>22.0</ns3:atemp>
          </ns3:TrackPointExtension>
        </extensions>
      </trkpt>
      <trkpt lat="42.54835166037082672119140625" lon="20.04085631109774112701416015625">
        <ele>1977.5999755859375</ele>
        <time>2026-06-19T10:30:51.000Z</time>
        <extensions>
          <ns3:TrackPointExtension>
            <ns3:atemp>22.0</ns3:atemp>
          </ns3:TrackPointExtension>
        </extensions>
      </trkpt>
      <trkpt lat="42.548356354236602783203125" lon="20.04088413901627063751220703125">
        <ele>1977.800048828125</ele>
        <time>2026-06-19T10:30:52.000Z</time>
        <extensions>
          <ns3:TrackPointExtension>
            <ns3:atemp>22.0</ns3:atemp>
          </ns3:TrackPointExtension>
        </extensions>
      </trkpt>
      <trkpt lat="42.54836448468267917633056640625" lon="20.04091045819222927093505859375">
        <ele>1978</ele>
        <time>2026-06-19T10:30:53.000Z</time>
        <extensions>
          <ns3:TrackPointExtension>
            <ns3:atemp>22.0</ns3:atemp>
          </ns3:TrackPointExtension>
        </extensions>
      </trkpt>
      <trkpt lat="42.54837202839553356170654296875" lon="20.0409360229969024658203125">
        <ele>1978.4000244140625</ele>
        <time>2026-06-19T10:30:54.000Z</time>
        <extensions>
          <ns3:TrackPointExtension>
            <ns3:atemp>22.0</ns3:atemp>
          </ns3:TrackPointExtension>
        </extensions>
      </trkpt>
      <trkpt lat="42.5483749620616436004638671875" lon="20.04096326418220996856689453125">
        <ele>1978.5999755859375</ele>
        <time>2026-06-19T10:30:55.000Z</time>
        <extensions>
          <ns3:TrackPointExtension>
            <ns3:atemp>21.0</ns3:atemp>
          </ns3:TrackPointExtension>
        </extensions>
      </trkpt>
      <trkpt lat="42.5483789853751659393310546875" lon="20.040995366871356964111328125">
        <ele>1978.800048828125</ele>
        <time>2026-06-19T10:30:56.000Z</time>
        <extensions>
          <ns3:TrackPointExtension>
            <ns3:atemp>21.0</ns3:atemp>
          </ns3:TrackPointExtension>
        </extensions>
      </trkpt>
      <trkpt lat="42.54838208667933940887451171875" lon="20.04102654755115509033203125">
        <ele>1979</ele>
        <time>2026-06-19T10:30:57.000Z</time>
        <extensions>
          <ns3:TrackPointExtension>
            <ns3:atemp>22.0</ns3:atemp>
          </ns3:TrackPointExtension>
        </extensions>
      </trkpt>
      <trkpt lat="42.54838426597416400909423828125" lon="20.0410548783838748931884765625">
        <ele>1979</ele>
        <time>2026-06-19T10:30:58.000Z</time>
        <extensions>
          <ns3:TrackPointExtension>
            <ns3:atemp>22.0</ns3:atemp>
          </ns3:TrackPointExtension>
        </extensions>
      </trkpt>
      <trkpt lat="42.54838879220187664031982421875" lon="20.0410800240933895111083984375">
        <ele>1979.199951171875</ele>
        <time>2026-06-19T10:30:59.000Z</time>
        <extensions>
          <ns3:TrackPointExtension>
            <ns3:atemp>22.0</ns3:atemp>
          </ns3:TrackPointExtension>
        </extensions>
      </trkpt>
      <trkpt lat="42.54839591681957244873046875" lon="20.0411004759371280670166015625">
        <ele>1979.4000244140625</ele>
        <time>2026-06-19T10:31:00.000Z</time>
        <extensions>
          <ns3:TrackPointExtension>
            <ns3:atemp>22.0</ns3:atemp>
          </ns3:TrackPointExtension>
        </extensions>
      </trkpt>
      <trkpt lat="42.54840237088501453399658203125" lon="20.041122771799564361572265625">
        <ele>1979.800048828125</ele>
        <time>2026-06-19T10:31:01.000Z</time>
        <extensions>
          <ns3:TrackPointExtension>
            <ns3:atemp>22.0</ns3:atemp>
          </ns3:TrackPointExtension>
        </extensions>
      </trkpt>
      <trkpt lat="42.54840790294110774993896484375" lon="20.0411457382142543792724609375">
        <ele>1980</ele>
        <time>2026-06-19T10:31:02.000Z</time>
        <extensions>
          <ns3:TrackPointExtension>
            <ns3:atemp>22.0</ns3:atemp>
          </ns3:TrackPointExtension>
        </extensions>
      </trkpt>
      <trkpt lat="42.54841159097850322723388671875" lon="20.04117012955248355865478515625">
        <ele>1980.199951171875</ele>
        <time>2026-06-19T10:31:03.000Z</time>
        <extensions>
          <ns3:TrackPointExtension>
            <ns3:atemp>22.0</ns3:atemp>
          </ns3:TrackPointExtension>
        </extensions>
      </trkpt>
      <trkpt lat="42.548417709767818450927734375" lon="20.04119577817618846893310546875">
        <ele>1980.4000244140625</ele>
        <time>2026-06-19T10:31:04.000Z</time>
        <extensions>
          <ns3:TrackPointExtension>
            <ns3:atemp>22.0</ns3:atemp>
          </ns3:TrackPointExtension>
        </extensions>
      </trkpt>
      <trkpt lat="42.548425756394863128662109375" lon="20.0412255339324474334716796875">
        <ele>1980.4000244140625</ele>
        <time>2026-06-19T10:31:05.000Z</time>
        <extensions>
          <ns3:TrackPointExtension>
            <ns3:atemp>21.0</ns3:atemp>
          </ns3:TrackPointExtension>
        </extensions>
      </trkpt>
      <trkpt lat="42.54843405447900295257568359375" lon="20.0412578880786895751953125">
        <ele>1980.4000244140625</ele>
        <time>2026-06-19T10:31:06.000Z</time>
        <extensions>
          <ns3:TrackPointExtension>
            <ns3:atemp>21.0</ns3:atemp>
          </ns3:TrackPointExtension>
        </extensions>
      </trkpt>
      <trkpt lat="42.54844210110604763031005859375" lon="20.04128806293010711669921875">
        <ele>1980.4000244140625</ele>
        <time>2026-06-19T10:31:07.000Z</time>
        <extensions>
          <ns3:TrackPointExtension>
            <ns3:atemp>22.0</ns3:atemp>
          </ns3:TrackPointExtension>
        </extensions>
      </trkpt>
      <trkpt lat="42.54845065064728260040283203125" lon="20.04131597466766834259033203125">
        <ele>1980.800048828125</ele>
        <time>2026-06-19T10:31:08.000Z</time>
        <extensions>
          <ns3:TrackPointExtension>
            <ns3:atemp>22.0</ns3:atemp>
          </ns3:TrackPointExtension>
        </extensions>
      </trkpt>
      <trkpt lat="42.548457942903041839599609375" lon="20.04134447313845157623291015625">
        <ele>1981</ele>
        <time>2026-06-19T10:31:09.000Z</time>
        <extensions>
          <ns3:TrackPointExtension>
            <ns3:atemp>21.0</ns3:atemp>
          </ns3:TrackPointExtension>
        </extensions>
      </trkpt>
      <trkpt lat="42.5484661571681499481201171875" lon="20.04137297160923480987548828125">
        <ele>1981.199951171875</ele>
        <time>2026-06-19T10:31:10.000Z</time>
        <extensions>
          <ns3:TrackPointExtension>
            <ns3:atemp>21.0</ns3:atemp>
          </ns3:TrackPointExtension>
        </extensions>
      </trkpt>
      <trkpt lat="42.54847177304327487945556640625" lon="20.0414025597274303436279296875">
        <ele>1981.5999755859375</ele>
        <time>2026-06-19T10:31:11.000Z</time>
        <extensions>
          <ns3:TrackPointExtension>
            <ns3:atemp>21.0</ns3:atemp>
          </ns3:TrackPointExtension>
        </extensions>
      </trkpt>
      <trkpt lat="42.548478730022907257080078125" lon="20.0414293818175792694091796875">
        <ele>1982</ele>
        <time>2026-06-19T10:31:12.000Z</time>
        <extensions>
          <ns3:TrackPointExtension>
            <ns3:atemp>21.0</ns3:atemp>
          </ns3:TrackPointExtension>
        </extensions>
      </trkpt>
      <trkpt lat="42.54848778247833251953125" lon="20.04145435988903045654296875">
        <ele>1982.199951171875</ele>
        <time>2026-06-19T10:31:13.000Z</time>
        <extensions>
          <ns3:TrackPointExtension>
            <ns3:atemp>21.0</ns3:atemp>
          </ns3:TrackPointExtension>
        </extensions>
      </trkpt>
      <trkpt lat="42.5485033728182315826416015625" lon="20.04147640429437160491943359375">
        <ele>1982.4000244140625</ele>
        <time>2026-06-19T10:31:14.000Z</time>
        <extensions>
          <ns3:TrackPointExtension>
            <ns3:atemp>21.0</ns3:atemp>
          </ns3:TrackPointExtension>
        </extensions>
      </trkpt>
      <trkpt lat="42.54851820878684520721435546875" lon="20.04149652086198329925537109375">
        <ele>1982.800048828125</ele>
        <time>2026-06-19T10:31:15.000Z</time>
        <extensions>
          <ns3:TrackPointExtension>
            <ns3:atemp>21.0</ns3:atemp>
          </ns3:TrackPointExtension>
        </extensions>
      </trkpt>
      <trkpt lat="42.548529021441936492919921875" lon="20.041517727077007293701171875">
        <ele>1983.199951171875</ele>
        <time>2026-06-19T10:31:16.000Z</time>
        <extensions>
          <ns3:TrackPointExtension>
            <ns3:atemp>21.0</ns3:atemp>
          </ns3:TrackPointExtension>
        </extensions>
      </trkpt>
      <trkpt lat="42.54853664897382259368896484375" lon="20.0415422022342681884765625">
        <ele>1983.5999755859375</ele>
        <time>2026-06-19T10:31:17.000Z</time>
        <extensions>
          <ns3:TrackPointExtension>
            <ns3:atemp>21.0</ns3:atemp>
          </ns3:TrackPointExtension>
        </extensions>
      </trkpt>
      <trkpt lat="42.54854452796280384063720703125" lon="20.0415678508579730987548828125">
        <ele>1984</ele>
        <time>2026-06-19T10:31:18.000Z</time>
        <extensions>
          <ns3:TrackPointExtension>
            <ns3:atemp>21.0</ns3:atemp>
          </ns3:TrackPointExtension>
        </extensions>
      </trkpt>
      <trkpt lat="42.54854880273342132568359375" lon="20.04159760661423206329345703125">
        <ele>1984.199951171875</ele>
        <time>2026-06-19T10:31:19.000Z</time>
        <extensions>
          <ns3:TrackPointExtension>
            <ns3:atemp>21.0</ns3:atemp>
          </ns3:TrackPointExtension>
        </extensions>
      </trkpt>
      <trkpt lat="42.54855215549468994140625" lon="20.04162040539085865020751953125">
        <ele>1984.5999755859375</ele>
        <time>2026-06-19T10:31:20.000Z</time>
        <extensions>
          <ns3:TrackPointExtension>
            <ns3:atemp>21.0</ns3:atemp>
          </ns3:TrackPointExtension>
        </extensions>
      </trkpt>
      <trkpt lat="42.54855860956013202667236328125" lon="20.0416479818522930145263671875">
        <ele>1985</ele>
        <time>2026-06-19T10:31:21.000Z</time>
        <extensions>
          <ns3:TrackPointExtension>
            <ns3:atemp>21.0</ns3:atemp>
          </ns3:TrackPointExtension>
        </extensions>
      </trkpt>
      <trkpt lat="42.5485653989017009735107421875" lon="20.041673295199871063232421875">
        <ele>1985.199951171875</ele>
        <time>2026-06-19T10:31:22.000Z</time>
        <extensions>
          <ns3:TrackPointExtension>
            <ns3:atemp>21.0</ns3:atemp>
          </ns3:TrackPointExtension>
        </extensions>
      </trkpt>
      <trkpt lat="42.548572607338428497314453125" lon="20.04169785417616367340087890625">
        <ele>1985.5999755859375</ele>
        <time>2026-06-19T10:31:23.000Z</time>
        <extensions>
          <ns3:TrackPointExtension>
            <ns3:atemp>21.0</ns3:atemp>
          </ns3:TrackPointExtension>
        </extensions>
      </trkpt>
      <trkpt lat="42.5485791452229022979736328125" lon="20.04172383807599544525146484375">
        <ele>1985.800048828125</ele>
        <time>2026-06-19T10:31:24.000Z</time>
        <extensions>
          <ns3:TrackPointExtension>
            <ns3:atemp>21.0</ns3:atemp>
          </ns3:TrackPointExtension>
        </extensions>
      </trkpt>
      <trkpt lat="42.5485828332602977752685546875" lon="20.041751749813556671142578125">
        <ele>1986</ele>
        <time>2026-06-19T10:31:25.000Z</time>
        <extensions>
          <ns3:TrackPointExtension>
            <ns3:atemp>21.0</ns3:atemp>
          </ns3:TrackPointExtension>
        </extensions>
      </trkpt>
      <trkpt lat="42.5485855154693126678466796875" lon="20.04177832044661045074462890625">
        <ele>1986</ele>
        <time>2026-06-19T10:31:26.000Z</time>
        <extensions>
          <ns3:TrackPointExtension>
            <ns3:atemp>21.0</ns3:atemp>
          </ns3:TrackPointExtension>
        </extensions>
      </trkpt>
      <trkpt lat="42.54858844913542270660400390625" lon="20.04180438816547393798828125">
        <ele>1986.4000244140625</ele>
        <time>2026-06-19T10:31:27.000Z</time>
        <extensions>
          <ns3:TrackPointExtension>
            <ns3:atemp>21.0</ns3:atemp>
          </ns3:TrackPointExtension>
        </extensions>
      </trkpt>
      <trkpt lat="42.548594065010547637939453125" lon="20.04182475619018077850341796875">
        <ele>1986.4000244140625</ele>
        <time>2026-06-19T10:31:28.000Z</time>
        <extensions>
          <ns3:TrackPointExtension>
            <ns3:atemp>22.0</ns3:atemp>
          </ns3:TrackPointExtension>
        </extensions>
      </trkpt>
      <trkpt lat="42.5486017763614654541015625" lon="20.04184403456747531890869140625">
        <ele>1986.800048828125</ele>
        <time>2026-06-19T10:31:29.000Z</time>
        <extensions>
          <ns3:TrackPointExtension>
            <ns3:atemp>22.0</ns3:atemp>
          </ns3:TrackPointExtension>
        </extensions>
      </trkpt>
      <trkpt lat="42.54860806278884410858154296875" lon="20.04186850972473621368408203125">
        <ele>1987</ele>
        <time>2026-06-19T10:31:30.000Z</time>
        <extensions>
          <ns3:TrackPointExtension>
            <ns3:atemp>21.0</ns3:atemp>
          </ns3:TrackPointExtension>
        </extensions>
      </trkpt>
      <trkpt lat="42.5486120022833347320556640625" lon="20.0418920628726482391357421875">
        <ele>1987.199951171875</ele>
        <time>2026-06-19T10:31:31.000Z</time>
        <extensions>
          <ns3:TrackPointExtension>
            <ns3:atemp>21.0</ns3:atemp>
          </ns3:TrackPointExtension>
        </extensions>
      </trkpt>
      <trkpt lat="42.54861895926296710968017578125" lon="20.04191494546830654144287109375">
        <ele>1987.5999755859375</ele>
        <time>2026-06-19T10:31:32.000Z</time>
        <extensions>
          <ns3:TrackPointExtension>
            <ns3:atemp>21.0</ns3:atemp>
          </ns3:TrackPointExtension>
        </extensions>
      </trkpt>
      <trkpt lat="42.548628933727741241455078125" lon="20.04193975590169429779052734375">
        <ele>1987.800048828125</ele>
        <time>2026-06-19T10:31:33.000Z</time>
        <extensions>
          <ns3:TrackPointExtension>
            <ns3:atemp>21.0</ns3:atemp>
          </ns3:TrackPointExtension>
        </extensions>
      </trkpt>
      <trkpt lat="42.54863857291638851165771484375" lon="20.041962303221225738525390625">
        <ele>1988.199951171875</ele>
        <time>2026-06-19T10:31:34.000Z</time>
        <extensions>
          <ns3:TrackPointExtension>
            <ns3:atemp>21.0</ns3:atemp>
          </ns3:TrackPointExtension>
        </extensions>
      </trkpt>
      <trkpt lat="42.5486455298960208892822265625" lon="20.04198619164526462554931640625">
        <ele>1988.4000244140625</ele>
        <time>2026-06-19T10:31:35.000Z</time>
        <extensions>
          <ns3:TrackPointExtension>
            <ns3:atemp>21.0</ns3:atemp>
          </ns3:TrackPointExtension>
        </extensions>
      </trkpt>
      <trkpt lat="42.548650391399860382080078125" lon="20.04201318137347698211669921875">
        <ele>1988.800048828125</ele>
        <time>2026-06-19T10:31:36.000Z</time>
        <extensions>
          <ns3:TrackPointExtension>
            <ns3:atemp>21.0</ns3:atemp>
          </ns3:TrackPointExtension>
        </extensions>
      </trkpt>
      <trkpt lat="42.5486539117991924285888671875" lon="20.042042098939418792724609375">
        <ele>1989.199951171875</ele>
        <time>2026-06-19T10:31:37.000Z</time>
        <extensions>
          <ns3:TrackPointExtension>
            <ns3:atemp>21.0</ns3:atemp>
          </ns3:TrackPointExtension>
        </extensions>
      </trkpt>
      <trkpt lat="42.54865902476012706756591796875" lon="20.04206615500152111053466796875">
        <ele>1989.5999755859375</ele>
        <time>2026-06-19T10:31:38.000Z</time>
        <extensions>
          <ns3:TrackPointExtension>
            <ns3:atemp>21.0</ns3:atemp>
          </ns3:TrackPointExtension>
        </extensions>
      </trkpt>
      <trkpt lat="42.5486706756055355072021484375" lon="20.04211284220218658447265625">
        <ele>1989.800048828125</ele>
        <time>2026-06-19T10:31:39.000Z</time>
        <extensions>
          <ns3:TrackPointExtension>
            <ns3:atemp>21.0</ns3:atemp>
          </ns3:TrackPointExtension>
        </extensions>
      </trkpt>
      <trkpt lat="42.5486706756055355072021484375" lon="20.04211284220218658447265625">
        <ele>1990.199951171875</ele>
        <time>2026-06-19T10:31:40.000Z</time>
        <extensions>
          <ns3:TrackPointExtension>
            <ns3:atemp>21.0</ns3:atemp>
          </ns3:TrackPointExtension>
        </extensions>
      </trkpt>
      <trkpt lat="42.54867620766162872314453125" lon="20.0421349704265594482421875">
        <ele>1990.4000244140625</ele>
        <time>2026-06-19T10:31:41.000Z</time>
        <extensions>
          <ns3:TrackPointExtension>
            <ns3:atemp>21.0</ns3:atemp>
          </ns3:TrackPointExtension>
        </extensions>
      </trkpt>
      <trkpt lat="42.5486814044415950775146484375" lon="20.042158775031566619873046875">
        <ele>1990.800048828125</ele>
        <time>2026-06-19T10:31:42.000Z</time>
        <extensions>
          <ns3:TrackPointExtension>
            <ns3:atemp>21.0</ns3:atemp>
          </ns3:TrackPointExtension>
        </extensions>
      </trkpt>
      <trkpt lat="42.5486860983073711395263671875" lon="20.0421824119985103607177734375">
        <ele>1991.199951171875</ele>
        <time>2026-06-19T10:31:43.000Z</time>
        <extensions>
          <ns3:TrackPointExtension>
            <ns3:atemp>21.0</ns3:atemp>
          </ns3:TrackPointExtension>
        </extensions>
      </trkpt>
      <trkpt lat="42.54868668504059314727783203125" lon="20.0422062166035175323486328125">
        <ele>1991.5999755859375</ele>
        <time>2026-06-19T10:31:44.000Z</time>
        <extensions>
          <ns3:TrackPointExtension>
            <ns3:atemp>21.0</ns3:atemp>
          </ns3:TrackPointExtension>
        </extensions>
      </trkpt>
      <trkpt lat="42.54868769086897373199462890625" lon="20.0422273389995098114013671875">
        <ele>1991.800048828125</ele>
        <time>2026-06-19T10:31:45.000Z</time>
        <extensions>
          <ns3:TrackPointExtension>
            <ns3:atemp>21.0</ns3:atemp>
          </ns3:TrackPointExtension>
        </extensions>
      </trkpt>
      <trkpt lat="42.54868425428867340087890625" lon="20.0422638840973377227783203125">
        <ele>1992.199951171875</ele>
        <time>2026-06-19T10:31:46.000Z</time>
        <extensions>
          <ns3:TrackPointExtension>
            <ns3:atemp>21.0</ns3:atemp>
          </ns3:TrackPointExtension>
        </extensions>
      </trkpt>
      <trkpt lat="42.54868425428867340087890625" lon="20.0422638840973377227783203125">
        <ele>1992.4000244140625</ele>
        <time>2026-06-19T10:31:47.000Z</time>
        <extensions>
          <ns3:TrackPointExtension>
            <ns3:atemp>21.0</ns3:atemp>
          </ns3:TrackPointExtension>
        </extensions>
      </trkpt>
      <trkpt lat="42.54868048243224620819091796875" lon="20.04228358156979084014892578125">
        <ele>1992.800048828125</ele>
        <time>2026-06-19T10:31:48.000Z</time>
        <extensions>
          <ns3:TrackPointExtension>
            <ns3:atemp>21.0</ns3:atemp>
          </ns3:TrackPointExtension>
        </extensions>
      </trkpt>
      <trkpt lat="42.54867746494710445404052734375" lon="20.042305625975131988525390625">
        <ele>1993</ele>
        <time>2026-06-19T10:31:49.000Z</time>
        <extensions>
          <ns3:TrackPointExtension>
            <ns3:atemp>21.0</ns3:atemp>
          </ns3:TrackPointExtension>
        </extensions>
      </trkpt>
      <trkpt lat="42.54867277108132839202880859375" lon="20.0423252396285533905029296875">
        <ele>1993.199951171875</ele>
        <time>2026-06-19T10:31:50.000Z</time>
        <extensions>
          <ns3:TrackPointExtension>
            <ns3:atemp>21.0</ns3:atemp>
          </ns3:TrackPointExtension>
        </extensions>
      </trkpt>
      <trkpt lat="42.54866413772106170654296875" lon="20.042343176901340484619140625">
        <ele>1993.5999755859375</ele>
        <time>2026-06-19T10:31:51.000Z</time>
        <extensions>
          <ns3:TrackPointExtension>
            <ns3:atemp>21.0</ns3:atemp>
          </ns3:TrackPointExtension>
        </extensions>
      </trkpt>
      <trkpt lat="42.54865768365561962127685546875" lon="20.04236035980284214019775390625">
        <ele>1993.800048828125</ele>
        <time>2026-06-19T10:31:52.000Z</time>
        <extensions>
          <ns3:TrackPointExtension>
            <ns3:atemp>21.0</ns3:atemp>
          </ns3:TrackPointExtension>
        </extensions>
      </trkpt>
      <trkpt lat="42.54865366034209728240966796875" lon="20.04238382913172245025634765625">
        <ele>1994.199951171875</ele>
        <time>2026-06-19T10:31:53.000Z</time>
        <extensions>
          <ns3:TrackPointExtension>
            <ns3:atemp>21.0</ns3:atemp>
          </ns3:TrackPointExtension>
        </extensions>
      </trkpt>
      <trkpt lat="42.54864980466663837432861328125" lon="20.0424085557460784912109375">
        <ele>1994.4000244140625</ele>
        <time>2026-06-19T10:31:54.000Z</time>
        <extensions>
          <ns3:TrackPointExtension>
            <ns3:atemp>21.0</ns3:atemp>
          </ns3:TrackPointExtension>
        </extensions>
      </trkpt>
      <trkpt lat="42.5486421771347522735595703125" lon="20.042447112500667572021484375">
        <ele>1994.5999755859375</ele>
        <time>2026-06-19T10:31:55.000Z</time>
        <extensions>
          <ns3:TrackPointExtension>
            <ns3:atemp>21.0</ns3:atemp>
          </ns3:TrackPointExtension>
        </extensions>
      </trkpt>
      <trkpt lat="42.5486421771347522735595703125" lon="20.042447112500667572021484375">
        <ele>1994.800048828125</ele>
        <time>2026-06-19T10:31:56.000Z</time>
        <extensions>
          <ns3:TrackPointExtension>
            <ns3:atemp>21.0</ns3:atemp>
          </ns3:TrackPointExtension>
        </extensions>
      </trkpt>
      <trkpt lat="42.5486285984516143798828125" lon="20.04249162040650844573974609375">
        <ele>1995</ele>
        <time>2026-06-19T10:31:57.000Z</time>
        <extensions>
          <ns3:TrackPointExtension>
            <ns3:atemp>21.0</ns3:atemp>
          </ns3:TrackPointExtension>
        </extensions>
      </trkpt>
      <trkpt lat="42.54862281493842601776123046875" lon="20.0425116531550884246826171875">
        <ele>1995.4000244140625</ele>
        <time>2026-06-19T10:31:58.000Z</time>
        <extensions>
          <ns3:TrackPointExtension>
            <ns3:atemp>21.0</ns3:atemp>
          </ns3:TrackPointExtension>
        </extensions>
      </trkpt>
      <trkpt lat="42.54862281493842601776123046875" lon="20.0425116531550884246826171875">
        <ele>1995.800048828125</ele>
        <time>2026-06-19T10:31:59.000Z</time>
        <extensions>
          <ns3:TrackPointExtension>
            <ns3:atemp>21.0</ns3:atemp>
          </ns3:TrackPointExtension>
        </extensions>
      </trkpt>
      <trkpt lat="42.54861711524426937103271484375" lon="20.0425304286181926727294921875">
        <ele>1996</ele>
        <time>2026-06-19T10:32:00.000Z</time>
        <extensions>
          <ns3:TrackPointExtension>
            <ns3:atemp>21.0</ns3:atemp>
          </ns3:TrackPointExtension>
        </extensions>
      </trkpt>
      <trkpt lat="42.548603117465972900390625" lon="20.0425641238689422607421875">
        <ele>1996.4000244140625</ele>
        <time>2026-06-19T10:32:01.000Z</time>
        <extensions>
          <ns3:TrackPointExtension>
            <ns3:atemp>21.0</ns3:atemp>
          </ns3:TrackPointExtension>
        </extensions>
      </trkpt>
      <trkpt lat="42.548603117465972900390625" lon="20.0425641238689422607421875">
        <ele>1996.5999755859375</ele>
        <time>2026-06-19T10:32:02.000Z</time>
        <extensions>
          <ns3:TrackPointExtension>
            <ns3:atemp>21.0</ns3:atemp>
          </ns3:TrackPointExtension>
        </extensions>
      </trkpt>
      <trkpt lat="42.5485892035067081451416015625" lon="20.0425968132913112640380859375">
        <ele>1997</ele>
        <time>2026-06-19T10:32:03.000Z</time>
        <extensions>
          <ns3:TrackPointExtension>
            <ns3:atemp>21.0</ns3:atemp>
          </ns3:TrackPointExtension>
        </extensions>
      </trkpt>
      <trkpt lat="42.54857964813709259033203125" lon="20.04261575639247894287109375">
        <ele>1997.199951171875</ele>
        <time>2026-06-19T10:32:04.000Z</time>
        <extensions>
          <ns3:TrackPointExtension>
            <ns3:atemp>21.0</ns3:atemp>
          </ns3:TrackPointExtension>
        </extensions>
      </trkpt>
      <trkpt lat="42.54857964813709259033203125" lon="20.04261575639247894287109375">
        <ele>1997.4000244140625</ele>
        <time>2026-06-19T10:32:05.000Z</time>
        <extensions>
          <ns3:TrackPointExtension>
            <ns3:atemp>21.0</ns3:atemp>
          </ns3:TrackPointExtension>
        </extensions>
      </trkpt>
      <trkpt lat="42.5485556758940219879150390625" lon="20.04265598952770233154296875">
        <ele>1997.800048828125</ele>
        <time>2026-06-19T10:32:06.000Z</time>
        <extensions>
          <ns3:TrackPointExtension>
            <ns3:atemp>21.0</ns3:atemp>
          </ns3:TrackPointExtension>
        </extensions>
      </trkpt>
      <trkpt lat="42.5485556758940219879150390625" lon="20.04265598952770233154296875">
        <ele>1998</ele>
        <time>2026-06-19T10:32:07.000Z</time>
        <extensions>
          <ns3:TrackPointExtension>
            <ns3:atemp>21.0</ns3:atemp>
          </ns3:TrackPointExtension>
        </extensions>
      </trkpt>
      <trkpt lat="42.548545785248279571533203125" lon="20.04267132841050624847412109375">
        <ele>1998.199951171875</ele>
        <time>2026-06-19T10:32:08.000Z</time>
        <extensions>
          <ns3:TrackPointExtension>
            <ns3:atemp>21.0</ns3:atemp>
          </ns3:TrackPointExtension>
        </extensions>
      </trkpt>
      <trkpt lat="42.5485358946025371551513671875" lon="20.04269245080649852752685546875">
        <ele>1998.5999755859375</ele>
        <time>2026-06-19T10:32:09.000Z</time>
        <extensions>
          <ns3:TrackPointExtension>
            <ns3:atemp>21.0</ns3:atemp>
          </ns3:TrackPointExtension>
        </extensions>
      </trkpt>
      <trkpt lat="42.54851385019719600677490234375" lon="20.0427289120852947235107421875">
        <ele>1999</ele>
        <time>2026-06-19T10:32:10.000Z</time>
        <extensions>
          <ns3:TrackPointExtension>
            <ns3:atemp>21.0</ns3:atemp>
          </ns3:TrackPointExtension>
        </extensions>
      </trkpt>
      <trkpt lat="42.54851385019719600677490234375" lon="20.0427289120852947235107421875">
        <ele>1999.4000244140625</ele>
        <time>2026-06-19T10:32:11.000Z</time>
        <extensions>
          <ns3:TrackPointExtension>
            <ns3:atemp>21.0</ns3:atemp>
          </ns3:TrackPointExtension>
        </extensions>
      </trkpt>
      <trkpt lat="42.54849373362958431243896484375" lon="20.04275933839380741119384765625">
        <ele>1999.800048828125</ele>
        <time>2026-06-19T10:32:12.000Z</time>
        <extensions>
          <ns3:TrackPointExtension>
            <ns3:atemp>21.0</ns3:atemp>
          </ns3:TrackPointExtension>
        </extensions>
      </trkpt>
      <trkpt lat="42.54848484881222248077392578125" lon="20.0427731685340404510498046875">
        <ele>2000.199951171875</ele>
        <time>2026-06-19T10:32:13.000Z</time>
        <extensions>
          <ns3:TrackPointExtension>
            <ns3:atemp>21.0</ns3:atemp>
          </ns3:TrackPointExtension>
        </extensions>
      </trkpt>
      <trkpt lat="42.5484738685190677642822265625" lon="20.04278741776943206787109375">
        <ele>2000.4000244140625</ele>
        <time>2026-06-19T10:32:14.000Z</time>
        <extensions>
          <ns3:TrackPointExtension>
            <ns3:atemp>21.0</ns3:atemp>
          </ns3:TrackPointExtension>
        </extensions>
      </trkpt>
      <trkpt lat="42.54846624098718166351318359375" lon="20.04280594177544116973876953125">
        <ele>2000.5999755859375</ele>
        <time>2026-06-19T10:32:15.000Z</time>
        <extensions>
          <ns3:TrackPointExtension>
            <ns3:atemp>21.0</ns3:atemp>
          </ns3:TrackPointExtension>
        </extensions>
      </trkpt>
      <trkpt lat="42.54845903255045413970947265625" lon="20.04282086156308650970458984375">
        <ele>2001</ele>
        <time>2026-06-19T10:32:16.000Z</time>
        <extensions>
          <ns3:TrackPointExtension>
            <ns3:atemp>21.0</ns3:atemp>
          </ns3:TrackPointExtension>
        </extensions>
      </trkpt>
      <trkpt lat="42.54845903255045413970947265625" lon="20.04282086156308650970458984375">
        <ele>2001.199951171875</ele>
        <time>2026-06-19T10:32:17.000Z</time>
        <extensions>
          <ns3:TrackPointExtension>
            <ns3:atemp>21.0</ns3:atemp>
          </ns3:TrackPointExtension>
        </extensions>
      </trkpt>
      <trkpt lat="42.54845115356147289276123046875" lon="20.04283628426492214202880859375">
        <ele>2001.5999755859375</ele>
        <time>2026-06-19T10:32:18.000Z</time>
        <extensions>
          <ns3:TrackPointExtension>
            <ns3:atemp>21.0</ns3:atemp>
          </ns3:TrackPointExtension>
        </extensions>
      </trkpt>
      <trkpt lat="42.54843288101255893707275390625" lon="20.04286629147827625274658203125">
        <ele>2002</ele>
        <time>2026-06-19T10:32:19.000Z</time>
        <extensions>
          <ns3:TrackPointExtension>
            <ns3:atemp>21.0</ns3:atemp>
          </ns3:TrackPointExtension>
        </extensions>
      </trkpt>
      <trkpt lat="42.54843288101255893707275390625" lon="20.04286629147827625274658203125">
        <ele>2002.5999755859375</ele>
        <time>2026-06-19T10:32:20.000Z</time>
        <extensions>
          <ns3:TrackPointExtension>
            <ns3:atemp>21.0</ns3:atemp>
          </ns3:TrackPointExtension>
        </extensions>
      </trkpt>
      <trkpt lat="42.5484105013310909271240234375" lon="20.04290753044188022613525390625">
        <ele>2003</ele>
        <time>2026-06-19T10:32:21.000Z</time>
        <extensions>
          <ns3:TrackPointExtension>
            <ns3:atemp>21.0</ns3:atemp>
          </ns3:TrackPointExtension>
        </extensions>
      </trkpt>
      <trkpt lat="42.5484105013310909271240234375" lon="20.04290753044188022613525390625">
        <ele>2003.199951171875</ele>
        <time>2026-06-19T10:32:22.000Z</time>
        <extensions>
          <ns3:TrackPointExtension>
            <ns3:atemp>21.0</ns3:atemp>
          </ns3:TrackPointExtension>
        </extensions>
      </trkpt>
      <trkpt lat="42.54839231260120868682861328125" lon="20.04295413382351398468017578125">
        <ele>2003.5999755859375</ele>
        <time>2026-06-19T10:32:23.000Z</time>
        <extensions>
          <ns3:TrackPointExtension>
            <ns3:atemp>21.0</ns3:atemp>
          </ns3:TrackPointExtension>
        </extensions>
      </trkpt>
      <trkpt lat="42.5483820028603076934814453125" lon="20.04297626204788684844970703125">
        <ele>2004</ele>
        <time>2026-06-19T10:32:24.000Z</time>
        <extensions>
          <ns3:TrackPointExtension>
            <ns3:atemp>21.0</ns3:atemp>
          </ns3:TrackPointExtension>
        </extensions>
      </trkpt>
      <trkpt lat="42.5483820028603076934814453125" lon="20.04297626204788684844970703125">
        <ele>2004.4000244140625</ele>
        <time>2026-06-19T10:32:25.000Z</time>
        <extensions>
          <ns3:TrackPointExtension>
            <ns3:atemp>21.0</ns3:atemp>
          </ns3:TrackPointExtension>
        </extensions>
      </trkpt>
      <trkpt lat="42.548371441662311553955078125" lon="20.042995624244213104248046875">
        <ele>2004.800048828125</ele>
        <time>2026-06-19T10:32:26.000Z</time>
        <extensions>
          <ns3:TrackPointExtension>
            <ns3:atemp>21.0</ns3:atemp>
          </ns3:TrackPointExtension>
        </extensions>
      </trkpt>
      <trkpt lat="42.5483496487140655517578125" lon="20.04302605055272579193115234375">
        <ele>2005</ele>
        <time>2026-06-19T10:32:27.000Z</time>
        <extensions>
          <ns3:TrackPointExtension>
            <ns3:atemp>21.0</ns3:atemp>
          </ns3:TrackPointExtension>
        </extensions>
      </trkpt>
      <trkpt lat="42.54834285937249660491943359375" lon="20.043045915663242340087890625">
        <ele>2005.4000244140625</ele>
        <time>2026-06-19T10:32:28.000Z</time>
        <extensions>
          <ns3:TrackPointExtension>
            <ns3:atemp>21.0</ns3:atemp>
          </ns3:TrackPointExtension>
        </extensions>
      </trkpt>
      <trkpt lat="42.5483347289264202117919921875" lon="20.04306376911699771881103515625">
        <ele>2005.800048828125</ele>
        <time>2026-06-19T10:32:29.000Z</time>
        <extensions>
          <ns3:TrackPointExtension>
            <ns3:atemp>21.0</ns3:atemp>
          </ns3:TrackPointExtension>
        </extensions>
      </trkpt>
      <trkpt lat="42.54832441918551921844482421875" lon="20.0430832989513874053955078125">
        <ele>2006.199951171875</ele>
        <time>2026-06-19T10:32:30.000Z</time>
        <extensions>
          <ns3:TrackPointExtension>
            <ns3:atemp>21.0</ns3:atemp>
          </ns3:TrackPointExtension>
        </extensions>
      </trkpt>
      <trkpt lat="42.54831218160688877105712890625" lon="20.04310031421482563018798828125">
        <ele>2006.5999755859375</ele>
        <time>2026-06-19T10:32:31.000Z</time>
        <extensions>
          <ns3:TrackPointExtension>
            <ns3:atemp>21.0</ns3:atemp>
          </ns3:TrackPointExtension>
        </extensions>
      </trkpt>
      <trkpt lat="42.54830027930438518524169921875" lon="20.04311464726924896240234375">
        <ele>2007</ele>
        <time>2026-06-19T10:32:32.000Z</time>
        <extensions>
          <ns3:TrackPointExtension>
            <ns3:atemp>21.0</ns3:atemp>
          </ns3:TrackPointExtension>
        </extensions>
      </trkpt>
      <trkpt lat="42.54829323850572109222412109375" lon="20.04313752986490726470947265625">
        <ele>2007.5999755859375</ele>
        <time>2026-06-19T10:32:33.000Z</time>
        <extensions>
          <ns3:TrackPointExtension>
            <ns3:atemp>21.0</ns3:atemp>
          </ns3:TrackPointExtension>
        </extensions>
      </trkpt>
      <trkpt lat="42.54829323850572109222412109375" lon="20.04313752986490726470947265625">
        <ele>2008</ele>
        <time>2026-06-19T10:32:34.000Z</time>
        <extensions>
          <ns3:TrackPointExtension>
            <ns3:atemp>21.0</ns3:atemp>
          </ns3:TrackPointExtension>
        </extensions>
      </trkpt>
      <trkpt lat="42.548267841339111328125" lon="20.04318430088460445404052734375">
        <ele>2008.5999755859375</ele>
        <time>2026-06-19T10:32:35.000Z</time>
        <extensions>
          <ns3:TrackPointExtension>
            <ns3:atemp>21.0</ns3:atemp>
          </ns3:TrackPointExtension>
        </extensions>
      </trkpt>
      <trkpt lat="42.5482576154172420501708984375" lon="20.04320274107158184051513671875">
        <ele>2009.199951171875</ele>
        <time>2026-06-19T10:32:36.000Z</time>
        <extensions>
          <ns3:TrackPointExtension>
            <ns3:atemp>21.0</ns3:atemp>
          </ns3:TrackPointExtension>
        </extensions>
      </trkpt>
      <trkpt lat="42.5482478924095630645751953125" lon="20.04322327673435211181640625">
        <ele>2009.5999755859375</ele>
        <time>2026-06-19T10:32:37.000Z</time>
        <extensions>
          <ns3:TrackPointExtension>
            <ns3:atemp>21.0</ns3:atemp>
          </ns3:TrackPointExtension>
        </extensions>
      </trkpt>
      <trkpt lat="42.54823540337383747100830078125" lon="20.043242387473583221435546875">
        <ele>2010</ele>
        <time>2026-06-19T10:32:38.000Z</time>
        <extensions>
          <ns3:TrackPointExtension>
            <ns3:atemp>21.0</ns3:atemp>
          </ns3:TrackPointExtension>
        </extensions>
      </trkpt>
      <trkpt lat="42.54823540337383747100830078125" lon="20.043242387473583221435546875">
        <ele>2010.4000244140625</ele>
        <time>2026-06-19T10:32:39.000Z</time>
        <extensions>
          <ns3:TrackPointExtension>
            <ns3:atemp>21.0</ns3:atemp>
          </ns3:TrackPointExtension>
        </extensions>
      </trkpt>
      <trkpt lat="42.5482096709311008453369140625" lon="20.0432831235229969024658203125">
        <ele>2010.800048828125</ele>
        <time>2026-06-19T10:32:40.000Z</time>
        <extensions>
          <ns3:TrackPointExtension>
            <ns3:atemp>21.0</ns3:atemp>
          </ns3:TrackPointExtension>
        </extensions>
      </trkpt>
      <trkpt lat="42.54819600842893123626708984375" lon="20.0433017313480377197265625">
        <ele>2011.199951171875</ele>
        <time>2026-06-19T10:32:41.000Z</time>
        <extensions>
          <ns3:TrackPointExtension>
            <ns3:atemp>21.0</ns3:atemp>
          </ns3:TrackPointExtension>
        </extensions>
      </trkpt>
      <trkpt lat="42.54818393848836421966552734375" lon="20.04331992007791996002197265625">
        <ele>2011.5999755859375</ele>
        <time>2026-06-19T10:32:42.000Z</time>
        <extensions>
          <ns3:TrackPointExtension>
            <ns3:atemp>21.0</ns3:atemp>
          </ns3:TrackPointExtension>
        </extensions>
      </trkpt>
      <trkpt lat="42.54816935397684574127197265625" lon="20.04334238357841968536376953125">
        <ele>2012</ele>
        <time>2026-06-19T10:32:43.000Z</time>
        <extensions>
          <ns3:TrackPointExtension>
            <ns3:atemp>21.0</ns3:atemp>
          </ns3:TrackPointExtension>
        </extensions>
      </trkpt>
      <trkpt lat="42.54815879277884960174560546875" lon="20.04336317069828510284423828125">
        <ele>2012.4000244140625</ele>
        <time>2026-06-19T10:32:44.000Z</time>
        <extensions>
          <ns3:TrackPointExtension>
            <ns3:atemp>21.0</ns3:atemp>
          </ns3:TrackPointExtension>
        </extensions>
      </trkpt>
      <trkpt lat="42.5481523387134075164794921875" lon="20.04338278435170650482177734375">
        <ele>2012.5999755859375</ele>
        <time>2026-06-19T10:32:45.000Z</time>
        <extensions>
          <ns3:TrackPointExtension>
            <ns3:atemp>21.0</ns3:atemp>
          </ns3:TrackPointExtension>
        </extensions>
      </trkpt>
      <trkpt lat="42.54814102314412593841552734375" lon="20.04340298473834991455078125">
        <ele>2013</ele>
        <time>2026-06-19T10:32:46.000Z</time>
        <extensions>
          <ns3:TrackPointExtension>
            <ns3:atemp>21.0</ns3:atemp>
          </ns3:TrackPointExtension>
        </extensions>
      </trkpt>
      <trkpt lat="42.5481283664703369140625" lon="20.04342016763985157012939453125">
        <ele>2013.4000244140625</ele>
        <time>2026-06-19T10:32:47.000Z</time>
        <extensions>
          <ns3:TrackPointExtension>
            <ns3:atemp>21.0</ns3:atemp>
          </ns3:TrackPointExtension>
        </extensions>
      </trkpt>
      <trkpt lat="42.5481184758245944976806640625" lon="20.04343743436038494110107421875">
        <ele>2013.5999755859375</ele>
        <time>2026-06-19T10:32:48.000Z</time>
        <extensions>
          <ns3:TrackPointExtension>
            <ns3:atemp>21.0</ns3:atemp>
          </ns3:TrackPointExtension>
        </extensions>
      </trkpt>
      <trkpt lat="42.54810816608369350433349609375" lon="20.0434598140418529510498046875">
        <ele>2014</ele>
        <time>2026-06-19T10:32:49.000Z</time>
        <extensions>
          <ns3:TrackPointExtension>
            <ns3:atemp>21.0</ns3:atemp>
          </ns3:TrackPointExtension>
        </extensions>
      </trkpt>
      <trkpt lat="42.54810816608369350433349609375" lon="20.0434598140418529510498046875">
        <ele>2014.4000244140625</ele>
        <time>2026-06-19T10:32:50.000Z</time>
        <extensions>
          <ns3:TrackPointExtension>
            <ns3:atemp>21.0</ns3:atemp>
          </ns3:TrackPointExtension>
        </extensions>
      </trkpt>
      <trkpt lat="42.548087127506732940673828125" lon="20.04349661059677600860595703125">
        <ele>2014.800048828125</ele>
        <time>2026-06-19T10:32:51.000Z</time>
        <extensions>
          <ns3:TrackPointExtension>
            <ns3:atemp>21.0</ns3:atemp>
          </ns3:TrackPointExtension>
        </extensions>
      </trkpt>
      <trkpt lat="42.54807782359421253204345703125" lon="20.0435188226401805877685546875">
        <ele>2015.199951171875</ele>
        <time>2026-06-19T10:32:52.000Z</time>
        <extensions>
          <ns3:TrackPointExtension>
            <ns3:atemp>21.0</ns3:atemp>
          </ns3:TrackPointExtension>
        </extensions>
      </trkpt>
      <trkpt lat="42.54807782359421253204345703125" lon="20.0435188226401805877685546875">
        <ele>2015.5999755859375</ele>
        <time>2026-06-19T10:32:53.000Z</time>
        <extensions>
          <ns3:TrackPointExtension>
            <ns3:atemp>21.0</ns3:atemp>
          </ns3:TrackPointExtension>
        </extensions>
      </trkpt>
      <trkpt lat="42.54806860350072383880615234375" lon="20.04354086704552173614501953125">
        <ele>2015.800048828125</ele>
        <time>2026-06-19T10:32:54.000Z</time>
        <extensions>
          <ns3:TrackPointExtension>
            <ns3:atemp>22.0</ns3:atemp>
          </ns3:TrackPointExtension>
        </extensions>
      </trkpt>
      <trkpt lat="42.54805703647434711456298828125" lon="20.0435630790889263153076171875">
        <ele>2016.199951171875</ele>
        <time>2026-06-19T10:32:55.000Z</time>
        <extensions>
          <ns3:TrackPointExtension>
            <ns3:atemp>22.0</ns3:atemp>
          </ns3:TrackPointExtension>
        </extensions>
      </trkpt>
      <trkpt lat="42.548044212162494659423828125" lon="20.0435860455036163330078125">
        <ele>2016.4000244140625</ele>
        <time>2026-06-19T10:32:56.000Z</time>
        <extensions>
          <ns3:TrackPointExtension>
            <ns3:atemp>22.0</ns3:atemp>
          </ns3:TrackPointExtension>
        </extensions>
      </trkpt>
      <trkpt lat="42.5480222515761852264404296875" lon="20.0436415337026119232177734375">
        <ele>2016.800048828125</ele>
        <time>2026-06-19T10:32:57.000Z</time>
        <extensions>
          <ns3:TrackPointExtension>
            <ns3:atemp>22.0</ns3:atemp>
          </ns3:TrackPointExtension>
        </extensions>
      </trkpt>
      <trkpt lat="42.5480222515761852264404296875" lon="20.0436415337026119232177734375">
        <ele>2017.199951171875</ele>
        <time>2026-06-19T10:32:58.000Z</time>
        <extensions>
          <ns3:TrackPointExtension>
            <ns3:atemp>21.0</ns3:atemp>
          </ns3:TrackPointExtension>
        </extensions>
      </trkpt>
      <trkpt lat="42.54800020717084407806396484375" lon="20.04370079375803470611572265625">
        <ele>2017.5999755859375</ele>
        <time>2026-06-19T10:32:59.000Z</time>
        <extensions>
          <ns3:TrackPointExtension>
            <ns3:atemp>21.0</ns3:atemp>
          </ns3:TrackPointExtension>
        </extensions>
      </trkpt>
      <trkpt lat="42.54798880778253078460693359375" lon="20.04372661001980304718017578125">
        <ele>2017.800048828125</ele>
        <time>2026-06-19T10:33:00.000Z</time>
        <extensions>
          <ns3:TrackPointExtension>
            <ns3:atemp>21.0</ns3:atemp>
          </ns3:TrackPointExtension>
        </extensions>
      </trkpt>
      <trkpt lat="42.54798880778253078460693359375" lon="20.04372661001980304718017578125">
        <ele>2018.199951171875</ele>
        <time>2026-06-19T10:33:01.000Z</time>
        <extensions>
          <ns3:TrackPointExtension>
            <ns3:atemp>21.0</ns3:atemp>
          </ns3:TrackPointExtension>
        </extensions>
      </trkpt>
      <trkpt lat="42.5479726307094097137451171875" lon="20.04375309683382511138916015625">
        <ele>2018.5999755859375</ele>
        <time>2026-06-19T10:33:02.000Z</time>
        <extensions>
          <ns3:TrackPointExtension>
            <ns3:atemp>21.0</ns3:atemp>
          </ns3:TrackPointExtension>
        </extensions>
      </trkpt>
      <trkpt lat="42.547954022884368896484375" lon="20.04377983510494232177734375">
        <ele>2019</ele>
        <time>2026-06-19T10:33:03.000Z</time>
        <extensions>
          <ns3:TrackPointExtension>
            <ns3:atemp>22.0</ns3:atemp>
          </ns3:TrackPointExtension>
        </extensions>
      </trkpt>
      <trkpt lat="42.54793348722159862518310546875" lon="20.0438071601092815399169921875">
        <ele>2019.4000244140625</ele>
        <time>2026-06-19T10:33:04.000Z</time>
        <extensions>
          <ns3:TrackPointExtension>
            <ns3:atemp>21.0</ns3:atemp>
          </ns3:TrackPointExtension>
        </extensions>
      </trkpt>
      <trkpt lat="42.54791446030139923095703125" lon="20.0438381731510162353515625">
        <ele>2019.5999755859375</ele>
        <time>2026-06-19T10:33:05.000Z</time>
        <extensions>
          <ns3:TrackPointExtension>
            <ns3:atemp>22.0</ns3:atemp>
          </ns3:TrackPointExtension>
        </extensions>
      </trkpt>
      <trkpt lat="42.54789677448570728302001953125" lon="20.04386943764984607696533203125">
        <ele>2020</ele>
        <time>2026-06-19T10:33:06.000Z</time>
        <extensions>
          <ns3:TrackPointExtension>
            <ns3:atemp>22.0</ns3:atemp>
          </ns3:TrackPointExtension>
        </extensions>
      </trkpt>
      <trkpt lat="42.5478821061551570892333984375" lon="20.04389877431094646453857421875">
        <ele>2020.199951171875</ele>
        <time>2026-06-19T10:33:07.000Z</time>
        <extensions>
          <ns3:TrackPointExtension>
            <ns3:atemp>22.0</ns3:atemp>
          </ns3:TrackPointExtension>
        </extensions>
      </trkpt>
      <trkpt lat="42.54787129350006580352783203125" lon="20.043919645249843597412109375">
        <ele>2020.5999755859375</ele>
        <time>2026-06-19T10:33:08.000Z</time>
        <extensions>
          <ns3:TrackPointExtension>
            <ns3:atemp>22.0</ns3:atemp>
          </ns3:TrackPointExtension>
        </extensions>
      </trkpt>
      <trkpt lat="42.547861821949481964111328125" lon="20.04393582232296466827392578125">
        <ele>2020.800048828125</ele>
        <time>2026-06-19T10:33:09.000Z</time>
        <extensions>
          <ns3:TrackPointExtension>
            <ns3:atemp>22.0</ns3:atemp>
          </ns3:TrackPointExtension>
        </extensions>
      </trkpt>
      <trkpt lat="42.54784866236150264739990234375" lon="20.04395543597638607025146484375">
        <ele>2021</ele>
        <time>2026-06-19T10:33:10.000Z</time>
        <extensions>
          <ns3:TrackPointExtension>
            <ns3:atemp>21.0</ns3:atemp>
          </ns3:TrackPointExtension>
        </extensions>
      </trkpt>
      <trkpt lat="42.54783692769706249237060546875" lon="20.04397907294332981109619140625">
        <ele>2021.4000244140625</ele>
        <time>2026-06-19T10:33:11.000Z</time>
        <extensions>
          <ns3:TrackPointExtension>
            <ns3:atemp>21.0</ns3:atemp>
          </ns3:TrackPointExtension>
        </extensions>
      </trkpt>
      <trkpt lat="42.5478279590606689453125" lon="20.044002793729305267333984375">
        <ele>2021.5999755859375</ele>
        <time>2026-06-19T10:33:12.000Z</time>
        <extensions>
          <ns3:TrackPointExtension>
            <ns3:atemp>21.0</ns3:atemp>
          </ns3:TrackPointExtension>
        </extensions>
      </trkpt>
      <trkpt lat="42.547818236052989959716796875" lon="20.0440294481813907623291015625">
        <ele>2021.800048828125</ele>
        <time>2026-06-19T10:33:13.000Z</time>
        <extensions>
          <ns3:TrackPointExtension>
            <ns3:atemp>21.0</ns3:atemp>
          </ns3:TrackPointExtension>
        </extensions>
      </trkpt>
      <trkpt lat="42.54780926741659641265869140625" lon="20.0440549291670322418212890625">
        <ele>2022.199951171875</ele>
        <time>2026-06-19T10:33:14.000Z</time>
        <extensions>
          <ns3:TrackPointExtension>
            <ns3:atemp>21.0</ns3:atemp>
          </ns3:TrackPointExtension>
        </extensions>
      </trkpt>
      <trkpt lat="42.54780046641826629638671875" lon="20.04407823085784912109375">
        <ele>2022.4000244140625</ele>
        <time>2026-06-19T10:33:15.000Z</time>
        <extensions>
          <ns3:TrackPointExtension>
            <ns3:atemp>21.0</ns3:atemp>
          </ns3:TrackPointExtension>
        </extensions>
      </trkpt>
      <trkpt lat="42.5477875582873821258544921875" lon="20.04413045011460781097412109375">
        <ele>2022.5999755859375</ele>
        <time>2026-06-19T10:33:16.000Z</time>
        <extensions>
          <ns3:TrackPointExtension>
            <ns3:atemp>21.0</ns3:atemp>
          </ns3:TrackPointExtension>
        </extensions>
      </trkpt>
      <trkpt lat="42.5477875582873821258544921875" lon="20.04413045011460781097412109375">
        <ele>2022.800048828125</ele>
        <time>2026-06-19T10:33:17.000Z</time>
        <extensions>
          <ns3:TrackPointExtension>
            <ns3:atemp>21.0</ns3:atemp>
          </ns3:TrackPointExtension>
        </extensions>
      </trkpt>
      <trkpt lat="42.5477815233170986175537109375" lon="20.04415911622345447540283203125">
        <ele>2023.199951171875</ele>
        <time>2026-06-19T10:33:18.000Z</time>
        <extensions>
          <ns3:TrackPointExtension>
            <ns3:atemp>21.0</ns3:atemp>
          </ns3:TrackPointExtension>
        </extensions>
      </trkpt>
      <trkpt lat="42.54778294824063777923583984375" lon="20.04418593831360340118408203125">
        <ele>2023.5999755859375</ele>
        <time>2026-06-19T10:33:19.000Z</time>
        <extensions>
          <ns3:TrackPointExtension>
            <ns3:atemp>21.0</ns3:atemp>
          </ns3:TrackPointExtension>
        </extensions>
      </trkpt>
      <trkpt lat="42.5477821938693523406982421875" lon="20.04421259276568889617919921875">
        <ele>2024</ele>
        <time>2026-06-19T10:33:20.000Z</time>
        <extensions>
          <ns3:TrackPointExtension>
            <ns3:atemp>21.0</ns3:atemp>
          </ns3:TrackPointExtension>
        </extensions>
      </trkpt>
      <trkpt lat="42.5477810204029083251953125" lon="20.0442366488277912139892578125">
        <ele>2024.199951171875</ele>
        <time>2026-06-19T10:33:21.000Z</time>
        <extensions>
          <ns3:TrackPointExtension>
            <ns3:atemp>21.0</ns3:atemp>
          </ns3:TrackPointExtension>
        </extensions>
      </trkpt>
      <trkpt lat="42.54778009839355945587158203125" lon="20.0442678295075893402099609375">
        <ele>2024.5999755859375</ele>
        <time>2026-06-19T10:33:22.000Z</time>
        <extensions>
          <ns3:TrackPointExtension>
            <ns3:atemp>21.0</ns3:atemp>
          </ns3:TrackPointExtension>
        </extensions>
      </trkpt>
      <trkpt lat="42.5477818585932254791259765625" lon="20.04429959692060947418212890625">
        <ele>2024.800048828125</ele>
        <time>2026-06-19T10:33:23.000Z</time>
        <extensions>
          <ns3:TrackPointExtension>
            <ns3:atemp>21.0</ns3:atemp>
          </ns3:TrackPointExtension>
        </extensions>
      </trkpt>
      <trkpt lat="42.54778613336384296417236328125" lon="20.044334717094898223876953125">
        <ele>2025.199951171875</ele>
        <time>2026-06-19T10:33:24.000Z</time>
        <extensions>
          <ns3:TrackPointExtension>
            <ns3:atemp>21.0</ns3:atemp>
          </ns3:TrackPointExtension>
        </extensions>
      </trkpt>
      <trkpt lat="42.5477912463247776031494140625" lon="20.04437034018337726593017578125">
        <ele>2025.4000244140625</ele>
        <time>2026-06-19T10:33:25.000Z</time>
        <extensions>
          <ns3:TrackPointExtension>
            <ns3:atemp>21.0</ns3:atemp>
          </ns3:TrackPointExtension>
        </extensions>
      </trkpt>
      <trkpt lat="42.5478002987802028656005859375" lon="20.04440101794898509979248046875">
        <ele>2025.5999755859375</ele>
        <time>2026-06-19T10:33:26.000Z</time>
        <extensions>
          <ns3:TrackPointExtension>
            <ns3:atemp>21.0</ns3:atemp>
          </ns3:TrackPointExtension>
        </extensions>
      </trkpt>
      <trkpt lat="42.547806836664676666259765625" lon="20.044426582753658294677734375">
        <ele>2025.800048828125</ele>
        <time>2026-06-19T10:33:27.000Z</time>
        <extensions>
          <ns3:TrackPointExtension>
            <ns3:atemp>21.0</ns3:atemp>
          </ns3:TrackPointExtension>
        </extensions>
      </trkpt>
      <trkpt lat="42.547809183597564697265625" lon="20.0444475375115871429443359375">
        <ele>2026</ele>
        <time>2026-06-19T10:33:28.000Z</time>
        <extensions>
          <ns3:TrackPointExtension>
            <ns3:atemp>21.0</ns3:atemp>
          </ns3:TrackPointExtension>
        </extensions>
      </trkpt>
      <trkpt lat="42.5478100217878818511962890625" lon="20.0444726832211017608642578125">
        <ele>2026</ele>
        <time>2026-06-19T10:33:29.000Z</time>
        <extensions>
          <ns3:TrackPointExtension>
            <ns3:atemp>21.0</ns3:atemp>
          </ns3:TrackPointExtension>
        </extensions>
      </trkpt>
      <trkpt lat="42.54780985414981842041015625" lon="20.0444981642067432403564453125">
        <ele>2026.199951171875</ele>
        <time>2026-06-19T10:33:30.000Z</time>
        <extensions>
          <ns3:TrackPointExtension>
            <ns3:atemp>21.0</ns3:atemp>
          </ns3:TrackPointExtension>
        </extensions>
      </trkpt>
      <trkpt lat="42.54780977033078670501708984375" lon="20.04452339373528957366943359375">
        <ele>2026.4000244140625</ele>
        <time>2026-06-19T10:33:31.000Z</time>
        <extensions>
          <ns3:TrackPointExtension>
            <ns3:atemp>21.0</ns3:atemp>
          </ns3:TrackPointExtension>
        </extensions>
      </trkpt>
      <trkpt lat="42.54781211726367473602294921875" lon="20.04455071873962879180908203125">
        <ele>2026.4000244140625</ele>
        <time>2026-06-19T10:33:32.000Z</time>
        <extensions>
          <ns3:TrackPointExtension>
            <ns3:atemp>21.0</ns3:atemp>
          </ns3:TrackPointExtension>
        </extensions>
      </trkpt>
      <trkpt lat="42.5478147156536579132080078125" lon="20.04457913339138031005859375">
        <ele>2026.4000244140625</ele>
        <time>2026-06-19T10:33:33.000Z</time>
        <extensions>
          <ns3:TrackPointExtension>
            <ns3:atemp>21.0</ns3:atemp>
          </ns3:TrackPointExtension>
        </extensions>
      </trkpt>
      <trkpt lat="42.547814548015594482421875" lon="20.04460721276700496673583984375">
        <ele>2026.5999755859375</ele>
        <time>2026-06-19T10:33:34.000Z</time>
        <extensions>
          <ns3:TrackPointExtension>
            <ns3:atemp>21.0</ns3:atemp>
          </ns3:TrackPointExtension>
        </extensions>
      </trkpt>
      <trkpt lat="42.5478204153478145599365234375" lon="20.044639147818088531494140625">
        <ele>2026.5999755859375</ele>
        <time>2026-06-19T10:33:35.000Z</time>
        <extensions>
          <ns3:TrackPointExtension>
            <ns3:atemp>21.0</ns3:atemp>
          </ns3:TrackPointExtension>
        </extensions>
      </trkpt>
      <trkpt lat="42.54782737232744693756103515625" lon="20.04466940648853778839111328125">
        <ele>2026.5999755859375</ele>
        <time>2026-06-19T10:33:36.000Z</time>
        <extensions>
          <ns3:TrackPointExtension>
            <ns3:atemp>21.0</ns3:atemp>
          </ns3:TrackPointExtension>
        </extensions>
      </trkpt>
      <trkpt lat="42.54783491604030132293701171875" lon="20.04470117390155792236328125">
        <ele>2026.5999755859375</ele>
        <time>2026-06-19T10:33:37.000Z</time>
        <extensions>
          <ns3:TrackPointExtension>
            <ns3:atemp>21.0</ns3:atemp>
          </ns3:TrackPointExtension>
        </extensions>
      </trkpt>
      <trkpt lat="42.54784514196217060089111328125" lon="20.04473067820072174072265625">
        <ele>2026.800048828125</ele>
        <time>2026-06-19T10:33:38.000Z</time>
        <extensions>
          <ns3:TrackPointExtension>
            <ns3:atemp>21.0</ns3:atemp>
          </ns3:TrackPointExtension>
        </extensions>
      </trkpt>
      <trkpt lat="42.5478559546172618865966796875" lon="20.044761858880519866943359375">
        <ele>2027</ele>
        <time>2026-06-19T10:33:39.000Z</time>
        <extensions>
          <ns3:TrackPointExtension>
            <ns3:atemp>21.0</ns3:atemp>
          </ns3:TrackPointExtension>
        </extensions>
      </trkpt>
      <trkpt lat="42.54786643199622631072998046875" lon="20.04479362629354000091552734375">
        <ele>2027.199951171875</ele>
        <time>2026-06-19T10:33:40.000Z</time>
        <extensions>
          <ns3:TrackPointExtension>
            <ns3:atemp>21.0</ns3:atemp>
          </ns3:TrackPointExtension>
        </extensions>
      </trkpt>
      <trkpt lat="42.54788705147802829742431640625" lon="20.04486235789954662322998046875">
        <ele>2027.199951171875</ele>
        <time>2026-06-19T10:33:41.000Z</time>
        <extensions>
          <ns3:TrackPointExtension>
            <ns3:atemp>21.0</ns3:atemp>
          </ns3:TrackPointExtension>
        </extensions>
      </trkpt>
      <trkpt lat="42.54788705147802829742431640625" lon="20.04486235789954662322998046875">
        <ele>2027.4000244140625</ele>
        <time>2026-06-19T10:33:42.000Z</time>
        <extensions>
          <ns3:TrackPointExtension>
            <ns3:atemp>21.0</ns3:atemp>
          </ns3:TrackPointExtension>
        </extensions>
      </trkpt>
      <trkpt lat="42.54789895378053188323974609375" lon="20.0448934547603130340576171875">
        <ele>2027.5999755859375</ele>
        <time>2026-06-19T10:33:43.000Z</time>
        <extensions>
          <ns3:TrackPointExtension>
            <ns3:atemp>21.0</ns3:atemp>
          </ns3:TrackPointExtension>
        </extensions>
      </trkpt>
      <trkpt lat="42.54790884442627429962158203125" lon="20.04492572508752346038818359375">
        <ele>2027.5999755859375</ele>
        <time>2026-06-19T10:33:44.000Z</time>
        <extensions>
          <ns3:TrackPointExtension>
            <ns3:atemp>21.0</ns3:atemp>
          </ns3:TrackPointExtension>
        </extensions>
      </trkpt>
      <trkpt lat="42.5479273684322834014892578125" lon="20.0449873320758342742919921875">
        <ele>2027.800048828125</ele>
        <time>2026-06-19T10:33:45.000Z</time>
        <extensions>
          <ns3:TrackPointExtension>
            <ns3:atemp>21.0</ns3:atemp>
          </ns3:TrackPointExtension>
        </extensions>
      </trkpt>
      <trkpt lat="42.5479370914399623870849609375" lon="20.0450181774795055389404296875">
        <ele>2028</ele>
        <time>2026-06-19T10:33:46.000Z</time>
        <extensions>
          <ns3:TrackPointExtension>
            <ns3:atemp>21.0</ns3:atemp>
          </ns3:TrackPointExtension>
        </extensions>
      </trkpt>
      <trkpt lat="42.5479461438953876495361328125" lon="20.04505061544477939605712890625">
        <ele>2028.199951171875</ele>
        <time>2026-06-19T10:33:47.000Z</time>
        <extensions>
          <ns3:TrackPointExtension>
            <ns3:atemp>21.0</ns3:atemp>
          </ns3:TrackPointExtension>
        </extensions>
      </trkpt>
      <trkpt lat="42.5479461438953876495361328125" lon="20.04505061544477939605712890625">
        <ele>2028.4000244140625</ele>
        <time>2026-06-19T10:33:48.000Z</time>
        <extensions>
          <ns3:TrackPointExtension>
            <ns3:atemp>21.0</ns3:atemp>
          </ns3:TrackPointExtension>
        </extensions>
      </trkpt>
      <trkpt lat="42.547958381474018096923828125" lon="20.0450827181339263916015625">
        <ele>2028.4000244140625</ele>
        <time>2026-06-19T10:33:49.000Z</time>
        <extensions>
          <ns3:TrackPointExtension>
            <ns3:atemp>21.0</ns3:atemp>
          </ns3:TrackPointExtension>
        </extensions>
      </trkpt>
      <trkpt lat="42.54798897542059421539306640625" lon="20.04515974782407283782958984375">
        <ele>2028.5999755859375</ele>
        <time>2026-06-19T10:33:50.000Z</time>
        <extensions>
          <ns3:TrackPointExtension>
            <ns3:atemp>21.0</ns3:atemp>
          </ns3:TrackPointExtension>
        </extensions>
      </trkpt>
      <trkpt lat="42.54798897542059421539306640625" lon="20.04515974782407283782958984375">
        <ele>2028.5999755859375</ele>
        <time>2026-06-19T10:33:51.000Z</time>
        <extensions>
          <ns3:TrackPointExtension>
            <ns3:atemp>21.0</ns3:atemp>
          </ns3:TrackPointExtension>
        </extensions>
      </trkpt>
      <trkpt lat="42.5480219163000583648681640625" lon="20.0452340953052043914794921875">
        <ele>2028.800048828125</ele>
        <time>2026-06-19T10:33:52.000Z</time>
        <extensions>
          <ns3:TrackPointExtension>
            <ns3:atemp>21.0</ns3:atemp>
          </ns3:TrackPointExtension>
        </extensions>
      </trkpt>
      <trkpt lat="42.5480219163000583648681640625" lon="20.0452340953052043914794921875">
        <ele>2028.800048828125</ele>
        <time>2026-06-19T10:33:53.000Z</time>
        <extensions>
          <ns3:TrackPointExtension>
            <ns3:atemp>21.0</ns3:atemp>
          </ns3:TrackPointExtension>
        </extensions>
      </trkpt>
      <trkpt lat="42.54805804230272769927978515625" lon="20.04529100842773914337158203125">
        <ele>2029</ele>
        <time>2026-06-19T10:33:54.000Z</time>
        <extensions>
          <ns3:TrackPointExtension>
            <ns3:atemp>21.0</ns3:atemp>
          </ns3:TrackPointExtension>
        </extensions>
      </trkpt>
      <trkpt lat="42.5480725429952144622802734375" lon="20.04531598649919033050537109375">
        <ele>2029.199951171875</ele>
        <time>2026-06-19T10:33:55.000Z</time>
        <extensions>
          <ns3:TrackPointExtension>
            <ns3:atemp>21.0</ns3:atemp>
          </ns3:TrackPointExtension>
        </extensions>
      </trkpt>
      <trkpt lat="42.5480725429952144622802734375" lon="20.04531598649919033050537109375">
        <ele>2029.199951171875</ele>
        <time>2026-06-19T10:33:56.000Z</time>
        <extensions>
          <ns3:TrackPointExtension>
            <ns3:atemp>21.0</ns3:atemp>
          </ns3:TrackPointExtension>
        </extensions>
      </trkpt>
      <trkpt lat="42.54809081554412841796875" lon="20.04533962346613407135009765625">
        <ele>2029.4000244140625</ele>
        <time>2026-06-19T10:33:57.000Z</time>
        <extensions>
          <ns3:TrackPointExtension>
            <ns3:atemp>21.0</ns3:atemp>
          </ns3:TrackPointExtension>
        </extensions>
      </trkpt>
      <trkpt lat="42.54814621992409229278564453125" lon="20.04541154019534587860107421875">
        <ele>2029.199951171875</ele>
        <time>2026-06-19T10:33:58.000Z</time>
        <extensions>
          <ns3:TrackPointExtension>
            <ns3:atemp>21.0</ns3:atemp>
          </ns3:TrackPointExtension>
        </extensions>
      </trkpt>
      <trkpt lat="42.54817673005163669586181640625" lon="20.0454617477953433990478515625">
        <ele>2028.800048828125</ele>
        <time>2026-06-19T10:33:59.000Z</time>
        <extensions>
          <ns3:TrackPointExtension>
            <ns3:atemp>21.0</ns3:atemp>
          </ns3:TrackPointExtension>
        </extensions>
      </trkpt>
      <trkpt lat="42.54817673005163669586181640625" lon="20.0454617477953433990478515625">
        <ele>2028.5999755859375</ele>
        <time>2026-06-19T10:34:00.000Z</time>
        <extensions>
          <ns3:TrackPointExtension>
            <ns3:atemp>21.0</ns3:atemp>
          </ns3:TrackPointExtension>
        </extensions>
      </trkpt>
      <trkpt lat="42.54820556379854679107666015625" lon="20.04552234895527362823486328125">
        <ele>2028.199951171875</ele>
        <time>2026-06-19T10:34:01.000Z</time>
        <extensions>
          <ns3:TrackPointExtension>
            <ns3:atemp>21.0</ns3:atemp>
          </ns3:TrackPointExtension>
        </extensions>
      </trkpt>
      <trkpt lat="42.54823573864996433258056640625" lon="20.0456803478300571441650390625">
        <ele>2027.800048828125</ele>
        <time>2026-06-19T10:34:02.000Z</time>
        <extensions>
          <ns3:TrackPointExtension>
            <ns3:atemp>21.0</ns3:atemp>
          </ns3:TrackPointExtension>
        </extensions>
      </trkpt>
      <trkpt lat="42.54823657684028148651123046875" lon="20.04576877690851688385009765625">
        <ele>2027.199951171875</ele>
        <time>2026-06-19T10:34:03.000Z</time>
        <extensions>
          <ns3:TrackPointExtension>
            <ns3:atemp>21.0</ns3:atemp>
          </ns3:TrackPointExtension>
        </extensions>
      </trkpt>
      <trkpt lat="42.5482405163347721099853515625" lon="20.0458607263863086700439453125">
        <ele>2027</ele>
        <time>2026-06-19T10:34:04.000Z</time>
        <extensions>
          <ns3:TrackPointExtension>
            <ns3:atemp>21.0</ns3:atemp>
          </ns3:TrackPointExtension>
        </extensions>
      </trkpt>
      <trkpt lat="42.5482405163347721099853515625" lon="20.0458607263863086700439453125">
        <ele>2026.5999755859375</ele>
        <time>2026-06-19T10:34:05.000Z</time>
        <extensions>
          <ns3:TrackPointExtension>
            <ns3:atemp>21.0</ns3:atemp>
          </ns3:TrackPointExtension>
        </extensions>
      </trkpt>
      <trkpt lat="42.548251412808895111083984375" lon="20.04606105387210845947265625">
        <ele>2026</ele>
        <time>2026-06-19T10:34:06.000Z</time>
        <extensions>
          <ns3:TrackPointExtension>
            <ns3:atemp>21.0</ns3:atemp>
          </ns3:TrackPointExtension>
        </extensions>
      </trkpt>
      <trkpt lat="42.548251412808895111083984375" lon="20.04606105387210845947265625">
        <ele>2025.5999755859375</ele>
        <time>2026-06-19T10:34:07.000Z</time>
        <extensions>
          <ns3:TrackPointExtension>
            <ns3:atemp>21.0</ns3:atemp>
          </ns3:TrackPointExtension>
        </extensions>
      </trkpt>
      <trkpt lat="42.54824571311473846435546875" lon="20.0461681745946407318115234375">
        <ele>2025</ele>
        <time>2026-06-19T10:34:08.000Z</time>
        <extensions>
          <ns3:TrackPointExtension>
            <ns3:atemp>21.0</ns3:atemp>
          </ns3:TrackPointExtension>
        </extensions>
      </trkpt>
      <trkpt lat="42.5482200644910335540771484375" lon="20.04627319984138011932373046875">
        <ele>2024.5999755859375</ele>
        <time>2026-06-19T10:34:09.000Z</time>
        <extensions>
          <ns3:TrackPointExtension>
            <ns3:atemp>21.0</ns3:atemp>
          </ns3:TrackPointExtension>
        </extensions>
      </trkpt>
      <trkpt lat="42.5481489859521389007568359375" lon="20.04647905938327312469482421875">
        <ele>2024</ele>
        <time>2026-06-19T10:34:10.000Z</time>
        <extensions>
          <ns3:TrackPointExtension>
            <ns3:atemp>21.0</ns3:atemp>
          </ns3:TrackPointExtension>
        </extensions>
      </trkpt>
      <trkpt lat="42.5481198169291019439697265625" lon="20.04658081568777561187744140625">
        <ele>2023.5999755859375</ele>
        <time>2026-06-19T10:34:11.000Z</time>
        <extensions>
          <ns3:TrackPointExtension>
            <ns3:atemp>21.0</ns3:atemp>
          </ns3:TrackPointExtension>
        </extensions>
      </trkpt>
      <trkpt lat="42.5481198169291019439697265625" lon="20.04658081568777561187744140625">
        <ele>2023.199951171875</ele>
        <time>2026-06-19T10:34:12.000Z</time>
        <extensions>
          <ns3:TrackPointExtension>
            <ns3:atemp>21.0</ns3:atemp>
          </ns3:TrackPointExtension>
        </extensions>
      </trkpt>
      <trkpt lat="42.54809140227735042572021484375" lon="20.0466834940016269683837890625">
        <ele>2022.5999755859375</ele>
        <time>2026-06-19T10:34:13.000Z</time>
        <extensions>
          <ns3:TrackPointExtension>
            <ns3:atemp>21.0</ns3:atemp>
          </ns3:TrackPointExtension>
        </extensions>
      </trkpt>
      <trkpt lat="42.5480256043374538421630859375" lon="20.04684383980929851531982421875">
        <ele>2022.4000244140625</ele>
        <time>2026-06-19T10:34:14.000Z</time>
        <extensions>
          <ns3:TrackPointExtension>
            <ns3:atemp>21.0</ns3:atemp>
          </ns3:TrackPointExtension>
        </extensions>
      </trkpt>
      <trkpt lat="42.547994591295719146728515625" lon="20.04690988920629024505615234375">
        <ele>2022.5999755859375</ele>
        <time>2026-06-19T10:34:15.000Z</time>
        <extensions>
          <ns3:TrackPointExtension>
            <ns3:atemp>21.0</ns3:atemp>
          </ns3:TrackPointExtension>
        </extensions>
      </trkpt>
      <trkpt lat="42.547978498041629791259765625" lon="20.0469681434333324432373046875">
        <ele>2022.800048828125</ele>
        <time>2026-06-19T10:34:16.000Z</time>
        <extensions>
          <ns3:TrackPointExtension>
            <ns3:atemp>21.0</ns3:atemp>
          </ns3:TrackPointExtension>
        </extensions>
      </trkpt>
      <trkpt lat="42.54797087050974369049072265625" lon="20.0470150820910930633544921875">
        <ele>2023.199951171875</ele>
        <time>2026-06-19T10:34:17.000Z</time>
        <extensions>
          <ns3:TrackPointExtension>
            <ns3:atemp>21.0</ns3:atemp>
          </ns3:TrackPointExtension>
        </extensions>
      </trkpt>
      <trkpt lat="42.547959387302398681640625" lon="20.04706143401563167572021484375">
        <ele>2023.5999755859375</ele>
        <time>2026-06-19T10:34:18.000Z</time>
        <extensions>
          <ns3:TrackPointExtension>
            <ns3:atemp>21.0</ns3:atemp>
          </ns3:TrackPointExtension>
        </extensions>
      </trkpt>
      <trkpt lat="42.547959387302398681640625" lon="20.04706143401563167572021484375">
        <ele>2024</ele>
        <time>2026-06-19T10:34:19.000Z</time>
        <extensions>
          <ns3:TrackPointExtension>
            <ns3:atemp>21.0</ns3:atemp>
          </ns3:TrackPointExtension>
        </extensions>
      </trkpt>
      <trkpt lat="42.5479454733431339263916015625" lon="20.0471046008169651031494140625">
        <ele>2024.4000244140625</ele>
        <time>2026-06-19T10:34:20.000Z</time>
        <extensions>
          <ns3:TrackPointExtension>
            <ns3:atemp>21.0</ns3:atemp>
          </ns3:TrackPointExtension>
        </extensions>
      </trkpt>
      <trkpt lat="42.54792946390807628631591796875" lon="20.0471984781324863433837890625">
        <ele>2024.4000244140625</ele>
        <time>2026-06-19T10:34:21.000Z</time>
        <extensions>
          <ns3:TrackPointExtension>
            <ns3:atemp>21.0</ns3:atemp>
          </ns3:TrackPointExtension>
        </extensions>
      </trkpt>
      <trkpt lat="42.5479179807007312774658203125" lon="20.047250278294086456298828125">
        <ele>2024.4000244140625</ele>
        <time>2026-06-19T10:34:22.000Z</time>
        <extensions>
          <ns3:TrackPointExtension>
            <ns3:atemp>21.0</ns3:atemp>
          </ns3:TrackPointExtension>
        </extensions>
      </trkpt>
      <trkpt lat="42.54790985025465488433837890625" lon="20.04730434156954288482666015625">
        <ele>2024.199951171875</ele>
        <time>2026-06-19T10:34:23.000Z</time>
        <extensions>
          <ns3:TrackPointExtension>
            <ns3:atemp>21.0</ns3:atemp>
          </ns3:TrackPointExtension>
        </extensions>
      </trkpt>
      <trkpt lat="42.54790515638887882232666015625" lon="20.0473664514720439910888671875">
        <ele>2024.199951171875</ele>
        <time>2026-06-19T10:34:24.000Z</time>
        <extensions>
          <ns3:TrackPointExtension>
            <ns3:atemp>21.0</ns3:atemp>
          </ns3:TrackPointExtension>
        </extensions>
      </trkpt>
      <trkpt lat="42.54789945669472217559814453125" lon="20.0474281422793865203857421875">
        <ele>2024</ele>
        <time>2026-06-19T10:34:25.000Z</time>
        <extensions>
          <ns3:TrackPointExtension>
            <ns3:atemp>21.0</ns3:atemp>
          </ns3:TrackPointExtension>
        </extensions>
      </trkpt>
      <trkpt lat="42.54789945669472217559814453125" lon="20.0474281422793865203857421875">
        <ele>2023.800048828125</ele>
        <time>2026-06-19T10:34:26.000Z</time>
        <extensions>
          <ns3:TrackPointExtension>
            <ns3:atemp>21.0</ns3:atemp>
          </ns3:TrackPointExtension>
        </extensions>
      </trkpt>
      <trkpt lat="42.5479166395962238311767578125" lon="20.04754289053380489349365234375">
        <ele>2023.800048828125</ele>
        <time>2026-06-19T10:34:27.000Z</time>
        <extensions>
          <ns3:TrackPointExtension>
            <ns3:atemp>21.0</ns3:atemp>
          </ns3:TrackPointExtension>
        </extensions>
      </trkpt>
      <trkpt lat="42.54792376421391963958740234375" lon="20.0475957803428173065185546875">
        <ele>2023.5999755859375</ele>
        <time>2026-06-19T10:34:28.000Z</time>
        <extensions>
          <ns3:TrackPointExtension>
            <ns3:atemp>21.0</ns3:atemp>
          </ns3:TrackPointExtension>
        </extensions>
      </trkpt>
      <trkpt lat="42.5479330681264400482177734375" lon="20.04764900542795658111572265625">
        <ele>2023.4000244140625</ele>
        <time>2026-06-19T10:34:29.000Z</time>
        <extensions>
          <ns3:TrackPointExtension>
            <ns3:atemp>21.0</ns3:atemp>
          </ns3:TrackPointExtension>
        </extensions>
      </trkpt>
      <trkpt lat="42.5479330681264400482177734375" lon="20.04764900542795658111572265625">
        <ele>2023.4000244140625</ele>
        <time>2026-06-19T10:34:30.000Z</time>
        <extensions>
          <ns3:TrackPointExtension>
            <ns3:atemp>21.0</ns3:atemp>
          </ns3:TrackPointExtension>
        </extensions>
      </trkpt>
      <trkpt lat="42.54794807173311710357666015625" lon="20.04769963212311267852783203125">
        <ele>2023.199951171875</ele>
        <time>2026-06-19T10:34:31.000Z</time>
        <extensions>
          <ns3:TrackPointExtension>
            <ns3:atemp>21.0</ns3:atemp>
          </ns3:TrackPointExtension>
        </extensions>
      </trkpt>
      <trkpt lat="42.547963745892047882080078125" lon="20.0477463193237781524658203125">
        <ele>2023.199951171875</ele>
        <time>2026-06-19T10:34:32.000Z</time>
        <extensions>
          <ns3:TrackPointExtension>
            <ns3:atemp>21.0</ns3:atemp>
          </ns3:TrackPointExtension>
        </extensions>
      </trkpt>
      <trkpt lat="42.54799132235348224639892578125" lon="20.04784229211509227752685546875">
        <ele>2023</ele>
        <time>2026-06-19T10:34:33.000Z</time>
        <extensions>
          <ns3:TrackPointExtension>
            <ns3:atemp>21.0</ns3:atemp>
          </ns3:TrackPointExtension>
        </extensions>
      </trkpt>
      <trkpt lat="42.54799132235348224639892578125" lon="20.04784229211509227752685546875">
        <ele>2022.800048828125</ele>
        <time>2026-06-19T10:34:34.000Z</time>
        <extensions>
          <ns3:TrackPointExtension>
            <ns3:atemp>21.0</ns3:atemp>
          </ns3:TrackPointExtension>
        </extensions>
      </trkpt>
      <trkpt lat="42.54801093600690364837646484375" lon="20.047894679009914398193359375">
        <ele>2022.5999755859375</ele>
        <time>2026-06-19T10:34:35.000Z</time>
        <extensions>
          <ns3:TrackPointExtension>
            <ns3:atemp>21.0</ns3:atemp>
          </ns3:TrackPointExtension>
        </extensions>
      </trkpt>
      <trkpt lat="42.5480457209050655364990234375" lon="20.04794597625732421875">
        <ele>2022.199951171875</ele>
        <time>2026-06-19T10:34:36.000Z</time>
        <extensions>
          <ns3:TrackPointExtension>
            <ns3:atemp>21.0</ns3:atemp>
          </ns3:TrackPointExtension>
        </extensions>
      </trkpt>
      <trkpt lat="42.548084445297718048095703125" lon="20.04799735732376575469970703125">
        <ele>2022</ele>
        <time>2026-06-19T10:34:37.000Z</time>
        <extensions>
          <ns3:TrackPointExtension>
            <ns3:atemp>21.0</ns3:atemp>
          </ns3:TrackPointExtension>
        </extensions>
      </trkpt>
      <trkpt lat="42.548171617090702056884765625" lon="20.048121996223926544189453125">
        <ele>2021.4000244140625</ele>
        <time>2026-06-19T10:34:38.000Z</time>
        <extensions>
          <ns3:TrackPointExtension>
            <ns3:atemp>21.0</ns3:atemp>
          </ns3:TrackPointExtension>
        </extensions>
      </trkpt>
      <trkpt lat="42.54822249524295330047607421875" lon="20.0481882132589817047119140625">
        <ele>2021</ele>
        <time>2026-06-19T10:34:39.000Z</time>
        <extensions>
          <ns3:TrackPointExtension>
            <ns3:atemp>21.0</ns3:atemp>
          </ns3:TrackPointExtension>
        </extensions>
      </trkpt>
      <trkpt lat="42.54826138727366924285888671875" lon="20.0482676737010478973388671875">
        <ele>2020.4000244140625</ele>
        <time>2026-06-19T10:34:40.000Z</time>
        <extensions>
          <ns3:TrackPointExtension>
            <ns3:atemp>21.0</ns3:atemp>
          </ns3:TrackPointExtension>
        </extensions>
      </trkpt>
      <trkpt lat="42.5482810847461223602294921875" lon="20.04834872670471668243408203125">
        <ele>2019.800048828125</ele>
        <time>2026-06-19T10:34:41.000Z</time>
        <extensions>
          <ns3:TrackPointExtension>
            <ns3:atemp>21.0</ns3:atemp>
          </ns3:TrackPointExtension>
        </extensions>
      </trkpt>
      <trkpt lat="42.54828837700188159942626953125" lon="20.04841812886297702789306640625">
        <ele>2019.5999755859375</ele>
        <time>2026-06-19T10:34:42.000Z</time>
        <extensions>
          <ns3:TrackPointExtension>
            <ns3:atemp>21.0</ns3:atemp>
          </ns3:TrackPointExtension>
        </extensions>
      </trkpt>
      <trkpt lat="42.5482733733952045440673828125" lon="20.0484688393771648406982421875">
        <ele>2019.4000244140625</ele>
        <time>2026-06-19T10:34:43.000Z</time>
        <extensions>
          <ns3:TrackPointExtension>
            <ns3:atemp>21.0</ns3:atemp>
          </ns3:TrackPointExtension>
        </extensions>
      </trkpt>
      <trkpt lat="42.548256106674671173095703125" lon="20.0485137663781642913818359375">
        <ele>2019.4000244140625</ele>
        <time>2026-06-19T10:34:44.000Z</time>
        <extensions>
          <ns3:TrackPointExtension>
            <ns3:atemp>21.0</ns3:atemp>
          </ns3:TrackPointExtension>
        </extensions>
      </trkpt>
      <trkpt lat="42.54823691211640834808349609375" lon="20.0485575199127197265625">
        <ele>2019.5999755859375</ele>
        <time>2026-06-19T10:34:45.000Z</time>
        <extensions>
          <ns3:TrackPointExtension>
            <ns3:atemp>21.0</ns3:atemp>
          </ns3:TrackPointExtension>
        </extensions>
      </trkpt>
      <trkpt lat="42.54822148941457271575927734375" lon="20.04859582521021366119384765625">
        <ele>2019.800048828125</ele>
        <time>2026-06-19T10:34:46.000Z</time>
        <extensions>
          <ns3:TrackPointExtension>
            <ns3:atemp>21.0</ns3:atemp>
          </ns3:TrackPointExtension>
        </extensions>
      </trkpt>
      <trkpt lat="42.5482090003788471221923828125" lon="20.04864527843892574310302734375">
        <ele>2019.5999755859375</ele>
        <time>2026-06-19T10:34:47.000Z</time>
        <extensions>
          <ns3:TrackPointExtension>
            <ns3:atemp>21.0</ns3:atemp>
          </ns3:TrackPointExtension>
        </extensions>
      </trkpt>
      <trkpt lat="42.54820120520889759063720703125" lon="20.04869590513408184051513671875">
        <ele>2019.5999755859375</ele>
        <time>2026-06-19T10:34:48.000Z</time>
        <extensions>
          <ns3:TrackPointExtension>
            <ns3:atemp>21.0</ns3:atemp>
          </ns3:TrackPointExtension>
        </extensions>
      </trkpt>
      <trkpt lat="42.5481913983821868896484375" lon="20.048747621476650238037109375">
        <ele>2019.5999755859375</ele>
        <time>2026-06-19T10:34:49.000Z</time>
        <extensions>
          <ns3:TrackPointExtension>
            <ns3:atemp>21.0</ns3:atemp>
          </ns3:TrackPointExtension>
        </extensions>
      </trkpt>
      <trkpt lat="42.54818595014512538909912109375" lon="20.04879782907664775848388671875">
        <ele>2019.4000244140625</ele>
        <time>2026-06-19T10:34:50.000Z</time>
        <extensions>
          <ns3:TrackPointExtension>
            <ns3:atemp>21.0</ns3:atemp>
          </ns3:TrackPointExtension>
        </extensions>
      </trkpt>
      <trkpt lat="42.54817555658519268035888671875" lon="20.04885013215243816375732421875">
        <ele>2019.199951171875</ele>
        <time>2026-06-19T10:34:51.000Z</time>
        <extensions>
          <ns3:TrackPointExtension>
            <ns3:atemp>21.0</ns3:atemp>
          </ns3:TrackPointExtension>
        </extensions>
      </trkpt>
      <trkpt lat="42.548162229359149932861328125" lon="20.048898495733737945556640625">
        <ele>2019.199951171875</ele>
        <time>2026-06-19T10:34:52.000Z</time>
        <extensions>
          <ns3:TrackPointExtension>
            <ns3:atemp>21.0</ns3:atemp>
          </ns3:TrackPointExtension>
        </extensions>
      </trkpt>
      <trkpt lat="42.54815644584596157073974609375" lon="20.0489504635334014892578125">
        <ele>2019</ele>
        <time>2026-06-19T10:34:53.000Z</time>
        <extensions>
          <ns3:TrackPointExtension>
            <ns3:atemp>21.0</ns3:atemp>
          </ns3:TrackPointExtension>
        </extensions>
      </trkpt>
      <trkpt lat="42.5481479801237583160400390625" lon="20.0490049459040164947509765625">
        <ele>2019</ele>
        <time>2026-06-19T10:34:54.000Z</time>
        <extensions>
          <ns3:TrackPointExtension>
            <ns3:atemp>21.0</ns3:atemp>
          </ns3:TrackPointExtension>
        </extensions>
      </trkpt>
      <trkpt lat="42.548148147761821746826171875" lon="20.04905305802822113037109375">
        <ele>2019</ele>
        <time>2026-06-19T10:34:55.000Z</time>
        <extensions>
          <ns3:TrackPointExtension>
            <ns3:atemp>21.0</ns3:atemp>
          </ns3:TrackPointExtension>
        </extensions>
      </trkpt>
      <trkpt lat="42.54815175198018550872802734375" lon="20.04909731447696685791015625">
        <ele>2019.199951171875</ele>
        <time>2026-06-19T10:34:56.000Z</time>
        <extensions>
          <ns3:TrackPointExtension>
            <ns3:atemp>21.0</ns3:atemp>
          </ns3:TrackPointExtension>
        </extensions>
      </trkpt>
      <trkpt lat="42.54815342836081981658935546875" lon="20.04913645796477794647216796875">
        <ele>2019.199951171875</ele>
        <time>2026-06-19T10:34:57.000Z</time>
        <extensions>
          <ns3:TrackPointExtension>
            <ns3:atemp>21.0</ns3:atemp>
          </ns3:TrackPointExtension>
        </extensions>
      </trkpt>
      <trkpt lat="42.5481476448476314544677734375" lon="20.049181468784809112548828125">
        <ele>2019.5999755859375</ele>
        <time>2026-06-19T10:34:58.000Z</time>
        <extensions>
          <ns3:TrackPointExtension>
            <ns3:atemp>21.0</ns3:atemp>
          </ns3:TrackPointExtension>
        </extensions>
      </trkpt>
      <trkpt lat="42.54813632927834987640380859375" lon="20.04923117347061634063720703125">
        <ele>2019.5999755859375</ele>
        <time>2026-06-19T10:34:59.000Z</time>
        <extensions>
          <ns3:TrackPointExtension>
            <ns3:atemp>21.0</ns3:atemp>
          </ns3:TrackPointExtension>
        </extensions>
      </trkpt>
      <trkpt lat="42.548128031194210052490234375" lon="20.0492818839848041534423828125">
        <ele>2019.800048828125</ele>
        <time>2026-06-19T10:35:00.000Z</time>
        <extensions>
          <ns3:TrackPointExtension>
            <ns3:atemp>21.0</ns3:atemp>
          </ns3:TrackPointExtension>
        </extensions>
      </trkpt>
      <trkpt lat="42.54812358878552913665771484375" lon="20.04932873882353305816650390625">
        <ele>2020</ele>
        <time>2026-06-19T10:35:01.000Z</time>
        <extensions>
          <ns3:TrackPointExtension>
            <ns3:atemp>21.0</ns3:atemp>
          </ns3:TrackPointExtension>
        </extensions>
      </trkpt>
      <trkpt lat="42.54811973311007022857666015625" lon="20.0493657030165195465087890625">
        <ele>2020.199951171875</ele>
        <time>2026-06-19T10:35:02.000Z</time>
        <extensions>
          <ns3:TrackPointExtension>
            <ns3:atemp>21.0</ns3:atemp>
          </ns3:TrackPointExtension>
        </extensions>
      </trkpt>
      <trkpt lat="42.54811964929103851318359375" lon="20.049401409924030303955078125">
        <ele>2020.4000244140625</ele>
        <time>2026-06-19T10:35:03.000Z</time>
        <extensions>
          <ns3:TrackPointExtension>
            <ns3:atemp>21.0</ns3:atemp>
          </ns3:TrackPointExtension>
        </extensions>
      </trkpt>
      <trkpt lat="42.5481184758245944976806640625" lon="20.0494381226599216461181640625">
        <ele>2020.800048828125</ele>
        <time>2026-06-19T10:35:04.000Z</time>
        <extensions>
          <ns3:TrackPointExtension>
            <ns3:atemp>21.0</ns3:atemp>
          </ns3:TrackPointExtension>
        </extensions>
      </trkpt>
      <trkpt lat="42.54811252467334270477294921875" lon="20.04947290755808353424072265625">
        <ele>2021</ele>
        <time>2026-06-19T10:35:05.000Z</time>
        <extensions>
          <ns3:TrackPointExtension>
            <ns3:atemp>21.0</ns3:atemp>
          </ns3:TrackPointExtension>
        </extensions>
      </trkpt>
      <trkpt lat="42.54810850135982036590576171875" lon="20.0495162419974803924560546875">
        <ele>2021.199951171875</ele>
        <time>2026-06-19T10:35:06.000Z</time>
        <extensions>
          <ns3:TrackPointExtension>
            <ns3:atemp>21.0</ns3:atemp>
          </ns3:TrackPointExtension>
        </extensions>
      </trkpt>
      <trkpt lat="42.5481028854846954345703125" lon="20.0495621748268604278564453125">
        <ele>2021.5999755859375</ele>
        <time>2026-06-19T10:35:07.000Z</time>
        <extensions>
          <ns3:TrackPointExtension>
            <ns3:atemp>21.0</ns3:atemp>
          </ns3:TrackPointExtension>
        </extensions>
      </trkpt>
      <trkpt lat="42.54810011945664882659912109375" lon="20.04959947429597377777099609375">
        <ele>2021.800048828125</ele>
        <time>2026-06-19T10:35:08.000Z</time>
        <extensions>
          <ns3:TrackPointExtension>
            <ns3:atemp>21.0</ns3:atemp>
          </ns3:TrackPointExtension>
        </extensions>
      </trkpt>
      <trkpt lat="42.54809760488569736480712890625" lon="20.049633085727691650390625">
        <ele>2022</ele>
        <time>2026-06-19T10:35:09.000Z</time>
        <extensions>
          <ns3:TrackPointExtension>
            <ns3:atemp>21.0</ns3:atemp>
          </ns3:TrackPointExtension>
        </extensions>
      </trkpt>
      <trkpt lat="42.5480916537344455718994140625" lon="20.04966585896909236907958984375">
        <ele>2022.199951171875</ele>
        <time>2026-06-19T10:35:10.000Z</time>
        <extensions>
          <ns3:TrackPointExtension>
            <ns3:atemp>21.0</ns3:atemp>
          </ns3:TrackPointExtension>
        </extensions>
      </trkpt>
      <trkpt lat="42.5480867922306060791015625" lon="20.049708187580108642578125">
        <ele>2022.4000244140625</ele>
        <time>2026-06-19T10:35:11.000Z</time>
        <extensions>
          <ns3:TrackPointExtension>
            <ns3:atemp>21.0</ns3:atemp>
          </ns3:TrackPointExtension>
        </extensions>
      </trkpt>
      <trkpt lat="42.54808452911674976348876953125" lon="20.04975135438144207000732421875">
        <ele>2022.5999755859375</ele>
        <time>2026-06-19T10:35:12.000Z</time>
        <extensions>
          <ns3:TrackPointExtension>
            <ns3:atemp>21.0</ns3:atemp>
          </ns3:TrackPointExtension>
        </extensions>
      </trkpt>
      <trkpt lat="42.54808335565030574798583984375" lon="20.04978924058377742767333984375">
        <ele>2022.5999755859375</ele>
        <time>2026-06-19T10:35:13.000Z</time>
        <extensions>
          <ns3:TrackPointExtension>
            <ns3:atemp>21.0</ns3:atemp>
          </ns3:TrackPointExtension>
        </extensions>
      </trkpt>
      <trkpt lat="42.54808570258319377899169921875" lon="20.04982410930097103118896484375">
        <ele>2022.800048828125</ele>
        <time>2026-06-19T10:35:14.000Z</time>
        <extensions>
          <ns3:TrackPointExtension>
            <ns3:atemp>21.0</ns3:atemp>
          </ns3:TrackPointExtension>
        </extensions>
      </trkpt>
      <trkpt lat="42.54808771423995494842529296875" lon="20.0498391129076480865478515625">
        <ele>2022.800048828125</ele>
        <time>2026-06-19T10:35:15.000Z</time>
        <extensions>
          <ns3:TrackPointExtension>
            <ns3:atemp>21.0</ns3:atemp>
          </ns3:TrackPointExtension>
        </extensions>
      </trkpt>
      <trkpt lat="42.54808570258319377899169921875" lon="20.0498582236468791961669921875">
        <ele>2022.800048828125</ele>
        <time>2026-06-19T10:35:16.000Z</time>
        <extensions>
          <ns3:TrackPointExtension>
            <ns3:atemp>21.0</ns3:atemp>
          </ns3:TrackPointExtension>
        </extensions>
      </trkpt>
      <trkpt lat="42.54808251745998859405517578125" lon="20.04988345317542552947998046875">
        <ele>2023</ele>
        <time>2026-06-19T10:35:17.000Z</time>
        <extensions>
          <ns3:TrackPointExtension>
            <ns3:atemp>21.0</ns3:atemp>
          </ns3:TrackPointExtension>
        </extensions>
      </trkpt>
      <trkpt lat="42.54807983525097370147705078125" lon="20.04991111345589160919189453125">
        <ele>2023</ele>
        <time>2026-06-19T10:35:18.000Z</time>
        <extensions>
          <ns3:TrackPointExtension>
            <ns3:atemp>21.0</ns3:atemp>
          </ns3:TrackPointExtension>
        </extensions>
      </trkpt>
      <trkpt lat="42.54806659184396266937255859375" lon="20.04993475042283535003662109375">
        <ele>2023</ele>
        <time>2026-06-19T10:35:19.000Z</time>
        <extensions>
          <ns3:TrackPointExtension>
            <ns3:atemp>21.0</ns3:atemp>
          </ns3:TrackPointExtension>
        </extensions>
      </trkpt>
      <trkpt lat="42.54804865457117557525634765625" lon="20.04995159804821014404296875">
        <ele>2023</ele>
        <time>2026-06-19T10:35:20.000Z</time>
        <extensions>
          <ns3:TrackPointExtension>
            <ns3:atemp>21.0</ns3:atemp>
          </ns3:TrackPointExtension>
        </extensions>
      </trkpt>
      <trkpt lat="42.54802417941391468048095703125" lon="20.04997179843485355377197265625">
        <ele>2023</ele>
        <time>2026-06-19T10:35:21.000Z</time>
        <extensions>
          <ns3:TrackPointExtension>
            <ns3:atemp>21.0</ns3:atemp>
          </ns3:TrackPointExtension>
        </extensions>
      </trkpt>
      <trkpt lat="42.54800154827535152435302734375" lon="20.04999794997274875640869140625">
        <ele>2023</ele>
        <time>2026-06-19T10:35:22.000Z</time>
        <extensions>
          <ns3:TrackPointExtension>
            <ns3:atemp>21.0</ns3:atemp>
          </ns3:TrackPointExtension>
        </extensions>
      </trkpt>
      <trkpt lat="42.547985874116420745849609375" lon="20.050031058490276336669921875">
        <ele>2023</ele>
        <time>2026-06-19T10:35:23.000Z</time>
        <extensions>
          <ns3:TrackPointExtension>
            <ns3:atemp>21.0</ns3:atemp>
          </ns3:TrackPointExtension>
        </extensions>
      </trkpt>
      <trkpt lat="42.5479813478887081146240234375" lon="20.050073303282260894775390625">
        <ele>2023</ele>
        <time>2026-06-19T10:35:24.000Z</time>
        <extensions>
          <ns3:TrackPointExtension>
            <ns3:atemp>21.0</ns3:atemp>
          </ns3:TrackPointExtension>
        </extensions>
      </trkpt>
      <trkpt lat="42.5479880534112453460693359375" lon="20.05012669600546360015869140625">
        <ele>2023</ele>
        <time>2026-06-19T10:35:25.000Z</time>
        <extensions>
          <ns3:TrackPointExtension>
            <ns3:atemp>21.0</ns3:atemp>
          </ns3:TrackPointExtension>
        </extensions>
      </trkpt>
      <trkpt lat="42.54798444919288158416748046875" lon="20.05018486641347408294677734375">
        <ele>2022.800048828125</ele>
        <time>2026-06-19T10:35:26.000Z</time>
        <extensions>
          <ns3:TrackPointExtension>
            <ns3:atemp>21.0</ns3:atemp>
          </ns3:TrackPointExtension>
        </extensions>
      </trkpt>
      <trkpt lat="42.54799333401024341583251953125" lon="20.05024471320211887359619140625">
        <ele>2022.5999755859375</ele>
        <time>2026-06-19T10:35:27.000Z</time>
        <extensions>
          <ns3:TrackPointExtension>
            <ns3:atemp>21.0</ns3:atemp>
          </ns3:TrackPointExtension>
        </extensions>
      </trkpt>
      <trkpt lat="42.547997273504734039306640625" lon="20.050300620496273040771484375">
        <ele>2022.199951171875</ele>
        <time>2026-06-19T10:35:28.000Z</time>
        <extensions>
          <ns3:TrackPointExtension>
            <ns3:atemp>21.0</ns3:atemp>
          </ns3:TrackPointExtension>
        </extensions>
      </trkpt>
      <trkpt lat="42.5479994527995586395263671875" lon="20.05034714005887508392333984375">
        <ele>2021.5999755859375</ele>
        <time>2026-06-19T10:35:29.000Z</time>
        <extensions>
          <ns3:TrackPointExtension>
            <ns3:atemp>21.0</ns3:atemp>
          </ns3:TrackPointExtension>
        </extensions>
      </trkpt>
      <trkpt lat="42.547996602952480316162109375" lon="20.05038351751863956451416015625">
        <ele>2021.199951171875</ele>
        <time>2026-06-19T10:35:30.000Z</time>
        <extensions>
          <ns3:TrackPointExtension>
            <ns3:atemp>21.0</ns3:atemp>
          </ns3:TrackPointExtension>
        </extensions>
      </trkpt>
      <trkpt lat="42.54798461683094501495361328125" lon="20.0504218228161334991455078125">
        <ele>2020.800048828125</ele>
        <time>2026-06-19T10:35:31.000Z</time>
        <extensions>
          <ns3:TrackPointExtension>
            <ns3:atemp>21.0</ns3:atemp>
          </ns3:TrackPointExtension>
        </extensions>
      </trkpt>
      <trkpt lat="42.54796852357685565948486328125" lon="20.05047018639743328094482421875">
        <ele>2020.5999755859375</ele>
        <time>2026-06-19T10:35:32.000Z</time>
        <extensions>
          <ns3:TrackPointExtension>
            <ns3:atemp>21.0</ns3:atemp>
          </ns3:TrackPointExtension>
        </extensions>
      </trkpt>
      <trkpt lat="42.5479716248810291290283203125" lon="20.05052735097706317901611328125">
        <ele>2020.199951171875</ele>
        <time>2026-06-19T10:35:33.000Z</time>
        <extensions>
          <ns3:TrackPointExtension>
            <ns3:atemp>21.0</ns3:atemp>
          </ns3:TrackPointExtension>
        </extensions>
      </trkpt>
      <trkpt lat="42.547971792519092559814453125" lon="20.050583593547344207763671875">
        <ele>2019.800048828125</ele>
        <time>2026-06-19T10:35:34.000Z</time>
        <extensions>
          <ns3:TrackPointExtension>
            <ns3:atemp>21.0</ns3:atemp>
          </ns3:TrackPointExtension>
        </extensions>
      </trkpt>
      <trkpt lat="42.547969780862331390380859375" lon="20.05063581280410289764404296875">
        <ele>2019.4000244140625</ele>
        <time>2026-06-19T10:35:35.000Z</time>
        <extensions>
          <ns3:TrackPointExtension>
            <ns3:atemp>21.0</ns3:atemp>
          </ns3:TrackPointExtension>
        </extensions>
      </trkpt>
      <trkpt lat="42.54797439090907573699951171875" lon="20.050680153071880340576171875">
        <ele>2019.199951171875</ele>
        <time>2026-06-19T10:35:36.000Z</time>
        <extensions>
          <ns3:TrackPointExtension>
            <ns3:atemp>21.0</ns3:atemp>
          </ns3:TrackPointExtension>
        </extensions>
      </trkpt>
      <trkpt lat="42.5479743070900440216064453125" lon="20.0507192127406597137451171875">
        <ele>2018.800048828125</ele>
        <time>2026-06-19T10:35:37.000Z</time>
        <extensions>
          <ns3:TrackPointExtension>
            <ns3:atemp>21.0</ns3:atemp>
          </ns3:TrackPointExtension>
        </extensions>
      </trkpt>
      <trkpt lat="42.54797455854713916778564453125" lon="20.05075148306787014007568359375">
        <ele>2018.800048828125</ele>
        <time>2026-06-19T10:35:38.000Z</time>
        <extensions>
          <ns3:TrackPointExtension>
            <ns3:atemp>21.0</ns3:atemp>
          </ns3:TrackPointExtension>
        </extensions>
      </trkpt>
      <trkpt lat="42.54797070287168025970458984375" lon="20.05078316666185855865478515625">
        <ele>2019</ele>
        <time>2026-06-19T10:35:39.000Z</time>
        <extensions>
          <ns3:TrackPointExtension>
            <ns3:atemp>21.0</ns3:atemp>
          </ns3:TrackPointExtension>
        </extensions>
      </trkpt>
      <trkpt lat="42.5479679368436336517333984375" lon="20.050817616283893585205078125">
        <ele>2019.199951171875</ele>
        <time>2026-06-19T10:35:40.000Z</time>
        <extensions>
          <ns3:TrackPointExtension>
            <ns3:atemp>21.0</ns3:atemp>
          </ns3:TrackPointExtension>
        </extensions>
      </trkpt>
      <trkpt lat="42.5479619018733501434326171875" lon="20.050854496657848358154296875">
        <ele>2019.4000244140625</ele>
        <time>2026-06-19T10:35:41.000Z</time>
        <extensions>
          <ns3:TrackPointExtension>
            <ns3:atemp>21.0</ns3:atemp>
          </ns3:TrackPointExtension>
        </extensions>
      </trkpt>
      <trkpt lat="42.54795729182660579681396484375" lon="20.0508915446698665618896484375">
        <ele>2019.5999755859375</ele>
        <time>2026-06-19T10:35:42.000Z</time>
        <extensions>
          <ns3:TrackPointExtension>
            <ns3:atemp>21.0</ns3:atemp>
          </ns3:TrackPointExtension>
        </extensions>
      </trkpt>
      <trkpt lat="42.5479505024850368499755859375" lon="20.05093068815767765045166015625">
        <ele>2019.800048828125</ele>
        <time>2026-06-19T10:35:43.000Z</time>
        <extensions>
          <ns3:TrackPointExtension>
            <ns3:atemp>21.0</ns3:atemp>
          </ns3:TrackPointExtension>
        </extensions>
      </trkpt>
      <trkpt lat="42.5479474849998950958251953125" lon="20.050974525511264801025390625">
        <ele>2019.800048828125</ele>
        <time>2026-06-19T10:35:44.000Z</time>
        <extensions>
          <ns3:TrackPointExtension>
            <ns3:atemp>21.0</ns3:atemp>
          </ns3:TrackPointExtension>
        </extensions>
      </trkpt>
      <trkpt lat="42.5479448027908802032470703125" lon="20.05101702176034450531005859375">
        <ele>2019.800048828125</ele>
        <time>2026-06-19T10:35:45.000Z</time>
        <extensions>
          <ns3:TrackPointExtension>
            <ns3:atemp>21.0</ns3:atemp>
          </ns3:TrackPointExtension>
        </extensions>
      </trkpt>
      <trkpt lat="42.54794086329638957977294921875" lon="20.05105264484882354736328125">
        <ele>2020</ele>
        <time>2026-06-19T10:35:46.000Z</time>
        <extensions>
          <ns3:TrackPointExtension>
            <ns3:atemp>21.0</ns3:atemp>
          </ns3:TrackPointExtension>
        </extensions>
      </trkpt>
      <trkpt lat="42.5479384325444698333740234375" lon="20.0510881841182708740234375">
        <ele>2020.199951171875</ele>
        <time>2026-06-19T10:35:47.000Z</time>
        <extensions>
          <ns3:TrackPointExtension>
            <ns3:atemp>21.0</ns3:atemp>
          </ns3:TrackPointExtension>
        </extensions>
      </trkpt>
      <trkpt lat="42.5479357503354549407958984375" lon="20.05112506449222564697265625">
        <ele>2020.4000244140625</ele>
        <time>2026-06-19T10:35:48.000Z</time>
        <extensions>
          <ns3:TrackPointExtension>
            <ns3:atemp>21.0</ns3:atemp>
          </ns3:TrackPointExtension>
        </extensions>
      </trkpt>
      <trkpt lat="42.547932565212249755859375" lon="20.05116370506584644317626953125">
        <ele>2020.5999755859375</ele>
        <time>2026-06-19T10:35:49.000Z</time>
        <extensions>
          <ns3:TrackPointExtension>
            <ns3:atemp>21.0</ns3:atemp>
          </ns3:TrackPointExtension>
        </extensions>
      </trkpt>
      <trkpt lat="42.547931559383869171142578125" lon="20.051197148859500885009765625">
        <ele>2020.800048828125</ele>
        <time>2026-06-19T10:35:50.000Z</time>
        <extensions>
          <ns3:TrackPointExtension>
            <ns3:atemp>21.0</ns3:atemp>
          </ns3:TrackPointExtension>
        </extensions>
      </trkpt>
      <trkpt lat="42.54792996682226657867431640625" lon="20.05122405476868152618408203125">
        <ele>2021.199951171875</ele>
        <time>2026-06-19T10:35:51.000Z</time>
        <extensions>
          <ns3:TrackPointExtension>
            <ns3:atemp>21.0</ns3:atemp>
          </ns3:TrackPointExtension>
        </extensions>
      </trkpt>
      <trkpt lat="42.5479290448129177093505859375" lon="20.05124048329889774322509765625">
        <ele>2021.4000244140625</ele>
        <time>2026-06-19T10:35:52.000Z</time>
        <extensions>
          <ns3:TrackPointExtension>
            <ns3:atemp>21.0</ns3:atemp>
          </ns3:TrackPointExtension>
        </extensions>
      </trkpt>
      <trkpt lat="42.5479312241077423095703125" lon="20.05126277916133403778076171875">
        <ele>2021.800048828125</ele>
        <time>2026-06-19T10:35:53.000Z</time>
        <extensions>
          <ns3:TrackPointExtension>
            <ns3:atemp>21.0</ns3:atemp>
          </ns3:TrackPointExtension>
        </extensions>
      </trkpt>
      <trkpt lat="42.54793533124029636383056640625" lon="20.0512797944247722625732421875">
        <ele>2022.199951171875</ele>
        <time>2026-06-19T10:35:54.000Z</time>
        <extensions>
          <ns3:TrackPointExtension>
            <ns3:atemp>21.0</ns3:atemp>
          </ns3:TrackPointExtension>
        </extensions>
      </trkpt>
      <trkpt lat="42.5479392707347869873046875" lon="20.05130477249622344970703125">
        <ele>2022.5999755859375</ele>
        <time>2026-06-19T10:35:55.000Z</time>
        <extensions>
          <ns3:TrackPointExtension>
            <ns3:atemp>21.0</ns3:atemp>
          </ns3:TrackPointExtension>
        </extensions>
      </trkpt>
      <trkpt lat="42.54794036038219928741455078125" lon="20.05133989267051219940185546875">
        <ele>2022.800048828125</ele>
        <time>2026-06-19T10:35:56.000Z</time>
        <extensions>
          <ns3:TrackPointExtension>
            <ns3:atemp>21.0</ns3:atemp>
          </ns3:TrackPointExtension>
        </extensions>
      </trkpt>
      <trkpt lat="42.54793189465999603271484375" lon="20.05137509666383266448974609375">
        <ele>2023</ele>
        <time>2026-06-19T10:35:57.000Z</time>
        <extensions>
          <ns3:TrackPointExtension>
            <ns3:atemp>21.0</ns3:atemp>
          </ns3:TrackPointExtension>
        </extensions>
      </trkpt>
      <trkpt lat="42.54791789688169956207275390625" lon="20.05140778608620166778564453125">
        <ele>2023</ele>
        <time>2026-06-19T10:35:58.000Z</time>
        <extensions>
          <ns3:TrackPointExtension>
            <ns3:atemp>21.0</ns3:atemp>
          </ns3:TrackPointExtension>
        </extensions>
      </trkpt>
      <trkpt lat="42.54790029488503932952880859375" lon="20.05143695510923862457275390625">
        <ele>2023.199951171875</ele>
        <time>2026-06-19T10:35:59.000Z</time>
        <extensions>
          <ns3:TrackPointExtension>
            <ns3:atemp>21.0</ns3:atemp>
          </ns3:TrackPointExtension>
        </extensions>
      </trkpt>
      <trkpt lat="42.5478797592222690582275390625" lon="20.05146511830389499664306640625">
        <ele>2023.199951171875</ele>
        <time>2026-06-19T10:36:00.000Z</time>
        <extensions>
          <ns3:TrackPointExtension>
            <ns3:atemp>21.0</ns3:atemp>
          </ns3:TrackPointExtension>
        </extensions>
      </trkpt>
      <trkpt lat="42.547863833606243133544921875" lon="20.0514910183846950531005859375">
        <ele>2023.4000244140625</ele>
        <time>2026-06-19T10:36:01.000Z</time>
        <extensions>
          <ns3:TrackPointExtension>
            <ns3:atemp>21.0</ns3:atemp>
          </ns3:TrackPointExtension>
        </extensions>
      </trkpt>
      <trkpt lat="42.54784530960023403167724609375" lon="20.05152161233127117156982421875">
        <ele>2023.4000244140625</ele>
        <time>2026-06-19T10:36:02.000Z</time>
        <extensions>
          <ns3:TrackPointExtension>
            <ns3:atemp>21.0</ns3:atemp>
          </ns3:TrackPointExtension>
        </extensions>
      </trkpt>
      <trkpt lat="42.54782737232744693756103515625" lon="20.051553212106227874755859375">
        <ele>2023.5999755859375</ele>
        <time>2026-06-19T10:36:03.000Z</time>
        <extensions>
          <ns3:TrackPointExtension>
            <ns3:atemp>21.0</ns3:atemp>
          </ns3:TrackPointExtension>
        </extensions>
      </trkpt>
      <trkpt lat="42.54781396128237247467041015625" lon="20.051581375300884246826171875">
        <ele>2023.800048828125</ele>
        <time>2026-06-19T10:36:04.000Z</time>
        <extensions>
          <ns3:TrackPointExtension>
            <ns3:atemp>21.0</ns3:atemp>
          </ns3:TrackPointExtension>
        </extensions>
      </trkpt>
      <trkpt lat="42.5477996282279491424560546875" lon="20.0516103766858577728271484375">
        <ele>2024</ele>
        <time>2026-06-19T10:36:05.000Z</time>
        <extensions>
          <ns3:TrackPointExtension>
            <ns3:atemp>21.0</ns3:atemp>
          </ns3:TrackPointExtension>
        </extensions>
      </trkpt>
      <trkpt lat="42.547787725925445556640625" lon="20.05164030008018016815185546875">
        <ele>2024.199951171875</ele>
        <time>2026-06-19T10:36:06.000Z</time>
        <extensions>
          <ns3:TrackPointExtension>
            <ns3:atemp>21.0</ns3:atemp>
          </ns3:TrackPointExtension>
        </extensions>
      </trkpt>
      <trkpt lat="42.5477795116603374481201171875" lon="20.05167030729353427886962890625">
        <ele>2024.4000244140625</ele>
        <time>2026-06-19T10:36:07.000Z</time>
        <extensions>
          <ns3:TrackPointExtension>
            <ns3:atemp>21.0</ns3:atemp>
          </ns3:TrackPointExtension>
        </extensions>
      </trkpt>
      <trkpt lat="42.5477644242346286773681640625" lon="20.05171188153326511383056640625">
        <ele>2024.5999755859375</ele>
        <time>2026-06-19T10:36:08.000Z</time>
        <extensions>
          <ns3:TrackPointExtension>
            <ns3:atemp>21.0</ns3:atemp>
          </ns3:TrackPointExtension>
        </extensions>
      </trkpt>
      <trkpt lat="42.54774439148604869842529296875" lon="20.05174842663109302520751953125">
        <ele>2024.5999755859375</ele>
        <time>2026-06-19T10:36:09.000Z</time>
        <extensions>
          <ns3:TrackPointExtension>
            <ns3:atemp>21.0</ns3:atemp>
          </ns3:TrackPointExtension>
        </extensions>
      </trkpt>
      <trkpt lat="42.54772779531776905059814453125" lon="20.051786899566650390625">
        <ele>2024.800048828125</ele>
        <time>2026-06-19T10:36:10.000Z</time>
        <extensions>
          <ns3:TrackPointExtension>
            <ns3:atemp>20.0</ns3:atemp>
          </ns3:TrackPointExtension>
        </extensions>
      </trkpt>
      <trkpt lat="42.54771589301526546478271484375" lon="20.05182939581573009490966796875">
        <ele>2025</ele>
        <time>2026-06-19T10:36:11.000Z</time>
        <extensions>
          <ns3:TrackPointExtension>
            <ns3:atemp>20.0</ns3:atemp>
          </ns3:TrackPointExtension>
        </extensions>
      </trkpt>
      <trkpt lat="42.54770600236952304840087890625" lon="20.0518809445202350616455078125">
        <ele>2025</ele>
        <time>2026-06-19T10:36:12.000Z</time>
        <extensions>
          <ns3:TrackPointExtension>
            <ns3:atemp>20.0</ns3:atemp>
          </ns3:TrackPointExtension>
        </extensions>
      </trkpt>
      <trkpt lat="42.54769510589540004730224609375" lon="20.05193232558667659759521484375">
        <ele>2025.199951171875</ele>
        <time>2026-06-19T10:36:13.000Z</time>
        <extensions>
          <ns3:TrackPointExtension>
            <ns3:atemp>20.0</ns3:atemp>
          </ns3:TrackPointExtension>
        </extensions>
      </trkpt>
      <trkpt lat="42.5476829521358013153076171875" lon="20.0519791804254055023193359375">
        <ele>2025.199951171875</ele>
        <time>2026-06-19T10:36:14.000Z</time>
        <extensions>
          <ns3:TrackPointExtension>
            <ns3:atemp>20.0</ns3:atemp>
          </ns3:TrackPointExtension>
        </extensions>
      </trkpt>
      <trkpt lat="42.54767029546201229095458984375" lon="20.05203165113925933837890625">
        <ele>2025.199951171875</ele>
        <time>2026-06-19T10:36:15.000Z</time>
        <extensions>
          <ns3:TrackPointExtension>
            <ns3:atemp>20.0</ns3:atemp>
          </ns3:TrackPointExtension>
        </extensions>
      </trkpt>
      <trkpt lat="42.5476549565792083740234375" lon="20.05208127200603485107421875">
        <ele>2025.199951171875</ele>
        <time>2026-06-19T10:36:16.000Z</time>
        <extensions>
          <ns3:TrackPointExtension>
            <ns3:atemp>20.0</ns3:atemp>
          </ns3:TrackPointExtension>
        </extensions>
      </trkpt>
      <trkpt lat="42.54764020442962646484375" lon="20.0521360896527767181396484375">
        <ele>2025</ele>
        <time>2026-06-19T10:36:17.000Z</time>
        <extensions>
          <ns3:TrackPointExtension>
            <ns3:atemp>20.0</ns3:atemp>
          </ns3:TrackPointExtension>
        </extensions>
      </trkpt>
      <trkpt lat="42.54762972705066204071044921875" lon="20.05218981765210628509521484375">
        <ele>2025</ele>
        <time>2026-06-19T10:36:18.000Z</time>
        <extensions>
          <ns3:TrackPointExtension>
            <ns3:atemp>20.0</ns3:atemp>
          </ns3:TrackPointExtension>
        </extensions>
      </trkpt>
      <trkpt lat="42.5476222671568393707275390625" lon="20.05225150845944881439208984375">
        <ele>2025</ele>
        <time>2026-06-19T10:36:19.000Z</time>
        <extensions>
          <ns3:TrackPointExtension>
            <ns3:atemp>20.0</ns3:atemp>
          </ns3:TrackPointExtension>
        </extensions>
      </trkpt>
      <trkpt lat="42.54761547781527042388916015625" lon="20.05232443101704120635986328125">
        <ele>2024.800048828125</ele>
        <time>2026-06-19T10:36:20.000Z</time>
        <extensions>
          <ns3:TrackPointExtension>
            <ns3:atemp>20.0</ns3:atemp>
          </ns3:TrackPointExtension>
        </extensions>
      </trkpt>
      <trkpt lat="42.54761271178722381591796875" lon="20.05240204744040966033935546875">
        <ele>2024.5999755859375</ele>
        <time>2026-06-19T10:36:21.000Z</time>
        <extensions>
          <ns3:TrackPointExtension>
            <ns3:atemp>20.0</ns3:atemp>
          </ns3:TrackPointExtension>
        </extensions>
      </trkpt>
      <trkpt lat="42.5476081855595111846923828125" lon="20.05248385481536388397216796875">
        <ele>2024.199951171875</ele>
        <time>2026-06-19T10:36:22.000Z</time>
        <extensions>
          <ns3:TrackPointExtension>
            <ns3:atemp>20.0</ns3:atemp>
          </ns3:TrackPointExtension>
        </extensions>
      </trkpt>
      <trkpt lat="42.5476071797311305999755859375" lon="20.05256566219031810760498046875">
        <ele>2023.800048828125</ele>
        <time>2026-06-19T10:36:23.000Z</time>
        <extensions>
          <ns3:TrackPointExtension>
            <ns3:atemp>20.0</ns3:atemp>
          </ns3:TrackPointExtension>
        </extensions>
      </trkpt>
      <trkpt lat="42.54760240204632282257080078125" lon="20.05264512263238430023193359375">
        <ele>2023.5999755859375</ele>
        <time>2026-06-19T10:36:24.000Z</time>
        <extensions>
          <ns3:TrackPointExtension>
            <ns3:atemp>20.0</ns3:atemp>
          </ns3:TrackPointExtension>
        </extensions>
      </trkpt>
      <trkpt lat="42.547598294913768768310546875" lon="20.052724666893482208251953125">
        <ele>2023.199951171875</ele>
        <time>2026-06-19T10:36:25.000Z</time>
        <extensions>
          <ns3:TrackPointExtension>
            <ns3:atemp>20.0</ns3:atemp>
          </ns3:TrackPointExtension>
        </extensions>
      </trkpt>
      <trkpt lat="42.54759804345667362213134765625" lon="20.05280236713588237762451171875">
        <ele>2023</ele>
        <time>2026-06-19T10:36:26.000Z</time>
        <extensions>
          <ns3:TrackPointExtension>
            <ns3:atemp>20.0</ns3:atemp>
          </ns3:TrackPointExtension>
        </extensions>
      </trkpt>
      <trkpt lat="42.54759837873280048370361328125" lon="20.05288400687277317047119140625">
        <ele>2022.5999755859375</ele>
        <time>2026-06-19T10:36:27.000Z</time>
        <extensions>
          <ns3:TrackPointExtension>
            <ns3:atemp>20.0</ns3:atemp>
          </ns3:TrackPointExtension>
        </extensions>
      </trkpt>
      <trkpt lat="42.54760324023663997650146484375" lon="20.0529605336487293243408203125">
        <ele>2022.4000244140625</ele>
        <time>2026-06-19T10:36:28.000Z</time>
        <extensions>
          <ns3:TrackPointExtension>
            <ns3:atemp>20.0</ns3:atemp>
          </ns3:TrackPointExtension>
        </extensions>
      </trkpt>
      <trkpt lat="42.54761044867336750030517578125" lon="20.0530356355011463165283203125">
        <ele>2022.199951171875</ele>
        <time>2026-06-19T10:36:29.000Z</time>
        <extensions>
          <ns3:TrackPointExtension>
            <ns3:atemp>20.0</ns3:atemp>
          </ns3:TrackPointExtension>
        </extensions>
      </trkpt>
      <trkpt lat="42.547613047063350677490234375" lon="20.05311232991516590118408203125">
        <ele>2022</ele>
        <time>2026-06-19T10:36:30.000Z</time>
        <extensions>
          <ns3:TrackPointExtension>
            <ns3:atemp>20.0</ns3:atemp>
          </ns3:TrackPointExtension>
        </extensions>
      </trkpt>
      <trkpt lat="42.5476132147014141082763671875" lon="20.05318768322467803955078125">
        <ele>2021.800048828125</ele>
        <time>2026-06-19T10:36:31.000Z</time>
        <extensions>
          <ns3:TrackPointExtension>
            <ns3:atemp>20.0</ns3:atemp>
          </ns3:TrackPointExtension>
        </extensions>
      </trkpt>
      <trkpt lat="42.54761313088238239288330078125" lon="20.05326907150447368621826171875">
        <ele>2021.4000244140625</ele>
        <time>2026-06-19T10:36:32.000Z</time>
        <extensions>
          <ns3:TrackPointExtension>
            <ns3:atemp>20.0</ns3:atemp>
          </ns3:TrackPointExtension>
        </extensions>
      </trkpt>
      <trkpt lat="42.54760458134114742279052734375" lon="20.05335557274520397186279296875">
        <ele>2020.800048828125</ele>
        <time>2026-06-19T10:36:33.000Z</time>
        <extensions>
          <ns3:TrackPointExtension>
            <ns3:atemp>20.0</ns3:atemp>
          </ns3:TrackPointExtension>
        </extensions>
      </trkpt>
      <trkpt lat="42.54760122857987880706787109375" lon="20.053444169461727142333984375">
        <ele>2020.4000244140625</ele>
        <time>2026-06-19T10:36:34.000Z</time>
        <extensions>
          <ns3:TrackPointExtension>
            <ns3:atemp>20.0</ns3:atemp>
          </ns3:TrackPointExtension>
        </extensions>
      </trkpt>
      <trkpt lat="42.547598965466022491455078125" lon="20.05353259854018688201904296875">
        <ele>2019.800048828125</ele>
        <time>2026-06-19T10:36:35.000Z</time>
        <extensions>
          <ns3:TrackPointExtension>
            <ns3:atemp>20.0</ns3:atemp>
          </ns3:TrackPointExtension>
        </extensions>
      </trkpt>
      <trkpt lat="42.5476068444550037384033203125" lon="20.053614489734172821044921875">
        <ele>2019.4000244140625</ele>
        <time>2026-06-19T10:36:36.000Z</time>
        <extensions>
          <ns3:TrackPointExtension>
            <ns3:atemp>20.0</ns3:atemp>
          </ns3:TrackPointExtension>
        </extensions>
      </trkpt>
      <trkpt lat="42.54761598072946071624755859375" lon="20.0537048466503620147705078125">
        <ele>2018.800048828125</ele>
        <time>2026-06-19T10:36:37.000Z</time>
        <extensions>
          <ns3:TrackPointExtension>
            <ns3:atemp>20.0</ns3:atemp>
          </ns3:TrackPointExtension>
        </extensions>
      </trkpt>
      <trkpt lat="42.5476390309631824493408203125" lon="20.05377852357923984527587890625">
        <ele>2018.4000244140625</ele>
        <time>2026-06-19T10:36:38.000Z</time>
        <extensions>
          <ns3:TrackPointExtension>
            <ns3:atemp>20.0</ns3:atemp>
          </ns3:TrackPointExtension>
        </extensions>
      </trkpt>
      <trkpt lat="42.54766367375850677490234375" lon="20.0538423098623752593994140625">
        <ele>2017.800048828125</ele>
        <time>2026-06-19T10:36:39.000Z</time>
        <extensions>
          <ns3:TrackPointExtension>
            <ns3:atemp>20.0</ns3:atemp>
          </ns3:TrackPointExtension>
        </extensions>
      </trkpt>
      <trkpt lat="42.547687478363513946533203125" lon="20.0538979656994342803955078125">
        <ele>2017.4000244140625</ele>
        <time>2026-06-19T10:36:40.000Z</time>
        <extensions>
          <ns3:TrackPointExtension>
            <ns3:atemp>20.0</ns3:atemp>
          </ns3:TrackPointExtension>
        </extensions>
      </trkpt>
      <trkpt lat="42.5477054156363010406494140625" lon="20.0539474189281463623046875">
        <ele>2017</ele>
        <time>2026-06-19T10:36:41.000Z</time>
        <extensions>
          <ns3:TrackPointExtension>
            <ns3:atemp>20.0</ns3:atemp>
          </ns3:TrackPointExtension>
        </extensions>
      </trkpt>
      <trkpt lat="42.54772461019456386566162109375" lon="20.0539834611117839813232421875">
        <ele>2016.800048828125</ele>
        <time>2026-06-19T10:36:42.000Z</time>
        <extensions>
          <ns3:TrackPointExtension>
            <ns3:atemp>20.0</ns3:atemp>
          </ns3:TrackPointExtension>
        </extensions>
      </trkpt>
      <trkpt lat="42.5477426312863826751708984375" lon="20.05402050912380218505859375">
        <ele>2016.5999755859375</ele>
        <time>2026-06-19T10:36:43.000Z</time>
        <extensions>
          <ns3:TrackPointExtension>
            <ns3:atemp>20.0</ns3:atemp>
          </ns3:TrackPointExtension>
        </extensions>
      </trkpt>
      <trkpt lat="42.5477637536823749542236328125" lon="20.054062418639659881591796875">
        <ele>2016.199951171875</ele>
        <time>2026-06-19T10:36:44.000Z</time>
        <extensions>
          <ns3:TrackPointExtension>
            <ns3:atemp>20.0</ns3:atemp>
          </ns3:TrackPointExtension>
        </extensions>
      </trkpt>
      <trkpt lat="42.5477855466306209564208984375" lon="20.0540941022336483001708984375">
        <ele>2016</ele>
        <time>2026-06-19T10:36:45.000Z</time>
        <extensions>
          <ns3:TrackPointExtension>
            <ns3:atemp>20.0</ns3:atemp>
          </ns3:TrackPointExtension>
        </extensions>
      </trkpt>
      <trkpt lat="42.5478066690266132354736328125" lon="20.05412100814282894134521484375">
        <ele>2015.800048828125</ele>
        <time>2026-06-19T10:36:46.000Z</time>
        <extensions>
          <ns3:TrackPointExtension>
            <ns3:atemp>20.0</ns3:atemp>
          </ns3:TrackPointExtension>
        </extensions>
      </trkpt>
      <trkpt lat="42.54782586358487606048583984375" lon="20.05414565093815326690673828125">
        <ele>2015.4000244140625</ele>
        <time>2026-06-19T10:36:47.000Z</time>
        <extensions>
          <ns3:TrackPointExtension>
            <ns3:atemp>20.0</ns3:atemp>
          </ns3:TrackPointExtension>
        </extensions>
      </trkpt>
      <trkpt lat="42.54784212447702884674072265625" lon="20.05415906198322772979736328125">
        <ele>2015</ele>
        <time>2026-06-19T10:36:48.000Z</time>
        <extensions>
          <ns3:TrackPointExtension>
            <ns3:atemp>20.0</ns3:atemp>
          </ns3:TrackPointExtension>
        </extensions>
      </trkpt>
      <trkpt lat="42.547845058143138885498046875" lon="20.05415839143097400665283203125">
        <ele>2014.5999755859375</ele>
        <time>2026-06-19T10:36:49.000Z</time>
        <extensions>
          <ns3:TrackPointExtension>
            <ns3:atemp>20.0</ns3:atemp>
          </ns3:TrackPointExtension>
        </extensions>
      </trkpt>
      <trkpt lat="42.547845058143138885498046875" lon="20.0541584752500057220458984375">
        <ele>2014.199951171875</ele>
        <time>2026-06-19T10:36:50.000Z</time>
        <extensions>
          <ns3:TrackPointExtension>
            <ns3:atemp>20.0</ns3:atemp>
          </ns3:TrackPointExtension>
        </extensions>
      </trkpt>
      <trkpt lat="42.547845058143138885498046875" lon="20.0541584752500057220458984375">
        <ele>2014</ele>
        <time>2026-06-19T10:36:51.000Z</time>
        <extensions>
          <ns3:TrackPointExtension>
            <ns3:atemp>20.0</ns3:atemp>
          </ns3:TrackPointExtension>
        </extensions>
      </trkpt>
      <trkpt lat="42.547845058143138885498046875" lon="20.0541584752500057220458984375">
        <ele>2013.800048828125</ele>
        <time>2026-06-19T10:36:52.000Z</time>
        <extensions>
          <ns3:TrackPointExtension>
            <ns3:atemp>20.0</ns3:atemp>
          </ns3:TrackPointExtension>
        </extensions>
      </trkpt>
      <trkpt lat="42.547845058143138885498046875" lon="20.0541584752500057220458984375">
        <ele>2013.800048828125</ele>
        <time>2026-06-19T10:36:53.000Z</time>
        <extensions>
          <ns3:TrackPointExtension>
            <ns3:atemp>20.0</ns3:atemp>
          </ns3:TrackPointExtension>
        </extensions>
      </trkpt>
      <trkpt lat="42.547845058143138885498046875" lon="20.0541584752500057220458984375">
        <ele>2013.5999755859375</ele>
        <time>2026-06-19T10:36:54.000Z</time>
        <extensions>
          <ns3:TrackPointExtension>
            <ns3:atemp>20.0</ns3:atemp>
          </ns3:TrackPointExtension>
        </extensions>
      </trkpt>
      <trkpt lat="42.547845058143138885498046875" lon="20.0541584752500057220458984375">
        <ele>2013.4000244140625</ele>
        <time>2026-06-19T10:36:55.000Z</time>
        <extensions>
          <ns3:TrackPointExtension>
            <ns3:atemp>20.0</ns3:atemp>
          </ns3:TrackPointExtension>
        </extensions>
      </trkpt>
      <trkpt lat="42.547845058143138885498046875" lon="20.0541584752500057220458984375">
        <ele>2013.199951171875</ele>
        <time>2026-06-19T10:36:56.000Z</time>
        <extensions>
          <ns3:TrackPointExtension>
            <ns3:atemp>20.0</ns3:atemp>
          </ns3:TrackPointExtension>
        </extensions>
      </trkpt>
      <trkpt lat="42.547845058143138885498046875" lon="20.0541584752500057220458984375">
        <ele>2013.199951171875</ele>
        <time>2026-06-19T10:36:57.000Z</time>
        <extensions>
          <ns3:TrackPointExtension>
            <ns3:atemp>20.0</ns3:atemp>
          </ns3:TrackPointExtension>
        </extensions>
      </trkpt>
      <trkpt lat="42.547845058143138885498046875" lon="20.0541584752500057220458984375">
        <ele>2013</ele>
        <time>2026-06-19T10:36:58.000Z</time>
        <extensions>
          <ns3:TrackPointExtension>
            <ns3:atemp>20.0</ns3:atemp>
          </ns3:TrackPointExtension>
        </extensions>
      </trkpt>
      <trkpt lat="42.547845058143138885498046875" lon="20.0541584752500057220458984375">
        <ele>2013</ele>
        <time>2026-06-19T10:36:59.000Z</time>
        <extensions>
          <ns3:TrackPointExtension>
            <ns3:atemp>20.0</ns3:atemp>
          </ns3:TrackPointExtension>
        </extensions>
      </trkpt>
      <trkpt lat="42.547845058143138885498046875" lon="20.0541584752500057220458984375">
        <ele>2013</ele>
        <time>2026-06-19T10:37:00.000Z</time>
        <extensions>
          <ns3:TrackPointExtension>
            <ns3:atemp>20.0</ns3:atemp>
          </ns3:TrackPointExtension>
        </extensions>
      </trkpt>
      <trkpt lat="42.547845058143138885498046875" lon="20.0541584752500057220458984375">
        <ele>2013</ele>
        <time>2026-06-19T10:37:01.000Z</time>
        <extensions>
          <ns3:TrackPointExtension>
            <ns3:atemp>20.0</ns3:atemp>
          </ns3:TrackPointExtension>
        </extensions>
      </trkpt>
      <trkpt lat="42.547845058143138885498046875" lon="20.0541584752500057220458984375">
        <ele>2013</ele>
        <time>2026-06-19T10:37:02.000Z</time>
        <extensions>
          <ns3:TrackPointExtension>
            <ns3:atemp>20.0</ns3:atemp>
          </ns3:TrackPointExtension>
        </extensions>
      </trkpt>
      <trkpt lat="42.547845058143138885498046875" lon="20.0541584752500057220458984375">
        <ele>2012.800048828125</ele>
        <time>2026-06-19T10:37:03.000Z</time>
        <extensions>
          <ns3:TrackPointExtension>
            <ns3:atemp>20.0</ns3:atemp>
          </ns3:TrackPointExtension>
        </extensions>
      </trkpt>
      <trkpt lat="42.547845058143138885498046875" lon="20.0541584752500057220458984375">
        <ele>2012.800048828125</ele>
        <time>2026-06-19T10:37:04.000Z</time>
        <extensions>
          <ns3:TrackPointExtension>
            <ns3:atemp>20.0</ns3:atemp>
          </ns3:TrackPointExtension>
        </extensions>
      </trkpt>
      <trkpt lat="42.547845058143138885498046875" lon="20.0541584752500057220458984375">
        <ele>2012.5999755859375</ele>
        <time>2026-06-19T10:37:05.000Z</time>
        <extensions>
          <ns3:TrackPointExtension>
            <ns3:atemp>20.0</ns3:atemp>
          </ns3:TrackPointExtension>
        </extensions>
      </trkpt>
      <trkpt lat="42.547845058143138885498046875" lon="20.0541584752500057220458984375">
        <ele>2012.5999755859375</ele>
        <time>2026-06-19T10:37:06.000Z</time>
        <extensions>
          <ns3:TrackPointExtension>
            <ns3:atemp>20.0</ns3:atemp>
          </ns3:TrackPointExtension>
        </extensions>
      </trkpt>
      <trkpt lat="42.547845058143138885498046875" lon="20.0541584752500057220458984375">
        <ele>2012.4000244140625</ele>
        <time>2026-06-19T10:37:07.000Z</time>
        <extensions>
          <ns3:TrackPointExtension>
            <ns3:atemp>20.0</ns3:atemp>
          </ns3:TrackPointExtension>
        </extensions>
      </trkpt>
      <trkpt lat="42.547845058143138885498046875" lon="20.0541584752500057220458984375">
        <ele>2012.4000244140625</ele>
        <time>2026-06-19T10:37:08.000Z</time>
        <extensions>
          <ns3:TrackPointExtension>
            <ns3:atemp>20.0</ns3:atemp>
          </ns3:TrackPointExtension>
        </extensions>
      </trkpt>
      <trkpt lat="42.547845058143138885498046875" lon="20.0541584752500057220458984375">
        <ele>2012.4000244140625</ele>
        <time>2026-06-19T10:37:09.000Z</time>
        <extensions>
          <ns3:TrackPointExtension>
            <ns3:atemp>20.0</ns3:atemp>
          </ns3:TrackPointExtension>
        </extensions>
      </trkpt>
      <trkpt lat="42.547845058143138885498046875" lon="20.0541584752500057220458984375">
        <ele>2012.4000244140625</ele>
        <time>2026-06-19T10:37:10.000Z</time>
        <extensions>
          <ns3:TrackPointExtension>
            <ns3:atemp>20.0</ns3:atemp>
          </ns3:TrackPointExtension>
        </extensions>
      </trkpt>
      <trkpt lat="42.547845058143138885498046875" lon="20.0541584752500057220458984375">
        <ele>2012.4000244140625</ele>
        <time>2026-06-19T10:37:11.000Z</time>
        <extensions>
          <ns3:TrackPointExtension>
            <ns3:atemp>20.0</ns3:atemp>
          </ns3:TrackPointExtension>
        </extensions>
      </trkpt>
      <trkpt lat="42.547845058143138885498046875" lon="20.0541584752500057220458984375">
        <ele>2012.4000244140625</ele>
        <time>2026-06-19T10:37:12.000Z</time>
        <extensions>
          <ns3:TrackPointExtension>
            <ns3:atemp>20.0</ns3:atemp>
          </ns3:TrackPointExtension>
        </extensions>
      </trkpt>
      <trkpt lat="42.547845058143138885498046875" lon="20.0541584752500057220458984375">
        <ele>2012.4000244140625</ele>
        <time>2026-06-19T10:37:13.000Z</time>
        <extensions>
          <ns3:TrackPointExtension>
            <ns3:atemp>20.0</ns3:atemp>
          </ns3:TrackPointExtension>
        </extensions>
      </trkpt>
      <trkpt lat="42.547845058143138885498046875" lon="20.0541584752500057220458984375">
        <ele>2012.4000244140625</ele>
        <time>2026-06-19T10:37:14.000Z</time>
        <extensions>
          <ns3:TrackPointExtension>
            <ns3:atemp>20.0</ns3:atemp>
          </ns3:TrackPointExtension>
        </extensions>
      </trkpt>
      <trkpt lat="42.547845058143138885498046875" lon="20.0541584752500057220458984375">
        <ele>2012.4000244140625</ele>
        <time>2026-06-19T10:37:15.000Z</time>
        <extensions>
          <ns3:TrackPointExtension>
            <ns3:atemp>20.0</ns3:atemp>
          </ns3:TrackPointExtension>
        </extensions>
      </trkpt>
      <trkpt lat="42.547845058143138885498046875" lon="20.0541584752500057220458984375">
        <ele>2012.4000244140625</ele>
        <time>2026-06-19T10:37:16.000Z</time>
        <extensions>
          <ns3:TrackPointExtension>
            <ns3:atemp>20.0</ns3:atemp>
          </ns3:TrackPointExtension>
        </extensions>
      </trkpt>
      <trkpt lat="42.547845058143138885498046875" lon="20.0541584752500057220458984375">
        <ele>2012.199951171875</ele>
        <time>2026-06-19T10:37:17.000Z</time>
        <extensions>
          <ns3:TrackPointExtension>
            <ns3:atemp>20.0</ns3:atemp>
          </ns3:TrackPointExtension>
        </extensions>
      </trkpt>
      <trkpt lat="42.547845058143138885498046875" lon="20.0541584752500057220458984375">
        <ele>2012.199951171875</ele>
        <time>2026-06-19T10:37:18.000Z</time>
        <extensions>
          <ns3:TrackPointExtension>
            <ns3:atemp>20.0</ns3:atemp>
          </ns3:TrackPointExtension>
        </extensions>
      </trkpt>
      <trkpt lat="42.547845058143138885498046875" lon="20.0541584752500057220458984375">
        <ele>2012.199951171875</ele>
        <time>2026-06-19T10:37:19.000Z</time>
        <extensions>
          <ns3:TrackPointExtension>
            <ns3:atemp>20.0</ns3:atemp>
          </ns3:TrackPointExtension>
        </extensions>
      </trkpt>
      <trkpt lat="42.547845058143138885498046875" lon="20.0541584752500057220458984375">
        <ele>2012.199951171875</ele>
        <time>2026-06-19T10:37:20.000Z</time>
        <extensions>
          <ns3:TrackPointExtension>
            <ns3:atemp>20.0</ns3:atemp>
          </ns3:TrackPointExtension>
        </extensions>
      </trkpt>
      <trkpt lat="42.547845058143138885498046875" lon="20.0541584752500057220458984375">
        <ele>2012.199951171875</ele>
        <time>2026-06-19T10:37:21.000Z</time>
        <extensions>
          <ns3:TrackPointExtension>
            <ns3:atemp>20.0</ns3:atemp>
          </ns3:TrackPointExtension>
        </extensions>
      </trkpt>
      <trkpt lat="42.547845058143138885498046875" lon="20.0541584752500057220458984375">
        <ele>2012.199951171875</ele>
        <time>2026-06-19T10:37:22.000Z</time>
        <extensions>
          <ns3:TrackPointExtension>
            <ns3:atemp>20.0</ns3:atemp>
          </ns3:TrackPointExtension>
        </extensions>
      </trkpt>
      <trkpt lat="42.5478455610573291778564453125" lon="20.05415839143097400665283203125">
        <ele>2012.199951171875</ele>
        <time>2026-06-19T10:37:23.000Z</time>
        <extensions>
          <ns3:TrackPointExtension>
            <ns3:atemp>20.0</ns3:atemp>
          </ns3:TrackPointExtension>
        </extensions>
      </trkpt>
      <trkpt lat="42.5478750653564929962158203125" lon="20.054178424179553985595703125">
        <ele>2012.199951171875</ele>
        <time>2026-06-19T10:37:24.000Z</time>
        <extensions>
          <ns3:TrackPointExtension>
            <ns3:atemp>20.0</ns3:atemp>
          </ns3:TrackPointExtension>
        </extensions>
      </trkpt>
      <trkpt lat="42.54791337065398693084716796875" lon="20.0541960261762142181396484375">
        <ele>2012</ele>
        <time>2026-06-19T10:37:25.000Z</time>
        <extensions>
          <ns3:TrackPointExtension>
            <ns3:atemp>20.0</ns3:atemp>
          </ns3:TrackPointExtension>
        </extensions>
      </trkpt>
      <trkpt lat="42.54796139895915985107421875" lon="20.0542183220386505126953125">
        <ele>2011.800048828125</ele>
        <time>2026-06-19T10:37:26.000Z</time>
        <extensions>
          <ns3:TrackPointExtension>
            <ns3:atemp>20.0</ns3:atemp>
          </ns3:TrackPointExtension>
        </extensions>
      </trkpt>
      <trkpt lat="42.54802174866199493408203125" lon="20.054240114986896514892578125">
        <ele>2011.4000244140625</ele>
        <time>2026-06-19T10:37:27.000Z</time>
        <extensions>
          <ns3:TrackPointExtension>
            <ns3:atemp>20.0</ns3:atemp>
          </ns3:TrackPointExtension>
        </extensions>
      </trkpt>
      <trkpt lat="42.54808687604963779449462890625" lon="20.05425813607871532440185546875">
        <ele>2010.800048828125</ele>
        <time>2026-06-19T10:37:28.000Z</time>
        <extensions>
          <ns3:TrackPointExtension>
            <ns3:atemp>20.0</ns3:atemp>
          </ns3:TrackPointExtension>
        </extensions>
      </trkpt>
      <trkpt lat="42.5481426157057285308837890625" lon="20.05429409444332122802734375">
        <ele>2010</ele>
        <time>2026-06-19T10:37:29.000Z</time>
        <extensions>
          <ns3:TrackPointExtension>
            <ns3:atemp>20.0</ns3:atemp>
          </ns3:TrackPointExtension>
        </extensions>
      </trkpt>
      <trkpt lat="42.54819609224796295166015625" lon="20.05432753823697566986083984375">
        <ele>2009.199951171875</ele>
        <time>2026-06-19T10:37:30.000Z</time>
        <extensions>
          <ns3:TrackPointExtension>
            <ns3:atemp>20.0</ns3:atemp>
          </ns3:TrackPointExtension>
        </extensions>
      </trkpt>
      <trkpt lat="42.5482488982379436492919921875" lon="20.05435855127871036529541015625">
        <ele>2008.199951171875</ele>
        <time>2026-06-19T10:37:31.000Z</time>
        <extensions>
          <ns3:TrackPointExtension>
            <ns3:atemp>20.0</ns3:atemp>
          </ns3:TrackPointExtension>
        </extensions>
      </trkpt>
      <trkpt lat="42.54828753881156444549560546875" lon="20.0543981976807117462158203125">
        <ele>2007.5999755859375</ele>
        <time>2026-06-19T10:37:32.000Z</time>
        <extensions>
          <ns3:TrackPointExtension>
            <ns3:atemp>20.0</ns3:atemp>
          </ns3:TrackPointExtension>
        </extensions>
      </trkpt>
      <trkpt lat="42.548318803310394287109375" lon="20.054443962872028350830078125">
        <ele>2007</ele>
        <time>2026-06-19T10:37:33.000Z</time>
        <extensions>
          <ns3:TrackPointExtension>
            <ns3:atemp>20.0</ns3:atemp>
          </ns3:TrackPointExtension>
        </extensions>
      </trkpt>
      <trkpt lat="42.54834495484828948974609375" lon="20.05449199117720127105712890625">
        <ele>2006.199951171875</ele>
        <time>2026-06-19T10:37:34.000Z</time>
        <extensions>
          <ns3:TrackPointExtension>
            <ns3:atemp>20.0</ns3:atemp>
          </ns3:TrackPointExtension>
        </extensions>
      </trkpt>
      <trkpt lat="42.5483706034719944000244140625" lon="20.05453440360724925994873046875">
        <ele>2005.5999755859375</ele>
        <time>2026-06-19T10:37:35.000Z</time>
        <extensions>
          <ns3:TrackPointExtension>
            <ns3:atemp>20.0</ns3:atemp>
          </ns3:TrackPointExtension>
        </extensions>
      </trkpt>
      <trkpt lat="42.54838929511606693267822265625" lon="20.0545648299157619476318359375">
        <ele>2004.5999755859375</ele>
        <time>2026-06-19T10:37:36.000Z</time>
        <extensions>
          <ns3:TrackPointExtension>
            <ns3:atemp>20.0</ns3:atemp>
          </ns3:TrackPointExtension>
        </extensions>
      </trkpt>
      <trkpt lat="42.54840337671339511871337890625" lon="20.05458234809339046478271484375">
        <ele>2004</ele>
        <time>2026-06-19T10:37:37.000Z</time>
        <extensions>
          <ns3:TrackPointExtension>
            <ns3:atemp>20.0</ns3:atemp>
          </ns3:TrackPointExtension>
        </extensions>
      </trkpt>
      <trkpt lat="42.54840220324695110321044921875" lon="20.0545879639685153961181640625">
        <ele>2003.5999755859375</ele>
        <time>2026-06-19T10:37:38.000Z</time>
        <extensions>
          <ns3:TrackPointExtension>
            <ns3:atemp>20.0</ns3:atemp>
          </ns3:TrackPointExtension>
        </extensions>
      </trkpt>
      <trkpt lat="42.54839985631406307220458984375" lon="20.0545866228640079498291015625">
        <ele>2003.199951171875</ele>
        <time>2026-06-19T10:37:39.000Z</time>
        <extensions>
          <ns3:TrackPointExtension>
            <ns3:atemp>20.0</ns3:atemp>
          </ns3:TrackPointExtension>
        </extensions>
      </trkpt>
      <trkpt lat="42.54839985631406307220458984375" lon="20.05458670668303966522216796875">
        <ele>2002.800048828125</ele>
        <time>2026-06-19T10:37:40.000Z</time>
        <extensions>
          <ns3:TrackPointExtension>
            <ns3:atemp>20.0</ns3:atemp>
          </ns3:TrackPointExtension>
        </extensions>
      </trkpt>
      <trkpt lat="42.54839985631406307220458984375" lon="20.05458670668303966522216796875">
        <ele>2002.800048828125</ele>
        <time>2026-06-19T10:37:41.000Z</time>
        <extensions>
          <ns3:TrackPointExtension>
            <ns3:atemp>20.0</ns3:atemp>
          </ns3:TrackPointExtension>
        </extensions>
      </trkpt>
      <trkpt lat="42.54839985631406307220458984375" lon="20.05458670668303966522216796875">
        <ele>2002.5999755859375</ele>
        <time>2026-06-19T10:37:42.000Z</time>
        <extensions>
          <ns3:TrackPointExtension>
            <ns3:atemp>20.0</ns3:atemp>
          </ns3:TrackPointExtension>
        </extensions>
      </trkpt>
      <trkpt lat="42.54839985631406307220458984375" lon="20.05458670668303966522216796875">
        <ele>2002.4000244140625</ele>
        <time>2026-06-19T10:37:43.000Z</time>
        <extensions>
          <ns3:TrackPointExtension>
            <ns3:atemp>20.0</ns3:atemp>
          </ns3:TrackPointExtension>
        </extensions>
      </trkpt>
      <trkpt lat="42.54839985631406307220458984375" lon="20.05458670668303966522216796875">
        <ele>2002.4000244140625</ele>
        <time>2026-06-19T10:37:44.000Z</time>
        <extensions>
          <ns3:TrackPointExtension>
            <ns3:atemp>20.0</ns3:atemp>
          </ns3:TrackPointExtension>
        </extensions>
      </trkpt>
      <trkpt lat="42.54839985631406307220458984375" lon="20.05458670668303966522216796875">
        <ele>2002.199951171875</ele>
        <time>2026-06-19T10:37:45.000Z</time>
        <extensions>
          <ns3:TrackPointExtension>
            <ns3:atemp>20.0</ns3:atemp>
          </ns3:TrackPointExtension>
        </extensions>
      </trkpt>
      <trkpt lat="42.54839985631406307220458984375" lon="20.05458670668303966522216796875">
        <ele>2002.199951171875</ele>
        <time>2026-06-19T10:37:46.000Z</time>
        <extensions>
          <ns3:TrackPointExtension>
            <ns3:atemp>20.0</ns3:atemp>
          </ns3:TrackPointExtension>
        </extensions>
      </trkpt>
      <trkpt lat="42.54839985631406307220458984375" lon="20.05458670668303966522216796875">
        <ele>2002</ele>
        <time>2026-06-19T10:37:47.000Z</time>
        <extensions>
          <ns3:TrackPointExtension>
            <ns3:atemp>20.0</ns3:atemp>
          </ns3:TrackPointExtension>
        </extensions>
      </trkpt>
      <trkpt lat="42.54839985631406307220458984375" lon="20.05458670668303966522216796875">
        <ele>2002</ele>
        <time>2026-06-19T10:37:48.000Z</time>
        <extensions>
          <ns3:TrackPointExtension>
            <ns3:atemp>20.0</ns3:atemp>
          </ns3:TrackPointExtension>
        </extensions>
      </trkpt>
      <trkpt lat="42.54839985631406307220458984375" lon="20.05458670668303966522216796875">
        <ele>2002</ele>
        <time>2026-06-19T10:37:49.000Z</time>
        <extensions>
          <ns3:TrackPointExtension>
            <ns3:atemp>20.0</ns3:atemp>
          </ns3:TrackPointExtension>
        </extensions>
      </trkpt>
      <trkpt lat="42.54839985631406307220458984375" lon="20.05458670668303966522216796875">
        <ele>2002</ele>
        <time>2026-06-19T10:37:50.000Z</time>
        <extensions>
          <ns3:TrackPointExtension>
            <ns3:atemp>20.0</ns3:atemp>
          </ns3:TrackPointExtension>
        </extensions>
      </trkpt>
      <trkpt lat="42.54839985631406307220458984375" lon="20.05458670668303966522216796875">
        <ele>2001.800048828125</ele>
        <time>2026-06-19T10:37:51.000Z</time>
        <extensions>
          <ns3:TrackPointExtension>
            <ns3:atemp>20.0</ns3:atemp>
          </ns3:TrackPointExtension>
        </extensions>
      </trkpt>
      <trkpt lat="42.54839985631406307220458984375" lon="20.05458670668303966522216796875">
        <ele>2001.800048828125</ele>
        <time>2026-06-19T10:37:52.000Z</time>
        <extensions>
          <ns3:TrackPointExtension>
            <ns3:atemp>20.0</ns3:atemp>
          </ns3:TrackPointExtension>
        </extensions>
      </trkpt>
      <trkpt lat="42.54839985631406307220458984375" lon="20.05458670668303966522216796875">
        <ele>2001.800048828125</ele>
        <time>2026-06-19T10:37:53.000Z</time>
        <extensions>
          <ns3:TrackPointExtension>
            <ns3:atemp>20.0</ns3:atemp>
          </ns3:TrackPointExtension>
        </extensions>
      </trkpt>
      <trkpt lat="42.54839985631406307220458984375" lon="20.05458670668303966522216796875">
        <ele>2001.800048828125</ele>
        <time>2026-06-19T10:37:54.000Z</time>
        <extensions>
          <ns3:TrackPointExtension>
            <ns3:atemp>20.0</ns3:atemp>
          </ns3:TrackPointExtension>
        </extensions>
      </trkpt>
      <trkpt lat="42.54839985631406307220458984375" lon="20.05458670668303966522216796875">
        <ele>2001.800048828125</ele>
        <time>2026-06-19T10:37:55.000Z</time>
        <extensions>
          <ns3:TrackPointExtension>
            <ns3:atemp>20.0</ns3:atemp>
          </ns3:TrackPointExtension>
        </extensions>
      </trkpt>
      <trkpt lat="42.54839985631406307220458984375" lon="20.05458670668303966522216796875">
        <ele>2001.800048828125</ele>
        <time>2026-06-19T10:37:56.000Z</time>
        <extensions>
          <ns3:TrackPointExtension>
            <ns3:atemp>20.0</ns3:atemp>
          </ns3:TrackPointExtension>
        </extensions>
      </trkpt>
      <trkpt lat="42.54839985631406307220458984375" lon="20.05458670668303966522216796875">
        <ele>2001.800048828125</ele>
        <time>2026-06-19T10:37:57.000Z</time>
        <extensions>
          <ns3:TrackPointExtension>
            <ns3:atemp>20.0</ns3:atemp>
          </ns3:TrackPointExtension>
        </extensions>
      </trkpt>
      <trkpt lat="42.54839985631406307220458984375" lon="20.05458670668303966522216796875">
        <ele>2001.800048828125</ele>
        <time>2026-06-19T10:37:58.000Z</time>
        <extensions>
          <ns3:TrackPointExtension>
            <ns3:atemp>20.0</ns3:atemp>
          </ns3:TrackPointExtension>
        </extensions>
      </trkpt>
      <trkpt lat="42.54839985631406307220458984375" lon="20.05458670668303966522216796875">
        <ele>2001.800048828125</ele>
        <time>2026-06-19T10:37:59.000Z</time>
        <extensions>
          <ns3:TrackPointExtension>
            <ns3:atemp>20.0</ns3:atemp>
          </ns3:TrackPointExtension>
        </extensions>
      </trkpt>
      <trkpt lat="42.54839985631406307220458984375" lon="20.05458670668303966522216796875">
        <ele>2001.800048828125</ele>
        <time>2026-06-19T10:38:00.000Z</time>
        <extensions>
          <ns3:TrackPointExtension>
            <ns3:atemp>20.0</ns3:atemp>
          </ns3:TrackPointExtension>
        </extensions>
      </trkpt>
      <trkpt lat="42.54839985631406307220458984375" lon="20.05458670668303966522216796875">
        <ele>2001.800048828125</ele>
        <time>2026-06-19T10:38:01.000Z</time>
        <extensions>
          <ns3:TrackPointExtension>
            <ns3:atemp>20.0</ns3:atemp>
          </ns3:TrackPointExtension>
        </extensions>
      </trkpt>
      <trkpt lat="42.54839985631406307220458984375" lon="20.05458670668303966522216796875">
        <ele>2001.800048828125</ele>
        <time>2026-06-19T10:38:02.000Z</time>
        <extensions>
          <ns3:TrackPointExtension>
            <ns3:atemp>20.0</ns3:atemp>
          </ns3:TrackPointExtension>
        </extensions>
      </trkpt>
      <trkpt lat="42.54839985631406307220458984375" lon="20.05458670668303966522216796875">
        <ele>2002</ele>
        <time>2026-06-19T10:38:03.000Z</time>
        <extensions>
          <ns3:TrackPointExtension>
            <ns3:atemp>20.0</ns3:atemp>
          </ns3:TrackPointExtension>
        </extensions>
      </trkpt>
      <trkpt lat="42.54839985631406307220458984375" lon="20.05458670668303966522216796875">
        <ele>2001.800048828125</ele>
        <time>2026-06-19T10:38:04.000Z</time>
        <extensions>
          <ns3:TrackPointExtension>
            <ns3:atemp>20.0</ns3:atemp>
          </ns3:TrackPointExtension>
        </extensions>
      </trkpt>
      <trkpt lat="42.54839985631406307220458984375" lon="20.05458670668303966522216796875">
        <ele>2001.800048828125</ele>
        <time>2026-06-19T10:38:05.000Z</time>
        <extensions>
          <ns3:TrackPointExtension>
            <ns3:atemp>20.0</ns3:atemp>
          </ns3:TrackPointExtension>
        </extensions>
      </trkpt>
      <trkpt lat="42.54839985631406307220458984375" lon="20.05458670668303966522216796875">
        <ele>2001.800048828125</ele>
        <time>2026-06-19T10:38:06.000Z</time>
        <extensions>
          <ns3:TrackPointExtension>
            <ns3:atemp>20.0</ns3:atemp>
          </ns3:TrackPointExtension>
        </extensions>
      </trkpt>
      <trkpt lat="42.54839985631406307220458984375" lon="20.05458670668303966522216796875">
        <ele>2001.800048828125</ele>
        <time>2026-06-19T10:38:07.000Z</time>
        <extensions>
          <ns3:TrackPointExtension>
            <ns3:atemp>20.0</ns3:atemp>
          </ns3:TrackPointExtension>
        </extensions>
      </trkpt>
      <trkpt lat="42.54839985631406307220458984375" lon="20.05458670668303966522216796875">
        <ele>2001.800048828125</ele>
        <time>2026-06-19T10:38:08.000Z</time>
        <extensions>
          <ns3:TrackPointExtension>
            <ns3:atemp>20.0</ns3:atemp>
          </ns3:TrackPointExtension>
        </extensions>
      </trkpt>
      <trkpt lat="42.54839985631406307220458984375" lon="20.05458670668303966522216796875">
        <ele>2001.800048828125</ele>
        <time>2026-06-19T10:38:09.000Z</time>
        <extensions>
          <ns3:TrackPointExtension>
            <ns3:atemp>20.0</ns3:atemp>
          </ns3:TrackPointExtension>
        </extensions>
      </trkpt>
      <trkpt lat="42.54839985631406307220458984375" lon="20.05458670668303966522216796875">
        <ele>2002</ele>
        <time>2026-06-19T10:38:10.000Z</time>
        <extensions>
          <ns3:TrackPointExtension>
            <ns3:atemp>20.0</ns3:atemp>
          </ns3:TrackPointExtension>
        </extensions>
      </trkpt>
      <trkpt lat="42.54839985631406307220458984375" lon="20.05458670668303966522216796875">
        <ele>2002</ele>
        <time>2026-06-19T10:38:11.000Z</time>
        <extensions>
          <ns3:TrackPointExtension>
            <ns3:atemp>20.0</ns3:atemp>
          </ns3:TrackPointExtension>
        </extensions>
      </trkpt>
      <trkpt lat="42.54839985631406307220458984375" lon="20.05458670668303966522216796875">
        <ele>2001.800048828125</ele>
        <time>2026-06-19T10:38:12.000Z</time>
        <extensions>
          <ns3:TrackPointExtension>
            <ns3:atemp>20.0</ns3:atemp>
          </ns3:TrackPointExtension>
        </extensions>
      </trkpt>
      <trkpt lat="42.54839985631406307220458984375" lon="20.05458670668303966522216796875">
        <ele>2001.800048828125</ele>
        <time>2026-06-19T10:38:13.000Z</time>
        <extensions>
          <ns3:TrackPointExtension>
            <ns3:atemp>20.0</ns3:atemp>
          </ns3:TrackPointExtension>
        </extensions>
      </trkpt>
      <trkpt lat="42.54839985631406307220458984375" lon="20.05458670668303966522216796875">
        <ele>2001.800048828125</ele>
        <time>2026-06-19T10:38:14.000Z</time>
        <extensions>
          <ns3:TrackPointExtension>
            <ns3:atemp>20.0</ns3:atemp>
          </ns3:TrackPointExtension>
        </extensions>
      </trkpt>
      <trkpt lat="42.54839985631406307220458984375" lon="20.05458670668303966522216796875">
        <ele>2001.800048828125</ele>
        <time>2026-06-19T10:38:15.000Z</time>
        <extensions>
          <ns3:TrackPointExtension>
            <ns3:atemp>20.0</ns3:atemp>
          </ns3:TrackPointExtension>
        </extensions>
      </trkpt>
      <trkpt lat="42.54839985631406307220458984375" lon="20.05458670668303966522216796875">
        <ele>2001.800048828125</ele>
        <time>2026-06-19T10:38:16.000Z</time>
        <extensions>
          <ns3:TrackPointExtension>
            <ns3:atemp>20.0</ns3:atemp>
          </ns3:TrackPointExtension>
        </extensions>
      </trkpt>
      <trkpt lat="42.54839985631406307220458984375" lon="20.05458670668303966522216796875">
        <ele>2001.800048828125</ele>
        <time>2026-06-19T10:38:17.000Z</time>
        <extensions>
          <ns3:TrackPointExtension>
            <ns3:atemp>20.0</ns3:atemp>
          </ns3:TrackPointExtension>
        </extensions>
      </trkpt>
      <trkpt lat="42.54839985631406307220458984375" lon="20.05458670668303966522216796875">
        <ele>2001.800048828125</ele>
        <time>2026-06-19T10:38:18.000Z</time>
        <extensions>
          <ns3:TrackPointExtension>
            <ns3:atemp>20.0</ns3:atemp>
          </ns3:TrackPointExtension>
        </extensions>
      </trkpt>
      <trkpt lat="42.54839985631406307220458984375" lon="20.05458670668303966522216796875">
        <ele>2001.800048828125</ele>
        <time>2026-06-19T10:38:19.000Z</time>
        <extensions>
          <ns3:TrackPointExtension>
            <ns3:atemp>20.0</ns3:atemp>
          </ns3:TrackPointExtension>
        </extensions>
      </trkpt>
      <trkpt lat="42.54839985631406307220458984375" lon="20.05458670668303966522216796875">
        <ele>2001.800048828125</ele>
        <time>2026-06-19T10:38:20.000Z</time>
        <extensions>
          <ns3:TrackPointExtension>
            <ns3:atemp>20.0</ns3:atemp>
          </ns3:TrackPointExtension>
        </extensions>
      </trkpt>
      <trkpt lat="42.54839985631406307220458984375" lon="20.05458670668303966522216796875">
        <ele>2001.800048828125</ele>
        <time>2026-06-19T10:38:21.000Z</time>
        <extensions>
          <ns3:TrackPointExtension>
            <ns3:atemp>20.0</ns3:atemp>
          </ns3:TrackPointExtension>
        </extensions>
      </trkpt>
      <trkpt lat="42.54839985631406307220458984375" lon="20.05458670668303966522216796875">
        <ele>2001.800048828125</ele>
        <time>2026-06-19T10:38:22.000Z</time>
        <extensions>
          <ns3:TrackPointExtension>
            <ns3:atemp>20.0</ns3:atemp>
          </ns3:TrackPointExtension>
        </extensions>
      </trkpt>
      <trkpt lat="42.54839985631406307220458984375" lon="20.05458670668303966522216796875">
        <ele>2001.800048828125</ele>
        <time>2026-06-19T10:38:23.000Z</time>
        <extensions>
          <ns3:TrackPointExtension>
            <ns3:atemp>20.0</ns3:atemp>
          </ns3:TrackPointExtension>
        </extensions>
      </trkpt>
      <trkpt lat="42.54839985631406307220458984375" lon="20.05458670668303966522216796875">
        <ele>2001.800048828125</ele>
        <time>2026-06-19T10:38:24.000Z</time>
        <extensions>
          <ns3:TrackPointExtension>
            <ns3:atemp>20.0</ns3:atemp>
          </ns3:TrackPointExtension>
        </extensions>
      </trkpt>
      <trkpt lat="42.54839985631406307220458984375" lon="20.05458670668303966522216796875">
        <ele>2001.800048828125</ele>
        <time>2026-06-19T10:38:25.000Z</time>
        <extensions>
          <ns3:TrackPointExtension>
            <ns3:atemp>20.0</ns3:atemp>
          </ns3:TrackPointExtension>
        </extensions>
      </trkpt>
      <trkpt lat="42.54839985631406307220458984375" lon="20.05458670668303966522216796875">
        <ele>2001.800048828125</ele>
        <time>2026-06-19T10:38:26.000Z</time>
        <extensions>
          <ns3:TrackPointExtension>
            <ns3:atemp>20.0</ns3:atemp>
          </ns3:TrackPointExtension>
        </extensions>
      </trkpt>
      <trkpt lat="42.54839985631406307220458984375" lon="20.05458670668303966522216796875">
        <ele>2001.800048828125</ele>
        <time>2026-06-19T10:38:27.000Z</time>
        <extensions>
          <ns3:TrackPointExtension>
            <ns3:atemp>20.0</ns3:atemp>
          </ns3:TrackPointExtension>
        </extensions>
      </trkpt>
      <trkpt lat="42.54839985631406307220458984375" lon="20.05458670668303966522216796875">
        <ele>2001.800048828125</ele>
        <time>2026-06-19T10:38:28.000Z</time>
        <extensions>
          <ns3:TrackPointExtension>
            <ns3:atemp>20.0</ns3:atemp>
          </ns3:TrackPointExtension>
        </extensions>
      </trkpt>
      <trkpt lat="42.54839985631406307220458984375" lon="20.05458670668303966522216796875">
        <ele>2001.800048828125</ele>
        <time>2026-06-19T10:38:29.000Z</time>
        <extensions>
          <ns3:TrackPointExtension>
            <ns3:atemp>20.0</ns3:atemp>
          </ns3:TrackPointExtension>
        </extensions>
      </trkpt>
      <trkpt lat="42.54839985631406307220458984375" lon="20.05458670668303966522216796875">
        <ele>2001.800048828125</ele>
        <time>2026-06-19T10:38:30.000Z</time>
        <extensions>
          <ns3:TrackPointExtension>
            <ns3:atemp>20.0</ns3:atemp>
          </ns3:TrackPointExtension>
        </extensions>
      </trkpt>
      <trkpt lat="42.54839985631406307220458984375" lon="20.05458670668303966522216796875">
        <ele>2001.800048828125</ele>
        <time>2026-06-19T10:38:31.000Z</time>
        <extensions>
          <ns3:TrackPointExtension>
            <ns3:atemp>20.0</ns3:atemp>
          </ns3:TrackPointExtension>
        </extensions>
      </trkpt>
      <trkpt lat="42.54839985631406307220458984375" lon="20.05458670668303966522216796875">
        <ele>2001.800048828125</ele>
        <time>2026-06-19T10:38:32.000Z</time>
        <extensions>
          <ns3:TrackPointExtension>
            <ns3:atemp>20.0</ns3:atemp>
          </ns3:TrackPointExtension>
        </extensions>
      </trkpt>
      <trkpt lat="42.54839985631406307220458984375" lon="20.05458670668303966522216796875">
        <ele>2001.800048828125</ele>
        <time>2026-06-19T10:38:33.000Z</time>
        <extensions>
          <ns3:TrackPointExtension>
            <ns3:atemp>20.0</ns3:atemp>
          </ns3:TrackPointExtension>
        </extensions>
      </trkpt>
      <trkpt lat="42.54839985631406307220458984375" lon="20.05458670668303966522216796875">
        <ele>2002</ele>
        <time>2026-06-19T10:38:34.000Z</time>
        <extensions>
          <ns3:TrackPointExtension>
            <ns3:atemp>20.0</ns3:atemp>
          </ns3:TrackPointExtension>
        </extensions>
      </trkpt>
      <trkpt lat="42.54839985631406307220458984375" lon="20.05458670668303966522216796875">
        <ele>2002</ele>
        <time>2026-06-19T10:38:35.000Z</time>
        <extensions>
          <ns3:TrackPointExtension>
            <ns3:atemp>20.0</ns3:atemp>
          </ns3:TrackPointExtension>
        </extensions>
      </trkpt>
      <trkpt lat="42.54839985631406307220458984375" lon="20.05458670668303966522216796875">
        <ele>2002</ele>
        <time>2026-06-19T10:38:36.000Z</time>
        <extensions>
          <ns3:TrackPointExtension>
            <ns3:atemp>20.0</ns3:atemp>
          </ns3:TrackPointExtension>
        </extensions>
      </trkpt>
      <trkpt lat="42.54839985631406307220458984375" lon="20.05458670668303966522216796875">
        <ele>2002</ele>
        <time>2026-06-19T10:38:37.000Z</time>
        <extensions>
          <ns3:TrackPointExtension>
            <ns3:atemp>20.0</ns3:atemp>
          </ns3:TrackPointExtension>
        </extensions>
      </trkpt>
      <trkpt lat="42.54839985631406307220458984375" lon="20.05458670668303966522216796875">
        <ele>2002</ele>
        <time>2026-06-19T10:38:38.000Z</time>
        <extensions>
          <ns3:TrackPointExtension>
            <ns3:atemp>20.0</ns3:atemp>
          </ns3:TrackPointExtension>
        </extensions>
      </trkpt>
      <trkpt lat="42.5484006106853485107421875" lon="20.05458645522594451904296875">
        <ele>2001.800048828125</ele>
        <time>2026-06-19T10:38:39.000Z</time>
        <extensions>
          <ns3:TrackPointExtension>
            <ns3:atemp>20.0</ns3:atemp>
          </ns3:TrackPointExtension>
        </extensions>
      </trkpt>
      <trkpt lat="42.548415027558803558349609375" lon="20.05460263229906558990478515625">
        <ele>2001.800048828125</ele>
        <time>2026-06-19T10:38:40.000Z</time>
        <extensions>
          <ns3:TrackPointExtension>
            <ns3:atemp>20.0</ns3:atemp>
          </ns3:TrackPointExtension>
        </extensions>
      </trkpt>
      <trkpt lat="42.5484279356896877288818359375" lon="20.05462476052343845367431640625">
        <ele>2001.800048828125</ele>
        <time>2026-06-19T10:38:41.000Z</time>
        <extensions>
          <ns3:TrackPointExtension>
            <ns3:atemp>20.0</ns3:atemp>
          </ns3:TrackPointExtension>
        </extensions>
      </trkpt>
      <trkpt lat="42.548448555171489715576171875" lon="20.05465778522193431854248046875">
        <ele>2001.5999755859375</ele>
        <time>2026-06-19T10:38:42.000Z</time>
        <extensions>
          <ns3:TrackPointExtension>
            <ns3:atemp>20.0</ns3:atemp>
          </ns3:TrackPointExtension>
        </extensions>
      </trkpt>
      <trkpt lat="42.54847663454711437225341796875" lon="20.05469500087201595306396484375">
        <ele>2001.5999755859375</ele>
        <time>2026-06-19T10:38:43.000Z</time>
        <extensions>
          <ns3:TrackPointExtension>
            <ns3:atemp>20.0</ns3:atemp>
          </ns3:TrackPointExtension>
        </extensions>
      </trkpt>
      <trkpt lat="42.5485087372362613677978515625" lon="20.054736323654651641845703125">
        <ele>2001.199951171875</ele>
        <time>2026-06-19T10:38:44.000Z</time>
        <extensions>
          <ns3:TrackPointExtension>
            <ns3:atemp>20.0</ns3:atemp>
          </ns3:TrackPointExtension>
        </extensions>
      </trkpt>
      <trkpt lat="42.54854737780988216400146484375" lon="20.05477555096149444580078125">
        <ele>2000.800048828125</ele>
        <time>2026-06-19T10:38:45.000Z</time>
        <extensions>
          <ns3:TrackPointExtension>
            <ns3:atemp>20.0</ns3:atemp>
          </ns3:TrackPointExtension>
        </extensions>
      </trkpt>
      <trkpt lat="42.5485883653163909912109375" lon="20.05481435917317867279052734375">
        <ele>2000.199951171875</ele>
        <time>2026-06-19T10:38:46.000Z</time>
        <extensions>
          <ns3:TrackPointExtension>
            <ns3:atemp>20.0</ns3:atemp>
          </ns3:TrackPointExtension>
        </extensions>
      </trkpt>
      <trkpt lat="42.54863320849835872650146484375" lon="20.0548521615564823150634765625">
        <ele>1999.800048828125</ele>
        <time>2026-06-19T10:38:47.000Z</time>
        <extensions>
          <ns3:TrackPointExtension>
            <ns3:atemp>20.0</ns3:atemp>
          </ns3:TrackPointExtension>
        </extensions>
      </trkpt>
      <trkpt lat="42.5486810691654682159423828125" lon="20.05488283932209014892578125">
        <ele>1999.4000244140625</ele>
        <time>2026-06-19T10:38:48.000Z</time>
        <extensions>
          <ns3:TrackPointExtension>
            <ns3:atemp>20.0</ns3:atemp>
          </ns3:TrackPointExtension>
        </extensions>
      </trkpt>
      <trkpt lat="42.54872448742389678955078125" lon="20.05493086762726306915283203125">
        <ele>1999</ele>
        <time>2026-06-19T10:38:49.000Z</time>
        <extensions>
          <ns3:TrackPointExtension>
            <ns3:atemp>20.0</ns3:atemp>
          </ns3:TrackPointExtension>
        </extensions>
      </trkpt>
      <trkpt lat="42.5487709231674671173095703125" lon="20.05498317070305347442626953125">
        <ele>1998.5999755859375</ele>
        <time>2026-06-19T10:38:50.000Z</time>
        <extensions>
          <ns3:TrackPointExtension>
            <ns3:atemp>20.0</ns3:atemp>
          </ns3:TrackPointExtension>
        </extensions>
      </trkpt>
      <trkpt lat="42.5488178618252277374267578125" lon="20.05503832362592220306396484375">
        <ele>1998.199951171875</ele>
        <time>2026-06-19T10:38:51.000Z</time>
        <extensions>
          <ns3:TrackPointExtension>
            <ns3:atemp>20.0</ns3:atemp>
          </ns3:TrackPointExtension>
        </extensions>
      </trkpt>
      <trkpt lat="42.54886287264525890350341796875" lon="20.05508601665496826171875">
        <ele>1997.5999755859375</ele>
        <time>2026-06-19T10:38:52.000Z</time>
        <extensions>
          <ns3:TrackPointExtension>
            <ns3:atemp>20.0</ns3:atemp>
          </ns3:TrackPointExtension>
        </extensions>
      </trkpt>
      <trkpt lat="42.548907883465290069580078125" lon="20.055129267275333404541015625">
        <ele>1997.199951171875</ele>
        <time>2026-06-19T10:38:53.000Z</time>
        <extensions>
          <ns3:TrackPointExtension>
            <ns3:atemp>20.0</ns3:atemp>
          </ns3:TrackPointExtension>
        </extensions>
      </trkpt>
      <trkpt lat="42.5489509664475917816162109375" lon="20.0551679916679859161376953125">
        <ele>1996.5999755859375</ele>
        <time>2026-06-19T10:38:54.000Z</time>
        <extensions>
          <ns3:TrackPointExtension>
            <ns3:atemp>20.0</ns3:atemp>
          </ns3:TrackPointExtension>
        </extensions>
      </trkpt>
      <trkpt lat="42.5489915348589420318603515625" lon="20.05521601997315883636474609375">
        <ele>1996.4000244140625</ele>
        <time>2026-06-19T10:38:55.000Z</time>
        <extensions>
          <ns3:TrackPointExtension>
            <ns3:atemp>20.0</ns3:atemp>
          </ns3:TrackPointExtension>
        </extensions>
      </trkpt>
      <trkpt lat="42.5490294210612773895263671875" lon="20.05526530556380748748779296875">
        <ele>1996</ele>
        <time>2026-06-19T10:38:56.000Z</time>
        <extensions>
          <ns3:TrackPointExtension>
            <ns3:atemp>20.0</ns3:atemp>
          </ns3:TrackPointExtension>
        </extensions>
      </trkpt>
      <trkpt lat="42.54906169138848781585693359375" lon="20.0553198717534542083740234375">
        <ele>1995.800048828125</ele>
        <time>2026-06-19T10:38:57.000Z</time>
        <extensions>
          <ns3:TrackPointExtension>
            <ns3:atemp>20.0</ns3:atemp>
          </ns3:TrackPointExtension>
        </extensions>
      </trkpt>
      <trkpt lat="42.5490931235253810882568359375" lon="20.0553658045828342437744140625">
        <ele>1995.5999755859375</ele>
        <time>2026-06-19T10:38:58.000Z</time>
        <extensions>
          <ns3:TrackPointExtension>
            <ns3:atemp>20.0</ns3:atemp>
          </ns3:TrackPointExtension>
        </extensions>
      </trkpt>
      <trkpt lat="42.54912681877613067626953125" lon="20.05540176294744014739990234375">
        <ele>1995.4000244140625</ele>
        <time>2026-06-19T10:38:59.000Z</time>
        <extensions>
          <ns3:TrackPointExtension>
            <ns3:atemp>20.0</ns3:atemp>
          </ns3:TrackPointExtension>
        </extensions>
      </trkpt>
      <trkpt lat="42.54916177131235599517822265625" lon="20.05543671548366546630859375">
        <ele>1995.199951171875</ele>
        <time>2026-06-19T10:39:00.000Z</time>
        <extensions>
          <ns3:TrackPointExtension>
            <ns3:atemp>20.0</ns3:atemp>
          </ns3:TrackPointExtension>
        </extensions>
      </trkpt>
      <trkpt lat="42.54919462837278842926025390625" lon="20.0554667226970195770263671875">
        <ele>1995</ele>
        <time>2026-06-19T10:39:01.000Z</time>
        <extensions>
          <ns3:TrackPointExtension>
            <ns3:atemp>20.0</ns3:atemp>
          </ns3:TrackPointExtension>
        </extensions>
      </trkpt>
      <trkpt lat="42.54922463558614253997802734375" lon="20.0554948858916759490966796875">
        <ele>1994.5999755859375</ele>
        <time>2026-06-19T10:39:02.000Z</time>
        <extensions>
          <ns3:TrackPointExtension>
            <ns3:atemp>20.0</ns3:atemp>
          </ns3:TrackPointExtension>
        </extensions>
      </trkpt>
      <trkpt lat="42.5492533855140209197998046875" lon="20.0555237196385860443115234375">
        <ele>1994.4000244140625</ele>
        <time>2026-06-19T10:39:03.000Z</time>
        <extensions>
          <ns3:TrackPointExtension>
            <ns3:atemp>20.0</ns3:atemp>
          </ns3:TrackPointExtension>
        </extensions>
      </trkpt>
      <trkpt lat="42.54928364418447017669677734375" lon="20.05555582232773303985595703125">
        <ele>1993.800048828125</ele>
        <time>2026-06-19T10:39:04.000Z</time>
        <extensions>
          <ns3:TrackPointExtension>
            <ns3:atemp>20.0</ns3:atemp>
          </ns3:TrackPointExtension>
        </extensions>
      </trkpt>
      <trkpt lat="42.5493130646646022796630859375" lon="20.055593289434909820556640625">
        <ele>1993.4000244140625</ele>
        <time>2026-06-19T10:39:05.000Z</time>
        <extensions>
          <ns3:TrackPointExtension>
            <ns3:atemp>20.0</ns3:atemp>
          </ns3:TrackPointExtension>
        </extensions>
      </trkpt>
      <trkpt lat="42.5493368692696094512939453125" lon="20.0556343607604503631591796875">
        <ele>1993</ele>
        <time>2026-06-19T10:39:06.000Z</time>
        <extensions>
          <ns3:TrackPointExtension>
            <ns3:atemp>20.0</ns3:atemp>
          </ns3:TrackPointExtension>
        </extensions>
      </trkpt>
      <trkpt lat="42.54935438744723796844482421875" lon="20.0556772761046886444091796875">
        <ele>1992.5999755859375</ele>
        <time>2026-06-19T10:39:07.000Z</time>
        <extensions>
          <ns3:TrackPointExtension>
            <ns3:atemp>20.0</ns3:atemp>
          </ns3:TrackPointExtension>
        </extensions>
      </trkpt>
      <trkpt lat="42.5493670441210269927978515625" lon="20.0557255558669567108154296875">
        <ele>1992.199951171875</ele>
        <time>2026-06-19T10:39:08.000Z</time>
        <extensions>
          <ns3:TrackPointExtension>
            <ns3:atemp>20.0</ns3:atemp>
          </ns3:TrackPointExtension>
        </extensions>
      </trkpt>
      <trkpt lat="42.54938338883221149444580078125" lon="20.05577509291470050811767578125">
        <ele>1991.4000244140625</ele>
        <time>2026-06-19T10:39:09.000Z</time>
        <extensions>
          <ns3:TrackPointExtension>
            <ns3:atemp>20.0</ns3:atemp>
          </ns3:TrackPointExtension>
        </extensions>
      </trkpt>
      <trkpt lat="42.54940484650433063507080078125" lon="20.0558211095631122589111328125">
        <ele>1990.800048828125</ele>
        <time>2026-06-19T10:39:10.000Z</time>
        <extensions>
          <ns3:TrackPointExtension>
            <ns3:atemp>20.0</ns3:atemp>
          </ns3:TrackPointExtension>
        </extensions>
      </trkpt>
      <trkpt lat="42.5494317524135112762451171875" lon="20.0558606721460819244384765625">
        <ele>1990</ele>
        <time>2026-06-19T10:39:11.000Z</time>
        <extensions>
          <ns3:TrackPointExtension>
            <ns3:atemp>20.0</ns3:atemp>
          </ns3:TrackPointExtension>
        </extensions>
      </trkpt>
      <trkpt lat="42.5494609214365482330322265625" lon="20.055896379053592681884765625">
        <ele>1989.4000244140625</ele>
        <time>2026-06-19T10:39:12.000Z</time>
        <extensions>
          <ns3:TrackPointExtension>
            <ns3:atemp>20.0</ns3:atemp>
          </ns3:TrackPointExtension>
        </extensions>
      </trkpt>
      <trkpt lat="42.5494984723627567291259765625" lon="20.0559223629534244537353515625">
        <ele>1988.5999755859375</ele>
        <time>2026-06-19T10:39:13.000Z</time>
        <extensions>
          <ns3:TrackPointExtension>
            <ns3:atemp>20.0</ns3:atemp>
          </ns3:TrackPointExtension>
        </extensions>
      </trkpt>
      <trkpt lat="42.54952789284288883209228515625" lon="20.0559609197080135345458984375">
        <ele>1987.800048828125</ele>
        <time>2026-06-19T10:39:14.000Z</time>
        <extensions>
          <ns3:TrackPointExtension>
            <ns3:atemp>20.0</ns3:atemp>
          </ns3:TrackPointExtension>
        </extensions>
      </trkpt>
      <trkpt lat="42.5495494343340396881103515625" lon="20.05600425414741039276123046875">
        <ele>1986.800048828125</ele>
        <time>2026-06-19T10:39:15.000Z</time>
        <extensions>
          <ns3:TrackPointExtension>
            <ns3:atemp>20.0</ns3:atemp>
          </ns3:TrackPointExtension>
        </extensions>
      </trkpt>
      <trkpt lat="42.54955790005624294281005859375" lon="20.0560487620532512664794921875">
        <ele>1986</ele>
        <time>2026-06-19T10:39:16.000Z</time>
        <extensions>
          <ns3:TrackPointExtension>
            <ns3:atemp>20.0</ns3:atemp>
          </ns3:TrackPointExtension>
        </extensions>
      </trkpt>
      <trkpt lat="42.54955907352268695831298828125" lon="20.05608589388430118560791015625">
        <ele>1985.199951171875</ele>
        <time>2026-06-19T10:39:17.000Z</time>
        <extensions>
          <ns3:TrackPointExtension>
            <ns3:atemp>20.0</ns3:atemp>
          </ns3:TrackPointExtension>
        </extensions>
      </trkpt>
      <trkpt lat="42.54955119453370571136474609375" lon="20.0561134703457355499267578125">
        <ele>1984.4000244140625</ele>
        <time>2026-06-19T10:39:18.000Z</time>
        <extensions>
          <ns3:TrackPointExtension>
            <ns3:atemp>20.0</ns3:atemp>
          </ns3:TrackPointExtension>
        </extensions>
      </trkpt>
      <trkpt lat="42.549547590315341949462890625" lon="20.0561486743390560150146484375">
        <ele>1983.800048828125</ele>
        <time>2026-06-19T10:39:19.000Z</time>
        <extensions>
          <ns3:TrackPointExtension>
            <ns3:atemp>20.0</ns3:atemp>
          </ns3:TrackPointExtension>
        </extensions>
      </trkpt>
      <trkpt lat="42.54953912459313869476318359375" lon="20.0561875663697719573974609375">
        <ele>1983.199951171875</ele>
        <time>2026-06-19T10:39:20.000Z</time>
        <extensions>
          <ns3:TrackPointExtension>
            <ns3:atemp>20.0</ns3:atemp>
          </ns3:TrackPointExtension>
        </extensions>
      </trkpt>
      <trkpt lat="42.54952269606292247772216796875" lon="20.05622662603855133056640625">
        <ele>1982.5999755859375</ele>
        <time>2026-06-19T10:39:21.000Z</time>
        <extensions>
          <ns3:TrackPointExtension>
            <ns3:atemp>20.0</ns3:atemp>
          </ns3:TrackPointExtension>
        </extensions>
      </trkpt>
      <trkpt lat="42.5494949519634246826171875" lon="20.05626459605991840362548828125">
        <ele>1982.199951171875</ele>
        <time>2026-06-19T10:39:22.000Z</time>
        <extensions>
          <ns3:TrackPointExtension>
            <ns3:atemp>20.0</ns3:atemp>
          </ns3:TrackPointExtension>
        </extensions>
      </trkpt>
      <trkpt lat="42.54946469329297542572021484375" lon="20.05632041953504085540771484375">
        <ele>1981.5999755859375</ele>
        <time>2026-06-19T10:39:23.000Z</time>
        <extensions>
          <ns3:TrackPointExtension>
            <ns3:atemp>20.0</ns3:atemp>
          </ns3:TrackPointExtension>
        </extensions>
      </trkpt>
      <trkpt lat="42.5494324229657649993896484375" lon="20.05637741647660732269287109375">
        <ele>1980.800048828125</ele>
        <time>2026-06-19T10:39:24.000Z</time>
        <extensions>
          <ns3:TrackPointExtension>
            <ns3:atemp>20.0</ns3:atemp>
          </ns3:TrackPointExtension>
        </extensions>
      </trkpt>
      <trkpt lat="42.5494002364575862884521484375" lon="20.05643307231366634368896484375">
        <ele>1980.199951171875</ele>
        <time>2026-06-19T10:39:25.000Z</time>
        <extensions>
          <ns3:TrackPointExtension>
            <ns3:atemp>20.0</ns3:atemp>
          </ns3:TrackPointExtension>
        </extensions>
      </trkpt>
      <trkpt lat="42.54936955869197845458984375" lon="20.05649610422551631927490234375">
        <ele>1979.199951171875</ele>
        <time>2026-06-19T10:39:26.000Z</time>
        <extensions>
          <ns3:TrackPointExtension>
            <ns3:atemp>20.0</ns3:atemp>
          </ns3:TrackPointExtension>
        </extensions>
      </trkpt>
      <trkpt lat="42.54934114404022693634033203125" lon="20.05656047724187374114990234375">
        <ele>1978.199951171875</ele>
        <time>2026-06-19T10:39:27.000Z</time>
        <extensions>
          <ns3:TrackPointExtension>
            <ns3:atemp>20.0</ns3:atemp>
          </ns3:TrackPointExtension>
        </extensions>
      </trkpt>
      <trkpt lat="42.54932136274874210357666015625" lon="20.05662895739078521728515625">
        <ele>1977.199951171875</ele>
        <time>2026-06-19T10:39:28.000Z</time>
        <extensions>
          <ns3:TrackPointExtension>
            <ns3:atemp>19.0</ns3:atemp>
          </ns3:TrackPointExtension>
        </extensions>
      </trkpt>
      <trkpt lat="42.5493020005524158477783203125" lon="20.0566934980452060699462890625">
        <ele>1976.199951171875</ele>
        <time>2026-06-19T10:39:29.000Z</time>
        <extensions>
          <ns3:TrackPointExtension>
            <ns3:atemp>19.0</ns3:atemp>
          </ns3:TrackPointExtension>
        </extensions>
      </trkpt>
      <trkpt lat="42.5492771901190280914306640625" lon="20.0567498244345188140869140625">
        <ele>1975.4000244140625</ele>
        <time>2026-06-19T10:39:30.000Z</time>
        <extensions>
          <ns3:TrackPointExtension>
            <ns3:atemp>19.0</ns3:atemp>
          </ns3:TrackPointExtension>
        </extensions>
      </trkpt>
      <trkpt lat="42.5492466799914836883544921875" lon="20.0567974336445331573486328125">
        <ele>1974.4000244140625</ele>
        <time>2026-06-19T10:39:31.000Z</time>
        <extensions>
          <ns3:TrackPointExtension>
            <ns3:atemp>19.0</ns3:atemp>
          </ns3:TrackPointExtension>
        </extensions>
      </trkpt>
      <trkpt lat="42.5492225401103496551513671875" lon="20.056853592395782470703125">
        <ele>1973.4000244140625</ele>
        <time>2026-06-19T10:39:32.000Z</time>
        <extensions>
          <ns3:TrackPointExtension>
            <ns3:atemp>20.0</ns3:atemp>
          </ns3:TrackPointExtension>
        </extensions>
      </trkpt>
      <trkpt lat="42.549209296703338623046875" lon="20.05691335536539554595947265625">
        <ele>1972.199951171875</ele>
        <time>2026-06-19T10:39:33.000Z</time>
        <extensions>
          <ns3:TrackPointExtension>
            <ns3:atemp>19.0</ns3:atemp>
          </ns3:TrackPointExtension>
        </extensions>
      </trkpt>
      <trkpt lat="42.5492087937891483306884765625" lon="20.05697454325854778289794921875">
        <ele>1971.199951171875</ele>
        <time>2026-06-19T10:39:34.000Z</time>
        <extensions>
          <ns3:TrackPointExtension>
            <ns3:atemp>20.0</ns3:atemp>
          </ns3:TrackPointExtension>
        </extensions>
      </trkpt>
      <trkpt lat="42.549219019711017608642578125" lon="20.0570294447243213653564453125">
        <ele>1970.4000244140625</ele>
        <time>2026-06-19T10:39:35.000Z</time>
        <extensions>
          <ns3:TrackPointExtension>
            <ns3:atemp>20.0</ns3:atemp>
          </ns3:TrackPointExtension>
        </extensions>
      </trkpt>
      <trkpt lat="42.5492369569838047027587890625" lon="20.05706825293600559234619140625">
        <ele>1969.4000244140625</ele>
        <time>2026-06-19T10:39:36.000Z</time>
        <extensions>
          <ns3:TrackPointExtension>
            <ns3:atemp>19.0</ns3:atemp>
          </ns3:TrackPointExtension>
        </extensions>
      </trkpt>
      <trkpt lat="42.54926000721752643585205078125" lon="20.05709758959710597991943359375">
        <ele>1968.5999755859375</ele>
        <time>2026-06-19T10:39:37.000Z</time>
        <extensions>
          <ns3:TrackPointExtension>
            <ns3:atemp>19.0</ns3:atemp>
          </ns3:TrackPointExtension>
        </extensions>
      </trkpt>
      <trkpt lat="42.54928012378513813018798828125" lon="20.05712650716304779052734375">
        <ele>1967.800048828125</ele>
        <time>2026-06-19T10:39:38.000Z</time>
        <extensions>
          <ns3:TrackPointExtension>
            <ns3:atemp>19.0</ns3:atemp>
          </ns3:TrackPointExtension>
        </extensions>
      </trkpt>
      <trkpt lat="42.54929537884891033172607421875" lon="20.057144276797771453857421875">
        <ele>1967</ele>
        <time>2026-06-19T10:39:39.000Z</time>
        <extensions>
          <ns3:TrackPointExtension>
            <ns3:atemp>19.0</ns3:atemp>
          </ns3:TrackPointExtension>
        </extensions>
      </trkpt>
      <trkpt lat="42.54929470829665660858154296875" lon="20.0571441091597080230712890625">
        <ele>1966.5999755859375</ele>
        <time>2026-06-19T10:39:40.000Z</time>
        <extensions>
          <ns3:TrackPointExtension>
            <ns3:atemp>20.0</ns3:atemp>
          </ns3:TrackPointExtension>
        </extensions>
      </trkpt>
      <trkpt lat="42.5492926128208637237548828125" lon="20.057143270969390869140625">
        <ele>1966</ele>
        <time>2026-06-19T10:39:41.000Z</time>
        <extensions>
          <ns3:TrackPointExtension>
            <ns3:atemp>19.0</ns3:atemp>
          </ns3:TrackPointExtension>
        </extensions>
      </trkpt>
      <trkpt lat="42.5492926128208637237548828125" lon="20.057143270969390869140625">
        <ele>1965.800048828125</ele>
        <time>2026-06-19T10:39:42.000Z</time>
        <extensions>
          <ns3:TrackPointExtension>
            <ns3:atemp>19.0</ns3:atemp>
          </ns3:TrackPointExtension>
        </extensions>
      </trkpt>
      <trkpt lat="42.5492926128208637237548828125" lon="20.057143270969390869140625">
        <ele>1965.5999755859375</ele>
        <time>2026-06-19T10:39:43.000Z</time>
        <extensions>
          <ns3:TrackPointExtension>
            <ns3:atemp>19.0</ns3:atemp>
          </ns3:TrackPointExtension>
        </extensions>
      </trkpt>
      <trkpt lat="42.5492926128208637237548828125" lon="20.057143270969390869140625">
        <ele>1965.4000244140625</ele>
        <time>2026-06-19T10:39:44.000Z</time>
        <extensions>
          <ns3:TrackPointExtension>
            <ns3:atemp>19.0</ns3:atemp>
          </ns3:TrackPointExtension>
        </extensions>
      </trkpt>
      <trkpt lat="42.5492926128208637237548828125" lon="20.057143270969390869140625">
        <ele>1965.199951171875</ele>
        <time>2026-06-19T10:39:45.000Z</time>
        <extensions>
          <ns3:TrackPointExtension>
            <ns3:atemp>19.0</ns3:atemp>
          </ns3:TrackPointExtension>
        </extensions>
      </trkpt>
      <trkpt lat="42.5492926128208637237548828125" lon="20.057143270969390869140625">
        <ele>1965</ele>
        <time>2026-06-19T10:39:46.000Z</time>
        <extensions>
          <ns3:TrackPointExtension>
            <ns3:atemp>19.0</ns3:atemp>
          </ns3:TrackPointExtension>
        </extensions>
      </trkpt>
      <trkpt lat="42.5492926128208637237548828125" lon="20.057143270969390869140625">
        <ele>1964.800048828125</ele>
        <time>2026-06-19T10:39:47.000Z</time>
        <extensions>
          <ns3:TrackPointExtension>
            <ns3:atemp>19.0</ns3:atemp>
          </ns3:TrackPointExtension>
        </extensions>
      </trkpt>
      <trkpt lat="42.5492926128208637237548828125" lon="20.057143270969390869140625">
        <ele>1964.800048828125</ele>
        <time>2026-06-19T10:39:48.000Z</time>
        <extensions>
          <ns3:TrackPointExtension>
            <ns3:atemp>19.0</ns3:atemp>
          </ns3:TrackPointExtension>
        </extensions>
      </trkpt>
      <trkpt lat="42.5492926128208637237548828125" lon="20.057143270969390869140625">
        <ele>1964.5999755859375</ele>
        <time>2026-06-19T10:39:49.000Z</time>
        <extensions>
          <ns3:TrackPointExtension>
            <ns3:atemp>19.0</ns3:atemp>
          </ns3:TrackPointExtension>
        </extensions>
      </trkpt>
      <trkpt lat="42.5492926128208637237548828125" lon="20.057143270969390869140625">
        <ele>1964.5999755859375</ele>
        <time>2026-06-19T10:39:50.000Z</time>
        <extensions>
          <ns3:TrackPointExtension>
            <ns3:atemp>19.0</ns3:atemp>
          </ns3:TrackPointExtension>
        </extensions>
      </trkpt>
      <trkpt lat="42.5492926128208637237548828125" lon="20.057143270969390869140625">
        <ele>1964.4000244140625</ele>
        <time>2026-06-19T10:39:51.000Z</time>
        <extensions>
          <ns3:TrackPointExtension>
            <ns3:atemp>19.0</ns3:atemp>
          </ns3:TrackPointExtension>
        </extensions>
      </trkpt>
      <trkpt lat="42.5492926128208637237548828125" lon="20.057143270969390869140625">
        <ele>1964.4000244140625</ele>
        <time>2026-06-19T10:39:52.000Z</time>
        <extensions>
          <ns3:TrackPointExtension>
            <ns3:atemp>19.0</ns3:atemp>
          </ns3:TrackPointExtension>
        </extensions>
      </trkpt>
      <trkpt lat="42.5492926128208637237548828125" lon="20.057143270969390869140625">
        <ele>1964.4000244140625</ele>
        <time>2026-06-19T10:39:53.000Z</time>
        <extensions>
          <ns3:TrackPointExtension>
            <ns3:atemp>19.0</ns3:atemp>
          </ns3:TrackPointExtension>
        </extensions>
      </trkpt>
      <trkpt lat="42.5492926128208637237548828125" lon="20.057143270969390869140625">
        <ele>1964.199951171875</ele>
        <time>2026-06-19T10:39:54.000Z</time>
        <extensions>
          <ns3:TrackPointExtension>
            <ns3:atemp>19.0</ns3:atemp>
          </ns3:TrackPointExtension>
        </extensions>
      </trkpt>
      <trkpt lat="42.5492926128208637237548828125" lon="20.057143270969390869140625">
        <ele>1964.4000244140625</ele>
        <time>2026-06-19T10:39:55.000Z</time>
        <extensions>
          <ns3:TrackPointExtension>
            <ns3:atemp>19.0</ns3:atemp>
          </ns3:TrackPointExtension>
        </extensions>
      </trkpt>
      <trkpt lat="42.5492926128208637237548828125" lon="20.057143270969390869140625">
        <ele>1964.4000244140625</ele>
        <time>2026-06-19T10:39:56.000Z</time>
        <extensions>
          <ns3:TrackPointExtension>
            <ns3:atemp>19.0</ns3:atemp>
          </ns3:TrackPointExtension>
        </extensions>
      </trkpt>
      <trkpt lat="42.5492926128208637237548828125" lon="20.057143270969390869140625">
        <ele>1964.4000244140625</ele>
        <time>2026-06-19T10:39:57.000Z</time>
        <extensions>
          <ns3:TrackPointExtension>
            <ns3:atemp>19.0</ns3:atemp>
          </ns3:TrackPointExtension>
        </extensions>
      </trkpt>
      <trkpt lat="42.5492926128208637237548828125" lon="20.057143270969390869140625">
        <ele>1964.4000244140625</ele>
        <time>2026-06-19T10:39:58.000Z</time>
        <extensions>
          <ns3:TrackPointExtension>
            <ns3:atemp>19.0</ns3:atemp>
          </ns3:TrackPointExtension>
        </extensions>
      </trkpt>
      <trkpt lat="42.54929454065859317779541015625" lon="20.05714519880712032318115234375">
        <ele>1964.4000244140625</ele>
        <time>2026-06-19T10:39:59.000Z</time>
        <extensions>
          <ns3:TrackPointExtension>
            <ns3:atemp>19.0</ns3:atemp>
          </ns3:TrackPointExtension>
        </extensions>
      </trkpt>
      <trkpt lat="42.54930946044623851776123046875" lon="20.0571752898395061492919921875">
        <ele>1964.4000244140625</ele>
        <time>2026-06-19T10:40:00.000Z</time>
        <extensions>
          <ns3:TrackPointExtension>
            <ns3:atemp>19.0</ns3:atemp>
          </ns3:TrackPointExtension>
        </extensions>
      </trkpt>
      <trkpt lat="42.54932236857712268829345703125" lon="20.057195909321308135986328125">
        <ele>1964.4000244140625</ele>
        <time>2026-06-19T10:40:01.000Z</time>
        <extensions>
          <ns3:TrackPointExtension>
            <ns3:atemp>19.0</ns3:atemp>
          </ns3:TrackPointExtension>
        </extensions>
      </trkpt>
      <trkpt lat="42.54933544434607028961181640625" lon="20.057223401963710784912109375">
        <ele>1964.199951171875</ele>
        <time>2026-06-19T10:40:02.000Z</time>
        <extensions>
          <ns3:TrackPointExtension>
            <ns3:atemp>19.0</ns3:atemp>
          </ns3:TrackPointExtension>
        </extensions>
      </trkpt>
      <trkpt lat="42.5493469275534152984619140625" lon="20.05726195871829986572265625">
        <ele>1964.199951171875</ele>
        <time>2026-06-19T10:40:03.000Z</time>
        <extensions>
          <ns3:TrackPointExtension>
            <ns3:atemp>19.0</ns3:atemp>
          </ns3:TrackPointExtension>
        </extensions>
      </trkpt>
      <trkpt lat="42.549357153475284576416015625" lon="20.05729992873966693878173828125">
        <ele>1964.199951171875</ele>
        <time>2026-06-19T10:40:04.000Z</time>
        <extensions>
          <ns3:TrackPointExtension>
            <ns3:atemp>19.0</ns3:atemp>
          </ns3:TrackPointExtension>
        </extensions>
      </trkpt>
      <trkpt lat="42.5493715703487396240234375" lon="20.0573348812758922576904296875">
        <ele>1964</ele>
        <time>2026-06-19T10:40:05.000Z</time>
        <extensions>
          <ns3:TrackPointExtension>
            <ns3:atemp>19.0</ns3:atemp>
          </ns3:TrackPointExtension>
        </extensions>
      </trkpt>
      <trkpt lat="42.549387328326702117919921875" lon="20.05737016908824443817138671875">
        <ele>1963.800048828125</ele>
        <time>2026-06-19T10:40:06.000Z</time>
        <extensions>
          <ns3:TrackPointExtension>
            <ns3:atemp>19.0</ns3:atemp>
          </ns3:TrackPointExtension>
        </extensions>
      </trkpt>
      <trkpt lat="42.54939897917211055755615234375" lon="20.05740906111896038055419921875">
        <ele>1963.800048828125</ele>
        <time>2026-06-19T10:40:07.000Z</time>
        <extensions>
          <ns3:TrackPointExtension>
            <ns3:atemp>19.0</ns3:atemp>
          </ns3:TrackPointExtension>
        </extensions>
      </trkpt>
      <trkpt lat="42.5494096241891384124755859375" lon="20.05744443275034427642822265625">
        <ele>1963.5999755859375</ele>
        <time>2026-06-19T10:40:08.000Z</time>
        <extensions>
          <ns3:TrackPointExtension>
            <ns3:atemp>19.0</ns3:atemp>
          </ns3:TrackPointExtension>
        </extensions>
      </trkpt>
      <trkpt lat="42.54941859282553195953369140625" lon="20.05747745744884014129638671875">
        <ele>1963.4000244140625</ele>
        <time>2026-06-19T10:40:09.000Z</time>
        <extensions>
          <ns3:TrackPointExtension>
            <ns3:atemp>19.0</ns3:atemp>
          </ns3:TrackPointExtension>
        </extensions>
      </trkpt>
      <trkpt lat="42.5494310818612575531005859375" lon="20.0575125776231288909912109375">
        <ele>1963.4000244140625</ele>
        <time>2026-06-19T10:40:10.000Z</time>
        <extensions>
          <ns3:TrackPointExtension>
            <ns3:atemp>19.0</ns3:atemp>
          </ns3:TrackPointExtension>
        </extensions>
      </trkpt>
      <trkpt lat="42.54944457672536373138427734375" lon="20.05755163729190826416015625">
        <ele>1963.4000244140625</ele>
        <time>2026-06-19T10:40:11.000Z</time>
        <extensions>
          <ns3:TrackPointExtension>
            <ns3:atemp>19.0</ns3:atemp>
          </ns3:TrackPointExtension>
        </extensions>
      </trkpt>
      <trkpt lat="42.54945966415107250213623046875" lon="20.0575910322368144989013671875">
        <ele>1963.199951171875</ele>
        <time>2026-06-19T10:40:12.000Z</time>
        <extensions>
          <ns3:TrackPointExtension>
            <ns3:atemp>19.0</ns3:atemp>
          </ns3:TrackPointExtension>
        </extensions>
      </trkpt>
      <trkpt lat="42.54947416484355926513671875" lon="20.05763168446719646453857421875">
        <ele>1963</ele>
        <time>2026-06-19T10:40:13.000Z</time>
        <extensions>
          <ns3:TrackPointExtension>
            <ns3:atemp>19.0</ns3:atemp>
          </ns3:TrackPointExtension>
        </extensions>
      </trkpt>
      <trkpt lat="42.549493610858917236328125" lon="20.0576756894588470458984375">
        <ele>1962.800048828125</ele>
        <time>2026-06-19T10:40:14.000Z</time>
        <extensions>
          <ns3:TrackPointExtension>
            <ns3:atemp>19.0</ns3:atemp>
          </ns3:TrackPointExtension>
        </extensions>
      </trkpt>
      <trkpt lat="42.54951431415975093841552734375" lon="20.0577212870121002197265625">
        <ele>1962.5999755859375</ele>
        <time>2026-06-19T10:40:15.000Z</time>
        <extensions>
          <ns3:TrackPointExtension>
            <ns3:atemp>19.0</ns3:atemp>
          </ns3:TrackPointExtension>
        </extensions>
      </trkpt>
      <trkpt lat="42.5495360232889652252197265625" lon="20.05777400918304920196533203125">
        <ele>1962.199951171875</ele>
        <time>2026-06-19T10:40:16.000Z</time>
        <extensions>
          <ns3:TrackPointExtension>
            <ns3:atemp>19.0</ns3:atemp>
          </ns3:TrackPointExtension>
        </extensions>
      </trkpt>
      <trkpt lat="42.5495591573417186737060546875" lon="20.057831592857837677001953125">
        <ele>1962</ele>
        <time>2026-06-19T10:40:17.000Z</time>
        <extensions>
          <ns3:TrackPointExtension>
            <ns3:atemp>19.0</ns3:atemp>
          </ns3:TrackPointExtension>
        </extensions>
      </trkpt>
      <trkpt lat="42.5495781004428863525390625" lon="20.057883225381374359130859375">
        <ele>1961.5999755859375</ele>
        <time>2026-06-19T10:40:18.000Z</time>
        <extensions>
          <ns3:TrackPointExtension>
            <ns3:atemp>19.0</ns3:atemp>
          </ns3:TrackPointExtension>
        </extensions>
      </trkpt>
      <trkpt lat="42.5495941936969757080078125" lon="20.05793745629489421844482421875">
        <ele>1961.199951171875</ele>
        <time>2026-06-19T10:40:19.000Z</time>
        <extensions>
          <ns3:TrackPointExtension>
            <ns3:atemp>19.0</ns3:atemp>
          </ns3:TrackPointExtension>
        </extensions>
      </trkpt>
      <trkpt lat="42.54961120896041393280029296875" lon="20.05799026228487491607666015625">
        <ele>1960.5999755859375</ele>
        <time>2026-06-19T10:40:20.000Z</time>
        <extensions>
          <ns3:TrackPointExtension>
            <ns3:atemp>19.0</ns3:atemp>
          </ns3:TrackPointExtension>
        </extensions>
      </trkpt>
      <trkpt lat="42.54963635466992855072021484375" lon="20.05804172717034816741943359375">
        <ele>1960.199951171875</ele>
        <time>2026-06-19T10:40:21.000Z</time>
        <extensions>
          <ns3:TrackPointExtension>
            <ns3:atemp>19.0</ns3:atemp>
          </ns3:TrackPointExtension>
        </extensions>
      </trkpt>
      <trkpt lat="42.54966133274137973785400390625" lon="20.0580892525613307952880859375">
        <ele>1959.4000244140625</ele>
        <time>2026-06-19T10:40:22.000Z</time>
        <extensions>
          <ns3:TrackPointExtension>
            <ns3:atemp>19.0</ns3:atemp>
          </ns3:TrackPointExtension>
        </extensions>
      </trkpt>
      <trkpt lat="42.549689076840877532958984375" lon="20.0581385381519794464111328125">
        <ele>1958.5999755859375</ele>
        <time>2026-06-19T10:40:23.000Z</time>
        <extensions>
          <ns3:TrackPointExtension>
            <ns3:atemp>19.0</ns3:atemp>
          </ns3:TrackPointExtension>
        </extensions>
      </trkpt>
      <trkpt lat="42.5497157312929630279541015625" lon="20.05818388424813747406005859375">
        <ele>1958</ele>
        <time>2026-06-19T10:40:24.000Z</time>
        <extensions>
          <ns3:TrackPointExtension>
            <ns3:atemp>19.0</ns3:atemp>
          </ns3:TrackPointExtension>
        </extensions>
      </trkpt>
      <trkpt lat="42.54973660223186016082763671875" lon="20.0582193396985530853271484375">
        <ele>1957.199951171875</ele>
        <time>2026-06-19T10:40:25.000Z</time>
        <extensions>
          <ns3:TrackPointExtension>
            <ns3:atemp>19.0</ns3:atemp>
          </ns3:TrackPointExtension>
        </extensions>
      </trkpt>
      <trkpt lat="42.54975445568561553955078125" lon="20.05825060419738292694091796875">
        <ele>1956.4000244140625</ele>
        <time>2026-06-19T10:40:26.000Z</time>
        <extensions>
          <ns3:TrackPointExtension>
            <ns3:atemp>19.0</ns3:atemp>
          </ns3:TrackPointExtension>
        </extensions>
      </trkpt>
      <trkpt lat="42.54977247677743434906005859375" lon="20.05827960558235645294189453125">
        <ele>1955.800048828125</ele>
        <time>2026-06-19T10:40:27.000Z</time>
        <extensions>
          <ns3:TrackPointExtension>
            <ns3:atemp>19.0</ns3:atemp>
          </ns3:TrackPointExtension>
        </extensions>
      </trkpt>
      <trkpt lat="42.54979242570698261260986328125" lon="20.05831606686115264892578125">
        <ele>1955.4000244140625</ele>
        <time>2026-06-19T10:40:28.000Z</time>
        <extensions>
          <ns3:TrackPointExtension>
            <ns3:atemp>19.0</ns3:atemp>
          </ns3:TrackPointExtension>
        </extensions>
      </trkpt>
      <trkpt lat="42.549813799560070037841796875" lon="20.058357305824756622314453125">
        <ele>1955</ele>
        <time>2026-06-19T10:40:29.000Z</time>
        <extensions>
          <ns3:TrackPointExtension>
            <ns3:atemp>19.0</ns3:atemp>
          </ns3:TrackPointExtension>
        </extensions>
      </trkpt>
      <trkpt lat="42.549835257232189178466796875" lon="20.0583998858928680419921875">
        <ele>1954.5999755859375</ele>
        <time>2026-06-19T10:40:30.000Z</time>
        <extensions>
          <ns3:TrackPointExtension>
            <ns3:atemp>19.0</ns3:atemp>
          </ns3:TrackPointExtension>
        </extensions>
      </trkpt>
      <trkpt lat="42.54986451007425785064697265625" lon="20.05845017731189727783203125">
        <ele>1954.199951171875</ele>
        <time>2026-06-19T10:40:31.000Z</time>
        <extensions>
          <ns3:TrackPointExtension>
            <ns3:atemp>19.0</ns3:atemp>
          </ns3:TrackPointExtension>
        </extensions>
      </trkpt>
      <trkpt lat="42.54990600049495697021484375" lon="20.05849904380738735198974609375">
        <ele>1953.4000244140625</ele>
        <time>2026-06-19T10:40:32.000Z</time>
        <extensions>
          <ns3:TrackPointExtension>
            <ns3:atemp>19.0</ns3:atemp>
          </ns3:TrackPointExtension>
        </extensions>
      </trkpt>
      <trkpt lat="42.54994547925889492034912109375" lon="20.058538354933261871337890625">
        <ele>1952.5999755859375</ele>
        <time>2026-06-19T10:40:33.000Z</time>
        <extensions>
          <ns3:TrackPointExtension>
            <ns3:atemp>19.0</ns3:atemp>
          </ns3:TrackPointExtension>
        </extensions>
      </trkpt>
      <trkpt lat="42.54998990334570407867431640625" lon="20.0585670210421085357666015625">
        <ele>1952</ele>
        <time>2026-06-19T10:40:34.000Z</time>
        <extensions>
          <ns3:TrackPointExtension>
            <ns3:atemp>19.0</ns3:atemp>
          </ns3:TrackPointExtension>
        </extensions>
      </trkpt>
      <trkpt lat="42.55004153586924076080322265625" lon="20.0585837848484516143798828125">
        <ele>1951.199951171875</ele>
        <time>2026-06-19T10:40:35.000Z</time>
        <extensions>
          <ns3:TrackPointExtension>
            <ns3:atemp>19.0</ns3:atemp>
          </ns3:TrackPointExtension>
        </extensions>
      </trkpt>
      <trkpt lat="42.55008780397474765777587890625" lon="20.0586198270320892333984375">
        <ele>1950.5999755859375</ele>
        <time>2026-06-19T10:40:36.000Z</time>
        <extensions>
          <ns3:TrackPointExtension>
            <ns3:atemp>19.0</ns3:atemp>
          </ns3:TrackPointExtension>
        </extensions>
      </trkpt>
      <trkpt lat="42.55013130605220794677734375" lon="20.05865042097866535186767578125">
        <ele>1949.800048828125</ele>
        <time>2026-06-19T10:40:37.000Z</time>
        <extensions>
          <ns3:TrackPointExtension>
            <ns3:atemp>19.0</ns3:atemp>
          </ns3:TrackPointExtension>
        </extensions>
      </trkpt>
      <trkpt lat="42.5501696951687335968017578125" lon="20.05868009291589260101318359375">
        <ele>1949.4000244140625</ele>
        <time>2026-06-19T10:40:38.000Z</time>
        <extensions>
          <ns3:TrackPointExtension>
            <ns3:atemp>19.0</ns3:atemp>
          </ns3:TrackPointExtension>
        </extensions>
      </trkpt>
      <trkpt lat="42.5502038933336734771728515625" lon="20.05871144123375415802001953125">
        <ele>1949</ele>
        <time>2026-06-19T10:40:39.000Z</time>
        <extensions>
          <ns3:TrackPointExtension>
            <ns3:atemp>19.0</ns3:atemp>
          </ns3:TrackPointExtension>
        </extensions>
      </trkpt>
      <trkpt lat="42.55023465491831302642822265625" lon="20.05875100381672382354736328125">
        <ele>1948.5999755859375</ele>
        <time>2026-06-19T10:40:40.000Z</time>
        <extensions>
          <ns3:TrackPointExtension>
            <ns3:atemp>19.0</ns3:atemp>
          </ns3:TrackPointExtension>
        </extensions>
      </trkpt>
      <trkpt lat="42.5502701103687286376953125" lon="20.05879081785678863525390625">
        <ele>1948.199951171875</ele>
        <time>2026-06-19T10:40:41.000Z</time>
        <extensions>
          <ns3:TrackPointExtension>
            <ns3:atemp>19.0</ns3:atemp>
          </ns3:TrackPointExtension>
        </extensions>
      </trkpt>
      <trkpt lat="42.5503034703433513641357421875" lon="20.05882845260202884674072265625">
        <ele>1947.800048828125</ele>
        <time>2026-06-19T10:40:42.000Z</time>
        <extensions>
          <ns3:TrackPointExtension>
            <ns3:atemp>19.0</ns3:atemp>
          </ns3:TrackPointExtension>
        </extensions>
      </trkpt>
      <trkpt lat="42.55033641122281551361083984375" lon="20.0588773190975189208984375">
        <ele>1947</ele>
        <time>2026-06-19T10:40:43.000Z</time>
        <extensions>
          <ns3:TrackPointExtension>
            <ns3:atemp>19.0</ns3:atemp>
          </ns3:TrackPointExtension>
        </extensions>
      </trkpt>
      <trkpt lat="42.55036356858909130096435546875" lon="20.058928616344928741455078125">
        <ele>1946.4000244140625</ele>
        <time>2026-06-19T10:40:44.000Z</time>
        <extensions>
          <ns3:TrackPointExtension>
            <ns3:atemp>19.0</ns3:atemp>
          </ns3:TrackPointExtension>
        </extensions>
      </trkpt>
      <trkpt lat="42.55038770847022533416748046875" lon="20.058982931077480316162109375">
        <ele>1945.800048828125</ele>
        <time>2026-06-19T10:40:45.000Z</time>
        <extensions>
          <ns3:TrackPointExtension>
            <ns3:atemp>19.0</ns3:atemp>
          </ns3:TrackPointExtension>
        </extensions>
      </trkpt>
      <trkpt lat="42.55040497519075870513916015625" lon="20.059042610228061676025390625">
        <ele>1945.199951171875</ele>
        <time>2026-06-19T10:40:46.000Z</time>
        <extensions>
          <ns3:TrackPointExtension>
            <ns3:atemp>19.0</ns3:atemp>
          </ns3:TrackPointExtension>
        </extensions>
      </trkpt>
      <trkpt lat="42.55041503347456455230712890625" lon="20.0590957514941692352294921875">
        <ele>1944.5999755859375</ele>
        <time>2026-06-19T10:40:47.000Z</time>
        <extensions>
          <ns3:TrackPointExtension>
            <ns3:atemp>19.0</ns3:atemp>
          </ns3:TrackPointExtension>
        </extensions>
      </trkpt>
      <trkpt lat="42.5504127703607082366943359375" lon="20.05915023386478424072265625">
        <ele>1943.800048828125</ele>
        <time>2026-06-19T10:40:48.000Z</time>
        <extensions>
          <ns3:TrackPointExtension>
            <ns3:atemp>19.0</ns3:atemp>
          </ns3:TrackPointExtension>
        </extensions>
      </trkpt>
      <trkpt lat="42.5504007004201412200927734375" lon="20.05918619222939014434814453125">
        <ele>1943</ele>
        <time>2026-06-19T10:40:49.000Z</time>
        <extensions>
          <ns3:TrackPointExtension>
            <ns3:atemp>19.0</ns3:atemp>
          </ns3:TrackPointExtension>
        </extensions>
      </trkpt>
      <trkpt lat="42.55039189942181110382080078125" lon="20.05921452306210994720458984375">
        <ele>1942.4000244140625</ele>
        <time>2026-06-19T10:40:50.000Z</time>
        <extensions>
          <ns3:TrackPointExtension>
            <ns3:atemp>19.0</ns3:atemp>
          </ns3:TrackPointExtension>
        </extensions>
      </trkpt>
      <trkpt lat="42.550378739833831787109375" lon="20.05923799239099025726318359375">
        <ele>1942</ele>
        <time>2026-06-19T10:40:51.000Z</time>
        <extensions>
          <ns3:TrackPointExtension>
            <ns3:atemp>19.0</ns3:atemp>
          </ns3:TrackPointExtension>
        </extensions>
      </trkpt>
      <trkpt lat="42.55036331713199615478515625" lon="20.05925861187279224395751953125">
        <ele>1941.800048828125</ele>
        <time>2026-06-19T10:40:52.000Z</time>
        <extensions>
          <ns3:TrackPointExtension>
            <ns3:atemp>19.0</ns3:atemp>
          </ns3:TrackPointExtension>
        </extensions>
      </trkpt>
      <trkpt lat="42.55034856498241424560546875" lon="20.05928107537329196929931640625">
        <ele>1941.5999755859375</ele>
        <time>2026-06-19T10:40:53.000Z</time>
        <extensions>
          <ns3:TrackPointExtension>
            <ns3:atemp>19.0</ns3:atemp>
          </ns3:TrackPointExtension>
        </extensions>
      </trkpt>
      <trkpt lat="42.5503380037844181060791015625" lon="20.05930555053055286407470703125">
        <ele>1941.5999755859375</ele>
        <time>2026-06-19T10:40:54.000Z</time>
        <extensions>
          <ns3:TrackPointExtension>
            <ns3:atemp>19.0</ns3:atemp>
          </ns3:TrackPointExtension>
        </extensions>
      </trkpt>
      <trkpt lat="42.55032501183450222015380859375" lon="20.059326253831386566162109375">
        <ele>1941.800048828125</ele>
        <time>2026-06-19T10:40:55.000Z</time>
        <extensions>
          <ns3:TrackPointExtension>
            <ns3:atemp>19.0</ns3:atemp>
          </ns3:TrackPointExtension>
        </extensions>
      </trkpt>
      <trkpt lat="42.5503165461122989654541015625" lon="20.059345029294490814208984375">
        <ele>1941.800048828125</ele>
        <time>2026-06-19T10:40:56.000Z</time>
        <extensions>
          <ns3:TrackPointExtension>
            <ns3:atemp>19.0</ns3:atemp>
          </ns3:TrackPointExtension>
        </extensions>
      </trkpt>
      <trkpt lat="42.55030204541981220245361328125" lon="20.059362463653087615966796875">
        <ele>1941.800048828125</ele>
        <time>2026-06-19T10:40:57.000Z</time>
        <extensions>
          <ns3:TrackPointExtension>
            <ns3:atemp>19.0</ns3:atemp>
          </ns3:TrackPointExtension>
        </extensions>
      </trkpt>
      <trkpt lat="42.5502900592982769012451171875" lon="20.05939138121902942657470703125">
        <ele>1941.800048828125</ele>
        <time>2026-06-19T10:40:58.000Z</time>
        <extensions>
          <ns3:TrackPointExtension>
            <ns3:atemp>19.0</ns3:atemp>
          </ns3:TrackPointExtension>
        </extensions>
      </trkpt>
      <trkpt lat="42.55027748644351959228515625" lon="20.05942155607044696807861328125">
        <ele>1941.800048828125</ele>
        <time>2026-06-19T10:40:59.000Z</time>
        <extensions>
          <ns3:TrackPointExtension>
            <ns3:atemp>19.0</ns3:atemp>
          </ns3:TrackPointExtension>
        </extensions>
      </trkpt>
      <trkpt lat="42.55026868544518947601318359375" lon="20.05944720469415187835693359375">
        <ele>1942</ele>
        <time>2026-06-19T10:41:00.000Z</time>
        <extensions>
          <ns3:TrackPointExtension>
            <ns3:atemp>19.0</ns3:atemp>
          </ns3:TrackPointExtension>
        </extensions>
      </trkpt>
      <trkpt lat="42.55025628022849559783935546875" lon="20.0594679079949855804443359375">
        <ele>1942</ele>
        <time>2026-06-19T10:41:01.000Z</time>
        <extensions>
          <ns3:TrackPointExtension>
            <ns3:atemp>19.0</ns3:atemp>
          </ns3:TrackPointExtension>
        </extensions>
      </trkpt>
      <trkpt lat="42.5502471439540386199951171875" lon="20.059486515820026397705078125">
        <ele>1942.199951171875</ele>
        <time>2026-06-19T10:41:02.000Z</time>
        <extensions>
          <ns3:TrackPointExtension>
            <ns3:atemp>19.0</ns3:atemp>
          </ns3:TrackPointExtension>
        </extensions>
      </trkpt>
      <trkpt lat="42.55023725330829620361328125" lon="20.0595081411302089691162109375">
        <ele>1942.199951171875</ele>
        <time>2026-06-19T10:41:03.000Z</time>
        <extensions>
          <ns3:TrackPointExtension>
            <ns3:atemp>19.0</ns3:atemp>
          </ns3:TrackPointExtension>
        </extensions>
      </trkpt>
      <trkpt lat="42.5502298772335052490234375" lon="20.05953353829681873321533203125">
        <ele>1942.4000244140625</ele>
        <time>2026-06-19T10:41:04.000Z</time>
        <extensions>
          <ns3:TrackPointExtension>
            <ns3:atemp>19.0</ns3:atemp>
          </ns3:TrackPointExtension>
        </extensions>
      </trkpt>
      <trkpt lat="42.5502166338264942169189453125" lon="20.0595611147582530975341796875">
        <ele>1942.4000244140625</ele>
        <time>2026-06-19T10:41:05.000Z</time>
        <extensions>
          <ns3:TrackPointExtension>
            <ns3:atemp>19.0</ns3:atemp>
          </ns3:TrackPointExtension>
        </extensions>
      </trkpt>
      <trkpt lat="42.55020213313400745391845703125" lon="20.059605874121189117431640625">
        <ele>1942.4000244140625</ele>
        <time>2026-06-19T10:41:06.000Z</time>
        <extensions>
          <ns3:TrackPointExtension>
            <ns3:atemp>19.0</ns3:atemp>
          </ns3:TrackPointExtension>
        </extensions>
      </trkpt>
      <trkpt lat="42.55019492469727993011474609375" lon="20.05965658463537693023681640625">
        <ele>1942.199951171875</ele>
        <time>2026-06-19T10:41:07.000Z</time>
        <extensions>
          <ns3:TrackPointExtension>
            <ns3:atemp>19.0</ns3:atemp>
          </ns3:TrackPointExtension>
        </extensions>
      </trkpt>
      <trkpt lat="42.55020682699978351593017578125" lon="20.05970855243504047393798828125">
        <ele>1942</ele>
        <time>2026-06-19T10:41:08.000Z</time>
        <extensions>
          <ns3:TrackPointExtension>
            <ns3:atemp>19.0</ns3:atemp>
          </ns3:TrackPointExtension>
        </extensions>
      </trkpt>
      <trkpt lat="42.55022644065320491790771484375" lon="20.0597575865685939788818359375">
        <ele>1941.5999755859375</ele>
        <time>2026-06-19T10:41:09.000Z</time>
        <extensions>
          <ns3:TrackPointExtension>
            <ns3:atemp>19.0</ns3:atemp>
          </ns3:TrackPointExtension>
        </extensions>
      </trkpt>
      <trkpt lat="42.55024856887757778167724609375" lon="20.05980712361633777618408203125">
        <ele>1941.4000244140625</ele>
        <time>2026-06-19T10:41:10.000Z</time>
        <extensions>
          <ns3:TrackPointExtension>
            <ns3:atemp>19.0</ns3:atemp>
          </ns3:TrackPointExtension>
        </extensions>
      </trkpt>
      <trkpt lat="42.55027773790061473846435546875" lon="20.05985221825540065765380859375">
        <ele>1941.199951171875</ele>
        <time>2026-06-19T10:41:11.000Z</time>
        <extensions>
          <ns3:TrackPointExtension>
            <ns3:atemp>19.0</ns3:atemp>
          </ns3:TrackPointExtension>
        </extensions>
      </trkpt>
      <trkpt lat="42.5503232516348361968994140625" lon="20.05988591350615024566650390625">
        <ele>1941</ele>
        <time>2026-06-19T10:41:12.000Z</time>
        <extensions>
          <ns3:TrackPointExtension>
            <ns3:atemp>19.0</ns3:atemp>
          </ns3:TrackPointExtension>
        </extensions>
      </trkpt>
      <trkpt lat="42.55037228576838970184326171875" lon="20.05989479832351207733154296875">
        <ele>1940.4000244140625</ele>
        <time>2026-06-19T10:41:13.000Z</time>
        <extensions>
          <ns3:TrackPointExtension>
            <ns3:atemp>19.0</ns3:atemp>
          </ns3:TrackPointExtension>
        </extensions>
      </trkpt>
      <trkpt lat="42.5504231639206409454345703125" lon="20.05988189019262790679931640625">
        <ele>1940.199951171875</ele>
        <time>2026-06-19T10:41:14.000Z</time>
        <extensions>
          <ns3:TrackPointExtension>
            <ns3:atemp>19.0</ns3:atemp>
          </ns3:TrackPointExtension>
        </extensions>
      </trkpt>
      <trkpt lat="42.55047571845352649688720703125" lon="20.05984819494187831878662109375">
        <ele>1940</ele>
        <time>2026-06-19T10:41:15.000Z</time>
        <extensions>
          <ns3:TrackPointExtension>
            <ns3:atemp>19.0</ns3:atemp>
          </ns3:TrackPointExtension>
        </extensions>
      </trkpt>
      <trkpt lat="42.550528943538665771484375" lon="20.05980460904538631439208984375">
        <ele>1939.5999755859375</ele>
        <time>2026-06-19T10:41:16.000Z</time>
        <extensions>
          <ns3:TrackPointExtension>
            <ns3:atemp>19.0</ns3:atemp>
          </ns3:TrackPointExtension>
        </extensions>
      </trkpt>
      <trkpt lat="42.55058904178440570831298828125" lon="20.05979471839964389801025390625">
        <ele>1939.199951171875</ele>
        <time>2026-06-19T10:41:17.000Z</time>
        <extensions>
          <ns3:TrackPointExtension>
            <ns3:atemp>19.0</ns3:atemp>
          </ns3:TrackPointExtension>
        </extensions>
      </trkpt>
      <trkpt lat="42.55064553581178188323974609375" lon="20.05981064401566982269287109375">
        <ele>1938.800048828125</ele>
        <time>2026-06-19T10:41:18.000Z</time>
        <extensions>
          <ns3:TrackPointExtension>
            <ns3:atemp>19.0</ns3:atemp>
          </ns3:TrackPointExtension>
        </extensions>
      </trkpt>
      <trkpt lat="42.55070135928690433502197265625" lon="20.0598323531448841094970703125">
        <ele>1938.199951171875</ele>
        <time>2026-06-19T10:41:19.000Z</time>
        <extensions>
          <ns3:TrackPointExtension>
            <ns3:atemp>19.0</ns3:atemp>
          </ns3:TrackPointExtension>
        </extensions>
      </trkpt>
      <trkpt lat="42.55076967179775238037109375" lon="20.059835873544216156005859375">
        <ele>1937.5999755859375</ele>
        <time>2026-06-19T10:41:20.000Z</time>
        <extensions>
          <ns3:TrackPointExtension>
            <ns3:atemp>19.0</ns3:atemp>
          </ns3:TrackPointExtension>
        </extensions>
      </trkpt>
      <trkpt lat="42.55083815194666385650634765625" lon="20.05982791073620319366455078125">
        <ele>1937</ele>
        <time>2026-06-19T10:41:21.000Z</time>
        <extensions>
          <ns3:TrackPointExtension>
            <ns3:atemp>19.0</ns3:atemp>
          </ns3:TrackPointExtension>
        </extensions>
      </trkpt>
      <trkpt lat="42.5509039498865604400634765625" lon="20.05981215275824069976806640625">
        <ele>1936.4000244140625</ele>
        <time>2026-06-19T10:41:22.000Z</time>
        <extensions>
          <ns3:TrackPointExtension>
            <ns3:atemp>19.0</ns3:atemp>
          </ns3:TrackPointExtension>
        </extensions>
      </trkpt>
      <trkpt lat="42.55096756853163242340087890625" lon="20.0597971491515636444091796875">
        <ele>1935.5999755859375</ele>
        <time>2026-06-19T10:41:23.000Z</time>
        <extensions>
          <ns3:TrackPointExtension>
            <ns3:atemp>19.0</ns3:atemp>
          </ns3:TrackPointExtension>
        </extensions>
      </trkpt>
      <trkpt lat="42.55103361792862415313720703125" lon="20.05979932844638824462890625">
        <ele>1934.800048828125</ele>
        <time>2026-06-19T10:41:24.000Z</time>
        <extensions>
          <ns3:TrackPointExtension>
            <ns3:atemp>19.0</ns3:atemp>
          </ns3:TrackPointExtension>
        </extensions>
      </trkpt>
      <trkpt lat="42.551099918782711029052734375" lon="20.05981315858662128448486328125">
        <ele>1933.800048828125</ele>
        <time>2026-06-19T10:41:25.000Z</time>
        <extensions>
          <ns3:TrackPointExtension>
            <ns3:atemp>19.0</ns3:atemp>
          </ns3:TrackPointExtension>
        </extensions>
      </trkpt>
      <trkpt lat="42.55116437561810016632080078125" lon="20.059818439185619354248046875">
        <ele>1932.800048828125</ele>
        <time>2026-06-19T10:41:26.000Z</time>
        <extensions>
          <ns3:TrackPointExtension>
            <ns3:atemp>19.0</ns3:atemp>
          </ns3:TrackPointExtension>
        </extensions>
      </trkpt>
      <trkpt lat="42.55122606642544269561767578125" lon="20.0598078779876232147216796875">
        <ele>1932</ele>
        <time>2026-06-19T10:41:27.000Z</time>
        <extensions>
          <ns3:TrackPointExtension>
            <ns3:atemp>19.0</ns3:atemp>
          </ns3:TrackPointExtension>
        </extensions>
      </trkpt>
      <trkpt lat="42.55127367563545703887939453125" lon="20.05978164263069629669189453125">
        <ele>1931</ele>
        <time>2026-06-19T10:41:28.000Z</time>
        <extensions>
          <ns3:TrackPointExtension>
            <ns3:atemp>19.0</ns3:atemp>
          </ns3:TrackPointExtension>
        </extensions>
      </trkpt>
      <trkpt lat="42.551308460533618927001953125" lon="20.05975314415991306304931640625">
        <ele>1930</ele>
        <time>2026-06-19T10:41:29.000Z</time>
        <extensions>
          <ns3:TrackPointExtension>
            <ns3:atemp>19.0</ns3:atemp>
          </ns3:TrackPointExtension>
        </extensions>
      </trkpt>
      <trkpt lat="42.55134240724146366119384765625" lon="20.05974258296191692352294921875">
        <ele>1929.199951171875</ele>
        <time>2026-06-19T10:41:30.000Z</time>
        <extensions>
          <ns3:TrackPointExtension>
            <ns3:atemp>19.0</ns3:atemp>
          </ns3:TrackPointExtension>
        </extensions>
      </trkpt>
      <trkpt lat="42.5513626076281070709228515625" lon="20.059754736721515655517578125">
        <ele>1928.4000244140625</ele>
        <time>2026-06-19T10:41:31.000Z</time>
        <extensions>
          <ns3:TrackPointExtension>
            <ns3:atemp>19.0</ns3:atemp>
          </ns3:TrackPointExtension>
        </extensions>
      </trkpt>
      <trkpt lat="42.55137291736900806427001953125" lon="20.05977041088044643402099609375">
        <ele>1928</ele>
        <time>2026-06-19T10:41:32.000Z</time>
        <extensions>
          <ns3:TrackPointExtension>
            <ns3:atemp>19.0</ns3:atemp>
          </ns3:TrackPointExtension>
        </extensions>
      </trkpt>
      <trkpt lat="42.55138180218636989593505859375" lon="20.05979103036224842071533203125">
        <ele>1927.5999755859375</ele>
        <time>2026-06-19T10:41:33.000Z</time>
        <extensions>
          <ns3:TrackPointExtension>
            <ns3:atemp>19.0</ns3:atemp>
          </ns3:TrackPointExtension>
        </extensions>
      </trkpt>
      <trkpt lat="42.551387250423431396484375" lon="20.059815756976604461669921875">
        <ele>1927.199951171875</ele>
        <time>2026-06-19T10:41:34.000Z</time>
        <extensions>
          <ns3:TrackPointExtension>
            <ns3:atemp>19.0</ns3:atemp>
          </ns3:TrackPointExtension>
        </extensions>
      </trkpt>
      <trkpt lat="42.551387585699558258056640625" lon="20.05983478389680385589599609375">
        <ele>1927</ele>
        <time>2026-06-19T10:41:35.000Z</time>
        <extensions>
          <ns3:TrackPointExtension>
            <ns3:atemp>19.0</ns3:atemp>
          </ns3:TrackPointExtension>
        </extensions>
      </trkpt>
      <trkpt lat="42.55138481967151165008544921875" lon="20.05985791794955730438232421875">
        <ele>1926.800048828125</ele>
        <time>2026-06-19T10:41:36.000Z</time>
        <extensions>
          <ns3:TrackPointExtension>
            <ns3:atemp>19.0</ns3:atemp>
          </ns3:TrackPointExtension>
        </extensions>
      </trkpt>
      <trkpt lat="42.55138121545314788818359375" lon="20.05988222546875476837158203125">
        <ele>1926.5999755859375</ele>
        <time>2026-06-19T10:41:37.000Z</time>
        <extensions>
          <ns3:TrackPointExtension>
            <ns3:atemp>19.0</ns3:atemp>
          </ns3:TrackPointExtension>
        </extensions>
      </trkpt>
      <trkpt lat="42.55137291736900806427001953125" lon="20.05990368314087390899658203125">
        <ele>1926.5999755859375</ele>
        <time>2026-06-19T10:41:38.000Z</time>
        <extensions>
          <ns3:TrackPointExtension>
            <ns3:atemp>19.0</ns3:atemp>
          </ns3:TrackPointExtension>
        </extensions>
      </trkpt>
      <trkpt lat="42.55136646330356597900390625" lon="20.05992463789880275726318359375">
        <ele>1926.4000244140625</ele>
        <time>2026-06-19T10:41:39.000Z</time>
        <extensions>
          <ns3:TrackPointExtension>
            <ns3:atemp>19.0</ns3:atemp>
          </ns3:TrackPointExtension>
        </extensions>
      </trkpt>
      <trkpt lat="42.55135933868587017059326171875" lon="20.059942491352558135986328125">
        <ele>1926.4000244140625</ele>
        <time>2026-06-19T10:41:40.000Z</time>
        <extensions>
          <ns3:TrackPointExtension>
            <ns3:atemp>19.0</ns3:atemp>
          </ns3:TrackPointExtension>
        </extensions>
      </trkpt>
      <trkpt lat="42.5513495318591594696044921875" lon="20.059957243502140045166015625">
        <ele>1926.4000244140625</ele>
        <time>2026-06-19T10:41:41.000Z</time>
        <extensions>
          <ns3:TrackPointExtension>
            <ns3:atemp>19.0</ns3:atemp>
          </ns3:TrackPointExtension>
        </extensions>
      </trkpt>
      <trkpt lat="42.5513424910604953765869140625" lon="20.05996763706207275390625">
        <ele>1926.4000244140625</ele>
        <time>2026-06-19T10:41:42.000Z</time>
        <extensions>
          <ns3:TrackPointExtension>
            <ns3:atemp>19.0</ns3:atemp>
          </ns3:TrackPointExtension>
        </extensions>
      </trkpt>
      <trkpt lat="42.55133335478603839874267578125" lon="20.059982724487781524658203125">
        <ele>1926.5999755859375</ele>
        <time>2026-06-19T10:41:43.000Z</time>
        <extensions>
          <ns3:TrackPointExtension>
            <ns3:atemp>19.0</ns3:atemp>
          </ns3:TrackPointExtension>
        </extensions>
      </trkpt>
      <trkpt lat="42.5513203628361225128173828125" lon="20.06000141613185405731201171875">
        <ele>1926.5999755859375</ele>
        <time>2026-06-19T10:41:44.000Z</time>
        <extensions>
          <ns3:TrackPointExtension>
            <ns3:atemp>19.0</ns3:atemp>
          </ns3:TrackPointExtension>
        </extensions>
      </trkpt>
      <trkpt lat="42.551306448876857757568359375" lon="20.06002387963235378265380859375">
        <ele>1926.800048828125</ele>
        <time>2026-06-19T10:41:45.000Z</time>
        <extensions>
          <ns3:TrackPointExtension>
            <ns3:atemp>19.0</ns3:atemp>
          </ns3:TrackPointExtension>
        </extensions>
      </trkpt>
      <trkpt lat="42.5512942112982273101806640625" lon="20.060047768056392669677734375">
        <ele>1926.800048828125</ele>
        <time>2026-06-19T10:41:46.000Z</time>
        <extensions>
          <ns3:TrackPointExtension>
            <ns3:atemp>19.0</ns3:atemp>
          </ns3:TrackPointExtension>
        </extensions>
      </trkpt>
      <trkpt lat="42.55128406919538974761962890625" lon="20.060074590146541595458984375">
        <ele>1927</ele>
        <time>2026-06-19T10:41:47.000Z</time>
        <extensions>
          <ns3:TrackPointExtension>
            <ns3:atemp>19.0</ns3:atemp>
          </ns3:TrackPointExtension>
        </extensions>
      </trkpt>
      <trkpt lat="42.5512720830738544464111328125" lon="20.06009898148477077484130859375">
        <ele>1927</ele>
        <time>2026-06-19T10:41:48.000Z</time>
        <extensions>
          <ns3:TrackPointExtension>
            <ns3:atemp>19.0</ns3:atemp>
          </ns3:TrackPointExtension>
        </extensions>
      </trkpt>
      <trkpt lat="42.55126143805682659149169921875" lon="20.0601270608603954315185546875">
        <ele>1927</ele>
        <time>2026-06-19T10:41:49.000Z</time>
        <extensions>
          <ns3:TrackPointExtension>
            <ns3:atemp>19.0</ns3:atemp>
          </ns3:TrackPointExtension>
        </extensions>
      </trkpt>
      <trkpt lat="42.551247775554656982421875" lon="20.06015396676957607269287109375">
        <ele>1927.199951171875</ele>
        <time>2026-06-19T10:41:50.000Z</time>
        <extensions>
          <ns3:TrackPointExtension>
            <ns3:atemp>19.0</ns3:atemp>
          </ns3:TrackPointExtension>
        </extensions>
      </trkpt>
      <trkpt lat="42.55123679526150226593017578125" lon="20.0601835548877716064453125">
        <ele>1927.4000244140625</ele>
        <time>2026-06-19T10:41:51.000Z</time>
        <extensions>
          <ns3:TrackPointExtension>
            <ns3:atemp>19.0</ns3:atemp>
          </ns3:TrackPointExtension>
        </extensions>
      </trkpt>
      <trkpt lat="42.5512261502444744110107421875" lon="20.06021230481564998626708984375">
        <ele>1927.5999755859375</ele>
        <time>2026-06-19T10:41:52.000Z</time>
        <extensions>
          <ns3:TrackPointExtension>
            <ns3:atemp>19.0</ns3:atemp>
          </ns3:TrackPointExtension>
        </extensions>
      </trkpt>
      <trkpt lat="42.55121399648487567901611328125" lon="20.0602403841912746429443359375">
        <ele>1927.800048828125</ele>
        <time>2026-06-19T10:41:53.000Z</time>
        <extensions>
          <ns3:TrackPointExtension>
            <ns3:atemp>19.0</ns3:atemp>
          </ns3:TrackPointExtension>
        </extensions>
      </trkpt>
      <trkpt lat="42.5512016750872135162353515625" lon="20.060261674225330352783203125">
        <ele>1928.199951171875</ele>
        <time>2026-06-19T10:41:54.000Z</time>
        <extensions>
          <ns3:TrackPointExtension>
            <ns3:atemp>19.0</ns3:atemp>
          </ns3:TrackPointExtension>
        </extensions>
      </trkpt>
      <trkpt lat="42.551189772784709930419921875" lon="20.0602792762219905853271484375">
        <ele>1928.5999755859375</ele>
        <time>2026-06-19T10:41:55.000Z</time>
        <extensions>
          <ns3:TrackPointExtension>
            <ns3:atemp>19.0</ns3:atemp>
          </ns3:TrackPointExtension>
        </extensions>
      </trkpt>
      <trkpt lat="42.551181726157665252685546875" lon="20.06029947660863399505615234375">
        <ele>1929</ele>
        <time>2026-06-19T10:41:56.000Z</time>
        <extensions>
          <ns3:TrackPointExtension>
            <ns3:atemp>19.0</ns3:atemp>
          </ns3:TrackPointExtension>
        </extensions>
      </trkpt>
      <trkpt lat="42.5511735118925571441650390625" lon="20.0603178329765796661376953125">
        <ele>1929.4000244140625</ele>
        <time>2026-06-19T10:41:57.000Z</time>
        <extensions>
          <ns3:TrackPointExtension>
            <ns3:atemp>19.0</ns3:atemp>
          </ns3:TrackPointExtension>
        </extensions>
      </trkpt>
      <trkpt lat="42.55116236396133899688720703125" lon="20.06033384241163730621337890625">
        <ele>1929.5999755859375</ele>
        <time>2026-06-19T10:41:58.000Z</time>
        <extensions>
          <ns3:TrackPointExtension>
            <ns3:atemp>19.0</ns3:atemp>
          </ns3:TrackPointExtension>
        </extensions>
      </trkpt>
      <trkpt lat="42.5511560775339603424072265625" lon="20.06035094149410724639892578125">
        <ele>1930</ele>
        <time>2026-06-19T10:41:59.000Z</time>
        <extensions>
          <ns3:TrackPointExtension>
            <ns3:atemp>19.0</ns3:atemp>
          </ns3:TrackPointExtension>
        </extensions>
      </trkpt>
      <trkpt lat="42.55115280859172344207763671875" lon="20.06036837585270404815673828125">
        <ele>1930.4000244140625</ele>
        <time>2026-06-19T10:42:00.000Z</time>
        <extensions>
          <ns3:TrackPointExtension>
            <ns3:atemp>19.0</ns3:atemp>
          </ns3:TrackPointExtension>
        </extensions>
      </trkpt>
      <trkpt lat="42.5511476956307888031005859375" lon="20.060387067496776580810546875">
        <ele>1930.800048828125</ele>
        <time>2026-06-19T10:42:01.000Z</time>
        <extensions>
          <ns3:TrackPointExtension>
            <ns3:atemp>19.0</ns3:atemp>
          </ns3:TrackPointExtension>
        </extensions>
      </trkpt>
      <trkpt lat="42.5511403195559978485107421875" lon="20.06040961481630802154541015625">
        <ele>1931</ele>
        <time>2026-06-19T10:42:02.000Z</time>
        <extensions>
          <ns3:TrackPointExtension>
            <ns3:atemp>19.0</ns3:atemp>
          </ns3:TrackPointExtension>
        </extensions>
      </trkpt>
      <trkpt lat="42.55113269202411174774169921875" lon="20.0604303181171417236328125">
        <ele>1931.4000244140625</ele>
        <time>2026-06-19T10:42:03.000Z</time>
        <extensions>
          <ns3:TrackPointExtension>
            <ns3:atemp>19.0</ns3:atemp>
          </ns3:TrackPointExtension>
        </extensions>
      </trkpt>
      <trkpt lat="42.5511284172534942626953125" lon="20.0604506023228168487548828125">
        <ele>1931.5999755859375</ele>
        <time>2026-06-19T10:42:04.000Z</time>
        <extensions>
          <ns3:TrackPointExtension>
            <ns3:atemp>19.0</ns3:atemp>
          </ns3:TrackPointExtension>
        </extensions>
      </trkpt>
      <trkpt lat="42.55112171173095703125" lon="20.06047667004168033599853515625">
        <ele>1931.800048828125</ele>
        <time>2026-06-19T10:42:05.000Z</time>
        <extensions>
          <ns3:TrackPointExtension>
            <ns3:atemp>19.0</ns3:atemp>
          </ns3:TrackPointExtension>
        </extensions>
      </trkpt>
      <trkpt lat="42.5511145032942295074462890625" lon="20.0604998879134654998779296875">
        <ele>1932</ele>
        <time>2026-06-19T10:42:06.000Z</time>
        <extensions>
          <ns3:TrackPointExtension>
            <ns3:atemp>19.0</ns3:atemp>
          </ns3:TrackPointExtension>
        </extensions>
      </trkpt>
      <trkpt lat="42.55110871978104114532470703125" lon="20.06052679382264614105224609375">
        <ele>1932.199951171875</ele>
        <time>2026-06-19T10:42:07.000Z</time>
        <extensions>
          <ns3:TrackPointExtension>
            <ns3:atemp>19.0</ns3:atemp>
          </ns3:TrackPointExtension>
        </extensions>
      </trkpt>
      <trkpt lat="42.55109958350658416748046875" lon="20.0605521909892559051513671875">
        <ele>1932.4000244140625</ele>
        <time>2026-06-19T10:42:08.000Z</time>
        <extensions>
          <ns3:TrackPointExtension>
            <ns3:atemp>19.0</ns3:atemp>
          </ns3:TrackPointExtension>
        </extensions>
      </trkpt>
      <trkpt lat="42.5510937161743640899658203125" lon="20.06058211438357830047607421875">
        <ele>1932.5999755859375</ele>
        <time>2026-06-19T10:42:09.000Z</time>
        <extensions>
          <ns3:TrackPointExtension>
            <ns3:atemp>19.0</ns3:atemp>
          </ns3:TrackPointExtension>
        </extensions>
      </trkpt>
      <trkpt lat="42.55108885467052459716796875" lon="20.060610361397266387939453125">
        <ele>1932.800048828125</ele>
        <time>2026-06-19T10:42:10.000Z</time>
        <extensions>
          <ns3:TrackPointExtension>
            <ns3:atemp>19.0</ns3:atemp>
          </ns3:TrackPointExtension>
        </extensions>
      </trkpt>
      <trkpt lat="42.55108927376568317413330078125" lon="20.06063793785870075225830078125">
        <ele>1933</ele>
        <time>2026-06-19T10:42:11.000Z</time>
        <extensions>
          <ns3:TrackPointExtension>
            <ns3:atemp>19.0</ns3:atemp>
          </ns3:TrackPointExtension>
        </extensions>
      </trkpt>
      <trkpt lat="42.5510881841182708740234375" lon="20.0606648437678813934326171875">
        <ele>1933.199951171875</ele>
        <time>2026-06-19T10:42:12.000Z</time>
        <extensions>
          <ns3:TrackPointExtension>
            <ns3:atemp>19.0</ns3:atemp>
          </ns3:TrackPointExtension>
        </extensions>
      </trkpt>
      <trkpt lat="42.551089189946651458740234375" lon="20.06069594062864780426025390625">
        <ele>1933.199951171875</ele>
        <time>2026-06-19T10:42:13.000Z</time>
        <extensions>
          <ns3:TrackPointExtension>
            <ns3:atemp>19.0</ns3:atemp>
          </ns3:TrackPointExtension>
        </extensions>
      </trkpt>
      <trkpt lat="42.55109782330691814422607421875" lon="20.0607251934707164764404296875">
        <ele>1933.199951171875</ele>
        <time>2026-06-19T10:42:14.000Z</time>
        <extensions>
          <ns3:TrackPointExtension>
            <ns3:atemp>19.0</ns3:atemp>
          </ns3:TrackPointExtension>
        </extensions>
      </trkpt>
      <trkpt lat="42.55110486410558223724365234375" lon="20.06075880490243434906005859375">
        <ele>1933.199951171875</ele>
        <time>2026-06-19T10:42:15.000Z</time>
        <extensions>
          <ns3:TrackPointExtension>
            <ns3:atemp>19.0</ns3:atemp>
          </ns3:TrackPointExtension>
        </extensions>
      </trkpt>
      <trkpt lat="42.5511148385703563690185546875" lon="20.0607929192483425140380859375">
        <ele>1933.199951171875</ele>
        <time>2026-06-19T10:42:16.000Z</time>
        <extensions>
          <ns3:TrackPointExtension>
            <ns3:atemp>19.0</ns3:atemp>
          </ns3:TrackPointExtension>
        </extensions>
      </trkpt>
      <trkpt lat="42.55112363956868648529052734375" lon="20.06082569248974323272705078125">
        <ele>1933</ele>
        <time>2026-06-19T10:42:17.000Z</time>
        <extensions>
          <ns3:TrackPointExtension>
            <ns3:atemp>19.0</ns3:atemp>
          </ns3:TrackPointExtension>
        </extensions>
      </trkpt>
      <trkpt lat="42.551130764186382293701171875" lon="20.06085854955017566680908203125">
        <ele>1932.5999755859375</ele>
        <time>2026-06-19T10:42:18.000Z</time>
        <extensions>
          <ns3:TrackPointExtension>
            <ns3:atemp>19.0</ns3:atemp>
          </ns3:TrackPointExtension>
        </extensions>
      </trkpt>
      <trkpt lat="42.5511391460895538330078125" lon="20.06088553927838802337646484375">
        <ele>1932.4000244140625</ele>
        <time>2026-06-19T10:42:19.000Z</time>
        <extensions>
          <ns3:TrackPointExtension>
            <ns3:atemp>19.0</ns3:atemp>
          </ns3:TrackPointExtension>
        </extensions>
      </trkpt>
      <trkpt lat="42.55114710889756679534912109375" lon="20.06091110408306121826171875">
        <ele>1932</ele>
        <time>2026-06-19T10:42:20.000Z</time>
        <extensions>
          <ns3:TrackPointExtension>
            <ns3:atemp>19.0</ns3:atemp>
          </ns3:TrackPointExtension>
        </extensions>
      </trkpt>
      <trkpt lat="42.5511574186384677886962890625" lon="20.06093130446970462799072265625">
        <ele>1931.800048828125</ele>
        <time>2026-06-19T10:42:21.000Z</time>
        <extensions>
          <ns3:TrackPointExtension>
            <ns3:atemp>19.0</ns3:atemp>
          </ns3:TrackPointExtension>
        </extensions>
      </trkpt>
      <trkpt lat="42.5511664710938930511474609375" lon="20.06094136275351047515869140625">
        <ele>1931.5999755859375</ele>
        <time>2026-06-19T10:42:22.000Z</time>
        <extensions>
          <ns3:TrackPointExtension>
            <ns3:atemp>19.0</ns3:atemp>
          </ns3:TrackPointExtension>
        </extensions>
      </trkpt>
      <trkpt lat="42.551172338426113128662109375" lon="20.0609350763261318206787109375">
        <ele>1931.4000244140625</ele>
        <time>2026-06-19T10:42:23.000Z</time>
        <extensions>
          <ns3:TrackPointExtension>
            <ns3:atemp>19.0</ns3:atemp>
          </ns3:TrackPointExtension>
        </extensions>
      </trkpt>
      <trkpt lat="42.55117376334965229034423828125" lon="20.06093323230743408203125">
        <ele>1931.199951171875</ele>
        <time>2026-06-19T10:42:24.000Z</time>
        <extensions>
          <ns3:TrackPointExtension>
            <ns3:atemp>19.0</ns3:atemp>
          </ns3:TrackPointExtension>
        </extensions>
      </trkpt>
      <trkpt lat="42.55117376334965229034423828125" lon="20.06093323230743408203125">
        <ele>1931.199951171875</ele>
        <time>2026-06-19T10:42:25.000Z</time>
        <extensions>
          <ns3:TrackPointExtension>
            <ns3:atemp>19.0</ns3:atemp>
          </ns3:TrackPointExtension>
        </extensions>
      </trkpt>
      <trkpt lat="42.55117376334965229034423828125" lon="20.06093323230743408203125">
        <ele>1931.199951171875</ele>
        <time>2026-06-19T10:42:26.000Z</time>
        <extensions>
          <ns3:TrackPointExtension>
            <ns3:atemp>19.0</ns3:atemp>
          </ns3:TrackPointExtension>
        </extensions>
      </trkpt>
      <trkpt lat="42.55117376334965229034423828125" lon="20.06093323230743408203125">
        <ele>1931.199951171875</ele>
        <time>2026-06-19T10:42:27.000Z</time>
        <extensions>
          <ns3:TrackPointExtension>
            <ns3:atemp>19.0</ns3:atemp>
          </ns3:TrackPointExtension>
        </extensions>
      </trkpt>
      <trkpt lat="42.55117376334965229034423828125" lon="20.06093323230743408203125">
        <ele>1931</ele>
        <time>2026-06-19T10:42:28.000Z</time>
        <extensions>
          <ns3:TrackPointExtension>
            <ns3:atemp>19.0</ns3:atemp>
          </ns3:TrackPointExtension>
        </extensions>
      </trkpt>
      <trkpt lat="42.55117376334965229034423828125" lon="20.06093323230743408203125">
        <ele>1931</ele>
        <time>2026-06-19T10:42:29.000Z</time>
        <extensions>
          <ns3:TrackPointExtension>
            <ns3:atemp>19.0</ns3:atemp>
          </ns3:TrackPointExtension>
        </extensions>
      </trkpt>
      <trkpt lat="42.55117376334965229034423828125" lon="20.06093323230743408203125">
        <ele>1930.800048828125</ele>
        <time>2026-06-19T10:42:30.000Z</time>
        <extensions>
          <ns3:TrackPointExtension>
            <ns3:atemp>19.0</ns3:atemp>
          </ns3:TrackPointExtension>
        </extensions>
      </trkpt>
      <trkpt lat="42.55117376334965229034423828125" lon="20.06093323230743408203125">
        <ele>1930.5999755859375</ele>
        <time>2026-06-19T10:42:31.000Z</time>
        <extensions>
          <ns3:TrackPointExtension>
            <ns3:atemp>19.0</ns3:atemp>
          </ns3:TrackPointExtension>
        </extensions>
      </trkpt>
      <trkpt lat="42.55117376334965229034423828125" lon="20.06093323230743408203125">
        <ele>1930.5999755859375</ele>
        <time>2026-06-19T10:42:32.000Z</time>
        <extensions>
          <ns3:TrackPointExtension>
            <ns3:atemp>19.0</ns3:atemp>
          </ns3:TrackPointExtension>
        </extensions>
      </trkpt>
      <trkpt lat="42.55117376334965229034423828125" lon="20.06093323230743408203125">
        <ele>1930.5999755859375</ele>
        <time>2026-06-19T10:42:33.000Z</time>
        <extensions>
          <ns3:TrackPointExtension>
            <ns3:atemp>19.0</ns3:atemp>
          </ns3:TrackPointExtension>
        </extensions>
      </trkpt>
      <trkpt lat="42.55117376334965229034423828125" lon="20.06093323230743408203125">
        <ele>1930.4000244140625</ele>
        <time>2026-06-19T10:42:34.000Z</time>
        <extensions>
          <ns3:TrackPointExtension>
            <ns3:atemp>19.0</ns3:atemp>
          </ns3:TrackPointExtension>
        </extensions>
      </trkpt>
      <trkpt lat="42.55117376334965229034423828125" lon="20.06093323230743408203125">
        <ele>1930.4000244140625</ele>
        <time>2026-06-19T10:42:35.000Z</time>
        <extensions>
          <ns3:TrackPointExtension>
            <ns3:atemp>19.0</ns3:atemp>
          </ns3:TrackPointExtension>
        </extensions>
      </trkpt>
      <trkpt lat="42.55117376334965229034423828125" lon="20.06093323230743408203125">
        <ele>1930.4000244140625</ele>
        <time>2026-06-19T10:42:36.000Z</time>
        <extensions>
          <ns3:TrackPointExtension>
            <ns3:atemp>19.0</ns3:atemp>
          </ns3:TrackPointExtension>
        </extensions>
      </trkpt>
      <trkpt lat="42.55117376334965229034423828125" lon="20.06093323230743408203125">
        <ele>1930.4000244140625</ele>
        <time>2026-06-19T10:42:37.000Z</time>
        <extensions>
          <ns3:TrackPointExtension>
            <ns3:atemp>19.0</ns3:atemp>
          </ns3:TrackPointExtension>
        </extensions>
      </trkpt>
      <trkpt lat="42.55117376334965229034423828125" lon="20.06093323230743408203125">
        <ele>1930.199951171875</ele>
        <time>2026-06-19T10:42:38.000Z</time>
        <extensions>
          <ns3:TrackPointExtension>
            <ns3:atemp>19.0</ns3:atemp>
          </ns3:TrackPointExtension>
        </extensions>
      </trkpt>
      <trkpt lat="42.55117376334965229034423828125" lon="20.06093323230743408203125">
        <ele>1930.199951171875</ele>
        <time>2026-06-19T10:42:39.000Z</time>
        <extensions>
          <ns3:TrackPointExtension>
            <ns3:atemp>19.0</ns3:atemp>
          </ns3:TrackPointExtension>
        </extensions>
      </trkpt>
      <trkpt lat="42.55117376334965229034423828125" lon="20.06093323230743408203125">
        <ele>1930.199951171875</ele>
        <time>2026-06-19T10:42:40.000Z</time>
        <extensions>
          <ns3:TrackPointExtension>
            <ns3:atemp>19.0</ns3:atemp>
          </ns3:TrackPointExtension>
        </extensions>
      </trkpt>
      <trkpt lat="42.55117376334965229034423828125" lon="20.06093323230743408203125">
        <ele>1930.199951171875</ele>
        <time>2026-06-19T10:42:41.000Z</time>
        <extensions>
          <ns3:TrackPointExtension>
            <ns3:atemp>19.0</ns3:atemp>
          </ns3:TrackPointExtension>
        </extensions>
      </trkpt>
      <trkpt lat="42.55117376334965229034423828125" lon="20.06093323230743408203125">
        <ele>1930.199951171875</ele>
        <time>2026-06-19T10:42:42.000Z</time>
        <extensions>
          <ns3:TrackPointExtension>
            <ns3:atemp>19.0</ns3:atemp>
          </ns3:TrackPointExtension>
        </extensions>
      </trkpt>
      <trkpt lat="42.55117376334965229034423828125" lon="20.06093323230743408203125">
        <ele>1930.199951171875</ele>
        <time>2026-06-19T10:42:43.000Z</time>
        <extensions>
          <ns3:TrackPointExtension>
            <ns3:atemp>19.0</ns3:atemp>
          </ns3:TrackPointExtension>
        </extensions>
      </trkpt>
      <trkpt lat="42.55117376334965229034423828125" lon="20.06093323230743408203125">
        <ele>1930.199951171875</ele>
        <time>2026-06-19T10:42:44.000Z</time>
        <extensions>
          <ns3:TrackPointExtension>
            <ns3:atemp>19.0</ns3:atemp>
          </ns3:TrackPointExtension>
        </extensions>
      </trkpt>
      <trkpt lat="42.55117376334965229034423828125" lon="20.06093323230743408203125">
        <ele>1930.199951171875</ele>
        <time>2026-06-19T10:42:45.000Z</time>
        <extensions>
          <ns3:TrackPointExtension>
            <ns3:atemp>19.0</ns3:atemp>
          </ns3:TrackPointExtension>
        </extensions>
      </trkpt>
      <trkpt lat="42.55117376334965229034423828125" lon="20.06093323230743408203125">
        <ele>1930.199951171875</ele>
        <time>2026-06-19T10:42:46.000Z</time>
        <extensions>
          <ns3:TrackPointExtension>
            <ns3:atemp>19.0</ns3:atemp>
          </ns3:TrackPointExtension>
        </extensions>
      </trkpt>
      <trkpt lat="42.55117376334965229034423828125" lon="20.06093323230743408203125">
        <ele>1930</ele>
        <time>2026-06-19T10:42:47.000Z</time>
        <extensions>
          <ns3:TrackPointExtension>
            <ns3:atemp>19.0</ns3:atemp>
          </ns3:TrackPointExtension>
        </extensions>
      </trkpt>
      <trkpt lat="42.55117376334965229034423828125" lon="20.06093323230743408203125">
        <ele>1930</ele>
        <time>2026-06-19T10:42:48.000Z</time>
        <extensions>
          <ns3:TrackPointExtension>
            <ns3:atemp>19.0</ns3:atemp>
          </ns3:TrackPointExtension>
        </extensions>
      </trkpt>
      <trkpt lat="42.55117376334965229034423828125" lon="20.06093323230743408203125">
        <ele>1930</ele>
        <time>2026-06-19T10:42:49.000Z</time>
        <extensions>
          <ns3:TrackPointExtension>
            <ns3:atemp>19.0</ns3:atemp>
          </ns3:TrackPointExtension>
        </extensions>
      </trkpt>
      <trkpt lat="42.55117376334965229034423828125" lon="20.06093323230743408203125">
        <ele>1930</ele>
        <time>2026-06-19T10:42:50.000Z</time>
        <extensions>
          <ns3:TrackPointExtension>
            <ns3:atemp>19.0</ns3:atemp>
          </ns3:TrackPointExtension>
        </extensions>
      </trkpt>
      <trkpt lat="42.55117376334965229034423828125" lon="20.06093323230743408203125">
        <ele>1930</ele>
        <time>2026-06-19T10:42:51.000Z</time>
        <extensions>
          <ns3:TrackPointExtension>
            <ns3:atemp>19.0</ns3:atemp>
          </ns3:TrackPointExtension>
        </extensions>
      </trkpt>
      <trkpt lat="42.55117376334965229034423828125" lon="20.06093323230743408203125">
        <ele>1930</ele>
        <time>2026-06-19T10:42:52.000Z</time>
        <extensions>
          <ns3:TrackPointExtension>
            <ns3:atemp>19.0</ns3:atemp>
          </ns3:TrackPointExtension>
        </extensions>
      </trkpt>
      <trkpt lat="42.55117376334965229034423828125" lon="20.06093323230743408203125">
        <ele>1930</ele>
        <time>2026-06-19T10:42:53.000Z</time>
        <extensions>
          <ns3:TrackPointExtension>
            <ns3:atemp>19.0</ns3:atemp>
          </ns3:TrackPointExtension>
        </extensions>
      </trkpt>
      <trkpt lat="42.55117376334965229034423828125" lon="20.06093323230743408203125">
        <ele>1930</ele>
        <time>2026-06-19T10:42:54.000Z</time>
        <extensions>
          <ns3:TrackPointExtension>
            <ns3:atemp>19.0</ns3:atemp>
          </ns3:TrackPointExtension>
        </extensions>
      </trkpt>
      <trkpt lat="42.55117376334965229034423828125" lon="20.06093323230743408203125">
        <ele>1930</ele>
        <time>2026-06-19T10:42:55.000Z</time>
        <extensions>
          <ns3:TrackPointExtension>
            <ns3:atemp>19.0</ns3:atemp>
          </ns3:TrackPointExtension>
        </extensions>
      </trkpt>
      <trkpt lat="42.55117376334965229034423828125" lon="20.06093323230743408203125">
        <ele>1930</ele>
        <time>2026-06-19T10:42:56.000Z</time>
        <extensions>
          <ns3:TrackPointExtension>
            <ns3:atemp>19.0</ns3:atemp>
          </ns3:TrackPointExtension>
        </extensions>
      </trkpt>
      <trkpt lat="42.55117376334965229034423828125" lon="20.06093323230743408203125">
        <ele>1930</ele>
        <time>2026-06-19T10:42:57.000Z</time>
        <extensions>
          <ns3:TrackPointExtension>
            <ns3:atemp>19.0</ns3:atemp>
          </ns3:TrackPointExtension>
        </extensions>
      </trkpt>
      <trkpt lat="42.55117376334965229034423828125" lon="20.06093323230743408203125">
        <ele>1929.800048828125</ele>
        <time>2026-06-19T10:42:58.000Z</time>
        <extensions>
          <ns3:TrackPointExtension>
            <ns3:atemp>19.0</ns3:atemp>
          </ns3:TrackPointExtension>
        </extensions>
      </trkpt>
      <trkpt lat="42.55117376334965229034423828125" lon="20.06093323230743408203125">
        <ele>1929.800048828125</ele>
        <time>2026-06-19T10:42:59.000Z</time>
        <extensions>
          <ns3:TrackPointExtension>
            <ns3:atemp>19.0</ns3:atemp>
          </ns3:TrackPointExtension>
        </extensions>
      </trkpt>
      <trkpt lat="42.55117376334965229034423828125" lon="20.06093323230743408203125">
        <ele>1930</ele>
        <time>2026-06-19T10:43:00.000Z</time>
        <extensions>
          <ns3:TrackPointExtension>
            <ns3:atemp>19.0</ns3:atemp>
          </ns3:TrackPointExtension>
        </extensions>
      </trkpt>
      <trkpt lat="42.55117376334965229034423828125" lon="20.06093323230743408203125">
        <ele>1930</ele>
        <time>2026-06-19T10:43:01.000Z</time>
        <extensions>
          <ns3:TrackPointExtension>
            <ns3:atemp>19.0</ns3:atemp>
          </ns3:TrackPointExtension>
        </extensions>
      </trkpt>
      <trkpt lat="42.55117376334965229034423828125" lon="20.06093323230743408203125">
        <ele>1930</ele>
        <time>2026-06-19T10:43:02.000Z</time>
        <extensions>
          <ns3:TrackPointExtension>
            <ns3:atemp>19.0</ns3:atemp>
          </ns3:TrackPointExtension>
        </extensions>
      </trkpt>
      <trkpt lat="42.55117376334965229034423828125" lon="20.06093323230743408203125">
        <ele>1930</ele>
        <time>2026-06-19T10:43:03.000Z</time>
        <extensions>
          <ns3:TrackPointExtension>
            <ns3:atemp>19.0</ns3:atemp>
          </ns3:TrackPointExtension>
        </extensions>
      </trkpt>
      <trkpt lat="42.55117376334965229034423828125" lon="20.06093323230743408203125">
        <ele>1930</ele>
        <time>2026-06-19T10:43:04.000Z</time>
        <extensions>
          <ns3:TrackPointExtension>
            <ns3:atemp>19.0</ns3:atemp>
          </ns3:TrackPointExtension>
        </extensions>
      </trkpt>
      <trkpt lat="42.55117376334965229034423828125" lon="20.06093323230743408203125">
        <ele>1929.800048828125</ele>
        <time>2026-06-19T10:43:05.000Z</time>
        <extensions>
          <ns3:TrackPointExtension>
            <ns3:atemp>19.0</ns3:atemp>
          </ns3:TrackPointExtension>
        </extensions>
      </trkpt>
      <trkpt lat="42.55117376334965229034423828125" lon="20.06093323230743408203125">
        <ele>1929.800048828125</ele>
        <time>2026-06-19T10:43:06.000Z</time>
        <extensions>
          <ns3:TrackPointExtension>
            <ns3:atemp>19.0</ns3:atemp>
          </ns3:TrackPointExtension>
        </extensions>
      </trkpt>
      <trkpt lat="42.55117376334965229034423828125" lon="20.06093323230743408203125">
        <ele>1929.800048828125</ele>
        <time>2026-06-19T10:43:07.000Z</time>
        <extensions>
          <ns3:TrackPointExtension>
            <ns3:atemp>19.0</ns3:atemp>
          </ns3:TrackPointExtension>
        </extensions>
      </trkpt>
      <trkpt lat="42.55117376334965229034423828125" lon="20.06093323230743408203125">
        <ele>1929.800048828125</ele>
        <time>2026-06-19T10:43:08.000Z</time>
        <extensions>
          <ns3:TrackPointExtension>
            <ns3:atemp>19.0</ns3:atemp>
          </ns3:TrackPointExtension>
        </extensions>
      </trkpt>
      <trkpt lat="42.55117376334965229034423828125" lon="20.06093323230743408203125">
        <ele>1929.800048828125</ele>
        <time>2026-06-19T10:43:09.000Z</time>
        <extensions>
          <ns3:TrackPointExtension>
            <ns3:atemp>19.0</ns3:atemp>
          </ns3:TrackPointExtension>
        </extensions>
      </trkpt>
      <trkpt lat="42.55117376334965229034423828125" lon="20.06093323230743408203125">
        <ele>1929.800048828125</ele>
        <time>2026-06-19T10:43:10.000Z</time>
        <extensions>
          <ns3:TrackPointExtension>
            <ns3:atemp>19.0</ns3:atemp>
          </ns3:TrackPointExtension>
        </extensions>
      </trkpt>
      <trkpt lat="42.55117376334965229034423828125" lon="20.06093323230743408203125">
        <ele>1929.800048828125</ele>
        <time>2026-06-19T10:43:11.000Z</time>
        <extensions>
          <ns3:TrackPointExtension>
            <ns3:atemp>19.0</ns3:atemp>
          </ns3:TrackPointExtension>
        </extensions>
      </trkpt>
      <trkpt lat="42.55117376334965229034423828125" lon="20.06093323230743408203125">
        <ele>1929.800048828125</ele>
        <time>2026-06-19T10:43:12.000Z</time>
        <extensions>
          <ns3:TrackPointExtension>
            <ns3:atemp>19.0</ns3:atemp>
          </ns3:TrackPointExtension>
        </extensions>
      </trkpt>
      <trkpt lat="42.55117376334965229034423828125" lon="20.06093323230743408203125">
        <ele>1929.800048828125</ele>
        <time>2026-06-19T10:43:13.000Z</time>
        <extensions>
          <ns3:TrackPointExtension>
            <ns3:atemp>19.0</ns3:atemp>
          </ns3:TrackPointExtension>
        </extensions>
      </trkpt>
      <trkpt lat="42.55117376334965229034423828125" lon="20.06093323230743408203125">
        <ele>1929.800048828125</ele>
        <time>2026-06-19T10:43:14.000Z</time>
        <extensions>
          <ns3:TrackPointExtension>
            <ns3:atemp>19.0</ns3:atemp>
          </ns3:TrackPointExtension>
        </extensions>
      </trkpt>
      <trkpt lat="42.55117376334965229034423828125" lon="20.06093323230743408203125">
        <ele>1929.800048828125</ele>
        <time>2026-06-19T10:43:15.000Z</time>
        <extensions>
          <ns3:TrackPointExtension>
            <ns3:atemp>19.0</ns3:atemp>
          </ns3:TrackPointExtension>
        </extensions>
      </trkpt>
      <trkpt lat="42.55117376334965229034423828125" lon="20.06093323230743408203125">
        <ele>1929.800048828125</ele>
        <time>2026-06-19T10:43:16.000Z</time>
        <extensions>
          <ns3:TrackPointExtension>
            <ns3:atemp>19.0</ns3:atemp>
          </ns3:TrackPointExtension>
        </extensions>
      </trkpt>
      <trkpt lat="42.55117376334965229034423828125" lon="20.06093323230743408203125">
        <ele>1929.800048828125</ele>
        <time>2026-06-19T10:43:17.000Z</time>
        <extensions>
          <ns3:TrackPointExtension>
            <ns3:atemp>19.0</ns3:atemp>
          </ns3:TrackPointExtension>
        </extensions>
      </trkpt>
      <trkpt lat="42.55117376334965229034423828125" lon="20.06093323230743408203125">
        <ele>1929.800048828125</ele>
        <time>2026-06-19T10:43:18.000Z</time>
        <extensions>
          <ns3:TrackPointExtension>
            <ns3:atemp>19.0</ns3:atemp>
          </ns3:TrackPointExtension>
        </extensions>
      </trkpt>
      <trkpt lat="42.55117376334965229034423828125" lon="20.06093323230743408203125">
        <ele>1929.800048828125</ele>
        <time>2026-06-19T10:43:19.000Z</time>
        <extensions>
          <ns3:TrackPointExtension>
            <ns3:atemp>19.0</ns3:atemp>
          </ns3:TrackPointExtension>
        </extensions>
      </trkpt>
      <trkpt lat="42.55117376334965229034423828125" lon="20.06093323230743408203125">
        <ele>1929.800048828125</ele>
        <time>2026-06-19T10:43:20.000Z</time>
        <extensions>
          <ns3:TrackPointExtension>
            <ns3:atemp>19.0</ns3:atemp>
          </ns3:TrackPointExtension>
        </extensions>
      </trkpt>
      <trkpt lat="42.55117376334965229034423828125" lon="20.06093323230743408203125">
        <ele>1929.800048828125</ele>
        <time>2026-06-19T10:43:21.000Z</time>
        <extensions>
          <ns3:TrackPointExtension>
            <ns3:atemp>19.0</ns3:atemp>
          </ns3:TrackPointExtension>
        </extensions>
      </trkpt>
      <trkpt lat="42.55117376334965229034423828125" lon="20.06093323230743408203125">
        <ele>1929.800048828125</ele>
        <time>2026-06-19T10:43:22.000Z</time>
        <extensions>
          <ns3:TrackPointExtension>
            <ns3:atemp>19.0</ns3:atemp>
          </ns3:TrackPointExtension>
        </extensions>
      </trkpt>
      <trkpt lat="42.55117376334965229034423828125" lon="20.06093323230743408203125">
        <ele>1929.800048828125</ele>
        <time>2026-06-19T10:43:23.000Z</time>
        <extensions>
          <ns3:TrackPointExtension>
            <ns3:atemp>19.0</ns3:atemp>
          </ns3:TrackPointExtension>
        </extensions>
      </trkpt>
      <trkpt lat="42.55117376334965229034423828125" lon="20.06093323230743408203125">
        <ele>1929.800048828125</ele>
        <time>2026-06-19T10:43:24.000Z</time>
        <extensions>
          <ns3:TrackPointExtension>
            <ns3:atemp>19.0</ns3:atemp>
          </ns3:TrackPointExtension>
        </extensions>
      </trkpt>
      <trkpt lat="42.55117376334965229034423828125" lon="20.06093323230743408203125">
        <ele>1929.800048828125</ele>
        <time>2026-06-19T10:43:25.000Z</time>
        <extensions>
          <ns3:TrackPointExtension>
            <ns3:atemp>19.0</ns3:atemp>
          </ns3:TrackPointExtension>
        </extensions>
      </trkpt>
      <trkpt lat="42.55117376334965229034423828125" lon="20.06093323230743408203125">
        <ele>1929.800048828125</ele>
        <time>2026-06-19T10:43:26.000Z</time>
        <extensions>
          <ns3:TrackPointExtension>
            <ns3:atemp>19.0</ns3:atemp>
          </ns3:TrackPointExtension>
        </extensions>
      </trkpt>
      <trkpt lat="42.55117376334965229034423828125" lon="20.06093323230743408203125">
        <ele>1929.800048828125</ele>
        <time>2026-06-19T10:43:27.000Z</time>
        <extensions>
          <ns3:TrackPointExtension>
            <ns3:atemp>19.0</ns3:atemp>
          </ns3:TrackPointExtension>
        </extensions>
      </trkpt>
      <trkpt lat="42.55117376334965229034423828125" lon="20.06093323230743408203125">
        <ele>1929.800048828125</ele>
        <time>2026-06-19T10:43:28.000Z</time>
        <extensions>
          <ns3:TrackPointExtension>
            <ns3:atemp>19.0</ns3:atemp>
          </ns3:TrackPointExtension>
        </extensions>
      </trkpt>
      <trkpt lat="42.55117376334965229034423828125" lon="20.06093323230743408203125">
        <ele>1929.5999755859375</ele>
        <time>2026-06-19T10:43:29.000Z</time>
        <extensions>
          <ns3:TrackPointExtension>
            <ns3:atemp>19.0</ns3:atemp>
          </ns3:TrackPointExtension>
        </extensions>
      </trkpt>
      <trkpt lat="42.55117376334965229034423828125" lon="20.06093323230743408203125">
        <ele>1929.5999755859375</ele>
        <time>2026-06-19T10:43:30.000Z</time>
        <extensions>
          <ns3:TrackPointExtension>
            <ns3:atemp>19.0</ns3:atemp>
          </ns3:TrackPointExtension>
        </extensions>
      </trkpt>
      <trkpt lat="42.55117376334965229034423828125" lon="20.06093323230743408203125">
        <ele>1929.5999755859375</ele>
        <time>2026-06-19T10:43:31.000Z</time>
        <extensions>
          <ns3:TrackPointExtension>
            <ns3:atemp>19.0</ns3:atemp>
          </ns3:TrackPointExtension>
        </extensions>
      </trkpt>
      <trkpt lat="42.55117376334965229034423828125" lon="20.06093323230743408203125">
        <ele>1929.5999755859375</ele>
        <time>2026-06-19T10:43:32.000Z</time>
        <extensions>
          <ns3:TrackPointExtension>
            <ns3:atemp>19.0</ns3:atemp>
          </ns3:TrackPointExtension>
        </extensions>
      </trkpt>
      <trkpt lat="42.55117376334965229034423828125" lon="20.06093323230743408203125">
        <ele>1929.5999755859375</ele>
        <time>2026-06-19T10:43:33.000Z</time>
        <extensions>
          <ns3:TrackPointExtension>
            <ns3:atemp>19.0</ns3:atemp>
          </ns3:TrackPointExtension>
        </extensions>
      </trkpt>
      <trkpt lat="42.55117376334965229034423828125" lon="20.06093323230743408203125">
        <ele>1929.5999755859375</ele>
        <time>2026-06-19T10:43:34.000Z</time>
        <extensions>
          <ns3:TrackPointExtension>
            <ns3:atemp>19.0</ns3:atemp>
          </ns3:TrackPointExtension>
        </extensions>
      </trkpt>
      <trkpt lat="42.55117376334965229034423828125" lon="20.06093323230743408203125">
        <ele>1929.5999755859375</ele>
        <time>2026-06-19T10:43:35.000Z</time>
        <extensions>
          <ns3:TrackPointExtension>
            <ns3:atemp>19.0</ns3:atemp>
          </ns3:TrackPointExtension>
        </extensions>
      </trkpt>
      <trkpt lat="42.55117376334965229034423828125" lon="20.06093323230743408203125">
        <ele>1929.5999755859375</ele>
        <time>2026-06-19T10:43:36.000Z</time>
        <extensions>
          <ns3:TrackPointExtension>
            <ns3:atemp>19.0</ns3:atemp>
          </ns3:TrackPointExtension>
        </extensions>
      </trkpt>
      <trkpt lat="42.55117376334965229034423828125" lon="20.06093323230743408203125">
        <ele>1929.5999755859375</ele>
        <time>2026-06-19T10:43:37.000Z</time>
        <extensions>
          <ns3:TrackPointExtension>
            <ns3:atemp>19.0</ns3:atemp>
          </ns3:TrackPointExtension>
        </extensions>
      </trkpt>
      <trkpt lat="42.55117376334965229034423828125" lon="20.06093323230743408203125">
        <ele>1929.5999755859375</ele>
        <time>2026-06-19T10:43:38.000Z</time>
        <extensions>
          <ns3:TrackPointExtension>
            <ns3:atemp>19.0</ns3:atemp>
          </ns3:TrackPointExtension>
        </extensions>
      </trkpt>
      <trkpt lat="42.55117376334965229034423828125" lon="20.06093323230743408203125">
        <ele>1929.5999755859375</ele>
        <time>2026-06-19T10:43:39.000Z</time>
        <extensions>
          <ns3:TrackPointExtension>
            <ns3:atemp>19.0</ns3:atemp>
          </ns3:TrackPointExtension>
        </extensions>
      </trkpt>
      <trkpt lat="42.55117376334965229034423828125" lon="20.06093323230743408203125">
        <ele>1929.5999755859375</ele>
        <time>2026-06-19T10:43:40.000Z</time>
        <extensions>
          <ns3:TrackPointExtension>
            <ns3:atemp>19.0</ns3:atemp>
          </ns3:TrackPointExtension>
        </extensions>
      </trkpt>
      <trkpt lat="42.55117376334965229034423828125" lon="20.06093323230743408203125">
        <ele>1929.5999755859375</ele>
        <time>2026-06-19T10:43:41.000Z</time>
        <extensions>
          <ns3:TrackPointExtension>
            <ns3:atemp>19.0</ns3:atemp>
          </ns3:TrackPointExtension>
        </extensions>
      </trkpt>
      <trkpt lat="42.55117376334965229034423828125" lon="20.06093323230743408203125">
        <ele>1929.5999755859375</ele>
        <time>2026-06-19T10:43:42.000Z</time>
        <extensions>
          <ns3:TrackPointExtension>
            <ns3:atemp>19.0</ns3:atemp>
          </ns3:TrackPointExtension>
        </extensions>
      </trkpt>
      <trkpt lat="42.55117376334965229034423828125" lon="20.06093323230743408203125">
        <ele>1929.5999755859375</ele>
        <time>2026-06-19T10:43:43.000Z</time>
        <extensions>
          <ns3:TrackPointExtension>
            <ns3:atemp>19.0</ns3:atemp>
          </ns3:TrackPointExtension>
        </extensions>
      </trkpt>
      <trkpt lat="42.55117376334965229034423828125" lon="20.06093323230743408203125">
        <ele>1929.5999755859375</ele>
        <time>2026-06-19T10:43:44.000Z</time>
        <extensions>
          <ns3:TrackPointExtension>
            <ns3:atemp>19.0</ns3:atemp>
          </ns3:TrackPointExtension>
        </extensions>
      </trkpt>
      <trkpt lat="42.55117376334965229034423828125" lon="20.06093323230743408203125">
        <ele>1929.5999755859375</ele>
        <time>2026-06-19T10:43:45.000Z</time>
        <extensions>
          <ns3:TrackPointExtension>
            <ns3:atemp>19.0</ns3:atemp>
          </ns3:TrackPointExtension>
        </extensions>
      </trkpt>
      <trkpt lat="42.55117376334965229034423828125" lon="20.06093323230743408203125">
        <ele>1929.5999755859375</ele>
        <time>2026-06-19T10:43:46.000Z</time>
        <extensions>
          <ns3:TrackPointExtension>
            <ns3:atemp>19.0</ns3:atemp>
          </ns3:TrackPointExtension>
        </extensions>
      </trkpt>
      <trkpt lat="42.55117376334965229034423828125" lon="20.06093323230743408203125">
        <ele>1929.800048828125</ele>
        <time>2026-06-19T10:43:47.000Z</time>
        <extensions>
          <ns3:TrackPointExtension>
            <ns3:atemp>19.0</ns3:atemp>
          </ns3:TrackPointExtension>
        </extensions>
      </trkpt>
      <trkpt lat="42.55117376334965229034423828125" lon="20.06093323230743408203125">
        <ele>1929.800048828125</ele>
        <time>2026-06-19T10:43:48.000Z</time>
        <extensions>
          <ns3:TrackPointExtension>
            <ns3:atemp>19.0</ns3:atemp>
          </ns3:TrackPointExtension>
        </extensions>
      </trkpt>
      <trkpt lat="42.55117376334965229034423828125" lon="20.06093323230743408203125">
        <ele>1929.800048828125</ele>
        <time>2026-06-19T10:43:49.000Z</time>
        <extensions>
          <ns3:TrackPointExtension>
            <ns3:atemp>19.0</ns3:atemp>
          </ns3:TrackPointExtension>
        </extensions>
      </trkpt>
      <trkpt lat="42.55117376334965229034423828125" lon="20.06093323230743408203125">
        <ele>1929.800048828125</ele>
        <time>2026-06-19T10:43:50.000Z</time>
        <extensions>
          <ns3:TrackPointExtension>
            <ns3:atemp>19.0</ns3:atemp>
          </ns3:TrackPointExtension>
        </extensions>
      </trkpt>
      <trkpt lat="42.55117376334965229034423828125" lon="20.06093323230743408203125">
        <ele>1929.800048828125</ele>
        <time>2026-06-19T10:43:51.000Z</time>
        <extensions>
          <ns3:TrackPointExtension>
            <ns3:atemp>19.0</ns3:atemp>
          </ns3:TrackPointExtension>
        </extensions>
      </trkpt>
      <trkpt lat="42.55117376334965229034423828125" lon="20.06093323230743408203125">
        <ele>1929.800048828125</ele>
        <time>2026-06-19T10:43:52.000Z</time>
        <extensions>
          <ns3:TrackPointExtension>
            <ns3:atemp>19.0</ns3:atemp>
          </ns3:TrackPointExtension>
        </extensions>
      </trkpt>
      <trkpt lat="42.55117376334965229034423828125" lon="20.06093323230743408203125">
        <ele>1929.800048828125</ele>
        <time>2026-06-19T10:43:53.000Z</time>
        <extensions>
          <ns3:TrackPointExtension>
            <ns3:atemp>19.0</ns3:atemp>
          </ns3:TrackPointExtension>
        </extensions>
      </trkpt>
      <trkpt lat="42.55117376334965229034423828125" lon="20.06093323230743408203125">
        <ele>1929.800048828125</ele>
        <time>2026-06-19T10:43:54.000Z</time>
        <extensions>
          <ns3:TrackPointExtension>
            <ns3:atemp>19.0</ns3:atemp>
          </ns3:TrackPointExtension>
        </extensions>
      </trkpt>
      <trkpt lat="42.55117376334965229034423828125" lon="20.06093323230743408203125">
        <ele>1929.800048828125</ele>
        <time>2026-06-19T10:43:55.000Z</time>
        <extensions>
          <ns3:TrackPointExtension>
            <ns3:atemp>19.0</ns3:atemp>
          </ns3:TrackPointExtension>
        </extensions>
      </trkpt>
      <trkpt lat="42.55117376334965229034423828125" lon="20.06093323230743408203125">
        <ele>1929.800048828125</ele>
        <time>2026-06-19T10:43:56.000Z</time>
        <extensions>
          <ns3:TrackPointExtension>
            <ns3:atemp>19.0</ns3:atemp>
          </ns3:TrackPointExtension>
        </extensions>
      </trkpt>
      <trkpt lat="42.55117376334965229034423828125" lon="20.06093323230743408203125">
        <ele>1929.800048828125</ele>
        <time>2026-06-19T10:43:57.000Z</time>
        <extensions>
          <ns3:TrackPointExtension>
            <ns3:atemp>19.0</ns3:atemp>
          </ns3:TrackPointExtension>
        </extensions>
      </trkpt>
      <trkpt lat="42.55117376334965229034423828125" lon="20.06093323230743408203125">
        <ele>1929.5999755859375</ele>
        <time>2026-06-19T10:43:58.000Z</time>
        <extensions>
          <ns3:TrackPointExtension>
            <ns3:atemp>19.0</ns3:atemp>
          </ns3:TrackPointExtension>
        </extensions>
      </trkpt>
      <trkpt lat="42.55117376334965229034423828125" lon="20.06093323230743408203125">
        <ele>1929.5999755859375</ele>
        <time>2026-06-19T10:43:59.000Z</time>
        <extensions>
          <ns3:TrackPointExtension>
            <ns3:atemp>19.0</ns3:atemp>
          </ns3:TrackPointExtension>
        </extensions>
      </trkpt>
      <trkpt lat="42.55117376334965229034423828125" lon="20.06093323230743408203125">
        <ele>1929.5999755859375</ele>
        <time>2026-06-19T10:44:00.000Z</time>
        <extensions>
          <ns3:TrackPointExtension>
            <ns3:atemp>19.0</ns3:atemp>
          </ns3:TrackPointExtension>
        </extensions>
      </trkpt>
      <trkpt lat="42.55117376334965229034423828125" lon="20.06093323230743408203125">
        <ele>1929.5999755859375</ele>
        <time>2026-06-19T10:44:01.000Z</time>
        <extensions>
          <ns3:TrackPointExtension>
            <ns3:atemp>19.0</ns3:atemp>
          </ns3:TrackPointExtension>
        </extensions>
      </trkpt>
      <trkpt lat="42.55117376334965229034423828125" lon="20.06093323230743408203125">
        <ele>1929.5999755859375</ele>
        <time>2026-06-19T10:44:02.000Z</time>
        <extensions>
          <ns3:TrackPointExtension>
            <ns3:atemp>19.0</ns3:atemp>
          </ns3:TrackPointExtension>
        </extensions>
      </trkpt>
      <trkpt lat="42.55117376334965229034423828125" lon="20.06093323230743408203125">
        <ele>1929.5999755859375</ele>
        <time>2026-06-19T10:44:03.000Z</time>
        <extensions>
          <ns3:TrackPointExtension>
            <ns3:atemp>19.0</ns3:atemp>
          </ns3:TrackPointExtension>
        </extensions>
      </trkpt>
      <trkpt lat="42.55117376334965229034423828125" lon="20.06093323230743408203125">
        <ele>1929.5999755859375</ele>
        <time>2026-06-19T10:44:04.000Z</time>
        <extensions>
          <ns3:TrackPointExtension>
            <ns3:atemp>19.0</ns3:atemp>
          </ns3:TrackPointExtension>
        </extensions>
      </trkpt>
      <trkpt lat="42.55117376334965229034423828125" lon="20.06093323230743408203125">
        <ele>1929.5999755859375</ele>
        <time>2026-06-19T10:44:05.000Z</time>
        <extensions>
          <ns3:TrackPointExtension>
            <ns3:atemp>19.0</ns3:atemp>
          </ns3:TrackPointExtension>
        </extensions>
      </trkpt>
      <trkpt lat="42.55117376334965229034423828125" lon="20.06093323230743408203125">
        <ele>1929.5999755859375</ele>
        <time>2026-06-19T10:44:06.000Z</time>
        <extensions>
          <ns3:TrackPointExtension>
            <ns3:atemp>19.0</ns3:atemp>
          </ns3:TrackPointExtension>
        </extensions>
      </trkpt>
      <trkpt lat="42.55117376334965229034423828125" lon="20.06093323230743408203125">
        <ele>1929.5999755859375</ele>
        <time>2026-06-19T10:44:07.000Z</time>
        <extensions>
          <ns3:TrackPointExtension>
            <ns3:atemp>19.0</ns3:atemp>
          </ns3:TrackPointExtension>
        </extensions>
      </trkpt>
      <trkpt lat="42.55117376334965229034423828125" lon="20.06093323230743408203125">
        <ele>1929.5999755859375</ele>
        <time>2026-06-19T10:44:08.000Z</time>
        <extensions>
          <ns3:TrackPointExtension>
            <ns3:atemp>19.0</ns3:atemp>
          </ns3:TrackPointExtension>
        </extensions>
      </trkpt>
      <trkpt lat="42.55117376334965229034423828125" lon="20.06093323230743408203125">
        <ele>1929.5999755859375</ele>
        <time>2026-06-19T10:44:09.000Z</time>
        <extensions>
          <ns3:TrackPointExtension>
            <ns3:atemp>19.0</ns3:atemp>
          </ns3:TrackPointExtension>
        </extensions>
      </trkpt>
      <trkpt lat="42.55117376334965229034423828125" lon="20.06093323230743408203125">
        <ele>1929.5999755859375</ele>
        <time>2026-06-19T10:44:10.000Z</time>
        <extensions>
          <ns3:TrackPointExtension>
            <ns3:atemp>19.0</ns3:atemp>
          </ns3:TrackPointExtension>
        </extensions>
      </trkpt>
      <trkpt lat="42.55117376334965229034423828125" lon="20.06093323230743408203125">
        <ele>1929.5999755859375</ele>
        <time>2026-06-19T10:44:11.000Z</time>
        <extensions>
          <ns3:TrackPointExtension>
            <ns3:atemp>19.0</ns3:atemp>
          </ns3:TrackPointExtension>
        </extensions>
      </trkpt>
      <trkpt lat="42.55117376334965229034423828125" lon="20.06093323230743408203125">
        <ele>1929.5999755859375</ele>
        <time>2026-06-19T10:44:12.000Z</time>
        <extensions>
          <ns3:TrackPointExtension>
            <ns3:atemp>19.0</ns3:atemp>
          </ns3:TrackPointExtension>
        </extensions>
      </trkpt>
      <trkpt lat="42.55117376334965229034423828125" lon="20.06093323230743408203125">
        <ele>1929.5999755859375</ele>
        <time>2026-06-19T10:44:13.000Z</time>
        <extensions>
          <ns3:TrackPointExtension>
            <ns3:atemp>19.0</ns3:atemp>
          </ns3:TrackPointExtension>
        </extensions>
      </trkpt>
      <trkpt lat="42.55117376334965229034423828125" lon="20.06093323230743408203125">
        <ele>1929.5999755859375</ele>
        <time>2026-06-19T10:44:14.000Z</time>
        <extensions>
          <ns3:TrackPointExtension>
            <ns3:atemp>19.0</ns3:atemp>
          </ns3:TrackPointExtension>
        </extensions>
      </trkpt>
      <trkpt lat="42.55117376334965229034423828125" lon="20.06093323230743408203125">
        <ele>1929.800048828125</ele>
        <time>2026-06-19T10:44:15.000Z</time>
        <extensions>
          <ns3:TrackPointExtension>
            <ns3:atemp>19.0</ns3:atemp>
          </ns3:TrackPointExtension>
        </extensions>
      </trkpt>
      <trkpt lat="42.55117376334965229034423828125" lon="20.06093323230743408203125">
        <ele>1929.800048828125</ele>
        <time>2026-06-19T10:44:16.000Z</time>
        <extensions>
          <ns3:TrackPointExtension>
            <ns3:atemp>19.0</ns3:atemp>
          </ns3:TrackPointExtension>
        </extensions>
      </trkpt>
      <trkpt lat="42.55117376334965229034423828125" lon="20.06093323230743408203125">
        <ele>1929.800048828125</ele>
        <time>2026-06-19T10:44:17.000Z</time>
        <extensions>
          <ns3:TrackPointExtension>
            <ns3:atemp>19.0</ns3:atemp>
          </ns3:TrackPointExtension>
        </extensions>
      </trkpt>
      <trkpt lat="42.55117376334965229034423828125" lon="20.06093323230743408203125">
        <ele>1929.800048828125</ele>
        <time>2026-06-19T10:44:18.000Z</time>
        <extensions>
          <ns3:TrackPointExtension>
            <ns3:atemp>19.0</ns3:atemp>
          </ns3:TrackPointExtension>
        </extensions>
      </trkpt>
      <trkpt lat="42.55117376334965229034423828125" lon="20.06093323230743408203125">
        <ele>1929.800048828125</ele>
        <time>2026-06-19T10:44:19.000Z</time>
        <extensions>
          <ns3:TrackPointExtension>
            <ns3:atemp>19.0</ns3:atemp>
          </ns3:TrackPointExtension>
        </extensions>
      </trkpt>
      <trkpt lat="42.55117376334965229034423828125" lon="20.06093323230743408203125">
        <ele>1929.800048828125</ele>
        <time>2026-06-19T10:44:20.000Z</time>
        <extensions>
          <ns3:TrackPointExtension>
            <ns3:atemp>19.0</ns3:atemp>
          </ns3:TrackPointExtension>
        </extensions>
      </trkpt>
      <trkpt lat="42.55117376334965229034423828125" lon="20.06093323230743408203125">
        <ele>1929.800048828125</ele>
        <time>2026-06-19T10:44:21.000Z</time>
        <extensions>
          <ns3:TrackPointExtension>
            <ns3:atemp>19.0</ns3:atemp>
          </ns3:TrackPointExtension>
        </extensions>
      </trkpt>
      <trkpt lat="42.55117376334965229034423828125" lon="20.06093323230743408203125">
        <ele>1929.800048828125</ele>
        <time>2026-06-19T10:44:22.000Z</time>
        <extensions>
          <ns3:TrackPointExtension>
            <ns3:atemp>19.0</ns3:atemp>
          </ns3:TrackPointExtension>
        </extensions>
      </trkpt>
      <trkpt lat="42.55117376334965229034423828125" lon="20.06093323230743408203125">
        <ele>1929.800048828125</ele>
        <time>2026-06-19T10:44:23.000Z</time>
        <extensions>
          <ns3:TrackPointExtension>
            <ns3:atemp>19.0</ns3:atemp>
          </ns3:TrackPointExtension>
        </extensions>
      </trkpt>
      <trkpt lat="42.55117376334965229034423828125" lon="20.06093323230743408203125">
        <ele>1929.800048828125</ele>
        <time>2026-06-19T10:44:24.000Z</time>
        <extensions>
          <ns3:TrackPointExtension>
            <ns3:atemp>19.0</ns3:atemp>
          </ns3:TrackPointExtension>
        </extensions>
      </trkpt>
      <trkpt lat="42.55117376334965229034423828125" lon="20.06093323230743408203125">
        <ele>1929.800048828125</ele>
        <time>2026-06-19T10:44:25.000Z</time>
        <extensions>
          <ns3:TrackPointExtension>
            <ns3:atemp>19.0</ns3:atemp>
          </ns3:TrackPointExtension>
        </extensions>
      </trkpt>
      <trkpt lat="42.55117376334965229034423828125" lon="20.06093323230743408203125">
        <ele>1929.800048828125</ele>
        <time>2026-06-19T10:44:26.000Z</time>
        <extensions>
          <ns3:TrackPointExtension>
            <ns3:atemp>19.0</ns3:atemp>
          </ns3:TrackPointExtension>
        </extensions>
      </trkpt>
      <trkpt lat="42.55117376334965229034423828125" lon="20.06093323230743408203125">
        <ele>1929.800048828125</ele>
        <time>2026-06-19T10:44:27.000Z</time>
        <extensions>
          <ns3:TrackPointExtension>
            <ns3:atemp>19.0</ns3:atemp>
          </ns3:TrackPointExtension>
        </extensions>
      </trkpt>
      <trkpt lat="42.55117376334965229034423828125" lon="20.06093323230743408203125">
        <ele>1929.800048828125</ele>
        <time>2026-06-19T10:44:28.000Z</time>
        <extensions>
          <ns3:TrackPointExtension>
            <ns3:atemp>19.0</ns3:atemp>
          </ns3:TrackPointExtension>
        </extensions>
      </trkpt>
      <trkpt lat="42.55117376334965229034423828125" lon="20.06093323230743408203125">
        <ele>1929.800048828125</ele>
        <time>2026-06-19T10:44:29.000Z</time>
        <extensions>
          <ns3:TrackPointExtension>
            <ns3:atemp>19.0</ns3:atemp>
          </ns3:TrackPointExtension>
        </extensions>
      </trkpt>
      <trkpt lat="42.55117376334965229034423828125" lon="20.06093323230743408203125">
        <ele>1929.800048828125</ele>
        <time>2026-06-19T10:44:30.000Z</time>
        <extensions>
          <ns3:TrackPointExtension>
            <ns3:atemp>19.0</ns3:atemp>
          </ns3:TrackPointExtension>
        </extensions>
      </trkpt>
      <trkpt lat="42.55117376334965229034423828125" lon="20.06093323230743408203125">
        <ele>1929.800048828125</ele>
        <time>2026-06-19T10:44:31.000Z</time>
        <extensions>
          <ns3:TrackPointExtension>
            <ns3:atemp>19.0</ns3:atemp>
          </ns3:TrackPointExtension>
        </extensions>
      </trkpt>
      <trkpt lat="42.55117376334965229034423828125" lon="20.06093323230743408203125">
        <ele>1929.800048828125</ele>
        <time>2026-06-19T10:44:32.000Z</time>
        <extensions>
          <ns3:TrackPointExtension>
            <ns3:atemp>19.0</ns3:atemp>
          </ns3:TrackPointExtension>
        </extensions>
      </trkpt>
      <trkpt lat="42.55117376334965229034423828125" lon="20.06093323230743408203125">
        <ele>1929.800048828125</ele>
        <time>2026-06-19T10:44:33.000Z</time>
        <extensions>
          <ns3:TrackPointExtension>
            <ns3:atemp>19.0</ns3:atemp>
          </ns3:TrackPointExtension>
        </extensions>
      </trkpt>
      <trkpt lat="42.55117376334965229034423828125" lon="20.06093323230743408203125">
        <ele>1929.800048828125</ele>
        <time>2026-06-19T10:44:34.000Z</time>
        <extensions>
          <ns3:TrackPointExtension>
            <ns3:atemp>19.0</ns3:atemp>
          </ns3:TrackPointExtension>
        </extensions>
      </trkpt>
      <trkpt lat="42.55117376334965229034423828125" lon="20.06093323230743408203125">
        <ele>1929.800048828125</ele>
        <time>2026-06-19T10:44:35.000Z</time>
        <extensions>
          <ns3:TrackPointExtension>
            <ns3:atemp>19.0</ns3:atemp>
          </ns3:TrackPointExtension>
        </extensions>
      </trkpt>
      <trkpt lat="42.55117376334965229034423828125" lon="20.06093323230743408203125">
        <ele>1929.800048828125</ele>
        <time>2026-06-19T10:44:36.000Z</time>
        <extensions>
          <ns3:TrackPointExtension>
            <ns3:atemp>19.0</ns3:atemp>
          </ns3:TrackPointExtension>
        </extensions>
      </trkpt>
      <trkpt lat="42.55117376334965229034423828125" lon="20.06093323230743408203125">
        <ele>1929.800048828125</ele>
        <time>2026-06-19T10:44:37.000Z</time>
        <extensions>
          <ns3:TrackPointExtension>
            <ns3:atemp>19.0</ns3:atemp>
          </ns3:TrackPointExtension>
        </extensions>
      </trkpt>
      <trkpt lat="42.55117376334965229034423828125" lon="20.06093323230743408203125">
        <ele>1929.800048828125</ele>
        <time>2026-06-19T10:44:38.000Z</time>
        <extensions>
          <ns3:TrackPointExtension>
            <ns3:atemp>19.0</ns3:atemp>
          </ns3:TrackPointExtension>
        </extensions>
      </trkpt>
      <trkpt lat="42.55117376334965229034423828125" lon="20.06093323230743408203125">
        <ele>1929.800048828125</ele>
        <time>2026-06-19T10:44:39.000Z</time>
        <extensions>
          <ns3:TrackPointExtension>
            <ns3:atemp>19.0</ns3:atemp>
          </ns3:TrackPointExtension>
        </extensions>
      </trkpt>
      <trkpt lat="42.55117376334965229034423828125" lon="20.06093323230743408203125">
        <ele>1929.800048828125</ele>
        <time>2026-06-19T10:44:40.000Z</time>
        <extensions>
          <ns3:TrackPointExtension>
            <ns3:atemp>19.0</ns3:atemp>
          </ns3:TrackPointExtension>
        </extensions>
      </trkpt>
      <trkpt lat="42.55117376334965229034423828125" lon="20.06093323230743408203125">
        <ele>1929.800048828125</ele>
        <time>2026-06-19T10:44:41.000Z</time>
        <extensions>
          <ns3:TrackPointExtension>
            <ns3:atemp>19.0</ns3:atemp>
          </ns3:TrackPointExtension>
        </extensions>
      </trkpt>
      <trkpt lat="42.55117376334965229034423828125" lon="20.06093323230743408203125">
        <ele>1929.800048828125</ele>
        <time>2026-06-19T10:44:42.000Z</time>
        <extensions>
          <ns3:TrackPointExtension>
            <ns3:atemp>19.0</ns3:atemp>
          </ns3:TrackPointExtension>
        </extensions>
      </trkpt>
      <trkpt lat="42.55117376334965229034423828125" lon="20.06093323230743408203125">
        <ele>1929.800048828125</ele>
        <time>2026-06-19T10:44:43.000Z</time>
        <extensions>
          <ns3:TrackPointExtension>
            <ns3:atemp>19.0</ns3:atemp>
          </ns3:TrackPointExtension>
        </extensions>
      </trkpt>
      <trkpt lat="42.55117376334965229034423828125" lon="20.06093323230743408203125">
        <ele>1929.800048828125</ele>
        <time>2026-06-19T10:44:44.000Z</time>
        <extensions>
          <ns3:TrackPointExtension>
            <ns3:atemp>19.0</ns3:atemp>
          </ns3:TrackPointExtension>
        </extensions>
      </trkpt>
      <trkpt lat="42.55117376334965229034423828125" lon="20.06093323230743408203125">
        <ele>1929.800048828125</ele>
        <time>2026-06-19T10:44:45.000Z</time>
        <extensions>
          <ns3:TrackPointExtension>
            <ns3:atemp>19.0</ns3:atemp>
          </ns3:TrackPointExtension>
        </extensions>
      </trkpt>
      <trkpt lat="42.55117376334965229034423828125" lon="20.06093323230743408203125">
        <ele>1929.800048828125</ele>
        <time>2026-06-19T10:44:46.000Z</time>
        <extensions>
          <ns3:TrackPointExtension>
            <ns3:atemp>19.0</ns3:atemp>
          </ns3:TrackPointExtension>
        </extensions>
      </trkpt>
      <trkpt lat="42.55117376334965229034423828125" lon="20.06093323230743408203125">
        <ele>1929.800048828125</ele>
        <time>2026-06-19T10:44:47.000Z</time>
        <extensions>
          <ns3:TrackPointExtension>
            <ns3:atemp>19.0</ns3:atemp>
          </ns3:TrackPointExtension>
        </extensions>
      </trkpt>
      <trkpt lat="42.55117376334965229034423828125" lon="20.06093323230743408203125">
        <ele>1929.800048828125</ele>
        <time>2026-06-19T10:44:48.000Z</time>
        <extensions>
          <ns3:TrackPointExtension>
            <ns3:atemp>19.0</ns3:atemp>
          </ns3:TrackPointExtension>
        </extensions>
      </trkpt>
      <trkpt lat="42.55117376334965229034423828125" lon="20.06093323230743408203125">
        <ele>1929.800048828125</ele>
        <time>2026-06-19T10:44:49.000Z</time>
        <extensions>
          <ns3:TrackPointExtension>
            <ns3:atemp>19.0</ns3:atemp>
          </ns3:TrackPointExtension>
        </extensions>
      </trkpt>
      <trkpt lat="42.55117376334965229034423828125" lon="20.06093323230743408203125">
        <ele>1929.800048828125</ele>
        <time>2026-06-19T10:44:50.000Z</time>
        <extensions>
          <ns3:TrackPointExtension>
            <ns3:atemp>19.0</ns3:atemp>
          </ns3:TrackPointExtension>
        </extensions>
      </trkpt>
      <trkpt lat="42.55117376334965229034423828125" lon="20.06093323230743408203125">
        <ele>1929.800048828125</ele>
        <time>2026-06-19T10:44:51.000Z</time>
        <extensions>
          <ns3:TrackPointExtension>
            <ns3:atemp>19.0</ns3:atemp>
          </ns3:TrackPointExtension>
        </extensions>
      </trkpt>
      <trkpt lat="42.55117376334965229034423828125" lon="20.06093323230743408203125">
        <ele>1929.800048828125</ele>
        <time>2026-06-19T10:44:52.000Z</time>
        <extensions>
          <ns3:TrackPointExtension>
            <ns3:atemp>19.0</ns3:atemp>
          </ns3:TrackPointExtension>
        </extensions>
      </trkpt>
      <trkpt lat="42.55117376334965229034423828125" lon="20.06093323230743408203125">
        <ele>1929.800048828125</ele>
        <time>2026-06-19T10:44:53.000Z</time>
        <extensions>
          <ns3:TrackPointExtension>
            <ns3:atemp>19.0</ns3:atemp>
          </ns3:TrackPointExtension>
        </extensions>
      </trkpt>
      <trkpt lat="42.55117326043546199798583984375" lon="20.06093398667871952056884765625">
        <ele>1929.800048828125</ele>
        <time>2026-06-19T10:44:54.000Z</time>
        <extensions>
          <ns3:TrackPointExtension>
            <ns3:atemp>19.0</ns3:atemp>
          </ns3:TrackPointExtension>
        </extensions>
      </trkpt>
      <trkpt lat="42.55117376334965229034423828125" lon="20.06093323230743408203125">
        <ele>1929.800048828125</ele>
        <time>2026-06-19T10:44:55.000Z</time>
        <extensions>
          <ns3:TrackPointExtension>
            <ns3:atemp>19.0</ns3:atemp>
          </ns3:TrackPointExtension>
        </extensions>
      </trkpt>
      <trkpt lat="42.55117376334965229034423828125" lon="20.06093323230743408203125">
        <ele>1929.800048828125</ele>
        <time>2026-06-19T10:44:56.000Z</time>
        <extensions>
          <ns3:TrackPointExtension>
            <ns3:atemp>19.0</ns3:atemp>
          </ns3:TrackPointExtension>
        </extensions>
      </trkpt>
      <trkpt lat="42.55117376334965229034423828125" lon="20.06093323230743408203125">
        <ele>1929.800048828125</ele>
        <time>2026-06-19T10:44:57.000Z</time>
        <extensions>
          <ns3:TrackPointExtension>
            <ns3:atemp>19.0</ns3:atemp>
          </ns3:TrackPointExtension>
        </extensions>
      </trkpt>
      <trkpt lat="42.55117376334965229034423828125" lon="20.06093323230743408203125">
        <ele>1929.800048828125</ele>
        <time>2026-06-19T10:44:58.000Z</time>
        <extensions>
          <ns3:TrackPointExtension>
            <ns3:atemp>19.0</ns3:atemp>
          </ns3:TrackPointExtension>
        </extensions>
      </trkpt>
      <trkpt lat="42.55117376334965229034423828125" lon="20.06093323230743408203125">
        <ele>1929.800048828125</ele>
        <time>2026-06-19T10:44:59.000Z</time>
        <extensions>
          <ns3:TrackPointExtension>
            <ns3:atemp>19.0</ns3:atemp>
          </ns3:TrackPointExtension>
        </extensions>
      </trkpt>
      <trkpt lat="42.55117376334965229034423828125" lon="20.06093323230743408203125">
        <ele>1929.800048828125</ele>
        <time>2026-06-19T10:45:00.000Z</time>
        <extensions>
          <ns3:TrackPointExtension>
            <ns3:atemp>19.0</ns3:atemp>
          </ns3:TrackPointExtension>
        </extensions>
      </trkpt>
      <trkpt lat="42.55117376334965229034423828125" lon="20.06093323230743408203125">
        <ele>1929.800048828125</ele>
        <time>2026-06-19T10:45:01.000Z</time>
        <extensions>
          <ns3:TrackPointExtension>
            <ns3:atemp>19.0</ns3:atemp>
          </ns3:TrackPointExtension>
        </extensions>
      </trkpt>
      <trkpt lat="42.55117376334965229034423828125" lon="20.06093323230743408203125">
        <ele>1929.800048828125</ele>
        <time>2026-06-19T10:45:02.000Z</time>
        <extensions>
          <ns3:TrackPointExtension>
            <ns3:atemp>19.0</ns3:atemp>
          </ns3:TrackPointExtension>
        </extensions>
      </trkpt>
      <trkpt lat="42.55117376334965229034423828125" lon="20.06093323230743408203125">
        <ele>1929.800048828125</ele>
        <time>2026-06-19T10:45:03.000Z</time>
        <extensions>
          <ns3:TrackPointExtension>
            <ns3:atemp>19.0</ns3:atemp>
          </ns3:TrackPointExtension>
        </extensions>
      </trkpt>
      <trkpt lat="42.55117376334965229034423828125" lon="20.06093323230743408203125">
        <ele>1929.800048828125</ele>
        <time>2026-06-19T10:45:04.000Z</time>
        <extensions>
          <ns3:TrackPointExtension>
            <ns3:atemp>19.0</ns3:atemp>
          </ns3:TrackPointExtension>
        </extensions>
      </trkpt>
      <trkpt lat="42.55117376334965229034423828125" lon="20.06093323230743408203125">
        <ele>1929.800048828125</ele>
        <time>2026-06-19T10:45:05.000Z</time>
        <extensions>
          <ns3:TrackPointExtension>
            <ns3:atemp>19.0</ns3:atemp>
          </ns3:TrackPointExtension>
        </extensions>
      </trkpt>
      <trkpt lat="42.55117376334965229034423828125" lon="20.06093323230743408203125">
        <ele>1929.800048828125</ele>
        <time>2026-06-19T10:45:06.000Z</time>
        <extensions>
          <ns3:TrackPointExtension>
            <ns3:atemp>19.0</ns3:atemp>
          </ns3:TrackPointExtension>
        </extensions>
      </trkpt>
      <trkpt lat="42.55117376334965229034423828125" lon="20.06093323230743408203125">
        <ele>1929.800048828125</ele>
        <time>2026-06-19T10:45:07.000Z</time>
        <extensions>
          <ns3:TrackPointExtension>
            <ns3:atemp>19.0</ns3:atemp>
          </ns3:TrackPointExtension>
        </extensions>
      </trkpt>
      <trkpt lat="42.55117376334965229034423828125" lon="20.06093323230743408203125">
        <ele>1929.800048828125</ele>
        <time>2026-06-19T10:45:08.000Z</time>
        <extensions>
          <ns3:TrackPointExtension>
            <ns3:atemp>19.0</ns3:atemp>
          </ns3:TrackPointExtension>
        </extensions>
      </trkpt>
      <trkpt lat="42.55117376334965229034423828125" lon="20.06093323230743408203125">
        <ele>1929.800048828125</ele>
        <time>2026-06-19T10:45:09.000Z</time>
        <extensions>
          <ns3:TrackPointExtension>
            <ns3:atemp>19.0</ns3:atemp>
          </ns3:TrackPointExtension>
        </extensions>
      </trkpt>
      <trkpt lat="42.55117376334965229034423828125" lon="20.06093323230743408203125">
        <ele>1929.800048828125</ele>
        <time>2026-06-19T10:45:10.000Z</time>
        <extensions>
          <ns3:TrackPointExtension>
            <ns3:atemp>19.0</ns3:atemp>
          </ns3:TrackPointExtension>
        </extensions>
      </trkpt>
      <trkpt lat="42.55117376334965229034423828125" lon="20.06093323230743408203125">
        <ele>1929.800048828125</ele>
        <time>2026-06-19T10:45:11.000Z</time>
        <extensions>
          <ns3:TrackPointExtension>
            <ns3:atemp>19.0</ns3:atemp>
          </ns3:TrackPointExtension>
        </extensions>
      </trkpt>
      <trkpt lat="42.55117376334965229034423828125" lon="20.06093323230743408203125">
        <ele>1929.800048828125</ele>
        <time>2026-06-19T10:45:12.000Z</time>
        <extensions>
          <ns3:TrackPointExtension>
            <ns3:atemp>19.0</ns3:atemp>
          </ns3:TrackPointExtension>
        </extensions>
      </trkpt>
      <trkpt lat="42.55117376334965229034423828125" lon="20.06093323230743408203125">
        <ele>1929.800048828125</ele>
        <time>2026-06-19T10:45:13.000Z</time>
        <extensions>
          <ns3:TrackPointExtension>
            <ns3:atemp>19.0</ns3:atemp>
          </ns3:TrackPointExtension>
        </extensions>
      </trkpt>
      <trkpt lat="42.55117376334965229034423828125" lon="20.06093323230743408203125">
        <ele>1929.800048828125</ele>
        <time>2026-06-19T10:45:14.000Z</time>
        <extensions>
          <ns3:TrackPointExtension>
            <ns3:atemp>19.0</ns3:atemp>
          </ns3:TrackPointExtension>
        </extensions>
      </trkpt>
      <trkpt lat="42.55117376334965229034423828125" lon="20.06093323230743408203125">
        <ele>1929.800048828125</ele>
        <time>2026-06-19T10:45:15.000Z</time>
        <extensions>
          <ns3:TrackPointExtension>
            <ns3:atemp>19.0</ns3:atemp>
          </ns3:TrackPointExtension>
        </extensions>
      </trkpt>
      <trkpt lat="42.55117376334965229034423828125" lon="20.06093323230743408203125">
        <ele>1929.800048828125</ele>
        <time>2026-06-19T10:45:16.000Z</time>
        <extensions>
          <ns3:TrackPointExtension>
            <ns3:atemp>19.0</ns3:atemp>
          </ns3:TrackPointExtension>
        </extensions>
      </trkpt>
      <trkpt lat="42.55117376334965229034423828125" lon="20.06093323230743408203125">
        <ele>1929.800048828125</ele>
        <time>2026-06-19T10:45:17.000Z</time>
        <extensions>
          <ns3:TrackPointExtension>
            <ns3:atemp>19.0</ns3:atemp>
          </ns3:TrackPointExtension>
        </extensions>
      </trkpt>
      <trkpt lat="42.55117376334965229034423828125" lon="20.06093323230743408203125">
        <ele>1929.800048828125</ele>
        <time>2026-06-19T10:45:18.000Z</time>
        <extensions>
          <ns3:TrackPointExtension>
            <ns3:atemp>19.0</ns3:atemp>
          </ns3:TrackPointExtension>
        </extensions>
      </trkpt>
      <trkpt lat="42.55117376334965229034423828125" lon="20.06093323230743408203125">
        <ele>1929.800048828125</ele>
        <time>2026-06-19T10:45:19.000Z</time>
        <extensions>
          <ns3:TrackPointExtension>
            <ns3:atemp>19.0</ns3:atemp>
          </ns3:TrackPointExtension>
        </extensions>
      </trkpt>
      <trkpt lat="42.55117376334965229034423828125" lon="20.06093323230743408203125">
        <ele>1929.800048828125</ele>
        <time>2026-06-19T10:45:20.000Z</time>
        <extensions>
          <ns3:TrackPointExtension>
            <ns3:atemp>19.0</ns3:atemp>
          </ns3:TrackPointExtension>
        </extensions>
      </trkpt>
      <trkpt lat="42.55117376334965229034423828125" lon="20.06093323230743408203125">
        <ele>1929.800048828125</ele>
        <time>2026-06-19T10:45:21.000Z</time>
        <extensions>
          <ns3:TrackPointExtension>
            <ns3:atemp>19.0</ns3:atemp>
          </ns3:TrackPointExtension>
        </extensions>
      </trkpt>
      <trkpt lat="42.55117376334965229034423828125" lon="20.06093323230743408203125">
        <ele>1929.800048828125</ele>
        <time>2026-06-19T10:45:22.000Z</time>
        <extensions>
          <ns3:TrackPointExtension>
            <ns3:atemp>19.0</ns3:atemp>
          </ns3:TrackPointExtension>
        </extensions>
      </trkpt>
      <trkpt lat="42.55117376334965229034423828125" lon="20.06093323230743408203125">
        <ele>1929.800048828125</ele>
        <time>2026-06-19T10:45:23.000Z</time>
        <extensions>
          <ns3:TrackPointExtension>
            <ns3:atemp>19.0</ns3:atemp>
          </ns3:TrackPointExtension>
        </extensions>
      </trkpt>
      <trkpt lat="42.55117376334965229034423828125" lon="20.06093323230743408203125">
        <ele>1929.800048828125</ele>
        <time>2026-06-19T10:45:24.000Z</time>
        <extensions>
          <ns3:TrackPointExtension>
            <ns3:atemp>19.0</ns3:atemp>
          </ns3:TrackPointExtension>
        </extensions>
      </trkpt>
      <trkpt lat="42.55117376334965229034423828125" lon="20.06093323230743408203125">
        <ele>1929.800048828125</ele>
        <time>2026-06-19T10:45:25.000Z</time>
        <extensions>
          <ns3:TrackPointExtension>
            <ns3:atemp>19.0</ns3:atemp>
          </ns3:TrackPointExtension>
        </extensions>
      </trkpt>
      <trkpt lat="42.55117376334965229034423828125" lon="20.06093323230743408203125">
        <ele>1929.800048828125</ele>
        <time>2026-06-19T10:45:26.000Z</time>
        <extensions>
          <ns3:TrackPointExtension>
            <ns3:atemp>19.0</ns3:atemp>
          </ns3:TrackPointExtension>
        </extensions>
      </trkpt>
      <trkpt lat="42.55117376334965229034423828125" lon="20.06093323230743408203125">
        <ele>1929.800048828125</ele>
        <time>2026-06-19T10:45:27.000Z</time>
        <extensions>
          <ns3:TrackPointExtension>
            <ns3:atemp>19.0</ns3:atemp>
          </ns3:TrackPointExtension>
        </extensions>
      </trkpt>
      <trkpt lat="42.55117376334965229034423828125" lon="20.06093323230743408203125">
        <ele>1929.800048828125</ele>
        <time>2026-06-19T10:45:28.000Z</time>
        <extensions>
          <ns3:TrackPointExtension>
            <ns3:atemp>19.0</ns3:atemp>
          </ns3:TrackPointExtension>
        </extensions>
      </trkpt>
      <trkpt lat="42.55117376334965229034423828125" lon="20.06093323230743408203125">
        <ele>1929.800048828125</ele>
        <time>2026-06-19T10:45:29.000Z</time>
        <extensions>
          <ns3:TrackPointExtension>
            <ns3:atemp>19.0</ns3:atemp>
          </ns3:TrackPointExtension>
        </extensions>
      </trkpt>
      <trkpt lat="42.55117376334965229034423828125" lon="20.06093323230743408203125">
        <ele>1929.800048828125</ele>
        <time>2026-06-19T10:45:30.000Z</time>
        <extensions>
          <ns3:TrackPointExtension>
            <ns3:atemp>19.0</ns3:atemp>
          </ns3:TrackPointExtension>
        </extensions>
      </trkpt>
      <trkpt lat="42.55117376334965229034423828125" lon="20.06093323230743408203125">
        <ele>1929.800048828125</ele>
        <time>2026-06-19T10:45:31.000Z</time>
        <extensions>
          <ns3:TrackPointExtension>
            <ns3:atemp>19.0</ns3:atemp>
          </ns3:TrackPointExtension>
        </extensions>
      </trkpt>
      <trkpt lat="42.55117376334965229034423828125" lon="20.06093323230743408203125">
        <ele>1929.800048828125</ele>
        <time>2026-06-19T10:45:32.000Z</time>
        <extensions>
          <ns3:TrackPointExtension>
            <ns3:atemp>19.0</ns3:atemp>
          </ns3:TrackPointExtension>
        </extensions>
      </trkpt>
      <trkpt lat="42.55117376334965229034423828125" lon="20.06093323230743408203125">
        <ele>1929.800048828125</ele>
        <time>2026-06-19T10:45:33.000Z</time>
        <extensions>
          <ns3:TrackPointExtension>
            <ns3:atemp>19.0</ns3:atemp>
          </ns3:TrackPointExtension>
        </extensions>
      </trkpt>
      <trkpt lat="42.55117376334965229034423828125" lon="20.06093323230743408203125">
        <ele>1929.800048828125</ele>
        <time>2026-06-19T10:45:34.000Z</time>
        <extensions>
          <ns3:TrackPointExtension>
            <ns3:atemp>19.0</ns3:atemp>
          </ns3:TrackPointExtension>
        </extensions>
      </trkpt>
      <trkpt lat="42.55117376334965229034423828125" lon="20.06093323230743408203125">
        <ele>1929.800048828125</ele>
        <time>2026-06-19T10:45:35.000Z</time>
        <extensions>
          <ns3:TrackPointExtension>
            <ns3:atemp>19.0</ns3:atemp>
          </ns3:TrackPointExtension>
        </extensions>
      </trkpt>
      <trkpt lat="42.55117376334965229034423828125" lon="20.06093323230743408203125">
        <ele>1929.800048828125</ele>
        <time>2026-06-19T10:45:36.000Z</time>
        <extensions>
          <ns3:TrackPointExtension>
            <ns3:atemp>19.0</ns3:atemp>
          </ns3:TrackPointExtension>
        </extensions>
      </trkpt>
      <trkpt lat="42.55117376334965229034423828125" lon="20.06093323230743408203125">
        <ele>1929.800048828125</ele>
        <time>2026-06-19T10:45:37.000Z</time>
        <extensions>
          <ns3:TrackPointExtension>
            <ns3:atemp>19.0</ns3:atemp>
          </ns3:TrackPointExtension>
        </extensions>
      </trkpt>
      <trkpt lat="42.55117376334965229034423828125" lon="20.06093323230743408203125">
        <ele>1929.800048828125</ele>
        <time>2026-06-19T10:45:38.000Z</time>
        <extensions>
          <ns3:TrackPointExtension>
            <ns3:atemp>19.0</ns3:atemp>
          </ns3:TrackPointExtension>
        </extensions>
      </trkpt>
      <trkpt lat="42.55117376334965229034423828125" lon="20.06093323230743408203125">
        <ele>1929.800048828125</ele>
        <time>2026-06-19T10:45:39.000Z</time>
        <extensions>
          <ns3:TrackPointExtension>
            <ns3:atemp>19.0</ns3:atemp>
          </ns3:TrackPointExtension>
        </extensions>
      </trkpt>
      <trkpt lat="42.55117376334965229034423828125" lon="20.06093323230743408203125">
        <ele>1929.800048828125</ele>
        <time>2026-06-19T10:45:40.000Z</time>
        <extensions>
          <ns3:TrackPointExtension>
            <ns3:atemp>19.0</ns3:atemp>
          </ns3:TrackPointExtension>
        </extensions>
      </trkpt>
      <trkpt lat="42.55117376334965229034423828125" lon="20.06093323230743408203125">
        <ele>1929.800048828125</ele>
        <time>2026-06-19T10:45:41.000Z</time>
        <extensions>
          <ns3:TrackPointExtension>
            <ns3:atemp>19.0</ns3:atemp>
          </ns3:TrackPointExtension>
        </extensions>
      </trkpt>
      <trkpt lat="42.55117376334965229034423828125" lon="20.06093323230743408203125">
        <ele>1929.800048828125</ele>
        <time>2026-06-19T10:45:42.000Z</time>
        <extensions>
          <ns3:TrackPointExtension>
            <ns3:atemp>19.0</ns3:atemp>
          </ns3:TrackPointExtension>
        </extensions>
      </trkpt>
      <trkpt lat="42.55117376334965229034423828125" lon="20.06093323230743408203125">
        <ele>1929.800048828125</ele>
        <time>2026-06-19T10:45:43.000Z</time>
        <extensions>
          <ns3:TrackPointExtension>
            <ns3:atemp>19.0</ns3:atemp>
          </ns3:TrackPointExtension>
        </extensions>
      </trkpt>
      <trkpt lat="42.55117376334965229034423828125" lon="20.06093323230743408203125">
        <ele>1929.800048828125</ele>
        <time>2026-06-19T10:45:44.000Z</time>
        <extensions>
          <ns3:TrackPointExtension>
            <ns3:atemp>19.0</ns3:atemp>
          </ns3:TrackPointExtension>
        </extensions>
      </trkpt>
      <trkpt lat="42.55117376334965229034423828125" lon="20.06093323230743408203125">
        <ele>1929.800048828125</ele>
        <time>2026-06-19T10:45:45.000Z</time>
        <extensions>
          <ns3:TrackPointExtension>
            <ns3:atemp>19.0</ns3:atemp>
          </ns3:TrackPointExtension>
        </extensions>
      </trkpt>
      <trkpt lat="42.55117376334965229034423828125" lon="20.06093323230743408203125">
        <ele>1929.800048828125</ele>
        <time>2026-06-19T10:45:46.000Z</time>
        <extensions>
          <ns3:TrackPointExtension>
            <ns3:atemp>19.0</ns3:atemp>
          </ns3:TrackPointExtension>
        </extensions>
      </trkpt>
      <trkpt lat="42.55117376334965229034423828125" lon="20.06093323230743408203125">
        <ele>1929.800048828125</ele>
        <time>2026-06-19T10:45:47.000Z</time>
        <extensions>
          <ns3:TrackPointExtension>
            <ns3:atemp>19.0</ns3:atemp>
          </ns3:TrackPointExtension>
        </extensions>
      </trkpt>
      <trkpt lat="42.55117376334965229034423828125" lon="20.06093323230743408203125">
        <ele>1929.800048828125</ele>
        <time>2026-06-19T10:45:48.000Z</time>
        <extensions>
          <ns3:TrackPointExtension>
            <ns3:atemp>19.0</ns3:atemp>
          </ns3:TrackPointExtension>
        </extensions>
      </trkpt>
      <trkpt lat="42.55117376334965229034423828125" lon="20.06093323230743408203125">
        <ele>1929.800048828125</ele>
        <time>2026-06-19T10:45:49.000Z</time>
        <extensions>
          <ns3:TrackPointExtension>
            <ns3:atemp>19.0</ns3:atemp>
          </ns3:TrackPointExtension>
        </extensions>
      </trkpt>
      <trkpt lat="42.55117376334965229034423828125" lon="20.06093323230743408203125">
        <ele>1929.800048828125</ele>
        <time>2026-06-19T10:45:50.000Z</time>
        <extensions>
          <ns3:TrackPointExtension>
            <ns3:atemp>19.0</ns3:atemp>
          </ns3:TrackPointExtension>
        </extensions>
      </trkpt>
      <trkpt lat="42.55117376334965229034423828125" lon="20.06093323230743408203125">
        <ele>1929.800048828125</ele>
        <time>2026-06-19T10:45:51.000Z</time>
        <extensions>
          <ns3:TrackPointExtension>
            <ns3:atemp>19.0</ns3:atemp>
          </ns3:TrackPointExtension>
        </extensions>
      </trkpt>
      <trkpt lat="42.55117376334965229034423828125" lon="20.06093323230743408203125">
        <ele>1929.800048828125</ele>
        <time>2026-06-19T10:45:52.000Z</time>
        <extensions>
          <ns3:TrackPointExtension>
            <ns3:atemp>19.0</ns3:atemp>
          </ns3:TrackPointExtension>
        </extensions>
      </trkpt>
      <trkpt lat="42.55117376334965229034423828125" lon="20.06093323230743408203125">
        <ele>1929.800048828125</ele>
        <time>2026-06-19T10:45:53.000Z</time>
        <extensions>
          <ns3:TrackPointExtension>
            <ns3:atemp>19.0</ns3:atemp>
          </ns3:TrackPointExtension>
        </extensions>
      </trkpt>
      <trkpt lat="42.55117376334965229034423828125" lon="20.06093323230743408203125">
        <ele>1929.800048828125</ele>
        <time>2026-06-19T10:45:54.000Z</time>
        <extensions>
          <ns3:TrackPointExtension>
            <ns3:atemp>19.0</ns3:atemp>
          </ns3:TrackPointExtension>
        </extensions>
      </trkpt>
      <trkpt lat="42.55117376334965229034423828125" lon="20.06093323230743408203125">
        <ele>1929.800048828125</ele>
        <time>2026-06-19T10:45:55.000Z</time>
        <extensions>
          <ns3:TrackPointExtension>
            <ns3:atemp>19.0</ns3:atemp>
          </ns3:TrackPointExtension>
        </extensions>
      </trkpt>
      <trkpt lat="42.55117376334965229034423828125" lon="20.06093323230743408203125">
        <ele>1929.800048828125</ele>
        <time>2026-06-19T10:45:56.000Z</time>
        <extensions>
          <ns3:TrackPointExtension>
            <ns3:atemp>19.0</ns3:atemp>
          </ns3:TrackPointExtension>
        </extensions>
      </trkpt>
      <trkpt lat="42.55117376334965229034423828125" lon="20.06093323230743408203125">
        <ele>1929.800048828125</ele>
        <time>2026-06-19T10:45:57.000Z</time>
        <extensions>
          <ns3:TrackPointExtension>
            <ns3:atemp>19.0</ns3:atemp>
          </ns3:TrackPointExtension>
        </extensions>
      </trkpt>
      <trkpt lat="42.55117376334965229034423828125" lon="20.06093323230743408203125">
        <ele>1929.800048828125</ele>
        <time>2026-06-19T10:45:58.000Z</time>
        <extensions>
          <ns3:TrackPointExtension>
            <ns3:atemp>19.0</ns3:atemp>
          </ns3:TrackPointExtension>
        </extensions>
      </trkpt>
      <trkpt lat="42.55117376334965229034423828125" lon="20.06093323230743408203125">
        <ele>1929.800048828125</ele>
        <time>2026-06-19T10:45:59.000Z</time>
        <extensions>
          <ns3:TrackPointExtension>
            <ns3:atemp>19.0</ns3:atemp>
          </ns3:TrackPointExtension>
        </extensions>
      </trkpt>
      <trkpt lat="42.55117376334965229034423828125" lon="20.06093323230743408203125">
        <ele>1929.800048828125</ele>
        <time>2026-06-19T10:46:00.000Z</time>
        <extensions>
          <ns3:TrackPointExtension>
            <ns3:atemp>19.0</ns3:atemp>
          </ns3:TrackPointExtension>
        </extensions>
      </trkpt>
      <trkpt lat="42.55117376334965229034423828125" lon="20.06093323230743408203125">
        <ele>1929.800048828125</ele>
        <time>2026-06-19T10:46:01.000Z</time>
        <extensions>
          <ns3:TrackPointExtension>
            <ns3:atemp>19.0</ns3:atemp>
          </ns3:TrackPointExtension>
        </extensions>
      </trkpt>
      <trkpt lat="42.55117376334965229034423828125" lon="20.06093323230743408203125">
        <ele>1929.800048828125</ele>
        <time>2026-06-19T10:46:02.000Z</time>
        <extensions>
          <ns3:TrackPointExtension>
            <ns3:atemp>19.0</ns3:atemp>
          </ns3:TrackPointExtension>
        </extensions>
      </trkpt>
      <trkpt lat="42.55117376334965229034423828125" lon="20.06093323230743408203125">
        <ele>1929.800048828125</ele>
        <time>2026-06-19T10:46:03.000Z</time>
        <extensions>
          <ns3:TrackPointExtension>
            <ns3:atemp>19.0</ns3:atemp>
          </ns3:TrackPointExtension>
        </extensions>
      </trkpt>
      <trkpt lat="42.55117376334965229034423828125" lon="20.06093323230743408203125">
        <ele>1929.800048828125</ele>
        <time>2026-06-19T10:46:04.000Z</time>
        <extensions>
          <ns3:TrackPointExtension>
            <ns3:atemp>19.0</ns3:atemp>
          </ns3:TrackPointExtension>
        </extensions>
      </trkpt>
      <trkpt lat="42.55117376334965229034423828125" lon="20.06093323230743408203125">
        <ele>1929.800048828125</ele>
        <time>2026-06-19T10:46:05.000Z</time>
        <extensions>
          <ns3:TrackPointExtension>
            <ns3:atemp>19.0</ns3:atemp>
          </ns3:TrackPointExtension>
        </extensions>
      </trkpt>
      <trkpt lat="42.55117376334965229034423828125" lon="20.06093323230743408203125">
        <ele>1929.800048828125</ele>
        <time>2026-06-19T10:46:06.000Z</time>
        <extensions>
          <ns3:TrackPointExtension>
            <ns3:atemp>19.0</ns3:atemp>
          </ns3:TrackPointExtension>
        </extensions>
      </trkpt>
      <trkpt lat="42.55117376334965229034423828125" lon="20.06093323230743408203125">
        <ele>1929.800048828125</ele>
        <time>2026-06-19T10:46:07.000Z</time>
        <extensions>
          <ns3:TrackPointExtension>
            <ns3:atemp>19.0</ns3:atemp>
          </ns3:TrackPointExtension>
        </extensions>
      </trkpt>
      <trkpt lat="42.55117376334965229034423828125" lon="20.06093323230743408203125">
        <ele>1929.800048828125</ele>
        <time>2026-06-19T10:46:08.000Z</time>
        <extensions>
          <ns3:TrackPointExtension>
            <ns3:atemp>19.0</ns3:atemp>
          </ns3:TrackPointExtension>
        </extensions>
      </trkpt>
      <trkpt lat="42.55117376334965229034423828125" lon="20.06093323230743408203125">
        <ele>1929.800048828125</ele>
        <time>2026-06-19T10:46:09.000Z</time>
        <extensions>
          <ns3:TrackPointExtension>
            <ns3:atemp>19.0</ns3:atemp>
          </ns3:TrackPointExtension>
        </extensions>
      </trkpt>
      <trkpt lat="42.55117376334965229034423828125" lon="20.06093323230743408203125">
        <ele>1929.800048828125</ele>
        <time>2026-06-19T10:46:10.000Z</time>
        <extensions>
          <ns3:TrackPointExtension>
            <ns3:atemp>19.0</ns3:atemp>
          </ns3:TrackPointExtension>
        </extensions>
      </trkpt>
      <trkpt lat="42.55117376334965229034423828125" lon="20.06093323230743408203125">
        <ele>1929.800048828125</ele>
        <time>2026-06-19T10:46:11.000Z</time>
        <extensions>
          <ns3:TrackPointExtension>
            <ns3:atemp>19.0</ns3:atemp>
          </ns3:TrackPointExtension>
        </extensions>
      </trkpt>
      <trkpt lat="42.55117376334965229034423828125" lon="20.06093323230743408203125">
        <ele>1929.800048828125</ele>
        <time>2026-06-19T10:46:12.000Z</time>
        <extensions>
          <ns3:TrackPointExtension>
            <ns3:atemp>19.0</ns3:atemp>
          </ns3:TrackPointExtension>
        </extensions>
      </trkpt>
      <trkpt lat="42.55117376334965229034423828125" lon="20.06093323230743408203125">
        <ele>1929.800048828125</ele>
        <time>2026-06-19T10:46:13.000Z</time>
        <extensions>
          <ns3:TrackPointExtension>
            <ns3:atemp>19.0</ns3:atemp>
          </ns3:TrackPointExtension>
        </extensions>
      </trkpt>
      <trkpt lat="42.55117376334965229034423828125" lon="20.06093323230743408203125">
        <ele>1929.800048828125</ele>
        <time>2026-06-19T10:46:14.000Z</time>
        <extensions>
          <ns3:TrackPointExtension>
            <ns3:atemp>19.0</ns3:atemp>
          </ns3:TrackPointExtension>
        </extensions>
      </trkpt>
      <trkpt lat="42.55117376334965229034423828125" lon="20.06093323230743408203125">
        <ele>1929.800048828125</ele>
        <time>2026-06-19T10:46:15.000Z</time>
        <extensions>
          <ns3:TrackPointExtension>
            <ns3:atemp>19.0</ns3:atemp>
          </ns3:TrackPointExtension>
        </extensions>
      </trkpt>
      <trkpt lat="42.55117376334965229034423828125" lon="20.06093323230743408203125">
        <ele>1929.800048828125</ele>
        <time>2026-06-19T10:46:16.000Z</time>
        <extensions>
          <ns3:TrackPointExtension>
            <ns3:atemp>19.0</ns3:atemp>
          </ns3:TrackPointExtension>
        </extensions>
      </trkpt>
      <trkpt lat="42.55117376334965229034423828125" lon="20.06093323230743408203125">
        <ele>1929.800048828125</ele>
        <time>2026-06-19T10:46:17.000Z</time>
        <extensions>
          <ns3:TrackPointExtension>
            <ns3:atemp>19.0</ns3:atemp>
          </ns3:TrackPointExtension>
        </extensions>
      </trkpt>
      <trkpt lat="42.55117376334965229034423828125" lon="20.06093323230743408203125">
        <ele>1929.800048828125</ele>
        <time>2026-06-19T10:46:18.000Z</time>
        <extensions>
          <ns3:TrackPointExtension>
            <ns3:atemp>19.0</ns3:atemp>
          </ns3:TrackPointExtension>
        </extensions>
      </trkpt>
      <trkpt lat="42.55117334425449371337890625" lon="20.06093599833548069000244140625">
        <ele>1929.800048828125</ele>
        <time>2026-06-19T10:46:19.000Z</time>
        <extensions>
          <ns3:TrackPointExtension>
            <ns3:atemp>19.0</ns3:atemp>
          </ns3:TrackPointExtension>
        </extensions>
      </trkpt>
      <trkpt lat="42.551183737814426422119140625" lon="20.06094823591411113739013671875">
        <ele>1929.800048828125</ele>
        <time>2026-06-19T10:46:20.000Z</time>
        <extensions>
          <ns3:TrackPointExtension>
            <ns3:atemp>19.0</ns3:atemp>
          </ns3:TrackPointExtension>
        </extensions>
      </trkpt>
      <trkpt lat="42.55118834786117076873779296875" lon="20.0609515048563480377197265625">
        <ele>1929.800048828125</ele>
        <time>2026-06-19T10:46:21.000Z</time>
        <extensions>
          <ns3:TrackPointExtension>
            <ns3:atemp>19.0</ns3:atemp>
          </ns3:TrackPointExtension>
        </extensions>
      </trkpt>
      <trkpt lat="42.5511976517736911773681640625" lon="20.06095158867537975311279296875">
        <ele>1929.800048828125</ele>
        <time>2026-06-19T10:46:22.000Z</time>
        <extensions>
          <ns3:TrackPointExtension>
            <ns3:atemp>19.0</ns3:atemp>
          </ns3:TrackPointExtension>
        </extensions>
      </trkpt>
      <trkpt lat="42.55120527930557727813720703125" lon="20.06094890646636486053466796875">
        <ele>1929.800048828125</ele>
        <time>2026-06-19T10:46:23.000Z</time>
        <extensions>
          <ns3:TrackPointExtension>
            <ns3:atemp>19.0</ns3:atemp>
          </ns3:TrackPointExtension>
        </extensions>
      </trkpt>
      <trkpt lat="42.55120343528687953948974609375" lon="20.0609453022480010986328125">
        <ele>1929.800048828125</ele>
        <time>2026-06-19T10:46:24.000Z</time>
        <extensions>
          <ns3:TrackPointExtension>
            <ns3:atemp>19.0</ns3:atemp>
          </ns3:TrackPointExtension>
        </extensions>
      </trkpt>
      <trkpt lat="42.5512035191059112548828125" lon="20.06094538606703281402587890625">
        <ele>1929.800048828125</ele>
        <time>2026-06-19T10:46:25.000Z</time>
        <extensions>
          <ns3:TrackPointExtension>
            <ns3:atemp>19.0</ns3:atemp>
          </ns3:TrackPointExtension>
        </extensions>
      </trkpt>
      <trkpt lat="42.55120360292494297027587890625" lon="20.06094538606703281402587890625">
        <ele>1929.800048828125</ele>
        <time>2026-06-19T10:46:26.000Z</time>
        <extensions>
          <ns3:TrackPointExtension>
            <ns3:atemp>19.0</ns3:atemp>
          </ns3:TrackPointExtension>
        </extensions>
      </trkpt>
      <trkpt lat="42.5512154214084148406982421875" lon="20.0609437935054302215576171875">
        <ele>1929.800048828125</ele>
        <time>2026-06-19T10:46:27.000Z</time>
        <extensions>
          <ns3:TrackPointExtension>
            <ns3:atemp>19.0</ns3:atemp>
          </ns3:TrackPointExtension>
        </extensions>
      </trkpt>
      <trkpt lat="42.55122003145515918731689453125" lon="20.0609372556209564208984375">
        <ele>1929.800048828125</ele>
        <time>2026-06-19T10:46:28.000Z</time>
        <extensions>
          <ns3:TrackPointExtension>
            <ns3:atemp>19.0</ns3:atemp>
          </ns3:TrackPointExtension>
        </extensions>
      </trkpt>
      <trkpt lat="42.551219277083873748779296875" lon="20.06093767471611499786376953125">
        <ele>1929.800048828125</ele>
        <time>2026-06-19T10:46:29.000Z</time>
        <extensions>
          <ns3:TrackPointExtension>
            <ns3:atemp>19.0</ns3:atemp>
          </ns3:TrackPointExtension>
        </extensions>
      </trkpt>
      <trkpt lat="42.55121936090290546417236328125" lon="20.060937590897083282470703125">
        <ele>1929.800048828125</ele>
        <time>2026-06-19T10:46:30.000Z</time>
        <extensions>
          <ns3:TrackPointExtension>
            <ns3:atemp>19.0</ns3:atemp>
          </ns3:TrackPointExtension>
        </extensions>
      </trkpt>
      <trkpt lat="42.55121936090290546417236328125" lon="20.060937590897083282470703125">
        <ele>1929.800048828125</ele>
        <time>2026-06-19T10:46:31.000Z</time>
        <extensions>
          <ns3:TrackPointExtension>
            <ns3:atemp>19.0</ns3:atemp>
          </ns3:TrackPointExtension>
        </extensions>
      </trkpt>
      <trkpt lat="42.55121936090290546417236328125" lon="20.060937590897083282470703125">
        <ele>1929.800048828125</ele>
        <time>2026-06-19T10:46:32.000Z</time>
        <extensions>
          <ns3:TrackPointExtension>
            <ns3:atemp>19.0</ns3:atemp>
          </ns3:TrackPointExtension>
        </extensions>
      </trkpt>
      <trkpt lat="42.55121936090290546417236328125" lon="20.060937590897083282470703125">
        <ele>1929.800048828125</ele>
        <time>2026-06-19T10:46:33.000Z</time>
        <extensions>
          <ns3:TrackPointExtension>
            <ns3:atemp>19.0</ns3:atemp>
          </ns3:TrackPointExtension>
        </extensions>
      </trkpt>
      <trkpt lat="42.55121936090290546417236328125" lon="20.060937590897083282470703125">
        <ele>1929.800048828125</ele>
        <time>2026-06-19T10:46:34.000Z</time>
        <extensions>
          <ns3:TrackPointExtension>
            <ns3:atemp>19.0</ns3:atemp>
          </ns3:TrackPointExtension>
        </extensions>
      </trkpt>
      <trkpt lat="42.55121936090290546417236328125" lon="20.060937590897083282470703125">
        <ele>1929.800048828125</ele>
        <time>2026-06-19T10:46:35.000Z</time>
        <extensions>
          <ns3:TrackPointExtension>
            <ns3:atemp>19.0</ns3:atemp>
          </ns3:TrackPointExtension>
        </extensions>
      </trkpt>
      <trkpt lat="42.55121936090290546417236328125" lon="20.060937590897083282470703125">
        <ele>1929.800048828125</ele>
        <time>2026-06-19T10:46:36.000Z</time>
        <extensions>
          <ns3:TrackPointExtension>
            <ns3:atemp>19.0</ns3:atemp>
          </ns3:TrackPointExtension>
        </extensions>
      </trkpt>
      <trkpt lat="42.55121936090290546417236328125" lon="20.060937590897083282470703125">
        <ele>1929.800048828125</ele>
        <time>2026-06-19T10:46:37.000Z</time>
        <extensions>
          <ns3:TrackPointExtension>
            <ns3:atemp>19.0</ns3:atemp>
          </ns3:TrackPointExtension>
        </extensions>
      </trkpt>
      <trkpt lat="42.55121936090290546417236328125" lon="20.060937590897083282470703125">
        <ele>1929.800048828125</ele>
        <time>2026-06-19T10:46:38.000Z</time>
        <extensions>
          <ns3:TrackPointExtension>
            <ns3:atemp>19.0</ns3:atemp>
          </ns3:TrackPointExtension>
        </extensions>
      </trkpt>
      <trkpt lat="42.55121936090290546417236328125" lon="20.060937590897083282470703125">
        <ele>1929.800048828125</ele>
        <time>2026-06-19T10:46:39.000Z</time>
        <extensions>
          <ns3:TrackPointExtension>
            <ns3:atemp>19.0</ns3:atemp>
          </ns3:TrackPointExtension>
        </extensions>
      </trkpt>
      <trkpt lat="42.55121936090290546417236328125" lon="20.060937590897083282470703125">
        <ele>1929.800048828125</ele>
        <time>2026-06-19T10:46:40.000Z</time>
        <extensions>
          <ns3:TrackPointExtension>
            <ns3:atemp>19.0</ns3:atemp>
          </ns3:TrackPointExtension>
        </extensions>
      </trkpt>
      <trkpt lat="42.55121936090290546417236328125" lon="20.060937590897083282470703125">
        <ele>1929.800048828125</ele>
        <time>2026-06-19T10:46:41.000Z</time>
        <extensions>
          <ns3:TrackPointExtension>
            <ns3:atemp>19.0</ns3:atemp>
          </ns3:TrackPointExtension>
        </extensions>
      </trkpt>
      <trkpt lat="42.55121936090290546417236328125" lon="20.060937590897083282470703125">
        <ele>1929.800048828125</ele>
        <time>2026-06-19T10:46:42.000Z</time>
        <extensions>
          <ns3:TrackPointExtension>
            <ns3:atemp>19.0</ns3:atemp>
          </ns3:TrackPointExtension>
        </extensions>
      </trkpt>
      <trkpt lat="42.55121936090290546417236328125" lon="20.060937590897083282470703125">
        <ele>1929.800048828125</ele>
        <time>2026-06-19T10:46:43.000Z</time>
        <extensions>
          <ns3:TrackPointExtension>
            <ns3:atemp>19.0</ns3:atemp>
          </ns3:TrackPointExtension>
        </extensions>
      </trkpt>
      <trkpt lat="42.55121936090290546417236328125" lon="20.060937590897083282470703125">
        <ele>1929.800048828125</ele>
        <time>2026-06-19T10:46:44.000Z</time>
        <extensions>
          <ns3:TrackPointExtension>
            <ns3:atemp>19.0</ns3:atemp>
          </ns3:TrackPointExtension>
        </extensions>
      </trkpt>
      <trkpt lat="42.55121936090290546417236328125" lon="20.060937590897083282470703125">
        <ele>1929.800048828125</ele>
        <time>2026-06-19T10:46:45.000Z</time>
        <extensions>
          <ns3:TrackPointExtension>
            <ns3:atemp>19.0</ns3:atemp>
          </ns3:TrackPointExtension>
        </extensions>
      </trkpt>
      <trkpt lat="42.55121936090290546417236328125" lon="20.060937590897083282470703125">
        <ele>1929.800048828125</ele>
        <time>2026-06-19T10:46:46.000Z</time>
        <extensions>
          <ns3:TrackPointExtension>
            <ns3:atemp>19.0</ns3:atemp>
          </ns3:TrackPointExtension>
        </extensions>
      </trkpt>
      <trkpt lat="42.55121936090290546417236328125" lon="20.060937590897083282470703125">
        <ele>1929.800048828125</ele>
        <time>2026-06-19T10:46:47.000Z</time>
        <extensions>
          <ns3:TrackPointExtension>
            <ns3:atemp>19.0</ns3:atemp>
          </ns3:TrackPointExtension>
        </extensions>
      </trkpt>
      <trkpt lat="42.55121936090290546417236328125" lon="20.060937590897083282470703125">
        <ele>1929.800048828125</ele>
        <time>2026-06-19T10:46:48.000Z</time>
        <extensions>
          <ns3:TrackPointExtension>
            <ns3:atemp>19.0</ns3:atemp>
          </ns3:TrackPointExtension>
        </extensions>
      </trkpt>
      <trkpt lat="42.55121936090290546417236328125" lon="20.060937590897083282470703125">
        <ele>1929.800048828125</ele>
        <time>2026-06-19T10:46:49.000Z</time>
        <extensions>
          <ns3:TrackPointExtension>
            <ns3:atemp>19.0</ns3:atemp>
          </ns3:TrackPointExtension>
        </extensions>
      </trkpt>
      <trkpt lat="42.55121936090290546417236328125" lon="20.060937590897083282470703125">
        <ele>1929.800048828125</ele>
        <time>2026-06-19T10:46:50.000Z</time>
        <extensions>
          <ns3:TrackPointExtension>
            <ns3:atemp>19.0</ns3:atemp>
          </ns3:TrackPointExtension>
        </extensions>
      </trkpt>
      <trkpt lat="42.55121936090290546417236328125" lon="20.060937590897083282470703125">
        <ele>1929.800048828125</ele>
        <time>2026-06-19T10:46:51.000Z</time>
        <extensions>
          <ns3:TrackPointExtension>
            <ns3:atemp>19.0</ns3:atemp>
          </ns3:TrackPointExtension>
        </extensions>
      </trkpt>
      <trkpt lat="42.55121936090290546417236328125" lon="20.060937590897083282470703125">
        <ele>1929.800048828125</ele>
        <time>2026-06-19T10:46:52.000Z</time>
        <extensions>
          <ns3:TrackPointExtension>
            <ns3:atemp>19.0</ns3:atemp>
          </ns3:TrackPointExtension>
        </extensions>
      </trkpt>
      <trkpt lat="42.55121936090290546417236328125" lon="20.060937590897083282470703125">
        <ele>1929.800048828125</ele>
        <time>2026-06-19T10:46:53.000Z</time>
        <extensions>
          <ns3:TrackPointExtension>
            <ns3:atemp>19.0</ns3:atemp>
          </ns3:TrackPointExtension>
        </extensions>
      </trkpt>
      <trkpt lat="42.55121936090290546417236328125" lon="20.060937590897083282470703125">
        <ele>1929.800048828125</ele>
        <time>2026-06-19T10:46:54.000Z</time>
        <extensions>
          <ns3:TrackPointExtension>
            <ns3:atemp>19.0</ns3:atemp>
          </ns3:TrackPointExtension>
        </extensions>
      </trkpt>
      <trkpt lat="42.55121936090290546417236328125" lon="20.060937590897083282470703125">
        <ele>1929.800048828125</ele>
        <time>2026-06-19T10:46:55.000Z</time>
        <extensions>
          <ns3:TrackPointExtension>
            <ns3:atemp>19.0</ns3:atemp>
          </ns3:TrackPointExtension>
        </extensions>
      </trkpt>
      <trkpt lat="42.55121936090290546417236328125" lon="20.060937590897083282470703125">
        <ele>1929.800048828125</ele>
        <time>2026-06-19T10:46:56.000Z</time>
        <extensions>
          <ns3:TrackPointExtension>
            <ns3:atemp>20.0</ns3:atemp>
          </ns3:TrackPointExtension>
        </extensions>
      </trkpt>
      <trkpt lat="42.55122221074998378753662109375" lon="20.06093516014516353607177734375">
        <ele>1929.800048828125</ele>
        <time>2026-06-19T10:46:57.000Z</time>
        <extensions>
          <ns3:TrackPointExtension>
            <ns3:atemp>19.0</ns3:atemp>
          </ns3:TrackPointExtension>
        </extensions>
      </trkpt>
      <trkpt lat="42.551231347024440765380859375" lon="20.06092309020459651947021484375">
        <ele>1929.800048828125</ele>
        <time>2026-06-19T10:46:58.000Z</time>
        <extensions>
          <ns3:TrackPointExtension>
            <ns3:atemp>20.0</ns3:atemp>
          </ns3:TrackPointExtension>
        </extensions>
      </trkpt>
      <trkpt lat="42.55123679526150226593017578125" lon="20.06091252900660037994384765625">
        <ele>1929.800048828125</ele>
        <time>2026-06-19T10:46:59.000Z</time>
        <extensions>
          <ns3:TrackPointExtension>
            <ns3:atemp>20.0</ns3:atemp>
          </ns3:TrackPointExtension>
        </extensions>
      </trkpt>
      <trkpt lat="42.551240064203739166259765625" lon="20.06090213544666767120361328125">
        <ele>1929.800048828125</ele>
        <time>2026-06-19T10:47:00.000Z</time>
        <extensions>
          <ns3:TrackPointExtension>
            <ns3:atemp>20.0</ns3:atemp>
          </ns3:TrackPointExtension>
        </extensions>
      </trkpt>
      <trkpt lat="42.55123905837535858154296875" lon="20.06089408881962299346923828125">
        <ele>1929.800048828125</ele>
        <time>2026-06-19T10:47:01.000Z</time>
        <extensions>
          <ns3:TrackPointExtension>
            <ns3:atemp>20.0</ns3:atemp>
          </ns3:TrackPointExtension>
        </extensions>
      </trkpt>
      <trkpt lat="42.5512432493269443511962890625" lon="20.06086944602429866790771484375">
        <ele>1929.800048828125</ele>
        <time>2026-06-19T10:47:02.000Z</time>
        <extensions>
          <ns3:TrackPointExtension>
            <ns3:atemp>20.0</ns3:atemp>
          </ns3:TrackPointExtension>
        </extensions>
      </trkpt>
      <trkpt lat="42.5512489490211009979248046875" lon="20.06084798835217952728271484375">
        <ele>1929.800048828125</ele>
        <time>2026-06-19T10:47:03.000Z</time>
        <extensions>
          <ns3:TrackPointExtension>
            <ns3:atemp>20.0</ns3:atemp>
          </ns3:TrackPointExtension>
        </extensions>
      </trkpt>
      <trkpt lat="42.55125305615365505218505859375" lon="20.06082971580326557159423828125">
        <ele>1929.4000244140625</ele>
        <time>2026-06-19T10:47:04.000Z</time>
        <extensions>
          <ns3:TrackPointExtension>
            <ns3:atemp>20.0</ns3:atemp>
          </ns3:TrackPointExtension>
        </extensions>
      </trkpt>
      <trkpt lat="42.55125657655298709869384765625" lon="20.06081110797822475433349609375">
        <ele>1929.5999755859375</ele>
        <time>2026-06-19T10:47:05.000Z</time>
        <extensions>
          <ns3:TrackPointExtension>
            <ns3:atemp>20.0</ns3:atemp>
          </ns3:TrackPointExtension>
        </extensions>
      </trkpt>
      <trkpt lat="42.55125909112393856048583984375" lon="20.06079375743865966796875">
        <ele>1930</ele>
        <time>2026-06-19T10:47:06.000Z</time>
        <extensions>
          <ns3:TrackPointExtension>
            <ns3:atemp>20.0</ns3:atemp>
          </ns3:TrackPointExtension>
        </extensions>
      </trkpt>
      <trkpt lat="42.5512593425810337066650390625" lon="20.06077623926103115081787109375">
        <ele>1930.199951171875</ele>
        <time>2026-06-19T10:47:07.000Z</time>
        <extensions>
          <ns3:TrackPointExtension>
            <ns3:atemp>20.0</ns3:atemp>
          </ns3:TrackPointExtension>
        </extensions>
      </trkpt>
      <trkpt lat="42.55126311443746089935302734375" lon="20.06075712852180004119873046875">
        <ele>1930.5999755859375</ele>
        <time>2026-06-19T10:47:08.000Z</time>
        <extensions>
          <ns3:TrackPointExtension>
            <ns3:atemp>20.0</ns3:atemp>
          </ns3:TrackPointExtension>
        </extensions>
      </trkpt>
      <trkpt lat="42.551268227398395538330078125" lon="20.06074036471545696258544921875">
        <ele>1931</ele>
        <time>2026-06-19T10:47:09.000Z</time>
        <extensions>
          <ns3:TrackPointExtension>
            <ns3:atemp>20.0</ns3:atemp>
          </ns3:TrackPointExtension>
        </extensions>
      </trkpt>
      <trkpt lat="42.5512744300067424774169921875" lon="20.060718990862369537353515625">
        <ele>1931.5999755859375</ele>
        <time>2026-06-19T10:47:10.000Z</time>
        <extensions>
          <ns3:TrackPointExtension>
            <ns3:atemp>20.0</ns3:atemp>
          </ns3:TrackPointExtension>
        </extensions>
      </trkpt>
      <trkpt lat="42.55128272809088230133056640625" lon="20.06069811992347240447998046875">
        <ele>1932</ele>
        <time>2026-06-19T10:47:11.000Z</time>
        <extensions>
          <ns3:TrackPointExtension>
            <ns3:atemp>20.0</ns3:atemp>
          </ns3:TrackPointExtension>
        </extensions>
      </trkpt>
      <trkpt lat="42.5512935407459735870361328125" lon="20.06067850627005100250244140625">
        <ele>1932.5999755859375</ele>
        <time>2026-06-19T10:47:12.000Z</time>
        <extensions>
          <ns3:TrackPointExtension>
            <ns3:atemp>20.0</ns3:atemp>
          </ns3:TrackPointExtension>
        </extensions>
      </trkpt>
      <trkpt lat="42.55130234174430370330810546875" lon="20.060666017234325408935546875">
        <ele>1933</ele>
        <time>2026-06-19T10:47:13.000Z</time>
        <extensions>
          <ns3:TrackPointExtension>
            <ns3:atemp>20.0</ns3:atemp>
          </ns3:TrackPointExtension>
        </extensions>
      </trkpt>
      <trkpt lat="42.55131541751325130462646484375" lon="20.06065151654183864593505859375">
        <ele>1933.4000244140625</ele>
        <time>2026-06-19T10:47:14.000Z</time>
        <extensions>
          <ns3:TrackPointExtension>
            <ns3:atemp>20.0</ns3:atemp>
          </ns3:TrackPointExtension>
        </extensions>
      </trkpt>
      <trkpt lat="42.55132966674864292144775390625" lon="20.06063844077289104461669921875">
        <ele>1933.800048828125</ele>
        <time>2026-06-19T10:47:15.000Z</time>
        <extensions>
          <ns3:TrackPointExtension>
            <ns3:atemp>20.0</ns3:atemp>
          </ns3:TrackPointExtension>
        </extensions>
      </trkpt>
      <trkpt lat="42.55133888684213161468505859375" lon="20.060627125203609466552734375">
        <ele>1934.199951171875</ele>
        <time>2026-06-19T10:47:16.000Z</time>
        <extensions>
          <ns3:TrackPointExtension>
            <ns3:atemp>20.0</ns3:atemp>
          </ns3:TrackPointExtension>
        </extensions>
      </trkpt>
      <trkpt lat="42.551346682012081146240234375" lon="20.0606158934533596038818359375">
        <ele>1934.800048828125</ele>
        <time>2026-06-19T10:47:17.000Z</time>
        <extensions>
          <ns3:TrackPointExtension>
            <ns3:atemp>20.0</ns3:atemp>
          </ns3:TrackPointExtension>
        </extensions>
      </trkpt>
      <trkpt lat="42.5513538904488086700439453125" lon="20.06060441024601459503173828125">
        <ele>1935.199951171875</ele>
        <time>2026-06-19T10:47:18.000Z</time>
        <extensions>
          <ns3:TrackPointExtension>
            <ns3:atemp>20.0</ns3:atemp>
          </ns3:TrackPointExtension>
        </extensions>
      </trkpt>
      <trkpt lat="42.5513676367700099945068359375" lon="20.0605951063334941864013671875">
        <ele>1935.5999755859375</ele>
        <time>2026-06-19T10:47:19.000Z</time>
        <extensions>
          <ns3:TrackPointExtension>
            <ns3:atemp>20.0</ns3:atemp>
          </ns3:TrackPointExtension>
        </extensions>
      </trkpt>
      <trkpt lat="42.55138213746249675750732421875" lon="20.0605863891541957855224609375">
        <ele>1936</ele>
        <time>2026-06-19T10:47:20.000Z</time>
        <extensions>
          <ns3:TrackPointExtension>
            <ns3:atemp>20.0</ns3:atemp>
          </ns3:TrackPointExtension>
        </extensions>
      </trkpt>
      <trkpt lat="42.55139621905982494354248046875" lon="20.0605796836316585540771484375">
        <ele>1936.4000244140625</ele>
        <time>2026-06-19T10:47:21.000Z</time>
        <extensions>
          <ns3:TrackPointExtension>
            <ns3:atemp>20.0</ns3:atemp>
          </ns3:TrackPointExtension>
        </extensions>
      </trkpt>
      <trkpt lat="42.55140795372426509857177734375" lon="20.06056769751012325286865234375">
        <ele>1936.800048828125</ele>
        <time>2026-06-19T10:47:22.000Z</time>
        <extensions>
          <ns3:TrackPointExtension>
            <ns3:atemp>20.0</ns3:atemp>
          </ns3:TrackPointExtension>
        </extensions>
      </trkpt>
      <trkpt lat="42.55141566507518291473388671875" lon="20.0605485029518604278564453125">
        <ele>1937</ele>
        <time>2026-06-19T10:47:23.000Z</time>
        <extensions>
          <ns3:TrackPointExtension>
            <ns3:atemp>20.0</ns3:atemp>
          </ns3:TrackPointExtension>
        </extensions>
      </trkpt>
      <trkpt lat="42.5514226220548152923583984375" lon="20.06053769029676914215087890625">
        <ele>1937.4000244140625</ele>
        <time>2026-06-19T10:47:24.000Z</time>
        <extensions>
          <ns3:TrackPointExtension>
            <ns3:atemp>20.0</ns3:atemp>
          </ns3:TrackPointExtension>
        </extensions>
      </trkpt>
      <trkpt lat="42.55143075250089168548583984375" lon="20.0605293922126293182373046875">
        <ele>1937.800048828125</ele>
        <time>2026-06-19T10:47:25.000Z</time>
        <extensions>
          <ns3:TrackPointExtension>
            <ns3:atemp>20.0</ns3:atemp>
          </ns3:TrackPointExtension>
        </extensions>
      </trkpt>
      <trkpt lat="42.55144332535564899444580078125" lon="20.06051690317690372467041015625">
        <ele>1938</ele>
        <time>2026-06-19T10:47:26.000Z</time>
        <extensions>
          <ns3:TrackPointExtension>
            <ns3:atemp>20.0</ns3:atemp>
          </ns3:TrackPointExtension>
        </extensions>
      </trkpt>
      <trkpt lat="42.55145807750523090362548828125" lon="20.060506425797939300537109375">
        <ele>1938.4000244140625</ele>
        <time>2026-06-19T10:47:27.000Z</time>
        <extensions>
          <ns3:TrackPointExtension>
            <ns3:atemp>20.0</ns3:atemp>
          </ns3:TrackPointExtension>
        </extensions>
      </trkpt>
      <trkpt lat="42.55147215910255908966064453125" lon="20.0604958645999431610107421875">
        <ele>1938.800048828125</ele>
        <time>2026-06-19T10:47:28.000Z</time>
        <extensions>
          <ns3:TrackPointExtension>
            <ns3:atemp>20.0</ns3:atemp>
          </ns3:TrackPointExtension>
        </extensions>
      </trkpt>
      <trkpt lat="42.551483809947967529296875" lon="20.0604804418981075286865234375">
        <ele>1939.199951171875</ele>
        <time>2026-06-19T10:47:29.000Z</time>
        <extensions>
          <ns3:TrackPointExtension>
            <ns3:atemp>20.0</ns3:atemp>
          </ns3:TrackPointExtension>
        </extensions>
      </trkpt>
      <trkpt lat="42.55149730481207370758056640625" lon="20.06046451628208160400390625">
        <ele>1939.5999755859375</ele>
        <time>2026-06-19T10:47:30.000Z</time>
        <extensions>
          <ns3:TrackPointExtension>
            <ns3:atemp>20.0</ns3:atemp>
          </ns3:TrackPointExtension>
        </extensions>
      </trkpt>
      <trkpt lat="42.5515104644000530242919921875" lon="20.06045303307473659515380859375">
        <ele>1940</ele>
        <time>2026-06-19T10:47:31.000Z</time>
        <extensions>
          <ns3:TrackPointExtension>
            <ns3:atemp>20.0</ns3:atemp>
          </ns3:TrackPointExtension>
        </extensions>
      </trkpt>
      <trkpt lat="42.55152513273060321807861328125" lon="20.06043995730578899383544921875">
        <ele>1940.4000244140625</ele>
        <time>2026-06-19T10:47:32.000Z</time>
        <extensions>
          <ns3:TrackPointExtension>
            <ns3:atemp>20.0</ns3:atemp>
          </ns3:TrackPointExtension>
        </extensions>
      </trkpt>
      <trkpt lat="42.55153737030923366546630859375" lon="20.0604237802326679229736328125">
        <ele>1940.800048828125</ele>
        <time>2026-06-19T10:47:33.000Z</time>
        <extensions>
          <ns3:TrackPointExtension>
            <ns3:atemp>20.0</ns3:atemp>
          </ns3:TrackPointExtension>
        </extensions>
      </trkpt>
      <trkpt lat="42.55154692567884922027587890625" lon="20.06040751934051513671875">
        <ele>1941.199951171875</ele>
        <time>2026-06-19T10:47:34.000Z</time>
        <extensions>
          <ns3:TrackPointExtension>
            <ns3:atemp>20.0</ns3:atemp>
          </ns3:TrackPointExtension>
        </extensions>
      </trkpt>
      <trkpt lat="42.55155983380973339080810546875" lon="20.0604019872844219207763671875">
        <ele>1941.5999755859375</ele>
        <time>2026-06-19T10:47:35.000Z</time>
        <extensions>
          <ns3:TrackPointExtension>
            <ns3:atemp>20.0</ns3:atemp>
          </ns3:TrackPointExtension>
        </extensions>
      </trkpt>
      <trkpt lat="42.551576681435108184814453125" lon="20.06039955653250217437744140625">
        <ele>1942</ele>
        <time>2026-06-19T10:47:36.000Z</time>
        <extensions>
          <ns3:TrackPointExtension>
            <ns3:atemp>20.0</ns3:atemp>
          </ns3:TrackPointExtension>
        </extensions>
      </trkpt>
      <trkpt lat="42.55159520544111728668212890625" lon="20.0603927671909332275390625">
        <ele>1942.4000244140625</ele>
        <time>2026-06-19T10:47:37.000Z</time>
        <extensions>
          <ns3:TrackPointExtension>
            <ns3:atemp>20.0</ns3:atemp>
          </ns3:TrackPointExtension>
        </extensions>
      </trkpt>
      <trkpt lat="42.5516083650290966033935546875" lon="20.06038094870746135711669921875">
        <ele>1942.800048828125</ele>
        <time>2026-06-19T10:47:38.000Z</time>
        <extensions>
          <ns3:TrackPointExtension>
            <ns3:atemp>20.0</ns3:atemp>
          </ns3:TrackPointExtension>
        </extensions>
      </trkpt>
      <trkpt lat="42.55161859095096588134765625" lon="20.06037508137524127960205078125">
        <ele>1943.199951171875</ele>
        <time>2026-06-19T10:47:39.000Z</time>
        <extensions>
          <ns3:TrackPointExtension>
            <ns3:atemp>20.0</ns3:atemp>
          </ns3:TrackPointExtension>
        </extensions>
      </trkpt>
      <trkpt lat="42.551635019481182098388671875" lon="20.060374997556209564208984375">
        <ele>1943.800048828125</ele>
        <time>2026-06-19T10:47:40.000Z</time>
        <extensions>
          <ns3:TrackPointExtension>
            <ns3:atemp>20.0</ns3:atemp>
          </ns3:TrackPointExtension>
        </extensions>
      </trkpt>
      <trkpt lat="42.5516506098210811614990234375" lon="20.06037575192749500274658203125">
        <ele>1944.199951171875</ele>
        <time>2026-06-19T10:47:41.000Z</time>
        <extensions>
          <ns3:TrackPointExtension>
            <ns3:atemp>20.0</ns3:atemp>
          </ns3:TrackPointExtension>
        </extensions>
      </trkpt>
      <trkpt lat="42.55166812799870967864990234375" lon="20.0603734888136386871337890625">
        <ele>1944.5999755859375</ele>
        <time>2026-06-19T10:47:42.000Z</time>
        <extensions>
          <ns3:TrackPointExtension>
            <ns3:atemp>20.0</ns3:atemp>
          </ns3:TrackPointExtension>
        </extensions>
      </trkpt>
      <trkpt lat="42.55168321542441844940185546875" lon="20.06037105806171894073486328125">
        <ele>1945.199951171875</ele>
        <time>2026-06-19T10:47:43.000Z</time>
        <extensions>
          <ns3:TrackPointExtension>
            <ns3:atemp>20.0</ns3:atemp>
          </ns3:TrackPointExtension>
        </extensions>
      </trkpt>
      <trkpt lat="42.5516968779265880584716796875" lon="20.06036854349076747894287109375">
        <ele>1945.5999755859375</ele>
        <time>2026-06-19T10:47:44.000Z</time>
        <extensions>
          <ns3:TrackPointExtension>
            <ns3:atemp>20.0</ns3:atemp>
          </ns3:TrackPointExtension>
        </extensions>
      </trkpt>
      <trkpt lat="42.55171020515263080596923828125" lon="20.0603604130446910858154296875">
        <ele>1946</ele>
        <time>2026-06-19T10:47:45.000Z</time>
        <extensions>
          <ns3:TrackPointExtension>
            <ns3:atemp>20.0</ns3:atemp>
          </ns3:TrackPointExtension>
        </extensions>
      </trkpt>
      <trkpt lat="42.55172344855964183807373046875" lon="20.06034876219928264617919921875">
        <ele>1946.4000244140625</ele>
        <time>2026-06-19T10:47:46.000Z</time>
        <extensions>
          <ns3:TrackPointExtension>
            <ns3:atemp>20.0</ns3:atemp>
          </ns3:TrackPointExtension>
        </extensions>
      </trkpt>
      <trkpt lat="42.55173853598535060882568359375" lon="20.0603389553725719451904296875">
        <ele>1946.800048828125</ele>
        <time>2026-06-19T10:47:47.000Z</time>
        <extensions>
          <ns3:TrackPointExtension>
            <ns3:atemp>20.0</ns3:atemp>
          </ns3:TrackPointExtension>
        </extensions>
      </trkpt>
      <trkpt lat="42.55175211466848850250244140625" lon="20.060328058898448944091796875">
        <ele>1947.199951171875</ele>
        <time>2026-06-19T10:47:48.000Z</time>
        <extensions>
          <ns3:TrackPointExtension>
            <ns3:atemp>20.0</ns3:atemp>
          </ns3:TrackPointExtension>
        </extensions>
      </trkpt>
      <trkpt lat="42.5517656095325946807861328125" lon="20.06030894815921783447265625">
        <ele>1947.5999755859375</ele>
        <time>2026-06-19T10:47:49.000Z</time>
        <extensions>
          <ns3:TrackPointExtension>
            <ns3:atemp>20.0</ns3:atemp>
          </ns3:TrackPointExtension>
        </extensions>
      </trkpt>
      <trkpt lat="42.5517817027866840362548828125" lon="20.06029159761965274810791015625">
        <ele>1948.199951171875</ele>
        <time>2026-06-19T10:47:50.000Z</time>
        <extensions>
          <ns3:TrackPointExtension>
            <ns3:atemp>20.0</ns3:atemp>
          </ns3:TrackPointExtension>
        </extensions>
      </trkpt>
      <trkpt lat="42.5517931021749973297119140625" lon="20.0602843053638935089111328125">
        <ele>1948.5999755859375</ele>
        <time>2026-06-19T10:47:51.000Z</time>
        <extensions>
          <ns3:TrackPointExtension>
            <ns3:atemp>20.0</ns3:atemp>
          </ns3:TrackPointExtension>
        </extensions>
      </trkpt>
      <trkpt lat="42.551804669201374053955078125" lon="20.06027768366038799285888671875">
        <ele>1949.199951171875</ele>
        <time>2026-06-19T10:47:52.000Z</time>
        <extensions>
          <ns3:TrackPointExtension>
            <ns3:atemp>20.0</ns3:atemp>
          </ns3:TrackPointExtension>
        </extensions>
      </trkpt>
      <trkpt lat="42.55181883461773395538330078125" lon="20.0602722354233264923095703125">
        <ele>1949.5999755859375</ele>
        <time>2026-06-19T10:47:53.000Z</time>
        <extensions>
          <ns3:TrackPointExtension>
            <ns3:atemp>20.0</ns3:atemp>
          </ns3:TrackPointExtension>
        </extensions>
      </trkpt>
      <trkpt lat="42.5518283061683177947998046875" lon="20.06026946939527988433837890625">
        <ele>1950</ele>
        <time>2026-06-19T10:47:54.000Z</time>
        <extensions>
          <ns3:TrackPointExtension>
            <ns3:atemp>20.0</ns3:atemp>
          </ns3:TrackPointExtension>
        </extensions>
      </trkpt>
      <trkpt lat="42.55183962173759937286376953125" lon="20.06026393733918666839599609375">
        <ele>1950.4000244140625</ele>
        <time>2026-06-19T10:47:55.000Z</time>
        <extensions>
          <ns3:TrackPointExtension>
            <ns3:atemp>20.0</ns3:atemp>
          </ns3:TrackPointExtension>
        </extensions>
      </trkpt>
      <trkpt lat="42.55185135640203952789306640625" lon="20.06026142276823520660400390625">
        <ele>1951</ele>
        <time>2026-06-19T10:47:56.000Z</time>
        <extensions>
          <ns3:TrackPointExtension>
            <ns3:atemp>20.0</ns3:atemp>
          </ns3:TrackPointExtension>
        </extensions>
      </trkpt>
      <trkpt lat="42.55186560563743114471435546875" lon="20.06026226095855236053466796875">
        <ele>1951.4000244140625</ele>
        <time>2026-06-19T10:47:57.000Z</time>
        <extensions>
          <ns3:TrackPointExtension>
            <ns3:atemp>20.0</ns3:atemp>
          </ns3:TrackPointExtension>
        </extensions>
      </trkpt>
      <trkpt lat="42.5518785975873470306396484375" lon="20.06026024930179119110107421875">
        <ele>1951.800048828125</ele>
        <time>2026-06-19T10:47:58.000Z</time>
        <extensions>
          <ns3:TrackPointExtension>
            <ns3:atemp>20.0</ns3:atemp>
          </ns3:TrackPointExtension>
        </extensions>
      </trkpt>
      <trkpt lat="42.5518928468227386474609375" lon="20.06025371141731739044189453125">
        <ele>1952</ele>
        <time>2026-06-19T10:47:59.000Z</time>
        <extensions>
          <ns3:TrackPointExtension>
            <ns3:atemp>20.0</ns3:atemp>
          </ns3:TrackPointExtension>
        </extensions>
      </trkpt>
      <trkpt lat="42.55190600641071796417236328125" lon="20.06024784408509731292724609375">
        <ele>1952.4000244140625</ele>
        <time>2026-06-19T10:48:00.000Z</time>
        <extensions>
          <ns3:TrackPointExtension>
            <ns3:atemp>20.0</ns3:atemp>
          </ns3:TrackPointExtension>
        </extensions>
      </trkpt>
      <trkpt lat="42.55191841162741184234619140625" lon="20.060237534344196319580078125">
        <ele>1952.800048828125</ele>
        <time>2026-06-19T10:48:01.000Z</time>
        <extensions>
          <ns3:TrackPointExtension>
            <ns3:atemp>20.0</ns3:atemp>
          </ns3:TrackPointExtension>
        </extensions>
      </trkpt>
      <trkpt lat="42.55192838609218597412109375" lon="20.06022571586072444915771484375">
        <ele>1953.199951171875</ele>
        <time>2026-06-19T10:48:02.000Z</time>
        <extensions>
          <ns3:TrackPointExtension>
            <ns3:atemp>20.0</ns3:atemp>
          </ns3:TrackPointExtension>
        </extensions>
      </trkpt>
      <trkpt lat="42.55194305442273616790771484375" lon="20.06021817214787006378173828125">
        <ele>1953.5999755859375</ele>
        <time>2026-06-19T10:48:03.000Z</time>
        <extensions>
          <ns3:TrackPointExtension>
            <ns3:atemp>20.0</ns3:atemp>
          </ns3:TrackPointExtension>
        </extensions>
      </trkpt>
      <trkpt lat="42.5519563816487789154052734375" lon="20.060217082500457763671875">
        <ele>1954</ele>
        <time>2026-06-19T10:48:04.000Z</time>
        <extensions>
          <ns3:TrackPointExtension>
            <ns3:atemp>20.0</ns3:atemp>
          </ns3:TrackPointExtension>
        </extensions>
      </trkpt>
      <trkpt lat="42.55196954123675823211669921875" lon="20.0602145679295063018798828125">
        <ele>1954.4000244140625</ele>
        <time>2026-06-19T10:48:05.000Z</time>
        <extensions>
          <ns3:TrackPointExtension>
            <ns3:atemp>20.0</ns3:atemp>
          </ns3:TrackPointExtension>
        </extensions>
      </trkpt>
      <trkpt lat="42.5519828684628009796142578125" lon="20.06020878441631793975830078125">
        <ele>1954.800048828125</ele>
        <time>2026-06-19T10:48:06.000Z</time>
        <extensions>
          <ns3:TrackPointExtension>
            <ns3:atemp>20.0</ns3:atemp>
          </ns3:TrackPointExtension>
        </extensions>
      </trkpt>
      <trkpt lat="42.55199368111789226531982421875" lon="20.06020300090312957763671875">
        <ele>1955</ele>
        <time>2026-06-19T10:48:07.000Z</time>
        <extensions>
          <ns3:TrackPointExtension>
            <ns3:atemp>20.0</ns3:atemp>
          </ns3:TrackPointExtension>
        </extensions>
      </trkpt>
      <trkpt lat="42.55200239829719066619873046875" lon="20.0601937808096408843994140625">
        <ele>1955.5999755859375</ele>
        <time>2026-06-19T10:48:08.000Z</time>
        <extensions>
          <ns3:TrackPointExtension>
            <ns3:atemp>20.0</ns3:atemp>
          </ns3:TrackPointExtension>
        </extensions>
      </trkpt>
      <trkpt lat="42.552014552056789398193359375" lon="20.060183219611644744873046875">
        <ele>1955.800048828125</ele>
        <time>2026-06-19T10:48:09.000Z</time>
        <extensions>
          <ns3:TrackPointExtension>
            <ns3:atemp>20.0</ns3:atemp>
          </ns3:TrackPointExtension>
        </extensions>
      </trkpt>
      <trkpt lat="42.55202637054026126861572265625" lon="20.06017307750880718231201171875">
        <ele>1956.199951171875</ele>
        <time>2026-06-19T10:48:10.000Z</time>
        <extensions>
          <ns3:TrackPointExtension>
            <ns3:atemp>20.0</ns3:atemp>
          </ns3:TrackPointExtension>
        </extensions>
      </trkpt>
      <trkpt lat="42.55204061977565288543701171875" lon="20.060160420835018157958984375">
        <ele>1956.5999755859375</ele>
        <time>2026-06-19T10:48:11.000Z</time>
        <extensions>
          <ns3:TrackPointExtension>
            <ns3:atemp>20.0</ns3:atemp>
          </ns3:TrackPointExtension>
        </extensions>
      </trkpt>
      <trkpt lat="42.55204749293625354766845703125" lon="20.0601460039615631103515625">
        <ele>1957</ele>
        <time>2026-06-19T10:48:12.000Z</time>
        <extensions>
          <ns3:TrackPointExtension>
            <ns3:atemp>20.0</ns3:atemp>
          </ns3:TrackPointExtension>
        </extensions>
      </trkpt>
      <trkpt lat="42.55205444991588592529296875" lon="20.060131251811981201171875">
        <ele>1957.4000244140625</ele>
        <time>2026-06-19T10:48:13.000Z</time>
        <extensions>
          <ns3:TrackPointExtension>
            <ns3:atemp>20.0</ns3:atemp>
          </ns3:TrackPointExtension>
        </extensions>
      </trkpt>
      <trkpt lat="42.55206509493291378021240234375" lon="20.060113482177257537841796875">
        <ele>1957.800048828125</ele>
        <time>2026-06-19T10:48:14.000Z</time>
        <extensions>
          <ns3:TrackPointExtension>
            <ns3:atemp>20.0</ns3:atemp>
          </ns3:TrackPointExtension>
        </extensions>
      </trkpt>
      <trkpt lat="42.5520821101963520050048828125" lon="20.06009847857058048248291015625">
        <ele>1958.199951171875</ele>
        <time>2026-06-19T10:48:15.000Z</time>
        <extensions>
          <ns3:TrackPointExtension>
            <ns3:atemp>20.0</ns3:atemp>
          </ns3:TrackPointExtension>
        </extensions>
      </trkpt>
      <trkpt lat="42.55209862254559993743896484375" lon="20.06009177304804325103759765625">
        <ele>1958.5999755859375</ele>
        <time>2026-06-19T10:48:16.000Z</time>
        <extensions>
          <ns3:TrackPointExtension>
            <ns3:atemp>20.0</ns3:atemp>
          </ns3:TrackPointExtension>
        </extensions>
      </trkpt>
      <trkpt lat="42.552111782133579254150390625" lon="20.06008364260196685791015625">
        <ele>1959.199951171875</ele>
        <time>2026-06-19T10:48:17.000Z</time>
        <extensions>
          <ns3:TrackPointExtension>
            <ns3:atemp>20.0</ns3:atemp>
          </ns3:TrackPointExtension>
        </extensions>
      </trkpt>
      <trkpt lat="42.55212427116930484771728515625" lon="20.06007299758493900299072265625">
        <ele>1959.5999755859375</ele>
        <time>2026-06-19T10:48:18.000Z</time>
        <extensions>
          <ns3:TrackPointExtension>
            <ns3:atemp>20.0</ns3:atemp>
          </ns3:TrackPointExtension>
        </extensions>
      </trkpt>
      <trkpt lat="42.55213801749050617218017578125" lon="20.060058496892452239990234375">
        <ele>1960</ele>
        <time>2026-06-19T10:48:19.000Z</time>
        <extensions>
          <ns3:TrackPointExtension>
            <ns3:atemp>20.0</ns3:atemp>
          </ns3:TrackPointExtension>
        </extensions>
      </trkpt>
      <trkpt lat="42.55215109325945377349853515625" lon="20.06004734896123409271240234375">
        <ele>1960.4000244140625</ele>
        <time>2026-06-19T10:48:20.000Z</time>
        <extensions>
          <ns3:TrackPointExtension>
            <ns3:atemp>20.0</ns3:atemp>
          </ns3:TrackPointExtension>
        </extensions>
      </trkpt>
      <trkpt lat="42.55216576159000396728515625" lon="20.060037709772586822509765625">
        <ele>1960.800048828125</ele>
        <time>2026-06-19T10:48:21.000Z</time>
        <extensions>
          <ns3:TrackPointExtension>
            <ns3:atemp>20.0</ns3:atemp>
          </ns3:TrackPointExtension>
        </extensions>
      </trkpt>
      <trkpt lat="42.5521810166537761688232421875" lon="20.060024969279766082763671875">
        <ele>1961.199951171875</ele>
        <time>2026-06-19T10:48:22.000Z</time>
        <extensions>
          <ns3:TrackPointExtension>
            <ns3:atemp>20.0</ns3:atemp>
          </ns3:TrackPointExtension>
        </extensions>
      </trkpt>
      <trkpt lat="42.55219350568950176239013671875" lon="20.06001281552016735076904296875">
        <ele>1961.5999755859375</ele>
        <time>2026-06-19T10:48:23.000Z</time>
        <extensions>
          <ns3:TrackPointExtension>
            <ns3:atemp>20.0</ns3:atemp>
          </ns3:TrackPointExtension>
        </extensions>
      </trkpt>
      <trkpt lat="42.55220456980168819427490234375" lon="20.06000610999763011932373046875">
        <ele>1962</ele>
        <time>2026-06-19T10:48:24.000Z</time>
        <extensions>
          <ns3:TrackPointExtension>
            <ns3:atemp>20.0</ns3:atemp>
          </ns3:TrackPointExtension>
        </extensions>
      </trkpt>
      <trkpt lat="42.552216053009033203125" lon="20.0599999912083148956298828125">
        <ele>1962.5999755859375</ele>
        <time>2026-06-19T10:48:25.000Z</time>
        <extensions>
          <ns3:TrackPointExtension>
            <ns3:atemp>20.0</ns3:atemp>
          </ns3:TrackPointExtension>
        </extensions>
      </trkpt>
      <trkpt lat="42.5522303022444248199462890625" lon="20.0599892623722553253173828125">
        <ele>1963</ele>
        <time>2026-06-19T10:48:26.000Z</time>
        <extensions>
          <ns3:TrackPointExtension>
            <ns3:atemp>20.0</ns3:atemp>
          </ns3:TrackPointExtension>
        </extensions>
      </trkpt>
      <trkpt lat="42.55224396474659442901611328125" lon="20.059976018965244293212890625">
        <ele>1963.199951171875</ele>
        <time>2026-06-19T10:48:27.000Z</time>
        <extensions>
          <ns3:TrackPointExtension>
            <ns3:atemp>20.0</ns3:atemp>
          </ns3:TrackPointExtension>
        </extensions>
      </trkpt>
      <trkpt lat="42.552257962524890899658203125" lon="20.05996562540531158447265625">
        <ele>1963.5999755859375</ele>
        <time>2026-06-19T10:48:28.000Z</time>
        <extensions>
          <ns3:TrackPointExtension>
            <ns3:atemp>20.0</ns3:atemp>
          </ns3:TrackPointExtension>
        </extensions>
      </trkpt>
      <trkpt lat="42.55227036774158477783203125" lon="20.059953890740871429443359375">
        <ele>1964</ele>
        <time>2026-06-19T10:48:29.000Z</time>
        <extensions>
          <ns3:TrackPointExtension>
            <ns3:atemp>20.0</ns3:atemp>
          </ns3:TrackPointExtension>
        </extensions>
      </trkpt>
      <trkpt lat="42.55228386260569095611572265625" lon="20.059941150248050689697265625">
        <ele>1964.5999755859375</ele>
        <time>2026-06-19T10:48:30.000Z</time>
        <extensions>
          <ns3:TrackPointExtension>
            <ns3:atemp>20.0</ns3:atemp>
          </ns3:TrackPointExtension>
        </extensions>
      </trkpt>
      <trkpt lat="42.5522956810891628265380859375" lon="20.05992899648845195770263671875">
        <ele>1965</ele>
        <time>2026-06-19T10:48:31.000Z</time>
        <extensions>
          <ns3:TrackPointExtension>
            <ns3:atemp>20.0</ns3:atemp>
          </ns3:TrackPointExtension>
        </extensions>
      </trkpt>
      <trkpt lat="42.55231018178164958953857421875" lon="20.05991642363369464874267578125">
        <ele>1965.4000244140625</ele>
        <time>2026-06-19T10:48:32.000Z</time>
        <extensions>
          <ns3:TrackPointExtension>
            <ns3:atemp>20.0</ns3:atemp>
          </ns3:TrackPointExtension>
        </extensions>
      </trkpt>
      <trkpt lat="42.55232669413089752197265625" lon="20.05990603007376194000244140625">
        <ele>1965.800048828125</ele>
        <time>2026-06-19T10:48:33.000Z</time>
        <extensions>
          <ns3:TrackPointExtension>
            <ns3:atemp>20.0</ns3:atemp>
          </ns3:TrackPointExtension>
        </extensions>
      </trkpt>
      <trkpt lat="42.55234186537563800811767578125" lon="20.05989697761833667755126953125">
        <ele>1966.199951171875</ele>
        <time>2026-06-19T10:48:34.000Z</time>
        <extensions>
          <ns3:TrackPointExtension>
            <ns3:atemp>20.0</ns3:atemp>
          </ns3:TrackPointExtension>
        </extensions>
      </trkpt>
      <trkpt lat="42.55235259421169757843017578125" lon="20.05988515913486480712890625">
        <ele>1966.5999755859375</ele>
        <time>2026-06-19T10:48:35.000Z</time>
        <extensions>
          <ns3:TrackPointExtension>
            <ns3:atemp>20.0</ns3:atemp>
          </ns3:TrackPointExtension>
        </extensions>
      </trkpt>
      <trkpt lat="42.5523647479712963104248046875" lon="20.05987149663269519805908203125">
        <ele>1967</ele>
        <time>2026-06-19T10:48:36.000Z</time>
        <extensions>
          <ns3:TrackPointExtension>
            <ns3:atemp>20.0</ns3:atemp>
          </ns3:TrackPointExtension>
        </extensions>
      </trkpt>
      <trkpt lat="42.55237765610218048095703125" lon="20.0598598457872867584228515625">
        <ele>1967.199951171875</ele>
        <time>2026-06-19T10:48:37.000Z</time>
        <extensions>
          <ns3:TrackPointExtension>
            <ns3:atemp>20.0</ns3:atemp>
          </ns3:TrackPointExtension>
        </extensions>
      </trkpt>
      <trkpt lat="42.5523912347853183746337890625" lon="20.05985070951282978057861328125">
        <ele>1967.5999755859375</ele>
        <time>2026-06-19T10:48:38.000Z</time>
        <extensions>
          <ns3:TrackPointExtension>
            <ns3:atemp>20.0</ns3:atemp>
          </ns3:TrackPointExtension>
        </extensions>
      </trkpt>
      <trkpt lat="42.55240540020167827606201171875" lon="20.05984366871416568756103515625">
        <ele>1968</ele>
        <time>2026-06-19T10:48:39.000Z</time>
        <extensions>
          <ns3:TrackPointExtension>
            <ns3:atemp>20.0</ns3:atemp>
          </ns3:TrackPointExtension>
        </extensions>
      </trkpt>
      <trkpt lat="42.55241931416094303131103515625" lon="20.0598350353538990020751953125">
        <ele>1968.4000244140625</ele>
        <time>2026-06-19T10:48:40.000Z</time>
        <extensions>
          <ns3:TrackPointExtension>
            <ns3:atemp>20.0</ns3:atemp>
          </ns3:TrackPointExtension>
        </extensions>
      </trkpt>
      <trkpt lat="42.552433647215366363525390625" lon="20.05981986410915851593017578125">
        <ele>1968.800048828125</ele>
        <time>2026-06-19T10:48:41.000Z</time>
        <extensions>
          <ns3:TrackPointExtension>
            <ns3:atemp>20.0</ns3:atemp>
          </ns3:TrackPointExtension>
        </extensions>
      </trkpt>
      <trkpt lat="42.55244580097496509552001953125" lon="20.0598021782934665679931640625">
        <ele>1969.199951171875</ele>
        <time>2026-06-19T10:48:42.000Z</time>
        <extensions>
          <ns3:TrackPointExtension>
            <ns3:atemp>20.0</ns3:atemp>
          </ns3:TrackPointExtension>
        </extensions>
      </trkpt>
      <trkpt lat="42.55246080458164215087890625" lon="20.0597860850393772125244140625">
        <ele>1969.5999755859375</ele>
        <time>2026-06-19T10:48:43.000Z</time>
        <extensions>
          <ns3:TrackPointExtension>
            <ns3:atemp>20.0</ns3:atemp>
          </ns3:TrackPointExtension>
        </extensions>
      </trkpt>
      <trkpt lat="42.55247379653155803680419921875" lon="20.05977359600365161895751953125">
        <ele>1970</ele>
        <time>2026-06-19T10:48:44.000Z</time>
        <extensions>
          <ns3:TrackPointExtension>
            <ns3:atemp>20.0</ns3:atemp>
          </ns3:TrackPointExtension>
        </extensions>
      </trkpt>
      <trkpt lat="42.55248284898698329925537109375" lon="20.0597572512924671173095703125">
        <ele>1970.4000244140625</ele>
        <time>2026-06-19T10:48:45.000Z</time>
        <extensions>
          <ns3:TrackPointExtension>
            <ns3:atemp>20.0</ns3:atemp>
          </ns3:TrackPointExtension>
        </extensions>
      </trkpt>
      <trkpt lat="42.55249341018497943878173828125" lon="20.05974258296191692352294921875">
        <ele>1971</ele>
        <time>2026-06-19T10:48:46.000Z</time>
        <extensions>
          <ns3:TrackPointExtension>
            <ns3:atemp>20.0</ns3:atemp>
          </ns3:TrackPointExtension>
        </extensions>
      </trkpt>
      <trkpt lat="42.55250581540167331695556640625" lon="20.0597250647842884063720703125">
        <ele>1971.4000244140625</ele>
        <time>2026-06-19T10:48:47.000Z</time>
        <extensions>
          <ns3:TrackPointExtension>
            <ns3:atemp>20.0</ns3:atemp>
          </ns3:TrackPointExtension>
        </extensions>
      </trkpt>
      <trkpt lat="42.55251470021903514862060546875" lon="20.05970587022602558135986328125">
        <ele>1972</ele>
        <time>2026-06-19T10:48:48.000Z</time>
        <extensions>
          <ns3:TrackPointExtension>
            <ns3:atemp>20.0</ns3:atemp>
          </ns3:TrackPointExtension>
        </extensions>
      </trkpt>
      <trkpt lat="42.552520148456096649169921875" lon="20.05968692712485790252685546875">
        <ele>1972.4000244140625</ele>
        <time>2026-06-19T10:48:49.000Z</time>
        <extensions>
          <ns3:TrackPointExtension>
            <ns3:atemp>20.0</ns3:atemp>
          </ns3:TrackPointExtension>
        </extensions>
      </trkpt>
      <trkpt lat="42.5525317154824733734130859375" lon="20.05966932512819766998291015625">
        <ele>1972.800048828125</ele>
        <time>2026-06-19T10:48:50.000Z</time>
        <extensions>
          <ns3:TrackPointExtension>
            <ns3:atemp>20.0</ns3:atemp>
          </ns3:TrackPointExtension>
        </extensions>
      </trkpt>
      <trkpt lat="42.55254588089883327484130859375" lon="20.0596511363983154296875">
        <ele>1973.199951171875</ele>
        <time>2026-06-19T10:48:51.000Z</time>
        <extensions>
          <ns3:TrackPointExtension>
            <ns3:atemp>20.0</ns3:atemp>
          </ns3:TrackPointExtension>
        </extensions>
      </trkpt>
      <trkpt lat="42.55255292169749736785888671875" lon="20.0596274994313716888427734375">
        <ele>1973.5999755859375</ele>
        <time>2026-06-19T10:48:52.000Z</time>
        <extensions>
          <ns3:TrackPointExtension>
            <ns3:atemp>20.0</ns3:atemp>
          </ns3:TrackPointExtension>
        </extensions>
      </trkpt>
      <trkpt lat="42.55256130360066890716552734375" lon="20.0596073828637599945068359375">
        <ele>1974.199951171875</ele>
        <time>2026-06-19T10:48:53.000Z</time>
        <extensions>
          <ns3:TrackPointExtension>
            <ns3:atemp>20.0</ns3:atemp>
          </ns3:TrackPointExtension>
        </extensions>
      </trkpt>
      <trkpt lat="42.5525689311325550079345703125" lon="20.05959288217127323150634765625">
        <ele>1974.5999755859375</ele>
        <time>2026-06-19T10:48:54.000Z</time>
        <extensions>
          <ns3:TrackPointExtension>
            <ns3:atemp>20.0</ns3:atemp>
          </ns3:TrackPointExtension>
        </extensions>
      </trkpt>
      <trkpt lat="42.55257748067378997802734375" lon="20.0595741905272006988525390625">
        <ele>1975</ele>
        <time>2026-06-19T10:48:55.000Z</time>
        <extensions>
          <ns3:TrackPointExtension>
            <ns3:atemp>20.0</ns3:atemp>
          </ns3:TrackPointExtension>
        </extensions>
      </trkpt>
      <trkpt lat="42.552587203681468963623046875" lon="20.059556253254413604736328125">
        <ele>1975.4000244140625</ele>
        <time>2026-06-19T10:48:56.000Z</time>
        <extensions>
          <ns3:TrackPointExtension>
            <ns3:atemp>20.0</ns3:atemp>
          </ns3:TrackPointExtension>
        </extensions>
      </trkpt>
      <trkpt lat="42.552599608898162841796875" lon="20.05954326130449771881103515625">
        <ele>1975.800048828125</ele>
        <time>2026-06-19T10:48:57.000Z</time>
        <extensions>
          <ns3:TrackPointExtension>
            <ns3:atemp>20.0</ns3:atemp>
          </ns3:TrackPointExtension>
        </extensions>
      </trkpt>
      <trkpt lat="42.55261159501969814300537109375" lon="20.05952817387878894805908203125">
        <ele>1976.199951171875</ele>
        <time>2026-06-19T10:48:58.000Z</time>
        <extensions>
          <ns3:TrackPointExtension>
            <ns3:atemp>20.0</ns3:atemp>
          </ns3:TrackPointExtension>
        </extensions>
      </trkpt>
      <trkpt lat="42.55262567661702632904052734375" lon="20.05951224826276302337646484375">
        <ele>1976.800048828125</ele>
        <time>2026-06-19T10:48:59.000Z</time>
        <extensions>
          <ns3:TrackPointExtension>
            <ns3:atemp>20.0</ns3:atemp>
          </ns3:TrackPointExtension>
        </extensions>
      </trkpt>
      <trkpt lat="42.5526390038430690765380859375" lon="20.0594969093799591064453125">
        <ele>1977.199951171875</ele>
        <time>2026-06-19T10:49:00.000Z</time>
        <extensions>
          <ns3:TrackPointExtension>
            <ns3:atemp>20.0</ns3:atemp>
          </ns3:TrackPointExtension>
        </extensions>
      </trkpt>
      <trkpt lat="42.5526520796120166778564453125" lon="20.05947972647845745086669921875">
        <ele>1977.800048828125</ele>
        <time>2026-06-19T10:49:01.000Z</time>
        <extensions>
          <ns3:TrackPointExtension>
            <ns3:atemp>20.0</ns3:atemp>
          </ns3:TrackPointExtension>
        </extensions>
      </trkpt>
      <trkpt lat="42.552663981914520263671875" lon="20.05946363322436809539794921875">
        <ele>1978.199951171875</ele>
        <time>2026-06-19T10:49:02.000Z</time>
        <extensions>
          <ns3:TrackPointExtension>
            <ns3:atemp>20.0</ns3:atemp>
          </ns3:TrackPointExtension>
        </extensions>
      </trkpt>
      <trkpt lat="42.552673704922199249267578125" lon="20.05944418720901012420654296875">
        <ele>1978.5999755859375</ele>
        <time>2026-06-19T10:49:03.000Z</time>
        <extensions>
          <ns3:TrackPointExtension>
            <ns3:atemp>20.0</ns3:atemp>
          </ns3:TrackPointExtension>
        </extensions>
      </trkpt>
      <trkpt lat="42.55268870852887630462646484375" lon="20.05943161435425281524658203125">
        <ele>1979.199951171875</ele>
        <time>2026-06-19T10:49:04.000Z</time>
        <extensions>
          <ns3:TrackPointExtension>
            <ns3:atemp>20.0</ns3:atemp>
          </ns3:TrackPointExtension>
        </extensions>
      </trkpt>
      <trkpt lat="42.55269910208880901336669921875" lon="20.05941518582403659820556640625">
        <ele>1979.800048828125</ele>
        <time>2026-06-19T10:49:05.000Z</time>
        <extensions>
          <ns3:TrackPointExtension>
            <ns3:atemp>20.0</ns3:atemp>
          </ns3:TrackPointExtension>
        </extensions>
      </trkpt>
      <trkpt lat="42.55270916037261486053466796875" lon="20.0593975000083446502685546875">
        <ele>1980.199951171875</ele>
        <time>2026-06-19T10:49:06.000Z</time>
        <extensions>
          <ns3:TrackPointExtension>
            <ns3:atemp>20.0</ns3:atemp>
          </ns3:TrackPointExtension>
        </extensions>
      </trkpt>
      <trkpt lat="42.5527218170464038848876953125" lon="20.059380568563938140869140625">
        <ele>1980.5999755859375</ele>
        <time>2026-06-19T10:49:07.000Z</time>
        <extensions>
          <ns3:TrackPointExtension>
            <ns3:atemp>20.0</ns3:atemp>
          </ns3:TrackPointExtension>
        </extensions>
      </trkpt>
      <trkpt lat="42.55273413844406604766845703125" lon="20.0593654811382293701171875">
        <ele>1981.199951171875</ele>
        <time>2026-06-19T10:49:08.000Z</time>
        <extensions>
          <ns3:TrackPointExtension>
            <ns3:atemp>20.0</ns3:atemp>
          </ns3:TrackPointExtension>
        </extensions>
      </trkpt>
      <trkpt lat="42.55274604074656963348388671875" lon="20.05934779532253742218017578125">
        <ele>1981.4000244140625</ele>
        <time>2026-06-19T10:49:09.000Z</time>
        <extensions>
          <ns3:TrackPointExtension>
            <ns3:atemp>20.0</ns3:atemp>
          </ns3:TrackPointExtension>
        </extensions>
      </trkpt>
      <trkpt lat="42.55275425501167774200439453125" lon="20.0593254156410694122314453125">
        <ele>1982</ele>
        <time>2026-06-19T10:49:10.000Z</time>
        <extensions>
          <ns3:TrackPointExtension>
            <ns3:atemp>20.0</ns3:atemp>
          </ns3:TrackPointExtension>
        </extensions>
      </trkpt>
      <trkpt lat="42.5527623854577541351318359375" lon="20.059306137263774871826171875">
        <ele>1982.4000244140625</ele>
        <time>2026-06-19T10:49:11.000Z</time>
        <extensions>
          <ns3:TrackPointExtension>
            <ns3:atemp>20.0</ns3:atemp>
          </ns3:TrackPointExtension>
        </extensions>
      </trkpt>
      <trkpt lat="42.55277068354189395904541015625" lon="20.05928392522037029266357421875">
        <ele>1982.5999755859375</ele>
        <time>2026-06-19T10:49:12.000Z</time>
        <extensions>
          <ns3:TrackPointExtension>
            <ns3:atemp>20.0</ns3:atemp>
          </ns3:TrackPointExtension>
        </extensions>
      </trkpt>
      <trkpt lat="42.5527806580066680908203125" lon="20.059268586337566375732421875">
        <ele>1983</ele>
        <time>2026-06-19T10:49:13.000Z</time>
        <extensions>
          <ns3:TrackPointExtension>
            <ns3:atemp>20.0</ns3:atemp>
          </ns3:TrackPointExtension>
        </extensions>
      </trkpt>
      <trkpt lat="42.55279096774756908416748046875" lon="20.0592513196170330047607421875">
        <ele>1983.4000244140625</ele>
        <time>2026-06-19T10:49:14.000Z</time>
        <extensions>
          <ns3:TrackPointExtension>
            <ns3:atemp>20.0</ns3:atemp>
          </ns3:TrackPointExtension>
        </extensions>
      </trkpt>
      <trkpt lat="42.55280454643070697784423828125" lon="20.05922659300267696380615234375">
        <ele>1983.5999755859375</ele>
        <time>2026-06-19T10:49:15.000Z</time>
        <extensions>
          <ns3:TrackPointExtension>
            <ns3:atemp>20.0</ns3:atemp>
          </ns3:TrackPointExtension>
        </extensions>
      </trkpt>
      <trkpt lat="42.5528153590857982635498046875" lon="20.05920815281569957733154296875">
        <ele>1984</ele>
        <time>2026-06-19T10:49:16.000Z</time>
        <extensions>
          <ns3:TrackPointExtension>
            <ns3:atemp>20.0</ns3:atemp>
          </ns3:TrackPointExtension>
        </extensions>
      </trkpt>
      <trkpt lat="42.552825249731540679931640625" lon="20.05919172428548336029052734375">
        <ele>1984.4000244140625</ele>
        <time>2026-06-19T10:49:17.000Z</time>
        <extensions>
          <ns3:TrackPointExtension>
            <ns3:atemp>20.0</ns3:atemp>
          </ns3:TrackPointExtension>
        </extensions>
      </trkpt>
      <trkpt lat="42.55283907987177371978759765625" lon="20.05917144007980823516845703125">
        <ele>1984.800048828125</ele>
        <time>2026-06-19T10:49:18.000Z</time>
        <extensions>
          <ns3:TrackPointExtension>
            <ns3:atemp>20.0</ns3:atemp>
          </ns3:TrackPointExtension>
        </extensions>
      </trkpt>
      <trkpt lat="42.5528519041836261749267578125" lon="20.05915417335927486419677734375">
        <ele>1985</ele>
        <time>2026-06-19T10:49:19.000Z</time>
        <extensions>
          <ns3:TrackPointExtension>
            <ns3:atemp>20.0</ns3:atemp>
          </ns3:TrackPointExtension>
        </extensions>
      </trkpt>
      <trkpt lat="42.5528663210570812225341796875" lon="20.05913841538131237030029296875">
        <ele>1985.4000244140625</ele>
        <time>2026-06-19T10:49:20.000Z</time>
        <extensions>
          <ns3:TrackPointExtension>
            <ns3:atemp>20.0</ns3:atemp>
          </ns3:TrackPointExtension>
        </extensions>
      </trkpt>
      <trkpt lat="42.55287864245474338531494140625" lon="20.059126429259777069091796875">
        <ele>1985.800048828125</ele>
        <time>2026-06-19T10:49:21.000Z</time>
        <extensions>
          <ns3:TrackPointExtension>
            <ns3:atemp>20.0</ns3:atemp>
          </ns3:TrackPointExtension>
        </extensions>
      </trkpt>
      <trkpt lat="42.55289641208946704864501953125" lon="20.05911343730986118316650390625">
        <ele>1986.199951171875</ele>
        <time>2026-06-19T10:49:22.000Z</time>
        <extensions>
          <ns3:TrackPointExtension>
            <ns3:atemp>20.0</ns3:atemp>
          </ns3:TrackPointExtension>
        </extensions>
      </trkpt>
      <trkpt lat="42.55291217006742954254150390625" lon="20.05909533239901065826416015625">
        <ele>1986.5999755859375</ele>
        <time>2026-06-19T10:49:23.000Z</time>
        <extensions>
          <ns3:TrackPointExtension>
            <ns3:atemp>20.0</ns3:atemp>
          </ns3:TrackPointExtension>
        </extensions>
      </trkpt>
      <trkpt lat="42.55292348563671112060546875" lon="20.05908024497330188751220703125">
        <ele>1986.800048828125</ele>
        <time>2026-06-19T10:49:24.000Z</time>
        <extensions>
          <ns3:TrackPointExtension>
            <ns3:atemp>20.0</ns3:atemp>
          </ns3:TrackPointExtension>
        </extensions>
      </trkpt>
      <trkpt lat="42.55293815396726131439208984375" lon="20.059062056243419647216796875">
        <ele>1987.199951171875</ele>
        <time>2026-06-19T10:49:25.000Z</time>
        <extensions>
          <ns3:TrackPointExtension>
            <ns3:atemp>20.0</ns3:atemp>
          </ns3:TrackPointExtension>
        </extensions>
      </trkpt>
      <trkpt lat="42.55295298993587493896484375" lon="20.05904772318899631500244140625">
        <ele>1987.5999755859375</ele>
        <time>2026-06-19T10:49:26.000Z</time>
        <extensions>
          <ns3:TrackPointExtension>
            <ns3:atemp>20.0</ns3:atemp>
          </ns3:TrackPointExtension>
        </extensions>
      </trkpt>
      <trkpt lat="42.55296849645674228668212890625" lon="20.059034563601016998291015625">
        <ele>1988</ele>
        <time>2026-06-19T10:49:27.000Z</time>
        <extensions>
          <ns3:TrackPointExtension>
            <ns3:atemp>20.0</ns3:atemp>
          </ns3:TrackPointExtension>
        </extensions>
      </trkpt>
      <trkpt lat="42.552984841167926788330078125" lon="20.059017799794673919677734375">
        <ele>1988.4000244140625</ele>
        <time>2026-06-19T10:49:28.000Z</time>
        <extensions>
          <ns3:TrackPointExtension>
            <ns3:atemp>20.0</ns3:atemp>
          </ns3:TrackPointExtension>
        </extensions>
      </trkpt>
      <trkpt lat="42.55300118587911128997802734375" lon="20.05900313146412372589111328125">
        <ele>1988.800048828125</ele>
        <time>2026-06-19T10:49:29.000Z</time>
        <extensions>
          <ns3:TrackPointExtension>
            <ns3:atemp>20.0</ns3:atemp>
          </ns3:TrackPointExtension>
        </extensions>
      </trkpt>
      <trkpt lat="42.553017027676105499267578125" lon="20.05898485891520977020263671875">
        <ele>1989</ele>
        <time>2026-06-19T10:49:30.000Z</time>
        <extensions>
          <ns3:TrackPointExtension>
            <ns3:atemp>20.0</ns3:atemp>
          </ns3:TrackPointExtension>
        </extensions>
      </trkpt>
      <trkpt lat="42.55303354002535343170166015625" lon="20.05897429771721363067626953125">
        <ele>1989.4000244140625</ele>
        <time>2026-06-19T10:49:31.000Z</time>
        <extensions>
          <ns3:TrackPointExtension>
            <ns3:atemp>20.0</ns3:atemp>
          </ns3:TrackPointExtension>
        </extensions>
      </trkpt>
      <trkpt lat="42.55305047146975994110107421875" lon="20.05896516144275665283203125">
        <ele>1989.800048828125</ele>
        <time>2026-06-19T10:49:32.000Z</time>
        <extensions>
          <ns3:TrackPointExtension>
            <ns3:atemp>20.0</ns3:atemp>
          </ns3:TrackPointExtension>
        </extensions>
      </trkpt>
      <trkpt lat="42.5530654750764369964599609375" lon="20.05895116366446018218994140625">
        <ele>1990.199951171875</ele>
        <time>2026-06-19T10:49:33.000Z</time>
        <extensions>
          <ns3:TrackPointExtension>
            <ns3:atemp>20.0</ns3:atemp>
          </ns3:TrackPointExtension>
        </extensions>
      </trkpt>
      <trkpt lat="42.5530782155692577362060546875" lon="20.05894060246646404266357421875">
        <ele>1990.5999755859375</ele>
        <time>2026-06-19T10:49:34.000Z</time>
        <extensions>
          <ns3:TrackPointExtension>
            <ns3:atemp>20.0</ns3:atemp>
          </ns3:TrackPointExtension>
        </extensions>
      </trkpt>
      <trkpt lat="42.5530963204801082611083984375" lon="20.05892400629818439483642578125">
        <ele>1991</ele>
        <time>2026-06-19T10:49:35.000Z</time>
        <extensions>
          <ns3:TrackPointExtension>
            <ns3:atemp>20.0</ns3:atemp>
          </ns3:TrackPointExtension>
        </extensions>
      </trkpt>
      <trkpt lat="42.5531140901148319244384765625" lon="20.05890858359634876251220703125">
        <ele>1991.4000244140625</ele>
        <time>2026-06-19T10:49:36.000Z</time>
        <extensions>
          <ns3:TrackPointExtension>
            <ns3:atemp>20.0</ns3:atemp>
          </ns3:TrackPointExtension>
        </extensions>
      </trkpt>
      <trkpt lat="42.55313043482601642608642578125" lon="20.05889140069484710693359375">
        <ele>1991.800048828125</ele>
        <time>2026-06-19T10:49:37.000Z</time>
        <extensions>
          <ns3:TrackPointExtension>
            <ns3:atemp>20.0</ns3:atemp>
          </ns3:TrackPointExtension>
        </extensions>
      </trkpt>
      <trkpt lat="42.55314367823302745819091796875" lon="20.0588737986981868743896484375">
        <ele>1992.199951171875</ele>
        <time>2026-06-19T10:49:38.000Z</time>
        <extensions>
          <ns3:TrackPointExtension>
            <ns3:atemp>20.0</ns3:atemp>
          </ns3:TrackPointExtension>
        </extensions>
      </trkpt>
      <trkpt lat="42.55315817892551422119140625" lon="20.0588573701679706573486328125">
        <ele>1992.5999755859375</ele>
        <time>2026-06-19T10:49:39.000Z</time>
        <extensions>
          <ns3:TrackPointExtension>
            <ns3:atemp>20.0</ns3:atemp>
          </ns3:TrackPointExtension>
        </extensions>
      </trkpt>
      <trkpt lat="42.553171925246715545654296875" lon="20.05883918143808841705322265625">
        <ele>1992.800048828125</ele>
        <time>2026-06-19T10:49:40.000Z</time>
        <extensions>
          <ns3:TrackPointExtension>
            <ns3:atemp>20.0</ns3:atemp>
          </ns3:TrackPointExtension>
        </extensions>
      </trkpt>
      <trkpt lat="42.55318634212017059326171875" lon="20.0588236749172210693359375">
        <ele>1993.199951171875</ele>
        <time>2026-06-19T10:49:41.000Z</time>
        <extensions>
          <ns3:TrackPointExtension>
            <ns3:atemp>20.0</ns3:atemp>
          </ns3:TrackPointExtension>
        </extensions>
      </trkpt>
      <trkpt lat="42.553201429545879364013671875" lon="20.05880917422473430633544921875">
        <ele>1993.4000244140625</ele>
        <time>2026-06-19T10:49:42.000Z</time>
        <extensions>
          <ns3:TrackPointExtension>
            <ns3:atemp>20.0</ns3:atemp>
          </ns3:TrackPointExtension>
        </extensions>
      </trkpt>
      <trkpt lat="42.5532200373709201812744140625" lon="20.05879861302673816680908203125">
        <ele>1993.800048828125</ele>
        <time>2026-06-19T10:49:43.000Z</time>
        <extensions>
          <ns3:TrackPointExtension>
            <ns3:atemp>20.0</ns3:atemp>
          </ns3:TrackPointExtension>
        </extensions>
      </trkpt>
      <trkpt lat="42.553236968815326690673828125" lon="20.0587936677038669586181640625">
        <ele>1994</ele>
        <time>2026-06-19T10:49:44.000Z</time>
        <extensions>
          <ns3:TrackPointExtension>
            <ns3:atemp>20.0</ns3:atemp>
          </ns3:TrackPointExtension>
        </extensions>
      </trkpt>
      <trkpt lat="42.55325339734554290771484375" lon="20.0587916560471057891845703125">
        <ele>1994.4000244140625</ele>
        <time>2026-06-19T10:49:45.000Z</time>
        <extensions>
          <ns3:TrackPointExtension>
            <ns3:atemp>20.0</ns3:atemp>
          </ns3:TrackPointExtension>
        </extensions>
      </trkpt>
      <trkpt lat="42.55327007733285427093505859375" lon="20.0587899796664714813232421875">
        <ele>1994.5999755859375</ele>
        <time>2026-06-19T10:49:46.000Z</time>
        <extensions>
          <ns3:TrackPointExtension>
            <ns3:atemp>20.0</ns3:atemp>
          </ns3:TrackPointExtension>
        </extensions>
      </trkpt>
      <trkpt lat="42.55328784696757793426513671875" lon="20.058795846998691558837890625">
        <ele>1995</ele>
        <time>2026-06-19T10:49:47.000Z</time>
        <extensions>
          <ns3:TrackPointExtension>
            <ns3:atemp>20.0</ns3:atemp>
          </ns3:TrackPointExtension>
        </extensions>
      </trkpt>
      <trkpt lat="42.55330511368811130523681640625" lon="20.05879752337932586669921875">
        <ele>1995.4000244140625</ele>
        <time>2026-06-19T10:49:48.000Z</time>
        <extensions>
          <ns3:TrackPointExtension>
            <ns3:atemp>20.0</ns3:atemp>
          </ns3:TrackPointExtension>
        </extensions>
      </trkpt>
      <trkpt lat="42.55332254804670810699462890625" lon="20.05879911594092845916748046875">
        <ele>1995.800048828125</ele>
        <time>2026-06-19T10:49:49.000Z</time>
        <extensions>
          <ns3:TrackPointExtension>
            <ns3:atemp>20.0</ns3:atemp>
          </ns3:TrackPointExtension>
        </extensions>
      </trkpt>
      <trkpt lat="42.55334149114787578582763671875" lon="20.0588040612637996673583984375">
        <ele>1996.199951171875</ele>
        <time>2026-06-19T10:49:50.000Z</time>
        <extensions>
          <ns3:TrackPointExtension>
            <ns3:atemp>20.0</ns3:atemp>
          </ns3:TrackPointExtension>
        </extensions>
      </trkpt>
      <trkpt lat="42.55335875786840915679931640625" lon="20.05881101824343204498291015625">
        <ele>1996.5999755859375</ele>
        <time>2026-06-19T10:49:51.000Z</time>
        <extensions>
          <ns3:TrackPointExtension>
            <ns3:atemp>20.0</ns3:atemp>
          </ns3:TrackPointExtension>
        </extensions>
      </trkpt>
      <trkpt lat="42.55337853915989398956298828125" lon="20.0588188134133815765380859375">
        <ele>1997</ele>
        <time>2026-06-19T10:49:52.000Z</time>
        <extensions>
          <ns3:TrackPointExtension>
            <ns3:atemp>20.0</ns3:atemp>
          </ns3:TrackPointExtension>
        </extensions>
      </trkpt>
      <trkpt lat="42.55339630879461765289306640625" lon="20.05882442928850650787353515625">
        <ele>1997.4000244140625</ele>
        <time>2026-06-19T10:49:53.000Z</time>
        <extensions>
          <ns3:TrackPointExtension>
            <ns3:atemp>20.0</ns3:atemp>
          </ns3:TrackPointExtension>
        </extensions>
      </trkpt>
      <trkpt lat="42.55341424606740474700927734375" lon="20.05883012898266315460205078125">
        <ele>1997.800048828125</ele>
        <time>2026-06-19T10:49:54.000Z</time>
        <extensions>
          <ns3:TrackPointExtension>
            <ns3:atemp>20.0</ns3:atemp>
          </ns3:TrackPointExtension>
        </extensions>
      </trkpt>
      <trkpt lat="42.55343184806406497955322265625" lon="20.05883784033358097076416015625">
        <ele>1998.199951171875</ele>
        <time>2026-06-19T10:49:55.000Z</time>
        <extensions>
          <ns3:TrackPointExtension>
            <ns3:atemp>20.0</ns3:atemp>
          </ns3:TrackPointExtension>
        </extensions>
      </trkpt>
      <trkpt lat="42.5534470193088054656982421875" lon="20.05884354002773761749267578125">
        <ele>1998.5999755859375</ele>
        <time>2026-06-19T10:49:56.000Z</time>
        <extensions>
          <ns3:TrackPointExtension>
            <ns3:atemp>20.0</ns3:atemp>
          </ns3:TrackPointExtension>
        </extensions>
      </trkpt>
      <trkpt lat="42.553463615477085113525390625" lon="20.058852843940258026123046875">
        <ele>1998.800048828125</ele>
        <time>2026-06-19T10:49:57.000Z</time>
        <extensions>
          <ns3:TrackPointExtension>
            <ns3:atemp>20.0</ns3:atemp>
          </ns3:TrackPointExtension>
        </extensions>
      </trkpt>
      <trkpt lat="42.55347945727407932281494140625" lon="20.05886399187147617340087890625">
        <ele>1999.199951171875</ele>
        <time>2026-06-19T10:49:58.000Z</time>
        <extensions>
          <ns3:TrackPointExtension>
            <ns3:atemp>20.0</ns3:atemp>
          </ns3:TrackPointExtension>
        </extensions>
      </trkpt>
      <trkpt lat="42.55349303595721721649169921875" lon="20.05887405015528202056884765625">
        <ele>1999.5999755859375</ele>
        <time>2026-06-19T10:49:59.000Z</time>
        <extensions>
          <ns3:TrackPointExtension>
            <ns3:atemp>20.0</ns3:atemp>
          </ns3:TrackPointExtension>
        </extensions>
      </trkpt>
      <trkpt lat="42.55350912921130657196044921875" lon="20.05889005959033966064453125">
        <ele>2000</ele>
        <time>2026-06-19T10:50:00.000Z</time>
        <extensions>
          <ns3:TrackPointExtension>
            <ns3:atemp>20.0</ns3:atemp>
          </ns3:TrackPointExtension>
        </extensions>
      </trkpt>
      <trkpt lat="42.55352555774152278900146484375" lon="20.05890657193958759307861328125">
        <ele>2000.199951171875</ele>
        <time>2026-06-19T10:50:01.000Z</time>
        <extensions>
          <ns3:TrackPointExtension>
            <ns3:atemp>20.0</ns3:atemp>
          </ns3:TrackPointExtension>
        </extensions>
      </trkpt>
      <trkpt lat="42.55354383029043674468994140625" lon="20.058919899165630340576171875">
        <ele>2000.5999755859375</ele>
        <time>2026-06-19T10:50:02.000Z</time>
        <extensions>
          <ns3:TrackPointExtension>
            <ns3:atemp>20.0</ns3:atemp>
          </ns3:TrackPointExtension>
        </extensions>
      </trkpt>
      <trkpt lat="42.5535606779158115386962890625" lon="20.05892802961170673370361328125">
        <ele>2001</ele>
        <time>2026-06-19T10:50:03.000Z</time>
        <extensions>
          <ns3:TrackPointExtension>
            <ns3:atemp>20.0</ns3:atemp>
          </ns3:TrackPointExtension>
        </extensions>
      </trkpt>
      <trkpt lat="42.553573586046695709228515625" lon="20.0589428655803203582763671875">
        <ele>2001.199951171875</ele>
        <time>2026-06-19T10:50:04.000Z</time>
        <extensions>
          <ns3:TrackPointExtension>
            <ns3:atemp>20.0</ns3:atemp>
          </ns3:TrackPointExtension>
        </extensions>
      </trkpt>
      <trkpt lat="42.55357953719794750213623046875" lon="20.0589609704911708831787109375">
        <ele>2001.5999755859375</ele>
        <time>2026-06-19T10:50:05.000Z</time>
        <extensions>
          <ns3:TrackPointExtension>
            <ns3:atemp>20.0</ns3:atemp>
          </ns3:TrackPointExtension>
        </extensions>
      </trkpt>
      <trkpt lat="42.55358641035854816436767578125" lon="20.05897748284041881561279296875">
        <ele>2002</ele>
        <time>2026-06-19T10:50:06.000Z</time>
        <extensions>
          <ns3:TrackPointExtension>
            <ns3:atemp>20.0</ns3:atemp>
          </ns3:TrackPointExtension>
        </extensions>
      </trkpt>
      <trkpt lat="42.5535908527672290802001953125" lon="20.05900212563574314117431640625">
        <ele>2002.4000244140625</ele>
        <time>2026-06-19T10:50:07.000Z</time>
        <extensions>
          <ns3:TrackPointExtension>
            <ns3:atemp>20.0</ns3:atemp>
          </ns3:TrackPointExtension>
        </extensions>
      </trkpt>
      <trkpt lat="42.5535931997001171112060546875" lon="20.05902819335460662841796875">
        <ele>2002.800048828125</ele>
        <time>2026-06-19T10:50:08.000Z</time>
        <extensions>
          <ns3:TrackPointExtension>
            <ns3:atemp>20.0</ns3:atemp>
          </ns3:TrackPointExtension>
        </extensions>
      </trkpt>
      <trkpt lat="42.5535982288420200347900390625" lon="20.0590508244931697845458984375">
        <ele>2003.199951171875</ele>
        <time>2026-06-19T10:50:09.000Z</time>
        <extensions>
          <ns3:TrackPointExtension>
            <ns3:atemp>20.0</ns3:atemp>
          </ns3:TrackPointExtension>
        </extensions>
      </trkpt>
      <trkpt lat="42.55360887385904788970947265625" lon="20.05907018668949604034423828125">
        <ele>2003.5999755859375</ele>
        <time>2026-06-19T10:50:10.000Z</time>
        <extensions>
          <ns3:TrackPointExtension>
            <ns3:atemp>19.0</ns3:atemp>
          </ns3:TrackPointExtension>
        </extensions>
      </trkpt>
      <trkpt lat="42.55362278781831264495849609375" lon="20.05908829160034656524658203125">
        <ele>2004</ele>
        <time>2026-06-19T10:50:11.000Z</time>
        <extensions>
          <ns3:TrackPointExtension>
            <ns3:atemp>19.0</ns3:atemp>
          </ns3:TrackPointExtension>
        </extensions>
      </trkpt>
      <trkpt lat="42.55364231765270233154296875" lon="20.05909600295126438140869140625">
        <ele>2004.4000244140625</ele>
        <time>2026-06-19T10:50:12.000Z</time>
        <extensions>
          <ns3:TrackPointExtension>
            <ns3:atemp>19.0</ns3:atemp>
          </ns3:TrackPointExtension>
        </extensions>
      </trkpt>
      <trkpt lat="42.5536626018583774566650390625" lon="20.0590940751135349273681640625">
        <ele>2005</ele>
        <time>2026-06-19T10:50:13.000Z</time>
        <extensions>
          <ns3:TrackPointExtension>
            <ns3:atemp>19.0</ns3:atemp>
          </ns3:TrackPointExtension>
        </extensions>
      </trkpt>
      <trkpt lat="42.5536864064633846282958984375" lon="20.0590866990387439727783203125">
        <ele>2005.4000244140625</ele>
        <time>2026-06-19T10:50:14.000Z</time>
        <extensions>
          <ns3:TrackPointExtension>
            <ns3:atemp>19.0</ns3:atemp>
          </ns3:TrackPointExtension>
        </extensions>
      </trkpt>
      <trkpt lat="42.5537078641355037689208984375" lon="20.05907907150685787200927734375">
        <ele>2005.800048828125</ele>
        <time>2026-06-19T10:50:15.000Z</time>
        <extensions>
          <ns3:TrackPointExtension>
            <ns3:atemp>19.0</ns3:atemp>
          </ns3:TrackPointExtension>
        </extensions>
      </trkpt>
      <trkpt lat="42.553723789751529693603515625" lon="20.05906834267079830169677734375">
        <ele>2006.4000244140625</ele>
        <time>2026-06-19T10:50:16.000Z</time>
        <extensions>
          <ns3:TrackPointExtension>
            <ns3:atemp>19.0</ns3:atemp>
          </ns3:TrackPointExtension>
        </extensions>
      </trkpt>
      <trkpt lat="42.55373896099627017974853515625" lon="20.05905778147280216217041015625">
        <ele>2006.800048828125</ele>
        <time>2026-06-19T10:50:17.000Z</time>
        <extensions>
          <ns3:TrackPointExtension>
            <ns3:atemp>19.0</ns3:atemp>
          </ns3:TrackPointExtension>
        </extensions>
      </trkpt>
      <trkpt lat="42.55375606007874011993408203125" lon="20.059045292437076568603515625">
        <ele>2007.199951171875</ele>
        <time>2026-06-19T10:50:18.000Z</time>
        <extensions>
          <ns3:TrackPointExtension>
            <ns3:atemp>19.0</ns3:atemp>
          </ns3:TrackPointExtension>
        </extensions>
      </trkpt>
      <trkpt lat="42.55376779474318027496337890625" lon="20.05903397686779499053955078125">
        <ele>2007.5999755859375</ele>
        <time>2026-06-19T10:50:19.000Z</time>
        <extensions>
          <ns3:TrackPointExtension>
            <ns3:atemp>19.0</ns3:atemp>
          </ns3:TrackPointExtension>
        </extensions>
      </trkpt>
      <trkpt lat="42.55377701483666896820068359375" lon="20.05901285447180271148681640625">
        <ele>2007.800048828125</ele>
        <time>2026-06-19T10:50:20.000Z</time>
        <extensions>
          <ns3:TrackPointExtension>
            <ns3:atemp>20.0</ns3:atemp>
          </ns3:TrackPointExtension>
        </extensions>
      </trkpt>
      <trkpt lat="42.5537843070924282073974609375" lon="20.05898854695260524749755859375">
        <ele>2008.199951171875</ele>
        <time>2026-06-19T10:50:21.000Z</time>
        <extensions>
          <ns3:TrackPointExtension>
            <ns3:atemp>20.0</ns3:atemp>
          </ns3:TrackPointExtension>
        </extensions>
      </trkpt>
      <trkpt lat="42.553788833320140838623046875" lon="20.058964155614376068115234375">
        <ele>2008.5999755859375</ele>
        <time>2026-06-19T10:50:22.000Z</time>
        <extensions>
          <ns3:TrackPointExtension>
            <ns3:atemp>20.0</ns3:atemp>
          </ns3:TrackPointExtension>
        </extensions>
      </trkpt>
      <trkpt lat="42.553794197738170623779296875" lon="20.05894177593290805816650390625">
        <ele>2009</ele>
        <time>2026-06-19T10:50:23.000Z</time>
        <extensions>
          <ns3:TrackPointExtension>
            <ns3:atemp>20.0</ns3:atemp>
          </ns3:TrackPointExtension>
        </extensions>
      </trkpt>
      <trkpt lat="42.5537953712046146392822265625" lon="20.0589197315275669097900390625">
        <ele>2009.5999755859375</ele>
        <time>2026-06-19T10:50:24.000Z</time>
        <extensions>
          <ns3:TrackPointExtension>
            <ns3:atemp>20.0</ns3:atemp>
          </ns3:TrackPointExtension>
        </extensions>
      </trkpt>
      <trkpt lat="42.55379579029977321624755859375" lon="20.05889316089451313018798828125">
        <ele>2010.199951171875</ele>
        <time>2026-06-19T10:50:25.000Z</time>
        <extensions>
          <ns3:TrackPointExtension>
            <ns3:atemp>20.0</ns3:atemp>
          </ns3:TrackPointExtension>
        </extensions>
      </trkpt>
      <trkpt lat="42.5537906773388385772705078125" lon="20.05887371487915515899658203125">
        <ele>2010.5999755859375</ele>
        <time>2026-06-19T10:50:26.000Z</time>
        <extensions>
          <ns3:TrackPointExtension>
            <ns3:atemp>20.0</ns3:atemp>
          </ns3:TrackPointExtension>
        </extensions>
      </trkpt>
      <trkpt lat="42.5537896715104579925537109375" lon="20.05885024555027484893798828125">
        <ele>2011</ele>
        <time>2026-06-19T10:50:27.000Z</time>
        <extensions>
          <ns3:TrackPointExtension>
            <ns3:atemp>20.0</ns3:atemp>
          </ns3:TrackPointExtension>
        </extensions>
      </trkpt>
      <trkpt lat="42.55378740839660167694091796875" lon="20.05882711149752140045166015625">
        <ele>2011.5999755859375</ele>
        <time>2026-06-19T10:50:28.000Z</time>
        <extensions>
          <ns3:TrackPointExtension>
            <ns3:atemp>20.0</ns3:atemp>
          </ns3:TrackPointExtension>
        </extensions>
      </trkpt>
      <trkpt lat="42.5537809543311595916748046875" lon="20.05880557000637054443359375">
        <ele>2012</ele>
        <time>2026-06-19T10:50:29.000Z</time>
        <extensions>
          <ns3:TrackPointExtension>
            <ns3:atemp>20.0</ns3:atemp>
          </ns3:TrackPointExtension>
        </extensions>
      </trkpt>
      <trkpt lat="42.55377299152314662933349609375" lon="20.05878050811588764190673828125">
        <ele>2012.4000244140625</ele>
        <time>2026-06-19T10:50:30.000Z</time>
        <extensions>
          <ns3:TrackPointExtension>
            <ns3:atemp>20.0</ns3:atemp>
          </ns3:TrackPointExtension>
        </extensions>
      </trkpt>
      <trkpt lat="42.553762681782245635986328125" lon="20.05876290611922740936279296875">
        <ele>2013</ele>
        <time>2026-06-19T10:50:31.000Z</time>
        <extensions>
          <ns3:TrackPointExtension>
            <ns3:atemp>20.0</ns3:atemp>
          </ns3:TrackPointExtension>
        </extensions>
      </trkpt>
      <trkpt lat="42.55375631153583526611328125" lon="20.0587437115609645843505859375">
        <ele>2013.5999755859375</ele>
        <time>2026-06-19T10:50:32.000Z</time>
        <extensions>
          <ns3:TrackPointExtension>
            <ns3:atemp>19.0</ns3:atemp>
          </ns3:TrackPointExtension>
        </extensions>
      </trkpt>
      <trkpt lat="42.553749270737171173095703125" lon="20.058718733489513397216796875">
        <ele>2014</ele>
        <time>2026-06-19T10:50:33.000Z</time>
        <extensions>
          <ns3:TrackPointExtension>
            <ns3:atemp>19.0</ns3:atemp>
          </ns3:TrackPointExtension>
        </extensions>
      </trkpt>
      <trkpt lat="42.553743235766887664794921875" lon="20.058691911399364471435546875">
        <ele>2014.4000244140625</ele>
        <time>2026-06-19T10:50:34.000Z</time>
        <extensions>
          <ns3:TrackPointExtension>
            <ns3:atemp>19.0</ns3:atemp>
          </ns3:TrackPointExtension>
        </extensions>
      </trkpt>
      <trkpt lat="42.5537355244159698486328125" lon="20.05866852588951587677001953125">
        <ele>2014.800048828125</ele>
        <time>2026-06-19T10:50:35.000Z</time>
        <extensions>
          <ns3:TrackPointExtension>
            <ns3:atemp>19.0</ns3:atemp>
          </ns3:TrackPointExtension>
        </extensions>
      </trkpt>
      <trkpt lat="42.55372152663767337799072265625" lon="20.058647654950618743896484375">
        <ele>2015.199951171875</ele>
        <time>2026-06-19T10:50:36.000Z</time>
        <extensions>
          <ns3:TrackPointExtension>
            <ns3:atemp>19.0</ns3:atemp>
          </ns3:TrackPointExtension>
        </extensions>
      </trkpt>
      <trkpt lat="42.55370945669710636138916015625" lon="20.05862611345946788787841796875">
        <ele>2015.800048828125</ele>
        <time>2026-06-19T10:50:37.000Z</time>
        <extensions>
          <ns3:TrackPointExtension>
            <ns3:atemp>19.0</ns3:atemp>
          </ns3:TrackPointExtension>
        </extensions>
      </trkpt>
      <trkpt lat="42.553695626556873321533203125" lon="20.0586035661399364471435546875">
        <ele>2016.199951171875</ele>
        <time>2026-06-19T10:50:38.000Z</time>
        <extensions>
          <ns3:TrackPointExtension>
            <ns3:atemp>19.0</ns3:atemp>
          </ns3:TrackPointExtension>
        </extensions>
      </trkpt>
      <trkpt lat="42.55368581973016262054443359375" lon="20.05857758224010467529296875">
        <ele>2016.4000244140625</ele>
        <time>2026-06-19T10:50:39.000Z</time>
        <extensions>
          <ns3:TrackPointExtension>
            <ns3:atemp>19.0</ns3:atemp>
          </ns3:TrackPointExtension>
        </extensions>
      </trkpt>
      <trkpt lat="42.5536845624446868896484375" lon="20.0585559569299221038818359375">
        <ele>2016.800048828125</ele>
        <time>2026-06-19T10:50:40.000Z</time>
        <extensions>
          <ns3:TrackPointExtension>
            <ns3:atemp>19.0</ns3:atemp>
          </ns3:TrackPointExtension>
        </extensions>
      </trkpt>
      <trkpt lat="42.55368581973016262054443359375" lon="20.058538354933261871337890625">
        <ele>2017.199951171875</ele>
        <time>2026-06-19T10:50:41.000Z</time>
        <extensions>
          <ns3:TrackPointExtension>
            <ns3:atemp>19.0</ns3:atemp>
          </ns3:TrackPointExtension>
        </extensions>
      </trkpt>
      <trkpt lat="42.5536840595304965972900390625" lon="20.05851631052792072296142578125">
        <ele>2017.5999755859375</ele>
        <time>2026-06-19T10:50:42.000Z</time>
        <extensions>
          <ns3:TrackPointExtension>
            <ns3:atemp>20.0</ns3:atemp>
          </ns3:TrackPointExtension>
        </extensions>
      </trkpt>
      <trkpt lat="42.55368079058825969696044921875" lon="20.05849250592291355133056640625">
        <ele>2017.800048828125</ele>
        <time>2026-06-19T10:50:43.000Z</time>
        <extensions>
          <ns3:TrackPointExtension>
            <ns3:atemp>19.0</ns3:atemp>
          </ns3:TrackPointExtension>
        </extensions>
      </trkpt>
      <trkpt lat="42.55367877893149852752685546875" lon="20.05846492946147918701171875">
        <ele>2018.199951171875</ele>
        <time>2026-06-19T10:50:44.000Z</time>
        <extensions>
          <ns3:TrackPointExtension>
            <ns3:atemp>19.0</ns3:atemp>
          </ns3:TrackPointExtension>
        </extensions>
      </trkpt>
      <trkpt lat="42.553680203855037689208984375" lon="20.05844774655997753143310546875">
        <ele>2018.5999755859375</ele>
        <time>2026-06-19T10:50:45.000Z</time>
        <extensions>
          <ns3:TrackPointExtension>
            <ns3:atemp>19.0</ns3:atemp>
          </ns3:TrackPointExtension>
        </extensions>
      </trkpt>
      <trkpt lat="42.5536827184259891510009765625" lon="20.058426372706890106201171875">
        <ele>2019.199951171875</ele>
        <time>2026-06-19T10:50:46.000Z</time>
        <extensions>
          <ns3:TrackPointExtension>
            <ns3:atemp>19.0</ns3:atemp>
          </ns3:TrackPointExtension>
        </extensions>
      </trkpt>
      <trkpt lat="42.5536880828440189361572265625" lon="20.0584020651876926422119140625">
        <ele>2019.5999755859375</ele>
        <time>2026-06-19T10:50:47.000Z</time>
        <extensions>
          <ns3:TrackPointExtension>
            <ns3:atemp>19.0</ns3:atemp>
          </ns3:TrackPointExtension>
        </extensions>
      </trkpt>
      <trkpt lat="42.5536914356052875518798828125" lon="20.0583762489259243011474609375">
        <ele>2020</ele>
        <time>2026-06-19T10:50:48.000Z</time>
        <extensions>
          <ns3:TrackPointExtension>
            <ns3:atemp>19.0</ns3:atemp>
          </ns3:TrackPointExtension>
        </extensions>
      </trkpt>
      <trkpt lat="42.55369554273784160614013671875" lon="20.05835085175931453704833984375">
        <ele>2020.5999755859375</ele>
        <time>2026-06-19T10:50:49.000Z</time>
        <extensions>
          <ns3:TrackPointExtension>
            <ns3:atemp>19.0</ns3:atemp>
          </ns3:TrackPointExtension>
        </extensions>
      </trkpt>
      <trkpt lat="42.55370124243199825286865234375" lon="20.0583256222307682037353515625">
        <ele>2020.800048828125</ele>
        <time>2026-06-19T10:50:50.000Z</time>
        <extensions>
          <ns3:TrackPointExtension>
            <ns3:atemp>19.0</ns3:atemp>
          </ns3:TrackPointExtension>
        </extensions>
      </trkpt>
      <trkpt lat="42.553713060915470123291015625" lon="20.05830860696732997894287109375">
        <ele>2021.199951171875</ele>
        <time>2026-06-19T10:50:51.000Z</time>
        <extensions>
          <ns3:TrackPointExtension>
            <ns3:atemp>19.0</ns3:atemp>
          </ns3:TrackPointExtension>
        </extensions>
      </trkpt>
      <trkpt lat="42.5537239573895931243896484375" lon="20.05829134024679660797119140625">
        <ele>2021.5999755859375</ele>
        <time>2026-06-19T10:50:52.000Z</time>
        <extensions>
          <ns3:TrackPointExtension>
            <ns3:atemp>19.0</ns3:atemp>
          </ns3:TrackPointExtension>
        </extensions>
      </trkpt>
      <trkpt lat="42.55373644642531871795654296875" lon="20.05827457644045352935791015625">
        <ele>2022</ele>
        <time>2026-06-19T10:50:53.000Z</time>
        <extensions>
          <ns3:TrackPointExtension>
            <ns3:atemp>19.0</ns3:atemp>
          </ns3:TrackPointExtension>
        </extensions>
      </trkpt>
      <trkpt lat="42.55375094711780548095703125" lon="20.0582577288150787353515625">
        <ele>2022.4000244140625</ele>
        <time>2026-06-19T10:50:54.000Z</time>
        <extensions>
          <ns3:TrackPointExtension>
            <ns3:atemp>19.0</ns3:atemp>
          </ns3:TrackPointExtension>
        </extensions>
      </trkpt>
      <trkpt lat="42.55376444198191165924072265625" lon="20.058250017464160919189453125">
        <ele>2022.800048828125</ele>
        <time>2026-06-19T10:50:55.000Z</time>
        <extensions>
          <ns3:TrackPointExtension>
            <ns3:atemp>19.0</ns3:atemp>
          </ns3:TrackPointExtension>
        </extensions>
      </trkpt>
      <trkpt lat="42.55378053523600101470947265625" lon="20.05824272520840167999267578125">
        <ele>2023.4000244140625</ele>
        <time>2026-06-19T10:50:56.000Z</time>
        <extensions>
          <ns3:TrackPointExtension>
            <ns3:atemp>19.0</ns3:atemp>
          </ns3:TrackPointExtension>
        </extensions>
      </trkpt>
      <trkpt lat="42.55379629321396350860595703125" lon="20.05824029445648193359375">
        <ele>2024</ele>
        <time>2026-06-19T10:50:57.000Z</time>
        <extensions>
          <ns3:TrackPointExtension>
            <ns3:atemp>19.0</ns3:atemp>
          </ns3:TrackPointExtension>
        </extensions>
      </trkpt>
      <trkpt lat="42.5538141466677188873291015625" lon="20.05823384039103984832763671875">
        <ele>2024.4000244140625</ele>
        <time>2026-06-19T10:50:58.000Z</time>
        <extensions>
          <ns3:TrackPointExtension>
            <ns3:atemp>19.0</ns3:atemp>
          </ns3:TrackPointExtension>
        </extensions>
      </trkpt>
      <trkpt lat="42.55383409559726715087890625" lon="20.0582324154675006866455078125">
        <ele>2025</ele>
        <time>2026-06-19T10:50:59.000Z</time>
        <extensions>
          <ns3:TrackPointExtension>
            <ns3:atemp>19.0</ns3:atemp>
          </ns3:TrackPointExtension>
        </extensions>
      </trkpt>
      <trkpt lat="42.55385077558457851409912109375" lon="20.05823853425681591033935546875">
        <ele>2025.5999755859375</ele>
        <time>2026-06-19T10:51:00.000Z</time>
        <extensions>
          <ns3:TrackPointExtension>
            <ns3:atemp>19.0</ns3:atemp>
          </ns3:TrackPointExtension>
        </extensions>
      </trkpt>
      <trkpt lat="42.553868629038333892822265625" lon="20.05824473686516284942626953125">
        <ele>2026</ele>
        <time>2026-06-19T10:51:01.000Z</time>
        <extensions>
          <ns3:TrackPointExtension>
            <ns3:atemp>19.0</ns3:atemp>
          </ns3:TrackPointExtension>
        </extensions>
      </trkpt>
      <trkpt lat="42.5538884103298187255859375" lon="20.0582464970648288726806640625">
        <ele>2026.5999755859375</ele>
        <time>2026-06-19T10:51:02.000Z</time>
        <extensions>
          <ns3:TrackPointExtension>
            <ns3:atemp>19.0</ns3:atemp>
          </ns3:TrackPointExtension>
        </extensions>
      </trkpt>
      <trkpt lat="42.55391053855419158935546875" lon="20.05825177766382694244384765625">
        <ele>2027</ele>
        <time>2026-06-19T10:51:03.000Z</time>
        <extensions>
          <ns3:TrackPointExtension>
            <ns3:atemp>19.0</ns3:atemp>
          </ns3:TrackPointExtension>
        </extensions>
      </trkpt>
      <trkpt lat="42.55393140949308872222900390625" lon="20.058254711329936981201171875">
        <ele>2027.5999755859375</ele>
        <time>2026-06-19T10:51:04.000Z</time>
        <extensions>
          <ns3:TrackPointExtension>
            <ns3:atemp>19.0</ns3:atemp>
          </ns3:TrackPointExtension>
        </extensions>
      </trkpt>
      <trkpt lat="42.553953789174556732177734375" lon="20.0582604110240936279296875">
        <ele>2028</ele>
        <time>2026-06-19T10:51:05.000Z</time>
        <extensions>
          <ns3:TrackPointExtension>
            <ns3:atemp>19.0</ns3:atemp>
          </ns3:TrackPointExtension>
        </extensions>
      </trkpt>
      <trkpt lat="42.553975917398929595947265625" lon="20.05826770327985286712646484375">
        <ele>2028.4000244140625</ele>
        <time>2026-06-19T10:51:06.000Z</time>
        <extensions>
          <ns3:TrackPointExtension>
            <ns3:atemp>19.0</ns3:atemp>
          </ns3:TrackPointExtension>
        </extensions>
      </trkpt>
      <trkpt lat="42.5540037453174591064453125" lon="20.058277510106563568115234375">
        <ele>2028.800048828125</ele>
        <time>2026-06-19T10:51:07.000Z</time>
        <extensions>
          <ns3:TrackPointExtension>
            <ns3:atemp>19.0</ns3:atemp>
          </ns3:TrackPointExtension>
        </extensions>
      </trkpt>
      <trkpt lat="42.5540305674076080322265625" lon="20.05828656256198883056640625">
        <ele>2029.199951171875</ele>
        <time>2026-06-19T10:51:08.000Z</time>
        <extensions>
          <ns3:TrackPointExtension>
            <ns3:atemp>19.0</ns3:atemp>
          </ns3:TrackPointExtension>
        </extensions>
      </trkpt>
      <trkpt lat="42.55405814386904239654541015625" lon="20.058294273912906646728515625">
        <ele>2029.5999755859375</ele>
        <time>2026-06-19T10:51:09.000Z</time>
        <extensions>
          <ns3:TrackPointExtension>
            <ns3:atemp>19.0</ns3:atemp>
          </ns3:TrackPointExtension>
        </extensions>
      </trkpt>
      <trkpt lat="42.5540853850543498992919921875" lon="20.05830408073961734771728515625">
        <ele>2030</ele>
        <time>2026-06-19T10:51:10.000Z</time>
        <extensions>
          <ns3:TrackPointExtension>
            <ns3:atemp>19.0</ns3:atemp>
          </ns3:TrackPointExtension>
        </extensions>
      </trkpt>
      <trkpt lat="42.5541152246296405792236328125" lon="20.05830676294863224029541015625">
        <ele>2030.4000244140625</ele>
        <time>2026-06-19T10:51:11.000Z</time>
        <extensions>
          <ns3:TrackPointExtension>
            <ns3:atemp>19.0</ns3:atemp>
          </ns3:TrackPointExtension>
        </extensions>
      </trkpt>
      <trkpt lat="42.554144896566867828369140625" lon="20.05830726586282253265380859375">
        <ele>2030.800048828125</ele>
        <time>2026-06-19T10:51:12.000Z</time>
        <extensions>
          <ns3:TrackPointExtension>
            <ns3:atemp>19.0</ns3:atemp>
          </ns3:TrackPointExtension>
        </extensions>
      </trkpt>
      <trkpt lat="42.55415864288806915283203125" lon="20.05830793641507625579833984375">
        <ele>2031.199951171875</ele>
        <time>2026-06-19T10:51:13.000Z</time>
        <extensions>
          <ns3:TrackPointExtension>
            <ns3:atemp>19.0</ns3:atemp>
          </ns3:TrackPointExtension>
        </extensions>
      </trkpt>
      <trkpt lat="42.55416132509708404541015625" lon="20.05830324254930019378662109375">
        <ele>2031.5999755859375</ele>
        <time>2026-06-19T10:51:14.000Z</time>
        <extensions>
          <ns3:TrackPointExtension>
            <ns3:atemp>19.0</ns3:atemp>
          </ns3:TrackPointExtension>
        </extensions>
      </trkpt>
      <trkpt lat="42.55416132509708404541015625" lon="20.0583033263683319091796875">
        <ele>2031.800048828125</ele>
        <time>2026-06-19T10:51:15.000Z</time>
        <extensions>
          <ns3:TrackPointExtension>
            <ns3:atemp>19.0</ns3:atemp>
          </ns3:TrackPointExtension>
        </extensions>
      </trkpt>
      <trkpt lat="42.55416132509708404541015625" lon="20.0583033263683319091796875">
        <ele>2032.199951171875</ele>
        <time>2026-06-19T10:51:16.000Z</time>
        <extensions>
          <ns3:TrackPointExtension>
            <ns3:atemp>19.0</ns3:atemp>
          </ns3:TrackPointExtension>
        </extensions>
      </trkpt>
      <trkpt lat="42.55416132509708404541015625" lon="20.0583033263683319091796875">
        <ele>2032.5999755859375</ele>
        <time>2026-06-19T10:51:17.000Z</time>
        <extensions>
          <ns3:TrackPointExtension>
            <ns3:atemp>19.0</ns3:atemp>
          </ns3:TrackPointExtension>
        </extensions>
      </trkpt>
      <trkpt lat="42.55416132509708404541015625" lon="20.0583033263683319091796875">
        <ele>2033</ele>
        <time>2026-06-19T10:51:18.000Z</time>
        <extensions>
          <ns3:TrackPointExtension>
            <ns3:atemp>19.0</ns3:atemp>
          </ns3:TrackPointExtension>
        </extensions>
      </trkpt>
      <trkpt lat="42.55416132509708404541015625" lon="20.0583033263683319091796875">
        <ele>2033.199951171875</ele>
        <time>2026-06-19T10:51:19.000Z</time>
        <extensions>
          <ns3:TrackPointExtension>
            <ns3:atemp>19.0</ns3:atemp>
          </ns3:TrackPointExtension>
        </extensions>
      </trkpt>
      <trkpt lat="42.55416132509708404541015625" lon="20.0583033263683319091796875">
        <ele>2033.4000244140625</ele>
        <time>2026-06-19T10:51:20.000Z</time>
        <extensions>
          <ns3:TrackPointExtension>
            <ns3:atemp>19.0</ns3:atemp>
          </ns3:TrackPointExtension>
        </extensions>
      </trkpt>
      <trkpt lat="42.55416132509708404541015625" lon="20.0583033263683319091796875">
        <ele>2033.5999755859375</ele>
        <time>2026-06-19T10:51:21.000Z</time>
        <extensions>
          <ns3:TrackPointExtension>
            <ns3:atemp>19.0</ns3:atemp>
          </ns3:TrackPointExtension>
        </extensions>
      </trkpt>
      <trkpt lat="42.55416132509708404541015625" lon="20.0583033263683319091796875">
        <ele>2033.5999755859375</ele>
        <time>2026-06-19T10:51:22.000Z</time>
        <extensions>
          <ns3:TrackPointExtension>
            <ns3:atemp>19.0</ns3:atemp>
          </ns3:TrackPointExtension>
        </extensions>
      </trkpt>
      <trkpt lat="42.55416132509708404541015625" lon="20.0583033263683319091796875">
        <ele>2033.5999755859375</ele>
        <time>2026-06-19T10:51:23.000Z</time>
        <extensions>
          <ns3:TrackPointExtension>
            <ns3:atemp>19.0</ns3:atemp>
          </ns3:TrackPointExtension>
        </extensions>
      </trkpt>
      <trkpt lat="42.55416132509708404541015625" lon="20.0583033263683319091796875">
        <ele>2033.5999755859375</ele>
        <time>2026-06-19T10:51:24.000Z</time>
        <extensions>
          <ns3:TrackPointExtension>
            <ns3:atemp>19.0</ns3:atemp>
          </ns3:TrackPointExtension>
        </extensions>
      </trkpt>
      <trkpt lat="42.55416132509708404541015625" lon="20.0583033263683319091796875">
        <ele>2033.5999755859375</ele>
        <time>2026-06-19T10:51:25.000Z</time>
        <extensions>
          <ns3:TrackPointExtension>
            <ns3:atemp>19.0</ns3:atemp>
          </ns3:TrackPointExtension>
        </extensions>
      </trkpt>
      <trkpt lat="42.55416132509708404541015625" lon="20.0583033263683319091796875">
        <ele>2033.5999755859375</ele>
        <time>2026-06-19T10:51:26.000Z</time>
        <extensions>
          <ns3:TrackPointExtension>
            <ns3:atemp>19.0</ns3:atemp>
          </ns3:TrackPointExtension>
        </extensions>
      </trkpt>
      <trkpt lat="42.55416241474449634552001953125" lon="20.05830508656799793243408203125">
        <ele>2033.5999755859375</ele>
        <time>2026-06-19T10:51:27.000Z</time>
        <extensions>
          <ns3:TrackPointExtension>
            <ns3:atemp>19.0</ns3:atemp>
          </ns3:TrackPointExtension>
        </extensions>
      </trkpt>
      <trkpt lat="42.554176412522792816162109375" lon="20.058315061032772064208984375">
        <ele>2033.5999755859375</ele>
        <time>2026-06-19T10:51:28.000Z</time>
        <extensions>
          <ns3:TrackPointExtension>
            <ns3:atemp>19.0</ns3:atemp>
          </ns3:TrackPointExtension>
        </extensions>
      </trkpt>
      <trkpt lat="42.55418823100626468658447265625" lon="20.0583222694694995880126953125">
        <ele>2033.5999755859375</ele>
        <time>2026-06-19T10:51:29.000Z</time>
        <extensions>
          <ns3:TrackPointExtension>
            <ns3:atemp>19.0</ns3:atemp>
          </ns3:TrackPointExtension>
        </extensions>
      </trkpt>
      <trkpt lat="42.5542037375271320343017578125" lon="20.05832319147884845733642578125">
        <ele>2033.5999755859375</ele>
        <time>2026-06-19T10:51:30.000Z</time>
        <extensions>
          <ns3:TrackPointExtension>
            <ns3:atemp>19.0</ns3:atemp>
          </ns3:TrackPointExtension>
        </extensions>
      </trkpt>
      <trkpt lat="42.5542201660573482513427734375" lon="20.0583316572010517120361328125">
        <ele>2033.4000244140625</ele>
        <time>2026-06-19T10:51:31.000Z</time>
        <extensions>
          <ns3:TrackPointExtension>
            <ns3:atemp>19.0</ns3:atemp>
          </ns3:TrackPointExtension>
        </extensions>
      </trkpt>
      <trkpt lat="42.554233074188232421875" lon="20.0583454035222530364990234375">
        <ele>2033.4000244140625</ele>
        <time>2026-06-19T10:51:32.000Z</time>
        <extensions>
          <ns3:TrackPointExtension>
            <ns3:atemp>19.0</ns3:atemp>
          </ns3:TrackPointExtension>
        </extensions>
      </trkpt>
      <trkpt lat="42.554248832166194915771484375" lon="20.05836241878569126129150390625">
        <ele>2033.4000244140625</ele>
        <time>2026-06-19T10:51:33.000Z</time>
        <extensions>
          <ns3:TrackPointExtension>
            <ns3:atemp>19.0</ns3:atemp>
          </ns3:TrackPointExtension>
        </extensions>
      </trkpt>
      <trkpt lat="42.55426752381026744842529296875" lon="20.05838236771523952484130859375">
        <ele>2033.199951171875</ele>
        <time>2026-06-19T10:51:34.000Z</time>
        <extensions>
          <ns3:TrackPointExtension>
            <ns3:atemp>19.0</ns3:atemp>
          </ns3:TrackPointExtension>
        </extensions>
      </trkpt>
      <trkpt lat="42.55428814329206943511962890625" lon="20.05839460529386997222900390625">
        <ele>2033.4000244140625</ele>
        <time>2026-06-19T10:51:35.000Z</time>
        <extensions>
          <ns3:TrackPointExtension>
            <ns3:atemp>19.0</ns3:atemp>
          </ns3:TrackPointExtension>
        </extensions>
      </trkpt>
      <trkpt lat="42.55430960096418857574462890625" lon="20.0583987124264240264892578125">
        <ele>2033.4000244140625</ele>
        <time>2026-06-19T10:51:36.000Z</time>
        <extensions>
          <ns3:TrackPointExtension>
            <ns3:atemp>19.0</ns3:atemp>
          </ns3:TrackPointExtension>
        </extensions>
      </trkpt>
      <trkpt lat="42.5543281249701976776123046875" lon="20.0583990477025508880615234375">
        <ele>2033.5999755859375</ele>
        <time>2026-06-19T10:51:37.000Z</time>
        <extensions>
          <ns3:TrackPointExtension>
            <ns3:atemp>19.0</ns3:atemp>
          </ns3:TrackPointExtension>
        </extensions>
      </trkpt>
      <trkpt lat="42.554345391690731048583984375" lon="20.05840298719704151153564453125">
        <ele>2033.800048828125</ele>
        <time>2026-06-19T10:51:38.000Z</time>
        <extensions>
          <ns3:TrackPointExtension>
            <ns3:atemp>19.0</ns3:atemp>
          </ns3:TrackPointExtension>
        </extensions>
      </trkpt>
      <trkpt lat="42.55436726845800876617431640625" lon="20.058409608900547027587890625">
        <ele>2034</ele>
        <time>2026-06-19T10:51:39.000Z</time>
        <extensions>
          <ns3:TrackPointExtension>
            <ns3:atemp>19.0</ns3:atemp>
          </ns3:TrackPointExtension>
        </extensions>
      </trkpt>
      <trkpt lat="42.55438570864498615264892578125" lon="20.0584191642701625823974609375">
        <ele>2034.199951171875</ele>
        <time>2026-06-19T10:51:40.000Z</time>
        <extensions>
          <ns3:TrackPointExtension>
            <ns3:atemp>19.0</ns3:atemp>
          </ns3:TrackPointExtension>
        </extensions>
      </trkpt>
      <trkpt lat="42.55440331064164638519287109375" lon="20.058430731296539306640625">
        <ele>2034.4000244140625</ele>
        <time>2026-06-19T10:51:41.000Z</time>
        <extensions>
          <ns3:TrackPointExtension>
            <ns3:atemp>19.0</ns3:atemp>
          </ns3:TrackPointExtension>
        </extensions>
      </trkpt>
      <trkpt lat="42.5544230081140995025634765625" lon="20.058441795408725738525390625">
        <ele>2034.5999755859375</ele>
        <time>2026-06-19T10:51:42.000Z</time>
        <extensions>
          <ns3:TrackPointExtension>
            <ns3:atemp>19.0</ns3:atemp>
          </ns3:TrackPointExtension>
        </extensions>
      </trkpt>
      <trkpt lat="42.55443968810141086578369140625" lon="20.05845730192959308624267578125">
        <ele>2034.800048828125</ele>
        <time>2026-06-19T10:51:43.000Z</time>
        <extensions>
          <ns3:TrackPointExtension>
            <ns3:atemp>19.0</ns3:atemp>
          </ns3:TrackPointExtension>
        </extensions>
      </trkpt>
      <trkpt lat="42.55446231923997402191162109375" lon="20.05847507156431674957275390625">
        <ele>2035</ele>
        <time>2026-06-19T10:51:44.000Z</time>
        <extensions>
          <ns3:TrackPointExtension>
            <ns3:atemp>19.0</ns3:atemp>
          </ns3:TrackPointExtension>
        </extensions>
      </trkpt>
      <trkpt lat="42.5544897280633449554443359375" lon="20.05848261527717113494873046875">
        <ele>2035.199951171875</ele>
        <time>2026-06-19T10:51:45.000Z</time>
        <extensions>
          <ns3:TrackPointExtension>
            <ns3:atemp>19.0</ns3:atemp>
          </ns3:TrackPointExtension>
        </extensions>
      </trkpt>
      <trkpt lat="42.5545135326683521270751953125" lon="20.05848462693393230438232421875">
        <ele>2035.5999755859375</ele>
        <time>2026-06-19T10:51:46.000Z</time>
        <extensions>
          <ns3:TrackPointExtension>
            <ns3:atemp>19.0</ns3:atemp>
          </ns3:TrackPointExtension>
        </extensions>
      </trkpt>
      <trkpt lat="42.5545380078256130218505859375" lon="20.0584935955703258514404296875">
        <ele>2035.800048828125</ele>
        <time>2026-06-19T10:51:47.000Z</time>
        <extensions>
          <ns3:TrackPointExtension>
            <ns3:atemp>19.0</ns3:atemp>
          </ns3:TrackPointExtension>
        </extensions>
      </trkpt>
      <trkpt lat="42.55456156097352504730224609375" lon="20.05850172601640224456787109375">
        <ele>2035.800048828125</ele>
        <time>2026-06-19T10:51:48.000Z</time>
        <extensions>
          <ns3:TrackPointExtension>
            <ns3:atemp>19.0</ns3:atemp>
          </ns3:TrackPointExtension>
        </extensions>
      </trkpt>
      <trkpt lat="42.55458234809339046478271484375" lon="20.05850826390087604522705078125">
        <ele>2036.199951171875</ele>
        <time>2026-06-19T10:51:49.000Z</time>
        <extensions>
          <ns3:TrackPointExtension>
            <ns3:atemp>19.0</ns3:atemp>
          </ns3:TrackPointExtension>
        </extensions>
      </trkpt>
      <trkpt lat="42.554603554308414459228515625" lon="20.0585177354514598846435546875">
        <ele>2036.4000244140625</ele>
        <time>2026-06-19T10:51:50.000Z</time>
        <extensions>
          <ns3:TrackPointExtension>
            <ns3:atemp>19.0</ns3:atemp>
          </ns3:TrackPointExtension>
        </extensions>
      </trkpt>
      <trkpt lat="42.5546211563050746917724609375" lon="20.058522932231426239013671875">
        <ele>2036.5999755859375</ele>
        <time>2026-06-19T10:51:51.000Z</time>
        <extensions>
          <ns3:TrackPointExtension>
            <ns3:atemp>19.0</ns3:atemp>
          </ns3:TrackPointExtension>
        </extensions>
      </trkpt>
      <trkpt lat="42.5546389259397983551025390625" lon="20.05852988921105861663818359375">
        <ele>2036.800048828125</ele>
        <time>2026-06-19T10:51:52.000Z</time>
        <extensions>
          <ns3:TrackPointExtension>
            <ns3:atemp>19.0</ns3:atemp>
          </ns3:TrackPointExtension>
        </extensions>
      </trkpt>
      <trkpt lat="42.55464688874781131744384765625" lon="20.0585351698100566864013671875">
        <ele>2037.199951171875</ele>
        <time>2026-06-19T10:51:53.000Z</time>
        <extensions>
          <ns3:TrackPointExtension>
            <ns3:atemp>19.0</ns3:atemp>
          </ns3:TrackPointExtension>
        </extensions>
      </trkpt>
      <trkpt lat="42.5546533428132534027099609375" lon="20.058541707694530487060546875">
        <ele>2037.4000244140625</ele>
        <time>2026-06-19T10:51:54.000Z</time>
        <extensions>
          <ns3:TrackPointExtension>
            <ns3:atemp>19.0</ns3:atemp>
          </ns3:TrackPointExtension>
        </extensions>
      </trkpt>
      <trkpt lat="42.55466046743094921112060546875" lon="20.0585536099970340728759765625">
        <ele>2037.800048828125</ele>
        <time>2026-06-19T10:51:55.000Z</time>
        <extensions>
          <ns3:TrackPointExtension>
            <ns3:atemp>19.0</ns3:atemp>
          </ns3:TrackPointExtension>
        </extensions>
      </trkpt>
      <trkpt lat="42.5546691007912158966064453125" lon="20.05855754949152469635009765625">
        <ele>2038</ele>
        <time>2026-06-19T10:51:56.000Z</time>
        <extensions>
          <ns3:TrackPointExtension>
            <ns3:atemp>19.0</ns3:atemp>
          </ns3:TrackPointExtension>
        </extensions>
      </trkpt>
      <trkpt lat="42.55468661896884441375732421875" lon="20.0585653446614742279052734375">
        <ele>2038.199951171875</ele>
        <time>2026-06-19T10:51:57.000Z</time>
        <extensions>
          <ns3:TrackPointExtension>
            <ns3:atemp>19.0</ns3:atemp>
          </ns3:TrackPointExtension>
        </extensions>
      </trkpt>
      <trkpt lat="42.554699443280696868896484375" lon="20.05857431329786777496337890625">
        <ele>2038.5999755859375</ele>
        <time>2026-06-19T10:51:58.000Z</time>
        <extensions>
          <ns3:TrackPointExtension>
            <ns3:atemp>19.0</ns3:atemp>
          </ns3:TrackPointExtension>
        </extensions>
      </trkpt>
      <trkpt lat="42.55471629090607166290283203125" lon="20.058580935001373291015625">
        <ele>2038.800048828125</ele>
        <time>2026-06-19T10:51:59.000Z</time>
        <extensions>
          <ns3:TrackPointExtension>
            <ns3:atemp>19.0</ns3:atemp>
          </ns3:TrackPointExtension>
        </extensions>
      </trkpt>
      <trkpt lat="42.55472970195114612579345703125" lon="20.0585795938968658447265625">
        <ele>2039</ele>
        <time>2026-06-19T10:52:00.000Z</time>
        <extensions>
          <ns3:TrackPointExtension>
            <ns3:atemp>19.0</ns3:atemp>
          </ns3:TrackPointExtension>
        </extensions>
      </trkpt>
      <trkpt lat="42.5547431968152523040771484375" lon="20.05857951007783412933349609375">
        <ele>2039</ele>
        <time>2026-06-19T10:52:01.000Z</time>
        <extensions>
          <ns3:TrackPointExtension>
            <ns3:atemp>19.0</ns3:atemp>
          </ns3:TrackPointExtension>
        </extensions>
      </trkpt>
      <trkpt lat="42.55475417710840702056884765625" lon="20.05857883952558040618896484375">
        <ele>2039.199951171875</ele>
        <time>2026-06-19T10:52:02.000Z</time>
        <extensions>
          <ns3:TrackPointExtension>
            <ns3:atemp>19.0</ns3:atemp>
          </ns3:TrackPointExtension>
        </extensions>
      </trkpt>
      <trkpt lat="42.5547683425247669219970703125" lon="20.0585794262588024139404296875">
        <ele>2039.4000244140625</ele>
        <time>2026-06-19T10:52:03.000Z</time>
        <extensions>
          <ns3:TrackPointExtension>
            <ns3:atemp>19.0</ns3:atemp>
          </ns3:TrackPointExtension>
        </extensions>
      </trkpt>
      <trkpt lat="42.55477597005665302276611328125" lon="20.0585876405239105224609375">
        <ele>2039.5999755859375</ele>
        <time>2026-06-19T10:52:04.000Z</time>
        <extensions>
          <ns3:TrackPointExtension>
            <ns3:atemp>19.0</ns3:atemp>
          </ns3:TrackPointExtension>
        </extensions>
      </trkpt>
      <trkpt lat="42.55478552542626857757568359375" lon="20.058597028255462646484375">
        <ele>2039.800048828125</ele>
        <time>2026-06-19T10:52:05.000Z</time>
        <extensions>
          <ns3:TrackPointExtension>
            <ns3:atemp>19.0</ns3:atemp>
          </ns3:TrackPointExtension>
        </extensions>
      </trkpt>
      <trkpt lat="42.55479742772877216339111328125" lon="20.05860012955963611602783203125">
        <ele>2039.800048828125</ele>
        <time>2026-06-19T10:52:06.000Z</time>
        <extensions>
          <ns3:TrackPointExtension>
            <ns3:atemp>19.0</ns3:atemp>
          </ns3:TrackPointExtension>
        </extensions>
      </trkpt>
      <trkpt lat="42.55481402389705181121826171875" lon="20.05859979428350925445556640625">
        <ele>2040</ele>
        <time>2026-06-19T10:52:07.000Z</time>
        <extensions>
          <ns3:TrackPointExtension>
            <ns3:atemp>19.0</ns3:atemp>
          </ns3:TrackPointExtension>
        </extensions>
      </trkpt>
      <trkpt lat="42.55482961423695087432861328125" lon="20.05860197357833385467529296875">
        <ele>2040.199951171875</ele>
        <time>2026-06-19T10:52:08.000Z</time>
        <extensions>
          <ns3:TrackPointExtension>
            <ns3:atemp>19.0</ns3:atemp>
          </ns3:TrackPointExtension>
        </extensions>
      </trkpt>
      <trkpt lat="42.5548424385488033294677734375" lon="20.058607421815395355224609375">
        <ele>2040.199951171875</ele>
        <time>2026-06-19T10:52:09.000Z</time>
        <extensions>
          <ns3:TrackPointExtension>
            <ns3:atemp>19.0</ns3:atemp>
          </ns3:TrackPointExtension>
        </extensions>
      </trkpt>
      <trkpt lat="42.5548561848700046539306640625" lon="20.05861119367182254791259765625">
        <ele>2040.4000244140625</ele>
        <time>2026-06-19T10:52:10.000Z</time>
        <extensions>
          <ns3:TrackPointExtension>
            <ns3:atemp>19.0</ns3:atemp>
          </ns3:TrackPointExtension>
        </extensions>
      </trkpt>
      <trkpt lat="42.55486984737217426300048828125" lon="20.0586126185953617095947265625">
        <ele>2040.5999755859375</ele>
        <time>2026-06-19T10:52:11.000Z</time>
        <extensions>
          <ns3:TrackPointExtension>
            <ns3:atemp>19.0</ns3:atemp>
          </ns3:TrackPointExtension>
        </extensions>
      </trkpt>
      <trkpt lat="42.554882504045963287353515625" lon="20.0586116127669811248779296875">
        <ele>2040.5999755859375</ele>
        <time>2026-06-19T10:52:12.000Z</time>
        <extensions>
          <ns3:TrackPointExtension>
            <ns3:atemp>19.0</ns3:atemp>
          </ns3:TrackPointExtension>
        </extensions>
      </trkpt>
      <trkpt lat="42.55489314906299114227294921875" lon="20.0586069189012050628662109375">
        <ele>2040.800048828125</ele>
        <time>2026-06-19T10:52:13.000Z</time>
        <extensions>
          <ns3:TrackPointExtension>
            <ns3:atemp>19.0</ns3:atemp>
          </ns3:TrackPointExtension>
        </extensions>
      </trkpt>
      <trkpt lat="42.55491100251674652099609375" lon="20.05859727971255779266357421875">
        <ele>2041</ele>
        <time>2026-06-19T10:52:14.000Z</time>
        <extensions>
          <ns3:TrackPointExtension>
            <ns3:atemp>19.0</ns3:atemp>
          </ns3:TrackPointExtension>
        </extensions>
      </trkpt>
      <trkpt lat="42.55492868833243846893310546875" lon="20.0585851259529590606689453125">
        <ele>2041</ele>
        <time>2026-06-19T10:52:15.000Z</time>
        <extensions>
          <ns3:TrackPointExtension>
            <ns3:atemp>19.0</ns3:atemp>
          </ns3:TrackPointExtension>
        </extensions>
      </trkpt>
      <trkpt lat="42.55494763143360614776611328125" lon="20.0585740618407726287841796875">
        <ele>2041.199951171875</ele>
        <time>2026-06-19T10:52:16.000Z</time>
        <extensions>
          <ns3:TrackPointExtension>
            <ns3:atemp>19.0</ns3:atemp>
          </ns3:TrackPointExtension>
        </extensions>
      </trkpt>
      <trkpt lat="42.55496758036315441131591796875" lon="20.0585656799376010894775390625">
        <ele>2041.199951171875</ele>
        <time>2026-06-19T10:52:17.000Z</time>
        <extensions>
          <ns3:TrackPointExtension>
            <ns3:atemp>19.0</ns3:atemp>
          </ns3:TrackPointExtension>
        </extensions>
      </trkpt>
      <trkpt lat="42.55498342216014862060546875" lon="20.0585448928177356719970703125">
        <ele>2041.4000244140625</ele>
        <time>2026-06-19T10:52:18.000Z</time>
        <extensions>
          <ns3:TrackPointExtension>
            <ns3:atemp>19.0</ns3:atemp>
          </ns3:TrackPointExtension>
        </extensions>
      </trkpt>
      <trkpt lat="42.55499205552041530609130859375" lon="20.05852527916431427001953125">
        <ele>2041.4000244140625</ele>
        <time>2026-06-19T10:52:19.000Z</time>
        <extensions>
          <ns3:TrackPointExtension>
            <ns3:atemp>19.0</ns3:atemp>
          </ns3:TrackPointExtension>
        </extensions>
      </trkpt>
      <trkpt lat="42.5550060532987117767333984375" lon="20.058501474559307098388671875">
        <ele>2041.5999755859375</ele>
        <time>2026-06-19T10:52:20.000Z</time>
        <extensions>
          <ns3:TrackPointExtension>
            <ns3:atemp>19.0</ns3:atemp>
          </ns3:TrackPointExtension>
        </extensions>
      </trkpt>
      <trkpt lat="42.5550201348960399627685546875" lon="20.05847238935530185699462890625">
        <ele>2041.800048828125</ele>
        <time>2026-06-19T10:52:21.000Z</time>
        <extensions>
          <ns3:TrackPointExtension>
            <ns3:atemp>19.0</ns3:atemp>
          </ns3:TrackPointExtension>
        </extensions>
      </trkpt>
      <trkpt lat="42.55502742715179920196533203125" lon="20.05844372324645519256591796875">
        <ele>2042</ele>
        <time>2026-06-19T10:52:22.000Z</time>
        <extensions>
          <ns3:TrackPointExtension>
            <ns3:atemp>19.0</ns3:atemp>
          </ns3:TrackPointExtension>
        </extensions>
      </trkpt>
      <trkpt lat="42.555036060512065887451171875" lon="20.0584127940237522125244140625">
        <ele>2042</ele>
        <time>2026-06-19T10:52:23.000Z</time>
        <extensions>
          <ns3:TrackPointExtension>
            <ns3:atemp>19.0</ns3:atemp>
          </ns3:TrackPointExtension>
        </extensions>
      </trkpt>
      <trkpt lat="42.55504167638719081878662109375" lon="20.05838739685714244842529296875">
        <ele>2042.4000244140625</ele>
        <time>2026-06-19T10:52:24.000Z</time>
        <extensions>
          <ns3:TrackPointExtension>
            <ns3:atemp>19.0</ns3:atemp>
          </ns3:TrackPointExtension>
        </extensions>
      </trkpt>
      <trkpt lat="42.55504251457750797271728515625" lon="20.05835956893861293792724609375">
        <ele>2042.5999755859375</ele>
        <time>2026-06-19T10:52:25.000Z</time>
        <extensions>
          <ns3:TrackPointExtension>
            <ns3:atemp>19.0</ns3:atemp>
          </ns3:TrackPointExtension>
        </extensions>
      </trkpt>
      <trkpt lat="42.55503614433109760284423828125" lon="20.05833140574395656585693359375">
        <ele>2042.800048828125</ele>
        <time>2026-06-19T10:52:26.000Z</time>
        <extensions>
          <ns3:TrackPointExtension>
            <ns3:atemp>19.0</ns3:atemp>
          </ns3:TrackPointExtension>
        </extensions>
      </trkpt>
      <trkpt lat="42.55503362976014614105224609375" lon="20.0583148933947086334228515625">
        <ele>2043</ele>
        <time>2026-06-19T10:52:27.000Z</time>
        <extensions>
          <ns3:TrackPointExtension>
            <ns3:atemp>19.0</ns3:atemp>
          </ns3:TrackPointExtension>
        </extensions>
      </trkpt>
      <trkpt lat="42.55502910353243350982666015625" lon="20.05829854868352413177490234375">
        <ele>2043.199951171875</ele>
        <time>2026-06-19T10:52:28.000Z</time>
        <extensions>
          <ns3:TrackPointExtension>
            <ns3:atemp>19.0</ns3:atemp>
          </ns3:TrackPointExtension>
        </extensions>
      </trkpt>
      <trkpt lat="42.55502742715179920196533203125" lon="20.05827290005981922149658203125">
        <ele>2043.4000244140625</ele>
        <time>2026-06-19T10:52:29.000Z</time>
        <extensions>
          <ns3:TrackPointExtension>
            <ns3:atemp>19.0</ns3:atemp>
          </ns3:TrackPointExtension>
        </extensions>
      </trkpt>
      <trkpt lat="42.55502809770405292510986328125" lon="20.05826242268085479736328125">
        <ele>2043.4000244140625</ele>
        <time>2026-06-19T10:52:30.000Z</time>
        <extensions>
          <ns3:TrackPointExtension>
            <ns3:atemp>19.0</ns3:atemp>
          </ns3:TrackPointExtension>
        </extensions>
      </trkpt>
      <trkpt lat="42.5550248287618160247802734375" lon="20.058242976665496826171875">
        <ele>2043.5999755859375</ele>
        <time>2026-06-19T10:52:31.000Z</time>
        <extensions>
          <ns3:TrackPointExtension>
            <ns3:atemp>19.0</ns3:atemp>
          </ns3:TrackPointExtension>
        </extensions>
      </trkpt>
      <trkpt lat="42.55502457730472087860107421875" lon="20.0582096166908740997314453125">
        <ele>2043.5999755859375</ele>
        <time>2026-06-19T10:52:32.000Z</time>
        <extensions>
          <ns3:TrackPointExtension>
            <ns3:atemp>19.0</ns3:atemp>
          </ns3:TrackPointExtension>
        </extensions>
      </trkpt>
      <trkpt lat="42.55502591840922832489013671875" lon="20.058180280029773712158203125">
        <ele>2043.4000244140625</ele>
        <time>2026-06-19T10:52:33.000Z</time>
        <extensions>
          <ns3:TrackPointExtension>
            <ns3:atemp>19.0</ns3:atemp>
          </ns3:TrackPointExtension>
        </extensions>
      </trkpt>
      <trkpt lat="42.55502692423760890960693359375" lon="20.0581499375402927398681640625">
        <ele>2043.4000244140625</ele>
        <time>2026-06-19T10:52:34.000Z</time>
        <extensions>
          <ns3:TrackPointExtension>
            <ns3:atemp>19.0</ns3:atemp>
          </ns3:TrackPointExtension>
        </extensions>
      </trkpt>
      <trkpt lat="42.55503044463694095611572265625" lon="20.0581268034875392913818359375">
        <ele>2043.4000244140625</ele>
        <time>2026-06-19T10:52:35.000Z</time>
        <extensions>
          <ns3:TrackPointExtension>
            <ns3:atemp>19.0</ns3:atemp>
          </ns3:TrackPointExtension>
        </extensions>
      </trkpt>
      <trkpt lat="42.5550325401127338409423828125" lon="20.05809503607451915740966796875">
        <ele>2043.199951171875</ele>
        <time>2026-06-19T10:52:36.000Z</time>
        <extensions>
          <ns3:TrackPointExtension>
            <ns3:atemp>19.0</ns3:atemp>
          </ns3:TrackPointExtension>
        </extensions>
      </trkpt>
      <trkpt lat="42.55503614433109760284423828125" lon="20.058064274489879608154296875">
        <ele>2043.199951171875</ele>
        <time>2026-06-19T10:52:37.000Z</time>
        <extensions>
          <ns3:TrackPointExtension>
            <ns3:atemp>19.0</ns3:atemp>
          </ns3:TrackPointExtension>
        </extensions>
      </trkpt>
      <trkpt lat="42.55503983236849308013916015625" lon="20.0580218620598316192626953125">
        <ele>2043.199951171875</ele>
        <time>2026-06-19T10:52:38.000Z</time>
        <extensions>
          <ns3:TrackPointExtension>
            <ns3:atemp>19.0</ns3:atemp>
          </ns3:TrackPointExtension>
        </extensions>
      </trkpt>
      <trkpt lat="42.55504435859620571136474609375" lon="20.05797785706818103790283203125">
        <ele>2043.199951171875</ele>
        <time>2026-06-19T10:52:39.000Z</time>
        <extensions>
          <ns3:TrackPointExtension>
            <ns3:atemp>19.0</ns3:atemp>
          </ns3:TrackPointExtension>
        </extensions>
      </trkpt>
      <trkpt lat="42.5550493039190769195556640625" lon="20.0579373724758625030517578125">
        <ele>2043.199951171875</ele>
        <time>2026-06-19T10:52:40.000Z</time>
        <extensions>
          <ns3:TrackPointExtension>
            <ns3:atemp>19.0</ns3:atemp>
          </ns3:TrackPointExtension>
        </extensions>
      </trkpt>
      <trkpt lat="42.55505676381289958953857421875" lon="20.05790024064481258392333984375">
        <ele>2043.199951171875</ele>
        <time>2026-06-19T10:52:41.000Z</time>
        <extensions>
          <ns3:TrackPointExtension>
            <ns3:atemp>19.0</ns3:atemp>
          </ns3:TrackPointExtension>
        </extensions>
      </trkpt>
      <trkpt lat="42.55506430752575397491455078125" lon="20.05786151625216007232666015625">
        <ele>2043.199951171875</ele>
        <time>2026-06-19T10:52:42.000Z</time>
        <extensions>
          <ns3:TrackPointExtension>
            <ns3:atemp>19.0</ns3:atemp>
          </ns3:TrackPointExtension>
        </extensions>
      </trkpt>
      <trkpt lat="42.5550685822963714599609375" lon="20.0578178465366363525390625">
        <ele>2043.199951171875</ele>
        <time>2026-06-19T10:52:43.000Z</time>
        <extensions>
          <ns3:TrackPointExtension>
            <ns3:atemp>19.0</ns3:atemp>
          </ns3:TrackPointExtension>
        </extensions>
      </trkpt>
      <trkpt lat="42.5550700910389423370361328125" lon="20.0577704049646854400634765625">
        <ele>2043.199951171875</ele>
        <time>2026-06-19T10:52:44.000Z</time>
        <extensions>
          <ns3:TrackPointExtension>
            <ns3:atemp>19.0</ns3:atemp>
          </ns3:TrackPointExtension>
        </extensions>
      </trkpt>
      <trkpt lat="42.55507704801857471466064453125" lon="20.05772019736468791961669921875">
        <ele>2043.199951171875</ele>
        <time>2026-06-19T10:52:45.000Z</time>
        <extensions>
          <ns3:TrackPointExtension>
            <ns3:atemp>19.0</ns3:atemp>
          </ns3:TrackPointExtension>
        </extensions>
      </trkpt>
      <trkpt lat="42.555080987513065338134765625" lon="20.0576725043356418609619140625">
        <ele>2043.199951171875</ele>
        <time>2026-06-19T10:52:46.000Z</time>
        <extensions>
          <ns3:TrackPointExtension>
            <ns3:atemp>19.0</ns3:atemp>
          </ns3:TrackPointExtension>
        </extensions>
      </trkpt>
      <trkpt lat="42.55508291535079479217529296875" lon="20.0576292537152767181396484375">
        <ele>2043.199951171875</ele>
        <time>2026-06-19T10:52:47.000Z</time>
        <extensions>
          <ns3:TrackPointExtension>
            <ns3:atemp>19.0</ns3:atemp>
          </ns3:TrackPointExtension>
        </extensions>
      </trkpt>
      <trkpt lat="42.55508140660822391510009765625" lon="20.0575903616845607757568359375">
        <ele>2043.199951171875</ele>
        <time>2026-06-19T10:52:48.000Z</time>
        <extensions>
          <ns3:TrackPointExtension>
            <ns3:atemp>19.0</ns3:atemp>
          </ns3:TrackPointExtension>
        </extensions>
      </trkpt>
      <trkpt lat="42.555077634751796722412109375" lon="20.05756446160376071929931640625">
        <ele>2043.4000244140625</ele>
        <time>2026-06-19T10:52:49.000Z</time>
        <extensions>
          <ns3:TrackPointExtension>
            <ns3:atemp>19.0</ns3:atemp>
          </ns3:TrackPointExtension>
        </extensions>
      </trkpt>
      <trkpt lat="42.55507721565663814544677734375" lon="20.0575444288551807403564453125">
        <ele>2043.4000244140625</ele>
        <time>2026-06-19T10:52:50.000Z</time>
        <extensions>
          <ns3:TrackPointExtension>
            <ns3:atemp>19.0</ns3:atemp>
          </ns3:TrackPointExtension>
        </extensions>
      </trkpt>
      <trkpt lat="42.55507637746632099151611328125" lon="20.0575246475636959075927734375">
        <ele>2043.5999755859375</ele>
        <time>2026-06-19T10:52:51.000Z</time>
        <extensions>
          <ns3:TrackPointExtension>
            <ns3:atemp>19.0</ns3:atemp>
          </ns3:TrackPointExtension>
        </extensions>
      </trkpt>
      <trkpt lat="42.555076964199542999267578125" lon="20.05749941803514957427978515625">
        <ele>2043.800048828125</ele>
        <time>2026-06-19T10:52:52.000Z</time>
        <extensions>
          <ns3:TrackPointExtension>
            <ns3:atemp>19.0</ns3:atemp>
          </ns3:TrackPointExtension>
        </extensions>
      </trkpt>
      <trkpt lat="42.5550771318376064300537109375" lon="20.057473517954349517822265625">
        <ele>2044</ele>
        <time>2026-06-19T10:52:53.000Z</time>
        <extensions>
          <ns3:TrackPointExtension>
            <ns3:atemp>19.0</ns3:atemp>
          </ns3:TrackPointExtension>
        </extensions>
      </trkpt>
      <trkpt lat="42.5550798140466213226318359375" lon="20.0574458576738834381103515625">
        <ele>2044.4000244140625</ele>
        <time>2026-06-19T10:52:54.000Z</time>
        <extensions>
          <ns3:TrackPointExtension>
            <ns3:atemp>19.0</ns3:atemp>
          </ns3:TrackPointExtension>
        </extensions>
      </trkpt>
      <trkpt lat="42.5550824962556362152099609375" lon="20.05742155015468597412109375">
        <ele>2044.5999755859375</ele>
        <time>2026-06-19T10:52:55.000Z</time>
        <extensions>
          <ns3:TrackPointExtension>
            <ns3:atemp>19.0</ns3:atemp>
          </ns3:TrackPointExtension>
        </extensions>
      </trkpt>
      <trkpt lat="42.555082328617572784423828125" lon="20.05739632062613964080810546875">
        <ele>2044.800048828125</ele>
        <time>2026-06-19T10:52:56.000Z</time>
        <extensions>
          <ns3:TrackPointExtension>
            <ns3:atemp>19.0</ns3:atemp>
          </ns3:TrackPointExtension>
        </extensions>
      </trkpt>
      <trkpt lat="42.55508157424628734588623046875" lon="20.057370923459529876708984375">
        <ele>2045.199951171875</ele>
        <time>2026-06-19T10:52:57.000Z</time>
        <extensions>
          <ns3:TrackPointExtension>
            <ns3:atemp>19.0</ns3:atemp>
          </ns3:TrackPointExtension>
        </extensions>
      </trkpt>
      <trkpt lat="42.5550788082182407379150390625" lon="20.0573486275970935821533203125">
        <ele>2045.5999755859375</ele>
        <time>2026-06-19T10:52:58.000Z</time>
        <extensions>
          <ns3:TrackPointExtension>
            <ns3:atemp>19.0</ns3:atemp>
          </ns3:TrackPointExtension>
        </extensions>
      </trkpt>
      <trkpt lat="42.5550712645053863525390625" lon="20.0573264993727207183837890625">
        <ele>2045.800048828125</ele>
        <time>2026-06-19T10:52:59.000Z</time>
        <extensions>
          <ns3:TrackPointExtension>
            <ns3:atemp>19.0</ns3:atemp>
          </ns3:TrackPointExtension>
        </extensions>
      </trkpt>
      <trkpt lat="42.5550700910389423370361328125" lon="20.05729892291128635406494140625">
        <ele>2046</ele>
        <time>2026-06-19T10:53:00.000Z</time>
        <extensions>
          <ns3:TrackPointExtension>
            <ns3:atemp>19.0</ns3:atemp>
          </ns3:TrackPointExtension>
        </extensions>
      </trkpt>
      <trkpt lat="42.5550704263150691986083984375" lon="20.05727629177272319793701171875">
        <ele>2046.199951171875</ele>
        <time>2026-06-19T10:53:01.000Z</time>
        <extensions>
          <ns3:TrackPointExtension>
            <ns3:atemp>19.0</ns3:atemp>
          </ns3:TrackPointExtension>
        </extensions>
      </trkpt>
      <trkpt lat="42.55507201887667179107666015625" lon="20.057255588471889495849609375">
        <ele>2046.4000244140625</ele>
        <time>2026-06-19T10:53:02.000Z</time>
        <extensions>
          <ns3:TrackPointExtension>
            <ns3:atemp>19.0</ns3:atemp>
          </ns3:TrackPointExtension>
        </extensions>
      </trkpt>
      <trkpt lat="42.55507168360054492950439453125" lon="20.0572342984378337860107421875">
        <ele>2046.4000244140625</ele>
        <time>2026-06-19T10:53:03.000Z</time>
        <extensions>
          <ns3:TrackPointExtension>
            <ns3:atemp>19.0</ns3:atemp>
          </ns3:TrackPointExtension>
        </extensions>
      </trkpt>
      <trkpt lat="42.555072940886020660400390625" lon="20.05721258930861949920654296875">
        <ele>2046.5999755859375</ele>
        <time>2026-06-19T10:53:04.000Z</time>
        <extensions>
          <ns3:TrackPointExtension>
            <ns3:atemp>19.0</ns3:atemp>
          </ns3:TrackPointExtension>
        </extensions>
      </trkpt>
      <trkpt lat="42.5550767965614795684814453125" lon="20.057190544903278350830078125">
        <ele>2046.5999755859375</ele>
        <time>2026-06-19T10:53:05.000Z</time>
        <extensions>
          <ns3:TrackPointExtension>
            <ns3:atemp>19.0</ns3:atemp>
          </ns3:TrackPointExtension>
        </extensions>
      </trkpt>
      <trkpt lat="42.5550781376659870147705078125" lon="20.05717000924050807952880859375">
        <ele>2046.800048828125</ele>
        <time>2026-06-19T10:53:06.000Z</time>
        <extensions>
          <ns3:TrackPointExtension>
            <ns3:atemp>19.0</ns3:atemp>
          </ns3:TrackPointExtension>
        </extensions>
      </trkpt>
      <trkpt lat="42.55507771857082843780517578125" lon="20.05715198814868927001953125">
        <ele>2047</ele>
        <time>2026-06-19T10:53:07.000Z</time>
        <extensions>
          <ns3:TrackPointExtension>
            <ns3:atemp>19.0</ns3:atemp>
          </ns3:TrackPointExtension>
        </extensions>
      </trkpt>
      <trkpt lat="42.55507704801857471466064453125" lon="20.057135559618473052978515625">
        <ele>2047.199951171875</ele>
        <time>2026-06-19T10:53:08.000Z</time>
        <extensions>
          <ns3:TrackPointExtension>
            <ns3:atemp>19.0</ns3:atemp>
          </ns3:TrackPointExtension>
        </extensions>
      </trkpt>
      <trkpt lat="42.55507688038051128387451171875" lon="20.0571149401366710662841796875">
        <ele>2047.5999755859375</ele>
        <time>2026-06-19T10:53:09.000Z</time>
        <extensions>
          <ns3:TrackPointExtension>
            <ns3:atemp>19.0</ns3:atemp>
          </ns3:TrackPointExtension>
        </extensions>
      </trkpt>
      <trkpt lat="42.555076293647289276123046875" lon="20.0570891238749027252197265625">
        <ele>2047.800048828125</ele>
        <time>2026-06-19T10:53:10.000Z</time>
        <extensions>
          <ns3:TrackPointExtension>
            <ns3:atemp>19.0</ns3:atemp>
          </ns3:TrackPointExtension>
        </extensions>
      </trkpt>
      <trkpt lat="42.55507386289536952972412109375" lon="20.057064481079578399658203125">
        <ele>2048</ele>
        <time>2026-06-19T10:53:11.000Z</time>
        <extensions>
          <ns3:TrackPointExtension>
            <ns3:atemp>19.0</ns3:atemp>
          </ns3:TrackPointExtension>
        </extensions>
      </trkpt>
      <trkpt lat="42.55507520399987697601318359375" lon="20.05703355185687541961669921875">
        <ele>2048.39990234375</ele>
        <time>2026-06-19T10:53:12.000Z</time>
        <extensions>
          <ns3:TrackPointExtension>
            <ns3:atemp>19.0</ns3:atemp>
          </ns3:TrackPointExtension>
        </extensions>
      </trkpt>
      <trkpt lat="42.55507470108568668365478515625" lon="20.05700740031898021697998046875">
        <ele>2048.800048828125</ele>
        <time>2026-06-19T10:53:13.000Z</time>
        <extensions>
          <ns3:TrackPointExtension>
            <ns3:atemp>19.0</ns3:atemp>
          </ns3:TrackPointExtension>
        </extensions>
      </trkpt>
      <trkpt lat="42.55507185123860836029052734375" lon="20.05698141641914844512939453125">
        <ele>2049</ele>
        <time>2026-06-19T10:53:14.000Z</time>
        <extensions>
          <ns3:TrackPointExtension>
            <ns3:atemp>18.0</ns3:atemp>
          </ns3:TrackPointExtension>
        </extensions>
      </trkpt>
      <trkpt lat="42.55506900139153003692626953125" lon="20.05696314387023448944091796875">
        <ele>2049.60009765625</ele>
        <time>2026-06-19T10:53:15.000Z</time>
        <extensions>
          <ns3:TrackPointExtension>
            <ns3:atemp>18.0</ns3:atemp>
          </ns3:TrackPointExtension>
        </extensions>
      </trkpt>
      <trkpt lat="42.55506413988769054412841796875" lon="20.0569382496178150177001953125">
        <ele>2050</ele>
        <time>2026-06-19T10:53:16.000Z</time>
        <extensions>
          <ns3:TrackPointExtension>
            <ns3:atemp>18.0</ns3:atemp>
          </ns3:TrackPointExtension>
        </extensions>
      </trkpt>
      <trkpt lat="42.55506346933543682098388671875" lon="20.05691721104085445404052734375">
        <ele>2050.39990234375</ele>
        <time>2026-06-19T10:53:17.000Z</time>
        <extensions>
          <ns3:TrackPointExtension>
            <ns3:atemp>18.0</ns3:atemp>
          </ns3:TrackPointExtension>
        </extensions>
      </trkpt>
      <trkpt lat="42.5550617091357707977294921875" lon="20.05689592100679874420166015625">
        <ele>2050.800048828125</ele>
        <time>2026-06-19T10:53:18.000Z</time>
        <extensions>
          <ns3:TrackPointExtension>
            <ns3:atemp>18.0</ns3:atemp>
          </ns3:TrackPointExtension>
        </extensions>
      </trkpt>
      <trkpt lat="42.55506531335413455963134765625" lon="20.0568711943924427032470703125">
        <ele>2051</ele>
        <time>2026-06-19T10:53:19.000Z</time>
        <extensions>
          <ns3:TrackPointExtension>
            <ns3:atemp>18.0</ns3:atemp>
          </ns3:TrackPointExtension>
        </extensions>
      </trkpt>
      <trkpt lat="42.555066235363483428955078125" lon="20.05684814415872097015380859375">
        <ele>2051.39990234375</ele>
        <time>2026-06-19T10:53:20.000Z</time>
        <extensions>
          <ns3:TrackPointExtension>
            <ns3:atemp>18.0</ns3:atemp>
          </ns3:TrackPointExtension>
        </extensions>
      </trkpt>
      <trkpt lat="42.55507302470505237579345703125" lon="20.05682735703885555267333984375">
        <ele>2051.800048828125</ele>
        <time>2026-06-19T10:53:21.000Z</time>
        <extensions>
          <ns3:TrackPointExtension>
            <ns3:atemp>18.0</ns3:atemp>
          </ns3:TrackPointExtension>
        </extensions>
      </trkpt>
      <trkpt lat="42.55508559755980968475341796875" lon="20.05680422298610210418701171875">
        <ele>2052.199951171875</ele>
        <time>2026-06-19T10:53:22.000Z</time>
        <extensions>
          <ns3:TrackPointExtension>
            <ns3:atemp>18.0</ns3:atemp>
          </ns3:TrackPointExtension>
        </extensions>
      </trkpt>
      <trkpt lat="42.555099427700042724609375" lon="20.05678477697074413299560546875">
        <ele>2052.60009765625</ele>
        <time>2026-06-19T10:53:23.000Z</time>
        <extensions>
          <ns3:TrackPointExtension>
            <ns3:atemp>18.0</ns3:atemp>
          </ns3:TrackPointExtension>
        </extensions>
      </trkpt>
      <trkpt lat="42.55511476658284664154052734375" lon="20.05677840672433376312255859375">
        <ele>2053</ele>
        <time>2026-06-19T10:53:24.000Z</time>
        <extensions>
          <ns3:TrackPointExtension>
            <ns3:atemp>18.0</ns3:atemp>
          </ns3:TrackPointExtension>
        </extensions>
      </trkpt>
      <trkpt lat="42.555130608379840850830078125" lon="20.05676683969795703887939453125">
        <ele>2053.39990234375</ele>
        <time>2026-06-19T10:53:25.000Z</time>
        <extensions>
          <ns3:TrackPointExtension>
            <ns3:atemp>18.0</ns3:atemp>
          </ns3:TrackPointExtension>
        </extensions>
      </trkpt>
      <trkpt lat="42.555144689977169036865234375" lon="20.05675577558577060699462890625">
        <ele>2053.800048828125</ele>
        <time>2026-06-19T10:53:26.000Z</time>
        <extensions>
          <ns3:TrackPointExtension>
            <ns3:atemp>18.0</ns3:atemp>
          </ns3:TrackPointExtension>
        </extensions>
      </trkpt>
      <trkpt lat="42.55516044795513153076171875" lon="20.05675057880580425262451171875">
        <ele>2054.39990234375</ele>
        <time>2026-06-19T10:53:27.000Z</time>
        <extensions>
          <ns3:TrackPointExtension>
            <ns3:atemp>18.0</ns3:atemp>
          </ns3:TrackPointExtension>
        </extensions>
      </trkpt>
      <trkpt lat="42.55517662502825260162353515625" lon="20.05675074644386768341064453125">
        <ele>2055</ele>
        <time>2026-06-19T10:53:28.000Z</time>
        <extensions>
          <ns3:TrackPointExtension>
            <ns3:atemp>18.0</ns3:atemp>
          </ns3:TrackPointExtension>
        </extensions>
      </trkpt>
      <trkpt lat="42.5551944784820079803466796875" lon="20.05674554966390132904052734375">
        <ele>2055.39990234375</ele>
        <time>2026-06-19T10:53:29.000Z</time>
        <extensions>
          <ns3:TrackPointExtension>
            <ns3:atemp>18.0</ns3:atemp>
          </ns3:TrackPointExtension>
        </extensions>
      </trkpt>
      <trkpt lat="42.555209733545780181884765625" lon="20.05673800595104694366455078125">
        <ele>2055.800048828125</ele>
        <time>2026-06-19T10:53:30.000Z</time>
        <extensions>
          <ns3:TrackPointExtension>
            <ns3:atemp>18.0</ns3:atemp>
          </ns3:TrackPointExtension>
        </extensions>
      </trkpt>
      <trkpt lat="42.55522540770471096038818359375" lon="20.05672409199178218841552734375">
        <ele>2056.199951171875</ele>
        <time>2026-06-19T10:53:31.000Z</time>
        <extensions>
          <ns3:TrackPointExtension>
            <ns3:atemp>18.0</ns3:atemp>
          </ns3:TrackPointExtension>
        </extensions>
      </trkpt>
      <trkpt lat="42.5552383996546268463134765625" lon="20.05671168677508831024169921875">
        <ele>2056.60009765625</ele>
        <time>2026-06-19T10:53:32.000Z</time>
        <extensions>
          <ns3:TrackPointExtension>
            <ns3:atemp>18.0</ns3:atemp>
          </ns3:TrackPointExtension>
        </extensions>
      </trkpt>
      <trkpt lat="42.55525625310838222503662109375" lon="20.05669961683452129364013671875">
        <ele>2057</ele>
        <time>2026-06-19T10:53:33.000Z</time>
        <extensions>
          <ns3:TrackPointExtension>
            <ns3:atemp>18.0</ns3:atemp>
          </ns3:TrackPointExtension>
        </extensions>
      </trkpt>
      <trkpt lat="42.555274106562137603759765625" lon="20.05669257603585720062255859375">
        <ele>2057.199951171875</ele>
        <time>2026-06-19T10:53:34.000Z</time>
        <extensions>
          <ns3:TrackPointExtension>
            <ns3:atemp>18.0</ns3:atemp>
          </ns3:TrackPointExtension>
        </extensions>
      </trkpt>
      <trkpt lat="42.5552913732826709747314453125" lon="20.05668033845722675323486328125">
        <ele>2057.39990234375</ele>
        <time>2026-06-19T10:53:35.000Z</time>
        <extensions>
          <ns3:TrackPointExtension>
            <ns3:atemp>18.0</ns3:atemp>
          </ns3:TrackPointExtension>
        </extensions>
      </trkpt>
      <trkpt lat="42.55530855618417263031005859375" lon="20.056674219667911529541015625">
        <ele>2057.60009765625</ele>
        <time>2026-06-19T10:53:36.000Z</time>
        <extensions>
          <ns3:TrackPointExtension>
            <ns3:atemp>18.0</ns3:atemp>
          </ns3:TrackPointExtension>
        </extensions>
      </trkpt>
      <trkpt lat="42.5553265772759914398193359375" lon="20.05666642449796199798583984375">
        <ele>2057.60009765625</ele>
        <time>2026-06-19T10:53:37.000Z</time>
        <extensions>
          <ns3:TrackPointExtension>
            <ns3:atemp>18.0</ns3:atemp>
          </ns3:TrackPointExtension>
        </extensions>
      </trkpt>
      <trkpt lat="42.555343173444271087646484375" lon="20.056656114757061004638671875">
        <ele>2057.60009765625</ele>
        <time>2026-06-19T10:53:38.000Z</time>
        <extensions>
          <ns3:TrackPointExtension>
            <ns3:atemp>18.0</ns3:atemp>
          </ns3:TrackPointExtension>
        </extensions>
      </trkpt>
      <trkpt lat="42.55535800941288471221923828125" lon="20.056649744510650634765625">
        <ele>2057.60009765625</ele>
        <time>2026-06-19T10:53:39.000Z</time>
        <extensions>
          <ns3:TrackPointExtension>
            <ns3:atemp>18.0</ns3:atemp>
          </ns3:TrackPointExtension>
        </extensions>
      </trkpt>
      <trkpt lat="42.55537359975278377532958984375" lon="20.0566472299396991729736328125">
        <ele>2057.800048828125</ele>
        <time>2026-06-19T10:53:40.000Z</time>
        <extensions>
          <ns3:TrackPointExtension>
            <ns3:atemp>18.0</ns3:atemp>
          </ns3:TrackPointExtension>
        </extensions>
      </trkpt>
      <trkpt lat="42.555390112102031707763671875" lon="20.0566388480365276336669921875">
        <ele>2057.800048828125</ele>
        <time>2026-06-19T10:53:41.000Z</time>
        <extensions>
          <ns3:TrackPointExtension>
            <ns3:atemp>18.0</ns3:atemp>
          </ns3:TrackPointExtension>
        </extensions>
      </trkpt>
      <trkpt lat="42.555409558117389678955078125" lon="20.056624598801136016845703125">
        <ele>2057.800048828125</ele>
        <time>2026-06-19T10:53:42.000Z</time>
        <extensions>
          <ns3:TrackPointExtension>
            <ns3:atemp>18.0</ns3:atemp>
          </ns3:TrackPointExtension>
        </extensions>
      </trkpt>
      <trkpt lat="42.55542875267565250396728515625" lon="20.056606829166412353515625">
        <ele>2057.800048828125</ele>
        <time>2026-06-19T10:53:43.000Z</time>
        <extensions>
          <ns3:TrackPointExtension>
            <ns3:atemp>18.0</ns3:atemp>
          </ns3:TrackPointExtension>
        </extensions>
      </trkpt>
      <trkpt lat="42.555449791252613067626953125" lon="20.0565818510949611663818359375">
        <ele>2057.60009765625</ele>
        <time>2026-06-19T10:53:44.000Z</time>
        <extensions>
          <ns3:TrackPointExtension>
            <ns3:atemp>18.0</ns3:atemp>
          </ns3:TrackPointExtension>
        </extensions>
      </trkpt>
      <trkpt lat="42.55547150038182735443115234375" lon="20.05655561573803424835205078125">
        <ele>2057.199951171875</ele>
        <time>2026-06-19T10:53:45.000Z</time>
        <extensions>
          <ns3:TrackPointExtension>
            <ns3:atemp>18.0</ns3:atemp>
          </ns3:TrackPointExtension>
        </extensions>
      </trkpt>
      <trkpt lat="42.55549228750169277191162109375" lon="20.05652577616274356842041015625">
        <ele>2056.800048828125</ele>
        <time>2026-06-19T10:53:46.000Z</time>
        <extensions>
          <ns3:TrackPointExtension>
            <ns3:atemp>18.0</ns3:atemp>
          </ns3:TrackPointExtension>
        </extensions>
      </trkpt>
      <trkpt lat="42.55550737492740154266357421875" lon="20.05649727769196033477783203125">
        <ele>2056.39990234375</ele>
        <time>2026-06-19T10:53:47.000Z</time>
        <extensions>
          <ns3:TrackPointExtension>
            <ns3:atemp>18.0</ns3:atemp>
          </ns3:TrackPointExtension>
        </extensions>
      </trkpt>
      <trkpt lat="42.55551240406930446624755859375" lon="20.0564470700919628143310546875">
        <ele>2056</ele>
        <time>2026-06-19T10:53:48.000Z</time>
        <extensions>
          <ns3:TrackPointExtension>
            <ns3:atemp>18.0</ns3:atemp>
          </ns3:TrackPointExtension>
        </extensions>
      </trkpt>
      <trkpt lat="42.55549974739551544189453125" lon="20.05641899071633815765380859375">
        <ele>2055.39990234375</ele>
        <time>2026-06-19T10:53:49.000Z</time>
        <extensions>
          <ns3:TrackPointExtension>
            <ns3:atemp>18.0</ns3:atemp>
          </ns3:TrackPointExtension>
        </extensions>
      </trkpt>
      <trkpt lat="42.555488012731075286865234375" lon="20.05639954470098018646240234375">
        <ele>2055</ele>
        <time>2026-06-19T10:53:50.000Z</time>
        <extensions>
          <ns3:TrackPointExtension>
            <ns3:atemp>18.0</ns3:atemp>
          </ns3:TrackPointExtension>
        </extensions>
      </trkpt>
      <trkpt lat="42.55547669716179370880126953125" lon="20.05638730712234973907470703125">
        <ele>2054.60009765625</ele>
        <time>2026-06-19T10:53:51.000Z</time>
        <extensions>
          <ns3:TrackPointExtension>
            <ns3:atemp>18.0</ns3:atemp>
          </ns3:TrackPointExtension>
        </extensions>
      </trkpt>
      <trkpt lat="42.55546881817281246185302734375" lon="20.05637775175273418426513671875">
        <ele>2054.39990234375</ele>
        <time>2026-06-19T10:53:52.000Z</time>
        <extensions>
          <ns3:TrackPointExtension>
            <ns3:atemp>18.0</ns3:atemp>
          </ns3:TrackPointExtension>
        </extensions>
      </trkpt>
      <trkpt lat="42.55545641295611858367919921875" lon="20.0563694536685943603515625">
        <ele>2054.39990234375</ele>
        <time>2026-06-19T10:53:53.000Z</time>
        <extensions>
          <ns3:TrackPointExtension>
            <ns3:atemp>18.0</ns3:atemp>
          </ns3:TrackPointExtension>
        </extensions>
      </trkpt>
      <trkpt lat="42.55544099025428295135498046875" lon="20.056357048451900482177734375">
        <ele>2054.199951171875</ele>
        <time>2026-06-19T10:53:54.000Z</time>
        <extensions>
          <ns3:TrackPointExtension>
            <ns3:atemp>18.0</ns3:atemp>
          </ns3:TrackPointExtension>
        </extensions>
      </trkpt>
      <trkpt lat="42.55542196333408355712890625" lon="20.0563461519777774810791015625">
        <ele>2054.39990234375</ele>
        <time>2026-06-19T10:53:55.000Z</time>
        <extensions>
          <ns3:TrackPointExtension>
            <ns3:atemp>18.0</ns3:atemp>
          </ns3:TrackPointExtension>
        </extensions>
      </trkpt>
      <trkpt lat="42.5554097257554531097412109375" lon="20.056340284645557403564453125">
        <ele>2054.39990234375</ele>
        <time>2026-06-19T10:53:56.000Z</time>
        <extensions>
          <ns3:TrackPointExtension>
            <ns3:atemp>18.0</ns3:atemp>
          </ns3:TrackPointExtension>
        </extensions>
      </trkpt>
      <trkpt lat="42.55539824254810810089111328125" lon="20.05632477812469005584716796875">
        <ele>2054.60009765625</ele>
        <time>2026-06-19T10:53:57.000Z</time>
        <extensions>
          <ns3:TrackPointExtension>
            <ns3:atemp>18.0</ns3:atemp>
          </ns3:TrackPointExtension>
        </extensions>
      </trkpt>
      <trkpt lat="42.5553849153220653533935546875" lon="20.0563052482903003692626953125">
        <ele>2054.800048828125</ele>
        <time>2026-06-19T10:53:58.000Z</time>
        <extensions>
          <ns3:TrackPointExtension>
            <ns3:atemp>18.0</ns3:atemp>
          </ns3:TrackPointExtension>
        </extensions>
      </trkpt>
      <trkpt lat="42.55537326447665691375732421875" lon="20.0562858022749423980712890625">
        <ele>2055.199951171875</ele>
        <time>2026-06-19T10:53:59.000Z</time>
        <extensions>
          <ns3:TrackPointExtension>
            <ns3:atemp>18.0</ns3:atemp>
          </ns3:TrackPointExtension>
        </extensions>
      </trkpt>
      <trkpt lat="42.5553636252880096435546875" lon="20.056263171136379241943359375">
        <ele>2055.39990234375</ele>
        <time>2026-06-19T10:54:00.000Z</time>
        <extensions>
          <ns3:TrackPointExtension>
            <ns3:atemp>18.0</ns3:atemp>
          </ns3:TrackPointExtension>
        </extensions>
      </trkpt>
      <trkpt lat="42.55535599775612354278564453125" lon="20.056237690150737762451171875">
        <ele>2055.60009765625</ele>
        <time>2026-06-19T10:54:01.000Z</time>
        <extensions>
          <ns3:TrackPointExtension>
            <ns3:atemp>18.0</ns3:atemp>
          </ns3:TrackPointExtension>
        </extensions>
      </trkpt>
      <trkpt lat="42.55535331554710865020751953125" lon="20.0562157295644283294677734375">
        <ele>2056</ele>
        <time>2026-06-19T10:54:02.000Z</time>
        <extensions>
          <ns3:TrackPointExtension>
            <ns3:atemp>18.0</ns3:atemp>
          </ns3:TrackPointExtension>
        </extensions>
      </trkpt>
      <trkpt lat="42.555352561175823211669921875" lon="20.05619217641651630401611328125">
        <ele>2056.199951171875</ele>
        <time>2026-06-19T10:54:03.000Z</time>
        <extensions>
          <ns3:TrackPointExtension>
            <ns3:atemp>18.0</ns3:atemp>
          </ns3:TrackPointExtension>
        </extensions>
      </trkpt>
      <trkpt lat="42.55535080097615718841552734375" lon="20.05617021583020687103271484375">
        <ele>2056.60009765625</ele>
        <time>2026-06-19T10:54:04.000Z</time>
        <extensions>
          <ns3:TrackPointExtension>
            <ns3:atemp>18.0</ns3:atemp>
          </ns3:TrackPointExtension>
        </extensions>
      </trkpt>
      <trkpt lat="42.5553473643958568572998046875" lon="20.056153200566768646240234375">
        <ele>2056.60009765625</ele>
        <time>2026-06-19T10:54:05.000Z</time>
        <extensions>
          <ns3:TrackPointExtension>
            <ns3:atemp>18.0</ns3:atemp>
          </ns3:TrackPointExtension>
        </extensions>
      </trkpt>
      <trkpt lat="42.555345185101032257080078125" lon="20.05613719113171100616455078125">
        <ele>2056.800048828125</ele>
        <time>2026-06-19T10:54:06.000Z</time>
        <extensions>
          <ns3:TrackPointExtension>
            <ns3:atemp>18.0</ns3:atemp>
          </ns3:TrackPointExtension>
        </extensions>
      </trkpt>
      <trkpt lat="42.5553463585674762725830078125" lon="20.05612445063889026641845703125">
        <ele>2057</ele>
        <time>2026-06-19T10:54:07.000Z</time>
        <extensions>
          <ns3:TrackPointExtension>
            <ns3:atemp>18.0</ns3:atemp>
          </ns3:TrackPointExtension>
        </extensions>
      </trkpt>
      <trkpt lat="42.555346526205539703369140625" lon="20.0561081059277057647705078125">
        <ele>2057.199951171875</ele>
        <time>2026-06-19T10:54:08.000Z</time>
        <extensions>
          <ns3:TrackPointExtension>
            <ns3:atemp>18.0</ns3:atemp>
          </ns3:TrackPointExtension>
        </extensions>
      </trkpt>
      <trkpt lat="42.55534845404326915740966796875" lon="20.0560903362929821014404296875">
        <ele>2057.39990234375</ele>
        <time>2026-06-19T10:54:09.000Z</time>
        <extensions>
          <ns3:TrackPointExtension>
            <ns3:atemp>18.0</ns3:atemp>
          </ns3:TrackPointExtension>
        </extensions>
      </trkpt>
      <trkpt lat="42.55535029806196689605712890625" lon="20.0560702197253704071044921875">
        <ele>2057.60009765625</ele>
        <time>2026-06-19T10:54:10.000Z</time>
        <extensions>
          <ns3:TrackPointExtension>
            <ns3:atemp>18.0</ns3:atemp>
          </ns3:TrackPointExtension>
        </extensions>
      </trkpt>
      <trkpt lat="42.555349208414554595947265625" lon="20.0560554675757884979248046875">
        <ele>2057.800048828125</ele>
        <time>2026-06-19T10:54:11.000Z</time>
        <extensions>
          <ns3:TrackPointExtension>
            <ns3:atemp>18.0</ns3:atemp>
          </ns3:TrackPointExtension>
        </extensions>
      </trkpt>
      <trkpt lat="42.55534811876714229583740234375" lon="20.0560314953327178955078125">
        <ele>2057.800048828125</ele>
        <time>2026-06-19T10:54:12.000Z</time>
        <extensions>
          <ns3:TrackPointExtension>
            <ns3:atemp>18.0</ns3:atemp>
          </ns3:TrackPointExtension>
        </extensions>
      </trkpt>
      <trkpt lat="42.555350549519062042236328125" lon="20.05600928328931331634521484375">
        <ele>2058</ele>
        <time>2026-06-19T10:54:13.000Z</time>
        <extensions>
          <ns3:TrackPointExtension>
            <ns3:atemp>18.0</ns3:atemp>
          </ns3:TrackPointExtension>
        </extensions>
      </trkpt>
      <trkpt lat="42.55535096861422061920166015625" lon="20.05598614923655986785888671875">
        <ele>2058.199951171875</ele>
        <time>2026-06-19T10:54:14.000Z</time>
        <extensions>
          <ns3:TrackPointExtension>
            <ns3:atemp>18.0</ns3:atemp>
          </ns3:TrackPointExtension>
        </extensions>
      </trkpt>
      <trkpt lat="42.5553554110229015350341796875" lon="20.055964775383472442626953125">
        <ele>2058.60009765625</ele>
        <time>2026-06-19T10:54:15.000Z</time>
        <extensions>
          <ns3:TrackPointExtension>
            <ns3:atemp>18.0</ns3:atemp>
          </ns3:TrackPointExtension>
        </extensions>
      </trkpt>
      <trkpt lat="42.5553627870976924896240234375" lon="20.0559438206255435943603515625">
        <ele>2058.800048828125</ele>
        <time>2026-06-19T10:54:16.000Z</time>
        <extensions>
          <ns3:TrackPointExtension>
            <ns3:atemp>18.0</ns3:atemp>
          </ns3:TrackPointExtension>
        </extensions>
      </trkpt>
      <trkpt lat="42.55537234246730804443359375" lon="20.05591942928731441497802734375">
        <ele>2058.800048828125</ele>
        <time>2026-06-19T10:54:17.000Z</time>
        <extensions>
          <ns3:TrackPointExtension>
            <ns3:atemp>18.0</ns3:atemp>
          </ns3:TrackPointExtension>
        </extensions>
      </trkpt>
      <trkpt lat="42.55538701079785823822021484375" lon="20.0558958761394023895263671875">
        <ele>2059</ele>
        <time>2026-06-19T10:54:18.000Z</time>
        <extensions>
          <ns3:TrackPointExtension>
            <ns3:atemp>18.0</ns3:atemp>
          </ns3:TrackPointExtension>
        </extensions>
      </trkpt>
      <trkpt lat="42.55540964193642139434814453125" lon="20.05586846731603145599365234375">
        <ele>2059</ele>
        <time>2026-06-19T10:54:19.000Z</time>
        <extensions>
          <ns3:TrackPointExtension>
            <ns3:atemp>18.0</ns3:atemp>
          </ns3:TrackPointExtension>
        </extensions>
      </trkpt>
      <trkpt lat="42.55542875267565250396728515625" lon="20.0558398850262165069580078125">
        <ele>2058.800048828125</ele>
        <time>2026-06-19T10:54:20.000Z</time>
        <extensions>
          <ns3:TrackPointExtension>
            <ns3:atemp>18.0</ns3:atemp>
          </ns3:TrackPointExtension>
        </extensions>
      </trkpt>
      <trkpt lat="42.5554358772933483123779296875" lon="20.0558040104806423187255859375">
        <ele>2058.60009765625</ele>
        <time>2026-06-19T10:54:21.000Z</time>
        <extensions>
          <ns3:TrackPointExtension>
            <ns3:atemp>18.0</ns3:atemp>
          </ns3:TrackPointExtension>
        </extensions>
      </trkpt>
      <trkpt lat="42.5554378889501094818115234375" lon="20.0557671301066875457763671875">
        <ele>2058.39990234375</ele>
        <time>2026-06-19T10:54:22.000Z</time>
        <extensions>
          <ns3:TrackPointExtension>
            <ns3:atemp>18.0</ns3:atemp>
          </ns3:TrackPointExtension>
        </extensions>
      </trkpt>
      <trkpt lat="42.55543529056012630462646484375" lon="20.055732764303684234619140625">
        <ele>2058.199951171875</ele>
        <time>2026-06-19T10:54:23.000Z</time>
        <extensions>
          <ns3:TrackPointExtension>
            <ns3:atemp>18.0</ns3:atemp>
          </ns3:TrackPointExtension>
        </extensions>
      </trkpt>
      <trkpt lat="42.55543428473174571990966796875" lon="20.055713318288326263427734375">
        <ele>2058</ele>
        <time>2026-06-19T10:54:24.000Z</time>
        <extensions>
          <ns3:TrackPointExtension>
            <ns3:atemp>18.0</ns3:atemp>
          </ns3:TrackPointExtension>
        </extensions>
      </trkpt>
      <trkpt lat="42.5554321892559528350830078125" lon="20.0556953810155391693115234375">
        <ele>2057.800048828125</ele>
        <time>2026-06-19T10:54:25.000Z</time>
        <extensions>
          <ns3:TrackPointExtension>
            <ns3:atemp>18.0</ns3:atemp>
          </ns3:TrackPointExtension>
        </extensions>
      </trkpt>
      <trkpt lat="42.555426992475986480712890625" lon="20.055669732391834259033203125">
        <ele>2057.800048828125</ele>
        <time>2026-06-19T10:54:26.000Z</time>
        <extensions>
          <ns3:TrackPointExtension>
            <ns3:atemp>18.0</ns3:atemp>
          </ns3:TrackPointExtension>
        </extensions>
      </trkpt>
      <trkpt lat="42.55542355589568614959716796875" lon="20.05564399994909763336181640625">
        <ele>2057.800048828125</ele>
        <time>2026-06-19T10:54:27.000Z</time>
        <extensions>
          <ns3:TrackPointExtension>
            <ns3:atemp>18.0</ns3:atemp>
          </ns3:TrackPointExtension>
        </extensions>
      </trkpt>
      <trkpt lat="42.55542405880987644195556640625" lon="20.05562019534409046173095703125">
        <ele>2058</ele>
        <time>2026-06-19T10:54:28.000Z</time>
        <extensions>
          <ns3:TrackPointExtension>
            <ns3:atemp>18.0</ns3:atemp>
          </ns3:TrackPointExtension>
        </extensions>
      </trkpt>
      <trkpt lat="42.555417604744434356689453125" lon="20.05559588782489299774169921875">
        <ele>2058.199951171875</ele>
        <time>2026-06-19T10:54:29.000Z</time>
        <extensions>
          <ns3:TrackPointExtension>
            <ns3:atemp>18.0</ns3:atemp>
          </ns3:TrackPointExtension>
        </extensions>
      </trkpt>
      <trkpt lat="42.555414922535419464111328125" lon="20.055570490658283233642578125">
        <ele>2058.39990234375</ele>
        <time>2026-06-19T10:54:30.000Z</time>
        <extensions>
          <ns3:TrackPointExtension>
            <ns3:atemp>18.0</ns3:atemp>
          </ns3:TrackPointExtension>
        </extensions>
      </trkpt>
      <trkpt lat="42.5554046966135501861572265625" lon="20.05554878152906894683837890625">
        <ele>2058.800048828125</ele>
        <time>2026-06-19T10:54:31.000Z</time>
        <extensions>
          <ns3:TrackPointExtension>
            <ns3:atemp>18.0</ns3:atemp>
          </ns3:TrackPointExtension>
        </extensions>
      </trkpt>
      <trkpt lat="42.55539455451071262359619140625" lon="20.0555274076759815216064453125">
        <ele>2059.199951171875</ele>
        <time>2026-06-19T10:54:32.000Z</time>
        <extensions>
          <ns3:TrackPointExtension>
            <ns3:atemp>18.0</ns3:atemp>
          </ns3:TrackPointExtension>
        </extensions>
      </trkpt>
      <trkpt lat="42.55538818426430225372314453125" lon="20.05549564026296138763427734375">
        <ele>2059.800048828125</ele>
        <time>2026-06-19T10:54:33.000Z</time>
        <extensions>
          <ns3:TrackPointExtension>
            <ns3:atemp>18.0</ns3:atemp>
          </ns3:TrackPointExtension>
        </extensions>
      </trkpt>
      <trkpt lat="42.5553839094936847686767578125" lon="20.05546697415411472320556640625">
        <ele>2060.199951171875</ele>
        <time>2026-06-19T10:54:34.000Z</time>
        <extensions>
          <ns3:TrackPointExtension>
            <ns3:atemp>18.0</ns3:atemp>
          </ns3:TrackPointExtension>
        </extensions>
      </trkpt>
      <trkpt lat="42.55537980236113071441650390625" lon="20.05543679930269718170166015625">
        <ele>2060.60009765625</ele>
        <time>2026-06-19T10:54:35.000Z</time>
        <extensions>
          <ns3:TrackPointExtension>
            <ns3:atemp>18.0</ns3:atemp>
          </ns3:TrackPointExtension>
        </extensions>
      </trkpt>
      <trkpt lat="42.5553778745234012603759765625" lon="20.0553979910910129547119140625">
        <ele>2061</ele>
        <time>2026-06-19T10:54:36.000Z</time>
        <extensions>
          <ns3:TrackPointExtension>
            <ns3:atemp>18.0</ns3:atemp>
          </ns3:TrackPointExtension>
        </extensions>
      </trkpt>
      <trkpt lat="42.5553772039711475372314453125" lon="20.055358596146106719970703125">
        <ele>2061.199951171875</ele>
        <time>2026-06-19T10:54:37.000Z</time>
        <extensions>
          <ns3:TrackPointExtension>
            <ns3:atemp>18.0</ns3:atemp>
          </ns3:TrackPointExtension>
        </extensions>
      </trkpt>
      <trkpt lat="42.55537661723792552947998046875" lon="20.05531040020287036895751953125">
        <ele>2061.39990234375</ele>
        <time>2026-06-19T10:54:38.000Z</time>
        <extensions>
          <ns3:TrackPointExtension>
            <ns3:atemp>18.0</ns3:atemp>
          </ns3:TrackPointExtension>
        </extensions>
      </trkpt>
      <trkpt lat="42.55537074990570545196533203125" lon="20.05526413209736347198486328125">
        <ele>2061.60009765625</ele>
        <time>2026-06-19T10:54:39.000Z</time>
        <extensions>
          <ns3:TrackPointExtension>
            <ns3:atemp>18.0</ns3:atemp>
          </ns3:TrackPointExtension>
        </extensions>
      </trkpt>
      <trkpt lat="42.5553597696125507354736328125" lon="20.05522725172340869903564453125">
        <ele>2061.800048828125</ele>
        <time>2026-06-19T10:54:40.000Z</time>
        <extensions>
          <ns3:TrackPointExtension>
            <ns3:atemp>18.0</ns3:atemp>
          </ns3:TrackPointExtension>
        </extensions>
      </trkpt>
      <trkpt lat="42.55534493364393711090087890625" lon="20.05519540049135684967041015625">
        <ele>2061.800048828125</ele>
        <time>2026-06-19T10:54:41.000Z</time>
        <extensions>
          <ns3:TrackPointExtension>
            <ns3:atemp>18.0</ns3:atemp>
          </ns3:TrackPointExtension>
        </extensions>
      </trkpt>
      <trkpt lat="42.55533277988433837890625" lon="20.05516405217349529266357421875">
        <ele>2062</ele>
        <time>2026-06-19T10:54:42.000Z</time>
        <extensions>
          <ns3:TrackPointExtension>
            <ns3:atemp>18.0</ns3:atemp>
          </ns3:TrackPointExtension>
        </extensions>
      </trkpt>
      <trkpt lat="42.555319033563137054443359375" lon="20.05513153038918972015380859375">
        <ele>2062.199951171875</ele>
        <time>2026-06-19T10:54:43.000Z</time>
        <extensions>
          <ns3:TrackPointExtension>
            <ns3:atemp>18.0</ns3:atemp>
          </ns3:TrackPointExtension>
        </extensions>
      </trkpt>
      <trkpt lat="42.55531174130737781524658203125" lon="20.05510143935680389404296875">
        <ele>2062.39990234375</ele>
        <time>2026-06-19T10:54:44.000Z</time>
        <extensions>
          <ns3:TrackPointExtension>
            <ns3:atemp>18.0</ns3:atemp>
          </ns3:TrackPointExtension>
        </extensions>
      </trkpt>
      <trkpt lat="42.55531140603125095367431640625" lon="20.0550764612853527069091796875">
        <ele>2062.60009765625</ele>
        <time>2026-06-19T10:54:45.000Z</time>
        <extensions>
          <ns3:TrackPointExtension>
            <ns3:atemp>18.0</ns3:atemp>
          </ns3:TrackPointExtension>
        </extensions>
      </trkpt>
      <trkpt lat="42.55531056784093379974365234375" lon="20.0550550036132335662841796875">
        <ele>2062.800048828125</ele>
        <time>2026-06-19T10:54:46.000Z</time>
        <extensions>
          <ns3:TrackPointExtension>
            <ns3:atemp>18.0</ns3:atemp>
          </ns3:TrackPointExtension>
        </extensions>
      </trkpt>
      <trkpt lat="42.55531333386898040771484375" lon="20.055035389959812164306640625">
        <ele>2063</ele>
        <time>2026-06-19T10:54:47.000Z</time>
        <extensions>
          <ns3:TrackPointExtension>
            <ns3:atemp>18.0</ns3:atemp>
          </ns3:TrackPointExtension>
        </extensions>
      </trkpt>
      <trkpt lat="42.55532205104827880859375" lon="20.05501694977283477783203125">
        <ele>2063.199951171875</ele>
        <time>2026-06-19T10:54:48.000Z</time>
        <extensions>
          <ns3:TrackPointExtension>
            <ns3:atemp>18.0</ns3:atemp>
          </ns3:TrackPointExtension>
        </extensions>
      </trkpt>
      <trkpt lat="42.55533789284527301788330078125" lon="20.0550015270709991455078125">
        <ele>2063.39990234375</ele>
        <time>2026-06-19T10:54:49.000Z</time>
        <extensions>
          <ns3:TrackPointExtension>
            <ns3:atemp>18.0</ns3:atemp>
          </ns3:TrackPointExtension>
        </extensions>
      </trkpt>
      <trkpt lat="42.55535298027098178863525390625" lon="20.0549933128058910369873046875">
        <ele>2063.800048828125</ele>
        <time>2026-06-19T10:54:50.000Z</time>
        <extensions>
          <ns3:TrackPointExtension>
            <ns3:atemp>18.0</ns3:atemp>
          </ns3:TrackPointExtension>
        </extensions>
      </trkpt>
      <trkpt lat="42.5553684867918491363525390625" lon="20.05498484708368778228759765625">
        <ele>2064.199951171875</ele>
        <time>2026-06-19T10:54:51.000Z</time>
        <extensions>
          <ns3:TrackPointExtension>
            <ns3:atemp>18.0</ns3:atemp>
          </ns3:TrackPointExtension>
        </extensions>
      </trkpt>
      <trkpt lat="42.555381394922733306884765625" lon="20.05498216487467288970947265625">
        <ele>2064.39990234375</ele>
        <time>2026-06-19T10:54:52.000Z</time>
        <extensions>
          <ns3:TrackPointExtension>
            <ns3:atemp>18.0</ns3:atemp>
          </ns3:TrackPointExtension>
        </extensions>
      </trkpt>
      <trkpt lat="42.555394470691680908203125" lon="20.05498065613210201263427734375">
        <ele>2064.800048828125</ele>
        <time>2026-06-19T10:54:53.000Z</time>
        <extensions>
          <ns3:TrackPointExtension>
            <ns3:atemp>18.0</ns3:atemp>
          </ns3:TrackPointExtension>
        </extensions>
      </trkpt>
      <trkpt lat="42.5554110668599605560302734375" lon="20.0549852661788463592529296875">
        <ele>2065.199951171875</ele>
        <time>2026-06-19T10:54:54.000Z</time>
        <extensions>
          <ns3:TrackPointExtension>
            <ns3:atemp>18.0</ns3:atemp>
          </ns3:TrackPointExtension>
        </extensions>
      </trkpt>
      <trkpt lat="42.5554251484572887420654296875" lon="20.0549892894923686981201171875">
        <ele>2065.39990234375</ele>
        <time>2026-06-19T10:54:55.000Z</time>
        <extensions>
          <ns3:TrackPointExtension>
            <ns3:atemp>18.0</ns3:atemp>
          </ns3:TrackPointExtension>
        </extensions>
      </trkpt>
      <trkpt lat="42.5554429180920124053955078125" lon="20.05498266778886318206787109375">
        <ele>2065.800048828125</ele>
        <time>2026-06-19T10:54:56.000Z</time>
        <extensions>
          <ns3:TrackPointExtension>
            <ns3:atemp>18.0</ns3:atemp>
          </ns3:TrackPointExtension>
        </extensions>
      </trkpt>
      <trkpt lat="42.55545591004192829132080078125" lon="20.05497763864696025848388671875">
        <ele>2066.199951171875</ele>
        <time>2026-06-19T10:54:57.000Z</time>
        <extensions>
          <ns3:TrackPointExtension>
            <ns3:atemp>18.0</ns3:atemp>
          </ns3:TrackPointExtension>
        </extensions>
      </trkpt>
      <trkpt lat="42.5554710812866687774658203125" lon="20.05497193895280361175537109375">
        <ele>2066.800048828125</ele>
        <time>2026-06-19T10:54:58.000Z</time>
        <extensions>
          <ns3:TrackPointExtension>
            <ns3:atemp>18.0</ns3:atemp>
          </ns3:TrackPointExtension>
        </extensions>
      </trkpt>
      <trkpt lat="42.55548474378883838653564453125" lon="20.0549721904098987579345703125">
        <ele>2067.199951171875</ele>
        <time>2026-06-19T10:54:59.000Z</time>
        <extensions>
          <ns3:TrackPointExtension>
            <ns3:atemp>18.0</ns3:atemp>
          </ns3:TrackPointExtension>
        </extensions>
      </trkpt>
      <trkpt lat="42.55550184287130832672119140625" lon="20.0549731962382793426513671875">
        <ele>2067.800048828125</ele>
        <time>2026-06-19T10:55:00.000Z</time>
        <extensions>
          <ns3:TrackPointExtension>
            <ns3:atemp>18.0</ns3:atemp>
          </ns3:TrackPointExtension>
        </extensions>
      </trkpt>
      <trkpt lat="42.55552061833441257476806640625" lon="20.0549738667905330657958984375">
        <ele>2068.39990234375</ele>
        <time>2026-06-19T10:55:01.000Z</time>
        <extensions>
          <ns3:TrackPointExtension>
            <ns3:atemp>18.0</ns3:atemp>
          </ns3:TrackPointExtension>
        </extensions>
      </trkpt>
      <trkpt lat="42.55553905852138996124267578125" lon="20.0549758784472942352294921875">
        <ele>2069</ele>
        <time>2026-06-19T10:55:02.000Z</time>
        <extensions>
          <ns3:TrackPointExtension>
            <ns3:atemp>18.0</ns3:atemp>
          </ns3:TrackPointExtension>
        </extensions>
      </trkpt>
      <trkpt lat="42.55555548705160617828369140625" lon="20.05497596226632595062255859375">
        <ele>2069.800048828125</ele>
        <time>2026-06-19T10:55:03.000Z</time>
        <extensions>
          <ns3:TrackPointExtension>
            <ns3:atemp>18.0</ns3:atemp>
          </ns3:TrackPointExtension>
        </extensions>
      </trkpt>
      <trkpt lat="42.55557510070502758026123046875" lon="20.05497797392308712005615234375">
        <ele>2070.39990234375</ele>
        <time>2026-06-19T10:55:04.000Z</time>
        <extensions>
          <ns3:TrackPointExtension>
            <ns3:atemp>18.0</ns3:atemp>
          </ns3:TrackPointExtension>
        </extensions>
      </trkpt>
      <trkpt lat="42.55559630692005157470703125" lon="20.05497847683727741241455078125">
        <ele>2071</ele>
        <time>2026-06-19T10:55:05.000Z</time>
        <extensions>
          <ns3:TrackPointExtension>
            <ns3:atemp>18.0</ns3:atemp>
          </ns3:TrackPointExtension>
        </extensions>
      </trkpt>
      <trkpt lat="42.55561432801187038421630859375" lon="20.05497914738953113555908203125">
        <ele>2071.60009765625</ele>
        <time>2026-06-19T10:55:06.000Z</time>
        <extensions>
          <ns3:TrackPointExtension>
            <ns3:atemp>18.0</ns3:atemp>
          </ns3:TrackPointExtension>
        </extensions>
      </trkpt>
      <trkpt lat="42.55563293583691120147705078125" lon="20.0549805723130702972412109375">
        <ele>2072.39990234375</ele>
        <time>2026-06-19T10:55:07.000Z</time>
        <extensions>
          <ns3:TrackPointExtension>
            <ns3:atemp>18.0</ns3:atemp>
          </ns3:TrackPointExtension>
        </extensions>
      </trkpt>
      <trkpt lat="42.555654309689998626708984375" lon="20.05498484708368778228759765625">
        <ele>2073</ele>
        <time>2026-06-19T10:55:08.000Z</time>
        <extensions>
          <ns3:TrackPointExtension>
            <ns3:atemp>18.0</ns3:atemp>
          </ns3:TrackPointExtension>
        </extensions>
      </trkpt>
      <trkpt lat="42.55567803047597408294677734375" lon="20.054985098540782928466796875">
        <ele>2073.800048828125</ele>
        <time>2026-06-19T10:55:09.000Z</time>
        <extensions>
          <ns3:TrackPointExtension>
            <ns3:atemp>18.0</ns3:atemp>
          </ns3:TrackPointExtension>
        </extensions>
      </trkpt>
      <trkpt lat="42.55569831468164920806884765625" lon="20.05498744547367095947265625">
        <ele>2074.39990234375</ele>
        <time>2026-06-19T10:55:10.000Z</time>
        <extensions>
          <ns3:TrackPointExtension>
            <ns3:atemp>18.0</ns3:atemp>
          </ns3:TrackPointExtension>
        </extensions>
      </trkpt>
      <trkpt lat="42.55571809597313404083251953125" lon="20.05498903803527355194091796875">
        <ele>2075</ele>
        <time>2026-06-19T10:55:11.000Z</time>
        <extensions>
          <ns3:TrackPointExtension>
            <ns3:atemp>18.0</ns3:atemp>
          </ns3:TrackPointExtension>
        </extensions>
      </trkpt>
      <trkpt lat="42.5557352788746356964111328125" lon="20.05499012768268585205078125">
        <ele>2075.800048828125</ele>
        <time>2026-06-19T10:55:12.000Z</time>
        <extensions>
          <ns3:TrackPointExtension>
            <ns3:atemp>18.0</ns3:atemp>
          </ns3:TrackPointExtension>
        </extensions>
      </trkpt>
      <trkpt lat="42.5557567365467548370361328125" lon="20.05499104969203472137451171875">
        <ele>2076.39990234375</ele>
        <time>2026-06-19T10:55:13.000Z</time>
        <extensions>
          <ns3:TrackPointExtension>
            <ns3:atemp>18.0</ns3:atemp>
          </ns3:TrackPointExtension>
        </extensions>
      </trkpt>
      <trkpt lat="42.5557766854763031005859375" lon="20.05499389953911304473876953125">
        <ele>2076.800048828125</ele>
        <time>2026-06-19T10:55:14.000Z</time>
        <extensions>
          <ns3:TrackPointExtension>
            <ns3:atemp>18.0</ns3:atemp>
          </ns3:TrackPointExtension>
        </extensions>
      </trkpt>
      <trkpt lat="42.55579437129199504852294921875" lon="20.054996497929096221923828125">
        <ele>2077.60009765625</ele>
        <time>2026-06-19T10:55:15.000Z</time>
        <extensions>
          <ns3:TrackPointExtension>
            <ns3:atemp>18.0</ns3:atemp>
          </ns3:TrackPointExtension>
        </extensions>
      </trkpt>
      <trkpt lat="42.55580996163189411163330078125" lon="20.05499842576682567596435546875">
        <ele>2078</ele>
        <time>2026-06-19T10:55:16.000Z</time>
        <extensions>
          <ns3:TrackPointExtension>
            <ns3:atemp>18.0</ns3:atemp>
          </ns3:TrackPointExtension>
        </extensions>
      </trkpt>
      <trkpt lat="42.555825971066951751708984375" lon="20.055001191794872283935546875">
        <ele>2078.39990234375</ele>
        <time>2026-06-19T10:55:17.000Z</time>
        <extensions>
          <ns3:TrackPointExtension>
            <ns3:atemp>18.0</ns3:atemp>
          </ns3:TrackPointExtension>
        </extensions>
      </trkpt>
      <trkpt lat="42.5558442436158657073974609375" lon="20.0550047121942043304443359375">
        <ele>2078.800048828125</ele>
        <time>2026-06-19T10:55:18.000Z</time>
        <extensions>
          <ns3:TrackPointExtension>
            <ns3:atemp>18.0</ns3:atemp>
          </ns3:TrackPointExtension>
        </extensions>
      </trkpt>
      <trkpt lat="42.5558646954596042633056640625" lon="20.05500831641256809234619140625">
        <ele>2079.199951171875</ele>
        <time>2026-06-19T10:55:19.000Z</time>
        <extensions>
          <ns3:TrackPointExtension>
            <ns3:atemp>18.0</ns3:atemp>
          </ns3:TrackPointExtension>
        </extensions>
      </trkpt>
      <trkpt lat="42.55588137544691562652587890625" lon="20.055010579526424407958984375">
        <ele>2079.39990234375</ele>
        <time>2026-06-19T10:55:20.000Z</time>
        <extensions>
          <ns3:TrackPointExtension>
            <ns3:atemp>18.0</ns3:atemp>
          </ns3:TrackPointExtension>
        </extensions>
      </trkpt>
      <trkpt lat="42.5558995641767978668212890625" lon="20.05501552484929561614990234375">
        <ele>2079.60009765625</ele>
        <time>2026-06-19T10:55:21.000Z</time>
        <extensions>
          <ns3:TrackPointExtension>
            <ns3:atemp>18.0</ns3:atemp>
          </ns3:TrackPointExtension>
        </extensions>
      </trkpt>
      <trkpt lat="42.5559186749160289764404296875" lon="20.05501938052475452423095703125">
        <ele>2079.800048828125</ele>
        <time>2026-06-19T10:55:22.000Z</time>
        <extensions>
          <ns3:TrackPointExtension>
            <ns3:atemp>18.0</ns3:atemp>
          </ns3:TrackPointExtension>
        </extensions>
      </trkpt>
      <trkpt lat="42.5559349358081817626953125" lon="20.0550251640379428863525390625">
        <ele>2080.199951171875</ele>
        <time>2026-06-19T10:55:23.000Z</time>
        <extensions>
          <ns3:TrackPointExtension>
            <ns3:atemp>18.0</ns3:atemp>
          </ns3:TrackPointExtension>
        </extensions>
      </trkpt>
      <trkpt lat="42.5559535436332225799560546875" lon="20.05502742715179920196533203125">
        <ele>2080.39990234375</ele>
        <time>2026-06-19T10:55:24.000Z</time>
        <extensions>
          <ns3:TrackPointExtension>
            <ns3:atemp>18.0</ns3:atemp>
          </ns3:TrackPointExtension>
        </extensions>
      </trkpt>
      <trkpt lat="42.55597676150500774383544921875" lon="20.05503161810338497161865234375">
        <ele>2080.60009765625</ele>
        <time>2026-06-19T10:55:25.000Z</time>
        <extensions>
          <ns3:TrackPointExtension>
            <ns3:atemp>18.0</ns3:atemp>
          </ns3:TrackPointExtension>
        </extensions>
      </trkpt>
      <trkpt lat="42.5559978000819683074951171875" lon="20.055034719407558441162109375">
        <ele>2081</ele>
        <time>2026-06-19T10:55:26.000Z</time>
        <extensions>
          <ns3:TrackPointExtension>
            <ns3:atemp>18.0</ns3:atemp>
          </ns3:TrackPointExtension>
        </extensions>
      </trkpt>
      <trkpt lat="42.55601741373538970947265625" lon="20.0550382398068904876708984375">
        <ele>2081.199951171875</ele>
        <time>2026-06-19T10:55:27.000Z</time>
        <extensions>
          <ns3:TrackPointExtension>
            <ns3:atemp>18.0</ns3:atemp>
          </ns3:TrackPointExtension>
        </extensions>
      </trkpt>
      <trkpt lat="42.5560343451797962188720703125" lon="20.0550405867397785186767578125">
        <ele>2081.39990234375</ele>
        <time>2026-06-19T10:55:28.000Z</time>
        <extensions>
          <ns3:TrackPointExtension>
            <ns3:atemp>18.0</ns3:atemp>
          </ns3:TrackPointExtension>
        </extensions>
      </trkpt>
      <trkpt lat="42.55605253390967845916748046875" lon="20.0550382398068904876708984375">
        <ele>2081.60009765625</ele>
        <time>2026-06-19T10:55:29.000Z</time>
        <extensions>
          <ns3:TrackPointExtension>
            <ns3:atemp>18.0</ns3:atemp>
          </ns3:TrackPointExtension>
        </extensions>
      </trkpt>
      <trkpt lat="42.55607114173471927642822265625" lon="20.05503262393176555633544921875">
        <ele>2082</ele>
        <time>2026-06-19T10:55:30.000Z</time>
        <extensions>
          <ns3:TrackPointExtension>
            <ns3:atemp>18.0</ns3:atemp>
          </ns3:TrackPointExtension>
        </extensions>
      </trkpt>
      <trkpt lat="42.55609243176877498626708984375" lon="20.0550295226275920867919921875">
        <ele>2082.199951171875</ele>
        <time>2026-06-19T10:55:31.000Z</time>
        <extensions>
          <ns3:TrackPointExtension>
            <ns3:atemp>18.0</ns3:atemp>
          </ns3:TrackPointExtension>
        </extensions>
      </trkpt>
      <trkpt lat="42.556113302707672119140625" lon="20.05502633750438690185546875">
        <ele>2082.39990234375</ele>
        <time>2026-06-19T10:55:32.000Z</time>
        <extensions>
          <ns3:TrackPointExtension>
            <ns3:atemp>18.0</ns3:atemp>
          </ns3:TrackPointExtension>
        </extensions>
      </trkpt>
      <trkpt lat="42.55613585002720355987548828125" lon="20.0550204701721668243408203125">
        <ele>2082.800048828125</ele>
        <time>2026-06-19T10:55:33.000Z</time>
        <extensions>
          <ns3:TrackPointExtension>
            <ns3:atemp>18.0</ns3:atemp>
          </ns3:TrackPointExtension>
        </extensions>
      </trkpt>
      <trkpt lat="42.5561543740332126617431640625" lon="20.0550162792205810546875">
        <ele>2083</ele>
        <time>2026-06-19T10:55:34.000Z</time>
        <extensions>
          <ns3:TrackPointExtension>
            <ns3:atemp>18.0</ns3:atemp>
          </ns3:TrackPointExtension>
        </extensions>
      </trkpt>
      <trkpt lat="42.55617423914372920989990234375" lon="20.05500982515513896942138671875">
        <ele>2083.39990234375</ele>
        <time>2026-06-19T10:55:35.000Z</time>
        <extensions>
          <ns3:TrackPointExtension>
            <ns3:atemp>18.0</ns3:atemp>
          </ns3:TrackPointExtension>
        </extensions>
      </trkpt>
      <trkpt lat="42.55619368515908718109130859375" lon="20.05501133389770984649658203125">
        <ele>2083.60009765625</ele>
        <time>2026-06-19T10:55:36.000Z</time>
        <extensions>
          <ns3:TrackPointExtension>
            <ns3:atemp>18.0</ns3:atemp>
          </ns3:TrackPointExtension>
        </extensions>
      </trkpt>
      <trkpt lat="42.55621346645057201385498046875" lon="20.0550161115825176239013671875">
        <ele>2084</ele>
        <time>2026-06-19T10:55:37.000Z</time>
        <extensions>
          <ns3:TrackPointExtension>
            <ns3:atemp>18.0</ns3:atemp>
          </ns3:TrackPointExtension>
        </extensions>
      </trkpt>
      <trkpt lat="42.5562308169901371002197265625" lon="20.055020637810230255126953125">
        <ele>2084.199951171875</ele>
        <time>2026-06-19T10:55:38.000Z</time>
        <extensions>
          <ns3:TrackPointExtension>
            <ns3:atemp>18.0</ns3:atemp>
          </ns3:TrackPointExtension>
        </extensions>
      </trkpt>
      <trkpt lat="42.5562549568712711334228515625" lon="20.05502591840922832489013671875">
        <ele>2084.60009765625</ele>
        <time>2026-06-19T10:55:39.000Z</time>
        <extensions>
          <ns3:TrackPointExtension>
            <ns3:atemp>18.0</ns3:atemp>
          </ns3:TrackPointExtension>
        </extensions>
      </trkpt>
      <trkpt lat="42.5562790967524051666259765625" lon="20.05503178574144840240478515625">
        <ele>2084.800048828125</ele>
        <time>2026-06-19T10:55:40.000Z</time>
        <extensions>
          <ns3:TrackPointExtension>
            <ns3:atemp>18.0</ns3:atemp>
          </ns3:TrackPointExtension>
        </extensions>
      </trkpt>
      <trkpt lat="42.55629795603454113006591796875" lon="20.05503899417817592620849609375">
        <ele>2085.199951171875</ele>
        <time>2026-06-19T10:55:41.000Z</time>
        <extensions>
          <ns3:TrackPointExtension>
            <ns3:atemp>18.0</ns3:atemp>
          </ns3:TrackPointExtension>
        </extensions>
      </trkpt>
      <trkpt lat="42.55631782114505767822265625" lon="20.05505047738552093505859375">
        <ele>2085.39990234375</ele>
        <time>2026-06-19T10:55:42.000Z</time>
        <extensions>
          <ns3:TrackPointExtension>
            <ns3:atemp>18.0</ns3:atemp>
          </ns3:TrackPointExtension>
        </extensions>
      </trkpt>
      <trkpt lat="42.5563345849514007568359375" lon="20.05506380461156368255615234375">
        <ele>2085.60009765625</ele>
        <time>2026-06-19T10:55:43.000Z</time>
        <extensions>
          <ns3:TrackPointExtension>
            <ns3:atemp>18.0</ns3:atemp>
          </ns3:TrackPointExtension>
        </extensions>
      </trkpt>
      <trkpt lat="42.55635545589029788970947265625" lon="20.0550714321434497833251953125">
        <ele>2086</ele>
        <time>2026-06-19T10:55:44.000Z</time>
        <extensions>
          <ns3:TrackPointExtension>
            <ns3:atemp>18.0</ns3:atemp>
          </ns3:TrackPointExtension>
        </extensions>
      </trkpt>
      <trkpt lat="42.55637708120048046112060546875" lon="20.0550814904272556304931640625">
        <ele>2086.199951171875</ele>
        <time>2026-06-19T10:55:45.000Z</time>
        <extensions>
          <ns3:TrackPointExtension>
            <ns3:atemp>18.0</ns3:atemp>
          </ns3:TrackPointExtension>
        </extensions>
      </trkpt>
      <trkpt lat="42.55639786832034587860107421875" lon="20.0550881959497928619384765625">
        <ele>2086.39990234375</ele>
        <time>2026-06-19T10:55:46.000Z</time>
        <extensions>
          <ns3:TrackPointExtension>
            <ns3:atemp>18.0</ns3:atemp>
          </ns3:TrackPointExtension>
        </extensions>
      </trkpt>
      <trkpt lat="42.556419074535369873046875" lon="20.05509347654879093170166015625">
        <ele>2086.800048828125</ele>
        <time>2026-06-19T10:55:47.000Z</time>
        <extensions>
          <ns3:TrackPointExtension>
            <ns3:atemp>18.0</ns3:atemp>
          </ns3:TrackPointExtension>
        </extensions>
      </trkpt>
      <trkpt lat="42.55643826909363269805908203125" lon="20.05509884096682071685791015625">
        <ele>2087</ele>
        <time>2026-06-19T10:55:48.000Z</time>
        <extensions>
          <ns3:TrackPointExtension>
            <ns3:atemp>18.0</ns3:atemp>
          </ns3:TrackPointExtension>
        </extensions>
      </trkpt>
      <trkpt lat="42.5564591400325298309326171875" lon="20.05510688759386539459228515625">
        <ele>2087.39990234375</ele>
        <time>2026-06-19T10:55:49.000Z</time>
        <extensions>
          <ns3:TrackPointExtension>
            <ns3:atemp>18.0</ns3:atemp>
          </ns3:TrackPointExtension>
        </extensions>
      </trkpt>
      <trkpt lat="42.5564772449433803558349609375" lon="20.0551123358309268951416015625">
        <ele>2087.60009765625</ele>
        <time>2026-06-19T10:55:50.000Z</time>
        <extensions>
          <ns3:TrackPointExtension>
            <ns3:atemp>18.0</ns3:atemp>
          </ns3:TrackPointExtension>
        </extensions>
      </trkpt>
      <trkpt lat="42.55649476312100887298583984375" lon="20.0551126711070537567138671875">
        <ele>2088</ele>
        <time>2026-06-19T10:55:51.000Z</time>
        <extensions>
          <ns3:TrackPointExtension>
            <ns3:atemp>18.0</ns3:atemp>
          </ns3:TrackPointExtension>
        </extensions>
      </trkpt>
      <trkpt lat="42.55651496350765228271484375" lon="20.055110156536102294921875">
        <ele>2088.199951171875</ele>
        <time>2026-06-19T10:55:52.000Z</time>
        <extensions>
          <ns3:TrackPointExtension>
            <ns3:atemp>18.0</ns3:atemp>
          </ns3:TrackPointExtension>
        </extensions>
      </trkpt>
      <trkpt lat="42.5565335713326930999755859375" lon="20.0551083125174045562744140625">
        <ele>2088.60009765625</ele>
        <time>2026-06-19T10:55:53.000Z</time>
        <extensions>
          <ns3:TrackPointExtension>
            <ns3:atemp>18.0</ns3:atemp>
          </ns3:TrackPointExtension>
        </extensions>
      </trkpt>
      <trkpt lat="42.55654983222484588623046875" lon="20.05510412156581878662109375">
        <ele>2088.800048828125</ele>
        <time>2026-06-19T10:55:54.000Z</time>
        <extensions>
          <ns3:TrackPointExtension>
            <ns3:atemp>18.0</ns3:atemp>
          </ns3:TrackPointExtension>
        </extensions>
      </trkpt>
      <trkpt lat="42.55656902678310871124267578125" lon="20.0550980865955352783203125">
        <ele>2089.199951171875</ele>
        <time>2026-06-19T10:55:55.000Z</time>
        <extensions>
          <ns3:TrackPointExtension>
            <ns3:atemp>18.0</ns3:atemp>
          </ns3:TrackPointExtension>
        </extensions>
      </trkpt>
      <trkpt lat="42.556585036218166351318359375" lon="20.055091045796871185302734375">
        <ele>2089.60009765625</ele>
        <time>2026-06-19T10:55:56.000Z</time>
        <extensions>
          <ns3:TrackPointExtension>
            <ns3:atemp>18.0</ns3:atemp>
          </ns3:TrackPointExtension>
        </extensions>
      </trkpt>
      <trkpt lat="42.55660322494804859161376953125" lon="20.055084340274333953857421875">
        <ele>2090.199951171875</ele>
        <time>2026-06-19T10:55:57.000Z</time>
        <extensions>
          <ns3:TrackPointExtension>
            <ns3:atemp>18.0</ns3:atemp>
          </ns3:TrackPointExtension>
        </extensions>
      </trkpt>
      <trkpt lat="42.55661982111632823944091796875" lon="20.0550774671137332916259765625">
        <ele>2090.60009765625</ele>
        <time>2026-06-19T10:55:58.000Z</time>
        <extensions>
          <ns3:TrackPointExtension>
            <ns3:atemp>18.0</ns3:atemp>
          </ns3:TrackPointExtension>
        </extensions>
      </trkpt>
      <trkpt lat="42.5566358305513858795166015625" lon="20.05506883375346660614013671875">
        <ele>2091.199951171875</ele>
        <time>2026-06-19T10:55:59.000Z</time>
        <extensions>
          <ns3:TrackPointExtension>
            <ns3:atemp>18.0</ns3:atemp>
          </ns3:TrackPointExtension>
        </extensions>
      </trkpt>
      <trkpt lat="42.5566470623016357421875" lon="20.0550580210983753204345703125">
        <ele>2091.60009765625</ele>
        <time>2026-06-19T10:56:00.000Z</time>
        <extensions>
          <ns3:TrackPointExtension>
            <ns3:atemp>18.0</ns3:atemp>
          </ns3:TrackPointExtension>
        </extensions>
      </trkpt>
      <trkpt lat="42.5566562823951244354248046875" lon="20.05504905246198177337646484375">
        <ele>2092.199951171875</ele>
        <time>2026-06-19T10:56:01.000Z</time>
        <extensions>
          <ns3:TrackPointExtension>
            <ns3:atemp>18.0</ns3:atemp>
          </ns3:TrackPointExtension>
        </extensions>
      </trkpt>
      <trkpt lat="42.5566671788692474365234375" lon="20.0550385750830173492431640625">
        <ele>2092.800048828125</ele>
        <time>2026-06-19T10:56:02.000Z</time>
        <extensions>
          <ns3:TrackPointExtension>
            <ns3:atemp>18.0</ns3:atemp>
          </ns3:TrackPointExtension>
        </extensions>
      </trkpt>
      <trkpt lat="42.55667363293468952178955078125" lon="20.05502558313310146331787109375">
        <ele>2093.39990234375</ele>
        <time>2026-06-19T10:56:03.000Z</time>
        <extensions>
          <ns3:TrackPointExtension>
            <ns3:atemp>18.0</ns3:atemp>
          </ns3:TrackPointExtension>
        </extensions>
      </trkpt>
      <trkpt lat="42.55667991936206817626953125" lon="20.05501384846866130828857421875">
        <ele>2093.800048828125</ele>
        <time>2026-06-19T10:56:04.000Z</time>
        <extensions>
          <ns3:TrackPointExtension>
            <ns3:atemp>18.0</ns3:atemp>
          </ns3:TrackPointExtension>
        </extensions>
      </trkpt>
      <trkpt lat="42.55669408477842807769775390625" lon="20.05500814877450466156005859375">
        <ele>2094.39990234375</ele>
        <time>2026-06-19T10:56:05.000Z</time>
        <extensions>
          <ns3:TrackPointExtension>
            <ns3:atemp>18.0</ns3:atemp>
          </ns3:TrackPointExtension>
        </extensions>
      </trkpt>
      <trkpt lat="42.5567114353179931640625" lon="20.0550060532987117767333984375">
        <ele>2094.800048828125</ele>
        <time>2026-06-19T10:56:06.000Z</time>
        <extensions>
          <ns3:TrackPointExtension>
            <ns3:atemp>18.0</ns3:atemp>
          </ns3:TrackPointExtension>
        </extensions>
      </trkpt>
      <trkpt lat="42.55673088133335113525390625" lon="20.05499817430973052978515625">
        <ele>2095.199951171875</ele>
        <time>2026-06-19T10:56:07.000Z</time>
        <extensions>
          <ns3:TrackPointExtension>
            <ns3:atemp>18.0</ns3:atemp>
          </ns3:TrackPointExtension>
        </extensions>
      </trkpt>
      <trkpt lat="42.55675007589161396026611328125" lon="20.0549953244626522064208984375">
        <ele>2095.60009765625</ele>
        <time>2026-06-19T10:56:08.000Z</time>
        <extensions>
          <ns3:TrackPointExtension>
            <ns3:atemp>18.0</ns3:atemp>
          </ns3:TrackPointExtension>
        </extensions>
      </trkpt>
      <trkpt lat="42.5567659176886081695556640625" lon="20.05499440245330333709716796875">
        <ele>2096</ele>
        <time>2026-06-19T10:56:09.000Z</time>
        <extensions>
          <ns3:TrackPointExtension>
            <ns3:atemp>18.0</ns3:atemp>
          </ns3:TrackPointExtension>
        </extensions>
      </trkpt>
      <trkpt lat="42.55678159184753894805908203125" lon="20.0549996830523014068603515625">
        <ele>2096.39990234375</ele>
        <time>2026-06-19T10:56:10.000Z</time>
        <extensions>
          <ns3:TrackPointExtension>
            <ns3:atemp>18.0</ns3:atemp>
          </ns3:TrackPointExtension>
        </extensions>
      </trkpt>
      <trkpt lat="42.55679768510162830352783203125" lon="20.0550020299851894378662109375">
        <ele>2096.800048828125</ele>
        <time>2026-06-19T10:56:11.000Z</time>
        <extensions>
          <ns3:TrackPointExtension>
            <ns3:atemp>18.0</ns3:atemp>
          </ns3:TrackPointExtension>
        </extensions>
      </trkpt>
      <trkpt lat="42.556819058954715728759765625" lon="20.05500613711774349212646484375">
        <ele>2097.39990234375</ele>
        <time>2026-06-19T10:56:12.000Z</time>
        <extensions>
          <ns3:TrackPointExtension>
            <ns3:atemp>18.0</ns3:atemp>
          </ns3:TrackPointExtension>
        </extensions>
      </trkpt>
      <trkpt lat="42.55683842115104198455810546875" lon="20.055005885660648345947265625">
        <ele>2097.800048828125</ele>
        <time>2026-06-19T10:56:13.000Z</time>
        <extensions>
          <ns3:TrackPointExtension>
            <ns3:atemp>18.0</ns3:atemp>
          </ns3:TrackPointExtension>
        </extensions>
      </trkpt>
      <trkpt lat="42.556855939328670501708984375" lon="20.05500228144228458404541015625">
        <ele>2098.199951171875</ele>
        <time>2026-06-19T10:56:14.000Z</time>
        <extensions>
          <ns3:TrackPointExtension>
            <ns3:atemp>18.0</ns3:atemp>
          </ns3:TrackPointExtension>
        </extensions>
      </trkpt>
      <trkpt lat="42.5568768940865993499755859375" lon="20.0549990125000476837158203125">
        <ele>2098.800048828125</ele>
        <time>2026-06-19T10:56:15.000Z</time>
        <extensions>
          <ns3:TrackPointExtension>
            <ns3:atemp>18.0</ns3:atemp>
          </ns3:TrackPointExtension>
        </extensions>
      </trkpt>
      <trkpt lat="42.556897513568401336669921875" lon="20.0549943186342716217041015625">
        <ele>2099.199951171875</ele>
        <time>2026-06-19T10:56:16.000Z</time>
        <extensions>
          <ns3:TrackPointExtension>
            <ns3:atemp>18.0</ns3:atemp>
          </ns3:TrackPointExtension>
        </extensions>
      </trkpt>
      <trkpt lat="42.556915618479251861572265625" lon="20.05498635582625865936279296875">
        <ele>2099.60009765625</ele>
        <time>2026-06-19T10:56:17.000Z</time>
        <extensions>
          <ns3:TrackPointExtension>
            <ns3:atemp>18.0</ns3:atemp>
          </ns3:TrackPointExtension>
        </extensions>
      </trkpt>
      <trkpt lat="42.5569302029907703399658203125" lon="20.0549758784472942352294921875">
        <ele>2100</ele>
        <time>2026-06-19T10:56:18.000Z</time>
        <extensions>
          <ns3:TrackPointExtension>
            <ns3:atemp>18.0</ns3:atemp>
          </ns3:TrackPointExtension>
        </extensions>
      </trkpt>
      <trkpt lat="42.55694755353033542633056640625" lon="20.05496255122125148773193359375">
        <ele>2100.39990234375</ele>
        <time>2026-06-19T10:56:19.000Z</time>
        <extensions>
          <ns3:TrackPointExtension>
            <ns3:atemp>18.0</ns3:atemp>
          </ns3:TrackPointExtension>
        </extensions>
      </trkpt>
      <trkpt lat="42.55696431733667850494384765625" lon="20.054954923689365386962890625">
        <ele>2100.800048828125</ele>
        <time>2026-06-19T10:56:20.000Z</time>
        <extensions>
          <ns3:TrackPointExtension>
            <ns3:atemp>18.0</ns3:atemp>
          </ns3:TrackPointExtension>
        </extensions>
      </trkpt>
      <trkpt lat="42.556985355913639068603515625" lon="20.0549443624913692474365234375">
        <ele>2101.39990234375</ele>
        <time>2026-06-19T10:56:21.000Z</time>
        <extensions>
          <ns3:TrackPointExtension>
            <ns3:atemp>18.0</ns3:atemp>
          </ns3:TrackPointExtension>
        </extensions>
      </trkpt>
      <trkpt lat="42.55700438283383846282958984375" lon="20.05493656732141971588134765625">
        <ele>2101.800048828125</ele>
        <time>2026-06-19T10:56:22.000Z</time>
        <extensions>
          <ns3:TrackPointExtension>
            <ns3:atemp>18.0</ns3:atemp>
          </ns3:TrackPointExtension>
        </extensions>
      </trkpt>
      <trkpt lat="42.55701980553567409515380859375" lon="20.05493086762726306915283203125">
        <ele>2102.199951171875</ele>
        <time>2026-06-19T10:56:23.000Z</time>
        <extensions>
          <ns3:TrackPointExtension>
            <ns3:atemp>18.0</ns3:atemp>
          </ns3:TrackPointExtension>
        </extensions>
      </trkpt>
      <trkpt lat="42.5570348091423511505126953125" lon="20.05492231808602809906005859375">
        <ele>2102.60009765625</ele>
        <time>2026-06-19T10:56:24.000Z</time>
        <extensions>
          <ns3:TrackPointExtension>
            <ns3:atemp>18.0</ns3:atemp>
          </ns3:TrackPointExtension>
        </extensions>
      </trkpt>
      <trkpt lat="42.55704729817807674407958984375" lon="20.05491242744028568267822265625">
        <ele>2102.800048828125</ele>
        <time>2026-06-19T10:56:25.000Z</time>
        <extensions>
          <ns3:TrackPointExtension>
            <ns3:atemp>18.0</ns3:atemp>
          </ns3:TrackPointExtension>
        </extensions>
      </trkpt>
      <trkpt lat="42.5570612959563732147216796875" lon="20.05489901639521121978759765625">
        <ele>2103.199951171875</ele>
        <time>2026-06-19T10:56:26.000Z</time>
        <extensions>
          <ns3:TrackPointExtension>
            <ns3:atemp>18.0</ns3:atemp>
          </ns3:TrackPointExtension>
        </extensions>
      </trkpt>
      <trkpt lat="42.5570695102214813232421875" lon="20.05488862283527851104736328125">
        <ele>2103.39990234375</ele>
        <time>2026-06-19T10:56:27.000Z</time>
        <extensions>
          <ns3:TrackPointExtension>
            <ns3:atemp>18.0</ns3:atemp>
          </ns3:TrackPointExtension>
        </extensions>
      </trkpt>
      <trkpt lat="42.557077892124652862548828125" lon="20.05487839691340923309326171875">
        <ele>2103.800048828125</ele>
        <time>2026-06-19T10:56:28.000Z</time>
        <extensions>
          <ns3:TrackPointExtension>
            <ns3:atemp>18.0</ns3:atemp>
          </ns3:TrackPointExtension>
        </extensions>
      </trkpt>
      <trkpt lat="42.55708384327590465545654296875" lon="20.054869763553142547607421875">
        <ele>2104</ele>
        <time>2026-06-19T10:56:29.000Z</time>
        <extensions>
          <ns3:TrackPointExtension>
            <ns3:atemp>18.0</ns3:atemp>
          </ns3:TrackPointExtension>
        </extensions>
      </trkpt>
      <trkpt lat="42.55709230899810791015625" lon="20.05486196838319301605224609375">
        <ele>2104.199951171875</ele>
        <time>2026-06-19T10:56:30.000Z</time>
        <extensions>
          <ns3:TrackPointExtension>
            <ns3:atemp>18.0</ns3:atemp>
          </ns3:TrackPointExtension>
        </extensions>
      </trkpt>
      <trkpt lat="42.557106725871562957763671875" lon="20.0548513233661651611328125">
        <ele>2104.39990234375</ele>
        <time>2026-06-19T10:56:31.000Z</time>
        <extensions>
          <ns3:TrackPointExtension>
            <ns3:atemp>18.0</ns3:atemp>
          </ns3:TrackPointExtension>
        </extensions>
      </trkpt>
      <trkpt lat="42.557126842439174652099609375" lon="20.05483749322593212127685546875">
        <ele>2104.60009765625</ele>
        <time>2026-06-19T10:56:32.000Z</time>
        <extensions>
          <ns3:TrackPointExtension>
            <ns3:atemp>18.0</ns3:atemp>
          </ns3:TrackPointExtension>
        </extensions>
      </trkpt>
      <trkpt lat="42.557148635387420654296875" lon="20.05483162589371204376220703125">
        <ele>2104.800048828125</ele>
        <time>2026-06-19T10:56:33.000Z</time>
        <extensions>
          <ns3:TrackPointExtension>
            <ns3:atemp>18.0</ns3:atemp>
          </ns3:TrackPointExtension>
        </extensions>
      </trkpt>
      <trkpt lat="42.55716045387089252471923828125" lon="20.0548149459064006805419921875">
        <ele>2105</ele>
        <time>2026-06-19T10:56:34.000Z</time>
        <extensions>
          <ns3:TrackPointExtension>
            <ns3:atemp>18.0</ns3:atemp>
          </ns3:TrackPointExtension>
        </extensions>
      </trkpt>
      <trkpt lat="42.55715626291930675506591796875" lon="20.05479424260556697845458984375">
        <ele>2105</ele>
        <time>2026-06-19T10:56:35.000Z</time>
        <extensions>
          <ns3:TrackPointExtension>
            <ns3:atemp>18.0</ns3:atemp>
          </ns3:TrackPointExtension>
        </extensions>
      </trkpt>
      <trkpt lat="42.55715207196772098541259765625" lon="20.05478703416883945465087890625">
        <ele>2105.199951171875</ele>
        <time>2026-06-19T10:56:36.000Z</time>
        <extensions>
          <ns3:TrackPointExtension>
            <ns3:atemp>18.0</ns3:atemp>
          </ns3:TrackPointExtension>
        </extensions>
      </trkpt>
      <trkpt lat="42.557153664529323577880859375" lon="20.0547861121594905853271484375">
        <ele>2105.199951171875</ele>
        <time>2026-06-19T10:56:37.000Z</time>
        <extensions>
          <ns3:TrackPointExtension>
            <ns3:atemp>18.0</ns3:atemp>
          </ns3:TrackPointExtension>
        </extensions>
      </trkpt>
      <trkpt lat="42.55715332925319671630859375" lon="20.0547861121594905853271484375">
        <ele>2105.39990234375</ele>
        <time>2026-06-19T10:56:38.000Z</time>
        <extensions>
          <ns3:TrackPointExtension>
            <ns3:atemp>18.0</ns3:atemp>
          </ns3:TrackPointExtension>
        </extensions>
      </trkpt>
      <trkpt lat="42.55715332925319671630859375" lon="20.0547861121594905853271484375">
        <ele>2105.39990234375</ele>
        <time>2026-06-19T10:56:39.000Z</time>
        <extensions>
          <ns3:TrackPointExtension>
            <ns3:atemp>18.0</ns3:atemp>
          </ns3:TrackPointExtension>
        </extensions>
      </trkpt>
      <trkpt lat="42.55715332925319671630859375" lon="20.0547861121594905853271484375">
        <ele>2105.60009765625</ele>
        <time>2026-06-19T10:56:40.000Z</time>
        <extensions>
          <ns3:TrackPointExtension>
            <ns3:atemp>18.0</ns3:atemp>
          </ns3:TrackPointExtension>
        </extensions>
      </trkpt>
      <trkpt lat="42.55715332925319671630859375" lon="20.0547861121594905853271484375">
        <ele>2105.60009765625</ele>
        <time>2026-06-19T10:56:41.000Z</time>
        <extensions>
          <ns3:TrackPointExtension>
            <ns3:atemp>18.0</ns3:atemp>
          </ns3:TrackPointExtension>
        </extensions>
      </trkpt>
      <trkpt lat="42.55715332925319671630859375" lon="20.0547861121594905853271484375">
        <ele>2105.60009765625</ele>
        <time>2026-06-19T10:56:42.000Z</time>
        <extensions>
          <ns3:TrackPointExtension>
            <ns3:atemp>18.0</ns3:atemp>
          </ns3:TrackPointExtension>
        </extensions>
      </trkpt>
      <trkpt lat="42.55715332925319671630859375" lon="20.0547861121594905853271484375">
        <ele>2105.39990234375</ele>
        <time>2026-06-19T10:56:43.000Z</time>
        <extensions>
          <ns3:TrackPointExtension>
            <ns3:atemp>18.0</ns3:atemp>
          </ns3:TrackPointExtension>
        </extensions>
      </trkpt>
      <trkpt lat="42.55715332925319671630859375" lon="20.0547861121594905853271484375">
        <ele>2105.39990234375</ele>
        <time>2026-06-19T10:56:44.000Z</time>
        <extensions>
          <ns3:TrackPointExtension>
            <ns3:atemp>18.0</ns3:atemp>
          </ns3:TrackPointExtension>
        </extensions>
      </trkpt>
      <trkpt lat="42.55715332925319671630859375" lon="20.0547861121594905853271484375">
        <ele>2105.39990234375</ele>
        <time>2026-06-19T10:56:45.000Z</time>
        <extensions>
          <ns3:TrackPointExtension>
            <ns3:atemp>18.0</ns3:atemp>
          </ns3:TrackPointExtension>
        </extensions>
      </trkpt>
      <trkpt lat="42.55715332925319671630859375" lon="20.0547861121594905853271484375">
        <ele>2105.39990234375</ele>
        <time>2026-06-19T10:56:46.000Z</time>
        <extensions>
          <ns3:TrackPointExtension>
            <ns3:atemp>18.0</ns3:atemp>
          </ns3:TrackPointExtension>
        </extensions>
      </trkpt>
      <trkpt lat="42.55715332925319671630859375" lon="20.0547861121594905853271484375">
        <ele>2105.39990234375</ele>
        <time>2026-06-19T10:56:47.000Z</time>
        <extensions>
          <ns3:TrackPointExtension>
            <ns3:atemp>18.0</ns3:atemp>
          </ns3:TrackPointExtension>
        </extensions>
      </trkpt>
      <trkpt lat="42.55715332925319671630859375" lon="20.0547861121594905853271484375">
        <ele>2105.39990234375</ele>
        <time>2026-06-19T10:56:48.000Z</time>
        <extensions>
          <ns3:TrackPointExtension>
            <ns3:atemp>18.0</ns3:atemp>
          </ns3:TrackPointExtension>
        </extensions>
      </trkpt>
      <trkpt lat="42.55715332925319671630859375" lon="20.0547861121594905853271484375">
        <ele>2105.39990234375</ele>
        <time>2026-06-19T10:56:49.000Z</time>
        <extensions>
          <ns3:TrackPointExtension>
            <ns3:atemp>18.0</ns3:atemp>
          </ns3:TrackPointExtension>
        </extensions>
      </trkpt>
      <trkpt lat="42.55715257488191127777099609375" lon="20.054784603416919708251953125">
        <ele>2105.199951171875</ele>
        <time>2026-06-19T10:56:50.000Z</time>
        <extensions>
          <ns3:TrackPointExtension>
            <ns3:atemp>18.0</ns3:atemp>
          </ns3:TrackPointExtension>
        </extensions>
      </trkpt>
      <trkpt lat="42.55715257488191127777099609375" lon="20.0547695159912109375">
        <ele>2105.199951171875</ele>
        <time>2026-06-19T10:56:51.000Z</time>
        <extensions>
          <ns3:TrackPointExtension>
            <ns3:atemp>18.0</ns3:atemp>
          </ns3:TrackPointExtension>
        </extensions>
      </trkpt>
      <trkpt lat="42.55715508945286273956298828125" lon="20.0547623075544834136962890625">
        <ele>2105.199951171875</ele>
        <time>2026-06-19T10:56:52.000Z</time>
        <extensions>
          <ns3:TrackPointExtension>
            <ns3:atemp>18.0</ns3:atemp>
          </ns3:TrackPointExtension>
        </extensions>
      </trkpt>
      <trkpt lat="42.55716615356504917144775390625" lon="20.0547586195170879364013671875">
        <ele>2105.199951171875</ele>
        <time>2026-06-19T10:56:53.000Z</time>
        <extensions>
          <ns3:TrackPointExtension>
            <ns3:atemp>18.0</ns3:atemp>
          </ns3:TrackPointExtension>
        </extensions>
      </trkpt>
      <trkpt lat="42.55718342028558254241943359375" lon="20.0547633133828639984130859375">
        <ele>2105.199951171875</ele>
        <time>2026-06-19T10:56:54.000Z</time>
        <extensions>
          <ns3:TrackPointExtension>
            <ns3:atemp>18.0</ns3:atemp>
          </ns3:TrackPointExtension>
        </extensions>
      </trkpt>
      <trkpt lat="42.55719280801713466644287109375" lon="20.0547770597040653228759765625">
        <ele>2105.199951171875</ele>
        <time>2026-06-19T10:56:55.000Z</time>
        <extensions>
          <ns3:TrackPointExtension>
            <ns3:atemp>18.0</ns3:atemp>
          </ns3:TrackPointExtension>
        </extensions>
      </trkpt>
      <trkpt lat="42.557203955948352813720703125" lon="20.05479910410940647125244140625">
        <ele>2105.199951171875</ele>
        <time>2026-06-19T10:56:56.000Z</time>
        <extensions>
          <ns3:TrackPointExtension>
            <ns3:atemp>18.0</ns3:atemp>
          </ns3:TrackPointExtension>
        </extensions>
      </trkpt>
      <trkpt lat="42.5572245754301548004150390625" lon="20.0548193044960498809814453125">
        <ele>2105.199951171875</ele>
        <time>2026-06-19T10:56:57.000Z</time>
        <extensions>
          <ns3:TrackPointExtension>
            <ns3:atemp>18.0</ns3:atemp>
          </ns3:TrackPointExtension>
        </extensions>
      </trkpt>
      <trkpt lat="42.5572460331022739410400390625" lon="20.0548353977501392364501953125">
        <ele>2105.39990234375</ele>
        <time>2026-06-19T10:56:58.000Z</time>
        <extensions>
          <ns3:TrackPointExtension>
            <ns3:atemp>18.0</ns3:atemp>
          </ns3:TrackPointExtension>
        </extensions>
      </trkpt>
      <trkpt lat="42.55726397037506103515625" lon="20.0548524968326091766357421875">
        <ele>2105.60009765625</ele>
        <time>2026-06-19T10:56:59.000Z</time>
        <extensions>
          <ns3:TrackPointExtension>
            <ns3:atemp>18.0</ns3:atemp>
          </ns3:TrackPointExtension>
        </extensions>
      </trkpt>
      <trkpt lat="42.5572840869426727294921875" lon="20.05486766807734966278076171875">
        <ele>2105.800048828125</ele>
        <time>2026-06-19T10:57:00.000Z</time>
        <extensions>
          <ns3:TrackPointExtension>
            <ns3:atemp>18.0</ns3:atemp>
          </ns3:TrackPointExtension>
        </extensions>
      </trkpt>
      <trkpt lat="42.55730495788156986236572265625" lon="20.05488527007400989532470703125">
        <ele>2106</ele>
        <time>2026-06-19T10:57:01.000Z</time>
        <extensions>
          <ns3:TrackPointExtension>
            <ns3:atemp>18.0</ns3:atemp>
          </ns3:TrackPointExtension>
        </extensions>
      </trkpt>
      <trkpt lat="42.5573261640965938568115234375" lon="20.05489356815814971923828125">
        <ele>2106.199951171875</ele>
        <time>2026-06-19T10:57:02.000Z</time>
        <extensions>
          <ns3:TrackPointExtension>
            <ns3:atemp>18.0</ns3:atemp>
          </ns3:TrackPointExtension>
        </extensions>
      </trkpt>
      <trkpt lat="42.557344101369380950927734375" lon="20.05489968694746494293212890625">
        <ele>2106.60009765625</ele>
        <time>2026-06-19T10:57:03.000Z</time>
        <extensions>
          <ns3:TrackPointExtension>
            <ns3:atemp>18.0</ns3:atemp>
          </ns3:TrackPointExtension>
        </extensions>
      </trkpt>
      <trkpt lat="42.55736346356570720672607421875" lon="20.05490069277584552764892578125">
        <ele>2107.199951171875</ele>
        <time>2026-06-19T10:57:04.000Z</time>
        <extensions>
          <ns3:TrackPointExtension>
            <ns3:atemp>18.0</ns3:atemp>
          </ns3:TrackPointExtension>
        </extensions>
      </trkpt>
      <trkpt lat="42.55738710053265094757080078125" lon="20.0548994354903697967529296875">
        <ele>2107.39990234375</ele>
        <time>2026-06-19T10:57:05.000Z</time>
        <extensions>
          <ns3:TrackPointExtension>
            <ns3:atemp>18.0</ns3:atemp>
          </ns3:TrackPointExtension>
        </extensions>
      </trkpt>
      <trkpt lat="42.5574128329753875732421875" lon="20.05488744936883449554443359375">
        <ele>2107.800048828125</ele>
        <time>2026-06-19T10:57:06.000Z</time>
        <extensions>
          <ns3:TrackPointExtension>
            <ns3:atemp>18.0</ns3:atemp>
          </ns3:TrackPointExtension>
        </extensions>
      </trkpt>
      <trkpt lat="42.55743588320910930633544921875" lon="20.054875127971172332763671875">
        <ele>2108</ele>
        <time>2026-06-19T10:57:07.000Z</time>
        <extensions>
          <ns3:TrackPointExtension>
            <ns3:atemp>18.0</ns3:atemp>
          </ns3:TrackPointExtension>
        </extensions>
      </trkpt>
      <trkpt lat="42.55745516158640384674072265625" lon="20.0548620522022247314453125">
        <ele>2108.199951171875</ele>
        <time>2026-06-19T10:57:08.000Z</time>
        <extensions>
          <ns3:TrackPointExtension>
            <ns3:atemp>18.0</ns3:atemp>
          </ns3:TrackPointExtension>
        </extensions>
      </trkpt>
      <trkpt lat="42.55747209303081035614013671875" lon="20.05484771914780139923095703125">
        <ele>2108.39990234375</ele>
        <time>2026-06-19T10:57:09.000Z</time>
        <extensions>
          <ns3:TrackPointExtension>
            <ns3:atemp>18.0</ns3:atemp>
          </ns3:TrackPointExtension>
        </extensions>
      </trkpt>
      <trkpt lat="42.55748868919909000396728515625" lon="20.05483648739755153656005859375">
        <ele>2108.39990234375</ele>
        <time>2026-06-19T10:57:10.000Z</time>
        <extensions>
          <ns3:TrackPointExtension>
            <ns3:atemp>18.0</ns3:atemp>
          </ns3:TrackPointExtension>
        </extensions>
      </trkpt>
      <trkpt lat="42.55749757401645183563232421875" lon="20.05483330227434635162353515625">
        <ele>2108.60009765625</ele>
        <time>2026-06-19T10:57:11.000Z</time>
        <extensions>
          <ns3:TrackPointExtension>
            <ns3:atemp>18.0</ns3:atemp>
          </ns3:TrackPointExtension>
        </extensions>
      </trkpt>
      <trkpt lat="42.55749656818807125091552734375" lon="20.05484126508235931396484375">
        <ele>2108.800048828125</ele>
        <time>2026-06-19T10:57:12.000Z</time>
        <extensions>
          <ns3:TrackPointExtension>
            <ns3:atemp>18.0</ns3:atemp>
          </ns3:TrackPointExtension>
        </extensions>
      </trkpt>
      <trkpt lat="42.55749522708356380462646484375" lon="20.0548447854816913604736328125">
        <ele>2109</ele>
        <time>2026-06-19T10:57:13.000Z</time>
        <extensions>
          <ns3:TrackPointExtension>
            <ns3:atemp>18.0</ns3:atemp>
          </ns3:TrackPointExtension>
        </extensions>
      </trkpt>
      <trkpt lat="42.5574951432645320892333984375" lon="20.0548447854816913604736328125">
        <ele>2109.199951171875</ele>
        <time>2026-06-19T10:57:14.000Z</time>
        <extensions>
          <ns3:TrackPointExtension>
            <ns3:atemp>18.0</ns3:atemp>
          </ns3:TrackPointExtension>
        </extensions>
      </trkpt>
      <trkpt lat="42.5574951432645320892333984375" lon="20.0548447854816913604736328125">
        <ele>2109.39990234375</ele>
        <time>2026-06-19T10:57:15.000Z</time>
        <extensions>
          <ns3:TrackPointExtension>
            <ns3:atemp>18.0</ns3:atemp>
          </ns3:TrackPointExtension>
        </extensions>
      </trkpt>
      <trkpt lat="42.5574951432645320892333984375" lon="20.0548447854816913604736328125">
        <ele>2109.39990234375</ele>
        <time>2026-06-19T10:57:16.000Z</time>
        <extensions>
          <ns3:TrackPointExtension>
            <ns3:atemp>18.0</ns3:atemp>
          </ns3:TrackPointExtension>
        </extensions>
      </trkpt>
      <trkpt lat="42.5574951432645320892333984375" lon="20.0548447854816913604736328125">
        <ele>2109.199951171875</ele>
        <time>2026-06-19T10:57:17.000Z</time>
        <extensions>
          <ns3:TrackPointExtension>
            <ns3:atemp>18.0</ns3:atemp>
          </ns3:TrackPointExtension>
        </extensions>
      </trkpt>
      <trkpt lat="42.5574951432645320892333984375" lon="20.0548447854816913604736328125">
        <ele>2109</ele>
        <time>2026-06-19T10:57:18.000Z</time>
        <extensions>
          <ns3:TrackPointExtension>
            <ns3:atemp>18.0</ns3:atemp>
          </ns3:TrackPointExtension>
        </extensions>
      </trkpt>
      <trkpt lat="42.5574951432645320892333984375" lon="20.0548447854816913604736328125">
        <ele>2108.800048828125</ele>
        <time>2026-06-19T10:57:19.000Z</time>
        <extensions>
          <ns3:TrackPointExtension>
            <ns3:atemp>18.0</ns3:atemp>
          </ns3:TrackPointExtension>
        </extensions>
      </trkpt>
      <trkpt lat="42.5574951432645320892333984375" lon="20.0548447854816913604736328125">
        <ele>2108.60009765625</ele>
        <time>2026-06-19T10:57:20.000Z</time>
        <extensions>
          <ns3:TrackPointExtension>
            <ns3:atemp>18.0</ns3:atemp>
          </ns3:TrackPointExtension>
        </extensions>
      </trkpt>
      <trkpt lat="42.5574951432645320892333984375" lon="20.0548447854816913604736328125">
        <ele>2108.60009765625</ele>
        <time>2026-06-19T10:57:21.000Z</time>
        <extensions>
          <ns3:TrackPointExtension>
            <ns3:atemp>18.0</ns3:atemp>
          </ns3:TrackPointExtension>
        </extensions>
      </trkpt>
      <trkpt lat="42.5574951432645320892333984375" lon="20.0548447854816913604736328125">
        <ele>2108.60009765625</ele>
        <time>2026-06-19T10:57:22.000Z</time>
        <extensions>
          <ns3:TrackPointExtension>
            <ns3:atemp>18.0</ns3:atemp>
          </ns3:TrackPointExtension>
        </extensions>
      </trkpt>
      <trkpt lat="42.5574951432645320892333984375" lon="20.0548447854816913604736328125">
        <ele>2108.60009765625</ele>
        <time>2026-06-19T10:57:23.000Z</time>
        <extensions>
          <ns3:TrackPointExtension>
            <ns3:atemp>18.0</ns3:atemp>
          </ns3:TrackPointExtension>
        </extensions>
      </trkpt>
      <trkpt lat="42.5574951432645320892333984375" lon="20.0548447854816913604736328125">
        <ele>2108.60009765625</ele>
        <time>2026-06-19T10:57:24.000Z</time>
        <extensions>
          <ns3:TrackPointExtension>
            <ns3:atemp>18.0</ns3:atemp>
          </ns3:TrackPointExtension>
        </extensions>
      </trkpt>
      <trkpt lat="42.5574951432645320892333984375" lon="20.0548447854816913604736328125">
        <ele>2108.60009765625</ele>
        <time>2026-06-19T10:57:25.000Z</time>
        <extensions>
          <ns3:TrackPointExtension>
            <ns3:atemp>18.0</ns3:atemp>
          </ns3:TrackPointExtension>
        </extensions>
      </trkpt>
      <trkpt lat="42.5574951432645320892333984375" lon="20.0548447854816913604736328125">
        <ele>2108.60009765625</ele>
        <time>2026-06-19T10:57:26.000Z</time>
        <extensions>
          <ns3:TrackPointExtension>
            <ns3:atemp>18.0</ns3:atemp>
          </ns3:TrackPointExtension>
        </extensions>
      </trkpt>
      <trkpt lat="42.5574951432645320892333984375" lon="20.0548447854816913604736328125">
        <ele>2108.60009765625</ele>
        <time>2026-06-19T10:57:27.000Z</time>
        <extensions>
          <ns3:TrackPointExtension>
            <ns3:atemp>18.0</ns3:atemp>
          </ns3:TrackPointExtension>
        </extensions>
      </trkpt>
      <trkpt lat="42.5574951432645320892333984375" lon="20.0548447854816913604736328125">
        <ele>2108.800048828125</ele>
        <time>2026-06-19T10:57:28.000Z</time>
        <extensions>
          <ns3:TrackPointExtension>
            <ns3:atemp>18.0</ns3:atemp>
          </ns3:TrackPointExtension>
        </extensions>
      </trkpt>
      <trkpt lat="42.5574951432645320892333984375" lon="20.0548447854816913604736328125">
        <ele>2108.800048828125</ele>
        <time>2026-06-19T10:57:29.000Z</time>
        <extensions>
          <ns3:TrackPointExtension>
            <ns3:atemp>18.0</ns3:atemp>
          </ns3:TrackPointExtension>
        </extensions>
      </trkpt>
      <trkpt lat="42.5574951432645320892333984375" lon="20.0548447854816913604736328125">
        <ele>2108.800048828125</ele>
        <time>2026-06-19T10:57:30.000Z</time>
        <extensions>
          <ns3:TrackPointExtension>
            <ns3:atemp>18.0</ns3:atemp>
          </ns3:TrackPointExtension>
        </extensions>
      </trkpt>
      <trkpt lat="42.5574951432645320892333984375" lon="20.0548447854816913604736328125">
        <ele>2108.800048828125</ele>
        <time>2026-06-19T10:57:31.000Z</time>
        <extensions>
          <ns3:TrackPointExtension>
            <ns3:atemp>18.0</ns3:atemp>
          </ns3:TrackPointExtension>
        </extensions>
      </trkpt>
      <trkpt lat="42.5574951432645320892333984375" lon="20.0548447854816913604736328125">
        <ele>2108.800048828125</ele>
        <time>2026-06-19T10:57:32.000Z</time>
        <extensions>
          <ns3:TrackPointExtension>
            <ns3:atemp>18.0</ns3:atemp>
          </ns3:TrackPointExtension>
        </extensions>
      </trkpt>
      <trkpt lat="42.5574951432645320892333984375" lon="20.0548447854816913604736328125">
        <ele>2109</ele>
        <time>2026-06-19T10:57:33.000Z</time>
        <extensions>
          <ns3:TrackPointExtension>
            <ns3:atemp>18.0</ns3:atemp>
          </ns3:TrackPointExtension>
        </extensions>
      </trkpt>
      <trkpt lat="42.5574951432645320892333984375" lon="20.0548447854816913604736328125">
        <ele>2109</ele>
        <time>2026-06-19T10:57:34.000Z</time>
        <extensions>
          <ns3:TrackPointExtension>
            <ns3:atemp>18.0</ns3:atemp>
          </ns3:TrackPointExtension>
        </extensions>
      </trkpt>
      <trkpt lat="42.5574951432645320892333984375" lon="20.0548447854816913604736328125">
        <ele>2109</ele>
        <time>2026-06-19T10:57:35.000Z</time>
        <extensions>
          <ns3:TrackPointExtension>
            <ns3:atemp>18.0</ns3:atemp>
          </ns3:TrackPointExtension>
        </extensions>
      </trkpt>
      <trkpt lat="42.5574951432645320892333984375" lon="20.0548447854816913604736328125">
        <ele>2109</ele>
        <time>2026-06-19T10:57:36.000Z</time>
        <extensions>
          <ns3:TrackPointExtension>
            <ns3:atemp>18.0</ns3:atemp>
          </ns3:TrackPointExtension>
        </extensions>
      </trkpt>
      <trkpt lat="42.5574951432645320892333984375" lon="20.0548447854816913604736328125">
        <ele>2109</ele>
        <time>2026-06-19T10:57:37.000Z</time>
        <extensions>
          <ns3:TrackPointExtension>
            <ns3:atemp>18.0</ns3:atemp>
          </ns3:TrackPointExtension>
        </extensions>
      </trkpt>
      <trkpt lat="42.5574951432645320892333984375" lon="20.0548447854816913604736328125">
        <ele>2108.800048828125</ele>
        <time>2026-06-19T10:57:38.000Z</time>
        <extensions>
          <ns3:TrackPointExtension>
            <ns3:atemp>18.0</ns3:atemp>
          </ns3:TrackPointExtension>
        </extensions>
      </trkpt>
      <trkpt lat="42.5574951432645320892333984375" lon="20.0548447854816913604736328125">
        <ele>2108.800048828125</ele>
        <time>2026-06-19T10:57:39.000Z</time>
        <extensions>
          <ns3:TrackPointExtension>
            <ns3:atemp>18.0</ns3:atemp>
          </ns3:TrackPointExtension>
        </extensions>
      </trkpt>
      <trkpt lat="42.5574951432645320892333984375" lon="20.0548447854816913604736328125">
        <ele>2108.800048828125</ele>
        <time>2026-06-19T10:57:40.000Z</time>
        <extensions>
          <ns3:TrackPointExtension>
            <ns3:atemp>18.0</ns3:atemp>
          </ns3:TrackPointExtension>
        </extensions>
      </trkpt>
      <trkpt lat="42.5574951432645320892333984375" lon="20.0548447854816913604736328125">
        <ele>2108.800048828125</ele>
        <time>2026-06-19T10:57:41.000Z</time>
        <extensions>
          <ns3:TrackPointExtension>
            <ns3:atemp>18.0</ns3:atemp>
          </ns3:TrackPointExtension>
        </extensions>
      </trkpt>
      <trkpt lat="42.5574951432645320892333984375" lon="20.0548447854816913604736328125">
        <ele>2108.800048828125</ele>
        <time>2026-06-19T10:57:42.000Z</time>
        <extensions>
          <ns3:TrackPointExtension>
            <ns3:atemp>18.0</ns3:atemp>
          </ns3:TrackPointExtension>
        </extensions>
      </trkpt>
      <trkpt lat="42.5574951432645320892333984375" lon="20.0548447854816913604736328125">
        <ele>2108.800048828125</ele>
        <time>2026-06-19T10:57:43.000Z</time>
        <extensions>
          <ns3:TrackPointExtension>
            <ns3:atemp>18.0</ns3:atemp>
          </ns3:TrackPointExtension>
        </extensions>
      </trkpt>
      <trkpt lat="42.5574951432645320892333984375" lon="20.0548447854816913604736328125">
        <ele>2109</ele>
        <time>2026-06-19T10:57:44.000Z</time>
        <extensions>
          <ns3:TrackPointExtension>
            <ns3:atemp>18.0</ns3:atemp>
          </ns3:TrackPointExtension>
        </extensions>
      </trkpt>
      <trkpt lat="42.5574951432645320892333984375" lon="20.0548447854816913604736328125">
        <ele>2108.800048828125</ele>
        <time>2026-06-19T10:57:45.000Z</time>
        <extensions>
          <ns3:TrackPointExtension>
            <ns3:atemp>18.0</ns3:atemp>
          </ns3:TrackPointExtension>
        </extensions>
      </trkpt>
      <trkpt lat="42.557497322559356689453125" lon="20.05484260618686676025390625">
        <ele>2108.800048828125</ele>
        <time>2026-06-19T10:57:46.000Z</time>
        <extensions>
          <ns3:TrackPointExtension>
            <ns3:atemp>18.0</ns3:atemp>
          </ns3:TrackPointExtension>
        </extensions>
      </trkpt>
      <trkpt lat="42.557507716119289398193359375" lon="20.05482190288603305816650390625">
        <ele>2108.60009765625</ele>
        <time>2026-06-19T10:57:47.000Z</time>
        <extensions>
          <ns3:TrackPointExtension>
            <ns3:atemp>18.0</ns3:atemp>
          </ns3:TrackPointExtension>
        </extensions>
      </trkpt>
      <trkpt lat="42.557521797716617584228515625" lon="20.0548057258129119873046875">
        <ele>2108.60009765625</ele>
        <time>2026-06-19T10:57:48.000Z</time>
        <extensions>
          <ns3:TrackPointExtension>
            <ns3:atemp>18.0</ns3:atemp>
          </ns3:TrackPointExtension>
        </extensions>
      </trkpt>
      <trkpt lat="42.5575424171984195709228515625" lon="20.05478837527334690093994140625">
        <ele>2108.39990234375</ele>
        <time>2026-06-19T10:57:49.000Z</time>
        <extensions>
          <ns3:TrackPointExtension>
            <ns3:atemp>18.0</ns3:atemp>
          </ns3:TrackPointExtension>
        </extensions>
      </trkpt>
      <trkpt lat="42.55757099948823451995849609375" lon="20.05476876161992549896240234375">
        <ele>2108.39990234375</ele>
        <time>2026-06-19T10:57:50.000Z</time>
        <extensions>
          <ns3:TrackPointExtension>
            <ns3:atemp>18.0</ns3:atemp>
          </ns3:TrackPointExtension>
        </extensions>
      </trkpt>
      <trkpt lat="42.5576061196625232696533203125" lon="20.05474059842526912689208984375">
        <ele>2108.199951171875</ele>
        <time>2026-06-19T10:57:51.000Z</time>
        <extensions>
          <ns3:TrackPointExtension>
            <ns3:atemp>18.0</ns3:atemp>
          </ns3:TrackPointExtension>
        </extensions>
      </trkpt>
      <trkpt lat="42.55764425732195377349853515625" lon="20.0547167100012302398681640625">
        <ele>2108</ele>
        <time>2026-06-19T10:57:52.000Z</time>
        <extensions>
          <ns3:TrackPointExtension>
            <ns3:atemp>18.0</ns3:atemp>
          </ns3:TrackPointExtension>
        </extensions>
      </trkpt>
      <trkpt lat="42.55768264643847942352294921875" lon="20.0546945817768573760986328125">
        <ele>2108</ele>
        <time>2026-06-19T10:57:53.000Z</time>
        <extensions>
          <ns3:TrackPointExtension>
            <ns3:atemp>18.0</ns3:atemp>
          </ns3:TrackPointExtension>
        </extensions>
      </trkpt>
      <trkpt lat="42.55771433003246784210205078125" lon="20.05467739887535572052001953125">
        <ele>2107.800048828125</ele>
        <time>2026-06-19T10:57:54.000Z</time>
        <extensions>
          <ns3:TrackPointExtension>
            <ns3:atemp>18.0</ns3:atemp>
          </ns3:TrackPointExtension>
        </extensions>
      </trkpt>
      <trkpt lat="42.55774517543613910675048828125" lon="20.05466155707836151123046875">
        <ele>2107.800048828125</ele>
        <time>2026-06-19T10:57:55.000Z</time>
        <extensions>
          <ns3:TrackPointExtension>
            <ns3:atemp>18.0</ns3:atemp>
          </ns3:TrackPointExtension>
        </extensions>
      </trkpt>
      <trkpt lat="42.557779289782047271728515625" lon="20.05464387126266956329345703125">
        <ele>2107.60009765625</ele>
        <time>2026-06-19T10:57:56.000Z</time>
        <extensions>
          <ns3:TrackPointExtension>
            <ns3:atemp>18.0</ns3:atemp>
          </ns3:TrackPointExtension>
        </extensions>
      </trkpt>
      <trkpt lat="42.55781985819339752197265625" lon="20.0546281971037387847900390625">
        <ele>2107.60009765625</ele>
        <time>2026-06-19T10:57:57.000Z</time>
        <extensions>
          <ns3:TrackPointExtension>
            <ns3:atemp>18.0</ns3:atemp>
          </ns3:TrackPointExtension>
        </extensions>
      </trkpt>
      <trkpt lat="42.5578797049820423126220703125" lon="20.05460749380290508270263671875">
        <ele>2107.39990234375</ele>
        <time>2026-06-19T10:57:58.000Z</time>
        <extensions>
          <ns3:TrackPointExtension>
            <ns3:atemp>18.0</ns3:atemp>
          </ns3:TrackPointExtension>
        </extensions>
      </trkpt>
      <trkpt lat="42.5579541362822055816650390625" lon="20.054591484367847442626953125">
        <ele>2107.199951171875</ele>
        <time>2026-06-19T10:57:59.000Z</time>
        <extensions>
          <ns3:TrackPointExtension>
            <ns3:atemp>18.0</ns3:atemp>
          </ns3:TrackPointExtension>
        </extensions>
      </trkpt>
      <trkpt lat="42.55802378989756107330322265625" lon="20.0545738823711872100830078125">
        <ele>2106.39990234375</ele>
        <time>2026-06-19T10:58:00.000Z</time>
        <extensions>
          <ns3:TrackPointExtension>
            <ns3:atemp>18.0</ns3:atemp>
          </ns3:TrackPointExtension>
        </extensions>
      </trkpt>
      <trkpt lat="42.55809570662677288055419921875" lon="20.0545510835945606231689453125">
        <ele>2105.60009765625</ele>
        <time>2026-06-19T10:58:01.000Z</time>
        <extensions>
          <ns3:TrackPointExtension>
            <ns3:atemp>18.0</ns3:atemp>
          </ns3:TrackPointExtension>
        </extensions>
      </trkpt>
      <trkpt lat="42.55816175602376461029052734375" lon="20.05453390069305896759033203125">
        <ele>2104.800048828125</ele>
        <time>2026-06-19T10:58:02.000Z</time>
        <extensions>
          <ns3:TrackPointExtension>
            <ns3:atemp>18.0</ns3:atemp>
          </ns3:TrackPointExtension>
        </extensions>
      </trkpt>
      <trkpt lat="42.55821925587952136993408203125" lon="20.05452602170407772064208984375">
        <ele>2104.199951171875</ele>
        <time>2026-06-19T10:58:03.000Z</time>
        <extensions>
          <ns3:TrackPointExtension>
            <ns3:atemp>18.0</ns3:atemp>
          </ns3:TrackPointExtension>
        </extensions>
      </trkpt>
      <trkpt lat="42.5582662783563137054443359375" lon="20.0545222498476505279541015625">
        <ele>2104</ele>
        <time>2026-06-19T10:58:04.000Z</time>
        <extensions>
          <ns3:TrackPointExtension>
            <ns3:atemp>18.0</ns3:atemp>
          </ns3:TrackPointExtension>
        </extensions>
      </trkpt>
      <trkpt lat="42.55830475129187107086181640625" lon="20.0545162148773670196533203125">
        <ele>2104</ele>
        <time>2026-06-19T10:58:05.000Z</time>
        <extensions>
          <ns3:TrackPointExtension>
            <ns3:atemp>18.0</ns3:atemp>
          </ns3:TrackPointExtension>
        </extensions>
      </trkpt>
      <trkpt lat="42.5583329983055591583251953125" lon="20.054513700306415557861328125">
        <ele>2104</ele>
        <time>2026-06-19T10:58:06.000Z</time>
        <extensions>
          <ns3:TrackPointExtension>
            <ns3:atemp>18.0</ns3:atemp>
          </ns3:TrackPointExtension>
        </extensions>
      </trkpt>
      <trkpt lat="42.5583601556718349456787109375" lon="20.0545133650302886962890625">
        <ele>2104.199951171875</ele>
        <time>2026-06-19T10:58:07.000Z</time>
        <extensions>
          <ns3:TrackPointExtension>
            <ns3:atemp>18.0</ns3:atemp>
          </ns3:TrackPointExtension>
        </extensions>
      </trkpt>
      <trkpt lat="42.5583832897245883941650390625" lon="20.0545088388025760650634765625">
        <ele>2104.60009765625</ele>
        <time>2026-06-19T10:58:08.000Z</time>
        <extensions>
          <ns3:TrackPointExtension>
            <ns3:atemp>18.0</ns3:atemp>
          </ns3:TrackPointExtension>
        </extensions>
      </trkpt>
      <trkpt lat="42.55840147845447063446044921875" lon="20.0545048154890537261962890625">
        <ele>2104.800048828125</ele>
        <time>2026-06-19T10:58:09.000Z</time>
        <extensions>
          <ns3:TrackPointExtension>
            <ns3:atemp>18.0</ns3:atemp>
          </ns3:TrackPointExtension>
        </extensions>
      </trkpt>
      <trkpt lat="42.55841991864144802093505859375" lon="20.05449886433780193328857421875">
        <ele>2105.39990234375</ele>
        <time>2026-06-19T10:58:10.000Z</time>
        <extensions>
          <ns3:TrackPointExtension>
            <ns3:atemp>18.0</ns3:atemp>
          </ns3:TrackPointExtension>
        </extensions>
      </trkpt>
      <trkpt lat="42.55843752063810825347900390625" lon="20.05448478274047374725341796875">
        <ele>2105.800048828125</ele>
        <time>2026-06-19T10:58:11.000Z</time>
        <extensions>
          <ns3:TrackPointExtension>
            <ns3:atemp>18.0</ns3:atemp>
          </ns3:TrackPointExtension>
        </extensions>
      </trkpt>
      <trkpt lat="42.55845277570188045501708984375" lon="20.0544629059731960296630859375">
        <ele>2106</ele>
        <time>2026-06-19T10:58:12.000Z</time>
        <extensions>
          <ns3:TrackPointExtension>
            <ns3:atemp>18.0</ns3:atemp>
          </ns3:TrackPointExtension>
        </extensions>
      </trkpt>
      <trkpt lat="42.55847297608852386474609375" lon="20.054439604282379150390625">
        <ele>2106.39990234375</ele>
        <time>2026-06-19T10:58:13.000Z</time>
        <extensions>
          <ns3:TrackPointExtension>
            <ns3:atemp>18.0</ns3:atemp>
          </ns3:TrackPointExtension>
        </extensions>
      </trkpt>
      <trkpt lat="42.558495439589023590087890625" lon="20.05442694760859012603759765625">
        <ele>2106.800048828125</ele>
        <time>2026-06-19T10:58:14.000Z</time>
        <extensions>
          <ns3:TrackPointExtension>
            <ns3:atemp>18.0</ns3:atemp>
          </ns3:TrackPointExtension>
        </extensions>
      </trkpt>
      <trkpt lat="42.55851731635630130767822265625" lon="20.05441336892545223236083984375">
        <ele>2107</ele>
        <time>2026-06-19T10:58:15.000Z</time>
        <extensions>
          <ns3:TrackPointExtension>
            <ns3:atemp>18.0</ns3:atemp>
          </ns3:TrackPointExtension>
        </extensions>
      </trkpt>
      <trkpt lat="42.55853173322975635528564453125" lon="20.05437766201794147491455078125">
        <ele>2107.199951171875</ele>
        <time>2026-06-19T10:58:16.000Z</time>
        <extensions>
          <ns3:TrackPointExtension>
            <ns3:atemp>18.0</ns3:atemp>
          </ns3:TrackPointExtension>
        </extensions>
      </trkpt>
      <trkpt lat="42.55853659473359584808349609375" lon="20.05433499813079833984375">
        <ele>2107.39990234375</ele>
        <time>2026-06-19T10:58:17.000Z</time>
        <extensions>
          <ns3:TrackPointExtension>
            <ns3:atemp>18.0</ns3:atemp>
          </ns3:TrackPointExtension>
        </extensions>
      </trkpt>
      <trkpt lat="42.55853659473359584808349609375" lon="20.054297111928462982177734375">
        <ele>2107.39990234375</ele>
        <time>2026-06-19T10:58:18.000Z</time>
        <extensions>
          <ns3:TrackPointExtension>
            <ns3:atemp>18.0</ns3:atemp>
          </ns3:TrackPointExtension>
        </extensions>
      </trkpt>
      <trkpt lat="42.5585442222654819488525390625" lon="20.05427137948572635650634765625">
        <ele>2107.39990234375</ele>
        <time>2026-06-19T10:58:19.000Z</time>
        <extensions>
          <ns3:TrackPointExtension>
            <ns3:atemp>18.0</ns3:atemp>
          </ns3:TrackPointExtension>
        </extensions>
      </trkpt>
      <trkpt lat="42.55855469964444637298583984375" lon="20.05425109528005123138427734375">
        <ele>2107.60009765625</ele>
        <time>2026-06-19T10:58:20.000Z</time>
        <extensions>
          <ns3:TrackPointExtension>
            <ns3:atemp>18.0</ns3:atemp>
          </ns3:TrackPointExtension>
        </extensions>
      </trkpt>
      <trkpt lat="42.55856551229953765869140625" lon="20.0542262010276317596435546875">
        <ele>2107.60009765625</ele>
        <time>2026-06-19T10:58:21.000Z</time>
        <extensions>
          <ns3:TrackPointExtension>
            <ns3:atemp>18.0</ns3:atemp>
          </ns3:TrackPointExtension>
        </extensions>
      </trkpt>
      <trkpt lat="42.55858202464878559112548828125" lon="20.05421052686870098114013671875">
        <ele>2107.800048828125</ele>
        <time>2026-06-19T10:58:22.000Z</time>
        <extensions>
          <ns3:TrackPointExtension>
            <ns3:atemp>18.0</ns3:atemp>
          </ns3:TrackPointExtension>
        </extensions>
      </trkpt>
      <trkpt lat="42.55859878845512866973876953125" lon="20.05418948829174041748046875">
        <ele>2108</ele>
        <time>2026-06-19T10:58:23.000Z</time>
        <extensions>
          <ns3:TrackPointExtension>
            <ns3:atemp>18.0</ns3:atemp>
          </ns3:TrackPointExtension>
        </extensions>
      </trkpt>
      <trkpt lat="42.55861890502274036407470703125" lon="20.05416442640125751495361328125">
        <ele>2108</ele>
        <time>2026-06-19T10:58:24.000Z</time>
        <extensions>
          <ns3:TrackPointExtension>
            <ns3:atemp>18.0</ns3:atemp>
          </ns3:TrackPointExtension>
        </extensions>
      </trkpt>
      <trkpt lat="42.5586401112377643585205078125" lon="20.0541393645107746124267578125">
        <ele>2108.199951171875</ele>
        <time>2026-06-19T10:58:25.000Z</time>
        <extensions>
          <ns3:TrackPointExtension>
            <ns3:atemp>18.0</ns3:atemp>
          </ns3:TrackPointExtension>
        </extensions>
      </trkpt>
      <trkpt lat="42.5586640834808349609375" lon="20.05410994403064250946044921875">
        <ele>2108.199951171875</ele>
        <time>2026-06-19T10:58:26.000Z</time>
        <extensions>
          <ns3:TrackPointExtension>
            <ns3:atemp>18.0</ns3:atemp>
          </ns3:TrackPointExtension>
        </extensions>
      </trkpt>
      <trkpt lat="42.5586937554180622100830078125" lon="20.05408781580626964569091796875">
        <ele>2108.39990234375</ele>
        <time>2026-06-19T10:58:27.000Z</time>
        <extensions>
          <ns3:TrackPointExtension>
            <ns3:atemp>18.0</ns3:atemp>
          </ns3:TrackPointExtension>
        </extensions>
      </trkpt>
      <trkpt lat="42.558722756803035736083984375" lon="20.05406786687672138214111328125">
        <ele>2108.60009765625</ele>
        <time>2026-06-19T10:58:28.000Z</time>
        <extensions>
          <ns3:TrackPointExtension>
            <ns3:atemp>18.0</ns3:atemp>
          </ns3:TrackPointExtension>
        </extensions>
      </trkpt>
      <trkpt lat="42.5587564520537853240966796875" lon="20.054048001766204833984375">
        <ele>2108.60009765625</ele>
        <time>2026-06-19T10:58:29.000Z</time>
        <extensions>
          <ns3:TrackPointExtension>
            <ns3:atemp>18.0</ns3:atemp>
          </ns3:TrackPointExtension>
        </extensions>
      </trkpt>
      <trkpt lat="42.5587929971516132354736328125" lon="20.0540324114263057708740234375">
        <ele>2108.800048828125</ele>
        <time>2026-06-19T10:58:30.000Z</time>
        <extensions>
          <ns3:TrackPointExtension>
            <ns3:atemp>18.0</ns3:atemp>
          </ns3:TrackPointExtension>
        </extensions>
      </trkpt>
      <trkpt lat="42.558828704059123992919921875" lon="20.05402327515184879302978515625">
        <ele>2108.800048828125</ele>
        <time>2026-06-19T10:58:31.000Z</time>
        <extensions>
          <ns3:TrackPointExtension>
            <ns3:atemp>18.0</ns3:atemp>
          </ns3:TrackPointExtension>
        </extensions>
      </trkpt>
      <trkpt lat="42.5588600523769855499267578125" lon="20.05402126349508762359619140625">
        <ele>2108.800048828125</ele>
        <time>2026-06-19T10:58:32.000Z</time>
        <extensions>
          <ns3:TrackPointExtension>
            <ns3:atemp>18.0</ns3:atemp>
          </ns3:TrackPointExtension>
        </extensions>
      </trkpt>
      <trkpt lat="42.55888930521905422210693359375" lon="20.05402411334216594696044921875">
        <ele>2108.800048828125</ele>
        <time>2026-06-19T10:58:33.000Z</time>
        <extensions>
          <ns3:TrackPointExtension>
            <ns3:atemp>18.0</ns3:atemp>
          </ns3:TrackPointExtension>
        </extensions>
      </trkpt>
      <trkpt lat="42.55892132408916950225830078125" lon="20.05402528680860996246337890625">
        <ele>2108.800048828125</ele>
        <time>2026-06-19T10:58:34.000Z</time>
        <extensions>
          <ns3:TrackPointExtension>
            <ns3:atemp>18.0</ns3:atemp>
          </ns3:TrackPointExtension>
        </extensions>
      </trkpt>
      <trkpt lat="42.5589515827596187591552734375" lon="20.05402847193181514739990234375">
        <ele>2109</ele>
        <time>2026-06-19T10:58:35.000Z</time>
        <extensions>
          <ns3:TrackPointExtension>
            <ns3:atemp>18.0</ns3:atemp>
          </ns3:TrackPointExtension>
        </extensions>
      </trkpt>
      <trkpt lat="42.5589841045439243316650390625" lon="20.0540317408740520477294921875">
        <ele>2109</ele>
        <time>2026-06-19T10:58:36.000Z</time>
        <extensions>
          <ns3:TrackPointExtension>
            <ns3:atemp>18.0</ns3:atemp>
          </ns3:TrackPointExtension>
        </extensions>
      </trkpt>
      <trkpt lat="42.559017129242420196533203125" lon="20.05403182469308376312255859375">
        <ele>2109.199951171875</ele>
        <time>2026-06-19T10:58:37.000Z</time>
        <extensions>
          <ns3:TrackPointExtension>
            <ns3:atemp>18.0</ns3:atemp>
          </ns3:TrackPointExtension>
        </extensions>
      </trkpt>
      <trkpt lat="42.55904772318899631500244140625" lon="20.05402989685535430908203125">
        <ele>2109.199951171875</ele>
        <time>2026-06-19T10:58:38.000Z</time>
        <extensions>
          <ns3:TrackPointExtension>
            <ns3:atemp>18.0</ns3:atemp>
          </ns3:TrackPointExtension>
        </extensions>
      </trkpt>
      <trkpt lat="42.55907655693590641021728515625" lon="20.054026208817958831787109375">
        <ele>2109.199951171875</ele>
        <time>2026-06-19T10:58:39.000Z</time>
        <extensions>
          <ns3:TrackPointExtension>
            <ns3:atemp>18.0</ns3:atemp>
          </ns3:TrackPointExtension>
        </extensions>
      </trkpt>
      <trkpt lat="42.55910287611186504364013671875" lon="20.05402210168540477752685546875">
        <ele>2109.39990234375</ele>
        <time>2026-06-19T10:58:40.000Z</time>
        <extensions>
          <ns3:TrackPointExtension>
            <ns3:atemp>18.0</ns3:atemp>
          </ns3:TrackPointExtension>
        </extensions>
      </trkpt>
      <trkpt lat="42.5591326318681240081787109375" lon="20.05401589907705783843994140625">
        <ele>2109.39990234375</ele>
        <time>2026-06-19T10:58:41.000Z</time>
        <extensions>
          <ns3:TrackPointExtension>
            <ns3:atemp>18.0</ns3:atemp>
          </ns3:TrackPointExtension>
        </extensions>
      </trkpt>
      <trkpt lat="42.55915828049182891845703125" lon="20.0540089420974254608154296875">
        <ele>2109.60009765625</ele>
        <time>2026-06-19T10:58:42.000Z</time>
        <extensions>
          <ns3:TrackPointExtension>
            <ns3:atemp>18.0</ns3:atemp>
          </ns3:TrackPointExtension>
        </extensions>
      </trkpt>
      <trkpt lat="42.55918250419199466705322265625" lon="20.0540002249181270599365234375">
        <ele>2109.60009765625</ele>
        <time>2026-06-19T10:58:43.000Z</time>
        <extensions>
          <ns3:TrackPointExtension>
            <ns3:atemp>18.0</ns3:atemp>
          </ns3:TrackPointExtension>
        </extensions>
      </trkpt>
      <trkpt lat="42.55920832045376300811767578125" lon="20.05398874171078205108642578125">
        <ele>2109.800048828125</ele>
        <time>2026-06-19T10:58:44.000Z</time>
        <extensions>
          <ns3:TrackPointExtension>
            <ns3:atemp>18.0</ns3:atemp>
          </ns3:TrackPointExtension>
        </extensions>
      </trkpt>
      <trkpt lat="42.55923061631619930267333984375" lon="20.05397181026637554168701171875">
        <ele>2110</ele>
        <time>2026-06-19T10:58:45.000Z</time>
        <extensions>
          <ns3:TrackPointExtension>
            <ns3:atemp>18.0</ns3:atemp>
          </ns3:TrackPointExtension>
        </extensions>
      </trkpt>
      <trkpt lat="42.559251487255096435546875" lon="20.05395370535552501678466796875">
        <ele>2110.199951171875</ele>
        <time>2026-06-19T10:58:46.000Z</time>
        <extensions>
          <ns3:TrackPointExtension>
            <ns3:atemp>18.0</ns3:atemp>
          </ns3:TrackPointExtension>
        </extensions>
      </trkpt>
      <trkpt lat="42.55926766432821750640869140625" lon="20.053935684263706207275390625">
        <ele>2110.60009765625</ele>
        <time>2026-06-19T10:58:47.000Z</time>
        <extensions>
          <ns3:TrackPointExtension>
            <ns3:atemp>18.0</ns3:atemp>
          </ns3:TrackPointExtension>
        </extensions>
      </trkpt>
      <trkpt lat="42.5592818297445774078369140625" lon="20.05391213111579418182373046875">
        <ele>2110.800048828125</ele>
        <time>2026-06-19T10:58:48.000Z</time>
        <extensions>
          <ns3:TrackPointExtension>
            <ns3:atemp>18.0</ns3:atemp>
          </ns3:TrackPointExtension>
        </extensions>
      </trkpt>
      <trkpt lat="42.55929616279900074005126953125" lon="20.05389469675719738006591796875">
        <ele>2111.199951171875</ele>
        <time>2026-06-19T10:58:49.000Z</time>
        <extensions>
          <ns3:TrackPointExtension>
            <ns3:atemp>18.0</ns3:atemp>
          </ns3:TrackPointExtension>
        </extensions>
      </trkpt>
      <trkpt lat="42.55931192077696323394775390625" lon="20.053880698978900909423828125">
        <ele>2111.60009765625</ele>
        <time>2026-06-19T10:58:50.000Z</time>
        <extensions>
          <ns3:TrackPointExtension>
            <ns3:atemp>18.0</ns3:atemp>
          </ns3:TrackPointExtension>
        </extensions>
      </trkpt>
      <trkpt lat="42.5593270920217037200927734375" lon="20.0538674555718898773193359375">
        <ele>2112</ele>
        <time>2026-06-19T10:58:51.000Z</time>
        <extensions>
          <ns3:TrackPointExtension>
            <ns3:atemp>18.0</ns3:atemp>
          </ns3:TrackPointExtension>
        </extensions>
      </trkpt>
      <trkpt lat="42.5593411736190319061279296875" lon="20.05385815165936946868896484375">
        <ele>2112.39990234375</ele>
        <time>2026-06-19T10:58:52.000Z</time>
        <extensions>
          <ns3:TrackPointExtension>
            <ns3:atemp>18.0</ns3:atemp>
          </ns3:TrackPointExtension>
        </extensions>
      </trkpt>
      <trkpt lat="42.55935902707278728485107421875" lon="20.053847171366214752197265625">
        <ele>2112.60009765625</ele>
        <time>2026-06-19T10:58:53.000Z</time>
        <extensions>
          <ns3:TrackPointExtension>
            <ns3:atemp>18.0</ns3:atemp>
          </ns3:TrackPointExtension>
        </extensions>
      </trkpt>
      <trkpt lat="42.55937595851719379425048828125" lon="20.05384105257689952850341796875">
        <ele>2113</ele>
        <time>2026-06-19T10:58:54.000Z</time>
        <extensions>
          <ns3:TrackPointExtension>
            <ns3:atemp>18.0</ns3:atemp>
          </ns3:TrackPointExtension>
        </extensions>
      </trkpt>
      <trkpt lat="42.559395991265773773193359375" lon="20.05383409559726715087890625">
        <ele>2113.39990234375</ele>
        <time>2026-06-19T10:58:55.000Z</time>
        <extensions>
          <ns3:TrackPointExtension>
            <ns3:atemp>18.0</ns3:atemp>
          </ns3:TrackPointExtension>
        </extensions>
      </trkpt>
      <trkpt lat="42.55941770039498805999755859375" lon="20.0538228638470172882080078125">
        <ele>2113.60009765625</ele>
        <time>2026-06-19T10:58:56.000Z</time>
        <extensions>
          <ns3:TrackPointExtension>
            <ns3:atemp>18.0</ns3:atemp>
          </ns3:TrackPointExtension>
        </extensions>
      </trkpt>
      <trkpt lat="42.5594363920390605926513671875" lon="20.053819008171558380126953125">
        <ele>2113.800048828125</ele>
        <time>2026-06-19T10:58:57.000Z</time>
        <extensions>
          <ns3:TrackPointExtension>
            <ns3:atemp>18.0</ns3:atemp>
          </ns3:TrackPointExtension>
        </extensions>
      </trkpt>
      <trkpt lat="42.5594558380544185638427734375" lon="20.05382009781897068023681640625">
        <ele>2114</ele>
        <time>2026-06-19T10:58:58.000Z</time>
        <extensions>
          <ns3:TrackPointExtension>
            <ns3:atemp>18.0</ns3:atemp>
          </ns3:TrackPointExtension>
        </extensions>
      </trkpt>
      <trkpt lat="42.559473775327205657958984375" lon="20.05382328294217586517333984375">
        <ele>2114.199951171875</ele>
        <time>2026-06-19T10:58:59.000Z</time>
        <extensions>
          <ns3:TrackPointExtension>
            <ns3:atemp>18.0</ns3:atemp>
          </ns3:TrackPointExtension>
        </extensions>
      </trkpt>
      <trkpt lat="42.559491209685802459716796875" lon="20.05382764153182506561279296875">
        <ele>2114.39990234375</ele>
        <time>2026-06-19T10:59:00.000Z</time>
        <extensions>
          <ns3:TrackPointExtension>
            <ns3:atemp>18.0</ns3:atemp>
          </ns3:TrackPointExtension>
        </extensions>
      </trkpt>
      <trkpt lat="42.55950830876827239990234375" lon="20.05382780916988849639892578125">
        <ele>2114.60009765625</ele>
        <time>2026-06-19T10:59:01.000Z</time>
        <extensions>
          <ns3:TrackPointExtension>
            <ns3:atemp>18.0</ns3:atemp>
          </ns3:TrackPointExtension>
        </extensions>
      </trkpt>
      <trkpt lat="42.5595232285559177398681640625" lon="20.05382646806538105010986328125">
        <ele>2114.800048828125</ele>
        <time>2026-06-19T10:59:02.000Z</time>
        <extensions>
          <ns3:TrackPointExtension>
            <ns3:atemp>18.0</ns3:atemp>
          </ns3:TrackPointExtension>
        </extensions>
      </trkpt>
      <trkpt lat="42.559535466134548187255859375" lon="20.05382663570344448089599609375">
        <ele>2115</ele>
        <time>2026-06-19T10:59:03.000Z</time>
        <extensions>
          <ns3:TrackPointExtension>
            <ns3:atemp>18.0</ns3:atemp>
          </ns3:TrackPointExtension>
        </extensions>
      </trkpt>
      <trkpt lat="42.55954409949481487274169921875" lon="20.0538312457501888275146484375">
        <ele>2115.39990234375</ele>
        <time>2026-06-19T10:59:04.000Z</time>
        <extensions>
          <ns3:TrackPointExtension>
            <ns3:atemp>18.0</ns3:atemp>
          </ns3:TrackPointExtension>
        </extensions>
      </trkpt>
      <trkpt lat="42.55955298431217670440673828125" lon="20.05383535288274288177490234375">
        <ele>2115.60009765625</ele>
        <time>2026-06-19T10:59:05.000Z</time>
        <extensions>
          <ns3:TrackPointExtension>
            <ns3:atemp>18.0</ns3:atemp>
          </ns3:TrackPointExtension>
        </extensions>
      </trkpt>
      <trkpt lat="42.55956052802503108978271484375" lon="20.0538359396159648895263671875">
        <ele>2115.800048828125</ele>
        <time>2026-06-19T10:59:06.000Z</time>
        <extensions>
          <ns3:TrackPointExtension>
            <ns3:atemp>18.0</ns3:atemp>
          </ns3:TrackPointExtension>
        </extensions>
      </trkpt>
      <trkpt lat="42.55957125686109066009521484375" lon="20.0538392923772335052490234375">
        <ele>2116</ele>
        <time>2026-06-19T10:59:07.000Z</time>
        <extensions>
          <ns3:TrackPointExtension>
            <ns3:atemp>18.0</ns3:atemp>
          </ns3:TrackPointExtension>
        </extensions>
      </trkpt>
      <trkpt lat="42.559585757553577423095703125" lon="20.0538433156907558441162109375">
        <ele>2116.199951171875</ele>
        <time>2026-06-19T10:59:08.000Z</time>
        <extensions>
          <ns3:TrackPointExtension>
            <ns3:atemp>18.0</ns3:atemp>
          </ns3:TrackPointExtension>
        </extensions>
      </trkpt>
      <trkpt lat="42.559587769210338592529296875" lon="20.0538493506610393524169921875">
        <ele>2116.39990234375</ele>
        <time>2026-06-19T10:59:09.000Z</time>
        <extensions>
          <ns3:TrackPointExtension>
            <ns3:atemp>18.0</ns3:atemp>
          </ns3:TrackPointExtension>
        </extensions>
      </trkpt>
      <trkpt lat="42.5595919601619243621826171875" lon="20.0538523681461811065673828125">
        <ele>2116.60009765625</ele>
        <time>2026-06-19T10:59:10.000Z</time>
        <extensions>
          <ns3:TrackPointExtension>
            <ns3:atemp>18.0</ns3:atemp>
          </ns3:TrackPointExtension>
        </extensions>
      </trkpt>
      <trkpt lat="42.55959212779998779296875" lon="20.05385245196521282196044921875">
        <ele>2116.60009765625</ele>
        <time>2026-06-19T10:59:11.000Z</time>
        <extensions>
          <ns3:TrackPointExtension>
            <ns3:atemp>18.0</ns3:atemp>
          </ns3:TrackPointExtension>
        </extensions>
      </trkpt>
      <trkpt lat="42.55959212779998779296875" lon="20.05385245196521282196044921875">
        <ele>2116.800048828125</ele>
        <time>2026-06-19T10:59:12.000Z</time>
        <extensions>
          <ns3:TrackPointExtension>
            <ns3:atemp>18.0</ns3:atemp>
          </ns3:TrackPointExtension>
        </extensions>
      </trkpt>
      <trkpt lat="42.55959212779998779296875" lon="20.05385245196521282196044921875">
        <ele>2117</ele>
        <time>2026-06-19T10:59:13.000Z</time>
        <extensions>
          <ns3:TrackPointExtension>
            <ns3:atemp>18.0</ns3:atemp>
          </ns3:TrackPointExtension>
        </extensions>
      </trkpt>
      <trkpt lat="42.55959212779998779296875" lon="20.05385245196521282196044921875">
        <ele>2117</ele>
        <time>2026-06-19T10:59:14.000Z</time>
        <extensions>
          <ns3:TrackPointExtension>
            <ns3:atemp>18.0</ns3:atemp>
          </ns3:TrackPointExtension>
        </extensions>
      </trkpt>
      <trkpt lat="42.55959212779998779296875" lon="20.05385245196521282196044921875">
        <ele>2117</ele>
        <time>2026-06-19T10:59:15.000Z</time>
        <extensions>
          <ns3:TrackPointExtension>
            <ns3:atemp>18.0</ns3:atemp>
          </ns3:TrackPointExtension>
        </extensions>
      </trkpt>
      <trkpt lat="42.55959212779998779296875" lon="20.05385245196521282196044921875">
        <ele>2117</ele>
        <time>2026-06-19T10:59:16.000Z</time>
        <extensions>
          <ns3:TrackPointExtension>
            <ns3:atemp>18.0</ns3:atemp>
          </ns3:TrackPointExtension>
        </extensions>
      </trkpt>
      <trkpt lat="42.55959212779998779296875" lon="20.05385245196521282196044921875">
        <ele>2117</ele>
        <time>2026-06-19T10:59:17.000Z</time>
        <extensions>
          <ns3:TrackPointExtension>
            <ns3:atemp>18.0</ns3:atemp>
          </ns3:TrackPointExtension>
        </extensions>
      </trkpt>
      <trkpt lat="42.55959212779998779296875" lon="20.05385245196521282196044921875">
        <ele>2117</ele>
        <time>2026-06-19T10:59:18.000Z</time>
        <extensions>
          <ns3:TrackPointExtension>
            <ns3:atemp>18.0</ns3:atemp>
          </ns3:TrackPointExtension>
        </extensions>
      </trkpt>
      <trkpt lat="42.55959212779998779296875" lon="20.05385245196521282196044921875">
        <ele>2117</ele>
        <time>2026-06-19T10:59:19.000Z</time>
        <extensions>
          <ns3:TrackPointExtension>
            <ns3:atemp>18.0</ns3:atemp>
          </ns3:TrackPointExtension>
        </extensions>
      </trkpt>
      <trkpt lat="42.55959212779998779296875" lon="20.05385245196521282196044921875">
        <ele>2116.800048828125</ele>
        <time>2026-06-19T10:59:20.000Z</time>
        <extensions>
          <ns3:TrackPointExtension>
            <ns3:atemp>18.0</ns3:atemp>
          </ns3:TrackPointExtension>
        </extensions>
      </trkpt>
      <trkpt lat="42.55959212779998779296875" lon="20.05385245196521282196044921875">
        <ele>2116.800048828125</ele>
        <time>2026-06-19T10:59:21.000Z</time>
        <extensions>
          <ns3:TrackPointExtension>
            <ns3:atemp>18.0</ns3:atemp>
          </ns3:TrackPointExtension>
        </extensions>
      </trkpt>
      <trkpt lat="42.55959212779998779296875" lon="20.05385245196521282196044921875">
        <ele>2116.800048828125</ele>
        <time>2026-06-19T10:59:22.000Z</time>
        <extensions>
          <ns3:TrackPointExtension>
            <ns3:atemp>18.0</ns3:atemp>
          </ns3:TrackPointExtension>
        </extensions>
      </trkpt>
      <trkpt lat="42.55959212779998779296875" lon="20.05385245196521282196044921875">
        <ele>2116.800048828125</ele>
        <time>2026-06-19T10:59:23.000Z</time>
        <extensions>
          <ns3:TrackPointExtension>
            <ns3:atemp>18.0</ns3:atemp>
          </ns3:TrackPointExtension>
        </extensions>
      </trkpt>
      <trkpt lat="42.55959212779998779296875" lon="20.05385245196521282196044921875">
        <ele>2116.800048828125</ele>
        <time>2026-06-19T10:59:24.000Z</time>
        <extensions>
          <ns3:TrackPointExtension>
            <ns3:atemp>18.0</ns3:atemp>
          </ns3:TrackPointExtension>
        </extensions>
      </trkpt>
      <trkpt lat="42.55959212779998779296875" lon="20.05385245196521282196044921875">
        <ele>2116.800048828125</ele>
        <time>2026-06-19T10:59:25.000Z</time>
        <extensions>
          <ns3:TrackPointExtension>
            <ns3:atemp>18.0</ns3:atemp>
          </ns3:TrackPointExtension>
        </extensions>
      </trkpt>
      <trkpt lat="42.55959212779998779296875" lon="20.05385245196521282196044921875">
        <ele>2116.800048828125</ele>
        <time>2026-06-19T10:59:26.000Z</time>
        <extensions>
          <ns3:TrackPointExtension>
            <ns3:atemp>18.0</ns3:atemp>
          </ns3:TrackPointExtension>
        </extensions>
      </trkpt>
      <trkpt lat="42.55959212779998779296875" lon="20.05385245196521282196044921875">
        <ele>2117</ele>
        <time>2026-06-19T10:59:27.000Z</time>
        <extensions>
          <ns3:TrackPointExtension>
            <ns3:atemp>18.0</ns3:atemp>
          </ns3:TrackPointExtension>
        </extensions>
      </trkpt>
      <trkpt lat="42.55959212779998779296875" lon="20.05385245196521282196044921875">
        <ele>2117</ele>
        <time>2026-06-19T10:59:28.000Z</time>
        <extensions>
          <ns3:TrackPointExtension>
            <ns3:atemp>18.0</ns3:atemp>
          </ns3:TrackPointExtension>
        </extensions>
      </trkpt>
      <trkpt lat="42.55959212779998779296875" lon="20.05385245196521282196044921875">
        <ele>2117</ele>
        <time>2026-06-19T10:59:29.000Z</time>
        <extensions>
          <ns3:TrackPointExtension>
            <ns3:atemp>18.0</ns3:atemp>
          </ns3:TrackPointExtension>
        </extensions>
      </trkpt>
      <trkpt lat="42.55959212779998779296875" lon="20.05385245196521282196044921875">
        <ele>2117</ele>
        <time>2026-06-19T10:59:30.000Z</time>
        <extensions>
          <ns3:TrackPointExtension>
            <ns3:atemp>18.0</ns3:atemp>
          </ns3:TrackPointExtension>
        </extensions>
      </trkpt>
      <trkpt lat="42.55959212779998779296875" lon="20.05385245196521282196044921875">
        <ele>2117</ele>
        <time>2026-06-19T10:59:31.000Z</time>
        <extensions>
          <ns3:TrackPointExtension>
            <ns3:atemp>18.0</ns3:atemp>
          </ns3:TrackPointExtension>
        </extensions>
      </trkpt>
      <trkpt lat="42.5595926307141780853271484375" lon="20.05384893156588077545166015625">
        <ele>2116.800048828125</ele>
        <time>2026-06-19T10:59:32.000Z</time>
        <extensions>
          <ns3:TrackPointExtension>
            <ns3:atemp>18.0</ns3:atemp>
          </ns3:TrackPointExtension>
        </extensions>
      </trkpt>
      <trkpt lat="42.5595926307141780853271484375" lon="20.05384893156588077545166015625">
        <ele>2116.800048828125</ele>
        <time>2026-06-19T10:59:33.000Z</time>
        <extensions>
          <ns3:TrackPointExtension>
            <ns3:atemp>18.0</ns3:atemp>
          </ns3:TrackPointExtension>
        </extensions>
      </trkpt>
      <trkpt lat="42.5596271641552448272705078125" lon="20.05383468233048915863037109375">
        <ele>2116.60009765625</ele>
        <time>2026-06-19T10:59:34.000Z</time>
        <extensions>
          <ns3:TrackPointExtension>
            <ns3:atemp>18.0</ns3:atemp>
          </ns3:TrackPointExtension>
        </extensions>
      </trkpt>
      <trkpt lat="42.5596486218273639678955078125" lon="20.05382764153182506561279296875">
        <ele>2116.60009765625</ele>
        <time>2026-06-19T10:59:35.000Z</time>
        <extensions>
          <ns3:TrackPointExtension>
            <ns3:atemp>18.0</ns3:atemp>
          </ns3:TrackPointExtension>
        </extensions>
      </trkpt>
      <trkpt lat="42.55966731347143650054931640625" lon="20.053814314305782318115234375">
        <ele>2116.60009765625</ele>
        <time>2026-06-19T10:59:36.000Z</time>
        <extensions>
          <ns3:TrackPointExtension>
            <ns3:atemp>18.0</ns3:atemp>
          </ns3:TrackPointExtension>
        </extensions>
      </trkpt>
      <trkpt lat="42.55968474783003330230712890625" lon="20.05379746668040752410888671875">
        <ele>2116.60009765625</ele>
        <time>2026-06-19T10:59:37.000Z</time>
        <extensions>
          <ns3:TrackPointExtension>
            <ns3:atemp>18.0</ns3:atemp>
          </ns3:TrackPointExtension>
        </extensions>
      </trkpt>
      <trkpt lat="42.55969874560832977294921875" lon="20.0537900067865848541259765625">
        <ele>2116.60009765625</ele>
        <time>2026-06-19T10:59:38.000Z</time>
        <extensions>
          <ns3:TrackPointExtension>
            <ns3:atemp>18.0</ns3:atemp>
          </ns3:TrackPointExtension>
        </extensions>
      </trkpt>
      <trkpt lat="42.55970620550215244293212890625" lon="20.05378019995987415313720703125">
        <ele>2116.800048828125</ele>
        <time>2026-06-19T10:59:39.000Z</time>
        <extensions>
          <ns3:TrackPointExtension>
            <ns3:atemp>18.0</ns3:atemp>
          </ns3:TrackPointExtension>
        </extensions>
      </trkpt>
      <trkpt lat="42.5597186945378780364990234375" lon="20.0537655316293239593505859375">
        <ele>2117</ele>
        <time>2026-06-19T10:59:40.000Z</time>
        <extensions>
          <ns3:TrackPointExtension>
            <ns3:atemp>18.0</ns3:atemp>
          </ns3:TrackPointExtension>
        </extensions>
      </trkpt>
      <trkpt lat="42.5597334466874599456787109375" lon="20.05375253967940807342529296875">
        <ele>2117.199951171875</ele>
        <time>2026-06-19T10:59:41.000Z</time>
        <extensions>
          <ns3:TrackPointExtension>
            <ns3:atemp>18.0</ns3:atemp>
          </ns3:TrackPointExtension>
        </extensions>
      </trkpt>
      <trkpt lat="42.5597465224564075469970703125" lon="20.05374080501496791839599609375">
        <ele>2117.60009765625</ele>
        <time>2026-06-19T10:59:42.000Z</time>
        <extensions>
          <ns3:TrackPointExtension>
            <ns3:atemp>18.0</ns3:atemp>
          </ns3:TrackPointExtension>
        </extensions>
      </trkpt>
      <trkpt lat="42.55976152606308460235595703125" lon="20.0537247955799102783203125">
        <ele>2117.800048828125</ele>
        <time>2026-06-19T10:59:43.000Z</time>
        <extensions>
          <ns3:TrackPointExtension>
            <ns3:atemp>18.0</ns3:atemp>
          </ns3:TrackPointExtension>
        </extensions>
      </trkpt>
      <trkpt lat="42.5597770325839519500732421875" lon="20.05370778031647205352783203125">
        <ele>2118</ele>
        <time>2026-06-19T10:59:44.000Z</time>
        <extensions>
          <ns3:TrackPointExtension>
            <ns3:atemp>18.0</ns3:atemp>
          </ns3:TrackPointExtension>
        </extensions>
      </trkpt>
      <trkpt lat="42.5597951374948024749755859375" lon="20.05369453690946102142333984375">
        <ele>2118.199951171875</ele>
        <time>2026-06-19T10:59:45.000Z</time>
        <extensions>
          <ns3:TrackPointExtension>
            <ns3:atemp>18.0</ns3:atemp>
          </ns3:TrackPointExtension>
        </extensions>
      </trkpt>
      <trkpt lat="42.5598132424056529998779296875" lon="20.053688250482082366943359375">
        <ele>2118.39990234375</ele>
        <time>2026-06-19T10:59:46.000Z</time>
        <extensions>
          <ns3:TrackPointExtension>
            <ns3:atemp>18.0</ns3:atemp>
          </ns3:TrackPointExtension>
        </extensions>
      </trkpt>
      <trkpt lat="42.55983109585940837860107421875" lon="20.053677856922149658203125">
        <ele>2118.60009765625</ele>
        <time>2026-06-19T10:59:47.000Z</time>
        <extensions>
          <ns3:TrackPointExtension>
            <ns3:atemp>18.0</ns3:atemp>
          </ns3:TrackPointExtension>
        </extensions>
      </trkpt>
      <trkpt lat="42.55984752438962459564208984375" lon="20.05366989411413669586181640625">
        <ele>2118.800048828125</ele>
        <time>2026-06-19T10:59:48.000Z</time>
        <extensions>
          <ns3:TrackPointExtension>
            <ns3:atemp>18.0</ns3:atemp>
          </ns3:TrackPointExtension>
        </extensions>
      </trkpt>
      <trkpt lat="42.559862025082111358642578125" lon="20.05366335622966289520263671875">
        <ele>2119</ele>
        <time>2026-06-19T10:59:49.000Z</time>
        <extensions>
          <ns3:TrackPointExtension>
            <ns3:atemp>18.0</ns3:atemp>
          </ns3:TrackPointExtension>
        </extensions>
      </trkpt>
      <trkpt lat="42.55987669341266155242919921875" lon="20.05365061573684215545654296875">
        <ele>2119.199951171875</ele>
        <time>2026-06-19T10:59:50.000Z</time>
        <extensions>
          <ns3:TrackPointExtension>
            <ns3:atemp>18.0</ns3:atemp>
          </ns3:TrackPointExtension>
        </extensions>
      </trkpt>
      <trkpt lat="42.5598916970193386077880859375" lon="20.0536394678056240081787109375">
        <ele>2119.39990234375</ele>
        <time>2026-06-19T10:59:51.000Z</time>
        <extensions>
          <ns3:TrackPointExtension>
            <ns3:atemp>18.0</ns3:atemp>
          </ns3:TrackPointExtension>
        </extensions>
      </trkpt>
      <trkpt lat="42.55990938283503055572509765625" lon="20.0536297447979450225830078125">
        <ele>2119.60009765625</ele>
        <time>2026-06-19T10:59:52.000Z</time>
        <extensions>
          <ns3:TrackPointExtension>
            <ns3:atemp>18.0</ns3:atemp>
          </ns3:TrackPointExtension>
        </extensions>
      </trkpt>
      <trkpt lat="42.559927403926849365234375" lon="20.05362085998058319091796875">
        <ele>2120</ele>
        <time>2026-06-19T10:59:53.000Z</time>
        <extensions>
          <ns3:TrackPointExtension>
            <ns3:atemp>18.0</ns3:atemp>
          </ns3:TrackPointExtension>
        </extensions>
      </trkpt>
      <trkpt lat="42.55994341336190700531005859375" lon="20.05362060852348804473876953125">
        <ele>2120.199951171875</ele>
        <time>2026-06-19T10:59:54.000Z</time>
        <extensions>
          <ns3:TrackPointExtension>
            <ns3:atemp>18.0</ns3:atemp>
          </ns3:TrackPointExtension>
        </extensions>
      </trkpt>
      <trkpt lat="42.559959590435028076171875" lon="20.05362211726605892181396484375">
        <ele>2120.39990234375</ele>
        <time>2026-06-19T10:59:55.000Z</time>
        <extensions>
          <ns3:TrackPointExtension>
            <ns3:atemp>18.0</ns3:atemp>
          </ns3:TrackPointExtension>
        </extensions>
      </trkpt>
      <trkpt lat="42.55997844971716403961181640625" lon="20.053624548017978668212890625">
        <ele>2120.60009765625</ele>
        <time>2026-06-19T10:59:56.000Z</time>
        <extensions>
          <ns3:TrackPointExtension>
            <ns3:atemp>18.0</ns3:atemp>
          </ns3:TrackPointExtension>
        </extensions>
      </trkpt>
      <trkpt lat="42.55999512970447540283203125" lon="20.0536304153501987457275390625">
        <ele>2120.800048828125</ele>
        <time>2026-06-19T10:59:57.000Z</time>
        <extensions>
          <ns3:TrackPointExtension>
            <ns3:atemp>18.0</ns3:atemp>
          </ns3:TrackPointExtension>
        </extensions>
      </trkpt>
      <trkpt lat="42.56001097150146961212158203125" lon="20.0536371208727359771728515625">
        <ele>2121.199951171875</ele>
        <time>2026-06-19T10:59:58.000Z</time>
        <extensions>
          <ns3:TrackPointExtension>
            <ns3:atemp>18.0</ns3:atemp>
          </ns3:TrackPointExtension>
        </extensions>
      </trkpt>
      <trkpt lat="42.56002723239362239837646484375" lon="20.05363955162465572357177734375">
        <ele>2121.39990234375</ele>
        <time>2026-06-19T10:59:59.000Z</time>
        <extensions>
          <ns3:TrackPointExtension>
            <ns3:atemp>18.0</ns3:atemp>
          </ns3:TrackPointExtension>
        </extensions>
      </trkpt>
      <trkpt lat="42.5600422360002994537353515625" lon="20.0536488555371761322021484375">
        <ele>2121.60009765625</ele>
        <time>2026-06-19T11:00:00.000Z</time>
        <extensions>
          <ns3:TrackPointExtension>
            <ns3:atemp>18.0</ns3:atemp>
          </ns3:TrackPointExtension>
        </extensions>
      </trkpt>
      <trkpt lat="42.56005589850246906280517578125" lon="20.0536579079926013946533203125">
        <ele>2121.800048828125</ele>
        <time>2026-06-19T11:00:01.000Z</time>
        <extensions>
          <ns3:TrackPointExtension>
            <ns3:atemp>18.0</ns3:atemp>
          </ns3:TrackPointExtension>
        </extensions>
      </trkpt>
      <trkpt lat="42.56006880663335323333740234375" lon="20.05366369150578975677490234375">
        <ele>2122</ele>
        <time>2026-06-19T11:00:02.000Z</time>
        <extensions>
          <ns3:TrackPointExtension>
            <ns3:atemp>18.0</ns3:atemp>
          </ns3:TrackPointExtension>
        </extensions>
      </trkpt>
      <trkpt lat="42.56008104421198368072509765625" lon="20.0536733306944370269775390625">
        <ele>2122.199951171875</ele>
        <time>2026-06-19T11:00:03.000Z</time>
        <extensions>
          <ns3:TrackPointExtension>
            <ns3:atemp>18.0</ns3:atemp>
          </ns3:TrackPointExtension>
        </extensions>
      </trkpt>
      <trkpt lat="42.56009546108543872833251953125" lon="20.05368246696889400482177734375">
        <ele>2122.39990234375</ele>
        <time>2026-06-19T11:00:04.000Z</time>
        <extensions>
          <ns3:TrackPointExtension>
            <ns3:atemp>18.0</ns3:atemp>
          </ns3:TrackPointExtension>
        </extensions>
      </trkpt>
      <trkpt lat="42.5601129792630672454833984375" lon="20.05369369871914386749267578125">
        <ele>2122.800048828125</ele>
        <time>2026-06-19T11:00:05.000Z</time>
        <extensions>
          <ns3:TrackPointExtension>
            <ns3:atemp>18.0</ns3:atemp>
          </ns3:TrackPointExtension>
        </extensions>
      </trkpt>
      <trkpt lat="42.56012865342199802398681640625" lon="20.053696967661380767822265625">
        <ele>2123</ele>
        <time>2026-06-19T11:00:06.000Z</time>
        <extensions>
          <ns3:TrackPointExtension>
            <ns3:atemp>18.0</ns3:atemp>
          </ns3:TrackPointExtension>
        </extensions>
      </trkpt>
      <trkpt lat="42.56014390848577022552490234375" lon="20.053705014288425445556640625">
        <ele>2123.199951171875</ele>
        <time>2026-06-19T11:00:07.000Z</time>
        <extensions>
          <ns3:TrackPointExtension>
            <ns3:atemp>18.0</ns3:atemp>
          </ns3:TrackPointExtension>
        </extensions>
      </trkpt>
      <trkpt lat="42.56016008555889129638671875" lon="20.0537035055458545684814453125">
        <ele>2123.39990234375</ele>
        <time>2026-06-19T11:00:08.000Z</time>
        <extensions>
          <ns3:TrackPointExtension>
            <ns3:atemp>18.0</ns3:atemp>
          </ns3:TrackPointExtension>
        </extensions>
      </trkpt>
      <trkpt lat="42.5601786933839321136474609375" lon="20.0537006556987762451171875">
        <ele>2123.60009765625</ele>
        <time>2026-06-19T11:00:09.000Z</time>
        <extensions>
          <ns3:TrackPointExtension>
            <ns3:atemp>18.0</ns3:atemp>
          </ns3:TrackPointExtension>
        </extensions>
      </trkpt>
      <trkpt lat="42.5601969659328460693359375" lon="20.053696967661380767822265625">
        <ele>2124</ele>
        <time>2026-06-19T11:00:10.000Z</time>
        <extensions>
          <ns3:TrackPointExtension>
            <ns3:atemp>18.0</ns3:atemp>
          </ns3:TrackPointExtension>
        </extensions>
      </trkpt>
      <trkpt lat="42.5602138973772525787353515625" lon="20.0536964647471904754638671875">
        <ele>2124.199951171875</ele>
        <time>2026-06-19T11:00:11.000Z</time>
        <extensions>
          <ns3:TrackPointExtension>
            <ns3:atemp>18.0</ns3:atemp>
          </ns3:TrackPointExtension>
        </extensions>
      </trkpt>
      <trkpt lat="42.5602293200790882110595703125" lon="20.0536900945007801055908203125">
        <ele>2124.39990234375</ele>
        <time>2026-06-19T11:00:12.000Z</time>
        <extensions>
          <ns3:TrackPointExtension>
            <ns3:atemp>18.0</ns3:atemp>
          </ns3:TrackPointExtension>
        </extensions>
      </trkpt>
      <trkpt lat="42.5602477602660655975341796875" lon="20.05368380807340145111083984375">
        <ele>2124.60009765625</ele>
        <time>2026-06-19T11:00:13.000Z</time>
        <extensions>
          <ns3:TrackPointExtension>
            <ns3:atemp>18.0</ns3:atemp>
          </ns3:TrackPointExtension>
        </extensions>
      </trkpt>
      <trkpt lat="42.56026745773851871490478515625" lon="20.05367659963667392730712890625">
        <ele>2124.800048828125</ele>
        <time>2026-06-19T11:00:14.000Z</time>
        <extensions>
          <ns3:TrackPointExtension>
            <ns3:atemp>18.0</ns3:atemp>
          </ns3:TrackPointExtension>
        </extensions>
      </trkpt>
      <trkpt lat="42.56028505973517894744873046875" lon="20.05367173813283443450927734375">
        <ele>2125</ele>
        <time>2026-06-19T11:00:15.000Z</time>
        <extensions>
          <ns3:TrackPointExtension>
            <ns3:atemp>18.0</ns3:atemp>
          </ns3:TrackPointExtension>
        </extensions>
      </trkpt>
      <trkpt lat="42.5603042542934417724609375" lon="20.05366570316255092620849609375">
        <ele>2125.199951171875</ele>
        <time>2026-06-19T11:00:16.000Z</time>
        <extensions>
          <ns3:TrackPointExtension>
            <ns3:atemp>18.0</ns3:atemp>
          </ns3:TrackPointExtension>
        </extensions>
      </trkpt>
      <trkpt lat="42.56032747216522693634033203125" lon="20.053656399250030517578125">
        <ele>2125.39990234375</ele>
        <time>2026-06-19T11:00:17.000Z</time>
        <extensions>
          <ns3:TrackPointExtension>
            <ns3:atemp>18.0</ns3:atemp>
          </ns3:TrackPointExtension>
        </extensions>
      </trkpt>
      <trkpt lat="42.56034658290445804595947265625" lon="20.0536470115184783935546875">
        <ele>2125.60009765625</ele>
        <time>2026-06-19T11:00:18.000Z</time>
        <extensions>
          <ns3:TrackPointExtension>
            <ns3:atemp>18.0</ns3:atemp>
          </ns3:TrackPointExtension>
        </extensions>
      </trkpt>
      <trkpt lat="42.56036636419594287872314453125" lon="20.0536391325294971466064453125">
        <ele>2125.800048828125</ele>
        <time>2026-06-19T11:00:19.000Z</time>
        <extensions>
          <ns3:TrackPointExtension>
            <ns3:atemp>18.0</ns3:atemp>
          </ns3:TrackPointExtension>
        </extensions>
      </trkpt>
      <trkpt lat="42.5603848882019519805908203125" lon="20.053632594645023345947265625">
        <ele>2126</ele>
        <time>2026-06-19T11:00:20.000Z</time>
        <extensions>
          <ns3:TrackPointExtension>
            <ns3:atemp>18.0</ns3:atemp>
          </ns3:TrackPointExtension>
        </extensions>
      </trkpt>
      <trkpt lat="42.5604029931128025054931640625" lon="20.05362597294151782989501953125">
        <ele>2126.199951171875</ele>
        <time>2026-06-19T11:00:21.000Z</time>
        <extensions>
          <ns3:TrackPointExtension>
            <ns3:atemp>18.0</ns3:atemp>
          </ns3:TrackPointExtension>
        </extensions>
      </trkpt>
      <trkpt lat="42.5604195892810821533203125" lon="20.05361608229577541351318359375">
        <ele>2126.60009765625</ele>
        <time>2026-06-19T11:00:22.000Z</time>
        <extensions>
          <ns3:TrackPointExtension>
            <ns3:atemp>18.0</ns3:atemp>
          </ns3:TrackPointExtension>
        </extensions>
      </trkpt>
      <trkpt lat="42.5604368560016155242919921875" lon="20.05360920913517475128173828125">
        <ele>2126.800048828125</ele>
        <time>2026-06-19T11:00:23.000Z</time>
        <extensions>
          <ns3:TrackPointExtension>
            <ns3:atemp>18.0</ns3:atemp>
          </ns3:TrackPointExtension>
        </extensions>
      </trkpt>
      <trkpt lat="42.56045387126505374908447265625" lon="20.0536000728607177734375">
        <ele>2127</ele>
        <time>2026-06-19T11:00:24.000Z</time>
        <extensions>
          <ns3:TrackPointExtension>
            <ns3:atemp>18.0</ns3:atemp>
          </ns3:TrackPointExtension>
        </extensions>
      </trkpt>
      <trkpt lat="42.56047298200428485870361328125" lon="20.0535875000059604644775390625">
        <ele>2127.199951171875</ele>
        <time>2026-06-19T11:00:25.000Z</time>
        <extensions>
          <ns3:TrackPointExtension>
            <ns3:atemp>18.0</ns3:atemp>
          </ns3:TrackPointExtension>
        </extensions>
      </trkpt>
      <trkpt lat="42.560491003096103668212890625" lon="20.0535761006176471710205078125">
        <ele>2127.39990234375</ele>
        <time>2026-06-19T11:00:26.000Z</time>
        <extensions>
          <ns3:TrackPointExtension>
            <ns3:atemp>18.0</ns3:atemp>
          </ns3:TrackPointExtension>
        </extensions>
      </trkpt>
      <trkpt lat="42.5605136342346668243408203125" lon="20.05356176756322383880615234375">
        <ele>2127.60009765625</ele>
        <time>2026-06-19T11:00:27.000Z</time>
        <extensions>
          <ns3:TrackPointExtension>
            <ns3:atemp>18.0</ns3:atemp>
          </ns3:TrackPointExtension>
        </extensions>
      </trkpt>
      <trkpt lat="42.56053157150745391845703125" lon="20.0535489432513713836669921875">
        <ele>2127.800048828125</ele>
        <time>2026-06-19T11:00:28.000Z</time>
        <extensions>
          <ns3:TrackPointExtension>
            <ns3:atemp>18.0</ns3:atemp>
          </ns3:TrackPointExtension>
        </extensions>
      </trkpt>
      <trkpt lat="42.56054305471479892730712890625" lon="20.0535382144153118133544921875">
        <ele>2128</ele>
        <time>2026-06-19T11:00:29.000Z</time>
        <extensions>
          <ns3:TrackPointExtension>
            <ns3:atemp>18.0</ns3:atemp>
          </ns3:TrackPointExtension>
        </extensions>
      </trkpt>
      <trkpt lat="42.56055646575987339019775390625" lon="20.053522288799285888671875">
        <ele>2128.199951171875</ele>
        <time>2026-06-19T11:00:30.000Z</time>
        <extensions>
          <ns3:TrackPointExtension>
            <ns3:atemp>18.0</ns3:atemp>
          </ns3:TrackPointExtension>
        </extensions>
      </trkpt>
      <trkpt lat="42.5605733133852481842041015625" lon="20.0535077042877674102783203125">
        <ele>2128.39990234375</ele>
        <time>2026-06-19T11:00:31.000Z</time>
        <extensions>
          <ns3:TrackPointExtension>
            <ns3:atemp>18.0</ns3:atemp>
          </ns3:TrackPointExtension>
        </extensions>
      </trkpt>
      <trkpt lat="42.5605914182960987091064453125" lon="20.0534968078136444091796875">
        <ele>2128.60009765625</ele>
        <time>2026-06-19T11:00:32.000Z</time>
        <extensions>
          <ns3:TrackPointExtension>
            <ns3:atemp>18.0</ns3:atemp>
          </ns3:TrackPointExtension>
        </extensions>
      </trkpt>
      <trkpt lat="42.5606058351695537567138671875" lon="20.0534852407872676849365234375">
        <ele>2128.60009765625</ele>
        <time>2026-06-19T11:00:33.000Z</time>
        <extensions>
          <ns3:TrackPointExtension>
            <ns3:atemp>18.0</ns3:atemp>
          </ns3:TrackPointExtension>
        </extensions>
      </trkpt>
      <trkpt lat="42.5606167316436767578125" lon="20.05347241647541522979736328125">
        <ele>2128.800048828125</ele>
        <time>2026-06-19T11:00:34.000Z</time>
        <extensions>
          <ns3:TrackPointExtension>
            <ns3:atemp>18.0</ns3:atemp>
          </ns3:TrackPointExtension>
        </extensions>
      </trkpt>
      <trkpt lat="42.56062804721295833587646484375" lon="20.0534619390964508056640625">
        <ele>2129</ele>
        <time>2026-06-19T11:00:35.000Z</time>
        <extensions>
          <ns3:TrackPointExtension>
            <ns3:atemp>18.0</ns3:atemp>
          </ns3:TrackPointExtension>
        </extensions>
      </trkpt>
      <trkpt lat="42.5606353394687175750732421875" lon="20.053454227745532989501953125">
        <ele>2129</ele>
        <time>2026-06-19T11:00:36.000Z</time>
        <extensions>
          <ns3:TrackPointExtension>
            <ns3:atemp>18.0</ns3:atemp>
          </ns3:TrackPointExtension>
        </extensions>
      </trkpt>
      <trkpt lat="42.5606333278119564056396484375" lon="20.05345196463167667388916015625">
        <ele>2129.199951171875</ele>
        <time>2026-06-19T11:00:37.000Z</time>
        <extensions>
          <ns3:TrackPointExtension>
            <ns3:atemp>18.0</ns3:atemp>
          </ns3:TrackPointExtension>
        </extensions>
      </trkpt>
      <trkpt lat="42.56063290871679782867431640625" lon="20.0534577481448650360107421875">
        <ele>2129.39990234375</ele>
        <time>2026-06-19T11:00:38.000Z</time>
        <extensions>
          <ns3:TrackPointExtension>
            <ns3:atemp>18.0</ns3:atemp>
          </ns3:TrackPointExtension>
        </extensions>
      </trkpt>
      <trkpt lat="42.56063290871679782867431640625" lon="20.05345783196389675140380859375">
        <ele>2129.60009765625</ele>
        <time>2026-06-19T11:00:39.000Z</time>
        <extensions>
          <ns3:TrackPointExtension>
            <ns3:atemp>18.0</ns3:atemp>
          </ns3:TrackPointExtension>
        </extensions>
      </trkpt>
      <trkpt lat="42.56063290871679782867431640625" lon="20.05345799960196018218994140625">
        <ele>2129.800048828125</ele>
        <time>2026-06-19T11:00:40.000Z</time>
        <extensions>
          <ns3:TrackPointExtension>
            <ns3:atemp>18.0</ns3:atemp>
          </ns3:TrackPointExtension>
        </extensions>
      </trkpt>
      <trkpt lat="42.560636512935161590576171875" lon="20.053459592163562774658203125">
        <ele>2130</ele>
        <time>2026-06-19T11:00:41.000Z</time>
        <extensions>
          <ns3:TrackPointExtension>
            <ns3:atemp>18.0</ns3:atemp>
          </ns3:TrackPointExtension>
        </extensions>
      </trkpt>
      <trkpt lat="42.5606326572597026824951171875" lon="20.05346017889678478240966796875">
        <ele>2130.199951171875</ele>
        <time>2026-06-19T11:00:42.000Z</time>
        <extensions>
          <ns3:TrackPointExtension>
            <ns3:atemp>18.0</ns3:atemp>
          </ns3:TrackPointExtension>
        </extensions>
      </trkpt>
      <trkpt lat="42.56063290871679782867431640625" lon="20.05345783196389675140380859375">
        <ele>2130.199951171875</ele>
        <time>2026-06-19T11:00:43.000Z</time>
        <extensions>
          <ns3:TrackPointExtension>
            <ns3:atemp>18.0</ns3:atemp>
          </ns3:TrackPointExtension>
        </extensions>
      </trkpt>
      <trkpt lat="42.5606309808790683746337890625" lon="20.05345900543034076690673828125">
        <ele>2130.199951171875</ele>
        <time>2026-06-19T11:00:44.000Z</time>
        <extensions>
          <ns3:TrackPointExtension>
            <ns3:atemp>18.0</ns3:atemp>
          </ns3:TrackPointExtension>
        </extensions>
      </trkpt>
      <trkpt lat="42.560643218457698822021484375" lon="20.053456909954547882080078125">
        <ele>2130.199951171875</ele>
        <time>2026-06-19T11:00:45.000Z</time>
        <extensions>
          <ns3:TrackPointExtension>
            <ns3:atemp>18.0</ns3:atemp>
          </ns3:TrackPointExtension>
        </extensions>
      </trkpt>
      <trkpt lat="42.5606547854840755462646484375" lon="20.05345129407942295074462890625">
        <ele>2130</ele>
        <time>2026-06-19T11:00:46.000Z</time>
        <extensions>
          <ns3:TrackPointExtension>
            <ns3:atemp>18.0</ns3:atemp>
          </ns3:TrackPointExtension>
        </extensions>
      </trkpt>
      <trkpt lat="42.5606663525104522705078125" lon="20.05344006232917308807373046875">
        <ele>2130</ele>
        <time>2026-06-19T11:00:47.000Z</time>
        <extensions>
          <ns3:TrackPointExtension>
            <ns3:atemp>18.0</ns3:atemp>
          </ns3:TrackPointExtension>
        </extensions>
      </trkpt>
      <trkpt lat="42.5606824457645416259765625" lon="20.0534282438457012176513671875">
        <ele>2130</ele>
        <time>2026-06-19T11:00:48.000Z</time>
        <extensions>
          <ns3:TrackPointExtension>
            <ns3:atemp>18.0</ns3:atemp>
          </ns3:TrackPointExtension>
        </extensions>
      </trkpt>
      <trkpt lat="42.56070063449442386627197265625" lon="20.05341106094419956207275390625">
        <ele>2129.800048828125</ele>
        <time>2026-06-19T11:00:49.000Z</time>
        <extensions>
          <ns3:TrackPointExtension>
            <ns3:atemp>18.0</ns3:atemp>
          </ns3:TrackPointExtension>
        </extensions>
      </trkpt>
      <trkpt lat="42.5607178173959255218505859375" lon="20.05338273011147975921630859375">
        <ele>2129.800048828125</ele>
        <time>2026-06-19T11:00:50.000Z</time>
        <extensions>
          <ns3:TrackPointExtension>
            <ns3:atemp>18.0</ns3:atemp>
          </ns3:TrackPointExtension>
        </extensions>
      </trkpt>
      <trkpt lat="42.56072997115552425384521484375" lon="20.05335691384971141815185546875">
        <ele>2130</ele>
        <time>2026-06-19T11:00:51.000Z</time>
        <extensions>
          <ns3:TrackPointExtension>
            <ns3:atemp>18.0</ns3:atemp>
          </ns3:TrackPointExtension>
        </extensions>
      </trkpt>
      <trkpt lat="42.5607429631054401397705078125" lon="20.05333411507308483123779296875">
        <ele>2130.199951171875</ele>
        <time>2026-06-19T11:00:52.000Z</time>
        <extensions>
          <ns3:TrackPointExtension>
            <ns3:atemp>18.0</ns3:atemp>
          </ns3:TrackPointExtension>
        </extensions>
      </trkpt>
      <trkpt lat="42.56075763143599033355712890625" lon="20.0533122383058071136474609375">
        <ele>2130.39990234375</ele>
        <time>2026-06-19T11:00:53.000Z</time>
        <extensions>
          <ns3:TrackPointExtension>
            <ns3:atemp>18.0</ns3:atemp>
          </ns3:TrackPointExtension>
        </extensions>
      </trkpt>
      <trkpt lat="42.56077003665268421173095703125" lon="20.053292624652385711669921875">
        <ele>2130.60009765625</ele>
        <time>2026-06-19T11:00:54.000Z</time>
        <extensions>
          <ns3:TrackPointExtension>
            <ns3:atemp>18.0</ns3:atemp>
          </ns3:TrackPointExtension>
        </extensions>
      </trkpt>
      <trkpt lat="42.56077967584133148193359375" lon="20.05327217280864715576171875">
        <ele>2130.800048828125</ele>
        <time>2026-06-19T11:00:55.000Z</time>
        <extensions>
          <ns3:TrackPointExtension>
            <ns3:atemp>18.0</ns3:atemp>
          </ns3:TrackPointExtension>
        </extensions>
      </trkpt>
      <trkpt lat="42.5607845373451709747314453125" lon="20.05325817503035068511962890625">
        <ele>2131</ele>
        <time>2026-06-19T11:00:56.000Z</time>
        <extensions>
          <ns3:TrackPointExtension>
            <ns3:atemp>18.0</ns3:atemp>
          </ns3:TrackPointExtension>
        </extensions>
      </trkpt>
      <trkpt lat="42.5607895664870738983154296875" lon="20.0532498769462108612060546875">
        <ele>2131.199951171875</ele>
        <time>2026-06-19T11:00:57.000Z</time>
        <extensions>
          <ns3:TrackPointExtension>
            <ns3:atemp>18.0</ns3:atemp>
          </ns3:TrackPointExtension>
        </extensions>
      </trkpt>
      <trkpt lat="42.56079669110476970672607421875" lon="20.05324074067175388336181640625">
        <ele>2131.60009765625</ele>
        <time>2026-06-19T11:00:58.000Z</time>
        <extensions>
          <ns3:TrackPointExtension>
            <ns3:atemp>18.0</ns3:atemp>
          </ns3:TrackPointExtension>
        </extensions>
      </trkpt>
      <trkpt lat="42.56080540828406810760498046875" lon="20.05322523415088653564453125">
        <ele>2131.60009765625</ele>
        <time>2026-06-19T11:00:59.000Z</time>
        <extensions>
          <ns3:TrackPointExtension>
            <ns3:atemp>18.0</ns3:atemp>
          </ns3:TrackPointExtension>
        </extensions>
      </trkpt>
      <trkpt lat="42.56081144325435161590576171875" lon="20.0532086379826068878173828125">
        <ele>2131.800048828125</ele>
        <time>2026-06-19T11:01:00.000Z</time>
        <extensions>
          <ns3:TrackPointExtension>
            <ns3:atemp>18.0</ns3:atemp>
          </ns3:TrackPointExtension>
        </extensions>
      </trkpt>
      <trkpt lat="42.5608173944056034088134765625" lon="20.05319413729012012481689453125">
        <ele>2131.800048828125</ele>
        <time>2026-06-19T11:01:01.000Z</time>
        <extensions>
          <ns3:TrackPointExtension>
            <ns3:atemp>18.0</ns3:atemp>
          </ns3:TrackPointExtension>
        </extensions>
      </trkpt>
      <trkpt lat="42.56082032807171344757080078125" lon="20.053186006844043731689453125">
        <ele>2132</ele>
        <time>2026-06-19T11:01:02.000Z</time>
        <extensions>
          <ns3:TrackPointExtension>
            <ns3:atemp>18.0</ns3:atemp>
          </ns3:TrackPointExtension>
        </extensions>
      </trkpt>
      <trkpt lat="42.56082669831812381744384765625" lon="20.053174607455730438232421875">
        <ele>2132.199951171875</ele>
        <time>2026-06-19T11:01:03.000Z</time>
        <extensions>
          <ns3:TrackPointExtension>
            <ns3:atemp>18.0</ns3:atemp>
          </ns3:TrackPointExtension>
        </extensions>
      </trkpt>
      <trkpt lat="42.560832984745502471923828125" lon="20.0531606934964656829833984375">
        <ele>2132.199951171875</ele>
        <time>2026-06-19T11:01:04.000Z</time>
        <extensions>
          <ns3:TrackPointExtension>
            <ns3:atemp>18.0</ns3:atemp>
          </ns3:TrackPointExtension>
        </extensions>
      </trkpt>
      <trkpt lat="42.56083809770643711090087890625" lon="20.0531489588320255279541015625">
        <ele>2132.39990234375</ele>
        <time>2026-06-19T11:01:05.000Z</time>
        <extensions>
          <ns3:TrackPointExtension>
            <ns3:atemp>18.0</ns3:atemp>
          </ns3:TrackPointExtension>
        </extensions>
      </trkpt>
      <trkpt lat="42.5608428753912448883056640625" lon="20.0531362183392047882080078125">
        <ele>2132.60009765625</ele>
        <time>2026-06-19T11:01:06.000Z</time>
        <extensions>
          <ns3:TrackPointExtension>
            <ns3:atemp>18.0</ns3:atemp>
          </ns3:TrackPointExtension>
        </extensions>
      </trkpt>
      <trkpt lat="42.56084547378122806549072265625" lon="20.05312976427376270294189453125">
        <ele>2132.800048828125</ele>
        <time>2026-06-19T11:01:07.000Z</time>
        <extensions>
          <ns3:TrackPointExtension>
            <ns3:atemp>18.0</ns3:atemp>
          </ns3:TrackPointExtension>
        </extensions>
      </trkpt>
      <trkpt lat="42.5608499161899089813232421875" lon="20.05312439985573291778564453125">
        <ele>2133.199951171875</ele>
        <time>2026-06-19T11:01:08.000Z</time>
        <extensions>
          <ns3:TrackPointExtension>
            <ns3:atemp>18.0</ns3:atemp>
          </ns3:TrackPointExtension>
        </extensions>
      </trkpt>
      <trkpt lat="42.5608519278466701507568359375" lon="20.05311819724738597869873046875">
        <ele>2133.39990234375</ele>
        <time>2026-06-19T11:01:09.000Z</time>
        <extensions>
          <ns3:TrackPointExtension>
            <ns3:atemp>18.0</ns3:atemp>
          </ns3:TrackPointExtension>
        </extensions>
      </trkpt>
      <trkpt lat="42.5608525983989238739013671875" lon="20.05311392247676849365234375">
        <ele>2133.60009765625</ele>
        <time>2026-06-19T11:01:10.000Z</time>
        <extensions>
          <ns3:TrackPointExtension>
            <ns3:atemp>18.0</ns3:atemp>
          </ns3:TrackPointExtension>
        </extensions>
      </trkpt>
      <trkpt lat="42.5608525983989238739013671875" lon="20.05310185253620147705078125">
        <ele>2133.60009765625</ele>
        <time>2026-06-19T11:01:11.000Z</time>
        <extensions>
          <ns3:TrackPointExtension>
            <ns3:atemp>18.0</ns3:atemp>
          </ns3:TrackPointExtension>
        </extensions>
      </trkpt>
      <trkpt lat="42.5608472339808940887451171875" lon="20.05309472791850566864013671875">
        <ele>2133.60009765625</ele>
        <time>2026-06-19T11:01:12.000Z</time>
        <extensions>
          <ns3:TrackPointExtension>
            <ns3:atemp>18.0</ns3:atemp>
          </ns3:TrackPointExtension>
        </extensions>
      </trkpt>
      <trkpt lat="42.56084597669541835784912109375" lon="20.05308249033987522125244140625">
        <ele>2133.60009765625</ele>
        <time>2026-06-19T11:01:13.000Z</time>
        <extensions>
          <ns3:TrackPointExtension>
            <ns3:atemp>18.0</ns3:atemp>
          </ns3:TrackPointExtension>
        </extensions>
      </trkpt>
      <trkpt lat="42.56084228865802288055419921875" lon="20.05307746119797229766845703125">
        <ele>2133.39990234375</ele>
        <time>2026-06-19T11:01:14.000Z</time>
        <extensions>
          <ns3:TrackPointExtension>
            <ns3:atemp>18.0</ns3:atemp>
          </ns3:TrackPointExtension>
        </extensions>
      </trkpt>
      <trkpt lat="42.56084027700126171112060546875" lon="20.0530705042183399200439453125">
        <ele>2133.39990234375</ele>
        <time>2026-06-19T11:01:15.000Z</time>
        <extensions>
          <ns3:TrackPointExtension>
            <ns3:atemp>18.0</ns3:atemp>
          </ns3:TrackPointExtension>
        </extensions>
      </trkpt>
      <trkpt lat="42.560841031372547149658203125" lon="20.05306656472384929656982421875">
        <ele>2133.199951171875</ele>
        <time>2026-06-19T11:01:16.000Z</time>
        <extensions>
          <ns3:TrackPointExtension>
            <ns3:atemp>18.0</ns3:atemp>
          </ns3:TrackPointExtension>
        </extensions>
      </trkpt>
      <trkpt lat="42.56084270775318145751953125" lon="20.053053908050060272216796875">
        <ele>2133</ele>
        <time>2026-06-19T11:01:17.000Z</time>
        <extensions>
          <ns3:TrackPointExtension>
            <ns3:atemp>18.0</ns3:atemp>
          </ns3:TrackPointExtension>
        </extensions>
      </trkpt>
      <trkpt lat="42.56084698252379894256591796875" lon="20.05304946564137935638427734375">
        <ele>2133</ele>
        <time>2026-06-19T11:01:18.000Z</time>
        <extensions>
          <ns3:TrackPointExtension>
            <ns3:atemp>18.0</ns3:atemp>
          </ns3:TrackPointExtension>
        </extensions>
      </trkpt>
      <trkpt lat="42.560849748551845550537109375" lon="20.05303840152919292449951171875">
        <ele>2133</ele>
        <time>2026-06-19T11:01:19.000Z</time>
        <extensions>
          <ns3:TrackPointExtension>
            <ns3:atemp>18.0</ns3:atemp>
          </ns3:TrackPointExtension>
        </extensions>
      </trkpt>
      <trkpt lat="42.56085268221795558929443359375" lon="20.05302180536091327667236328125">
        <ele>2133</ele>
        <time>2026-06-19T11:01:20.000Z</time>
        <extensions>
          <ns3:TrackPointExtension>
            <ns3:atemp>18.0</ns3:atemp>
          </ns3:TrackPointExtension>
        </extensions>
      </trkpt>
      <trkpt lat="42.56085402332246303558349609375" lon="20.0530151836574077606201171875">
        <ele>2133</ele>
        <time>2026-06-19T11:01:21.000Z</time>
        <extensions>
          <ns3:TrackPointExtension>
            <ns3:atemp>18.0</ns3:atemp>
          </ns3:TrackPointExtension>
        </extensions>
      </trkpt>
      <trkpt lat="42.5608541071414947509765625" lon="20.0530151836574077606201171875">
        <ele>2133</ele>
        <time>2026-06-19T11:01:22.000Z</time>
        <extensions>
          <ns3:TrackPointExtension>
            <ns3:atemp>18.0</ns3:atemp>
          </ns3:TrackPointExtension>
        </extensions>
      </trkpt>
      <trkpt lat="42.5608541071414947509765625" lon="20.0530151836574077606201171875">
        <ele>2133</ele>
        <time>2026-06-19T11:01:23.000Z</time>
        <extensions>
          <ns3:TrackPointExtension>
            <ns3:atemp>18.0</ns3:atemp>
          </ns3:TrackPointExtension>
        </extensions>
      </trkpt>
      <trkpt lat="42.5608541071414947509765625" lon="20.0530151836574077606201171875">
        <ele>2133</ele>
        <time>2026-06-19T11:01:24.000Z</time>
        <extensions>
          <ns3:TrackPointExtension>
            <ns3:atemp>18.0</ns3:atemp>
          </ns3:TrackPointExtension>
        </extensions>
      </trkpt>
      <trkpt lat="42.560854442417621612548828125" lon="20.05301543511450290679931640625">
        <ele>2132.800048828125</ele>
        <time>2026-06-19T11:01:25.000Z</time>
        <extensions>
          <ns3:TrackPointExtension>
            <ns3:atemp>18.0</ns3:atemp>
          </ns3:TrackPointExtension>
        </extensions>
      </trkpt>
      <trkpt lat="42.560858465731143951416015625" lon="20.05300336517393589019775390625">
        <ele>2132.800048828125</ele>
        <time>2026-06-19T11:01:26.000Z</time>
        <extensions>
          <ns3:TrackPointExtension>
            <ns3:atemp>18.0</ns3:atemp>
          </ns3:TrackPointExtension>
        </extensions>
      </trkpt>
      <trkpt lat="42.560861147940158843994140625" lon="20.05298492498695850372314453125">
        <ele>2132.800048828125</ele>
        <time>2026-06-19T11:01:27.000Z</time>
        <extensions>
          <ns3:TrackPointExtension>
            <ns3:atemp>18.0</ns3:atemp>
          </ns3:TrackPointExtension>
        </extensions>
      </trkpt>
      <trkpt lat="42.56086173467338085174560546875" lon="20.05296849645674228668212890625">
        <ele>2132.800048828125</ele>
        <time>2026-06-19T11:01:28.000Z</time>
        <extensions>
          <ns3:TrackPointExtension>
            <ns3:atemp>18.0</ns3:atemp>
          </ns3:TrackPointExtension>
        </extensions>
      </trkpt>
      <trkpt lat="42.56086542271077632904052734375" lon="20.052947960793972015380859375">
        <ele>2132.800048828125</ele>
        <time>2026-06-19T11:01:29.000Z</time>
        <extensions>
          <ns3:TrackPointExtension>
            <ns3:atemp>18.0</ns3:atemp>
          </ns3:TrackPointExtension>
        </extensions>
      </trkpt>
      <trkpt lat="42.5608653388917446136474609375" lon="20.0529347173869609832763671875">
        <ele>2132.800048828125</ele>
        <time>2026-06-19T11:01:30.000Z</time>
        <extensions>
          <ns3:TrackPointExtension>
            <ns3:atemp>18.0</ns3:atemp>
          </ns3:TrackPointExtension>
        </extensions>
      </trkpt>
      <trkpt lat="42.56086810491979122161865234375" lon="20.05292155779898166656494140625">
        <ele>2132.800048828125</ele>
        <time>2026-06-19T11:01:31.000Z</time>
        <extensions>
          <ns3:TrackPointExtension>
            <ns3:atemp>18.0</ns3:atemp>
          </ns3:TrackPointExtension>
        </extensions>
      </trkpt>
      <trkpt lat="42.56086508743464946746826171875" lon="20.05290596745908260345458984375">
        <ele>2132.800048828125</ele>
        <time>2026-06-19T11:01:32.000Z</time>
        <extensions>
          <ns3:TrackPointExtension>
            <ns3:atemp>18.0</ns3:atemp>
          </ns3:TrackPointExtension>
        </extensions>
      </trkpt>
      <trkpt lat="42.56086818873882293701171875" lon="20.05289875902235507965087890625">
        <ele>2132.800048828125</ele>
        <time>2026-06-19T11:01:33.000Z</time>
        <extensions>
          <ns3:TrackPointExtension>
            <ns3:atemp>18.0</ns3:atemp>
          </ns3:TrackPointExtension>
        </extensions>
      </trkpt>
      <trkpt lat="42.56087246350944042205810546875" lon="20.0528850965201854705810546875">
        <ele>2132.800048828125</ele>
        <time>2026-06-19T11:01:34.000Z</time>
        <extensions>
          <ns3:TrackPointExtension>
            <ns3:atemp>18.0</ns3:atemp>
          </ns3:TrackPointExtension>
        </extensions>
      </trkpt>
      <trkpt lat="42.56087749265134334564208984375" lon="20.0528750382363796234130859375">
        <ele>2133</ele>
        <time>2026-06-19T11:01:35.000Z</time>
        <extensions>
          <ns3:TrackPointExtension>
            <ns3:atemp>18.0</ns3:atemp>
          </ns3:TrackPointExtension>
        </extensions>
      </trkpt>
      <trkpt lat="42.56088294088840484619140625" lon="20.05286271683871746063232421875">
        <ele>2133</ele>
        <time>2026-06-19T11:01:36.000Z</time>
        <extensions>
          <ns3:TrackPointExtension>
            <ns3:atemp>18.0</ns3:atemp>
          </ns3:TrackPointExtension>
        </extensions>
      </trkpt>
      <trkpt lat="42.5608854554593563079833984375" lon="20.0528592802584171295166015625">
        <ele>2133</ele>
        <time>2026-06-19T11:01:37.000Z</time>
        <extensions>
          <ns3:TrackPointExtension>
            <ns3:atemp>18.0</ns3:atemp>
          </ns3:TrackPointExtension>
        </extensions>
      </trkpt>
      <trkpt lat="42.56088553927838802337646484375" lon="20.0528592802584171295166015625">
        <ele>2133</ele>
        <time>2026-06-19T11:01:38.000Z</time>
        <extensions>
          <ns3:TrackPointExtension>
            <ns3:atemp>18.0</ns3:atemp>
          </ns3:TrackPointExtension>
        </extensions>
      </trkpt>
      <trkpt lat="42.56088553927838802337646484375" lon="20.0528592802584171295166015625">
        <ele>2133.199951171875</ele>
        <time>2026-06-19T11:01:39.000Z</time>
        <extensions>
          <ns3:TrackPointExtension>
            <ns3:atemp>18.0</ns3:atemp>
          </ns3:TrackPointExtension>
        </extensions>
      </trkpt>
      <trkpt lat="42.56088553927838802337646484375" lon="20.0528592802584171295166015625">
        <ele>2133.199951171875</ele>
        <time>2026-06-19T11:01:40.000Z</time>
        <extensions>
          <ns3:TrackPointExtension>
            <ns3:atemp>18.0</ns3:atemp>
          </ns3:TrackPointExtension>
        </extensions>
      </trkpt>
      <trkpt lat="42.56088553927838802337646484375" lon="20.0528592802584171295166015625">
        <ele>2133.199951171875</ele>
        <time>2026-06-19T11:01:41.000Z</time>
        <extensions>
          <ns3:TrackPointExtension>
            <ns3:atemp>18.0</ns3:atemp>
          </ns3:TrackPointExtension>
        </extensions>
      </trkpt>
      <trkpt lat="42.56088553927838802337646484375" lon="20.0528592802584171295166015625">
        <ele>2133.199951171875</ele>
        <time>2026-06-19T11:01:42.000Z</time>
        <extensions>
          <ns3:TrackPointExtension>
            <ns3:atemp>18.0</ns3:atemp>
          </ns3:TrackPointExtension>
        </extensions>
      </trkpt>
      <trkpt lat="42.56088553927838802337646484375" lon="20.0528592802584171295166015625">
        <ele>2133.199951171875</ele>
        <time>2026-06-19T11:01:43.000Z</time>
        <extensions>
          <ns3:TrackPointExtension>
            <ns3:atemp>18.0</ns3:atemp>
          </ns3:TrackPointExtension>
        </extensions>
      </trkpt>
      <trkpt lat="42.56088553927838802337646484375" lon="20.0528592802584171295166015625">
        <ele>2133.199951171875</ele>
        <time>2026-06-19T11:01:44.000Z</time>
        <extensions>
          <ns3:TrackPointExtension>
            <ns3:atemp>18.0</ns3:atemp>
          </ns3:TrackPointExtension>
        </extensions>
      </trkpt>
      <trkpt lat="42.56088553927838802337646484375" lon="20.0528592802584171295166015625">
        <ele>2133.199951171875</ele>
        <time>2026-06-19T11:01:45.000Z</time>
        <extensions>
          <ns3:TrackPointExtension>
            <ns3:atemp>18.0</ns3:atemp>
          </ns3:TrackPointExtension>
        </extensions>
      </trkpt>
      <trkpt lat="42.56088553927838802337646484375" lon="20.0528592802584171295166015625">
        <ele>2133.199951171875</ele>
        <time>2026-06-19T11:01:46.000Z</time>
        <extensions>
          <ns3:TrackPointExtension>
            <ns3:atemp>18.0</ns3:atemp>
          </ns3:TrackPointExtension>
        </extensions>
      </trkpt>
      <trkpt lat="42.5608861260116100311279296875" lon="20.05285869352519512176513671875">
        <ele>2133.199951171875</ele>
        <time>2026-06-19T11:01:47.000Z</time>
        <extensions>
          <ns3:TrackPointExtension>
            <ns3:atemp>18.0</ns3:atemp>
          </ns3:TrackPointExtension>
        </extensions>
      </trkpt>
      <trkpt lat="42.560890652239322662353515625" lon="20.05284058861434459686279296875">
        <ele>2133.199951171875</ele>
        <time>2026-06-19T11:01:48.000Z</time>
        <extensions>
          <ns3:TrackPointExtension>
            <ns3:atemp>18.0</ns3:atemp>
          </ns3:TrackPointExtension>
        </extensions>
      </trkpt>
      <trkpt lat="42.5608951784670352935791015625" lon="20.0528180412948131561279296875">
        <ele>2133</ele>
        <time>2026-06-19T11:01:49.000Z</time>
        <extensions>
          <ns3:TrackPointExtension>
            <ns3:atemp>18.0</ns3:atemp>
          </ns3:TrackPointExtension>
        </extensions>
      </trkpt>
      <trkpt lat="42.560896016657352447509765625" lon="20.0527882017195224761962890625">
        <ele>2133</ele>
        <time>2026-06-19T11:01:50.000Z</time>
        <extensions>
          <ns3:TrackPointExtension>
            <ns3:atemp>18.0</ns3:atemp>
          </ns3:TrackPointExtension>
        </extensions>
      </trkpt>
      <trkpt lat="42.56090632639825344085693359375" lon="20.05275408737361431121826171875">
        <ele>2132.800048828125</ele>
        <time>2026-06-19T11:01:51.000Z</time>
        <extensions>
          <ns3:TrackPointExtension>
            <ns3:atemp>18.0</ns3:atemp>
          </ns3:TrackPointExtension>
        </extensions>
      </trkpt>
      <trkpt lat="42.56091470830142498016357421875" lon="20.0527285225689411163330078125">
        <ele>2132.60009765625</ele>
        <time>2026-06-19T11:01:52.000Z</time>
        <extensions>
          <ns3:TrackPointExtension>
            <ns3:atemp>18.0</ns3:atemp>
          </ns3:TrackPointExtension>
        </extensions>
      </trkpt>
      <trkpt lat="42.56092107854783535003662109375" lon="20.05270563997328281402587890625">
        <ele>2132.39990234375</ele>
        <time>2026-06-19T11:01:53.000Z</time>
        <extensions>
          <ns3:TrackPointExtension>
            <ns3:atemp>18.0</ns3:atemp>
          </ns3:TrackPointExtension>
        </extensions>
      </trkpt>
      <trkpt lat="42.56092208437621593475341796875" lon="20.052687786519527435302734375">
        <ele>2132.39990234375</ele>
        <time>2026-06-19T11:01:54.000Z</time>
        <extensions>
          <ns3:TrackPointExtension>
            <ns3:atemp>18.0</ns3:atemp>
          </ns3:TrackPointExtension>
        </extensions>
      </trkpt>
      <trkpt lat="42.56092426367104053497314453125" lon="20.052679069340229034423828125">
        <ele>2132.199951171875</ele>
        <time>2026-06-19T11:01:55.000Z</time>
        <extensions>
          <ns3:TrackPointExtension>
            <ns3:atemp>18.0</ns3:atemp>
          </ns3:TrackPointExtension>
        </extensions>
      </trkpt>
      <trkpt lat="42.56093046627938747406005859375" lon="20.05267244763672351837158203125">
        <ele>2132.199951171875</ele>
        <time>2026-06-19T11:01:56.000Z</time>
        <extensions>
          <ns3:TrackPointExtension>
            <ns3:atemp>18.0</ns3:atemp>
          </ns3:TrackPointExtension>
        </extensions>
      </trkpt>
      <trkpt lat="42.56093851290643215179443359375" lon="20.0526661612093448638916015625">
        <ele>2132.39990234375</ele>
        <time>2026-06-19T11:01:57.000Z</time>
        <extensions>
          <ns3:TrackPointExtension>
            <ns3:atemp>18.0</ns3:atemp>
          </ns3:TrackPointExtension>
        </extensions>
      </trkpt>
      <trkpt lat="42.56094731390476226806640625" lon="20.05266121588647365570068359375">
        <ele>2132.39990234375</ele>
        <time>2026-06-19T11:01:58.000Z</time>
        <extensions>
          <ns3:TrackPointExtension>
            <ns3:atemp>18.0</ns3:atemp>
          </ns3:TrackPointExtension>
        </extensions>
      </trkpt>
      <trkpt lat="42.5609568692743778228759765625" lon="20.052651576697826385498046875">
        <ele>2132.60009765625</ele>
        <time>2026-06-19T11:01:59.000Z</time>
        <extensions>
          <ns3:TrackPointExtension>
            <ns3:atemp>18.0</ns3:atemp>
          </ns3:TrackPointExtension>
        </extensions>
      </trkpt>
      <trkpt lat="42.56096181459724903106689453125" lon="20.0526386685669422149658203125">
        <ele>2132.800048828125</ele>
        <time>2026-06-19T11:02:00.000Z</time>
        <extensions>
          <ns3:TrackPointExtension>
            <ns3:atemp>18.0</ns3:atemp>
          </ns3:TrackPointExtension>
        </extensions>
      </trkpt>
      <trkpt lat="42.56096466444432735443115234375" lon="20.05262911319732666015625">
        <ele>2133</ele>
        <time>2026-06-19T11:02:01.000Z</time>
        <extensions>
          <ns3:TrackPointExtension>
            <ns3:atemp>18.0</ns3:atemp>
          </ns3:TrackPointExtension>
        </extensions>
      </trkpt>
      <trkpt lat="42.560963742434978485107421875" lon="20.05262911319732666015625">
        <ele>2133.199951171875</ele>
        <time>2026-06-19T11:02:02.000Z</time>
        <extensions>
          <ns3:TrackPointExtension>
            <ns3:atemp>18.0</ns3:atemp>
          </ns3:TrackPointExtension>
        </extensions>
      </trkpt>
      <trkpt lat="42.5609635747969150543212890625" lon="20.05262902937829494476318359375">
        <ele>2133.199951171875</ele>
        <time>2026-06-19T11:02:03.000Z</time>
        <extensions>
          <ns3:TrackPointExtension>
            <ns3:atemp>18.0</ns3:atemp>
          </ns3:TrackPointExtension>
        </extensions>
      </trkpt>
      <trkpt lat="42.5609635747969150543212890625" lon="20.05262902937829494476318359375">
        <ele>2133.199951171875</ele>
        <time>2026-06-19T11:02:04.000Z</time>
        <extensions>
          <ns3:TrackPointExtension>
            <ns3:atemp>18.0</ns3:atemp>
          </ns3:TrackPointExtension>
        </extensions>
      </trkpt>
      <trkpt lat="42.5609635747969150543212890625" lon="20.05262902937829494476318359375">
        <ele>2133.199951171875</ele>
        <time>2026-06-19T11:02:05.000Z</time>
        <extensions>
          <ns3:TrackPointExtension>
            <ns3:atemp>18.0</ns3:atemp>
          </ns3:TrackPointExtension>
        </extensions>
      </trkpt>
      <trkpt lat="42.5609635747969150543212890625" lon="20.05262902937829494476318359375">
        <ele>2133.39990234375</ele>
        <time>2026-06-19T11:02:06.000Z</time>
        <extensions>
          <ns3:TrackPointExtension>
            <ns3:atemp>18.0</ns3:atemp>
          </ns3:TrackPointExtension>
        </extensions>
      </trkpt>
      <trkpt lat="42.5609635747969150543212890625" lon="20.05262902937829494476318359375">
        <ele>2133.39990234375</ele>
        <time>2026-06-19T11:02:07.000Z</time>
        <extensions>
          <ns3:TrackPointExtension>
            <ns3:atemp>18.0</ns3:atemp>
          </ns3:TrackPointExtension>
        </extensions>
      </trkpt>
      <trkpt lat="42.5609635747969150543212890625" lon="20.05262902937829494476318359375">
        <ele>2133.39990234375</ele>
        <time>2026-06-19T11:02:08.000Z</time>
        <extensions>
          <ns3:TrackPointExtension>
            <ns3:atemp>18.0</ns3:atemp>
          </ns3:TrackPointExtension>
        </extensions>
      </trkpt>
      <trkpt lat="42.5609635747969150543212890625" lon="20.05262902937829494476318359375">
        <ele>2133.39990234375</ele>
        <time>2026-06-19T11:02:09.000Z</time>
        <extensions>
          <ns3:TrackPointExtension>
            <ns3:atemp>18.0</ns3:atemp>
          </ns3:TrackPointExtension>
        </extensions>
      </trkpt>
      <trkpt lat="42.5609635747969150543212890625" lon="20.05262902937829494476318359375">
        <ele>2133.60009765625</ele>
        <time>2026-06-19T11:02:10.000Z</time>
        <extensions>
          <ns3:TrackPointExtension>
            <ns3:atemp>18.0</ns3:atemp>
          </ns3:TrackPointExtension>
        </extensions>
      </trkpt>
      <trkpt lat="42.5609635747969150543212890625" lon="20.05262902937829494476318359375">
        <ele>2133.60009765625</ele>
        <time>2026-06-19T11:02:11.000Z</time>
        <extensions>
          <ns3:TrackPointExtension>
            <ns3:atemp>18.0</ns3:atemp>
          </ns3:TrackPointExtension>
        </extensions>
      </trkpt>
      <trkpt lat="42.5609635747969150543212890625" lon="20.05262902937829494476318359375">
        <ele>2133.60009765625</ele>
        <time>2026-06-19T11:02:12.000Z</time>
        <extensions>
          <ns3:TrackPointExtension>
            <ns3:atemp>18.0</ns3:atemp>
          </ns3:TrackPointExtension>
        </extensions>
      </trkpt>
      <trkpt lat="42.5609635747969150543212890625" lon="20.05262902937829494476318359375">
        <ele>2133.60009765625</ele>
        <time>2026-06-19T11:02:13.000Z</time>
        <extensions>
          <ns3:TrackPointExtension>
            <ns3:atemp>18.0</ns3:atemp>
          </ns3:TrackPointExtension>
        </extensions>
      </trkpt>
      <trkpt lat="42.5609635747969150543212890625" lon="20.05262902937829494476318359375">
        <ele>2133.60009765625</ele>
        <time>2026-06-19T11:02:14.000Z</time>
        <extensions>
          <ns3:TrackPointExtension>
            <ns3:atemp>18.0</ns3:atemp>
          </ns3:TrackPointExtension>
        </extensions>
      </trkpt>
      <trkpt lat="42.56096340715885162353515625" lon="20.05262802354991436004638671875">
        <ele>2133.60009765625</ele>
        <time>2026-06-19T11:02:15.000Z</time>
        <extensions>
          <ns3:TrackPointExtension>
            <ns3:atemp>18.0</ns3:atemp>
          </ns3:TrackPointExtension>
        </extensions>
      </trkpt>
      <trkpt lat="42.5609652511775493621826171875" lon="20.052614696323871612548828125">
        <ele>2133.60009765625</ele>
        <time>2026-06-19T11:02:16.000Z</time>
        <extensions>
          <ns3:TrackPointExtension>
            <ns3:atemp>18.0</ns3:atemp>
          </ns3:TrackPointExtension>
        </extensions>
      </trkpt>
      <trkpt lat="42.5609682686626911163330078125" lon="20.0525997765362262725830078125">
        <ele>2133.60009765625</ele>
        <time>2026-06-19T11:02:17.000Z</time>
        <extensions>
          <ns3:TrackPointExtension>
            <ns3:atemp>18.0</ns3:atemp>
          </ns3:TrackPointExtension>
        </extensions>
      </trkpt>
      <trkpt lat="42.56096583791077136993408203125" lon="20.05259969271719455718994140625">
        <ele>2133.60009765625</ele>
        <time>2026-06-19T11:02:18.000Z</time>
        <extensions>
          <ns3:TrackPointExtension>
            <ns3:atemp>18.0</ns3:atemp>
          </ns3:TrackPointExtension>
        </extensions>
      </trkpt>
      <trkpt lat="42.56096583791077136993408203125" lon="20.052599608898162841796875">
        <ele>2133.60009765625</ele>
        <time>2026-06-19T11:02:19.000Z</time>
        <extensions>
          <ns3:TrackPointExtension>
            <ns3:atemp>18.0</ns3:atemp>
          </ns3:TrackPointExtension>
        </extensions>
      </trkpt>
      <trkpt lat="42.56096583791077136993408203125" lon="20.0525994412600994110107421875">
        <ele>2133.800048828125</ele>
        <time>2026-06-19T11:02:20.000Z</time>
        <extensions>
          <ns3:TrackPointExtension>
            <ns3:atemp>18.0</ns3:atemp>
          </ns3:TrackPointExtension>
        </extensions>
      </trkpt>
      <trkpt lat="42.56096206605434417724609375" lon="20.0526021234691143035888671875">
        <ele>2133.800048828125</ele>
        <time>2026-06-19T11:02:21.000Z</time>
        <extensions>
          <ns3:TrackPointExtension>
            <ns3:atemp>18.0</ns3:atemp>
          </ns3:TrackPointExtension>
        </extensions>
      </trkpt>
      <trkpt lat="42.56096583791077136993408203125" lon="20.052599608898162841796875">
        <ele>2133.800048828125</ele>
        <time>2026-06-19T11:02:22.000Z</time>
        <extensions>
          <ns3:TrackPointExtension>
            <ns3:atemp>18.0</ns3:atemp>
          </ns3:TrackPointExtension>
        </extensions>
      </trkpt>
      <trkpt lat="42.56096583791077136993408203125" lon="20.052599608898162841796875">
        <ele>2134</ele>
        <time>2026-06-19T11:02:23.000Z</time>
        <extensions>
          <ns3:TrackPointExtension>
            <ns3:atemp>18.0</ns3:atemp>
          </ns3:TrackPointExtension>
        </extensions>
      </trkpt>
      <trkpt lat="42.56096583791077136993408203125" lon="20.052599608898162841796875">
        <ele>2134</ele>
        <time>2026-06-19T11:02:24.000Z</time>
        <extensions>
          <ns3:TrackPointExtension>
            <ns3:atemp>18.0</ns3:atemp>
          </ns3:TrackPointExtension>
        </extensions>
      </trkpt>
      <trkpt lat="42.56096583791077136993408203125" lon="20.052599608898162841796875">
        <ele>2134</ele>
        <time>2026-06-19T11:02:25.000Z</time>
        <extensions>
          <ns3:TrackPointExtension>
            <ns3:atemp>18.0</ns3:atemp>
          </ns3:TrackPointExtension>
        </extensions>
      </trkpt>
      <trkpt lat="42.560962401330471038818359375" lon="20.052601285278797149658203125">
        <ele>2134</ele>
        <time>2026-06-19T11:02:26.000Z</time>
        <extensions>
          <ns3:TrackPointExtension>
            <ns3:atemp>18.0</ns3:atemp>
          </ns3:TrackPointExtension>
        </extensions>
      </trkpt>
      <trkpt lat="42.56096583791077136993408203125" lon="20.052599608898162841796875">
        <ele>2134</ele>
        <time>2026-06-19T11:02:27.000Z</time>
        <extensions>
          <ns3:TrackPointExtension>
            <ns3:atemp>18.0</ns3:atemp>
          </ns3:TrackPointExtension>
        </extensions>
      </trkpt>
      <trkpt lat="42.56096583791077136993408203125" lon="20.052599608898162841796875">
        <ele>2134</ele>
        <time>2026-06-19T11:02:28.000Z</time>
        <extensions>
          <ns3:TrackPointExtension>
            <ns3:atemp>18.0</ns3:atemp>
          </ns3:TrackPointExtension>
        </extensions>
      </trkpt>
      <trkpt lat="42.5609632395207881927490234375" lon="20.0525970943272113800048828125">
        <ele>2134</ele>
        <time>2026-06-19T11:02:29.000Z</time>
        <extensions>
          <ns3:TrackPointExtension>
            <ns3:atemp>18.0</ns3:atemp>
          </ns3:TrackPointExtension>
        </extensions>
      </trkpt>
      <trkpt lat="42.56096583791077136993408203125" lon="20.052599608898162841796875">
        <ele>2134</ele>
        <time>2026-06-19T11:02:30.000Z</time>
        <extensions>
          <ns3:TrackPointExtension>
            <ns3:atemp>18.0</ns3:atemp>
          </ns3:TrackPointExtension>
        </extensions>
      </trkpt>
      <trkpt lat="42.56096919067203998565673828125" lon="20.05259030498564243316650390625">
        <ele>2134.199951171875</ele>
        <time>2026-06-19T11:02:31.000Z</time>
        <extensions>
          <ns3:TrackPointExtension>
            <ns3:atemp>18.0</ns3:atemp>
          </ns3:TrackPointExtension>
        </extensions>
      </trkpt>
      <trkpt lat="42.56096583791077136993408203125" lon="20.052599608898162841796875">
        <ele>2134.199951171875</ele>
        <time>2026-06-19T11:02:32.000Z</time>
        <extensions>
          <ns3:TrackPointExtension>
            <ns3:atemp>18.0</ns3:atemp>
          </ns3:TrackPointExtension>
        </extensions>
      </trkpt>
      <trkpt lat="42.56096583791077136993408203125" lon="20.052599608898162841796875">
        <ele>2134.39990234375</ele>
        <time>2026-06-19T11:02:33.000Z</time>
        <extensions>
          <ns3:TrackPointExtension>
            <ns3:atemp>18.0</ns3:atemp>
          </ns3:TrackPointExtension>
        </extensions>
      </trkpt>
      <trkpt lat="42.56096784956753253936767578125" lon="20.05258745513856410980224609375">
        <ele>2134.39990234375</ele>
        <time>2026-06-19T11:02:34.000Z</time>
        <extensions>
          <ns3:TrackPointExtension>
            <ns3:atemp>18.0</ns3:atemp>
          </ns3:TrackPointExtension>
        </extensions>
      </trkpt>
      <trkpt lat="42.56097170524299144744873046875" lon="20.05257823504507541656494140625">
        <ele>2134.39990234375</ele>
        <time>2026-06-19T11:02:35.000Z</time>
        <extensions>
          <ns3:TrackPointExtension>
            <ns3:atemp>18.0</ns3:atemp>
          </ns3:TrackPointExtension>
        </extensions>
      </trkpt>
      <trkpt lat="42.56096768192946910858154296875" lon="20.052577145397663116455078125">
        <ele>2134.39990234375</ele>
        <time>2026-06-19T11:02:36.000Z</time>
        <extensions>
          <ns3:TrackPointExtension>
            <ns3:atemp>18.0</ns3:atemp>
          </ns3:TrackPointExtension>
        </extensions>
      </trkpt>
      <trkpt lat="42.5609655864536762237548828125" lon="20.0525769777595996856689453125">
        <ele>2134.39990234375</ele>
        <time>2026-06-19T11:02:37.000Z</time>
        <extensions>
          <ns3:TrackPointExtension>
            <ns3:atemp>18.0</ns3:atemp>
          </ns3:TrackPointExtension>
        </extensions>
      </trkpt>
      <trkpt lat="42.56096541881561279296875" lon="20.05257572047412395477294921875">
        <ele>2134.199951171875</ele>
        <time>2026-06-19T11:02:38.000Z</time>
        <extensions>
          <ns3:TrackPointExtension>
            <ns3:atemp>18.0</ns3:atemp>
          </ns3:TrackPointExtension>
        </extensions>
      </trkpt>
      <trkpt lat="42.56096541881561279296875" lon="20.0525756366550922393798828125">
        <ele>2134.199951171875</ele>
        <time>2026-06-19T11:02:39.000Z</time>
        <extensions>
          <ns3:TrackPointExtension>
            <ns3:atemp>18.0</ns3:atemp>
          </ns3:TrackPointExtension>
        </extensions>
      </trkpt>
      <trkpt lat="42.56096541881561279296875" lon="20.0525756366550922393798828125">
        <ele>2134.199951171875</ele>
        <time>2026-06-19T11:02:40.000Z</time>
        <extensions>
          <ns3:TrackPointExtension>
            <ns3:atemp>18.0</ns3:atemp>
          </ns3:TrackPointExtension>
        </extensions>
      </trkpt>
      <trkpt lat="42.5609655864536762237548828125" lon="20.05257555283606052398681640625">
        <ele>2134</ele>
        <time>2026-06-19T11:02:41.000Z</time>
        <extensions>
          <ns3:TrackPointExtension>
            <ns3:atemp>18.0</ns3:atemp>
          </ns3:TrackPointExtension>
        </extensions>
      </trkpt>
      <trkpt lat="42.56097120232880115509033203125" lon="20.0525659136474132537841796875">
        <ele>2134.199951171875</ele>
        <time>2026-06-19T11:02:42.000Z</time>
        <extensions>
          <ns3:TrackPointExtension>
            <ns3:atemp>18.0</ns3:atemp>
          </ns3:TrackPointExtension>
        </extensions>
      </trkpt>
      <trkpt lat="42.56097413599491119384765625" lon="20.0525514967739582061767578125">
        <ele>2134.199951171875</ele>
        <time>2026-06-19T11:02:43.000Z</time>
        <extensions>
          <ns3:TrackPointExtension>
            <ns3:atemp>18.0</ns3:atemp>
          </ns3:TrackPointExtension>
        </extensions>
      </trkpt>
      <trkpt lat="42.56097421981394290924072265625" lon="20.05255107767879962921142578125">
        <ele>2134.199951171875</ele>
        <time>2026-06-19T11:02:44.000Z</time>
        <extensions>
          <ns3:TrackPointExtension>
            <ns3:atemp>18.0</ns3:atemp>
          </ns3:TrackPointExtension>
        </extensions>
      </trkpt>
      <trkpt lat="42.56097421981394290924072265625" lon="20.0525511614978313446044921875">
        <ele>2134.199951171875</ele>
        <time>2026-06-19T11:02:45.000Z</time>
        <extensions>
          <ns3:TrackPointExtension>
            <ns3:atemp>18.0</ns3:atemp>
          </ns3:TrackPointExtension>
        </extensions>
      </trkpt>
      <trkpt lat="42.56097421981394290924072265625" lon="20.0525511614978313446044921875">
        <ele>2134.39990234375</ele>
        <time>2026-06-19T11:02:46.000Z</time>
        <extensions>
          <ns3:TrackPointExtension>
            <ns3:atemp>18.0</ns3:atemp>
          </ns3:TrackPointExtension>
        </extensions>
      </trkpt>
      <trkpt lat="42.56097405217587947845458984375" lon="20.0525511614978313446044921875">
        <ele>2134.39990234375</ele>
        <time>2026-06-19T11:02:47.000Z</time>
        <extensions>
          <ns3:TrackPointExtension>
            <ns3:atemp>18.0</ns3:atemp>
          </ns3:TrackPointExtension>
        </extensions>
      </trkpt>
      <trkpt lat="42.5609756447374820709228515625" lon="20.05254068411886692047119140625">
        <ele>2134.39990234375</ele>
        <time>2026-06-19T11:02:48.000Z</time>
        <extensions>
          <ns3:TrackPointExtension>
            <ns3:atemp>18.0</ns3:atemp>
          </ns3:TrackPointExtension>
        </extensions>
      </trkpt>
      <trkpt lat="42.56097639910876750946044921875" lon="20.05252978764474391937255859375">
        <ele>2134.60009765625</ele>
        <time>2026-06-19T11:02:49.000Z</time>
        <extensions>
          <ns3:TrackPointExtension>
            <ns3:atemp>18.0</ns3:atemp>
          </ns3:TrackPointExtension>
        </extensions>
      </trkpt>
      <trkpt lat="42.56097740493714809417724609375" lon="20.05252056755125522613525390625">
        <ele>2134.60009765625</ele>
        <time>2026-06-19T11:02:50.000Z</time>
        <extensions>
          <ns3:TrackPointExtension>
            <ns3:atemp>18.0</ns3:atemp>
          </ns3:TrackPointExtension>
        </extensions>
      </trkpt>
      <trkpt lat="42.5609813444316387176513671875" lon="20.05250531248748302459716796875">
        <ele>2134.800048828125</ele>
        <time>2026-06-19T11:02:51.000Z</time>
        <extensions>
          <ns3:TrackPointExtension>
            <ns3:atemp>18.0</ns3:atemp>
          </ns3:TrackPointExtension>
        </extensions>
      </trkpt>
      <trkpt lat="42.5609816797077655792236328125" lon="20.05249575711786746978759765625">
        <ele>2134.800048828125</ele>
        <time>2026-06-19T11:02:52.000Z</time>
        <extensions>
          <ns3:TrackPointExtension>
            <ns3:atemp>18.0</ns3:atemp>
          </ns3:TrackPointExtension>
        </extensions>
      </trkpt>
      <trkpt lat="42.56098394282162189483642578125" lon="20.05248687230050563812255859375">
        <ele>2135</ele>
        <time>2026-06-19T11:02:53.000Z</time>
        <extensions>
          <ns3:TrackPointExtension>
            <ns3:atemp>18.0</ns3:atemp>
          </ns3:TrackPointExtension>
        </extensions>
      </trkpt>
      <trkpt lat="42.5609870441257953643798828125" lon="20.0524723716080188751220703125">
        <ele>2135.199951171875</ele>
        <time>2026-06-19T11:02:54.000Z</time>
        <extensions>
          <ns3:TrackPointExtension>
            <ns3:atemp>18.0</ns3:atemp>
          </ns3:TrackPointExtension>
        </extensions>
      </trkpt>
      <trkpt lat="42.56098897196352481842041015625" lon="20.05245435051620006561279296875">
        <ele>2135.199951171875</ele>
        <time>2026-06-19T11:02:55.000Z</time>
        <extensions>
          <ns3:TrackPointExtension>
            <ns3:atemp>18.0</ns3:atemp>
          </ns3:TrackPointExtension>
        </extensions>
      </trkpt>
      <trkpt lat="42.5609987787902355194091796875" lon="20.05242853425443172454833984375">
        <ele>2135.199951171875</ele>
        <time>2026-06-19T11:02:56.000Z</time>
        <extensions>
          <ns3:TrackPointExtension>
            <ns3:atemp>18.0</ns3:atemp>
          </ns3:TrackPointExtension>
        </extensions>
      </trkpt>
      <trkpt lat="42.56100640632212162017822265625" lon="20.05240581929683685302734375">
        <ele>2135.39990234375</ele>
        <time>2026-06-19T11:02:57.000Z</time>
        <extensions>
          <ns3:TrackPointExtension>
            <ns3:atemp>18.0</ns3:atemp>
          </ns3:TrackPointExtension>
        </extensions>
      </trkpt>
      <trkpt lat="42.561014704406261444091796875" lon="20.0523815117776393890380859375">
        <ele>2135.39990234375</ele>
        <time>2026-06-19T11:02:58.000Z</time>
        <extensions>
          <ns3:TrackPointExtension>
            <ns3:atemp>18.0</ns3:atemp>
          </ns3:TrackPointExtension>
        </extensions>
      </trkpt>
      <trkpt lat="42.56102166138589382171630859375" lon="20.05236449651420116424560546875">
        <ele>2135.60009765625</ele>
        <time>2026-06-19T11:02:59.000Z</time>
        <extensions>
          <ns3:TrackPointExtension>
            <ns3:atemp>18.0</ns3:atemp>
          </ns3:TrackPointExtension>
        </extensions>
      </trkpt>
      <trkpt lat="42.56102266721427440643310546875" lon="20.0523670949041843414306640625">
        <ele>2135.800048828125</ele>
        <time>2026-06-19T11:03:00.000Z</time>
        <extensions>
          <ns3:TrackPointExtension>
            <ns3:atemp>18.0</ns3:atemp>
          </ns3:TrackPointExtension>
        </extensions>
      </trkpt>
      <trkpt lat="42.56102241575717926025390625" lon="20.05236952565610408782958984375">
        <ele>2136.199951171875</ele>
        <time>2026-06-19T11:03:01.000Z</time>
        <extensions>
          <ns3:TrackPointExtension>
            <ns3:atemp>18.0</ns3:atemp>
          </ns3:TrackPointExtension>
        </extensions>
      </trkpt>
      <trkpt lat="42.56102233193814754486083984375" lon="20.05236952565610408782958984375">
        <ele>2136.39990234375</ele>
        <time>2026-06-19T11:03:02.000Z</time>
        <extensions>
          <ns3:TrackPointExtension>
            <ns3:atemp>18.0</ns3:atemp>
          </ns3:TrackPointExtension>
        </extensions>
      </trkpt>
      <trkpt lat="42.56102233193814754486083984375" lon="20.05236952565610408782958984375">
        <ele>2136.60009765625</ele>
        <time>2026-06-19T11:03:03.000Z</time>
        <extensions>
          <ns3:TrackPointExtension>
            <ns3:atemp>18.0</ns3:atemp>
          </ns3:TrackPointExtension>
        </extensions>
      </trkpt>
      <trkpt lat="42.56102233193814754486083984375" lon="20.05236952565610408782958984375">
        <ele>2136.60009765625</ele>
        <time>2026-06-19T11:03:04.000Z</time>
        <extensions>
          <ns3:TrackPointExtension>
            <ns3:atemp>18.0</ns3:atemp>
          </ns3:TrackPointExtension>
        </extensions>
      </trkpt>
      <trkpt lat="42.56102233193814754486083984375" lon="20.05236952565610408782958984375">
        <ele>2136.800048828125</ele>
        <time>2026-06-19T11:03:05.000Z</time>
        <extensions>
          <ns3:TrackPointExtension>
            <ns3:atemp>18.0</ns3:atemp>
          </ns3:TrackPointExtension>
        </extensions>
      </trkpt>
      <trkpt lat="42.56102199666202068328857421875" lon="20.0523694418370723724365234375">
        <ele>2136.800048828125</ele>
        <time>2026-06-19T11:03:06.000Z</time>
        <extensions>
          <ns3:TrackPointExtension>
            <ns3:atemp>18.0</ns3:atemp>
          </ns3:TrackPointExtension>
        </extensions>
      </trkpt>
      <trkpt lat="42.561026774346828460693359375" lon="20.05234806798398494720458984375">
        <ele>2136.800048828125</ele>
        <time>2026-06-19T11:03:07.000Z</time>
        <extensions>
          <ns3:TrackPointExtension>
            <ns3:atemp>18.0</ns3:atemp>
          </ns3:TrackPointExtension>
        </extensions>
      </trkpt>
      <trkpt lat="42.56103406660258769989013671875" lon="20.05232878960669040679931640625">
        <ele>2137</ele>
        <time>2026-06-19T11:03:08.000Z</time>
        <extensions>
          <ns3:TrackPointExtension>
            <ns3:atemp>18.0</ns3:atemp>
          </ns3:TrackPointExtension>
        </extensions>
      </trkpt>
      <trkpt lat="42.56104194559156894683837890625" lon="20.05230464972555637359619140625">
        <ele>2137</ele>
        <time>2026-06-19T11:03:09.000Z</time>
        <extensions>
          <ns3:TrackPointExtension>
            <ns3:atemp>18.0</ns3:atemp>
          </ns3:TrackPointExtension>
        </extensions>
      </trkpt>
      <trkpt lat="42.5610450468957424163818359375" lon="20.052285455167293548583984375">
        <ele>2137</ele>
        <time>2026-06-19T11:03:10.000Z</time>
        <extensions>
          <ns3:TrackPointExtension>
            <ns3:atemp>18.0</ns3:atemp>
          </ns3:TrackPointExtension>
        </extensions>
      </trkpt>
      <trkpt lat="42.56104697473347187042236328125" lon="20.052273385226726531982421875">
        <ele>2137.199951171875</ele>
        <time>2026-06-19T11:03:11.000Z</time>
        <extensions>
          <ns3:TrackPointExtension>
            <ns3:atemp>18.0</ns3:atemp>
          </ns3:TrackPointExtension>
        </extensions>
      </trkpt>
      <trkpt lat="42.561055608093738555908203125" lon="20.052263326942920684814453125">
        <ele>2137.199951171875</ele>
        <time>2026-06-19T11:03:12.000Z</time>
        <extensions>
          <ns3:TrackPointExtension>
            <ns3:atemp>18.0</ns3:atemp>
          </ns3:TrackPointExtension>
        </extensions>
      </trkpt>
      <trkpt lat="42.5610686838626861572265625" lon="20.0522477366030216217041015625">
        <ele>2137.39990234375</ele>
        <time>2026-06-19T11:03:13.000Z</time>
        <extensions>
          <ns3:TrackPointExtension>
            <ns3:atemp>18.0</ns3:atemp>
          </ns3:TrackPointExtension>
        </extensions>
      </trkpt>
      <trkpt lat="42.5610795803368091583251953125" lon="20.0522376783192157745361328125">
        <ele>2137.60009765625</ele>
        <time>2026-06-19T11:03:14.000Z</time>
        <extensions>
          <ns3:TrackPointExtension>
            <ns3:atemp>18.0</ns3:atemp>
          </ns3:TrackPointExtension>
        </extensions>
      </trkpt>
      <trkpt lat="42.56109190173447132110595703125" lon="20.0522346608340740203857421875">
        <ele>2137.60009765625</ele>
        <time>2026-06-19T11:03:15.000Z</time>
        <extensions>
          <ns3:TrackPointExtension>
            <ns3:atemp>18.0</ns3:atemp>
          </ns3:TrackPointExtension>
        </extensions>
      </trkpt>
      <trkpt lat="42.5611087493598461151123046875" lon="20.05222753621637821197509765625">
        <ele>2137.800048828125</ele>
        <time>2026-06-19T11:03:16.000Z</time>
        <extensions>
          <ns3:TrackPointExtension>
            <ns3:atemp>18.0</ns3:atemp>
          </ns3:TrackPointExtension>
        </extensions>
      </trkpt>
      <trkpt lat="42.561128698289394378662109375" lon="20.05222552455961704254150390625">
        <ele>2137.800048828125</ele>
        <time>2026-06-19T11:03:17.000Z</time>
        <extensions>
          <ns3:TrackPointExtension>
            <ns3:atemp>18.0</ns3:atemp>
          </ns3:TrackPointExtension>
        </extensions>
      </trkpt>
      <trkpt lat="42.56114822812378406524658203125" lon="20.0522227585315704345703125">
        <ele>2138</ele>
        <time>2026-06-19T11:03:18.000Z</time>
        <extensions>
          <ns3:TrackPointExtension>
            <ns3:atemp>18.0</ns3:atemp>
          </ns3:TrackPointExtension>
        </extensions>
      </trkpt>
      <trkpt lat="42.5611667521297931671142578125" lon="20.05222166888415813446044921875">
        <ele>2138</ele>
        <time>2026-06-19T11:03:19.000Z</time>
        <extensions>
          <ns3:TrackPointExtension>
            <ns3:atemp>18.0</ns3:atemp>
          </ns3:TrackPointExtension>
        </extensions>
      </trkpt>
      <trkpt lat="42.56118644960224628448486328125" lon="20.0522175617516040802001953125">
        <ele>2138.199951171875</ele>
        <time>2026-06-19T11:03:20.000Z</time>
        <extensions>
          <ns3:TrackPointExtension>
            <ns3:atemp>18.0</ns3:atemp>
          </ns3:TrackPointExtension>
        </extensions>
      </trkpt>
      <trkpt lat="42.56120338104665279388427734375" lon="20.0522071681916713714599609375">
        <ele>2138.199951171875</ele>
        <time>2026-06-19T11:03:21.000Z</time>
        <extensions>
          <ns3:TrackPointExtension>
            <ns3:atemp>18.0</ns3:atemp>
          </ns3:TrackPointExtension>
        </extensions>
      </trkpt>
      <trkpt lat="42.56121478043496608734130859375" lon="20.0521904043853282928466796875">
        <ele>2138.199951171875</ele>
        <time>2026-06-19T11:03:22.000Z</time>
        <extensions>
          <ns3:TrackPointExtension>
            <ns3:atemp>18.0</ns3:atemp>
          </ns3:TrackPointExtension>
        </extensions>
      </trkpt>
      <trkpt lat="42.56122249178588390350341796875" lon="20.052175819873809814453125">
        <ele>2138.39990234375</ele>
        <time>2026-06-19T11:03:23.000Z</time>
        <extensions>
          <ns3:TrackPointExtension>
            <ns3:atemp>18.0</ns3:atemp>
          </ns3:TrackPointExtension>
        </extensions>
      </trkpt>
      <trkpt lat="42.56123137660324573516845703125" lon="20.0521635822951793670654296875">
        <ele>2138.39990234375</ele>
        <time>2026-06-19T11:03:24.000Z</time>
        <extensions>
          <ns3:TrackPointExtension>
            <ns3:atemp>18.0</ns3:atemp>
          </ns3:TrackPointExtension>
        </extensions>
      </trkpt>
      <trkpt lat="42.56123925559222698211669921875" lon="20.05215444602072238922119140625">
        <ele>2138.39990234375</ele>
        <time>2026-06-19T11:03:25.000Z</time>
        <extensions>
          <ns3:TrackPointExtension>
            <ns3:atemp>18.0</ns3:atemp>
          </ns3:TrackPointExtension>
        </extensions>
      </trkpt>
      <trkpt lat="42.56124780513346195220947265625" lon="20.05213818512856960296630859375">
        <ele>2138.39990234375</ele>
        <time>2026-06-19T11:03:26.000Z</time>
        <extensions>
          <ns3:TrackPointExtension>
            <ns3:atemp>18.0</ns3:atemp>
          </ns3:TrackPointExtension>
        </extensions>
      </trkpt>
      <trkpt lat="42.56125518120825290679931640625" lon="20.05212745629251003265380859375">
        <ele>2138.60009765625</ele>
        <time>2026-06-19T11:03:27.000Z</time>
        <extensions>
          <ns3:TrackPointExtension>
            <ns3:atemp>18.0</ns3:atemp>
          </ns3:TrackPointExtension>
        </extensions>
      </trkpt>
      <trkpt lat="42.56126322783529758453369140625" lon="20.05212075076997280120849609375">
        <ele>2138.60009765625</ele>
        <time>2026-06-19T11:03:28.000Z</time>
        <extensions>
          <ns3:TrackPointExtension>
            <ns3:atemp>18.0</ns3:atemp>
          </ns3:TrackPointExtension>
        </extensions>
      </trkpt>
      <trkpt lat="42.56127513013780117034912109375" lon="20.05210951901972293853759765625">
        <ele>2138.60009765625</ele>
        <time>2026-06-19T11:03:29.000Z</time>
        <extensions>
          <ns3:TrackPointExtension>
            <ns3:atemp>18.0</ns3:atemp>
          </ns3:TrackPointExtension>
        </extensions>
      </trkpt>
      <trkpt lat="42.56128552369773387908935546875" lon="20.05209241993725299835205078125">
        <ele>2138.60009765625</ele>
        <time>2026-06-19T11:03:30.000Z</time>
        <extensions>
          <ns3:TrackPointExtension>
            <ns3:atemp>18.0</ns3:atemp>
          </ns3:TrackPointExtension>
        </extensions>
      </trkpt>
      <trkpt lat="42.5612965039908885955810546875" lon="20.05207481794059276580810546875">
        <ele>2138.800048828125</ele>
        <time>2026-06-19T11:03:31.000Z</time>
        <extensions>
          <ns3:TrackPointExtension>
            <ns3:atemp>18.0</ns3:atemp>
          </ns3:TrackPointExtension>
        </extensions>
      </trkpt>
      <trkpt lat="42.56131150759756565093994140625" lon="20.05206140689551830291748046875">
        <ele>2138.800048828125</ele>
        <time>2026-06-19T11:03:32.000Z</time>
        <extensions>
          <ns3:TrackPointExtension>
            <ns3:atemp>18.0</ns3:atemp>
          </ns3:TrackPointExtension>
        </extensions>
      </trkpt>
      <trkpt lat="42.56132592447102069854736328125" lon="20.05205503664910793304443359375">
        <ele>2138.800048828125</ele>
        <time>2026-06-19T11:03:33.000Z</time>
        <extensions>
          <ns3:TrackPointExtension>
            <ns3:atemp>18.0</ns3:atemp>
          </ns3:TrackPointExtension>
        </extensions>
      </trkpt>
      <trkpt lat="42.561342604458332061767578125" lon="20.05205067805945873260498046875">
        <ele>2138.800048828125</ele>
        <time>2026-06-19T11:03:34.000Z</time>
        <extensions>
          <ns3:TrackPointExtension>
            <ns3:atemp>18.0</ns3:atemp>
          </ns3:TrackPointExtension>
        </extensions>
      </trkpt>
      <trkpt lat="42.56135760806500911712646484375" lon="20.05203927867114543914794921875">
        <ele>2139</ele>
        <time>2026-06-19T11:03:35.000Z</time>
        <extensions>
          <ns3:TrackPointExtension>
            <ns3:atemp>18.0</ns3:atemp>
          </ns3:TrackPointExtension>
        </extensions>
      </trkpt>
      <trkpt lat="42.56136984564363956451416015625" lon="20.05201949737966060638427734375">
        <ele>2139</ele>
        <time>2026-06-19T11:03:36.000Z</time>
        <extensions>
          <ns3:TrackPointExtension>
            <ns3:atemp>18.0</ns3:atemp>
          </ns3:TrackPointExtension>
        </extensions>
      </trkpt>
      <trkpt lat="42.56138191558420658111572265625" lon="20.0519962795078754425048828125">
        <ele>2139.199951171875</ele>
        <time>2026-06-19T11:03:37.000Z</time>
        <extensions>
          <ns3:TrackPointExtension>
            <ns3:atemp>18.0</ns3:atemp>
          </ns3:TrackPointExtension>
        </extensions>
      </trkpt>
      <trkpt lat="42.5613932311534881591796875" lon="20.05197934806346893310546875">
        <ele>2139.39990234375</ele>
        <time>2026-06-19T11:03:38.000Z</time>
        <extensions>
          <ns3:TrackPointExtension>
            <ns3:atemp>18.0</ns3:atemp>
          </ns3:TrackPointExtension>
        </extensions>
      </trkpt>
      <trkpt lat="42.56140773184597492218017578125" lon="20.0519657693803310394287109375">
        <ele>2139.60009765625</ele>
        <time>2026-06-19T11:03:39.000Z</time>
        <extensions>
          <ns3:TrackPointExtension>
            <ns3:atemp>18.0</ns3:atemp>
          </ns3:TrackPointExtension>
        </extensions>
      </trkpt>
      <trkpt lat="42.5614254176616668701171875" lon="20.05195789039134979248046875">
        <ele>2139.60009765625</ele>
        <time>2026-06-19T11:03:40.000Z</time>
        <extensions>
          <ns3:TrackPointExtension>
            <ns3:atemp>18.0</ns3:atemp>
          </ns3:TrackPointExtension>
        </extensions>
      </trkpt>
      <trkpt lat="42.561443857848644256591796875" lon="20.0519567169249057769775390625">
        <ele>2139.800048828125</ele>
        <time>2026-06-19T11:03:41.000Z</time>
        <extensions>
          <ns3:TrackPointExtension>
            <ns3:atemp>18.0</ns3:atemp>
          </ns3:TrackPointExtension>
        </extensions>
      </trkpt>
      <trkpt lat="42.5614581070840358734130859375" lon="20.0519423000514507293701171875">
        <ele>2139.800048828125</ele>
        <time>2026-06-19T11:03:42.000Z</time>
        <extensions>
          <ns3:TrackPointExtension>
            <ns3:atemp>18.0</ns3:atemp>
          </ns3:TrackPointExtension>
        </extensions>
      </trkpt>
      <trkpt lat="42.5614736974239349365234375" lon="20.05192662589251995086669921875">
        <ele>2139.800048828125</ele>
        <time>2026-06-19T11:03:43.000Z</time>
        <extensions>
          <ns3:TrackPointExtension>
            <ns3:atemp>18.0</ns3:atemp>
          </ns3:TrackPointExtension>
        </extensions>
      </trkpt>
      <trkpt lat="42.56149155087769031524658203125" lon="20.0519127957522869110107421875">
        <ele>2139.800048828125</ele>
        <time>2026-06-19T11:03:44.000Z</time>
        <extensions>
          <ns3:TrackPointExtension>
            <ns3:atemp>18.0</ns3:atemp>
          </ns3:TrackPointExtension>
        </extensions>
      </trkpt>
      <trkpt lat="42.56151116453111171722412109375" lon="20.0518946908414363861083984375">
        <ele>2140</ele>
        <time>2026-06-19T11:03:45.000Z</time>
        <extensions>
          <ns3:TrackPointExtension>
            <ns3:atemp>18.0</ns3:atemp>
          </ns3:TrackPointExtension>
        </extensions>
      </trkpt>
      <trkpt lat="42.5615300238132476806640625" lon="20.05187608301639556884765625">
        <ele>2140</ele>
        <time>2026-06-19T11:03:46.000Z</time>
        <extensions>
          <ns3:TrackPointExtension>
            <ns3:atemp>18.0</ns3:atemp>
          </ns3:TrackPointExtension>
        </extensions>
      </trkpt>
      <trkpt lat="42.56154008209705352783203125" lon="20.05185957066714763641357421875">
        <ele>2140.199951171875</ele>
        <time>2026-06-19T11:03:47.000Z</time>
        <extensions>
          <ns3:TrackPointExtension>
            <ns3:atemp>18.0</ns3:atemp>
          </ns3:TrackPointExtension>
        </extensions>
      </trkpt>
      <trkpt lat="42.56155190058052539825439453125" lon="20.05184968002140522003173828125">
        <ele>2140.39990234375</ele>
        <time>2026-06-19T11:03:48.000Z</time>
        <extensions>
          <ns3:TrackPointExtension>
            <ns3:atemp>18.0</ns3:atemp>
          </ns3:TrackPointExtension>
        </extensions>
      </trkpt>
      <trkpt lat="42.56156623363494873046875" lon="20.05183719098567962646484375">
        <ele>2140.39990234375</ele>
        <time>2026-06-19T11:03:49.000Z</time>
        <extensions>
          <ns3:TrackPointExtension>
            <ns3:atemp>18.0</ns3:atemp>
          </ns3:TrackPointExtension>
        </extensions>
      </trkpt>
      <trkpt lat="42.561580650508403778076171875" lon="20.05182101391255855560302734375">
        <ele>2140.60009765625</ele>
        <time>2026-06-19T11:03:50.000Z</time>
        <extensions>
          <ns3:TrackPointExtension>
            <ns3:atemp>18.0</ns3:atemp>
          </ns3:TrackPointExtension>
        </extensions>
      </trkpt>
      <trkpt lat="42.5615922175347805023193359375" lon="20.05180307663977146148681640625">
        <ele>2140.800048828125</ele>
        <time>2026-06-19T11:03:51.000Z</time>
        <extensions>
          <ns3:TrackPointExtension>
            <ns3:atemp>18.0</ns3:atemp>
          </ns3:TrackPointExtension>
        </extensions>
      </trkpt>
      <trkpt lat="42.56160588003695011138916015625" lon="20.05179025232791900634765625">
        <ele>2141</ele>
        <time>2026-06-19T11:03:52.000Z</time>
        <extensions>
          <ns3:TrackPointExtension>
            <ns3:atemp>18.0</ns3:atemp>
          </ns3:TrackPointExtension>
        </extensions>
      </trkpt>
      <trkpt lat="42.5616190396249294281005859375" lon="20.051785223186016082763671875">
        <ele>2141</ele>
        <time>2026-06-19T11:03:53.000Z</time>
        <extensions>
          <ns3:TrackPointExtension>
            <ns3:atemp>18.0</ns3:atemp>
          </ns3:TrackPointExtension>
        </extensions>
      </trkpt>
      <trkpt lat="42.5616364739835262298583984375" lon="20.05177105776965618133544921875">
        <ele>2141.199951171875</ele>
        <time>2026-06-19T11:03:54.000Z</time>
        <extensions>
          <ns3:TrackPointExtension>
            <ns3:atemp>18.0</ns3:atemp>
          </ns3:TrackPointExtension>
        </extensions>
      </trkpt>
      <trkpt lat="42.5616525672376155853271484375" lon="20.0517560541629791259765625">
        <ele>2141.199951171875</ele>
        <time>2026-06-19T11:03:55.000Z</time>
        <extensions>
          <ns3:TrackPointExtension>
            <ns3:atemp>18.0</ns3:atemp>
          </ns3:TrackPointExtension>
        </extensions>
      </trkpt>
      <trkpt lat="42.56166874431073665618896484375" lon="20.051744319498538970947265625">
        <ele>2141.199951171875</ele>
        <time>2026-06-19T11:03:56.000Z</time>
        <extensions>
          <ns3:TrackPointExtension>
            <ns3:atemp>18.0</ns3:atemp>
          </ns3:TrackPointExtension>
        </extensions>
      </trkpt>
      <trkpt lat="42.56168886087834835052490234375" lon="20.05173618905246257781982421875">
        <ele>2141.39990234375</ele>
        <time>2026-06-19T11:03:57.000Z</time>
        <extensions>
          <ns3:TrackPointExtension>
            <ns3:atemp>18.0</ns3:atemp>
          </ns3:TrackPointExtension>
        </extensions>
      </trkpt>
      <trkpt lat="42.56171149201691150665283203125" lon="20.0517304055392742156982421875">
        <ele>2141.39990234375</ele>
        <time>2026-06-19T11:03:58.000Z</time>
        <extensions>
          <ns3:TrackPointExtension>
            <ns3:atemp>18.0</ns3:atemp>
          </ns3:TrackPointExtension>
        </extensions>
      </trkpt>
      <trkpt lat="42.56172540597617626190185546875" lon="20.05171473138034343719482421875">
        <ele>2141.60009765625</ele>
        <time>2026-06-19T11:03:59.000Z</time>
        <extensions>
          <ns3:TrackPointExtension>
            <ns3:atemp>18.0</ns3:atemp>
          </ns3:TrackPointExtension>
        </extensions>
      </trkpt>
      <trkpt lat="42.5617387332022190093994140625" lon="20.0516931898891925811767578125">
        <ele>2142</ele>
        <time>2026-06-19T11:04:00.000Z</time>
        <extensions>
          <ns3:TrackPointExtension>
            <ns3:atemp>18.0</ns3:atemp>
          </ns3:TrackPointExtension>
        </extensions>
      </trkpt>
      <trkpt lat="42.561751306056976318359375" lon="20.05167114548385143280029296875">
        <ele>2142.199951171875</ele>
        <time>2026-06-19T11:04:01.000Z</time>
        <extensions>
          <ns3:TrackPointExtension>
            <ns3:atemp>18.0</ns3:atemp>
          </ns3:TrackPointExtension>
        </extensions>
      </trkpt>
      <trkpt lat="42.561759017407894134521484375" lon="20.051647089421749114990234375">
        <ele>2142.39990234375</ele>
        <time>2026-06-19T11:04:02.000Z</time>
        <extensions>
          <ns3:TrackPointExtension>
            <ns3:atemp>18.0</ns3:atemp>
          </ns3:TrackPointExtension>
        </extensions>
      </trkpt>
      <trkpt lat="42.56177100352942943572998046875" lon="20.05162470974028110504150390625">
        <ele>2142.800048828125</ele>
        <time>2026-06-19T11:04:03.000Z</time>
        <extensions>
          <ns3:TrackPointExtension>
            <ns3:atemp>18.0</ns3:atemp>
          </ns3:TrackPointExtension>
        </extensions>
      </trkpt>
      <trkpt lat="42.56178692914545536041259765625" lon="20.05160383880138397216796875">
        <ele>2143</ele>
        <time>2026-06-19T11:04:04.000Z</time>
        <extensions>
          <ns3:TrackPointExtension>
            <ns3:atemp>18.0</ns3:atemp>
          </ns3:TrackPointExtension>
        </extensions>
      </trkpt>
      <trkpt lat="42.56180025637149810791015625" lon="20.05158330313861370086669921875">
        <ele>2143.39990234375</ele>
        <time>2026-06-19T11:04:05.000Z</time>
        <extensions>
          <ns3:TrackPointExtension>
            <ns3:atemp>18.0</ns3:atemp>
          </ns3:TrackPointExtension>
        </extensions>
      </trkpt>
      <trkpt lat="42.56181207485496997833251953125" lon="20.0515604205429553985595703125">
        <ele>2143.60009765625</ele>
        <time>2026-06-19T11:04:06.000Z</time>
        <extensions>
          <ns3:TrackPointExtension>
            <ns3:atemp>18.0</ns3:atemp>
          </ns3:TrackPointExtension>
        </extensions>
      </trkpt>
      <trkpt lat="42.561824060976505279541015625" lon="20.0515392981469631195068359375">
        <ele>2143.800048828125</ele>
        <time>2026-06-19T11:04:07.000Z</time>
        <extensions>
          <ns3:TrackPointExtension>
            <ns3:atemp>18.0</ns3:atemp>
          </ns3:TrackPointExtension>
        </extensions>
      </trkpt>
      <trkpt lat="42.56183269433677196502685546875" lon="20.051520355045795440673828125">
        <ele>2144</ele>
        <time>2026-06-19T11:04:08.000Z</time>
        <extensions>
          <ns3:TrackPointExtension>
            <ns3:atemp>18.0</ns3:atemp>
          </ns3:TrackPointExtension>
        </extensions>
      </trkpt>
      <trkpt lat="42.561837136745452880859375" lon="20.0514990650117397308349609375">
        <ele>2144.199951171875</ele>
        <time>2026-06-19T11:04:09.000Z</time>
        <extensions>
          <ns3:TrackPointExtension>
            <ns3:atemp>18.0</ns3:atemp>
          </ns3:TrackPointExtension>
        </extensions>
      </trkpt>
      <trkpt lat="42.5618430040776729583740234375" lon="20.05147819407284259796142578125">
        <ele>2144.39990234375</ele>
        <time>2026-06-19T11:04:10.000Z</time>
        <extensions>
          <ns3:TrackPointExtension>
            <ns3:atemp>18.0</ns3:atemp>
          </ns3:TrackPointExtension>
        </extensions>
      </trkpt>
      <trkpt lat="42.56185700185596942901611328125" lon="20.051462016999721527099609375">
        <ele>2144.60009765625</ele>
        <time>2026-06-19T11:04:11.000Z</time>
        <extensions>
          <ns3:TrackPointExtension>
            <ns3:atemp>18.0</ns3:atemp>
          </ns3:TrackPointExtension>
        </extensions>
      </trkpt>
      <trkpt lat="42.5618718378245830535888671875" lon="20.05145438946783542633056640625">
        <ele>2144.800048828125</ele>
        <time>2026-06-19T11:04:12.000Z</time>
        <extensions>
          <ns3:TrackPointExtension>
            <ns3:atemp>18.0</ns3:atemp>
          </ns3:TrackPointExtension>
        </extensions>
      </trkpt>
      <trkpt lat="42.5618845783174037933349609375" lon="20.05143997259438037872314453125">
        <ele>2145</ele>
        <time>2026-06-19T11:04:13.000Z</time>
        <extensions>
          <ns3:TrackPointExtension>
            <ns3:atemp>18.0</ns3:atemp>
          </ns3:TrackPointExtension>
        </extensions>
      </trkpt>
      <trkpt lat="42.5618921220302581787109375" lon="20.05141885019838809967041015625">
        <ele>2145</ele>
        <time>2026-06-19T11:04:14.000Z</time>
        <extensions>
          <ns3:TrackPointExtension>
            <ns3:atemp>18.0</ns3:atemp>
          </ns3:TrackPointExtension>
        </extensions>
      </trkpt>
      <trkpt lat="42.56190695799887180328369140625" lon="20.05140175111591815948486328125">
        <ele>2145.199951171875</ele>
        <time>2026-06-19T11:04:15.000Z</time>
        <extensions>
          <ns3:TrackPointExtension>
            <ns3:atemp>18.0</ns3:atemp>
          </ns3:TrackPointExtension>
        </extensions>
      </trkpt>
      <trkpt lat="42.56190947256982326507568359375" lon="20.051407702267169952392578125">
        <ele>2145.199951171875</ele>
        <time>2026-06-19T11:04:16.000Z</time>
        <extensions>
          <ns3:TrackPointExtension>
            <ns3:atemp>18.0</ns3:atemp>
          </ns3:TrackPointExtension>
        </extensions>
      </trkpt>
      <trkpt lat="42.5619117356836795806884765625" lon="20.05140828900039196014404296875">
        <ele>2145.60009765625</ele>
        <time>2026-06-19T11:04:17.000Z</time>
        <extensions>
          <ns3:TrackPointExtension>
            <ns3:atemp>18.0</ns3:atemp>
          </ns3:TrackPointExtension>
        </extensions>
      </trkpt>
      <trkpt lat="42.56191165186464786529541015625" lon="20.051408372819423675537109375">
        <ele>2145.800048828125</ele>
        <time>2026-06-19T11:04:18.000Z</time>
        <extensions>
          <ns3:TrackPointExtension>
            <ns3:atemp>18.0</ns3:atemp>
          </ns3:TrackPointExtension>
        </extensions>
      </trkpt>
      <trkpt lat="42.56191165186464786529541015625" lon="20.051408372819423675537109375">
        <ele>2145.800048828125</ele>
        <time>2026-06-19T11:04:19.000Z</time>
        <extensions>
          <ns3:TrackPointExtension>
            <ns3:atemp>18.0</ns3:atemp>
          </ns3:TrackPointExtension>
        </extensions>
      </trkpt>
      <trkpt lat="42.56191165186464786529541015625" lon="20.051408372819423675537109375">
        <ele>2146</ele>
        <time>2026-06-19T11:04:20.000Z</time>
        <extensions>
          <ns3:TrackPointExtension>
            <ns3:atemp>18.0</ns3:atemp>
          </ns3:TrackPointExtension>
        </extensions>
      </trkpt>
      <trkpt lat="42.56191165186464786529541015625" lon="20.051408372819423675537109375">
        <ele>2146</ele>
        <time>2026-06-19T11:04:21.000Z</time>
        <extensions>
          <ns3:TrackPointExtension>
            <ns3:atemp>18.0</ns3:atemp>
          </ns3:TrackPointExtension>
        </extensions>
      </trkpt>
      <trkpt lat="42.56191165186464786529541015625" lon="20.051408372819423675537109375">
        <ele>2146</ele>
        <time>2026-06-19T11:04:22.000Z</time>
        <extensions>
          <ns3:TrackPointExtension>
            <ns3:atemp>18.0</ns3:atemp>
          </ns3:TrackPointExtension>
        </extensions>
      </trkpt>
      <trkpt lat="42.56191165186464786529541015625" lon="20.051408372819423675537109375">
        <ele>2145.800048828125</ele>
        <time>2026-06-19T11:04:23.000Z</time>
        <extensions>
          <ns3:TrackPointExtension>
            <ns3:atemp>18.0</ns3:atemp>
          </ns3:TrackPointExtension>
        </extensions>
      </trkpt>
      <trkpt lat="42.56191165186464786529541015625" lon="20.051408372819423675537109375">
        <ele>2145.800048828125</ele>
        <time>2026-06-19T11:04:24.000Z</time>
        <extensions>
          <ns3:TrackPointExtension>
            <ns3:atemp>18.0</ns3:atemp>
          </ns3:TrackPointExtension>
        </extensions>
      </trkpt>
      <trkpt lat="42.56191165186464786529541015625" lon="20.051408372819423675537109375">
        <ele>2145.800048828125</ele>
        <time>2026-06-19T11:04:25.000Z</time>
        <extensions>
          <ns3:TrackPointExtension>
            <ns3:atemp>18.0</ns3:atemp>
          </ns3:TrackPointExtension>
        </extensions>
      </trkpt>
      <trkpt lat="42.56191165186464786529541015625" lon="20.051408372819423675537109375">
        <ele>2145.800048828125</ele>
        <time>2026-06-19T11:04:26.000Z</time>
        <extensions>
          <ns3:TrackPointExtension>
            <ns3:atemp>18.0</ns3:atemp>
          </ns3:TrackPointExtension>
        </extensions>
      </trkpt>
      <trkpt lat="42.56191165186464786529541015625" lon="20.051408372819423675537109375">
        <ele>2145.800048828125</ele>
        <time>2026-06-19T11:04:27.000Z</time>
        <extensions>
          <ns3:TrackPointExtension>
            <ns3:atemp>18.0</ns3:atemp>
          </ns3:TrackPointExtension>
        </extensions>
      </trkpt>
      <trkpt lat="42.56191165186464786529541015625" lon="20.051408372819423675537109375">
        <ele>2145.800048828125</ele>
        <time>2026-06-19T11:04:28.000Z</time>
        <extensions>
          <ns3:TrackPointExtension>
            <ns3:atemp>18.0</ns3:atemp>
          </ns3:TrackPointExtension>
        </extensions>
      </trkpt>
      <trkpt lat="42.56191165186464786529541015625" lon="20.051408372819423675537109375">
        <ele>2145.60009765625</ele>
        <time>2026-06-19T11:04:29.000Z</time>
        <extensions>
          <ns3:TrackPointExtension>
            <ns3:atemp>18.0</ns3:atemp>
          </ns3:TrackPointExtension>
        </extensions>
      </trkpt>
      <trkpt lat="42.56191165186464786529541015625" lon="20.051408372819423675537109375">
        <ele>2145.60009765625</ele>
        <time>2026-06-19T11:04:30.000Z</time>
        <extensions>
          <ns3:TrackPointExtension>
            <ns3:atemp>18.0</ns3:atemp>
          </ns3:TrackPointExtension>
        </extensions>
      </trkpt>
      <trkpt lat="42.56191165186464786529541015625" lon="20.051408372819423675537109375">
        <ele>2145.60009765625</ele>
        <time>2026-06-19T11:04:31.000Z</time>
        <extensions>
          <ns3:TrackPointExtension>
            <ns3:atemp>18.0</ns3:atemp>
          </ns3:TrackPointExtension>
        </extensions>
      </trkpt>
      <trkpt lat="42.56191165186464786529541015625" lon="20.051408372819423675537109375">
        <ele>2145.60009765625</ele>
        <time>2026-06-19T11:04:32.000Z</time>
        <extensions>
          <ns3:TrackPointExtension>
            <ns3:atemp>18.0</ns3:atemp>
          </ns3:TrackPointExtension>
        </extensions>
      </trkpt>
      <trkpt lat="42.56191165186464786529541015625" lon="20.051408372819423675537109375">
        <ele>2145.60009765625</ele>
        <time>2026-06-19T11:04:33.000Z</time>
        <extensions>
          <ns3:TrackPointExtension>
            <ns3:atemp>18.0</ns3:atemp>
          </ns3:TrackPointExtension>
        </extensions>
      </trkpt>
      <trkpt lat="42.56191165186464786529541015625" lon="20.051408372819423675537109375">
        <ele>2145.60009765625</ele>
        <time>2026-06-19T11:04:34.000Z</time>
        <extensions>
          <ns3:TrackPointExtension>
            <ns3:atemp>18.0</ns3:atemp>
          </ns3:TrackPointExtension>
        </extensions>
      </trkpt>
      <trkpt lat="42.56191165186464786529541015625" lon="20.051408372819423675537109375">
        <ele>2145.60009765625</ele>
        <time>2026-06-19T11:04:35.000Z</time>
        <extensions>
          <ns3:TrackPointExtension>
            <ns3:atemp>18.0</ns3:atemp>
          </ns3:TrackPointExtension>
        </extensions>
      </trkpt>
      <trkpt lat="42.56191165186464786529541015625" lon="20.051408372819423675537109375">
        <ele>2145.60009765625</ele>
        <time>2026-06-19T11:04:36.000Z</time>
        <extensions>
          <ns3:TrackPointExtension>
            <ns3:atemp>18.0</ns3:atemp>
          </ns3:TrackPointExtension>
        </extensions>
      </trkpt>
      <trkpt lat="42.56191165186464786529541015625" lon="20.051408372819423675537109375">
        <ele>2145.60009765625</ele>
        <time>2026-06-19T11:04:37.000Z</time>
        <extensions>
          <ns3:TrackPointExtension>
            <ns3:atemp>18.0</ns3:atemp>
          </ns3:TrackPointExtension>
        </extensions>
      </trkpt>
      <trkpt lat="42.56191165186464786529541015625" lon="20.051408372819423675537109375">
        <ele>2145.60009765625</ele>
        <time>2026-06-19T11:04:38.000Z</time>
        <extensions>
          <ns3:TrackPointExtension>
            <ns3:atemp>18.0</ns3:atemp>
          </ns3:TrackPointExtension>
        </extensions>
      </trkpt>
      <trkpt lat="42.56191165186464786529541015625" lon="20.051408372819423675537109375">
        <ele>2145.60009765625</ele>
        <time>2026-06-19T11:04:39.000Z</time>
        <extensions>
          <ns3:TrackPointExtension>
            <ns3:atemp>18.0</ns3:atemp>
          </ns3:TrackPointExtension>
        </extensions>
      </trkpt>
      <trkpt lat="42.56191165186464786529541015625" lon="20.051408372819423675537109375">
        <ele>2145.60009765625</ele>
        <time>2026-06-19T11:04:40.000Z</time>
        <extensions>
          <ns3:TrackPointExtension>
            <ns3:atemp>18.0</ns3:atemp>
          </ns3:TrackPointExtension>
        </extensions>
      </trkpt>
      <trkpt lat="42.56191165186464786529541015625" lon="20.051408372819423675537109375">
        <ele>2145.60009765625</ele>
        <time>2026-06-19T11:04:41.000Z</time>
        <extensions>
          <ns3:TrackPointExtension>
            <ns3:atemp>18.0</ns3:atemp>
          </ns3:TrackPointExtension>
        </extensions>
      </trkpt>
      <trkpt lat="42.56191165186464786529541015625" lon="20.051408372819423675537109375">
        <ele>2145.60009765625</ele>
        <time>2026-06-19T11:04:42.000Z</time>
        <extensions>
          <ns3:TrackPointExtension>
            <ns3:atemp>18.0</ns3:atemp>
          </ns3:TrackPointExtension>
        </extensions>
      </trkpt>
      <trkpt lat="42.56191165186464786529541015625" lon="20.051408372819423675537109375">
        <ele>2145.60009765625</ele>
        <time>2026-06-19T11:04:43.000Z</time>
        <extensions>
          <ns3:TrackPointExtension>
            <ns3:atemp>18.0</ns3:atemp>
          </ns3:TrackPointExtension>
        </extensions>
      </trkpt>
      <trkpt lat="42.56191165186464786529541015625" lon="20.051408372819423675537109375">
        <ele>2145.60009765625</ele>
        <time>2026-06-19T11:04:44.000Z</time>
        <extensions>
          <ns3:TrackPointExtension>
            <ns3:atemp>18.0</ns3:atemp>
          </ns3:TrackPointExtension>
        </extensions>
      </trkpt>
      <trkpt lat="42.56191165186464786529541015625" lon="20.051408372819423675537109375">
        <ele>2145.60009765625</ele>
        <time>2026-06-19T11:04:45.000Z</time>
        <extensions>
          <ns3:TrackPointExtension>
            <ns3:atemp>18.0</ns3:atemp>
          </ns3:TrackPointExtension>
        </extensions>
      </trkpt>
      <trkpt lat="42.56191165186464786529541015625" lon="20.051408372819423675537109375">
        <ele>2145.60009765625</ele>
        <time>2026-06-19T11:04:46.000Z</time>
        <extensions>
          <ns3:TrackPointExtension>
            <ns3:atemp>18.0</ns3:atemp>
          </ns3:TrackPointExtension>
        </extensions>
      </trkpt>
      <trkpt lat="42.56191165186464786529541015625" lon="20.051408372819423675537109375">
        <ele>2145.60009765625</ele>
        <time>2026-06-19T11:04:47.000Z</time>
        <extensions>
          <ns3:TrackPointExtension>
            <ns3:atemp>18.0</ns3:atemp>
          </ns3:TrackPointExtension>
        </extensions>
      </trkpt>
      <trkpt lat="42.56191165186464786529541015625" lon="20.051408372819423675537109375">
        <ele>2145.60009765625</ele>
        <time>2026-06-19T11:04:48.000Z</time>
        <extensions>
          <ns3:TrackPointExtension>
            <ns3:atemp>18.0</ns3:atemp>
          </ns3:TrackPointExtension>
        </extensions>
      </trkpt>
      <trkpt lat="42.56191165186464786529541015625" lon="20.051408372819423675537109375">
        <ele>2145.800048828125</ele>
        <time>2026-06-19T11:04:49.000Z</time>
        <extensions>
          <ns3:TrackPointExtension>
            <ns3:atemp>18.0</ns3:atemp>
          </ns3:TrackPointExtension>
        </extensions>
      </trkpt>
      <trkpt lat="42.56191165186464786529541015625" lon="20.051408372819423675537109375">
        <ele>2145.800048828125</ele>
        <time>2026-06-19T11:04:50.000Z</time>
        <extensions>
          <ns3:TrackPointExtension>
            <ns3:atemp>18.0</ns3:atemp>
          </ns3:TrackPointExtension>
        </extensions>
      </trkpt>
      <trkpt lat="42.56191165186464786529541015625" lon="20.051408372819423675537109375">
        <ele>2145.800048828125</ele>
        <time>2026-06-19T11:04:51.000Z</time>
        <extensions>
          <ns3:TrackPointExtension>
            <ns3:atemp>18.0</ns3:atemp>
          </ns3:TrackPointExtension>
        </extensions>
      </trkpt>
      <trkpt lat="42.56191165186464786529541015625" lon="20.051408372819423675537109375">
        <ele>2145.800048828125</ele>
        <time>2026-06-19T11:04:52.000Z</time>
        <extensions>
          <ns3:TrackPointExtension>
            <ns3:atemp>18.0</ns3:atemp>
          </ns3:TrackPointExtension>
        </extensions>
      </trkpt>
      <trkpt lat="42.56191165186464786529541015625" lon="20.051408372819423675537109375">
        <ele>2145.800048828125</ele>
        <time>2026-06-19T11:04:53.000Z</time>
        <extensions>
          <ns3:TrackPointExtension>
            <ns3:atemp>18.0</ns3:atemp>
          </ns3:TrackPointExtension>
        </extensions>
      </trkpt>
      <trkpt lat="42.56191165186464786529541015625" lon="20.051408372819423675537109375">
        <ele>2145.800048828125</ele>
        <time>2026-06-19T11:04:54.000Z</time>
        <extensions>
          <ns3:TrackPointExtension>
            <ns3:atemp>18.0</ns3:atemp>
          </ns3:TrackPointExtension>
        </extensions>
      </trkpt>
      <trkpt lat="42.56191165186464786529541015625" lon="20.051408372819423675537109375">
        <ele>2145.800048828125</ele>
        <time>2026-06-19T11:04:55.000Z</time>
        <extensions>
          <ns3:TrackPointExtension>
            <ns3:atemp>18.0</ns3:atemp>
          </ns3:TrackPointExtension>
        </extensions>
      </trkpt>
      <trkpt lat="42.56191165186464786529541015625" lon="20.051408372819423675537109375">
        <ele>2145.800048828125</ele>
        <time>2026-06-19T11:04:56.000Z</time>
        <extensions>
          <ns3:TrackPointExtension>
            <ns3:atemp>18.0</ns3:atemp>
          </ns3:TrackPointExtension>
        </extensions>
      </trkpt>
      <trkpt lat="42.56191156804561614990234375" lon="20.0514085404574871063232421875">
        <ele>2145.800048828125</ele>
        <time>2026-06-19T11:04:57.000Z</time>
        <extensions>
          <ns3:TrackPointExtension>
            <ns3:atemp>18.0</ns3:atemp>
          </ns3:TrackPointExtension>
        </extensions>
      </trkpt>
      <trkpt lat="42.56191433407366275787353515625" lon="20.0513978116214275360107421875">
        <ele>2145.800048828125</ele>
        <time>2026-06-19T11:04:58.000Z</time>
        <extensions>
          <ns3:TrackPointExtension>
            <ns3:atemp>18.0</ns3:atemp>
          </ns3:TrackPointExtension>
        </extensions>
      </trkpt>
      <trkpt lat="42.56191450171172618865966796875" lon="20.05138515494763851165771484375">
        <ele>2145.60009765625</ele>
        <time>2026-06-19T11:04:59.000Z</time>
        <extensions>
          <ns3:TrackPointExtension>
            <ns3:atemp>18.0</ns3:atemp>
          </ns3:TrackPointExtension>
        </extensions>
      </trkpt>
      <trkpt lat="42.56191483698785305023193359375" lon="20.05137543193995952606201171875">
        <ele>2145.60009765625</ele>
        <time>2026-06-19T11:05:00.000Z</time>
        <extensions>
          <ns3:TrackPointExtension>
            <ns3:atemp>18.0</ns3:atemp>
          </ns3:TrackPointExtension>
        </extensions>
      </trkpt>
      <trkpt lat="42.5619197823107242584228515625" lon="20.05135598592460155487060546875">
        <ele>2145.60009765625</ele>
        <time>2026-06-19T11:05:01.000Z</time>
        <extensions>
          <ns3:TrackPointExtension>
            <ns3:atemp>18.0</ns3:atemp>
          </ns3:TrackPointExtension>
        </extensions>
      </trkpt>
      <trkpt lat="42.5619268231093883514404296875" lon="20.05132597871124744415283203125">
        <ele>2145.39990234375</ele>
        <time>2026-06-19T11:05:02.000Z</time>
        <extensions>
          <ns3:TrackPointExtension>
            <ns3:atemp>18.0</ns3:atemp>
          </ns3:TrackPointExtension>
        </extensions>
      </trkpt>
      <trkpt lat="42.56193746812641620635986328125" lon="20.05130552686750888824462890625">
        <ele>2145.39990234375</ele>
        <time>2026-06-19T11:05:03.000Z</time>
        <extensions>
          <ns3:TrackPointExtension>
            <ns3:atemp>18.0</ns3:atemp>
          </ns3:TrackPointExtension>
        </extensions>
      </trkpt>
      <trkpt lat="42.56195439957082271575927734375" lon="20.0512891821563243865966796875">
        <ele>2145.199951171875</ele>
        <time>2026-06-19T11:05:04.000Z</time>
        <extensions>
          <ns3:TrackPointExtension>
            <ns3:atemp>18.0</ns3:atemp>
          </ns3:TrackPointExtension>
        </extensions>
      </trkpt>
      <trkpt lat="42.56197351031005382537841796875" lon="20.05128222517669200897216796875">
        <ele>2145.199951171875</ele>
        <time>2026-06-19T11:05:05.000Z</time>
        <extensions>
          <ns3:TrackPointExtension>
            <ns3:atemp>18.0</ns3:atemp>
          </ns3:TrackPointExtension>
        </extensions>
      </trkpt>
      <trkpt lat="42.561992369592189788818359375" lon="20.0512761063873767852783203125">
        <ele>2145</ele>
        <time>2026-06-19T11:05:06.000Z</time>
        <extensions>
          <ns3:TrackPointExtension>
            <ns3:atemp>18.0</ns3:atemp>
          </ns3:TrackPointExtension>
        </extensions>
      </trkpt>
      <trkpt lat="42.56201642565429210662841796875" lon="20.05126797594130039215087890625">
        <ele>2145</ele>
        <time>2026-06-19T11:05:07.000Z</time>
        <extensions>
          <ns3:TrackPointExtension>
            <ns3:atemp>18.0</ns3:atemp>
          </ns3:TrackPointExtension>
        </extensions>
      </trkpt>
      <trkpt lat="42.56203721277415752410888671875" lon="20.05125104449689388275146484375">
        <ele>2145</ele>
        <time>2026-06-19T11:05:08.000Z</time>
        <extensions>
          <ns3:TrackPointExtension>
            <ns3:atemp>18.0</ns3:atemp>
          </ns3:TrackPointExtension>
        </extensions>
      </trkpt>
      <trkpt lat="42.56205481477081775665283203125" lon="20.051234029233455657958984375">
        <ele>2144.800048828125</ele>
        <time>2026-06-19T11:05:09.000Z</time>
        <extensions>
          <ns3:TrackPointExtension>
            <ns3:atemp>18.0</ns3:atemp>
          </ns3:TrackPointExtension>
        </extensions>
      </trkpt>
      <trkpt lat="42.5620693154633045196533203125" lon="20.05122204311192035675048828125">
        <ele>2144.800048828125</ele>
        <time>2026-06-19T11:05:10.000Z</time>
        <extensions>
          <ns3:TrackPointExtension>
            <ns3:atemp>18.0</ns3:atemp>
          </ns3:TrackPointExtension>
        </extensions>
      </trkpt>
      <trkpt lat="42.56208649836480617523193359375" lon="20.05121491849422454833984375">
        <ele>2144.800048828125</ele>
        <time>2026-06-19T11:05:11.000Z</time>
        <extensions>
          <ns3:TrackPointExtension>
            <ns3:atemp>18.0</ns3:atemp>
          </ns3:TrackPointExtension>
        </extensions>
      </trkpt>
      <trkpt lat="42.562100328505039215087890625" lon="20.051220953464508056640625">
        <ele>2144.800048828125</ele>
        <time>2026-06-19T11:05:12.000Z</time>
        <extensions>
          <ns3:TrackPointExtension>
            <ns3:atemp>18.0</ns3:atemp>
          </ns3:TrackPointExtension>
        </extensions>
      </trkpt>
      <trkpt lat="42.56210602819919586181640625" lon="20.0512217916548252105712890625">
        <ele>2145</ele>
        <time>2026-06-19T11:05:13.000Z</time>
        <extensions>
          <ns3:TrackPointExtension>
            <ns3:atemp>18.0</ns3:atemp>
          </ns3:TrackPointExtension>
        </extensions>
      </trkpt>
      <trkpt lat="42.5621201097965240478515625" lon="20.05122137255966663360595703125">
        <ele>2145</ele>
        <time>2026-06-19T11:05:14.000Z</time>
        <extensions>
          <ns3:TrackPointExtension>
            <ns3:atemp>18.0</ns3:atemp>
          </ns3:TrackPointExtension>
        </extensions>
      </trkpt>
      <trkpt lat="42.5621362030506134033203125" lon="20.05121382884681224822998046875">
        <ele>2145.199951171875</ele>
        <time>2026-06-19T11:05:15.000Z</time>
        <extensions>
          <ns3:TrackPointExtension>
            <ns3:atemp>18.0</ns3:atemp>
          </ns3:TrackPointExtension>
        </extensions>
      </trkpt>
      <trkpt lat="42.56215539760887622833251953125" lon="20.051197819411754608154296875">
        <ele>2145.39990234375</ele>
        <time>2026-06-19T11:05:16.000Z</time>
        <extensions>
          <ns3:TrackPointExtension>
            <ns3:atemp>18.0</ns3:atemp>
          </ns3:TrackPointExtension>
        </extensions>
      </trkpt>
      <trkpt lat="42.56217710673809051513671875" lon="20.05117929540574550628662109375">
        <ele>2145.39990234375</ele>
        <time>2026-06-19T11:05:17.000Z</time>
        <extensions>
          <ns3:TrackPointExtension>
            <ns3:atemp>18.0</ns3:atemp>
          </ns3:TrackPointExtension>
        </extensions>
      </trkpt>
      <trkpt lat="42.56219856441020965576171875" lon="20.0511632859706878662109375">
        <ele>2145.39990234375</ele>
        <time>2026-06-19T11:05:18.000Z</time>
        <extensions>
          <ns3:TrackPointExtension>
            <ns3:atemp>18.0</ns3:atemp>
          </ns3:TrackPointExtension>
        </extensions>
      </trkpt>
      <trkpt lat="42.56222513504326343536376953125" lon="20.0511406548321247100830078125">
        <ele>2145.39990234375</ele>
        <time>2026-06-19T11:05:19.000Z</time>
        <extensions>
          <ns3:TrackPointExtension>
            <ns3:atemp>18.0</ns3:atemp>
          </ns3:TrackPointExtension>
        </extensions>
      </trkpt>
      <trkpt lat="42.562257237732410430908203125" lon="20.05112104117870330810546875">
        <ele>2145.199951171875</ele>
        <time>2026-06-19T11:05:20.000Z</time>
        <extensions>
          <ns3:TrackPointExtension>
            <ns3:atemp>18.0</ns3:atemp>
          </ns3:TrackPointExtension>
        </extensions>
      </trkpt>
      <trkpt lat="42.56228883750736713409423828125" lon="20.05110838450491428375244140625">
        <ele>2145.199951171875</ele>
        <time>2026-06-19T11:05:21.000Z</time>
        <extensions>
          <ns3:TrackPointExtension>
            <ns3:atemp>18.0</ns3:atemp>
          </ns3:TrackPointExtension>
        </extensions>
      </trkpt>
      <trkpt lat="42.56231247447431087493896484375" lon="20.051092207431793212890625">
        <ele>2145</ele>
        <time>2026-06-19T11:05:22.000Z</time>
        <extensions>
          <ns3:TrackPointExtension>
            <ns3:atemp>18.0</ns3:atemp>
          </ns3:TrackPointExtension>
        </extensions>
      </trkpt>
      <trkpt lat="42.56233493797481060028076171875" lon="20.05107703618705272674560546875">
        <ele>2145</ele>
        <time>2026-06-19T11:05:23.000Z</time>
        <extensions>
          <ns3:TrackPointExtension>
            <ns3:atemp>18.0</ns3:atemp>
          </ns3:TrackPointExtension>
        </extensions>
      </trkpt>
      <trkpt lat="42.56236016750335693359375" lon="20.0510613620281219482421875">
        <ele>2145</ele>
        <time>2026-06-19T11:05:24.000Z</time>
        <extensions>
          <ns3:TrackPointExtension>
            <ns3:atemp>18.0</ns3:atemp>
          </ns3:TrackPointExtension>
        </extensions>
      </trkpt>
      <trkpt lat="42.56238321773707866668701171875" lon="20.05103512667119503021240234375">
        <ele>2145</ele>
        <time>2026-06-19T11:05:25.000Z</time>
        <extensions>
          <ns3:TrackPointExtension>
            <ns3:atemp>18.0</ns3:atemp>
          </ns3:TrackPointExtension>
        </extensions>
      </trkpt>
      <trkpt lat="42.56240450777113437652587890625" lon="20.05100905895233154296875">
        <ele>2145</ele>
        <time>2026-06-19T11:05:26.000Z</time>
        <extensions>
          <ns3:TrackPointExtension>
            <ns3:atemp>18.0</ns3:atemp>
          </ns3:TrackPointExtension>
        </extensions>
      </trkpt>
      <trkpt lat="42.56242378614842891693115234375" lon="20.050979554653167724609375">
        <ele>2144.800048828125</ele>
        <time>2026-06-19T11:05:27.000Z</time>
        <extensions>
          <ns3:TrackPointExtension>
            <ns3:atemp>18.0</ns3:atemp>
          </ns3:TrackPointExtension>
        </extensions>
      </trkpt>
      <trkpt lat="42.56244021467864513397216796875" lon="20.05095968954265117645263671875">
        <ele>2145</ele>
        <time>2026-06-19T11:05:28.000Z</time>
        <extensions>
          <ns3:TrackPointExtension>
            <ns3:atemp>18.0</ns3:atemp>
          </ns3:TrackPointExtension>
        </extensions>
      </trkpt>
      <trkpt lat="42.562454044818878173828125" lon="20.0509341247379779815673828125">
        <ele>2145</ele>
        <time>2026-06-19T11:05:29.000Z</time>
        <extensions>
          <ns3:TrackPointExtension>
            <ns3:atemp>18.0</ns3:atemp>
          </ns3:TrackPointExtension>
        </extensions>
      </trkpt>
      <trkpt lat="42.56247005425393581390380859375" lon="20.05090780556201934814453125">
        <ele>2145</ele>
        <time>2026-06-19T11:05:30.000Z</time>
        <extensions>
          <ns3:TrackPointExtension>
            <ns3:atemp>18.0</ns3:atemp>
          </ns3:TrackPointExtension>
        </extensions>
      </trkpt>
      <trkpt lat="42.5624837167561054229736328125" lon="20.0508881919085979461669921875">
        <ele>2145</ele>
        <time>2026-06-19T11:05:31.000Z</time>
        <extensions>
          <ns3:TrackPointExtension>
            <ns3:atemp>18.0</ns3:atemp>
          </ns3:TrackPointExtension>
        </extensions>
      </trkpt>
      <trkpt lat="42.5624974630773067474365234375" lon="20.05087134428322315216064453125">
        <ele>2145</ele>
        <time>2026-06-19T11:05:32.000Z</time>
        <extensions>
          <ns3:TrackPointExtension>
            <ns3:atemp>18.0</ns3:atemp>
          </ns3:TrackPointExtension>
        </extensions>
      </trkpt>
      <trkpt lat="42.562515735626220703125" lon="20.05084879696369171142578125">
        <ele>2145</ele>
        <time>2026-06-19T11:05:33.000Z</time>
        <extensions>
          <ns3:TrackPointExtension>
            <ns3:atemp>18.0</ns3:atemp>
          </ns3:TrackPointExtension>
        </extensions>
      </trkpt>
      <trkpt lat="42.56252520717680454254150390625" lon="20.05083463154733180999755859375">
        <ele>2145.199951171875</ele>
        <time>2026-06-19T11:05:34.000Z</time>
        <extensions>
          <ns3:TrackPointExtension>
            <ns3:atemp>18.0</ns3:atemp>
          </ns3:TrackPointExtension>
        </extensions>
      </trkpt>
      <trkpt lat="42.56252981722354888916015625" lon="20.05082423798739910125732421875">
        <ele>2145.199951171875</ele>
        <time>2026-06-19T11:05:35.000Z</time>
        <extensions>
          <ns3:TrackPointExtension>
            <ns3:atemp>18.0</ns3:atemp>
          </ns3:TrackPointExtension>
        </extensions>
      </trkpt>
      <trkpt lat="42.56254113279283046722412109375" lon="20.05080479197204113006591796875">
        <ele>2145.199951171875</ele>
        <time>2026-06-19T11:05:36.000Z</time>
        <extensions>
          <ns3:TrackPointExtension>
            <ns3:atemp>18.0</ns3:atemp>
          </ns3:TrackPointExtension>
        </extensions>
      </trkpt>
      <trkpt lat="42.56255261600017547607421875" lon="20.0507896207273006439208984375">
        <ele>2145.199951171875</ele>
        <time>2026-06-19T11:05:37.000Z</time>
        <extensions>
          <ns3:TrackPointExtension>
            <ns3:atemp>18.0</ns3:atemp>
          </ns3:TrackPointExtension>
        </extensions>
      </trkpt>
      <trkpt lat="42.56256544031202793121337890625" lon="20.050776042044162750244140625">
        <ele>2145</ele>
        <time>2026-06-19T11:05:38.000Z</time>
        <extensions>
          <ns3:TrackPointExtension>
            <ns3:atemp>18.0</ns3:atemp>
          </ns3:TrackPointExtension>
        </extensions>
      </trkpt>
      <trkpt lat="42.5625755824148654937744140625" lon="20.0507617928087711334228515625">
        <ele>2145.199951171875</ele>
        <time>2026-06-19T11:05:39.000Z</time>
        <extensions>
          <ns3:TrackPointExtension>
            <ns3:atemp>18.0</ns3:atemp>
          </ns3:TrackPointExtension>
        </extensions>
      </trkpt>
      <trkpt lat="42.56258404813706874847412109375" lon="20.05074963904917240142822265625">
        <ele>2145.199951171875</ele>
        <time>2026-06-19T11:05:40.000Z</time>
        <extensions>
          <ns3:TrackPointExtension>
            <ns3:atemp>18.0</ns3:atemp>
          </ns3:TrackPointExtension>
        </extensions>
      </trkpt>
      <trkpt lat="42.56259419023990631103515625" lon="20.05073857493698596954345703125">
        <ele>2145.39990234375</ele>
        <time>2026-06-19T11:05:41.000Z</time>
        <extensions>
          <ns3:TrackPointExtension>
            <ns3:atemp>18.0</ns3:atemp>
          </ns3:TrackPointExtension>
        </extensions>
      </trkpt>
      <trkpt lat="42.5626054219901561737060546875" lon="20.0507235713303089141845703125">
        <ele>2145.60009765625</ele>
        <time>2026-06-19T11:05:42.000Z</time>
        <extensions>
          <ns3:TrackPointExtension>
            <ns3:atemp>18.0</ns3:atemp>
          </ns3:TrackPointExtension>
        </extensions>
      </trkpt>
      <trkpt lat="42.56261405535042285919189453125" lon="20.05070907063782215118408203125">
        <ele>2145.60009765625</ele>
        <time>2026-06-19T11:05:43.000Z</time>
        <extensions>
          <ns3:TrackPointExtension>
            <ns3:atemp>18.0</ns3:atemp>
          </ns3:TrackPointExtension>
        </extensions>
      </trkpt>
      <trkpt lat="42.562622688710689544677734375" lon="20.05069314502179622650146484375">
        <ele>2145.800048828125</ele>
        <time>2026-06-19T11:05:44.000Z</time>
        <extensions>
          <ns3:TrackPointExtension>
            <ns3:atemp>18.0</ns3:atemp>
          </ns3:TrackPointExtension>
        </extensions>
      </trkpt>
      <trkpt lat="42.562634088099002838134765625" lon="20.05067822523415088653564453125">
        <ele>2146</ele>
        <time>2026-06-19T11:05:45.000Z</time>
        <extensions>
          <ns3:TrackPointExtension>
            <ns3:atemp>18.0</ns3:atemp>
          </ns3:TrackPointExtension>
        </extensions>
      </trkpt>
      <trkpt lat="42.5626493431627750396728515625" lon="20.05066146142780780792236328125">
        <ele>2146</ele>
        <time>2026-06-19T11:05:46.000Z</time>
        <extensions>
          <ns3:TrackPointExtension>
            <ns3:atemp>18.0</ns3:atemp>
          </ns3:TrackPointExtension>
        </extensions>
      </trkpt>
      <trkpt lat="42.5626677833497524261474609375" lon="20.05063916556537151336669921875">
        <ele>2146</ele>
        <time>2026-06-19T11:05:47.000Z</time>
        <extensions>
          <ns3:TrackPointExtension>
            <ns3:atemp>18.0</ns3:atemp>
          </ns3:TrackPointExtension>
        </extensions>
      </trkpt>
      <trkpt lat="42.56268362514674663543701171875" lon="20.050615780055522918701171875">
        <ele>2146</ele>
        <time>2026-06-19T11:05:48.000Z</time>
        <extensions>
          <ns3:TrackPointExtension>
            <ns3:atemp>18.0</ns3:atemp>
          </ns3:TrackPointExtension>
        </extensions>
      </trkpt>
      <trkpt lat="42.5626994669437408447265625" lon="20.05058837123215198516845703125">
        <ele>2146.199951171875</ele>
        <time>2026-06-19T11:05:49.000Z</time>
        <extensions>
          <ns3:TrackPointExtension>
            <ns3:atemp>18.0</ns3:atemp>
          </ns3:TrackPointExtension>
        </extensions>
      </trkpt>
      <trkpt lat="42.5627210922539234161376953125" lon="20.05056842230260372161865234375">
        <ele>2146.199951171875</ele>
        <time>2026-06-19T11:05:50.000Z</time>
        <extensions>
          <ns3:TrackPointExtension>
            <ns3:atemp>18.0</ns3:atemp>
          </ns3:TrackPointExtension>
        </extensions>
      </trkpt>
      <trkpt lat="42.5627435557544231414794921875" lon="20.05055367015302181243896484375">
        <ele>2146.199951171875</ele>
        <time>2026-06-19T11:05:51.000Z</time>
        <extensions>
          <ns3:TrackPointExtension>
            <ns3:atemp>18.0</ns3:atemp>
          </ns3:TrackPointExtension>
        </extensions>
      </trkpt>
      <trkpt lat="42.56276979111135005950927734375" lon="20.0505435280501842498779296875">
        <ele>2146.199951171875</ele>
        <time>2026-06-19T11:05:52.000Z</time>
        <extensions>
          <ns3:TrackPointExtension>
            <ns3:atemp>18.0</ns3:atemp>
          </ns3:TrackPointExtension>
        </extensions>
      </trkpt>
      <trkpt lat="42.56279711611568927764892578125" lon="20.05054126493632793426513671875">
        <ele>2146.199951171875</ele>
        <time>2026-06-19T11:05:53.000Z</time>
        <extensions>
          <ns3:TrackPointExtension>
            <ns3:atemp>18.0</ns3:atemp>
          </ns3:TrackPointExtension>
        </extensions>
      </trkpt>
      <trkpt lat="42.56282578222453594207763671875" lon="20.05054176785051822662353515625">
        <ele>2146.199951171875</ele>
        <time>2026-06-19T11:05:54.000Z</time>
        <extensions>
          <ns3:TrackPointExtension>
            <ns3:atemp>18.0</ns3:atemp>
          </ns3:TrackPointExtension>
        </extensions>
      </trkpt>
      <trkpt lat="42.56285327486693859100341796875" lon="20.05053623579442501068115234375">
        <ele>2146.199951171875</ele>
        <time>2026-06-19T11:05:55.000Z</time>
        <extensions>
          <ns3:TrackPointExtension>
            <ns3:atemp>18.0</ns3:atemp>
          </ns3:TrackPointExtension>
        </extensions>
      </trkpt>
      <trkpt lat="42.562878839671611785888671875" lon="20.0505317933857440948486328125">
        <ele>2146</ele>
        <time>2026-06-19T11:05:56.000Z</time>
        <extensions>
          <ns3:TrackPointExtension>
            <ns3:atemp>18.0</ns3:atemp>
          </ns3:TrackPointExtension>
        </extensions>
      </trkpt>
      <trkpt lat="42.5628957711160182952880859375" lon="20.0505311228334903717041015625">
        <ele>2145.800048828125</ele>
        <time>2026-06-19T11:05:57.000Z</time>
        <extensions>
          <ns3:TrackPointExtension>
            <ns3:atemp>18.0</ns3:atemp>
          </ns3:TrackPointExtension>
        </extensions>
      </trkpt>
      <trkpt lat="42.56291328929364681243896484375" lon="20.0505274347960948944091796875">
        <ele>2145.800048828125</ele>
        <time>2026-06-19T11:05:58.000Z</time>
        <extensions>
          <ns3:TrackPointExtension>
            <ns3:atemp>18.0</ns3:atemp>
          </ns3:TrackPointExtension>
        </extensions>
      </trkpt>
      <trkpt lat="42.5629252754151821136474609375" lon="20.05053321830928325653076171875">
        <ele>2145.60009765625</ele>
        <time>2026-06-19T11:05:59.000Z</time>
        <extensions>
          <ns3:TrackPointExtension>
            <ns3:atemp>18.0</ns3:atemp>
          </ns3:TrackPointExtension>
        </extensions>
      </trkpt>
      <trkpt lat="42.56294312886893749237060546875" lon="20.0505410134792327880859375">
        <ele>2145.60009765625</ele>
        <time>2026-06-19T11:06:00.000Z</time>
        <extensions>
          <ns3:TrackPointExtension>
            <ns3:atemp>18.0</ns3:atemp>
          </ns3:TrackPointExtension>
        </extensions>
      </trkpt>
      <trkpt lat="42.56295897066593170166015625" lon="20.05054998211562633514404296875">
        <ele>2145.60009765625</ele>
        <time>2026-06-19T11:06:01.000Z</time>
        <extensions>
          <ns3:TrackPointExtension>
            <ns3:atemp>18.0</ns3:atemp>
          </ns3:TrackPointExtension>
        </extensions>
      </trkpt>
      <trkpt lat="42.56297246553003787994384765625" lon="20.05055970512330532073974609375">
        <ele>2145.800048828125</ele>
        <time>2026-06-19T11:06:02.000Z</time>
        <extensions>
          <ns3:TrackPointExtension>
            <ns3:atemp>18.0</ns3:atemp>
          </ns3:TrackPointExtension>
        </extensions>
      </trkpt>
      <trkpt lat="42.562989480793476104736328125" lon="20.05057177506387233734130859375">
        <ele>2145.800048828125</ele>
        <time>2026-06-19T11:06:03.000Z</time>
        <extensions>
          <ns3:TrackPointExtension>
            <ns3:atemp>18.0</ns3:atemp>
          </ns3:TrackPointExtension>
        </extensions>
      </trkpt>
      <trkpt lat="42.56301454268395900726318359375" lon="20.05058032460510730743408203125">
        <ele>2145.60009765625</ele>
        <time>2026-06-19T11:06:04.000Z</time>
        <extensions>
          <ns3:TrackPointExtension>
            <ns3:atemp>18.0</ns3:atemp>
          </ns3:TrackPointExtension>
        </extensions>
      </trkpt>
      <trkpt lat="42.5630493275821208953857421875" lon="20.05059398710727691650390625">
        <ele>2145.39990234375</ele>
        <time>2026-06-19T11:06:05.000Z</time>
        <extensions>
          <ns3:TrackPointExtension>
            <ns3:atemp>18.0</ns3:atemp>
          </ns3:TrackPointExtension>
        </extensions>
      </trkpt>
      <trkpt lat="42.56308243609964847564697265625" lon="20.05059935152530670166015625">
        <ele>2145.199951171875</ele>
        <time>2026-06-19T11:06:06.000Z</time>
        <extensions>
          <ns3:TrackPointExtension>
            <ns3:atemp>18.0</ns3:atemp>
          </ns3:TrackPointExtension>
        </extensions>
      </trkpt>
      <trkpt lat="42.5631167180836200714111328125" lon="20.05060597322881221771240234375">
        <ele>2144.800048828125</ele>
        <time>2026-06-19T11:06:07.000Z</time>
        <extensions>
          <ns3:TrackPointExtension>
            <ns3:atemp>18.0</ns3:atemp>
          </ns3:TrackPointExtension>
        </extensions>
      </trkpt>
      <trkpt lat="42.56314077414572238922119140625" lon="20.050604380667209625244140625">
        <ele>2144.60009765625</ele>
        <time>2026-06-19T11:06:08.000Z</time>
        <extensions>
          <ns3:TrackPointExtension>
            <ns3:atemp>18.0</ns3:atemp>
          </ns3:TrackPointExtension>
        </extensions>
      </trkpt>
      <trkpt lat="42.563163824379444122314453125" lon="20.05059876479208469390869140625">
        <ele>2144.39990234375</ele>
        <time>2026-06-19T11:06:09.000Z</time>
        <extensions>
          <ns3:TrackPointExtension>
            <ns3:atemp>18.0</ns3:atemp>
          </ns3:TrackPointExtension>
        </extensions>
      </trkpt>
      <trkpt lat="42.563183270394802093505859375" lon="20.0506001897156238555908203125">
        <ele>2144</ele>
        <time>2026-06-19T11:06:10.000Z</time>
        <extensions>
          <ns3:TrackPointExtension>
            <ns3:atemp>18.0</ns3:atemp>
          </ns3:TrackPointExtension>
        </extensions>
      </trkpt>
      <trkpt lat="42.56320363841950893402099609375" lon="20.05060739815235137939453125">
        <ele>2143.800048828125</ele>
        <time>2026-06-19T11:06:11.000Z</time>
        <extensions>
          <ns3:TrackPointExtension>
            <ns3:atemp>18.0</ns3:atemp>
          </ns3:TrackPointExtension>
        </extensions>
      </trkpt>
      <trkpt lat="42.56322308443486690521240234375" lon="20.05061276257038116455078125">
        <ele>2143.60009765625</ele>
        <time>2026-06-19T11:06:12.000Z</time>
        <extensions>
          <ns3:TrackPointExtension>
            <ns3:atemp>18.0</ns3:atemp>
          </ns3:TrackPointExtension>
        </extensions>
      </trkpt>
      <trkpt lat="42.56323993206024169921875" lon="20.0506162829697132110595703125">
        <ele>2143.60009765625</ele>
        <time>2026-06-19T11:06:13.000Z</time>
        <extensions>
          <ns3:TrackPointExtension>
            <ns3:atemp>18.0</ns3:atemp>
          </ns3:TrackPointExtension>
        </extensions>
      </trkpt>
      <trkpt lat="42.56325778551399707794189453125" lon="20.05061301402747631072998046875">
        <ele>2143.60009765625</ele>
        <time>2026-06-19T11:06:14.000Z</time>
        <extensions>
          <ns3:TrackPointExtension>
            <ns3:atemp>18.0</ns3:atemp>
          </ns3:TrackPointExtension>
        </extensions>
      </trkpt>
      <trkpt lat="42.5632756389677524566650390625" lon="20.0506045483052730560302734375">
        <ele>2143.60009765625</ele>
        <time>2026-06-19T11:06:15.000Z</time>
        <extensions>
          <ns3:TrackPointExtension>
            <ns3:atemp>18.0</ns3:atemp>
          </ns3:TrackPointExtension>
        </extensions>
      </trkpt>
      <trkpt lat="42.56329734809696674346923828125" lon="20.050599016249179840087890625">
        <ele>2143.60009765625</ele>
        <time>2026-06-19T11:06:16.000Z</time>
        <extensions>
          <ns3:TrackPointExtension>
            <ns3:atemp>18.0</ns3:atemp>
          </ns3:TrackPointExtension>
        </extensions>
      </trkpt>
      <trkpt lat="42.5633239187300205230712890625" lon="20.05060144700109958648681640625">
        <ele>2143.60009765625</ele>
        <time>2026-06-19T11:06:17.000Z</time>
        <extensions>
          <ns3:TrackPointExtension>
            <ns3:atemp>18.0</ns3:atemp>
          </ns3:TrackPointExtension>
        </extensions>
      </trkpt>
      <trkpt lat="42.5633504055440425872802734375" lon="20.05060194991528987884521484375">
        <ele>2143.39990234375</ele>
        <time>2026-06-19T11:06:18.000Z</time>
        <extensions>
          <ns3:TrackPointExtension>
            <ns3:atemp>18.0</ns3:atemp>
          </ns3:TrackPointExtension>
        </extensions>
      </trkpt>
      <trkpt lat="42.5633752159774303436279296875" lon="20.050606392323970794677734375">
        <ele>2143.199951171875</ele>
        <time>2026-06-19T11:06:19.000Z</time>
        <extensions>
          <ns3:TrackPointExtension>
            <ns3:atemp>18.0</ns3:atemp>
          </ns3:TrackPointExtension>
        </extensions>
      </trkpt>
      <trkpt lat="42.56340027786791324615478515625" lon="20.05061351694166660308837890625">
        <ele>2143</ele>
        <time>2026-06-19T11:06:20.000Z</time>
        <extensions>
          <ns3:TrackPointExtension>
            <ns3:atemp>18.0</ns3:atemp>
          </ns3:TrackPointExtension>
        </extensions>
      </trkpt>
      <trkpt lat="42.56342056207358837127685546875" lon="20.05062039010226726531982421875">
        <ele>2142.800048828125</ele>
        <time>2026-06-19T11:06:21.000Z</time>
        <extensions>
          <ns3:TrackPointExtension>
            <ns3:atemp>18.0</ns3:atemp>
          </ns3:TrackPointExtension>
        </extensions>
      </trkpt>
      <trkpt lat="42.563416622579097747802734375" lon="20.05062189884483814239501953125">
        <ele>2143</ele>
        <time>2026-06-19T11:06:22.000Z</time>
        <extensions>
          <ns3:TrackPointExtension>
            <ns3:atemp>18.0</ns3:atemp>
          </ns3:TrackPointExtension>
        </extensions>
      </trkpt>
      <trkpt lat="42.56341687403619289398193359375" lon="20.05062173120677471160888671875">
        <ele>2143</ele>
        <time>2026-06-19T11:06:23.000Z</time>
        <extensions>
          <ns3:TrackPointExtension>
            <ns3:atemp>18.0</ns3:atemp>
          </ns3:TrackPointExtension>
        </extensions>
      </trkpt>
      <trkpt lat="42.56341687403619289398193359375" lon="20.05062173120677471160888671875">
        <ele>2143.199951171875</ele>
        <time>2026-06-19T11:06:24.000Z</time>
        <extensions>
          <ns3:TrackPointExtension>
            <ns3:atemp>18.0</ns3:atemp>
          </ns3:TrackPointExtension>
        </extensions>
      </trkpt>
      <trkpt lat="42.56341687403619289398193359375" lon="20.05062173120677471160888671875">
        <ele>2143.39990234375</ele>
        <time>2026-06-19T11:06:25.000Z</time>
        <extensions>
          <ns3:TrackPointExtension>
            <ns3:atemp>18.0</ns3:atemp>
          </ns3:TrackPointExtension>
        </extensions>
      </trkpt>
      <trkpt lat="42.56341687403619289398193359375" lon="20.05062173120677471160888671875">
        <ele>2143.60009765625</ele>
        <time>2026-06-19T11:06:26.000Z</time>
        <extensions>
          <ns3:TrackPointExtension>
            <ns3:atemp>18.0</ns3:atemp>
          </ns3:TrackPointExtension>
        </extensions>
      </trkpt>
      <trkpt lat="42.56341687403619289398193359375" lon="20.05062173120677471160888671875">
        <ele>2143.800048828125</ele>
        <time>2026-06-19T11:06:27.000Z</time>
        <extensions>
          <ns3:TrackPointExtension>
            <ns3:atemp>18.0</ns3:atemp>
          </ns3:TrackPointExtension>
        </extensions>
      </trkpt>
      <trkpt lat="42.56341687403619289398193359375" lon="20.05062173120677471160888671875">
        <ele>2143.800048828125</ele>
        <time>2026-06-19T11:06:28.000Z</time>
        <extensions>
          <ns3:TrackPointExtension>
            <ns3:atemp>18.0</ns3:atemp>
          </ns3:TrackPointExtension>
        </extensions>
      </trkpt>
      <trkpt lat="42.5634181313216686248779296875" lon="20.05062206648290157318115234375">
        <ele>2143.60009765625</ele>
        <time>2026-06-19T11:06:29.000Z</time>
        <extensions>
          <ns3:TrackPointExtension>
            <ns3:atemp>18.0</ns3:atemp>
          </ns3:TrackPointExtension>
        </extensions>
      </trkpt>
      <trkpt lat="42.56341687403619289398193359375" lon="20.05062173120677471160888671875">
        <ele>2143.60009765625</ele>
        <time>2026-06-19T11:06:30.000Z</time>
        <extensions>
          <ns3:TrackPointExtension>
            <ns3:atemp>18.0</ns3:atemp>
          </ns3:TrackPointExtension>
        </extensions>
      </trkpt>
      <trkpt lat="42.56341687403619289398193359375" lon="20.05062173120677471160888671875">
        <ele>2143.60009765625</ele>
        <time>2026-06-19T11:06:31.000Z</time>
        <extensions>
          <ns3:TrackPointExtension>
            <ns3:atemp>18.0</ns3:atemp>
          </ns3:TrackPointExtension>
        </extensions>
      </trkpt>
      <trkpt lat="42.56341687403619289398193359375" lon="20.05062173120677471160888671875">
        <ele>2143.60009765625</ele>
        <time>2026-06-19T11:06:32.000Z</time>
        <extensions>
          <ns3:TrackPointExtension>
            <ns3:atemp>18.0</ns3:atemp>
          </ns3:TrackPointExtension>
        </extensions>
      </trkpt>
      <trkpt lat="42.56342810578644275665283203125" lon="20.05062625743448734283447265625">
        <ele>2143.60009765625</ele>
        <time>2026-06-19T11:06:33.000Z</time>
        <extensions>
          <ns3:TrackPointExtension>
            <ns3:atemp>18.0</ns3:atemp>
          </ns3:TrackPointExtension>
        </extensions>
      </trkpt>
      <trkpt lat="42.56343363784253597259521484375" lon="20.05063363350927829742431640625">
        <ele>2143.60009765625</ele>
        <time>2026-06-19T11:06:34.000Z</time>
        <extensions>
          <ns3:TrackPointExtension>
            <ns3:atemp>18.0</ns3:atemp>
          </ns3:TrackPointExtension>
        </extensions>
      </trkpt>
      <trkpt lat="42.56343380548059940338134765625" lon="20.0506337173283100128173828125">
        <ele>2143.60009765625</ele>
        <time>2026-06-19T11:06:35.000Z</time>
        <extensions>
          <ns3:TrackPointExtension>
            <ns3:atemp>18.0</ns3:atemp>
          </ns3:TrackPointExtension>
        </extensions>
      </trkpt>
      <trkpt lat="42.56343397311866283416748046875" lon="20.0506337173283100128173828125">
        <ele>2143.800048828125</ele>
        <time>2026-06-19T11:06:36.000Z</time>
        <extensions>
          <ns3:TrackPointExtension>
            <ns3:atemp>18.0</ns3:atemp>
          </ns3:TrackPointExtension>
        </extensions>
      </trkpt>
      <trkpt lat="42.56343380548059940338134765625" lon="20.0506337173283100128173828125">
        <ele>2143.800048828125</ele>
        <time>2026-06-19T11:06:37.000Z</time>
        <extensions>
          <ns3:TrackPointExtension>
            <ns3:atemp>18.0</ns3:atemp>
          </ns3:TrackPointExtension>
        </extensions>
      </trkpt>
      <trkpt lat="42.563444115221500396728515625" lon="20.05063732154667377471923828125">
        <ele>2143.800048828125</ele>
        <time>2026-06-19T11:06:38.000Z</time>
        <extensions>
          <ns3:TrackPointExtension>
            <ns3:atemp>18.0</ns3:atemp>
          </ns3:TrackPointExtension>
        </extensions>
      </trkpt>
      <trkpt lat="42.56345308385789394378662109375" lon="20.050652325153350830078125">
        <ele>2143.800048828125</ele>
        <time>2026-06-19T11:06:39.000Z</time>
        <extensions>
          <ns3:TrackPointExtension>
            <ns3:atemp>18.0</ns3:atemp>
          </ns3:TrackPointExtension>
        </extensions>
      </trkpt>
      <trkpt lat="42.5634643994271755218505859375" lon="20.050674788653850555419921875">
        <ele>2143.800048828125</ele>
        <time>2026-06-19T11:06:40.000Z</time>
        <extensions>
          <ns3:TrackPointExtension>
            <ns3:atemp>18.0</ns3:atemp>
          </ns3:TrackPointExtension>
        </extensions>
      </trkpt>
      <trkpt lat="42.5634784810245037078857421875" lon="20.05068845115602016448974609375">
        <ele>2143.800048828125</ele>
        <time>2026-06-19T11:06:41.000Z</time>
        <extensions>
          <ns3:TrackPointExtension>
            <ns3:atemp>18.0</ns3:atemp>
          </ns3:TrackPointExtension>
        </extensions>
      </trkpt>
      <trkpt lat="42.5635002739727497100830078125" lon="20.05069993436336517333984375">
        <ele>2143.60009765625</ele>
        <time>2026-06-19T11:06:42.000Z</time>
        <extensions>
          <ns3:TrackPointExtension>
            <ns3:atemp>18.0</ns3:atemp>
          </ns3:TrackPointExtension>
        </extensions>
      </trkpt>
      <trkpt lat="42.563530616462230682373046875" lon="20.05071728490293025970458984375">
        <ele>2143.60009765625</ele>
        <time>2026-06-19T11:06:43.000Z</time>
        <extensions>
          <ns3:TrackPointExtension>
            <ns3:atemp>18.0</ns3:atemp>
          </ns3:TrackPointExtension>
        </extensions>
      </trkpt>
      <trkpt lat="42.5635639764368534088134765625" lon="20.0507202185690402984619140625">
        <ele>2143.39990234375</ele>
        <time>2026-06-19T11:06:44.000Z</time>
        <extensions>
          <ns3:TrackPointExtension>
            <ns3:atemp>18.0</ns3:atemp>
          </ns3:TrackPointExtension>
        </extensions>
      </trkpt>
      <trkpt lat="42.56359222345054149627685546875" lon="20.050726421177387237548828125">
        <ele>2143.199951171875</ele>
        <time>2026-06-19T11:06:45.000Z</time>
        <extensions>
          <ns3:TrackPointExtension>
            <ns3:atemp>18.0</ns3:atemp>
          </ns3:TrackPointExtension>
        </extensions>
      </trkpt>
      <trkpt lat="42.56361745297908782958984375" lon="20.05073136650025844573974609375">
        <ele>2143</ele>
        <time>2026-06-19T11:06:46.000Z</time>
        <extensions>
          <ns3:TrackPointExtension>
            <ns3:atemp>18.0</ns3:atemp>
          </ns3:TrackPointExtension>
        </extensions>
      </trkpt>
      <trkpt lat="42.56364150904119014739990234375" lon="20.05073773674666881561279296875">
        <ele>2142.800048828125</ele>
        <time>2026-06-19T11:06:47.000Z</time>
        <extensions>
          <ns3:TrackPointExtension>
            <ns3:atemp>18.0</ns3:atemp>
          </ns3:TrackPointExtension>
        </extensions>
      </trkpt>
      <trkpt lat="42.56366648711264133453369140625" lon="20.05075584165751934051513671875">
        <ele>2142.60009765625</ele>
        <time>2026-06-19T11:06:48.000Z</time>
        <extensions>
          <ns3:TrackPointExtension>
            <ns3:atemp>18.0</ns3:atemp>
          </ns3:TrackPointExtension>
        </extensions>
      </trkpt>
      <trkpt lat="42.56369012407958507537841796875" lon="20.05077327601611614227294921875">
        <ele>2142.39990234375</ele>
        <time>2026-06-19T11:06:49.000Z</time>
        <extensions>
          <ns3:TrackPointExtension>
            <ns3:atemp>18.0</ns3:atemp>
          </ns3:TrackPointExtension>
        </extensions>
      </trkpt>
      <trkpt lat="42.56371401250362396240234375" lon="20.0507892854511737823486328125">
        <ele>2142.199951171875</ele>
        <time>2026-06-19T11:06:50.000Z</time>
        <extensions>
          <ns3:TrackPointExtension>
            <ns3:atemp>18.0</ns3:atemp>
          </ns3:TrackPointExtension>
        </extensions>
      </trkpt>
      <trkpt lat="42.56374041549861431121826171875" lon="20.05080747418105602264404296875">
        <ele>2141.800048828125</ele>
        <time>2026-06-19T11:06:51.000Z</time>
        <extensions>
          <ns3:TrackPointExtension>
            <ns3:atemp>18.0</ns3:atemp>
          </ns3:TrackPointExtension>
        </extensions>
      </trkpt>
      <trkpt lat="42.56376690231263637542724609375" lon="20.05082591436803340911865234375">
        <ele>2141.60009765625</ele>
        <time>2026-06-19T11:06:52.000Z</time>
        <extensions>
          <ns3:TrackPointExtension>
            <ns3:atemp>18.0</ns3:atemp>
          </ns3:TrackPointExtension>
        </extensions>
      </trkpt>
      <trkpt lat="42.56377679295837879180908203125" lon="20.050843097269535064697265625">
        <ele>2141.39990234375</ele>
        <time>2026-06-19T11:06:53.000Z</time>
        <extensions>
          <ns3:TrackPointExtension>
            <ns3:atemp>18.0</ns3:atemp>
          </ns3:TrackPointExtension>
        </extensions>
      </trkpt>
      <trkpt lat="42.56378986872732639312744140625" lon="20.05086028017103672027587890625">
        <ele>2141.39990234375</ele>
        <time>2026-06-19T11:06:54.000Z</time>
        <extensions>
          <ns3:TrackPointExtension>
            <ns3:atemp>18.0</ns3:atemp>
          </ns3:TrackPointExtension>
        </extensions>
      </trkpt>
      <trkpt lat="42.56380830891430377960205078125" lon="20.0508637167513370513916015625">
        <ele>2141.199951171875</ele>
        <time>2026-06-19T11:06:55.000Z</time>
        <extensions>
          <ns3:TrackPointExtension>
            <ns3:atemp>18.0</ns3:atemp>
          </ns3:TrackPointExtension>
        </extensions>
      </trkpt>
      <trkpt lat="42.56383211351931095123291015625" lon="20.05085843615233898162841796875">
        <ele>2141</ele>
        <time>2026-06-19T11:06:56.000Z</time>
        <extensions>
          <ns3:TrackPointExtension>
            <ns3:atemp>18.0</ns3:atemp>
          </ns3:TrackPointExtension>
        </extensions>
      </trkpt>
      <trkpt lat="42.56385457701981067657470703125" lon="20.05085776560008525848388671875">
        <ele>2141</ele>
        <time>2026-06-19T11:06:57.000Z</time>
        <extensions>
          <ns3:TrackPointExtension>
            <ns3:atemp>18.0</ns3:atemp>
          </ns3:TrackPointExtension>
        </extensions>
      </trkpt>
      <trkpt lat="42.56387016735970973968505859375" lon="20.05086698569357395172119140625">
        <ele>2141</ele>
        <time>2026-06-19T11:06:58.000Z</time>
        <extensions>
          <ns3:TrackPointExtension>
            <ns3:atemp>18.0</ns3:atemp>
          </ns3:TrackPointExtension>
        </extensions>
      </trkpt>
      <trkpt lat="42.56388525478541851043701171875" lon="20.05086815916001796722412109375">
        <ele>2141</ele>
        <time>2026-06-19T11:06:59.000Z</time>
        <extensions>
          <ns3:TrackPointExtension>
            <ns3:atemp>18.0</ns3:atemp>
          </ns3:TrackPointExtension>
        </extensions>
      </trkpt>
      <trkpt lat="42.56390176713466644287109375" lon="20.05087318830192089080810546875">
        <ele>2141</ele>
        <time>2026-06-19T11:07:00.000Z</time>
        <extensions>
          <ns3:TrackPointExtension>
            <ns3:atemp>18.0</ns3:atemp>
          </ns3:TrackPointExtension>
        </extensions>
      </trkpt>
      <trkpt lat="42.56391777656972408294677734375" lon="20.05088500678539276123046875">
        <ele>2141</ele>
        <time>2026-06-19T11:07:01.000Z</time>
        <extensions>
          <ns3:TrackPointExtension>
            <ns3:atemp>19.0</ns3:atemp>
          </ns3:TrackPointExtension>
        </extensions>
      </trkpt>
      <trkpt lat="42.56393303163349628448486328125" lon="20.05090202204883098602294921875">
        <ele>2141</ele>
        <time>2026-06-19T11:07:02.000Z</time>
        <extensions>
          <ns3:TrackPointExtension>
            <ns3:atemp>18.0</ns3:atemp>
          </ns3:TrackPointExtension>
        </extensions>
      </trkpt>
      <trkpt lat="42.5639386475086212158203125" lon="20.05092431791126728057861328125">
        <ele>2141</ele>
        <time>2026-06-19T11:07:03.000Z</time>
        <extensions>
          <ns3:TrackPointExtension>
            <ns3:atemp>18.0</ns3:atemp>
          </ns3:TrackPointExtension>
        </extensions>
      </trkpt>
      <trkpt lat="42.5639368034899234771728515625" lon="20.05094141699373722076416015625">
        <ele>2141</ele>
        <time>2026-06-19T11:07:04.000Z</time>
        <extensions>
          <ns3:TrackPointExtension>
            <ns3:atemp>18.0</ns3:atemp>
          </ns3:TrackPointExtension>
        </extensions>
      </trkpt>
      <trkpt lat="42.56393722258508205413818359375" lon="20.0509585998952388763427734375">
        <ele>2141.199951171875</ele>
        <time>2026-06-19T11:07:05.000Z</time>
        <extensions>
          <ns3:TrackPointExtension>
            <ns3:atemp>18.0</ns3:atemp>
          </ns3:TrackPointExtension>
        </extensions>
      </trkpt>
      <trkpt lat="42.56393973715603351593017578125" lon="20.05096949636936187744140625">
        <ele>2141.199951171875</ele>
        <time>2026-06-19T11:07:06.000Z</time>
        <extensions>
          <ns3:TrackPointExtension>
            <ns3:atemp>18.0</ns3:atemp>
          </ns3:TrackPointExtension>
        </extensions>
      </trkpt>
      <trkpt lat="42.56395046599209308624267578125" lon="20.05096681416034698486328125">
        <ele>2141.199951171875</ele>
        <time>2026-06-19T11:07:07.000Z</time>
        <extensions>
          <ns3:TrackPointExtension>
            <ns3:atemp>18.0</ns3:atemp>
          </ns3:TrackPointExtension>
        </extensions>
      </trkpt>
      <trkpt lat="42.5639542378485202789306640625" lon="20.05096471868455410003662109375">
        <ele>2141.199951171875</ele>
        <time>2026-06-19T11:07:08.000Z</time>
        <extensions>
          <ns3:TrackPointExtension>
            <ns3:atemp>18.0</ns3:atemp>
          </ns3:TrackPointExtension>
        </extensions>
      </trkpt>
      <trkpt lat="42.56395415402948856353759765625" lon="20.05096471868455410003662109375">
        <ele>2141.39990234375</ele>
        <time>2026-06-19T11:07:09.000Z</time>
        <extensions>
          <ns3:TrackPointExtension>
            <ns3:atemp>18.0</ns3:atemp>
          </ns3:TrackPointExtension>
        </extensions>
      </trkpt>
      <trkpt lat="42.56395415402948856353759765625" lon="20.05096471868455410003662109375">
        <ele>2141.39990234375</ele>
        <time>2026-06-19T11:07:10.000Z</time>
        <extensions>
          <ns3:TrackPointExtension>
            <ns3:atemp>18.0</ns3:atemp>
          </ns3:TrackPointExtension>
        </extensions>
      </trkpt>
      <trkpt lat="42.56395415402948856353759765625" lon="20.05096471868455410003662109375">
        <ele>2141.39990234375</ele>
        <time>2026-06-19T11:07:11.000Z</time>
        <extensions>
          <ns3:TrackPointExtension>
            <ns3:atemp>18.0</ns3:atemp>
          </ns3:TrackPointExtension>
        </extensions>
      </trkpt>
      <trkpt lat="42.56395415402948856353759765625" lon="20.05096471868455410003662109375">
        <ele>2141.60009765625</ele>
        <time>2026-06-19T11:07:12.000Z</time>
        <extensions>
          <ns3:TrackPointExtension>
            <ns3:atemp>18.0</ns3:atemp>
          </ns3:TrackPointExtension>
        </extensions>
      </trkpt>
      <trkpt lat="42.56395415402948856353759765625" lon="20.05096471868455410003662109375">
        <ele>2141.60009765625</ele>
        <time>2026-06-19T11:07:13.000Z</time>
        <extensions>
          <ns3:TrackPointExtension>
            <ns3:atemp>18.0</ns3:atemp>
          </ns3:TrackPointExtension>
        </extensions>
      </trkpt>
      <trkpt lat="42.56395415402948856353759765625" lon="20.05096471868455410003662109375">
        <ele>2141.39990234375</ele>
        <time>2026-06-19T11:07:14.000Z</time>
        <extensions>
          <ns3:TrackPointExtension>
            <ns3:atemp>18.0</ns3:atemp>
          </ns3:TrackPointExtension>
        </extensions>
      </trkpt>
      <trkpt lat="42.56395415402948856353759765625" lon="20.05096471868455410003662109375">
        <ele>2141.39990234375</ele>
        <time>2026-06-19T11:07:15.000Z</time>
        <extensions>
          <ns3:TrackPointExtension>
            <ns3:atemp>18.0</ns3:atemp>
          </ns3:TrackPointExtension>
        </extensions>
      </trkpt>
      <trkpt lat="42.56395415402948856353759765625" lon="20.05096471868455410003662109375">
        <ele>2141.39990234375</ele>
        <time>2026-06-19T11:07:16.000Z</time>
        <extensions>
          <ns3:TrackPointExtension>
            <ns3:atemp>18.0</ns3:atemp>
          </ns3:TrackPointExtension>
        </extensions>
      </trkpt>
      <trkpt lat="42.56395415402948856353759765625" lon="20.05096471868455410003662109375">
        <ele>2141.39990234375</ele>
        <time>2026-06-19T11:07:17.000Z</time>
        <extensions>
          <ns3:TrackPointExtension>
            <ns3:atemp>18.0</ns3:atemp>
          </ns3:TrackPointExtension>
        </extensions>
      </trkpt>
      <trkpt lat="42.56395415402948856353759765625" lon="20.05096471868455410003662109375">
        <ele>2141.39990234375</ele>
        <time>2026-06-19T11:07:18.000Z</time>
        <extensions>
          <ns3:TrackPointExtension>
            <ns3:atemp>18.0</ns3:atemp>
          </ns3:TrackPointExtension>
        </extensions>
      </trkpt>
      <trkpt lat="42.56395415402948856353759765625" lon="20.05096471868455410003662109375">
        <ele>2141.39990234375</ele>
        <time>2026-06-19T11:07:19.000Z</time>
        <extensions>
          <ns3:TrackPointExtension>
            <ns3:atemp>18.0</ns3:atemp>
          </ns3:TrackPointExtension>
        </extensions>
      </trkpt>
      <trkpt lat="42.56395415402948856353759765625" lon="20.05096471868455410003662109375">
        <ele>2141.39990234375</ele>
        <time>2026-06-19T11:07:20.000Z</time>
        <extensions>
          <ns3:TrackPointExtension>
            <ns3:atemp>18.0</ns3:atemp>
          </ns3:TrackPointExtension>
        </extensions>
      </trkpt>
      <trkpt lat="42.56395415402948856353759765625" lon="20.05096471868455410003662109375">
        <ele>2141.199951171875</ele>
        <time>2026-06-19T11:07:21.000Z</time>
        <extensions>
          <ns3:TrackPointExtension>
            <ns3:atemp>18.0</ns3:atemp>
          </ns3:TrackPointExtension>
        </extensions>
      </trkpt>
      <trkpt lat="42.56395415402948856353759765625" lon="20.05096471868455410003662109375">
        <ele>2141.199951171875</ele>
        <time>2026-06-19T11:07:22.000Z</time>
        <extensions>
          <ns3:TrackPointExtension>
            <ns3:atemp>18.0</ns3:atemp>
          </ns3:TrackPointExtension>
        </extensions>
      </trkpt>
      <trkpt lat="42.56395415402948856353759765625" lon="20.05096471868455410003662109375">
        <ele>2141.199951171875</ele>
        <time>2026-06-19T11:07:23.000Z</time>
        <extensions>
          <ns3:TrackPointExtension>
            <ns3:atemp>19.0</ns3:atemp>
          </ns3:TrackPointExtension>
        </extensions>
      </trkpt>
      <trkpt lat="42.56395415402948856353759765625" lon="20.05096471868455410003662109375">
        <ele>2141.199951171875</ele>
        <time>2026-06-19T11:07:24.000Z</time>
        <extensions>
          <ns3:TrackPointExtension>
            <ns3:atemp>19.0</ns3:atemp>
          </ns3:TrackPointExtension>
        </extensions>
      </trkpt>
      <trkpt lat="42.56395415402948856353759765625" lon="20.05096471868455410003662109375">
        <ele>2141</ele>
        <time>2026-06-19T11:07:25.000Z</time>
        <extensions>
          <ns3:TrackPointExtension>
            <ns3:atemp>18.0</ns3:atemp>
          </ns3:TrackPointExtension>
        </extensions>
      </trkpt>
      <trkpt lat="42.56395415402948856353759765625" lon="20.05096471868455410003662109375">
        <ele>2141</ele>
        <time>2026-06-19T11:07:26.000Z</time>
        <extensions>
          <ns3:TrackPointExtension>
            <ns3:atemp>19.0</ns3:atemp>
          </ns3:TrackPointExtension>
        </extensions>
      </trkpt>
      <trkpt lat="42.56395415402948856353759765625" lon="20.05096471868455410003662109375">
        <ele>2141</ele>
        <time>2026-06-19T11:07:27.000Z</time>
        <extensions>
          <ns3:TrackPointExtension>
            <ns3:atemp>19.0</ns3:atemp>
          </ns3:TrackPointExtension>
        </extensions>
      </trkpt>
      <trkpt lat="42.56395415402948856353759765625" lon="20.05096471868455410003662109375">
        <ele>2141</ele>
        <time>2026-06-19T11:07:28.000Z</time>
        <extensions>
          <ns3:TrackPointExtension>
            <ns3:atemp>19.0</ns3:atemp>
          </ns3:TrackPointExtension>
        </extensions>
      </trkpt>
      <trkpt lat="42.56395415402948856353759765625" lon="20.05096471868455410003662109375">
        <ele>2141</ele>
        <time>2026-06-19T11:07:29.000Z</time>
        <extensions>
          <ns3:TrackPointExtension>
            <ns3:atemp>19.0</ns3:atemp>
          </ns3:TrackPointExtension>
        </extensions>
      </trkpt>
      <trkpt lat="42.56395415402948856353759765625" lon="20.05096471868455410003662109375">
        <ele>2141</ele>
        <time>2026-06-19T11:07:30.000Z</time>
        <extensions>
          <ns3:TrackPointExtension>
            <ns3:atemp>19.0</ns3:atemp>
          </ns3:TrackPointExtension>
        </extensions>
      </trkpt>
      <trkpt lat="42.56395415402948856353759765625" lon="20.05096471868455410003662109375">
        <ele>2140.800048828125</ele>
        <time>2026-06-19T11:07:31.000Z</time>
        <extensions>
          <ns3:TrackPointExtension>
            <ns3:atemp>19.0</ns3:atemp>
          </ns3:TrackPointExtension>
        </extensions>
      </trkpt>
      <trkpt lat="42.56395415402948856353759765625" lon="20.05096471868455410003662109375">
        <ele>2140.800048828125</ele>
        <time>2026-06-19T11:07:32.000Z</time>
        <extensions>
          <ns3:TrackPointExtension>
            <ns3:atemp>19.0</ns3:atemp>
          </ns3:TrackPointExtension>
        </extensions>
      </trkpt>
      <trkpt lat="42.56395415402948856353759765625" lon="20.05096471868455410003662109375">
        <ele>2140.800048828125</ele>
        <time>2026-06-19T11:07:33.000Z</time>
        <extensions>
          <ns3:TrackPointExtension>
            <ns3:atemp>19.0</ns3:atemp>
          </ns3:TrackPointExtension>
        </extensions>
      </trkpt>
      <trkpt lat="42.56395415402948856353759765625" lon="20.05096471868455410003662109375">
        <ele>2140.800048828125</ele>
        <time>2026-06-19T11:07:34.000Z</time>
        <extensions>
          <ns3:TrackPointExtension>
            <ns3:atemp>19.0</ns3:atemp>
          </ns3:TrackPointExtension>
        </extensions>
      </trkpt>
      <trkpt lat="42.56395415402948856353759765625" lon="20.05096471868455410003662109375">
        <ele>2141</ele>
        <time>2026-06-19T11:07:35.000Z</time>
        <extensions>
          <ns3:TrackPointExtension>
            <ns3:atemp>19.0</ns3:atemp>
          </ns3:TrackPointExtension>
        </extensions>
      </trkpt>
      <trkpt lat="42.56395415402948856353759765625" lon="20.05096471868455410003662109375">
        <ele>2141</ele>
        <time>2026-06-19T11:07:36.000Z</time>
        <extensions>
          <ns3:TrackPointExtension>
            <ns3:atemp>19.0</ns3:atemp>
          </ns3:TrackPointExtension>
        </extensions>
      </trkpt>
      <trkpt lat="42.56395415402948856353759765625" lon="20.05096471868455410003662109375">
        <ele>2141</ele>
        <time>2026-06-19T11:07:37.000Z</time>
        <extensions>
          <ns3:TrackPointExtension>
            <ns3:atemp>19.0</ns3:atemp>
          </ns3:TrackPointExtension>
        </extensions>
      </trkpt>
      <trkpt lat="42.56395415402948856353759765625" lon="20.05096471868455410003662109375">
        <ele>2141</ele>
        <time>2026-06-19T11:07:38.000Z</time>
        <extensions>
          <ns3:TrackPointExtension>
            <ns3:atemp>19.0</ns3:atemp>
          </ns3:TrackPointExtension>
        </extensions>
      </trkpt>
      <trkpt lat="42.56395415402948856353759765625" lon="20.05096471868455410003662109375">
        <ele>2141</ele>
        <time>2026-06-19T11:07:39.000Z</time>
        <extensions>
          <ns3:TrackPointExtension>
            <ns3:atemp>19.0</ns3:atemp>
          </ns3:TrackPointExtension>
        </extensions>
      </trkpt>
      <trkpt lat="42.56395415402948856353759765625" lon="20.05096471868455410003662109375">
        <ele>2141</ele>
        <time>2026-06-19T11:07:40.000Z</time>
        <extensions>
          <ns3:TrackPointExtension>
            <ns3:atemp>19.0</ns3:atemp>
          </ns3:TrackPointExtension>
        </extensions>
      </trkpt>
      <trkpt lat="42.56395415402948856353759765625" lon="20.05096471868455410003662109375">
        <ele>2141</ele>
        <time>2026-06-19T11:07:41.000Z</time>
        <extensions>
          <ns3:TrackPointExtension>
            <ns3:atemp>19.0</ns3:atemp>
          </ns3:TrackPointExtension>
        </extensions>
      </trkpt>
      <trkpt lat="42.56395415402948856353759765625" lon="20.05096471868455410003662109375">
        <ele>2141</ele>
        <time>2026-06-19T11:07:42.000Z</time>
        <extensions>
          <ns3:TrackPointExtension>
            <ns3:atemp>19.0</ns3:atemp>
          </ns3:TrackPointExtension>
        </extensions>
      </trkpt>
      <trkpt lat="42.56395415402948856353759765625" lon="20.05096471868455410003662109375">
        <ele>2140.800048828125</ele>
        <time>2026-06-19T11:07:43.000Z</time>
        <extensions>
          <ns3:TrackPointExtension>
            <ns3:atemp>19.0</ns3:atemp>
          </ns3:TrackPointExtension>
        </extensions>
      </trkpt>
      <trkpt lat="42.56395415402948856353759765625" lon="20.05096471868455410003662109375">
        <ele>2140.800048828125</ele>
        <time>2026-06-19T11:07:44.000Z</time>
        <extensions>
          <ns3:TrackPointExtension>
            <ns3:atemp>19.0</ns3:atemp>
          </ns3:TrackPointExtension>
        </extensions>
      </trkpt>
      <trkpt lat="42.56395415402948856353759765625" lon="20.05096471868455410003662109375">
        <ele>2140.800048828125</ele>
        <time>2026-06-19T11:07:45.000Z</time>
        <extensions>
          <ns3:TrackPointExtension>
            <ns3:atemp>19.0</ns3:atemp>
          </ns3:TrackPointExtension>
        </extensions>
      </trkpt>
      <trkpt lat="42.56395415402948856353759765625" lon="20.05096471868455410003662109375">
        <ele>2140.800048828125</ele>
        <time>2026-06-19T11:07:46.000Z</time>
        <extensions>
          <ns3:TrackPointExtension>
            <ns3:atemp>19.0</ns3:atemp>
          </ns3:TrackPointExtension>
        </extensions>
      </trkpt>
      <trkpt lat="42.56395415402948856353759765625" lon="20.05096471868455410003662109375">
        <ele>2140.800048828125</ele>
        <time>2026-06-19T11:07:47.000Z</time>
        <extensions>
          <ns3:TrackPointExtension>
            <ns3:atemp>19.0</ns3:atemp>
          </ns3:TrackPointExtension>
        </extensions>
      </trkpt>
      <trkpt lat="42.56395415402948856353759765625" lon="20.05096471868455410003662109375">
        <ele>2141</ele>
        <time>2026-06-19T11:07:48.000Z</time>
        <extensions>
          <ns3:TrackPointExtension>
            <ns3:atemp>19.0</ns3:atemp>
          </ns3:TrackPointExtension>
        </extensions>
      </trkpt>
      <trkpt lat="42.56395415402948856353759765625" lon="20.05096471868455410003662109375">
        <ele>2141</ele>
        <time>2026-06-19T11:07:49.000Z</time>
        <extensions>
          <ns3:TrackPointExtension>
            <ns3:atemp>19.0</ns3:atemp>
          </ns3:TrackPointExtension>
        </extensions>
      </trkpt>
      <trkpt lat="42.56395415402948856353759765625" lon="20.05096471868455410003662109375">
        <ele>2141.199951171875</ele>
        <time>2026-06-19T11:07:50.000Z</time>
        <extensions>
          <ns3:TrackPointExtension>
            <ns3:atemp>19.0</ns3:atemp>
          </ns3:TrackPointExtension>
        </extensions>
      </trkpt>
      <trkpt lat="42.56395415402948856353759765625" lon="20.05096471868455410003662109375">
        <ele>2141.199951171875</ele>
        <time>2026-06-19T11:07:51.000Z</time>
        <extensions>
          <ns3:TrackPointExtension>
            <ns3:atemp>19.0</ns3:atemp>
          </ns3:TrackPointExtension>
        </extensions>
      </trkpt>
      <trkpt lat="42.56395415402948856353759765625" lon="20.05096471868455410003662109375">
        <ele>2141.199951171875</ele>
        <time>2026-06-19T11:07:52.000Z</time>
        <extensions>
          <ns3:TrackPointExtension>
            <ns3:atemp>19.0</ns3:atemp>
          </ns3:TrackPointExtension>
        </extensions>
      </trkpt>
      <trkpt lat="42.56395415402948856353759765625" lon="20.05096471868455410003662109375">
        <ele>2141.39990234375</ele>
        <time>2026-06-19T11:07:53.000Z</time>
        <extensions>
          <ns3:TrackPointExtension>
            <ns3:atemp>19.0</ns3:atemp>
          </ns3:TrackPointExtension>
        </extensions>
      </trkpt>
      <trkpt lat="42.56395415402948856353759765625" lon="20.05096471868455410003662109375">
        <ele>2141.39990234375</ele>
        <time>2026-06-19T11:07:54.000Z</time>
        <extensions>
          <ns3:TrackPointExtension>
            <ns3:atemp>19.0</ns3:atemp>
          </ns3:TrackPointExtension>
        </extensions>
      </trkpt>
      <trkpt lat="42.56395415402948856353759765625" lon="20.05096471868455410003662109375">
        <ele>2141.39990234375</ele>
        <time>2026-06-19T11:07:55.000Z</time>
        <extensions>
          <ns3:TrackPointExtension>
            <ns3:atemp>19.0</ns3:atemp>
          </ns3:TrackPointExtension>
        </extensions>
      </trkpt>
      <trkpt lat="42.56395415402948856353759765625" lon="20.05096471868455410003662109375">
        <ele>2141.39990234375</ele>
        <time>2026-06-19T11:07:56.000Z</time>
        <extensions>
          <ns3:TrackPointExtension>
            <ns3:atemp>19.0</ns3:atemp>
          </ns3:TrackPointExtension>
        </extensions>
      </trkpt>
      <trkpt lat="42.56395415402948856353759765625" lon="20.05096471868455410003662109375">
        <ele>2141.39990234375</ele>
        <time>2026-06-19T11:07:57.000Z</time>
        <extensions>
          <ns3:TrackPointExtension>
            <ns3:atemp>19.0</ns3:atemp>
          </ns3:TrackPointExtension>
        </extensions>
      </trkpt>
      <trkpt lat="42.56395415402948856353759765625" lon="20.05096471868455410003662109375">
        <ele>2141.39990234375</ele>
        <time>2026-06-19T11:07:58.000Z</time>
        <extensions>
          <ns3:TrackPointExtension>
            <ns3:atemp>19.0</ns3:atemp>
          </ns3:TrackPointExtension>
        </extensions>
      </trkpt>
      <trkpt lat="42.56395415402948856353759765625" lon="20.05096471868455410003662109375">
        <ele>2141.39990234375</ele>
        <time>2026-06-19T11:07:59.000Z</time>
        <extensions>
          <ns3:TrackPointExtension>
            <ns3:atemp>19.0</ns3:atemp>
          </ns3:TrackPointExtension>
        </extensions>
      </trkpt>
      <trkpt lat="42.56395415402948856353759765625" lon="20.05096471868455410003662109375">
        <ele>2141.39990234375</ele>
        <time>2026-06-19T11:08:00.000Z</time>
        <extensions>
          <ns3:TrackPointExtension>
            <ns3:atemp>19.0</ns3:atemp>
          </ns3:TrackPointExtension>
        </extensions>
      </trkpt>
      <trkpt lat="42.56395415402948856353759765625" lon="20.05096471868455410003662109375">
        <ele>2141.39990234375</ele>
        <time>2026-06-19T11:08:01.000Z</time>
        <extensions>
          <ns3:TrackPointExtension>
            <ns3:atemp>19.0</ns3:atemp>
          </ns3:TrackPointExtension>
        </extensions>
      </trkpt>
      <trkpt lat="42.56395415402948856353759765625" lon="20.05096471868455410003662109375">
        <ele>2141.39990234375</ele>
        <time>2026-06-19T11:08:02.000Z</time>
        <extensions>
          <ns3:TrackPointExtension>
            <ns3:atemp>19.0</ns3:atemp>
          </ns3:TrackPointExtension>
        </extensions>
      </trkpt>
      <trkpt lat="42.56395415402948856353759765625" lon="20.05096471868455410003662109375">
        <ele>2141.39990234375</ele>
        <time>2026-06-19T11:08:03.000Z</time>
        <extensions>
          <ns3:TrackPointExtension>
            <ns3:atemp>19.0</ns3:atemp>
          </ns3:TrackPointExtension>
        </extensions>
      </trkpt>
      <trkpt lat="42.56395415402948856353759765625" lon="20.05096471868455410003662109375">
        <ele>2141.39990234375</ele>
        <time>2026-06-19T11:08:04.000Z</time>
        <extensions>
          <ns3:TrackPointExtension>
            <ns3:atemp>19.0</ns3:atemp>
          </ns3:TrackPointExtension>
        </extensions>
      </trkpt>
      <trkpt lat="42.56395415402948856353759765625" lon="20.05096471868455410003662109375">
        <ele>2141.39990234375</ele>
        <time>2026-06-19T11:08:05.000Z</time>
        <extensions>
          <ns3:TrackPointExtension>
            <ns3:atemp>19.0</ns3:atemp>
          </ns3:TrackPointExtension>
        </extensions>
      </trkpt>
      <trkpt lat="42.56395415402948856353759765625" lon="20.05096471868455410003662109375">
        <ele>2141.39990234375</ele>
        <time>2026-06-19T11:08:06.000Z</time>
        <extensions>
          <ns3:TrackPointExtension>
            <ns3:atemp>19.0</ns3:atemp>
          </ns3:TrackPointExtension>
        </extensions>
      </trkpt>
      <trkpt lat="42.56395415402948856353759765625" lon="20.05096471868455410003662109375">
        <ele>2141.39990234375</ele>
        <time>2026-06-19T11:08:07.000Z</time>
        <extensions>
          <ns3:TrackPointExtension>
            <ns3:atemp>19.0</ns3:atemp>
          </ns3:TrackPointExtension>
        </extensions>
      </trkpt>
      <trkpt lat="42.56395415402948856353759765625" lon="20.05096471868455410003662109375">
        <ele>2141.39990234375</ele>
        <time>2026-06-19T11:08:08.000Z</time>
        <extensions>
          <ns3:TrackPointExtension>
            <ns3:atemp>19.0</ns3:atemp>
          </ns3:TrackPointExtension>
        </extensions>
      </trkpt>
      <trkpt lat="42.56395415402948856353759765625" lon="20.05096471868455410003662109375">
        <ele>2141.39990234375</ele>
        <time>2026-06-19T11:08:09.000Z</time>
        <extensions>
          <ns3:TrackPointExtension>
            <ns3:atemp>19.0</ns3:atemp>
          </ns3:TrackPointExtension>
        </extensions>
      </trkpt>
      <trkpt lat="42.56395415402948856353759765625" lon="20.05096471868455410003662109375">
        <ele>2141.39990234375</ele>
        <time>2026-06-19T11:08:10.000Z</time>
        <extensions>
          <ns3:TrackPointExtension>
            <ns3:atemp>19.0</ns3:atemp>
          </ns3:TrackPointExtension>
        </extensions>
      </trkpt>
      <trkpt lat="42.56395415402948856353759765625" lon="20.05096471868455410003662109375">
        <ele>2141.39990234375</ele>
        <time>2026-06-19T11:08:11.000Z</time>
        <extensions>
          <ns3:TrackPointExtension>
            <ns3:atemp>19.0</ns3:atemp>
          </ns3:TrackPointExtension>
        </extensions>
      </trkpt>
      <trkpt lat="42.56395415402948856353759765625" lon="20.05096471868455410003662109375">
        <ele>2141.39990234375</ele>
        <time>2026-06-19T11:08:12.000Z</time>
        <extensions>
          <ns3:TrackPointExtension>
            <ns3:atemp>19.0</ns3:atemp>
          </ns3:TrackPointExtension>
        </extensions>
      </trkpt>
      <trkpt lat="42.56395415402948856353759765625" lon="20.05096471868455410003662109375">
        <ele>2141.39990234375</ele>
        <time>2026-06-19T11:08:13.000Z</time>
        <extensions>
          <ns3:TrackPointExtension>
            <ns3:atemp>19.0</ns3:atemp>
          </ns3:TrackPointExtension>
        </extensions>
      </trkpt>
      <trkpt lat="42.56395415402948856353759765625" lon="20.05096471868455410003662109375">
        <ele>2141.39990234375</ele>
        <time>2026-06-19T11:08:14.000Z</time>
        <extensions>
          <ns3:TrackPointExtension>
            <ns3:atemp>19.0</ns3:atemp>
          </ns3:TrackPointExtension>
        </extensions>
      </trkpt>
      <trkpt lat="42.56395415402948856353759765625" lon="20.05096471868455410003662109375">
        <ele>2141.39990234375</ele>
        <time>2026-06-19T11:08:15.000Z</time>
        <extensions>
          <ns3:TrackPointExtension>
            <ns3:atemp>19.0</ns3:atemp>
          </ns3:TrackPointExtension>
        </extensions>
      </trkpt>
      <trkpt lat="42.56395415402948856353759765625" lon="20.05096471868455410003662109375">
        <ele>2141.39990234375</ele>
        <time>2026-06-19T11:08:16.000Z</time>
        <extensions>
          <ns3:TrackPointExtension>
            <ns3:atemp>19.0</ns3:atemp>
          </ns3:TrackPointExtension>
        </extensions>
      </trkpt>
      <trkpt lat="42.563951723277568817138671875" lon="20.05097058601677417755126953125">
        <ele>2141.39990234375</ele>
        <time>2026-06-19T11:08:17.000Z</time>
        <extensions>
          <ns3:TrackPointExtension>
            <ns3:atemp>19.0</ns3:atemp>
          </ns3:TrackPointExtension>
        </extensions>
      </trkpt>
      <trkpt lat="42.5639448501169681549072265625" lon="20.05098215304315090179443359375">
        <ele>2141.199951171875</ele>
        <time>2026-06-19T11:08:18.000Z</time>
        <extensions>
          <ns3:TrackPointExtension>
            <ns3:atemp>19.0</ns3:atemp>
          </ns3:TrackPointExtension>
        </extensions>
      </trkpt>
      <trkpt lat="42.5639414973556995391845703125" lon="20.0509830750524997711181640625">
        <ele>2141.199951171875</ele>
        <time>2026-06-19T11:08:19.000Z</time>
        <extensions>
          <ns3:TrackPointExtension>
            <ns3:atemp>19.0</ns3:atemp>
          </ns3:TrackPointExtension>
        </extensions>
      </trkpt>
      <trkpt lat="42.5639357976615428924560546875" lon="20.05097913555800914764404296875">
        <ele>2141.199951171875</ele>
        <time>2026-06-19T11:08:20.000Z</time>
        <extensions>
          <ns3:TrackPointExtension>
            <ns3:atemp>19.0</ns3:atemp>
          </ns3:TrackPointExtension>
        </extensions>
      </trkpt>
      <trkpt lat="42.56393638439476490020751953125" lon="20.0509783811867237091064453125">
        <ele>2141.39990234375</ele>
        <time>2026-06-19T11:08:21.000Z</time>
        <extensions>
          <ns3:TrackPointExtension>
            <ns3:atemp>19.0</ns3:atemp>
          </ns3:TrackPointExtension>
        </extensions>
      </trkpt>
      <trkpt lat="42.563936300575733184814453125" lon="20.0509783811867237091064453125">
        <ele>2141.39990234375</ele>
        <time>2026-06-19T11:08:22.000Z</time>
        <extensions>
          <ns3:TrackPointExtension>
            <ns3:atemp>19.0</ns3:atemp>
          </ns3:TrackPointExtension>
        </extensions>
      </trkpt>
      <trkpt lat="42.563934959471225738525390625" lon="20.05097729153931140899658203125">
        <ele>2141.60009765625</ele>
        <time>2026-06-19T11:08:23.000Z</time>
        <extensions>
          <ns3:TrackPointExtension>
            <ns3:atemp>19.0</ns3:atemp>
          </ns3:TrackPointExtension>
        </extensions>
      </trkpt>
      <trkpt lat="42.563934959471225738525390625" lon="20.05097729153931140899658203125">
        <ele>2141.60009765625</ele>
        <time>2026-06-19T11:08:24.000Z</time>
        <extensions>
          <ns3:TrackPointExtension>
            <ns3:atemp>19.0</ns3:atemp>
          </ns3:TrackPointExtension>
        </extensions>
      </trkpt>
      <trkpt lat="42.563934959471225738525390625" lon="20.05097729153931140899658203125">
        <ele>2141.60009765625</ele>
        <time>2026-06-19T11:08:25.000Z</time>
        <extensions>
          <ns3:TrackPointExtension>
            <ns3:atemp>19.0</ns3:atemp>
          </ns3:TrackPointExtension>
        </extensions>
      </trkpt>
      <trkpt lat="42.563934959471225738525390625" lon="20.05097729153931140899658203125">
        <ele>2141.60009765625</ele>
        <time>2026-06-19T11:08:26.000Z</time>
        <extensions>
          <ns3:TrackPointExtension>
            <ns3:atemp>19.0</ns3:atemp>
          </ns3:TrackPointExtension>
        </extensions>
      </trkpt>
      <trkpt lat="42.563934959471225738525390625" lon="20.05097729153931140899658203125">
        <ele>2141.800048828125</ele>
        <time>2026-06-19T11:08:27.000Z</time>
        <extensions>
          <ns3:TrackPointExtension>
            <ns3:atemp>19.0</ns3:atemp>
          </ns3:TrackPointExtension>
        </extensions>
      </trkpt>
      <trkpt lat="42.563934959471225738525390625" lon="20.05097729153931140899658203125">
        <ele>2141.800048828125</ele>
        <time>2026-06-19T11:08:28.000Z</time>
        <extensions>
          <ns3:TrackPointExtension>
            <ns3:atemp>19.0</ns3:atemp>
          </ns3:TrackPointExtension>
        </extensions>
      </trkpt>
      <trkpt lat="42.563934959471225738525390625" lon="20.05097729153931140899658203125">
        <ele>2141.800048828125</ele>
        <time>2026-06-19T11:08:29.000Z</time>
        <extensions>
          <ns3:TrackPointExtension>
            <ns3:atemp>19.0</ns3:atemp>
          </ns3:TrackPointExtension>
        </extensions>
      </trkpt>
      <trkpt lat="42.563934959471225738525390625" lon="20.05097729153931140899658203125">
        <ele>2141.800048828125</ele>
        <time>2026-06-19T11:08:30.000Z</time>
        <extensions>
          <ns3:TrackPointExtension>
            <ns3:atemp>19.0</ns3:atemp>
          </ns3:TrackPointExtension>
        </extensions>
      </trkpt>
      <trkpt lat="42.563934959471225738525390625" lon="20.05097729153931140899658203125">
        <ele>2141.800048828125</ele>
        <time>2026-06-19T11:08:31.000Z</time>
        <extensions>
          <ns3:TrackPointExtension>
            <ns3:atemp>19.0</ns3:atemp>
          </ns3:TrackPointExtension>
        </extensions>
      </trkpt>
      <trkpt lat="42.563934959471225738525390625" lon="20.05097729153931140899658203125">
        <ele>2141.800048828125</ele>
        <time>2026-06-19T11:08:32.000Z</time>
        <extensions>
          <ns3:TrackPointExtension>
            <ns3:atemp>19.0</ns3:atemp>
          </ns3:TrackPointExtension>
        </extensions>
      </trkpt>
      <trkpt lat="42.563934959471225738525390625" lon="20.05097729153931140899658203125">
        <ele>2141.60009765625</ele>
        <time>2026-06-19T11:08:33.000Z</time>
        <extensions>
          <ns3:TrackPointExtension>
            <ns3:atemp>19.0</ns3:atemp>
          </ns3:TrackPointExtension>
        </extensions>
      </trkpt>
      <trkpt lat="42.56393336690962314605712890625" lon="20.05097745917737483978271484375">
        <ele>2141.60009765625</ele>
        <time>2026-06-19T11:08:34.000Z</time>
        <extensions>
          <ns3:TrackPointExtension>
            <ns3:atemp>19.0</ns3:atemp>
          </ns3:TrackPointExtension>
        </extensions>
      </trkpt>
      <trkpt lat="42.56391677074134349822998046875" lon="20.05098148249089717864990234375">
        <ele>2141.60009765625</ele>
        <time>2026-06-19T11:08:35.000Z</time>
        <extensions>
          <ns3:TrackPointExtension>
            <ns3:atemp>19.0</ns3:atemp>
          </ns3:TrackPointExtension>
        </extensions>
      </trkpt>
      <trkpt lat="42.5639046169817447662353515625" lon="20.050981901586055755615234375">
        <ele>2141.60009765625</ele>
        <time>2026-06-19T11:08:36.000Z</time>
        <extensions>
          <ns3:TrackPointExtension>
            <ns3:atemp>19.0</ns3:atemp>
          </ns3:TrackPointExtension>
        </extensions>
      </trkpt>
      <trkpt lat="42.5638831593096256256103515625" lon="20.0509822368621826171875">
        <ele>2141.60009765625</ele>
        <time>2026-06-19T11:08:37.000Z</time>
        <extensions>
          <ns3:TrackPointExtension>
            <ns3:atemp>19.0</ns3:atemp>
          </ns3:TrackPointExtension>
        </extensions>
      </trkpt>
      <trkpt lat="42.56386220455169677734375" lon="20.05098198540508747100830078125">
        <ele>2141.60009765625</ele>
        <time>2026-06-19T11:08:38.000Z</time>
        <extensions>
          <ns3:TrackPointExtension>
            <ns3:atemp>19.0</ns3:atemp>
          </ns3:TrackPointExtension>
        </extensions>
      </trkpt>
      <trkpt lat="42.56384678184986114501953125" lon="20.05097963847219944000244140625">
        <ele>2141.800048828125</ele>
        <time>2026-06-19T11:08:39.000Z</time>
        <extensions>
          <ns3:TrackPointExtension>
            <ns3:atemp>19.0</ns3:atemp>
          </ns3:TrackPointExtension>
        </extensions>
      </trkpt>
      <trkpt lat="42.56383026950061321258544921875" lon="20.0509767048060894012451171875">
        <ele>2141.800048828125</ele>
        <time>2026-06-19T11:08:40.000Z</time>
        <extensions>
          <ns3:TrackPointExtension>
            <ns3:atemp>19.0</ns3:atemp>
          </ns3:TrackPointExtension>
        </extensions>
      </trkpt>
      <trkpt lat="42.5638130865991115570068359375" lon="20.0509746931493282318115234375">
        <ele>2142</ele>
        <time>2026-06-19T11:08:41.000Z</time>
        <extensions>
          <ns3:TrackPointExtension>
            <ns3:atemp>19.0</ns3:atemp>
          </ns3:TrackPointExtension>
        </extensions>
      </trkpt>
      <trkpt lat="42.56379037164151668548583984375" lon="20.05097209475934505462646484375">
        <ele>2142.199951171875</ele>
        <time>2026-06-19T11:08:42.000Z</time>
        <extensions>
          <ns3:TrackPointExtension>
            <ns3:atemp>19.0</ns3:atemp>
          </ns3:TrackPointExtension>
        </extensions>
      </trkpt>
      <trkpt lat="42.5637696683406829833984375" lon="20.05096773616969585418701171875">
        <ele>2142.199951171875</ele>
        <time>2026-06-19T11:08:43.000Z</time>
        <extensions>
          <ns3:TrackPointExtension>
            <ns3:atemp>19.0</ns3:atemp>
          </ns3:TrackPointExtension>
        </extensions>
      </trkpt>
      <trkpt lat="42.56375181488692760467529296875" lon="20.05096572451293468475341796875">
        <ele>2142.39990234375</ele>
        <time>2026-06-19T11:08:44.000Z</time>
        <extensions>
          <ns3:TrackPointExtension>
            <ns3:atemp>19.0</ns3:atemp>
          </ns3:TrackPointExtension>
        </extensions>
      </trkpt>
      <trkpt lat="42.56373655982315540313720703125" lon="20.05096287466585636138916015625">
        <ele>2142.60009765625</ele>
        <time>2026-06-19T11:08:45.000Z</time>
        <extensions>
          <ns3:TrackPointExtension>
            <ns3:atemp>19.0</ns3:atemp>
          </ns3:TrackPointExtension>
        </extensions>
      </trkpt>
      <trkpt lat="42.563721723854541778564453125" lon="20.0509636290371417999267578125">
        <ele>2142.800048828125</ele>
        <time>2026-06-19T11:08:46.000Z</time>
        <extensions>
          <ns3:TrackPointExtension>
            <ns3:atemp>19.0</ns3:atemp>
          </ns3:TrackPointExtension>
        </extensions>
      </trkpt>
      <trkpt lat="42.5637078098952770233154296875" lon="20.05096203647553920745849609375">
        <ele>2143</ele>
        <time>2026-06-19T11:08:47.000Z</time>
        <extensions>
          <ns3:TrackPointExtension>
            <ns3:atemp>19.0</ns3:atemp>
          </ns3:TrackPointExtension>
        </extensions>
      </trkpt>
      <trkpt lat="42.56369817070662975311279296875" lon="20.0509622879326343536376953125">
        <ele>2143.199951171875</ele>
        <time>2026-06-19T11:08:48.000Z</time>
        <extensions>
          <ns3:TrackPointExtension>
            <ns3:atemp>19.0</ns3:atemp>
          </ns3:TrackPointExtension>
        </extensions>
      </trkpt>
      <trkpt lat="42.5636811554431915283203125" lon="20.0509648025035858154296875">
        <ele>2143.60009765625</ele>
        <time>2026-06-19T11:08:49.000Z</time>
        <extensions>
          <ns3:TrackPointExtension>
            <ns3:atemp>19.0</ns3:atemp>
          </ns3:TrackPointExtension>
        </extensions>
      </trkpt>
      <trkpt lat="42.56366296671330928802490234375" lon="20.050963126122951507568359375">
        <ele>2143.800048828125</ele>
        <time>2026-06-19T11:08:50.000Z</time>
        <extensions>
          <ns3:TrackPointExtension>
            <ns3:atemp>19.0</ns3:atemp>
          </ns3:TrackPointExtension>
        </extensions>
      </trkpt>
      <trkpt lat="42.563642598688602447509765625" lon="20.0509582646191120147705078125">
        <ele>2144.199951171875</ele>
        <time>2026-06-19T11:08:51.000Z</time>
        <extensions>
          <ns3:TrackPointExtension>
            <ns3:atemp>19.0</ns3:atemp>
          </ns3:TrackPointExtension>
        </extensions>
      </trkpt>
      <trkpt lat="42.56362960673868656158447265625" lon="20.050959102809429168701171875">
        <ele>2144.60009765625</ele>
        <time>2026-06-19T11:08:52.000Z</time>
        <extensions>
          <ns3:TrackPointExtension>
            <ns3:atemp>19.0</ns3:atemp>
          </ns3:TrackPointExtension>
        </extensions>
      </trkpt>
      <trkpt lat="42.56361334584653377532958984375" lon="20.0509612821042537689208984375">
        <ele>2145</ele>
        <time>2026-06-19T11:08:53.000Z</time>
        <extensions>
          <ns3:TrackPointExtension>
            <ns3:atemp>19.0</ns3:atemp>
          </ns3:TrackPointExtension>
        </extensions>
      </trkpt>
      <trkpt lat="42.563600353896617889404296875" lon="20.05097125656902790069580078125">
        <ele>2145.39990234375</ele>
        <time>2026-06-19T11:08:54.000Z</time>
        <extensions>
          <ns3:TrackPointExtension>
            <ns3:atemp>19.0</ns3:atemp>
          </ns3:TrackPointExtension>
        </extensions>
      </trkpt>
      <trkpt lat="42.56358618848025798797607421875" lon="20.05098969675600528717041015625">
        <ele>2145.60009765625</ele>
        <time>2026-06-19T11:08:55.000Z</time>
        <extensions>
          <ns3:TrackPointExtension>
            <ns3:atemp>19.0</ns3:atemp>
          </ns3:TrackPointExtension>
        </extensions>
      </trkpt>
      <trkpt lat="42.56357696838676929473876953125" lon="20.05100696347653865814208984375">
        <ele>2146</ele>
        <time>2026-06-19T11:08:56.000Z</time>
        <extensions>
          <ns3:TrackPointExtension>
            <ns3:atemp>19.0</ns3:atemp>
          </ns3:TrackPointExtension>
        </extensions>
      </trkpt>
      <trkpt lat="42.56356112658977508544921875" lon="20.05102238617837429046630859375">
        <ele>2146.39990234375</ele>
        <time>2026-06-19T11:08:57.000Z</time>
        <extensions>
          <ns3:TrackPointExtension>
            <ns3:atemp>19.0</ns3:atemp>
          </ns3:TrackPointExtension>
        </extensions>
      </trkpt>
      <trkpt lat="42.56354562006890773773193359375" lon="20.0510337017476558685302734375">
        <ele>2146.800048828125</ele>
        <time>2026-06-19T11:08:58.000Z</time>
        <extensions>
          <ns3:TrackPointExtension>
            <ns3:atemp>19.0</ns3:atemp>
          </ns3:TrackPointExtension>
        </extensions>
      </trkpt>
      <trkpt lat="42.56352935917675495147705078125" lon="20.0510444305837154388427734375">
        <ele>2147.199951171875</ele>
        <time>2026-06-19T11:08:59.000Z</time>
        <extensions>
          <ns3:TrackPointExtension>
            <ns3:atemp>19.0</ns3:atemp>
          </ns3:TrackPointExtension>
        </extensions>
      </trkpt>
      <trkpt lat="42.5635103322565555572509765625" lon="20.0510501302778720855712890625">
        <ele>2147.60009765625</ele>
        <time>2026-06-19T11:09:00.000Z</time>
        <extensions>
          <ns3:TrackPointExtension>
            <ns3:atemp>19.0</ns3:atemp>
          </ns3:TrackPointExtension>
        </extensions>
      </trkpt>
      <trkpt lat="42.56349164061248302459716796875" lon="20.0510514713823795318603515625">
        <ele>2148.199951171875</ele>
        <time>2026-06-19T11:09:01.000Z</time>
        <extensions>
          <ns3:TrackPointExtension>
            <ns3:atemp>19.0</ns3:atemp>
          </ns3:TrackPointExtension>
        </extensions>
      </trkpt>
      <trkpt lat="42.56347596645355224609375" lon="20.0510585121810436248779296875">
        <ele>2148.800048828125</ele>
        <time>2026-06-19T11:09:02.000Z</time>
        <extensions>
          <ns3:TrackPointExtension>
            <ns3:atemp>19.0</ns3:atemp>
          </ns3:TrackPointExtension>
        </extensions>
      </trkpt>
      <trkpt lat="42.56346096284687519073486328125" lon="20.05107552744448184967041015625">
        <ele>2149.199951171875</ele>
        <time>2026-06-19T11:09:03.000Z</time>
        <extensions>
          <ns3:TrackPointExtension>
            <ns3:atemp>19.0</ns3:atemp>
          </ns3:TrackPointExtension>
        </extensions>
      </trkpt>
      <trkpt lat="42.56344688124954700469970703125" lon="20.0510886870324611663818359375">
        <ele>2150</ele>
        <time>2026-06-19T11:09:04.000Z</time>
        <extensions>
          <ns3:TrackPointExtension>
            <ns3:atemp>19.0</ns3:atemp>
          </ns3:TrackPointExtension>
        </extensions>
      </trkpt>
      <trkpt lat="42.56343581713736057281494140625" lon="20.0511000864207744598388671875">
        <ele>2150.39990234375</ele>
        <time>2026-06-19T11:09:05.000Z</time>
        <extensions>
          <ns3:TrackPointExtension>
            <ns3:atemp>19.0</ns3:atemp>
          </ns3:TrackPointExtension>
        </extensions>
      </trkpt>
      <trkpt lat="42.56341821514070034027099609375" lon="20.05110318772494792938232421875">
        <ele>2151</ele>
        <time>2026-06-19T11:09:06.000Z</time>
        <extensions>
          <ns3:TrackPointExtension>
            <ns3:atemp>19.0</ns3:atemp>
          </ns3:TrackPointExtension>
        </extensions>
      </trkpt>
      <trkpt lat="42.56340228952467441558837890625" lon="20.051097571849822998046875">
        <ele>2151.39990234375</ele>
        <time>2026-06-19T11:09:07.000Z</time>
        <extensions>
          <ns3:TrackPointExtension>
            <ns3:atemp>19.0</ns3:atemp>
          </ns3:TrackPointExtension>
        </extensions>
      </trkpt>
      <trkpt lat="42.56338703446090221405029296875" lon="20.0510910339653491973876953125">
        <ele>2151.800048828125</ele>
        <time>2026-06-19T11:09:08.000Z</time>
        <extensions>
          <ns3:TrackPointExtension>
            <ns3:atemp>19.0</ns3:atemp>
          </ns3:TrackPointExtension>
        </extensions>
      </trkpt>
      <trkpt lat="42.56337060593068599700927734375" lon="20.05108877085149288177490234375">
        <ele>2152</ele>
        <time>2026-06-19T11:09:09.000Z</time>
        <extensions>
          <ns3:TrackPointExtension>
            <ns3:atemp>19.0</ns3:atemp>
          </ns3:TrackPointExtension>
        </extensions>
      </trkpt>
      <trkpt lat="42.5633500702679157257080078125" lon="20.05109287798404693603515625">
        <ele>2152.60009765625</ele>
        <time>2026-06-19T11:09:10.000Z</time>
        <extensions>
          <ns3:TrackPointExtension>
            <ns3:atemp>19.0</ns3:atemp>
          </ns3:TrackPointExtension>
        </extensions>
      </trkpt>
      <trkpt lat="42.56333003751933574676513671875" lon="20.0510933808982372283935546875">
        <ele>2152.800048828125</ele>
        <time>2026-06-19T11:09:11.000Z</time>
        <extensions>
          <ns3:TrackPointExtension>
            <ns3:atemp>19.0</ns3:atemp>
          </ns3:TrackPointExtension>
        </extensions>
      </trkpt>
      <trkpt lat="42.56331109441816806793212890625" lon="20.05109564401209354400634765625">
        <ele>2153.199951171875</ele>
        <time>2026-06-19T11:09:12.000Z</time>
        <extensions>
          <ns3:TrackPointExtension>
            <ns3:atemp>19.0</ns3:atemp>
          </ns3:TrackPointExtension>
        </extensions>
      </trkpt>
      <trkpt lat="42.5632967613637447357177734375" lon="20.05110100843012332916259765625">
        <ele>2153.60009765625</ele>
        <time>2026-06-19T11:09:13.000Z</time>
        <extensions>
          <ns3:TrackPointExtension>
            <ns3:atemp>19.0</ns3:atemp>
          </ns3:TrackPointExtension>
        </extensions>
      </trkpt>
      <trkpt lat="42.56328594870865345001220703125" lon="20.0510990805923938751220703125">
        <ele>2154</ele>
        <time>2026-06-19T11:09:14.000Z</time>
        <extensions>
          <ns3:TrackPointExtension>
            <ns3:atemp>19.0</ns3:atemp>
          </ns3:TrackPointExtension>
        </extensions>
      </trkpt>
      <trkpt lat="42.56326985545456409454345703125" lon="20.05109916441142559051513671875">
        <ele>2154.60009765625</ele>
        <time>2026-06-19T11:09:15.000Z</time>
        <extensions>
          <ns3:TrackPointExtension>
            <ns3:atemp>19.0</ns3:atemp>
          </ns3:TrackPointExtension>
        </extensions>
      </trkpt>
      <trkpt lat="42.56325309164822101593017578125" lon="20.05110553465783596038818359375">
        <ele>2155</ele>
        <time>2026-06-19T11:09:16.000Z</time>
        <extensions>
          <ns3:TrackPointExtension>
            <ns3:atemp>19.0</ns3:atemp>
          </ns3:TrackPointExtension>
        </extensions>
      </trkpt>
      <trkpt lat="42.563235573470592498779296875" lon="20.05111408419907093048095703125">
        <ele>2155.60009765625</ele>
        <time>2026-06-19T11:09:17.000Z</time>
        <extensions>
          <ns3:TrackPointExtension>
            <ns3:atemp>19.0</ns3:atemp>
          </ns3:TrackPointExtension>
        </extensions>
      </trkpt>
      <trkpt lat="42.56321805529296398162841796875" lon="20.05112414248287677764892578125">
        <ele>2156</ele>
        <time>2026-06-19T11:09:18.000Z</time>
        <extensions>
          <ns3:TrackPointExtension>
            <ns3:atemp>19.0</ns3:atemp>
          </ns3:TrackPointExtension>
        </extensions>
      </trkpt>
      <trkpt lat="42.56320313550531864166259765625" lon="20.051137469708919525146484375">
        <ele>2156.60009765625</ele>
        <time>2026-06-19T11:09:19.000Z</time>
        <extensions>
          <ns3:TrackPointExtension>
            <ns3:atemp>19.0</ns3:atemp>
          </ns3:TrackPointExtension>
        </extensions>
      </trkpt>
      <trkpt lat="42.563185952603816986083984375" lon="20.051151216030120849609375">
        <ele>2157</ele>
        <time>2026-06-19T11:09:20.000Z</time>
        <extensions>
          <ns3:TrackPointExtension>
            <ns3:atemp>19.0</ns3:atemp>
          </ns3:TrackPointExtension>
        </extensions>
      </trkpt>
      <trkpt lat="42.56316944025456905364990234375" lon="20.05116554908454418182373046875">
        <ele>2157.60009765625</ele>
        <time>2026-06-19T11:09:21.000Z</time>
        <extensions>
          <ns3:TrackPointExtension>
            <ns3:atemp>19.0</ns3:atemp>
          </ns3:TrackPointExtension>
        </extensions>
      </trkpt>
      <trkpt lat="42.5631549395620822906494140625" lon="20.05118248052895069122314453125">
        <ele>2158.199951171875</ele>
        <time>2026-06-19T11:09:22.000Z</time>
        <extensions>
          <ns3:TrackPointExtension>
            <ns3:atemp>19.0</ns3:atemp>
          </ns3:TrackPointExtension>
        </extensions>
      </trkpt>
      <trkpt lat="42.56314127705991268157958984375" lon="20.05119672976434230804443359375">
        <ele>2158.60009765625</ele>
        <time>2026-06-19T11:09:23.000Z</time>
        <extensions>
          <ns3:TrackPointExtension>
            <ns3:atemp>19.0</ns3:atemp>
          </ns3:TrackPointExtension>
        </extensions>
      </trkpt>
      <trkpt lat="42.56312903948128223419189453125" lon="20.0512177683413028717041015625">
        <ele>2159</ele>
        <time>2026-06-19T11:09:24.000Z</time>
        <extensions>
          <ns3:TrackPointExtension>
            <ns3:atemp>19.0</ns3:atemp>
          </ns3:TrackPointExtension>
        </extensions>
      </trkpt>
      <trkpt lat="42.56312015466392040252685546875" lon="20.05123444832861423492431640625">
        <ele>2159.60009765625</ele>
        <time>2026-06-19T11:09:25.000Z</time>
        <extensions>
          <ns3:TrackPointExtension>
            <ns3:atemp>19.0</ns3:atemp>
          </ns3:TrackPointExtension>
        </extensions>
      </trkpt>
      <trkpt lat="42.563111521303653717041015625" lon="20.0512502901256084442138671875">
        <ele>2160</ele>
        <time>2026-06-19T11:09:26.000Z</time>
        <extensions>
          <ns3:TrackPointExtension>
            <ns3:atemp>19.0</ns3:atemp>
          </ns3:TrackPointExtension>
        </extensions>
      </trkpt>
      <trkpt lat="42.56310942582786083221435546875" lon="20.05126981995999813079833984375">
        <ele>2160.60009765625</ele>
        <time>2026-06-19T11:09:27.000Z</time>
        <extensions>
          <ns3:TrackPointExtension>
            <ns3:atemp>19.0</ns3:atemp>
          </ns3:TrackPointExtension>
        </extensions>
      </trkpt>
      <trkpt lat="42.563107497990131378173828125" lon="20.0512764416635036468505859375">
        <ele>2161</ele>
        <time>2026-06-19T11:09:28.000Z</time>
        <extensions>
          <ns3:TrackPointExtension>
            <ns3:atemp>19.0</ns3:atemp>
          </ns3:TrackPointExtension>
        </extensions>
      </trkpt>
      <trkpt lat="42.563103474676609039306640625" lon="20.05127350799739360809326171875">
        <ele>2161.39990234375</ele>
        <time>2026-06-19T11:09:29.000Z</time>
        <extensions>
          <ns3:TrackPointExtension>
            <ns3:atemp>19.0</ns3:atemp>
          </ns3:TrackPointExtension>
        </extensions>
      </trkpt>
      <trkpt lat="42.56310020573437213897705078125" lon="20.05126931704580783843994140625">
        <ele>2161.800048828125</ele>
        <time>2026-06-19T11:09:30.000Z</time>
        <extensions>
          <ns3:TrackPointExtension>
            <ns3:atemp>19.0</ns3:atemp>
          </ns3:TrackPointExtension>
        </extensions>
      </trkpt>
      <trkpt lat="42.56309484131634235382080078125" lon="20.05128004588186740875244140625">
        <ele>2162</ele>
        <time>2026-06-19T11:09:31.000Z</time>
        <extensions>
          <ns3:TrackPointExtension>
            <ns3:atemp>19.0</ns3:atemp>
          </ns3:TrackPointExtension>
        </extensions>
      </trkpt>
      <trkpt lat="42.56308972835540771484375" lon="20.05129245109856128692626953125">
        <ele>2162.199951171875</ele>
        <time>2026-06-19T11:09:32.000Z</time>
        <extensions>
          <ns3:TrackPointExtension>
            <ns3:atemp>19.0</ns3:atemp>
          </ns3:TrackPointExtension>
        </extensions>
      </trkpt>
      <trkpt lat="42.5630912370979785919189453125" lon="20.05129446275532245635986328125">
        <ele>2162.60009765625</ele>
        <time>2026-06-19T11:09:33.000Z</time>
        <extensions>
          <ns3:TrackPointExtension>
            <ns3:atemp>19.0</ns3:atemp>
          </ns3:TrackPointExtension>
        </extensions>
      </trkpt>
      <trkpt lat="42.56309115327894687652587890625" lon="20.05129463039338588714599609375">
        <ele>2162.800048828125</ele>
        <time>2026-06-19T11:09:34.000Z</time>
        <extensions>
          <ns3:TrackPointExtension>
            <ns3:atemp>19.0</ns3:atemp>
          </ns3:TrackPointExtension>
        </extensions>
      </trkpt>
      <trkpt lat="42.56309115327894687652587890625" lon="20.05129479803144931793212890625">
        <ele>2163.199951171875</ele>
        <time>2026-06-19T11:09:35.000Z</time>
        <extensions>
          <ns3:TrackPointExtension>
            <ns3:atemp>19.0</ns3:atemp>
          </ns3:TrackPointExtension>
        </extensions>
      </trkpt>
      <trkpt lat="42.56308637559413909912109375" lon="20.051307119429111480712890625">
        <ele>2163.39990234375</ele>
        <time>2026-06-19T11:09:36.000Z</time>
        <extensions>
          <ns3:TrackPointExtension>
            <ns3:atemp>19.0</ns3:atemp>
          </ns3:TrackPointExtension>
        </extensions>
      </trkpt>
      <trkpt lat="42.56308360956609249114990234375" lon="20.051317512989044189453125">
        <ele>2163.60009765625</ele>
        <time>2026-06-19T11:09:37.000Z</time>
        <extensions>
          <ns3:TrackPointExtension>
            <ns3:atemp>19.0</ns3:atemp>
          </ns3:TrackPointExtension>
        </extensions>
      </trkpt>
      <trkpt lat="42.56307975389063358306884765625" lon="20.05132220685482025146484375">
        <ele>2163.800048828125</ele>
        <time>2026-06-19T11:09:38.000Z</time>
        <extensions>
          <ns3:TrackPointExtension>
            <ns3:atemp>19.0</ns3:atemp>
          </ns3:TrackPointExtension>
        </extensions>
      </trkpt>
      <trkpt lat="42.563073299825191497802734375" lon="20.05132849328219890594482421875">
        <ele>2164</ele>
        <time>2026-06-19T11:09:39.000Z</time>
        <extensions>
          <ns3:TrackPointExtension>
            <ns3:atemp>19.0</ns3:atemp>
          </ns3:TrackPointExtension>
        </extensions>
      </trkpt>
      <trkpt lat="42.56306718103587627410888671875" lon="20.05133352242410182952880859375">
        <ele>2164.199951171875</ele>
        <time>2026-06-19T11:09:40.000Z</time>
        <extensions>
          <ns3:TrackPointExtension>
            <ns3:atemp>19.0</ns3:atemp>
          </ns3:TrackPointExtension>
        </extensions>
      </trkpt>
      <trkpt lat="42.56306634284555912017822265625" lon="20.051335282623767852783203125">
        <ele>2164.199951171875</ele>
        <time>2026-06-19T11:09:41.000Z</time>
        <extensions>
          <ns3:TrackPointExtension>
            <ns3:atemp>19.0</ns3:atemp>
          </ns3:TrackPointExtension>
        </extensions>
      </trkpt>
      <trkpt lat="42.56306634284555912017822265625" lon="20.05133536644279956817626953125">
        <ele>2164.39990234375</ele>
        <time>2026-06-19T11:09:42.000Z</time>
        <extensions>
          <ns3:TrackPointExtension>
            <ns3:atemp>19.0</ns3:atemp>
          </ns3:TrackPointExtension>
        </extensions>
      </trkpt>
      <trkpt lat="42.56306634284555912017822265625" lon="20.05133536644279956817626953125">
        <ele>2164.39990234375</ele>
        <time>2026-06-19T11:09:43.000Z</time>
        <extensions>
          <ns3:TrackPointExtension>
            <ns3:atemp>19.0</ns3:atemp>
          </ns3:TrackPointExtension>
        </extensions>
      </trkpt>
      <trkpt lat="42.56306634284555912017822265625" lon="20.05133536644279956817626953125">
        <ele>2164.60009765625</ele>
        <time>2026-06-19T11:09:44.000Z</time>
        <extensions>
          <ns3:TrackPointExtension>
            <ns3:atemp>19.0</ns3:atemp>
          </ns3:TrackPointExtension>
        </extensions>
      </trkpt>
      <trkpt lat="42.56306634284555912017822265625" lon="20.05133536644279956817626953125">
        <ele>2164.60009765625</ele>
        <time>2026-06-19T11:09:45.000Z</time>
        <extensions>
          <ns3:TrackPointExtension>
            <ns3:atemp>19.0</ns3:atemp>
          </ns3:TrackPointExtension>
        </extensions>
      </trkpt>
      <trkpt lat="42.56306625902652740478515625" lon="20.0513357855379581451416015625">
        <ele>2164.800048828125</ele>
        <time>2026-06-19T11:09:46.000Z</time>
        <extensions>
          <ns3:TrackPointExtension>
            <ns3:atemp>19.0</ns3:atemp>
          </ns3:TrackPointExtension>
        </extensions>
      </trkpt>
      <trkpt lat="42.56306416355073451995849609375" lon="20.05134710110723972320556640625">
        <ele>2165</ele>
        <time>2026-06-19T11:09:47.000Z</time>
        <extensions>
          <ns3:TrackPointExtension>
            <ns3:atemp>19.0</ns3:atemp>
          </ns3:TrackPointExtension>
        </extensions>
      </trkpt>
      <trkpt lat="42.56306181661784648895263671875" lon="20.05135313607752323150634765625">
        <ele>2165</ele>
        <time>2026-06-19T11:09:48.000Z</time>
        <extensions>
          <ns3:TrackPointExtension>
            <ns3:atemp>19.0</ns3:atemp>
          </ns3:TrackPointExtension>
        </extensions>
      </trkpt>
      <trkpt lat="42.56305896677076816558837890625" lon="20.05135699175298213958740234375">
        <ele>2165</ele>
        <time>2026-06-19T11:09:49.000Z</time>
        <extensions>
          <ns3:TrackPointExtension>
            <ns3:atemp>19.0</ns3:atemp>
          </ns3:TrackPointExtension>
        </extensions>
      </trkpt>
      <trkpt lat="42.56305796094238758087158203125" lon="20.051363445818424224853515625">
        <ele>2165</ele>
        <time>2026-06-19T11:09:50.000Z</time>
        <extensions>
          <ns3:TrackPointExtension>
            <ns3:atemp>19.0</ns3:atemp>
          </ns3:TrackPointExtension>
        </extensions>
      </trkpt>
      <trkpt lat="42.563057206571102142333984375" lon="20.05136855877935886383056640625">
        <ele>2165</ele>
        <time>2026-06-19T11:09:51.000Z</time>
        <extensions>
          <ns3:TrackPointExtension>
            <ns3:atemp>19.0</ns3:atemp>
          </ns3:TrackPointExtension>
        </extensions>
      </trkpt>
      <trkpt lat="42.5630562007427215576171875" lon="20.051370821893215179443359375">
        <ele>2165</ele>
        <time>2026-06-19T11:09:52.000Z</time>
        <extensions>
          <ns3:TrackPointExtension>
            <ns3:atemp>19.0</ns3:atemp>
          </ns3:TrackPointExtension>
        </extensions>
      </trkpt>
      <trkpt lat="42.5630563683807849884033203125" lon="20.05137040279805660247802734375">
        <ele>2165</ele>
        <time>2026-06-19T11:09:53.000Z</time>
        <extensions>
          <ns3:TrackPointExtension>
            <ns3:atemp>19.0</ns3:atemp>
          </ns3:TrackPointExtension>
        </extensions>
      </trkpt>
      <trkpt lat="42.5630563683807849884033203125" lon="20.05137040279805660247802734375">
        <ele>2165</ele>
        <time>2026-06-19T11:09:54.000Z</time>
        <extensions>
          <ns3:TrackPointExtension>
            <ns3:atemp>19.0</ns3:atemp>
          </ns3:TrackPointExtension>
        </extensions>
      </trkpt>
      <trkpt lat="42.5630563683807849884033203125" lon="20.05137040279805660247802734375">
        <ele>2165</ele>
        <time>2026-06-19T11:09:55.000Z</time>
        <extensions>
          <ns3:TrackPointExtension>
            <ns3:atemp>19.0</ns3:atemp>
          </ns3:TrackPointExtension>
        </extensions>
      </trkpt>
      <trkpt lat="42.5630563683807849884033203125" lon="20.05137040279805660247802734375">
        <ele>2165</ele>
        <time>2026-06-19T11:09:56.000Z</time>
        <extensions>
          <ns3:TrackPointExtension>
            <ns3:atemp>19.0</ns3:atemp>
          </ns3:TrackPointExtension>
        </extensions>
      </trkpt>
      <trkpt lat="42.5630563683807849884033203125" lon="20.05137040279805660247802734375">
        <ele>2165</ele>
        <time>2026-06-19T11:09:57.000Z</time>
        <extensions>
          <ns3:TrackPointExtension>
            <ns3:atemp>19.0</ns3:atemp>
          </ns3:TrackPointExtension>
        </extensions>
      </trkpt>
      <trkpt lat="42.5630563683807849884033203125" lon="20.05137040279805660247802734375">
        <ele>2165</ele>
        <time>2026-06-19T11:09:58.000Z</time>
        <extensions>
          <ns3:TrackPointExtension>
            <ns3:atemp>19.0</ns3:atemp>
          </ns3:TrackPointExtension>
        </extensions>
      </trkpt>
      <trkpt lat="42.5630563683807849884033203125" lon="20.05137040279805660247802734375">
        <ele>2165.199951171875</ele>
        <time>2026-06-19T11:09:59.000Z</time>
        <extensions>
          <ns3:TrackPointExtension>
            <ns3:atemp>19.0</ns3:atemp>
          </ns3:TrackPointExtension>
        </extensions>
      </trkpt>
      <trkpt lat="42.5630563683807849884033203125" lon="20.05137040279805660247802734375">
        <ele>2165.199951171875</ele>
        <time>2026-06-19T11:10:00.000Z</time>
        <extensions>
          <ns3:TrackPointExtension>
            <ns3:atemp>19.0</ns3:atemp>
          </ns3:TrackPointExtension>
        </extensions>
      </trkpt>
      <trkpt lat="42.5630563683807849884033203125" lon="20.05137040279805660247802734375">
        <ele>2165.199951171875</ele>
        <time>2026-06-19T11:10:01.000Z</time>
        <extensions>
          <ns3:TrackPointExtension>
            <ns3:atemp>19.0</ns3:atemp>
          </ns3:TrackPointExtension>
        </extensions>
      </trkpt>
      <trkpt lat="42.5630563683807849884033203125" lon="20.05137040279805660247802734375">
        <ele>2165.199951171875</ele>
        <time>2026-06-19T11:10:02.000Z</time>
        <extensions>
          <ns3:TrackPointExtension>
            <ns3:atemp>19.0</ns3:atemp>
          </ns3:TrackPointExtension>
        </extensions>
      </trkpt>
      <trkpt lat="42.5630563683807849884033203125" lon="20.05137040279805660247802734375">
        <ele>2165.199951171875</ele>
        <time>2026-06-19T11:10:03.000Z</time>
        <extensions>
          <ns3:TrackPointExtension>
            <ns3:atemp>19.0</ns3:atemp>
          </ns3:TrackPointExtension>
        </extensions>
      </trkpt>
      <trkpt lat="42.5630563683807849884033203125" lon="20.05137040279805660247802734375">
        <ele>2165.39990234375</ele>
        <time>2026-06-19T11:10:04.000Z</time>
        <extensions>
          <ns3:TrackPointExtension>
            <ns3:atemp>19.0</ns3:atemp>
          </ns3:TrackPointExtension>
        </extensions>
      </trkpt>
      <trkpt lat="42.5630563683807849884033203125" lon="20.05137040279805660247802734375">
        <ele>2165.39990234375</ele>
        <time>2026-06-19T11:10:05.000Z</time>
        <extensions>
          <ns3:TrackPointExtension>
            <ns3:atemp>19.0</ns3:atemp>
          </ns3:TrackPointExtension>
        </extensions>
      </trkpt>
      <trkpt lat="42.56305578164756298065185546875" lon="20.05137040279805660247802734375">
        <ele>2165.39990234375</ele>
        <time>2026-06-19T11:10:06.000Z</time>
        <extensions>
          <ns3:TrackPointExtension>
            <ns3:atemp>19.0</ns3:atemp>
          </ns3:TrackPointExtension>
        </extensions>
      </trkpt>
      <trkpt lat="42.5630563683807849884033203125" lon="20.05137040279805660247802734375">
        <ele>2165.199951171875</ele>
        <time>2026-06-19T11:10:07.000Z</time>
        <extensions>
          <ns3:TrackPointExtension>
            <ns3:atemp>19.0</ns3:atemp>
          </ns3:TrackPointExtension>
        </extensions>
      </trkpt>
      <trkpt lat="42.5630563683807849884033203125" lon="20.05137040279805660247802734375">
        <ele>2165.199951171875</ele>
        <time>2026-06-19T11:10:08.000Z</time>
        <extensions>
          <ns3:TrackPointExtension>
            <ns3:atemp>19.0</ns3:atemp>
          </ns3:TrackPointExtension>
        </extensions>
      </trkpt>
      <trkpt lat="42.56305075250566005706787109375" lon="20.05136688239872455596923828125">
        <ele>2165.199951171875</ele>
        <time>2026-06-19T11:10:09.000Z</time>
        <extensions>
          <ns3:TrackPointExtension>
            <ns3:atemp>19.0</ns3:atemp>
          </ns3:TrackPointExtension>
        </extensions>
      </trkpt>
      <trkpt lat="42.563038431107997894287109375" lon="20.0513833947479724884033203125">
        <ele>2165</ele>
        <time>2026-06-19T11:10:10.000Z</time>
        <extensions>
          <ns3:TrackPointExtension>
            <ns3:atemp>19.0</ns3:atemp>
          </ns3:TrackPointExtension>
        </extensions>
      </trkpt>
      <trkpt lat="42.56303013302385807037353515625" lon="20.051398985087871551513671875">
        <ele>2165</ele>
        <time>2026-06-19T11:10:11.000Z</time>
        <extensions>
          <ns3:TrackPointExtension>
            <ns3:atemp>19.0</ns3:atemp>
          </ns3:TrackPointExtension>
        </extensions>
      </trkpt>
      <trkpt lat="42.56302409805357456207275390625" lon="20.05141063593327999114990234375">
        <ele>2165</ele>
        <time>2026-06-19T11:10:12.000Z</time>
        <extensions>
          <ns3:TrackPointExtension>
            <ns3:atemp>19.0</ns3:atemp>
          </ns3:TrackPointExtension>
        </extensions>
      </trkpt>
      <trkpt lat="42.56301705725491046905517578125" lon="20.051421783864498138427734375">
        <ele>2165</ele>
        <time>2026-06-19T11:10:13.000Z</time>
        <extensions>
          <ns3:TrackPointExtension>
            <ns3:atemp>19.0</ns3:atemp>
          </ns3:TrackPointExtension>
        </extensions>
      </trkpt>
      <trkpt lat="42.56300750188529491424560546875" lon="20.051432512700557708740234375">
        <ele>2164.800048828125</ele>
        <time>2026-06-19T11:10:14.000Z</time>
        <extensions>
          <ns3:TrackPointExtension>
            <ns3:atemp>19.0</ns3:atemp>
          </ns3:TrackPointExtension>
        </extensions>
      </trkpt>
      <trkpt lat="42.56299258209764957427978515625" lon="20.05143745802342891693115234375">
        <ele>2164.800048828125</ele>
        <time>2026-06-19T11:10:15.000Z</time>
        <extensions>
          <ns3:TrackPointExtension>
            <ns3:atemp>19.0</ns3:atemp>
          </ns3:TrackPointExtension>
        </extensions>
      </trkpt>
      <trkpt lat="42.56297196261584758758544921875" lon="20.0514494441449642181396484375">
        <ele>2164.60009765625</ele>
        <time>2026-06-19T11:10:16.000Z</time>
        <extensions>
          <ns3:TrackPointExtension>
            <ns3:atemp>19.0</ns3:atemp>
          </ns3:TrackPointExtension>
        </extensions>
      </trkpt>
      <trkpt lat="42.562946565449237823486328125" lon="20.05146763287484645843505859375">
        <ele>2164.39990234375</ele>
        <time>2026-06-19T11:10:17.000Z</time>
        <extensions>
          <ns3:TrackPointExtension>
            <ns3:atemp>19.0</ns3:atemp>
          </ns3:TrackPointExtension>
        </extensions>
      </trkpt>
      <trkpt lat="42.56292619742453098297119140625" lon="20.05148741416633129119873046875">
        <ele>2164.199951171875</ele>
        <time>2026-06-19T11:10:18.000Z</time>
        <extensions>
          <ns3:TrackPointExtension>
            <ns3:atemp>19.0</ns3:atemp>
          </ns3:TrackPointExtension>
        </extensions>
      </trkpt>
      <trkpt lat="42.56291127763688564300537109375" lon="20.05150417797267436981201171875">
        <ele>2163.800048828125</ele>
        <time>2026-06-19T11:10:19.000Z</time>
        <extensions>
          <ns3:TrackPointExtension>
            <ns3:atemp>19.0</ns3:atemp>
          </ns3:TrackPointExtension>
        </extensions>
      </trkpt>
      <trkpt lat="42.56290054880082607269287109375" lon="20.0515262223780155181884765625">
        <ele>2163.60009765625</ele>
        <time>2026-06-19T11:10:20.000Z</time>
        <extensions>
          <ns3:TrackPointExtension>
            <ns3:atemp>19.0</ns3:atemp>
          </ns3:TrackPointExtension>
        </extensions>
      </trkpt>
      <trkpt lat="42.56289350800216197967529296875" lon="20.051542483270168304443359375">
        <ele>2163.39990234375</ele>
        <time>2026-06-19T11:10:21.000Z</time>
        <extensions>
          <ns3:TrackPointExtension>
            <ns3:atemp>19.0</ns3:atemp>
          </ns3:TrackPointExtension>
        </extensions>
      </trkpt>
      <trkpt lat="42.562881521880626678466796875" lon="20.05155379883944988250732421875">
        <ele>2163.199951171875</ele>
        <time>2026-06-19T11:10:22.000Z</time>
        <extensions>
          <ns3:TrackPointExtension>
            <ns3:atemp>19.0</ns3:atemp>
          </ns3:TrackPointExtension>
        </extensions>
      </trkpt>
      <trkpt lat="42.5628622435033321380615234375" lon="20.0515671260654926300048828125">
        <ele>2163</ele>
        <time>2026-06-19T11:10:23.000Z</time>
        <extensions>
          <ns3:TrackPointExtension>
            <ns3:atemp>19.0</ns3:atemp>
          </ns3:TrackPointExtension>
        </extensions>
      </trkpt>
      <trkpt lat="42.56284455768764019012451171875" lon="20.051590092480182647705078125">
        <ele>2162.60009765625</ele>
        <time>2026-06-19T11:10:24.000Z</time>
        <extensions>
          <ns3:TrackPointExtension>
            <ns3:atemp>19.0</ns3:atemp>
          </ns3:TrackPointExtension>
        </extensions>
      </trkpt>
      <trkpt lat="42.562824189662933349609375" lon="20.05160409025847911834716796875">
        <ele>2162</ele>
        <time>2026-06-19T11:10:25.000Z</time>
        <extensions>
          <ns3:TrackPointExtension>
            <ns3:atemp>19.0</ns3:atemp>
          </ns3:TrackPointExtension>
        </extensions>
      </trkpt>
      <trkpt lat="42.56279979832470417022705078125" lon="20.05161599256098270416259765625">
        <ele>2161.60009765625</ele>
        <time>2026-06-19T11:10:26.000Z</time>
        <extensions>
          <ns3:TrackPointExtension>
            <ns3:atemp>19.0</ns3:atemp>
          </ns3:TrackPointExtension>
        </extensions>
      </trkpt>
      <trkpt lat="42.56277213804423809051513671875" lon="20.05163409747183322906494140625">
        <ele>2161.199951171875</ele>
        <time>2026-06-19T11:10:27.000Z</time>
        <extensions>
          <ns3:TrackPointExtension>
            <ns3:atemp>19.0</ns3:atemp>
          </ns3:TrackPointExtension>
        </extensions>
      </trkpt>
      <trkpt lat="42.56274112500250339508056640625" lon="20.0516375340521335601806640625">
        <ele>2161</ele>
        <time>2026-06-19T11:10:28.000Z</time>
        <extensions>
          <ns3:TrackPointExtension>
            <ns3:atemp>19.0</ns3:atemp>
          </ns3:TrackPointExtension>
        </extensions>
      </trkpt>
      <trkpt lat="42.5627026520669460296630859375" lon="20.05164767615497112274169921875">
        <ele>2160.39990234375</ele>
        <time>2026-06-19T11:10:29.000Z</time>
        <extensions>
          <ns3:TrackPointExtension>
            <ns3:atemp>19.0</ns3:atemp>
          </ns3:TrackPointExtension>
        </extensions>
      </trkpt>
      <trkpt lat="42.5626583956182003021240234375" lon="20.05167634226381778717041015625">
        <ele>2160</ele>
        <time>2026-06-19T11:10:30.000Z</time>
        <extensions>
          <ns3:TrackPointExtension>
            <ns3:atemp>19.0</ns3:atemp>
          </ns3:TrackPointExtension>
        </extensions>
      </trkpt>
      <trkpt lat="42.56261673755943775177001953125" lon="20.05170484073460102081298828125">
        <ele>2159.39990234375</ele>
        <time>2026-06-19T11:10:31.000Z</time>
        <extensions>
          <ns3:TrackPointExtension>
            <ns3:atemp>19.0</ns3:atemp>
          </ns3:TrackPointExtension>
        </extensions>
      </trkpt>
      <trkpt lat="42.5625816173851490020751953125" lon="20.05172378383576869964599609375">
        <ele>2158.800048828125</ele>
        <time>2026-06-19T11:10:32.000Z</time>
        <extensions>
          <ns3:TrackPointExtension>
            <ns3:atemp>19.0</ns3:atemp>
          </ns3:TrackPointExtension>
        </extensions>
      </trkpt>
      <trkpt lat="42.56253895349800586700439453125" lon="20.05173786543309688568115234375">
        <ele>2158.199951171875</ele>
        <time>2026-06-19T11:10:33.000Z</time>
        <extensions>
          <ns3:TrackPointExtension>
            <ns3:atemp>19.0</ns3:atemp>
          </ns3:TrackPointExtension>
        </extensions>
      </trkpt>
      <trkpt lat="42.56250726990401744842529296875" lon="20.05175261758267879486083984375">
        <ele>2157.800048828125</ele>
        <time>2026-06-19T11:10:34.000Z</time>
        <extensions>
          <ns3:TrackPointExtension>
            <ns3:atemp>19.0</ns3:atemp>
          </ns3:TrackPointExtension>
        </extensions>
      </trkpt>
      <trkpt lat="42.56247944198548793792724609375" lon="20.05177550017833709716796875">
        <ele>2157</ele>
        <time>2026-06-19T11:10:35.000Z</time>
        <extensions>
          <ns3:TrackPointExtension>
            <ns3:atemp>19.0</ns3:atemp>
          </ns3:TrackPointExtension>
        </extensions>
      </trkpt>
      <trkpt lat="42.5624582357704639434814453125" lon="20.05180408246815204620361328125">
        <ele>2156.60009765625</ele>
        <time>2026-06-19T11:10:36.000Z</time>
        <extensions>
          <ns3:TrackPointExtension>
            <ns3:atemp>19.0</ns3:atemp>
          </ns3:TrackPointExtension>
        </extensions>
      </trkpt>
      <trkpt lat="42.5624371133744716644287109375" lon="20.0518286414444446563720703125">
        <ele>2156.199951171875</ele>
        <time>2026-06-19T11:10:37.000Z</time>
        <extensions>
          <ns3:TrackPointExtension>
            <ns3:atemp>19.0</ns3:atemp>
          </ns3:TrackPointExtension>
        </extensions>
      </trkpt>
      <trkpt lat="42.56241448223590850830078125" lon="20.05185370333492755889892578125">
        <ele>2156</ele>
        <time>2026-06-19T11:10:38.000Z</time>
        <extensions>
          <ns3:TrackPointExtension>
            <ns3:atemp>19.0</ns3:atemp>
          </ns3:TrackPointExtension>
        </extensions>
      </trkpt>
      <trkpt lat="42.56239528767764568328857421875" lon="20.0518826209008693695068359375">
        <ele>2155.800048828125</ele>
        <time>2026-06-19T11:10:39.000Z</time>
        <extensions>
          <ns3:TrackPointExtension>
            <ns3:atemp>19.0</ns3:atemp>
          </ns3:TrackPointExtension>
        </extensions>
      </trkpt>
      <trkpt lat="42.56239830516278743743896484375" lon="20.0519027374684810638427734375">
        <ele>2155.800048828125</ele>
        <time>2026-06-19T11:10:40.000Z</time>
        <extensions>
          <ns3:TrackPointExtension>
            <ns3:atemp>19.0</ns3:atemp>
          </ns3:TrackPointExtension>
        </extensions>
      </trkpt>
      <trkpt lat="42.56240249611437320709228515625" lon="20.05189879797399044036865234375">
        <ele>2156</ele>
        <time>2026-06-19T11:10:41.000Z</time>
        <extensions>
          <ns3:TrackPointExtension>
            <ns3:atemp>19.0</ns3:atemp>
          </ns3:TrackPointExtension>
        </extensions>
      </trkpt>
      <trkpt lat="42.56240249611437320709228515625" lon="20.05189879797399044036865234375">
        <ele>2156</ele>
        <time>2026-06-19T11:10:42.000Z</time>
        <extensions>
          <ns3:TrackPointExtension>
            <ns3:atemp>18.0</ns3:atemp>
          </ns3:TrackPointExtension>
        </extensions>
      </trkpt>
      <trkpt lat="42.56240249611437320709228515625" lon="20.05189879797399044036865234375">
        <ele>2156.199951171875</ele>
        <time>2026-06-19T11:10:43.000Z</time>
        <extensions>
          <ns3:TrackPointExtension>
            <ns3:atemp>18.0</ns3:atemp>
          </ns3:TrackPointExtension>
        </extensions>
      </trkpt>
      <trkpt lat="42.56240249611437320709228515625" lon="20.05189879797399044036865234375">
        <ele>2156.39990234375</ele>
        <time>2026-06-19T11:10:44.000Z</time>
        <extensions>
          <ns3:TrackPointExtension>
            <ns3:atemp>18.0</ns3:atemp>
          </ns3:TrackPointExtension>
        </extensions>
      </trkpt>
      <trkpt lat="42.56240249611437320709228515625" lon="20.05189879797399044036865234375">
        <ele>2156.39990234375</ele>
        <time>2026-06-19T11:10:45.000Z</time>
        <extensions>
          <ns3:TrackPointExtension>
            <ns3:atemp>18.0</ns3:atemp>
          </ns3:TrackPointExtension>
        </extensions>
      </trkpt>
      <trkpt lat="42.56240249611437320709228515625" lon="20.05189879797399044036865234375">
        <ele>2156.39990234375</ele>
        <time>2026-06-19T11:10:46.000Z</time>
        <extensions>
          <ns3:TrackPointExtension>
            <ns3:atemp>18.0</ns3:atemp>
          </ns3:TrackPointExtension>
        </extensions>
      </trkpt>
      <trkpt lat="42.56240249611437320709228515625" lon="20.05189879797399044036865234375">
        <ele>2156.39990234375</ele>
        <time>2026-06-19T11:10:47.000Z</time>
        <extensions>
          <ns3:TrackPointExtension>
            <ns3:atemp>18.0</ns3:atemp>
          </ns3:TrackPointExtension>
        </extensions>
      </trkpt>
      <trkpt lat="42.56240249611437320709228515625" lon="20.05189879797399044036865234375">
        <ele>2156.199951171875</ele>
        <time>2026-06-19T11:10:48.000Z</time>
        <extensions>
          <ns3:TrackPointExtension>
            <ns3:atemp>18.0</ns3:atemp>
          </ns3:TrackPointExtension>
        </extensions>
      </trkpt>
      <trkpt lat="42.56240249611437320709228515625" lon="20.05189879797399044036865234375">
        <ele>2156</ele>
        <time>2026-06-19T11:10:49.000Z</time>
        <extensions>
          <ns3:TrackPointExtension>
            <ns3:atemp>18.0</ns3:atemp>
          </ns3:TrackPointExtension>
        </extensions>
      </trkpt>
      <trkpt lat="42.56240249611437320709228515625" lon="20.05189879797399044036865234375">
        <ele>2156</ele>
        <time>2026-06-19T11:10:50.000Z</time>
        <extensions>
          <ns3:TrackPointExtension>
            <ns3:atemp>18.0</ns3:atemp>
          </ns3:TrackPointExtension>
        </extensions>
      </trkpt>
      <trkpt lat="42.56240249611437320709228515625" lon="20.05189879797399044036865234375">
        <ele>2155.800048828125</ele>
        <time>2026-06-19T11:10:51.000Z</time>
        <extensions>
          <ns3:TrackPointExtension>
            <ns3:atemp>18.0</ns3:atemp>
          </ns3:TrackPointExtension>
        </extensions>
      </trkpt>
      <trkpt lat="42.56240249611437320709228515625" lon="20.05189879797399044036865234375">
        <ele>2155.800048828125</ele>
        <time>2026-06-19T11:10:52.000Z</time>
        <extensions>
          <ns3:TrackPointExtension>
            <ns3:atemp>19.0</ns3:atemp>
          </ns3:TrackPointExtension>
        </extensions>
      </trkpt>
      <trkpt lat="42.56240249611437320709228515625" lon="20.05189879797399044036865234375">
        <ele>2155.800048828125</ele>
        <time>2026-06-19T11:10:53.000Z</time>
        <extensions>
          <ns3:TrackPointExtension>
            <ns3:atemp>19.0</ns3:atemp>
          </ns3:TrackPointExtension>
        </extensions>
      </trkpt>
      <trkpt lat="42.56240249611437320709228515625" lon="20.05189879797399044036865234375">
        <ele>2155.60009765625</ele>
        <time>2026-06-19T11:10:54.000Z</time>
        <extensions>
          <ns3:TrackPointExtension>
            <ns3:atemp>19.0</ns3:atemp>
          </ns3:TrackPointExtension>
        </extensions>
      </trkpt>
      <trkpt lat="42.56240249611437320709228515625" lon="20.05189879797399044036865234375">
        <ele>2155.60009765625</ele>
        <time>2026-06-19T11:10:55.000Z</time>
        <extensions>
          <ns3:TrackPointExtension>
            <ns3:atemp>19.0</ns3:atemp>
          </ns3:TrackPointExtension>
        </extensions>
      </trkpt>
      <trkpt lat="42.56240249611437320709228515625" lon="20.05189879797399044036865234375">
        <ele>2155.60009765625</ele>
        <time>2026-06-19T11:10:56.000Z</time>
        <extensions>
          <ns3:TrackPointExtension>
            <ns3:atemp>18.0</ns3:atemp>
          </ns3:TrackPointExtension>
        </extensions>
      </trkpt>
      <trkpt lat="42.56240249611437320709228515625" lon="20.05189879797399044036865234375">
        <ele>2155.60009765625</ele>
        <time>2026-06-19T11:10:57.000Z</time>
        <extensions>
          <ns3:TrackPointExtension>
            <ns3:atemp>18.0</ns3:atemp>
          </ns3:TrackPointExtension>
        </extensions>
      </trkpt>
      <trkpt lat="42.56240249611437320709228515625" lon="20.05189879797399044036865234375">
        <ele>2155.60009765625</ele>
        <time>2026-06-19T11:10:58.000Z</time>
        <extensions>
          <ns3:TrackPointExtension>
            <ns3:atemp>18.0</ns3:atemp>
          </ns3:TrackPointExtension>
        </extensions>
      </trkpt>
      <trkpt lat="42.56240249611437320709228515625" lon="20.05189879797399044036865234375">
        <ele>2155.60009765625</ele>
        <time>2026-06-19T11:10:59.000Z</time>
        <extensions>
          <ns3:TrackPointExtension>
            <ns3:atemp>18.0</ns3:atemp>
          </ns3:TrackPointExtension>
        </extensions>
      </trkpt>
      <trkpt lat="42.56239973008632659912109375" lon="20.05189812742173671722412109375">
        <ele>2155.60009765625</ele>
        <time>2026-06-19T11:11:00.000Z</time>
        <extensions>
          <ns3:TrackPointExtension>
            <ns3:atemp>18.0</ns3:atemp>
          </ns3:TrackPointExtension>
        </extensions>
      </trkpt>
      <trkpt lat="42.562390677630901336669921875" lon="20.05189443938434123992919921875">
        <ele>2155.60009765625</ele>
        <time>2026-06-19T11:11:01.000Z</time>
        <extensions>
          <ns3:TrackPointExtension>
            <ns3:atemp>18.0</ns3:atemp>
          </ns3:TrackPointExtension>
        </extensions>
      </trkpt>
      <trkpt lat="42.56238774396479129791259765625" lon="20.05189326591789722442626953125">
        <ele>2155.60009765625</ele>
        <time>2026-06-19T11:11:02.000Z</time>
        <extensions>
          <ns3:TrackPointExtension>
            <ns3:atemp>18.0</ns3:atemp>
          </ns3:TrackPointExtension>
        </extensions>
      </trkpt>
      <trkpt lat="42.562381289899349212646484375" lon="20.0518982112407684326171875">
        <ele>2155.60009765625</ele>
        <time>2026-06-19T11:11:03.000Z</time>
        <extensions>
          <ns3:TrackPointExtension>
            <ns3:atemp>18.0</ns3:atemp>
          </ns3:TrackPointExtension>
        </extensions>
      </trkpt>
      <trkpt lat="42.5623707287013530731201171875" lon="20.0519074313342571258544921875">
        <ele>2155.60009765625</ele>
        <time>2026-06-19T11:11:04.000Z</time>
        <extensions>
          <ns3:TrackPointExtension>
            <ns3:atemp>18.0</ns3:atemp>
          </ns3:TrackPointExtension>
        </extensions>
      </trkpt>
      <trkpt lat="42.56235807202756404876708984375" lon="20.05193014629185199737548828125">
        <ele>2155.60009765625</ele>
        <time>2026-06-19T11:11:05.000Z</time>
        <extensions>
          <ns3:TrackPointExtension>
            <ns3:atemp>18.0</ns3:atemp>
          </ns3:TrackPointExtension>
        </extensions>
      </trkpt>
      <trkpt lat="42.5623553059995174407958984375" lon="20.0519640929996967315673828125">
        <ele>2155.60009765625</ele>
        <time>2026-06-19T11:11:06.000Z</time>
        <extensions>
          <ns3:TrackPointExtension>
            <ns3:atemp>18.0</ns3:atemp>
          </ns3:TrackPointExtension>
        </extensions>
      </trkpt>
      <trkpt lat="42.56235103122889995574951171875" lon="20.052003823220729827880859375">
        <ele>2155.800048828125</ele>
        <time>2026-06-19T11:11:07.000Z</time>
        <extensions>
          <ns3:TrackPointExtension>
            <ns3:atemp>19.0</ns3:atemp>
          </ns3:TrackPointExtension>
        </extensions>
      </trkpt>
      <trkpt lat="42.56233577616512775421142578125" lon="20.05203257314860820770263671875">
        <ele>2155.800048828125</ele>
        <time>2026-06-19T11:11:08.000Z</time>
        <extensions>
          <ns3:TrackPointExtension>
            <ns3:atemp>19.0</ns3:atemp>
          </ns3:TrackPointExtension>
        </extensions>
      </trkpt>
      <trkpt lat="42.5623201020061969757080078125" lon="20.05206341855227947235107421875">
        <ele>2155.800048828125</ele>
        <time>2026-06-19T11:11:09.000Z</time>
        <extensions>
          <ns3:TrackPointExtension>
            <ns3:atemp>19.0</ns3:atemp>
          </ns3:TrackPointExtension>
        </extensions>
      </trkpt>
      <trkpt lat="42.5623117201030254364013671875" lon="20.052082277834415435791015625">
        <ele>2156</ele>
        <time>2026-06-19T11:11:10.000Z</time>
        <extensions>
          <ns3:TrackPointExtension>
            <ns3:atemp>19.0</ns3:atemp>
          </ns3:TrackPointExtension>
        </extensions>
      </trkpt>
      <trkpt lat="42.56230543367564678192138671875" lon="20.0520982034504413604736328125">
        <ele>2156.199951171875</ele>
        <time>2026-06-19T11:11:11.000Z</time>
        <extensions>
          <ns3:TrackPointExtension>
            <ns3:atemp>19.0</ns3:atemp>
          </ns3:TrackPointExtension>
        </extensions>
      </trkpt>
      <trkpt lat="42.56229202263057231903076171875" lon="20.05211287178099155426025390625">
        <ele>2156.39990234375</ele>
        <time>2026-06-19T11:11:12.000Z</time>
        <extensions>
          <ns3:TrackPointExtension>
            <ns3:atemp>19.0</ns3:atemp>
          </ns3:TrackPointExtension>
        </extensions>
      </trkpt>
      <trkpt lat="42.5622728280723094940185546875" lon="20.052131228148937225341796875">
        <ele>2156.800048828125</ele>
        <time>2026-06-19T11:11:13.000Z</time>
        <extensions>
          <ns3:TrackPointExtension>
            <ns3:atemp>19.0</ns3:atemp>
          </ns3:TrackPointExtension>
        </extensions>
      </trkpt>
      <trkpt lat="42.56225078366696834564208984375" lon="20.05215377546846866607666015625">
        <ele>2156.800048828125</ele>
        <time>2026-06-19T11:11:14.000Z</time>
        <extensions>
          <ns3:TrackPointExtension>
            <ns3:atemp>19.0</ns3:atemp>
          </ns3:TrackPointExtension>
        </extensions>
      </trkpt>
      <trkpt lat="42.5622215308248996734619140625" lon="20.0521830283105373382568359375">
        <ele>2157</ele>
        <time>2026-06-19T11:11:15.000Z</time>
        <extensions>
          <ns3:TrackPointExtension>
            <ns3:atemp>19.0</ns3:atemp>
          </ns3:TrackPointExtension>
        </extensions>
      </trkpt>
      <trkpt lat="42.56219663657248020172119140625" lon="20.0522246025502681732177734375">
        <ele>2157</ele>
        <time>2026-06-19T11:11:16.000Z</time>
        <extensions>
          <ns3:TrackPointExtension>
            <ns3:atemp>19.0</ns3:atemp>
          </ns3:TrackPointExtension>
        </extensions>
      </trkpt>
      <trkpt lat="42.56217249669134616851806640625" lon="20.0522698648273944854736328125">
        <ele>2157</ele>
        <time>2026-06-19T11:11:17.000Z</time>
        <extensions>
          <ns3:TrackPointExtension>
            <ns3:atemp>19.0</ns3:atemp>
          </ns3:TrackPointExtension>
        </extensions>
      </trkpt>
      <trkpt lat="42.5621522963047027587890625" lon="20.0523054040968418121337890625">
        <ele>2156.800048828125</ele>
        <time>2026-06-19T11:11:18.000Z</time>
        <extensions>
          <ns3:TrackPointExtension>
            <ns3:atemp>19.0</ns3:atemp>
          </ns3:TrackPointExtension>
        </extensions>
      </trkpt>
      <trkpt lat="42.5621313415467739105224609375" lon="20.0523426197469234466552734375">
        <ele>2156.800048828125</ele>
        <time>2026-06-19T11:11:19.000Z</time>
        <extensions>
          <ns3:TrackPointExtension>
            <ns3:atemp>19.0</ns3:atemp>
          </ns3:TrackPointExtension>
        </extensions>
      </trkpt>
      <trkpt lat="42.56210778839886188507080078125" lon="20.052385367453098297119140625">
        <ele>2156.800048828125</ele>
        <time>2026-06-19T11:11:20.000Z</time>
        <extensions>
          <ns3:TrackPointExtension>
            <ns3:atemp>19.0</ns3:atemp>
          </ns3:TrackPointExtension>
        </extensions>
      </trkpt>
      <trkpt lat="42.56208264268934726715087890625" lon="20.05242819897830486297607421875">
        <ele>2156.800048828125</ele>
        <time>2026-06-19T11:11:21.000Z</time>
        <extensions>
          <ns3:TrackPointExtension>
            <ns3:atemp>19.0</ns3:atemp>
          </ns3:TrackPointExtension>
        </extensions>
      </trkpt>
      <trkpt lat="42.562056742608547210693359375" lon="20.05246675573289394378662109375">
        <ele>2156.800048828125</ele>
        <time>2026-06-19T11:11:22.000Z</time>
        <extensions>
          <ns3:TrackPointExtension>
            <ns3:atemp>19.0</ns3:atemp>
          </ns3:TrackPointExtension>
        </extensions>
      </trkpt>
      <trkpt lat="42.56203402765095233917236328125" lon="20.0525062344968318939208984375">
        <ele>2156.800048828125</ele>
        <time>2026-06-19T11:11:23.000Z</time>
        <extensions>
          <ns3:TrackPointExtension>
            <ns3:atemp>19.0</ns3:atemp>
          </ns3:TrackPointExtension>
        </extensions>
      </trkpt>
      <trkpt lat="42.5620096363127231597900390625" lon="20.05253867246210575103759765625">
        <ele>2157</ele>
        <time>2026-06-19T11:11:24.000Z</time>
        <extensions>
          <ns3:TrackPointExtension>
            <ns3:atemp>19.0</ns3:atemp>
          </ns3:TrackPointExtension>
        </extensions>
      </trkpt>
      <trkpt lat="42.5620002485811710357666015625" lon="20.05257840268313884735107421875">
        <ele>2157</ele>
        <time>2026-06-19T11:11:25.000Z</time>
        <extensions>
          <ns3:TrackPointExtension>
            <ns3:atemp>19.0</ns3:atemp>
          </ns3:TrackPointExtension>
        </extensions>
      </trkpt>
      <trkpt lat="42.5619844906032085418701171875" lon="20.0526215694844722747802734375">
        <ele>2157</ele>
        <time>2026-06-19T11:11:26.000Z</time>
        <extensions>
          <ns3:TrackPointExtension>
            <ns3:atemp>19.0</ns3:atemp>
          </ns3:TrackPointExtension>
        </extensions>
      </trkpt>
      <trkpt lat="42.5619620271027088165283203125" lon="20.05265350453555583953857421875">
        <ele>2157</ele>
        <time>2026-06-19T11:11:27.000Z</time>
        <extensions>
          <ns3:TrackPointExtension>
            <ns3:atemp>19.0</ns3:atemp>
          </ns3:TrackPointExtension>
        </extensions>
      </trkpt>
      <trkpt lat="42.5619422458112239837646484375" lon="20.05268367938697338104248046875">
        <ele>2157.199951171875</ele>
        <time>2026-06-19T11:11:28.000Z</time>
        <extensions>
          <ns3:TrackPointExtension>
            <ns3:atemp>19.0</ns3:atemp>
          </ns3:TrackPointExtension>
        </extensions>
      </trkpt>
      <trkpt lat="42.56191852502524852752685546875" lon="20.05271201021969318389892578125">
        <ele>2157.199951171875</ele>
        <time>2026-06-19T11:11:29.000Z</time>
        <extensions>
          <ns3:TrackPointExtension>
            <ns3:atemp>19.0</ns3:atemp>
          </ns3:TrackPointExtension>
        </extensions>
      </trkpt>
      <trkpt lat="42.5618926249444484710693359375" lon="20.05274377763271331787109375">
        <ele>2157.199951171875</ele>
        <time>2026-06-19T11:11:30.000Z</time>
        <extensions>
          <ns3:TrackPointExtension>
            <ns3:atemp>19.0</ns3:atemp>
          </ns3:TrackPointExtension>
        </extensions>
      </trkpt>
      <trkpt lat="42.56186152808368206024169921875" lon="20.05276632495224475860595703125">
        <ele>2157.39990234375</ele>
        <time>2026-06-19T11:11:31.000Z</time>
        <extensions>
          <ns3:TrackPointExtension>
            <ns3:atemp>19.0</ns3:atemp>
          </ns3:TrackPointExtension>
        </extensions>
      </trkpt>
      <trkpt lat="42.5618349574506282806396484375" lon="20.05279230885207653045654296875">
        <ele>2157.39990234375</ele>
        <time>2026-06-19T11:11:32.000Z</time>
        <extensions>
          <ns3:TrackPointExtension>
            <ns3:atemp>19.0</ns3:atemp>
          </ns3:TrackPointExtension>
        </extensions>
      </trkpt>
      <trkpt lat="42.5618111528456211090087890625" lon="20.0528234057128429412841796875">
        <ele>2157.39990234375</ele>
        <time>2026-06-19T11:11:33.000Z</time>
        <extensions>
          <ns3:TrackPointExtension>
            <ns3:atemp>19.0</ns3:atemp>
          </ns3:TrackPointExtension>
        </extensions>
      </trkpt>
      <trkpt lat="42.56178810261189937591552734375" lon="20.05285785533487796783447265625">
        <ele>2157.60009765625</ele>
        <time>2026-06-19T11:11:34.000Z</time>
        <extensions>
          <ns3:TrackPointExtension>
            <ns3:atemp>19.0</ns3:atemp>
          </ns3:TrackPointExtension>
        </extensions>
      </trkpt>
      <trkpt lat="42.56176781840622425079345703125" lon="20.05288601852953433990478515625">
        <ele>2157.800048828125</ele>
        <time>2026-06-19T11:11:35.000Z</time>
        <extensions>
          <ns3:TrackPointExtension>
            <ns3:atemp>19.0</ns3:atemp>
          </ns3:TrackPointExtension>
        </extensions>
      </trkpt>
      <trkpt lat="42.56174719892442226409912109375" lon="20.05291133187711238861083984375">
        <ele>2158</ele>
        <time>2026-06-19T11:11:36.000Z</time>
        <extensions>
          <ns3:TrackPointExtension>
            <ns3:atemp>19.0</ns3:atemp>
          </ns3:TrackPointExtension>
        </extensions>
      </trkpt>
      <trkpt lat="42.56172959692776203155517578125" lon="20.05293463356792926788330078125">
        <ele>2158.199951171875</ele>
        <time>2026-06-19T11:11:37.000Z</time>
        <extensions>
          <ns3:TrackPointExtension>
            <ns3:atemp>19.0</ns3:atemp>
          </ns3:TrackPointExtension>
        </extensions>
      </trkpt>
      <trkpt lat="42.56171903572976589202880859375" lon="20.05295240320265293121337890625">
        <ele>2158.60009765625</ele>
        <time>2026-06-19T11:11:38.000Z</time>
        <extensions>
          <ns3:TrackPointExtension>
            <ns3:atemp>19.0</ns3:atemp>
          </ns3:TrackPointExtension>
        </extensions>
      </trkpt>
      <trkpt lat="42.561706714332103729248046875" lon="20.05296413786709308624267578125">
        <ele>2159</ele>
        <time>2026-06-19T11:11:39.000Z</time>
        <extensions>
          <ns3:TrackPointExtension>
            <ns3:atemp>19.0</ns3:atemp>
          </ns3:TrackPointExtension>
        </extensions>
      </trkpt>
      <trkpt lat="42.5616934709250926971435546875" lon="20.05296916700899600982666015625">
        <ele>2159.39990234375</ele>
        <time>2026-06-19T11:11:40.000Z</time>
        <extensions>
          <ns3:TrackPointExtension>
            <ns3:atemp>19.0</ns3:atemp>
          </ns3:TrackPointExtension>
        </extensions>
      </trkpt>
      <trkpt lat="42.561679892241954803466796875" lon="20.0529692508280277252197265625">
        <ele>2159.800048828125</ele>
        <time>2026-06-19T11:11:41.000Z</time>
        <extensions>
          <ns3:TrackPointExtension>
            <ns3:atemp>19.0</ns3:atemp>
          </ns3:TrackPointExtension>
        </extensions>
      </trkpt>
      <trkpt lat="42.56166773848235607147216796875" lon="20.05296640098094940185546875">
        <ele>2160.199951171875</ele>
        <time>2026-06-19T11:11:42.000Z</time>
        <extensions>
          <ns3:TrackPointExtension>
            <ns3:atemp>19.0</ns3:atemp>
          </ns3:TrackPointExtension>
        </extensions>
      </trkpt>
      <trkpt lat="42.56165047176182270050048828125" lon="20.05297184921801090240478515625">
        <ele>2160.60009765625</ele>
        <time>2026-06-19T11:11:43.000Z</time>
        <extensions>
          <ns3:TrackPointExtension>
            <ns3:atemp>19.0</ns3:atemp>
          </ns3:TrackPointExtension>
        </extensions>
      </trkpt>
      <trkpt lat="42.56162951700389385223388671875" lon="20.05298760719597339630126953125">
        <ele>2160.800048828125</ele>
        <time>2026-06-19T11:11:44.000Z</time>
        <extensions>
          <ns3:TrackPointExtension>
            <ns3:atemp>19.0</ns3:atemp>
          </ns3:TrackPointExtension>
        </extensions>
      </trkpt>
      <trkpt lat="42.56160889752209186553955078125" lon="20.05300789140164852142333984375">
        <ele>2161</ele>
        <time>2026-06-19T11:11:45.000Z</time>
        <extensions>
          <ns3:TrackPointExtension>
            <ns3:atemp>19.0</ns3:atemp>
          </ns3:TrackPointExtension>
        </extensions>
      </trkpt>
      <trkpt lat="42.561584003269672393798828125" lon="20.05302515812218189239501953125">
        <ele>2161.199951171875</ele>
        <time>2026-06-19T11:11:46.000Z</time>
        <extensions>
          <ns3:TrackPointExtension>
            <ns3:atemp>19.0</ns3:atemp>
          </ns3:TrackPointExtension>
        </extensions>
      </trkpt>
      <trkpt lat="42.561567239463329315185546875" lon="20.053046531975269317626953125">
        <ele>2161.39990234375</ele>
        <time>2026-06-19T11:11:47.000Z</time>
        <extensions>
          <ns3:TrackPointExtension>
            <ns3:atemp>19.0</ns3:atemp>
          </ns3:TrackPointExtension>
        </extensions>
      </trkpt>
      <trkpt lat="42.56155491806566715240478515625" lon="20.053070001304149627685546875">
        <ele>2161.60009765625</ele>
        <time>2026-06-19T11:11:48.000Z</time>
        <extensions>
          <ns3:TrackPointExtension>
            <ns3:atemp>18.0</ns3:atemp>
          </ns3:TrackPointExtension>
        </extensions>
      </trkpt>
      <trkpt lat="42.5615452788770198822021484375" lon="20.053096152842044830322265625">
        <ele>2161.60009765625</ele>
        <time>2026-06-19T11:11:49.000Z</time>
        <extensions>
          <ns3:TrackPointExtension>
            <ns3:atemp>19.0</ns3:atemp>
          </ns3:TrackPointExtension>
        </extensions>
      </trkpt>
      <trkpt lat="42.56153739988803863525390625" lon="20.0531231425702571868896484375">
        <ele>2161.800048828125</ele>
        <time>2026-06-19T11:11:50.000Z</time>
        <extensions>
          <ns3:TrackPointExtension>
            <ns3:atemp>19.0</ns3:atemp>
          </ns3:TrackPointExtension>
        </extensions>
      </trkpt>
      <trkpt lat="42.5615258328616619110107421875" lon="20.05314284004271030426025390625">
        <ele>2161.800048828125</ele>
        <time>2026-06-19T11:11:51.000Z</time>
        <extensions>
          <ns3:TrackPointExtension>
            <ns3:atemp>18.0</ns3:atemp>
          </ns3:TrackPointExtension>
        </extensions>
      </trkpt>
      <trkpt lat="42.56151300854980945587158203125" lon="20.0531603582203388214111328125">
        <ele>2162</ele>
        <time>2026-06-19T11:11:52.000Z</time>
        <extensions>
          <ns3:TrackPointExtension>
            <ns3:atemp>19.0</ns3:atemp>
          </ns3:TrackPointExtension>
        </extensions>
      </trkpt>
      <trkpt lat="42.561498843133449554443359375" lon="20.053173936903476715087890625">
        <ele>2162</ele>
        <time>2026-06-19T11:11:53.000Z</time>
        <extensions>
          <ns3:TrackPointExtension>
            <ns3:atemp>19.0</ns3:atemp>
          </ns3:TrackPointExtension>
        </extensions>
      </trkpt>
      <trkpt lat="42.56148585118353366851806640625" lon="20.05318709649145603179931640625">
        <ele>2162.199951171875</ele>
        <time>2026-06-19T11:11:54.000Z</time>
        <extensions>
          <ns3:TrackPointExtension>
            <ns3:atemp>18.0</ns3:atemp>
          </ns3:TrackPointExtension>
        </extensions>
      </trkpt>
      <trkpt lat="42.56146992556750774383544921875" lon="20.0531948916614055633544921875">
        <ele>2162.39990234375</ele>
        <time>2026-06-19T11:11:55.000Z</time>
        <extensions>
          <ns3:TrackPointExtension>
            <ns3:atemp>19.0</ns3:atemp>
          </ns3:TrackPointExtension>
        </extensions>
      </trkpt>
      <trkpt lat="42.56145768798887729644775390625" lon="20.05320377647876739501953125">
        <ele>2162.39990234375</ele>
        <time>2026-06-19T11:11:56.000Z</time>
        <extensions>
          <ns3:TrackPointExtension>
            <ns3:atemp>19.0</ns3:atemp>
          </ns3:TrackPointExtension>
        </extensions>
      </trkpt>
      <trkpt lat="42.5614522397518157958984375" lon="20.05320855416357517242431640625">
        <ele>2162.60009765625</ele>
        <time>2026-06-19T11:11:57.000Z</time>
        <extensions>
          <ns3:TrackPointExtension>
            <ns3:atemp>19.0</ns3:atemp>
          </ns3:TrackPointExtension>
        </extensions>
      </trkpt>
      <trkpt lat="42.5614460371434688568115234375" lon="20.053211152553558349609375">
        <ele>2162.800048828125</ele>
        <time>2026-06-19T11:11:58.000Z</time>
        <extensions>
          <ns3:TrackPointExtension>
            <ns3:atemp>19.0</ns3:atemp>
          </ns3:TrackPointExtension>
        </extensions>
      </trkpt>
      <trkpt lat="42.56143371574580669403076171875" lon="20.053216516971588134765625">
        <ele>2162.800048828125</ele>
        <time>2026-06-19T11:11:59.000Z</time>
        <extensions>
          <ns3:TrackPointExtension>
            <ns3:atemp>19.0</ns3:atemp>
          </ns3:TrackPointExtension>
        </extensions>
      </trkpt>
      <trkpt lat="42.56142340600490570068359375" lon="20.05322548560798168182373046875">
        <ele>2162.800048828125</ele>
        <time>2026-06-19T11:12:00.000Z</time>
        <extensions>
          <ns3:TrackPointExtension>
            <ns3:atemp>19.0</ns3:atemp>
          </ns3:TrackPointExtension>
        </extensions>
      </trkpt>
      <trkpt lat="42.56141628138720989227294921875" lon="20.0532428361475467681884765625">
        <ele>2162.800048828125</ele>
        <time>2026-06-19T11:12:01.000Z</time>
        <extensions>
          <ns3:TrackPointExtension>
            <ns3:atemp>19.0</ns3:atemp>
          </ns3:TrackPointExtension>
        </extensions>
      </trkpt>
      <trkpt lat="42.56139884702861309051513671875" lon="20.05327074788510799407958984375">
        <ele>2162.60009765625</ele>
        <time>2026-06-19T11:12:02.000Z</time>
        <extensions>
          <ns3:TrackPointExtension>
            <ns3:atemp>19.0</ns3:atemp>
          </ns3:TrackPointExtension>
        </extensions>
      </trkpt>
      <trkpt lat="42.5613779760897159576416015625" lon="20.0533048622310161590576171875">
        <ele>2162.39990234375</ele>
        <time>2026-06-19T11:12:03.000Z</time>
        <extensions>
          <ns3:TrackPointExtension>
            <ns3:atemp>19.0</ns3:atemp>
          </ns3:TrackPointExtension>
        </extensions>
      </trkpt>
      <trkpt lat="42.5613585300743579864501953125" lon="20.05333813838660717010498046875">
        <ele>2162</ele>
        <time>2026-06-19T11:12:04.000Z</time>
        <extensions>
          <ns3:TrackPointExtension>
            <ns3:atemp>19.0</ns3:atemp>
          </ns3:TrackPointExtension>
        </extensions>
      </trkpt>
      <trkpt lat="42.561334557831287384033203125" lon="20.05335540510714054107666015625">
        <ele>2161.39990234375</ele>
        <time>2026-06-19T11:12:05.000Z</time>
        <extensions>
          <ns3:TrackPointExtension>
            <ns3:atemp>19.0</ns3:atemp>
          </ns3:TrackPointExtension>
        </extensions>
      </trkpt>
      <trkpt lat="42.56130496971309185028076171875" lon="20.05337543785572052001953125">
        <ele>2161</ele>
        <time>2026-06-19T11:12:06.000Z</time>
        <extensions>
          <ns3:TrackPointExtension>
            <ns3:atemp>19.0</ns3:atemp>
          </ns3:TrackPointExtension>
        </extensions>
      </trkpt>
      <trkpt lat="42.56128686480224132537841796875" lon="20.0534081272780895233154296875">
        <ele>2160.60009765625</ele>
        <time>2026-06-19T11:12:07.000Z</time>
        <extensions>
          <ns3:TrackPointExtension>
            <ns3:atemp>19.0</ns3:atemp>
          </ns3:TrackPointExtension>
        </extensions>
      </trkpt>
      <trkpt lat="42.56127228029072284698486328125" lon="20.0534440018236637115478515625">
        <ele>2160.199951171875</ele>
        <time>2026-06-19T11:12:08.000Z</time>
        <extensions>
          <ns3:TrackPointExtension>
            <ns3:atemp>19.0</ns3:atemp>
          </ns3:TrackPointExtension>
        </extensions>
      </trkpt>
      <trkpt lat="42.5612690113484859466552734375" lon="20.05346663296222686767578125">
        <ele>2160</ele>
        <time>2026-06-19T11:12:09.000Z</time>
        <extensions>
          <ns3:TrackPointExtension>
            <ns3:atemp>19.0</ns3:atemp>
          </ns3:TrackPointExtension>
        </extensions>
      </trkpt>
      <trkpt lat="42.5612673349678516387939453125" lon="20.05348465405404567718505859375">
        <ele>2159.800048828125</ele>
        <time>2026-06-19T11:12:10.000Z</time>
        <extensions>
          <ns3:TrackPointExtension>
            <ns3:atemp>19.0</ns3:atemp>
          </ns3:TrackPointExtension>
        </extensions>
      </trkpt>
      <trkpt lat="42.56126691587269306182861328125" lon="20.05350016057491302490234375">
        <ele>2159.60009765625</ele>
        <time>2026-06-19T11:12:11.000Z</time>
        <extensions>
          <ns3:TrackPointExtension>
            <ns3:atemp>18.0</ns3:atemp>
          </ns3:TrackPointExtension>
        </extensions>
      </trkpt>
      <trkpt lat="42.56126121617853641510009765625" lon="20.05351264961063861846923828125">
        <ele>2159.60009765625</ele>
        <time>2026-06-19T11:12:12.000Z</time>
        <extensions>
          <ns3:TrackPointExtension>
            <ns3:atemp>18.0</ns3:atemp>
          </ns3:TrackPointExtension>
        </extensions>
      </trkpt>
      <trkpt lat="42.56125803105533123016357421875" lon="20.05352539010345935821533203125">
        <ele>2159.60009765625</ele>
        <time>2026-06-19T11:12:13.000Z</time>
        <extensions>
          <ns3:TrackPointExtension>
            <ns3:atemp>18.0</ns3:atemp>
          </ns3:TrackPointExtension>
        </extensions>
      </trkpt>
      <trkpt lat="42.56124998442828655242919921875" lon="20.05353511311113834381103515625">
        <ele>2159.60009765625</ele>
        <time>2026-06-19T11:12:14.000Z</time>
        <extensions>
          <ns3:TrackPointExtension>
            <ns3:atemp>18.0</ns3:atemp>
          </ns3:TrackPointExtension>
        </extensions>
      </trkpt>
      <trkpt lat="42.5612403452396392822265625" lon="20.05354106426239013671875">
        <ele>2159.60009765625</ele>
        <time>2026-06-19T11:12:15.000Z</time>
        <extensions>
          <ns3:TrackPointExtension>
            <ns3:atemp>18.0</ns3:atemp>
          </ns3:TrackPointExtension>
        </extensions>
      </trkpt>
      <trkpt lat="42.56123271770775318145751953125" lon="20.05355154164135456085205078125">
        <ele>2159.60009765625</ele>
        <time>2026-06-19T11:12:16.000Z</time>
        <extensions>
          <ns3:TrackPointExtension>
            <ns3:atemp>18.0</ns3:atemp>
          </ns3:TrackPointExtension>
        </extensions>
      </trkpt>
      <trkpt lat="42.56123296916484832763671875" lon="20.05354969762265682220458984375">
        <ele>2159.60009765625</ele>
        <time>2026-06-19T11:12:17.000Z</time>
        <extensions>
          <ns3:TrackPointExtension>
            <ns3:atemp>18.0</ns3:atemp>
          </ns3:TrackPointExtension>
        </extensions>
      </trkpt>
      <trkpt lat="42.56123296916484832763671875" lon="20.05354978144168853759765625">
        <ele>2159.60009765625</ele>
        <time>2026-06-19T11:12:18.000Z</time>
        <extensions>
          <ns3:TrackPointExtension>
            <ns3:atemp>18.0</ns3:atemp>
          </ns3:TrackPointExtension>
        </extensions>
      </trkpt>
      <trkpt lat="42.56123137660324573516845703125" lon="20.05355640314519405364990234375">
        <ele>2159.60009765625</ele>
        <time>2026-06-19T11:12:19.000Z</time>
        <extensions>
          <ns3:TrackPointExtension>
            <ns3:atemp>18.0</ns3:atemp>
          </ns3:TrackPointExtension>
        </extensions>
      </trkpt>
      <trkpt lat="42.56122467108070850372314453125" lon="20.0535623542964458465576171875">
        <ele>2159.60009765625</ele>
        <time>2026-06-19T11:12:20.000Z</time>
        <extensions>
          <ns3:TrackPointExtension>
            <ns3:atemp>18.0</ns3:atemp>
          </ns3:TrackPointExtension>
        </extensions>
      </trkpt>
      <trkpt lat="42.56121419370174407958984375" lon="20.0535737536847591400146484375">
        <ele>2159.60009765625</ele>
        <time>2026-06-19T11:12:21.000Z</time>
        <extensions>
          <ns3:TrackPointExtension>
            <ns3:atemp>18.0</ns3:atemp>
          </ns3:TrackPointExtension>
        </extensions>
      </trkpt>
      <trkpt lat="42.5612002797424793243408203125" lon="20.0535750947892665863037109375">
        <ele>2159.800048828125</ele>
        <time>2026-06-19T11:12:22.000Z</time>
        <extensions>
          <ns3:TrackPointExtension>
            <ns3:atemp>18.0</ns3:atemp>
          </ns3:TrackPointExtension>
        </extensions>
      </trkpt>
      <trkpt lat="42.5611915625631809234619140625" lon="20.05358389578759670257568359375">
        <ele>2159.60009765625</ele>
        <time>2026-06-19T11:12:23.000Z</time>
        <extensions>
          <ns3:TrackPointExtension>
            <ns3:atemp>18.0</ns3:atemp>
          </ns3:TrackPointExtension>
        </extensions>
      </trkpt>
      <trkpt lat="42.5611758045852184295654296875" lon="20.0535982288420200347900390625">
        <ele>2159.60009765625</ele>
        <time>2026-06-19T11:12:24.000Z</time>
        <extensions>
          <ns3:TrackPointExtension>
            <ns3:atemp>18.0</ns3:atemp>
          </ns3:TrackPointExtension>
        </extensions>
      </trkpt>
      <trkpt lat="42.5611650757491588592529296875" lon="20.0536213628947734832763671875">
        <ele>2159.39990234375</ele>
        <time>2026-06-19T11:12:25.000Z</time>
        <extensions>
          <ns3:TrackPointExtension>
            <ns3:atemp>18.0</ns3:atemp>
          </ns3:TrackPointExtension>
        </extensions>
      </trkpt>
      <trkpt lat="42.5611530058085918426513671875" lon="20.05364139564335346221923828125">
        <ele>2159.199951171875</ele>
        <time>2026-06-19T11:12:26.000Z</time>
        <extensions>
          <ns3:TrackPointExtension>
            <ns3:atemp>18.0</ns3:atemp>
          </ns3:TrackPointExtension>
        </extensions>
      </trkpt>
      <trkpt lat="42.56114420481026172637939453125" lon="20.053656399250030517578125">
        <ele>2159</ele>
        <time>2026-06-19T11:12:27.000Z</time>
        <extensions>
          <ns3:TrackPointExtension>
            <ns3:atemp>18.0</ns3:atemp>
          </ns3:TrackPointExtension>
        </extensions>
      </trkpt>
      <trkpt lat="42.56113699637353420257568359375" lon="20.0536726601421833038330078125">
        <ele>2158.800048828125</ele>
        <time>2026-06-19T11:12:28.000Z</time>
        <extensions>
          <ns3:TrackPointExtension>
            <ns3:atemp>18.0</ns3:atemp>
          </ns3:TrackPointExtension>
        </extensions>
      </trkpt>
      <trkpt lat="42.56112861447036266326904296875" lon="20.05368866957724094390869140625">
        <ele>2158.60009765625</ele>
        <time>2026-06-19T11:12:29.000Z</time>
        <extensions>
          <ns3:TrackPointExtension>
            <ns3:atemp>18.0</ns3:atemp>
          </ns3:TrackPointExtension>
        </extensions>
      </trkpt>
      <trkpt lat="42.5611231662333011627197265625" lon="20.053703673183917999267578125">
        <ele>2158.60009765625</ele>
        <time>2026-06-19T11:12:30.000Z</time>
        <extensions>
          <ns3:TrackPointExtension>
            <ns3:atemp>18.0</ns3:atemp>
          </ns3:TrackPointExtension>
        </extensions>
      </trkpt>
      <trkpt lat="42.56112031638622283935546875" lon="20.05371616221964359283447265625">
        <ele>2158.60009765625</ele>
        <time>2026-06-19T11:12:31.000Z</time>
        <extensions>
          <ns3:TrackPointExtension>
            <ns3:atemp>18.0</ns3:atemp>
          </ns3:TrackPointExtension>
        </extensions>
      </trkpt>
      <trkpt lat="42.56111369468271732330322265625" lon="20.0537266395986080169677734375">
        <ele>2158.60009765625</ele>
        <time>2026-06-19T11:12:32.000Z</time>
        <extensions>
          <ns3:TrackPointExtension>
            <ns3:atemp>18.0</ns3:atemp>
          </ns3:TrackPointExtension>
        </extensions>
      </trkpt>
      <trkpt lat="42.5611094199120998382568359375" lon="20.053733177483081817626953125">
        <ele>2158.60009765625</ele>
        <time>2026-06-19T11:12:33.000Z</time>
        <extensions>
          <ns3:TrackPointExtension>
            <ns3:atemp>18.0</ns3:atemp>
          </ns3:TrackPointExtension>
        </extensions>
      </trkpt>
      <trkpt lat="42.56110883317887783050537109375" lon="20.0537353567779064178466796875">
        <ele>2158.60009765625</ele>
        <time>2026-06-19T11:12:34.000Z</time>
        <extensions>
          <ns3:TrackPointExtension>
            <ns3:atemp>18.0</ns3:atemp>
          </ns3:TrackPointExtension>
        </extensions>
      </trkpt>
      <trkpt lat="42.56110698916018009185791015625" lon="20.05373627878725528717041015625">
        <ele>2158.60009765625</ele>
        <time>2026-06-19T11:12:35.000Z</time>
        <extensions>
          <ns3:TrackPointExtension>
            <ns3:atemp>18.0</ns3:atemp>
          </ns3:TrackPointExtension>
        </extensions>
      </trkpt>
      <trkpt lat="42.56110698916018009185791015625" lon="20.05373627878725528717041015625">
        <ele>2158.60009765625</ele>
        <time>2026-06-19T11:12:36.000Z</time>
        <extensions>
          <ns3:TrackPointExtension>
            <ns3:atemp>18.0</ns3:atemp>
          </ns3:TrackPointExtension>
        </extensions>
      </trkpt>
      <trkpt lat="42.56110698916018009185791015625" lon="20.05373627878725528717041015625">
        <ele>2158.60009765625</ele>
        <time>2026-06-19T11:12:37.000Z</time>
        <extensions>
          <ns3:TrackPointExtension>
            <ns3:atemp>18.0</ns3:atemp>
          </ns3:TrackPointExtension>
        </extensions>
      </trkpt>
      <trkpt lat="42.56110698916018009185791015625" lon="20.05373627878725528717041015625">
        <ele>2158.60009765625</ele>
        <time>2026-06-19T11:12:38.000Z</time>
        <extensions>
          <ns3:TrackPointExtension>
            <ns3:atemp>18.0</ns3:atemp>
          </ns3:TrackPointExtension>
        </extensions>
      </trkpt>
      <trkpt lat="42.56110698916018009185791015625" lon="20.05373627878725528717041015625">
        <ele>2158.60009765625</ele>
        <time>2026-06-19T11:12:39.000Z</time>
        <extensions>
          <ns3:TrackPointExtension>
            <ns3:atemp>18.0</ns3:atemp>
          </ns3:TrackPointExtension>
        </extensions>
      </trkpt>
      <trkpt lat="42.56110698916018009185791015625" lon="20.05373627878725528717041015625">
        <ele>2158.60009765625</ele>
        <time>2026-06-19T11:12:40.000Z</time>
        <extensions>
          <ns3:TrackPointExtension>
            <ns3:atemp>18.0</ns3:atemp>
          </ns3:TrackPointExtension>
        </extensions>
      </trkpt>
      <trkpt lat="42.56110698916018009185791015625" lon="20.05373627878725528717041015625">
        <ele>2158.60009765625</ele>
        <time>2026-06-19T11:12:41.000Z</time>
        <extensions>
          <ns3:TrackPointExtension>
            <ns3:atemp>18.0</ns3:atemp>
          </ns3:TrackPointExtension>
        </extensions>
      </trkpt>
      <trkpt lat="42.56110698916018009185791015625" lon="20.05373627878725528717041015625">
        <ele>2158.39990234375</ele>
        <time>2026-06-19T11:12:42.000Z</time>
        <extensions>
          <ns3:TrackPointExtension>
            <ns3:atemp>18.0</ns3:atemp>
          </ns3:TrackPointExtension>
        </extensions>
      </trkpt>
      <trkpt lat="42.56110698916018009185791015625" lon="20.05373627878725528717041015625">
        <ele>2158.39990234375</ele>
        <time>2026-06-19T11:12:43.000Z</time>
        <extensions>
          <ns3:TrackPointExtension>
            <ns3:atemp>18.0</ns3:atemp>
          </ns3:TrackPointExtension>
        </extensions>
      </trkpt>
      <trkpt lat="42.56110698916018009185791015625" lon="20.05373627878725528717041015625">
        <ele>2158.39990234375</ele>
        <time>2026-06-19T11:12:44.000Z</time>
        <extensions>
          <ns3:TrackPointExtension>
            <ns3:atemp>18.0</ns3:atemp>
          </ns3:TrackPointExtension>
        </extensions>
      </trkpt>
      <trkpt lat="42.56110698916018009185791015625" lon="20.05373627878725528717041015625">
        <ele>2158.39990234375</ele>
        <time>2026-06-19T11:12:45.000Z</time>
        <extensions>
          <ns3:TrackPointExtension>
            <ns3:atemp>18.0</ns3:atemp>
          </ns3:TrackPointExtension>
        </extensions>
      </trkpt>
      <trkpt lat="42.56110648624598979949951171875" lon="20.053736865520477294921875">
        <ele>2158.39990234375</ele>
        <time>2026-06-19T11:12:46.000Z</time>
        <extensions>
          <ns3:TrackPointExtension>
            <ns3:atemp>18.0</ns3:atemp>
          </ns3:TrackPointExtension>
        </extensions>
      </trkpt>
      <trkpt lat="42.56110011599957942962646484375" lon="20.0537477619946002960205078125">
        <ele>2158.39990234375</ele>
        <time>2026-06-19T11:12:47.000Z</time>
        <extensions>
          <ns3:TrackPointExtension>
            <ns3:atemp>18.0</ns3:atemp>
          </ns3:TrackPointExtension>
        </extensions>
      </trkpt>
      <trkpt lat="42.5610960088670253753662109375" lon="20.05376226268708705902099609375">
        <ele>2158.39990234375</ele>
        <time>2026-06-19T11:12:48.000Z</time>
        <extensions>
          <ns3:TrackPointExtension>
            <ns3:atemp>18.0</ns3:atemp>
          </ns3:TrackPointExtension>
        </extensions>
      </trkpt>
      <trkpt lat="42.561094500124454498291015625" lon="20.05378556437790393829345703125">
        <ele>2158.39990234375</ele>
        <time>2026-06-19T11:12:49.000Z</time>
        <extensions>
          <ns3:TrackPointExtension>
            <ns3:atemp>18.0</ns3:atemp>
          </ns3:TrackPointExtension>
        </extensions>
      </trkpt>
      <trkpt lat="42.56109290756285190582275390625" lon="20.0538144819438457489013671875">
        <ele>2158.199951171875</ele>
        <time>2026-06-19T11:12:50.000Z</time>
        <extensions>
          <ns3:TrackPointExtension>
            <ns3:atemp>18.0</ns3:atemp>
          </ns3:TrackPointExtension>
        </extensions>
      </trkpt>
      <trkpt lat="42.561083771288394927978515625" lon="20.053841136395931243896484375">
        <ele>2158</ele>
        <time>2026-06-19T11:12:51.000Z</time>
        <extensions>
          <ns3:TrackPointExtension>
            <ns3:atemp>18.0</ns3:atemp>
          </ns3:TrackPointExtension>
        </extensions>
      </trkpt>
      <trkpt lat="42.561077736318111419677734375" lon="20.053876005113124847412109375">
        <ele>2157.60009765625</ele>
        <time>2026-06-19T11:12:52.000Z</time>
        <extensions>
          <ns3:TrackPointExtension>
            <ns3:atemp>18.0</ns3:atemp>
          </ns3:TrackPointExtension>
        </extensions>
      </trkpt>
      <trkpt lat="42.56106273271143436431884765625" lon="20.05391481332480907440185546875">
        <ele>2157.199951171875</ele>
        <time>2026-06-19T11:12:53.000Z</time>
        <extensions>
          <ns3:TrackPointExtension>
            <ns3:atemp>18.0</ns3:atemp>
          </ns3:TrackPointExtension>
        </extensions>
      </trkpt>
      <trkpt lat="42.5610413588583469390869140625" lon="20.0539420545101165771484375">
        <ele>2156.800048828125</ele>
        <time>2026-06-19T11:12:54.000Z</time>
        <extensions>
          <ns3:TrackPointExtension>
            <ns3:atemp>18.0</ns3:atemp>
          </ns3:TrackPointExtension>
        </extensions>
      </trkpt>
      <trkpt lat="42.56102736108005046844482421875" lon="20.0539646856486797332763671875">
        <ele>2156.60009765625</ele>
        <time>2026-06-19T11:12:55.000Z</time>
        <extensions>
          <ns3:TrackPointExtension>
            <ns3:atemp>18.0</ns3:atemp>
          </ns3:TrackPointExtension>
        </extensions>
      </trkpt>
      <trkpt lat="42.56101294420659542083740234375" lon="20.05398136563599109649658203125">
        <ele>2156.39990234375</ele>
        <time>2026-06-19T11:12:56.000Z</time>
        <extensions>
          <ns3:TrackPointExtension>
            <ns3:atemp>18.0</ns3:atemp>
          </ns3:TrackPointExtension>
        </extensions>
      </trkpt>
      <trkpt lat="42.56099400110542774200439453125" lon="20.05399695597589015960693359375">
        <ele>2156</ele>
        <time>2026-06-19T11:12:57.000Z</time>
        <extensions>
          <ns3:TrackPointExtension>
            <ns3:atemp>18.0</ns3:atemp>
          </ns3:TrackPointExtension>
        </extensions>
      </trkpt>
      <trkpt lat="42.56097706966102123260498046875" lon="20.05400768481194972991943359375">
        <ele>2155.800048828125</ele>
        <time>2026-06-19T11:12:58.000Z</time>
        <extensions>
          <ns3:TrackPointExtension>
            <ns3:atemp>18.0</ns3:atemp>
          </ns3:TrackPointExtension>
        </extensions>
      </trkpt>
      <trkpt lat="42.56095628254115581512451171875" lon="20.0540156476199626922607421875">
        <ele>2155.800048828125</ele>
        <time>2026-06-19T11:12:59.000Z</time>
        <extensions>
          <ns3:TrackPointExtension>
            <ns3:atemp>18.0</ns3:atemp>
          </ns3:TrackPointExtension>
        </extensions>
      </trkpt>
      <trkpt lat="42.5609360821545124053955078125" lon="20.05403148941695690155029296875">
        <ele>2155.60009765625</ele>
        <time>2026-06-19T11:13:00.000Z</time>
        <extensions>
          <ns3:TrackPointExtension>
            <ns3:atemp>18.0</ns3:atemp>
          </ns3:TrackPointExtension>
        </extensions>
      </trkpt>
      <trkpt lat="42.56092577241361141204833984375" lon="20.0540548749268054962158203125">
        <ele>2155.60009765625</ele>
        <time>2026-06-19T11:13:01.000Z</time>
        <extensions>
          <ns3:TrackPointExtension>
            <ns3:atemp>18.0</ns3:atemp>
          </ns3:TrackPointExtension>
        </extensions>
      </trkpt>
      <trkpt lat="42.560924179852008819580078125" lon="20.054073147475719451904296875">
        <ele>2155.39990234375</ele>
        <time>2026-06-19T11:13:02.000Z</time>
        <extensions>
          <ns3:TrackPointExtension>
            <ns3:atemp>18.0</ns3:atemp>
          </ns3:TrackPointExtension>
        </extensions>
      </trkpt>
      <trkpt lat="42.5609156303107738494873046875" lon="20.05408756434917449951171875">
        <ele>2155.39990234375</ele>
        <time>2026-06-19T11:13:03.000Z</time>
        <extensions>
          <ns3:TrackPointExtension>
            <ns3:atemp>18.0</ns3:atemp>
          </ns3:TrackPointExtension>
        </extensions>
      </trkpt>
      <trkpt lat="42.5609049014747142791748046875" lon="20.05410172976553440093994140625">
        <ele>2155.39990234375</ele>
        <time>2026-06-19T11:13:04.000Z</time>
        <extensions>
          <ns3:TrackPointExtension>
            <ns3:atemp>18.0</ns3:atemp>
          </ns3:TrackPointExtension>
        </extensions>
      </trkpt>
      <trkpt lat="42.56089107133448123931884765625" lon="20.05411094985902309417724609375">
        <ele>2155.39990234375</ele>
        <time>2026-06-19T11:13:05.000Z</time>
        <extensions>
          <ns3:TrackPointExtension>
            <ns3:atemp>18.0</ns3:atemp>
          </ns3:TrackPointExtension>
        </extensions>
      </trkpt>
      <trkpt lat="42.56087891757488250732421875" lon="20.054122097790241241455078125">
        <ele>2155.39990234375</ele>
        <time>2026-06-19T11:13:06.000Z</time>
        <extensions>
          <ns3:TrackPointExtension>
            <ns3:atemp>18.0</ns3:atemp>
          </ns3:TrackPointExtension>
        </extensions>
      </trkpt>
      <trkpt lat="42.56086659617722034454345703125" lon="20.05413710139691829681396484375">
        <ele>2155.60009765625</ele>
        <time>2026-06-19T11:13:07.000Z</time>
        <extensions>
          <ns3:TrackPointExtension>
            <ns3:atemp>18.0</ns3:atemp>
          </ns3:TrackPointExtension>
        </extensions>
      </trkpt>
      <trkpt lat="42.560855112969875335693359375" lon="20.054154954850673675537109375">
        <ele>2155.800048828125</ele>
        <time>2026-06-19T11:13:08.000Z</time>
        <extensions>
          <ns3:TrackPointExtension>
            <ns3:atemp>18.0</ns3:atemp>
          </ns3:TrackPointExtension>
        </extensions>
      </trkpt>
      <trkpt lat="42.56084346212446689605712890625" lon="20.054175071418285369873046875">
        <ele>2155.800048828125</ele>
        <time>2026-06-19T11:13:09.000Z</time>
        <extensions>
          <ns3:TrackPointExtension>
            <ns3:atemp>18.0</ns3:atemp>
          </ns3:TrackPointExtension>
        </extensions>
      </trkpt>
      <trkpt lat="42.56083005107939243316650390625" lon="20.0541909970343112945556640625">
        <ele>2156</ele>
        <time>2026-06-19T11:13:10.000Z</time>
        <extensions>
          <ns3:TrackPointExtension>
            <ns3:atemp>18.0</ns3:atemp>
          </ns3:TrackPointExtension>
        </extensions>
      </trkpt>
      <trkpt lat="42.5608140416443347930908203125" lon="20.054204575717449188232421875">
        <ele>2156</ele>
        <time>2026-06-19T11:13:11.000Z</time>
        <extensions>
          <ns3:TrackPointExtension>
            <ns3:atemp>18.0</ns3:atemp>
          </ns3:TrackPointExtension>
        </extensions>
      </trkpt>
      <trkpt lat="42.56080004386603832244873046875" lon="20.05421899259090423583984375">
        <ele>2156.199951171875</ele>
        <time>2026-06-19T11:13:12.000Z</time>
        <extensions>
          <ns3:TrackPointExtension>
            <ns3:atemp>18.0</ns3:atemp>
          </ns3:TrackPointExtension>
        </extensions>
      </trkpt>
      <trkpt lat="42.56078529171645641326904296875" lon="20.05423701368272304534912109375">
        <ele>2156.199951171875</ele>
        <time>2026-06-19T11:13:13.000Z</time>
        <extensions>
          <ns3:TrackPointExtension>
            <ns3:atemp>18.0</ns3:atemp>
          </ns3:TrackPointExtension>
        </extensions>
      </trkpt>
      <trkpt lat="42.56077456288039684295654296875" lon="20.054256878793239593505859375">
        <ele>2156.199951171875</ele>
        <time>2026-06-19T11:13:14.000Z</time>
        <extensions>
          <ns3:TrackPointExtension>
            <ns3:atemp>18.0</ns3:atemp>
          </ns3:TrackPointExtension>
        </extensions>
      </trkpt>
      <trkpt lat="42.56075830198824405670166015625" lon="20.0542791746556758880615234375">
        <ele>2156.199951171875</ele>
        <time>2026-06-19T11:13:15.000Z</time>
        <extensions>
          <ns3:TrackPointExtension>
            <ns3:atemp>18.0</ns3:atemp>
          </ns3:TrackPointExtension>
        </extensions>
      </trkpt>
      <trkpt lat="42.56074639968574047088623046875" lon="20.0543029792606830596923828125">
        <ele>2156.199951171875</ele>
        <time>2026-06-19T11:13:16.000Z</time>
        <extensions>
          <ns3:TrackPointExtension>
            <ns3:atemp>18.0</ns3:atemp>
          </ns3:TrackPointExtension>
        </extensions>
      </trkpt>
      <trkpt lat="42.560737431049346923828125" lon="20.054322592914104461669921875">
        <ele>2156</ele>
        <time>2026-06-19T11:13:17.000Z</time>
        <extensions>
          <ns3:TrackPointExtension>
            <ns3:atemp>18.0</ns3:atemp>
          </ns3:TrackPointExtension>
        </extensions>
      </trkpt>
      <trkpt lat="42.560723014175891876220703125" lon="20.05434907972812652587890625">
        <ele>2156</ele>
        <time>2026-06-19T11:13:18.000Z</time>
        <extensions>
          <ns3:TrackPointExtension>
            <ns3:atemp>18.0</ns3:atemp>
          </ns3:TrackPointExtension>
        </extensions>
      </trkpt>
      <trkpt lat="42.5607057474553585052490234375" lon="20.0543738901615142822265625">
        <ele>2156</ele>
        <time>2026-06-19T11:13:19.000Z</time>
        <extensions>
          <ns3:TrackPointExtension>
            <ns3:atemp>18.0</ns3:atemp>
          </ns3:TrackPointExtension>
        </extensions>
      </trkpt>
      <trkpt lat="42.560688145458698272705078125" lon="20.05439937114715576171875">
        <ele>2156</ele>
        <time>2026-06-19T11:13:20.000Z</time>
        <extensions>
          <ns3:TrackPointExtension>
            <ns3:atemp>18.0</ns3:atemp>
          </ns3:TrackPointExtension>
        </extensions>
      </trkpt>
      <trkpt lat="42.5606749020516872406005859375" lon="20.054421834647655487060546875">
        <ele>2156.199951171875</ele>
        <time>2026-06-19T11:13:21.000Z</time>
        <extensions>
          <ns3:TrackPointExtension>
            <ns3:atemp>18.0</ns3:atemp>
          </ns3:TrackPointExtension>
        </extensions>
      </trkpt>
      <trkpt lat="42.56065889261662960052490234375" lon="20.05444169975817203521728515625">
        <ele>2156.199951171875</ele>
        <time>2026-06-19T11:13:22.000Z</time>
        <extensions>
          <ns3:TrackPointExtension>
            <ns3:atemp>18.0</ns3:atemp>
          </ns3:TrackPointExtension>
        </extensions>
      </trkpt>
      <trkpt lat="42.5606487505137920379638671875" lon="20.0544619001448154449462890625">
        <ele>2156.199951171875</ele>
        <time>2026-06-19T11:13:23.000Z</time>
        <extensions>
          <ns3:TrackPointExtension>
            <ns3:atemp>18.0</ns3:atemp>
          </ns3:TrackPointExtension>
        </extensions>
      </trkpt>
      <trkpt lat="42.56063542328774929046630859375" lon="20.05448243580758571624755859375">
        <ele>2156.39990234375</ele>
        <time>2026-06-19T11:13:24.000Z</time>
        <extensions>
          <ns3:TrackPointExtension>
            <ns3:atemp>18.0</ns3:atemp>
          </ns3:TrackPointExtension>
        </extensions>
      </trkpt>
      <trkpt lat="42.56062519736588001251220703125" lon="20.0545001216232776641845703125">
        <ele>2156.39990234375</ele>
        <time>2026-06-19T11:13:25.000Z</time>
        <extensions>
          <ns3:TrackPointExtension>
            <ns3:atemp>18.0</ns3:atemp>
          </ns3:TrackPointExtension>
        </extensions>
      </trkpt>
      <trkpt lat="42.5606152229011058807373046875" lon="20.05451277829706668853759765625">
        <ele>2156.60009765625</ele>
        <time>2026-06-19T11:13:26.000Z</time>
        <extensions>
          <ns3:TrackPointExtension>
            <ns3:atemp>18.0</ns3:atemp>
          </ns3:TrackPointExtension>
        </extensions>
      </trkpt>
      <trkpt lat="42.56060860119760036468505859375" lon="20.0545269437134265899658203125">
        <ele>2156.800048828125</ele>
        <time>2026-06-19T11:13:27.000Z</time>
        <extensions>
          <ns3:TrackPointExtension>
            <ns3:atemp>18.0</ns3:atemp>
          </ns3:TrackPointExtension>
        </extensions>
      </trkpt>
      <trkpt lat="42.5606058351695537567138671875" lon="20.05454177968204021453857421875">
        <ele>2157</ele>
        <time>2026-06-19T11:13:28.000Z</time>
        <extensions>
          <ns3:TrackPointExtension>
            <ns3:atemp>18.0</ns3:atemp>
          </ns3:TrackPointExtension>
        </extensions>
      </trkpt>
      <trkpt lat="42.5605966150760650634765625" lon="20.05455602891743183135986328125">
        <ele>2157</ele>
        <time>2026-06-19T11:13:29.000Z</time>
        <extensions>
          <ns3:TrackPointExtension>
            <ns3:atemp>18.0</ns3:atemp>
          </ns3:TrackPointExtension>
        </extensions>
      </trkpt>
      <trkpt lat="42.560582868754863739013671875" lon="20.05456441082060337066650390625">
        <ele>2157.199951171875</ele>
        <time>2026-06-19T11:13:30.000Z</time>
        <extensions>
          <ns3:TrackPointExtension>
            <ns3:atemp>18.0</ns3:atemp>
          </ns3:TrackPointExtension>
        </extensions>
      </trkpt>
      <trkpt lat="42.56057188846170902252197265625" lon="20.05457840859889984130859375">
        <ele>2157.39990234375</ele>
        <time>2026-06-19T11:13:31.000Z</time>
        <extensions>
          <ns3:TrackPointExtension>
            <ns3:atemp>18.0</ns3:atemp>
          </ns3:TrackPointExtension>
        </extensions>
      </trkpt>
      <trkpt lat="42.560565434396266937255859375" lon="20.0545980222523212432861328125">
        <ele>2157.60009765625</ele>
        <time>2026-06-19T11:13:32.000Z</time>
        <extensions>
          <ns3:TrackPointExtension>
            <ns3:atemp>18.0</ns3:atemp>
          </ns3:TrackPointExtension>
        </extensions>
      </trkpt>
      <trkpt lat="42.5605588965117931365966796875" lon="20.0546208210289478302001953125">
        <ele>2157.800048828125</ele>
        <time>2026-06-19T11:13:33.000Z</time>
        <extensions>
          <ns3:TrackPointExtension>
            <ns3:atemp>18.0</ns3:atemp>
          </ns3:TrackPointExtension>
        </extensions>
      </trkpt>
      <trkpt lat="42.56055529229342937469482421875" lon="20.0546402670443058013916015625">
        <ele>2158</ele>
        <time>2026-06-19T11:13:34.000Z</time>
        <extensions>
          <ns3:TrackPointExtension>
            <ns3:atemp>18.0</ns3:atemp>
          </ns3:TrackPointExtension>
        </extensions>
      </trkpt>
      <trkpt lat="42.56055210717022418975830078125" lon="20.05465577356517314910888671875">
        <ele>2158.199951171875</ele>
        <time>2026-06-19T11:13:35.000Z</time>
        <extensions>
          <ns3:TrackPointExtension>
            <ns3:atemp>18.0</ns3:atemp>
          </ns3:TrackPointExtension>
        </extensions>
      </trkpt>
      <trkpt lat="42.560548670589923858642578125" lon="20.05467337556183338165283203125">
        <ele>2158.39990234375</ele>
        <time>2026-06-19T11:13:36.000Z</time>
        <extensions>
          <ns3:TrackPointExtension>
            <ns3:atemp>18.0</ns3:atemp>
          </ns3:TrackPointExtension>
        </extensions>
      </trkpt>
      <trkpt lat="42.56054188124835491180419921875" lon="20.0546868704259395599365234375">
        <ele>2158.60009765625</ele>
        <time>2026-06-19T11:13:37.000Z</time>
        <extensions>
          <ns3:TrackPointExtension>
            <ns3:atemp>18.0</ns3:atemp>
          </ns3:TrackPointExtension>
        </extensions>
      </trkpt>
      <trkpt lat="42.56053014658391475677490234375" lon="20.05469374358654022216796875">
        <ele>2159</ele>
        <time>2026-06-19T11:13:38.000Z</time>
        <extensions>
          <ns3:TrackPointExtension>
            <ns3:atemp>18.0</ns3:atemp>
          </ns3:TrackPointExtension>
        </extensions>
      </trkpt>
      <trkpt lat="42.56051950156688690185546875" lon="20.054698772728443145751953125">
        <ele>2159.199951171875</ele>
        <time>2026-06-19T11:13:39.000Z</time>
        <extensions>
          <ns3:TrackPointExtension>
            <ns3:atemp>18.0</ns3:atemp>
          </ns3:TrackPointExtension>
        </extensions>
      </trkpt>
      <trkpt lat="42.56051019765436649322509765625" lon="20.0547130219638347625732421875">
        <ele>2159.39990234375</ele>
        <time>2026-06-19T11:13:40.000Z</time>
        <extensions>
          <ns3:TrackPointExtension>
            <ns3:atemp>18.0</ns3:atemp>
          </ns3:TrackPointExtension>
        </extensions>
      </trkpt>
      <trkpt lat="42.5605065934360027313232421875" lon="20.0547321327030658721923828125">
        <ele>2159.60009765625</ele>
        <time>2026-06-19T11:13:41.000Z</time>
        <extensions>
          <ns3:TrackPointExtension>
            <ns3:atemp>18.0</ns3:atemp>
          </ns3:TrackPointExtension>
        </extensions>
      </trkpt>
      <trkpt lat="42.560503073036670684814453125" lon="20.0547485612332820892333984375">
        <ele>2159.800048828125</ele>
        <time>2026-06-19T11:13:42.000Z</time>
        <extensions>
          <ns3:TrackPointExtension>
            <ns3:atemp>18.0</ns3:atemp>
          </ns3:TrackPointExtension>
        </extensions>
      </trkpt>
      <trkpt lat="42.56049343384802341461181640625" lon="20.05476105026900768280029296875">
        <ele>2159.800048828125</ele>
        <time>2026-06-19T11:13:43.000Z</time>
        <extensions>
          <ns3:TrackPointExtension>
            <ns3:atemp>18.0</ns3:atemp>
          </ns3:TrackPointExtension>
        </extensions>
      </trkpt>
      <trkpt lat="42.560475580394268035888671875" lon="20.05477513186633586883544921875">
        <ele>2160</ele>
        <time>2026-06-19T11:13:44.000Z</time>
        <extensions>
          <ns3:TrackPointExtension>
            <ns3:atemp>18.0</ns3:atemp>
          </ns3:TrackPointExtension>
        </extensions>
      </trkpt>
      <trkpt lat="42.5604566372931003570556640625" lon="20.05479021929204463958740234375">
        <ele>2160</ele>
        <time>2026-06-19T11:13:45.000Z</time>
        <extensions>
          <ns3:TrackPointExtension>
            <ns3:atemp>18.0</ns3:atemp>
          </ns3:TrackPointExtension>
        </extensions>
      </trkpt>
      <trkpt lat="42.56044046021997928619384765625" lon="20.0548102520406246185302734375">
        <ele>2160</ele>
        <time>2026-06-19T11:13:46.000Z</time>
        <extensions>
          <ns3:TrackPointExtension>
            <ns3:atemp>18.0</ns3:atemp>
          </ns3:TrackPointExtension>
        </extensions>
      </trkpt>
      <trkpt lat="42.5604224391281604766845703125" lon="20.054831542074680328369140625">
        <ele>2160</ele>
        <time>2026-06-19T11:13:47.000Z</time>
        <extensions>
          <ns3:TrackPointExtension>
            <ns3:atemp>18.0</ns3:atemp>
          </ns3:TrackPointExtension>
        </extensions>
      </trkpt>
      <trkpt lat="42.5603981316089630126953125" lon="20.05485425703227519989013671875">
        <ele>2160</ele>
        <time>2026-06-19T11:13:48.000Z</time>
        <extensions>
          <ns3:TrackPointExtension>
            <ns3:atemp>18.0</ns3:atemp>
          </ns3:TrackPointExtension>
        </extensions>
      </trkpt>
      <trkpt lat="42.56037063896656036376953125" lon="20.05488459952175617218017578125">
        <ele>2160</ele>
        <time>2026-06-19T11:13:49.000Z</time>
        <extensions>
          <ns3:TrackPointExtension>
            <ns3:atemp>18.0</ns3:atemp>
          </ns3:TrackPointExtension>
        </extensions>
      </trkpt>
      <trkpt lat="42.56034943275153636932373046875" lon="20.05491712130606174468994140625">
        <ele>2159.800048828125</ele>
        <time>2026-06-19T11:13:50.000Z</time>
        <extensions>
          <ns3:TrackPointExtension>
            <ns3:atemp>18.0</ns3:atemp>
          </ns3:TrackPointExtension>
        </extensions>
      </trkpt>
      <trkpt lat="42.56033753044903278350830078125" lon="20.05494327284395694732666015625">
        <ele>2159.800048828125</ele>
        <time>2026-06-19T11:13:51.000Z</time>
        <extensions>
          <ns3:TrackPointExtension>
            <ns3:atemp>18.0</ns3:atemp>
          </ns3:TrackPointExtension>
        </extensions>
      </trkpt>
      <trkpt lat="42.5603312440216541290283203125" lon="20.05496372468769550323486328125">
        <ele>2159.800048828125</ele>
        <time>2026-06-19T11:13:52.000Z</time>
        <extensions>
          <ns3:TrackPointExtension>
            <ns3:atemp>18.0</ns3:atemp>
          </ns3:TrackPointExtension>
        </extensions>
      </trkpt>
      <trkpt lat="42.56032462231814861297607421875" lon="20.05498484708368778228759765625">
        <ele>2160</ele>
        <time>2026-06-19T11:13:53.000Z</time>
        <extensions>
          <ns3:TrackPointExtension>
            <ns3:atemp>18.0</ns3:atemp>
          </ns3:TrackPointExtension>
        </extensions>
      </trkpt>
      <trkpt lat="42.56032177247107028961181640625" lon="20.055005550384521484375">
        <ele>2160.199951171875</ele>
        <time>2026-06-19T11:13:54.000Z</time>
        <extensions>
          <ns3:TrackPointExtension>
            <ns3:atemp>18.0</ns3:atemp>
          </ns3:TrackPointExtension>
        </extensions>
      </trkpt>
      <trkpt lat="42.56032177247107028961181640625" lon="20.05503798834979534149169921875">
        <ele>2160.39990234375</ele>
        <time>2026-06-19T11:13:55.000Z</time>
        <extensions>
          <ns3:TrackPointExtension>
            <ns3:atemp>18.0</ns3:atemp>
          </ns3:TrackPointExtension>
        </extensions>
      </trkpt>
      <trkpt lat="42.56031925790011882781982421875" lon="20.05506799556314945220947265625">
        <ele>2160.60009765625</ele>
        <time>2026-06-19T11:13:56.000Z</time>
        <extensions>
          <ns3:TrackPointExtension>
            <ns3:atemp>18.0</ns3:atemp>
          </ns3:TrackPointExtension>
        </extensions>
      </trkpt>
      <trkpt lat="42.56031204946339130401611328125" lon="20.0550925545394420623779296875">
        <ele>2161</ele>
        <time>2026-06-19T11:13:57.000Z</time>
        <extensions>
          <ns3:TrackPointExtension>
            <ns3:atemp>18.0</ns3:atemp>
          </ns3:TrackPointExtension>
        </extensions>
      </trkpt>
      <trkpt lat="42.56030567921698093414306640625" lon="20.055114515125751495361328125">
        <ele>2161.60009765625</ele>
        <time>2026-06-19T11:13:58.000Z</time>
        <extensions>
          <ns3:TrackPointExtension>
            <ns3:atemp>18.0</ns3:atemp>
          </ns3:TrackPointExtension>
        </extensions>
      </trkpt>
      <trkpt lat="42.56029687821865081787109375" lon="20.05513605661690235137939453125">
        <ele>2162</ele>
        <time>2026-06-19T11:13:59.000Z</time>
        <extensions>
          <ns3:TrackPointExtension>
            <ns3:atemp>18.0</ns3:atemp>
          </ns3:TrackPointExtension>
        </extensions>
      </trkpt>
      <trkpt lat="42.56028690375387668609619140625" lon="20.05515776574611663818359375">
        <ele>2162.39990234375</ele>
        <time>2026-06-19T11:14:00.000Z</time>
        <extensions>
          <ns3:TrackPointExtension>
            <ns3:atemp>18.0</ns3:atemp>
          </ns3:TrackPointExtension>
        </extensions>
      </trkpt>
      <trkpt lat="42.56027567200362682342529296875" lon="20.05518031306564807891845703125">
        <ele>2163</ele>
        <time>2026-06-19T11:14:01.000Z</time>
        <extensions>
          <ns3:TrackPointExtension>
            <ns3:atemp>18.0</ns3:atemp>
          </ns3:TrackPointExtension>
        </extensions>
      </trkpt>
      <trkpt lat="42.56026578135788440704345703125" lon="20.05520495586097240447998046875">
        <ele>2163.39990234375</ele>
        <time>2026-06-19T11:14:02.000Z</time>
        <extensions>
          <ns3:TrackPointExtension>
            <ns3:atemp>18.0</ns3:atemp>
          </ns3:TrackPointExtension>
        </extensions>
      </trkpt>
      <trkpt lat="42.5602578185498714447021484375" lon="20.05522892810404300689697265625">
        <ele>2164</ele>
        <time>2026-06-19T11:14:03.000Z</time>
        <extensions>
          <ns3:TrackPointExtension>
            <ns3:atemp>18.0</ns3:atemp>
          </ns3:TrackPointExtension>
        </extensions>
      </trkpt>
      <trkpt lat="42.56024658679962158203125" lon="20.05524887703359127044677734375">
        <ele>2164.60009765625</ele>
        <time>2026-06-19T11:14:04.000Z</time>
        <extensions>
          <ns3:TrackPointExtension>
            <ns3:atemp>18.0</ns3:atemp>
          </ns3:TrackPointExtension>
        </extensions>
      </trkpt>
      <trkpt lat="42.5602345168590545654296875" lon="20.0552697479724884033203125">
        <ele>2165.199951171875</ele>
        <time>2026-06-19T11:14:05.000Z</time>
        <extensions>
          <ns3:TrackPointExtension>
            <ns3:atemp>18.0</ns3:atemp>
          </ns3:TrackPointExtension>
        </extensions>
      </trkpt>
      <trkpt lat="42.56022588349878787994384765625" lon="20.05529246293008327484130859375">
        <ele>2165.60009765625</ele>
        <time>2026-06-19T11:14:06.000Z</time>
        <extensions>
          <ns3:TrackPointExtension>
            <ns3:atemp>18.0</ns3:atemp>
          </ns3:TrackPointExtension>
        </extensions>
      </trkpt>
      <trkpt lat="42.56021582521498203277587890625" lon="20.05531442351639270782470703125">
        <ele>2166.199951171875</ele>
        <time>2026-06-19T11:14:07.000Z</time>
        <extensions>
          <ns3:TrackPointExtension>
            <ns3:atemp>18.0</ns3:atemp>
          </ns3:TrackPointExtension>
        </extensions>
      </trkpt>
      <trkpt lat="42.5602018274366855621337890625" lon="20.0553342886269092559814453125">
        <ele>2166.800048828125</ele>
        <time>2026-06-19T11:14:08.000Z</time>
        <extensions>
          <ns3:TrackPointExtension>
            <ns3:atemp>18.0</ns3:atemp>
          </ns3:TrackPointExtension>
        </extensions>
      </trkpt>
      <trkpt lat="42.56018648855388164520263671875" lon="20.05535599775612354278564453125">
        <ele>2167.199951171875</ele>
        <time>2026-06-19T11:14:09.000Z</time>
        <extensions>
          <ns3:TrackPointExtension>
            <ns3:atemp>18.0</ns3:atemp>
          </ns3:TrackPointExtension>
        </extensions>
      </trkpt>
      <trkpt lat="42.560176849365234375" lon="20.0553788803517818450927734375">
        <ele>2167.800048828125</ele>
        <time>2026-06-19T11:14:10.000Z</time>
        <extensions>
          <ns3:TrackPointExtension>
            <ns3:atemp>18.0</ns3:atemp>
          </ns3:TrackPointExtension>
        </extensions>
      </trkpt>
      <trkpt lat="42.56017223931849002838134765625" lon="20.05540461279451847076416015625">
        <ele>2168.39990234375</ele>
        <time>2026-06-19T11:14:11.000Z</time>
        <extensions>
          <ns3:TrackPointExtension>
            <ns3:atemp>18.0</ns3:atemp>
          </ns3:TrackPointExtension>
        </extensions>
      </trkpt>
      <trkpt lat="42.560165114700794219970703125" lon="20.05542858503758907318115234375">
        <ele>2168.800048828125</ele>
        <time>2026-06-19T11:14:12.000Z</time>
        <extensions>
          <ns3:TrackPointExtension>
            <ns3:atemp>18.0</ns3:atemp>
          </ns3:TrackPointExtension>
        </extensions>
      </trkpt>
      <trkpt lat="42.56015866063535213470458984375" lon="20.05545322783291339874267578125">
        <ele>2169.199951171875</ele>
        <time>2026-06-19T11:14:13.000Z</time>
        <extensions>
          <ns3:TrackPointExtension>
            <ns3:atemp>18.0</ns3:atemp>
          </ns3:TrackPointExtension>
        </extensions>
      </trkpt>
      <trkpt lat="42.56014793179929256439208984375" lon="20.055473931133747100830078125">
        <ele>2169.60009765625</ele>
        <time>2026-06-19T11:14:14.000Z</time>
        <extensions>
          <ns3:TrackPointExtension>
            <ns3:atemp>18.0</ns3:atemp>
          </ns3:TrackPointExtension>
        </extensions>
      </trkpt>
      <trkpt lat="42.560137622058391571044921875" lon="20.05549371242523193359375">
        <ele>2170.199951171875</ele>
        <time>2026-06-19T11:14:15.000Z</time>
        <extensions>
          <ns3:TrackPointExtension>
            <ns3:atemp>18.0</ns3:atemp>
          </ns3:TrackPointExtension>
        </extensions>
      </trkpt>
      <trkpt lat="42.56012395955622196197509765625" lon="20.0555106438696384429931640625">
        <ele>2170.60009765625</ele>
        <time>2026-06-19T11:14:16.000Z</time>
        <extensions>
          <ns3:TrackPointExtension>
            <ns3:atemp>18.0</ns3:atemp>
          </ns3:TrackPointExtension>
        </extensions>
      </trkpt>
      <trkpt lat="42.560110799968242645263671875" lon="20.05551961250603199005126953125">
        <ele>2171.199951171875</ele>
        <time>2026-06-19T11:14:17.000Z</time>
        <extensions>
          <ns3:TrackPointExtension>
            <ns3:atemp>18.0</ns3:atemp>
          </ns3:TrackPointExtension>
        </extensions>
      </trkpt>
      <trkpt lat="42.56009411998093128204345703125" lon="20.05552514456212520599365234375">
        <ele>2171.60009765625</ele>
        <time>2026-06-19T11:14:18.000Z</time>
        <extensions>
          <ns3:TrackPointExtension>
            <ns3:atemp>18.0</ns3:atemp>
          </ns3:TrackPointExtension>
        </extensions>
      </trkpt>
      <trkpt lat="42.560076601803302764892578125" lon="20.05552413873374462127685546875">
        <ele>2172</ele>
        <time>2026-06-19T11:14:19.000Z</time>
        <extensions>
          <ns3:TrackPointExtension>
            <ns3:atemp>18.0</ns3:atemp>
          </ns3:TrackPointExtension>
        </extensions>
      </trkpt>
      <trkpt lat="42.56006025709211826324462890625" lon="20.055519528687000274658203125">
        <ele>2172.39990234375</ele>
        <time>2026-06-19T11:14:20.000Z</time>
        <extensions>
          <ns3:TrackPointExtension>
            <ns3:atemp>18.0</ns3:atemp>
          </ns3:TrackPointExtension>
        </extensions>
      </trkpt>
      <trkpt lat="42.56004399619996547698974609375" lon="20.05551927722990512847900390625">
        <ele>2172.800048828125</ele>
        <time>2026-06-19T11:14:21.000Z</time>
        <extensions>
          <ns3:TrackPointExtension>
            <ns3:atemp>18.0</ns3:atemp>
          </ns3:TrackPointExtension>
        </extensions>
      </trkpt>
      <trkpt lat="42.560025639832019805908203125" lon="20.055522881448268890380859375">
        <ele>2173.199951171875</ele>
        <time>2026-06-19T11:14:22.000Z</time>
        <extensions>
          <ns3:TrackPointExtension>
            <ns3:atemp>18.0</ns3:atemp>
          </ns3:TrackPointExtension>
        </extensions>
      </trkpt>
      <trkpt lat="42.560006864368915557861328125" lon="20.05552950315177440643310546875">
        <ele>2173.39990234375</ele>
        <time>2026-06-19T11:14:23.000Z</time>
        <extensions>
          <ns3:TrackPointExtension>
            <ns3:atemp>18.0</ns3:atemp>
          </ns3:TrackPointExtension>
        </extensions>
      </trkpt>
      <trkpt lat="42.55998666398227214813232421875" lon="20.0555364601314067840576171875">
        <ele>2173.60009765625</ele>
        <time>2026-06-19T11:14:24.000Z</time>
        <extensions>
          <ns3:TrackPointExtension>
            <ns3:atemp>18.0</ns3:atemp>
          </ns3:TrackPointExtension>
        </extensions>
      </trkpt>
      <trkpt lat="42.5599644519388675689697265625" lon="20.05554190836846828460693359375">
        <ele>2173.60009765625</ele>
        <time>2026-06-19T11:14:25.000Z</time>
        <extensions>
          <ns3:TrackPointExtension>
            <ns3:atemp>18.0</ns3:atemp>
          </ns3:TrackPointExtension>
        </extensions>
      </trkpt>
      <trkpt lat="42.559947185218334197998046875" lon="20.0555478595197200775146484375">
        <ele>2173.800048828125</ele>
        <time>2026-06-19T11:14:26.000Z</time>
        <extensions>
          <ns3:TrackPointExtension>
            <ns3:atemp>18.0</ns3:atemp>
          </ns3:TrackPointExtension>
        </extensions>
      </trkpt>
      <trkpt lat="42.55992966704070568084716796875" lon="20.0555527210235595703125">
        <ele>2174</ele>
        <time>2026-06-19T11:14:27.000Z</time>
        <extensions>
          <ns3:TrackPointExtension>
            <ns3:atemp>18.0</ns3:atemp>
          </ns3:TrackPointExtension>
        </extensions>
      </trkpt>
      <trkpt lat="42.5599124841392040252685546875" lon="20.0555616058409214019775390625">
        <ele>2174</ele>
        <time>2026-06-19T11:14:28.000Z</time>
        <extensions>
          <ns3:TrackPointExtension>
            <ns3:atemp>18.0</ns3:atemp>
          </ns3:TrackPointExtension>
        </extensions>
      </trkpt>
      <trkpt lat="42.5598930381238460540771484375" lon="20.05557057447731494903564453125">
        <ele>2174.199951171875</ele>
        <time>2026-06-19T11:14:29.000Z</time>
        <extensions>
          <ns3:TrackPointExtension>
            <ns3:atemp>18.0</ns3:atemp>
          </ns3:TrackPointExtension>
        </extensions>
      </trkpt>
      <trkpt lat="42.559876106679439544677734375" lon="20.05557627417147159576416015625">
        <ele>2174.39990234375</ele>
        <time>2026-06-19T11:14:30.000Z</time>
        <extensions>
          <ns3:TrackPointExtension>
            <ns3:atemp>18.0</ns3:atemp>
          </ns3:TrackPointExtension>
        </extensions>
      </trkpt>
      <trkpt lat="42.55986479111015796661376953125" lon="20.055586583912372589111328125">
        <ele>2174.60009765625</ele>
        <time>2026-06-19T11:14:31.000Z</time>
        <extensions>
          <ns3:TrackPointExtension>
            <ns3:atemp>18.0</ns3:atemp>
          </ns3:TrackPointExtension>
        </extensions>
      </trkpt>
      <trkpt lat="42.55985029041767120361328125" lon="20.05559991113841533660888671875">
        <ele>2175</ele>
        <time>2026-06-19T11:14:32.000Z</time>
        <extensions>
          <ns3:TrackPointExtension>
            <ns3:atemp>18.0</ns3:atemp>
          </ns3:TrackPointExtension>
        </extensions>
      </trkpt>
      <trkpt lat="42.55983646027743816375732421875" lon="20.0556115619838237762451171875">
        <ele>2175.199951171875</ele>
        <time>2026-06-19T11:14:33.000Z</time>
        <extensions>
          <ns3:TrackPointExtension>
            <ns3:atemp>18.0</ns3:atemp>
          </ns3:TrackPointExtension>
        </extensions>
      </trkpt>
      <trkpt lat="42.5598206184804439544677734375" lon="20.055626817047595977783203125">
        <ele>2175.60009765625</ele>
        <time>2026-06-19T11:14:34.000Z</time>
        <extensions>
          <ns3:TrackPointExtension>
            <ns3:atemp>18.0</ns3:atemp>
          </ns3:TrackPointExtension>
        </extensions>
      </trkpt>
      <trkpt lat="42.55980611778795719146728515625" lon="20.0556390546262264251708984375">
        <ele>2176.199951171875</ele>
        <time>2026-06-19T11:14:35.000Z</time>
        <extensions>
          <ns3:TrackPointExtension>
            <ns3:atemp>18.0</ns3:atemp>
          </ns3:TrackPointExtension>
        </extensions>
      </trkpt>
      <trkpt lat="42.5597901083528995513916015625" lon="20.05564953200519084930419921875">
        <ele>2176.60009765625</ele>
        <time>2026-06-19T11:14:36.000Z</time>
        <extensions>
          <ns3:TrackPointExtension>
            <ns3:atemp>18.0</ns3:atemp>
          </ns3:TrackPointExtension>
        </extensions>
      </trkpt>
      <trkpt lat="42.5597743503749370574951171875" lon="20.05566059611737728118896484375">
        <ele>2177</ele>
        <time>2026-06-19T11:14:37.000Z</time>
        <extensions>
          <ns3:TrackPointExtension>
            <ns3:atemp>18.0</ns3:atemp>
          </ns3:TrackPointExtension>
        </extensions>
      </trkpt>
      <trkpt lat="42.5597599335014820098876953125" lon="20.05567300133407115936279296875">
        <ele>2177.60009765625</ele>
        <time>2026-06-19T11:14:38.000Z</time>
        <extensions>
          <ns3:TrackPointExtension>
            <ns3:atemp>18.0</ns3:atemp>
          </ns3:TrackPointExtension>
        </extensions>
      </trkpt>
      <trkpt lat="42.55974610336124897003173828125" lon="20.0556869991123676300048828125">
        <ele>2178.199951171875</ele>
        <time>2026-06-19T11:14:39.000Z</time>
        <extensions>
          <ns3:TrackPointExtension>
            <ns3:atemp>18.0</ns3:atemp>
          </ns3:TrackPointExtension>
        </extensions>
      </trkpt>
      <trkpt lat="42.55972732789814472198486328125" lon="20.055698566138744354248046875">
        <ele>2178.800048828125</ele>
        <time>2026-06-19T11:14:40.000Z</time>
        <extensions>
          <ns3:TrackPointExtension>
            <ns3:atemp>18.0</ns3:atemp>
          </ns3:TrackPointExtension>
        </extensions>
      </trkpt>
      <trkpt lat="42.55970989353954792022705078125" lon="20.055706612765789031982421875">
        <ele>2179.39990234375</ele>
        <time>2026-06-19T11:14:41.000Z</time>
        <extensions>
          <ns3:TrackPointExtension>
            <ns3:atemp>18.0</ns3:atemp>
          </ns3:TrackPointExtension>
        </extensions>
      </trkpt>
      <trkpt lat="42.55968793295323848724365234375" lon="20.055716671049594879150390625">
        <ele>2180</ele>
        <time>2026-06-19T11:14:42.000Z</time>
        <extensions>
          <ns3:TrackPointExtension>
            <ns3:atemp>18.0</ns3:atemp>
          </ns3:TrackPointExtension>
        </extensions>
      </trkpt>
      <trkpt lat="42.5596700794994831085205078125" lon="20.0557312555611133575439453125">
        <ele>2180.39990234375</ele>
        <time>2026-06-19T11:14:43.000Z</time>
        <extensions>
          <ns3:TrackPointExtension>
            <ns3:atemp>18.0</ns3:atemp>
          </ns3:TrackPointExtension>
        </extensions>
      </trkpt>
      <trkpt lat="42.55965591408312320709228515625" lon="20.055747516453266143798828125">
        <ele>2181</ele>
        <time>2026-06-19T11:14:44.000Z</time>
        <extensions>
          <ns3:TrackPointExtension>
            <ns3:atemp>18.0</ns3:atemp>
          </ns3:TrackPointExtension>
        </extensions>
      </trkpt>
      <trkpt lat="42.55963915027678012847900390625" lon="20.05576201714575290679931640625">
        <ele>2181.39990234375</ele>
        <time>2026-06-19T11:14:45.000Z</time>
        <extensions>
          <ns3:TrackPointExtension>
            <ns3:atemp>18.0</ns3:atemp>
          </ns3:TrackPointExtension>
        </extensions>
      </trkpt>
      <trkpt lat="42.5596244819462299346923828125" lon="20.05578028969466686248779296875">
        <ele>2182</ele>
        <time>2026-06-19T11:14:46.000Z</time>
        <extensions>
          <ns3:TrackPointExtension>
            <ns3:atemp>18.0</ns3:atemp>
          </ns3:TrackPointExtension>
        </extensions>
      </trkpt>
      <trkpt lat="42.559609897434711456298828125" lon="20.05580359138548374176025390625">
        <ele>2182.39990234375</ele>
        <time>2026-06-19T11:14:47.000Z</time>
        <extensions>
          <ns3:TrackPointExtension>
            <ns3:atemp>18.0</ns3:atemp>
          </ns3:TrackPointExtension>
        </extensions>
      </trkpt>
      <trkpt lat="42.55959774367511272430419921875" lon="20.055821947753429412841796875">
        <ele>2183</ele>
        <time>2026-06-19T11:14:48.000Z</time>
        <extensions>
          <ns3:TrackPointExtension>
            <ns3:atemp>18.0</ns3:atemp>
          </ns3:TrackPointExtension>
        </extensions>
      </trkpt>
      <trkpt lat="42.55958584137260913848876953125" lon="20.05584281869232654571533203125">
        <ele>2183.60009765625</ele>
        <time>2026-06-19T11:14:49.000Z</time>
        <extensions>
          <ns3:TrackPointExtension>
            <ns3:atemp>18.0</ns3:atemp>
          </ns3:TrackPointExtension>
        </extensions>
      </trkpt>
      <trkpt lat="42.5595773756504058837890625" lon="20.0558693893253803253173828125">
        <ele>2184</ele>
        <time>2026-06-19T11:14:50.000Z</time>
        <extensions>
          <ns3:TrackPointExtension>
            <ns3:atemp>18.0</ns3:atemp>
          </ns3:TrackPointExtension>
        </extensions>
      </trkpt>
      <trkpt lat="42.55956907756626605987548828125" lon="20.05589939653873443603515625">
        <ele>2184.39990234375</ele>
        <time>2026-06-19T11:14:51.000Z</time>
        <extensions>
          <ns3:TrackPointExtension>
            <ns3:atemp>18.0</ns3:atemp>
          </ns3:TrackPointExtension>
        </extensions>
      </trkpt>
      <trkpt lat="42.559562623500823974609375" lon="20.05593158304691314697265625">
        <ele>2185</ele>
        <time>2026-06-19T11:14:52.000Z</time>
        <extensions>
          <ns3:TrackPointExtension>
            <ns3:atemp>18.0</ns3:atemp>
          </ns3:TrackPointExtension>
        </extensions>
      </trkpt>
      <trkpt lat="42.55955365486443042755126953125" lon="20.055960752069950103759765625">
        <ele>2185.39990234375</ele>
        <time>2026-06-19T11:14:53.000Z</time>
        <extensions>
          <ns3:TrackPointExtension>
            <ns3:atemp>18.0</ns3:atemp>
          </ns3:TrackPointExtension>
        </extensions>
      </trkpt>
      <trkpt lat="42.55954720079898834228515625" lon="20.0559907592833042144775390625">
        <ele>2185.800048828125</ele>
        <time>2026-06-19T11:14:54.000Z</time>
        <extensions>
          <ns3:TrackPointExtension>
            <ns3:atemp>18.0</ns3:atemp>
          </ns3:TrackPointExtension>
        </extensions>
      </trkpt>
      <trkpt lat="42.559536136686801910400390625" lon="20.0560219399631023406982421875">
        <ele>2186.199951171875</ele>
        <time>2026-06-19T11:14:55.000Z</time>
        <extensions>
          <ns3:TrackPointExtension>
            <ns3:atemp>18.0</ns3:atemp>
          </ns3:TrackPointExtension>
        </extensions>
      </trkpt>
      <trkpt lat="42.5595238991081714630126953125" lon="20.05604867823421955108642578125">
        <ele>2186.60009765625</ele>
        <time>2026-06-19T11:14:56.000Z</time>
        <extensions>
          <ns3:TrackPointExtension>
            <ns3:atemp>18.0</ns3:atemp>
          </ns3:TrackPointExtension>
        </extensions>
      </trkpt>
      <trkpt lat="42.5595108233392238616943359375" lon="20.05607566796243190765380859375">
        <ele>2187</ele>
        <time>2026-06-19T11:14:57.000Z</time>
        <extensions>
          <ns3:TrackPointExtension>
            <ns3:atemp>18.0</ns3:atemp>
          </ns3:TrackPointExtension>
        </extensions>
      </trkpt>
      <trkpt lat="42.5595007650554180145263671875" lon="20.05610332824289798736572265625">
        <ele>2187.39990234375</ele>
        <time>2026-06-19T11:14:58.000Z</time>
        <extensions>
          <ns3:TrackPointExtension>
            <ns3:atemp>18.0</ns3:atemp>
          </ns3:TrackPointExtension>
        </extensions>
      </trkpt>
      <trkpt lat="42.5594943948090076446533203125" lon="20.05613333545625209808349609375">
        <ele>2187.800048828125</ele>
        <time>2026-06-19T11:14:59.000Z</time>
        <extensions>
          <ns3:TrackPointExtension>
            <ns3:atemp>18.0</ns3:atemp>
          </ns3:TrackPointExtension>
        </extensions>
      </trkpt>
      <trkpt lat="42.55948374979197978973388671875" lon="20.05616082809865474700927734375">
        <ele>2188.39990234375</ele>
        <time>2026-06-19T11:15:00.000Z</time>
        <extensions>
          <ns3:TrackPointExtension>
            <ns3:atemp>18.0</ns3:atemp>
          </ns3:TrackPointExtension>
        </extensions>
      </trkpt>
      <trkpt lat="42.55947344005107879638671875" lon="20.05618882365524768829345703125">
        <ele>2188.800048828125</ele>
        <time>2026-06-19T11:15:01.000Z</time>
        <extensions>
          <ns3:TrackPointExtension>
            <ns3:atemp>18.0</ns3:atemp>
          </ns3:TrackPointExtension>
        </extensions>
      </trkpt>
      <trkpt lat="42.55946262739598751068115234375" lon="20.05620810203254222869873046875">
        <ele>2189.39990234375</ele>
        <time>2026-06-19T11:15:02.000Z</time>
        <extensions>
          <ns3:TrackPointExtension>
            <ns3:atemp>18.0</ns3:atemp>
          </ns3:TrackPointExtension>
        </extensions>
      </trkpt>
      <trkpt lat="42.559449635446071624755859375" lon="20.0562246143817901611328125">
        <ele>2190</ele>
        <time>2026-06-19T11:15:03.000Z</time>
        <extensions>
          <ns3:TrackPointExtension>
            <ns3:atemp>18.0</ns3:atemp>
          </ns3:TrackPointExtension>
        </extensions>
      </trkpt>
      <trkpt lat="42.5594327040016651153564453125" lon="20.05623626522719860076904296875">
        <ele>2190.39990234375</ele>
        <time>2026-06-19T11:15:04.000Z</time>
        <extensions>
          <ns3:TrackPointExtension>
            <ns3:atemp>18.0</ns3:atemp>
          </ns3:TrackPointExtension>
        </extensions>
      </trkpt>
      <trkpt lat="42.5594122521579265594482421875" lon="20.05624364130198955535888671875">
        <ele>2191</ele>
        <time>2026-06-19T11:15:05.000Z</time>
        <extensions>
          <ns3:TrackPointExtension>
            <ns3:atemp>18.0</ns3:atemp>
          </ns3:TrackPointExtension>
        </extensions>
      </trkpt>
      <trkpt lat="42.55938760936260223388671875" lon="20.056252777576446533203125">
        <ele>2191.39990234375</ele>
        <time>2026-06-19T11:15:06.000Z</time>
        <extensions>
          <ns3:TrackPointExtension>
            <ns3:atemp>18.0</ns3:atemp>
          </ns3:TrackPointExtension>
        </extensions>
      </trkpt>
      <trkpt lat="42.55936883389949798583984375" lon="20.0562603212893009185791015625">
        <ele>2191.800048828125</ele>
        <time>2026-06-19T11:15:07.000Z</time>
        <extensions>
          <ns3:TrackPointExtension>
            <ns3:atemp>18.0</ns3:atemp>
          </ns3:TrackPointExtension>
        </extensions>
      </trkpt>
      <trkpt lat="42.55935114808380603790283203125" lon="20.05626291967928409576416015625">
        <ele>2192.199951171875</ele>
        <time>2026-06-19T11:15:08.000Z</time>
        <extensions>
          <ns3:TrackPointExtension>
            <ns3:atemp>18.0</ns3:atemp>
          </ns3:TrackPointExtension>
        </extensions>
      </trkpt>
      <trkpt lat="42.559347040951251983642578125" lon="20.05625587888062000274658203125">
        <ele>2192.800048828125</ele>
        <time>2026-06-19T11:15:09.000Z</time>
        <extensions>
          <ns3:TrackPointExtension>
            <ns3:atemp>18.0</ns3:atemp>
          </ns3:TrackPointExtension>
        </extensions>
      </trkpt>
      <trkpt lat="42.5593488849699497222900390625" lon="20.05625613033771514892578125">
        <ele>2193.199951171875</ele>
        <time>2026-06-19T11:15:10.000Z</time>
        <extensions>
          <ns3:TrackPointExtension>
            <ns3:atemp>18.0</ns3:atemp>
          </ns3:TrackPointExtension>
        </extensions>
      </trkpt>
      <trkpt lat="42.55934880115091800689697265625" lon="20.05625613033771514892578125">
        <ele>2193.800048828125</ele>
        <time>2026-06-19T11:15:11.000Z</time>
        <extensions>
          <ns3:TrackPointExtension>
            <ns3:atemp>18.0</ns3:atemp>
          </ns3:TrackPointExtension>
        </extensions>
      </trkpt>
      <trkpt lat="42.55934880115091800689697265625" lon="20.05625613033771514892578125">
        <ele>2194.199951171875</ele>
        <time>2026-06-19T11:15:12.000Z</time>
        <extensions>
          <ns3:TrackPointExtension>
            <ns3:atemp>18.0</ns3:atemp>
          </ns3:TrackPointExtension>
        </extensions>
      </trkpt>
      <trkpt lat="42.55934880115091800689697265625" lon="20.05625613033771514892578125">
        <ele>2194.60009765625</ele>
        <time>2026-06-19T11:15:13.000Z</time>
        <extensions>
          <ns3:TrackPointExtension>
            <ns3:atemp>18.0</ns3:atemp>
          </ns3:TrackPointExtension>
        </extensions>
      </trkpt>
      <trkpt lat="42.55934880115091800689697265625" lon="20.05625613033771514892578125">
        <ele>2194.800048828125</ele>
        <time>2026-06-19T11:15:14.000Z</time>
        <extensions>
          <ns3:TrackPointExtension>
            <ns3:atemp>18.0</ns3:atemp>
          </ns3:TrackPointExtension>
        </extensions>
      </trkpt>
      <trkpt lat="42.55934880115091800689697265625" lon="20.05625613033771514892578125">
        <ele>2194.800048828125</ele>
        <time>2026-06-19T11:15:15.000Z</time>
        <extensions>
          <ns3:TrackPointExtension>
            <ns3:atemp>18.0</ns3:atemp>
          </ns3:TrackPointExtension>
        </extensions>
      </trkpt>
      <trkpt lat="42.5593482144176959991455078125" lon="20.05625621415674686431884765625">
        <ele>2194.800048828125</ele>
        <time>2026-06-19T11:15:16.000Z</time>
        <extensions>
          <ns3:TrackPointExtension>
            <ns3:atemp>18.0</ns3:atemp>
          </ns3:TrackPointExtension>
        </extensions>
      </trkpt>
      <trkpt lat="42.559335641562938690185546875" lon="20.05625906400382518768310546875">
        <ele>2194.60009765625</ele>
        <time>2026-06-19T11:15:17.000Z</time>
        <extensions>
          <ns3:TrackPointExtension>
            <ns3:atemp>18.0</ns3:atemp>
          </ns3:TrackPointExtension>
        </extensions>
      </trkpt>
      <trkpt lat="42.559324912726879119873046875" lon="20.05626325495541095733642578125">
        <ele>2194.60009765625</ele>
        <time>2026-06-19T11:15:18.000Z</time>
        <extensions>
          <ns3:TrackPointExtension>
            <ns3:atemp>18.0</ns3:atemp>
          </ns3:TrackPointExtension>
        </extensions>
      </trkpt>
      <trkpt lat="42.55931854248046875" lon="20.0562723912298679351806640625">
        <ele>2194.60009765625</ele>
        <time>2026-06-19T11:15:19.000Z</time>
        <extensions>
          <ns3:TrackPointExtension>
            <ns3:atemp>18.0</ns3:atemp>
          </ns3:TrackPointExtension>
        </extensions>
      </trkpt>
      <trkpt lat="42.5593153573572635650634765625" lon="20.0562723912298679351806640625">
        <ele>2194.60009765625</ele>
        <time>2026-06-19T11:15:20.000Z</time>
        <extensions>
          <ns3:TrackPointExtension>
            <ns3:atemp>18.0</ns3:atemp>
          </ns3:TrackPointExtension>
        </extensions>
      </trkpt>
      <trkpt lat="42.5593153573572635650634765625" lon="20.0562723912298679351806640625">
        <ele>2194.800048828125</ele>
        <time>2026-06-19T11:15:21.000Z</time>
        <extensions>
          <ns3:TrackPointExtension>
            <ns3:atemp>18.0</ns3:atemp>
          </ns3:TrackPointExtension>
        </extensions>
      </trkpt>
      <trkpt lat="42.5593153573572635650634765625" lon="20.0562723912298679351806640625">
        <ele>2195</ele>
        <time>2026-06-19T11:15:22.000Z</time>
        <extensions>
          <ns3:TrackPointExtension>
            <ns3:atemp>18.0</ns3:atemp>
          </ns3:TrackPointExtension>
        </extensions>
      </trkpt>
      <trkpt lat="42.5593153573572635650634765625" lon="20.0562723912298679351806640625">
        <ele>2195.199951171875</ele>
        <time>2026-06-19T11:15:23.000Z</time>
        <extensions>
          <ns3:TrackPointExtension>
            <ns3:atemp>18.0</ns3:atemp>
          </ns3:TrackPointExtension>
        </extensions>
      </trkpt>
      <trkpt lat="42.55931527353823184967041015625" lon="20.056272558867931365966796875">
        <ele>2195.199951171875</ele>
        <time>2026-06-19T11:15:24.000Z</time>
        <extensions>
          <ns3:TrackPointExtension>
            <ns3:atemp>18.0</ns3:atemp>
          </ns3:TrackPointExtension>
        </extensions>
      </trkpt>
      <trkpt lat="42.55931141786277294158935546875" lon="20.05628102459013462066650390625">
        <ele>2195.39990234375</ele>
        <time>2026-06-19T11:15:25.000Z</time>
        <extensions>
          <ns3:TrackPointExtension>
            <ns3:atemp>18.0</ns3:atemp>
          </ns3:TrackPointExtension>
        </extensions>
      </trkpt>
      <trkpt lat="42.5593026168644428253173828125" lon="20.0562871433794498443603515625">
        <ele>2195.39990234375</ele>
        <time>2026-06-19T11:15:26.000Z</time>
        <extensions>
          <ns3:TrackPointExtension>
            <ns3:atemp>18.0</ns3:atemp>
          </ns3:TrackPointExtension>
        </extensions>
      </trkpt>
      <trkpt lat="42.55928928963840007781982421875" lon="20.0562970340251922607421875">
        <ele>2195.39990234375</ele>
        <time>2026-06-19T11:15:27.000Z</time>
        <extensions>
          <ns3:TrackPointExtension>
            <ns3:atemp>18.0</ns3:atemp>
          </ns3:TrackPointExtension>
        </extensions>
      </trkpt>
      <trkpt lat="42.5592684186995029449462890625" lon="20.05630667321383953094482421875">
        <ele>2195.60009765625</ele>
        <time>2026-06-19T11:15:28.000Z</time>
        <extensions>
          <ns3:TrackPointExtension>
            <ns3:atemp>18.0</ns3:atemp>
          </ns3:TrackPointExtension>
        </extensions>
      </trkpt>
      <trkpt lat="42.559254504740238189697265625" lon="20.05632712505757808685302734375">
        <ele>2195.60009765625</ele>
        <time>2026-06-19T11:15:29.000Z</time>
        <extensions>
          <ns3:TrackPointExtension>
            <ns3:atemp>18.0</ns3:atemp>
          </ns3:TrackPointExtension>
        </extensions>
      </trkpt>
      <trkpt lat="42.55924453027546405792236328125" lon="20.05634841509163379669189453125">
        <ele>2195.60009765625</ele>
        <time>2026-06-19T11:15:30.000Z</time>
        <extensions>
          <ns3:TrackPointExtension>
            <ns3:atemp>18.0</ns3:atemp>
          </ns3:TrackPointExtension>
        </extensions>
      </trkpt>
      <trkpt lat="42.55923028104007244110107421875" lon="20.05636501125991344451904296875">
        <ele>2195.800048828125</ele>
        <time>2026-06-19T11:15:31.000Z</time>
        <extensions>
          <ns3:TrackPointExtension>
            <ns3:atemp>18.0</ns3:atemp>
          </ns3:TrackPointExtension>
        </extensions>
      </trkpt>
      <trkpt lat="42.55922156386077404022216796875" lon="20.05637439899146556854248046875">
        <ele>2196</ele>
        <time>2026-06-19T11:15:32.000Z</time>
        <extensions>
          <ns3:TrackPointExtension>
            <ns3:atemp>18.0</ns3:atemp>
          </ns3:TrackPointExtension>
        </extensions>
      </trkpt>
      <trkpt lat="42.559214942157268524169921875" lon="20.05638143979012966156005859375">
        <ele>2196.199951171875</ele>
        <time>2026-06-19T11:15:33.000Z</time>
        <extensions>
          <ns3:TrackPointExtension>
            <ns3:atemp>18.0</ns3:atemp>
          </ns3:TrackPointExtension>
        </extensions>
      </trkpt>
      <trkpt lat="42.55921284668147563934326171875" lon="20.0563897378742694854736328125">
        <ele>2196.39990234375</ele>
        <time>2026-06-19T11:15:34.000Z</time>
        <extensions>
          <ns3:TrackPointExtension>
            <ns3:atemp>18.0</ns3:atemp>
          </ns3:TrackPointExtension>
        </extensions>
      </trkpt>
      <trkpt lat="42.55920932628214359283447265625" lon="20.05639049224555492401123046875">
        <ele>2196.800048828125</ele>
        <time>2026-06-19T11:15:35.000Z</time>
        <extensions>
          <ns3:TrackPointExtension>
            <ns3:atemp>18.0</ns3:atemp>
          </ns3:TrackPointExtension>
        </extensions>
      </trkpt>
      <trkpt lat="42.5592090748250484466552734375" lon="20.0563914142549037933349609375">
        <ele>2197</ele>
        <time>2026-06-19T11:15:36.000Z</time>
        <extensions>
          <ns3:TrackPointExtension>
            <ns3:atemp>18.0</ns3:atemp>
          </ns3:TrackPointExtension>
        </extensions>
      </trkpt>
      <trkpt lat="42.5592090748250484466552734375" lon="20.0563914142549037933349609375">
        <ele>2197</ele>
        <time>2026-06-19T11:15:37.000Z</time>
        <extensions>
          <ns3:TrackPointExtension>
            <ns3:atemp>18.0</ns3:atemp>
          </ns3:TrackPointExtension>
        </extensions>
      </trkpt>
      <trkpt lat="42.5592090748250484466552734375" lon="20.0563914142549037933349609375">
        <ele>2197.199951171875</ele>
        <time>2026-06-19T11:15:38.000Z</time>
        <extensions>
          <ns3:TrackPointExtension>
            <ns3:atemp>18.0</ns3:atemp>
          </ns3:TrackPointExtension>
        </extensions>
      </trkpt>
      <trkpt lat="42.5592090748250484466552734375" lon="20.0563914142549037933349609375">
        <ele>2197.199951171875</ele>
        <time>2026-06-19T11:15:39.000Z</time>
        <extensions>
          <ns3:TrackPointExtension>
            <ns3:atemp>18.0</ns3:atemp>
          </ns3:TrackPointExtension>
        </extensions>
      </trkpt>
      <trkpt lat="42.5592090748250484466552734375" lon="20.0563914142549037933349609375">
        <ele>2197.199951171875</ele>
        <time>2026-06-19T11:15:40.000Z</time>
        <extensions>
          <ns3:TrackPointExtension>
            <ns3:atemp>18.0</ns3:atemp>
          </ns3:TrackPointExtension>
        </extensions>
      </trkpt>
      <trkpt lat="42.5592090748250484466552734375" lon="20.0563914142549037933349609375">
        <ele>2197.199951171875</ele>
        <time>2026-06-19T11:15:41.000Z</time>
        <extensions>
          <ns3:TrackPointExtension>
            <ns3:atemp>18.0</ns3:atemp>
          </ns3:TrackPointExtension>
        </extensions>
      </trkpt>
      <trkpt lat="42.5592090748250484466552734375" lon="20.0563914142549037933349609375">
        <ele>2197.199951171875</ele>
        <time>2026-06-19T11:15:42.000Z</time>
        <extensions>
          <ns3:TrackPointExtension>
            <ns3:atemp>18.0</ns3:atemp>
          </ns3:TrackPointExtension>
        </extensions>
      </trkpt>
      <trkpt lat="42.5592090748250484466552734375" lon="20.0563914142549037933349609375">
        <ele>2197.199951171875</ele>
        <time>2026-06-19T11:15:43.000Z</time>
        <extensions>
          <ns3:TrackPointExtension>
            <ns3:atemp>18.0</ns3:atemp>
          </ns3:TrackPointExtension>
        </extensions>
      </trkpt>
      <trkpt lat="42.5592090748250484466552734375" lon="20.0563914142549037933349609375">
        <ele>2197</ele>
        <time>2026-06-19T11:15:44.000Z</time>
        <extensions>
          <ns3:TrackPointExtension>
            <ns3:atemp>18.0</ns3:atemp>
          </ns3:TrackPointExtension>
        </extensions>
      </trkpt>
      <trkpt lat="42.5592090748250484466552734375" lon="20.0563914142549037933349609375">
        <ele>2197</ele>
        <time>2026-06-19T11:15:45.000Z</time>
        <extensions>
          <ns3:TrackPointExtension>
            <ns3:atemp>18.0</ns3:atemp>
          </ns3:TrackPointExtension>
        </extensions>
      </trkpt>
      <trkpt lat="42.5592090748250484466552734375" lon="20.0563914142549037933349609375">
        <ele>2197</ele>
        <time>2026-06-19T11:15:46.000Z</time>
        <extensions>
          <ns3:TrackPointExtension>
            <ns3:atemp>18.0</ns3:atemp>
          </ns3:TrackPointExtension>
        </extensions>
      </trkpt>
      <trkpt lat="42.5592090748250484466552734375" lon="20.0563914142549037933349609375">
        <ele>2197</ele>
        <time>2026-06-19T11:15:47.000Z</time>
        <extensions>
          <ns3:TrackPointExtension>
            <ns3:atemp>18.0</ns3:atemp>
          </ns3:TrackPointExtension>
        </extensions>
      </trkpt>
      <trkpt lat="42.5592090748250484466552734375" lon="20.0563914142549037933349609375">
        <ele>2197</ele>
        <time>2026-06-19T11:15:48.000Z</time>
        <extensions>
          <ns3:TrackPointExtension>
            <ns3:atemp>18.0</ns3:atemp>
          </ns3:TrackPointExtension>
        </extensions>
      </trkpt>
      <trkpt lat="42.5592090748250484466552734375" lon="20.0563914142549037933349609375">
        <ele>2196.800048828125</ele>
        <time>2026-06-19T11:15:49.000Z</time>
        <extensions>
          <ns3:TrackPointExtension>
            <ns3:atemp>18.0</ns3:atemp>
          </ns3:TrackPointExtension>
        </extensions>
      </trkpt>
      <trkpt lat="42.5592090748250484466552734375" lon="20.0563914142549037933349609375">
        <ele>2196.800048828125</ele>
        <time>2026-06-19T11:15:50.000Z</time>
        <extensions>
          <ns3:TrackPointExtension>
            <ns3:atemp>18.0</ns3:atemp>
          </ns3:TrackPointExtension>
        </extensions>
      </trkpt>
      <trkpt lat="42.5592090748250484466552734375" lon="20.0563914142549037933349609375">
        <ele>2196.800048828125</ele>
        <time>2026-06-19T11:15:51.000Z</time>
        <extensions>
          <ns3:TrackPointExtension>
            <ns3:atemp>18.0</ns3:atemp>
          </ns3:TrackPointExtension>
        </extensions>
      </trkpt>
      <trkpt lat="42.5592090748250484466552734375" lon="20.0563914142549037933349609375">
        <ele>2196.800048828125</ele>
        <time>2026-06-19T11:15:52.000Z</time>
        <extensions>
          <ns3:TrackPointExtension>
            <ns3:atemp>18.0</ns3:atemp>
          </ns3:TrackPointExtension>
        </extensions>
      </trkpt>
      <trkpt lat="42.5592090748250484466552734375" lon="20.0563914142549037933349609375">
        <ele>2196.800048828125</ele>
        <time>2026-06-19T11:15:53.000Z</time>
        <extensions>
          <ns3:TrackPointExtension>
            <ns3:atemp>18.0</ns3:atemp>
          </ns3:TrackPointExtension>
        </extensions>
      </trkpt>
      <trkpt lat="42.5592090748250484466552734375" lon="20.0563914142549037933349609375">
        <ele>2196.800048828125</ele>
        <time>2026-06-19T11:15:54.000Z</time>
        <extensions>
          <ns3:TrackPointExtension>
            <ns3:atemp>18.0</ns3:atemp>
          </ns3:TrackPointExtension>
        </extensions>
      </trkpt>
      <trkpt lat="42.5592090748250484466552734375" lon="20.0563914142549037933349609375">
        <ele>2196.60009765625</ele>
        <time>2026-06-19T11:15:55.000Z</time>
        <extensions>
          <ns3:TrackPointExtension>
            <ns3:atemp>18.0</ns3:atemp>
          </ns3:TrackPointExtension>
        </extensions>
      </trkpt>
      <trkpt lat="42.5592090748250484466552734375" lon="20.0563914142549037933349609375">
        <ele>2196.60009765625</ele>
        <time>2026-06-19T11:15:56.000Z</time>
        <extensions>
          <ns3:TrackPointExtension>
            <ns3:atemp>18.0</ns3:atemp>
          </ns3:TrackPointExtension>
        </extensions>
      </trkpt>
      <trkpt lat="42.5592090748250484466552734375" lon="20.0563914142549037933349609375">
        <ele>2196.60009765625</ele>
        <time>2026-06-19T11:15:57.000Z</time>
        <extensions>
          <ns3:TrackPointExtension>
            <ns3:atemp>18.0</ns3:atemp>
          </ns3:TrackPointExtension>
        </extensions>
      </trkpt>
      <trkpt lat="42.5592090748250484466552734375" lon="20.0563914142549037933349609375">
        <ele>2196.60009765625</ele>
        <time>2026-06-19T11:15:58.000Z</time>
        <extensions>
          <ns3:TrackPointExtension>
            <ns3:atemp>18.0</ns3:atemp>
          </ns3:TrackPointExtension>
        </extensions>
      </trkpt>
      <trkpt lat="42.5592090748250484466552734375" lon="20.0563914142549037933349609375">
        <ele>2196.60009765625</ele>
        <time>2026-06-19T11:15:59.000Z</time>
        <extensions>
          <ns3:TrackPointExtension>
            <ns3:atemp>18.0</ns3:atemp>
          </ns3:TrackPointExtension>
        </extensions>
      </trkpt>
      <trkpt lat="42.5592090748250484466552734375" lon="20.0563914142549037933349609375">
        <ele>2196.60009765625</ele>
        <time>2026-06-19T11:16:00.000Z</time>
        <extensions>
          <ns3:TrackPointExtension>
            <ns3:atemp>18.0</ns3:atemp>
          </ns3:TrackPointExtension>
        </extensions>
      </trkpt>
      <trkpt lat="42.5592090748250484466552734375" lon="20.0563914142549037933349609375">
        <ele>2196.60009765625</ele>
        <time>2026-06-19T11:16:01.000Z</time>
        <extensions>
          <ns3:TrackPointExtension>
            <ns3:atemp>18.0</ns3:atemp>
          </ns3:TrackPointExtension>
        </extensions>
      </trkpt>
      <trkpt lat="42.5592090748250484466552734375" lon="20.0563914142549037933349609375">
        <ele>2196.60009765625</ele>
        <time>2026-06-19T11:16:02.000Z</time>
        <extensions>
          <ns3:TrackPointExtension>
            <ns3:atemp>18.0</ns3:atemp>
          </ns3:TrackPointExtension>
        </extensions>
      </trkpt>
      <trkpt lat="42.5592090748250484466552734375" lon="20.0563914142549037933349609375">
        <ele>2196.60009765625</ele>
        <time>2026-06-19T11:16:03.000Z</time>
        <extensions>
          <ns3:TrackPointExtension>
            <ns3:atemp>18.0</ns3:atemp>
          </ns3:TrackPointExtension>
        </extensions>
      </trkpt>
      <trkpt lat="42.5592090748250484466552734375" lon="20.0563914142549037933349609375">
        <ele>2196.60009765625</ele>
        <time>2026-06-19T11:16:04.000Z</time>
        <extensions>
          <ns3:TrackPointExtension>
            <ns3:atemp>18.0</ns3:atemp>
          </ns3:TrackPointExtension>
        </extensions>
      </trkpt>
      <trkpt lat="42.5592090748250484466552734375" lon="20.0563914142549037933349609375">
        <ele>2196.60009765625</ele>
        <time>2026-06-19T11:16:05.000Z</time>
        <extensions>
          <ns3:TrackPointExtension>
            <ns3:atemp>18.0</ns3:atemp>
          </ns3:TrackPointExtension>
        </extensions>
      </trkpt>
      <trkpt lat="42.5592090748250484466552734375" lon="20.0563914142549037933349609375">
        <ele>2196.60009765625</ele>
        <time>2026-06-19T11:16:06.000Z</time>
        <extensions>
          <ns3:TrackPointExtension>
            <ns3:atemp>18.0</ns3:atemp>
          </ns3:TrackPointExtension>
        </extensions>
      </trkpt>
      <trkpt lat="42.5592090748250484466552734375" lon="20.0563914142549037933349609375">
        <ele>2196.39990234375</ele>
        <time>2026-06-19T11:16:07.000Z</time>
        <extensions>
          <ns3:TrackPointExtension>
            <ns3:atemp>18.0</ns3:atemp>
          </ns3:TrackPointExtension>
        </extensions>
      </trkpt>
      <trkpt lat="42.5592090748250484466552734375" lon="20.0563914142549037933349609375">
        <ele>2196.39990234375</ele>
        <time>2026-06-19T11:16:08.000Z</time>
        <extensions>
          <ns3:TrackPointExtension>
            <ns3:atemp>18.0</ns3:atemp>
          </ns3:TrackPointExtension>
        </extensions>
      </trkpt>
      <trkpt lat="42.5592090748250484466552734375" lon="20.0563914142549037933349609375">
        <ele>2196.39990234375</ele>
        <time>2026-06-19T11:16:09.000Z</time>
        <extensions>
          <ns3:TrackPointExtension>
            <ns3:atemp>18.0</ns3:atemp>
          </ns3:TrackPointExtension>
        </extensions>
      </trkpt>
      <trkpt lat="42.5592090748250484466552734375" lon="20.0563914142549037933349609375">
        <ele>2196.39990234375</ele>
        <time>2026-06-19T11:16:10.000Z</time>
        <extensions>
          <ns3:TrackPointExtension>
            <ns3:atemp>18.0</ns3:atemp>
          </ns3:TrackPointExtension>
        </extensions>
      </trkpt>
      <trkpt lat="42.5592090748250484466552734375" lon="20.0563914142549037933349609375">
        <ele>2196.39990234375</ele>
        <time>2026-06-19T11:16:11.000Z</time>
        <extensions>
          <ns3:TrackPointExtension>
            <ns3:atemp>18.0</ns3:atemp>
          </ns3:TrackPointExtension>
        </extensions>
      </trkpt>
      <trkpt lat="42.5592090748250484466552734375" lon="20.0563914142549037933349609375">
        <ele>2196.39990234375</ele>
        <time>2026-06-19T11:16:12.000Z</time>
        <extensions>
          <ns3:TrackPointExtension>
            <ns3:atemp>18.0</ns3:atemp>
          </ns3:TrackPointExtension>
        </extensions>
      </trkpt>
      <trkpt lat="42.5592090748250484466552734375" lon="20.0563914142549037933349609375">
        <ele>2196.39990234375</ele>
        <time>2026-06-19T11:16:13.000Z</time>
        <extensions>
          <ns3:TrackPointExtension>
            <ns3:atemp>18.0</ns3:atemp>
          </ns3:TrackPointExtension>
        </extensions>
      </trkpt>
      <trkpt lat="42.5592090748250484466552734375" lon="20.0563914142549037933349609375">
        <ele>2196.39990234375</ele>
        <time>2026-06-19T11:16:14.000Z</time>
        <extensions>
          <ns3:TrackPointExtension>
            <ns3:atemp>18.0</ns3:atemp>
          </ns3:TrackPointExtension>
        </extensions>
      </trkpt>
      <trkpt lat="42.5592090748250484466552734375" lon="20.0563914142549037933349609375">
        <ele>2196.199951171875</ele>
        <time>2026-06-19T11:16:15.000Z</time>
        <extensions>
          <ns3:TrackPointExtension>
            <ns3:atemp>18.0</ns3:atemp>
          </ns3:TrackPointExtension>
        </extensions>
      </trkpt>
      <trkpt lat="42.5592090748250484466552734375" lon="20.0563914142549037933349609375">
        <ele>2196.199951171875</ele>
        <time>2026-06-19T11:16:16.000Z</time>
        <extensions>
          <ns3:TrackPointExtension>
            <ns3:atemp>18.0</ns3:atemp>
          </ns3:TrackPointExtension>
        </extensions>
      </trkpt>
      <trkpt lat="42.5592090748250484466552734375" lon="20.0563914142549037933349609375">
        <ele>2196.199951171875</ele>
        <time>2026-06-19T11:16:17.000Z</time>
        <extensions>
          <ns3:TrackPointExtension>
            <ns3:atemp>18.0</ns3:atemp>
          </ns3:TrackPointExtension>
        </extensions>
      </trkpt>
      <trkpt lat="42.5592090748250484466552734375" lon="20.0563914142549037933349609375">
        <ele>2196.199951171875</ele>
        <time>2026-06-19T11:16:18.000Z</time>
        <extensions>
          <ns3:TrackPointExtension>
            <ns3:atemp>18.0</ns3:atemp>
          </ns3:TrackPointExtension>
        </extensions>
      </trkpt>
      <trkpt lat="42.5592090748250484466552734375" lon="20.0563914142549037933349609375">
        <ele>2196.199951171875</ele>
        <time>2026-06-19T11:16:19.000Z</time>
        <extensions>
          <ns3:TrackPointExtension>
            <ns3:atemp>18.0</ns3:atemp>
          </ns3:TrackPointExtension>
        </extensions>
      </trkpt>
      <trkpt lat="42.5592090748250484466552734375" lon="20.0563914142549037933349609375">
        <ele>2196.199951171875</ele>
        <time>2026-06-19T11:16:20.000Z</time>
        <extensions>
          <ns3:TrackPointExtension>
            <ns3:atemp>18.0</ns3:atemp>
          </ns3:TrackPointExtension>
        </extensions>
      </trkpt>
      <trkpt lat="42.5592090748250484466552734375" lon="20.0563914142549037933349609375">
        <ele>2196.199951171875</ele>
        <time>2026-06-19T11:16:21.000Z</time>
        <extensions>
          <ns3:TrackPointExtension>
            <ns3:atemp>18.0</ns3:atemp>
          </ns3:TrackPointExtension>
        </extensions>
      </trkpt>
      <trkpt lat="42.5592090748250484466552734375" lon="20.0563914142549037933349609375">
        <ele>2196.199951171875</ele>
        <time>2026-06-19T11:16:22.000Z</time>
        <extensions>
          <ns3:TrackPointExtension>
            <ns3:atemp>18.0</ns3:atemp>
          </ns3:TrackPointExtension>
        </extensions>
      </trkpt>
      <trkpt lat="42.5592090748250484466552734375" lon="20.0563914142549037933349609375">
        <ele>2196.199951171875</ele>
        <time>2026-06-19T11:16:23.000Z</time>
        <extensions>
          <ns3:TrackPointExtension>
            <ns3:atemp>18.0</ns3:atemp>
          </ns3:TrackPointExtension>
        </extensions>
      </trkpt>
      <trkpt lat="42.5592090748250484466552734375" lon="20.0563914142549037933349609375">
        <ele>2196.199951171875</ele>
        <time>2026-06-19T11:16:24.000Z</time>
        <extensions>
          <ns3:TrackPointExtension>
            <ns3:atemp>18.0</ns3:atemp>
          </ns3:TrackPointExtension>
        </extensions>
      </trkpt>
      <trkpt lat="42.5592090748250484466552734375" lon="20.0563914142549037933349609375">
        <ele>2196.199951171875</ele>
        <time>2026-06-19T11:16:25.000Z</time>
        <extensions>
          <ns3:TrackPointExtension>
            <ns3:atemp>18.0</ns3:atemp>
          </ns3:TrackPointExtension>
        </extensions>
      </trkpt>
      <trkpt lat="42.5592090748250484466552734375" lon="20.0563914142549037933349609375">
        <ele>2196</ele>
        <time>2026-06-19T11:16:26.000Z</time>
        <extensions>
          <ns3:TrackPointExtension>
            <ns3:atemp>18.0</ns3:atemp>
          </ns3:TrackPointExtension>
        </extensions>
      </trkpt>
      <trkpt lat="42.5592090748250484466552734375" lon="20.0563914142549037933349609375">
        <ele>2196</ele>
        <time>2026-06-19T11:16:27.000Z</time>
        <extensions>
          <ns3:TrackPointExtension>
            <ns3:atemp>18.0</ns3:atemp>
          </ns3:TrackPointExtension>
        </extensions>
      </trkpt>
      <trkpt lat="42.5592090748250484466552734375" lon="20.0563914142549037933349609375">
        <ele>2196.199951171875</ele>
        <time>2026-06-19T11:16:28.000Z</time>
        <extensions>
          <ns3:TrackPointExtension>
            <ns3:atemp>18.0</ns3:atemp>
          </ns3:TrackPointExtension>
        </extensions>
      </trkpt>
      <trkpt lat="42.5592090748250484466552734375" lon="20.0563914142549037933349609375">
        <ele>2196.199951171875</ele>
        <time>2026-06-19T11:16:29.000Z</time>
        <extensions>
          <ns3:TrackPointExtension>
            <ns3:atemp>18.0</ns3:atemp>
          </ns3:TrackPointExtension>
        </extensions>
      </trkpt>
      <trkpt lat="42.5592090748250484466552734375" lon="20.0563914142549037933349609375">
        <ele>2196.199951171875</ele>
        <time>2026-06-19T11:16:30.000Z</time>
        <extensions>
          <ns3:TrackPointExtension>
            <ns3:atemp>18.0</ns3:atemp>
          </ns3:TrackPointExtension>
        </extensions>
      </trkpt>
      <trkpt lat="42.5592090748250484466552734375" lon="20.0563914142549037933349609375">
        <ele>2196.199951171875</ele>
        <time>2026-06-19T11:16:31.000Z</time>
        <extensions>
          <ns3:TrackPointExtension>
            <ns3:atemp>18.0</ns3:atemp>
          </ns3:TrackPointExtension>
        </extensions>
      </trkpt>
      <trkpt lat="42.5592090748250484466552734375" lon="20.0563914142549037933349609375">
        <ele>2196.199951171875</ele>
        <time>2026-06-19T11:16:32.000Z</time>
        <extensions>
          <ns3:TrackPointExtension>
            <ns3:atemp>18.0</ns3:atemp>
          </ns3:TrackPointExtension>
        </extensions>
      </trkpt>
      <trkpt lat="42.5592090748250484466552734375" lon="20.0563914142549037933349609375">
        <ele>2196.199951171875</ele>
        <time>2026-06-19T11:16:33.000Z</time>
        <extensions>
          <ns3:TrackPointExtension>
            <ns3:atemp>18.0</ns3:atemp>
          </ns3:TrackPointExtension>
        </extensions>
      </trkpt>
      <trkpt lat="42.5592090748250484466552734375" lon="20.0563914142549037933349609375">
        <ele>2196.199951171875</ele>
        <time>2026-06-19T11:16:34.000Z</time>
        <extensions>
          <ns3:TrackPointExtension>
            <ns3:atemp>18.0</ns3:atemp>
          </ns3:TrackPointExtension>
        </extensions>
      </trkpt>
      <trkpt lat="42.5592090748250484466552734375" lon="20.0563914142549037933349609375">
        <ele>2196.199951171875</ele>
        <time>2026-06-19T11:16:35.000Z</time>
        <extensions>
          <ns3:TrackPointExtension>
            <ns3:atemp>18.0</ns3:atemp>
          </ns3:TrackPointExtension>
        </extensions>
      </trkpt>
      <trkpt lat="42.5592090748250484466552734375" lon="20.0563914142549037933349609375">
        <ele>2196.199951171875</ele>
        <time>2026-06-19T11:16:36.000Z</time>
        <extensions>
          <ns3:TrackPointExtension>
            <ns3:atemp>18.0</ns3:atemp>
          </ns3:TrackPointExtension>
        </extensions>
      </trkpt>
      <trkpt lat="42.5592090748250484466552734375" lon="20.0563914142549037933349609375">
        <ele>2196</ele>
        <time>2026-06-19T11:16:37.000Z</time>
        <extensions>
          <ns3:TrackPointExtension>
            <ns3:atemp>18.0</ns3:atemp>
          </ns3:TrackPointExtension>
        </extensions>
      </trkpt>
      <trkpt lat="42.5592090748250484466552734375" lon="20.0563914142549037933349609375">
        <ele>2196.199951171875</ele>
        <time>2026-06-19T11:16:38.000Z</time>
        <extensions>
          <ns3:TrackPointExtension>
            <ns3:atemp>18.0</ns3:atemp>
          </ns3:TrackPointExtension>
        </extensions>
      </trkpt>
      <trkpt lat="42.5592090748250484466552734375" lon="20.0563914142549037933349609375">
        <ele>2196.199951171875</ele>
        <time>2026-06-19T11:16:39.000Z</time>
        <extensions>
          <ns3:TrackPointExtension>
            <ns3:atemp>18.0</ns3:atemp>
          </ns3:TrackPointExtension>
        </extensions>
      </trkpt>
      <trkpt lat="42.5592090748250484466552734375" lon="20.0563914142549037933349609375">
        <ele>2196.199951171875</ele>
        <time>2026-06-19T11:16:40.000Z</time>
        <extensions>
          <ns3:TrackPointExtension>
            <ns3:atemp>18.0</ns3:atemp>
          </ns3:TrackPointExtension>
        </extensions>
      </trkpt>
      <trkpt lat="42.5592090748250484466552734375" lon="20.0563914142549037933349609375">
        <ele>2196.199951171875</ele>
        <time>2026-06-19T11:16:41.000Z</time>
        <extensions>
          <ns3:TrackPointExtension>
            <ns3:atemp>18.0</ns3:atemp>
          </ns3:TrackPointExtension>
        </extensions>
      </trkpt>
      <trkpt lat="42.5592090748250484466552734375" lon="20.0563914142549037933349609375">
        <ele>2196.199951171875</ele>
        <time>2026-06-19T11:16:42.000Z</time>
        <extensions>
          <ns3:TrackPointExtension>
            <ns3:atemp>18.0</ns3:atemp>
          </ns3:TrackPointExtension>
        </extensions>
      </trkpt>
      <trkpt lat="42.5592090748250484466552734375" lon="20.0563914142549037933349609375">
        <ele>2196.199951171875</ele>
        <time>2026-06-19T11:16:43.000Z</time>
        <extensions>
          <ns3:TrackPointExtension>
            <ns3:atemp>18.0</ns3:atemp>
          </ns3:TrackPointExtension>
        </extensions>
      </trkpt>
      <trkpt lat="42.5592090748250484466552734375" lon="20.0563914142549037933349609375">
        <ele>2196.199951171875</ele>
        <time>2026-06-19T11:16:44.000Z</time>
        <extensions>
          <ns3:TrackPointExtension>
            <ns3:atemp>18.0</ns3:atemp>
          </ns3:TrackPointExtension>
        </extensions>
      </trkpt>
      <trkpt lat="42.5592090748250484466552734375" lon="20.0563914142549037933349609375">
        <ele>2196.199951171875</ele>
        <time>2026-06-19T11:16:45.000Z</time>
        <extensions>
          <ns3:TrackPointExtension>
            <ns3:atemp>18.0</ns3:atemp>
          </ns3:TrackPointExtension>
        </extensions>
      </trkpt>
      <trkpt lat="42.5592090748250484466552734375" lon="20.0563914142549037933349609375">
        <ele>2196.199951171875</ele>
        <time>2026-06-19T11:16:46.000Z</time>
        <extensions>
          <ns3:TrackPointExtension>
            <ns3:atemp>18.0</ns3:atemp>
          </ns3:TrackPointExtension>
        </extensions>
      </trkpt>
      <trkpt lat="42.5592090748250484466552734375" lon="20.0563914142549037933349609375">
        <ele>2196.199951171875</ele>
        <time>2026-06-19T11:16:47.000Z</time>
        <extensions>
          <ns3:TrackPointExtension>
            <ns3:atemp>18.0</ns3:atemp>
          </ns3:TrackPointExtension>
        </extensions>
      </trkpt>
      <trkpt lat="42.5592090748250484466552734375" lon="20.0563914142549037933349609375">
        <ele>2196.199951171875</ele>
        <time>2026-06-19T11:16:48.000Z</time>
        <extensions>
          <ns3:TrackPointExtension>
            <ns3:atemp>18.0</ns3:atemp>
          </ns3:TrackPointExtension>
        </extensions>
      </trkpt>
      <trkpt lat="42.5592090748250484466552734375" lon="20.0563914142549037933349609375">
        <ele>2196.199951171875</ele>
        <time>2026-06-19T11:16:49.000Z</time>
        <extensions>
          <ns3:TrackPointExtension>
            <ns3:atemp>18.0</ns3:atemp>
          </ns3:TrackPointExtension>
        </extensions>
      </trkpt>
      <trkpt lat="42.5592090748250484466552734375" lon="20.0563914142549037933349609375">
        <ele>2196.199951171875</ele>
        <time>2026-06-19T11:16:50.000Z</time>
        <extensions>
          <ns3:TrackPointExtension>
            <ns3:atemp>18.0</ns3:atemp>
          </ns3:TrackPointExtension>
        </extensions>
      </trkpt>
      <trkpt lat="42.5592090748250484466552734375" lon="20.0563914142549037933349609375">
        <ele>2196.199951171875</ele>
        <time>2026-06-19T11:16:51.000Z</time>
        <extensions>
          <ns3:TrackPointExtension>
            <ns3:atemp>18.0</ns3:atemp>
          </ns3:TrackPointExtension>
        </extensions>
      </trkpt>
      <trkpt lat="42.5592090748250484466552734375" lon="20.0563914142549037933349609375">
        <ele>2196.199951171875</ele>
        <time>2026-06-19T11:16:52.000Z</time>
        <extensions>
          <ns3:TrackPointExtension>
            <ns3:atemp>18.0</ns3:atemp>
          </ns3:TrackPointExtension>
        </extensions>
      </trkpt>
      <trkpt lat="42.5592090748250484466552734375" lon="20.0563914142549037933349609375">
        <ele>2196.199951171875</ele>
        <time>2026-06-19T11:16:53.000Z</time>
        <extensions>
          <ns3:TrackPointExtension>
            <ns3:atemp>18.0</ns3:atemp>
          </ns3:TrackPointExtension>
        </extensions>
      </trkpt>
      <trkpt lat="42.5592090748250484466552734375" lon="20.0563914142549037933349609375">
        <ele>2196.199951171875</ele>
        <time>2026-06-19T11:16:54.000Z</time>
        <extensions>
          <ns3:TrackPointExtension>
            <ns3:atemp>18.0</ns3:atemp>
          </ns3:TrackPointExtension>
        </extensions>
      </trkpt>
      <trkpt lat="42.5592090748250484466552734375" lon="20.0563914142549037933349609375">
        <ele>2196.199951171875</ele>
        <time>2026-06-19T11:16:55.000Z</time>
        <extensions>
          <ns3:TrackPointExtension>
            <ns3:atemp>18.0</ns3:atemp>
          </ns3:TrackPointExtension>
        </extensions>
      </trkpt>
      <trkpt lat="42.5592090748250484466552734375" lon="20.0563914142549037933349609375">
        <ele>2196.199951171875</ele>
        <time>2026-06-19T11:16:56.000Z</time>
        <extensions>
          <ns3:TrackPointExtension>
            <ns3:atemp>18.0</ns3:atemp>
          </ns3:TrackPointExtension>
        </extensions>
      </trkpt>
      <trkpt lat="42.5592090748250484466552734375" lon="20.0563914142549037933349609375">
        <ele>2196.199951171875</ele>
        <time>2026-06-19T11:16:57.000Z</time>
        <extensions>
          <ns3:TrackPointExtension>
            <ns3:atemp>18.0</ns3:atemp>
          </ns3:TrackPointExtension>
        </extensions>
      </trkpt>
      <trkpt lat="42.5592090748250484466552734375" lon="20.0563914142549037933349609375">
        <ele>2196.199951171875</ele>
        <time>2026-06-19T11:16:58.000Z</time>
        <extensions>
          <ns3:TrackPointExtension>
            <ns3:atemp>18.0</ns3:atemp>
          </ns3:TrackPointExtension>
        </extensions>
      </trkpt>
      <trkpt lat="42.5592090748250484466552734375" lon="20.0563914142549037933349609375">
        <ele>2196.199951171875</ele>
        <time>2026-06-19T11:16:59.000Z</time>
        <extensions>
          <ns3:TrackPointExtension>
            <ns3:atemp>18.0</ns3:atemp>
          </ns3:TrackPointExtension>
        </extensions>
      </trkpt>
      <trkpt lat="42.5592090748250484466552734375" lon="20.0563914142549037933349609375">
        <ele>2196.199951171875</ele>
        <time>2026-06-19T11:17:00.000Z</time>
        <extensions>
          <ns3:TrackPointExtension>
            <ns3:atemp>18.0</ns3:atemp>
          </ns3:TrackPointExtension>
        </extensions>
      </trkpt>
      <trkpt lat="42.5592090748250484466552734375" lon="20.0563914142549037933349609375">
        <ele>2196.199951171875</ele>
        <time>2026-06-19T11:17:01.000Z</time>
        <extensions>
          <ns3:TrackPointExtension>
            <ns3:atemp>18.0</ns3:atemp>
          </ns3:TrackPointExtension>
        </extensions>
      </trkpt>
      <trkpt lat="42.5592090748250484466552734375" lon="20.0563914142549037933349609375">
        <ele>2196.39990234375</ele>
        <time>2026-06-19T11:17:02.000Z</time>
        <extensions>
          <ns3:TrackPointExtension>
            <ns3:atemp>18.0</ns3:atemp>
          </ns3:TrackPointExtension>
        </extensions>
      </trkpt>
      <trkpt lat="42.5592090748250484466552734375" lon="20.0563914142549037933349609375">
        <ele>2196.39990234375</ele>
        <time>2026-06-19T11:17:03.000Z</time>
        <extensions>
          <ns3:TrackPointExtension>
            <ns3:atemp>18.0</ns3:atemp>
          </ns3:TrackPointExtension>
        </extensions>
      </trkpt>
      <trkpt lat="42.5592090748250484466552734375" lon="20.0563914142549037933349609375">
        <ele>2196.39990234375</ele>
        <time>2026-06-19T11:17:04.000Z</time>
        <extensions>
          <ns3:TrackPointExtension>
            <ns3:atemp>18.0</ns3:atemp>
          </ns3:TrackPointExtension>
        </extensions>
      </trkpt>
      <trkpt lat="42.5592090748250484466552734375" lon="20.0563914142549037933349609375">
        <ele>2196.39990234375</ele>
        <time>2026-06-19T11:17:05.000Z</time>
        <extensions>
          <ns3:TrackPointExtension>
            <ns3:atemp>18.0</ns3:atemp>
          </ns3:TrackPointExtension>
        </extensions>
      </trkpt>
      <trkpt lat="42.5592090748250484466552734375" lon="20.0563914142549037933349609375">
        <ele>2196.199951171875</ele>
        <time>2026-06-19T11:17:06.000Z</time>
        <extensions>
          <ns3:TrackPointExtension>
            <ns3:atemp>18.0</ns3:atemp>
          </ns3:TrackPointExtension>
        </extensions>
      </trkpt>
      <trkpt lat="42.5592090748250484466552734375" lon="20.0563914142549037933349609375">
        <ele>2196.199951171875</ele>
        <time>2026-06-19T11:17:07.000Z</time>
        <extensions>
          <ns3:TrackPointExtension>
            <ns3:atemp>18.0</ns3:atemp>
          </ns3:TrackPointExtension>
        </extensions>
      </trkpt>
      <trkpt lat="42.5592090748250484466552734375" lon="20.0563914142549037933349609375">
        <ele>2196.199951171875</ele>
        <time>2026-06-19T11:17:08.000Z</time>
        <extensions>
          <ns3:TrackPointExtension>
            <ns3:atemp>18.0</ns3:atemp>
          </ns3:TrackPointExtension>
        </extensions>
      </trkpt>
      <trkpt lat="42.5592090748250484466552734375" lon="20.0563914142549037933349609375">
        <ele>2196.199951171875</ele>
        <time>2026-06-19T11:17:09.000Z</time>
        <extensions>
          <ns3:TrackPointExtension>
            <ns3:atemp>18.0</ns3:atemp>
          </ns3:TrackPointExtension>
        </extensions>
      </trkpt>
      <trkpt lat="42.5592090748250484466552734375" lon="20.0563914142549037933349609375">
        <ele>2196.199951171875</ele>
        <time>2026-06-19T11:17:10.000Z</time>
        <extensions>
          <ns3:TrackPointExtension>
            <ns3:atemp>18.0</ns3:atemp>
          </ns3:TrackPointExtension>
        </extensions>
      </trkpt>
      <trkpt lat="42.5592090748250484466552734375" lon="20.0563914142549037933349609375">
        <ele>2196.199951171875</ele>
        <time>2026-06-19T11:17:11.000Z</time>
        <extensions>
          <ns3:TrackPointExtension>
            <ns3:atemp>18.0</ns3:atemp>
          </ns3:TrackPointExtension>
        </extensions>
      </trkpt>
      <trkpt lat="42.5592090748250484466552734375" lon="20.0563914142549037933349609375">
        <ele>2196.199951171875</ele>
        <time>2026-06-19T11:17:12.000Z</time>
        <extensions>
          <ns3:TrackPointExtension>
            <ns3:atemp>18.0</ns3:atemp>
          </ns3:TrackPointExtension>
        </extensions>
      </trkpt>
      <trkpt lat="42.5592090748250484466552734375" lon="20.0563914142549037933349609375">
        <ele>2196.199951171875</ele>
        <time>2026-06-19T11:17:13.000Z</time>
        <extensions>
          <ns3:TrackPointExtension>
            <ns3:atemp>18.0</ns3:atemp>
          </ns3:TrackPointExtension>
        </extensions>
      </trkpt>
      <trkpt lat="42.5592090748250484466552734375" lon="20.0563914142549037933349609375">
        <ele>2196.199951171875</ele>
        <time>2026-06-19T11:17:14.000Z</time>
        <extensions>
          <ns3:TrackPointExtension>
            <ns3:atemp>18.0</ns3:atemp>
          </ns3:TrackPointExtension>
        </extensions>
      </trkpt>
      <trkpt lat="42.5592090748250484466552734375" lon="20.0563914142549037933349609375">
        <ele>2196.199951171875</ele>
        <time>2026-06-19T11:17:15.000Z</time>
        <extensions>
          <ns3:TrackPointExtension>
            <ns3:atemp>18.0</ns3:atemp>
          </ns3:TrackPointExtension>
        </extensions>
      </trkpt>
      <trkpt lat="42.5592090748250484466552734375" lon="20.0563914142549037933349609375">
        <ele>2196.199951171875</ele>
        <time>2026-06-19T11:17:16.000Z</time>
        <extensions>
          <ns3:TrackPointExtension>
            <ns3:atemp>18.0</ns3:atemp>
          </ns3:TrackPointExtension>
        </extensions>
      </trkpt>
      <trkpt lat="42.5592090748250484466552734375" lon="20.0563914142549037933349609375">
        <ele>2196.199951171875</ele>
        <time>2026-06-19T11:17:17.000Z</time>
        <extensions>
          <ns3:TrackPointExtension>
            <ns3:atemp>18.0</ns3:atemp>
          </ns3:TrackPointExtension>
        </extensions>
      </trkpt>
      <trkpt lat="42.5592090748250484466552734375" lon="20.0563914142549037933349609375">
        <ele>2196.199951171875</ele>
        <time>2026-06-19T11:17:18.000Z</time>
        <extensions>
          <ns3:TrackPointExtension>
            <ns3:atemp>18.0</ns3:atemp>
          </ns3:TrackPointExtension>
        </extensions>
      </trkpt>
      <trkpt lat="42.5592090748250484466552734375" lon="20.0563914142549037933349609375">
        <ele>2196.199951171875</ele>
        <time>2026-06-19T11:17:19.000Z</time>
        <extensions>
          <ns3:TrackPointExtension>
            <ns3:atemp>18.0</ns3:atemp>
          </ns3:TrackPointExtension>
        </extensions>
      </trkpt>
      <trkpt lat="42.5592090748250484466552734375" lon="20.0563914142549037933349609375">
        <ele>2196.199951171875</ele>
        <time>2026-06-19T11:17:20.000Z</time>
        <extensions>
          <ns3:TrackPointExtension>
            <ns3:atemp>18.0</ns3:atemp>
          </ns3:TrackPointExtension>
        </extensions>
      </trkpt>
      <trkpt lat="42.5592090748250484466552734375" lon="20.0563914142549037933349609375">
        <ele>2196.199951171875</ele>
        <time>2026-06-19T11:17:21.000Z</time>
        <extensions>
          <ns3:TrackPointExtension>
            <ns3:atemp>18.0</ns3:atemp>
          </ns3:TrackPointExtension>
        </extensions>
      </trkpt>
      <trkpt lat="42.5592090748250484466552734375" lon="20.0563914142549037933349609375">
        <ele>2196.199951171875</ele>
        <time>2026-06-19T11:17:22.000Z</time>
        <extensions>
          <ns3:TrackPointExtension>
            <ns3:atemp>18.0</ns3:atemp>
          </ns3:TrackPointExtension>
        </extensions>
      </trkpt>
      <trkpt lat="42.5592090748250484466552734375" lon="20.0563914142549037933349609375">
        <ele>2196.199951171875</ele>
        <time>2026-06-19T11:17:23.000Z</time>
        <extensions>
          <ns3:TrackPointExtension>
            <ns3:atemp>18.0</ns3:atemp>
          </ns3:TrackPointExtension>
        </extensions>
      </trkpt>
      <trkpt lat="42.5592090748250484466552734375" lon="20.0563914142549037933349609375">
        <ele>2196.199951171875</ele>
        <time>2026-06-19T11:17:24.000Z</time>
        <extensions>
          <ns3:TrackPointExtension>
            <ns3:atemp>18.0</ns3:atemp>
          </ns3:TrackPointExtension>
        </extensions>
      </trkpt>
      <trkpt lat="42.5592090748250484466552734375" lon="20.0563914142549037933349609375">
        <ele>2196.199951171875</ele>
        <time>2026-06-19T11:17:25.000Z</time>
        <extensions>
          <ns3:TrackPointExtension>
            <ns3:atemp>18.0</ns3:atemp>
          </ns3:TrackPointExtension>
        </extensions>
      </trkpt>
      <trkpt lat="42.5592090748250484466552734375" lon="20.0563914142549037933349609375">
        <ele>2196.199951171875</ele>
        <time>2026-06-19T11:17:26.000Z</time>
        <extensions>
          <ns3:TrackPointExtension>
            <ns3:atemp>18.0</ns3:atemp>
          </ns3:TrackPointExtension>
        </extensions>
      </trkpt>
      <trkpt lat="42.5592090748250484466552734375" lon="20.0563914142549037933349609375">
        <ele>2196.199951171875</ele>
        <time>2026-06-19T11:17:27.000Z</time>
        <extensions>
          <ns3:TrackPointExtension>
            <ns3:atemp>18.0</ns3:atemp>
          </ns3:TrackPointExtension>
        </extensions>
      </trkpt>
      <trkpt lat="42.5592090748250484466552734375" lon="20.0563914142549037933349609375">
        <ele>2196.199951171875</ele>
        <time>2026-06-19T11:17:28.000Z</time>
        <extensions>
          <ns3:TrackPointExtension>
            <ns3:atemp>18.0</ns3:atemp>
          </ns3:TrackPointExtension>
        </extensions>
      </trkpt>
      <trkpt lat="42.5592090748250484466552734375" lon="20.0563914142549037933349609375">
        <ele>2196.199951171875</ele>
        <time>2026-06-19T11:17:29.000Z</time>
        <extensions>
          <ns3:TrackPointExtension>
            <ns3:atemp>18.0</ns3:atemp>
          </ns3:TrackPointExtension>
        </extensions>
      </trkpt>
      <trkpt lat="42.5592090748250484466552734375" lon="20.0563914142549037933349609375">
        <ele>2196.199951171875</ele>
        <time>2026-06-19T11:17:30.000Z</time>
        <extensions>
          <ns3:TrackPointExtension>
            <ns3:atemp>18.0</ns3:atemp>
          </ns3:TrackPointExtension>
        </extensions>
      </trkpt>
      <trkpt lat="42.5592090748250484466552734375" lon="20.0563914142549037933349609375">
        <ele>2196.199951171875</ele>
        <time>2026-06-19T11:17:31.000Z</time>
        <extensions>
          <ns3:TrackPointExtension>
            <ns3:atemp>18.0</ns3:atemp>
          </ns3:TrackPointExtension>
        </extensions>
      </trkpt>
      <trkpt lat="42.5592090748250484466552734375" lon="20.0563914142549037933349609375">
        <ele>2196.199951171875</ele>
        <time>2026-06-19T11:17:32.000Z</time>
        <extensions>
          <ns3:TrackPointExtension>
            <ns3:atemp>18.0</ns3:atemp>
          </ns3:TrackPointExtension>
        </extensions>
      </trkpt>
      <trkpt lat="42.5592090748250484466552734375" lon="20.0563914142549037933349609375">
        <ele>2196.199951171875</ele>
        <time>2026-06-19T11:17:33.000Z</time>
        <extensions>
          <ns3:TrackPointExtension>
            <ns3:atemp>18.0</ns3:atemp>
          </ns3:TrackPointExtension>
        </extensions>
      </trkpt>
      <trkpt lat="42.5592090748250484466552734375" lon="20.0563914142549037933349609375">
        <ele>2196.199951171875</ele>
        <time>2026-06-19T11:17:34.000Z</time>
        <extensions>
          <ns3:TrackPointExtension>
            <ns3:atemp>18.0</ns3:atemp>
          </ns3:TrackPointExtension>
        </extensions>
      </trkpt>
      <trkpt lat="42.5592090748250484466552734375" lon="20.0563914142549037933349609375">
        <ele>2196.199951171875</ele>
        <time>2026-06-19T11:17:35.000Z</time>
        <extensions>
          <ns3:TrackPointExtension>
            <ns3:atemp>18.0</ns3:atemp>
          </ns3:TrackPointExtension>
        </extensions>
      </trkpt>
      <trkpt lat="42.5592090748250484466552734375" lon="20.0563914142549037933349609375">
        <ele>2196.199951171875</ele>
        <time>2026-06-19T11:17:36.000Z</time>
        <extensions>
          <ns3:TrackPointExtension>
            <ns3:atemp>18.0</ns3:atemp>
          </ns3:TrackPointExtension>
        </extensions>
      </trkpt>
      <trkpt lat="42.5592090748250484466552734375" lon="20.0563914142549037933349609375">
        <ele>2196.199951171875</ele>
        <time>2026-06-19T11:17:37.000Z</time>
        <extensions>
          <ns3:TrackPointExtension>
            <ns3:atemp>18.0</ns3:atemp>
          </ns3:TrackPointExtension>
        </extensions>
      </trkpt>
      <trkpt lat="42.5592090748250484466552734375" lon="20.0563914142549037933349609375">
        <ele>2196.199951171875</ele>
        <time>2026-06-19T11:17:38.000Z</time>
        <extensions>
          <ns3:TrackPointExtension>
            <ns3:atemp>18.0</ns3:atemp>
          </ns3:TrackPointExtension>
        </extensions>
      </trkpt>
      <trkpt lat="42.5592090748250484466552734375" lon="20.0563914142549037933349609375">
        <ele>2196.199951171875</ele>
        <time>2026-06-19T11:17:39.000Z</time>
        <extensions>
          <ns3:TrackPointExtension>
            <ns3:atemp>18.0</ns3:atemp>
          </ns3:TrackPointExtension>
        </extensions>
      </trkpt>
      <trkpt lat="42.5592090748250484466552734375" lon="20.0563914142549037933349609375">
        <ele>2196.199951171875</ele>
        <time>2026-06-19T11:17:40.000Z</time>
        <extensions>
          <ns3:TrackPointExtension>
            <ns3:atemp>18.0</ns3:atemp>
          </ns3:TrackPointExtension>
        </extensions>
      </trkpt>
      <trkpt lat="42.5592090748250484466552734375" lon="20.0563914142549037933349609375">
        <ele>2196.199951171875</ele>
        <time>2026-06-19T11:17:41.000Z</time>
        <extensions>
          <ns3:TrackPointExtension>
            <ns3:atemp>18.0</ns3:atemp>
          </ns3:TrackPointExtension>
        </extensions>
      </trkpt>
      <trkpt lat="42.5592090748250484466552734375" lon="20.0563914142549037933349609375">
        <ele>2196.199951171875</ele>
        <time>2026-06-19T11:17:42.000Z</time>
        <extensions>
          <ns3:TrackPointExtension>
            <ns3:atemp>18.0</ns3:atemp>
          </ns3:TrackPointExtension>
        </extensions>
      </trkpt>
      <trkpt lat="42.5592090748250484466552734375" lon="20.0563914142549037933349609375">
        <ele>2196.199951171875</ele>
        <time>2026-06-19T11:17:43.000Z</time>
        <extensions>
          <ns3:TrackPointExtension>
            <ns3:atemp>18.0</ns3:atemp>
          </ns3:TrackPointExtension>
        </extensions>
      </trkpt>
      <trkpt lat="42.5592090748250484466552734375" lon="20.0563914142549037933349609375">
        <ele>2196.199951171875</ele>
        <time>2026-06-19T11:17:44.000Z</time>
        <extensions>
          <ns3:TrackPointExtension>
            <ns3:atemp>18.0</ns3:atemp>
          </ns3:TrackPointExtension>
        </extensions>
      </trkpt>
      <trkpt lat="42.5592090748250484466552734375" lon="20.0563914142549037933349609375">
        <ele>2196.199951171875</ele>
        <time>2026-06-19T11:17:45.000Z</time>
        <extensions>
          <ns3:TrackPointExtension>
            <ns3:atemp>18.0</ns3:atemp>
          </ns3:TrackPointExtension>
        </extensions>
      </trkpt>
      <trkpt lat="42.55921058356761932373046875" lon="20.05638797767460346221923828125">
        <ele>2196.199951171875</ele>
        <time>2026-06-19T11:17:46.000Z</time>
        <extensions>
          <ns3:TrackPointExtension>
            <ns3:atemp>18.0</ns3:atemp>
          </ns3:TrackPointExtension>
        </extensions>
      </trkpt>
      <trkpt lat="42.55921737290918827056884765625" lon="20.05636853165924549102783203125">
        <ele>2196.199951171875</ele>
        <time>2026-06-19T11:17:47.000Z</time>
        <extensions>
          <ns3:TrackPointExtension>
            <ns3:atemp>18.0</ns3:atemp>
          </ns3:TrackPointExtension>
        </extensions>
      </trkpt>
      <trkpt lat="42.55922726355493068695068359375" lon="20.05636551417410373687744140625">
        <ele>2196.199951171875</ele>
        <time>2026-06-19T11:17:48.000Z</time>
        <extensions>
          <ns3:TrackPointExtension>
            <ns3:atemp>18.0</ns3:atemp>
          </ns3:TrackPointExtension>
        </extensions>
      </trkpt>
      <trkpt lat="42.55922994576394557952880859375" lon="20.05637012422084808349609375">
        <ele>2196.199951171875</ele>
        <time>2026-06-19T11:17:49.000Z</time>
        <extensions>
          <ns3:TrackPointExtension>
            <ns3:atemp>18.0</ns3:atemp>
          </ns3:TrackPointExtension>
        </extensions>
      </trkpt>
      <trkpt lat="42.55922994576394557952880859375" lon="20.05637012422084808349609375">
        <ele>2196.199951171875</ele>
        <time>2026-06-19T11:17:50.000Z</time>
        <extensions>
          <ns3:TrackPointExtension>
            <ns3:atemp>18.0</ns3:atemp>
          </ns3:TrackPointExtension>
        </extensions>
      </trkpt>
      <trkpt lat="42.55922994576394557952880859375" lon="20.05637012422084808349609375">
        <ele>2196.199951171875</ele>
        <time>2026-06-19T11:17:51.000Z</time>
        <extensions>
          <ns3:TrackPointExtension>
            <ns3:atemp>18.0</ns3:atemp>
          </ns3:TrackPointExtension>
        </extensions>
      </trkpt>
      <trkpt lat="42.55922994576394557952880859375" lon="20.05637012422084808349609375">
        <ele>2196.199951171875</ele>
        <time>2026-06-19T11:17:52.000Z</time>
        <extensions>
          <ns3:TrackPointExtension>
            <ns3:atemp>18.0</ns3:atemp>
          </ns3:TrackPointExtension>
        </extensions>
      </trkpt>
      <trkpt lat="42.55922994576394557952880859375" lon="20.05637012422084808349609375">
        <ele>2196.199951171875</ele>
        <time>2026-06-19T11:17:53.000Z</time>
        <extensions>
          <ns3:TrackPointExtension>
            <ns3:atemp>18.0</ns3:atemp>
          </ns3:TrackPointExtension>
        </extensions>
      </trkpt>
      <trkpt lat="42.55922994576394557952880859375" lon="20.05637012422084808349609375">
        <ele>2196.199951171875</ele>
        <time>2026-06-19T11:17:54.000Z</time>
        <extensions>
          <ns3:TrackPointExtension>
            <ns3:atemp>18.0</ns3:atemp>
          </ns3:TrackPointExtension>
        </extensions>
      </trkpt>
      <trkpt lat="42.55922994576394557952880859375" lon="20.05637012422084808349609375">
        <ele>2196.199951171875</ele>
        <time>2026-06-19T11:17:55.000Z</time>
        <extensions>
          <ns3:TrackPointExtension>
            <ns3:atemp>18.0</ns3:atemp>
          </ns3:TrackPointExtension>
        </extensions>
      </trkpt>
      <trkpt lat="42.55922994576394557952880859375" lon="20.05637012422084808349609375">
        <ele>2196.199951171875</ele>
        <time>2026-06-19T11:17:56.000Z</time>
        <extensions>
          <ns3:TrackPointExtension>
            <ns3:atemp>18.0</ns3:atemp>
          </ns3:TrackPointExtension>
        </extensions>
      </trkpt>
      <trkpt lat="42.55922994576394557952880859375" lon="20.05637012422084808349609375">
        <ele>2196.199951171875</ele>
        <time>2026-06-19T11:17:57.000Z</time>
        <extensions>
          <ns3:TrackPointExtension>
            <ns3:atemp>18.0</ns3:atemp>
          </ns3:TrackPointExtension>
        </extensions>
      </trkpt>
      <trkpt lat="42.55922994576394557952880859375" lon="20.05637012422084808349609375">
        <ele>2196.199951171875</ele>
        <time>2026-06-19T11:17:58.000Z</time>
        <extensions>
          <ns3:TrackPointExtension>
            <ns3:atemp>18.0</ns3:atemp>
          </ns3:TrackPointExtension>
        </extensions>
      </trkpt>
      <trkpt lat="42.55922994576394557952880859375" lon="20.05637012422084808349609375">
        <ele>2196.199951171875</ele>
        <time>2026-06-19T11:17:59.000Z</time>
        <extensions>
          <ns3:TrackPointExtension>
            <ns3:atemp>18.0</ns3:atemp>
          </ns3:TrackPointExtension>
        </extensions>
      </trkpt>
      <trkpt lat="42.55922994576394557952880859375" lon="20.05637012422084808349609375">
        <ele>2196.199951171875</ele>
        <time>2026-06-19T11:18:00.000Z</time>
        <extensions>
          <ns3:TrackPointExtension>
            <ns3:atemp>18.0</ns3:atemp>
          </ns3:TrackPointExtension>
        </extensions>
      </trkpt>
      <trkpt lat="42.55922994576394557952880859375" lon="20.05637012422084808349609375">
        <ele>2196.199951171875</ele>
        <time>2026-06-19T11:18:01.000Z</time>
        <extensions>
          <ns3:TrackPointExtension>
            <ns3:atemp>18.0</ns3:atemp>
          </ns3:TrackPointExtension>
        </extensions>
      </trkpt>
      <trkpt lat="42.55922994576394557952880859375" lon="20.05637012422084808349609375">
        <ele>2196.199951171875</ele>
        <time>2026-06-19T11:18:02.000Z</time>
        <extensions>
          <ns3:TrackPointExtension>
            <ns3:atemp>18.0</ns3:atemp>
          </ns3:TrackPointExtension>
        </extensions>
      </trkpt>
      <trkpt lat="42.55922994576394557952880859375" lon="20.05637012422084808349609375">
        <ele>2196.199951171875</ele>
        <time>2026-06-19T11:18:03.000Z</time>
        <extensions>
          <ns3:TrackPointExtension>
            <ns3:atemp>18.0</ns3:atemp>
          </ns3:TrackPointExtension>
        </extensions>
      </trkpt>
      <trkpt lat="42.55922994576394557952880859375" lon="20.05637012422084808349609375">
        <ele>2196.199951171875</ele>
        <time>2026-06-19T11:18:04.000Z</time>
        <extensions>
          <ns3:TrackPointExtension>
            <ns3:atemp>18.0</ns3:atemp>
          </ns3:TrackPointExtension>
        </extensions>
      </trkpt>
      <trkpt lat="42.55922994576394557952880859375" lon="20.05637012422084808349609375">
        <ele>2196.199951171875</ele>
        <time>2026-06-19T11:18:05.000Z</time>
        <extensions>
          <ns3:TrackPointExtension>
            <ns3:atemp>18.0</ns3:atemp>
          </ns3:TrackPointExtension>
        </extensions>
      </trkpt>
      <trkpt lat="42.55922994576394557952880859375" lon="20.05637012422084808349609375">
        <ele>2196.199951171875</ele>
        <time>2026-06-19T11:18:06.000Z</time>
        <extensions>
          <ns3:TrackPointExtension>
            <ns3:atemp>18.0</ns3:atemp>
          </ns3:TrackPointExtension>
        </extensions>
      </trkpt>
      <trkpt lat="42.55922994576394557952880859375" lon="20.05637012422084808349609375">
        <ele>2196.199951171875</ele>
        <time>2026-06-19T11:18:07.000Z</time>
        <extensions>
          <ns3:TrackPointExtension>
            <ns3:atemp>18.0</ns3:atemp>
          </ns3:TrackPointExtension>
        </extensions>
      </trkpt>
      <trkpt lat="42.55922994576394557952880859375" lon="20.05637012422084808349609375">
        <ele>2196.199951171875</ele>
        <time>2026-06-19T11:18:08.000Z</time>
        <extensions>
          <ns3:TrackPointExtension>
            <ns3:atemp>18.0</ns3:atemp>
          </ns3:TrackPointExtension>
        </extensions>
      </trkpt>
      <trkpt lat="42.55922994576394557952880859375" lon="20.05637012422084808349609375">
        <ele>2196.199951171875</ele>
        <time>2026-06-19T11:18:09.000Z</time>
        <extensions>
          <ns3:TrackPointExtension>
            <ns3:atemp>18.0</ns3:atemp>
          </ns3:TrackPointExtension>
        </extensions>
      </trkpt>
      <trkpt lat="42.55922994576394557952880859375" lon="20.05637012422084808349609375">
        <ele>2196.199951171875</ele>
        <time>2026-06-19T11:18:10.000Z</time>
        <extensions>
          <ns3:TrackPointExtension>
            <ns3:atemp>18.0</ns3:atemp>
          </ns3:TrackPointExtension>
        </extensions>
      </trkpt>
      <trkpt lat="42.55922994576394557952880859375" lon="20.05637012422084808349609375">
        <ele>2196.199951171875</ele>
        <time>2026-06-19T11:18:11.000Z</time>
        <extensions>
          <ns3:TrackPointExtension>
            <ns3:atemp>18.0</ns3:atemp>
          </ns3:TrackPointExtension>
        </extensions>
      </trkpt>
      <trkpt lat="42.55922994576394557952880859375" lon="20.05637012422084808349609375">
        <ele>2196.199951171875</ele>
        <time>2026-06-19T11:18:12.000Z</time>
        <extensions>
          <ns3:TrackPointExtension>
            <ns3:atemp>18.0</ns3:atemp>
          </ns3:TrackPointExtension>
        </extensions>
      </trkpt>
      <trkpt lat="42.55922994576394557952880859375" lon="20.05637012422084808349609375">
        <ele>2196.199951171875</ele>
        <time>2026-06-19T11:18:13.000Z</time>
        <extensions>
          <ns3:TrackPointExtension>
            <ns3:atemp>18.0</ns3:atemp>
          </ns3:TrackPointExtension>
        </extensions>
      </trkpt>
      <trkpt lat="42.55922994576394557952880859375" lon="20.05637012422084808349609375">
        <ele>2196.199951171875</ele>
        <time>2026-06-19T11:18:14.000Z</time>
        <extensions>
          <ns3:TrackPointExtension>
            <ns3:atemp>18.0</ns3:atemp>
          </ns3:TrackPointExtension>
        </extensions>
      </trkpt>
      <trkpt lat="42.55922994576394557952880859375" lon="20.05637012422084808349609375">
        <ele>2196.199951171875</ele>
        <time>2026-06-19T11:18:15.000Z</time>
        <extensions>
          <ns3:TrackPointExtension>
            <ns3:atemp>18.0</ns3:atemp>
          </ns3:TrackPointExtension>
        </extensions>
      </trkpt>
      <trkpt lat="42.55922994576394557952880859375" lon="20.05637012422084808349609375">
        <ele>2196.199951171875</ele>
        <time>2026-06-19T11:18:16.000Z</time>
        <extensions>
          <ns3:TrackPointExtension>
            <ns3:atemp>18.0</ns3:atemp>
          </ns3:TrackPointExtension>
        </extensions>
      </trkpt>
      <trkpt lat="42.55922994576394557952880859375" lon="20.05637012422084808349609375">
        <ele>2196.199951171875</ele>
        <time>2026-06-19T11:18:17.000Z</time>
        <extensions>
          <ns3:TrackPointExtension>
            <ns3:atemp>18.0</ns3:atemp>
          </ns3:TrackPointExtension>
        </extensions>
      </trkpt>
      <trkpt lat="42.55922994576394557952880859375" lon="20.05637012422084808349609375">
        <ele>2196.199951171875</ele>
        <time>2026-06-19T11:18:18.000Z</time>
        <extensions>
          <ns3:TrackPointExtension>
            <ns3:atemp>18.0</ns3:atemp>
          </ns3:TrackPointExtension>
        </extensions>
      </trkpt>
      <trkpt lat="42.55922994576394557952880859375" lon="20.05637012422084808349609375">
        <ele>2196.199951171875</ele>
        <time>2026-06-19T11:18:19.000Z</time>
        <extensions>
          <ns3:TrackPointExtension>
            <ns3:atemp>18.0</ns3:atemp>
          </ns3:TrackPointExtension>
        </extensions>
      </trkpt>
      <trkpt lat="42.55922994576394557952880859375" lon="20.05637012422084808349609375">
        <ele>2196.199951171875</ele>
        <time>2026-06-19T11:18:20.000Z</time>
        <extensions>
          <ns3:TrackPointExtension>
            <ns3:atemp>18.0</ns3:atemp>
          </ns3:TrackPointExtension>
        </extensions>
      </trkpt>
      <trkpt lat="42.55922994576394557952880859375" lon="20.05637012422084808349609375">
        <ele>2196.199951171875</ele>
        <time>2026-06-19T11:18:21.000Z</time>
        <extensions>
          <ns3:TrackPointExtension>
            <ns3:atemp>18.0</ns3:atemp>
          </ns3:TrackPointExtension>
        </extensions>
      </trkpt>
      <trkpt lat="42.55922994576394557952880859375" lon="20.05637012422084808349609375">
        <ele>2196.199951171875</ele>
        <time>2026-06-19T11:18:22.000Z</time>
        <extensions>
          <ns3:TrackPointExtension>
            <ns3:atemp>18.0</ns3:atemp>
          </ns3:TrackPointExtension>
        </extensions>
      </trkpt>
      <trkpt lat="42.55922994576394557952880859375" lon="20.05637012422084808349609375">
        <ele>2196.199951171875</ele>
        <time>2026-06-19T11:18:23.000Z</time>
        <extensions>
          <ns3:TrackPointExtension>
            <ns3:atemp>18.0</ns3:atemp>
          </ns3:TrackPointExtension>
        </extensions>
      </trkpt>
      <trkpt lat="42.55922994576394557952880859375" lon="20.05637012422084808349609375">
        <ele>2196.199951171875</ele>
        <time>2026-06-19T11:18:24.000Z</time>
        <extensions>
          <ns3:TrackPointExtension>
            <ns3:atemp>18.0</ns3:atemp>
          </ns3:TrackPointExtension>
        </extensions>
      </trkpt>
      <trkpt lat="42.55922994576394557952880859375" lon="20.05637012422084808349609375">
        <ele>2196.199951171875</ele>
        <time>2026-06-19T11:18:25.000Z</time>
        <extensions>
          <ns3:TrackPointExtension>
            <ns3:atemp>18.0</ns3:atemp>
          </ns3:TrackPointExtension>
        </extensions>
      </trkpt>
      <trkpt lat="42.55922994576394557952880859375" lon="20.05637012422084808349609375">
        <ele>2196.199951171875</ele>
        <time>2026-06-19T11:18:26.000Z</time>
        <extensions>
          <ns3:TrackPointExtension>
            <ns3:atemp>18.0</ns3:atemp>
          </ns3:TrackPointExtension>
        </extensions>
      </trkpt>
      <trkpt lat="42.55922994576394557952880859375" lon="20.05637012422084808349609375">
        <ele>2196.199951171875</ele>
        <time>2026-06-19T11:18:27.000Z</time>
        <extensions>
          <ns3:TrackPointExtension>
            <ns3:atemp>18.0</ns3:atemp>
          </ns3:TrackPointExtension>
        </extensions>
      </trkpt>
      <trkpt lat="42.55922994576394557952880859375" lon="20.05637012422084808349609375">
        <ele>2196.199951171875</ele>
        <time>2026-06-19T11:18:28.000Z</time>
        <extensions>
          <ns3:TrackPointExtension>
            <ns3:atemp>18.0</ns3:atemp>
          </ns3:TrackPointExtension>
        </extensions>
      </trkpt>
      <trkpt lat="42.55922994576394557952880859375" lon="20.05637012422084808349609375">
        <ele>2196.199951171875</ele>
        <time>2026-06-19T11:18:29.000Z</time>
        <extensions>
          <ns3:TrackPointExtension>
            <ns3:atemp>18.0</ns3:atemp>
          </ns3:TrackPointExtension>
        </extensions>
      </trkpt>
      <trkpt lat="42.55922994576394557952880859375" lon="20.05637012422084808349609375">
        <ele>2196.199951171875</ele>
        <time>2026-06-19T11:18:30.000Z</time>
        <extensions>
          <ns3:TrackPointExtension>
            <ns3:atemp>18.0</ns3:atemp>
          </ns3:TrackPointExtension>
        </extensions>
      </trkpt>
      <trkpt lat="42.55922994576394557952880859375" lon="20.05637012422084808349609375">
        <ele>2196.199951171875</ele>
        <time>2026-06-19T11:18:31.000Z</time>
        <extensions>
          <ns3:TrackPointExtension>
            <ns3:atemp>18.0</ns3:atemp>
          </ns3:TrackPointExtension>
        </extensions>
      </trkpt>
      <trkpt lat="42.55922994576394557952880859375" lon="20.05637012422084808349609375">
        <ele>2196.199951171875</ele>
        <time>2026-06-19T11:18:32.000Z</time>
        <extensions>
          <ns3:TrackPointExtension>
            <ns3:atemp>18.0</ns3:atemp>
          </ns3:TrackPointExtension>
        </extensions>
      </trkpt>
      <trkpt lat="42.55922994576394557952880859375" lon="20.05637012422084808349609375">
        <ele>2196.199951171875</ele>
        <time>2026-06-19T11:18:33.000Z</time>
        <extensions>
          <ns3:TrackPointExtension>
            <ns3:atemp>18.0</ns3:atemp>
          </ns3:TrackPointExtension>
        </extensions>
      </trkpt>
      <trkpt lat="42.55922994576394557952880859375" lon="20.05637012422084808349609375">
        <ele>2196.199951171875</ele>
        <time>2026-06-19T11:18:34.000Z</time>
        <extensions>
          <ns3:TrackPointExtension>
            <ns3:atemp>18.0</ns3:atemp>
          </ns3:TrackPointExtension>
        </extensions>
      </trkpt>
      <trkpt lat="42.55922994576394557952880859375" lon="20.05637012422084808349609375">
        <ele>2196.199951171875</ele>
        <time>2026-06-19T11:18:35.000Z</time>
        <extensions>
          <ns3:TrackPointExtension>
            <ns3:atemp>18.0</ns3:atemp>
          </ns3:TrackPointExtension>
        </extensions>
      </trkpt>
      <trkpt lat="42.55922994576394557952880859375" lon="20.05637012422084808349609375">
        <ele>2196.199951171875</ele>
        <time>2026-06-19T11:18:36.000Z</time>
        <extensions>
          <ns3:TrackPointExtension>
            <ns3:atemp>18.0</ns3:atemp>
          </ns3:TrackPointExtension>
        </extensions>
      </trkpt>
      <trkpt lat="42.55922994576394557952880859375" lon="20.05637012422084808349609375">
        <ele>2196.199951171875</ele>
        <time>2026-06-19T11:18:37.000Z</time>
        <extensions>
          <ns3:TrackPointExtension>
            <ns3:atemp>18.0</ns3:atemp>
          </ns3:TrackPointExtension>
        </extensions>
      </trkpt>
      <trkpt lat="42.55922994576394557952880859375" lon="20.05637012422084808349609375">
        <ele>2196.199951171875</ele>
        <time>2026-06-19T11:18:38.000Z</time>
        <extensions>
          <ns3:TrackPointExtension>
            <ns3:atemp>18.0</ns3:atemp>
          </ns3:TrackPointExtension>
        </extensions>
      </trkpt>
      <trkpt lat="42.55922994576394557952880859375" lon="20.05637012422084808349609375">
        <ele>2196.199951171875</ele>
        <time>2026-06-19T11:18:39.000Z</time>
        <extensions>
          <ns3:TrackPointExtension>
            <ns3:atemp>18.0</ns3:atemp>
          </ns3:TrackPointExtension>
        </extensions>
      </trkpt>
      <trkpt lat="42.55922994576394557952880859375" lon="20.05637012422084808349609375">
        <ele>2196.199951171875</ele>
        <time>2026-06-19T11:18:40.000Z</time>
        <extensions>
          <ns3:TrackPointExtension>
            <ns3:atemp>18.0</ns3:atemp>
          </ns3:TrackPointExtension>
        </extensions>
      </trkpt>
      <trkpt lat="42.55922994576394557952880859375" lon="20.05637012422084808349609375">
        <ele>2196.199951171875</ele>
        <time>2026-06-19T11:18:41.000Z</time>
        <extensions>
          <ns3:TrackPointExtension>
            <ns3:atemp>18.0</ns3:atemp>
          </ns3:TrackPointExtension>
        </extensions>
      </trkpt>
      <trkpt lat="42.55922994576394557952880859375" lon="20.05637012422084808349609375">
        <ele>2196.199951171875</ele>
        <time>2026-06-19T11:18:42.000Z</time>
        <extensions>
          <ns3:TrackPointExtension>
            <ns3:atemp>18.0</ns3:atemp>
          </ns3:TrackPointExtension>
        </extensions>
      </trkpt>
      <trkpt lat="42.55922994576394557952880859375" lon="20.05637012422084808349609375">
        <ele>2196.199951171875</ele>
        <time>2026-06-19T11:18:43.000Z</time>
        <extensions>
          <ns3:TrackPointExtension>
            <ns3:atemp>18.0</ns3:atemp>
          </ns3:TrackPointExtension>
        </extensions>
      </trkpt>
      <trkpt lat="42.55922994576394557952880859375" lon="20.05637012422084808349609375">
        <ele>2196.199951171875</ele>
        <time>2026-06-19T11:18:44.000Z</time>
        <extensions>
          <ns3:TrackPointExtension>
            <ns3:atemp>18.0</ns3:atemp>
          </ns3:TrackPointExtension>
        </extensions>
      </trkpt>
      <trkpt lat="42.55922994576394557952880859375" lon="20.05637012422084808349609375">
        <ele>2196.199951171875</ele>
        <time>2026-06-19T11:18:45.000Z</time>
        <extensions>
          <ns3:TrackPointExtension>
            <ns3:atemp>18.0</ns3:atemp>
          </ns3:TrackPointExtension>
        </extensions>
      </trkpt>
      <trkpt lat="42.55922994576394557952880859375" lon="20.05637012422084808349609375">
        <ele>2196.199951171875</ele>
        <time>2026-06-19T11:18:46.000Z</time>
        <extensions>
          <ns3:TrackPointExtension>
            <ns3:atemp>18.0</ns3:atemp>
          </ns3:TrackPointExtension>
        </extensions>
      </trkpt>
      <trkpt lat="42.55922994576394557952880859375" lon="20.05637012422084808349609375">
        <ele>2196.199951171875</ele>
        <time>2026-06-19T11:18:47.000Z</time>
        <extensions>
          <ns3:TrackPointExtension>
            <ns3:atemp>18.0</ns3:atemp>
          </ns3:TrackPointExtension>
        </extensions>
      </trkpt>
      <trkpt lat="42.55922994576394557952880859375" lon="20.05637012422084808349609375">
        <ele>2196.199951171875</ele>
        <time>2026-06-19T11:18:48.000Z</time>
        <extensions>
          <ns3:TrackPointExtension>
            <ns3:atemp>18.0</ns3:atemp>
          </ns3:TrackPointExtension>
        </extensions>
      </trkpt>
      <trkpt lat="42.55922994576394557952880859375" lon="20.05637012422084808349609375">
        <ele>2196.199951171875</ele>
        <time>2026-06-19T11:18:49.000Z</time>
        <extensions>
          <ns3:TrackPointExtension>
            <ns3:atemp>18.0</ns3:atemp>
          </ns3:TrackPointExtension>
        </extensions>
      </trkpt>
      <trkpt lat="42.55922994576394557952880859375" lon="20.05637012422084808349609375">
        <ele>2196.199951171875</ele>
        <time>2026-06-19T11:18:50.000Z</time>
        <extensions>
          <ns3:TrackPointExtension>
            <ns3:atemp>18.0</ns3:atemp>
          </ns3:TrackPointExtension>
        </extensions>
      </trkpt>
      <trkpt lat="42.55922994576394557952880859375" lon="20.05637012422084808349609375">
        <ele>2196.199951171875</ele>
        <time>2026-06-19T11:18:51.000Z</time>
        <extensions>
          <ns3:TrackPointExtension>
            <ns3:atemp>18.0</ns3:atemp>
          </ns3:TrackPointExtension>
        </extensions>
      </trkpt>
      <trkpt lat="42.55922994576394557952880859375" lon="20.05637012422084808349609375">
        <ele>2196.199951171875</ele>
        <time>2026-06-19T11:18:52.000Z</time>
        <extensions>
          <ns3:TrackPointExtension>
            <ns3:atemp>18.0</ns3:atemp>
          </ns3:TrackPointExtension>
        </extensions>
      </trkpt>
      <trkpt lat="42.55922994576394557952880859375" lon="20.05637012422084808349609375">
        <ele>2196.199951171875</ele>
        <time>2026-06-19T11:18:53.000Z</time>
        <extensions>
          <ns3:TrackPointExtension>
            <ns3:atemp>18.0</ns3:atemp>
          </ns3:TrackPointExtension>
        </extensions>
      </trkpt>
      <trkpt lat="42.55922994576394557952880859375" lon="20.05637012422084808349609375">
        <ele>2196.199951171875</ele>
        <time>2026-06-19T11:18:54.000Z</time>
        <extensions>
          <ns3:TrackPointExtension>
            <ns3:atemp>18.0</ns3:atemp>
          </ns3:TrackPointExtension>
        </extensions>
      </trkpt>
      <trkpt lat="42.55922994576394557952880859375" lon="20.05637012422084808349609375">
        <ele>2196.199951171875</ele>
        <time>2026-06-19T11:18:55.000Z</time>
        <extensions>
          <ns3:TrackPointExtension>
            <ns3:atemp>18.0</ns3:atemp>
          </ns3:TrackPointExtension>
        </extensions>
      </trkpt>
      <trkpt lat="42.55922994576394557952880859375" lon="20.05637012422084808349609375">
        <ele>2196.199951171875</ele>
        <time>2026-06-19T11:18:56.000Z</time>
        <extensions>
          <ns3:TrackPointExtension>
            <ns3:atemp>18.0</ns3:atemp>
          </ns3:TrackPointExtension>
        </extensions>
      </trkpt>
      <trkpt lat="42.55922994576394557952880859375" lon="20.05637012422084808349609375">
        <ele>2196.199951171875</ele>
        <time>2026-06-19T11:18:57.000Z</time>
        <extensions>
          <ns3:TrackPointExtension>
            <ns3:atemp>18.0</ns3:atemp>
          </ns3:TrackPointExtension>
        </extensions>
      </trkpt>
      <trkpt lat="42.55922994576394557952880859375" lon="20.05637012422084808349609375">
        <ele>2196.199951171875</ele>
        <time>2026-06-19T11:18:58.000Z</time>
        <extensions>
          <ns3:TrackPointExtension>
            <ns3:atemp>18.0</ns3:atemp>
          </ns3:TrackPointExtension>
        </extensions>
      </trkpt>
      <trkpt lat="42.55922994576394557952880859375" lon="20.05637012422084808349609375">
        <ele>2196.199951171875</ele>
        <time>2026-06-19T11:18:59.000Z</time>
        <extensions>
          <ns3:TrackPointExtension>
            <ns3:atemp>18.0</ns3:atemp>
          </ns3:TrackPointExtension>
        </extensions>
      </trkpt>
      <trkpt lat="42.55922994576394557952880859375" lon="20.05637012422084808349609375">
        <ele>2196.199951171875</ele>
        <time>2026-06-19T11:19:00.000Z</time>
        <extensions>
          <ns3:TrackPointExtension>
            <ns3:atemp>18.0</ns3:atemp>
          </ns3:TrackPointExtension>
        </extensions>
      </trkpt>
      <trkpt lat="42.55922994576394557952880859375" lon="20.05637012422084808349609375">
        <ele>2196.199951171875</ele>
        <time>2026-06-19T11:19:01.000Z</time>
        <extensions>
          <ns3:TrackPointExtension>
            <ns3:atemp>18.0</ns3:atemp>
          </ns3:TrackPointExtension>
        </extensions>
      </trkpt>
      <trkpt lat="42.55922994576394557952880859375" lon="20.05637012422084808349609375">
        <ele>2196.199951171875</ele>
        <time>2026-06-19T11:19:02.000Z</time>
        <extensions>
          <ns3:TrackPointExtension>
            <ns3:atemp>18.0</ns3:atemp>
          </ns3:TrackPointExtension>
        </extensions>
      </trkpt>
      <trkpt lat="42.55922994576394557952880859375" lon="20.05637012422084808349609375">
        <ele>2196.199951171875</ele>
        <time>2026-06-19T11:19:03.000Z</time>
        <extensions>
          <ns3:TrackPointExtension>
            <ns3:atemp>18.0</ns3:atemp>
          </ns3:TrackPointExtension>
        </extensions>
      </trkpt>
      <trkpt lat="42.55922994576394557952880859375" lon="20.05637012422084808349609375">
        <ele>2196.199951171875</ele>
        <time>2026-06-19T11:19:04.000Z</time>
        <extensions>
          <ns3:TrackPointExtension>
            <ns3:atemp>18.0</ns3:atemp>
          </ns3:TrackPointExtension>
        </extensions>
      </trkpt>
      <trkpt lat="42.55922994576394557952880859375" lon="20.05637012422084808349609375">
        <ele>2196.199951171875</ele>
        <time>2026-06-19T11:19:05.000Z</time>
        <extensions>
          <ns3:TrackPointExtension>
            <ns3:atemp>18.0</ns3:atemp>
          </ns3:TrackPointExtension>
        </extensions>
      </trkpt>
      <trkpt lat="42.55922994576394557952880859375" lon="20.05637012422084808349609375">
        <ele>2196.199951171875</ele>
        <time>2026-06-19T11:19:06.000Z</time>
        <extensions>
          <ns3:TrackPointExtension>
            <ns3:atemp>18.0</ns3:atemp>
          </ns3:TrackPointExtension>
        </extensions>
      </trkpt>
      <trkpt lat="42.55922994576394557952880859375" lon="20.05637012422084808349609375">
        <ele>2196.199951171875</ele>
        <time>2026-06-19T11:19:07.000Z</time>
        <extensions>
          <ns3:TrackPointExtension>
            <ns3:atemp>18.0</ns3:atemp>
          </ns3:TrackPointExtension>
        </extensions>
      </trkpt>
      <trkpt lat="42.55922994576394557952880859375" lon="20.05637012422084808349609375">
        <ele>2196.199951171875</ele>
        <time>2026-06-19T11:19:08.000Z</time>
        <extensions>
          <ns3:TrackPointExtension>
            <ns3:atemp>18.0</ns3:atemp>
          </ns3:TrackPointExtension>
        </extensions>
      </trkpt>
      <trkpt lat="42.55922994576394557952880859375" lon="20.05637012422084808349609375">
        <ele>2196.199951171875</ele>
        <time>2026-06-19T11:19:09.000Z</time>
        <extensions>
          <ns3:TrackPointExtension>
            <ns3:atemp>18.0</ns3:atemp>
          </ns3:TrackPointExtension>
        </extensions>
      </trkpt>
      <trkpt lat="42.55922994576394557952880859375" lon="20.05637012422084808349609375">
        <ele>2196.199951171875</ele>
        <time>2026-06-19T11:19:10.000Z</time>
        <extensions>
          <ns3:TrackPointExtension>
            <ns3:atemp>18.0</ns3:atemp>
          </ns3:TrackPointExtension>
        </extensions>
      </trkpt>
      <trkpt lat="42.55922994576394557952880859375" lon="20.05637012422084808349609375">
        <ele>2196.199951171875</ele>
        <time>2026-06-19T11:19:11.000Z</time>
        <extensions>
          <ns3:TrackPointExtension>
            <ns3:atemp>18.0</ns3:atemp>
          </ns3:TrackPointExtension>
        </extensions>
      </trkpt>
      <trkpt lat="42.55922994576394557952880859375" lon="20.05637012422084808349609375">
        <ele>2196.199951171875</ele>
        <time>2026-06-19T11:19:12.000Z</time>
        <extensions>
          <ns3:TrackPointExtension>
            <ns3:atemp>18.0</ns3:atemp>
          </ns3:TrackPointExtension>
        </extensions>
      </trkpt>
      <trkpt lat="42.55922994576394557952880859375" lon="20.05637012422084808349609375">
        <ele>2196.199951171875</ele>
        <time>2026-06-19T11:19:13.000Z</time>
        <extensions>
          <ns3:TrackPointExtension>
            <ns3:atemp>18.0</ns3:atemp>
          </ns3:TrackPointExtension>
        </extensions>
      </trkpt>
      <trkpt lat="42.55922994576394557952880859375" lon="20.05637012422084808349609375">
        <ele>2196.199951171875</ele>
        <time>2026-06-19T11:19:14.000Z</time>
        <extensions>
          <ns3:TrackPointExtension>
            <ns3:atemp>18.0</ns3:atemp>
          </ns3:TrackPointExtension>
        </extensions>
      </trkpt>
      <trkpt lat="42.55922994576394557952880859375" lon="20.05637012422084808349609375">
        <ele>2196.199951171875</ele>
        <time>2026-06-19T11:19:15.000Z</time>
        <extensions>
          <ns3:TrackPointExtension>
            <ns3:atemp>18.0</ns3:atemp>
          </ns3:TrackPointExtension>
        </extensions>
      </trkpt>
      <trkpt lat="42.55922994576394557952880859375" lon="20.05637012422084808349609375">
        <ele>2196.199951171875</ele>
        <time>2026-06-19T11:19:16.000Z</time>
        <extensions>
          <ns3:TrackPointExtension>
            <ns3:atemp>18.0</ns3:atemp>
          </ns3:TrackPointExtension>
        </extensions>
      </trkpt>
      <trkpt lat="42.55922994576394557952880859375" lon="20.05637012422084808349609375">
        <ele>2196.199951171875</ele>
        <time>2026-06-19T11:19:17.000Z</time>
        <extensions>
          <ns3:TrackPointExtension>
            <ns3:atemp>18.0</ns3:atemp>
          </ns3:TrackPointExtension>
        </extensions>
      </trkpt>
      <trkpt lat="42.55922994576394557952880859375" lon="20.05637012422084808349609375">
        <ele>2196.199951171875</ele>
        <time>2026-06-19T11:19:18.000Z</time>
        <extensions>
          <ns3:TrackPointExtension>
            <ns3:atemp>18.0</ns3:atemp>
          </ns3:TrackPointExtension>
        </extensions>
      </trkpt>
      <trkpt lat="42.55922994576394557952880859375" lon="20.05637012422084808349609375">
        <ele>2196.199951171875</ele>
        <time>2026-06-19T11:19:19.000Z</time>
        <extensions>
          <ns3:TrackPointExtension>
            <ns3:atemp>18.0</ns3:atemp>
          </ns3:TrackPointExtension>
        </extensions>
      </trkpt>
      <trkpt lat="42.55922994576394557952880859375" lon="20.05637012422084808349609375">
        <ele>2196.199951171875</ele>
        <time>2026-06-19T11:19:20.000Z</time>
        <extensions>
          <ns3:TrackPointExtension>
            <ns3:atemp>18.0</ns3:atemp>
          </ns3:TrackPointExtension>
        </extensions>
      </trkpt>
      <trkpt lat="42.55922994576394557952880859375" lon="20.05637012422084808349609375">
        <ele>2196.199951171875</ele>
        <time>2026-06-19T11:19:21.000Z</time>
        <extensions>
          <ns3:TrackPointExtension>
            <ns3:atemp>18.0</ns3:atemp>
          </ns3:TrackPointExtension>
        </extensions>
      </trkpt>
      <trkpt lat="42.55922994576394557952880859375" lon="20.05637012422084808349609375">
        <ele>2196.199951171875</ele>
        <time>2026-06-19T11:19:22.000Z</time>
        <extensions>
          <ns3:TrackPointExtension>
            <ns3:atemp>18.0</ns3:atemp>
          </ns3:TrackPointExtension>
        </extensions>
      </trkpt>
      <trkpt lat="42.55922994576394557952880859375" lon="20.05637012422084808349609375">
        <ele>2196.199951171875</ele>
        <time>2026-06-19T11:19:23.000Z</time>
        <extensions>
          <ns3:TrackPointExtension>
            <ns3:atemp>18.0</ns3:atemp>
          </ns3:TrackPointExtension>
        </extensions>
      </trkpt>
      <trkpt lat="42.55922994576394557952880859375" lon="20.05637012422084808349609375">
        <ele>2196.199951171875</ele>
        <time>2026-06-19T11:19:24.000Z</time>
        <extensions>
          <ns3:TrackPointExtension>
            <ns3:atemp>18.0</ns3:atemp>
          </ns3:TrackPointExtension>
        </extensions>
      </trkpt>
      <trkpt lat="42.55922994576394557952880859375" lon="20.05637012422084808349609375">
        <ele>2196.199951171875</ele>
        <time>2026-06-19T11:19:25.000Z</time>
        <extensions>
          <ns3:TrackPointExtension>
            <ns3:atemp>18.0</ns3:atemp>
          </ns3:TrackPointExtension>
        </extensions>
      </trkpt>
      <trkpt lat="42.55922994576394557952880859375" lon="20.05637012422084808349609375">
        <ele>2196.199951171875</ele>
        <time>2026-06-19T11:19:26.000Z</time>
        <extensions>
          <ns3:TrackPointExtension>
            <ns3:atemp>18.0</ns3:atemp>
          </ns3:TrackPointExtension>
        </extensions>
      </trkpt>
      <trkpt lat="42.55922994576394557952880859375" lon="20.05637012422084808349609375">
        <ele>2196.199951171875</ele>
        <time>2026-06-19T11:19:27.000Z</time>
        <extensions>
          <ns3:TrackPointExtension>
            <ns3:atemp>18.0</ns3:atemp>
          </ns3:TrackPointExtension>
        </extensions>
      </trkpt>
      <trkpt lat="42.55922994576394557952880859375" lon="20.05637012422084808349609375">
        <ele>2196.199951171875</ele>
        <time>2026-06-19T11:19:28.000Z</time>
        <extensions>
          <ns3:TrackPointExtension>
            <ns3:atemp>18.0</ns3:atemp>
          </ns3:TrackPointExtension>
        </extensions>
      </trkpt>
      <trkpt lat="42.55922994576394557952880859375" lon="20.05637012422084808349609375">
        <ele>2196.199951171875</ele>
        <time>2026-06-19T11:19:29.000Z</time>
        <extensions>
          <ns3:TrackPointExtension>
            <ns3:atemp>18.0</ns3:atemp>
          </ns3:TrackPointExtension>
        </extensions>
      </trkpt>
      <trkpt lat="42.55922994576394557952880859375" lon="20.05637012422084808349609375">
        <ele>2196.199951171875</ele>
        <time>2026-06-19T11:19:30.000Z</time>
        <extensions>
          <ns3:TrackPointExtension>
            <ns3:atemp>18.0</ns3:atemp>
          </ns3:TrackPointExtension>
        </extensions>
      </trkpt>
      <trkpt lat="42.55922994576394557952880859375" lon="20.05637012422084808349609375">
        <ele>2196.199951171875</ele>
        <time>2026-06-19T11:19:31.000Z</time>
        <extensions>
          <ns3:TrackPointExtension>
            <ns3:atemp>18.0</ns3:atemp>
          </ns3:TrackPointExtension>
        </extensions>
      </trkpt>
      <trkpt lat="42.55922994576394557952880859375" lon="20.05637012422084808349609375">
        <ele>2196.199951171875</ele>
        <time>2026-06-19T11:19:32.000Z</time>
        <extensions>
          <ns3:TrackPointExtension>
            <ns3:atemp>18.0</ns3:atemp>
          </ns3:TrackPointExtension>
        </extensions>
      </trkpt>
      <trkpt lat="42.55922994576394557952880859375" lon="20.05637012422084808349609375">
        <ele>2196.199951171875</ele>
        <time>2026-06-19T11:19:33.000Z</time>
        <extensions>
          <ns3:TrackPointExtension>
            <ns3:atemp>18.0</ns3:atemp>
          </ns3:TrackPointExtension>
        </extensions>
      </trkpt>
      <trkpt lat="42.55922994576394557952880859375" lon="20.05637012422084808349609375">
        <ele>2196.199951171875</ele>
        <time>2026-06-19T11:19:34.000Z</time>
        <extensions>
          <ns3:TrackPointExtension>
            <ns3:atemp>18.0</ns3:atemp>
          </ns3:TrackPointExtension>
        </extensions>
      </trkpt>
      <trkpt lat="42.55922994576394557952880859375" lon="20.05637012422084808349609375">
        <ele>2196.199951171875</ele>
        <time>2026-06-19T11:19:35.000Z</time>
        <extensions>
          <ns3:TrackPointExtension>
            <ns3:atemp>18.0</ns3:atemp>
          </ns3:TrackPointExtension>
        </extensions>
      </trkpt>
      <trkpt lat="42.55922994576394557952880859375" lon="20.05637012422084808349609375">
        <ele>2196.199951171875</ele>
        <time>2026-06-19T11:19:36.000Z</time>
        <extensions>
          <ns3:TrackPointExtension>
            <ns3:atemp>18.0</ns3:atemp>
          </ns3:TrackPointExtension>
        </extensions>
      </trkpt>
      <trkpt lat="42.55922994576394557952880859375" lon="20.05637012422084808349609375">
        <ele>2196.199951171875</ele>
        <time>2026-06-19T11:19:37.000Z</time>
        <extensions>
          <ns3:TrackPointExtension>
            <ns3:atemp>18.0</ns3:atemp>
          </ns3:TrackPointExtension>
        </extensions>
      </trkpt>
      <trkpt lat="42.55922994576394557952880859375" lon="20.05637012422084808349609375">
        <ele>2196.199951171875</ele>
        <time>2026-06-19T11:19:38.000Z</time>
        <extensions>
          <ns3:TrackPointExtension>
            <ns3:atemp>18.0</ns3:atemp>
          </ns3:TrackPointExtension>
        </extensions>
      </trkpt>
      <trkpt lat="42.55922994576394557952880859375" lon="20.05637012422084808349609375">
        <ele>2196.199951171875</ele>
        <time>2026-06-19T11:19:39.000Z</time>
        <extensions>
          <ns3:TrackPointExtension>
            <ns3:atemp>18.0</ns3:atemp>
          </ns3:TrackPointExtension>
        </extensions>
      </trkpt>
      <trkpt lat="42.55922994576394557952880859375" lon="20.05637012422084808349609375">
        <ele>2196.199951171875</ele>
        <time>2026-06-19T11:19:40.000Z</time>
        <extensions>
          <ns3:TrackPointExtension>
            <ns3:atemp>18.0</ns3:atemp>
          </ns3:TrackPointExtension>
        </extensions>
      </trkpt>
      <trkpt lat="42.55922994576394557952880859375" lon="20.05637012422084808349609375">
        <ele>2196.199951171875</ele>
        <time>2026-06-19T11:19:41.000Z</time>
        <extensions>
          <ns3:TrackPointExtension>
            <ns3:atemp>18.0</ns3:atemp>
          </ns3:TrackPointExtension>
        </extensions>
      </trkpt>
      <trkpt lat="42.55922994576394557952880859375" lon="20.05637012422084808349609375">
        <ele>2196.199951171875</ele>
        <time>2026-06-19T11:19:42.000Z</time>
        <extensions>
          <ns3:TrackPointExtension>
            <ns3:atemp>18.0</ns3:atemp>
          </ns3:TrackPointExtension>
        </extensions>
      </trkpt>
      <trkpt lat="42.55922994576394557952880859375" lon="20.05637012422084808349609375">
        <ele>2196.199951171875</ele>
        <time>2026-06-19T11:19:43.000Z</time>
        <extensions>
          <ns3:TrackPointExtension>
            <ns3:atemp>18.0</ns3:atemp>
          </ns3:TrackPointExtension>
        </extensions>
      </trkpt>
      <trkpt lat="42.55922994576394557952880859375" lon="20.05637012422084808349609375">
        <ele>2196.199951171875</ele>
        <time>2026-06-19T11:19:44.000Z</time>
        <extensions>
          <ns3:TrackPointExtension>
            <ns3:atemp>18.0</ns3:atemp>
          </ns3:TrackPointExtension>
        </extensions>
      </trkpt>
      <trkpt lat="42.55922994576394557952880859375" lon="20.05637012422084808349609375">
        <ele>2196.199951171875</ele>
        <time>2026-06-19T11:19:45.000Z</time>
        <extensions>
          <ns3:TrackPointExtension>
            <ns3:atemp>18.0</ns3:atemp>
          </ns3:TrackPointExtension>
        </extensions>
      </trkpt>
      <trkpt lat="42.55922994576394557952880859375" lon="20.05637012422084808349609375">
        <ele>2196.199951171875</ele>
        <time>2026-06-19T11:19:46.000Z</time>
        <extensions>
          <ns3:TrackPointExtension>
            <ns3:atemp>18.0</ns3:atemp>
          </ns3:TrackPointExtension>
        </extensions>
      </trkpt>
      <trkpt lat="42.55922994576394557952880859375" lon="20.05637012422084808349609375">
        <ele>2196.199951171875</ele>
        <time>2026-06-19T11:19:47.000Z</time>
        <extensions>
          <ns3:TrackPointExtension>
            <ns3:atemp>18.0</ns3:atemp>
          </ns3:TrackPointExtension>
        </extensions>
      </trkpt>
      <trkpt lat="42.55922994576394557952880859375" lon="20.05637012422084808349609375">
        <ele>2196.199951171875</ele>
        <time>2026-06-19T11:19:48.000Z</time>
        <extensions>
          <ns3:TrackPointExtension>
            <ns3:atemp>18.0</ns3:atemp>
          </ns3:TrackPointExtension>
        </extensions>
      </trkpt>
      <trkpt lat="42.55922994576394557952880859375" lon="20.05637012422084808349609375">
        <ele>2196.199951171875</ele>
        <time>2026-06-19T11:19:49.000Z</time>
        <extensions>
          <ns3:TrackPointExtension>
            <ns3:atemp>18.0</ns3:atemp>
          </ns3:TrackPointExtension>
        </extensions>
      </trkpt>
      <trkpt lat="42.55922994576394557952880859375" lon="20.05637012422084808349609375">
        <ele>2196.199951171875</ele>
        <time>2026-06-19T11:19:50.000Z</time>
        <extensions>
          <ns3:TrackPointExtension>
            <ns3:atemp>18.0</ns3:atemp>
          </ns3:TrackPointExtension>
        </extensions>
      </trkpt>
      <trkpt lat="42.55922994576394557952880859375" lon="20.05637012422084808349609375">
        <ele>2196.199951171875</ele>
        <time>2026-06-19T11:19:51.000Z</time>
        <extensions>
          <ns3:TrackPointExtension>
            <ns3:atemp>18.0</ns3:atemp>
          </ns3:TrackPointExtension>
        </extensions>
      </trkpt>
      <trkpt lat="42.55922994576394557952880859375" lon="20.05637012422084808349609375">
        <ele>2196.199951171875</ele>
        <time>2026-06-19T11:19:52.000Z</time>
        <extensions>
          <ns3:TrackPointExtension>
            <ns3:atemp>18.0</ns3:atemp>
          </ns3:TrackPointExtension>
        </extensions>
      </trkpt>
      <trkpt lat="42.55922994576394557952880859375" lon="20.05637012422084808349609375">
        <ele>2196.199951171875</ele>
        <time>2026-06-19T11:19:53.000Z</time>
        <extensions>
          <ns3:TrackPointExtension>
            <ns3:atemp>18.0</ns3:atemp>
          </ns3:TrackPointExtension>
        </extensions>
      </trkpt>
      <trkpt lat="42.55922994576394557952880859375" lon="20.05637012422084808349609375">
        <ele>2196.199951171875</ele>
        <time>2026-06-19T11:19:54.000Z</time>
        <extensions>
          <ns3:TrackPointExtension>
            <ns3:atemp>18.0</ns3:atemp>
          </ns3:TrackPointExtension>
        </extensions>
      </trkpt>
      <trkpt lat="42.55922994576394557952880859375" lon="20.05637012422084808349609375">
        <ele>2196.199951171875</ele>
        <time>2026-06-19T11:19:55.000Z</time>
        <extensions>
          <ns3:TrackPointExtension>
            <ns3:atemp>18.0</ns3:atemp>
          </ns3:TrackPointExtension>
        </extensions>
      </trkpt>
      <trkpt lat="42.55922994576394557952880859375" lon="20.05637012422084808349609375">
        <ele>2196.199951171875</ele>
        <time>2026-06-19T11:19:56.000Z</time>
        <extensions>
          <ns3:TrackPointExtension>
            <ns3:atemp>18.0</ns3:atemp>
          </ns3:TrackPointExtension>
        </extensions>
      </trkpt>
      <trkpt lat="42.55922994576394557952880859375" lon="20.05637012422084808349609375">
        <ele>2196.199951171875</ele>
        <time>2026-06-19T11:19:57.000Z</time>
        <extensions>
          <ns3:TrackPointExtension>
            <ns3:atemp>18.0</ns3:atemp>
          </ns3:TrackPointExtension>
        </extensions>
      </trkpt>
      <trkpt lat="42.55922994576394557952880859375" lon="20.05637012422084808349609375">
        <ele>2196.199951171875</ele>
        <time>2026-06-19T11:19:58.000Z</time>
        <extensions>
          <ns3:TrackPointExtension>
            <ns3:atemp>18.0</ns3:atemp>
          </ns3:TrackPointExtension>
        </extensions>
      </trkpt>
      <trkpt lat="42.55922994576394557952880859375" lon="20.05637012422084808349609375">
        <ele>2196.199951171875</ele>
        <time>2026-06-19T11:19:59.000Z</time>
        <extensions>
          <ns3:TrackPointExtension>
            <ns3:atemp>18.0</ns3:atemp>
          </ns3:TrackPointExtension>
        </extensions>
      </trkpt>
      <trkpt lat="42.55922994576394557952880859375" lon="20.05637012422084808349609375">
        <ele>2196.199951171875</ele>
        <time>2026-06-19T11:20:00.000Z</time>
        <extensions>
          <ns3:TrackPointExtension>
            <ns3:atemp>18.0</ns3:atemp>
          </ns3:TrackPointExtension>
        </extensions>
      </trkpt>
      <trkpt lat="42.55922994576394557952880859375" lon="20.05637012422084808349609375">
        <ele>2196.199951171875</ele>
        <time>2026-06-19T11:20:01.000Z</time>
        <extensions>
          <ns3:TrackPointExtension>
            <ns3:atemp>18.0</ns3:atemp>
          </ns3:TrackPointExtension>
        </extensions>
      </trkpt>
      <trkpt lat="42.55922994576394557952880859375" lon="20.05637012422084808349609375">
        <ele>2196.199951171875</ele>
        <time>2026-06-19T11:20:02.000Z</time>
        <extensions>
          <ns3:TrackPointExtension>
            <ns3:atemp>18.0</ns3:atemp>
          </ns3:TrackPointExtension>
        </extensions>
      </trkpt>
      <trkpt lat="42.55922994576394557952880859375" lon="20.05637012422084808349609375">
        <ele>2196.199951171875</ele>
        <time>2026-06-19T11:20:03.000Z</time>
        <extensions>
          <ns3:TrackPointExtension>
            <ns3:atemp>18.0</ns3:atemp>
          </ns3:TrackPointExtension>
        </extensions>
      </trkpt>
      <trkpt lat="42.55922994576394557952880859375" lon="20.05637012422084808349609375">
        <ele>2196.199951171875</ele>
        <time>2026-06-19T11:20:04.000Z</time>
        <extensions>
          <ns3:TrackPointExtension>
            <ns3:atemp>18.0</ns3:atemp>
          </ns3:TrackPointExtension>
        </extensions>
      </trkpt>
      <trkpt lat="42.55922994576394557952880859375" lon="20.05637012422084808349609375">
        <ele>2196.199951171875</ele>
        <time>2026-06-19T11:20:05.000Z</time>
        <extensions>
          <ns3:TrackPointExtension>
            <ns3:atemp>18.0</ns3:atemp>
          </ns3:TrackPointExtension>
        </extensions>
      </trkpt>
      <trkpt lat="42.55922994576394557952880859375" lon="20.05637012422084808349609375">
        <ele>2196.199951171875</ele>
        <time>2026-06-19T11:20:06.000Z</time>
        <extensions>
          <ns3:TrackPointExtension>
            <ns3:atemp>18.0</ns3:atemp>
          </ns3:TrackPointExtension>
        </extensions>
      </trkpt>
      <trkpt lat="42.55922994576394557952880859375" lon="20.05637012422084808349609375">
        <ele>2196.199951171875</ele>
        <time>2026-06-19T11:20:07.000Z</time>
        <extensions>
          <ns3:TrackPointExtension>
            <ns3:atemp>18.0</ns3:atemp>
          </ns3:TrackPointExtension>
        </extensions>
      </trkpt>
      <trkpt lat="42.55922994576394557952880859375" lon="20.05637012422084808349609375">
        <ele>2196.199951171875</ele>
        <time>2026-06-19T11:20:08.000Z</time>
        <extensions>
          <ns3:TrackPointExtension>
            <ns3:atemp>18.0</ns3:atemp>
          </ns3:TrackPointExtension>
        </extensions>
      </trkpt>
      <trkpt lat="42.55922994576394557952880859375" lon="20.05637012422084808349609375">
        <ele>2196.199951171875</ele>
        <time>2026-06-19T11:20:09.000Z</time>
        <extensions>
          <ns3:TrackPointExtension>
            <ns3:atemp>18.0</ns3:atemp>
          </ns3:TrackPointExtension>
        </extensions>
      </trkpt>
      <trkpt lat="42.55922994576394557952880859375" lon="20.05637012422084808349609375">
        <ele>2196.199951171875</ele>
        <time>2026-06-19T11:20:10.000Z</time>
        <extensions>
          <ns3:TrackPointExtension>
            <ns3:atemp>18.0</ns3:atemp>
          </ns3:TrackPointExtension>
        </extensions>
      </trkpt>
      <trkpt lat="42.55922994576394557952880859375" lon="20.05637012422084808349609375">
        <ele>2196.199951171875</ele>
        <time>2026-06-19T11:20:11.000Z</time>
        <extensions>
          <ns3:TrackPointExtension>
            <ns3:atemp>18.0</ns3:atemp>
          </ns3:TrackPointExtension>
        </extensions>
      </trkpt>
      <trkpt lat="42.55922994576394557952880859375" lon="20.05637012422084808349609375">
        <ele>2196.199951171875</ele>
        <time>2026-06-19T11:20:12.000Z</time>
        <extensions>
          <ns3:TrackPointExtension>
            <ns3:atemp>18.0</ns3:atemp>
          </ns3:TrackPointExtension>
        </extensions>
      </trkpt>
      <trkpt lat="42.55922994576394557952880859375" lon="20.05637012422084808349609375">
        <ele>2196.199951171875</ele>
        <time>2026-06-19T11:20:13.000Z</time>
        <extensions>
          <ns3:TrackPointExtension>
            <ns3:atemp>18.0</ns3:atemp>
          </ns3:TrackPointExtension>
        </extensions>
      </trkpt>
      <trkpt lat="42.55922994576394557952880859375" lon="20.05637012422084808349609375">
        <ele>2196.199951171875</ele>
        <time>2026-06-19T11:20:14.000Z</time>
        <extensions>
          <ns3:TrackPointExtension>
            <ns3:atemp>18.0</ns3:atemp>
          </ns3:TrackPointExtension>
        </extensions>
      </trkpt>
      <trkpt lat="42.55922994576394557952880859375" lon="20.05637012422084808349609375">
        <ele>2196.199951171875</ele>
        <time>2026-06-19T11:20:15.000Z</time>
        <extensions>
          <ns3:TrackPointExtension>
            <ns3:atemp>18.0</ns3:atemp>
          </ns3:TrackPointExtension>
        </extensions>
      </trkpt>
      <trkpt lat="42.55922994576394557952880859375" lon="20.05637012422084808349609375">
        <ele>2196.199951171875</ele>
        <time>2026-06-19T11:20:16.000Z</time>
        <extensions>
          <ns3:TrackPointExtension>
            <ns3:atemp>18.0</ns3:atemp>
          </ns3:TrackPointExtension>
        </extensions>
      </trkpt>
      <trkpt lat="42.55922994576394557952880859375" lon="20.05637012422084808349609375">
        <ele>2196.199951171875</ele>
        <time>2026-06-19T11:20:17.000Z</time>
        <extensions>
          <ns3:TrackPointExtension>
            <ns3:atemp>18.0</ns3:atemp>
          </ns3:TrackPointExtension>
        </extensions>
      </trkpt>
      <trkpt lat="42.55922994576394557952880859375" lon="20.05637012422084808349609375">
        <ele>2196.199951171875</ele>
        <time>2026-06-19T11:20:18.000Z</time>
        <extensions>
          <ns3:TrackPointExtension>
            <ns3:atemp>18.0</ns3:atemp>
          </ns3:TrackPointExtension>
        </extensions>
      </trkpt>
      <trkpt lat="42.55922994576394557952880859375" lon="20.05637012422084808349609375">
        <ele>2196.199951171875</ele>
        <time>2026-06-19T11:20:19.000Z</time>
        <extensions>
          <ns3:TrackPointExtension>
            <ns3:atemp>18.0</ns3:atemp>
          </ns3:TrackPointExtension>
        </extensions>
      </trkpt>
      <trkpt lat="42.55922994576394557952880859375" lon="20.05637012422084808349609375">
        <ele>2196.199951171875</ele>
        <time>2026-06-19T11:20:20.000Z</time>
        <extensions>
          <ns3:TrackPointExtension>
            <ns3:atemp>18.0</ns3:atemp>
          </ns3:TrackPointExtension>
        </extensions>
      </trkpt>
      <trkpt lat="42.55922994576394557952880859375" lon="20.05637012422084808349609375">
        <ele>2196.199951171875</ele>
        <time>2026-06-19T11:20:21.000Z</time>
        <extensions>
          <ns3:TrackPointExtension>
            <ns3:atemp>18.0</ns3:atemp>
          </ns3:TrackPointExtension>
        </extensions>
      </trkpt>
      <trkpt lat="42.55922994576394557952880859375" lon="20.05637012422084808349609375">
        <ele>2196.199951171875</ele>
        <time>2026-06-19T11:20:22.000Z</time>
        <extensions>
          <ns3:TrackPointExtension>
            <ns3:atemp>18.0</ns3:atemp>
          </ns3:TrackPointExtension>
        </extensions>
      </trkpt>
      <trkpt lat="42.55922994576394557952880859375" lon="20.05637012422084808349609375">
        <ele>2196.199951171875</ele>
        <time>2026-06-19T11:20:23.000Z</time>
        <extensions>
          <ns3:TrackPointExtension>
            <ns3:atemp>18.0</ns3:atemp>
          </ns3:TrackPointExtension>
        </extensions>
      </trkpt>
      <trkpt lat="42.55922994576394557952880859375" lon="20.05637012422084808349609375">
        <ele>2196.199951171875</ele>
        <time>2026-06-19T11:20:24.000Z</time>
        <extensions>
          <ns3:TrackPointExtension>
            <ns3:atemp>18.0</ns3:atemp>
          </ns3:TrackPointExtension>
        </extensions>
      </trkpt>
      <trkpt lat="42.55922994576394557952880859375" lon="20.05637012422084808349609375">
        <ele>2196.199951171875</ele>
        <time>2026-06-19T11:20:25.000Z</time>
        <extensions>
          <ns3:TrackPointExtension>
            <ns3:atemp>18.0</ns3:atemp>
          </ns3:TrackPointExtension>
        </extensions>
      </trkpt>
      <trkpt lat="42.55922994576394557952880859375" lon="20.05637012422084808349609375">
        <ele>2196.199951171875</ele>
        <time>2026-06-19T11:20:26.000Z</time>
        <extensions>
          <ns3:TrackPointExtension>
            <ns3:atemp>18.0</ns3:atemp>
          </ns3:TrackPointExtension>
        </extensions>
      </trkpt>
      <trkpt lat="42.55922994576394557952880859375" lon="20.05637012422084808349609375">
        <ele>2196.199951171875</ele>
        <time>2026-06-19T11:20:27.000Z</time>
        <extensions>
          <ns3:TrackPointExtension>
            <ns3:atemp>18.0</ns3:atemp>
          </ns3:TrackPointExtension>
        </extensions>
      </trkpt>
      <trkpt lat="42.55922994576394557952880859375" lon="20.05637012422084808349609375">
        <ele>2196.199951171875</ele>
        <time>2026-06-19T11:20:28.000Z</time>
        <extensions>
          <ns3:TrackPointExtension>
            <ns3:atemp>18.0</ns3:atemp>
          </ns3:TrackPointExtension>
        </extensions>
      </trkpt>
      <trkpt lat="42.55922994576394557952880859375" lon="20.05637012422084808349609375">
        <ele>2196.199951171875</ele>
        <time>2026-06-19T11:20:29.000Z</time>
        <extensions>
          <ns3:TrackPointExtension>
            <ns3:atemp>18.0</ns3:atemp>
          </ns3:TrackPointExtension>
        </extensions>
      </trkpt>
      <trkpt lat="42.55922994576394557952880859375" lon="20.05637012422084808349609375">
        <ele>2196.199951171875</ele>
        <time>2026-06-19T11:20:30.000Z</time>
        <extensions>
          <ns3:TrackPointExtension>
            <ns3:atemp>18.0</ns3:atemp>
          </ns3:TrackPointExtension>
        </extensions>
      </trkpt>
      <trkpt lat="42.55922994576394557952880859375" lon="20.05637012422084808349609375">
        <ele>2196.199951171875</ele>
        <time>2026-06-19T11:20:31.000Z</time>
        <extensions>
          <ns3:TrackPointExtension>
            <ns3:atemp>18.0</ns3:atemp>
          </ns3:TrackPointExtension>
        </extensions>
      </trkpt>
      <trkpt lat="42.55922994576394557952880859375" lon="20.05637012422084808349609375">
        <ele>2196.199951171875</ele>
        <time>2026-06-19T11:20:32.000Z</time>
        <extensions>
          <ns3:TrackPointExtension>
            <ns3:atemp>18.0</ns3:atemp>
          </ns3:TrackPointExtension>
        </extensions>
      </trkpt>
      <trkpt lat="42.55922994576394557952880859375" lon="20.05637012422084808349609375">
        <ele>2196.199951171875</ele>
        <time>2026-06-19T11:20:33.000Z</time>
        <extensions>
          <ns3:TrackPointExtension>
            <ns3:atemp>18.0</ns3:atemp>
          </ns3:TrackPointExtension>
        </extensions>
      </trkpt>
      <trkpt lat="42.55922994576394557952880859375" lon="20.05637012422084808349609375">
        <ele>2196.199951171875</ele>
        <time>2026-06-19T11:20:34.000Z</time>
        <extensions>
          <ns3:TrackPointExtension>
            <ns3:atemp>18.0</ns3:atemp>
          </ns3:TrackPointExtension>
        </extensions>
      </trkpt>
      <trkpt lat="42.55922994576394557952880859375" lon="20.05637012422084808349609375">
        <ele>2196.199951171875</ele>
        <time>2026-06-19T11:20:35.000Z</time>
        <extensions>
          <ns3:TrackPointExtension>
            <ns3:atemp>18.0</ns3:atemp>
          </ns3:TrackPointExtension>
        </extensions>
      </trkpt>
      <trkpt lat="42.55922994576394557952880859375" lon="20.05637012422084808349609375">
        <ele>2196.199951171875</ele>
        <time>2026-06-19T11:20:36.000Z</time>
        <extensions>
          <ns3:TrackPointExtension>
            <ns3:atemp>18.0</ns3:atemp>
          </ns3:TrackPointExtension>
        </extensions>
      </trkpt>
      <trkpt lat="42.55922994576394557952880859375" lon="20.05637012422084808349609375">
        <ele>2196.199951171875</ele>
        <time>2026-06-19T11:20:37.000Z</time>
        <extensions>
          <ns3:TrackPointExtension>
            <ns3:atemp>18.0</ns3:atemp>
          </ns3:TrackPointExtension>
        </extensions>
      </trkpt>
      <trkpt lat="42.55922994576394557952880859375" lon="20.05637012422084808349609375">
        <ele>2196.199951171875</ele>
        <time>2026-06-19T11:20:38.000Z</time>
        <extensions>
          <ns3:TrackPointExtension>
            <ns3:atemp>18.0</ns3:atemp>
          </ns3:TrackPointExtension>
        </extensions>
      </trkpt>
      <trkpt lat="42.55922994576394557952880859375" lon="20.05637012422084808349609375">
        <ele>2196.199951171875</ele>
        <time>2026-06-19T11:20:39.000Z</time>
        <extensions>
          <ns3:TrackPointExtension>
            <ns3:atemp>18.0</ns3:atemp>
          </ns3:TrackPointExtension>
        </extensions>
      </trkpt>
      <trkpt lat="42.55922994576394557952880859375" lon="20.05637012422084808349609375">
        <ele>2196.199951171875</ele>
        <time>2026-06-19T11:20:40.000Z</time>
        <extensions>
          <ns3:TrackPointExtension>
            <ns3:atemp>18.0</ns3:atemp>
          </ns3:TrackPointExtension>
        </extensions>
      </trkpt>
      <trkpt lat="42.55922994576394557952880859375" lon="20.05637012422084808349609375">
        <ele>2196.199951171875</ele>
        <time>2026-06-19T11:20:41.000Z</time>
        <extensions>
          <ns3:TrackPointExtension>
            <ns3:atemp>18.0</ns3:atemp>
          </ns3:TrackPointExtension>
        </extensions>
      </trkpt>
      <trkpt lat="42.55922994576394557952880859375" lon="20.05637012422084808349609375">
        <ele>2196.199951171875</ele>
        <time>2026-06-19T11:20:42.000Z</time>
        <extensions>
          <ns3:TrackPointExtension>
            <ns3:atemp>18.0</ns3:atemp>
          </ns3:TrackPointExtension>
        </extensions>
      </trkpt>
      <trkpt lat="42.55922994576394557952880859375" lon="20.05637012422084808349609375">
        <ele>2196.199951171875</ele>
        <time>2026-06-19T11:20:43.000Z</time>
        <extensions>
          <ns3:TrackPointExtension>
            <ns3:atemp>18.0</ns3:atemp>
          </ns3:TrackPointExtension>
        </extensions>
      </trkpt>
      <trkpt lat="42.55922994576394557952880859375" lon="20.05637012422084808349609375">
        <ele>2196.199951171875</ele>
        <time>2026-06-19T11:20:44.000Z</time>
        <extensions>
          <ns3:TrackPointExtension>
            <ns3:atemp>18.0</ns3:atemp>
          </ns3:TrackPointExtension>
        </extensions>
      </trkpt>
      <trkpt lat="42.55922994576394557952880859375" lon="20.05637012422084808349609375">
        <ele>2196.199951171875</ele>
        <time>2026-06-19T11:20:45.000Z</time>
        <extensions>
          <ns3:TrackPointExtension>
            <ns3:atemp>18.0</ns3:atemp>
          </ns3:TrackPointExtension>
        </extensions>
      </trkpt>
      <trkpt lat="42.55922994576394557952880859375" lon="20.05637012422084808349609375">
        <ele>2196.199951171875</ele>
        <time>2026-06-19T11:20:46.000Z</time>
        <extensions>
          <ns3:TrackPointExtension>
            <ns3:atemp>18.0</ns3:atemp>
          </ns3:TrackPointExtension>
        </extensions>
      </trkpt>
      <trkpt lat="42.55922994576394557952880859375" lon="20.05637012422084808349609375">
        <ele>2196.199951171875</ele>
        <time>2026-06-19T11:20:47.000Z</time>
        <extensions>
          <ns3:TrackPointExtension>
            <ns3:atemp>18.0</ns3:atemp>
          </ns3:TrackPointExtension>
        </extensions>
      </trkpt>
      <trkpt lat="42.55922994576394557952880859375" lon="20.05637012422084808349609375">
        <ele>2196.199951171875</ele>
        <time>2026-06-19T11:20:48.000Z</time>
        <extensions>
          <ns3:TrackPointExtension>
            <ns3:atemp>18.0</ns3:atemp>
          </ns3:TrackPointExtension>
        </extensions>
      </trkpt>
      <trkpt lat="42.55922994576394557952880859375" lon="20.05637012422084808349609375">
        <ele>2196.199951171875</ele>
        <time>2026-06-19T11:20:49.000Z</time>
        <extensions>
          <ns3:TrackPointExtension>
            <ns3:atemp>18.0</ns3:atemp>
          </ns3:TrackPointExtension>
        </extensions>
      </trkpt>
      <trkpt lat="42.55922994576394557952880859375" lon="20.05637012422084808349609375">
        <ele>2196.199951171875</ele>
        <time>2026-06-19T11:20:50.000Z</time>
        <extensions>
          <ns3:TrackPointExtension>
            <ns3:atemp>18.0</ns3:atemp>
          </ns3:TrackPointExtension>
        </extensions>
      </trkpt>
      <trkpt lat="42.55922994576394557952880859375" lon="20.05637012422084808349609375">
        <ele>2196.199951171875</ele>
        <time>2026-06-19T11:20:51.000Z</time>
        <extensions>
          <ns3:TrackPointExtension>
            <ns3:atemp>18.0</ns3:atemp>
          </ns3:TrackPointExtension>
        </extensions>
      </trkpt>
      <trkpt lat="42.55922994576394557952880859375" lon="20.05637012422084808349609375">
        <ele>2196.199951171875</ele>
        <time>2026-06-19T11:20:52.000Z</time>
        <extensions>
          <ns3:TrackPointExtension>
            <ns3:atemp>18.0</ns3:atemp>
          </ns3:TrackPointExtension>
        </extensions>
      </trkpt>
      <trkpt lat="42.55922994576394557952880859375" lon="20.05637012422084808349609375">
        <ele>2196.199951171875</ele>
        <time>2026-06-19T11:20:53.000Z</time>
        <extensions>
          <ns3:TrackPointExtension>
            <ns3:atemp>18.0</ns3:atemp>
          </ns3:TrackPointExtension>
        </extensions>
      </trkpt>
      <trkpt lat="42.55922994576394557952880859375" lon="20.05637012422084808349609375">
        <ele>2196.199951171875</ele>
        <time>2026-06-19T11:20:54.000Z</time>
        <extensions>
          <ns3:TrackPointExtension>
            <ns3:atemp>18.0</ns3:atemp>
          </ns3:TrackPointExtension>
        </extensions>
      </trkpt>
      <trkpt lat="42.55922994576394557952880859375" lon="20.05637012422084808349609375">
        <ele>2196.199951171875</ele>
        <time>2026-06-19T11:20:55.000Z</time>
        <extensions>
          <ns3:TrackPointExtension>
            <ns3:atemp>18.0</ns3:atemp>
          </ns3:TrackPointExtension>
        </extensions>
      </trkpt>
      <trkpt lat="42.55922994576394557952880859375" lon="20.05637012422084808349609375">
        <ele>2196.199951171875</ele>
        <time>2026-06-19T11:20:56.000Z</time>
        <extensions>
          <ns3:TrackPointExtension>
            <ns3:atemp>18.0</ns3:atemp>
          </ns3:TrackPointExtension>
        </extensions>
      </trkpt>
      <trkpt lat="42.55922994576394557952880859375" lon="20.05637012422084808349609375">
        <ele>2196.199951171875</ele>
        <time>2026-06-19T11:20:57.000Z</time>
        <extensions>
          <ns3:TrackPointExtension>
            <ns3:atemp>18.0</ns3:atemp>
          </ns3:TrackPointExtension>
        </extensions>
      </trkpt>
      <trkpt lat="42.55922994576394557952880859375" lon="20.05637012422084808349609375">
        <ele>2196.199951171875</ele>
        <time>2026-06-19T11:20:58.000Z</time>
        <extensions>
          <ns3:TrackPointExtension>
            <ns3:atemp>18.0</ns3:atemp>
          </ns3:TrackPointExtension>
        </extensions>
      </trkpt>
      <trkpt lat="42.55922994576394557952880859375" lon="20.05637012422084808349609375">
        <ele>2196.199951171875</ele>
        <time>2026-06-19T11:20:59.000Z</time>
        <extensions>
          <ns3:TrackPointExtension>
            <ns3:atemp>18.0</ns3:atemp>
          </ns3:TrackPointExtension>
        </extensions>
      </trkpt>
      <trkpt lat="42.55922994576394557952880859375" lon="20.05637012422084808349609375">
        <ele>2196.199951171875</ele>
        <time>2026-06-19T11:21:00.000Z</time>
        <extensions>
          <ns3:TrackPointExtension>
            <ns3:atemp>18.0</ns3:atemp>
          </ns3:TrackPointExtension>
        </extensions>
      </trkpt>
      <trkpt lat="42.55922994576394557952880859375" lon="20.05637012422084808349609375">
        <ele>2196.199951171875</ele>
        <time>2026-06-19T11:21:01.000Z</time>
        <extensions>
          <ns3:TrackPointExtension>
            <ns3:atemp>18.0</ns3:atemp>
          </ns3:TrackPointExtension>
        </extensions>
      </trkpt>
      <trkpt lat="42.55922994576394557952880859375" lon="20.05637012422084808349609375">
        <ele>2196.199951171875</ele>
        <time>2026-06-19T11:21:02.000Z</time>
        <extensions>
          <ns3:TrackPointExtension>
            <ns3:atemp>18.0</ns3:atemp>
          </ns3:TrackPointExtension>
        </extensions>
      </trkpt>
      <trkpt lat="42.55922994576394557952880859375" lon="20.05637012422084808349609375">
        <ele>2196.199951171875</ele>
        <time>2026-06-19T11:21:03.000Z</time>
        <extensions>
          <ns3:TrackPointExtension>
            <ns3:atemp>18.0</ns3:atemp>
          </ns3:TrackPointExtension>
        </extensions>
      </trkpt>
      <trkpt lat="42.55922994576394557952880859375" lon="20.05637012422084808349609375">
        <ele>2196.199951171875</ele>
        <time>2026-06-19T11:21:04.000Z</time>
        <extensions>
          <ns3:TrackPointExtension>
            <ns3:atemp>18.0</ns3:atemp>
          </ns3:TrackPointExtension>
        </extensions>
      </trkpt>
      <trkpt lat="42.55922994576394557952880859375" lon="20.05637012422084808349609375">
        <ele>2196.199951171875</ele>
        <time>2026-06-19T11:21:05.000Z</time>
        <extensions>
          <ns3:TrackPointExtension>
            <ns3:atemp>18.0</ns3:atemp>
          </ns3:TrackPointExtension>
        </extensions>
      </trkpt>
      <trkpt lat="42.55922994576394557952880859375" lon="20.05637012422084808349609375">
        <ele>2196.199951171875</ele>
        <time>2026-06-19T11:21:06.000Z</time>
        <extensions>
          <ns3:TrackPointExtension>
            <ns3:atemp>18.0</ns3:atemp>
          </ns3:TrackPointExtension>
        </extensions>
      </trkpt>
      <trkpt lat="42.55922994576394557952880859375" lon="20.05637012422084808349609375">
        <ele>2196.199951171875</ele>
        <time>2026-06-19T11:21:07.000Z</time>
        <extensions>
          <ns3:TrackPointExtension>
            <ns3:atemp>18.0</ns3:atemp>
          </ns3:TrackPointExtension>
        </extensions>
      </trkpt>
      <trkpt lat="42.55922994576394557952880859375" lon="20.05637012422084808349609375">
        <ele>2196.199951171875</ele>
        <time>2026-06-19T11:21:08.000Z</time>
        <extensions>
          <ns3:TrackPointExtension>
            <ns3:atemp>18.0</ns3:atemp>
          </ns3:TrackPointExtension>
        </extensions>
      </trkpt>
      <trkpt lat="42.55922994576394557952880859375" lon="20.05637012422084808349609375">
        <ele>2196.199951171875</ele>
        <time>2026-06-19T11:21:09.000Z</time>
        <extensions>
          <ns3:TrackPointExtension>
            <ns3:atemp>18.0</ns3:atemp>
          </ns3:TrackPointExtension>
        </extensions>
      </trkpt>
      <trkpt lat="42.55922994576394557952880859375" lon="20.05637012422084808349609375">
        <ele>2196.199951171875</ele>
        <time>2026-06-19T11:21:10.000Z</time>
        <extensions>
          <ns3:TrackPointExtension>
            <ns3:atemp>18.0</ns3:atemp>
          </ns3:TrackPointExtension>
        </extensions>
      </trkpt>
      <trkpt lat="42.55922994576394557952880859375" lon="20.05637012422084808349609375">
        <ele>2196.199951171875</ele>
        <time>2026-06-19T11:21:11.000Z</time>
        <extensions>
          <ns3:TrackPointExtension>
            <ns3:atemp>18.0</ns3:atemp>
          </ns3:TrackPointExtension>
        </extensions>
      </trkpt>
      <trkpt lat="42.55922994576394557952880859375" lon="20.05637012422084808349609375">
        <ele>2196.199951171875</ele>
        <time>2026-06-19T11:21:12.000Z</time>
        <extensions>
          <ns3:TrackPointExtension>
            <ns3:atemp>18.0</ns3:atemp>
          </ns3:TrackPointExtension>
        </extensions>
      </trkpt>
      <trkpt lat="42.55922994576394557952880859375" lon="20.05637012422084808349609375">
        <ele>2196.199951171875</ele>
        <time>2026-06-19T11:21:13.000Z</time>
        <extensions>
          <ns3:TrackPointExtension>
            <ns3:atemp>18.0</ns3:atemp>
          </ns3:TrackPointExtension>
        </extensions>
      </trkpt>
      <trkpt lat="42.55922994576394557952880859375" lon="20.05637012422084808349609375">
        <ele>2196.199951171875</ele>
        <time>2026-06-19T11:21:14.000Z</time>
        <extensions>
          <ns3:TrackPointExtension>
            <ns3:atemp>18.0</ns3:atemp>
          </ns3:TrackPointExtension>
        </extensions>
      </trkpt>
      <trkpt lat="42.55922994576394557952880859375" lon="20.05637012422084808349609375">
        <ele>2196.199951171875</ele>
        <time>2026-06-19T11:21:15.000Z</time>
        <extensions>
          <ns3:TrackPointExtension>
            <ns3:atemp>18.0</ns3:atemp>
          </ns3:TrackPointExtension>
        </extensions>
      </trkpt>
      <trkpt lat="42.55922994576394557952880859375" lon="20.05637012422084808349609375">
        <ele>2196.199951171875</ele>
        <time>2026-06-19T11:21:16.000Z</time>
        <extensions>
          <ns3:TrackPointExtension>
            <ns3:atemp>18.0</ns3:atemp>
          </ns3:TrackPointExtension>
        </extensions>
      </trkpt>
      <trkpt lat="42.55922994576394557952880859375" lon="20.05637012422084808349609375">
        <ele>2196.199951171875</ele>
        <time>2026-06-19T11:21:17.000Z</time>
        <extensions>
          <ns3:TrackPointExtension>
            <ns3:atemp>18.0</ns3:atemp>
          </ns3:TrackPointExtension>
        </extensions>
      </trkpt>
      <trkpt lat="42.55922994576394557952880859375" lon="20.05637012422084808349609375">
        <ele>2196.199951171875</ele>
        <time>2026-06-19T11:21:18.000Z</time>
        <extensions>
          <ns3:TrackPointExtension>
            <ns3:atemp>18.0</ns3:atemp>
          </ns3:TrackPointExtension>
        </extensions>
      </trkpt>
      <trkpt lat="42.55922994576394557952880859375" lon="20.05637012422084808349609375">
        <ele>2196.199951171875</ele>
        <time>2026-06-19T11:21:19.000Z</time>
        <extensions>
          <ns3:TrackPointExtension>
            <ns3:atemp>18.0</ns3:atemp>
          </ns3:TrackPointExtension>
        </extensions>
      </trkpt>
      <trkpt lat="42.55922994576394557952880859375" lon="20.05637012422084808349609375">
        <ele>2196.199951171875</ele>
        <time>2026-06-19T11:21:20.000Z</time>
        <extensions>
          <ns3:TrackPointExtension>
            <ns3:atemp>18.0</ns3:atemp>
          </ns3:TrackPointExtension>
        </extensions>
      </trkpt>
      <trkpt lat="42.55922994576394557952880859375" lon="20.05637012422084808349609375">
        <ele>2196.199951171875</ele>
        <time>2026-06-19T11:21:21.000Z</time>
        <extensions>
          <ns3:TrackPointExtension>
            <ns3:atemp>18.0</ns3:atemp>
          </ns3:TrackPointExtension>
        </extensions>
      </trkpt>
      <trkpt lat="42.55922994576394557952880859375" lon="20.05637012422084808349609375">
        <ele>2196.199951171875</ele>
        <time>2026-06-19T11:21:22.000Z</time>
        <extensions>
          <ns3:TrackPointExtension>
            <ns3:atemp>18.0</ns3:atemp>
          </ns3:TrackPointExtension>
        </extensions>
      </trkpt>
      <trkpt lat="42.55922994576394557952880859375" lon="20.05637012422084808349609375">
        <ele>2196.199951171875</ele>
        <time>2026-06-19T11:21:23.000Z</time>
        <extensions>
          <ns3:TrackPointExtension>
            <ns3:atemp>18.0</ns3:atemp>
          </ns3:TrackPointExtension>
        </extensions>
      </trkpt>
      <trkpt lat="42.55922994576394557952880859375" lon="20.05637012422084808349609375">
        <ele>2196.199951171875</ele>
        <time>2026-06-19T11:21:24.000Z</time>
        <extensions>
          <ns3:TrackPointExtension>
            <ns3:atemp>18.0</ns3:atemp>
          </ns3:TrackPointExtension>
        </extensions>
      </trkpt>
      <trkpt lat="42.55922994576394557952880859375" lon="20.05637012422084808349609375">
        <ele>2196.199951171875</ele>
        <time>2026-06-19T11:21:25.000Z</time>
        <extensions>
          <ns3:TrackPointExtension>
            <ns3:atemp>18.0</ns3:atemp>
          </ns3:TrackPointExtension>
        </extensions>
      </trkpt>
      <trkpt lat="42.55922994576394557952880859375" lon="20.05637012422084808349609375">
        <ele>2196.199951171875</ele>
        <time>2026-06-19T11:21:26.000Z</time>
        <extensions>
          <ns3:TrackPointExtension>
            <ns3:atemp>18.0</ns3:atemp>
          </ns3:TrackPointExtension>
        </extensions>
      </trkpt>
      <trkpt lat="42.55922994576394557952880859375" lon="20.05637012422084808349609375">
        <ele>2196.199951171875</ele>
        <time>2026-06-19T11:21:27.000Z</time>
        <extensions>
          <ns3:TrackPointExtension>
            <ns3:atemp>18.0</ns3:atemp>
          </ns3:TrackPointExtension>
        </extensions>
      </trkpt>
      <trkpt lat="42.55922994576394557952880859375" lon="20.05637012422084808349609375">
        <ele>2196.199951171875</ele>
        <time>2026-06-19T11:21:28.000Z</time>
        <extensions>
          <ns3:TrackPointExtension>
            <ns3:atemp>18.0</ns3:atemp>
          </ns3:TrackPointExtension>
        </extensions>
      </trkpt>
      <trkpt lat="42.55922994576394557952880859375" lon="20.05637012422084808349609375">
        <ele>2196.199951171875</ele>
        <time>2026-06-19T11:21:29.000Z</time>
        <extensions>
          <ns3:TrackPointExtension>
            <ns3:atemp>18.0</ns3:atemp>
          </ns3:TrackPointExtension>
        </extensions>
      </trkpt>
      <trkpt lat="42.55922994576394557952880859375" lon="20.05637012422084808349609375">
        <ele>2196.199951171875</ele>
        <time>2026-06-19T11:21:30.000Z</time>
        <extensions>
          <ns3:TrackPointExtension>
            <ns3:atemp>18.0</ns3:atemp>
          </ns3:TrackPointExtension>
        </extensions>
      </trkpt>
      <trkpt lat="42.55922994576394557952880859375" lon="20.05637012422084808349609375">
        <ele>2196.199951171875</ele>
        <time>2026-06-19T11:21:31.000Z</time>
        <extensions>
          <ns3:TrackPointExtension>
            <ns3:atemp>18.0</ns3:atemp>
          </ns3:TrackPointExtension>
        </extensions>
      </trkpt>
      <trkpt lat="42.55922994576394557952880859375" lon="20.05637012422084808349609375">
        <ele>2196.199951171875</ele>
        <time>2026-06-19T11:21:32.000Z</time>
        <extensions>
          <ns3:TrackPointExtension>
            <ns3:atemp>18.0</ns3:atemp>
          </ns3:TrackPointExtension>
        </extensions>
      </trkpt>
      <trkpt lat="42.55922994576394557952880859375" lon="20.05637012422084808349609375">
        <ele>2196.199951171875</ele>
        <time>2026-06-19T11:21:33.000Z</time>
        <extensions>
          <ns3:TrackPointExtension>
            <ns3:atemp>18.0</ns3:atemp>
          </ns3:TrackPointExtension>
        </extensions>
      </trkpt>
      <trkpt lat="42.55922994576394557952880859375" lon="20.05637012422084808349609375">
        <ele>2196.199951171875</ele>
        <time>2026-06-19T11:21:34.000Z</time>
        <extensions>
          <ns3:TrackPointExtension>
            <ns3:atemp>18.0</ns3:atemp>
          </ns3:TrackPointExtension>
        </extensions>
      </trkpt>
      <trkpt lat="42.55922994576394557952880859375" lon="20.05637012422084808349609375">
        <ele>2196.199951171875</ele>
        <time>2026-06-19T11:21:35.000Z</time>
        <extensions>
          <ns3:TrackPointExtension>
            <ns3:atemp>18.0</ns3:atemp>
          </ns3:TrackPointExtension>
        </extensions>
      </trkpt>
      <trkpt lat="42.55922994576394557952880859375" lon="20.05637012422084808349609375">
        <ele>2196.199951171875</ele>
        <time>2026-06-19T11:21:36.000Z</time>
        <extensions>
          <ns3:TrackPointExtension>
            <ns3:atemp>18.0</ns3:atemp>
          </ns3:TrackPointExtension>
        </extensions>
      </trkpt>
      <trkpt lat="42.55922994576394557952880859375" lon="20.05637012422084808349609375">
        <ele>2196.199951171875</ele>
        <time>2026-06-19T11:21:37.000Z</time>
        <extensions>
          <ns3:TrackPointExtension>
            <ns3:atemp>18.0</ns3:atemp>
          </ns3:TrackPointExtension>
        </extensions>
      </trkpt>
      <trkpt lat="42.55922994576394557952880859375" lon="20.05637012422084808349609375">
        <ele>2196.199951171875</ele>
        <time>2026-06-19T11:21:38.000Z</time>
        <extensions>
          <ns3:TrackPointExtension>
            <ns3:atemp>18.0</ns3:atemp>
          </ns3:TrackPointExtension>
        </extensions>
      </trkpt>
      <trkpt lat="42.55922994576394557952880859375" lon="20.05637012422084808349609375">
        <ele>2196.199951171875</ele>
        <time>2026-06-19T11:21:39.000Z</time>
        <extensions>
          <ns3:TrackPointExtension>
            <ns3:atemp>18.0</ns3:atemp>
          </ns3:TrackPointExtension>
        </extensions>
      </trkpt>
      <trkpt lat="42.55922994576394557952880859375" lon="20.05637012422084808349609375">
        <ele>2196.199951171875</ele>
        <time>2026-06-19T11:21:40.000Z</time>
        <extensions>
          <ns3:TrackPointExtension>
            <ns3:atemp>18.0</ns3:atemp>
          </ns3:TrackPointExtension>
        </extensions>
      </trkpt>
      <trkpt lat="42.55922994576394557952880859375" lon="20.05637012422084808349609375">
        <ele>2196.199951171875</ele>
        <time>2026-06-19T11:21:41.000Z</time>
        <extensions>
          <ns3:TrackPointExtension>
            <ns3:atemp>18.0</ns3:atemp>
          </ns3:TrackPointExtension>
        </extensions>
      </trkpt>
      <trkpt lat="42.55922994576394557952880859375" lon="20.05637012422084808349609375">
        <ele>2196.199951171875</ele>
        <time>2026-06-19T11:21:42.000Z</time>
        <extensions>
          <ns3:TrackPointExtension>
            <ns3:atemp>18.0</ns3:atemp>
          </ns3:TrackPointExtension>
        </extensions>
      </trkpt>
      <trkpt lat="42.55922994576394557952880859375" lon="20.05637012422084808349609375">
        <ele>2196.199951171875</ele>
        <time>2026-06-19T11:21:43.000Z</time>
        <extensions>
          <ns3:TrackPointExtension>
            <ns3:atemp>18.0</ns3:atemp>
          </ns3:TrackPointExtension>
        </extensions>
      </trkpt>
      <trkpt lat="42.55922994576394557952880859375" lon="20.05637012422084808349609375">
        <ele>2196.199951171875</ele>
        <time>2026-06-19T11:21:44.000Z</time>
        <extensions>
          <ns3:TrackPointExtension>
            <ns3:atemp>18.0</ns3:atemp>
          </ns3:TrackPointExtension>
        </extensions>
      </trkpt>
      <trkpt lat="42.55922994576394557952880859375" lon="20.05637012422084808349609375">
        <ele>2196.199951171875</ele>
        <time>2026-06-19T11:21:45.000Z</time>
        <extensions>
          <ns3:TrackPointExtension>
            <ns3:atemp>18.0</ns3:atemp>
          </ns3:TrackPointExtension>
        </extensions>
      </trkpt>
      <trkpt lat="42.55922994576394557952880859375" lon="20.05637012422084808349609375">
        <ele>2196.199951171875</ele>
        <time>2026-06-19T11:21:46.000Z</time>
        <extensions>
          <ns3:TrackPointExtension>
            <ns3:atemp>18.0</ns3:atemp>
          </ns3:TrackPointExtension>
        </extensions>
      </trkpt>
      <trkpt lat="42.55922994576394557952880859375" lon="20.05637012422084808349609375">
        <ele>2196.199951171875</ele>
        <time>2026-06-19T11:21:47.000Z</time>
        <extensions>
          <ns3:TrackPointExtension>
            <ns3:atemp>18.0</ns3:atemp>
          </ns3:TrackPointExtension>
        </extensions>
      </trkpt>
      <trkpt lat="42.55922994576394557952880859375" lon="20.05637012422084808349609375">
        <ele>2196.199951171875</ele>
        <time>2026-06-19T11:21:48.000Z</time>
        <extensions>
          <ns3:TrackPointExtension>
            <ns3:atemp>18.0</ns3:atemp>
          </ns3:TrackPointExtension>
        </extensions>
      </trkpt>
      <trkpt lat="42.55922994576394557952880859375" lon="20.05637012422084808349609375">
        <ele>2196.199951171875</ele>
        <time>2026-06-19T11:21:49.000Z</time>
        <extensions>
          <ns3:TrackPointExtension>
            <ns3:atemp>18.0</ns3:atemp>
          </ns3:TrackPointExtension>
        </extensions>
      </trkpt>
      <trkpt lat="42.55922994576394557952880859375" lon="20.05637012422084808349609375">
        <ele>2196.199951171875</ele>
        <time>2026-06-19T11:21:50.000Z</time>
        <extensions>
          <ns3:TrackPointExtension>
            <ns3:atemp>18.0</ns3:atemp>
          </ns3:TrackPointExtension>
        </extensions>
      </trkpt>
      <trkpt lat="42.55922994576394557952880859375" lon="20.05637012422084808349609375">
        <ele>2196.199951171875</ele>
        <time>2026-06-19T11:21:51.000Z</time>
        <extensions>
          <ns3:TrackPointExtension>
            <ns3:atemp>18.0</ns3:atemp>
          </ns3:TrackPointExtension>
        </extensions>
      </trkpt>
      <trkpt lat="42.55922994576394557952880859375" lon="20.05637012422084808349609375">
        <ele>2196.199951171875</ele>
        <time>2026-06-19T11:21:52.000Z</time>
        <extensions>
          <ns3:TrackPointExtension>
            <ns3:atemp>18.0</ns3:atemp>
          </ns3:TrackPointExtension>
        </extensions>
      </trkpt>
      <trkpt lat="42.55922994576394557952880859375" lon="20.05637012422084808349609375">
        <ele>2196.199951171875</ele>
        <time>2026-06-19T11:21:53.000Z</time>
        <extensions>
          <ns3:TrackPointExtension>
            <ns3:atemp>18.0</ns3:atemp>
          </ns3:TrackPointExtension>
        </extensions>
      </trkpt>
      <trkpt lat="42.55922994576394557952880859375" lon="20.05637012422084808349609375">
        <ele>2196.199951171875</ele>
        <time>2026-06-19T11:21:54.000Z</time>
        <extensions>
          <ns3:TrackPointExtension>
            <ns3:atemp>18.0</ns3:atemp>
          </ns3:TrackPointExtension>
        </extensions>
      </trkpt>
      <trkpt lat="42.55922994576394557952880859375" lon="20.05637012422084808349609375">
        <ele>2196.199951171875</ele>
        <time>2026-06-19T11:21:55.000Z</time>
        <extensions>
          <ns3:TrackPointExtension>
            <ns3:atemp>18.0</ns3:atemp>
          </ns3:TrackPointExtension>
        </extensions>
      </trkpt>
      <trkpt lat="42.55922994576394557952880859375" lon="20.05637012422084808349609375">
        <ele>2196.199951171875</ele>
        <time>2026-06-19T11:21:56.000Z</time>
        <extensions>
          <ns3:TrackPointExtension>
            <ns3:atemp>18.0</ns3:atemp>
          </ns3:TrackPointExtension>
        </extensions>
      </trkpt>
      <trkpt lat="42.55922994576394557952880859375" lon="20.05637012422084808349609375">
        <ele>2196.199951171875</ele>
        <time>2026-06-19T11:21:57.000Z</time>
        <extensions>
          <ns3:TrackPointExtension>
            <ns3:atemp>18.0</ns3:atemp>
          </ns3:TrackPointExtension>
        </extensions>
      </trkpt>
      <trkpt lat="42.55922994576394557952880859375" lon="20.05637012422084808349609375">
        <ele>2196.199951171875</ele>
        <time>2026-06-19T11:21:58.000Z</time>
        <extensions>
          <ns3:TrackPointExtension>
            <ns3:atemp>18.0</ns3:atemp>
          </ns3:TrackPointExtension>
        </extensions>
      </trkpt>
      <trkpt lat="42.55922994576394557952880859375" lon="20.05637012422084808349609375">
        <ele>2196.199951171875</ele>
        <time>2026-06-19T11:21:59.000Z</time>
        <extensions>
          <ns3:TrackPointExtension>
            <ns3:atemp>18.0</ns3:atemp>
          </ns3:TrackPointExtension>
        </extensions>
      </trkpt>
      <trkpt lat="42.55922994576394557952880859375" lon="20.05637012422084808349609375">
        <ele>2196.199951171875</ele>
        <time>2026-06-19T11:22:00.000Z</time>
        <extensions>
          <ns3:TrackPointExtension>
            <ns3:atemp>18.0</ns3:atemp>
          </ns3:TrackPointExtension>
        </extensions>
      </trkpt>
      <trkpt lat="42.55922994576394557952880859375" lon="20.05637012422084808349609375">
        <ele>2196.199951171875</ele>
        <time>2026-06-19T11:22:01.000Z</time>
        <extensions>
          <ns3:TrackPointExtension>
            <ns3:atemp>18.0</ns3:atemp>
          </ns3:TrackPointExtension>
        </extensions>
      </trkpt>
      <trkpt lat="42.55922994576394557952880859375" lon="20.05637012422084808349609375">
        <ele>2196.199951171875</ele>
        <time>2026-06-19T11:22:02.000Z</time>
        <extensions>
          <ns3:TrackPointExtension>
            <ns3:atemp>18.0</ns3:atemp>
          </ns3:TrackPointExtension>
        </extensions>
      </trkpt>
      <trkpt lat="42.55922994576394557952880859375" lon="20.05637012422084808349609375">
        <ele>2196.199951171875</ele>
        <time>2026-06-19T11:22:03.000Z</time>
        <extensions>
          <ns3:TrackPointExtension>
            <ns3:atemp>18.0</ns3:atemp>
          </ns3:TrackPointExtension>
        </extensions>
      </trkpt>
      <trkpt lat="42.55922994576394557952880859375" lon="20.05637012422084808349609375">
        <ele>2196.199951171875</ele>
        <time>2026-06-19T11:22:04.000Z</time>
        <extensions>
          <ns3:TrackPointExtension>
            <ns3:atemp>18.0</ns3:atemp>
          </ns3:TrackPointExtension>
        </extensions>
      </trkpt>
      <trkpt lat="42.55922994576394557952880859375" lon="20.05637012422084808349609375">
        <ele>2196.199951171875</ele>
        <time>2026-06-19T11:22:05.000Z</time>
        <extensions>
          <ns3:TrackPointExtension>
            <ns3:atemp>18.0</ns3:atemp>
          </ns3:TrackPointExtension>
        </extensions>
      </trkpt>
      <trkpt lat="42.55922994576394557952880859375" lon="20.05637012422084808349609375">
        <ele>2196.199951171875</ele>
        <time>2026-06-19T11:22:06.000Z</time>
        <extensions>
          <ns3:TrackPointExtension>
            <ns3:atemp>18.0</ns3:atemp>
          </ns3:TrackPointExtension>
        </extensions>
      </trkpt>
      <trkpt lat="42.55922994576394557952880859375" lon="20.05637012422084808349609375">
        <ele>2196.199951171875</ele>
        <time>2026-06-19T11:22:07.000Z</time>
        <extensions>
          <ns3:TrackPointExtension>
            <ns3:atemp>18.0</ns3:atemp>
          </ns3:TrackPointExtension>
        </extensions>
      </trkpt>
      <trkpt lat="42.55922994576394557952880859375" lon="20.05637012422084808349609375">
        <ele>2196.199951171875</ele>
        <time>2026-06-19T11:22:08.000Z</time>
        <extensions>
          <ns3:TrackPointExtension>
            <ns3:atemp>18.0</ns3:atemp>
          </ns3:TrackPointExtension>
        </extensions>
      </trkpt>
      <trkpt lat="42.55922994576394557952880859375" lon="20.05637012422084808349609375">
        <ele>2196.199951171875</ele>
        <time>2026-06-19T11:22:09.000Z</time>
        <extensions>
          <ns3:TrackPointExtension>
            <ns3:atemp>18.0</ns3:atemp>
          </ns3:TrackPointExtension>
        </extensions>
      </trkpt>
      <trkpt lat="42.55922994576394557952880859375" lon="20.05637012422084808349609375">
        <ele>2196.199951171875</ele>
        <time>2026-06-19T11:22:10.000Z</time>
        <extensions>
          <ns3:TrackPointExtension>
            <ns3:atemp>18.0</ns3:atemp>
          </ns3:TrackPointExtension>
        </extensions>
      </trkpt>
      <trkpt lat="42.55922994576394557952880859375" lon="20.05637012422084808349609375">
        <ele>2196.199951171875</ele>
        <time>2026-06-19T11:22:11.000Z</time>
        <extensions>
          <ns3:TrackPointExtension>
            <ns3:atemp>18.0</ns3:atemp>
          </ns3:TrackPointExtension>
        </extensions>
      </trkpt>
      <trkpt lat="42.55922994576394557952880859375" lon="20.05637012422084808349609375">
        <ele>2196.199951171875</ele>
        <time>2026-06-19T11:22:12.000Z</time>
        <extensions>
          <ns3:TrackPointExtension>
            <ns3:atemp>18.0</ns3:atemp>
          </ns3:TrackPointExtension>
        </extensions>
      </trkpt>
      <trkpt lat="42.55922994576394557952880859375" lon="20.05637012422084808349609375">
        <ele>2196.199951171875</ele>
        <time>2026-06-19T11:22:13.000Z</time>
        <extensions>
          <ns3:TrackPointExtension>
            <ns3:atemp>18.0</ns3:atemp>
          </ns3:TrackPointExtension>
        </extensions>
      </trkpt>
      <trkpt lat="42.55922994576394557952880859375" lon="20.05637012422084808349609375">
        <ele>2196.199951171875</ele>
        <time>2026-06-19T11:22:14.000Z</time>
        <extensions>
          <ns3:TrackPointExtension>
            <ns3:atemp>18.0</ns3:atemp>
          </ns3:TrackPointExtension>
        </extensions>
      </trkpt>
      <trkpt lat="42.55922994576394557952880859375" lon="20.05637012422084808349609375">
        <ele>2196.199951171875</ele>
        <time>2026-06-19T11:22:15.000Z</time>
        <extensions>
          <ns3:TrackPointExtension>
            <ns3:atemp>18.0</ns3:atemp>
          </ns3:TrackPointExtension>
        </extensions>
      </trkpt>
      <trkpt lat="42.55922994576394557952880859375" lon="20.05637012422084808349609375">
        <ele>2196.199951171875</ele>
        <time>2026-06-19T11:22:16.000Z</time>
        <extensions>
          <ns3:TrackPointExtension>
            <ns3:atemp>18.0</ns3:atemp>
          </ns3:TrackPointExtension>
        </extensions>
      </trkpt>
      <trkpt lat="42.55922994576394557952880859375" lon="20.05637012422084808349609375">
        <ele>2196.199951171875</ele>
        <time>2026-06-19T11:22:17.000Z</time>
        <extensions>
          <ns3:TrackPointExtension>
            <ns3:atemp>18.0</ns3:atemp>
          </ns3:TrackPointExtension>
        </extensions>
      </trkpt>
      <trkpt lat="42.55922994576394557952880859375" lon="20.05637012422084808349609375">
        <ele>2196.199951171875</ele>
        <time>2026-06-19T11:22:18.000Z</time>
        <extensions>
          <ns3:TrackPointExtension>
            <ns3:atemp>18.0</ns3:atemp>
          </ns3:TrackPointExtension>
        </extensions>
      </trkpt>
      <trkpt lat="42.55922994576394557952880859375" lon="20.05637012422084808349609375">
        <ele>2196.199951171875</ele>
        <time>2026-06-19T11:22:19.000Z</time>
        <extensions>
          <ns3:TrackPointExtension>
            <ns3:atemp>18.0</ns3:atemp>
          </ns3:TrackPointExtension>
        </extensions>
      </trkpt>
      <trkpt lat="42.55922994576394557952880859375" lon="20.05637012422084808349609375">
        <ele>2196.199951171875</ele>
        <time>2026-06-19T11:22:20.000Z</time>
        <extensions>
          <ns3:TrackPointExtension>
            <ns3:atemp>18.0</ns3:atemp>
          </ns3:TrackPointExtension>
        </extensions>
      </trkpt>
      <trkpt lat="42.55922994576394557952880859375" lon="20.05637012422084808349609375">
        <ele>2196.199951171875</ele>
        <time>2026-06-19T11:22:21.000Z</time>
        <extensions>
          <ns3:TrackPointExtension>
            <ns3:atemp>18.0</ns3:atemp>
          </ns3:TrackPointExtension>
        </extensions>
      </trkpt>
      <trkpt lat="42.55922994576394557952880859375" lon="20.05637012422084808349609375">
        <ele>2196.199951171875</ele>
        <time>2026-06-19T11:22:22.000Z</time>
        <extensions>
          <ns3:TrackPointExtension>
            <ns3:atemp>18.0</ns3:atemp>
          </ns3:TrackPointExtension>
        </extensions>
      </trkpt>
      <trkpt lat="42.55922994576394557952880859375" lon="20.05637012422084808349609375">
        <ele>2196.199951171875</ele>
        <time>2026-06-19T11:22:23.000Z</time>
        <extensions>
          <ns3:TrackPointExtension>
            <ns3:atemp>18.0</ns3:atemp>
          </ns3:TrackPointExtension>
        </extensions>
      </trkpt>
      <trkpt lat="42.55922994576394557952880859375" lon="20.05637012422084808349609375">
        <ele>2196.199951171875</ele>
        <time>2026-06-19T11:22:24.000Z</time>
        <extensions>
          <ns3:TrackPointExtension>
            <ns3:atemp>18.0</ns3:atemp>
          </ns3:TrackPointExtension>
        </extensions>
      </trkpt>
      <trkpt lat="42.55922994576394557952880859375" lon="20.05637012422084808349609375">
        <ele>2196.199951171875</ele>
        <time>2026-06-19T11:22:25.000Z</time>
        <extensions>
          <ns3:TrackPointExtension>
            <ns3:atemp>18.0</ns3:atemp>
          </ns3:TrackPointExtension>
        </extensions>
      </trkpt>
      <trkpt lat="42.55922994576394557952880859375" lon="20.05637012422084808349609375">
        <ele>2196.199951171875</ele>
        <time>2026-06-19T11:22:26.000Z</time>
        <extensions>
          <ns3:TrackPointExtension>
            <ns3:atemp>18.0</ns3:atemp>
          </ns3:TrackPointExtension>
        </extensions>
      </trkpt>
      <trkpt lat="42.55922994576394557952880859375" lon="20.05637012422084808349609375">
        <ele>2196.199951171875</ele>
        <time>2026-06-19T11:22:27.000Z</time>
        <extensions>
          <ns3:TrackPointExtension>
            <ns3:atemp>18.0</ns3:atemp>
          </ns3:TrackPointExtension>
        </extensions>
      </trkpt>
      <trkpt lat="42.55922994576394557952880859375" lon="20.05637012422084808349609375">
        <ele>2196.199951171875</ele>
        <time>2026-06-19T11:22:28.000Z</time>
        <extensions>
          <ns3:TrackPointExtension>
            <ns3:atemp>18.0</ns3:atemp>
          </ns3:TrackPointExtension>
        </extensions>
      </trkpt>
      <trkpt lat="42.55922994576394557952880859375" lon="20.05637012422084808349609375">
        <ele>2196.199951171875</ele>
        <time>2026-06-19T11:22:29.000Z</time>
        <extensions>
          <ns3:TrackPointExtension>
            <ns3:atemp>18.0</ns3:atemp>
          </ns3:TrackPointExtension>
        </extensions>
      </trkpt>
      <trkpt lat="42.55922994576394557952880859375" lon="20.05637012422084808349609375">
        <ele>2196.199951171875</ele>
        <time>2026-06-19T11:22:30.000Z</time>
        <extensions>
          <ns3:TrackPointExtension>
            <ns3:atemp>18.0</ns3:atemp>
          </ns3:TrackPointExtension>
        </extensions>
      </trkpt>
      <trkpt lat="42.55922994576394557952880859375" lon="20.05637012422084808349609375">
        <ele>2196.199951171875</ele>
        <time>2026-06-19T11:22:31.000Z</time>
        <extensions>
          <ns3:TrackPointExtension>
            <ns3:atemp>18.0</ns3:atemp>
          </ns3:TrackPointExtension>
        </extensions>
      </trkpt>
      <trkpt lat="42.55922994576394557952880859375" lon="20.05637012422084808349609375">
        <ele>2196.199951171875</ele>
        <time>2026-06-19T11:22:32.000Z</time>
        <extensions>
          <ns3:TrackPointExtension>
            <ns3:atemp>18.0</ns3:atemp>
          </ns3:TrackPointExtension>
        </extensions>
      </trkpt>
      <trkpt lat="42.55922994576394557952880859375" lon="20.05637012422084808349609375">
        <ele>2196.199951171875</ele>
        <time>2026-06-19T11:22:33.000Z</time>
        <extensions>
          <ns3:TrackPointExtension>
            <ns3:atemp>18.0</ns3:atemp>
          </ns3:TrackPointExtension>
        </extensions>
      </trkpt>
      <trkpt lat="42.55922994576394557952880859375" lon="20.05637012422084808349609375">
        <ele>2196.199951171875</ele>
        <time>2026-06-19T11:22:34.000Z</time>
        <extensions>
          <ns3:TrackPointExtension>
            <ns3:atemp>18.0</ns3:atemp>
          </ns3:TrackPointExtension>
        </extensions>
      </trkpt>
      <trkpt lat="42.55922994576394557952880859375" lon="20.05637012422084808349609375">
        <ele>2196.199951171875</ele>
        <time>2026-06-19T11:22:35.000Z</time>
        <extensions>
          <ns3:TrackPointExtension>
            <ns3:atemp>18.0</ns3:atemp>
          </ns3:TrackPointExtension>
        </extensions>
      </trkpt>
      <trkpt lat="42.55922994576394557952880859375" lon="20.05637012422084808349609375">
        <ele>2196.199951171875</ele>
        <time>2026-06-19T11:22:36.000Z</time>
        <extensions>
          <ns3:TrackPointExtension>
            <ns3:atemp>18.0</ns3:atemp>
          </ns3:TrackPointExtension>
        </extensions>
      </trkpt>
      <trkpt lat="42.55922994576394557952880859375" lon="20.05637012422084808349609375">
        <ele>2196.199951171875</ele>
        <time>2026-06-19T11:22:37.000Z</time>
        <extensions>
          <ns3:TrackPointExtension>
            <ns3:atemp>18.0</ns3:atemp>
          </ns3:TrackPointExtension>
        </extensions>
      </trkpt>
      <trkpt lat="42.55922994576394557952880859375" lon="20.05637012422084808349609375">
        <ele>2196.199951171875</ele>
        <time>2026-06-19T11:22:38.000Z</time>
        <extensions>
          <ns3:TrackPointExtension>
            <ns3:atemp>18.0</ns3:atemp>
          </ns3:TrackPointExtension>
        </extensions>
      </trkpt>
      <trkpt lat="42.55922994576394557952880859375" lon="20.05637012422084808349609375">
        <ele>2196.199951171875</ele>
        <time>2026-06-19T11:22:39.000Z</time>
        <extensions>
          <ns3:TrackPointExtension>
            <ns3:atemp>18.0</ns3:atemp>
          </ns3:TrackPointExtension>
        </extensions>
      </trkpt>
      <trkpt lat="42.55922994576394557952880859375" lon="20.05637012422084808349609375">
        <ele>2196.199951171875</ele>
        <time>2026-06-19T11:22:40.000Z</time>
        <extensions>
          <ns3:TrackPointExtension>
            <ns3:atemp>18.0</ns3:atemp>
          </ns3:TrackPointExtension>
        </extensions>
      </trkpt>
      <trkpt lat="42.55922994576394557952880859375" lon="20.05637012422084808349609375">
        <ele>2196.199951171875</ele>
        <time>2026-06-19T11:22:41.000Z</time>
        <extensions>
          <ns3:TrackPointExtension>
            <ns3:atemp>18.0</ns3:atemp>
          </ns3:TrackPointExtension>
        </extensions>
      </trkpt>
      <trkpt lat="42.55922994576394557952880859375" lon="20.05637012422084808349609375">
        <ele>2196.199951171875</ele>
        <time>2026-06-19T11:22:42.000Z</time>
        <extensions>
          <ns3:TrackPointExtension>
            <ns3:atemp>18.0</ns3:atemp>
          </ns3:TrackPointExtension>
        </extensions>
      </trkpt>
      <trkpt lat="42.55922994576394557952880859375" lon="20.05637012422084808349609375">
        <ele>2196.199951171875</ele>
        <time>2026-06-19T11:22:43.000Z</time>
        <extensions>
          <ns3:TrackPointExtension>
            <ns3:atemp>18.0</ns3:atemp>
          </ns3:TrackPointExtension>
        </extensions>
      </trkpt>
      <trkpt lat="42.55922994576394557952880859375" lon="20.05637012422084808349609375">
        <ele>2196.199951171875</ele>
        <time>2026-06-19T11:22:44.000Z</time>
        <extensions>
          <ns3:TrackPointExtension>
            <ns3:atemp>18.0</ns3:atemp>
          </ns3:TrackPointExtension>
        </extensions>
      </trkpt>
      <trkpt lat="42.55922994576394557952880859375" lon="20.05637012422084808349609375">
        <ele>2196.199951171875</ele>
        <time>2026-06-19T11:22:45.000Z</time>
        <extensions>
          <ns3:TrackPointExtension>
            <ns3:atemp>18.0</ns3:atemp>
          </ns3:TrackPointExtension>
        </extensions>
      </trkpt>
      <trkpt lat="42.55922994576394557952880859375" lon="20.05637012422084808349609375">
        <ele>2196.199951171875</ele>
        <time>2026-06-19T11:22:46.000Z</time>
        <extensions>
          <ns3:TrackPointExtension>
            <ns3:atemp>18.0</ns3:atemp>
          </ns3:TrackPointExtension>
        </extensions>
      </trkpt>
      <trkpt lat="42.55922994576394557952880859375" lon="20.05637012422084808349609375">
        <ele>2196.199951171875</ele>
        <time>2026-06-19T11:22:47.000Z</time>
        <extensions>
          <ns3:TrackPointExtension>
            <ns3:atemp>18.0</ns3:atemp>
          </ns3:TrackPointExtension>
        </extensions>
      </trkpt>
      <trkpt lat="42.55922994576394557952880859375" lon="20.05637012422084808349609375">
        <ele>2196.199951171875</ele>
        <time>2026-06-19T11:22:48.000Z</time>
        <extensions>
          <ns3:TrackPointExtension>
            <ns3:atemp>18.0</ns3:atemp>
          </ns3:TrackPointExtension>
        </extensions>
      </trkpt>
      <trkpt lat="42.55922994576394557952880859375" lon="20.05637012422084808349609375">
        <ele>2196.199951171875</ele>
        <time>2026-06-19T11:22:49.000Z</time>
        <extensions>
          <ns3:TrackPointExtension>
            <ns3:atemp>18.0</ns3:atemp>
          </ns3:TrackPointExtension>
        </extensions>
      </trkpt>
      <trkpt lat="42.55922994576394557952880859375" lon="20.05637012422084808349609375">
        <ele>2196.199951171875</ele>
        <time>2026-06-19T11:22:50.000Z</time>
        <extensions>
          <ns3:TrackPointExtension>
            <ns3:atemp>18.0</ns3:atemp>
          </ns3:TrackPointExtension>
        </extensions>
      </trkpt>
      <trkpt lat="42.55922994576394557952880859375" lon="20.05637012422084808349609375">
        <ele>2196.199951171875</ele>
        <time>2026-06-19T11:22:51.000Z</time>
        <extensions>
          <ns3:TrackPointExtension>
            <ns3:atemp>18.0</ns3:atemp>
          </ns3:TrackPointExtension>
        </extensions>
      </trkpt>
      <trkpt lat="42.55922994576394557952880859375" lon="20.05637012422084808349609375">
        <ele>2196.199951171875</ele>
        <time>2026-06-19T11:22:52.000Z</time>
        <extensions>
          <ns3:TrackPointExtension>
            <ns3:atemp>18.0</ns3:atemp>
          </ns3:TrackPointExtension>
        </extensions>
      </trkpt>
      <trkpt lat="42.55922994576394557952880859375" lon="20.05637012422084808349609375">
        <ele>2196.199951171875</ele>
        <time>2026-06-19T11:22:53.000Z</time>
        <extensions>
          <ns3:TrackPointExtension>
            <ns3:atemp>18.0</ns3:atemp>
          </ns3:TrackPointExtension>
        </extensions>
      </trkpt>
      <trkpt lat="42.55922994576394557952880859375" lon="20.05637012422084808349609375">
        <ele>2196.199951171875</ele>
        <time>2026-06-19T11:22:54.000Z</time>
        <extensions>
          <ns3:TrackPointExtension>
            <ns3:atemp>18.0</ns3:atemp>
          </ns3:TrackPointExtension>
        </extensions>
      </trkpt>
      <trkpt lat="42.55922994576394557952880859375" lon="20.05637012422084808349609375">
        <ele>2196.199951171875</ele>
        <time>2026-06-19T11:22:55.000Z</time>
        <extensions>
          <ns3:TrackPointExtension>
            <ns3:atemp>18.0</ns3:atemp>
          </ns3:TrackPointExtension>
        </extensions>
      </trkpt>
      <trkpt lat="42.55922994576394557952880859375" lon="20.05637012422084808349609375">
        <ele>2196.199951171875</ele>
        <time>2026-06-19T11:22:56.000Z</time>
        <extensions>
          <ns3:TrackPointExtension>
            <ns3:atemp>18.0</ns3:atemp>
          </ns3:TrackPointExtension>
        </extensions>
      </trkpt>
      <trkpt lat="42.55922994576394557952880859375" lon="20.05637012422084808349609375">
        <ele>2196.199951171875</ele>
        <time>2026-06-19T11:22:57.000Z</time>
        <extensions>
          <ns3:TrackPointExtension>
            <ns3:atemp>18.0</ns3:atemp>
          </ns3:TrackPointExtension>
        </extensions>
      </trkpt>
      <trkpt lat="42.55922994576394557952880859375" lon="20.05637012422084808349609375">
        <ele>2196.199951171875</ele>
        <time>2026-06-19T11:22:58.000Z</time>
        <extensions>
          <ns3:TrackPointExtension>
            <ns3:atemp>18.0</ns3:atemp>
          </ns3:TrackPointExtension>
        </extensions>
      </trkpt>
      <trkpt lat="42.55922994576394557952880859375" lon="20.05637012422084808349609375">
        <ele>2196.199951171875</ele>
        <time>2026-06-19T11:22:59.000Z</time>
        <extensions>
          <ns3:TrackPointExtension>
            <ns3:atemp>18.0</ns3:atemp>
          </ns3:TrackPointExtension>
        </extensions>
      </trkpt>
      <trkpt lat="42.55922994576394557952880859375" lon="20.05637012422084808349609375">
        <ele>2196.199951171875</ele>
        <time>2026-06-19T11:23:00.000Z</time>
        <extensions>
          <ns3:TrackPointExtension>
            <ns3:atemp>18.0</ns3:atemp>
          </ns3:TrackPointExtension>
        </extensions>
      </trkpt>
      <trkpt lat="42.55922994576394557952880859375" lon="20.05637012422084808349609375">
        <ele>2196.199951171875</ele>
        <time>2026-06-19T11:23:01.000Z</time>
        <extensions>
          <ns3:TrackPointExtension>
            <ns3:atemp>18.0</ns3:atemp>
          </ns3:TrackPointExtension>
        </extensions>
      </trkpt>
      <trkpt lat="42.55922994576394557952880859375" lon="20.05637012422084808349609375">
        <ele>2196.199951171875</ele>
        <time>2026-06-19T11:23:02.000Z</time>
        <extensions>
          <ns3:TrackPointExtension>
            <ns3:atemp>18.0</ns3:atemp>
          </ns3:TrackPointExtension>
        </extensions>
      </trkpt>
      <trkpt lat="42.55922994576394557952880859375" lon="20.05637012422084808349609375">
        <ele>2196.199951171875</ele>
        <time>2026-06-19T11:23:03.000Z</time>
        <extensions>
          <ns3:TrackPointExtension>
            <ns3:atemp>18.0</ns3:atemp>
          </ns3:TrackPointExtension>
        </extensions>
      </trkpt>
      <trkpt lat="42.55922994576394557952880859375" lon="20.05637012422084808349609375">
        <ele>2196.199951171875</ele>
        <time>2026-06-19T11:23:04.000Z</time>
        <extensions>
          <ns3:TrackPointExtension>
            <ns3:atemp>18.0</ns3:atemp>
          </ns3:TrackPointExtension>
        </extensions>
      </trkpt>
      <trkpt lat="42.55922994576394557952880859375" lon="20.05637012422084808349609375">
        <ele>2196.199951171875</ele>
        <time>2026-06-19T11:23:05.000Z</time>
        <extensions>
          <ns3:TrackPointExtension>
            <ns3:atemp>18.0</ns3:atemp>
          </ns3:TrackPointExtension>
        </extensions>
      </trkpt>
      <trkpt lat="42.55922994576394557952880859375" lon="20.05637012422084808349609375">
        <ele>2196.199951171875</ele>
        <time>2026-06-19T11:23:06.000Z</time>
        <extensions>
          <ns3:TrackPointExtension>
            <ns3:atemp>18.0</ns3:atemp>
          </ns3:TrackPointExtension>
        </extensions>
      </trkpt>
      <trkpt lat="42.55922994576394557952880859375" lon="20.05637012422084808349609375">
        <ele>2196.199951171875</ele>
        <time>2026-06-19T11:23:07.000Z</time>
        <extensions>
          <ns3:TrackPointExtension>
            <ns3:atemp>18.0</ns3:atemp>
          </ns3:TrackPointExtension>
        </extensions>
      </trkpt>
      <trkpt lat="42.55922994576394557952880859375" lon="20.05637012422084808349609375">
        <ele>2196.199951171875</ele>
        <time>2026-06-19T11:23:08.000Z</time>
        <extensions>
          <ns3:TrackPointExtension>
            <ns3:atemp>18.0</ns3:atemp>
          </ns3:TrackPointExtension>
        </extensions>
      </trkpt>
      <trkpt lat="42.55922994576394557952880859375" lon="20.05637012422084808349609375">
        <ele>2196.199951171875</ele>
        <time>2026-06-19T11:23:09.000Z</time>
        <extensions>
          <ns3:TrackPointExtension>
            <ns3:atemp>18.0</ns3:atemp>
          </ns3:TrackPointExtension>
        </extensions>
      </trkpt>
      <trkpt lat="42.55922994576394557952880859375" lon="20.05637012422084808349609375">
        <ele>2196.199951171875</ele>
        <time>2026-06-19T11:23:10.000Z</time>
        <extensions>
          <ns3:TrackPointExtension>
            <ns3:atemp>18.0</ns3:atemp>
          </ns3:TrackPointExtension>
        </extensions>
      </trkpt>
      <trkpt lat="42.55922994576394557952880859375" lon="20.05637012422084808349609375">
        <ele>2196.199951171875</ele>
        <time>2026-06-19T11:23:11.000Z</time>
        <extensions>
          <ns3:TrackPointExtension>
            <ns3:atemp>18.0</ns3:atemp>
          </ns3:TrackPointExtension>
        </extensions>
      </trkpt>
      <trkpt lat="42.55922994576394557952880859375" lon="20.05637012422084808349609375">
        <ele>2196.199951171875</ele>
        <time>2026-06-19T11:23:12.000Z</time>
        <extensions>
          <ns3:TrackPointExtension>
            <ns3:atemp>18.0</ns3:atemp>
          </ns3:TrackPointExtension>
        </extensions>
      </trkpt>
      <trkpt lat="42.55922994576394557952880859375" lon="20.05637012422084808349609375">
        <ele>2196.199951171875</ele>
        <time>2026-06-19T11:23:13.000Z</time>
        <extensions>
          <ns3:TrackPointExtension>
            <ns3:atemp>18.0</ns3:atemp>
          </ns3:TrackPointExtension>
        </extensions>
      </trkpt>
      <trkpt lat="42.55922994576394557952880859375" lon="20.05637012422084808349609375">
        <ele>2196.199951171875</ele>
        <time>2026-06-19T11:23:14.000Z</time>
        <extensions>
          <ns3:TrackPointExtension>
            <ns3:atemp>18.0</ns3:atemp>
          </ns3:TrackPointExtension>
        </extensions>
      </trkpt>
      <trkpt lat="42.55922994576394557952880859375" lon="20.05637012422084808349609375">
        <ele>2196.199951171875</ele>
        <time>2026-06-19T11:23:15.000Z</time>
        <extensions>
          <ns3:TrackPointExtension>
            <ns3:atemp>18.0</ns3:atemp>
          </ns3:TrackPointExtension>
        </extensions>
      </trkpt>
      <trkpt lat="42.55922994576394557952880859375" lon="20.05637012422084808349609375">
        <ele>2196.199951171875</ele>
        <time>2026-06-19T11:23:16.000Z</time>
        <extensions>
          <ns3:TrackPointExtension>
            <ns3:atemp>18.0</ns3:atemp>
          </ns3:TrackPointExtension>
        </extensions>
      </trkpt>
      <trkpt lat="42.55922994576394557952880859375" lon="20.05637012422084808349609375">
        <ele>2196.199951171875</ele>
        <time>2026-06-19T11:23:17.000Z</time>
        <extensions>
          <ns3:TrackPointExtension>
            <ns3:atemp>18.0</ns3:atemp>
          </ns3:TrackPointExtension>
        </extensions>
      </trkpt>
      <trkpt lat="42.55922994576394557952880859375" lon="20.05637012422084808349609375">
        <ele>2196.199951171875</ele>
        <time>2026-06-19T11:23:18.000Z</time>
        <extensions>
          <ns3:TrackPointExtension>
            <ns3:atemp>18.0</ns3:atemp>
          </ns3:TrackPointExtension>
        </extensions>
      </trkpt>
      <trkpt lat="42.55922994576394557952880859375" lon="20.05637012422084808349609375">
        <ele>2196.199951171875</ele>
        <time>2026-06-19T11:23:19.000Z</time>
        <extensions>
          <ns3:TrackPointExtension>
            <ns3:atemp>18.0</ns3:atemp>
          </ns3:TrackPointExtension>
        </extensions>
      </trkpt>
      <trkpt lat="42.55922994576394557952880859375" lon="20.05637012422084808349609375">
        <ele>2196.199951171875</ele>
        <time>2026-06-19T11:23:20.000Z</time>
        <extensions>
          <ns3:TrackPointExtension>
            <ns3:atemp>18.0</ns3:atemp>
          </ns3:TrackPointExtension>
        </extensions>
      </trkpt>
      <trkpt lat="42.55922994576394557952880859375" lon="20.05637012422084808349609375">
        <ele>2196.199951171875</ele>
        <time>2026-06-19T11:23:21.000Z</time>
        <extensions>
          <ns3:TrackPointExtension>
            <ns3:atemp>18.0</ns3:atemp>
          </ns3:TrackPointExtension>
        </extensions>
      </trkpt>
      <trkpt lat="42.55922994576394557952880859375" lon="20.05637012422084808349609375">
        <ele>2196.199951171875</ele>
        <time>2026-06-19T11:23:22.000Z</time>
        <extensions>
          <ns3:TrackPointExtension>
            <ns3:atemp>18.0</ns3:atemp>
          </ns3:TrackPointExtension>
        </extensions>
      </trkpt>
      <trkpt lat="42.55922994576394557952880859375" lon="20.05637012422084808349609375">
        <ele>2196.199951171875</ele>
        <time>2026-06-19T11:23:23.000Z</time>
        <extensions>
          <ns3:TrackPointExtension>
            <ns3:atemp>18.0</ns3:atemp>
          </ns3:TrackPointExtension>
        </extensions>
      </trkpt>
      <trkpt lat="42.55922994576394557952880859375" lon="20.05637012422084808349609375">
        <ele>2196.199951171875</ele>
        <time>2026-06-19T11:23:24.000Z</time>
        <extensions>
          <ns3:TrackPointExtension>
            <ns3:atemp>18.0</ns3:atemp>
          </ns3:TrackPointExtension>
        </extensions>
      </trkpt>
      <trkpt lat="42.55922994576394557952880859375" lon="20.05637012422084808349609375">
        <ele>2196.199951171875</ele>
        <time>2026-06-19T11:23:25.000Z</time>
        <extensions>
          <ns3:TrackPointExtension>
            <ns3:atemp>18.0</ns3:atemp>
          </ns3:TrackPointExtension>
        </extensions>
      </trkpt>
      <trkpt lat="42.55922994576394557952880859375" lon="20.05637012422084808349609375">
        <ele>2196.199951171875</ele>
        <time>2026-06-19T11:23:26.000Z</time>
        <extensions>
          <ns3:TrackPointExtension>
            <ns3:atemp>18.0</ns3:atemp>
          </ns3:TrackPointExtension>
        </extensions>
      </trkpt>
      <trkpt lat="42.55922994576394557952880859375" lon="20.05637012422084808349609375">
        <ele>2196.199951171875</ele>
        <time>2026-06-19T11:23:27.000Z</time>
        <extensions>
          <ns3:TrackPointExtension>
            <ns3:atemp>18.0</ns3:atemp>
          </ns3:TrackPointExtension>
        </extensions>
      </trkpt>
      <trkpt lat="42.55922994576394557952880859375" lon="20.05637012422084808349609375">
        <ele>2196.199951171875</ele>
        <time>2026-06-19T11:23:28.000Z</time>
        <extensions>
          <ns3:TrackPointExtension>
            <ns3:atemp>18.0</ns3:atemp>
          </ns3:TrackPointExtension>
        </extensions>
      </trkpt>
      <trkpt lat="42.55922994576394557952880859375" lon="20.05637012422084808349609375">
        <ele>2196.199951171875</ele>
        <time>2026-06-19T11:23:29.000Z</time>
        <extensions>
          <ns3:TrackPointExtension>
            <ns3:atemp>18.0</ns3:atemp>
          </ns3:TrackPointExtension>
        </extensions>
      </trkpt>
      <trkpt lat="42.55922994576394557952880859375" lon="20.05637012422084808349609375">
        <ele>2196.199951171875</ele>
        <time>2026-06-19T11:23:30.000Z</time>
        <extensions>
          <ns3:TrackPointExtension>
            <ns3:atemp>18.0</ns3:atemp>
          </ns3:TrackPointExtension>
        </extensions>
      </trkpt>
      <trkpt lat="42.55922994576394557952880859375" lon="20.05637012422084808349609375">
        <ele>2196.199951171875</ele>
        <time>2026-06-19T11:23:31.000Z</time>
        <extensions>
          <ns3:TrackPointExtension>
            <ns3:atemp>18.0</ns3:atemp>
          </ns3:TrackPointExtension>
        </extensions>
      </trkpt>
      <trkpt lat="42.55922994576394557952880859375" lon="20.05637012422084808349609375">
        <ele>2196.199951171875</ele>
        <time>2026-06-19T11:23:32.000Z</time>
        <extensions>
          <ns3:TrackPointExtension>
            <ns3:atemp>18.0</ns3:atemp>
          </ns3:TrackPointExtension>
        </extensions>
      </trkpt>
      <trkpt lat="42.55922994576394557952880859375" lon="20.05637012422084808349609375">
        <ele>2196.199951171875</ele>
        <time>2026-06-19T11:23:33.000Z</time>
        <extensions>
          <ns3:TrackPointExtension>
            <ns3:atemp>18.0</ns3:atemp>
          </ns3:TrackPointExtension>
        </extensions>
      </trkpt>
      <trkpt lat="42.55922994576394557952880859375" lon="20.05637012422084808349609375">
        <ele>2196.199951171875</ele>
        <time>2026-06-19T11:23:34.000Z</time>
        <extensions>
          <ns3:TrackPointExtension>
            <ns3:atemp>18.0</ns3:atemp>
          </ns3:TrackPointExtension>
        </extensions>
      </trkpt>
      <trkpt lat="42.55922994576394557952880859375" lon="20.05637012422084808349609375">
        <ele>2196.199951171875</ele>
        <time>2026-06-19T11:23:35.000Z</time>
        <extensions>
          <ns3:TrackPointExtension>
            <ns3:atemp>18.0</ns3:atemp>
          </ns3:TrackPointExtension>
        </extensions>
      </trkpt>
      <trkpt lat="42.55922994576394557952880859375" lon="20.05637012422084808349609375">
        <ele>2196.199951171875</ele>
        <time>2026-06-19T11:23:36.000Z</time>
        <extensions>
          <ns3:TrackPointExtension>
            <ns3:atemp>18.0</ns3:atemp>
          </ns3:TrackPointExtension>
        </extensions>
      </trkpt>
      <trkpt lat="42.55922994576394557952880859375" lon="20.05637012422084808349609375">
        <ele>2196.199951171875</ele>
        <time>2026-06-19T11:23:37.000Z</time>
        <extensions>
          <ns3:TrackPointExtension>
            <ns3:atemp>18.0</ns3:atemp>
          </ns3:TrackPointExtension>
        </extensions>
      </trkpt>
      <trkpt lat="42.55922994576394557952880859375" lon="20.05637012422084808349609375">
        <ele>2196.199951171875</ele>
        <time>2026-06-19T11:23:38.000Z</time>
        <extensions>
          <ns3:TrackPointExtension>
            <ns3:atemp>18.0</ns3:atemp>
          </ns3:TrackPointExtension>
        </extensions>
      </trkpt>
      <trkpt lat="42.55922994576394557952880859375" lon="20.05637012422084808349609375">
        <ele>2196.199951171875</ele>
        <time>2026-06-19T11:23:39.000Z</time>
        <extensions>
          <ns3:TrackPointExtension>
            <ns3:atemp>18.0</ns3:atemp>
          </ns3:TrackPointExtension>
        </extensions>
      </trkpt>
      <trkpt lat="42.55922994576394557952880859375" lon="20.05637012422084808349609375">
        <ele>2196.199951171875</ele>
        <time>2026-06-19T11:23:40.000Z</time>
        <extensions>
          <ns3:TrackPointExtension>
            <ns3:atemp>18.0</ns3:atemp>
          </ns3:TrackPointExtension>
        </extensions>
      </trkpt>
      <trkpt lat="42.55922994576394557952880859375" lon="20.05637012422084808349609375">
        <ele>2196.199951171875</ele>
        <time>2026-06-19T11:23:41.000Z</time>
        <extensions>
          <ns3:TrackPointExtension>
            <ns3:atemp>18.0</ns3:atemp>
          </ns3:TrackPointExtension>
        </extensions>
      </trkpt>
      <trkpt lat="42.55922994576394557952880859375" lon="20.05637012422084808349609375">
        <ele>2196.199951171875</ele>
        <time>2026-06-19T11:23:42.000Z</time>
        <extensions>
          <ns3:TrackPointExtension>
            <ns3:atemp>18.0</ns3:atemp>
          </ns3:TrackPointExtension>
        </extensions>
      </trkpt>
      <trkpt lat="42.55922994576394557952880859375" lon="20.05637012422084808349609375">
        <ele>2196.199951171875</ele>
        <time>2026-06-19T11:23:43.000Z</time>
        <extensions>
          <ns3:TrackPointExtension>
            <ns3:atemp>18.0</ns3:atemp>
          </ns3:TrackPointExtension>
        </extensions>
      </trkpt>
      <trkpt lat="42.55922994576394557952880859375" lon="20.05637012422084808349609375">
        <ele>2196.199951171875</ele>
        <time>2026-06-19T11:23:44.000Z</time>
        <extensions>
          <ns3:TrackPointExtension>
            <ns3:atemp>18.0</ns3:atemp>
          </ns3:TrackPointExtension>
        </extensions>
      </trkpt>
      <trkpt lat="42.55922994576394557952880859375" lon="20.05637012422084808349609375">
        <ele>2196.199951171875</ele>
        <time>2026-06-19T11:23:45.000Z</time>
        <extensions>
          <ns3:TrackPointExtension>
            <ns3:atemp>18.0</ns3:atemp>
          </ns3:TrackPointExtension>
        </extensions>
      </trkpt>
      <trkpt lat="42.55922994576394557952880859375" lon="20.05637012422084808349609375">
        <ele>2196.199951171875</ele>
        <time>2026-06-19T11:23:46.000Z</time>
        <extensions>
          <ns3:TrackPointExtension>
            <ns3:atemp>18.0</ns3:atemp>
          </ns3:TrackPointExtension>
        </extensions>
      </trkpt>
      <trkpt lat="42.55922994576394557952880859375" lon="20.05637012422084808349609375">
        <ele>2196.199951171875</ele>
        <time>2026-06-19T11:23:47.000Z</time>
        <extensions>
          <ns3:TrackPointExtension>
            <ns3:atemp>18.0</ns3:atemp>
          </ns3:TrackPointExtension>
        </extensions>
      </trkpt>
      <trkpt lat="42.55922994576394557952880859375" lon="20.05637012422084808349609375">
        <ele>2196.199951171875</ele>
        <time>2026-06-19T11:23:48.000Z</time>
        <extensions>
          <ns3:TrackPointExtension>
            <ns3:atemp>18.0</ns3:atemp>
          </ns3:TrackPointExtension>
        </extensions>
      </trkpt>
      <trkpt lat="42.55922994576394557952880859375" lon="20.05637012422084808349609375">
        <ele>2196.199951171875</ele>
        <time>2026-06-19T11:23:49.000Z</time>
        <extensions>
          <ns3:TrackPointExtension>
            <ns3:atemp>18.0</ns3:atemp>
          </ns3:TrackPointExtension>
        </extensions>
      </trkpt>
      <trkpt lat="42.55922994576394557952880859375" lon="20.05637012422084808349609375">
        <ele>2196.199951171875</ele>
        <time>2026-06-19T11:23:50.000Z</time>
        <extensions>
          <ns3:TrackPointExtension>
            <ns3:atemp>18.0</ns3:atemp>
          </ns3:TrackPointExtension>
        </extensions>
      </trkpt>
      <trkpt lat="42.55922994576394557952880859375" lon="20.05637012422084808349609375">
        <ele>2196.199951171875</ele>
        <time>2026-06-19T11:23:51.000Z</time>
        <extensions>
          <ns3:TrackPointExtension>
            <ns3:atemp>18.0</ns3:atemp>
          </ns3:TrackPointExtension>
        </extensions>
      </trkpt>
      <trkpt lat="42.55922994576394557952880859375" lon="20.05637012422084808349609375">
        <ele>2196.199951171875</ele>
        <time>2026-06-19T11:23:52.000Z</time>
        <extensions>
          <ns3:TrackPointExtension>
            <ns3:atemp>18.0</ns3:atemp>
          </ns3:TrackPointExtension>
        </extensions>
      </trkpt>
      <trkpt lat="42.55922994576394557952880859375" lon="20.05637012422084808349609375">
        <ele>2196.199951171875</ele>
        <time>2026-06-19T11:23:53.000Z</time>
        <extensions>
          <ns3:TrackPointExtension>
            <ns3:atemp>18.0</ns3:atemp>
          </ns3:TrackPointExtension>
        </extensions>
      </trkpt>
      <trkpt lat="42.55922994576394557952880859375" lon="20.05637012422084808349609375">
        <ele>2196.199951171875</ele>
        <time>2026-06-19T11:23:54.000Z</time>
        <extensions>
          <ns3:TrackPointExtension>
            <ns3:atemp>18.0</ns3:atemp>
          </ns3:TrackPointExtension>
        </extensions>
      </trkpt>
      <trkpt lat="42.55922994576394557952880859375" lon="20.05637012422084808349609375">
        <ele>2196.199951171875</ele>
        <time>2026-06-19T11:23:55.000Z</time>
        <extensions>
          <ns3:TrackPointExtension>
            <ns3:atemp>18.0</ns3:atemp>
          </ns3:TrackPointExtension>
        </extensions>
      </trkpt>
      <trkpt lat="42.55922994576394557952880859375" lon="20.05637012422084808349609375">
        <ele>2196.199951171875</ele>
        <time>2026-06-19T11:23:56.000Z</time>
        <extensions>
          <ns3:TrackPointExtension>
            <ns3:atemp>18.0</ns3:atemp>
          </ns3:TrackPointExtension>
        </extensions>
      </trkpt>
      <trkpt lat="42.55922994576394557952880859375" lon="20.05637012422084808349609375">
        <ele>2196.199951171875</ele>
        <time>2026-06-19T11:23:57.000Z</time>
        <extensions>
          <ns3:TrackPointExtension>
            <ns3:atemp>18.0</ns3:atemp>
          </ns3:TrackPointExtension>
        </extensions>
      </trkpt>
      <trkpt lat="42.55922994576394557952880859375" lon="20.05637012422084808349609375">
        <ele>2196.199951171875</ele>
        <time>2026-06-19T11:23:58.000Z</time>
        <extensions>
          <ns3:TrackPointExtension>
            <ns3:atemp>18.0</ns3:atemp>
          </ns3:TrackPointExtension>
        </extensions>
      </trkpt>
      <trkpt lat="42.55922994576394557952880859375" lon="20.05637012422084808349609375">
        <ele>2196.199951171875</ele>
        <time>2026-06-19T11:23:59.000Z</time>
        <extensions>
          <ns3:TrackPointExtension>
            <ns3:atemp>18.0</ns3:atemp>
          </ns3:TrackPointExtension>
        </extensions>
      </trkpt>
      <trkpt lat="42.55922994576394557952880859375" lon="20.05637012422084808349609375">
        <ele>2196.199951171875</ele>
        <time>2026-06-19T11:24:00.000Z</time>
        <extensions>
          <ns3:TrackPointExtension>
            <ns3:atemp>18.0</ns3:atemp>
          </ns3:TrackPointExtension>
        </extensions>
      </trkpt>
      <trkpt lat="42.55922994576394557952880859375" lon="20.05637012422084808349609375">
        <ele>2196.199951171875</ele>
        <time>2026-06-19T11:24:01.000Z</time>
        <extensions>
          <ns3:TrackPointExtension>
            <ns3:atemp>18.0</ns3:atemp>
          </ns3:TrackPointExtension>
        </extensions>
      </trkpt>
      <trkpt lat="42.55922994576394557952880859375" lon="20.05637012422084808349609375">
        <ele>2196.199951171875</ele>
        <time>2026-06-19T11:24:02.000Z</time>
        <extensions>
          <ns3:TrackPointExtension>
            <ns3:atemp>18.0</ns3:atemp>
          </ns3:TrackPointExtension>
        </extensions>
      </trkpt>
      <trkpt lat="42.55922994576394557952880859375" lon="20.05637012422084808349609375">
        <ele>2196.199951171875</ele>
        <time>2026-06-19T11:24:03.000Z</time>
        <extensions>
          <ns3:TrackPointExtension>
            <ns3:atemp>18.0</ns3:atemp>
          </ns3:TrackPointExtension>
        </extensions>
      </trkpt>
      <trkpt lat="42.55922994576394557952880859375" lon="20.05637012422084808349609375">
        <ele>2196.199951171875</ele>
        <time>2026-06-19T11:24:04.000Z</time>
        <extensions>
          <ns3:TrackPointExtension>
            <ns3:atemp>18.0</ns3:atemp>
          </ns3:TrackPointExtension>
        </extensions>
      </trkpt>
      <trkpt lat="42.55922994576394557952880859375" lon="20.05637012422084808349609375">
        <ele>2196.199951171875</ele>
        <time>2026-06-19T11:24:05.000Z</time>
        <extensions>
          <ns3:TrackPointExtension>
            <ns3:atemp>18.0</ns3:atemp>
          </ns3:TrackPointExtension>
        </extensions>
      </trkpt>
      <trkpt lat="42.55922994576394557952880859375" lon="20.05637012422084808349609375">
        <ele>2196.199951171875</ele>
        <time>2026-06-19T11:24:06.000Z</time>
        <extensions>
          <ns3:TrackPointExtension>
            <ns3:atemp>18.0</ns3:atemp>
          </ns3:TrackPointExtension>
        </extensions>
      </trkpt>
      <trkpt lat="42.55922994576394557952880859375" lon="20.05637012422084808349609375">
        <ele>2196.199951171875</ele>
        <time>2026-06-19T11:24:07.000Z</time>
        <extensions>
          <ns3:TrackPointExtension>
            <ns3:atemp>18.0</ns3:atemp>
          </ns3:TrackPointExtension>
        </extensions>
      </trkpt>
      <trkpt lat="42.55922994576394557952880859375" lon="20.05637012422084808349609375">
        <ele>2196.199951171875</ele>
        <time>2026-06-19T11:24:08.000Z</time>
        <extensions>
          <ns3:TrackPointExtension>
            <ns3:atemp>18.0</ns3:atemp>
          </ns3:TrackPointExtension>
        </extensions>
      </trkpt>
      <trkpt lat="42.55922994576394557952880859375" lon="20.05637012422084808349609375">
        <ele>2196.199951171875</ele>
        <time>2026-06-19T11:24:09.000Z</time>
        <extensions>
          <ns3:TrackPointExtension>
            <ns3:atemp>18.0</ns3:atemp>
          </ns3:TrackPointExtension>
        </extensions>
      </trkpt>
      <trkpt lat="42.55922994576394557952880859375" lon="20.05637012422084808349609375">
        <ele>2196.199951171875</ele>
        <time>2026-06-19T11:24:10.000Z</time>
        <extensions>
          <ns3:TrackPointExtension>
            <ns3:atemp>18.0</ns3:atemp>
          </ns3:TrackPointExtension>
        </extensions>
      </trkpt>
      <trkpt lat="42.55922994576394557952880859375" lon="20.05637012422084808349609375">
        <ele>2196.199951171875</ele>
        <time>2026-06-19T11:24:11.000Z</time>
        <extensions>
          <ns3:TrackPointExtension>
            <ns3:atemp>18.0</ns3:atemp>
          </ns3:TrackPointExtension>
        </extensions>
      </trkpt>
      <trkpt lat="42.55922994576394557952880859375" lon="20.05637012422084808349609375">
        <ele>2196.199951171875</ele>
        <time>2026-06-19T11:24:12.000Z</time>
        <extensions>
          <ns3:TrackPointExtension>
            <ns3:atemp>18.0</ns3:atemp>
          </ns3:TrackPointExtension>
        </extensions>
      </trkpt>
      <trkpt lat="42.55922994576394557952880859375" lon="20.05637012422084808349609375">
        <ele>2196.199951171875</ele>
        <time>2026-06-19T11:24:13.000Z</time>
        <extensions>
          <ns3:TrackPointExtension>
            <ns3:atemp>18.0</ns3:atemp>
          </ns3:TrackPointExtension>
        </extensions>
      </trkpt>
      <trkpt lat="42.55922994576394557952880859375" lon="20.05637012422084808349609375">
        <ele>2196.199951171875</ele>
        <time>2026-06-19T11:24:14.000Z</time>
        <extensions>
          <ns3:TrackPointExtension>
            <ns3:atemp>18.0</ns3:atemp>
          </ns3:TrackPointExtension>
        </extensions>
      </trkpt>
      <trkpt lat="42.55922994576394557952880859375" lon="20.05637012422084808349609375">
        <ele>2196.199951171875</ele>
        <time>2026-06-19T11:24:15.000Z</time>
        <extensions>
          <ns3:TrackPointExtension>
            <ns3:atemp>18.0</ns3:atemp>
          </ns3:TrackPointExtension>
        </extensions>
      </trkpt>
      <trkpt lat="42.55922994576394557952880859375" lon="20.05637012422084808349609375">
        <ele>2196.199951171875</ele>
        <time>2026-06-19T11:24:16.000Z</time>
        <extensions>
          <ns3:TrackPointExtension>
            <ns3:atemp>18.0</ns3:atemp>
          </ns3:TrackPointExtension>
        </extensions>
      </trkpt>
      <trkpt lat="42.55922994576394557952880859375" lon="20.05637012422084808349609375">
        <ele>2196.199951171875</ele>
        <time>2026-06-19T11:24:17.000Z</time>
        <extensions>
          <ns3:TrackPointExtension>
            <ns3:atemp>18.0</ns3:atemp>
          </ns3:TrackPointExtension>
        </extensions>
      </trkpt>
      <trkpt lat="42.55922994576394557952880859375" lon="20.05637012422084808349609375">
        <ele>2196.199951171875</ele>
        <time>2026-06-19T11:24:18.000Z</time>
        <extensions>
          <ns3:TrackPointExtension>
            <ns3:atemp>18.0</ns3:atemp>
          </ns3:TrackPointExtension>
        </extensions>
      </trkpt>
      <trkpt lat="42.55922994576394557952880859375" lon="20.05637012422084808349609375">
        <ele>2196.199951171875</ele>
        <time>2026-06-19T11:24:19.000Z</time>
        <extensions>
          <ns3:TrackPointExtension>
            <ns3:atemp>18.0</ns3:atemp>
          </ns3:TrackPointExtension>
        </extensions>
      </trkpt>
      <trkpt lat="42.55922994576394557952880859375" lon="20.05637012422084808349609375">
        <ele>2196.199951171875</ele>
        <time>2026-06-19T11:24:20.000Z</time>
        <extensions>
          <ns3:TrackPointExtension>
            <ns3:atemp>18.0</ns3:atemp>
          </ns3:TrackPointExtension>
        </extensions>
      </trkpt>
      <trkpt lat="42.55922994576394557952880859375" lon="20.05637012422084808349609375">
        <ele>2196.199951171875</ele>
        <time>2026-06-19T11:24:21.000Z</time>
        <extensions>
          <ns3:TrackPointExtension>
            <ns3:atemp>18.0</ns3:atemp>
          </ns3:TrackPointExtension>
        </extensions>
      </trkpt>
      <trkpt lat="42.55922994576394557952880859375" lon="20.05637012422084808349609375">
        <ele>2196.199951171875</ele>
        <time>2026-06-19T11:24:22.000Z</time>
        <extensions>
          <ns3:TrackPointExtension>
            <ns3:atemp>18.0</ns3:atemp>
          </ns3:TrackPointExtension>
        </extensions>
      </trkpt>
      <trkpt lat="42.55922994576394557952880859375" lon="20.05637012422084808349609375">
        <ele>2196.199951171875</ele>
        <time>2026-06-19T11:24:23.000Z</time>
        <extensions>
          <ns3:TrackPointExtension>
            <ns3:atemp>18.0</ns3:atemp>
          </ns3:TrackPointExtension>
        </extensions>
      </trkpt>
      <trkpt lat="42.55922994576394557952880859375" lon="20.05637012422084808349609375">
        <ele>2196.199951171875</ele>
        <time>2026-06-19T11:24:24.000Z</time>
        <extensions>
          <ns3:TrackPointExtension>
            <ns3:atemp>18.0</ns3:atemp>
          </ns3:TrackPointExtension>
        </extensions>
      </trkpt>
      <trkpt lat="42.55922994576394557952880859375" lon="20.05637012422084808349609375">
        <ele>2196.199951171875</ele>
        <time>2026-06-19T11:24:25.000Z</time>
        <extensions>
          <ns3:TrackPointExtension>
            <ns3:atemp>18.0</ns3:atemp>
          </ns3:TrackPointExtension>
        </extensions>
      </trkpt>
      <trkpt lat="42.55922994576394557952880859375" lon="20.05637012422084808349609375">
        <ele>2196.199951171875</ele>
        <time>2026-06-19T11:24:26.000Z</time>
        <extensions>
          <ns3:TrackPointExtension>
            <ns3:atemp>18.0</ns3:atemp>
          </ns3:TrackPointExtension>
        </extensions>
      </trkpt>
      <trkpt lat="42.55922994576394557952880859375" lon="20.05637012422084808349609375">
        <ele>2196.199951171875</ele>
        <time>2026-06-19T11:24:27.000Z</time>
        <extensions>
          <ns3:TrackPointExtension>
            <ns3:atemp>18.0</ns3:atemp>
          </ns3:TrackPointExtension>
        </extensions>
      </trkpt>
      <trkpt lat="42.55922994576394557952880859375" lon="20.05637012422084808349609375">
        <ele>2196.199951171875</ele>
        <time>2026-06-19T11:24:28.000Z</time>
        <extensions>
          <ns3:TrackPointExtension>
            <ns3:atemp>18.0</ns3:atemp>
          </ns3:TrackPointExtension>
        </extensions>
      </trkpt>
      <trkpt lat="42.55922994576394557952880859375" lon="20.05637012422084808349609375">
        <ele>2196.199951171875</ele>
        <time>2026-06-19T11:24:29.000Z</time>
        <extensions>
          <ns3:TrackPointExtension>
            <ns3:atemp>18.0</ns3:atemp>
          </ns3:TrackPointExtension>
        </extensions>
      </trkpt>
      <trkpt lat="42.55922994576394557952880859375" lon="20.05637012422084808349609375">
        <ele>2196.199951171875</ele>
        <time>2026-06-19T11:24:30.000Z</time>
        <extensions>
          <ns3:TrackPointExtension>
            <ns3:atemp>18.0</ns3:atemp>
          </ns3:TrackPointExtension>
        </extensions>
      </trkpt>
      <trkpt lat="42.55922994576394557952880859375" lon="20.05637012422084808349609375">
        <ele>2196.199951171875</ele>
        <time>2026-06-19T11:24:31.000Z</time>
        <extensions>
          <ns3:TrackPointExtension>
            <ns3:atemp>18.0</ns3:atemp>
          </ns3:TrackPointExtension>
        </extensions>
      </trkpt>
      <trkpt lat="42.55922994576394557952880859375" lon="20.05637012422084808349609375">
        <ele>2196.199951171875</ele>
        <time>2026-06-19T11:24:32.000Z</time>
        <extensions>
          <ns3:TrackPointExtension>
            <ns3:atemp>18.0</ns3:atemp>
          </ns3:TrackPointExtension>
        </extensions>
      </trkpt>
      <trkpt lat="42.55922994576394557952880859375" lon="20.05637012422084808349609375">
        <ele>2196.199951171875</ele>
        <time>2026-06-19T11:24:33.000Z</time>
        <extensions>
          <ns3:TrackPointExtension>
            <ns3:atemp>18.0</ns3:atemp>
          </ns3:TrackPointExtension>
        </extensions>
      </trkpt>
      <trkpt lat="42.55922994576394557952880859375" lon="20.05637012422084808349609375">
        <ele>2196.199951171875</ele>
        <time>2026-06-19T11:24:34.000Z</time>
        <extensions>
          <ns3:TrackPointExtension>
            <ns3:atemp>18.0</ns3:atemp>
          </ns3:TrackPointExtension>
        </extensions>
      </trkpt>
      <trkpt lat="42.55922994576394557952880859375" lon="20.05637012422084808349609375">
        <ele>2196.199951171875</ele>
        <time>2026-06-19T11:24:35.000Z</time>
        <extensions>
          <ns3:TrackPointExtension>
            <ns3:atemp>18.0</ns3:atemp>
          </ns3:TrackPointExtension>
        </extensions>
      </trkpt>
      <trkpt lat="42.55922994576394557952880859375" lon="20.05637012422084808349609375">
        <ele>2196.199951171875</ele>
        <time>2026-06-19T11:24:36.000Z</time>
        <extensions>
          <ns3:TrackPointExtension>
            <ns3:atemp>18.0</ns3:atemp>
          </ns3:TrackPointExtension>
        </extensions>
      </trkpt>
      <trkpt lat="42.55922994576394557952880859375" lon="20.05637012422084808349609375">
        <ele>2196.199951171875</ele>
        <time>2026-06-19T11:24:37.000Z</time>
        <extensions>
          <ns3:TrackPointExtension>
            <ns3:atemp>18.0</ns3:atemp>
          </ns3:TrackPointExtension>
        </extensions>
      </trkpt>
      <trkpt lat="42.55922994576394557952880859375" lon="20.05637012422084808349609375">
        <ele>2196.199951171875</ele>
        <time>2026-06-19T11:24:38.000Z</time>
        <extensions>
          <ns3:TrackPointExtension>
            <ns3:atemp>18.0</ns3:atemp>
          </ns3:TrackPointExtension>
        </extensions>
      </trkpt>
      <trkpt lat="42.55922994576394557952880859375" lon="20.05637012422084808349609375">
        <ele>2196.199951171875</ele>
        <time>2026-06-19T11:24:39.000Z</time>
        <extensions>
          <ns3:TrackPointExtension>
            <ns3:atemp>18.0</ns3:atemp>
          </ns3:TrackPointExtension>
        </extensions>
      </trkpt>
      <trkpt lat="42.55922994576394557952880859375" lon="20.05637012422084808349609375">
        <ele>2196.199951171875</ele>
        <time>2026-06-19T11:24:40.000Z</time>
        <extensions>
          <ns3:TrackPointExtension>
            <ns3:atemp>18.0</ns3:atemp>
          </ns3:TrackPointExtension>
        </extensions>
      </trkpt>
      <trkpt lat="42.55922994576394557952880859375" lon="20.05637012422084808349609375">
        <ele>2196.199951171875</ele>
        <time>2026-06-19T11:24:41.000Z</time>
        <extensions>
          <ns3:TrackPointExtension>
            <ns3:atemp>18.0</ns3:atemp>
          </ns3:TrackPointExtension>
        </extensions>
      </trkpt>
      <trkpt lat="42.55922994576394557952880859375" lon="20.05637012422084808349609375">
        <ele>2196.199951171875</ele>
        <time>2026-06-19T11:24:42.000Z</time>
        <extensions>
          <ns3:TrackPointExtension>
            <ns3:atemp>18.0</ns3:atemp>
          </ns3:TrackPointExtension>
        </extensions>
      </trkpt>
      <trkpt lat="42.55922994576394557952880859375" lon="20.05637012422084808349609375">
        <ele>2196.199951171875</ele>
        <time>2026-06-19T11:24:43.000Z</time>
        <extensions>
          <ns3:TrackPointExtension>
            <ns3:atemp>18.0</ns3:atemp>
          </ns3:TrackPointExtension>
        </extensions>
      </trkpt>
      <trkpt lat="42.55922994576394557952880859375" lon="20.05637012422084808349609375">
        <ele>2196.199951171875</ele>
        <time>2026-06-19T11:24:44.000Z</time>
        <extensions>
          <ns3:TrackPointExtension>
            <ns3:atemp>18.0</ns3:atemp>
          </ns3:TrackPointExtension>
        </extensions>
      </trkpt>
      <trkpt lat="42.55922994576394557952880859375" lon="20.05637012422084808349609375">
        <ele>2196.199951171875</ele>
        <time>2026-06-19T11:24:45.000Z</time>
        <extensions>
          <ns3:TrackPointExtension>
            <ns3:atemp>18.0</ns3:atemp>
          </ns3:TrackPointExtension>
        </extensions>
      </trkpt>
      <trkpt lat="42.55922994576394557952880859375" lon="20.05637012422084808349609375">
        <ele>2196.199951171875</ele>
        <time>2026-06-19T11:24:46.000Z</time>
        <extensions>
          <ns3:TrackPointExtension>
            <ns3:atemp>18.0</ns3:atemp>
          </ns3:TrackPointExtension>
        </extensions>
      </trkpt>
      <trkpt lat="42.55922994576394557952880859375" lon="20.05637012422084808349609375">
        <ele>2196.199951171875</ele>
        <time>2026-06-19T11:24:47.000Z</time>
        <extensions>
          <ns3:TrackPointExtension>
            <ns3:atemp>18.0</ns3:atemp>
          </ns3:TrackPointExtension>
        </extensions>
      </trkpt>
      <trkpt lat="42.55922994576394557952880859375" lon="20.05637012422084808349609375">
        <ele>2196.199951171875</ele>
        <time>2026-06-19T11:24:48.000Z</time>
        <extensions>
          <ns3:TrackPointExtension>
            <ns3:atemp>18.0</ns3:atemp>
          </ns3:TrackPointExtension>
        </extensions>
      </trkpt>
      <trkpt lat="42.55922994576394557952880859375" lon="20.05637012422084808349609375">
        <ele>2196.199951171875</ele>
        <time>2026-06-19T11:24:49.000Z</time>
        <extensions>
          <ns3:TrackPointExtension>
            <ns3:atemp>18.0</ns3:atemp>
          </ns3:TrackPointExtension>
        </extensions>
      </trkpt>
      <trkpt lat="42.55922994576394557952880859375" lon="20.05637012422084808349609375">
        <ele>2196.199951171875</ele>
        <time>2026-06-19T11:24:50.000Z</time>
        <extensions>
          <ns3:TrackPointExtension>
            <ns3:atemp>18.0</ns3:atemp>
          </ns3:TrackPointExtension>
        </extensions>
      </trkpt>
      <trkpt lat="42.55922994576394557952880859375" lon="20.05637012422084808349609375">
        <ele>2196.199951171875</ele>
        <time>2026-06-19T11:24:51.000Z</time>
        <extensions>
          <ns3:TrackPointExtension>
            <ns3:atemp>18.0</ns3:atemp>
          </ns3:TrackPointExtension>
        </extensions>
      </trkpt>
      <trkpt lat="42.55922994576394557952880859375" lon="20.05637012422084808349609375">
        <ele>2196.199951171875</ele>
        <time>2026-06-19T11:24:52.000Z</time>
        <extensions>
          <ns3:TrackPointExtension>
            <ns3:atemp>18.0</ns3:atemp>
          </ns3:TrackPointExtension>
        </extensions>
      </trkpt>
      <trkpt lat="42.55922994576394557952880859375" lon="20.05637012422084808349609375">
        <ele>2196.199951171875</ele>
        <time>2026-06-19T11:24:53.000Z</time>
        <extensions>
          <ns3:TrackPointExtension>
            <ns3:atemp>18.0</ns3:atemp>
          </ns3:TrackPointExtension>
        </extensions>
      </trkpt>
      <trkpt lat="42.55922994576394557952880859375" lon="20.05637012422084808349609375">
        <ele>2196.199951171875</ele>
        <time>2026-06-19T11:24:54.000Z</time>
        <extensions>
          <ns3:TrackPointExtension>
            <ns3:atemp>18.0</ns3:atemp>
          </ns3:TrackPointExtension>
        </extensions>
      </trkpt>
      <trkpt lat="42.55922994576394557952880859375" lon="20.05637012422084808349609375">
        <ele>2196.199951171875</ele>
        <time>2026-06-19T11:24:55.000Z</time>
        <extensions>
          <ns3:TrackPointExtension>
            <ns3:atemp>18.0</ns3:atemp>
          </ns3:TrackPointExtension>
        </extensions>
      </trkpt>
      <trkpt lat="42.55922994576394557952880859375" lon="20.05637012422084808349609375">
        <ele>2196.199951171875</ele>
        <time>2026-06-19T11:24:56.000Z</time>
        <extensions>
          <ns3:TrackPointExtension>
            <ns3:atemp>18.0</ns3:atemp>
          </ns3:TrackPointExtension>
        </extensions>
      </trkpt>
      <trkpt lat="42.55922994576394557952880859375" lon="20.05637012422084808349609375">
        <ele>2196.199951171875</ele>
        <time>2026-06-19T11:24:57.000Z</time>
        <extensions>
          <ns3:TrackPointExtension>
            <ns3:atemp>18.0</ns3:atemp>
          </ns3:TrackPointExtension>
        </extensions>
      </trkpt>
      <trkpt lat="42.55922994576394557952880859375" lon="20.05637012422084808349609375">
        <ele>2196.199951171875</ele>
        <time>2026-06-19T11:24:58.000Z</time>
        <extensions>
          <ns3:TrackPointExtension>
            <ns3:atemp>18.0</ns3:atemp>
          </ns3:TrackPointExtension>
        </extensions>
      </trkpt>
      <trkpt lat="42.55922994576394557952880859375" lon="20.05637012422084808349609375">
        <ele>2196.199951171875</ele>
        <time>2026-06-19T11:24:59.000Z</time>
        <extensions>
          <ns3:TrackPointExtension>
            <ns3:atemp>18.0</ns3:atemp>
          </ns3:TrackPointExtension>
        </extensions>
      </trkpt>
      <trkpt lat="42.55922994576394557952880859375" lon="20.05637012422084808349609375">
        <ele>2196.199951171875</ele>
        <time>2026-06-19T11:25:00.000Z</time>
        <extensions>
          <ns3:TrackPointExtension>
            <ns3:atemp>18.0</ns3:atemp>
          </ns3:TrackPointExtension>
        </extensions>
      </trkpt>
      <trkpt lat="42.55922994576394557952880859375" lon="20.05637012422084808349609375">
        <ele>2196.199951171875</ele>
        <time>2026-06-19T11:25:01.000Z</time>
        <extensions>
          <ns3:TrackPointExtension>
            <ns3:atemp>18.0</ns3:atemp>
          </ns3:TrackPointExtension>
        </extensions>
      </trkpt>
      <trkpt lat="42.55922994576394557952880859375" lon="20.05637012422084808349609375">
        <ele>2196.199951171875</ele>
        <time>2026-06-19T11:25:02.000Z</time>
        <extensions>
          <ns3:TrackPointExtension>
            <ns3:atemp>18.0</ns3:atemp>
          </ns3:TrackPointExtension>
        </extensions>
      </trkpt>
      <trkpt lat="42.55922994576394557952880859375" lon="20.05637012422084808349609375">
        <ele>2196.199951171875</ele>
        <time>2026-06-19T11:25:03.000Z</time>
        <extensions>
          <ns3:TrackPointExtension>
            <ns3:atemp>18.0</ns3:atemp>
          </ns3:TrackPointExtension>
        </extensions>
      </trkpt>
      <trkpt lat="42.55922994576394557952880859375" lon="20.05637012422084808349609375">
        <ele>2196.199951171875</ele>
        <time>2026-06-19T11:25:04.000Z</time>
        <extensions>
          <ns3:TrackPointExtension>
            <ns3:atemp>18.0</ns3:atemp>
          </ns3:TrackPointExtension>
        </extensions>
      </trkpt>
      <trkpt lat="42.55922994576394557952880859375" lon="20.05637012422084808349609375">
        <ele>2196.199951171875</ele>
        <time>2026-06-19T11:25:05.000Z</time>
        <extensions>
          <ns3:TrackPointExtension>
            <ns3:atemp>18.0</ns3:atemp>
          </ns3:TrackPointExtension>
        </extensions>
      </trkpt>
      <trkpt lat="42.55922994576394557952880859375" lon="20.05637012422084808349609375">
        <ele>2196.199951171875</ele>
        <time>2026-06-19T11:25:06.000Z</time>
        <extensions>
          <ns3:TrackPointExtension>
            <ns3:atemp>18.0</ns3:atemp>
          </ns3:TrackPointExtension>
        </extensions>
      </trkpt>
      <trkpt lat="42.55922994576394557952880859375" lon="20.05637012422084808349609375">
        <ele>2196.199951171875</ele>
        <time>2026-06-19T11:25:07.000Z</time>
        <extensions>
          <ns3:TrackPointExtension>
            <ns3:atemp>18.0</ns3:atemp>
          </ns3:TrackPointExtension>
        </extensions>
      </trkpt>
      <trkpt lat="42.55922994576394557952880859375" lon="20.05637012422084808349609375">
        <ele>2196.199951171875</ele>
        <time>2026-06-19T11:25:08.000Z</time>
        <extensions>
          <ns3:TrackPointExtension>
            <ns3:atemp>18.0</ns3:atemp>
          </ns3:TrackPointExtension>
        </extensions>
      </trkpt>
      <trkpt lat="42.55922994576394557952880859375" lon="20.05637012422084808349609375">
        <ele>2196.199951171875</ele>
        <time>2026-06-19T11:25:09.000Z</time>
        <extensions>
          <ns3:TrackPointExtension>
            <ns3:atemp>18.0</ns3:atemp>
          </ns3:TrackPointExtension>
        </extensions>
      </trkpt>
      <trkpt lat="42.55922994576394557952880859375" lon="20.05637012422084808349609375">
        <ele>2196.199951171875</ele>
        <time>2026-06-19T11:25:10.000Z</time>
        <extensions>
          <ns3:TrackPointExtension>
            <ns3:atemp>18.0</ns3:atemp>
          </ns3:TrackPointExtension>
        </extensions>
      </trkpt>
      <trkpt lat="42.55922994576394557952880859375" lon="20.05637012422084808349609375">
        <ele>2196.199951171875</ele>
        <time>2026-06-19T11:25:11.000Z</time>
        <extensions>
          <ns3:TrackPointExtension>
            <ns3:atemp>18.0</ns3:atemp>
          </ns3:TrackPointExtension>
        </extensions>
      </trkpt>
      <trkpt lat="42.55922994576394557952880859375" lon="20.05637012422084808349609375">
        <ele>2196.199951171875</ele>
        <time>2026-06-19T11:25:12.000Z</time>
        <extensions>
          <ns3:TrackPointExtension>
            <ns3:atemp>18.0</ns3:atemp>
          </ns3:TrackPointExtension>
        </extensions>
      </trkpt>
      <trkpt lat="42.55922994576394557952880859375" lon="20.05637012422084808349609375">
        <ele>2196.199951171875</ele>
        <time>2026-06-19T11:25:13.000Z</time>
        <extensions>
          <ns3:TrackPointExtension>
            <ns3:atemp>18.0</ns3:atemp>
          </ns3:TrackPointExtension>
        </extensions>
      </trkpt>
      <trkpt lat="42.55922994576394557952880859375" lon="20.05637012422084808349609375">
        <ele>2196.199951171875</ele>
        <time>2026-06-19T11:25:14.000Z</time>
        <extensions>
          <ns3:TrackPointExtension>
            <ns3:atemp>18.0</ns3:atemp>
          </ns3:TrackPointExtension>
        </extensions>
      </trkpt>
      <trkpt lat="42.55922994576394557952880859375" lon="20.05637012422084808349609375">
        <ele>2196.199951171875</ele>
        <time>2026-06-19T11:25:15.000Z</time>
        <extensions>
          <ns3:TrackPointExtension>
            <ns3:atemp>18.0</ns3:atemp>
          </ns3:TrackPointExtension>
        </extensions>
      </trkpt>
      <trkpt lat="42.55922994576394557952880859375" lon="20.05637012422084808349609375">
        <ele>2196.199951171875</ele>
        <time>2026-06-19T11:25:16.000Z</time>
        <extensions>
          <ns3:TrackPointExtension>
            <ns3:atemp>18.0</ns3:atemp>
          </ns3:TrackPointExtension>
        </extensions>
      </trkpt>
      <trkpt lat="42.55922994576394557952880859375" lon="20.05637012422084808349609375">
        <ele>2196.199951171875</ele>
        <time>2026-06-19T11:25:17.000Z</time>
        <extensions>
          <ns3:TrackPointExtension>
            <ns3:atemp>18.0</ns3:atemp>
          </ns3:TrackPointExtension>
        </extensions>
      </trkpt>
      <trkpt lat="42.55922994576394557952880859375" lon="20.05637012422084808349609375">
        <ele>2196.199951171875</ele>
        <time>2026-06-19T11:25:18.000Z</time>
        <extensions>
          <ns3:TrackPointExtension>
            <ns3:atemp>18.0</ns3:atemp>
          </ns3:TrackPointExtension>
        </extensions>
      </trkpt>
      <trkpt lat="42.55922994576394557952880859375" lon="20.05637012422084808349609375">
        <ele>2196.199951171875</ele>
        <time>2026-06-19T11:25:19.000Z</time>
        <extensions>
          <ns3:TrackPointExtension>
            <ns3:atemp>18.0</ns3:atemp>
          </ns3:TrackPointExtension>
        </extensions>
      </trkpt>
      <trkpt lat="42.55922994576394557952880859375" lon="20.05637012422084808349609375">
        <ele>2196.199951171875</ele>
        <time>2026-06-19T11:25:20.000Z</time>
        <extensions>
          <ns3:TrackPointExtension>
            <ns3:atemp>18.0</ns3:atemp>
          </ns3:TrackPointExtension>
        </extensions>
      </trkpt>
      <trkpt lat="42.55922994576394557952880859375" lon="20.05637012422084808349609375">
        <ele>2196.199951171875</ele>
        <time>2026-06-19T11:25:21.000Z</time>
        <extensions>
          <ns3:TrackPointExtension>
            <ns3:atemp>18.0</ns3:atemp>
          </ns3:TrackPointExtension>
        </extensions>
      </trkpt>
      <trkpt lat="42.55922994576394557952880859375" lon="20.05637012422084808349609375">
        <ele>2196.199951171875</ele>
        <time>2026-06-19T11:25:22.000Z</time>
        <extensions>
          <ns3:TrackPointExtension>
            <ns3:atemp>18.0</ns3:atemp>
          </ns3:TrackPointExtension>
        </extensions>
      </trkpt>
      <trkpt lat="42.55922994576394557952880859375" lon="20.05637012422084808349609375">
        <ele>2196.199951171875</ele>
        <time>2026-06-19T11:25:23.000Z</time>
        <extensions>
          <ns3:TrackPointExtension>
            <ns3:atemp>18.0</ns3:atemp>
          </ns3:TrackPointExtension>
        </extensions>
      </trkpt>
      <trkpt lat="42.55922994576394557952880859375" lon="20.05637012422084808349609375">
        <ele>2196.199951171875</ele>
        <time>2026-06-19T11:25:24.000Z</time>
        <extensions>
          <ns3:TrackPointExtension>
            <ns3:atemp>18.0</ns3:atemp>
          </ns3:TrackPointExtension>
        </extensions>
      </trkpt>
      <trkpt lat="42.55922994576394557952880859375" lon="20.05637012422084808349609375">
        <ele>2196.199951171875</ele>
        <time>2026-06-19T11:25:25.000Z</time>
        <extensions>
          <ns3:TrackPointExtension>
            <ns3:atemp>18.0</ns3:atemp>
          </ns3:TrackPointExtension>
        </extensions>
      </trkpt>
      <trkpt lat="42.55922994576394557952880859375" lon="20.05637012422084808349609375">
        <ele>2196.199951171875</ele>
        <time>2026-06-19T11:25:26.000Z</time>
        <extensions>
          <ns3:TrackPointExtension>
            <ns3:atemp>18.0</ns3:atemp>
          </ns3:TrackPointExtension>
        </extensions>
      </trkpt>
      <trkpt lat="42.55922994576394557952880859375" lon="20.05637012422084808349609375">
        <ele>2196.199951171875</ele>
        <time>2026-06-19T11:25:27.000Z</time>
        <extensions>
          <ns3:TrackPointExtension>
            <ns3:atemp>18.0</ns3:atemp>
          </ns3:TrackPointExtension>
        </extensions>
      </trkpt>
      <trkpt lat="42.55922994576394557952880859375" lon="20.05637012422084808349609375">
        <ele>2196.199951171875</ele>
        <time>2026-06-19T11:25:28.000Z</time>
        <extensions>
          <ns3:TrackPointExtension>
            <ns3:atemp>18.0</ns3:atemp>
          </ns3:TrackPointExtension>
        </extensions>
      </trkpt>
      <trkpt lat="42.55922994576394557952880859375" lon="20.05637012422084808349609375">
        <ele>2196.199951171875</ele>
        <time>2026-06-19T11:25:29.000Z</time>
        <extensions>
          <ns3:TrackPointExtension>
            <ns3:atemp>18.0</ns3:atemp>
          </ns3:TrackPointExtension>
        </extensions>
      </trkpt>
      <trkpt lat="42.55922994576394557952880859375" lon="20.05637012422084808349609375">
        <ele>2196.199951171875</ele>
        <time>2026-06-19T11:25:30.000Z</time>
        <extensions>
          <ns3:TrackPointExtension>
            <ns3:atemp>18.0</ns3:atemp>
          </ns3:TrackPointExtension>
        </extensions>
      </trkpt>
      <trkpt lat="42.55922994576394557952880859375" lon="20.05637012422084808349609375">
        <ele>2196.199951171875</ele>
        <time>2026-06-19T11:25:31.000Z</time>
        <extensions>
          <ns3:TrackPointExtension>
            <ns3:atemp>18.0</ns3:atemp>
          </ns3:TrackPointExtension>
        </extensions>
      </trkpt>
      <trkpt lat="42.55922994576394557952880859375" lon="20.05637012422084808349609375">
        <ele>2196.199951171875</ele>
        <time>2026-06-19T11:25:32.000Z</time>
        <extensions>
          <ns3:TrackPointExtension>
            <ns3:atemp>18.0</ns3:atemp>
          </ns3:TrackPointExtension>
        </extensions>
      </trkpt>
      <trkpt lat="42.55922994576394557952880859375" lon="20.05637012422084808349609375">
        <ele>2196.199951171875</ele>
        <time>2026-06-19T11:25:33.000Z</time>
        <extensions>
          <ns3:TrackPointExtension>
            <ns3:atemp>18.0</ns3:atemp>
          </ns3:TrackPointExtension>
        </extensions>
      </trkpt>
      <trkpt lat="42.55922994576394557952880859375" lon="20.05637012422084808349609375">
        <ele>2196.199951171875</ele>
        <time>2026-06-19T11:25:34.000Z</time>
        <extensions>
          <ns3:TrackPointExtension>
            <ns3:atemp>18.0</ns3:atemp>
          </ns3:TrackPointExtension>
        </extensions>
      </trkpt>
      <trkpt lat="42.55922994576394557952880859375" lon="20.05637012422084808349609375">
        <ele>2196.199951171875</ele>
        <time>2026-06-19T11:25:35.000Z</time>
        <extensions>
          <ns3:TrackPointExtension>
            <ns3:atemp>18.0</ns3:atemp>
          </ns3:TrackPointExtension>
        </extensions>
      </trkpt>
      <trkpt lat="42.55922994576394557952880859375" lon="20.05637012422084808349609375">
        <ele>2196.199951171875</ele>
        <time>2026-06-19T11:25:36.000Z</time>
        <extensions>
          <ns3:TrackPointExtension>
            <ns3:atemp>18.0</ns3:atemp>
          </ns3:TrackPointExtension>
        </extensions>
      </trkpt>
      <trkpt lat="42.55922994576394557952880859375" lon="20.05637012422084808349609375">
        <ele>2196.199951171875</ele>
        <time>2026-06-19T11:25:37.000Z</time>
        <extensions>
          <ns3:TrackPointExtension>
            <ns3:atemp>18.0</ns3:atemp>
          </ns3:TrackPointExtension>
        </extensions>
      </trkpt>
      <trkpt lat="42.55922994576394557952880859375" lon="20.05637012422084808349609375">
        <ele>2196.199951171875</ele>
        <time>2026-06-19T11:25:38.000Z</time>
        <extensions>
          <ns3:TrackPointExtension>
            <ns3:atemp>18.0</ns3:atemp>
          </ns3:TrackPointExtension>
        </extensions>
      </trkpt>
      <trkpt lat="42.55922994576394557952880859375" lon="20.05637012422084808349609375">
        <ele>2196.199951171875</ele>
        <time>2026-06-19T11:25:39.000Z</time>
        <extensions>
          <ns3:TrackPointExtension>
            <ns3:atemp>18.0</ns3:atemp>
          </ns3:TrackPointExtension>
        </extensions>
      </trkpt>
      <trkpt lat="42.55922994576394557952880859375" lon="20.05637012422084808349609375">
        <ele>2196.199951171875</ele>
        <time>2026-06-19T11:25:40.000Z</time>
        <extensions>
          <ns3:TrackPointExtension>
            <ns3:atemp>18.0</ns3:atemp>
          </ns3:TrackPointExtension>
        </extensions>
      </trkpt>
      <trkpt lat="42.55922994576394557952880859375" lon="20.05637012422084808349609375">
        <ele>2196.199951171875</ele>
        <time>2026-06-19T11:25:41.000Z</time>
        <extensions>
          <ns3:TrackPointExtension>
            <ns3:atemp>18.0</ns3:atemp>
          </ns3:TrackPointExtension>
        </extensions>
      </trkpt>
      <trkpt lat="42.55922994576394557952880859375" lon="20.05637012422084808349609375">
        <ele>2196.199951171875</ele>
        <time>2026-06-19T11:25:42.000Z</time>
        <extensions>
          <ns3:TrackPointExtension>
            <ns3:atemp>18.0</ns3:atemp>
          </ns3:TrackPointExtension>
        </extensions>
      </trkpt>
      <trkpt lat="42.55922994576394557952880859375" lon="20.05637012422084808349609375">
        <ele>2196.199951171875</ele>
        <time>2026-06-19T11:25:43.000Z</time>
        <extensions>
          <ns3:TrackPointExtension>
            <ns3:atemp>18.0</ns3:atemp>
          </ns3:TrackPointExtension>
        </extensions>
      </trkpt>
      <trkpt lat="42.55922994576394557952880859375" lon="20.05637012422084808349609375">
        <ele>2196.199951171875</ele>
        <time>2026-06-19T11:25:44.000Z</time>
        <extensions>
          <ns3:TrackPointExtension>
            <ns3:atemp>18.0</ns3:atemp>
          </ns3:TrackPointExtension>
        </extensions>
      </trkpt>
      <trkpt lat="42.55922994576394557952880859375" lon="20.05637012422084808349609375">
        <ele>2196.199951171875</ele>
        <time>2026-06-19T11:25:45.000Z</time>
        <extensions>
          <ns3:TrackPointExtension>
            <ns3:atemp>18.0</ns3:atemp>
          </ns3:TrackPointExtension>
        </extensions>
      </trkpt>
      <trkpt lat="42.55922994576394557952880859375" lon="20.05637012422084808349609375">
        <ele>2196.199951171875</ele>
        <time>2026-06-19T11:25:46.000Z</time>
        <extensions>
          <ns3:TrackPointExtension>
            <ns3:atemp>18.0</ns3:atemp>
          </ns3:TrackPointExtension>
        </extensions>
      </trkpt>
      <trkpt lat="42.55922994576394557952880859375" lon="20.05637012422084808349609375">
        <ele>2196.199951171875</ele>
        <time>2026-06-19T11:25:47.000Z</time>
        <extensions>
          <ns3:TrackPointExtension>
            <ns3:atemp>18.0</ns3:atemp>
          </ns3:TrackPointExtension>
        </extensions>
      </trkpt>
      <trkpt lat="42.55922994576394557952880859375" lon="20.05637012422084808349609375">
        <ele>2196.199951171875</ele>
        <time>2026-06-19T11:25:48.000Z</time>
        <extensions>
          <ns3:TrackPointExtension>
            <ns3:atemp>18.0</ns3:atemp>
          </ns3:TrackPointExtension>
        </extensions>
      </trkpt>
      <trkpt lat="42.55922994576394557952880859375" lon="20.05637012422084808349609375">
        <ele>2196.199951171875</ele>
        <time>2026-06-19T11:25:49.000Z</time>
        <extensions>
          <ns3:TrackPointExtension>
            <ns3:atemp>18.0</ns3:atemp>
          </ns3:TrackPointExtension>
        </extensions>
      </trkpt>
      <trkpt lat="42.55922994576394557952880859375" lon="20.05637012422084808349609375">
        <ele>2196.199951171875</ele>
        <time>2026-06-19T11:25:50.000Z</time>
        <extensions>
          <ns3:TrackPointExtension>
            <ns3:atemp>18.0</ns3:atemp>
          </ns3:TrackPointExtension>
        </extensions>
      </trkpt>
      <trkpt lat="42.55922994576394557952880859375" lon="20.05637012422084808349609375">
        <ele>2196.199951171875</ele>
        <time>2026-06-19T11:25:51.000Z</time>
        <extensions>
          <ns3:TrackPointExtension>
            <ns3:atemp>18.0</ns3:atemp>
          </ns3:TrackPointExtension>
        </extensions>
      </trkpt>
      <trkpt lat="42.55922994576394557952880859375" lon="20.05637012422084808349609375">
        <ele>2196.199951171875</ele>
        <time>2026-06-19T11:25:52.000Z</time>
        <extensions>
          <ns3:TrackPointExtension>
            <ns3:atemp>18.0</ns3:atemp>
          </ns3:TrackPointExtension>
        </extensions>
      </trkpt>
      <trkpt lat="42.55922994576394557952880859375" lon="20.05637012422084808349609375">
        <ele>2196.199951171875</ele>
        <time>2026-06-19T11:25:53.000Z</time>
        <extensions>
          <ns3:TrackPointExtension>
            <ns3:atemp>18.0</ns3:atemp>
          </ns3:TrackPointExtension>
        </extensions>
      </trkpt>
      <trkpt lat="42.55922994576394557952880859375" lon="20.05637012422084808349609375">
        <ele>2196.199951171875</ele>
        <time>2026-06-19T11:25:54.000Z</time>
        <extensions>
          <ns3:TrackPointExtension>
            <ns3:atemp>18.0</ns3:atemp>
          </ns3:TrackPointExtension>
        </extensions>
      </trkpt>
      <trkpt lat="42.55922994576394557952880859375" lon="20.05637012422084808349609375">
        <ele>2196.199951171875</ele>
        <time>2026-06-19T11:25:55.000Z</time>
        <extensions>
          <ns3:TrackPointExtension>
            <ns3:atemp>18.0</ns3:atemp>
          </ns3:TrackPointExtension>
        </extensions>
      </trkpt>
      <trkpt lat="42.55922994576394557952880859375" lon="20.05637012422084808349609375">
        <ele>2196.199951171875</ele>
        <time>2026-06-19T11:25:56.000Z</time>
        <extensions>
          <ns3:TrackPointExtension>
            <ns3:atemp>18.0</ns3:atemp>
          </ns3:TrackPointExtension>
        </extensions>
      </trkpt>
      <trkpt lat="42.55922994576394557952880859375" lon="20.05637012422084808349609375">
        <ele>2196.199951171875</ele>
        <time>2026-06-19T11:25:57.000Z</time>
        <extensions>
          <ns3:TrackPointExtension>
            <ns3:atemp>18.0</ns3:atemp>
          </ns3:TrackPointExtension>
        </extensions>
      </trkpt>
      <trkpt lat="42.55922994576394557952880859375" lon="20.05637012422084808349609375">
        <ele>2196.199951171875</ele>
        <time>2026-06-19T11:25:58.000Z</time>
        <extensions>
          <ns3:TrackPointExtension>
            <ns3:atemp>18.0</ns3:atemp>
          </ns3:TrackPointExtension>
        </extensions>
      </trkpt>
      <trkpt lat="42.55922994576394557952880859375" lon="20.05637012422084808349609375">
        <ele>2196.199951171875</ele>
        <time>2026-06-19T11:25:59.000Z</time>
        <extensions>
          <ns3:TrackPointExtension>
            <ns3:atemp>18.0</ns3:atemp>
          </ns3:TrackPointExtension>
        </extensions>
      </trkpt>
      <trkpt lat="42.55922994576394557952880859375" lon="20.05637012422084808349609375">
        <ele>2196.199951171875</ele>
        <time>2026-06-19T11:26:00.000Z</time>
        <extensions>
          <ns3:TrackPointExtension>
            <ns3:atemp>18.0</ns3:atemp>
          </ns3:TrackPointExtension>
        </extensions>
      </trkpt>
      <trkpt lat="42.55922994576394557952880859375" lon="20.05637012422084808349609375">
        <ele>2196.199951171875</ele>
        <time>2026-06-19T11:26:01.000Z</time>
        <extensions>
          <ns3:TrackPointExtension>
            <ns3:atemp>18.0</ns3:atemp>
          </ns3:TrackPointExtension>
        </extensions>
      </trkpt>
      <trkpt lat="42.55922994576394557952880859375" lon="20.05637012422084808349609375">
        <ele>2196.199951171875</ele>
        <time>2026-06-19T11:26:02.000Z</time>
        <extensions>
          <ns3:TrackPointExtension>
            <ns3:atemp>18.0</ns3:atemp>
          </ns3:TrackPointExtension>
        </extensions>
      </trkpt>
      <trkpt lat="42.55922994576394557952880859375" lon="20.05637012422084808349609375">
        <ele>2196.199951171875</ele>
        <time>2026-06-19T11:26:03.000Z</time>
        <extensions>
          <ns3:TrackPointExtension>
            <ns3:atemp>18.0</ns3:atemp>
          </ns3:TrackPointExtension>
        </extensions>
      </trkpt>
      <trkpt lat="42.55922994576394557952880859375" lon="20.05637012422084808349609375">
        <ele>2196.199951171875</ele>
        <time>2026-06-19T11:26:04.000Z</time>
        <extensions>
          <ns3:TrackPointExtension>
            <ns3:atemp>18.0</ns3:atemp>
          </ns3:TrackPointExtension>
        </extensions>
      </trkpt>
      <trkpt lat="42.55922994576394557952880859375" lon="20.05637012422084808349609375">
        <ele>2196.199951171875</ele>
        <time>2026-06-19T11:26:05.000Z</time>
        <extensions>
          <ns3:TrackPointExtension>
            <ns3:atemp>18.0</ns3:atemp>
          </ns3:TrackPointExtension>
        </extensions>
      </trkpt>
      <trkpt lat="42.55922994576394557952880859375" lon="20.05637012422084808349609375">
        <ele>2196.199951171875</ele>
        <time>2026-06-19T11:26:06.000Z</time>
        <extensions>
          <ns3:TrackPointExtension>
            <ns3:atemp>18.0</ns3:atemp>
          </ns3:TrackPointExtension>
        </extensions>
      </trkpt>
      <trkpt lat="42.55922994576394557952880859375" lon="20.05637012422084808349609375">
        <ele>2196.199951171875</ele>
        <time>2026-06-19T11:26:07.000Z</time>
        <extensions>
          <ns3:TrackPointExtension>
            <ns3:atemp>18.0</ns3:atemp>
          </ns3:TrackPointExtension>
        </extensions>
      </trkpt>
      <trkpt lat="42.55922994576394557952880859375" lon="20.05637012422084808349609375">
        <ele>2196.199951171875</ele>
        <time>2026-06-19T11:26:08.000Z</time>
        <extensions>
          <ns3:TrackPointExtension>
            <ns3:atemp>18.0</ns3:atemp>
          </ns3:TrackPointExtension>
        </extensions>
      </trkpt>
      <trkpt lat="42.55922994576394557952880859375" lon="20.05637012422084808349609375">
        <ele>2196.199951171875</ele>
        <time>2026-06-19T11:26:09.000Z</time>
        <extensions>
          <ns3:TrackPointExtension>
            <ns3:atemp>18.0</ns3:atemp>
          </ns3:TrackPointExtension>
        </extensions>
      </trkpt>
      <trkpt lat="42.55922994576394557952880859375" lon="20.05637012422084808349609375">
        <ele>2196.199951171875</ele>
        <time>2026-06-19T11:26:10.000Z</time>
        <extensions>
          <ns3:TrackPointExtension>
            <ns3:atemp>18.0</ns3:atemp>
          </ns3:TrackPointExtension>
        </extensions>
      </trkpt>
      <trkpt lat="42.55922994576394557952880859375" lon="20.05637012422084808349609375">
        <ele>2196.199951171875</ele>
        <time>2026-06-19T11:26:11.000Z</time>
        <extensions>
          <ns3:TrackPointExtension>
            <ns3:atemp>18.0</ns3:atemp>
          </ns3:TrackPointExtension>
        </extensions>
      </trkpt>
      <trkpt lat="42.55922994576394557952880859375" lon="20.05637012422084808349609375">
        <ele>2196.199951171875</ele>
        <time>2026-06-19T11:26:12.000Z</time>
        <extensions>
          <ns3:TrackPointExtension>
            <ns3:atemp>18.0</ns3:atemp>
          </ns3:TrackPointExtension>
        </extensions>
      </trkpt>
      <trkpt lat="42.55922994576394557952880859375" lon="20.05637012422084808349609375">
        <ele>2196.199951171875</ele>
        <time>2026-06-19T11:26:13.000Z</time>
        <extensions>
          <ns3:TrackPointExtension>
            <ns3:atemp>18.0</ns3:atemp>
          </ns3:TrackPointExtension>
        </extensions>
      </trkpt>
      <trkpt lat="42.55922994576394557952880859375" lon="20.05637012422084808349609375">
        <ele>2196.199951171875</ele>
        <time>2026-06-19T11:26:14.000Z</time>
        <extensions>
          <ns3:TrackPointExtension>
            <ns3:atemp>18.0</ns3:atemp>
          </ns3:TrackPointExtension>
        </extensions>
      </trkpt>
      <trkpt lat="42.55922994576394557952880859375" lon="20.05637012422084808349609375">
        <ele>2196.199951171875</ele>
        <time>2026-06-19T11:26:15.000Z</time>
        <extensions>
          <ns3:TrackPointExtension>
            <ns3:atemp>18.0</ns3:atemp>
          </ns3:TrackPointExtension>
        </extensions>
      </trkpt>
      <trkpt lat="42.55922994576394557952880859375" lon="20.05637012422084808349609375">
        <ele>2196.199951171875</ele>
        <time>2026-06-19T11:26:16.000Z</time>
        <extensions>
          <ns3:TrackPointExtension>
            <ns3:atemp>18.0</ns3:atemp>
          </ns3:TrackPointExtension>
        </extensions>
      </trkpt>
      <trkpt lat="42.55922994576394557952880859375" lon="20.05637012422084808349609375">
        <ele>2196.199951171875</ele>
        <time>2026-06-19T11:26:17.000Z</time>
        <extensions>
          <ns3:TrackPointExtension>
            <ns3:atemp>18.0</ns3:atemp>
          </ns3:TrackPointExtension>
        </extensions>
      </trkpt>
      <trkpt lat="42.55922994576394557952880859375" lon="20.05637012422084808349609375">
        <ele>2196.199951171875</ele>
        <time>2026-06-19T11:26:18.000Z</time>
        <extensions>
          <ns3:TrackPointExtension>
            <ns3:atemp>18.0</ns3:atemp>
          </ns3:TrackPointExtension>
        </extensions>
      </trkpt>
      <trkpt lat="42.55922994576394557952880859375" lon="20.05637012422084808349609375">
        <ele>2196.199951171875</ele>
        <time>2026-06-19T11:26:19.000Z</time>
        <extensions>
          <ns3:TrackPointExtension>
            <ns3:atemp>18.0</ns3:atemp>
          </ns3:TrackPointExtension>
        </extensions>
      </trkpt>
      <trkpt lat="42.55922994576394557952880859375" lon="20.05637012422084808349609375">
        <ele>2196.199951171875</ele>
        <time>2026-06-19T11:26:20.000Z</time>
        <extensions>
          <ns3:TrackPointExtension>
            <ns3:atemp>18.0</ns3:atemp>
          </ns3:TrackPointExtension>
        </extensions>
      </trkpt>
      <trkpt lat="42.55922994576394557952880859375" lon="20.05637012422084808349609375">
        <ele>2196.199951171875</ele>
        <time>2026-06-19T11:26:21.000Z</time>
        <extensions>
          <ns3:TrackPointExtension>
            <ns3:atemp>18.0</ns3:atemp>
          </ns3:TrackPointExtension>
        </extensions>
      </trkpt>
      <trkpt lat="42.55922994576394557952880859375" lon="20.05637012422084808349609375">
        <ele>2196.199951171875</ele>
        <time>2026-06-19T11:26:22.000Z</time>
        <extensions>
          <ns3:TrackPointExtension>
            <ns3:atemp>18.0</ns3:atemp>
          </ns3:TrackPointExtension>
        </extensions>
      </trkpt>
      <trkpt lat="42.55922994576394557952880859375" lon="20.05637012422084808349609375">
        <ele>2196.199951171875</ele>
        <time>2026-06-19T11:26:23.000Z</time>
        <extensions>
          <ns3:TrackPointExtension>
            <ns3:atemp>18.0</ns3:atemp>
          </ns3:TrackPointExtension>
        </extensions>
      </trkpt>
      <trkpt lat="42.55922994576394557952880859375" lon="20.05637012422084808349609375">
        <ele>2196.199951171875</ele>
        <time>2026-06-19T11:26:24.000Z</time>
        <extensions>
          <ns3:TrackPointExtension>
            <ns3:atemp>18.0</ns3:atemp>
          </ns3:TrackPointExtension>
        </extensions>
      </trkpt>
      <trkpt lat="42.55922994576394557952880859375" lon="20.05637012422084808349609375">
        <ele>2196.199951171875</ele>
        <time>2026-06-19T11:26:25.000Z</time>
        <extensions>
          <ns3:TrackPointExtension>
            <ns3:atemp>18.0</ns3:atemp>
          </ns3:TrackPointExtension>
        </extensions>
      </trkpt>
      <trkpt lat="42.55922994576394557952880859375" lon="20.05637012422084808349609375">
        <ele>2196.199951171875</ele>
        <time>2026-06-19T11:26:26.000Z</time>
        <extensions>
          <ns3:TrackPointExtension>
            <ns3:atemp>18.0</ns3:atemp>
          </ns3:TrackPointExtension>
        </extensions>
      </trkpt>
      <trkpt lat="42.55922994576394557952880859375" lon="20.05637012422084808349609375">
        <ele>2196.199951171875</ele>
        <time>2026-06-19T11:26:27.000Z</time>
        <extensions>
          <ns3:TrackPointExtension>
            <ns3:atemp>18.0</ns3:atemp>
          </ns3:TrackPointExtension>
        </extensions>
      </trkpt>
      <trkpt lat="42.55922994576394557952880859375" lon="20.05637012422084808349609375">
        <ele>2196.199951171875</ele>
        <time>2026-06-19T11:26:28.000Z</time>
        <extensions>
          <ns3:TrackPointExtension>
            <ns3:atemp>18.0</ns3:atemp>
          </ns3:TrackPointExtension>
        </extensions>
      </trkpt>
      <trkpt lat="42.55922994576394557952880859375" lon="20.05637012422084808349609375">
        <ele>2196.199951171875</ele>
        <time>2026-06-19T11:26:29.000Z</time>
        <extensions>
          <ns3:TrackPointExtension>
            <ns3:atemp>18.0</ns3:atemp>
          </ns3:TrackPointExtension>
        </extensions>
      </trkpt>
      <trkpt lat="42.55922994576394557952880859375" lon="20.05637012422084808349609375">
        <ele>2196.199951171875</ele>
        <time>2026-06-19T11:26:30.000Z</time>
        <extensions>
          <ns3:TrackPointExtension>
            <ns3:atemp>18.0</ns3:atemp>
          </ns3:TrackPointExtension>
        </extensions>
      </trkpt>
      <trkpt lat="42.55922994576394557952880859375" lon="20.05637012422084808349609375">
        <ele>2196.199951171875</ele>
        <time>2026-06-19T11:26:31.000Z</time>
        <extensions>
          <ns3:TrackPointExtension>
            <ns3:atemp>18.0</ns3:atemp>
          </ns3:TrackPointExtension>
        </extensions>
      </trkpt>
      <trkpt lat="42.55922994576394557952880859375" lon="20.05637012422084808349609375">
        <ele>2196.199951171875</ele>
        <time>2026-06-19T11:26:32.000Z</time>
        <extensions>
          <ns3:TrackPointExtension>
            <ns3:atemp>18.0</ns3:atemp>
          </ns3:TrackPointExtension>
        </extensions>
      </trkpt>
      <trkpt lat="42.55922994576394557952880859375" lon="20.05637012422084808349609375">
        <ele>2196.199951171875</ele>
        <time>2026-06-19T11:26:33.000Z</time>
        <extensions>
          <ns3:TrackPointExtension>
            <ns3:atemp>18.0</ns3:atemp>
          </ns3:TrackPointExtension>
        </extensions>
      </trkpt>
      <trkpt lat="42.55922994576394557952880859375" lon="20.05637012422084808349609375">
        <ele>2196.199951171875</ele>
        <time>2026-06-19T11:26:34.000Z</time>
        <extensions>
          <ns3:TrackPointExtension>
            <ns3:atemp>18.0</ns3:atemp>
          </ns3:TrackPointExtension>
        </extensions>
      </trkpt>
      <trkpt lat="42.55922994576394557952880859375" lon="20.05637012422084808349609375">
        <ele>2196.199951171875</ele>
        <time>2026-06-19T11:26:35.000Z</time>
        <extensions>
          <ns3:TrackPointExtension>
            <ns3:atemp>18.0</ns3:atemp>
          </ns3:TrackPointExtension>
        </extensions>
      </trkpt>
      <trkpt lat="42.55922994576394557952880859375" lon="20.05637012422084808349609375">
        <ele>2196.199951171875</ele>
        <time>2026-06-19T11:26:36.000Z</time>
        <extensions>
          <ns3:TrackPointExtension>
            <ns3:atemp>18.0</ns3:atemp>
          </ns3:TrackPointExtension>
        </extensions>
      </trkpt>
      <trkpt lat="42.55922994576394557952880859375" lon="20.05637012422084808349609375">
        <ele>2196.199951171875</ele>
        <time>2026-06-19T11:26:37.000Z</time>
        <extensions>
          <ns3:TrackPointExtension>
            <ns3:atemp>18.0</ns3:atemp>
          </ns3:TrackPointExtension>
        </extensions>
      </trkpt>
      <trkpt lat="42.55922994576394557952880859375" lon="20.05637012422084808349609375">
        <ele>2196.199951171875</ele>
        <time>2026-06-19T11:26:38.000Z</time>
        <extensions>
          <ns3:TrackPointExtension>
            <ns3:atemp>18.0</ns3:atemp>
          </ns3:TrackPointExtension>
        </extensions>
      </trkpt>
      <trkpt lat="42.55922994576394557952880859375" lon="20.05637012422084808349609375">
        <ele>2196.199951171875</ele>
        <time>2026-06-19T11:26:39.000Z</time>
        <extensions>
          <ns3:TrackPointExtension>
            <ns3:atemp>18.0</ns3:atemp>
          </ns3:TrackPointExtension>
        </extensions>
      </trkpt>
      <trkpt lat="42.55922994576394557952880859375" lon="20.05637012422084808349609375">
        <ele>2196.199951171875</ele>
        <time>2026-06-19T11:26:40.000Z</time>
        <extensions>
          <ns3:TrackPointExtension>
            <ns3:atemp>18.0</ns3:atemp>
          </ns3:TrackPointExtension>
        </extensions>
      </trkpt>
      <trkpt lat="42.55922994576394557952880859375" lon="20.05637012422084808349609375">
        <ele>2196.199951171875</ele>
        <time>2026-06-19T11:26:41.000Z</time>
        <extensions>
          <ns3:TrackPointExtension>
            <ns3:atemp>18.0</ns3:atemp>
          </ns3:TrackPointExtension>
        </extensions>
      </trkpt>
      <trkpt lat="42.55922994576394557952880859375" lon="20.05637012422084808349609375">
        <ele>2196.199951171875</ele>
        <time>2026-06-19T11:26:42.000Z</time>
        <extensions>
          <ns3:TrackPointExtension>
            <ns3:atemp>18.0</ns3:atemp>
          </ns3:TrackPointExtension>
        </extensions>
      </trkpt>
      <trkpt lat="42.55922994576394557952880859375" lon="20.05637012422084808349609375">
        <ele>2196.199951171875</ele>
        <time>2026-06-19T11:26:43.000Z</time>
        <extensions>
          <ns3:TrackPointExtension>
            <ns3:atemp>18.0</ns3:atemp>
          </ns3:TrackPointExtension>
        </extensions>
      </trkpt>
      <trkpt lat="42.55922994576394557952880859375" lon="20.05637012422084808349609375">
        <ele>2196.199951171875</ele>
        <time>2026-06-19T11:26:44.000Z</time>
        <extensions>
          <ns3:TrackPointExtension>
            <ns3:atemp>18.0</ns3:atemp>
          </ns3:TrackPointExtension>
        </extensions>
      </trkpt>
      <trkpt lat="42.55922994576394557952880859375" lon="20.05637012422084808349609375">
        <ele>2196.199951171875</ele>
        <time>2026-06-19T11:26:45.000Z</time>
        <extensions>
          <ns3:TrackPointExtension>
            <ns3:atemp>18.0</ns3:atemp>
          </ns3:TrackPointExtension>
        </extensions>
      </trkpt>
      <trkpt lat="42.55922994576394557952880859375" lon="20.05637012422084808349609375">
        <ele>2196.199951171875</ele>
        <time>2026-06-19T11:26:46.000Z</time>
        <extensions>
          <ns3:TrackPointExtension>
            <ns3:atemp>18.0</ns3:atemp>
          </ns3:TrackPointExtension>
        </extensions>
      </trkpt>
      <trkpt lat="42.55922994576394557952880859375" lon="20.05637012422084808349609375">
        <ele>2196.199951171875</ele>
        <time>2026-06-19T11:26:47.000Z</time>
        <extensions>
          <ns3:TrackPointExtension>
            <ns3:atemp>18.0</ns3:atemp>
          </ns3:TrackPointExtension>
        </extensions>
      </trkpt>
      <trkpt lat="42.55922994576394557952880859375" lon="20.05637012422084808349609375">
        <ele>2196.199951171875</ele>
        <time>2026-06-19T11:26:48.000Z</time>
        <extensions>
          <ns3:TrackPointExtension>
            <ns3:atemp>18.0</ns3:atemp>
          </ns3:TrackPointExtension>
        </extensions>
      </trkpt>
      <trkpt lat="42.55922994576394557952880859375" lon="20.05637012422084808349609375">
        <ele>2196.199951171875</ele>
        <time>2026-06-19T11:26:49.000Z</time>
        <extensions>
          <ns3:TrackPointExtension>
            <ns3:atemp>18.0</ns3:atemp>
          </ns3:TrackPointExtension>
        </extensions>
      </trkpt>
      <trkpt lat="42.55922994576394557952880859375" lon="20.05637012422084808349609375">
        <ele>2196.199951171875</ele>
        <time>2026-06-19T11:26:50.000Z</time>
        <extensions>
          <ns3:TrackPointExtension>
            <ns3:atemp>18.0</ns3:atemp>
          </ns3:TrackPointExtension>
        </extensions>
      </trkpt>
      <trkpt lat="42.55922994576394557952880859375" lon="20.05637012422084808349609375">
        <ele>2196.199951171875</ele>
        <time>2026-06-19T11:26:51.000Z</time>
        <extensions>
          <ns3:TrackPointExtension>
            <ns3:atemp>18.0</ns3:atemp>
          </ns3:TrackPointExtension>
        </extensions>
      </trkpt>
      <trkpt lat="42.55922994576394557952880859375" lon="20.05637012422084808349609375">
        <ele>2196.199951171875</ele>
        <time>2026-06-19T11:26:52.000Z</time>
        <extensions>
          <ns3:TrackPointExtension>
            <ns3:atemp>18.0</ns3:atemp>
          </ns3:TrackPointExtension>
        </extensions>
      </trkpt>
      <trkpt lat="42.55922994576394557952880859375" lon="20.05637012422084808349609375">
        <ele>2196.199951171875</ele>
        <time>2026-06-19T11:26:53.000Z</time>
        <extensions>
          <ns3:TrackPointExtension>
            <ns3:atemp>18.0</ns3:atemp>
          </ns3:TrackPointExtension>
        </extensions>
      </trkpt>
      <trkpt lat="42.55922994576394557952880859375" lon="20.05637012422084808349609375">
        <ele>2196.199951171875</ele>
        <time>2026-06-19T11:26:54.000Z</time>
        <extensions>
          <ns3:TrackPointExtension>
            <ns3:atemp>18.0</ns3:atemp>
          </ns3:TrackPointExtension>
        </extensions>
      </trkpt>
      <trkpt lat="42.55922994576394557952880859375" lon="20.05637012422084808349609375">
        <ele>2196.199951171875</ele>
        <time>2026-06-19T11:26:55.000Z</time>
        <extensions>
          <ns3:TrackPointExtension>
            <ns3:atemp>18.0</ns3:atemp>
          </ns3:TrackPointExtension>
        </extensions>
      </trkpt>
      <trkpt lat="42.55922994576394557952880859375" lon="20.05637012422084808349609375">
        <ele>2196.199951171875</ele>
        <time>2026-06-19T11:26:56.000Z</time>
        <extensions>
          <ns3:TrackPointExtension>
            <ns3:atemp>18.0</ns3:atemp>
          </ns3:TrackPointExtension>
        </extensions>
      </trkpt>
      <trkpt lat="42.55922994576394557952880859375" lon="20.05637012422084808349609375">
        <ele>2196.199951171875</ele>
        <time>2026-06-19T11:26:57.000Z</time>
        <extensions>
          <ns3:TrackPointExtension>
            <ns3:atemp>18.0</ns3:atemp>
          </ns3:TrackPointExtension>
        </extensions>
      </trkpt>
      <trkpt lat="42.55922994576394557952880859375" lon="20.05637012422084808349609375">
        <ele>2196.199951171875</ele>
        <time>2026-06-19T11:26:58.000Z</time>
        <extensions>
          <ns3:TrackPointExtension>
            <ns3:atemp>18.0</ns3:atemp>
          </ns3:TrackPointExtension>
        </extensions>
      </trkpt>
      <trkpt lat="42.55922994576394557952880859375" lon="20.05637012422084808349609375">
        <ele>2196.199951171875</ele>
        <time>2026-06-19T11:26:59.000Z</time>
        <extensions>
          <ns3:TrackPointExtension>
            <ns3:atemp>18.0</ns3:atemp>
          </ns3:TrackPointExtension>
        </extensions>
      </trkpt>
      <trkpt lat="42.55922994576394557952880859375" lon="20.05637012422084808349609375">
        <ele>2196.199951171875</ele>
        <time>2026-06-19T11:27:00.000Z</time>
        <extensions>
          <ns3:TrackPointExtension>
            <ns3:atemp>18.0</ns3:atemp>
          </ns3:TrackPointExtension>
        </extensions>
      </trkpt>
      <trkpt lat="42.55922994576394557952880859375" lon="20.05637012422084808349609375">
        <ele>2196.199951171875</ele>
        <time>2026-06-19T11:27:01.000Z</time>
        <extensions>
          <ns3:TrackPointExtension>
            <ns3:atemp>18.0</ns3:atemp>
          </ns3:TrackPointExtension>
        </extensions>
      </trkpt>
      <trkpt lat="42.55922994576394557952880859375" lon="20.05637012422084808349609375">
        <ele>2196.199951171875</ele>
        <time>2026-06-19T11:27:02.000Z</time>
        <extensions>
          <ns3:TrackPointExtension>
            <ns3:atemp>18.0</ns3:atemp>
          </ns3:TrackPointExtension>
        </extensions>
      </trkpt>
      <trkpt lat="42.55922994576394557952880859375" lon="20.05637012422084808349609375">
        <ele>2196.199951171875</ele>
        <time>2026-06-19T11:27:03.000Z</time>
        <extensions>
          <ns3:TrackPointExtension>
            <ns3:atemp>18.0</ns3:atemp>
          </ns3:TrackPointExtension>
        </extensions>
      </trkpt>
      <trkpt lat="42.55922994576394557952880859375" lon="20.05637012422084808349609375">
        <ele>2196.199951171875</ele>
        <time>2026-06-19T11:27:04.000Z</time>
        <extensions>
          <ns3:TrackPointExtension>
            <ns3:atemp>18.0</ns3:atemp>
          </ns3:TrackPointExtension>
        </extensions>
      </trkpt>
      <trkpt lat="42.55922994576394557952880859375" lon="20.05637012422084808349609375">
        <ele>2196.199951171875</ele>
        <time>2026-06-19T11:27:05.000Z</time>
        <extensions>
          <ns3:TrackPointExtension>
            <ns3:atemp>18.0</ns3:atemp>
          </ns3:TrackPointExtension>
        </extensions>
      </trkpt>
      <trkpt lat="42.55922994576394557952880859375" lon="20.05637012422084808349609375">
        <ele>2196.199951171875</ele>
        <time>2026-06-19T11:27:06.000Z</time>
        <extensions>
          <ns3:TrackPointExtension>
            <ns3:atemp>18.0</ns3:atemp>
          </ns3:TrackPointExtension>
        </extensions>
      </trkpt>
      <trkpt lat="42.55922994576394557952880859375" lon="20.05637012422084808349609375">
        <ele>2196.199951171875</ele>
        <time>2026-06-19T11:27:07.000Z</time>
        <extensions>
          <ns3:TrackPointExtension>
            <ns3:atemp>18.0</ns3:atemp>
          </ns3:TrackPointExtension>
        </extensions>
      </trkpt>
      <trkpt lat="42.55922994576394557952880859375" lon="20.05637012422084808349609375">
        <ele>2196.199951171875</ele>
        <time>2026-06-19T11:27:08.000Z</time>
        <extensions>
          <ns3:TrackPointExtension>
            <ns3:atemp>18.0</ns3:atemp>
          </ns3:TrackPointExtension>
        </extensions>
      </trkpt>
      <trkpt lat="42.55922994576394557952880859375" lon="20.05637012422084808349609375">
        <ele>2196.199951171875</ele>
        <time>2026-06-19T11:27:09.000Z</time>
        <extensions>
          <ns3:TrackPointExtension>
            <ns3:atemp>18.0</ns3:atemp>
          </ns3:TrackPointExtension>
        </extensions>
      </trkpt>
      <trkpt lat="42.55922994576394557952880859375" lon="20.05637012422084808349609375">
        <ele>2196.199951171875</ele>
        <time>2026-06-19T11:27:10.000Z</time>
        <extensions>
          <ns3:TrackPointExtension>
            <ns3:atemp>18.0</ns3:atemp>
          </ns3:TrackPointExtension>
        </extensions>
      </trkpt>
      <trkpt lat="42.55922994576394557952880859375" lon="20.05637012422084808349609375">
        <ele>2196.199951171875</ele>
        <time>2026-06-19T11:27:11.000Z</time>
        <extensions>
          <ns3:TrackPointExtension>
            <ns3:atemp>18.0</ns3:atemp>
          </ns3:TrackPointExtension>
        </extensions>
      </trkpt>
      <trkpt lat="42.55922994576394557952880859375" lon="20.05637012422084808349609375">
        <ele>2196.199951171875</ele>
        <time>2026-06-19T11:27:12.000Z</time>
        <extensions>
          <ns3:TrackPointExtension>
            <ns3:atemp>18.0</ns3:atemp>
          </ns3:TrackPointExtension>
        </extensions>
      </trkpt>
      <trkpt lat="42.55922994576394557952880859375" lon="20.05637012422084808349609375">
        <ele>2196.199951171875</ele>
        <time>2026-06-19T11:27:13.000Z</time>
        <extensions>
          <ns3:TrackPointExtension>
            <ns3:atemp>18.0</ns3:atemp>
          </ns3:TrackPointExtension>
        </extensions>
      </trkpt>
      <trkpt lat="42.55922994576394557952880859375" lon="20.05637012422084808349609375">
        <ele>2196.199951171875</ele>
        <time>2026-06-19T11:27:14.000Z</time>
        <extensions>
          <ns3:TrackPointExtension>
            <ns3:atemp>18.0</ns3:atemp>
          </ns3:TrackPointExtension>
        </extensions>
      </trkpt>
      <trkpt lat="42.55922994576394557952880859375" lon="20.05637012422084808349609375">
        <ele>2196.199951171875</ele>
        <time>2026-06-19T11:27:15.000Z</time>
        <extensions>
          <ns3:TrackPointExtension>
            <ns3:atemp>18.0</ns3:atemp>
          </ns3:TrackPointExtension>
        </extensions>
      </trkpt>
      <trkpt lat="42.55922994576394557952880859375" lon="20.05637012422084808349609375">
        <ele>2196.199951171875</ele>
        <time>2026-06-19T11:27:16.000Z</time>
        <extensions>
          <ns3:TrackPointExtension>
            <ns3:atemp>18.0</ns3:atemp>
          </ns3:TrackPointExtension>
        </extensions>
      </trkpt>
      <trkpt lat="42.55922994576394557952880859375" lon="20.05637012422084808349609375">
        <ele>2196.199951171875</ele>
        <time>2026-06-19T11:27:17.000Z</time>
        <extensions>
          <ns3:TrackPointExtension>
            <ns3:atemp>18.0</ns3:atemp>
          </ns3:TrackPointExtension>
        </extensions>
      </trkpt>
      <trkpt lat="42.55922994576394557952880859375" lon="20.05637012422084808349609375">
        <ele>2196.199951171875</ele>
        <time>2026-06-19T11:27:18.000Z</time>
        <extensions>
          <ns3:TrackPointExtension>
            <ns3:atemp>18.0</ns3:atemp>
          </ns3:TrackPointExtension>
        </extensions>
      </trkpt>
      <trkpt lat="42.55922994576394557952880859375" lon="20.05637012422084808349609375">
        <ele>2196.199951171875</ele>
        <time>2026-06-19T11:27:19.000Z</time>
        <extensions>
          <ns3:TrackPointExtension>
            <ns3:atemp>18.0</ns3:atemp>
          </ns3:TrackPointExtension>
        </extensions>
      </trkpt>
      <trkpt lat="42.55922994576394557952880859375" lon="20.05637012422084808349609375">
        <ele>2196.199951171875</ele>
        <time>2026-06-19T11:27:20.000Z</time>
        <extensions>
          <ns3:TrackPointExtension>
            <ns3:atemp>18.0</ns3:atemp>
          </ns3:TrackPointExtension>
        </extensions>
      </trkpt>
      <trkpt lat="42.55922994576394557952880859375" lon="20.05637012422084808349609375">
        <ele>2196.199951171875</ele>
        <time>2026-06-19T11:27:21.000Z</time>
        <extensions>
          <ns3:TrackPointExtension>
            <ns3:atemp>18.0</ns3:atemp>
          </ns3:TrackPointExtension>
        </extensions>
      </trkpt>
      <trkpt lat="42.55922994576394557952880859375" lon="20.05637012422084808349609375">
        <ele>2196.199951171875</ele>
        <time>2026-06-19T11:27:22.000Z</time>
        <extensions>
          <ns3:TrackPointExtension>
            <ns3:atemp>18.0</ns3:atemp>
          </ns3:TrackPointExtension>
        </extensions>
      </trkpt>
      <trkpt lat="42.55922994576394557952880859375" lon="20.05637012422084808349609375">
        <ele>2196.199951171875</ele>
        <time>2026-06-19T11:27:23.000Z</time>
        <extensions>
          <ns3:TrackPointExtension>
            <ns3:atemp>18.0</ns3:atemp>
          </ns3:TrackPointExtension>
        </extensions>
      </trkpt>
      <trkpt lat="42.55922994576394557952880859375" lon="20.05637012422084808349609375">
        <ele>2196.199951171875</ele>
        <time>2026-06-19T11:27:24.000Z</time>
        <extensions>
          <ns3:TrackPointExtension>
            <ns3:atemp>18.0</ns3:atemp>
          </ns3:TrackPointExtension>
        </extensions>
      </trkpt>
      <trkpt lat="42.55922994576394557952880859375" lon="20.05637012422084808349609375">
        <ele>2196.199951171875</ele>
        <time>2026-06-19T11:27:25.000Z</time>
        <extensions>
          <ns3:TrackPointExtension>
            <ns3:atemp>18.0</ns3:atemp>
          </ns3:TrackPointExtension>
        </extensions>
      </trkpt>
      <trkpt lat="42.55922994576394557952880859375" lon="20.05637012422084808349609375">
        <ele>2196.199951171875</ele>
        <time>2026-06-19T11:27:26.000Z</time>
        <extensions>
          <ns3:TrackPointExtension>
            <ns3:atemp>18.0</ns3:atemp>
          </ns3:TrackPointExtension>
        </extensions>
      </trkpt>
      <trkpt lat="42.55922994576394557952880859375" lon="20.05637012422084808349609375">
        <ele>2196.199951171875</ele>
        <time>2026-06-19T11:27:27.000Z</time>
        <extensions>
          <ns3:TrackPointExtension>
            <ns3:atemp>18.0</ns3:atemp>
          </ns3:TrackPointExtension>
        </extensions>
      </trkpt>
      <trkpt lat="42.55922994576394557952880859375" lon="20.05637012422084808349609375">
        <ele>2196.199951171875</ele>
        <time>2026-06-19T11:27:28.000Z</time>
        <extensions>
          <ns3:TrackPointExtension>
            <ns3:atemp>18.0</ns3:atemp>
          </ns3:TrackPointExtension>
        </extensions>
      </trkpt>
      <trkpt lat="42.55922994576394557952880859375" lon="20.05637012422084808349609375">
        <ele>2196.199951171875</ele>
        <time>2026-06-19T11:27:29.000Z</time>
        <extensions>
          <ns3:TrackPointExtension>
            <ns3:atemp>18.0</ns3:atemp>
          </ns3:TrackPointExtension>
        </extensions>
      </trkpt>
      <trkpt lat="42.55922994576394557952880859375" lon="20.05637012422084808349609375">
        <ele>2196.199951171875</ele>
        <time>2026-06-19T11:27:30.000Z</time>
        <extensions>
          <ns3:TrackPointExtension>
            <ns3:atemp>18.0</ns3:atemp>
          </ns3:TrackPointExtension>
        </extensions>
      </trkpt>
      <trkpt lat="42.55922994576394557952880859375" lon="20.05637012422084808349609375">
        <ele>2196.199951171875</ele>
        <time>2026-06-19T11:27:31.000Z</time>
        <extensions>
          <ns3:TrackPointExtension>
            <ns3:atemp>18.0</ns3:atemp>
          </ns3:TrackPointExtension>
        </extensions>
      </trkpt>
      <trkpt lat="42.55922994576394557952880859375" lon="20.05637012422084808349609375">
        <ele>2196.199951171875</ele>
        <time>2026-06-19T11:27:32.000Z</time>
        <extensions>
          <ns3:TrackPointExtension>
            <ns3:atemp>18.0</ns3:atemp>
          </ns3:TrackPointExtension>
        </extensions>
      </trkpt>
      <trkpt lat="42.55922994576394557952880859375" lon="20.05637012422084808349609375">
        <ele>2196.199951171875</ele>
        <time>2026-06-19T11:27:33.000Z</time>
        <extensions>
          <ns3:TrackPointExtension>
            <ns3:atemp>18.0</ns3:atemp>
          </ns3:TrackPointExtension>
        </extensions>
      </trkpt>
      <trkpt lat="42.55922994576394557952880859375" lon="20.05637012422084808349609375">
        <ele>2196.199951171875</ele>
        <time>2026-06-19T11:27:34.000Z</time>
        <extensions>
          <ns3:TrackPointExtension>
            <ns3:atemp>18.0</ns3:atemp>
          </ns3:TrackPointExtension>
        </extensions>
      </trkpt>
      <trkpt lat="42.55922994576394557952880859375" lon="20.05637012422084808349609375">
        <ele>2196.199951171875</ele>
        <time>2026-06-19T11:27:35.000Z</time>
        <extensions>
          <ns3:TrackPointExtension>
            <ns3:atemp>18.0</ns3:atemp>
          </ns3:TrackPointExtension>
        </extensions>
      </trkpt>
      <trkpt lat="42.55922994576394557952880859375" lon="20.05637012422084808349609375">
        <ele>2196.199951171875</ele>
        <time>2026-06-19T11:27:36.000Z</time>
        <extensions>
          <ns3:TrackPointExtension>
            <ns3:atemp>18.0</ns3:atemp>
          </ns3:TrackPointExtension>
        </extensions>
      </trkpt>
      <trkpt lat="42.55922994576394557952880859375" lon="20.05637012422084808349609375">
        <ele>2196.199951171875</ele>
        <time>2026-06-19T11:27:37.000Z</time>
        <extensions>
          <ns3:TrackPointExtension>
            <ns3:atemp>18.0</ns3:atemp>
          </ns3:TrackPointExtension>
        </extensions>
      </trkpt>
      <trkpt lat="42.55922994576394557952880859375" lon="20.05637012422084808349609375">
        <ele>2196.199951171875</ele>
        <time>2026-06-19T11:27:38.000Z</time>
        <extensions>
          <ns3:TrackPointExtension>
            <ns3:atemp>18.0</ns3:atemp>
          </ns3:TrackPointExtension>
        </extensions>
      </trkpt>
      <trkpt lat="42.55922994576394557952880859375" lon="20.05637012422084808349609375">
        <ele>2196.199951171875</ele>
        <time>2026-06-19T11:27:39.000Z</time>
        <extensions>
          <ns3:TrackPointExtension>
            <ns3:atemp>18.0</ns3:atemp>
          </ns3:TrackPointExtension>
        </extensions>
      </trkpt>
      <trkpt lat="42.55922994576394557952880859375" lon="20.05637012422084808349609375">
        <ele>2196.199951171875</ele>
        <time>2026-06-19T11:27:40.000Z</time>
        <extensions>
          <ns3:TrackPointExtension>
            <ns3:atemp>18.0</ns3:atemp>
          </ns3:TrackPointExtension>
        </extensions>
      </trkpt>
      <trkpt lat="42.55922994576394557952880859375" lon="20.05637012422084808349609375">
        <ele>2196.199951171875</ele>
        <time>2026-06-19T11:27:41.000Z</time>
        <extensions>
          <ns3:TrackPointExtension>
            <ns3:atemp>18.0</ns3:atemp>
          </ns3:TrackPointExtension>
        </extensions>
      </trkpt>
      <trkpt lat="42.55922994576394557952880859375" lon="20.05637012422084808349609375">
        <ele>2196.199951171875</ele>
        <time>2026-06-19T11:27:42.000Z</time>
        <extensions>
          <ns3:TrackPointExtension>
            <ns3:atemp>18.0</ns3:atemp>
          </ns3:TrackPointExtension>
        </extensions>
      </trkpt>
      <trkpt lat="42.55922994576394557952880859375" lon="20.05637012422084808349609375">
        <ele>2196.199951171875</ele>
        <time>2026-06-19T11:27:43.000Z</time>
        <extensions>
          <ns3:TrackPointExtension>
            <ns3:atemp>18.0</ns3:atemp>
          </ns3:TrackPointExtension>
        </extensions>
      </trkpt>
      <trkpt lat="42.55922994576394557952880859375" lon="20.05637012422084808349609375">
        <ele>2196.199951171875</ele>
        <time>2026-06-19T11:27:44.000Z</time>
        <extensions>
          <ns3:TrackPointExtension>
            <ns3:atemp>18.0</ns3:atemp>
          </ns3:TrackPointExtension>
        </extensions>
      </trkpt>
      <trkpt lat="42.55922994576394557952880859375" lon="20.05637012422084808349609375">
        <ele>2196.199951171875</ele>
        <time>2026-06-19T11:27:45.000Z</time>
        <extensions>
          <ns3:TrackPointExtension>
            <ns3:atemp>18.0</ns3:atemp>
          </ns3:TrackPointExtension>
        </extensions>
      </trkpt>
      <trkpt lat="42.55922994576394557952880859375" lon="20.05637012422084808349609375">
        <ele>2196.199951171875</ele>
        <time>2026-06-19T11:27:46.000Z</time>
        <extensions>
          <ns3:TrackPointExtension>
            <ns3:atemp>18.0</ns3:atemp>
          </ns3:TrackPointExtension>
        </extensions>
      </trkpt>
      <trkpt lat="42.55922994576394557952880859375" lon="20.05637012422084808349609375">
        <ele>2196.199951171875</ele>
        <time>2026-06-19T11:27:47.000Z</time>
        <extensions>
          <ns3:TrackPointExtension>
            <ns3:atemp>18.0</ns3:atemp>
          </ns3:TrackPointExtension>
        </extensions>
      </trkpt>
      <trkpt lat="42.55922994576394557952880859375" lon="20.05637012422084808349609375">
        <ele>2196.199951171875</ele>
        <time>2026-06-19T11:27:48.000Z</time>
        <extensions>
          <ns3:TrackPointExtension>
            <ns3:atemp>18.0</ns3:atemp>
          </ns3:TrackPointExtension>
        </extensions>
      </trkpt>
      <trkpt lat="42.55922994576394557952880859375" lon="20.05637012422084808349609375">
        <ele>2196.199951171875</ele>
        <time>2026-06-19T11:27:49.000Z</time>
        <extensions>
          <ns3:TrackPointExtension>
            <ns3:atemp>18.0</ns3:atemp>
          </ns3:TrackPointExtension>
        </extensions>
      </trkpt>
      <trkpt lat="42.55922994576394557952880859375" lon="20.05637012422084808349609375">
        <ele>2196.199951171875</ele>
        <time>2026-06-19T11:27:50.000Z</time>
        <extensions>
          <ns3:TrackPointExtension>
            <ns3:atemp>18.0</ns3:atemp>
          </ns3:TrackPointExtension>
        </extensions>
      </trkpt>
      <trkpt lat="42.55922994576394557952880859375" lon="20.05637012422084808349609375">
        <ele>2196.199951171875</ele>
        <time>2026-06-19T11:27:51.000Z</time>
        <extensions>
          <ns3:TrackPointExtension>
            <ns3:atemp>18.0</ns3:atemp>
          </ns3:TrackPointExtension>
        </extensions>
      </trkpt>
      <trkpt lat="42.55922994576394557952880859375" lon="20.05637012422084808349609375">
        <ele>2196.199951171875</ele>
        <time>2026-06-19T11:27:52.000Z</time>
        <extensions>
          <ns3:TrackPointExtension>
            <ns3:atemp>18.0</ns3:atemp>
          </ns3:TrackPointExtension>
        </extensions>
      </trkpt>
      <trkpt lat="42.55922994576394557952880859375" lon="20.05637012422084808349609375">
        <ele>2196.199951171875</ele>
        <time>2026-06-19T11:27:53.000Z</time>
        <extensions>
          <ns3:TrackPointExtension>
            <ns3:atemp>18.0</ns3:atemp>
          </ns3:TrackPointExtension>
        </extensions>
      </trkpt>
      <trkpt lat="42.55922994576394557952880859375" lon="20.05637012422084808349609375">
        <ele>2196.199951171875</ele>
        <time>2026-06-19T11:27:54.000Z</time>
        <extensions>
          <ns3:TrackPointExtension>
            <ns3:atemp>18.0</ns3:atemp>
          </ns3:TrackPointExtension>
        </extensions>
      </trkpt>
      <trkpt lat="42.55922994576394557952880859375" lon="20.05637012422084808349609375">
        <ele>2196.199951171875</ele>
        <time>2026-06-19T11:27:55.000Z</time>
        <extensions>
          <ns3:TrackPointExtension>
            <ns3:atemp>18.0</ns3:atemp>
          </ns3:TrackPointExtension>
        </extensions>
      </trkpt>
      <trkpt lat="42.55922994576394557952880859375" lon="20.05637012422084808349609375">
        <ele>2196.199951171875</ele>
        <time>2026-06-19T11:27:56.000Z</time>
        <extensions>
          <ns3:TrackPointExtension>
            <ns3:atemp>18.0</ns3:atemp>
          </ns3:TrackPointExtension>
        </extensions>
      </trkpt>
      <trkpt lat="42.55922994576394557952880859375" lon="20.05637012422084808349609375">
        <ele>2196.199951171875</ele>
        <time>2026-06-19T11:27:57.000Z</time>
        <extensions>
          <ns3:TrackPointExtension>
            <ns3:atemp>18.0</ns3:atemp>
          </ns3:TrackPointExtension>
        </extensions>
      </trkpt>
      <trkpt lat="42.55922994576394557952880859375" lon="20.05637012422084808349609375">
        <ele>2196.199951171875</ele>
        <time>2026-06-19T11:27:58.000Z</time>
        <extensions>
          <ns3:TrackPointExtension>
            <ns3:atemp>18.0</ns3:atemp>
          </ns3:TrackPointExtension>
        </extensions>
      </trkpt>
      <trkpt lat="42.55922994576394557952880859375" lon="20.05637012422084808349609375">
        <ele>2196.199951171875</ele>
        <time>2026-06-19T11:27:59.000Z</time>
        <extensions>
          <ns3:TrackPointExtension>
            <ns3:atemp>18.0</ns3:atemp>
          </ns3:TrackPointExtension>
        </extensions>
      </trkpt>
      <trkpt lat="42.55922994576394557952880859375" lon="20.05637012422084808349609375">
        <ele>2196.199951171875</ele>
        <time>2026-06-19T11:28:00.000Z</time>
        <extensions>
          <ns3:TrackPointExtension>
            <ns3:atemp>18.0</ns3:atemp>
          </ns3:TrackPointExtension>
        </extensions>
      </trkpt>
      <trkpt lat="42.55922994576394557952880859375" lon="20.05637012422084808349609375">
        <ele>2196.199951171875</ele>
        <time>2026-06-19T11:28:01.000Z</time>
        <extensions>
          <ns3:TrackPointExtension>
            <ns3:atemp>18.0</ns3:atemp>
          </ns3:TrackPointExtension>
        </extensions>
      </trkpt>
      <trkpt lat="42.55922994576394557952880859375" lon="20.05637012422084808349609375">
        <ele>2196.199951171875</ele>
        <time>2026-06-19T11:28:02.000Z</time>
        <extensions>
          <ns3:TrackPointExtension>
            <ns3:atemp>18.0</ns3:atemp>
          </ns3:TrackPointExtension>
        </extensions>
      </trkpt>
      <trkpt lat="42.55922994576394557952880859375" lon="20.05637012422084808349609375">
        <ele>2196.199951171875</ele>
        <time>2026-06-19T11:28:03.000Z</time>
        <extensions>
          <ns3:TrackPointExtension>
            <ns3:atemp>18.0</ns3:atemp>
          </ns3:TrackPointExtension>
        </extensions>
      </trkpt>
      <trkpt lat="42.55922994576394557952880859375" lon="20.05637012422084808349609375">
        <ele>2196.199951171875</ele>
        <time>2026-06-19T11:28:04.000Z</time>
        <extensions>
          <ns3:TrackPointExtension>
            <ns3:atemp>18.0</ns3:atemp>
          </ns3:TrackPointExtension>
        </extensions>
      </trkpt>
      <trkpt lat="42.55922994576394557952880859375" lon="20.05637012422084808349609375">
        <ele>2196.199951171875</ele>
        <time>2026-06-19T11:28:05.000Z</time>
        <extensions>
          <ns3:TrackPointExtension>
            <ns3:atemp>18.0</ns3:atemp>
          </ns3:TrackPointExtension>
        </extensions>
      </trkpt>
      <trkpt lat="42.55922994576394557952880859375" lon="20.05637012422084808349609375">
        <ele>2196.199951171875</ele>
        <time>2026-06-19T11:28:06.000Z</time>
        <extensions>
          <ns3:TrackPointExtension>
            <ns3:atemp>18.0</ns3:atemp>
          </ns3:TrackPointExtension>
        </extensions>
      </trkpt>
      <trkpt lat="42.55922994576394557952880859375" lon="20.05637012422084808349609375">
        <ele>2196.199951171875</ele>
        <time>2026-06-19T11:28:07.000Z</time>
        <extensions>
          <ns3:TrackPointExtension>
            <ns3:atemp>18.0</ns3:atemp>
          </ns3:TrackPointExtension>
        </extensions>
      </trkpt>
      <trkpt lat="42.55922994576394557952880859375" lon="20.05637012422084808349609375">
        <ele>2196.199951171875</ele>
        <time>2026-06-19T11:28:08.000Z</time>
        <extensions>
          <ns3:TrackPointExtension>
            <ns3:atemp>18.0</ns3:atemp>
          </ns3:TrackPointExtension>
        </extensions>
      </trkpt>
      <trkpt lat="42.55922994576394557952880859375" lon="20.05637012422084808349609375">
        <ele>2196.199951171875</ele>
        <time>2026-06-19T11:28:09.000Z</time>
        <extensions>
          <ns3:TrackPointExtension>
            <ns3:atemp>18.0</ns3:atemp>
          </ns3:TrackPointExtension>
        </extensions>
      </trkpt>
      <trkpt lat="42.55922994576394557952880859375" lon="20.05637012422084808349609375">
        <ele>2196.199951171875</ele>
        <time>2026-06-19T11:28:10.000Z</time>
        <extensions>
          <ns3:TrackPointExtension>
            <ns3:atemp>18.0</ns3:atemp>
          </ns3:TrackPointExtension>
        </extensions>
      </trkpt>
      <trkpt lat="42.55922994576394557952880859375" lon="20.05637012422084808349609375">
        <ele>2196.199951171875</ele>
        <time>2026-06-19T11:28:11.000Z</time>
        <extensions>
          <ns3:TrackPointExtension>
            <ns3:atemp>18.0</ns3:atemp>
          </ns3:TrackPointExtension>
        </extensions>
      </trkpt>
      <trkpt lat="42.55922994576394557952880859375" lon="20.05637012422084808349609375">
        <ele>2196.199951171875</ele>
        <time>2026-06-19T11:28:12.000Z</time>
        <extensions>
          <ns3:TrackPointExtension>
            <ns3:atemp>18.0</ns3:atemp>
          </ns3:TrackPointExtension>
        </extensions>
      </trkpt>
      <trkpt lat="42.55922994576394557952880859375" lon="20.05637012422084808349609375">
        <ele>2196.199951171875</ele>
        <time>2026-06-19T11:28:13.000Z</time>
        <extensions>
          <ns3:TrackPointExtension>
            <ns3:atemp>18.0</ns3:atemp>
          </ns3:TrackPointExtension>
        </extensions>
      </trkpt>
      <trkpt lat="42.55922994576394557952880859375" lon="20.05637012422084808349609375">
        <ele>2196.199951171875</ele>
        <time>2026-06-19T11:28:14.000Z</time>
        <extensions>
          <ns3:TrackPointExtension>
            <ns3:atemp>18.0</ns3:atemp>
          </ns3:TrackPointExtension>
        </extensions>
      </trkpt>
      <trkpt lat="42.55922994576394557952880859375" lon="20.05637012422084808349609375">
        <ele>2196.199951171875</ele>
        <time>2026-06-19T11:28:15.000Z</time>
        <extensions>
          <ns3:TrackPointExtension>
            <ns3:atemp>18.0</ns3:atemp>
          </ns3:TrackPointExtension>
        </extensions>
      </trkpt>
      <trkpt lat="42.55922994576394557952880859375" lon="20.05637012422084808349609375">
        <ele>2196.199951171875</ele>
        <time>2026-06-19T11:28:16.000Z</time>
        <extensions>
          <ns3:TrackPointExtension>
            <ns3:atemp>18.0</ns3:atemp>
          </ns3:TrackPointExtension>
        </extensions>
      </trkpt>
      <trkpt lat="42.55922994576394557952880859375" lon="20.05637012422084808349609375">
        <ele>2196.199951171875</ele>
        <time>2026-06-19T11:28:17.000Z</time>
        <extensions>
          <ns3:TrackPointExtension>
            <ns3:atemp>18.0</ns3:atemp>
          </ns3:TrackPointExtension>
        </extensions>
      </trkpt>
      <trkpt lat="42.55922994576394557952880859375" lon="20.05637012422084808349609375">
        <ele>2196.199951171875</ele>
        <time>2026-06-19T11:28:18.000Z</time>
        <extensions>
          <ns3:TrackPointExtension>
            <ns3:atemp>18.0</ns3:atemp>
          </ns3:TrackPointExtension>
        </extensions>
      </trkpt>
      <trkpt lat="42.55922994576394557952880859375" lon="20.05637012422084808349609375">
        <ele>2196.199951171875</ele>
        <time>2026-06-19T11:28:19.000Z</time>
        <extensions>
          <ns3:TrackPointExtension>
            <ns3:atemp>18.0</ns3:atemp>
          </ns3:TrackPointExtension>
        </extensions>
      </trkpt>
      <trkpt lat="42.55922994576394557952880859375" lon="20.05637012422084808349609375">
        <ele>2196.199951171875</ele>
        <time>2026-06-19T11:28:20.000Z</time>
        <extensions>
          <ns3:TrackPointExtension>
            <ns3:atemp>18.0</ns3:atemp>
          </ns3:TrackPointExtension>
        </extensions>
      </trkpt>
      <trkpt lat="42.55922994576394557952880859375" lon="20.05637012422084808349609375">
        <ele>2196.199951171875</ele>
        <time>2026-06-19T11:28:21.000Z</time>
        <extensions>
          <ns3:TrackPointExtension>
            <ns3:atemp>18.0</ns3:atemp>
          </ns3:TrackPointExtension>
        </extensions>
      </trkpt>
      <trkpt lat="42.55922994576394557952880859375" lon="20.05637012422084808349609375">
        <ele>2196.199951171875</ele>
        <time>2026-06-19T11:28:22.000Z</time>
        <extensions>
          <ns3:TrackPointExtension>
            <ns3:atemp>18.0</ns3:atemp>
          </ns3:TrackPointExtension>
        </extensions>
      </trkpt>
      <trkpt lat="42.55922994576394557952880859375" lon="20.05637012422084808349609375">
        <ele>2196.199951171875</ele>
        <time>2026-06-19T11:28:23.000Z</time>
        <extensions>
          <ns3:TrackPointExtension>
            <ns3:atemp>18.0</ns3:atemp>
          </ns3:TrackPointExtension>
        </extensions>
      </trkpt>
      <trkpt lat="42.55922994576394557952880859375" lon="20.05637012422084808349609375">
        <ele>2196.199951171875</ele>
        <time>2026-06-19T11:28:24.000Z</time>
        <extensions>
          <ns3:TrackPointExtension>
            <ns3:atemp>18.0</ns3:atemp>
          </ns3:TrackPointExtension>
        </extensions>
      </trkpt>
      <trkpt lat="42.55922994576394557952880859375" lon="20.05637012422084808349609375">
        <ele>2196.199951171875</ele>
        <time>2026-06-19T11:28:25.000Z</time>
        <extensions>
          <ns3:TrackPointExtension>
            <ns3:atemp>18.0</ns3:atemp>
          </ns3:TrackPointExtension>
        </extensions>
      </trkpt>
      <trkpt lat="42.55922994576394557952880859375" lon="20.05637012422084808349609375">
        <ele>2196.199951171875</ele>
        <time>2026-06-19T11:28:26.000Z</time>
        <extensions>
          <ns3:TrackPointExtension>
            <ns3:atemp>18.0</ns3:atemp>
          </ns3:TrackPointExtension>
        </extensions>
      </trkpt>
      <trkpt lat="42.55922994576394557952880859375" lon="20.05637012422084808349609375">
        <ele>2196.199951171875</ele>
        <time>2026-06-19T11:28:27.000Z</time>
        <extensions>
          <ns3:TrackPointExtension>
            <ns3:atemp>18.0</ns3:atemp>
          </ns3:TrackPointExtension>
        </extensions>
      </trkpt>
      <trkpt lat="42.55922994576394557952880859375" lon="20.05637012422084808349609375">
        <ele>2196.199951171875</ele>
        <time>2026-06-19T11:28:28.000Z</time>
        <extensions>
          <ns3:TrackPointExtension>
            <ns3:atemp>18.0</ns3:atemp>
          </ns3:TrackPointExtension>
        </extensions>
      </trkpt>
      <trkpt lat="42.55922994576394557952880859375" lon="20.05637012422084808349609375">
        <ele>2196.199951171875</ele>
        <time>2026-06-19T11:28:29.000Z</time>
        <extensions>
          <ns3:TrackPointExtension>
            <ns3:atemp>18.0</ns3:atemp>
          </ns3:TrackPointExtension>
        </extensions>
      </trkpt>
      <trkpt lat="42.55922994576394557952880859375" lon="20.05637012422084808349609375">
        <ele>2196.199951171875</ele>
        <time>2026-06-19T11:28:30.000Z</time>
        <extensions>
          <ns3:TrackPointExtension>
            <ns3:atemp>18.0</ns3:atemp>
          </ns3:TrackPointExtension>
        </extensions>
      </trkpt>
      <trkpt lat="42.55922994576394557952880859375" lon="20.05637012422084808349609375">
        <ele>2196.199951171875</ele>
        <time>2026-06-19T11:28:31.000Z</time>
        <extensions>
          <ns3:TrackPointExtension>
            <ns3:atemp>18.0</ns3:atemp>
          </ns3:TrackPointExtension>
        </extensions>
      </trkpt>
      <trkpt lat="42.55922994576394557952880859375" lon="20.05637012422084808349609375">
        <ele>2196.199951171875</ele>
        <time>2026-06-19T11:28:32.000Z</time>
        <extensions>
          <ns3:TrackPointExtension>
            <ns3:atemp>18.0</ns3:atemp>
          </ns3:TrackPointExtension>
        </extensions>
      </trkpt>
      <trkpt lat="42.55922994576394557952880859375" lon="20.05637012422084808349609375">
        <ele>2196.199951171875</ele>
        <time>2026-06-19T11:28:33.000Z</time>
        <extensions>
          <ns3:TrackPointExtension>
            <ns3:atemp>18.0</ns3:atemp>
          </ns3:TrackPointExtension>
        </extensions>
      </trkpt>
      <trkpt lat="42.55922994576394557952880859375" lon="20.05637012422084808349609375">
        <ele>2196.199951171875</ele>
        <time>2026-06-19T11:28:34.000Z</time>
        <extensions>
          <ns3:TrackPointExtension>
            <ns3:atemp>18.0</ns3:atemp>
          </ns3:TrackPointExtension>
        </extensions>
      </trkpt>
      <trkpt lat="42.55922994576394557952880859375" lon="20.05637012422084808349609375">
        <ele>2196.199951171875</ele>
        <time>2026-06-19T11:28:35.000Z</time>
        <extensions>
          <ns3:TrackPointExtension>
            <ns3:atemp>18.0</ns3:atemp>
          </ns3:TrackPointExtension>
        </extensions>
      </trkpt>
      <trkpt lat="42.55922994576394557952880859375" lon="20.05637012422084808349609375">
        <ele>2196.199951171875</ele>
        <time>2026-06-19T11:28:36.000Z</time>
        <extensions>
          <ns3:TrackPointExtension>
            <ns3:atemp>18.0</ns3:atemp>
          </ns3:TrackPointExtension>
        </extensions>
      </trkpt>
      <trkpt lat="42.55922994576394557952880859375" lon="20.05637012422084808349609375">
        <ele>2196.199951171875</ele>
        <time>2026-06-19T11:28:37.000Z</time>
        <extensions>
          <ns3:TrackPointExtension>
            <ns3:atemp>18.0</ns3:atemp>
          </ns3:TrackPointExtension>
        </extensions>
      </trkpt>
      <trkpt lat="42.55922994576394557952880859375" lon="20.05637012422084808349609375">
        <ele>2196.199951171875</ele>
        <time>2026-06-19T11:28:38.000Z</time>
        <extensions>
          <ns3:TrackPointExtension>
            <ns3:atemp>18.0</ns3:atemp>
          </ns3:TrackPointExtension>
        </extensions>
      </trkpt>
      <trkpt lat="42.55922994576394557952880859375" lon="20.05637012422084808349609375">
        <ele>2196.199951171875</ele>
        <time>2026-06-19T11:28:39.000Z</time>
        <extensions>
          <ns3:TrackPointExtension>
            <ns3:atemp>18.0</ns3:atemp>
          </ns3:TrackPointExtension>
        </extensions>
      </trkpt>
      <trkpt lat="42.55922994576394557952880859375" lon="20.05637012422084808349609375">
        <ele>2196.199951171875</ele>
        <time>2026-06-19T11:28:40.000Z</time>
        <extensions>
          <ns3:TrackPointExtension>
            <ns3:atemp>18.0</ns3:atemp>
          </ns3:TrackPointExtension>
        </extensions>
      </trkpt>
      <trkpt lat="42.55922994576394557952880859375" lon="20.05637012422084808349609375">
        <ele>2196.199951171875</ele>
        <time>2026-06-19T11:28:41.000Z</time>
        <extensions>
          <ns3:TrackPointExtension>
            <ns3:atemp>18.0</ns3:atemp>
          </ns3:TrackPointExtension>
        </extensions>
      </trkpt>
      <trkpt lat="42.55922994576394557952880859375" lon="20.05637012422084808349609375">
        <ele>2196.199951171875</ele>
        <time>2026-06-19T11:28:42.000Z</time>
        <extensions>
          <ns3:TrackPointExtension>
            <ns3:atemp>18.0</ns3:atemp>
          </ns3:TrackPointExtension>
        </extensions>
      </trkpt>
      <trkpt lat="42.55922994576394557952880859375" lon="20.05637012422084808349609375">
        <ele>2196.199951171875</ele>
        <time>2026-06-19T11:28:43.000Z</time>
        <extensions>
          <ns3:TrackPointExtension>
            <ns3:atemp>18.0</ns3:atemp>
          </ns3:TrackPointExtension>
        </extensions>
      </trkpt>
      <trkpt lat="42.55922994576394557952880859375" lon="20.05637012422084808349609375">
        <ele>2196.199951171875</ele>
        <time>2026-06-19T11:28:44.000Z</time>
        <extensions>
          <ns3:TrackPointExtension>
            <ns3:atemp>18.0</ns3:atemp>
          </ns3:TrackPointExtension>
        </extensions>
      </trkpt>
      <trkpt lat="42.55922994576394557952880859375" lon="20.05637012422084808349609375">
        <ele>2196.199951171875</ele>
        <time>2026-06-19T11:28:45.000Z</time>
        <extensions>
          <ns3:TrackPointExtension>
            <ns3:atemp>18.0</ns3:atemp>
          </ns3:TrackPointExtension>
        </extensions>
      </trkpt>
      <trkpt lat="42.55922994576394557952880859375" lon="20.05637012422084808349609375">
        <ele>2196.199951171875</ele>
        <time>2026-06-19T11:28:46.000Z</time>
        <extensions>
          <ns3:TrackPointExtension>
            <ns3:atemp>18.0</ns3:atemp>
          </ns3:TrackPointExtension>
        </extensions>
      </trkpt>
      <trkpt lat="42.55922994576394557952880859375" lon="20.05637012422084808349609375">
        <ele>2196.199951171875</ele>
        <time>2026-06-19T11:28:47.000Z</time>
        <extensions>
          <ns3:TrackPointExtension>
            <ns3:atemp>18.0</ns3:atemp>
          </ns3:TrackPointExtension>
        </extensions>
      </trkpt>
      <trkpt lat="42.55922994576394557952880859375" lon="20.05637012422084808349609375">
        <ele>2196.199951171875</ele>
        <time>2026-06-19T11:28:48.000Z</time>
        <extensions>
          <ns3:TrackPointExtension>
            <ns3:atemp>18.0</ns3:atemp>
          </ns3:TrackPointExtension>
        </extensions>
      </trkpt>
      <trkpt lat="42.55922994576394557952880859375" lon="20.05637012422084808349609375">
        <ele>2196.199951171875</ele>
        <time>2026-06-19T11:28:49.000Z</time>
        <extensions>
          <ns3:TrackPointExtension>
            <ns3:atemp>18.0</ns3:atemp>
          </ns3:TrackPointExtension>
        </extensions>
      </trkpt>
      <trkpt lat="42.55922994576394557952880859375" lon="20.05637012422084808349609375">
        <ele>2196.199951171875</ele>
        <time>2026-06-19T11:28:50.000Z</time>
        <extensions>
          <ns3:TrackPointExtension>
            <ns3:atemp>18.0</ns3:atemp>
          </ns3:TrackPointExtension>
        </extensions>
      </trkpt>
      <trkpt lat="42.55922994576394557952880859375" lon="20.05637012422084808349609375">
        <ele>2196.199951171875</ele>
        <time>2026-06-19T11:28:51.000Z</time>
        <extensions>
          <ns3:TrackPointExtension>
            <ns3:atemp>18.0</ns3:atemp>
          </ns3:TrackPointExtension>
        </extensions>
      </trkpt>
      <trkpt lat="42.55922994576394557952880859375" lon="20.05637012422084808349609375">
        <ele>2196.199951171875</ele>
        <time>2026-06-19T11:28:52.000Z</time>
        <extensions>
          <ns3:TrackPointExtension>
            <ns3:atemp>18.0</ns3:atemp>
          </ns3:TrackPointExtension>
        </extensions>
      </trkpt>
      <trkpt lat="42.55922994576394557952880859375" lon="20.05637012422084808349609375">
        <ele>2196.199951171875</ele>
        <time>2026-06-19T11:28:53.000Z</time>
        <extensions>
          <ns3:TrackPointExtension>
            <ns3:atemp>18.0</ns3:atemp>
          </ns3:TrackPointExtension>
        </extensions>
      </trkpt>
      <trkpt lat="42.55922994576394557952880859375" lon="20.05637012422084808349609375">
        <ele>2196.199951171875</ele>
        <time>2026-06-19T11:28:54.000Z</time>
        <extensions>
          <ns3:TrackPointExtension>
            <ns3:atemp>18.0</ns3:atemp>
          </ns3:TrackPointExtension>
        </extensions>
      </trkpt>
      <trkpt lat="42.55922994576394557952880859375" lon="20.05637012422084808349609375">
        <ele>2196.199951171875</ele>
        <time>2026-06-19T11:28:55.000Z</time>
        <extensions>
          <ns3:TrackPointExtension>
            <ns3:atemp>18.0</ns3:atemp>
          </ns3:TrackPointExtension>
        </extensions>
      </trkpt>
      <trkpt lat="42.55922994576394557952880859375" lon="20.05637012422084808349609375">
        <ele>2196.199951171875</ele>
        <time>2026-06-19T11:28:56.000Z</time>
        <extensions>
          <ns3:TrackPointExtension>
            <ns3:atemp>18.0</ns3:atemp>
          </ns3:TrackPointExtension>
        </extensions>
      </trkpt>
      <trkpt lat="42.55922994576394557952880859375" lon="20.05637012422084808349609375">
        <ele>2196.199951171875</ele>
        <time>2026-06-19T11:28:57.000Z</time>
        <extensions>
          <ns3:TrackPointExtension>
            <ns3:atemp>18.0</ns3:atemp>
          </ns3:TrackPointExtension>
        </extensions>
      </trkpt>
      <trkpt lat="42.55922994576394557952880859375" lon="20.05637012422084808349609375">
        <ele>2196.199951171875</ele>
        <time>2026-06-19T11:28:58.000Z</time>
        <extensions>
          <ns3:TrackPointExtension>
            <ns3:atemp>18.0</ns3:atemp>
          </ns3:TrackPointExtension>
        </extensions>
      </trkpt>
      <trkpt lat="42.55922994576394557952880859375" lon="20.05637012422084808349609375">
        <ele>2196.199951171875</ele>
        <time>2026-06-19T11:28:59.000Z</time>
        <extensions>
          <ns3:TrackPointExtension>
            <ns3:atemp>18.0</ns3:atemp>
          </ns3:TrackPointExtension>
        </extensions>
      </trkpt>
      <trkpt lat="42.55922994576394557952880859375" lon="20.05637012422084808349609375">
        <ele>2196.199951171875</ele>
        <time>2026-06-19T11:29:00.000Z</time>
        <extensions>
          <ns3:TrackPointExtension>
            <ns3:atemp>18.0</ns3:atemp>
          </ns3:TrackPointExtension>
        </extensions>
      </trkpt>
      <trkpt lat="42.55922994576394557952880859375" lon="20.05637012422084808349609375">
        <ele>2196.199951171875</ele>
        <time>2026-06-19T11:29:01.000Z</time>
        <extensions>
          <ns3:TrackPointExtension>
            <ns3:atemp>18.0</ns3:atemp>
          </ns3:TrackPointExtension>
        </extensions>
      </trkpt>
      <trkpt lat="42.55922994576394557952880859375" lon="20.05637012422084808349609375">
        <ele>2196.199951171875</ele>
        <time>2026-06-19T11:29:02.000Z</time>
        <extensions>
          <ns3:TrackPointExtension>
            <ns3:atemp>18.0</ns3:atemp>
          </ns3:TrackPointExtension>
        </extensions>
      </trkpt>
      <trkpt lat="42.55922994576394557952880859375" lon="20.05637012422084808349609375">
        <ele>2196.199951171875</ele>
        <time>2026-06-19T11:29:03.000Z</time>
        <extensions>
          <ns3:TrackPointExtension>
            <ns3:atemp>18.0</ns3:atemp>
          </ns3:TrackPointExtension>
        </extensions>
      </trkpt>
      <trkpt lat="42.55922994576394557952880859375" lon="20.05637012422084808349609375">
        <ele>2196.199951171875</ele>
        <time>2026-06-19T11:29:04.000Z</time>
        <extensions>
          <ns3:TrackPointExtension>
            <ns3:atemp>18.0</ns3:atemp>
          </ns3:TrackPointExtension>
        </extensions>
      </trkpt>
      <trkpt lat="42.55922994576394557952880859375" lon="20.05637012422084808349609375">
        <ele>2196.199951171875</ele>
        <time>2026-06-19T11:29:05.000Z</time>
        <extensions>
          <ns3:TrackPointExtension>
            <ns3:atemp>18.0</ns3:atemp>
          </ns3:TrackPointExtension>
        </extensions>
      </trkpt>
      <trkpt lat="42.55922994576394557952880859375" lon="20.05637012422084808349609375">
        <ele>2196.199951171875</ele>
        <time>2026-06-19T11:29:06.000Z</time>
        <extensions>
          <ns3:TrackPointExtension>
            <ns3:atemp>18.0</ns3:atemp>
          </ns3:TrackPointExtension>
        </extensions>
      </trkpt>
      <trkpt lat="42.55922994576394557952880859375" lon="20.05637012422084808349609375">
        <ele>2196.199951171875</ele>
        <time>2026-06-19T11:29:07.000Z</time>
        <extensions>
          <ns3:TrackPointExtension>
            <ns3:atemp>18.0</ns3:atemp>
          </ns3:TrackPointExtension>
        </extensions>
      </trkpt>
      <trkpt lat="42.55922994576394557952880859375" lon="20.05637012422084808349609375">
        <ele>2196.199951171875</ele>
        <time>2026-06-19T11:29:08.000Z</time>
        <extensions>
          <ns3:TrackPointExtension>
            <ns3:atemp>18.0</ns3:atemp>
          </ns3:TrackPointExtension>
        </extensions>
      </trkpt>
      <trkpt lat="42.55922994576394557952880859375" lon="20.05637012422084808349609375">
        <ele>2196.199951171875</ele>
        <time>2026-06-19T11:29:09.000Z</time>
        <extensions>
          <ns3:TrackPointExtension>
            <ns3:atemp>18.0</ns3:atemp>
          </ns3:TrackPointExtension>
        </extensions>
      </trkpt>
      <trkpt lat="42.55922994576394557952880859375" lon="20.05637012422084808349609375">
        <ele>2196.199951171875</ele>
        <time>2026-06-19T11:29:10.000Z</time>
        <extensions>
          <ns3:TrackPointExtension>
            <ns3:atemp>18.0</ns3:atemp>
          </ns3:TrackPointExtension>
        </extensions>
      </trkpt>
      <trkpt lat="42.55922994576394557952880859375" lon="20.05637012422084808349609375">
        <ele>2196.199951171875</ele>
        <time>2026-06-19T11:29:11.000Z</time>
        <extensions>
          <ns3:TrackPointExtension>
            <ns3:atemp>18.0</ns3:atemp>
          </ns3:TrackPointExtension>
        </extensions>
      </trkpt>
      <trkpt lat="42.55922994576394557952880859375" lon="20.05637012422084808349609375">
        <ele>2196.199951171875</ele>
        <time>2026-06-19T11:29:12.000Z</time>
        <extensions>
          <ns3:TrackPointExtension>
            <ns3:atemp>18.0</ns3:atemp>
          </ns3:TrackPointExtension>
        </extensions>
      </trkpt>
      <trkpt lat="42.55922994576394557952880859375" lon="20.05637012422084808349609375">
        <ele>2196.199951171875</ele>
        <time>2026-06-19T11:29:13.000Z</time>
        <extensions>
          <ns3:TrackPointExtension>
            <ns3:atemp>18.0</ns3:atemp>
          </ns3:TrackPointExtension>
        </extensions>
      </trkpt>
      <trkpt lat="42.55922994576394557952880859375" lon="20.05637012422084808349609375">
        <ele>2196.199951171875</ele>
        <time>2026-06-19T11:29:14.000Z</time>
        <extensions>
          <ns3:TrackPointExtension>
            <ns3:atemp>18.0</ns3:atemp>
          </ns3:TrackPointExtension>
        </extensions>
      </trkpt>
      <trkpt lat="42.55922994576394557952880859375" lon="20.05637012422084808349609375">
        <ele>2196.199951171875</ele>
        <time>2026-06-19T11:29:15.000Z</time>
        <extensions>
          <ns3:TrackPointExtension>
            <ns3:atemp>18.0</ns3:atemp>
          </ns3:TrackPointExtension>
        </extensions>
      </trkpt>
      <trkpt lat="42.55922994576394557952880859375" lon="20.05637012422084808349609375">
        <ele>2196.199951171875</ele>
        <time>2026-06-19T11:29:16.000Z</time>
        <extensions>
          <ns3:TrackPointExtension>
            <ns3:atemp>18.0</ns3:atemp>
          </ns3:TrackPointExtension>
        </extensions>
      </trkpt>
      <trkpt lat="42.55922994576394557952880859375" lon="20.05637012422084808349609375">
        <ele>2196.199951171875</ele>
        <time>2026-06-19T11:29:17.000Z</time>
        <extensions>
          <ns3:TrackPointExtension>
            <ns3:atemp>18.0</ns3:atemp>
          </ns3:TrackPointExtension>
        </extensions>
      </trkpt>
      <trkpt lat="42.55922994576394557952880859375" lon="20.05637012422084808349609375">
        <ele>2196.199951171875</ele>
        <time>2026-06-19T11:29:18.000Z</time>
        <extensions>
          <ns3:TrackPointExtension>
            <ns3:atemp>18.0</ns3:atemp>
          </ns3:TrackPointExtension>
        </extensions>
      </trkpt>
      <trkpt lat="42.55922994576394557952880859375" lon="20.05637012422084808349609375">
        <ele>2196.199951171875</ele>
        <time>2026-06-19T11:29:19.000Z</time>
        <extensions>
          <ns3:TrackPointExtension>
            <ns3:atemp>18.0</ns3:atemp>
          </ns3:TrackPointExtension>
        </extensions>
      </trkpt>
      <trkpt lat="42.55922994576394557952880859375" lon="20.05637012422084808349609375">
        <ele>2196.199951171875</ele>
        <time>2026-06-19T11:29:20.000Z</time>
        <extensions>
          <ns3:TrackPointExtension>
            <ns3:atemp>18.0</ns3:atemp>
          </ns3:TrackPointExtension>
        </extensions>
      </trkpt>
      <trkpt lat="42.55922994576394557952880859375" lon="20.05637012422084808349609375">
        <ele>2196.199951171875</ele>
        <time>2026-06-19T11:29:21.000Z</time>
        <extensions>
          <ns3:TrackPointExtension>
            <ns3:atemp>18.0</ns3:atemp>
          </ns3:TrackPointExtension>
        </extensions>
      </trkpt>
      <trkpt lat="42.55922994576394557952880859375" lon="20.05637012422084808349609375">
        <ele>2196.199951171875</ele>
        <time>2026-06-19T11:29:22.000Z</time>
        <extensions>
          <ns3:TrackPointExtension>
            <ns3:atemp>18.0</ns3:atemp>
          </ns3:TrackPointExtension>
        </extensions>
      </trkpt>
      <trkpt lat="42.55922994576394557952880859375" lon="20.05637012422084808349609375">
        <ele>2196.199951171875</ele>
        <time>2026-06-19T11:29:23.000Z</time>
        <extensions>
          <ns3:TrackPointExtension>
            <ns3:atemp>18.0</ns3:atemp>
          </ns3:TrackPointExtension>
        </extensions>
      </trkpt>
      <trkpt lat="42.55922994576394557952880859375" lon="20.05637012422084808349609375">
        <ele>2196.199951171875</ele>
        <time>2026-06-19T11:29:24.000Z</time>
        <extensions>
          <ns3:TrackPointExtension>
            <ns3:atemp>18.0</ns3:atemp>
          </ns3:TrackPointExtension>
        </extensions>
      </trkpt>
      <trkpt lat="42.55922994576394557952880859375" lon="20.05637012422084808349609375">
        <ele>2196.199951171875</ele>
        <time>2026-06-19T11:29:25.000Z</time>
        <extensions>
          <ns3:TrackPointExtension>
            <ns3:atemp>18.0</ns3:atemp>
          </ns3:TrackPointExtension>
        </extensions>
      </trkpt>
      <trkpt lat="42.55922994576394557952880859375" lon="20.05637012422084808349609375">
        <ele>2196.199951171875</ele>
        <time>2026-06-19T11:29:26.000Z</time>
        <extensions>
          <ns3:TrackPointExtension>
            <ns3:atemp>18.0</ns3:atemp>
          </ns3:TrackPointExtension>
        </extensions>
      </trkpt>
      <trkpt lat="42.55922994576394557952880859375" lon="20.05637012422084808349609375">
        <ele>2196.199951171875</ele>
        <time>2026-06-19T11:29:27.000Z</time>
        <extensions>
          <ns3:TrackPointExtension>
            <ns3:atemp>18.0</ns3:atemp>
          </ns3:TrackPointExtension>
        </extensions>
      </trkpt>
      <trkpt lat="42.55922994576394557952880859375" lon="20.05637012422084808349609375">
        <ele>2196.199951171875</ele>
        <time>2026-06-19T11:29:28.000Z</time>
        <extensions>
          <ns3:TrackPointExtension>
            <ns3:atemp>18.0</ns3:atemp>
          </ns3:TrackPointExtension>
        </extensions>
      </trkpt>
      <trkpt lat="42.55922994576394557952880859375" lon="20.05637012422084808349609375">
        <ele>2196.199951171875</ele>
        <time>2026-06-19T11:29:29.000Z</time>
        <extensions>
          <ns3:TrackPointExtension>
            <ns3:atemp>18.0</ns3:atemp>
          </ns3:TrackPointExtension>
        </extensions>
      </trkpt>
      <trkpt lat="42.55922994576394557952880859375" lon="20.05637012422084808349609375">
        <ele>2196.199951171875</ele>
        <time>2026-06-19T11:29:30.000Z</time>
        <extensions>
          <ns3:TrackPointExtension>
            <ns3:atemp>18.0</ns3:atemp>
          </ns3:TrackPointExtension>
        </extensions>
      </trkpt>
      <trkpt lat="42.55922994576394557952880859375" lon="20.05637012422084808349609375">
        <ele>2196.199951171875</ele>
        <time>2026-06-19T11:29:31.000Z</time>
        <extensions>
          <ns3:TrackPointExtension>
            <ns3:atemp>18.0</ns3:atemp>
          </ns3:TrackPointExtension>
        </extensions>
      </trkpt>
      <trkpt lat="42.55922994576394557952880859375" lon="20.05637012422084808349609375">
        <ele>2196.199951171875</ele>
        <time>2026-06-19T11:29:32.000Z</time>
        <extensions>
          <ns3:TrackPointExtension>
            <ns3:atemp>18.0</ns3:atemp>
          </ns3:TrackPointExtension>
        </extensions>
      </trkpt>
      <trkpt lat="42.55922994576394557952880859375" lon="20.05637012422084808349609375">
        <ele>2196.199951171875</ele>
        <time>2026-06-19T11:29:33.000Z</time>
        <extensions>
          <ns3:TrackPointExtension>
            <ns3:atemp>18.0</ns3:atemp>
          </ns3:TrackPointExtension>
        </extensions>
      </trkpt>
      <trkpt lat="42.55922994576394557952880859375" lon="20.05637012422084808349609375">
        <ele>2196.199951171875</ele>
        <time>2026-06-19T11:29:34.000Z</time>
        <extensions>
          <ns3:TrackPointExtension>
            <ns3:atemp>18.0</ns3:atemp>
          </ns3:TrackPointExtension>
        </extensions>
      </trkpt>
      <trkpt lat="42.55922994576394557952880859375" lon="20.05637012422084808349609375">
        <ele>2196.199951171875</ele>
        <time>2026-06-19T11:29:35.000Z</time>
        <extensions>
          <ns3:TrackPointExtension>
            <ns3:atemp>18.0</ns3:atemp>
          </ns3:TrackPointExtension>
        </extensions>
      </trkpt>
      <trkpt lat="42.55922994576394557952880859375" lon="20.05637012422084808349609375">
        <ele>2196.199951171875</ele>
        <time>2026-06-19T11:29:36.000Z</time>
        <extensions>
          <ns3:TrackPointExtension>
            <ns3:atemp>18.0</ns3:atemp>
          </ns3:TrackPointExtension>
        </extensions>
      </trkpt>
      <trkpt lat="42.55922994576394557952880859375" lon="20.05637012422084808349609375">
        <ele>2196.199951171875</ele>
        <time>2026-06-19T11:29:37.000Z</time>
        <extensions>
          <ns3:TrackPointExtension>
            <ns3:atemp>18.0</ns3:atemp>
          </ns3:TrackPointExtension>
        </extensions>
      </trkpt>
      <trkpt lat="42.55922994576394557952880859375" lon="20.05637012422084808349609375">
        <ele>2196.199951171875</ele>
        <time>2026-06-19T11:29:38.000Z</time>
        <extensions>
          <ns3:TrackPointExtension>
            <ns3:atemp>18.0</ns3:atemp>
          </ns3:TrackPointExtension>
        </extensions>
      </trkpt>
      <trkpt lat="42.55922994576394557952880859375" lon="20.05637012422084808349609375">
        <ele>2196.199951171875</ele>
        <time>2026-06-19T11:29:39.000Z</time>
        <extensions>
          <ns3:TrackPointExtension>
            <ns3:atemp>18.0</ns3:atemp>
          </ns3:TrackPointExtension>
        </extensions>
      </trkpt>
      <trkpt lat="42.55922994576394557952880859375" lon="20.05637012422084808349609375">
        <ele>2196.199951171875</ele>
        <time>2026-06-19T11:29:40.000Z</time>
        <extensions>
          <ns3:TrackPointExtension>
            <ns3:atemp>18.0</ns3:atemp>
          </ns3:TrackPointExtension>
        </extensions>
      </trkpt>
      <trkpt lat="42.55922994576394557952880859375" lon="20.05637012422084808349609375">
        <ele>2196.199951171875</ele>
        <time>2026-06-19T11:29:41.000Z</time>
        <extensions>
          <ns3:TrackPointExtension>
            <ns3:atemp>18.0</ns3:atemp>
          </ns3:TrackPointExtension>
        </extensions>
      </trkpt>
      <trkpt lat="42.55922994576394557952880859375" lon="20.05637012422084808349609375">
        <ele>2196.199951171875</ele>
        <time>2026-06-19T11:29:42.000Z</time>
        <extensions>
          <ns3:TrackPointExtension>
            <ns3:atemp>18.0</ns3:atemp>
          </ns3:TrackPointExtension>
        </extensions>
      </trkpt>
      <trkpt lat="42.55922994576394557952880859375" lon="20.05637012422084808349609375">
        <ele>2196.199951171875</ele>
        <time>2026-06-19T11:29:43.000Z</time>
        <extensions>
          <ns3:TrackPointExtension>
            <ns3:atemp>18.0</ns3:atemp>
          </ns3:TrackPointExtension>
        </extensions>
      </trkpt>
      <trkpt lat="42.55922994576394557952880859375" lon="20.05637012422084808349609375">
        <ele>2196.199951171875</ele>
        <time>2026-06-19T11:29:44.000Z</time>
        <extensions>
          <ns3:TrackPointExtension>
            <ns3:atemp>18.0</ns3:atemp>
          </ns3:TrackPointExtension>
        </extensions>
      </trkpt>
      <trkpt lat="42.55922994576394557952880859375" lon="20.05637012422084808349609375">
        <ele>2196.199951171875</ele>
        <time>2026-06-19T11:29:45.000Z</time>
        <extensions>
          <ns3:TrackPointExtension>
            <ns3:atemp>18.0</ns3:atemp>
          </ns3:TrackPointExtension>
        </extensions>
      </trkpt>
      <trkpt lat="42.55922994576394557952880859375" lon="20.05637012422084808349609375">
        <ele>2196.199951171875</ele>
        <time>2026-06-19T11:29:46.000Z</time>
        <extensions>
          <ns3:TrackPointExtension>
            <ns3:atemp>18.0</ns3:atemp>
          </ns3:TrackPointExtension>
        </extensions>
      </trkpt>
      <trkpt lat="42.55922994576394557952880859375" lon="20.05637012422084808349609375">
        <ele>2196.199951171875</ele>
        <time>2026-06-19T11:29:47.000Z</time>
        <extensions>
          <ns3:TrackPointExtension>
            <ns3:atemp>18.0</ns3:atemp>
          </ns3:TrackPointExtension>
        </extensions>
      </trkpt>
      <trkpt lat="42.55922994576394557952880859375" lon="20.05637012422084808349609375">
        <ele>2196.199951171875</ele>
        <time>2026-06-19T11:29:48.000Z</time>
        <extensions>
          <ns3:TrackPointExtension>
            <ns3:atemp>18.0</ns3:atemp>
          </ns3:TrackPointExtension>
        </extensions>
      </trkpt>
      <trkpt lat="42.55922994576394557952880859375" lon="20.05637012422084808349609375">
        <ele>2196.199951171875</ele>
        <time>2026-06-19T11:29:49.000Z</time>
        <extensions>
          <ns3:TrackPointExtension>
            <ns3:atemp>18.0</ns3:atemp>
          </ns3:TrackPointExtension>
        </extensions>
      </trkpt>
      <trkpt lat="42.55922994576394557952880859375" lon="20.05637012422084808349609375">
        <ele>2196.199951171875</ele>
        <time>2026-06-19T11:29:50.000Z</time>
        <extensions>
          <ns3:TrackPointExtension>
            <ns3:atemp>18.0</ns3:atemp>
          </ns3:TrackPointExtension>
        </extensions>
      </trkpt>
      <trkpt lat="42.55922994576394557952880859375" lon="20.05637012422084808349609375">
        <ele>2196.199951171875</ele>
        <time>2026-06-19T11:29:51.000Z</time>
        <extensions>
          <ns3:TrackPointExtension>
            <ns3:atemp>18.0</ns3:atemp>
          </ns3:TrackPointExtension>
        </extensions>
      </trkpt>
      <trkpt lat="42.55922994576394557952880859375" lon="20.05637012422084808349609375">
        <ele>2196.199951171875</ele>
        <time>2026-06-19T11:29:52.000Z</time>
        <extensions>
          <ns3:TrackPointExtension>
            <ns3:atemp>18.0</ns3:atemp>
          </ns3:TrackPointExtension>
        </extensions>
      </trkpt>
      <trkpt lat="42.55922994576394557952880859375" lon="20.05637012422084808349609375">
        <ele>2196.199951171875</ele>
        <time>2026-06-19T11:29:53.000Z</time>
        <extensions>
          <ns3:TrackPointExtension>
            <ns3:atemp>18.0</ns3:atemp>
          </ns3:TrackPointExtension>
        </extensions>
      </trkpt>
      <trkpt lat="42.55922994576394557952880859375" lon="20.05637012422084808349609375">
        <ele>2196.199951171875</ele>
        <time>2026-06-19T11:29:54.000Z</time>
        <extensions>
          <ns3:TrackPointExtension>
            <ns3:atemp>18.0</ns3:atemp>
          </ns3:TrackPointExtension>
        </extensions>
      </trkpt>
      <trkpt lat="42.55922994576394557952880859375" lon="20.05637012422084808349609375">
        <ele>2196.199951171875</ele>
        <time>2026-06-19T11:29:55.000Z</time>
        <extensions>
          <ns3:TrackPointExtension>
            <ns3:atemp>18.0</ns3:atemp>
          </ns3:TrackPointExtension>
        </extensions>
      </trkpt>
      <trkpt lat="42.55922994576394557952880859375" lon="20.05637012422084808349609375">
        <ele>2196.199951171875</ele>
        <time>2026-06-19T11:29:56.000Z</time>
        <extensions>
          <ns3:TrackPointExtension>
            <ns3:atemp>18.0</ns3:atemp>
          </ns3:TrackPointExtension>
        </extensions>
      </trkpt>
      <trkpt lat="42.55922994576394557952880859375" lon="20.05637012422084808349609375">
        <ele>2196.199951171875</ele>
        <time>2026-06-19T11:29:57.000Z</time>
        <extensions>
          <ns3:TrackPointExtension>
            <ns3:atemp>18.0</ns3:atemp>
          </ns3:TrackPointExtension>
        </extensions>
      </trkpt>
      <trkpt lat="42.55922994576394557952880859375" lon="20.05637012422084808349609375">
        <ele>2196.199951171875</ele>
        <time>2026-06-19T11:29:58.000Z</time>
        <extensions>
          <ns3:TrackPointExtension>
            <ns3:atemp>18.0</ns3:atemp>
          </ns3:TrackPointExtension>
        </extensions>
      </trkpt>
      <trkpt lat="42.55922994576394557952880859375" lon="20.05637012422084808349609375">
        <ele>2196.199951171875</ele>
        <time>2026-06-19T11:29:59.000Z</time>
        <extensions>
          <ns3:TrackPointExtension>
            <ns3:atemp>18.0</ns3:atemp>
          </ns3:TrackPointExtension>
        </extensions>
      </trkpt>
      <trkpt lat="42.55922994576394557952880859375" lon="20.05637012422084808349609375">
        <ele>2196.199951171875</ele>
        <time>2026-06-19T11:30:00.000Z</time>
        <extensions>
          <ns3:TrackPointExtension>
            <ns3:atemp>18.0</ns3:atemp>
          </ns3:TrackPointExtension>
        </extensions>
      </trkpt>
      <trkpt lat="42.55922994576394557952880859375" lon="20.05637012422084808349609375">
        <ele>2196.199951171875</ele>
        <time>2026-06-19T11:30:01.000Z</time>
        <extensions>
          <ns3:TrackPointExtension>
            <ns3:atemp>18.0</ns3:atemp>
          </ns3:TrackPointExtension>
        </extensions>
      </trkpt>
      <trkpt lat="42.55922994576394557952880859375" lon="20.05637012422084808349609375">
        <ele>2196.199951171875</ele>
        <time>2026-06-19T11:30:02.000Z</time>
        <extensions>
          <ns3:TrackPointExtension>
            <ns3:atemp>18.0</ns3:atemp>
          </ns3:TrackPointExtension>
        </extensions>
      </trkpt>
      <trkpt lat="42.55922994576394557952880859375" lon="20.05637012422084808349609375">
        <ele>2196.199951171875</ele>
        <time>2026-06-19T11:30:03.000Z</time>
        <extensions>
          <ns3:TrackPointExtension>
            <ns3:atemp>18.0</ns3:atemp>
          </ns3:TrackPointExtension>
        </extensions>
      </trkpt>
      <trkpt lat="42.55922994576394557952880859375" lon="20.05637012422084808349609375">
        <ele>2196.199951171875</ele>
        <time>2026-06-19T11:30:04.000Z</time>
        <extensions>
          <ns3:TrackPointExtension>
            <ns3:atemp>18.0</ns3:atemp>
          </ns3:TrackPointExtension>
        </extensions>
      </trkpt>
      <trkpt lat="42.55922994576394557952880859375" lon="20.05637012422084808349609375">
        <ele>2196.199951171875</ele>
        <time>2026-06-19T11:30:05.000Z</time>
        <extensions>
          <ns3:TrackPointExtension>
            <ns3:atemp>18.0</ns3:atemp>
          </ns3:TrackPointExtension>
        </extensions>
      </trkpt>
      <trkpt lat="42.55922994576394557952880859375" lon="20.05637012422084808349609375">
        <ele>2196.199951171875</ele>
        <time>2026-06-19T11:30:06.000Z</time>
        <extensions>
          <ns3:TrackPointExtension>
            <ns3:atemp>18.0</ns3:atemp>
          </ns3:TrackPointExtension>
        </extensions>
      </trkpt>
      <trkpt lat="42.55922994576394557952880859375" lon="20.05637012422084808349609375">
        <ele>2196.199951171875</ele>
        <time>2026-06-19T11:30:07.000Z</time>
        <extensions>
          <ns3:TrackPointExtension>
            <ns3:atemp>18.0</ns3:atemp>
          </ns3:TrackPointExtension>
        </extensions>
      </trkpt>
      <trkpt lat="42.55922994576394557952880859375" lon="20.05637012422084808349609375">
        <ele>2196.199951171875</ele>
        <time>2026-06-19T11:30:08.000Z</time>
        <extensions>
          <ns3:TrackPointExtension>
            <ns3:atemp>18.0</ns3:atemp>
          </ns3:TrackPointExtension>
        </extensions>
      </trkpt>
      <trkpt lat="42.55922994576394557952880859375" lon="20.05637012422084808349609375">
        <ele>2196.199951171875</ele>
        <time>2026-06-19T11:30:09.000Z</time>
        <extensions>
          <ns3:TrackPointExtension>
            <ns3:atemp>18.0</ns3:atemp>
          </ns3:TrackPointExtension>
        </extensions>
      </trkpt>
      <trkpt lat="42.55922994576394557952880859375" lon="20.05637012422084808349609375">
        <ele>2196.199951171875</ele>
        <time>2026-06-19T11:30:10.000Z</time>
        <extensions>
          <ns3:TrackPointExtension>
            <ns3:atemp>18.0</ns3:atemp>
          </ns3:TrackPointExtension>
        </extensions>
      </trkpt>
      <trkpt lat="42.55922994576394557952880859375" lon="20.05637012422084808349609375">
        <ele>2196.199951171875</ele>
        <time>2026-06-19T11:30:11.000Z</time>
        <extensions>
          <ns3:TrackPointExtension>
            <ns3:atemp>18.0</ns3:atemp>
          </ns3:TrackPointExtension>
        </extensions>
      </trkpt>
      <trkpt lat="42.55922994576394557952880859375" lon="20.05637012422084808349609375">
        <ele>2196.199951171875</ele>
        <time>2026-06-19T11:30:12.000Z</time>
        <extensions>
          <ns3:TrackPointExtension>
            <ns3:atemp>18.0</ns3:atemp>
          </ns3:TrackPointExtension>
        </extensions>
      </trkpt>
      <trkpt lat="42.55922994576394557952880859375" lon="20.05637012422084808349609375">
        <ele>2196.199951171875</ele>
        <time>2026-06-19T11:30:13.000Z</time>
        <extensions>
          <ns3:TrackPointExtension>
            <ns3:atemp>18.0</ns3:atemp>
          </ns3:TrackPointExtension>
        </extensions>
      </trkpt>
      <trkpt lat="42.55922994576394557952880859375" lon="20.05637012422084808349609375">
        <ele>2196.199951171875</ele>
        <time>2026-06-19T11:30:14.000Z</time>
        <extensions>
          <ns3:TrackPointExtension>
            <ns3:atemp>18.0</ns3:atemp>
          </ns3:TrackPointExtension>
        </extensions>
      </trkpt>
      <trkpt lat="42.55922994576394557952880859375" lon="20.05637012422084808349609375">
        <ele>2196.199951171875</ele>
        <time>2026-06-19T11:30:15.000Z</time>
        <extensions>
          <ns3:TrackPointExtension>
            <ns3:atemp>18.0</ns3:atemp>
          </ns3:TrackPointExtension>
        </extensions>
      </trkpt>
      <trkpt lat="42.55922994576394557952880859375" lon="20.05637012422084808349609375">
        <ele>2196.199951171875</ele>
        <time>2026-06-19T11:30:16.000Z</time>
        <extensions>
          <ns3:TrackPointExtension>
            <ns3:atemp>18.0</ns3:atemp>
          </ns3:TrackPointExtension>
        </extensions>
      </trkpt>
      <trkpt lat="42.55922994576394557952880859375" lon="20.05637012422084808349609375">
        <ele>2196.199951171875</ele>
        <time>2026-06-19T11:30:17.000Z</time>
        <extensions>
          <ns3:TrackPointExtension>
            <ns3:atemp>18.0</ns3:atemp>
          </ns3:TrackPointExtension>
        </extensions>
      </trkpt>
      <trkpt lat="42.55922994576394557952880859375" lon="20.05637012422084808349609375">
        <ele>2196.199951171875</ele>
        <time>2026-06-19T11:30:18.000Z</time>
        <extensions>
          <ns3:TrackPointExtension>
            <ns3:atemp>18.0</ns3:atemp>
          </ns3:TrackPointExtension>
        </extensions>
      </trkpt>
      <trkpt lat="42.55922994576394557952880859375" lon="20.05637012422084808349609375">
        <ele>2196.199951171875</ele>
        <time>2026-06-19T11:30:19.000Z</time>
        <extensions>
          <ns3:TrackPointExtension>
            <ns3:atemp>18.0</ns3:atemp>
          </ns3:TrackPointExtension>
        </extensions>
      </trkpt>
      <trkpt lat="42.55922994576394557952880859375" lon="20.05637012422084808349609375">
        <ele>2196.199951171875</ele>
        <time>2026-06-19T11:30:20.000Z</time>
        <extensions>
          <ns3:TrackPointExtension>
            <ns3:atemp>18.0</ns3:atemp>
          </ns3:TrackPointExtension>
        </extensions>
      </trkpt>
      <trkpt lat="42.55922994576394557952880859375" lon="20.05637012422084808349609375">
        <ele>2196.199951171875</ele>
        <time>2026-06-19T11:30:21.000Z</time>
        <extensions>
          <ns3:TrackPointExtension>
            <ns3:atemp>18.0</ns3:atemp>
          </ns3:TrackPointExtension>
        </extensions>
      </trkpt>
      <trkpt lat="42.55922994576394557952880859375" lon="20.05637012422084808349609375">
        <ele>2196.199951171875</ele>
        <time>2026-06-19T11:30:22.000Z</time>
        <extensions>
          <ns3:TrackPointExtension>
            <ns3:atemp>18.0</ns3:atemp>
          </ns3:TrackPointExtension>
        </extensions>
      </trkpt>
      <trkpt lat="42.55922994576394557952880859375" lon="20.05637012422084808349609375">
        <ele>2196.199951171875</ele>
        <time>2026-06-19T11:30:23.000Z</time>
        <extensions>
          <ns3:TrackPointExtension>
            <ns3:atemp>18.0</ns3:atemp>
          </ns3:TrackPointExtension>
        </extensions>
      </trkpt>
      <trkpt lat="42.55922994576394557952880859375" lon="20.05637012422084808349609375">
        <ele>2196.199951171875</ele>
        <time>2026-06-19T11:30:24.000Z</time>
        <extensions>
          <ns3:TrackPointExtension>
            <ns3:atemp>18.0</ns3:atemp>
          </ns3:TrackPointExtension>
        </extensions>
      </trkpt>
      <trkpt lat="42.55922994576394557952880859375" lon="20.05637012422084808349609375">
        <ele>2196.199951171875</ele>
        <time>2026-06-19T11:30:25.000Z</time>
        <extensions>
          <ns3:TrackPointExtension>
            <ns3:atemp>18.0</ns3:atemp>
          </ns3:TrackPointExtension>
        </extensions>
      </trkpt>
      <trkpt lat="42.55922994576394557952880859375" lon="20.05637012422084808349609375">
        <ele>2196.199951171875</ele>
        <time>2026-06-19T11:30:26.000Z</time>
        <extensions>
          <ns3:TrackPointExtension>
            <ns3:atemp>18.0</ns3:atemp>
          </ns3:TrackPointExtension>
        </extensions>
      </trkpt>
      <trkpt lat="42.55922994576394557952880859375" lon="20.05637012422084808349609375">
        <ele>2196.199951171875</ele>
        <time>2026-06-19T11:30:27.000Z</time>
        <extensions>
          <ns3:TrackPointExtension>
            <ns3:atemp>18.0</ns3:atemp>
          </ns3:TrackPointExtension>
        </extensions>
      </trkpt>
      <trkpt lat="42.55922994576394557952880859375" lon="20.05637012422084808349609375">
        <ele>2196.199951171875</ele>
        <time>2026-06-19T11:30:28.000Z</time>
        <extensions>
          <ns3:TrackPointExtension>
            <ns3:atemp>18.0</ns3:atemp>
          </ns3:TrackPointExtension>
        </extensions>
      </trkpt>
      <trkpt lat="42.55922994576394557952880859375" lon="20.05637012422084808349609375">
        <ele>2196.199951171875</ele>
        <time>2026-06-19T11:30:29.000Z</time>
        <extensions>
          <ns3:TrackPointExtension>
            <ns3:atemp>18.0</ns3:atemp>
          </ns3:TrackPointExtension>
        </extensions>
      </trkpt>
      <trkpt lat="42.55922994576394557952880859375" lon="20.05637012422084808349609375">
        <ele>2196.199951171875</ele>
        <time>2026-06-19T11:30:30.000Z</time>
        <extensions>
          <ns3:TrackPointExtension>
            <ns3:atemp>18.0</ns3:atemp>
          </ns3:TrackPointExtension>
        </extensions>
      </trkpt>
      <trkpt lat="42.55922994576394557952880859375" lon="20.05637012422084808349609375">
        <ele>2196.199951171875</ele>
        <time>2026-06-19T11:30:31.000Z</time>
        <extensions>
          <ns3:TrackPointExtension>
            <ns3:atemp>18.0</ns3:atemp>
          </ns3:TrackPointExtension>
        </extensions>
      </trkpt>
      <trkpt lat="42.55922994576394557952880859375" lon="20.05637012422084808349609375">
        <ele>2196.199951171875</ele>
        <time>2026-06-19T11:30:32.000Z</time>
        <extensions>
          <ns3:TrackPointExtension>
            <ns3:atemp>18.0</ns3:atemp>
          </ns3:TrackPointExtension>
        </extensions>
      </trkpt>
      <trkpt lat="42.55922994576394557952880859375" lon="20.05637012422084808349609375">
        <ele>2196.199951171875</ele>
        <time>2026-06-19T11:30:33.000Z</time>
        <extensions>
          <ns3:TrackPointExtension>
            <ns3:atemp>18.0</ns3:atemp>
          </ns3:TrackPointExtension>
        </extensions>
      </trkpt>
      <trkpt lat="42.55922994576394557952880859375" lon="20.05637012422084808349609375">
        <ele>2196.199951171875</ele>
        <time>2026-06-19T11:30:34.000Z</time>
        <extensions>
          <ns3:TrackPointExtension>
            <ns3:atemp>18.0</ns3:atemp>
          </ns3:TrackPointExtension>
        </extensions>
      </trkpt>
      <trkpt lat="42.55922994576394557952880859375" lon="20.05637012422084808349609375">
        <ele>2196.199951171875</ele>
        <time>2026-06-19T11:30:35.000Z</time>
        <extensions>
          <ns3:TrackPointExtension>
            <ns3:atemp>18.0</ns3:atemp>
          </ns3:TrackPointExtension>
        </extensions>
      </trkpt>
      <trkpt lat="42.55922994576394557952880859375" lon="20.05637012422084808349609375">
        <ele>2196.199951171875</ele>
        <time>2026-06-19T11:30:36.000Z</time>
        <extensions>
          <ns3:TrackPointExtension>
            <ns3:atemp>18.0</ns3:atemp>
          </ns3:TrackPointExtension>
        </extensions>
      </trkpt>
      <trkpt lat="42.55922994576394557952880859375" lon="20.05637012422084808349609375">
        <ele>2196.199951171875</ele>
        <time>2026-06-19T11:30:37.000Z</time>
        <extensions>
          <ns3:TrackPointExtension>
            <ns3:atemp>18.0</ns3:atemp>
          </ns3:TrackPointExtension>
        </extensions>
      </trkpt>
      <trkpt lat="42.55922994576394557952880859375" lon="20.05637012422084808349609375">
        <ele>2196.199951171875</ele>
        <time>2026-06-19T11:30:38.000Z</time>
        <extensions>
          <ns3:TrackPointExtension>
            <ns3:atemp>18.0</ns3:atemp>
          </ns3:TrackPointExtension>
        </extensions>
      </trkpt>
      <trkpt lat="42.55922994576394557952880859375" lon="20.05637012422084808349609375">
        <ele>2196.199951171875</ele>
        <time>2026-06-19T11:30:39.000Z</time>
        <extensions>
          <ns3:TrackPointExtension>
            <ns3:atemp>18.0</ns3:atemp>
          </ns3:TrackPointExtension>
        </extensions>
      </trkpt>
      <trkpt lat="42.55922994576394557952880859375" lon="20.05637012422084808349609375">
        <ele>2196.199951171875</ele>
        <time>2026-06-19T11:30:40.000Z</time>
        <extensions>
          <ns3:TrackPointExtension>
            <ns3:atemp>18.0</ns3:atemp>
          </ns3:TrackPointExtension>
        </extensions>
      </trkpt>
      <trkpt lat="42.55922994576394557952880859375" lon="20.05637012422084808349609375">
        <ele>2196.199951171875</ele>
        <time>2026-06-19T11:30:41.000Z</time>
        <extensions>
          <ns3:TrackPointExtension>
            <ns3:atemp>18.0</ns3:atemp>
          </ns3:TrackPointExtension>
        </extensions>
      </trkpt>
      <trkpt lat="42.55922994576394557952880859375" lon="20.05637012422084808349609375">
        <ele>2196.199951171875</ele>
        <time>2026-06-19T11:30:42.000Z</time>
        <extensions>
          <ns3:TrackPointExtension>
            <ns3:atemp>18.0</ns3:atemp>
          </ns3:TrackPointExtension>
        </extensions>
      </trkpt>
      <trkpt lat="42.55922994576394557952880859375" lon="20.05637012422084808349609375">
        <ele>2196.199951171875</ele>
        <time>2026-06-19T11:30:43.000Z</time>
        <extensions>
          <ns3:TrackPointExtension>
            <ns3:atemp>18.0</ns3:atemp>
          </ns3:TrackPointExtension>
        </extensions>
      </trkpt>
      <trkpt lat="42.55922994576394557952880859375" lon="20.05637012422084808349609375">
        <ele>2196.199951171875</ele>
        <time>2026-06-19T11:30:44.000Z</time>
        <extensions>
          <ns3:TrackPointExtension>
            <ns3:atemp>18.0</ns3:atemp>
          </ns3:TrackPointExtension>
        </extensions>
      </trkpt>
      <trkpt lat="42.55922994576394557952880859375" lon="20.05637012422084808349609375">
        <ele>2196.199951171875</ele>
        <time>2026-06-19T11:30:45.000Z</time>
        <extensions>
          <ns3:TrackPointExtension>
            <ns3:atemp>18.0</ns3:atemp>
          </ns3:TrackPointExtension>
        </extensions>
      </trkpt>
      <trkpt lat="42.55922994576394557952880859375" lon="20.05637012422084808349609375">
        <ele>2196.199951171875</ele>
        <time>2026-06-19T11:30:46.000Z</time>
        <extensions>
          <ns3:TrackPointExtension>
            <ns3:atemp>18.0</ns3:atemp>
          </ns3:TrackPointExtension>
        </extensions>
      </trkpt>
      <trkpt lat="42.55922994576394557952880859375" lon="20.05637012422084808349609375">
        <ele>2196.199951171875</ele>
        <time>2026-06-19T11:30:47.000Z</time>
        <extensions>
          <ns3:TrackPointExtension>
            <ns3:atemp>18.0</ns3:atemp>
          </ns3:TrackPointExtension>
        </extensions>
      </trkpt>
      <trkpt lat="42.55922994576394557952880859375" lon="20.05637012422084808349609375">
        <ele>2196.199951171875</ele>
        <time>2026-06-19T11:30:48.000Z</time>
        <extensions>
          <ns3:TrackPointExtension>
            <ns3:atemp>18.0</ns3:atemp>
          </ns3:TrackPointExtension>
        </extensions>
      </trkpt>
      <trkpt lat="42.55922994576394557952880859375" lon="20.05637012422084808349609375">
        <ele>2196.199951171875</ele>
        <time>2026-06-19T11:30:49.000Z</time>
        <extensions>
          <ns3:TrackPointExtension>
            <ns3:atemp>18.0</ns3:atemp>
          </ns3:TrackPointExtension>
        </extensions>
      </trkpt>
      <trkpt lat="42.55922994576394557952880859375" lon="20.05637012422084808349609375">
        <ele>2196.199951171875</ele>
        <time>2026-06-19T11:30:50.000Z</time>
        <extensions>
          <ns3:TrackPointExtension>
            <ns3:atemp>18.0</ns3:atemp>
          </ns3:TrackPointExtension>
        </extensions>
      </trkpt>
      <trkpt lat="42.55922994576394557952880859375" lon="20.05637012422084808349609375">
        <ele>2196.199951171875</ele>
        <time>2026-06-19T11:30:51.000Z</time>
        <extensions>
          <ns3:TrackPointExtension>
            <ns3:atemp>18.0</ns3:atemp>
          </ns3:TrackPointExtension>
        </extensions>
      </trkpt>
      <trkpt lat="42.55922994576394557952880859375" lon="20.05637012422084808349609375">
        <ele>2196.199951171875</ele>
        <time>2026-06-19T11:30:52.000Z</time>
        <extensions>
          <ns3:TrackPointExtension>
            <ns3:atemp>18.0</ns3:atemp>
          </ns3:TrackPointExtension>
        </extensions>
      </trkpt>
      <trkpt lat="42.55922994576394557952880859375" lon="20.05637012422084808349609375">
        <ele>2196.199951171875</ele>
        <time>2026-06-19T11:30:53.000Z</time>
        <extensions>
          <ns3:TrackPointExtension>
            <ns3:atemp>18.0</ns3:atemp>
          </ns3:TrackPointExtension>
        </extensions>
      </trkpt>
      <trkpt lat="42.55922994576394557952880859375" lon="20.05637012422084808349609375">
        <ele>2196.199951171875</ele>
        <time>2026-06-19T11:30:54.000Z</time>
        <extensions>
          <ns3:TrackPointExtension>
            <ns3:atemp>18.0</ns3:atemp>
          </ns3:TrackPointExtension>
        </extensions>
      </trkpt>
      <trkpt lat="42.55922994576394557952880859375" lon="20.05637012422084808349609375">
        <ele>2196.199951171875</ele>
        <time>2026-06-19T11:30:55.000Z</time>
        <extensions>
          <ns3:TrackPointExtension>
            <ns3:atemp>18.0</ns3:atemp>
          </ns3:TrackPointExtension>
        </extensions>
      </trkpt>
      <trkpt lat="42.55922994576394557952880859375" lon="20.05637012422084808349609375">
        <ele>2196.199951171875</ele>
        <time>2026-06-19T11:30:56.000Z</time>
        <extensions>
          <ns3:TrackPointExtension>
            <ns3:atemp>18.0</ns3:atemp>
          </ns3:TrackPointExtension>
        </extensions>
      </trkpt>
      <trkpt lat="42.55922994576394557952880859375" lon="20.05637012422084808349609375">
        <ele>2196.199951171875</ele>
        <time>2026-06-19T11:30:57.000Z</time>
        <extensions>
          <ns3:TrackPointExtension>
            <ns3:atemp>18.0</ns3:atemp>
          </ns3:TrackPointExtension>
        </extensions>
      </trkpt>
      <trkpt lat="42.55922994576394557952880859375" lon="20.05637012422084808349609375">
        <ele>2196.199951171875</ele>
        <time>2026-06-19T11:30:58.000Z</time>
        <extensions>
          <ns3:TrackPointExtension>
            <ns3:atemp>18.0</ns3:atemp>
          </ns3:TrackPointExtension>
        </extensions>
      </trkpt>
      <trkpt lat="42.55922994576394557952880859375" lon="20.05637012422084808349609375">
        <ele>2196.199951171875</ele>
        <time>2026-06-19T11:30:59.000Z</time>
        <extensions>
          <ns3:TrackPointExtension>
            <ns3:atemp>18.0</ns3:atemp>
          </ns3:TrackPointExtension>
        </extensions>
      </trkpt>
      <trkpt lat="42.55922994576394557952880859375" lon="20.05637012422084808349609375">
        <ele>2196.199951171875</ele>
        <time>2026-06-19T11:31:00.000Z</time>
        <extensions>
          <ns3:TrackPointExtension>
            <ns3:atemp>18.0</ns3:atemp>
          </ns3:TrackPointExtension>
        </extensions>
      </trkpt>
      <trkpt lat="42.55922994576394557952880859375" lon="20.05637012422084808349609375">
        <ele>2196.199951171875</ele>
        <time>2026-06-19T11:31:01.000Z</time>
        <extensions>
          <ns3:TrackPointExtension>
            <ns3:atemp>18.0</ns3:atemp>
          </ns3:TrackPointExtension>
        </extensions>
      </trkpt>
      <trkpt lat="42.55922994576394557952880859375" lon="20.05637012422084808349609375">
        <ele>2196.199951171875</ele>
        <time>2026-06-19T11:31:02.000Z</time>
        <extensions>
          <ns3:TrackPointExtension>
            <ns3:atemp>18.0</ns3:atemp>
          </ns3:TrackPointExtension>
        </extensions>
      </trkpt>
      <trkpt lat="42.55922994576394557952880859375" lon="20.05637012422084808349609375">
        <ele>2196.199951171875</ele>
        <time>2026-06-19T11:31:03.000Z</time>
        <extensions>
          <ns3:TrackPointExtension>
            <ns3:atemp>18.0</ns3:atemp>
          </ns3:TrackPointExtension>
        </extensions>
      </trkpt>
      <trkpt lat="42.55922994576394557952880859375" lon="20.05637012422084808349609375">
        <ele>2196.199951171875</ele>
        <time>2026-06-19T11:31:04.000Z</time>
        <extensions>
          <ns3:TrackPointExtension>
            <ns3:atemp>18.0</ns3:atemp>
          </ns3:TrackPointExtension>
        </extensions>
      </trkpt>
      <trkpt lat="42.55922994576394557952880859375" lon="20.05637012422084808349609375">
        <ele>2196.199951171875</ele>
        <time>2026-06-19T11:31:05.000Z</time>
        <extensions>
          <ns3:TrackPointExtension>
            <ns3:atemp>18.0</ns3:atemp>
          </ns3:TrackPointExtension>
        </extensions>
      </trkpt>
      <trkpt lat="42.55922994576394557952880859375" lon="20.05637012422084808349609375">
        <ele>2196.199951171875</ele>
        <time>2026-06-19T11:31:06.000Z</time>
        <extensions>
          <ns3:TrackPointExtension>
            <ns3:atemp>18.0</ns3:atemp>
          </ns3:TrackPointExtension>
        </extensions>
      </trkpt>
      <trkpt lat="42.55922994576394557952880859375" lon="20.05637012422084808349609375">
        <ele>2196.199951171875</ele>
        <time>2026-06-19T11:31:07.000Z</time>
        <extensions>
          <ns3:TrackPointExtension>
            <ns3:atemp>18.0</ns3:atemp>
          </ns3:TrackPointExtension>
        </extensions>
      </trkpt>
      <trkpt lat="42.55922994576394557952880859375" lon="20.05637012422084808349609375">
        <ele>2196.199951171875</ele>
        <time>2026-06-19T11:31:08.000Z</time>
        <extensions>
          <ns3:TrackPointExtension>
            <ns3:atemp>18.0</ns3:atemp>
          </ns3:TrackPointExtension>
        </extensions>
      </trkpt>
      <trkpt lat="42.55922994576394557952880859375" lon="20.05637012422084808349609375">
        <ele>2196.199951171875</ele>
        <time>2026-06-19T11:31:09.000Z</time>
        <extensions>
          <ns3:TrackPointExtension>
            <ns3:atemp>18.0</ns3:atemp>
          </ns3:TrackPointExtension>
        </extensions>
      </trkpt>
      <trkpt lat="42.55922994576394557952880859375" lon="20.05637012422084808349609375">
        <ele>2196.199951171875</ele>
        <time>2026-06-19T11:31:10.000Z</time>
        <extensions>
          <ns3:TrackPointExtension>
            <ns3:atemp>18.0</ns3:atemp>
          </ns3:TrackPointExtension>
        </extensions>
      </trkpt>
      <trkpt lat="42.55922994576394557952880859375" lon="20.05637012422084808349609375">
        <ele>2196.199951171875</ele>
        <time>2026-06-19T11:31:11.000Z</time>
        <extensions>
          <ns3:TrackPointExtension>
            <ns3:atemp>18.0</ns3:atemp>
          </ns3:TrackPointExtension>
        </extensions>
      </trkpt>
      <trkpt lat="42.55922994576394557952880859375" lon="20.05637012422084808349609375">
        <ele>2196.199951171875</ele>
        <time>2026-06-19T11:31:12.000Z</time>
        <extensions>
          <ns3:TrackPointExtension>
            <ns3:atemp>18.0</ns3:atemp>
          </ns3:TrackPointExtension>
        </extensions>
      </trkpt>
      <trkpt lat="42.55922994576394557952880859375" lon="20.05637012422084808349609375">
        <ele>2196.199951171875</ele>
        <time>2026-06-19T11:31:13.000Z</time>
        <extensions>
          <ns3:TrackPointExtension>
            <ns3:atemp>18.0</ns3:atemp>
          </ns3:TrackPointExtension>
        </extensions>
      </trkpt>
      <trkpt lat="42.55922994576394557952880859375" lon="20.05637012422084808349609375">
        <ele>2196.199951171875</ele>
        <time>2026-06-19T11:31:14.000Z</time>
        <extensions>
          <ns3:TrackPointExtension>
            <ns3:atemp>18.0</ns3:atemp>
          </ns3:TrackPointExtension>
        </extensions>
      </trkpt>
      <trkpt lat="42.55922994576394557952880859375" lon="20.05637012422084808349609375">
        <ele>2196.199951171875</ele>
        <time>2026-06-19T11:31:15.000Z</time>
        <extensions>
          <ns3:TrackPointExtension>
            <ns3:atemp>18.0</ns3:atemp>
          </ns3:TrackPointExtension>
        </extensions>
      </trkpt>
      <trkpt lat="42.55922994576394557952880859375" lon="20.05637012422084808349609375">
        <ele>2196.199951171875</ele>
        <time>2026-06-19T11:31:16.000Z</time>
        <extensions>
          <ns3:TrackPointExtension>
            <ns3:atemp>18.0</ns3:atemp>
          </ns3:TrackPointExtension>
        </extensions>
      </trkpt>
      <trkpt lat="42.55922994576394557952880859375" lon="20.05637012422084808349609375">
        <ele>2196.199951171875</ele>
        <time>2026-06-19T11:31:17.000Z</time>
        <extensions>
          <ns3:TrackPointExtension>
            <ns3:atemp>18.0</ns3:atemp>
          </ns3:TrackPointExtension>
        </extensions>
      </trkpt>
      <trkpt lat="42.55922994576394557952880859375" lon="20.05637012422084808349609375">
        <ele>2196.199951171875</ele>
        <time>2026-06-19T11:31:18.000Z</time>
        <extensions>
          <ns3:TrackPointExtension>
            <ns3:atemp>18.0</ns3:atemp>
          </ns3:TrackPointExtension>
        </extensions>
      </trkpt>
      <trkpt lat="42.55922994576394557952880859375" lon="20.05637012422084808349609375">
        <ele>2196.199951171875</ele>
        <time>2026-06-19T11:31:19.000Z</time>
        <extensions>
          <ns3:TrackPointExtension>
            <ns3:atemp>18.0</ns3:atemp>
          </ns3:TrackPointExtension>
        </extensions>
      </trkpt>
      <trkpt lat="42.55922994576394557952880859375" lon="20.05637012422084808349609375">
        <ele>2196.199951171875</ele>
        <time>2026-06-19T11:31:20.000Z</time>
        <extensions>
          <ns3:TrackPointExtension>
            <ns3:atemp>18.0</ns3:atemp>
          </ns3:TrackPointExtension>
        </extensions>
      </trkpt>
      <trkpt lat="42.55922994576394557952880859375" lon="20.05637012422084808349609375">
        <ele>2196.199951171875</ele>
        <time>2026-06-19T11:31:21.000Z</time>
        <extensions>
          <ns3:TrackPointExtension>
            <ns3:atemp>18.0</ns3:atemp>
          </ns3:TrackPointExtension>
        </extensions>
      </trkpt>
      <trkpt lat="42.55922994576394557952880859375" lon="20.05637012422084808349609375">
        <ele>2196.199951171875</ele>
        <time>2026-06-19T11:31:22.000Z</time>
        <extensions>
          <ns3:TrackPointExtension>
            <ns3:atemp>18.0</ns3:atemp>
          </ns3:TrackPointExtension>
        </extensions>
      </trkpt>
      <trkpt lat="42.55922994576394557952880859375" lon="20.05637012422084808349609375">
        <ele>2196.199951171875</ele>
        <time>2026-06-19T11:31:23.000Z</time>
        <extensions>
          <ns3:TrackPointExtension>
            <ns3:atemp>18.0</ns3:atemp>
          </ns3:TrackPointExtension>
        </extensions>
      </trkpt>
      <trkpt lat="42.55922994576394557952880859375" lon="20.05637012422084808349609375">
        <ele>2196.199951171875</ele>
        <time>2026-06-19T11:31:24.000Z</time>
        <extensions>
          <ns3:TrackPointExtension>
            <ns3:atemp>18.0</ns3:atemp>
          </ns3:TrackPointExtension>
        </extensions>
      </trkpt>
      <trkpt lat="42.55922994576394557952880859375" lon="20.05637012422084808349609375">
        <ele>2196.199951171875</ele>
        <time>2026-06-19T11:31:25.000Z</time>
        <extensions>
          <ns3:TrackPointExtension>
            <ns3:atemp>18.0</ns3:atemp>
          </ns3:TrackPointExtension>
        </extensions>
      </trkpt>
      <trkpt lat="42.55922994576394557952880859375" lon="20.05637012422084808349609375">
        <ele>2196.199951171875</ele>
        <time>2026-06-19T11:31:26.000Z</time>
        <extensions>
          <ns3:TrackPointExtension>
            <ns3:atemp>18.0</ns3:atemp>
          </ns3:TrackPointExtension>
        </extensions>
      </trkpt>
      <trkpt lat="42.55922994576394557952880859375" lon="20.05637012422084808349609375">
        <ele>2196.199951171875</ele>
        <time>2026-06-19T11:31:27.000Z</time>
        <extensions>
          <ns3:TrackPointExtension>
            <ns3:atemp>18.0</ns3:atemp>
          </ns3:TrackPointExtension>
        </extensions>
      </trkpt>
      <trkpt lat="42.55922994576394557952880859375" lon="20.05637012422084808349609375">
        <ele>2196.199951171875</ele>
        <time>2026-06-19T11:31:28.000Z</time>
        <extensions>
          <ns3:TrackPointExtension>
            <ns3:atemp>18.0</ns3:atemp>
          </ns3:TrackPointExtension>
        </extensions>
      </trkpt>
      <trkpt lat="42.55922994576394557952880859375" lon="20.05637012422084808349609375">
        <ele>2196.199951171875</ele>
        <time>2026-06-19T11:31:29.000Z</time>
        <extensions>
          <ns3:TrackPointExtension>
            <ns3:atemp>18.0</ns3:atemp>
          </ns3:TrackPointExtension>
        </extensions>
      </trkpt>
      <trkpt lat="42.55922994576394557952880859375" lon="20.05637012422084808349609375">
        <ele>2196.199951171875</ele>
        <time>2026-06-19T11:31:30.000Z</time>
        <extensions>
          <ns3:TrackPointExtension>
            <ns3:atemp>18.0</ns3:atemp>
          </ns3:TrackPointExtension>
        </extensions>
      </trkpt>
      <trkpt lat="42.55922994576394557952880859375" lon="20.05637012422084808349609375">
        <ele>2196.199951171875</ele>
        <time>2026-06-19T11:31:31.000Z</time>
        <extensions>
          <ns3:TrackPointExtension>
            <ns3:atemp>18.0</ns3:atemp>
          </ns3:TrackPointExtension>
        </extensions>
      </trkpt>
      <trkpt lat="42.55922994576394557952880859375" lon="20.05637012422084808349609375">
        <ele>2196.199951171875</ele>
        <time>2026-06-19T11:31:32.000Z</time>
        <extensions>
          <ns3:TrackPointExtension>
            <ns3:atemp>18.0</ns3:atemp>
          </ns3:TrackPointExtension>
        </extensions>
      </trkpt>
      <trkpt lat="42.55922994576394557952880859375" lon="20.05637012422084808349609375">
        <ele>2196.199951171875</ele>
        <time>2026-06-19T11:31:33.000Z</time>
        <extensions>
          <ns3:TrackPointExtension>
            <ns3:atemp>18.0</ns3:atemp>
          </ns3:TrackPointExtension>
        </extensions>
      </trkpt>
      <trkpt lat="42.55922994576394557952880859375" lon="20.05637012422084808349609375">
        <ele>2196.199951171875</ele>
        <time>2026-06-19T11:31:34.000Z</time>
        <extensions>
          <ns3:TrackPointExtension>
            <ns3:atemp>18.0</ns3:atemp>
          </ns3:TrackPointExtension>
        </extensions>
      </trkpt>
      <trkpt lat="42.55922994576394557952880859375" lon="20.05637012422084808349609375">
        <ele>2196.199951171875</ele>
        <time>2026-06-19T11:31:35.000Z</time>
        <extensions>
          <ns3:TrackPointExtension>
            <ns3:atemp>18.0</ns3:atemp>
          </ns3:TrackPointExtension>
        </extensions>
      </trkpt>
      <trkpt lat="42.55922994576394557952880859375" lon="20.05637012422084808349609375">
        <ele>2196.199951171875</ele>
        <time>2026-06-19T11:31:36.000Z</time>
        <extensions>
          <ns3:TrackPointExtension>
            <ns3:atemp>18.0</ns3:atemp>
          </ns3:TrackPointExtension>
        </extensions>
      </trkpt>
      <trkpt lat="42.55922994576394557952880859375" lon="20.05637012422084808349609375">
        <ele>2196.199951171875</ele>
        <time>2026-06-19T11:31:37.000Z</time>
        <extensions>
          <ns3:TrackPointExtension>
            <ns3:atemp>18.0</ns3:atemp>
          </ns3:TrackPointExtension>
        </extensions>
      </trkpt>
      <trkpt lat="42.55922994576394557952880859375" lon="20.05637012422084808349609375">
        <ele>2196.199951171875</ele>
        <time>2026-06-19T11:31:38.000Z</time>
        <extensions>
          <ns3:TrackPointExtension>
            <ns3:atemp>18.0</ns3:atemp>
          </ns3:TrackPointExtension>
        </extensions>
      </trkpt>
      <trkpt lat="42.55922994576394557952880859375" lon="20.05637012422084808349609375">
        <ele>2196.199951171875</ele>
        <time>2026-06-19T11:31:39.000Z</time>
        <extensions>
          <ns3:TrackPointExtension>
            <ns3:atemp>18.0</ns3:atemp>
          </ns3:TrackPointExtension>
        </extensions>
      </trkpt>
      <trkpt lat="42.55922994576394557952880859375" lon="20.05637012422084808349609375">
        <ele>2196.199951171875</ele>
        <time>2026-06-19T11:31:40.000Z</time>
        <extensions>
          <ns3:TrackPointExtension>
            <ns3:atemp>18.0</ns3:atemp>
          </ns3:TrackPointExtension>
        </extensions>
      </trkpt>
      <trkpt lat="42.55922994576394557952880859375" lon="20.05637012422084808349609375">
        <ele>2196.199951171875</ele>
        <time>2026-06-19T11:31:41.000Z</time>
        <extensions>
          <ns3:TrackPointExtension>
            <ns3:atemp>18.0</ns3:atemp>
          </ns3:TrackPointExtension>
        </extensions>
      </trkpt>
      <trkpt lat="42.55922994576394557952880859375" lon="20.05637012422084808349609375">
        <ele>2196.199951171875</ele>
        <time>2026-06-19T11:31:42.000Z</time>
        <extensions>
          <ns3:TrackPointExtension>
            <ns3:atemp>18.0</ns3:atemp>
          </ns3:TrackPointExtension>
        </extensions>
      </trkpt>
      <trkpt lat="42.55922994576394557952880859375" lon="20.05637012422084808349609375">
        <ele>2196.199951171875</ele>
        <time>2026-06-19T11:31:43.000Z</time>
        <extensions>
          <ns3:TrackPointExtension>
            <ns3:atemp>18.0</ns3:atemp>
          </ns3:TrackPointExtension>
        </extensions>
      </trkpt>
      <trkpt lat="42.55922994576394557952880859375" lon="20.05637012422084808349609375">
        <ele>2196.199951171875</ele>
        <time>2026-06-19T11:31:44.000Z</time>
        <extensions>
          <ns3:TrackPointExtension>
            <ns3:atemp>18.0</ns3:atemp>
          </ns3:TrackPointExtension>
        </extensions>
      </trkpt>
      <trkpt lat="42.55922994576394557952880859375" lon="20.05637012422084808349609375">
        <ele>2196.199951171875</ele>
        <time>2026-06-19T11:31:45.000Z</time>
        <extensions>
          <ns3:TrackPointExtension>
            <ns3:atemp>18.0</ns3:atemp>
          </ns3:TrackPointExtension>
        </extensions>
      </trkpt>
      <trkpt lat="42.55922994576394557952880859375" lon="20.05637012422084808349609375">
        <ele>2196.199951171875</ele>
        <time>2026-06-19T11:31:46.000Z</time>
        <extensions>
          <ns3:TrackPointExtension>
            <ns3:atemp>18.0</ns3:atemp>
          </ns3:TrackPointExtension>
        </extensions>
      </trkpt>
      <trkpt lat="42.55922994576394557952880859375" lon="20.05637012422084808349609375">
        <ele>2196.199951171875</ele>
        <time>2026-06-19T11:31:47.000Z</time>
        <extensions>
          <ns3:TrackPointExtension>
            <ns3:atemp>18.0</ns3:atemp>
          </ns3:TrackPointExtension>
        </extensions>
      </trkpt>
      <trkpt lat="42.55922994576394557952880859375" lon="20.05637012422084808349609375">
        <ele>2196.199951171875</ele>
        <time>2026-06-19T11:31:48.000Z</time>
        <extensions>
          <ns3:TrackPointExtension>
            <ns3:atemp>18.0</ns3:atemp>
          </ns3:TrackPointExtension>
        </extensions>
      </trkpt>
      <trkpt lat="42.55922994576394557952880859375" lon="20.05637012422084808349609375">
        <ele>2196.199951171875</ele>
        <time>2026-06-19T11:31:49.000Z</time>
        <extensions>
          <ns3:TrackPointExtension>
            <ns3:atemp>18.0</ns3:atemp>
          </ns3:TrackPointExtension>
        </extensions>
      </trkpt>
      <trkpt lat="42.55922994576394557952880859375" lon="20.05637012422084808349609375">
        <ele>2196.199951171875</ele>
        <time>2026-06-19T11:31:50.000Z</time>
        <extensions>
          <ns3:TrackPointExtension>
            <ns3:atemp>18.0</ns3:atemp>
          </ns3:TrackPointExtension>
        </extensions>
      </trkpt>
      <trkpt lat="42.55922994576394557952880859375" lon="20.05637012422084808349609375">
        <ele>2196.199951171875</ele>
        <time>2026-06-19T11:31:51.000Z</time>
        <extensions>
          <ns3:TrackPointExtension>
            <ns3:atemp>18.0</ns3:atemp>
          </ns3:TrackPointExtension>
        </extensions>
      </trkpt>
      <trkpt lat="42.55922994576394557952880859375" lon="20.05637012422084808349609375">
        <ele>2196.199951171875</ele>
        <time>2026-06-19T11:31:52.000Z</time>
        <extensions>
          <ns3:TrackPointExtension>
            <ns3:atemp>18.0</ns3:atemp>
          </ns3:TrackPointExtension>
        </extensions>
      </trkpt>
      <trkpt lat="42.55922994576394557952880859375" lon="20.05637012422084808349609375">
        <ele>2196.199951171875</ele>
        <time>2026-06-19T11:31:53.000Z</time>
        <extensions>
          <ns3:TrackPointExtension>
            <ns3:atemp>18.0</ns3:atemp>
          </ns3:TrackPointExtension>
        </extensions>
      </trkpt>
      <trkpt lat="42.55922994576394557952880859375" lon="20.05637012422084808349609375">
        <ele>2196.199951171875</ele>
        <time>2026-06-19T11:31:54.000Z</time>
        <extensions>
          <ns3:TrackPointExtension>
            <ns3:atemp>18.0</ns3:atemp>
          </ns3:TrackPointExtension>
        </extensions>
      </trkpt>
      <trkpt lat="42.55922994576394557952880859375" lon="20.05637012422084808349609375">
        <ele>2196.199951171875</ele>
        <time>2026-06-19T11:31:55.000Z</time>
        <extensions>
          <ns3:TrackPointExtension>
            <ns3:atemp>18.0</ns3:atemp>
          </ns3:TrackPointExtension>
        </extensions>
      </trkpt>
      <trkpt lat="42.55922994576394557952880859375" lon="20.05637012422084808349609375">
        <ele>2196.199951171875</ele>
        <time>2026-06-19T11:31:56.000Z</time>
        <extensions>
          <ns3:TrackPointExtension>
            <ns3:atemp>18.0</ns3:atemp>
          </ns3:TrackPointExtension>
        </extensions>
      </trkpt>
      <trkpt lat="42.55922994576394557952880859375" lon="20.05637012422084808349609375">
        <ele>2196.199951171875</ele>
        <time>2026-06-19T11:31:57.000Z</time>
        <extensions>
          <ns3:TrackPointExtension>
            <ns3:atemp>18.0</ns3:atemp>
          </ns3:TrackPointExtension>
        </extensions>
      </trkpt>
      <trkpt lat="42.55922994576394557952880859375" lon="20.05637012422084808349609375">
        <ele>2196.199951171875</ele>
        <time>2026-06-19T11:31:58.000Z</time>
        <extensions>
          <ns3:TrackPointExtension>
            <ns3:atemp>18.0</ns3:atemp>
          </ns3:TrackPointExtension>
        </extensions>
      </trkpt>
      <trkpt lat="42.55922994576394557952880859375" lon="20.05637012422084808349609375">
        <ele>2196.199951171875</ele>
        <time>2026-06-19T11:31:59.000Z</time>
        <extensions>
          <ns3:TrackPointExtension>
            <ns3:atemp>18.0</ns3:atemp>
          </ns3:TrackPointExtension>
        </extensions>
      </trkpt>
      <trkpt lat="42.55922994576394557952880859375" lon="20.05637012422084808349609375">
        <ele>2196.199951171875</ele>
        <time>2026-06-19T11:32:00.000Z</time>
        <extensions>
          <ns3:TrackPointExtension>
            <ns3:atemp>18.0</ns3:atemp>
          </ns3:TrackPointExtension>
        </extensions>
      </trkpt>
      <trkpt lat="42.55922994576394557952880859375" lon="20.05637012422084808349609375">
        <ele>2196.199951171875</ele>
        <time>2026-06-19T11:32:01.000Z</time>
        <extensions>
          <ns3:TrackPointExtension>
            <ns3:atemp>18.0</ns3:atemp>
          </ns3:TrackPointExtension>
        </extensions>
      </trkpt>
      <trkpt lat="42.55922994576394557952880859375" lon="20.05637012422084808349609375">
        <ele>2196.199951171875</ele>
        <time>2026-06-19T11:32:02.000Z</time>
        <extensions>
          <ns3:TrackPointExtension>
            <ns3:atemp>18.0</ns3:atemp>
          </ns3:TrackPointExtension>
        </extensions>
      </trkpt>
      <trkpt lat="42.55922994576394557952880859375" lon="20.05637012422084808349609375">
        <ele>2196.199951171875</ele>
        <time>2026-06-19T11:32:03.000Z</time>
        <extensions>
          <ns3:TrackPointExtension>
            <ns3:atemp>18.0</ns3:atemp>
          </ns3:TrackPointExtension>
        </extensions>
      </trkpt>
      <trkpt lat="42.55922994576394557952880859375" lon="20.05637012422084808349609375">
        <ele>2196.199951171875</ele>
        <time>2026-06-19T11:32:04.000Z</time>
        <extensions>
          <ns3:TrackPointExtension>
            <ns3:atemp>18.0</ns3:atemp>
          </ns3:TrackPointExtension>
        </extensions>
      </trkpt>
      <trkpt lat="42.55922994576394557952880859375" lon="20.05637012422084808349609375">
        <ele>2196.199951171875</ele>
        <time>2026-06-19T11:32:05.000Z</time>
        <extensions>
          <ns3:TrackPointExtension>
            <ns3:atemp>18.0</ns3:atemp>
          </ns3:TrackPointExtension>
        </extensions>
      </trkpt>
      <trkpt lat="42.55922994576394557952880859375" lon="20.05637012422084808349609375">
        <ele>2196.199951171875</ele>
        <time>2026-06-19T11:32:06.000Z</time>
        <extensions>
          <ns3:TrackPointExtension>
            <ns3:atemp>18.0</ns3:atemp>
          </ns3:TrackPointExtension>
        </extensions>
      </trkpt>
      <trkpt lat="42.55922994576394557952880859375" lon="20.05637012422084808349609375">
        <ele>2196.199951171875</ele>
        <time>2026-06-19T11:32:07.000Z</time>
        <extensions>
          <ns3:TrackPointExtension>
            <ns3:atemp>18.0</ns3:atemp>
          </ns3:TrackPointExtension>
        </extensions>
      </trkpt>
      <trkpt lat="42.55922994576394557952880859375" lon="20.05637012422084808349609375">
        <ele>2196.199951171875</ele>
        <time>2026-06-19T11:32:08.000Z</time>
        <extensions>
          <ns3:TrackPointExtension>
            <ns3:atemp>18.0</ns3:atemp>
          </ns3:TrackPointExtension>
        </extensions>
      </trkpt>
      <trkpt lat="42.55922994576394557952880859375" lon="20.05637012422084808349609375">
        <ele>2196.199951171875</ele>
        <time>2026-06-19T11:32:09.000Z</time>
        <extensions>
          <ns3:TrackPointExtension>
            <ns3:atemp>18.0</ns3:atemp>
          </ns3:TrackPointExtension>
        </extensions>
      </trkpt>
      <trkpt lat="42.55922994576394557952880859375" lon="20.05637012422084808349609375">
        <ele>2196.199951171875</ele>
        <time>2026-06-19T11:32:10.000Z</time>
        <extensions>
          <ns3:TrackPointExtension>
            <ns3:atemp>18.0</ns3:atemp>
          </ns3:TrackPointExtension>
        </extensions>
      </trkpt>
      <trkpt lat="42.55922994576394557952880859375" lon="20.05637012422084808349609375">
        <ele>2196.199951171875</ele>
        <time>2026-06-19T11:32:11.000Z</time>
        <extensions>
          <ns3:TrackPointExtension>
            <ns3:atemp>18.0</ns3:atemp>
          </ns3:TrackPointExtension>
        </extensions>
      </trkpt>
      <trkpt lat="42.55922994576394557952880859375" lon="20.05637012422084808349609375">
        <ele>2196.199951171875</ele>
        <time>2026-06-19T11:32:12.000Z</time>
        <extensions>
          <ns3:TrackPointExtension>
            <ns3:atemp>18.0</ns3:atemp>
          </ns3:TrackPointExtension>
        </extensions>
      </trkpt>
      <trkpt lat="42.55922994576394557952880859375" lon="20.05637012422084808349609375">
        <ele>2196.199951171875</ele>
        <time>2026-06-19T11:32:13.000Z</time>
        <extensions>
          <ns3:TrackPointExtension>
            <ns3:atemp>18.0</ns3:atemp>
          </ns3:TrackPointExtension>
        </extensions>
      </trkpt>
      <trkpt lat="42.55922994576394557952880859375" lon="20.05637012422084808349609375">
        <ele>2196.199951171875</ele>
        <time>2026-06-19T11:32:14.000Z</time>
        <extensions>
          <ns3:TrackPointExtension>
            <ns3:atemp>18.0</ns3:atemp>
          </ns3:TrackPointExtension>
        </extensions>
      </trkpt>
      <trkpt lat="42.55922994576394557952880859375" lon="20.05637012422084808349609375">
        <ele>2196.199951171875</ele>
        <time>2026-06-19T11:32:15.000Z</time>
        <extensions>
          <ns3:TrackPointExtension>
            <ns3:atemp>18.0</ns3:atemp>
          </ns3:TrackPointExtension>
        </extensions>
      </trkpt>
      <trkpt lat="42.55922994576394557952880859375" lon="20.05637012422084808349609375">
        <ele>2196.199951171875</ele>
        <time>2026-06-19T11:32:16.000Z</time>
        <extensions>
          <ns3:TrackPointExtension>
            <ns3:atemp>18.0</ns3:atemp>
          </ns3:TrackPointExtension>
        </extensions>
      </trkpt>
      <trkpt lat="42.55922994576394557952880859375" lon="20.05637012422084808349609375">
        <ele>2196.199951171875</ele>
        <time>2026-06-19T11:32:17.000Z</time>
        <extensions>
          <ns3:TrackPointExtension>
            <ns3:atemp>18.0</ns3:atemp>
          </ns3:TrackPointExtension>
        </extensions>
      </trkpt>
      <trkpt lat="42.55922994576394557952880859375" lon="20.05637012422084808349609375">
        <ele>2196.199951171875</ele>
        <time>2026-06-19T11:32:18.000Z</time>
        <extensions>
          <ns3:TrackPointExtension>
            <ns3:atemp>18.0</ns3:atemp>
          </ns3:TrackPointExtension>
        </extensions>
      </trkpt>
      <trkpt lat="42.55922994576394557952880859375" lon="20.05637012422084808349609375">
        <ele>2196.199951171875</ele>
        <time>2026-06-19T11:32:19.000Z</time>
        <extensions>
          <ns3:TrackPointExtension>
            <ns3:atemp>18.0</ns3:atemp>
          </ns3:TrackPointExtension>
        </extensions>
      </trkpt>
      <trkpt lat="42.55922994576394557952880859375" lon="20.05637012422084808349609375">
        <ele>2196.199951171875</ele>
        <time>2026-06-19T11:32:20.000Z</time>
        <extensions>
          <ns3:TrackPointExtension>
            <ns3:atemp>18.0</ns3:atemp>
          </ns3:TrackPointExtension>
        </extensions>
      </trkpt>
      <trkpt lat="42.55922994576394557952880859375" lon="20.05637012422084808349609375">
        <ele>2196.199951171875</ele>
        <time>2026-06-19T11:32:21.000Z</time>
        <extensions>
          <ns3:TrackPointExtension>
            <ns3:atemp>18.0</ns3:atemp>
          </ns3:TrackPointExtension>
        </extensions>
      </trkpt>
      <trkpt lat="42.55922994576394557952880859375" lon="20.05637012422084808349609375">
        <ele>2196.199951171875</ele>
        <time>2026-06-19T11:32:22.000Z</time>
        <extensions>
          <ns3:TrackPointExtension>
            <ns3:atemp>18.0</ns3:atemp>
          </ns3:TrackPointExtension>
        </extensions>
      </trkpt>
      <trkpt lat="42.55922994576394557952880859375" lon="20.05637012422084808349609375">
        <ele>2196.199951171875</ele>
        <time>2026-06-19T11:32:23.000Z</time>
        <extensions>
          <ns3:TrackPointExtension>
            <ns3:atemp>18.0</ns3:atemp>
          </ns3:TrackPointExtension>
        </extensions>
      </trkpt>
      <trkpt lat="42.55922994576394557952880859375" lon="20.05637012422084808349609375">
        <ele>2196.199951171875</ele>
        <time>2026-06-19T11:32:24.000Z</time>
        <extensions>
          <ns3:TrackPointExtension>
            <ns3:atemp>18.0</ns3:atemp>
          </ns3:TrackPointExtension>
        </extensions>
      </trkpt>
      <trkpt lat="42.55922994576394557952880859375" lon="20.05637012422084808349609375">
        <ele>2196.199951171875</ele>
        <time>2026-06-19T11:32:25.000Z</time>
        <extensions>
          <ns3:TrackPointExtension>
            <ns3:atemp>18.0</ns3:atemp>
          </ns3:TrackPointExtension>
        </extensions>
      </trkpt>
      <trkpt lat="42.55922994576394557952880859375" lon="20.05637012422084808349609375">
        <ele>2196.199951171875</ele>
        <time>2026-06-19T11:32:26.000Z</time>
        <extensions>
          <ns3:TrackPointExtension>
            <ns3:atemp>18.0</ns3:atemp>
          </ns3:TrackPointExtension>
        </extensions>
      </trkpt>
      <trkpt lat="42.55922994576394557952880859375" lon="20.05637012422084808349609375">
        <ele>2196.199951171875</ele>
        <time>2026-06-19T11:32:27.000Z</time>
        <extensions>
          <ns3:TrackPointExtension>
            <ns3:atemp>18.0</ns3:atemp>
          </ns3:TrackPointExtension>
        </extensions>
      </trkpt>
      <trkpt lat="42.55922994576394557952880859375" lon="20.05637012422084808349609375">
        <ele>2196.199951171875</ele>
        <time>2026-06-19T11:32:28.000Z</time>
        <extensions>
          <ns3:TrackPointExtension>
            <ns3:atemp>18.0</ns3:atemp>
          </ns3:TrackPointExtension>
        </extensions>
      </trkpt>
      <trkpt lat="42.55922994576394557952880859375" lon="20.05637012422084808349609375">
        <ele>2196.199951171875</ele>
        <time>2026-06-19T11:32:29.000Z</time>
        <extensions>
          <ns3:TrackPointExtension>
            <ns3:atemp>18.0</ns3:atemp>
          </ns3:TrackPointExtension>
        </extensions>
      </trkpt>
      <trkpt lat="42.55922994576394557952880859375" lon="20.05637012422084808349609375">
        <ele>2196.199951171875</ele>
        <time>2026-06-19T11:32:30.000Z</time>
        <extensions>
          <ns3:TrackPointExtension>
            <ns3:atemp>18.0</ns3:atemp>
          </ns3:TrackPointExtension>
        </extensions>
      </trkpt>
      <trkpt lat="42.55922994576394557952880859375" lon="20.05637012422084808349609375">
        <ele>2196.199951171875</ele>
        <time>2026-06-19T11:32:31.000Z</time>
        <extensions>
          <ns3:TrackPointExtension>
            <ns3:atemp>18.0</ns3:atemp>
          </ns3:TrackPointExtension>
        </extensions>
      </trkpt>
      <trkpt lat="42.55922994576394557952880859375" lon="20.05637012422084808349609375">
        <ele>2196.199951171875</ele>
        <time>2026-06-19T11:32:32.000Z</time>
        <extensions>
          <ns3:TrackPointExtension>
            <ns3:atemp>18.0</ns3:atemp>
          </ns3:TrackPointExtension>
        </extensions>
      </trkpt>
      <trkpt lat="42.55922994576394557952880859375" lon="20.05637012422084808349609375">
        <ele>2196.199951171875</ele>
        <time>2026-06-19T11:32:33.000Z</time>
        <extensions>
          <ns3:TrackPointExtension>
            <ns3:atemp>18.0</ns3:atemp>
          </ns3:TrackPointExtension>
        </extensions>
      </trkpt>
      <trkpt lat="42.55922994576394557952880859375" lon="20.05637012422084808349609375">
        <ele>2196.199951171875</ele>
        <time>2026-06-19T11:32:34.000Z</time>
        <extensions>
          <ns3:TrackPointExtension>
            <ns3:atemp>18.0</ns3:atemp>
          </ns3:TrackPointExtension>
        </extensions>
      </trkpt>
      <trkpt lat="42.55922994576394557952880859375" lon="20.05637012422084808349609375">
        <ele>2196.199951171875</ele>
        <time>2026-06-19T11:32:35.000Z</time>
        <extensions>
          <ns3:TrackPointExtension>
            <ns3:atemp>18.0</ns3:atemp>
          </ns3:TrackPointExtension>
        </extensions>
      </trkpt>
      <trkpt lat="42.55922994576394557952880859375" lon="20.05637012422084808349609375">
        <ele>2196.199951171875</ele>
        <time>2026-06-19T11:32:36.000Z</time>
        <extensions>
          <ns3:TrackPointExtension>
            <ns3:atemp>18.0</ns3:atemp>
          </ns3:TrackPointExtension>
        </extensions>
      </trkpt>
      <trkpt lat="42.55922994576394557952880859375" lon="20.05637012422084808349609375">
        <ele>2196.199951171875</ele>
        <time>2026-06-19T11:32:37.000Z</time>
        <extensions>
          <ns3:TrackPointExtension>
            <ns3:atemp>18.0</ns3:atemp>
          </ns3:TrackPointExtension>
        </extensions>
      </trkpt>
      <trkpt lat="42.55922994576394557952880859375" lon="20.05637012422084808349609375">
        <ele>2196.199951171875</ele>
        <time>2026-06-19T11:32:38.000Z</time>
        <extensions>
          <ns3:TrackPointExtension>
            <ns3:atemp>18.0</ns3:atemp>
          </ns3:TrackPointExtension>
        </extensions>
      </trkpt>
      <trkpt lat="42.55922994576394557952880859375" lon="20.05637012422084808349609375">
        <ele>2196.199951171875</ele>
        <time>2026-06-19T11:32:39.000Z</time>
        <extensions>
          <ns3:TrackPointExtension>
            <ns3:atemp>18.0</ns3:atemp>
          </ns3:TrackPointExtension>
        </extensions>
      </trkpt>
      <trkpt lat="42.55922994576394557952880859375" lon="20.05637012422084808349609375">
        <ele>2196.199951171875</ele>
        <time>2026-06-19T11:32:40.000Z</time>
        <extensions>
          <ns3:TrackPointExtension>
            <ns3:atemp>18.0</ns3:atemp>
          </ns3:TrackPointExtension>
        </extensions>
      </trkpt>
      <trkpt lat="42.55922994576394557952880859375" lon="20.05637012422084808349609375">
        <ele>2196.199951171875</ele>
        <time>2026-06-19T11:32:41.000Z</time>
        <extensions>
          <ns3:TrackPointExtension>
            <ns3:atemp>18.0</ns3:atemp>
          </ns3:TrackPointExtension>
        </extensions>
      </trkpt>
      <trkpt lat="42.55922994576394557952880859375" lon="20.05637012422084808349609375">
        <ele>2196.199951171875</ele>
        <time>2026-06-19T11:32:42.000Z</time>
        <extensions>
          <ns3:TrackPointExtension>
            <ns3:atemp>18.0</ns3:atemp>
          </ns3:TrackPointExtension>
        </extensions>
      </trkpt>
      <trkpt lat="42.55922994576394557952880859375" lon="20.05637012422084808349609375">
        <ele>2196.199951171875</ele>
        <time>2026-06-19T11:32:43.000Z</time>
        <extensions>
          <ns3:TrackPointExtension>
            <ns3:atemp>18.0</ns3:atemp>
          </ns3:TrackPointExtension>
        </extensions>
      </trkpt>
      <trkpt lat="42.55922994576394557952880859375" lon="20.05637012422084808349609375">
        <ele>2196.199951171875</ele>
        <time>2026-06-19T11:32:44.000Z</time>
        <extensions>
          <ns3:TrackPointExtension>
            <ns3:atemp>18.0</ns3:atemp>
          </ns3:TrackPointExtension>
        </extensions>
      </trkpt>
      <trkpt lat="42.55922994576394557952880859375" lon="20.05637012422084808349609375">
        <ele>2196.199951171875</ele>
        <time>2026-06-19T11:32:45.000Z</time>
        <extensions>
          <ns3:TrackPointExtension>
            <ns3:atemp>18.0</ns3:atemp>
          </ns3:TrackPointExtension>
        </extensions>
      </trkpt>
      <trkpt lat="42.55922994576394557952880859375" lon="20.05637012422084808349609375">
        <ele>2196.199951171875</ele>
        <time>2026-06-19T11:32:46.000Z</time>
        <extensions>
          <ns3:TrackPointExtension>
            <ns3:atemp>18.0</ns3:atemp>
          </ns3:TrackPointExtension>
        </extensions>
      </trkpt>
      <trkpt lat="42.55922994576394557952880859375" lon="20.05637012422084808349609375">
        <ele>2196.199951171875</ele>
        <time>2026-06-19T11:32:47.000Z</time>
        <extensions>
          <ns3:TrackPointExtension>
            <ns3:atemp>18.0</ns3:atemp>
          </ns3:TrackPointExtension>
        </extensions>
      </trkpt>
      <trkpt lat="42.55922994576394557952880859375" lon="20.05637012422084808349609375">
        <ele>2196.199951171875</ele>
        <time>2026-06-19T11:32:48.000Z</time>
        <extensions>
          <ns3:TrackPointExtension>
            <ns3:atemp>18.0</ns3:atemp>
          </ns3:TrackPointExtension>
        </extensions>
      </trkpt>
      <trkpt lat="42.55922994576394557952880859375" lon="20.05637012422084808349609375">
        <ele>2196.199951171875</ele>
        <time>2026-06-19T11:32:49.000Z</time>
        <extensions>
          <ns3:TrackPointExtension>
            <ns3:atemp>18.0</ns3:atemp>
          </ns3:TrackPointExtension>
        </extensions>
      </trkpt>
      <trkpt lat="42.55922994576394557952880859375" lon="20.05637012422084808349609375">
        <ele>2196.199951171875</ele>
        <time>2026-06-19T11:32:50.000Z</time>
        <extensions>
          <ns3:TrackPointExtension>
            <ns3:atemp>18.0</ns3:atemp>
          </ns3:TrackPointExtension>
        </extensions>
      </trkpt>
      <trkpt lat="42.55922994576394557952880859375" lon="20.05637012422084808349609375">
        <ele>2196.199951171875</ele>
        <time>2026-06-19T11:32:51.000Z</time>
        <extensions>
          <ns3:TrackPointExtension>
            <ns3:atemp>18.0</ns3:atemp>
          </ns3:TrackPointExtension>
        </extensions>
      </trkpt>
      <trkpt lat="42.55922994576394557952880859375" lon="20.05637012422084808349609375">
        <ele>2196.199951171875</ele>
        <time>2026-06-19T11:32:52.000Z</time>
        <extensions>
          <ns3:TrackPointExtension>
            <ns3:atemp>18.0</ns3:atemp>
          </ns3:TrackPointExtension>
        </extensions>
      </trkpt>
      <trkpt lat="42.55922994576394557952880859375" lon="20.05637012422084808349609375">
        <ele>2196.199951171875</ele>
        <time>2026-06-19T11:32:53.000Z</time>
        <extensions>
          <ns3:TrackPointExtension>
            <ns3:atemp>18.0</ns3:atemp>
          </ns3:TrackPointExtension>
        </extensions>
      </trkpt>
      <trkpt lat="42.55922994576394557952880859375" lon="20.05637012422084808349609375">
        <ele>2196.199951171875</ele>
        <time>2026-06-19T11:32:54.000Z</time>
        <extensions>
          <ns3:TrackPointExtension>
            <ns3:atemp>18.0</ns3:atemp>
          </ns3:TrackPointExtension>
        </extensions>
      </trkpt>
      <trkpt lat="42.55922994576394557952880859375" lon="20.05637012422084808349609375">
        <ele>2196.199951171875</ele>
        <time>2026-06-19T11:32:55.000Z</time>
        <extensions>
          <ns3:TrackPointExtension>
            <ns3:atemp>18.0</ns3:atemp>
          </ns3:TrackPointExtension>
        </extensions>
      </trkpt>
      <trkpt lat="42.55922994576394557952880859375" lon="20.05637012422084808349609375">
        <ele>2196.199951171875</ele>
        <time>2026-06-19T11:32:56.000Z</time>
        <extensions>
          <ns3:TrackPointExtension>
            <ns3:atemp>18.0</ns3:atemp>
          </ns3:TrackPointExtension>
        </extensions>
      </trkpt>
      <trkpt lat="42.55922994576394557952880859375" lon="20.05637012422084808349609375">
        <ele>2196.199951171875</ele>
        <time>2026-06-19T11:32:57.000Z</time>
        <extensions>
          <ns3:TrackPointExtension>
            <ns3:atemp>18.0</ns3:atemp>
          </ns3:TrackPointExtension>
        </extensions>
      </trkpt>
      <trkpt lat="42.55922994576394557952880859375" lon="20.05637012422084808349609375">
        <ele>2196.199951171875</ele>
        <time>2026-06-19T11:32:58.000Z</time>
        <extensions>
          <ns3:TrackPointExtension>
            <ns3:atemp>18.0</ns3:atemp>
          </ns3:TrackPointExtension>
        </extensions>
      </trkpt>
      <trkpt lat="42.55922994576394557952880859375" lon="20.05637012422084808349609375">
        <ele>2196.199951171875</ele>
        <time>2026-06-19T11:32:59.000Z</time>
        <extensions>
          <ns3:TrackPointExtension>
            <ns3:atemp>18.0</ns3:atemp>
          </ns3:TrackPointExtension>
        </extensions>
      </trkpt>
      <trkpt lat="42.55922994576394557952880859375" lon="20.05637012422084808349609375">
        <ele>2196.199951171875</ele>
        <time>2026-06-19T11:33:00.000Z</time>
        <extensions>
          <ns3:TrackPointExtension>
            <ns3:atemp>18.0</ns3:atemp>
          </ns3:TrackPointExtension>
        </extensions>
      </trkpt>
      <trkpt lat="42.55922994576394557952880859375" lon="20.05637012422084808349609375">
        <ele>2196.199951171875</ele>
        <time>2026-06-19T11:33:01.000Z</time>
        <extensions>
          <ns3:TrackPointExtension>
            <ns3:atemp>18.0</ns3:atemp>
          </ns3:TrackPointExtension>
        </extensions>
      </trkpt>
      <trkpt lat="42.55922994576394557952880859375" lon="20.05637012422084808349609375">
        <ele>2196.199951171875</ele>
        <time>2026-06-19T11:33:02.000Z</time>
        <extensions>
          <ns3:TrackPointExtension>
            <ns3:atemp>18.0</ns3:atemp>
          </ns3:TrackPointExtension>
        </extensions>
      </trkpt>
      <trkpt lat="42.55922994576394557952880859375" lon="20.05637012422084808349609375">
        <ele>2196.199951171875</ele>
        <time>2026-06-19T11:33:03.000Z</time>
        <extensions>
          <ns3:TrackPointExtension>
            <ns3:atemp>18.0</ns3:atemp>
          </ns3:TrackPointExtension>
        </extensions>
      </trkpt>
      <trkpt lat="42.55922994576394557952880859375" lon="20.05637012422084808349609375">
        <ele>2196.199951171875</ele>
        <time>2026-06-19T11:33:04.000Z</time>
        <extensions>
          <ns3:TrackPointExtension>
            <ns3:atemp>18.0</ns3:atemp>
          </ns3:TrackPointExtension>
        </extensions>
      </trkpt>
      <trkpt lat="42.55922994576394557952880859375" lon="20.05637012422084808349609375">
        <ele>2196.199951171875</ele>
        <time>2026-06-19T11:33:05.000Z</time>
        <extensions>
          <ns3:TrackPointExtension>
            <ns3:atemp>18.0</ns3:atemp>
          </ns3:TrackPointExtension>
        </extensions>
      </trkpt>
      <trkpt lat="42.55922994576394557952880859375" lon="20.05637012422084808349609375">
        <ele>2196.199951171875</ele>
        <time>2026-06-19T11:33:06.000Z</time>
        <extensions>
          <ns3:TrackPointExtension>
            <ns3:atemp>18.0</ns3:atemp>
          </ns3:TrackPointExtension>
        </extensions>
      </trkpt>
      <trkpt lat="42.55922994576394557952880859375" lon="20.05637012422084808349609375">
        <ele>2196.199951171875</ele>
        <time>2026-06-19T11:33:07.000Z</time>
        <extensions>
          <ns3:TrackPointExtension>
            <ns3:atemp>18.0</ns3:atemp>
          </ns3:TrackPointExtension>
        </extensions>
      </trkpt>
      <trkpt lat="42.55922994576394557952880859375" lon="20.05637012422084808349609375">
        <ele>2196.199951171875</ele>
        <time>2026-06-19T11:33:08.000Z</time>
        <extensions>
          <ns3:TrackPointExtension>
            <ns3:atemp>18.0</ns3:atemp>
          </ns3:TrackPointExtension>
        </extensions>
      </trkpt>
      <trkpt lat="42.55922994576394557952880859375" lon="20.05637012422084808349609375">
        <ele>2196.199951171875</ele>
        <time>2026-06-19T11:33:09.000Z</time>
        <extensions>
          <ns3:TrackPointExtension>
            <ns3:atemp>18.0</ns3:atemp>
          </ns3:TrackPointExtension>
        </extensions>
      </trkpt>
      <trkpt lat="42.55922994576394557952880859375" lon="20.05637012422084808349609375">
        <ele>2196.199951171875</ele>
        <time>2026-06-19T11:33:10.000Z</time>
        <extensions>
          <ns3:TrackPointExtension>
            <ns3:atemp>18.0</ns3:atemp>
          </ns3:TrackPointExtension>
        </extensions>
      </trkpt>
      <trkpt lat="42.55922994576394557952880859375" lon="20.05637012422084808349609375">
        <ele>2196.199951171875</ele>
        <time>2026-06-19T11:33:11.000Z</time>
        <extensions>
          <ns3:TrackPointExtension>
            <ns3:atemp>18.0</ns3:atemp>
          </ns3:TrackPointExtension>
        </extensions>
      </trkpt>
      <trkpt lat="42.55922994576394557952880859375" lon="20.05637012422084808349609375">
        <ele>2196.199951171875</ele>
        <time>2026-06-19T11:33:12.000Z</time>
        <extensions>
          <ns3:TrackPointExtension>
            <ns3:atemp>18.0</ns3:atemp>
          </ns3:TrackPointExtension>
        </extensions>
      </trkpt>
      <trkpt lat="42.55922994576394557952880859375" lon="20.05637012422084808349609375">
        <ele>2196.199951171875</ele>
        <time>2026-06-19T11:33:13.000Z</time>
        <extensions>
          <ns3:TrackPointExtension>
            <ns3:atemp>18.0</ns3:atemp>
          </ns3:TrackPointExtension>
        </extensions>
      </trkpt>
      <trkpt lat="42.55922994576394557952880859375" lon="20.05637012422084808349609375">
        <ele>2196.199951171875</ele>
        <time>2026-06-19T11:33:14.000Z</time>
        <extensions>
          <ns3:TrackPointExtension>
            <ns3:atemp>18.0</ns3:atemp>
          </ns3:TrackPointExtension>
        </extensions>
      </trkpt>
      <trkpt lat="42.55922994576394557952880859375" lon="20.05637012422084808349609375">
        <ele>2196.199951171875</ele>
        <time>2026-06-19T11:33:15.000Z</time>
        <extensions>
          <ns3:TrackPointExtension>
            <ns3:atemp>18.0</ns3:atemp>
          </ns3:TrackPointExtension>
        </extensions>
      </trkpt>
      <trkpt lat="42.55922994576394557952880859375" lon="20.05637012422084808349609375">
        <ele>2196.199951171875</ele>
        <time>2026-06-19T11:33:16.000Z</time>
        <extensions>
          <ns3:TrackPointExtension>
            <ns3:atemp>18.0</ns3:atemp>
          </ns3:TrackPointExtension>
        </extensions>
      </trkpt>
      <trkpt lat="42.55922994576394557952880859375" lon="20.05637012422084808349609375">
        <ele>2196.199951171875</ele>
        <time>2026-06-19T11:33:17.000Z</time>
        <extensions>
          <ns3:TrackPointExtension>
            <ns3:atemp>18.0</ns3:atemp>
          </ns3:TrackPointExtension>
        </extensions>
      </trkpt>
      <trkpt lat="42.55922994576394557952880859375" lon="20.05637012422084808349609375">
        <ele>2196.199951171875</ele>
        <time>2026-06-19T11:33:18.000Z</time>
        <extensions>
          <ns3:TrackPointExtension>
            <ns3:atemp>18.0</ns3:atemp>
          </ns3:TrackPointExtension>
        </extensions>
      </trkpt>
      <trkpt lat="42.55922994576394557952880859375" lon="20.05637012422084808349609375">
        <ele>2196.199951171875</ele>
        <time>2026-06-19T11:33:19.000Z</time>
        <extensions>
          <ns3:TrackPointExtension>
            <ns3:atemp>18.0</ns3:atemp>
          </ns3:TrackPointExtension>
        </extensions>
      </trkpt>
      <trkpt lat="42.55922994576394557952880859375" lon="20.05637012422084808349609375">
        <ele>2196.199951171875</ele>
        <time>2026-06-19T11:33:20.000Z</time>
        <extensions>
          <ns3:TrackPointExtension>
            <ns3:atemp>18.0</ns3:atemp>
          </ns3:TrackPointExtension>
        </extensions>
      </trkpt>
      <trkpt lat="42.55922994576394557952880859375" lon="20.05637012422084808349609375">
        <ele>2196.199951171875</ele>
        <time>2026-06-19T11:33:21.000Z</time>
        <extensions>
          <ns3:TrackPointExtension>
            <ns3:atemp>18.0</ns3:atemp>
          </ns3:TrackPointExtension>
        </extensions>
      </trkpt>
      <trkpt lat="42.55922994576394557952880859375" lon="20.05637012422084808349609375">
        <ele>2196.199951171875</ele>
        <time>2026-06-19T11:33:22.000Z</time>
        <extensions>
          <ns3:TrackPointExtension>
            <ns3:atemp>18.0</ns3:atemp>
          </ns3:TrackPointExtension>
        </extensions>
      </trkpt>
      <trkpt lat="42.55922994576394557952880859375" lon="20.05637012422084808349609375">
        <ele>2196.199951171875</ele>
        <time>2026-06-19T11:33:23.000Z</time>
        <extensions>
          <ns3:TrackPointExtension>
            <ns3:atemp>18.0</ns3:atemp>
          </ns3:TrackPointExtension>
        </extensions>
      </trkpt>
      <trkpt lat="42.55922994576394557952880859375" lon="20.05637012422084808349609375">
        <ele>2196.199951171875</ele>
        <time>2026-06-19T11:33:24.000Z</time>
        <extensions>
          <ns3:TrackPointExtension>
            <ns3:atemp>18.0</ns3:atemp>
          </ns3:TrackPointExtension>
        </extensions>
      </trkpt>
      <trkpt lat="42.55922994576394557952880859375" lon="20.05637012422084808349609375">
        <ele>2196.199951171875</ele>
        <time>2026-06-19T11:33:25.000Z</time>
        <extensions>
          <ns3:TrackPointExtension>
            <ns3:atemp>18.0</ns3:atemp>
          </ns3:TrackPointExtension>
        </extensions>
      </trkpt>
      <trkpt lat="42.55922994576394557952880859375" lon="20.05637012422084808349609375">
        <ele>2196.199951171875</ele>
        <time>2026-06-19T11:33:26.000Z</time>
        <extensions>
          <ns3:TrackPointExtension>
            <ns3:atemp>18.0</ns3:atemp>
          </ns3:TrackPointExtension>
        </extensions>
      </trkpt>
      <trkpt lat="42.55922994576394557952880859375" lon="20.05637012422084808349609375">
        <ele>2196.199951171875</ele>
        <time>2026-06-19T11:33:27.000Z</time>
        <extensions>
          <ns3:TrackPointExtension>
            <ns3:atemp>18.0</ns3:atemp>
          </ns3:TrackPointExtension>
        </extensions>
      </trkpt>
      <trkpt lat="42.55922994576394557952880859375" lon="20.05637012422084808349609375">
        <ele>2196.199951171875</ele>
        <time>2026-06-19T11:33:28.000Z</time>
        <extensions>
          <ns3:TrackPointExtension>
            <ns3:atemp>18.0</ns3:atemp>
          </ns3:TrackPointExtension>
        </extensions>
      </trkpt>
      <trkpt lat="42.55922994576394557952880859375" lon="20.05637012422084808349609375">
        <ele>2196.199951171875</ele>
        <time>2026-06-19T11:33:29.000Z</time>
        <extensions>
          <ns3:TrackPointExtension>
            <ns3:atemp>18.0</ns3:atemp>
          </ns3:TrackPointExtension>
        </extensions>
      </trkpt>
      <trkpt lat="42.55922994576394557952880859375" lon="20.05637012422084808349609375">
        <ele>2196.199951171875</ele>
        <time>2026-06-19T11:33:30.000Z</time>
        <extensions>
          <ns3:TrackPointExtension>
            <ns3:atemp>18.0</ns3:atemp>
          </ns3:TrackPointExtension>
        </extensions>
      </trkpt>
      <trkpt lat="42.55922994576394557952880859375" lon="20.05637012422084808349609375">
        <ele>2196.199951171875</ele>
        <time>2026-06-19T11:33:31.000Z</time>
        <extensions>
          <ns3:TrackPointExtension>
            <ns3:atemp>18.0</ns3:atemp>
          </ns3:TrackPointExtension>
        </extensions>
      </trkpt>
      <trkpt lat="42.55922994576394557952880859375" lon="20.05637012422084808349609375">
        <ele>2196.199951171875</ele>
        <time>2026-06-19T11:33:32.000Z</time>
        <extensions>
          <ns3:TrackPointExtension>
            <ns3:atemp>18.0</ns3:atemp>
          </ns3:TrackPointExtension>
        </extensions>
      </trkpt>
      <trkpt lat="42.55922994576394557952880859375" lon="20.05637012422084808349609375">
        <ele>2196.199951171875</ele>
        <time>2026-06-19T11:33:33.000Z</time>
        <extensions>
          <ns3:TrackPointExtension>
            <ns3:atemp>18.0</ns3:atemp>
          </ns3:TrackPointExtension>
        </extensions>
      </trkpt>
      <trkpt lat="42.55922994576394557952880859375" lon="20.05637012422084808349609375">
        <ele>2196.199951171875</ele>
        <time>2026-06-19T11:33:34.000Z</time>
        <extensions>
          <ns3:TrackPointExtension>
            <ns3:atemp>18.0</ns3:atemp>
          </ns3:TrackPointExtension>
        </extensions>
      </trkpt>
      <trkpt lat="42.55922994576394557952880859375" lon="20.05637012422084808349609375">
        <ele>2196.199951171875</ele>
        <time>2026-06-19T11:33:35.000Z</time>
        <extensions>
          <ns3:TrackPointExtension>
            <ns3:atemp>18.0</ns3:atemp>
          </ns3:TrackPointExtension>
        </extensions>
      </trkpt>
      <trkpt lat="42.55922994576394557952880859375" lon="20.05637012422084808349609375">
        <ele>2196.199951171875</ele>
        <time>2026-06-19T11:33:36.000Z</time>
        <extensions>
          <ns3:TrackPointExtension>
            <ns3:atemp>18.0</ns3:atemp>
          </ns3:TrackPointExtension>
        </extensions>
      </trkpt>
      <trkpt lat="42.55922994576394557952880859375" lon="20.05637012422084808349609375">
        <ele>2196.199951171875</ele>
        <time>2026-06-19T11:33:37.000Z</time>
        <extensions>
          <ns3:TrackPointExtension>
            <ns3:atemp>18.0</ns3:atemp>
          </ns3:TrackPointExtension>
        </extensions>
      </trkpt>
      <trkpt lat="42.55922994576394557952880859375" lon="20.05637012422084808349609375">
        <ele>2196.199951171875</ele>
        <time>2026-06-19T11:33:38.000Z</time>
        <extensions>
          <ns3:TrackPointExtension>
            <ns3:atemp>18.0</ns3:atemp>
          </ns3:TrackPointExtension>
        </extensions>
      </trkpt>
      <trkpt lat="42.55922994576394557952880859375" lon="20.05637012422084808349609375">
        <ele>2196.199951171875</ele>
        <time>2026-06-19T11:33:39.000Z</time>
        <extensions>
          <ns3:TrackPointExtension>
            <ns3:atemp>18.0</ns3:atemp>
          </ns3:TrackPointExtension>
        </extensions>
      </trkpt>
      <trkpt lat="42.55922994576394557952880859375" lon="20.05637012422084808349609375">
        <ele>2196.199951171875</ele>
        <time>2026-06-19T11:33:40.000Z</time>
        <extensions>
          <ns3:TrackPointExtension>
            <ns3:atemp>18.0</ns3:atemp>
          </ns3:TrackPointExtension>
        </extensions>
      </trkpt>
      <trkpt lat="42.55922994576394557952880859375" lon="20.05637012422084808349609375">
        <ele>2196.199951171875</ele>
        <time>2026-06-19T11:33:41.000Z</time>
        <extensions>
          <ns3:TrackPointExtension>
            <ns3:atemp>18.0</ns3:atemp>
          </ns3:TrackPointExtension>
        </extensions>
      </trkpt>
      <trkpt lat="42.55922994576394557952880859375" lon="20.05637012422084808349609375">
        <ele>2196.199951171875</ele>
        <time>2026-06-19T11:33:42.000Z</time>
        <extensions>
          <ns3:TrackPointExtension>
            <ns3:atemp>18.0</ns3:atemp>
          </ns3:TrackPointExtension>
        </extensions>
      </trkpt>
      <trkpt lat="42.55922994576394557952880859375" lon="20.05637012422084808349609375">
        <ele>2196.199951171875</ele>
        <time>2026-06-19T11:33:43.000Z</time>
        <extensions>
          <ns3:TrackPointExtension>
            <ns3:atemp>18.0</ns3:atemp>
          </ns3:TrackPointExtension>
        </extensions>
      </trkpt>
      <trkpt lat="42.55922994576394557952880859375" lon="20.05637012422084808349609375">
        <ele>2196.199951171875</ele>
        <time>2026-06-19T11:33:44.000Z</time>
        <extensions>
          <ns3:TrackPointExtension>
            <ns3:atemp>18.0</ns3:atemp>
          </ns3:TrackPointExtension>
        </extensions>
      </trkpt>
      <trkpt lat="42.55922994576394557952880859375" lon="20.05637012422084808349609375">
        <ele>2196.199951171875</ele>
        <time>2026-06-19T11:33:45.000Z</time>
        <extensions>
          <ns3:TrackPointExtension>
            <ns3:atemp>18.0</ns3:atemp>
          </ns3:TrackPointExtension>
        </extensions>
      </trkpt>
      <trkpt lat="42.55922994576394557952880859375" lon="20.05637012422084808349609375">
        <ele>2196.199951171875</ele>
        <time>2026-06-19T11:33:46.000Z</time>
        <extensions>
          <ns3:TrackPointExtension>
            <ns3:atemp>18.0</ns3:atemp>
          </ns3:TrackPointExtension>
        </extensions>
      </trkpt>
      <trkpt lat="42.55922994576394557952880859375" lon="20.05637012422084808349609375">
        <ele>2196.199951171875</ele>
        <time>2026-06-19T11:33:47.000Z</time>
        <extensions>
          <ns3:TrackPointExtension>
            <ns3:atemp>18.0</ns3:atemp>
          </ns3:TrackPointExtension>
        </extensions>
      </trkpt>
      <trkpt lat="42.55922994576394557952880859375" lon="20.05637012422084808349609375">
        <ele>2196.199951171875</ele>
        <time>2026-06-19T11:33:48.000Z</time>
        <extensions>
          <ns3:TrackPointExtension>
            <ns3:atemp>18.0</ns3:atemp>
          </ns3:TrackPointExtension>
        </extensions>
      </trkpt>
      <trkpt lat="42.55922994576394557952880859375" lon="20.05637012422084808349609375">
        <ele>2196.199951171875</ele>
        <time>2026-06-19T11:33:49.000Z</time>
        <extensions>
          <ns3:TrackPointExtension>
            <ns3:atemp>18.0</ns3:atemp>
          </ns3:TrackPointExtension>
        </extensions>
      </trkpt>
      <trkpt lat="42.55922994576394557952880859375" lon="20.05637012422084808349609375">
        <ele>2196.199951171875</ele>
        <time>2026-06-19T11:33:50.000Z</time>
        <extensions>
          <ns3:TrackPointExtension>
            <ns3:atemp>18.0</ns3:atemp>
          </ns3:TrackPointExtension>
        </extensions>
      </trkpt>
      <trkpt lat="42.55922994576394557952880859375" lon="20.05637012422084808349609375">
        <ele>2196.199951171875</ele>
        <time>2026-06-19T11:33:51.000Z</time>
        <extensions>
          <ns3:TrackPointExtension>
            <ns3:atemp>18.0</ns3:atemp>
          </ns3:TrackPointExtension>
        </extensions>
      </trkpt>
      <trkpt lat="42.55922994576394557952880859375" lon="20.05637012422084808349609375">
        <ele>2196.199951171875</ele>
        <time>2026-06-19T11:33:52.000Z</time>
        <extensions>
          <ns3:TrackPointExtension>
            <ns3:atemp>18.0</ns3:atemp>
          </ns3:TrackPointExtension>
        </extensions>
      </trkpt>
      <trkpt lat="42.55922994576394557952880859375" lon="20.05637012422084808349609375">
        <ele>2196.199951171875</ele>
        <time>2026-06-19T11:33:53.000Z</time>
        <extensions>
          <ns3:TrackPointExtension>
            <ns3:atemp>18.0</ns3:atemp>
          </ns3:TrackPointExtension>
        </extensions>
      </trkpt>
      <trkpt lat="42.55922994576394557952880859375" lon="20.05637012422084808349609375">
        <ele>2196.199951171875</ele>
        <time>2026-06-19T11:33:54.000Z</time>
        <extensions>
          <ns3:TrackPointExtension>
            <ns3:atemp>18.0</ns3:atemp>
          </ns3:TrackPointExtension>
        </extensions>
      </trkpt>
      <trkpt lat="42.55922994576394557952880859375" lon="20.05637012422084808349609375">
        <ele>2196.199951171875</ele>
        <time>2026-06-19T11:33:55.000Z</time>
        <extensions>
          <ns3:TrackPointExtension>
            <ns3:atemp>18.0</ns3:atemp>
          </ns3:TrackPointExtension>
        </extensions>
      </trkpt>
      <trkpt lat="42.55922994576394557952880859375" lon="20.05637012422084808349609375">
        <ele>2196.199951171875</ele>
        <time>2026-06-19T11:33:56.000Z</time>
        <extensions>
          <ns3:TrackPointExtension>
            <ns3:atemp>18.0</ns3:atemp>
          </ns3:TrackPointExtension>
        </extensions>
      </trkpt>
      <trkpt lat="42.55922994576394557952880859375" lon="20.05637012422084808349609375">
        <ele>2196.199951171875</ele>
        <time>2026-06-19T11:33:57.000Z</time>
        <extensions>
          <ns3:TrackPointExtension>
            <ns3:atemp>18.0</ns3:atemp>
          </ns3:TrackPointExtension>
        </extensions>
      </trkpt>
      <trkpt lat="42.55922994576394557952880859375" lon="20.05637012422084808349609375">
        <ele>2196.199951171875</ele>
        <time>2026-06-19T11:33:58.000Z</time>
        <extensions>
          <ns3:TrackPointExtension>
            <ns3:atemp>18.0</ns3:atemp>
          </ns3:TrackPointExtension>
        </extensions>
      </trkpt>
      <trkpt lat="42.55922994576394557952880859375" lon="20.05637012422084808349609375">
        <ele>2196.199951171875</ele>
        <time>2026-06-19T11:33:59.000Z</time>
        <extensions>
          <ns3:TrackPointExtension>
            <ns3:atemp>18.0</ns3:atemp>
          </ns3:TrackPointExtension>
        </extensions>
      </trkpt>
      <trkpt lat="42.55922994576394557952880859375" lon="20.05637012422084808349609375">
        <ele>2196.199951171875</ele>
        <time>2026-06-19T11:34:00.000Z</time>
        <extensions>
          <ns3:TrackPointExtension>
            <ns3:atemp>18.0</ns3:atemp>
          </ns3:TrackPointExtension>
        </extensions>
      </trkpt>
      <trkpt lat="42.55922994576394557952880859375" lon="20.05637012422084808349609375">
        <ele>2196.199951171875</ele>
        <time>2026-06-19T11:34:01.000Z</time>
        <extensions>
          <ns3:TrackPointExtension>
            <ns3:atemp>18.0</ns3:atemp>
          </ns3:TrackPointExtension>
        </extensions>
      </trkpt>
      <trkpt lat="42.55922994576394557952880859375" lon="20.05637012422084808349609375">
        <ele>2196.199951171875</ele>
        <time>2026-06-19T11:34:02.000Z</time>
        <extensions>
          <ns3:TrackPointExtension>
            <ns3:atemp>18.0</ns3:atemp>
          </ns3:TrackPointExtension>
        </extensions>
      </trkpt>
      <trkpt lat="42.55922994576394557952880859375" lon="20.05637012422084808349609375">
        <ele>2196.199951171875</ele>
        <time>2026-06-19T11:34:03.000Z</time>
        <extensions>
          <ns3:TrackPointExtension>
            <ns3:atemp>18.0</ns3:atemp>
          </ns3:TrackPointExtension>
        </extensions>
      </trkpt>
      <trkpt lat="42.55922994576394557952880859375" lon="20.05637012422084808349609375">
        <ele>2196.199951171875</ele>
        <time>2026-06-19T11:34:04.000Z</time>
        <extensions>
          <ns3:TrackPointExtension>
            <ns3:atemp>18.0</ns3:atemp>
          </ns3:TrackPointExtension>
        </extensions>
      </trkpt>
      <trkpt lat="42.55922994576394557952880859375" lon="20.05637012422084808349609375">
        <ele>2196.199951171875</ele>
        <time>2026-06-19T11:34:05.000Z</time>
        <extensions>
          <ns3:TrackPointExtension>
            <ns3:atemp>18.0</ns3:atemp>
          </ns3:TrackPointExtension>
        </extensions>
      </trkpt>
      <trkpt lat="42.55922994576394557952880859375" lon="20.05637012422084808349609375">
        <ele>2196.199951171875</ele>
        <time>2026-06-19T11:34:06.000Z</time>
        <extensions>
          <ns3:TrackPointExtension>
            <ns3:atemp>18.0</ns3:atemp>
          </ns3:TrackPointExtension>
        </extensions>
      </trkpt>
      <trkpt lat="42.55922994576394557952880859375" lon="20.05637012422084808349609375">
        <ele>2196.199951171875</ele>
        <time>2026-06-19T11:34:07.000Z</time>
        <extensions>
          <ns3:TrackPointExtension>
            <ns3:atemp>18.0</ns3:atemp>
          </ns3:TrackPointExtension>
        </extensions>
      </trkpt>
      <trkpt lat="42.55922994576394557952880859375" lon="20.05637012422084808349609375">
        <ele>2196.199951171875</ele>
        <time>2026-06-19T11:34:08.000Z</time>
        <extensions>
          <ns3:TrackPointExtension>
            <ns3:atemp>18.0</ns3:atemp>
          </ns3:TrackPointExtension>
        </extensions>
      </trkpt>
      <trkpt lat="42.55922994576394557952880859375" lon="20.05637012422084808349609375">
        <ele>2196.199951171875</ele>
        <time>2026-06-19T11:34:09.000Z</time>
        <extensions>
          <ns3:TrackPointExtension>
            <ns3:atemp>18.0</ns3:atemp>
          </ns3:TrackPointExtension>
        </extensions>
      </trkpt>
      <trkpt lat="42.55922994576394557952880859375" lon="20.05637012422084808349609375">
        <ele>2196.199951171875</ele>
        <time>2026-06-19T11:34:10.000Z</time>
        <extensions>
          <ns3:TrackPointExtension>
            <ns3:atemp>18.0</ns3:atemp>
          </ns3:TrackPointExtension>
        </extensions>
      </trkpt>
      <trkpt lat="42.55922994576394557952880859375" lon="20.05637012422084808349609375">
        <ele>2196.199951171875</ele>
        <time>2026-06-19T11:34:11.000Z</time>
        <extensions>
          <ns3:TrackPointExtension>
            <ns3:atemp>18.0</ns3:atemp>
          </ns3:TrackPointExtension>
        </extensions>
      </trkpt>
      <trkpt lat="42.55922994576394557952880859375" lon="20.05637012422084808349609375">
        <ele>2196.199951171875</ele>
        <time>2026-06-19T11:34:12.000Z</time>
        <extensions>
          <ns3:TrackPointExtension>
            <ns3:atemp>18.0</ns3:atemp>
          </ns3:TrackPointExtension>
        </extensions>
      </trkpt>
      <trkpt lat="42.55922994576394557952880859375" lon="20.05637012422084808349609375">
        <ele>2196.199951171875</ele>
        <time>2026-06-19T11:34:13.000Z</time>
        <extensions>
          <ns3:TrackPointExtension>
            <ns3:atemp>18.0</ns3:atemp>
          </ns3:TrackPointExtension>
        </extensions>
      </trkpt>
      <trkpt lat="42.55922994576394557952880859375" lon="20.05637012422084808349609375">
        <ele>2196.199951171875</ele>
        <time>2026-06-19T11:34:14.000Z</time>
        <extensions>
          <ns3:TrackPointExtension>
            <ns3:atemp>18.0</ns3:atemp>
          </ns3:TrackPointExtension>
        </extensions>
      </trkpt>
      <trkpt lat="42.55922994576394557952880859375" lon="20.05637012422084808349609375">
        <ele>2196.199951171875</ele>
        <time>2026-06-19T11:34:15.000Z</time>
        <extensions>
          <ns3:TrackPointExtension>
            <ns3:atemp>18.0</ns3:atemp>
          </ns3:TrackPointExtension>
        </extensions>
      </trkpt>
      <trkpt lat="42.55922994576394557952880859375" lon="20.05637012422084808349609375">
        <ele>2196.199951171875</ele>
        <time>2026-06-19T11:34:16.000Z</time>
        <extensions>
          <ns3:TrackPointExtension>
            <ns3:atemp>18.0</ns3:atemp>
          </ns3:TrackPointExtension>
        </extensions>
      </trkpt>
      <trkpt lat="42.55922994576394557952880859375" lon="20.05637012422084808349609375">
        <ele>2196.199951171875</ele>
        <time>2026-06-19T11:34:17.000Z</time>
        <extensions>
          <ns3:TrackPointExtension>
            <ns3:atemp>18.0</ns3:atemp>
          </ns3:TrackPointExtension>
        </extensions>
      </trkpt>
      <trkpt lat="42.55922994576394557952880859375" lon="20.05637012422084808349609375">
        <ele>2196.199951171875</ele>
        <time>2026-06-19T11:34:18.000Z</time>
        <extensions>
          <ns3:TrackPointExtension>
            <ns3:atemp>18.0</ns3:atemp>
          </ns3:TrackPointExtension>
        </extensions>
      </trkpt>
      <trkpt lat="42.55922994576394557952880859375" lon="20.05637012422084808349609375">
        <ele>2196.199951171875</ele>
        <time>2026-06-19T11:34:19.000Z</time>
        <extensions>
          <ns3:TrackPointExtension>
            <ns3:atemp>18.0</ns3:atemp>
          </ns3:TrackPointExtension>
        </extensions>
      </trkpt>
      <trkpt lat="42.55922994576394557952880859375" lon="20.05637012422084808349609375">
        <ele>2196.199951171875</ele>
        <time>2026-06-19T11:34:20.000Z</time>
        <extensions>
          <ns3:TrackPointExtension>
            <ns3:atemp>18.0</ns3:atemp>
          </ns3:TrackPointExtension>
        </extensions>
      </trkpt>
      <trkpt lat="42.55922994576394557952880859375" lon="20.05637012422084808349609375">
        <ele>2196.199951171875</ele>
        <time>2026-06-19T11:34:21.000Z</time>
        <extensions>
          <ns3:TrackPointExtension>
            <ns3:atemp>18.0</ns3:atemp>
          </ns3:TrackPointExtension>
        </extensions>
      </trkpt>
      <trkpt lat="42.55922994576394557952880859375" lon="20.05637012422084808349609375">
        <ele>2196.199951171875</ele>
        <time>2026-06-19T11:34:22.000Z</time>
        <extensions>
          <ns3:TrackPointExtension>
            <ns3:atemp>18.0</ns3:atemp>
          </ns3:TrackPointExtension>
        </extensions>
      </trkpt>
      <trkpt lat="42.55922994576394557952880859375" lon="20.05637012422084808349609375">
        <ele>2196.199951171875</ele>
        <time>2026-06-19T11:34:23.000Z</time>
        <extensions>
          <ns3:TrackPointExtension>
            <ns3:atemp>18.0</ns3:atemp>
          </ns3:TrackPointExtension>
        </extensions>
      </trkpt>
      <trkpt lat="42.55922994576394557952880859375" lon="20.05637012422084808349609375">
        <ele>2196.199951171875</ele>
        <time>2026-06-19T11:34:24.000Z</time>
        <extensions>
          <ns3:TrackPointExtension>
            <ns3:atemp>18.0</ns3:atemp>
          </ns3:TrackPointExtension>
        </extensions>
      </trkpt>
      <trkpt lat="42.55922994576394557952880859375" lon="20.05637012422084808349609375">
        <ele>2196.199951171875</ele>
        <time>2026-06-19T11:34:25.000Z</time>
        <extensions>
          <ns3:TrackPointExtension>
            <ns3:atemp>18.0</ns3:atemp>
          </ns3:TrackPointExtension>
        </extensions>
      </trkpt>
      <trkpt lat="42.55922994576394557952880859375" lon="20.05637012422084808349609375">
        <ele>2196.199951171875</ele>
        <time>2026-06-19T11:34:26.000Z</time>
        <extensions>
          <ns3:TrackPointExtension>
            <ns3:atemp>18.0</ns3:atemp>
          </ns3:TrackPointExtension>
        </extensions>
      </trkpt>
      <trkpt lat="42.55922994576394557952880859375" lon="20.05637012422084808349609375">
        <ele>2196.199951171875</ele>
        <time>2026-06-19T11:34:27.000Z</time>
        <extensions>
          <ns3:TrackPointExtension>
            <ns3:atemp>18.0</ns3:atemp>
          </ns3:TrackPointExtension>
        </extensions>
      </trkpt>
      <trkpt lat="42.55922994576394557952880859375" lon="20.05637012422084808349609375">
        <ele>2196.199951171875</ele>
        <time>2026-06-19T11:34:28.000Z</time>
        <extensions>
          <ns3:TrackPointExtension>
            <ns3:atemp>18.0</ns3:atemp>
          </ns3:TrackPointExtension>
        </extensions>
      </trkpt>
      <trkpt lat="42.55922994576394557952880859375" lon="20.05637012422084808349609375">
        <ele>2196.199951171875</ele>
        <time>2026-06-19T11:34:29.000Z</time>
        <extensions>
          <ns3:TrackPointExtension>
            <ns3:atemp>18.0</ns3:atemp>
          </ns3:TrackPointExtension>
        </extensions>
      </trkpt>
      <trkpt lat="42.55922994576394557952880859375" lon="20.05637012422084808349609375">
        <ele>2196.199951171875</ele>
        <time>2026-06-19T11:34:30.000Z</time>
        <extensions>
          <ns3:TrackPointExtension>
            <ns3:atemp>18.0</ns3:atemp>
          </ns3:TrackPointExtension>
        </extensions>
      </trkpt>
      <trkpt lat="42.55922994576394557952880859375" lon="20.05637012422084808349609375">
        <ele>2196.199951171875</ele>
        <time>2026-06-19T11:34:31.000Z</time>
        <extensions>
          <ns3:TrackPointExtension>
            <ns3:atemp>18.0</ns3:atemp>
          </ns3:TrackPointExtension>
        </extensions>
      </trkpt>
      <trkpt lat="42.55922994576394557952880859375" lon="20.05637012422084808349609375">
        <ele>2196.199951171875</ele>
        <time>2026-06-19T11:34:32.000Z</time>
        <extensions>
          <ns3:TrackPointExtension>
            <ns3:atemp>18.0</ns3:atemp>
          </ns3:TrackPointExtension>
        </extensions>
      </trkpt>
      <trkpt lat="42.55922994576394557952880859375" lon="20.05637012422084808349609375">
        <ele>2196.199951171875</ele>
        <time>2026-06-19T11:34:33.000Z</time>
        <extensions>
          <ns3:TrackPointExtension>
            <ns3:atemp>18.0</ns3:atemp>
          </ns3:TrackPointExtension>
        </extensions>
      </trkpt>
      <trkpt lat="42.55922994576394557952880859375" lon="20.05637012422084808349609375">
        <ele>2196.199951171875</ele>
        <time>2026-06-19T11:34:34.000Z</time>
        <extensions>
          <ns3:TrackPointExtension>
            <ns3:atemp>18.0</ns3:atemp>
          </ns3:TrackPointExtension>
        </extensions>
      </trkpt>
      <trkpt lat="42.55922994576394557952880859375" lon="20.05637012422084808349609375">
        <ele>2196.199951171875</ele>
        <time>2026-06-19T11:34:35.000Z</time>
        <extensions>
          <ns3:TrackPointExtension>
            <ns3:atemp>18.0</ns3:atemp>
          </ns3:TrackPointExtension>
        </extensions>
      </trkpt>
      <trkpt lat="42.55922994576394557952880859375" lon="20.05637012422084808349609375">
        <ele>2196.199951171875</ele>
        <time>2026-06-19T11:34:36.000Z</time>
        <extensions>
          <ns3:TrackPointExtension>
            <ns3:atemp>18.0</ns3:atemp>
          </ns3:TrackPointExtension>
        </extensions>
      </trkpt>
      <trkpt lat="42.55922994576394557952880859375" lon="20.05637012422084808349609375">
        <ele>2196.199951171875</ele>
        <time>2026-06-19T11:34:37.000Z</time>
        <extensions>
          <ns3:TrackPointExtension>
            <ns3:atemp>18.0</ns3:atemp>
          </ns3:TrackPointExtension>
        </extensions>
      </trkpt>
      <trkpt lat="42.55922994576394557952880859375" lon="20.05637012422084808349609375">
        <ele>2196.199951171875</ele>
        <time>2026-06-19T11:34:38.000Z</time>
        <extensions>
          <ns3:TrackPointExtension>
            <ns3:atemp>18.0</ns3:atemp>
          </ns3:TrackPointExtension>
        </extensions>
      </trkpt>
      <trkpt lat="42.55922994576394557952880859375" lon="20.05637012422084808349609375">
        <ele>2196.199951171875</ele>
        <time>2026-06-19T11:34:39.000Z</time>
        <extensions>
          <ns3:TrackPointExtension>
            <ns3:atemp>18.0</ns3:atemp>
          </ns3:TrackPointExtension>
        </extensions>
      </trkpt>
      <trkpt lat="42.55922994576394557952880859375" lon="20.05637012422084808349609375">
        <ele>2196.199951171875</ele>
        <time>2026-06-19T11:34:40.000Z</time>
        <extensions>
          <ns3:TrackPointExtension>
            <ns3:atemp>18.0</ns3:atemp>
          </ns3:TrackPointExtension>
        </extensions>
      </trkpt>
      <trkpt lat="42.55922994576394557952880859375" lon="20.05637012422084808349609375">
        <ele>2196.199951171875</ele>
        <time>2026-06-19T11:34:41.000Z</time>
        <extensions>
          <ns3:TrackPointExtension>
            <ns3:atemp>18.0</ns3:atemp>
          </ns3:TrackPointExtension>
        </extensions>
      </trkpt>
      <trkpt lat="42.55922994576394557952880859375" lon="20.05637012422084808349609375">
        <ele>2196.199951171875</ele>
        <time>2026-06-19T11:34:42.000Z</time>
        <extensions>
          <ns3:TrackPointExtension>
            <ns3:atemp>18.0</ns3:atemp>
          </ns3:TrackPointExtension>
        </extensions>
      </trkpt>
      <trkpt lat="42.55922994576394557952880859375" lon="20.05637012422084808349609375">
        <ele>2196.199951171875</ele>
        <time>2026-06-19T11:34:43.000Z</time>
        <extensions>
          <ns3:TrackPointExtension>
            <ns3:atemp>18.0</ns3:atemp>
          </ns3:TrackPointExtension>
        </extensions>
      </trkpt>
      <trkpt lat="42.55922994576394557952880859375" lon="20.05637012422084808349609375">
        <ele>2196.199951171875</ele>
        <time>2026-06-19T11:34:44.000Z</time>
        <extensions>
          <ns3:TrackPointExtension>
            <ns3:atemp>18.0</ns3:atemp>
          </ns3:TrackPointExtension>
        </extensions>
      </trkpt>
      <trkpt lat="42.55922994576394557952880859375" lon="20.05637012422084808349609375">
        <ele>2196.199951171875</ele>
        <time>2026-06-19T11:34:45.000Z</time>
        <extensions>
          <ns3:TrackPointExtension>
            <ns3:atemp>18.0</ns3:atemp>
          </ns3:TrackPointExtension>
        </extensions>
      </trkpt>
      <trkpt lat="42.55922994576394557952880859375" lon="20.05637012422084808349609375">
        <ele>2196.199951171875</ele>
        <time>2026-06-19T11:34:46.000Z</time>
        <extensions>
          <ns3:TrackPointExtension>
            <ns3:atemp>18.0</ns3:atemp>
          </ns3:TrackPointExtension>
        </extensions>
      </trkpt>
      <trkpt lat="42.55922994576394557952880859375" lon="20.05637012422084808349609375">
        <ele>2196.199951171875</ele>
        <time>2026-06-19T11:34:47.000Z</time>
        <extensions>
          <ns3:TrackPointExtension>
            <ns3:atemp>18.0</ns3:atemp>
          </ns3:TrackPointExtension>
        </extensions>
      </trkpt>
      <trkpt lat="42.55922994576394557952880859375" lon="20.05637012422084808349609375">
        <ele>2196.199951171875</ele>
        <time>2026-06-19T11:34:48.000Z</time>
        <extensions>
          <ns3:TrackPointExtension>
            <ns3:atemp>18.0</ns3:atemp>
          </ns3:TrackPointExtension>
        </extensions>
      </trkpt>
      <trkpt lat="42.55922994576394557952880859375" lon="20.05637012422084808349609375">
        <ele>2196.199951171875</ele>
        <time>2026-06-19T11:34:49.000Z</time>
        <extensions>
          <ns3:TrackPointExtension>
            <ns3:atemp>18.0</ns3:atemp>
          </ns3:TrackPointExtension>
        </extensions>
      </trkpt>
      <trkpt lat="42.55922994576394557952880859375" lon="20.05637012422084808349609375">
        <ele>2196.199951171875</ele>
        <time>2026-06-19T11:34:50.000Z</time>
        <extensions>
          <ns3:TrackPointExtension>
            <ns3:atemp>18.0</ns3:atemp>
          </ns3:TrackPointExtension>
        </extensions>
      </trkpt>
      <trkpt lat="42.55922994576394557952880859375" lon="20.05637012422084808349609375">
        <ele>2196.199951171875</ele>
        <time>2026-06-19T11:34:51.000Z</time>
        <extensions>
          <ns3:TrackPointExtension>
            <ns3:atemp>18.0</ns3:atemp>
          </ns3:TrackPointExtension>
        </extensions>
      </trkpt>
      <trkpt lat="42.55922994576394557952880859375" lon="20.05637012422084808349609375">
        <ele>2196.199951171875</ele>
        <time>2026-06-19T11:34:52.000Z</time>
        <extensions>
          <ns3:TrackPointExtension>
            <ns3:atemp>18.0</ns3:atemp>
          </ns3:TrackPointExtension>
        </extensions>
      </trkpt>
      <trkpt lat="42.55922994576394557952880859375" lon="20.05637012422084808349609375">
        <ele>2196.199951171875</ele>
        <time>2026-06-19T11:34:53.000Z</time>
        <extensions>
          <ns3:TrackPointExtension>
            <ns3:atemp>18.0</ns3:atemp>
          </ns3:TrackPointExtension>
        </extensions>
      </trkpt>
      <trkpt lat="42.55922994576394557952880859375" lon="20.05637012422084808349609375">
        <ele>2196.199951171875</ele>
        <time>2026-06-19T11:34:54.000Z</time>
        <extensions>
          <ns3:TrackPointExtension>
            <ns3:atemp>18.0</ns3:atemp>
          </ns3:TrackPointExtension>
        </extensions>
      </trkpt>
      <trkpt lat="42.55922994576394557952880859375" lon="20.05637012422084808349609375">
        <ele>2196.199951171875</ele>
        <time>2026-06-19T11:34:55.000Z</time>
        <extensions>
          <ns3:TrackPointExtension>
            <ns3:atemp>18.0</ns3:atemp>
          </ns3:TrackPointExtension>
        </extensions>
      </trkpt>
      <trkpt lat="42.55922994576394557952880859375" lon="20.05637012422084808349609375">
        <ele>2196.199951171875</ele>
        <time>2026-06-19T11:34:56.000Z</time>
        <extensions>
          <ns3:TrackPointExtension>
            <ns3:atemp>18.0</ns3:atemp>
          </ns3:TrackPointExtension>
        </extensions>
      </trkpt>
      <trkpt lat="42.55922994576394557952880859375" lon="20.05637012422084808349609375">
        <ele>2196.199951171875</ele>
        <time>2026-06-19T11:34:57.000Z</time>
        <extensions>
          <ns3:TrackPointExtension>
            <ns3:atemp>18.0</ns3:atemp>
          </ns3:TrackPointExtension>
        </extensions>
      </trkpt>
      <trkpt lat="42.55922994576394557952880859375" lon="20.05637012422084808349609375">
        <ele>2196.199951171875</ele>
        <time>2026-06-19T11:34:58.000Z</time>
        <extensions>
          <ns3:TrackPointExtension>
            <ns3:atemp>18.0</ns3:atemp>
          </ns3:TrackPointExtension>
        </extensions>
      </trkpt>
      <trkpt lat="42.55922994576394557952880859375" lon="20.05637012422084808349609375">
        <ele>2196.199951171875</ele>
        <time>2026-06-19T11:34:59.000Z</time>
        <extensions>
          <ns3:TrackPointExtension>
            <ns3:atemp>18.0</ns3:atemp>
          </ns3:TrackPointExtension>
        </extensions>
      </trkpt>
      <trkpt lat="42.55922994576394557952880859375" lon="20.05637012422084808349609375">
        <ele>2196.199951171875</ele>
        <time>2026-06-19T11:35:00.000Z</time>
        <extensions>
          <ns3:TrackPointExtension>
            <ns3:atemp>18.0</ns3:atemp>
          </ns3:TrackPointExtension>
        </extensions>
      </trkpt>
      <trkpt lat="42.55922994576394557952880859375" lon="20.05637012422084808349609375">
        <ele>2196.199951171875</ele>
        <time>2026-06-19T11:35:01.000Z</time>
        <extensions>
          <ns3:TrackPointExtension>
            <ns3:atemp>18.0</ns3:atemp>
          </ns3:TrackPointExtension>
        </extensions>
      </trkpt>
      <trkpt lat="42.55922994576394557952880859375" lon="20.05637012422084808349609375">
        <ele>2196.199951171875</ele>
        <time>2026-06-19T11:35:02.000Z</time>
        <extensions>
          <ns3:TrackPointExtension>
            <ns3:atemp>18.0</ns3:atemp>
          </ns3:TrackPointExtension>
        </extensions>
      </trkpt>
      <trkpt lat="42.55922994576394557952880859375" lon="20.05637012422084808349609375">
        <ele>2196.199951171875</ele>
        <time>2026-06-19T11:35:03.000Z</time>
        <extensions>
          <ns3:TrackPointExtension>
            <ns3:atemp>18.0</ns3:atemp>
          </ns3:TrackPointExtension>
        </extensions>
      </trkpt>
      <trkpt lat="42.55922994576394557952880859375" lon="20.05637012422084808349609375">
        <ele>2196.199951171875</ele>
        <time>2026-06-19T11:35:04.000Z</time>
        <extensions>
          <ns3:TrackPointExtension>
            <ns3:atemp>18.0</ns3:atemp>
          </ns3:TrackPointExtension>
        </extensions>
      </trkpt>
      <trkpt lat="42.55922994576394557952880859375" lon="20.05637012422084808349609375">
        <ele>2196.199951171875</ele>
        <time>2026-06-19T11:35:05.000Z</time>
        <extensions>
          <ns3:TrackPointExtension>
            <ns3:atemp>18.0</ns3:atemp>
          </ns3:TrackPointExtension>
        </extensions>
      </trkpt>
      <trkpt lat="42.55922994576394557952880859375" lon="20.05637012422084808349609375">
        <ele>2196.199951171875</ele>
        <time>2026-06-19T11:35:06.000Z</time>
        <extensions>
          <ns3:TrackPointExtension>
            <ns3:atemp>18.0</ns3:atemp>
          </ns3:TrackPointExtension>
        </extensions>
      </trkpt>
      <trkpt lat="42.55922994576394557952880859375" lon="20.05637012422084808349609375">
        <ele>2196.199951171875</ele>
        <time>2026-06-19T11:35:07.000Z</time>
        <extensions>
          <ns3:TrackPointExtension>
            <ns3:atemp>18.0</ns3:atemp>
          </ns3:TrackPointExtension>
        </extensions>
      </trkpt>
      <trkpt lat="42.55922994576394557952880859375" lon="20.05637012422084808349609375">
        <ele>2196.199951171875</ele>
        <time>2026-06-19T11:35:08.000Z</time>
        <extensions>
          <ns3:TrackPointExtension>
            <ns3:atemp>18.0</ns3:atemp>
          </ns3:TrackPointExtension>
        </extensions>
      </trkpt>
      <trkpt lat="42.55922994576394557952880859375" lon="20.05637012422084808349609375">
        <ele>2196.199951171875</ele>
        <time>2026-06-19T11:35:09.000Z</time>
        <extensions>
          <ns3:TrackPointExtension>
            <ns3:atemp>18.0</ns3:atemp>
          </ns3:TrackPointExtension>
        </extensions>
      </trkpt>
      <trkpt lat="42.55922994576394557952880859375" lon="20.05637012422084808349609375">
        <ele>2196.199951171875</ele>
        <time>2026-06-19T11:35:10.000Z</time>
        <extensions>
          <ns3:TrackPointExtension>
            <ns3:atemp>18.0</ns3:atemp>
          </ns3:TrackPointExtension>
        </extensions>
      </trkpt>
      <trkpt lat="42.55922994576394557952880859375" lon="20.05637012422084808349609375">
        <ele>2196.199951171875</ele>
        <time>2026-06-19T11:35:11.000Z</time>
        <extensions>
          <ns3:TrackPointExtension>
            <ns3:atemp>18.0</ns3:atemp>
          </ns3:TrackPointExtension>
        </extensions>
      </trkpt>
      <trkpt lat="42.55922994576394557952880859375" lon="20.05637012422084808349609375">
        <ele>2196.199951171875</ele>
        <time>2026-06-19T11:35:12.000Z</time>
        <extensions>
          <ns3:TrackPointExtension>
            <ns3:atemp>18.0</ns3:atemp>
          </ns3:TrackPointExtension>
        </extensions>
      </trkpt>
      <trkpt lat="42.55922994576394557952880859375" lon="20.05637012422084808349609375">
        <ele>2196.199951171875</ele>
        <time>2026-06-19T11:35:13.000Z</time>
        <extensions>
          <ns3:TrackPointExtension>
            <ns3:atemp>18.0</ns3:atemp>
          </ns3:TrackPointExtension>
        </extensions>
      </trkpt>
      <trkpt lat="42.55922994576394557952880859375" lon="20.05637012422084808349609375">
        <ele>2196.199951171875</ele>
        <time>2026-06-19T11:35:14.000Z</time>
        <extensions>
          <ns3:TrackPointExtension>
            <ns3:atemp>18.0</ns3:atemp>
          </ns3:TrackPointExtension>
        </extensions>
      </trkpt>
      <trkpt lat="42.55922994576394557952880859375" lon="20.05637012422084808349609375">
        <ele>2196.199951171875</ele>
        <time>2026-06-19T11:35:15.000Z</time>
        <extensions>
          <ns3:TrackPointExtension>
            <ns3:atemp>18.0</ns3:atemp>
          </ns3:TrackPointExtension>
        </extensions>
      </trkpt>
      <trkpt lat="42.55922994576394557952880859375" lon="20.05637012422084808349609375">
        <ele>2196.199951171875</ele>
        <time>2026-06-19T11:35:16.000Z</time>
        <extensions>
          <ns3:TrackPointExtension>
            <ns3:atemp>18.0</ns3:atemp>
          </ns3:TrackPointExtension>
        </extensions>
      </trkpt>
      <trkpt lat="42.55922994576394557952880859375" lon="20.05637012422084808349609375">
        <ele>2196.199951171875</ele>
        <time>2026-06-19T11:35:17.000Z</time>
        <extensions>
          <ns3:TrackPointExtension>
            <ns3:atemp>18.0</ns3:atemp>
          </ns3:TrackPointExtension>
        </extensions>
      </trkpt>
      <trkpt lat="42.55922994576394557952880859375" lon="20.05637012422084808349609375">
        <ele>2196.199951171875</ele>
        <time>2026-06-19T11:35:18.000Z</time>
        <extensions>
          <ns3:TrackPointExtension>
            <ns3:atemp>18.0</ns3:atemp>
          </ns3:TrackPointExtension>
        </extensions>
      </trkpt>
      <trkpt lat="42.55922994576394557952880859375" lon="20.05637012422084808349609375">
        <ele>2196.199951171875</ele>
        <time>2026-06-19T11:35:19.000Z</time>
        <extensions>
          <ns3:TrackPointExtension>
            <ns3:atemp>18.0</ns3:atemp>
          </ns3:TrackPointExtension>
        </extensions>
      </trkpt>
      <trkpt lat="42.55922994576394557952880859375" lon="20.05637012422084808349609375">
        <ele>2196.199951171875</ele>
        <time>2026-06-19T11:35:20.000Z</time>
        <extensions>
          <ns3:TrackPointExtension>
            <ns3:atemp>18.0</ns3:atemp>
          </ns3:TrackPointExtension>
        </extensions>
      </trkpt>
      <trkpt lat="42.55922994576394557952880859375" lon="20.05637012422084808349609375">
        <ele>2196.199951171875</ele>
        <time>2026-06-19T11:35:21.000Z</time>
        <extensions>
          <ns3:TrackPointExtension>
            <ns3:atemp>18.0</ns3:atemp>
          </ns3:TrackPointExtension>
        </extensions>
      </trkpt>
      <trkpt lat="42.55922994576394557952880859375" lon="20.05637012422084808349609375">
        <ele>2196.199951171875</ele>
        <time>2026-06-19T11:35:22.000Z</time>
        <extensions>
          <ns3:TrackPointExtension>
            <ns3:atemp>18.0</ns3:atemp>
          </ns3:TrackPointExtension>
        </extensions>
      </trkpt>
      <trkpt lat="42.55922994576394557952880859375" lon="20.05637012422084808349609375">
        <ele>2196.199951171875</ele>
        <time>2026-06-19T11:35:23.000Z</time>
        <extensions>
          <ns3:TrackPointExtension>
            <ns3:atemp>18.0</ns3:atemp>
          </ns3:TrackPointExtension>
        </extensions>
      </trkpt>
      <trkpt lat="42.55922994576394557952880859375" lon="20.05637012422084808349609375">
        <ele>2196.199951171875</ele>
        <time>2026-06-19T11:35:24.000Z</time>
        <extensions>
          <ns3:TrackPointExtension>
            <ns3:atemp>18.0</ns3:atemp>
          </ns3:TrackPointExtension>
        </extensions>
      </trkpt>
      <trkpt lat="42.55922994576394557952880859375" lon="20.05637012422084808349609375">
        <ele>2196.199951171875</ele>
        <time>2026-06-19T11:35:25.000Z</time>
        <extensions>
          <ns3:TrackPointExtension>
            <ns3:atemp>18.0</ns3:atemp>
          </ns3:TrackPointExtension>
        </extensions>
      </trkpt>
      <trkpt lat="42.55922994576394557952880859375" lon="20.05637012422084808349609375">
        <ele>2196.199951171875</ele>
        <time>2026-06-19T11:35:26.000Z</time>
        <extensions>
          <ns3:TrackPointExtension>
            <ns3:atemp>18.0</ns3:atemp>
          </ns3:TrackPointExtension>
        </extensions>
      </trkpt>
      <trkpt lat="42.55922994576394557952880859375" lon="20.05637012422084808349609375">
        <ele>2196.199951171875</ele>
        <time>2026-06-19T11:35:27.000Z</time>
        <extensions>
          <ns3:TrackPointExtension>
            <ns3:atemp>18.0</ns3:atemp>
          </ns3:TrackPointExtension>
        </extensions>
      </trkpt>
      <trkpt lat="42.55922994576394557952880859375" lon="20.05637012422084808349609375">
        <ele>2196.199951171875</ele>
        <time>2026-06-19T11:35:28.000Z</time>
        <extensions>
          <ns3:TrackPointExtension>
            <ns3:atemp>18.0</ns3:atemp>
          </ns3:TrackPointExtension>
        </extensions>
      </trkpt>
      <trkpt lat="42.55922994576394557952880859375" lon="20.05637012422084808349609375">
        <ele>2196.199951171875</ele>
        <time>2026-06-19T11:35:29.000Z</time>
        <extensions>
          <ns3:TrackPointExtension>
            <ns3:atemp>18.0</ns3:atemp>
          </ns3:TrackPointExtension>
        </extensions>
      </trkpt>
      <trkpt lat="42.55922994576394557952880859375" lon="20.05637012422084808349609375">
        <ele>2196.199951171875</ele>
        <time>2026-06-19T11:35:30.000Z</time>
        <extensions>
          <ns3:TrackPointExtension>
            <ns3:atemp>18.0</ns3:atemp>
          </ns3:TrackPointExtension>
        </extensions>
      </trkpt>
      <trkpt lat="42.55922994576394557952880859375" lon="20.05637012422084808349609375">
        <ele>2196.199951171875</ele>
        <time>2026-06-19T11:35:31.000Z</time>
        <extensions>
          <ns3:TrackPointExtension>
            <ns3:atemp>18.0</ns3:atemp>
          </ns3:TrackPointExtension>
        </extensions>
      </trkpt>
      <trkpt lat="42.55922994576394557952880859375" lon="20.05637012422084808349609375">
        <ele>2196.199951171875</ele>
        <time>2026-06-19T11:35:32.000Z</time>
        <extensions>
          <ns3:TrackPointExtension>
            <ns3:atemp>18.0</ns3:atemp>
          </ns3:TrackPointExtension>
        </extensions>
      </trkpt>
      <trkpt lat="42.55922994576394557952880859375" lon="20.05637012422084808349609375">
        <ele>2196.199951171875</ele>
        <time>2026-06-19T11:35:33.000Z</time>
        <extensions>
          <ns3:TrackPointExtension>
            <ns3:atemp>18.0</ns3:atemp>
          </ns3:TrackPointExtension>
        </extensions>
      </trkpt>
      <trkpt lat="42.55922994576394557952880859375" lon="20.05637012422084808349609375">
        <ele>2196.199951171875</ele>
        <time>2026-06-19T11:35:34.000Z</time>
        <extensions>
          <ns3:TrackPointExtension>
            <ns3:atemp>18.0</ns3:atemp>
          </ns3:TrackPointExtension>
        </extensions>
      </trkpt>
      <trkpt lat="42.55922994576394557952880859375" lon="20.05637012422084808349609375">
        <ele>2196.199951171875</ele>
        <time>2026-06-19T11:35:35.000Z</time>
        <extensions>
          <ns3:TrackPointExtension>
            <ns3:atemp>18.0</ns3:atemp>
          </ns3:TrackPointExtension>
        </extensions>
      </trkpt>
      <trkpt lat="42.55922994576394557952880859375" lon="20.05637012422084808349609375">
        <ele>2196.199951171875</ele>
        <time>2026-06-19T11:35:36.000Z</time>
        <extensions>
          <ns3:TrackPointExtension>
            <ns3:atemp>18.0</ns3:atemp>
          </ns3:TrackPointExtension>
        </extensions>
      </trkpt>
      <trkpt lat="42.55922994576394557952880859375" lon="20.05637012422084808349609375">
        <ele>2196.199951171875</ele>
        <time>2026-06-19T11:35:37.000Z</time>
        <extensions>
          <ns3:TrackPointExtension>
            <ns3:atemp>18.0</ns3:atemp>
          </ns3:TrackPointExtension>
        </extensions>
      </trkpt>
      <trkpt lat="42.55922994576394557952880859375" lon="20.05637012422084808349609375">
        <ele>2196.199951171875</ele>
        <time>2026-06-19T11:35:38.000Z</time>
        <extensions>
          <ns3:TrackPointExtension>
            <ns3:atemp>18.0</ns3:atemp>
          </ns3:TrackPointExtension>
        </extensions>
      </trkpt>
      <trkpt lat="42.55922994576394557952880859375" lon="20.05637012422084808349609375">
        <ele>2196.199951171875</ele>
        <time>2026-06-19T11:35:39.000Z</time>
        <extensions>
          <ns3:TrackPointExtension>
            <ns3:atemp>18.0</ns3:atemp>
          </ns3:TrackPointExtension>
        </extensions>
      </trkpt>
      <trkpt lat="42.55922994576394557952880859375" lon="20.05637012422084808349609375">
        <ele>2196.199951171875</ele>
        <time>2026-06-19T11:35:40.000Z</time>
        <extensions>
          <ns3:TrackPointExtension>
            <ns3:atemp>18.0</ns3:atemp>
          </ns3:TrackPointExtension>
        </extensions>
      </trkpt>
      <trkpt lat="42.55922994576394557952880859375" lon="20.05637012422084808349609375">
        <ele>2196.199951171875</ele>
        <time>2026-06-19T11:35:41.000Z</time>
        <extensions>
          <ns3:TrackPointExtension>
            <ns3:atemp>18.0</ns3:atemp>
          </ns3:TrackPointExtension>
        </extensions>
      </trkpt>
      <trkpt lat="42.55922994576394557952880859375" lon="20.05637012422084808349609375">
        <ele>2196.199951171875</ele>
        <time>2026-06-19T11:35:42.000Z</time>
        <extensions>
          <ns3:TrackPointExtension>
            <ns3:atemp>18.0</ns3:atemp>
          </ns3:TrackPointExtension>
        </extensions>
      </trkpt>
      <trkpt lat="42.55922994576394557952880859375" lon="20.05637012422084808349609375">
        <ele>2196.199951171875</ele>
        <time>2026-06-19T11:35:43.000Z</time>
        <extensions>
          <ns3:TrackPointExtension>
            <ns3:atemp>18.0</ns3:atemp>
          </ns3:TrackPointExtension>
        </extensions>
      </trkpt>
      <trkpt lat="42.55922994576394557952880859375" lon="20.05637012422084808349609375">
        <ele>2196.199951171875</ele>
        <time>2026-06-19T11:35:44.000Z</time>
        <extensions>
          <ns3:TrackPointExtension>
            <ns3:atemp>18.0</ns3:atemp>
          </ns3:TrackPointExtension>
        </extensions>
      </trkpt>
      <trkpt lat="42.55922994576394557952880859375" lon="20.05637012422084808349609375">
        <ele>2196.199951171875</ele>
        <time>2026-06-19T11:35:45.000Z</time>
        <extensions>
          <ns3:TrackPointExtension>
            <ns3:atemp>18.0</ns3:atemp>
          </ns3:TrackPointExtension>
        </extensions>
      </trkpt>
      <trkpt lat="42.55922994576394557952880859375" lon="20.05637012422084808349609375">
        <ele>2196.199951171875</ele>
        <time>2026-06-19T11:35:46.000Z</time>
        <extensions>
          <ns3:TrackPointExtension>
            <ns3:atemp>18.0</ns3:atemp>
          </ns3:TrackPointExtension>
        </extensions>
      </trkpt>
      <trkpt lat="42.55922994576394557952880859375" lon="20.05637012422084808349609375">
        <ele>2196.199951171875</ele>
        <time>2026-06-19T11:35:47.000Z</time>
        <extensions>
          <ns3:TrackPointExtension>
            <ns3:atemp>18.0</ns3:atemp>
          </ns3:TrackPointExtension>
        </extensions>
      </trkpt>
      <trkpt lat="42.55922994576394557952880859375" lon="20.05637012422084808349609375">
        <ele>2196.199951171875</ele>
        <time>2026-06-19T11:35:48.000Z</time>
        <extensions>
          <ns3:TrackPointExtension>
            <ns3:atemp>18.0</ns3:atemp>
          </ns3:TrackPointExtension>
        </extensions>
      </trkpt>
      <trkpt lat="42.55922994576394557952880859375" lon="20.05637012422084808349609375">
        <ele>2196.199951171875</ele>
        <time>2026-06-19T11:35:49.000Z</time>
        <extensions>
          <ns3:TrackPointExtension>
            <ns3:atemp>18.0</ns3:atemp>
          </ns3:TrackPointExtension>
        </extensions>
      </trkpt>
      <trkpt lat="42.55922994576394557952880859375" lon="20.05637012422084808349609375">
        <ele>2196.199951171875</ele>
        <time>2026-06-19T11:35:50.000Z</time>
        <extensions>
          <ns3:TrackPointExtension>
            <ns3:atemp>18.0</ns3:atemp>
          </ns3:TrackPointExtension>
        </extensions>
      </trkpt>
      <trkpt lat="42.55922994576394557952880859375" lon="20.05637012422084808349609375">
        <ele>2196.199951171875</ele>
        <time>2026-06-19T11:35:51.000Z</time>
        <extensions>
          <ns3:TrackPointExtension>
            <ns3:atemp>18.0</ns3:atemp>
          </ns3:TrackPointExtension>
        </extensions>
      </trkpt>
      <trkpt lat="42.55922994576394557952880859375" lon="20.05637012422084808349609375">
        <ele>2196.199951171875</ele>
        <time>2026-06-19T11:35:52.000Z</time>
        <extensions>
          <ns3:TrackPointExtension>
            <ns3:atemp>18.0</ns3:atemp>
          </ns3:TrackPointExtension>
        </extensions>
      </trkpt>
      <trkpt lat="42.55922994576394557952880859375" lon="20.05637012422084808349609375">
        <ele>2196.199951171875</ele>
        <time>2026-06-19T11:35:53.000Z</time>
        <extensions>
          <ns3:TrackPointExtension>
            <ns3:atemp>18.0</ns3:atemp>
          </ns3:TrackPointExtension>
        </extensions>
      </trkpt>
      <trkpt lat="42.55922994576394557952880859375" lon="20.05637012422084808349609375">
        <ele>2196.199951171875</ele>
        <time>2026-06-19T11:35:54.000Z</time>
        <extensions>
          <ns3:TrackPointExtension>
            <ns3:atemp>18.0</ns3:atemp>
          </ns3:TrackPointExtension>
        </extensions>
      </trkpt>
      <trkpt lat="42.55922994576394557952880859375" lon="20.05637012422084808349609375">
        <ele>2196.199951171875</ele>
        <time>2026-06-19T11:35:55.000Z</time>
        <extensions>
          <ns3:TrackPointExtension>
            <ns3:atemp>18.0</ns3:atemp>
          </ns3:TrackPointExtension>
        </extensions>
      </trkpt>
      <trkpt lat="42.55922994576394557952880859375" lon="20.05637012422084808349609375">
        <ele>2196.199951171875</ele>
        <time>2026-06-19T11:35:56.000Z</time>
        <extensions>
          <ns3:TrackPointExtension>
            <ns3:atemp>18.0</ns3:atemp>
          </ns3:TrackPointExtension>
        </extensions>
      </trkpt>
      <trkpt lat="42.55922994576394557952880859375" lon="20.05637012422084808349609375">
        <ele>2196.199951171875</ele>
        <time>2026-06-19T11:35:57.000Z</time>
        <extensions>
          <ns3:TrackPointExtension>
            <ns3:atemp>18.0</ns3:atemp>
          </ns3:TrackPointExtension>
        </extensions>
      </trkpt>
      <trkpt lat="42.55922994576394557952880859375" lon="20.05637012422084808349609375">
        <ele>2196.199951171875</ele>
        <time>2026-06-19T11:35:58.000Z</time>
        <extensions>
          <ns3:TrackPointExtension>
            <ns3:atemp>18.0</ns3:atemp>
          </ns3:TrackPointExtension>
        </extensions>
      </trkpt>
      <trkpt lat="42.55922994576394557952880859375" lon="20.05637012422084808349609375">
        <ele>2196.199951171875</ele>
        <time>2026-06-19T11:35:59.000Z</time>
        <extensions>
          <ns3:TrackPointExtension>
            <ns3:atemp>18.0</ns3:atemp>
          </ns3:TrackPointExtension>
        </extensions>
      </trkpt>
      <trkpt lat="42.55922994576394557952880859375" lon="20.05637012422084808349609375">
        <ele>2196.199951171875</ele>
        <time>2026-06-19T11:36:00.000Z</time>
        <extensions>
          <ns3:TrackPointExtension>
            <ns3:atemp>18.0</ns3:atemp>
          </ns3:TrackPointExtension>
        </extensions>
      </trkpt>
      <trkpt lat="42.55922994576394557952880859375" lon="20.05637012422084808349609375">
        <ele>2196.199951171875</ele>
        <time>2026-06-19T11:36:01.000Z</time>
        <extensions>
          <ns3:TrackPointExtension>
            <ns3:atemp>18.0</ns3:atemp>
          </ns3:TrackPointExtension>
        </extensions>
      </trkpt>
      <trkpt lat="42.55922994576394557952880859375" lon="20.05637012422084808349609375">
        <ele>2196.199951171875</ele>
        <time>2026-06-19T11:36:02.000Z</time>
        <extensions>
          <ns3:TrackPointExtension>
            <ns3:atemp>18.0</ns3:atemp>
          </ns3:TrackPointExtension>
        </extensions>
      </trkpt>
      <trkpt lat="42.55922994576394557952880859375" lon="20.05637012422084808349609375">
        <ele>2196.199951171875</ele>
        <time>2026-06-19T11:36:03.000Z</time>
        <extensions>
          <ns3:TrackPointExtension>
            <ns3:atemp>18.0</ns3:atemp>
          </ns3:TrackPointExtension>
        </extensions>
      </trkpt>
      <trkpt lat="42.55922994576394557952880859375" lon="20.05637012422084808349609375">
        <ele>2196.199951171875</ele>
        <time>2026-06-19T11:36:04.000Z</time>
        <extensions>
          <ns3:TrackPointExtension>
            <ns3:atemp>18.0</ns3:atemp>
          </ns3:TrackPointExtension>
        </extensions>
      </trkpt>
      <trkpt lat="42.55922994576394557952880859375" lon="20.05637012422084808349609375">
        <ele>2196.199951171875</ele>
        <time>2026-06-19T11:36:05.000Z</time>
        <extensions>
          <ns3:TrackPointExtension>
            <ns3:atemp>18.0</ns3:atemp>
          </ns3:TrackPointExtension>
        </extensions>
      </trkpt>
      <trkpt lat="42.55922994576394557952880859375" lon="20.05637012422084808349609375">
        <ele>2196.199951171875</ele>
        <time>2026-06-19T11:36:06.000Z</time>
        <extensions>
          <ns3:TrackPointExtension>
            <ns3:atemp>18.0</ns3:atemp>
          </ns3:TrackPointExtension>
        </extensions>
      </trkpt>
      <trkpt lat="42.55922994576394557952880859375" lon="20.05637012422084808349609375">
        <ele>2196.199951171875</ele>
        <time>2026-06-19T11:36:07.000Z</time>
        <extensions>
          <ns3:TrackPointExtension>
            <ns3:atemp>18.0</ns3:atemp>
          </ns3:TrackPointExtension>
        </extensions>
      </trkpt>
      <trkpt lat="42.55922994576394557952880859375" lon="20.05637012422084808349609375">
        <ele>2196.199951171875</ele>
        <time>2026-06-19T11:36:08.000Z</time>
        <extensions>
          <ns3:TrackPointExtension>
            <ns3:atemp>18.0</ns3:atemp>
          </ns3:TrackPointExtension>
        </extensions>
      </trkpt>
      <trkpt lat="42.55922994576394557952880859375" lon="20.05637012422084808349609375">
        <ele>2196.199951171875</ele>
        <time>2026-06-19T11:36:09.000Z</time>
        <extensions>
          <ns3:TrackPointExtension>
            <ns3:atemp>18.0</ns3:atemp>
          </ns3:TrackPointExtension>
        </extensions>
      </trkpt>
      <trkpt lat="42.55922994576394557952880859375" lon="20.05637012422084808349609375">
        <ele>2196.199951171875</ele>
        <time>2026-06-19T11:36:10.000Z</time>
        <extensions>
          <ns3:TrackPointExtension>
            <ns3:atemp>18.0</ns3:atemp>
          </ns3:TrackPointExtension>
        </extensions>
      </trkpt>
      <trkpt lat="42.55922994576394557952880859375" lon="20.05637012422084808349609375">
        <ele>2196.199951171875</ele>
        <time>2026-06-19T11:36:11.000Z</time>
        <extensions>
          <ns3:TrackPointExtension>
            <ns3:atemp>18.0</ns3:atemp>
          </ns3:TrackPointExtension>
        </extensions>
      </trkpt>
      <trkpt lat="42.55922994576394557952880859375" lon="20.05637012422084808349609375">
        <ele>2196.199951171875</ele>
        <time>2026-06-19T11:36:12.000Z</time>
        <extensions>
          <ns3:TrackPointExtension>
            <ns3:atemp>18.0</ns3:atemp>
          </ns3:TrackPointExtension>
        </extensions>
      </trkpt>
      <trkpt lat="42.55922994576394557952880859375" lon="20.05637012422084808349609375">
        <ele>2196.199951171875</ele>
        <time>2026-06-19T11:36:13.000Z</time>
        <extensions>
          <ns3:TrackPointExtension>
            <ns3:atemp>18.0</ns3:atemp>
          </ns3:TrackPointExtension>
        </extensions>
      </trkpt>
      <trkpt lat="42.55922994576394557952880859375" lon="20.05637012422084808349609375">
        <ele>2196.199951171875</ele>
        <time>2026-06-19T11:36:14.000Z</time>
        <extensions>
          <ns3:TrackPointExtension>
            <ns3:atemp>18.0</ns3:atemp>
          </ns3:TrackPointExtension>
        </extensions>
      </trkpt>
      <trkpt lat="42.55922994576394557952880859375" lon="20.05637012422084808349609375">
        <ele>2196.199951171875</ele>
        <time>2026-06-19T11:36:15.000Z</time>
        <extensions>
          <ns3:TrackPointExtension>
            <ns3:atemp>18.0</ns3:atemp>
          </ns3:TrackPointExtension>
        </extensions>
      </trkpt>
      <trkpt lat="42.55922994576394557952880859375" lon="20.05637012422084808349609375">
        <ele>2196.199951171875</ele>
        <time>2026-06-19T11:36:16.000Z</time>
        <extensions>
          <ns3:TrackPointExtension>
            <ns3:atemp>18.0</ns3:atemp>
          </ns3:TrackPointExtension>
        </extensions>
      </trkpt>
      <trkpt lat="42.55922994576394557952880859375" lon="20.05637012422084808349609375">
        <ele>2196.199951171875</ele>
        <time>2026-06-19T11:36:17.000Z</time>
        <extensions>
          <ns3:TrackPointExtension>
            <ns3:atemp>18.0</ns3:atemp>
          </ns3:TrackPointExtension>
        </extensions>
      </trkpt>
      <trkpt lat="42.55922994576394557952880859375" lon="20.05637012422084808349609375">
        <ele>2196.199951171875</ele>
        <time>2026-06-19T11:36:18.000Z</time>
        <extensions>
          <ns3:TrackPointExtension>
            <ns3:atemp>18.0</ns3:atemp>
          </ns3:TrackPointExtension>
        </extensions>
      </trkpt>
      <trkpt lat="42.55922994576394557952880859375" lon="20.05637012422084808349609375">
        <ele>2196.199951171875</ele>
        <time>2026-06-19T11:36:19.000Z</time>
        <extensions>
          <ns3:TrackPointExtension>
            <ns3:atemp>18.0</ns3:atemp>
          </ns3:TrackPointExtension>
        </extensions>
      </trkpt>
      <trkpt lat="42.55922994576394557952880859375" lon="20.05637012422084808349609375">
        <ele>2196.199951171875</ele>
        <time>2026-06-19T11:36:20.000Z</time>
        <extensions>
          <ns3:TrackPointExtension>
            <ns3:atemp>18.0</ns3:atemp>
          </ns3:TrackPointExtension>
        </extensions>
      </trkpt>
      <trkpt lat="42.55922994576394557952880859375" lon="20.05637012422084808349609375">
        <ele>2196.199951171875</ele>
        <time>2026-06-19T11:36:21.000Z</time>
        <extensions>
          <ns3:TrackPointExtension>
            <ns3:atemp>18.0</ns3:atemp>
          </ns3:TrackPointExtension>
        </extensions>
      </trkpt>
      <trkpt lat="42.55922994576394557952880859375" lon="20.05637012422084808349609375">
        <ele>2196.199951171875</ele>
        <time>2026-06-19T11:36:22.000Z</time>
        <extensions>
          <ns3:TrackPointExtension>
            <ns3:atemp>18.0</ns3:atemp>
          </ns3:TrackPointExtension>
        </extensions>
      </trkpt>
      <trkpt lat="42.55922994576394557952880859375" lon="20.05637012422084808349609375">
        <ele>2196.199951171875</ele>
        <time>2026-06-19T11:36:23.000Z</time>
        <extensions>
          <ns3:TrackPointExtension>
            <ns3:atemp>18.0</ns3:atemp>
          </ns3:TrackPointExtension>
        </extensions>
      </trkpt>
      <trkpt lat="42.55922994576394557952880859375" lon="20.05637012422084808349609375">
        <ele>2196.199951171875</ele>
        <time>2026-06-19T11:36:24.000Z</time>
        <extensions>
          <ns3:TrackPointExtension>
            <ns3:atemp>18.0</ns3:atemp>
          </ns3:TrackPointExtension>
        </extensions>
      </trkpt>
      <trkpt lat="42.55922994576394557952880859375" lon="20.05637012422084808349609375">
        <ele>2196.199951171875</ele>
        <time>2026-06-19T11:36:25.000Z</time>
        <extensions>
          <ns3:TrackPointExtension>
            <ns3:atemp>18.0</ns3:atemp>
          </ns3:TrackPointExtension>
        </extensions>
      </trkpt>
      <trkpt lat="42.55922994576394557952880859375" lon="20.05637012422084808349609375">
        <ele>2196.199951171875</ele>
        <time>2026-06-19T11:36:26.000Z</time>
        <extensions>
          <ns3:TrackPointExtension>
            <ns3:atemp>18.0</ns3:atemp>
          </ns3:TrackPointExtension>
        </extensions>
      </trkpt>
      <trkpt lat="42.55922994576394557952880859375" lon="20.05637012422084808349609375">
        <ele>2196.199951171875</ele>
        <time>2026-06-19T11:36:27.000Z</time>
        <extensions>
          <ns3:TrackPointExtension>
            <ns3:atemp>18.0</ns3:atemp>
          </ns3:TrackPointExtension>
        </extensions>
      </trkpt>
      <trkpt lat="42.55922994576394557952880859375" lon="20.05637012422084808349609375">
        <ele>2196.199951171875</ele>
        <time>2026-06-19T11:36:28.000Z</time>
        <extensions>
          <ns3:TrackPointExtension>
            <ns3:atemp>18.0</ns3:atemp>
          </ns3:TrackPointExtension>
        </extensions>
      </trkpt>
      <trkpt lat="42.55922994576394557952880859375" lon="20.05637012422084808349609375">
        <ele>2196.199951171875</ele>
        <time>2026-06-19T11:36:29.000Z</time>
        <extensions>
          <ns3:TrackPointExtension>
            <ns3:atemp>18.0</ns3:atemp>
          </ns3:TrackPointExtension>
        </extensions>
      </trkpt>
      <trkpt lat="42.55922994576394557952880859375" lon="20.05637012422084808349609375">
        <ele>2196.199951171875</ele>
        <time>2026-06-19T11:36:30.000Z</time>
        <extensions>
          <ns3:TrackPointExtension>
            <ns3:atemp>18.0</ns3:atemp>
          </ns3:TrackPointExtension>
        </extensions>
      </trkpt>
      <trkpt lat="42.55922994576394557952880859375" lon="20.05637012422084808349609375">
        <ele>2196.199951171875</ele>
        <time>2026-06-19T11:36:31.000Z</time>
        <extensions>
          <ns3:TrackPointExtension>
            <ns3:atemp>18.0</ns3:atemp>
          </ns3:TrackPointExtension>
        </extensions>
      </trkpt>
      <trkpt lat="42.55922994576394557952880859375" lon="20.05637012422084808349609375">
        <ele>2196.199951171875</ele>
        <time>2026-06-19T11:36:32.000Z</time>
        <extensions>
          <ns3:TrackPointExtension>
            <ns3:atemp>18.0</ns3:atemp>
          </ns3:TrackPointExtension>
        </extensions>
      </trkpt>
      <trkpt lat="42.55922994576394557952880859375" lon="20.05637012422084808349609375">
        <ele>2196.199951171875</ele>
        <time>2026-06-19T11:36:33.000Z</time>
        <extensions>
          <ns3:TrackPointExtension>
            <ns3:atemp>18.0</ns3:atemp>
          </ns3:TrackPointExtension>
        </extensions>
      </trkpt>
      <trkpt lat="42.55922994576394557952880859375" lon="20.05637012422084808349609375">
        <ele>2196.199951171875</ele>
        <time>2026-06-19T11:36:34.000Z</time>
        <extensions>
          <ns3:TrackPointExtension>
            <ns3:atemp>18.0</ns3:atemp>
          </ns3:TrackPointExtension>
        </extensions>
      </trkpt>
      <trkpt lat="42.55922994576394557952880859375" lon="20.05637012422084808349609375">
        <ele>2196.199951171875</ele>
        <time>2026-06-19T11:36:35.000Z</time>
        <extensions>
          <ns3:TrackPointExtension>
            <ns3:atemp>18.0</ns3:atemp>
          </ns3:TrackPointExtension>
        </extensions>
      </trkpt>
      <trkpt lat="42.55922994576394557952880859375" lon="20.05637012422084808349609375">
        <ele>2196.199951171875</ele>
        <time>2026-06-19T11:36:36.000Z</time>
        <extensions>
          <ns3:TrackPointExtension>
            <ns3:atemp>18.0</ns3:atemp>
          </ns3:TrackPointExtension>
        </extensions>
      </trkpt>
      <trkpt lat="42.55922994576394557952880859375" lon="20.05637012422084808349609375">
        <ele>2196.199951171875</ele>
        <time>2026-06-19T11:36:37.000Z</time>
        <extensions>
          <ns3:TrackPointExtension>
            <ns3:atemp>18.0</ns3:atemp>
          </ns3:TrackPointExtension>
        </extensions>
      </trkpt>
      <trkpt lat="42.55922994576394557952880859375" lon="20.05637012422084808349609375">
        <ele>2196.199951171875</ele>
        <time>2026-06-19T11:36:38.000Z</time>
        <extensions>
          <ns3:TrackPointExtension>
            <ns3:atemp>18.0</ns3:atemp>
          </ns3:TrackPointExtension>
        </extensions>
      </trkpt>
      <trkpt lat="42.55922994576394557952880859375" lon="20.05637012422084808349609375">
        <ele>2196.199951171875</ele>
        <time>2026-06-19T11:36:39.000Z</time>
        <extensions>
          <ns3:TrackPointExtension>
            <ns3:atemp>18.0</ns3:atemp>
          </ns3:TrackPointExtension>
        </extensions>
      </trkpt>
      <trkpt lat="42.55922994576394557952880859375" lon="20.05637012422084808349609375">
        <ele>2196.199951171875</ele>
        <time>2026-06-19T11:36:40.000Z</time>
        <extensions>
          <ns3:TrackPointExtension>
            <ns3:atemp>18.0</ns3:atemp>
          </ns3:TrackPointExtension>
        </extensions>
      </trkpt>
      <trkpt lat="42.55922994576394557952880859375" lon="20.05637012422084808349609375">
        <ele>2196.199951171875</ele>
        <time>2026-06-19T11:36:41.000Z</time>
        <extensions>
          <ns3:TrackPointExtension>
            <ns3:atemp>18.0</ns3:atemp>
          </ns3:TrackPointExtension>
        </extensions>
      </trkpt>
      <trkpt lat="42.55922994576394557952880859375" lon="20.05637012422084808349609375">
        <ele>2196.199951171875</ele>
        <time>2026-06-19T11:36:42.000Z</time>
        <extensions>
          <ns3:TrackPointExtension>
            <ns3:atemp>18.0</ns3:atemp>
          </ns3:TrackPointExtension>
        </extensions>
      </trkpt>
      <trkpt lat="42.55922994576394557952880859375" lon="20.05637012422084808349609375">
        <ele>2196.199951171875</ele>
        <time>2026-06-19T11:36:43.000Z</time>
        <extensions>
          <ns3:TrackPointExtension>
            <ns3:atemp>18.0</ns3:atemp>
          </ns3:TrackPointExtension>
        </extensions>
      </trkpt>
      <trkpt lat="42.55922994576394557952880859375" lon="20.05637012422084808349609375">
        <ele>2196.199951171875</ele>
        <time>2026-06-19T11:36:44.000Z</time>
        <extensions>
          <ns3:TrackPointExtension>
            <ns3:atemp>18.0</ns3:atemp>
          </ns3:TrackPointExtension>
        </extensions>
      </trkpt>
      <trkpt lat="42.55922994576394557952880859375" lon="20.05637012422084808349609375">
        <ele>2196.199951171875</ele>
        <time>2026-06-19T11:36:45.000Z</time>
        <extensions>
          <ns3:TrackPointExtension>
            <ns3:atemp>18.0</ns3:atemp>
          </ns3:TrackPointExtension>
        </extensions>
      </trkpt>
      <trkpt lat="42.55922994576394557952880859375" lon="20.05637012422084808349609375">
        <ele>2196.199951171875</ele>
        <time>2026-06-19T11:36:46.000Z</time>
        <extensions>
          <ns3:TrackPointExtension>
            <ns3:atemp>18.0</ns3:atemp>
          </ns3:TrackPointExtension>
        </extensions>
      </trkpt>
      <trkpt lat="42.55922994576394557952880859375" lon="20.05637012422084808349609375">
        <ele>2196.199951171875</ele>
        <time>2026-06-19T11:36:47.000Z</time>
        <extensions>
          <ns3:TrackPointExtension>
            <ns3:atemp>18.0</ns3:atemp>
          </ns3:TrackPointExtension>
        </extensions>
      </trkpt>
      <trkpt lat="42.55922994576394557952880859375" lon="20.05637012422084808349609375">
        <ele>2196.199951171875</ele>
        <time>2026-06-19T11:36:48.000Z</time>
        <extensions>
          <ns3:TrackPointExtension>
            <ns3:atemp>18.0</ns3:atemp>
          </ns3:TrackPointExtension>
        </extensions>
      </trkpt>
      <trkpt lat="42.55922994576394557952880859375" lon="20.05637012422084808349609375">
        <ele>2196.199951171875</ele>
        <time>2026-06-19T11:36:49.000Z</time>
        <extensions>
          <ns3:TrackPointExtension>
            <ns3:atemp>18.0</ns3:atemp>
          </ns3:TrackPointExtension>
        </extensions>
      </trkpt>
      <trkpt lat="42.55922994576394557952880859375" lon="20.05637012422084808349609375">
        <ele>2196.199951171875</ele>
        <time>2026-06-19T11:36:50.000Z</time>
        <extensions>
          <ns3:TrackPointExtension>
            <ns3:atemp>18.0</ns3:atemp>
          </ns3:TrackPointExtension>
        </extensions>
      </trkpt>
      <trkpt lat="42.55922994576394557952880859375" lon="20.05637012422084808349609375">
        <ele>2196.199951171875</ele>
        <time>2026-06-19T11:36:51.000Z</time>
        <extensions>
          <ns3:TrackPointExtension>
            <ns3:atemp>18.0</ns3:atemp>
          </ns3:TrackPointExtension>
        </extensions>
      </trkpt>
      <trkpt lat="42.55922994576394557952880859375" lon="20.05637012422084808349609375">
        <ele>2196.199951171875</ele>
        <time>2026-06-19T11:36:52.000Z</time>
        <extensions>
          <ns3:TrackPointExtension>
            <ns3:atemp>18.0</ns3:atemp>
          </ns3:TrackPointExtension>
        </extensions>
      </trkpt>
      <trkpt lat="42.55922994576394557952880859375" lon="20.05637012422084808349609375">
        <ele>2196.199951171875</ele>
        <time>2026-06-19T11:36:53.000Z</time>
        <extensions>
          <ns3:TrackPointExtension>
            <ns3:atemp>18.0</ns3:atemp>
          </ns3:TrackPointExtension>
        </extensions>
      </trkpt>
      <trkpt lat="42.55922994576394557952880859375" lon="20.05637012422084808349609375">
        <ele>2196.199951171875</ele>
        <time>2026-06-19T11:36:54.000Z</time>
        <extensions>
          <ns3:TrackPointExtension>
            <ns3:atemp>18.0</ns3:atemp>
          </ns3:TrackPointExtension>
        </extensions>
      </trkpt>
      <trkpt lat="42.55922994576394557952880859375" lon="20.05637012422084808349609375">
        <ele>2196.199951171875</ele>
        <time>2026-06-19T11:36:55.000Z</time>
        <extensions>
          <ns3:TrackPointExtension>
            <ns3:atemp>18.0</ns3:atemp>
          </ns3:TrackPointExtension>
        </extensions>
      </trkpt>
      <trkpt lat="42.55922994576394557952880859375" lon="20.05637012422084808349609375">
        <ele>2196.199951171875</ele>
        <time>2026-06-19T11:36:56.000Z</time>
        <extensions>
          <ns3:TrackPointExtension>
            <ns3:atemp>18.0</ns3:atemp>
          </ns3:TrackPointExtension>
        </extensions>
      </trkpt>
      <trkpt lat="42.55922994576394557952880859375" lon="20.05637012422084808349609375">
        <ele>2196.199951171875</ele>
        <time>2026-06-19T11:36:57.000Z</time>
        <extensions>
          <ns3:TrackPointExtension>
            <ns3:atemp>18.0</ns3:atemp>
          </ns3:TrackPointExtension>
        </extensions>
      </trkpt>
      <trkpt lat="42.55922994576394557952880859375" lon="20.05637012422084808349609375">
        <ele>2196.199951171875</ele>
        <time>2026-06-19T11:36:58.000Z</time>
        <extensions>
          <ns3:TrackPointExtension>
            <ns3:atemp>18.0</ns3:atemp>
          </ns3:TrackPointExtension>
        </extensions>
      </trkpt>
      <trkpt lat="42.55922994576394557952880859375" lon="20.05637012422084808349609375">
        <ele>2196.199951171875</ele>
        <time>2026-06-19T11:36:59.000Z</time>
        <extensions>
          <ns3:TrackPointExtension>
            <ns3:atemp>18.0</ns3:atemp>
          </ns3:TrackPointExtension>
        </extensions>
      </trkpt>
      <trkpt lat="42.55922994576394557952880859375" lon="20.05637012422084808349609375">
        <ele>2196.199951171875</ele>
        <time>2026-06-19T11:37:00.000Z</time>
        <extensions>
          <ns3:TrackPointExtension>
            <ns3:atemp>18.0</ns3:atemp>
          </ns3:TrackPointExtension>
        </extensions>
      </trkpt>
      <trkpt lat="42.55922994576394557952880859375" lon="20.05637012422084808349609375">
        <ele>2196.199951171875</ele>
        <time>2026-06-19T11:37:01.000Z</time>
        <extensions>
          <ns3:TrackPointExtension>
            <ns3:atemp>18.0</ns3:atemp>
          </ns3:TrackPointExtension>
        </extensions>
      </trkpt>
      <trkpt lat="42.55922994576394557952880859375" lon="20.05637012422084808349609375">
        <ele>2196.199951171875</ele>
        <time>2026-06-19T11:37:02.000Z</time>
        <extensions>
          <ns3:TrackPointExtension>
            <ns3:atemp>18.0</ns3:atemp>
          </ns3:TrackPointExtension>
        </extensions>
      </trkpt>
      <trkpt lat="42.55922994576394557952880859375" lon="20.05637012422084808349609375">
        <ele>2196.199951171875</ele>
        <time>2026-06-19T11:37:03.000Z</time>
        <extensions>
          <ns3:TrackPointExtension>
            <ns3:atemp>18.0</ns3:atemp>
          </ns3:TrackPointExtension>
        </extensions>
      </trkpt>
      <trkpt lat="42.55922994576394557952880859375" lon="20.05637012422084808349609375">
        <ele>2196.199951171875</ele>
        <time>2026-06-19T11:37:04.000Z</time>
        <extensions>
          <ns3:TrackPointExtension>
            <ns3:atemp>18.0</ns3:atemp>
          </ns3:TrackPointExtension>
        </extensions>
      </trkpt>
      <trkpt lat="42.55922994576394557952880859375" lon="20.05637012422084808349609375">
        <ele>2196.199951171875</ele>
        <time>2026-06-19T11:37:05.000Z</time>
        <extensions>
          <ns3:TrackPointExtension>
            <ns3:atemp>18.0</ns3:atemp>
          </ns3:TrackPointExtension>
        </extensions>
      </trkpt>
      <trkpt lat="42.55922994576394557952880859375" lon="20.05637012422084808349609375">
        <ele>2196.199951171875</ele>
        <time>2026-06-19T11:37:06.000Z</time>
        <extensions>
          <ns3:TrackPointExtension>
            <ns3:atemp>18.0</ns3:atemp>
          </ns3:TrackPointExtension>
        </extensions>
      </trkpt>
      <trkpt lat="42.55922994576394557952880859375" lon="20.05637012422084808349609375">
        <ele>2196.199951171875</ele>
        <time>2026-06-19T11:37:07.000Z</time>
        <extensions>
          <ns3:TrackPointExtension>
            <ns3:atemp>18.0</ns3:atemp>
          </ns3:TrackPointExtension>
        </extensions>
      </trkpt>
      <trkpt lat="42.55922994576394557952880859375" lon="20.05637012422084808349609375">
        <ele>2196.199951171875</ele>
        <time>2026-06-19T11:37:08.000Z</time>
        <extensions>
          <ns3:TrackPointExtension>
            <ns3:atemp>18.0</ns3:atemp>
          </ns3:TrackPointExtension>
        </extensions>
      </trkpt>
      <trkpt lat="42.55922994576394557952880859375" lon="20.05637012422084808349609375">
        <ele>2196.199951171875</ele>
        <time>2026-06-19T11:37:09.000Z</time>
        <extensions>
          <ns3:TrackPointExtension>
            <ns3:atemp>18.0</ns3:atemp>
          </ns3:TrackPointExtension>
        </extensions>
      </trkpt>
      <trkpt lat="42.55922994576394557952880859375" lon="20.05637012422084808349609375">
        <ele>2196.199951171875</ele>
        <time>2026-06-19T11:37:10.000Z</time>
        <extensions>
          <ns3:TrackPointExtension>
            <ns3:atemp>18.0</ns3:atemp>
          </ns3:TrackPointExtension>
        </extensions>
      </trkpt>
      <trkpt lat="42.55922994576394557952880859375" lon="20.05637012422084808349609375">
        <ele>2196.199951171875</ele>
        <time>2026-06-19T11:37:11.000Z</time>
        <extensions>
          <ns3:TrackPointExtension>
            <ns3:atemp>18.0</ns3:atemp>
          </ns3:TrackPointExtension>
        </extensions>
      </trkpt>
      <trkpt lat="42.55922994576394557952880859375" lon="20.05637012422084808349609375">
        <ele>2196.199951171875</ele>
        <time>2026-06-19T11:37:12.000Z</time>
        <extensions>
          <ns3:TrackPointExtension>
            <ns3:atemp>18.0</ns3:atemp>
          </ns3:TrackPointExtension>
        </extensions>
      </trkpt>
      <trkpt lat="42.55922994576394557952880859375" lon="20.05637012422084808349609375">
        <ele>2196.199951171875</ele>
        <time>2026-06-19T11:37:13.000Z</time>
        <extensions>
          <ns3:TrackPointExtension>
            <ns3:atemp>18.0</ns3:atemp>
          </ns3:TrackPointExtension>
        </extensions>
      </trkpt>
      <trkpt lat="42.55922994576394557952880859375" lon="20.05637012422084808349609375">
        <ele>2196.199951171875</ele>
        <time>2026-06-19T11:37:14.000Z</time>
        <extensions>
          <ns3:TrackPointExtension>
            <ns3:atemp>18.0</ns3:atemp>
          </ns3:TrackPointExtension>
        </extensions>
      </trkpt>
      <trkpt lat="42.55922994576394557952880859375" lon="20.05637012422084808349609375">
        <ele>2196.199951171875</ele>
        <time>2026-06-19T11:37:15.000Z</time>
        <extensions>
          <ns3:TrackPointExtension>
            <ns3:atemp>18.0</ns3:atemp>
          </ns3:TrackPointExtension>
        </extensions>
      </trkpt>
      <trkpt lat="42.55922994576394557952880859375" lon="20.05637012422084808349609375">
        <ele>2196.199951171875</ele>
        <time>2026-06-19T11:37:16.000Z</time>
        <extensions>
          <ns3:TrackPointExtension>
            <ns3:atemp>18.0</ns3:atemp>
          </ns3:TrackPointExtension>
        </extensions>
      </trkpt>
      <trkpt lat="42.55922994576394557952880859375" lon="20.05637012422084808349609375">
        <ele>2196.199951171875</ele>
        <time>2026-06-19T11:37:17.000Z</time>
        <extensions>
          <ns3:TrackPointExtension>
            <ns3:atemp>18.0</ns3:atemp>
          </ns3:TrackPointExtension>
        </extensions>
      </trkpt>
      <trkpt lat="42.55922994576394557952880859375" lon="20.05637012422084808349609375">
        <ele>2196.199951171875</ele>
        <time>2026-06-19T11:37:18.000Z</time>
        <extensions>
          <ns3:TrackPointExtension>
            <ns3:atemp>18.0</ns3:atemp>
          </ns3:TrackPointExtension>
        </extensions>
      </trkpt>
      <trkpt lat="42.55922994576394557952880859375" lon="20.05637012422084808349609375">
        <ele>2196.199951171875</ele>
        <time>2026-06-19T11:37:19.000Z</time>
        <extensions>
          <ns3:TrackPointExtension>
            <ns3:atemp>18.0</ns3:atemp>
          </ns3:TrackPointExtension>
        </extensions>
      </trkpt>
      <trkpt lat="42.55922994576394557952880859375" lon="20.05637012422084808349609375">
        <ele>2196.199951171875</ele>
        <time>2026-06-19T11:37:20.000Z</time>
        <extensions>
          <ns3:TrackPointExtension>
            <ns3:atemp>18.0</ns3:atemp>
          </ns3:TrackPointExtension>
        </extensions>
      </trkpt>
      <trkpt lat="42.55922994576394557952880859375" lon="20.05637012422084808349609375">
        <ele>2196.199951171875</ele>
        <time>2026-06-19T11:37:21.000Z</time>
        <extensions>
          <ns3:TrackPointExtension>
            <ns3:atemp>18.0</ns3:atemp>
          </ns3:TrackPointExtension>
        </extensions>
      </trkpt>
      <trkpt lat="42.55922994576394557952880859375" lon="20.05637012422084808349609375">
        <ele>2196.199951171875</ele>
        <time>2026-06-19T11:37:22.000Z</time>
        <extensions>
          <ns3:TrackPointExtension>
            <ns3:atemp>18.0</ns3:atemp>
          </ns3:TrackPointExtension>
        </extensions>
      </trkpt>
      <trkpt lat="42.55922994576394557952880859375" lon="20.05637012422084808349609375">
        <ele>2196.199951171875</ele>
        <time>2026-06-19T11:37:23.000Z</time>
        <extensions>
          <ns3:TrackPointExtension>
            <ns3:atemp>18.0</ns3:atemp>
          </ns3:TrackPointExtension>
        </extensions>
      </trkpt>
      <trkpt lat="42.55922994576394557952880859375" lon="20.05637012422084808349609375">
        <ele>2196.199951171875</ele>
        <time>2026-06-19T11:37:24.000Z</time>
        <extensions>
          <ns3:TrackPointExtension>
            <ns3:atemp>18.0</ns3:atemp>
          </ns3:TrackPointExtension>
        </extensions>
      </trkpt>
      <trkpt lat="42.55922994576394557952880859375" lon="20.05637012422084808349609375">
        <ele>2196.199951171875</ele>
        <time>2026-06-19T11:37:25.000Z</time>
        <extensions>
          <ns3:TrackPointExtension>
            <ns3:atemp>17.0</ns3:atemp>
          </ns3:TrackPointExtension>
        </extensions>
      </trkpt>
      <trkpt lat="42.55922994576394557952880859375" lon="20.05637012422084808349609375">
        <ele>2196.199951171875</ele>
        <time>2026-06-19T11:37:26.000Z</time>
        <extensions>
          <ns3:TrackPointExtension>
            <ns3:atemp>17.0</ns3:atemp>
          </ns3:TrackPointExtension>
        </extensions>
      </trkpt>
      <trkpt lat="42.55922994576394557952880859375" lon="20.05637012422084808349609375">
        <ele>2196.199951171875</ele>
        <time>2026-06-19T11:37:27.000Z</time>
        <extensions>
          <ns3:TrackPointExtension>
            <ns3:atemp>18.0</ns3:atemp>
          </ns3:TrackPointExtension>
        </extensions>
      </trkpt>
      <trkpt lat="42.55922994576394557952880859375" lon="20.05637012422084808349609375">
        <ele>2196.199951171875</ele>
        <time>2026-06-19T11:37:28.000Z</time>
        <extensions>
          <ns3:TrackPointExtension>
            <ns3:atemp>17.0</ns3:atemp>
          </ns3:TrackPointExtension>
        </extensions>
      </trkpt>
      <trkpt lat="42.55922994576394557952880859375" lon="20.05637012422084808349609375">
        <ele>2196.199951171875</ele>
        <time>2026-06-19T11:37:29.000Z</time>
        <extensions>
          <ns3:TrackPointExtension>
            <ns3:atemp>17.0</ns3:atemp>
          </ns3:TrackPointExtension>
        </extensions>
      </trkpt>
      <trkpt lat="42.55922994576394557952880859375" lon="20.05637012422084808349609375">
        <ele>2196.199951171875</ele>
        <time>2026-06-19T11:37:30.000Z</time>
        <extensions>
          <ns3:TrackPointExtension>
            <ns3:atemp>17.0</ns3:atemp>
          </ns3:TrackPointExtension>
        </extensions>
      </trkpt>
      <trkpt lat="42.55922994576394557952880859375" lon="20.05637012422084808349609375">
        <ele>2196.199951171875</ele>
        <time>2026-06-19T11:37:31.000Z</time>
        <extensions>
          <ns3:TrackPointExtension>
            <ns3:atemp>17.0</ns3:atemp>
          </ns3:TrackPointExtension>
        </extensions>
      </trkpt>
      <trkpt lat="42.55922994576394557952880859375" lon="20.05637012422084808349609375">
        <ele>2196.199951171875</ele>
        <time>2026-06-19T11:37:32.000Z</time>
        <extensions>
          <ns3:TrackPointExtension>
            <ns3:atemp>17.0</ns3:atemp>
          </ns3:TrackPointExtension>
        </extensions>
      </trkpt>
      <trkpt lat="42.55922994576394557952880859375" lon="20.05637012422084808349609375">
        <ele>2196.199951171875</ele>
        <time>2026-06-19T11:37:33.000Z</time>
        <extensions>
          <ns3:TrackPointExtension>
            <ns3:atemp>17.0</ns3:atemp>
          </ns3:TrackPointExtension>
        </extensions>
      </trkpt>
      <trkpt lat="42.55922994576394557952880859375" lon="20.05637012422084808349609375">
        <ele>2196.199951171875</ele>
        <time>2026-06-19T11:37:34.000Z</time>
        <extensions>
          <ns3:TrackPointExtension>
            <ns3:atemp>17.0</ns3:atemp>
          </ns3:TrackPointExtension>
        </extensions>
      </trkpt>
      <trkpt lat="42.55922994576394557952880859375" lon="20.05637012422084808349609375">
        <ele>2196.199951171875</ele>
        <time>2026-06-19T11:37:35.000Z</time>
        <extensions>
          <ns3:TrackPointExtension>
            <ns3:atemp>17.0</ns3:atemp>
          </ns3:TrackPointExtension>
        </extensions>
      </trkpt>
      <trkpt lat="42.55922994576394557952880859375" lon="20.05637012422084808349609375">
        <ele>2196.199951171875</ele>
        <time>2026-06-19T11:37:36.000Z</time>
        <extensions>
          <ns3:TrackPointExtension>
            <ns3:atemp>17.0</ns3:atemp>
          </ns3:TrackPointExtension>
        </extensions>
      </trkpt>
      <trkpt lat="42.55922994576394557952880859375" lon="20.05637012422084808349609375">
        <ele>2196.199951171875</ele>
        <time>2026-06-19T11:37:37.000Z</time>
        <extensions>
          <ns3:TrackPointExtension>
            <ns3:atemp>17.0</ns3:atemp>
          </ns3:TrackPointExtension>
        </extensions>
      </trkpt>
      <trkpt lat="42.55922994576394557952880859375" lon="20.05637012422084808349609375">
        <ele>2196.199951171875</ele>
        <time>2026-06-19T11:37:38.000Z</time>
        <extensions>
          <ns3:TrackPointExtension>
            <ns3:atemp>17.0</ns3:atemp>
          </ns3:TrackPointExtension>
        </extensions>
      </trkpt>
      <trkpt lat="42.55922994576394557952880859375" lon="20.05637012422084808349609375">
        <ele>2196.199951171875</ele>
        <time>2026-06-19T11:37:39.000Z</time>
        <extensions>
          <ns3:TrackPointExtension>
            <ns3:atemp>17.0</ns3:atemp>
          </ns3:TrackPointExtension>
        </extensions>
      </trkpt>
      <trkpt lat="42.55922994576394557952880859375" lon="20.05637012422084808349609375">
        <ele>2196.199951171875</ele>
        <time>2026-06-19T11:37:40.000Z</time>
        <extensions>
          <ns3:TrackPointExtension>
            <ns3:atemp>17.0</ns3:atemp>
          </ns3:TrackPointExtension>
        </extensions>
      </trkpt>
      <trkpt lat="42.55922994576394557952880859375" lon="20.05637012422084808349609375">
        <ele>2196.199951171875</ele>
        <time>2026-06-19T11:37:41.000Z</time>
        <extensions>
          <ns3:TrackPointExtension>
            <ns3:atemp>17.0</ns3:atemp>
          </ns3:TrackPointExtension>
        </extensions>
      </trkpt>
      <trkpt lat="42.55922994576394557952880859375" lon="20.05637012422084808349609375">
        <ele>2196.199951171875</ele>
        <time>2026-06-19T11:37:42.000Z</time>
        <extensions>
          <ns3:TrackPointExtension>
            <ns3:atemp>17.0</ns3:atemp>
          </ns3:TrackPointExtension>
        </extensions>
      </trkpt>
      <trkpt lat="42.55922994576394557952880859375" lon="20.05637012422084808349609375">
        <ele>2196.199951171875</ele>
        <time>2026-06-19T11:37:43.000Z</time>
        <extensions>
          <ns3:TrackPointExtension>
            <ns3:atemp>17.0</ns3:atemp>
          </ns3:TrackPointExtension>
        </extensions>
      </trkpt>
      <trkpt lat="42.55922994576394557952880859375" lon="20.05637012422084808349609375">
        <ele>2196.199951171875</ele>
        <time>2026-06-19T11:37:44.000Z</time>
        <extensions>
          <ns3:TrackPointExtension>
            <ns3:atemp>17.0</ns3:atemp>
          </ns3:TrackPointExtension>
        </extensions>
      </trkpt>
      <trkpt lat="42.55922994576394557952880859375" lon="20.05637012422084808349609375">
        <ele>2196.199951171875</ele>
        <time>2026-06-19T11:37:45.000Z</time>
        <extensions>
          <ns3:TrackPointExtension>
            <ns3:atemp>17.0</ns3:atemp>
          </ns3:TrackPointExtension>
        </extensions>
      </trkpt>
      <trkpt lat="42.55922994576394557952880859375" lon="20.05637012422084808349609375">
        <ele>2196.199951171875</ele>
        <time>2026-06-19T11:37:46.000Z</time>
        <extensions>
          <ns3:TrackPointExtension>
            <ns3:atemp>17.0</ns3:atemp>
          </ns3:TrackPointExtension>
        </extensions>
      </trkpt>
      <trkpt lat="42.55922994576394557952880859375" lon="20.05637012422084808349609375">
        <ele>2196.199951171875</ele>
        <time>2026-06-19T11:37:47.000Z</time>
        <extensions>
          <ns3:TrackPointExtension>
            <ns3:atemp>18.0</ns3:atemp>
          </ns3:TrackPointExtension>
        </extensions>
      </trkpt>
      <trkpt lat="42.55922994576394557952880859375" lon="20.05637012422084808349609375">
        <ele>2196.199951171875</ele>
        <time>2026-06-19T11:37:48.000Z</time>
        <extensions>
          <ns3:TrackPointExtension>
            <ns3:atemp>17.0</ns3:atemp>
          </ns3:TrackPointExtension>
        </extensions>
      </trkpt>
      <trkpt lat="42.55922994576394557952880859375" lon="20.05637012422084808349609375">
        <ele>2196.199951171875</ele>
        <time>2026-06-19T11:37:49.000Z</time>
        <extensions>
          <ns3:TrackPointExtension>
            <ns3:atemp>17.0</ns3:atemp>
          </ns3:TrackPointExtension>
        </extensions>
      </trkpt>
      <trkpt lat="42.55922994576394557952880859375" lon="20.05637012422084808349609375">
        <ele>2196.199951171875</ele>
        <time>2026-06-19T11:37:50.000Z</time>
        <extensions>
          <ns3:TrackPointExtension>
            <ns3:atemp>17.0</ns3:atemp>
          </ns3:TrackPointExtension>
        </extensions>
      </trkpt>
      <trkpt lat="42.55922994576394557952880859375" lon="20.05637012422084808349609375">
        <ele>2196.199951171875</ele>
        <time>2026-06-19T11:37:51.000Z</time>
        <extensions>
          <ns3:TrackPointExtension>
            <ns3:atemp>17.0</ns3:atemp>
          </ns3:TrackPointExtension>
        </extensions>
      </trkpt>
      <trkpt lat="42.55922994576394557952880859375" lon="20.05637012422084808349609375">
        <ele>2196.199951171875</ele>
        <time>2026-06-19T11:37:52.000Z</time>
        <extensions>
          <ns3:TrackPointExtension>
            <ns3:atemp>17.0</ns3:atemp>
          </ns3:TrackPointExtension>
        </extensions>
      </trkpt>
      <trkpt lat="42.55922994576394557952880859375" lon="20.05637012422084808349609375">
        <ele>2196.199951171875</ele>
        <time>2026-06-19T11:37:53.000Z</time>
        <extensions>
          <ns3:TrackPointExtension>
            <ns3:atemp>17.0</ns3:atemp>
          </ns3:TrackPointExtension>
        </extensions>
      </trkpt>
      <trkpt lat="42.55922994576394557952880859375" lon="20.05637012422084808349609375">
        <ele>2196.199951171875</ele>
        <time>2026-06-19T11:37:54.000Z</time>
        <extensions>
          <ns3:TrackPointExtension>
            <ns3:atemp>17.0</ns3:atemp>
          </ns3:TrackPointExtension>
        </extensions>
      </trkpt>
      <trkpt lat="42.55922994576394557952880859375" lon="20.05637012422084808349609375">
        <ele>2196.199951171875</ele>
        <time>2026-06-19T11:37:55.000Z</time>
        <extensions>
          <ns3:TrackPointExtension>
            <ns3:atemp>17.0</ns3:atemp>
          </ns3:TrackPointExtension>
        </extensions>
      </trkpt>
      <trkpt lat="42.55922994576394557952880859375" lon="20.05637012422084808349609375">
        <ele>2196.199951171875</ele>
        <time>2026-06-19T11:37:56.000Z</time>
        <extensions>
          <ns3:TrackPointExtension>
            <ns3:atemp>17.0</ns3:atemp>
          </ns3:TrackPointExtension>
        </extensions>
      </trkpt>
      <trkpt lat="42.55922994576394557952880859375" lon="20.05637012422084808349609375">
        <ele>2196.199951171875</ele>
        <time>2026-06-19T11:37:57.000Z</time>
        <extensions>
          <ns3:TrackPointExtension>
            <ns3:atemp>17.0</ns3:atemp>
          </ns3:TrackPointExtension>
        </extensions>
      </trkpt>
      <trkpt lat="42.55922994576394557952880859375" lon="20.05637012422084808349609375">
        <ele>2196.199951171875</ele>
        <time>2026-06-19T11:37:58.000Z</time>
        <extensions>
          <ns3:TrackPointExtension>
            <ns3:atemp>17.0</ns3:atemp>
          </ns3:TrackPointExtension>
        </extensions>
      </trkpt>
      <trkpt lat="42.55922994576394557952880859375" lon="20.05637012422084808349609375">
        <ele>2196.199951171875</ele>
        <time>2026-06-19T11:37:59.000Z</time>
        <extensions>
          <ns3:TrackPointExtension>
            <ns3:atemp>17.0</ns3:atemp>
          </ns3:TrackPointExtension>
        </extensions>
      </trkpt>
      <trkpt lat="42.55922994576394557952880859375" lon="20.05637012422084808349609375">
        <ele>2196.199951171875</ele>
        <time>2026-06-19T11:38:00.000Z</time>
        <extensions>
          <ns3:TrackPointExtension>
            <ns3:atemp>17.0</ns3:atemp>
          </ns3:TrackPointExtension>
        </extensions>
      </trkpt>
      <trkpt lat="42.55922994576394557952880859375" lon="20.05637012422084808349609375">
        <ele>2196.199951171875</ele>
        <time>2026-06-19T11:38:01.000Z</time>
        <extensions>
          <ns3:TrackPointExtension>
            <ns3:atemp>17.0</ns3:atemp>
          </ns3:TrackPointExtension>
        </extensions>
      </trkpt>
      <trkpt lat="42.55922994576394557952880859375" lon="20.05637012422084808349609375">
        <ele>2196.199951171875</ele>
        <time>2026-06-19T11:38:02.000Z</time>
        <extensions>
          <ns3:TrackPointExtension>
            <ns3:atemp>17.0</ns3:atemp>
          </ns3:TrackPointExtension>
        </extensions>
      </trkpt>
      <trkpt lat="42.55922994576394557952880859375" lon="20.05637012422084808349609375">
        <ele>2196.199951171875</ele>
        <time>2026-06-19T11:38:03.000Z</time>
        <extensions>
          <ns3:TrackPointExtension>
            <ns3:atemp>17.0</ns3:atemp>
          </ns3:TrackPointExtension>
        </extensions>
      </trkpt>
      <trkpt lat="42.55922994576394557952880859375" lon="20.05637012422084808349609375">
        <ele>2196.199951171875</ele>
        <time>2026-06-19T11:38:04.000Z</time>
        <extensions>
          <ns3:TrackPointExtension>
            <ns3:atemp>17.0</ns3:atemp>
          </ns3:TrackPointExtension>
        </extensions>
      </trkpt>
      <trkpt lat="42.55922994576394557952880859375" lon="20.05637012422084808349609375">
        <ele>2196.199951171875</ele>
        <time>2026-06-19T11:38:05.000Z</time>
        <extensions>
          <ns3:TrackPointExtension>
            <ns3:atemp>17.0</ns3:atemp>
          </ns3:TrackPointExtension>
        </extensions>
      </trkpt>
      <trkpt lat="42.55922994576394557952880859375" lon="20.05637012422084808349609375">
        <ele>2196.199951171875</ele>
        <time>2026-06-19T11:38:06.000Z</time>
        <extensions>
          <ns3:TrackPointExtension>
            <ns3:atemp>17.0</ns3:atemp>
          </ns3:TrackPointExtension>
        </extensions>
      </trkpt>
      <trkpt lat="42.55922994576394557952880859375" lon="20.05637012422084808349609375">
        <ele>2196.199951171875</ele>
        <time>2026-06-19T11:38:07.000Z</time>
        <extensions>
          <ns3:TrackPointExtension>
            <ns3:atemp>17.0</ns3:atemp>
          </ns3:TrackPointExtension>
        </extensions>
      </trkpt>
      <trkpt lat="42.55922994576394557952880859375" lon="20.05637012422084808349609375">
        <ele>2196.199951171875</ele>
        <time>2026-06-19T11:38:08.000Z</time>
        <extensions>
          <ns3:TrackPointExtension>
            <ns3:atemp>17.0</ns3:atemp>
          </ns3:TrackPointExtension>
        </extensions>
      </trkpt>
      <trkpt lat="42.55922994576394557952880859375" lon="20.05637012422084808349609375">
        <ele>2196.199951171875</ele>
        <time>2026-06-19T11:38:09.000Z</time>
        <extensions>
          <ns3:TrackPointExtension>
            <ns3:atemp>17.0</ns3:atemp>
          </ns3:TrackPointExtension>
        </extensions>
      </trkpt>
      <trkpt lat="42.55922994576394557952880859375" lon="20.05637012422084808349609375">
        <ele>2196.199951171875</ele>
        <time>2026-06-19T11:38:10.000Z</time>
        <extensions>
          <ns3:TrackPointExtension>
            <ns3:atemp>17.0</ns3:atemp>
          </ns3:TrackPointExtension>
        </extensions>
      </trkpt>
      <trkpt lat="42.55922994576394557952880859375" lon="20.05637012422084808349609375">
        <ele>2196.199951171875</ele>
        <time>2026-06-19T11:38:11.000Z</time>
        <extensions>
          <ns3:TrackPointExtension>
            <ns3:atemp>17.0</ns3:atemp>
          </ns3:TrackPointExtension>
        </extensions>
      </trkpt>
      <trkpt lat="42.5592308677732944488525390625" lon="20.05636769346892833709716796875">
        <ele>2196.199951171875</ele>
        <time>2026-06-19T11:38:12.000Z</time>
        <extensions>
          <ns3:TrackPointExtension>
            <ns3:atemp>17.0</ns3:atemp>
          </ns3:TrackPointExtension>
        </extensions>
      </trkpt>
      <trkpt lat="42.55922944284975528717041015625" lon="20.05636970512568950653076171875">
        <ele>2196.199951171875</ele>
        <time>2026-06-19T11:38:13.000Z</time>
        <extensions>
          <ns3:TrackPointExtension>
            <ns3:atemp>17.0</ns3:atemp>
          </ns3:TrackPointExtension>
        </extensions>
      </trkpt>
      <trkpt lat="42.55922575481235980987548828125" lon="20.0563796795904636383056640625">
        <ele>2196.199951171875</ele>
        <time>2026-06-19T11:38:14.000Z</time>
        <extensions>
          <ns3:TrackPointExtension>
            <ns3:atemp>17.0</ns3:atemp>
          </ns3:TrackPointExtension>
        </extensions>
      </trkpt>
      <trkpt lat="42.5592218153178691864013671875" lon="20.056386888027191162109375">
        <ele>2196.199951171875</ele>
        <time>2026-06-19T11:38:15.000Z</time>
        <extensions>
          <ns3:TrackPointExtension>
            <ns3:atemp>17.0</ns3:atemp>
          </ns3:TrackPointExtension>
        </extensions>
      </trkpt>
      <trkpt lat="42.5592167861759662628173828125" lon="20.0563927553594112396240234375">
        <ele>2195.800048828125</ele>
        <time>2026-06-19T11:38:16.000Z</time>
        <extensions>
          <ns3:TrackPointExtension>
            <ns3:atemp>17.0</ns3:atemp>
          </ns3:TrackPointExtension>
        </extensions>
      </trkpt>
      <trkpt lat="42.5592152774333953857421875" lon="20.05639216862618923187255859375">
        <ele>2196</ele>
        <time>2026-06-19T11:38:17.000Z</time>
        <extensions>
          <ns3:TrackPointExtension>
            <ns3:atemp>17.0</ns3:atemp>
          </ns3:TrackPointExtension>
        </extensions>
      </trkpt>
      <trkpt lat="42.5592152774333953857421875" lon="20.05639216862618923187255859375">
        <ele>2196.199951171875</ele>
        <time>2026-06-19T11:38:18.000Z</time>
        <extensions>
          <ns3:TrackPointExtension>
            <ns3:atemp>17.0</ns3:atemp>
          </ns3:TrackPointExtension>
        </extensions>
      </trkpt>
      <trkpt lat="42.5592152774333953857421875" lon="20.05639216862618923187255859375">
        <ele>2196.199951171875</ele>
        <time>2026-06-19T11:38:19.000Z</time>
        <extensions>
          <ns3:TrackPointExtension>
            <ns3:atemp>17.0</ns3:atemp>
          </ns3:TrackPointExtension>
        </extensions>
      </trkpt>
      <trkpt lat="42.5592152774333953857421875" lon="20.05639216862618923187255859375">
        <ele>2196.39990234375</ele>
        <time>2026-06-19T11:38:20.000Z</time>
        <extensions>
          <ns3:TrackPointExtension>
            <ns3:atemp>17.0</ns3:atemp>
          </ns3:TrackPointExtension>
        </extensions>
      </trkpt>
      <trkpt lat="42.5592152774333953857421875" lon="20.05639216862618923187255859375">
        <ele>2196.39990234375</ele>
        <time>2026-06-19T11:38:21.000Z</time>
        <extensions>
          <ns3:TrackPointExtension>
            <ns3:atemp>17.0</ns3:atemp>
          </ns3:TrackPointExtension>
        </extensions>
      </trkpt>
      <trkpt lat="42.5592152774333953857421875" lon="20.05639216862618923187255859375">
        <ele>2196.39990234375</ele>
        <time>2026-06-19T11:38:22.000Z</time>
        <extensions>
          <ns3:TrackPointExtension>
            <ns3:atemp>17.0</ns3:atemp>
          </ns3:TrackPointExtension>
        </extensions>
      </trkpt>
      <trkpt lat="42.5592152774333953857421875" lon="20.05639216862618923187255859375">
        <ele>2196.39990234375</ele>
        <time>2026-06-19T11:38:23.000Z</time>
        <extensions>
          <ns3:TrackPointExtension>
            <ns3:atemp>17.0</ns3:atemp>
          </ns3:TrackPointExtension>
        </extensions>
      </trkpt>
      <trkpt lat="42.5592152774333953857421875" lon="20.05639216862618923187255859375">
        <ele>2196.39990234375</ele>
        <time>2026-06-19T11:38:24.000Z</time>
        <extensions>
          <ns3:TrackPointExtension>
            <ns3:atemp>17.0</ns3:atemp>
          </ns3:TrackPointExtension>
        </extensions>
      </trkpt>
      <trkpt lat="42.5592152774333953857421875" lon="20.05639216862618923187255859375">
        <ele>2196.39990234375</ele>
        <time>2026-06-19T11:38:25.000Z</time>
        <extensions>
          <ns3:TrackPointExtension>
            <ns3:atemp>17.0</ns3:atemp>
          </ns3:TrackPointExtension>
        </extensions>
      </trkpt>
      <trkpt lat="42.5592152774333953857421875" lon="20.05639216862618923187255859375">
        <ele>2196.39990234375</ele>
        <time>2026-06-19T11:38:26.000Z</time>
        <extensions>
          <ns3:TrackPointExtension>
            <ns3:atemp>17.0</ns3:atemp>
          </ns3:TrackPointExtension>
        </extensions>
      </trkpt>
      <trkpt lat="42.5592152774333953857421875" lon="20.05639216862618923187255859375">
        <ele>2196.39990234375</ele>
        <time>2026-06-19T11:38:27.000Z</time>
        <extensions>
          <ns3:TrackPointExtension>
            <ns3:atemp>17.0</ns3:atemp>
          </ns3:TrackPointExtension>
        </extensions>
      </trkpt>
      <trkpt lat="42.5592152774333953857421875" lon="20.05639216862618923187255859375">
        <ele>2196.39990234375</ele>
        <time>2026-06-19T11:38:28.000Z</time>
        <extensions>
          <ns3:TrackPointExtension>
            <ns3:atemp>17.0</ns3:atemp>
          </ns3:TrackPointExtension>
        </extensions>
      </trkpt>
      <trkpt lat="42.5592152774333953857421875" lon="20.05639216862618923187255859375">
        <ele>2196.199951171875</ele>
        <time>2026-06-19T11:38:29.000Z</time>
        <extensions>
          <ns3:TrackPointExtension>
            <ns3:atemp>17.0</ns3:atemp>
          </ns3:TrackPointExtension>
        </extensions>
      </trkpt>
      <trkpt lat="42.5592152774333953857421875" lon="20.05639216862618923187255859375">
        <ele>2196.199951171875</ele>
        <time>2026-06-19T11:38:30.000Z</time>
        <extensions>
          <ns3:TrackPointExtension>
            <ns3:atemp>17.0</ns3:atemp>
          </ns3:TrackPointExtension>
        </extensions>
      </trkpt>
      <trkpt lat="42.5592152774333953857421875" lon="20.05639216862618923187255859375">
        <ele>2196.199951171875</ele>
        <time>2026-06-19T11:38:31.000Z</time>
        <extensions>
          <ns3:TrackPointExtension>
            <ns3:atemp>17.0</ns3:atemp>
          </ns3:TrackPointExtension>
        </extensions>
      </trkpt>
      <trkpt lat="42.5592152774333953857421875" lon="20.05639216862618923187255859375">
        <ele>2196.199951171875</ele>
        <time>2026-06-19T11:38:32.000Z</time>
        <extensions>
          <ns3:TrackPointExtension>
            <ns3:atemp>17.0</ns3:atemp>
          </ns3:TrackPointExtension>
        </extensions>
      </trkpt>
      <trkpt lat="42.5592152774333953857421875" lon="20.05639216862618923187255859375">
        <ele>2196.199951171875</ele>
        <time>2026-06-19T11:38:33.000Z</time>
        <extensions>
          <ns3:TrackPointExtension>
            <ns3:atemp>17.0</ns3:atemp>
          </ns3:TrackPointExtension>
        </extensions>
      </trkpt>
      <trkpt lat="42.5592152774333953857421875" lon="20.05639216862618923187255859375">
        <ele>2196.199951171875</ele>
        <time>2026-06-19T11:38:34.000Z</time>
        <extensions>
          <ns3:TrackPointExtension>
            <ns3:atemp>17.0</ns3:atemp>
          </ns3:TrackPointExtension>
        </extensions>
      </trkpt>
      <trkpt lat="42.5592152774333953857421875" lon="20.05639216862618923187255859375">
        <ele>2196.199951171875</ele>
        <time>2026-06-19T11:38:35.000Z</time>
        <extensions>
          <ns3:TrackPointExtension>
            <ns3:atemp>17.0</ns3:atemp>
          </ns3:TrackPointExtension>
        </extensions>
      </trkpt>
      <trkpt lat="42.5592152774333953857421875" lon="20.05639216862618923187255859375">
        <ele>2196.199951171875</ele>
        <time>2026-06-19T11:38:36.000Z</time>
        <extensions>
          <ns3:TrackPointExtension>
            <ns3:atemp>17.0</ns3:atemp>
          </ns3:TrackPointExtension>
        </extensions>
      </trkpt>
      <trkpt lat="42.5592152774333953857421875" lon="20.05639216862618923187255859375">
        <ele>2196.199951171875</ele>
        <time>2026-06-19T11:38:37.000Z</time>
        <extensions>
          <ns3:TrackPointExtension>
            <ns3:atemp>17.0</ns3:atemp>
          </ns3:TrackPointExtension>
        </extensions>
      </trkpt>
      <trkpt lat="42.5592152774333953857421875" lon="20.05639216862618923187255859375">
        <ele>2196.199951171875</ele>
        <time>2026-06-19T11:38:38.000Z</time>
        <extensions>
          <ns3:TrackPointExtension>
            <ns3:atemp>17.0</ns3:atemp>
          </ns3:TrackPointExtension>
        </extensions>
      </trkpt>
      <trkpt lat="42.5592152774333953857421875" lon="20.05639216862618923187255859375">
        <ele>2196.199951171875</ele>
        <time>2026-06-19T11:38:39.000Z</time>
        <extensions>
          <ns3:TrackPointExtension>
            <ns3:atemp>17.0</ns3:atemp>
          </ns3:TrackPointExtension>
        </extensions>
      </trkpt>
      <trkpt lat="42.5592152774333953857421875" lon="20.05639216862618923187255859375">
        <ele>2196.199951171875</ele>
        <time>2026-06-19T11:38:40.000Z</time>
        <extensions>
          <ns3:TrackPointExtension>
            <ns3:atemp>17.0</ns3:atemp>
          </ns3:TrackPointExtension>
        </extensions>
      </trkpt>
      <trkpt lat="42.5592152774333953857421875" lon="20.05639216862618923187255859375">
        <ele>2196.199951171875</ele>
        <time>2026-06-19T11:38:41.000Z</time>
        <extensions>
          <ns3:TrackPointExtension>
            <ns3:atemp>17.0</ns3:atemp>
          </ns3:TrackPointExtension>
        </extensions>
      </trkpt>
      <trkpt lat="42.5592152774333953857421875" lon="20.05639216862618923187255859375">
        <ele>2196.199951171875</ele>
        <time>2026-06-19T11:38:42.000Z</time>
        <extensions>
          <ns3:TrackPointExtension>
            <ns3:atemp>17.0</ns3:atemp>
          </ns3:TrackPointExtension>
        </extensions>
      </trkpt>
      <trkpt lat="42.5592152774333953857421875" lon="20.05639216862618923187255859375">
        <ele>2196.199951171875</ele>
        <time>2026-06-19T11:38:43.000Z</time>
        <extensions>
          <ns3:TrackPointExtension>
            <ns3:atemp>17.0</ns3:atemp>
          </ns3:TrackPointExtension>
        </extensions>
      </trkpt>
      <trkpt lat="42.5592152774333953857421875" lon="20.05639216862618923187255859375">
        <ele>2196.199951171875</ele>
        <time>2026-06-19T11:38:44.000Z</time>
        <extensions>
          <ns3:TrackPointExtension>
            <ns3:atemp>17.0</ns3:atemp>
          </ns3:TrackPointExtension>
        </extensions>
      </trkpt>
      <trkpt lat="42.5592152774333953857421875" lon="20.05639216862618923187255859375">
        <ele>2196.199951171875</ele>
        <time>2026-06-19T11:38:45.000Z</time>
        <extensions>
          <ns3:TrackPointExtension>
            <ns3:atemp>17.0</ns3:atemp>
          </ns3:TrackPointExtension>
        </extensions>
      </trkpt>
      <trkpt lat="42.5592152774333953857421875" lon="20.05639216862618923187255859375">
        <ele>2196.199951171875</ele>
        <time>2026-06-19T11:38:46.000Z</time>
        <extensions>
          <ns3:TrackPointExtension>
            <ns3:atemp>17.0</ns3:atemp>
          </ns3:TrackPointExtension>
        </extensions>
      </trkpt>
      <trkpt lat="42.5592152774333953857421875" lon="20.05639216862618923187255859375">
        <ele>2196.199951171875</ele>
        <time>2026-06-19T11:38:47.000Z</time>
        <extensions>
          <ns3:TrackPointExtension>
            <ns3:atemp>17.0</ns3:atemp>
          </ns3:TrackPointExtension>
        </extensions>
      </trkpt>
      <trkpt lat="42.5592152774333953857421875" lon="20.05639216862618923187255859375">
        <ele>2196.199951171875</ele>
        <time>2026-06-19T11:38:48.000Z</time>
        <extensions>
          <ns3:TrackPointExtension>
            <ns3:atemp>17.0</ns3:atemp>
          </ns3:TrackPointExtension>
        </extensions>
      </trkpt>
      <trkpt lat="42.5592152774333953857421875" lon="20.05639216862618923187255859375">
        <ele>2196</ele>
        <time>2026-06-19T11:38:49.000Z</time>
        <extensions>
          <ns3:TrackPointExtension>
            <ns3:atemp>17.0</ns3:atemp>
          </ns3:TrackPointExtension>
        </extensions>
      </trkpt>
      <trkpt lat="42.5592152774333953857421875" lon="20.05639216862618923187255859375">
        <ele>2196</ele>
        <time>2026-06-19T11:38:50.000Z</time>
        <extensions>
          <ns3:TrackPointExtension>
            <ns3:atemp>17.0</ns3:atemp>
          </ns3:TrackPointExtension>
        </extensions>
      </trkpt>
      <trkpt lat="42.5592152774333953857421875" lon="20.05639216862618923187255859375">
        <ele>2196</ele>
        <time>2026-06-19T11:38:51.000Z</time>
        <extensions>
          <ns3:TrackPointExtension>
            <ns3:atemp>17.0</ns3:atemp>
          </ns3:TrackPointExtension>
        </extensions>
      </trkpt>
      <trkpt lat="42.5592152774333953857421875" lon="20.05639216862618923187255859375">
        <ele>2196</ele>
        <time>2026-06-19T11:38:52.000Z</time>
        <extensions>
          <ns3:TrackPointExtension>
            <ns3:atemp>17.0</ns3:atemp>
          </ns3:TrackPointExtension>
        </extensions>
      </trkpt>
      <trkpt lat="42.5592152774333953857421875" lon="20.05639216862618923187255859375">
        <ele>2196</ele>
        <time>2026-06-19T11:38:53.000Z</time>
        <extensions>
          <ns3:TrackPointExtension>
            <ns3:atemp>17.0</ns3:atemp>
          </ns3:TrackPointExtension>
        </extensions>
      </trkpt>
      <trkpt lat="42.5592152774333953857421875" lon="20.05639216862618923187255859375">
        <ele>2196</ele>
        <time>2026-06-19T11:38:54.000Z</time>
        <extensions>
          <ns3:TrackPointExtension>
            <ns3:atemp>17.0</ns3:atemp>
          </ns3:TrackPointExtension>
        </extensions>
      </trkpt>
      <trkpt lat="42.5592152774333953857421875" lon="20.05639216862618923187255859375">
        <ele>2196</ele>
        <time>2026-06-19T11:38:55.000Z</time>
        <extensions>
          <ns3:TrackPointExtension>
            <ns3:atemp>17.0</ns3:atemp>
          </ns3:TrackPointExtension>
        </extensions>
      </trkpt>
      <trkpt lat="42.5592152774333953857421875" lon="20.05639216862618923187255859375">
        <ele>2196</ele>
        <time>2026-06-19T11:38:56.000Z</time>
        <extensions>
          <ns3:TrackPointExtension>
            <ns3:atemp>17.0</ns3:atemp>
          </ns3:TrackPointExtension>
        </extensions>
      </trkpt>
      <trkpt lat="42.5592152774333953857421875" lon="20.05639216862618923187255859375">
        <ele>2196</ele>
        <time>2026-06-19T11:38:57.000Z</time>
        <extensions>
          <ns3:TrackPointExtension>
            <ns3:atemp>17.0</ns3:atemp>
          </ns3:TrackPointExtension>
        </extensions>
      </trkpt>
      <trkpt lat="42.5592152774333953857421875" lon="20.05639216862618923187255859375">
        <ele>2196</ele>
        <time>2026-06-19T11:38:58.000Z</time>
        <extensions>
          <ns3:TrackPointExtension>
            <ns3:atemp>17.0</ns3:atemp>
          </ns3:TrackPointExtension>
        </extensions>
      </trkpt>
      <trkpt lat="42.5592152774333953857421875" lon="20.05639216862618923187255859375">
        <ele>2196</ele>
        <time>2026-06-19T11:38:59.000Z</time>
        <extensions>
          <ns3:TrackPointExtension>
            <ns3:atemp>17.0</ns3:atemp>
          </ns3:TrackPointExtension>
        </extensions>
      </trkpt>
      <trkpt lat="42.5592152774333953857421875" lon="20.05639216862618923187255859375">
        <ele>2196</ele>
        <time>2026-06-19T11:39:00.000Z</time>
        <extensions>
          <ns3:TrackPointExtension>
            <ns3:atemp>17.0</ns3:atemp>
          </ns3:TrackPointExtension>
        </extensions>
      </trkpt>
      <trkpt lat="42.5592152774333953857421875" lon="20.05639216862618923187255859375">
        <ele>2196</ele>
        <time>2026-06-19T11:39:01.000Z</time>
        <extensions>
          <ns3:TrackPointExtension>
            <ns3:atemp>17.0</ns3:atemp>
          </ns3:TrackPointExtension>
        </extensions>
      </trkpt>
      <trkpt lat="42.5592152774333953857421875" lon="20.05639216862618923187255859375">
        <ele>2196</ele>
        <time>2026-06-19T11:39:02.000Z</time>
        <extensions>
          <ns3:TrackPointExtension>
            <ns3:atemp>17.0</ns3:atemp>
          </ns3:TrackPointExtension>
        </extensions>
      </trkpt>
      <trkpt lat="42.5592152774333953857421875" lon="20.05639216862618923187255859375">
        <ele>2196</ele>
        <time>2026-06-19T11:39:03.000Z</time>
        <extensions>
          <ns3:TrackPointExtension>
            <ns3:atemp>17.0</ns3:atemp>
          </ns3:TrackPointExtension>
        </extensions>
      </trkpt>
      <trkpt lat="42.5592152774333953857421875" lon="20.05639216862618923187255859375">
        <ele>2196.199951171875</ele>
        <time>2026-06-19T11:39:04.000Z</time>
        <extensions>
          <ns3:TrackPointExtension>
            <ns3:atemp>17.0</ns3:atemp>
          </ns3:TrackPointExtension>
        </extensions>
      </trkpt>
      <trkpt lat="42.5592152774333953857421875" lon="20.05639216862618923187255859375">
        <ele>2196.199951171875</ele>
        <time>2026-06-19T11:39:05.000Z</time>
        <extensions>
          <ns3:TrackPointExtension>
            <ns3:atemp>17.0</ns3:atemp>
          </ns3:TrackPointExtension>
        </extensions>
      </trkpt>
      <trkpt lat="42.5592152774333953857421875" lon="20.05639216862618923187255859375">
        <ele>2196.199951171875</ele>
        <time>2026-06-19T11:39:06.000Z</time>
        <extensions>
          <ns3:TrackPointExtension>
            <ns3:atemp>17.0</ns3:atemp>
          </ns3:TrackPointExtension>
        </extensions>
      </trkpt>
      <trkpt lat="42.5592152774333953857421875" lon="20.05639216862618923187255859375">
        <ele>2196.199951171875</ele>
        <time>2026-06-19T11:39:07.000Z</time>
        <extensions>
          <ns3:TrackPointExtension>
            <ns3:atemp>17.0</ns3:atemp>
          </ns3:TrackPointExtension>
        </extensions>
      </trkpt>
      <trkpt lat="42.5592152774333953857421875" lon="20.05639216862618923187255859375">
        <ele>2196.199951171875</ele>
        <time>2026-06-19T11:39:08.000Z</time>
        <extensions>
          <ns3:TrackPointExtension>
            <ns3:atemp>17.0</ns3:atemp>
          </ns3:TrackPointExtension>
        </extensions>
      </trkpt>
      <trkpt lat="42.5592152774333953857421875" lon="20.05639216862618923187255859375">
        <ele>2196.199951171875</ele>
        <time>2026-06-19T11:39:09.000Z</time>
        <extensions>
          <ns3:TrackPointExtension>
            <ns3:atemp>17.0</ns3:atemp>
          </ns3:TrackPointExtension>
        </extensions>
      </trkpt>
      <trkpt lat="42.5592152774333953857421875" lon="20.05639216862618923187255859375">
        <ele>2196.199951171875</ele>
        <time>2026-06-19T11:39:10.000Z</time>
        <extensions>
          <ns3:TrackPointExtension>
            <ns3:atemp>17.0</ns3:atemp>
          </ns3:TrackPointExtension>
        </extensions>
      </trkpt>
      <trkpt lat="42.5592152774333953857421875" lon="20.05639216862618923187255859375">
        <ele>2196.199951171875</ele>
        <time>2026-06-19T11:39:11.000Z</time>
        <extensions>
          <ns3:TrackPointExtension>
            <ns3:atemp>17.0</ns3:atemp>
          </ns3:TrackPointExtension>
        </extensions>
      </trkpt>
      <trkpt lat="42.5592152774333953857421875" lon="20.05639216862618923187255859375">
        <ele>2196.199951171875</ele>
        <time>2026-06-19T11:39:12.000Z</time>
        <extensions>
          <ns3:TrackPointExtension>
            <ns3:atemp>17.0</ns3:atemp>
          </ns3:TrackPointExtension>
        </extensions>
      </trkpt>
      <trkpt lat="42.55921519361436367034912109375" lon="20.05639317445456981658935546875">
        <ele>2196.199951171875</ele>
        <time>2026-06-19T11:39:13.000Z</time>
        <extensions>
          <ns3:TrackPointExtension>
            <ns3:atemp>17.0</ns3:atemp>
          </ns3:TrackPointExtension>
        </extensions>
      </trkpt>
      <trkpt lat="42.55921737290918827056884765625" lon="20.056411363184452056884765625">
        <ele>2196.199951171875</ele>
        <time>2026-06-19T11:39:14.000Z</time>
        <extensions>
          <ns3:TrackPointExtension>
            <ns3:atemp>17.0</ns3:atemp>
          </ns3:TrackPointExtension>
        </extensions>
      </trkpt>
      <trkpt lat="42.5592107512056827545166015625" lon="20.05643189884722232818603515625">
        <ele>2196.199951171875</ele>
        <time>2026-06-19T11:39:15.000Z</time>
        <extensions>
          <ns3:TrackPointExtension>
            <ns3:atemp>17.0</ns3:atemp>
          </ns3:TrackPointExtension>
        </extensions>
      </trkpt>
      <trkpt lat="42.55919323302805423736572265625" lon="20.0564557872712612152099609375">
        <ele>2196</ele>
        <time>2026-06-19T11:39:16.000Z</time>
        <extensions>
          <ns3:TrackPointExtension>
            <ns3:atemp>17.0</ns3:atemp>
          </ns3:TrackPointExtension>
        </extensions>
      </trkpt>
      <trkpt lat="42.5591671653091907501220703125" lon="20.0564812682569026947021484375">
        <ele>2196</ele>
        <time>2026-06-19T11:39:17.000Z</time>
        <extensions>
          <ns3:TrackPointExtension>
            <ns3:atemp>17.0</ns3:atemp>
          </ns3:TrackPointExtension>
        </extensions>
      </trkpt>
      <trkpt lat="42.5591517426073551177978515625" lon="20.056536085903644561767578125">
        <ele>2195.60009765625</ele>
        <time>2026-06-19T11:39:18.000Z</time>
        <extensions>
          <ns3:TrackPointExtension>
            <ns3:atemp>17.0</ns3:atemp>
          </ns3:TrackPointExtension>
        </extensions>
      </trkpt>
      <trkpt lat="42.55914025940001010894775390625" lon="20.05660892464220523834228515625">
        <ele>2195.199951171875</ele>
        <time>2026-06-19T11:39:19.000Z</time>
        <extensions>
          <ns3:TrackPointExtension>
            <ns3:atemp>17.0</ns3:atemp>
          </ns3:TrackPointExtension>
        </extensions>
      </trkpt>
      <trkpt lat="42.55912500433623790740966796875" lon="20.0566958449780941009521484375">
        <ele>2194.60009765625</ele>
        <time>2026-06-19T11:39:20.000Z</time>
        <extensions>
          <ns3:TrackPointExtension>
            <ns3:atemp>17.0</ns3:atemp>
          </ns3:TrackPointExtension>
        </extensions>
      </trkpt>
      <trkpt lat="42.55911041982471942901611328125" lon="20.0567930750548839569091796875">
        <ele>2194</ele>
        <time>2026-06-19T11:39:21.000Z</time>
        <extensions>
          <ns3:TrackPointExtension>
            <ns3:atemp>17.0</ns3:atemp>
          </ns3:TrackPointExtension>
        </extensions>
      </trkpt>
      <trkpt lat="42.55909197963774204254150390625" lon="20.05689977668225765228271484375">
        <ele>2192.800048828125</ele>
        <time>2026-06-19T11:39:22.000Z</time>
        <extensions>
          <ns3:TrackPointExtension>
            <ns3:atemp>17.0</ns3:atemp>
          </ns3:TrackPointExtension>
        </extensions>
      </trkpt>
      <trkpt lat="42.55907203070819377899169921875" lon="20.05700605921447277069091796875">
        <ele>2191.800048828125</ele>
        <time>2026-06-19T11:39:23.000Z</time>
        <extensions>
          <ns3:TrackPointExtension>
            <ns3:atemp>17.0</ns3:atemp>
          </ns3:TrackPointExtension>
        </extensions>
      </trkpt>
      <trkpt lat="42.55905124358832836151123046875" lon="20.05711083300411701202392578125">
        <ele>2191</ele>
        <time>2026-06-19T11:39:24.000Z</time>
        <extensions>
          <ns3:TrackPointExtension>
            <ns3:atemp>17.0</ns3:atemp>
          </ns3:TrackPointExtension>
        </extensions>
      </trkpt>
      <trkpt lat="42.5590283609926700592041015625" lon="20.0572121702134609222412109375">
        <ele>2190</ele>
        <time>2026-06-19T11:39:25.000Z</time>
        <extensions>
          <ns3:TrackPointExtension>
            <ns3:atemp>17.0</ns3:atemp>
          </ns3:TrackPointExtension>
        </extensions>
      </trkpt>
      <trkpt lat="42.559003047645092010498046875" lon="20.0573097355663776397705078125">
        <ele>2189.199951171875</ele>
        <time>2026-06-19T11:39:26.000Z</time>
        <extensions>
          <ns3:TrackPointExtension>
            <ns3:atemp>17.0</ns3:atemp>
          </ns3:TrackPointExtension>
        </extensions>
      </trkpt>
      <trkpt lat="42.5589733757078647613525390625" lon="20.0574150122702121734619140625">
        <ele>2188.39990234375</ele>
        <time>2026-06-19T11:39:27.000Z</time>
        <extensions>
          <ns3:TrackPointExtension>
            <ns3:atemp>17.0</ns3:atemp>
          </ns3:TrackPointExtension>
        </extensions>
      </trkpt>
      <trkpt lat="42.558947391808032989501953125" lon="20.05752624012529850006103515625">
        <ele>2188</ele>
        <time>2026-06-19T11:39:28.000Z</time>
        <extensions>
          <ns3:TrackPointExtension>
            <ns3:atemp>17.0</ns3:atemp>
          </ns3:TrackPointExtension>
        </extensions>
      </trkpt>
      <trkpt lat="42.55891763605177402496337890625" lon="20.057652890682220458984375">
        <ele>2186.800048828125</ele>
        <time>2026-06-19T11:39:29.000Z</time>
        <extensions>
          <ns3:TrackPointExtension>
            <ns3:atemp>17.0</ns3:atemp>
          </ns3:TrackPointExtension>
        </extensions>
      </trkpt>
      <trkpt lat="42.55889316089451313018798828125" lon="20.05777853541076183319091796875">
        <ele>2185.800048828125</ele>
        <time>2026-06-19T11:39:30.000Z</time>
        <extensions>
          <ns3:TrackPointExtension>
            <ns3:atemp>17.0</ns3:atemp>
          </ns3:TrackPointExtension>
        </extensions>
      </trkpt>
      <trkpt lat="42.55888444371521472930908203125" lon="20.0579009950160980224609375">
        <ele>2184.800048828125</ele>
        <time>2026-06-19T11:39:31.000Z</time>
        <extensions>
          <ns3:TrackPointExtension>
            <ns3:atemp>17.0</ns3:atemp>
          </ns3:TrackPointExtension>
        </extensions>
      </trkpt>
      <trkpt lat="42.5588855333626270294189453125" lon="20.05801155231893062591552734375">
        <ele>2183.800048828125</ele>
        <time>2026-06-19T11:39:32.000Z</time>
        <extensions>
          <ns3:TrackPointExtension>
            <ns3:atemp>17.0</ns3:atemp>
          </ns3:TrackPointExtension>
        </extensions>
      </trkpt>
      <trkpt lat="42.55889408290386199951171875" lon="20.058115236461162567138671875">
        <ele>2183</ele>
        <time>2026-06-19T11:39:33.000Z</time>
        <extensions>
          <ns3:TrackPointExtension>
            <ns3:atemp>17.0</ns3:atemp>
          </ns3:TrackPointExtension>
        </extensions>
      </trkpt>
      <trkpt lat="42.5589001178741455078125" lon="20.05821808241307735443115234375">
        <ele>2182.800048828125</ele>
        <time>2026-06-19T11:39:34.000Z</time>
        <extensions>
          <ns3:TrackPointExtension>
            <ns3:atemp>17.0</ns3:atemp>
          </ns3:TrackPointExtension>
        </extensions>
      </trkpt>
      <trkpt lat="42.558906488120555877685546875" lon="20.05831011570990085601806640625">
        <ele>2182.199951171875</ele>
        <time>2026-06-19T11:39:35.000Z</time>
        <extensions>
          <ns3:TrackPointExtension>
            <ns3:atemp>17.0</ns3:atemp>
          </ns3:TrackPointExtension>
        </extensions>
      </trkpt>
      <trkpt lat="42.5589147023856639862060546875" lon="20.0583940185606479644775390625">
        <ele>2182.199951171875</ele>
        <time>2026-06-19T11:39:36.000Z</time>
        <extensions>
          <ns3:TrackPointExtension>
            <ns3:atemp>17.0</ns3:atemp>
          </ns3:TrackPointExtension>
        </extensions>
      </trkpt>
      <trkpt lat="42.5589190609753131866455078125" lon="20.0584721378982067108154296875">
        <ele>2182.199951171875</ele>
        <time>2026-06-19T11:39:37.000Z</time>
        <extensions>
          <ns3:TrackPointExtension>
            <ns3:atemp>17.0</ns3:atemp>
          </ns3:TrackPointExtension>
        </extensions>
      </trkpt>
      <trkpt lat="42.5589190609753131866455078125" lon="20.05853600800037384033203125">
        <ele>2182</ele>
        <time>2026-06-19T11:39:38.000Z</time>
        <extensions>
          <ns3:TrackPointExtension>
            <ns3:atemp>17.0</ns3:atemp>
          </ns3:TrackPointExtension>
        </extensions>
      </trkpt>
      <trkpt lat="42.558913864195346832275390625" lon="20.0585871376097202301025390625">
        <ele>2182.199951171875</ele>
        <time>2026-06-19T11:39:39.000Z</time>
        <extensions>
          <ns3:TrackPointExtension>
            <ns3:atemp>17.0</ns3:atemp>
          </ns3:TrackPointExtension>
        </extensions>
      </trkpt>
      <trkpt lat="42.55890573374927043914794921875" lon="20.0586290471255779266357421875">
        <ele>2182.39990234375</ele>
        <time>2026-06-19T11:39:40.000Z</time>
        <extensions>
          <ns3:TrackPointExtension>
            <ns3:atemp>17.0</ns3:atemp>
          </ns3:TrackPointExtension>
        </extensions>
      </trkpt>
      <trkpt lat="42.55890355445444583892822265625" lon="20.05866743624210357666015625">
        <ele>2182.60009765625</ele>
        <time>2026-06-19T11:39:41.000Z</time>
        <extensions>
          <ns3:TrackPointExtension>
            <ns3:atemp>17.0</ns3:atemp>
          </ns3:TrackPointExtension>
        </extensions>
      </trkpt>
      <trkpt lat="42.55889953114092350006103515625" lon="20.05870230495929718017578125">
        <ele>2182.800048828125</ele>
        <time>2026-06-19T11:39:42.000Z</time>
        <extensions>
          <ns3:TrackPointExtension>
            <ns3:atemp>17.0</ns3:atemp>
          </ns3:TrackPointExtension>
        </extensions>
      </trkpt>
      <trkpt lat="42.55889651365578174591064453125" lon="20.0587420351803302764892578125">
        <ele>2183.199951171875</ele>
        <time>2026-06-19T11:39:43.000Z</time>
        <extensions>
          <ns3:TrackPointExtension>
            <ns3:atemp>17.0</ns3:atemp>
          </ns3:TrackPointExtension>
        </extensions>
      </trkpt>
      <trkpt lat="42.5588895566761493682861328125" lon="20.05878604017198085784912109375">
        <ele>2183.39990234375</ele>
        <time>2026-06-19T11:39:44.000Z</time>
        <extensions>
          <ns3:TrackPointExtension>
            <ns3:atemp>17.0</ns3:atemp>
          </ns3:TrackPointExtension>
        </extensions>
      </trkpt>
      <trkpt lat="42.55887798964977264404296875" lon="20.05883415229618549346923828125">
        <ele>2183.39990234375</ele>
        <time>2026-06-19T11:39:45.000Z</time>
        <extensions>
          <ns3:TrackPointExtension>
            <ns3:atemp>17.0</ns3:atemp>
          </ns3:TrackPointExtension>
        </extensions>
      </trkpt>
      <trkpt lat="42.55886415950953960418701171875" lon="20.05887924693524837493896484375">
        <ele>2183.60009765625</ele>
        <time>2026-06-19T11:39:46.000Z</time>
        <extensions>
          <ns3:TrackPointExtension>
            <ns3:atemp>17.0</ns3:atemp>
          </ns3:TrackPointExtension>
        </extensions>
      </trkpt>
      <trkpt lat="42.5588566996157169342041015625" lon="20.058926604688167572021484375">
        <ele>2183.39990234375</ele>
        <time>2026-06-19T11:39:47.000Z</time>
        <extensions>
          <ns3:TrackPointExtension>
            <ns3:atemp>17.0</ns3:atemp>
          </ns3:TrackPointExtension>
        </extensions>
      </trkpt>
      <trkpt lat="42.5588506646454334259033203125" lon="20.058974884450435638427734375">
        <ele>2183.199951171875</ele>
        <time>2026-06-19T11:39:48.000Z</time>
        <extensions>
          <ns3:TrackPointExtension>
            <ns3:atemp>17.0</ns3:atemp>
          </ns3:TrackPointExtension>
        </extensions>
      </trkpt>
      <trkpt lat="42.5588463060557842254638671875" lon="20.05902282893657684326171875">
        <ele>2183</ele>
        <time>2026-06-19T11:39:49.000Z</time>
        <extensions>
          <ns3:TrackPointExtension>
            <ns3:atemp>17.0</ns3:atemp>
          </ns3:TrackPointExtension>
        </extensions>
      </trkpt>
      <trkpt lat="42.55884136073291301727294921875" lon="20.0590712763369083404541015625">
        <ele>2182.800048828125</ele>
        <time>2026-06-19T11:39:50.000Z</time>
        <extensions>
          <ns3:TrackPointExtension>
            <ns3:atemp>17.0</ns3:atemp>
          </ns3:TrackPointExtension>
        </extensions>
      </trkpt>
      <trkpt lat="42.55883415229618549346923828125" lon="20.05912475287914276123046875">
        <ele>2182.800048828125</ele>
        <time>2026-06-19T11:39:51.000Z</time>
        <extensions>
          <ns3:TrackPointExtension>
            <ns3:atemp>17.0</ns3:atemp>
          </ns3:TrackPointExtension>
        </extensions>
      </trkpt>
      <trkpt lat="42.55882426165044307708740234375" lon="20.05917395465075969696044921875">
        <ele>2182.60009765625</ele>
        <time>2026-06-19T11:39:52.000Z</time>
        <extensions>
          <ns3:TrackPointExtension>
            <ns3:atemp>17.0</ns3:atemp>
          </ns3:TrackPointExtension>
        </extensions>
      </trkpt>
      <trkpt lat="42.55881227552890777587890625" lon="20.05922131240367889404296875">
        <ele>2182.60009765625</ele>
        <time>2026-06-19T11:39:53.000Z</time>
        <extensions>
          <ns3:TrackPointExtension>
            <ns3:atemp>17.0</ns3:atemp>
          </ns3:TrackPointExtension>
        </extensions>
      </trkpt>
      <trkpt lat="42.55880615673959255218505859375" lon="20.05926422774791717529296875">
        <ele>2182.60009765625</ele>
        <time>2026-06-19T11:39:54.000Z</time>
        <extensions>
          <ns3:TrackPointExtension>
            <ns3:atemp>17.0</ns3:atemp>
          </ns3:TrackPointExtension>
        </extensions>
      </trkpt>
      <trkpt lat="42.558799199759960174560546875" lon="20.059298090636730194091796875">
        <ele>2182.800048828125</ele>
        <time>2026-06-19T11:39:55.000Z</time>
        <extensions>
          <ns3:TrackPointExtension>
            <ns3:atemp>17.0</ns3:atemp>
          </ns3:TrackPointExtension>
        </extensions>
      </trkpt>
      <trkpt lat="42.55878821946680545806884765625" lon="20.05932860076427459716796875">
        <ele>2182.800048828125</ele>
        <time>2026-06-19T11:39:56.000Z</time>
        <extensions>
          <ns3:TrackPointExtension>
            <ns3:atemp>17.0</ns3:atemp>
          </ns3:TrackPointExtension>
        </extensions>
      </trkpt>
      <trkpt lat="42.5587805919349193572998046875" lon="20.0593653135001659393310546875">
        <ele>2183</ele>
        <time>2026-06-19T11:39:57.000Z</time>
        <extensions>
          <ns3:TrackPointExtension>
            <ns3:atemp>17.0</ns3:atemp>
          </ns3:TrackPointExtension>
        </extensions>
      </trkpt>
      <trkpt lat="42.55877212621271610260009765625" lon="20.05940546281635761260986328125">
        <ele>2183</ele>
        <time>2026-06-19T11:39:58.000Z</time>
        <extensions>
          <ns3:TrackPointExtension>
            <ns3:atemp>17.0</ns3:atemp>
          </ns3:TrackPointExtension>
        </extensions>
      </trkpt>
      <trkpt lat="42.55876240320503711700439453125" lon="20.0594447739422321319580078125">
        <ele>2183.199951171875</ele>
        <time>2026-06-19T11:39:59.000Z</time>
        <extensions>
          <ns3:TrackPointExtension>
            <ns3:atemp>17.0</ns3:atemp>
          </ns3:TrackPointExtension>
        </extensions>
      </trkpt>
      <trkpt lat="42.5587539374828338623046875" lon="20.05948358215391635894775390625">
        <ele>2183.199951171875</ele>
        <time>2026-06-19T11:40:00.000Z</time>
        <extensions>
          <ns3:TrackPointExtension>
            <ns3:atemp>17.0</ns3:atemp>
          </ns3:TrackPointExtension>
        </extensions>
      </trkpt>
      <trkpt lat="42.5587458908557891845703125" lon="20.05952096544206142425537109375">
        <ele>2183</ele>
        <time>2026-06-19T11:40:01.000Z</time>
        <extensions>
          <ns3:TrackPointExtension>
            <ns3:atemp>17.0</ns3:atemp>
          </ns3:TrackPointExtension>
        </extensions>
      </trkpt>
      <trkpt lat="42.558739520609378814697265625" lon="20.05955499596893787384033203125">
        <ele>2183</ele>
        <time>2026-06-19T11:40:02.000Z</time>
        <extensions>
          <ns3:TrackPointExtension>
            <ns3:atemp>17.0</ns3:atemp>
          </ns3:TrackPointExtension>
        </extensions>
      </trkpt>
      <trkpt lat="42.55873038433492183685302734375" lon="20.059599839150905609130859375">
        <ele>2183</ele>
        <time>2026-06-19T11:40:03.000Z</time>
        <extensions>
          <ns3:TrackPointExtension>
            <ns3:atemp>17.0</ns3:atemp>
          </ns3:TrackPointExtension>
        </extensions>
      </trkpt>
      <trkpt lat="42.55871898494660854339599609375" lon="20.05965474061667919158935546875">
        <ele>2182.800048828125</ele>
        <time>2026-06-19T11:40:04.000Z</time>
        <extensions>
          <ns3:TrackPointExtension>
            <ns3:atemp>17.0</ns3:atemp>
          </ns3:TrackPointExtension>
        </extensions>
      </trkpt>
      <trkpt lat="42.55871278233826160430908203125" lon="20.059717185795307159423828125">
        <ele>2182.60009765625</ele>
        <time>2026-06-19T11:40:05.000Z</time>
        <extensions>
          <ns3:TrackPointExtension>
            <ns3:atemp>17.0</ns3:atemp>
          </ns3:TrackPointExtension>
        </extensions>
      </trkpt>
      <trkpt lat="42.558708004653453826904296875" lon="20.05978315137326717376708984375">
        <ele>2182.199951171875</ele>
        <time>2026-06-19T11:40:06.000Z</time>
        <extensions>
          <ns3:TrackPointExtension>
            <ns3:atemp>17.0</ns3:atemp>
          </ns3:TrackPointExtension>
        </extensions>
      </trkpt>
      <trkpt lat="42.55870096385478973388671875" lon="20.05984685383737087249755859375">
        <ele>2181.800048828125</ele>
        <time>2026-06-19T11:40:07.000Z</time>
        <extensions>
          <ns3:TrackPointExtension>
            <ns3:atemp>17.0</ns3:atemp>
          </ns3:TrackPointExtension>
        </extensions>
      </trkpt>
      <trkpt lat="42.55869165994226932525634765625" lon="20.05990049801766872406005859375">
        <ele>2181.39990234375</ele>
        <time>2026-06-19T11:40:08.000Z</time>
        <extensions>
          <ns3:TrackPointExtension>
            <ns3:atemp>17.0</ns3:atemp>
          </ns3:TrackPointExtension>
        </extensions>
      </trkpt>
      <trkpt lat="42.55868294276297092437744140625" lon="20.0599416531622409820556640625">
        <ele>2181</ele>
        <time>2026-06-19T11:40:09.000Z</time>
        <extensions>
          <ns3:TrackPointExtension>
            <ns3:atemp>17.0</ns3:atemp>
          </ns3:TrackPointExtension>
        </extensions>
      </trkpt>
      <trkpt lat="42.55867891944944858551025390625" lon="20.059978701174259185791015625">
        <ele>2181</ele>
        <time>2026-06-19T11:40:10.000Z</time>
        <extensions>
          <ns3:TrackPointExtension>
            <ns3:atemp>17.0</ns3:atemp>
          </ns3:TrackPointExtension>
        </extensions>
      </trkpt>
      <trkpt lat="42.55867280066013336181640625" lon="20.0600147433578968048095703125">
        <ele>2181</ele>
        <time>2026-06-19T11:40:11.000Z</time>
        <extensions>
          <ns3:TrackPointExtension>
            <ns3:atemp>17.0</ns3:atemp>
          </ns3:TrackPointExtension>
        </extensions>
      </trkpt>
      <trkpt lat="42.5586642511188983917236328125" lon="20.06005204282701015472412109375">
        <ele>2181</ele>
        <time>2026-06-19T11:40:12.000Z</time>
        <extensions>
          <ns3:TrackPointExtension>
            <ns3:atemp>17.0</ns3:atemp>
          </ns3:TrackPointExtension>
        </extensions>
      </trkpt>
      <trkpt lat="42.558654360473155975341796875" lon="20.0600905157625675201416015625">
        <ele>2181.199951171875</ele>
        <time>2026-06-19T11:40:13.000Z</time>
        <extensions>
          <ns3:TrackPointExtension>
            <ns3:atemp>17.0</ns3:atemp>
          </ns3:TrackPointExtension>
        </extensions>
      </trkpt>
      <trkpt lat="42.55864840932190418243408203125" lon="20.060127563774585723876953125">
        <ele>2181.39990234375</ele>
        <time>2026-06-19T11:40:14.000Z</time>
        <extensions>
          <ns3:TrackPointExtension>
            <ns3:atemp>17.0</ns3:atemp>
          </ns3:TrackPointExtension>
        </extensions>
      </trkpt>
      <trkpt lat="42.55864597856998443603515625" lon="20.06016469560563564300537109375">
        <ele>2181.60009765625</ele>
        <time>2026-06-19T11:40:15.000Z</time>
        <extensions>
          <ns3:TrackPointExtension>
            <ns3:atemp>17.0</ns3:atemp>
          </ns3:TrackPointExtension>
        </extensions>
      </trkpt>
      <trkpt lat="42.55863868631422519683837890625" lon="20.06019939668476581573486328125">
        <ele>2181.800048828125</ele>
        <time>2026-06-19T11:40:16.000Z</time>
        <extensions>
          <ns3:TrackPointExtension>
            <ns3:atemp>17.0</ns3:atemp>
          </ns3:TrackPointExtension>
        </extensions>
      </trkpt>
      <trkpt lat="42.5586334057152271270751953125" lon="20.06023250520229339599609375">
        <ele>2182</ele>
        <time>2026-06-19T11:40:17.000Z</time>
        <extensions>
          <ns3:TrackPointExtension>
            <ns3:atemp>17.0</ns3:atemp>
          </ns3:TrackPointExtension>
        </extensions>
      </trkpt>
      <trkpt lat="42.5586280412971973419189453125" lon="20.060264356434345245361328125">
        <ele>2182.199951171875</ele>
        <time>2026-06-19T11:40:18.000Z</time>
        <extensions>
          <ns3:TrackPointExtension>
            <ns3:atemp>17.0</ns3:atemp>
          </ns3:TrackPointExtension>
        </extensions>
      </trkpt>
      <trkpt lat="42.55862259306013584136962890625" lon="20.06029595620930194854736328125">
        <ele>2182.39990234375</ele>
        <time>2026-06-19T11:40:19.000Z</time>
        <extensions>
          <ns3:TrackPointExtension>
            <ns3:atemp>17.0</ns3:atemp>
          </ns3:TrackPointExtension>
        </extensions>
      </trkpt>
      <trkpt lat="42.5586171448230743408203125" lon="20.0603295676410198211669921875">
        <ele>2182.60009765625</ele>
        <time>2026-06-19T11:40:20.000Z</time>
        <extensions>
          <ns3:TrackPointExtension>
            <ns3:atemp>17.0</ns3:atemp>
          </ns3:TrackPointExtension>
        </extensions>
      </trkpt>
      <trkpt lat="42.55861152894794940948486328125" lon="20.06036519072949886322021484375">
        <ele>2182.800048828125</ele>
        <time>2026-06-19T11:40:21.000Z</time>
        <extensions>
          <ns3:TrackPointExtension>
            <ns3:atemp>17.0</ns3:atemp>
          </ns3:TrackPointExtension>
        </extensions>
      </trkpt>
      <trkpt lat="42.5586055777966976165771484375" lon="20.06039855070412158966064453125">
        <ele>2182.800048828125</ele>
        <time>2026-06-19T11:40:22.000Z</time>
        <extensions>
          <ns3:TrackPointExtension>
            <ns3:atemp>17.0</ns3:atemp>
          </ns3:TrackPointExtension>
        </extensions>
      </trkpt>
      <trkpt lat="42.5585992075502872467041015625" lon="20.0604341737926006317138671875">
        <ele>2183</ele>
        <time>2026-06-19T11:40:23.000Z</time>
        <extensions>
          <ns3:TrackPointExtension>
            <ns3:atemp>17.0</ns3:atemp>
          </ns3:TrackPointExtension>
        </extensions>
      </trkpt>
      <trkpt lat="42.55859778262674808502197265625" lon="20.06046610884368419647216796875">
        <ele>2183.199951171875</ele>
        <time>2026-06-19T11:40:24.000Z</time>
        <extensions>
          <ns3:TrackPointExtension>
            <ns3:atemp>16.0</ns3:atemp>
          </ns3:TrackPointExtension>
        </extensions>
      </trkpt>
      <trkpt lat="42.5585997104644775390625" lon="20.0604968704283237457275390625">
        <ele>2183.199951171875</ele>
        <time>2026-06-19T11:40:25.000Z</time>
        <extensions>
          <ns3:TrackPointExtension>
            <ns3:atemp>17.0</ns3:atemp>
          </ns3:TrackPointExtension>
        </extensions>
      </trkpt>
      <trkpt lat="42.5586035661399364471435546875" lon="20.06052310578525066375732421875">
        <ele>2183.39990234375</ele>
        <time>2026-06-19T11:40:26.000Z</time>
        <extensions>
          <ns3:TrackPointExtension>
            <ns3:atemp>16.0</ns3:atemp>
          </ns3:TrackPointExtension>
        </extensions>
      </trkpt>
      <trkpt lat="42.558604739606380462646484375" lon="20.06054724566638469696044921875">
        <ele>2183.60009765625</ele>
        <time>2026-06-19T11:40:27.000Z</time>
        <extensions>
          <ns3:TrackPointExtension>
            <ns3:atemp>16.0</ns3:atemp>
          </ns3:TrackPointExtension>
        </extensions>
      </trkpt>
      <trkpt lat="42.55860230885446071624755859375" lon="20.06056778132915496826171875">
        <ele>2183.60009765625</ele>
        <time>2026-06-19T11:40:28.000Z</time>
        <extensions>
          <ns3:TrackPointExtension>
            <ns3:atemp>17.0</ns3:atemp>
          </ns3:TrackPointExtension>
        </extensions>
      </trkpt>
      <trkpt lat="42.558602727949619293212890625" lon="20.06058580242097377777099609375">
        <ele>2183.800048828125</ele>
        <time>2026-06-19T11:40:29.000Z</time>
        <extensions>
          <ns3:TrackPointExtension>
            <ns3:atemp>17.0</ns3:atemp>
          </ns3:TrackPointExtension>
        </extensions>
      </trkpt>
      <trkpt lat="42.55859979428350925445556640625" lon="20.06060709245502948760986328125">
        <ele>2184</ele>
        <time>2026-06-19T11:40:30.000Z</time>
        <extensions>
          <ns3:TrackPointExtension>
            <ns3:atemp>16.0</ns3:atemp>
          </ns3:TrackPointExtension>
        </extensions>
      </trkpt>
      <trkpt lat="42.5585975311696529388427734375" lon="20.06063391454517841339111328125">
        <ele>2184.199951171875</ele>
        <time>2026-06-19T11:40:31.000Z</time>
        <extensions>
          <ns3:TrackPointExtension>
            <ns3:atemp>17.0</ns3:atemp>
          </ns3:TrackPointExtension>
        </extensions>
      </trkpt>
      <trkpt lat="42.55859711207449436187744140625" lon="20.06066626869142055511474609375">
        <ele>2184.39990234375</ele>
        <time>2026-06-19T11:40:32.000Z</time>
        <extensions>
          <ns3:TrackPointExtension>
            <ns3:atemp>16.0</ns3:atemp>
          </ns3:TrackPointExtension>
        </extensions>
      </trkpt>
      <trkpt lat="42.55859577096998691558837890625" lon="20.0606943480670452117919921875">
        <ele>2184.60009765625</ele>
        <time>2026-06-19T11:40:33.000Z</time>
        <extensions>
          <ns3:TrackPointExtension>
            <ns3:atemp>16.0</ns3:atemp>
          </ns3:TrackPointExtension>
        </extensions>
      </trkpt>
      <trkpt lat="42.5585925020277500152587890625" lon="20.0607184879481792449951171875">
        <ele>2184.800048828125</ele>
        <time>2026-06-19T11:40:34.000Z</time>
        <extensions>
          <ns3:TrackPointExtension>
            <ns3:atemp>16.0</ns3:atemp>
          </ns3:TrackPointExtension>
        </extensions>
      </trkpt>
      <trkpt lat="42.55858638323843479156494140625" lon="20.06074405275285243988037109375">
        <ele>2185</ele>
        <time>2026-06-19T11:40:35.000Z</time>
        <extensions>
          <ns3:TrackPointExtension>
            <ns3:atemp>16.0</ns3:atemp>
          </ns3:TrackPointExtension>
        </extensions>
      </trkpt>
      <trkpt lat="42.55858453921973705291748046875" lon="20.060771293938159942626953125">
        <ele>2185.199951171875</ele>
        <time>2026-06-19T11:40:36.000Z</time>
        <extensions>
          <ns3:TrackPointExtension>
            <ns3:atemp>16.0</ns3:atemp>
          </ns3:TrackPointExtension>
        </extensions>
      </trkpt>
      <trkpt lat="42.5585811026394367218017578125" lon="20.06080021150410175323486328125">
        <ele>2185.60009765625</ele>
        <time>2026-06-19T11:40:37.000Z</time>
        <extensions>
          <ns3:TrackPointExtension>
            <ns3:atemp>16.0</ns3:atemp>
          </ns3:TrackPointExtension>
        </extensions>
      </trkpt>
      <trkpt lat="42.55857917480170726776123046875" lon="20.060829631984233856201171875">
        <ele>2185.800048828125</ele>
        <time>2026-06-19T11:40:38.000Z</time>
        <extensions>
          <ns3:TrackPointExtension>
            <ns3:atemp>16.0</ns3:atemp>
          </ns3:TrackPointExtension>
        </extensions>
      </trkpt>
      <trkpt lat="42.558578588068485260009765625" lon="20.06085335277020931243896484375">
        <ele>2186.199951171875</ele>
        <time>2026-06-19T11:40:39.000Z</time>
        <extensions>
          <ns3:TrackPointExtension>
            <ns3:atemp>16.0</ns3:atemp>
          </ns3:TrackPointExtension>
        </extensions>
      </trkpt>
      <trkpt lat="42.5585777498781681060791015625" lon="20.0608753971755504608154296875">
        <ele>2186.60009765625</ele>
        <time>2026-06-19T11:40:40.000Z</time>
        <extensions>
          <ns3:TrackPointExtension>
            <ns3:atemp>16.0</ns3:atemp>
          </ns3:TrackPointExtension>
        </extensions>
      </trkpt>
      <trkpt lat="42.55858118645846843719482421875" lon="20.0608956813812255859375">
        <ele>2187</ele>
        <time>2026-06-19T11:40:41.000Z</time>
        <extensions>
          <ns3:TrackPointExtension>
            <ns3:atemp>16.0</ns3:atemp>
          </ns3:TrackPointExtension>
        </extensions>
      </trkpt>
      <trkpt lat="42.55858604796230792999267578125" lon="20.060920156538486480712890625">
        <ele>2187.199951171875</ele>
        <time>2026-06-19T11:40:42.000Z</time>
        <extensions>
          <ns3:TrackPointExtension>
            <ns3:atemp>16.0</ns3:atemp>
          </ns3:TrackPointExtension>
        </extensions>
      </trkpt>
      <trkpt lat="42.55858655087649822235107421875" lon="20.06094337441027164459228515625">
        <ele>2187.60009765625</ele>
        <time>2026-06-19T11:40:43.000Z</time>
        <extensions>
          <ns3:TrackPointExtension>
            <ns3:atemp>16.0</ns3:atemp>
          </ns3:TrackPointExtension>
        </extensions>
      </trkpt>
      <trkpt lat="42.55858671851456165313720703125" lon="20.06096634082496166229248046875">
        <ele>2188</ele>
        <time>2026-06-19T11:40:44.000Z</time>
        <extensions>
          <ns3:TrackPointExtension>
            <ns3:atemp>16.0</ns3:atemp>
          </ns3:TrackPointExtension>
        </extensions>
      </trkpt>
      <trkpt lat="42.55858168937265872955322265625" lon="20.06098964251577854156494140625">
        <ele>2188.39990234375</ele>
        <time>2026-06-19T11:40:45.000Z</time>
        <extensions>
          <ns3:TrackPointExtension>
            <ns3:atemp>16.0</ns3:atemp>
          </ns3:TrackPointExtension>
        </extensions>
      </trkpt>
      <trkpt lat="42.5585747323930263519287109375" lon="20.06101244129240512847900390625">
        <ele>2188.800048828125</ele>
        <time>2026-06-19T11:40:46.000Z</time>
        <extensions>
          <ns3:TrackPointExtension>
            <ns3:atemp>16.0</ns3:atemp>
          </ns3:TrackPointExtension>
        </extensions>
      </trkpt>
      <trkpt lat="42.55856140516698360443115234375" lon="20.06103004328906536102294921875">
        <ele>2189.199951171875</ele>
        <time>2026-06-19T11:40:47.000Z</time>
        <extensions>
          <ns3:TrackPointExtension>
            <ns3:atemp>16.0</ns3:atemp>
          </ns3:TrackPointExtension>
        </extensions>
      </trkpt>
      <trkpt lat="42.558548413217067718505859375" lon="20.06104923784732818603515625">
        <ele>2189.60009765625</ele>
        <time>2026-06-19T11:40:48.000Z</time>
        <extensions>
          <ns3:TrackPointExtension>
            <ns3:atemp>16.0</ns3:atemp>
          </ns3:TrackPointExtension>
        </extensions>
      </trkpt>
      <trkpt lat="42.5585361756384372711181640625" lon="20.06106801331043243408203125">
        <ele>2190.199951171875</ele>
        <time>2026-06-19T11:40:49.000Z</time>
        <extensions>
          <ns3:TrackPointExtension>
            <ns3:atemp>16.0</ns3:atemp>
          </ns3:TrackPointExtension>
        </extensions>
      </trkpt>
      <trkpt lat="42.55852452479302883148193359375" lon="20.0610792450606822967529296875">
        <ele>2190.60009765625</ele>
        <time>2026-06-19T11:40:50.000Z</time>
        <extensions>
          <ns3:TrackPointExtension>
            <ns3:atemp>16.0</ns3:atemp>
          </ns3:TrackPointExtension>
        </extensions>
      </trkpt>
      <trkpt lat="42.55851664580404758453369140625" lon="20.06109441630542278289794921875">
        <ele>2191</ele>
        <time>2026-06-19T11:40:51.000Z</time>
        <extensions>
          <ns3:TrackPointExtension>
            <ns3:atemp>16.0</ns3:atemp>
          </ns3:TrackPointExtension>
        </extensions>
      </trkpt>
      <trkpt lat="42.5585076771676540374755859375" lon="20.06111637689173221588134765625">
        <ele>2191.39990234375</ele>
        <time>2026-06-19T11:40:52.000Z</time>
        <extensions>
          <ns3:TrackPointExtension>
            <ns3:atemp>16.0</ns3:atemp>
          </ns3:TrackPointExtension>
        </extensions>
      </trkpt>
      <trkpt lat="42.55850139074027538299560546875" lon="20.06113775074481964111328125">
        <ele>2191.60009765625</ele>
        <time>2026-06-19T11:40:53.000Z</time>
        <extensions>
          <ns3:TrackPointExtension>
            <ns3:atemp>16.0</ns3:atemp>
          </ns3:TrackPointExtension>
        </extensions>
      </trkpt>
      <trkpt lat="42.5584946013987064361572265625" lon="20.061162896454334259033203125">
        <ele>2191.800048828125</ele>
        <time>2026-06-19T11:40:54.000Z</time>
        <extensions>
          <ns3:TrackPointExtension>
            <ns3:atemp>16.0</ns3:atemp>
          </ns3:TrackPointExtension>
        </extensions>
      </trkpt>
      <trkpt lat="42.5584912486374378204345703125" lon="20.0611878745257854461669921875">
        <ele>2192</ele>
        <time>2026-06-19T11:40:55.000Z</time>
        <extensions>
          <ns3:TrackPointExtension>
            <ns3:atemp>16.0</ns3:atemp>
          </ns3:TrackPointExtension>
        </extensions>
      </trkpt>
      <trkpt lat="42.55848898552358150482177734375" lon="20.06121419370174407958984375">
        <ele>2192</ele>
        <time>2026-06-19T11:40:56.000Z</time>
        <extensions>
          <ns3:TrackPointExtension>
            <ns3:atemp>16.0</ns3:atemp>
          </ns3:TrackPointExtension>
        </extensions>
      </trkpt>
      <trkpt lat="42.55848965607583522796630859375" lon="20.06123724393546581268310546875">
        <ele>2192</ele>
        <time>2026-06-19T11:40:57.000Z</time>
        <extensions>
          <ns3:TrackPointExtension>
            <ns3:atemp>16.0</ns3:atemp>
          </ns3:TrackPointExtension>
        </extensions>
      </trkpt>
      <trkpt lat="42.5584946013987064361572265625" lon="20.06126440130174160003662109375">
        <ele>2191.800048828125</ele>
        <time>2026-06-19T11:40:58.000Z</time>
        <extensions>
          <ns3:TrackPointExtension>
            <ns3:atemp>16.0</ns3:atemp>
          </ns3:TrackPointExtension>
        </extensions>
      </trkpt>
      <trkpt lat="42.5584999658167362213134765625" lon="20.061288960278034210205078125">
        <ele>2191.60009765625</ele>
        <time>2026-06-19T11:40:59.000Z</time>
        <extensions>
          <ns3:TrackPointExtension>
            <ns3:atemp>16.0</ns3:atemp>
          </ns3:TrackPointExtension>
        </extensions>
      </trkpt>
      <trkpt lat="42.5585060007870197296142578125" lon="20.06130647845566272735595703125">
        <ele>2191.39990234375</ele>
        <time>2026-06-19T11:41:00.000Z</time>
        <extensions>
          <ns3:TrackPointExtension>
            <ns3:atemp>16.0</ns3:atemp>
          </ns3:TrackPointExtension>
        </extensions>
      </trkpt>
      <trkpt lat="42.5585127063095569610595703125" lon="20.0613256730139255523681640625">
        <ele>2191.199951171875</ele>
        <time>2026-06-19T11:41:01.000Z</time>
        <extensions>
          <ns3:TrackPointExtension>
            <ns3:atemp>16.0</ns3:atemp>
          </ns3:TrackPointExtension>
        </extensions>
      </trkpt>
      <trkpt lat="42.5585180707275867462158203125" lon="20.061344616115093231201171875">
        <ele>2191</ele>
        <time>2026-06-19T11:41:02.000Z</time>
        <extensions>
          <ns3:TrackPointExtension>
            <ns3:atemp>16.0</ns3:atemp>
          </ns3:TrackPointExtension>
        </extensions>
      </trkpt>
      <trkpt lat="42.5585254468023777008056640625" lon="20.06136716343462467193603515625">
        <ele>2190.800048828125</ele>
        <time>2026-06-19T11:41:03.000Z</time>
        <extensions>
          <ns3:TrackPointExtension>
            <ns3:atemp>16.0</ns3:atemp>
          </ns3:TrackPointExtension>
        </extensions>
      </trkpt>
      <trkpt lat="42.5585274584591388702392578125" lon="20.06139113567769527435302734375">
        <ele>2190.39990234375</ele>
        <time>2026-06-19T11:41:04.000Z</time>
        <extensions>
          <ns3:TrackPointExtension>
            <ns3:atemp>16.0</ns3:atemp>
          </ns3:TrackPointExtension>
        </extensions>
      </trkpt>
      <trkpt lat="42.55853005684912204742431640625" lon="20.06141628138720989227294921875">
        <ele>2190.199951171875</ele>
        <time>2026-06-19T11:41:05.000Z</time>
        <extensions>
          <ns3:TrackPointExtension>
            <ns3:atemp>16.0</ns3:atemp>
          </ns3:TrackPointExtension>
        </extensions>
      </trkpt>
      <trkpt lat="42.55852770991623401641845703125" lon="20.0614366494119167327880859375">
        <ele>2189.800048828125</ele>
        <time>2026-06-19T11:41:06.000Z</time>
        <extensions>
          <ns3:TrackPointExtension>
            <ns3:atemp>16.0</ns3:atemp>
          </ns3:TrackPointExtension>
        </extensions>
      </trkpt>
      <trkpt lat="42.55852720700204372406005859375" lon="20.0614614598453044891357421875">
        <ele>2189.199951171875</ele>
        <time>2026-06-19T11:41:07.000Z</time>
        <extensions>
          <ns3:TrackPointExtension>
            <ns3:atemp>16.0</ns3:atemp>
          </ns3:TrackPointExtension>
        </extensions>
      </trkpt>
      <trkpt lat="42.5585286319255828857421875" lon="20.0614829175174236297607421875">
        <ele>2188.800048828125</ele>
        <time>2026-06-19T11:41:08.000Z</time>
        <extensions>
          <ns3:TrackPointExtension>
            <ns3:atemp>16.0</ns3:atemp>
          </ns3:TrackPointExtension>
        </extensions>
      </trkpt>
      <trkpt lat="42.55852770991623401641845703125" lon="20.06149808876216411590576171875">
        <ele>2188.199951171875</ele>
        <time>2026-06-19T11:41:09.000Z</time>
        <extensions>
          <ns3:TrackPointExtension>
            <ns3:atemp>16.0</ns3:atemp>
          </ns3:TrackPointExtension>
        </extensions>
      </trkpt>
      <trkpt lat="42.55853039212524890899658203125" lon="20.06150965578854084014892578125">
        <ele>2187.800048828125</ele>
        <time>2026-06-19T11:41:10.000Z</time>
        <extensions>
          <ns3:TrackPointExtension>
            <ns3:atemp>16.0</ns3:atemp>
          </ns3:TrackPointExtension>
        </extensions>
      </trkpt>
      <trkpt lat="42.5585358403623104095458984375" lon="20.0615197978913784027099609375">
        <ele>2187.39990234375</ele>
        <time>2026-06-19T11:41:11.000Z</time>
        <extensions>
          <ns3:TrackPointExtension>
            <ns3:atemp>16.0</ns3:atemp>
          </ns3:TrackPointExtension>
        </extensions>
      </trkpt>
      <trkpt lat="42.5585393607616424560546875" lon="20.061528347432613372802734375">
        <ele>2187</ele>
        <time>2026-06-19T11:41:12.000Z</time>
        <extensions>
          <ns3:TrackPointExtension>
            <ns3:atemp>16.0</ns3:atemp>
          </ns3:TrackPointExtension>
        </extensions>
      </trkpt>
      <trkpt lat="42.55853491835296154022216796875" lon="20.06153379566967487335205078125">
        <ele>2186.60009765625</ele>
        <time>2026-06-19T11:41:13.000Z</time>
        <extensions>
          <ns3:TrackPointExtension>
            <ns3:atemp>16.0</ns3:atemp>
          </ns3:TrackPointExtension>
        </extensions>
      </trkpt>
      <trkpt lat="42.558535672724246978759765625" lon="20.06153765134513378143310546875">
        <ele>2186.39990234375</ele>
        <time>2026-06-19T11:41:14.000Z</time>
        <extensions>
          <ns3:TrackPointExtension>
            <ns3:atemp>16.0</ns3:atemp>
          </ns3:TrackPointExtension>
        </extensions>
      </trkpt>
      <trkpt lat="42.55853575654327869415283203125" lon="20.061537735164165496826171875">
        <ele>2186.199951171875</ele>
        <time>2026-06-19T11:41:15.000Z</time>
        <extensions>
          <ns3:TrackPointExtension>
            <ns3:atemp>16.0</ns3:atemp>
          </ns3:TrackPointExtension>
        </extensions>
      </trkpt>
      <trkpt lat="42.55853592418134212493896484375" lon="20.06153781898319721221923828125">
        <ele>2186</ele>
        <time>2026-06-19T11:41:16.000Z</time>
        <extensions>
          <ns3:TrackPointExtension>
            <ns3:atemp>16.0</ns3:atemp>
          </ns3:TrackPointExtension>
        </extensions>
      </trkpt>
      <trkpt lat="42.5585482455790042877197265625" lon="20.06155223585665225982666015625">
        <ele>2185.800048828125</ele>
        <time>2026-06-19T11:41:17.000Z</time>
        <extensions>
          <ns3:TrackPointExtension>
            <ns3:atemp>16.0</ns3:atemp>
          </ns3:TrackPointExtension>
        </extensions>
      </trkpt>
      <trkpt lat="42.55855604074895381927490234375" lon="20.06156179122626781463623046875">
        <ele>2185.60009765625</ele>
        <time>2026-06-19T11:41:18.000Z</time>
        <extensions>
          <ns3:TrackPointExtension>
            <ns3:atemp>16.0</ns3:atemp>
          </ns3:TrackPointExtension>
        </extensions>
      </trkpt>
      <trkpt lat="42.55856174044311046600341796875" lon="20.06157092750072479248046875">
        <ele>2185.39990234375</ele>
        <time>2026-06-19T11:41:19.000Z</time>
        <extensions>
          <ns3:TrackPointExtension>
            <ns3:atemp>16.0</ns3:atemp>
          </ns3:TrackPointExtension>
        </extensions>
      </trkpt>
      <trkpt lat="42.55856844596564769744873046875" lon="20.06157788448035717010498046875">
        <ele>2185.199951171875</ele>
        <time>2026-06-19T11:41:20.000Z</time>
        <extensions>
          <ns3:TrackPointExtension>
            <ns3:atemp>16.0</ns3:atemp>
          </ns3:TrackPointExtension>
        </extensions>
      </trkpt>
      <trkpt lat="42.5585767440497875213623046875" lon="20.06158702075481414794921875">
        <ele>2185</ele>
        <time>2026-06-19T11:41:21.000Z</time>
        <extensions>
          <ns3:TrackPointExtension>
            <ns3:atemp>16.0</ns3:atemp>
          </ns3:TrackPointExtension>
        </extensions>
      </trkpt>
      <trkpt lat="42.55858219228684902191162109375" lon="20.06160034798085689544677734375">
        <ele>2184.800048828125</ele>
        <time>2026-06-19T11:41:22.000Z</time>
        <extensions>
          <ns3:TrackPointExtension>
            <ns3:atemp>16.0</ns3:atemp>
          </ns3:TrackPointExtension>
        </extensions>
      </trkpt>
      <trkpt lat="42.55858873017132282257080078125" lon="20.06160872988402843475341796875">
        <ele>2184.60009765625</ele>
        <time>2026-06-19T11:41:23.000Z</time>
        <extensions>
          <ns3:TrackPointExtension>
            <ns3:atemp>16.0</ns3:atemp>
          </ns3:TrackPointExtension>
        </extensions>
      </trkpt>
      <trkpt lat="42.558591663837432861328125" lon="20.061622224748134613037109375">
        <ele>2184.39990234375</ele>
        <time>2026-06-19T11:41:24.000Z</time>
        <extensions>
          <ns3:TrackPointExtension>
            <ns3:atemp>16.0</ns3:atemp>
          </ns3:TrackPointExtension>
        </extensions>
      </trkpt>
      <trkpt lat="42.55859434604644775390625" lon="20.06163387559354305267333984375">
        <ele>2184.199951171875</ele>
        <time>2026-06-19T11:41:25.000Z</time>
        <extensions>
          <ns3:TrackPointExtension>
            <ns3:atemp>16.0</ns3:atemp>
          </ns3:TrackPointExtension>
        </extensions>
      </trkpt>
      <trkpt lat="42.558598704636096954345703125" lon="20.0616485439240932464599609375">
        <ele>2184</ele>
        <time>2026-06-19T11:41:26.000Z</time>
        <extensions>
          <ns3:TrackPointExtension>
            <ns3:atemp>16.0</ns3:atemp>
          </ns3:TrackPointExtension>
        </extensions>
      </trkpt>
      <trkpt lat="42.5585983693599700927734375" lon="20.061666481196880340576171875">
        <ele>2183.800048828125</ele>
        <time>2026-06-19T11:41:27.000Z</time>
        <extensions>
          <ns3:TrackPointExtension>
            <ns3:atemp>16.0</ns3:atemp>
          </ns3:TrackPointExtension>
        </extensions>
      </trkpt>
      <trkpt lat="42.55859275348484516143798828125" lon="20.061677210032939910888671875">
        <ele>2183.60009765625</ele>
        <time>2026-06-19T11:41:28.000Z</time>
        <extensions>
          <ns3:TrackPointExtension>
            <ns3:atemp>16.0</ns3:atemp>
          </ns3:TrackPointExtension>
        </extensions>
      </trkpt>
      <trkpt lat="42.5585931725800037384033203125" lon="20.061676539480686187744140625">
        <ele>2183.39990234375</ele>
        <time>2026-06-19T11:41:29.000Z</time>
        <extensions>
          <ns3:TrackPointExtension>
            <ns3:atemp>16.0</ns3:atemp>
          </ns3:TrackPointExtension>
        </extensions>
      </trkpt>
      <trkpt lat="42.5585931725800037384033203125" lon="20.061676539480686187744140625">
        <ele>2183.39990234375</ele>
        <time>2026-06-19T11:41:30.000Z</time>
        <extensions>
          <ns3:TrackPointExtension>
            <ns3:atemp>16.0</ns3:atemp>
          </ns3:TrackPointExtension>
        </extensions>
      </trkpt>
      <trkpt lat="42.5585931725800037384033203125" lon="20.061676539480686187744140625">
        <ele>2183.199951171875</ele>
        <time>2026-06-19T11:41:31.000Z</time>
        <extensions>
          <ns3:TrackPointExtension>
            <ns3:atemp>16.0</ns3:atemp>
          </ns3:TrackPointExtension>
        </extensions>
      </trkpt>
      <trkpt lat="42.5585931725800037384033203125" lon="20.061676539480686187744140625">
        <ele>2183.199951171875</ele>
        <time>2026-06-19T11:41:32.000Z</time>
        <extensions>
          <ns3:TrackPointExtension>
            <ns3:atemp>16.0</ns3:atemp>
          </ns3:TrackPointExtension>
        </extensions>
      </trkpt>
      <trkpt lat="42.5585931725800037384033203125" lon="20.061676539480686187744140625">
        <ele>2183.199951171875</ele>
        <time>2026-06-19T11:41:33.000Z</time>
        <extensions>
          <ns3:TrackPointExtension>
            <ns3:atemp>16.0</ns3:atemp>
          </ns3:TrackPointExtension>
        </extensions>
      </trkpt>
      <trkpt lat="42.5585931725800037384033203125" lon="20.061676539480686187744140625">
        <ele>2183.199951171875</ele>
        <time>2026-06-19T11:41:34.000Z</time>
        <extensions>
          <ns3:TrackPointExtension>
            <ns3:atemp>16.0</ns3:atemp>
          </ns3:TrackPointExtension>
        </extensions>
      </trkpt>
      <trkpt lat="42.5585931725800037384033203125" lon="20.061676539480686187744140625">
        <ele>2183.199951171875</ele>
        <time>2026-06-19T11:41:35.000Z</time>
        <extensions>
          <ns3:TrackPointExtension>
            <ns3:atemp>16.0</ns3:atemp>
          </ns3:TrackPointExtension>
        </extensions>
      </trkpt>
      <trkpt lat="42.5585931725800037384033203125" lon="20.061676539480686187744140625">
        <ele>2183</ele>
        <time>2026-06-19T11:41:36.000Z</time>
        <extensions>
          <ns3:TrackPointExtension>
            <ns3:atemp>16.0</ns3:atemp>
          </ns3:TrackPointExtension>
        </extensions>
      </trkpt>
      <trkpt lat="42.5585931725800037384033203125" lon="20.061676539480686187744140625">
        <ele>2183</ele>
        <time>2026-06-19T11:41:37.000Z</time>
        <extensions>
          <ns3:TrackPointExtension>
            <ns3:atemp>16.0</ns3:atemp>
          </ns3:TrackPointExtension>
        </extensions>
      </trkpt>
      <trkpt lat="42.5585931725800037384033203125" lon="20.061676539480686187744140625">
        <ele>2183</ele>
        <time>2026-06-19T11:41:38.000Z</time>
        <extensions>
          <ns3:TrackPointExtension>
            <ns3:atemp>16.0</ns3:atemp>
          </ns3:TrackPointExtension>
        </extensions>
      </trkpt>
      <trkpt lat="42.5585931725800037384033203125" lon="20.061676539480686187744140625">
        <ele>2183</ele>
        <time>2026-06-19T11:41:39.000Z</time>
        <extensions>
          <ns3:TrackPointExtension>
            <ns3:atemp>16.0</ns3:atemp>
          </ns3:TrackPointExtension>
        </extensions>
      </trkpt>
      <trkpt lat="42.5585931725800037384033203125" lon="20.061676539480686187744140625">
        <ele>2183</ele>
        <time>2026-06-19T11:41:40.000Z</time>
        <extensions>
          <ns3:TrackPointExtension>
            <ns3:atemp>16.0</ns3:atemp>
          </ns3:TrackPointExtension>
        </extensions>
      </trkpt>
      <trkpt lat="42.5585931725800037384033203125" lon="20.061676539480686187744140625">
        <ele>2183</ele>
        <time>2026-06-19T11:41:41.000Z</time>
        <extensions>
          <ns3:TrackPointExtension>
            <ns3:atemp>16.0</ns3:atemp>
          </ns3:TrackPointExtension>
        </extensions>
      </trkpt>
      <trkpt lat="42.5585931725800037384033203125" lon="20.061676539480686187744140625">
        <ele>2183</ele>
        <time>2026-06-19T11:41:42.000Z</time>
        <extensions>
          <ns3:TrackPointExtension>
            <ns3:atemp>16.0</ns3:atemp>
          </ns3:TrackPointExtension>
        </extensions>
      </trkpt>
      <trkpt lat="42.5585931725800037384033203125" lon="20.061676539480686187744140625">
        <ele>2183</ele>
        <time>2026-06-19T11:41:43.000Z</time>
        <extensions>
          <ns3:TrackPointExtension>
            <ns3:atemp>16.0</ns3:atemp>
          </ns3:TrackPointExtension>
        </extensions>
      </trkpt>
      <trkpt lat="42.5585931725800037384033203125" lon="20.061676539480686187744140625">
        <ele>2183</ele>
        <time>2026-06-19T11:41:44.000Z</time>
        <extensions>
          <ns3:TrackPointExtension>
            <ns3:atemp>16.0</ns3:atemp>
          </ns3:TrackPointExtension>
        </extensions>
      </trkpt>
      <trkpt lat="42.5585931725800037384033203125" lon="20.061676539480686187744140625">
        <ele>2183</ele>
        <time>2026-06-19T11:41:45.000Z</time>
        <extensions>
          <ns3:TrackPointExtension>
            <ns3:atemp>16.0</ns3:atemp>
          </ns3:TrackPointExtension>
        </extensions>
      </trkpt>
      <trkpt lat="42.5585931725800037384033203125" lon="20.061676539480686187744140625">
        <ele>2183</ele>
        <time>2026-06-19T11:41:46.000Z</time>
        <extensions>
          <ns3:TrackPointExtension>
            <ns3:atemp>16.0</ns3:atemp>
          </ns3:TrackPointExtension>
        </extensions>
      </trkpt>
      <trkpt lat="42.5585931725800037384033203125" lon="20.061676539480686187744140625">
        <ele>2183</ele>
        <time>2026-06-19T11:41:47.000Z</time>
        <extensions>
          <ns3:TrackPointExtension>
            <ns3:atemp>16.0</ns3:atemp>
          </ns3:TrackPointExtension>
        </extensions>
      </trkpt>
      <trkpt lat="42.5585931725800037384033203125" lon="20.061676539480686187744140625">
        <ele>2183</ele>
        <time>2026-06-19T11:41:48.000Z</time>
        <extensions>
          <ns3:TrackPointExtension>
            <ns3:atemp>16.0</ns3:atemp>
          </ns3:TrackPointExtension>
        </extensions>
      </trkpt>
      <trkpt lat="42.5585931725800037384033203125" lon="20.061676539480686187744140625">
        <ele>2183</ele>
        <time>2026-06-19T11:41:49.000Z</time>
        <extensions>
          <ns3:TrackPointExtension>
            <ns3:atemp>16.0</ns3:atemp>
          </ns3:TrackPointExtension>
        </extensions>
      </trkpt>
      <trkpt lat="42.5585931725800037384033203125" lon="20.061676539480686187744140625">
        <ele>2183</ele>
        <time>2026-06-19T11:41:50.000Z</time>
        <extensions>
          <ns3:TrackPointExtension>
            <ns3:atemp>16.0</ns3:atemp>
          </ns3:TrackPointExtension>
        </extensions>
      </trkpt>
      <trkpt lat="42.5585931725800037384033203125" lon="20.061676539480686187744140625">
        <ele>2183</ele>
        <time>2026-06-19T11:41:51.000Z</time>
        <extensions>
          <ns3:TrackPointExtension>
            <ns3:atemp>16.0</ns3:atemp>
          </ns3:TrackPointExtension>
        </extensions>
      </trkpt>
      <trkpt lat="42.5585931725800037384033203125" lon="20.061676539480686187744140625">
        <ele>2183</ele>
        <time>2026-06-19T11:41:52.000Z</time>
        <extensions>
          <ns3:TrackPointExtension>
            <ns3:atemp>16.0</ns3:atemp>
          </ns3:TrackPointExtension>
        </extensions>
      </trkpt>
      <trkpt lat="42.5585931725800037384033203125" lon="20.061676539480686187744140625">
        <ele>2183</ele>
        <time>2026-06-19T11:41:53.000Z</time>
        <extensions>
          <ns3:TrackPointExtension>
            <ns3:atemp>16.0</ns3:atemp>
          </ns3:TrackPointExtension>
        </extensions>
      </trkpt>
      <trkpt lat="42.5585931725800037384033203125" lon="20.061676539480686187744140625">
        <ele>2183</ele>
        <time>2026-06-19T11:41:54.000Z</time>
        <extensions>
          <ns3:TrackPointExtension>
            <ns3:atemp>16.0</ns3:atemp>
          </ns3:TrackPointExtension>
        </extensions>
      </trkpt>
      <trkpt lat="42.5585931725800037384033203125" lon="20.061676539480686187744140625">
        <ele>2183</ele>
        <time>2026-06-19T11:41:55.000Z</time>
        <extensions>
          <ns3:TrackPointExtension>
            <ns3:atemp>16.0</ns3:atemp>
          </ns3:TrackPointExtension>
        </extensions>
      </trkpt>
      <trkpt lat="42.5585931725800037384033203125" lon="20.061676539480686187744140625">
        <ele>2183</ele>
        <time>2026-06-19T11:41:56.000Z</time>
        <extensions>
          <ns3:TrackPointExtension>
            <ns3:atemp>16.0</ns3:atemp>
          </ns3:TrackPointExtension>
        </extensions>
      </trkpt>
      <trkpt lat="42.5585931725800037384033203125" lon="20.061676539480686187744140625">
        <ele>2183</ele>
        <time>2026-06-19T11:41:57.000Z</time>
        <extensions>
          <ns3:TrackPointExtension>
            <ns3:atemp>16.0</ns3:atemp>
          </ns3:TrackPointExtension>
        </extensions>
      </trkpt>
      <trkpt lat="42.5585931725800037384033203125" lon="20.061676539480686187744140625">
        <ele>2183</ele>
        <time>2026-06-19T11:41:58.000Z</time>
        <extensions>
          <ns3:TrackPointExtension>
            <ns3:atemp>16.0</ns3:atemp>
          </ns3:TrackPointExtension>
        </extensions>
      </trkpt>
      <trkpt lat="42.5585931725800037384033203125" lon="20.061676539480686187744140625">
        <ele>2183</ele>
        <time>2026-06-19T11:41:59.000Z</time>
        <extensions>
          <ns3:TrackPointExtension>
            <ns3:atemp>16.0</ns3:atemp>
          </ns3:TrackPointExtension>
        </extensions>
      </trkpt>
      <trkpt lat="42.5585931725800037384033203125" lon="20.061676539480686187744140625">
        <ele>2183</ele>
        <time>2026-06-19T11:42:00.000Z</time>
        <extensions>
          <ns3:TrackPointExtension>
            <ns3:atemp>16.0</ns3:atemp>
          </ns3:TrackPointExtension>
        </extensions>
      </trkpt>
      <trkpt lat="42.5585931725800037384033203125" lon="20.061676539480686187744140625">
        <ele>2183</ele>
        <time>2026-06-19T11:42:01.000Z</time>
        <extensions>
          <ns3:TrackPointExtension>
            <ns3:atemp>16.0</ns3:atemp>
          </ns3:TrackPointExtension>
        </extensions>
      </trkpt>
      <trkpt lat="42.5585931725800037384033203125" lon="20.061676539480686187744140625">
        <ele>2183</ele>
        <time>2026-06-19T11:42:02.000Z</time>
        <extensions>
          <ns3:TrackPointExtension>
            <ns3:atemp>16.0</ns3:atemp>
          </ns3:TrackPointExtension>
        </extensions>
      </trkpt>
      <trkpt lat="42.5585931725800037384033203125" lon="20.061676539480686187744140625">
        <ele>2183</ele>
        <time>2026-06-19T11:42:03.000Z</time>
        <extensions>
          <ns3:TrackPointExtension>
            <ns3:atemp>16.0</ns3:atemp>
          </ns3:TrackPointExtension>
        </extensions>
      </trkpt>
      <trkpt lat="42.55859610624611377716064453125" lon="20.06167729385197162628173828125">
        <ele>2183</ele>
        <time>2026-06-19T11:42:04.000Z</time>
        <extensions>
          <ns3:TrackPointExtension>
            <ns3:atemp>16.0</ns3:atemp>
          </ns3:TrackPointExtension>
        </extensions>
      </trkpt>
      <trkpt lat="42.558605410158634185791015625" lon="20.06168433465063571929931640625">
        <ele>2183</ele>
        <time>2026-06-19T11:42:05.000Z</time>
        <extensions>
          <ns3:TrackPointExtension>
            <ns3:atemp>16.0</ns3:atemp>
          </ns3:TrackPointExtension>
        </extensions>
      </trkpt>
      <trkpt lat="42.55860784091055393218994140625" lon="20.06169724278151988983154296875">
        <ele>2183</ele>
        <time>2026-06-19T11:42:06.000Z</time>
        <extensions>
          <ns3:TrackPointExtension>
            <ns3:atemp>16.0</ns3:atemp>
          </ns3:TrackPointExtension>
        </extensions>
      </trkpt>
      <trkpt lat="42.5586119480431079864501953125" lon="20.0617075525224208831787109375">
        <ele>2183</ele>
        <time>2026-06-19T11:42:07.000Z</time>
        <extensions>
          <ns3:TrackPointExtension>
            <ns3:atemp>16.0</ns3:atemp>
          </ns3:TrackPointExtension>
        </extensions>
      </trkpt>
      <trkpt lat="42.5586173124611377716064453125" lon="20.0617249868810176849365234375">
        <ele>2182.800048828125</ele>
        <time>2026-06-19T11:42:08.000Z</time>
        <extensions>
          <ns3:TrackPointExtension>
            <ns3:atemp>16.0</ns3:atemp>
          </ns3:TrackPointExtension>
        </extensions>
      </trkpt>
      <trkpt lat="42.5586223416030406951904296875" lon="20.06174854002892971038818359375">
        <ele>2182.800048828125</ele>
        <time>2026-06-19T11:42:09.000Z</time>
        <extensions>
          <ns3:TrackPointExtension>
            <ns3:atemp>16.0</ns3:atemp>
          </ns3:TrackPointExtension>
        </extensions>
      </trkpt>
      <trkpt lat="42.55862644873559474945068359375" lon="20.06177301518619060516357421875">
        <ele>2182.800048828125</ele>
        <time>2026-06-19T11:42:10.000Z</time>
        <extensions>
          <ns3:TrackPointExtension>
            <ns3:atemp>16.0</ns3:atemp>
          </ns3:TrackPointExtension>
        </extensions>
      </trkpt>
      <trkpt lat="42.55863256752490997314453125" lon="20.0618041120469570159912109375">
        <ele>2182.60009765625</ele>
        <time>2026-06-19T11:42:11.000Z</time>
        <extensions>
          <ns3:TrackPointExtension>
            <ns3:atemp>16.0</ns3:atemp>
          </ns3:TrackPointExtension>
        </extensions>
      </trkpt>
      <trkpt lat="42.5586380995810031890869140625" lon="20.06183386780321598052978515625">
        <ele>2182.39990234375</ele>
        <time>2026-06-19T11:42:12.000Z</time>
        <extensions>
          <ns3:TrackPointExtension>
            <ns3:atemp>16.0</ns3:atemp>
          </ns3:TrackPointExtension>
        </extensions>
      </trkpt>
      <trkpt lat="42.55864690057933330535888671875" lon="20.06186169572174549102783203125">
        <ele>2182.39990234375</ele>
        <time>2026-06-19T11:42:13.000Z</time>
        <extensions>
          <ns3:TrackPointExtension>
            <ns3:atemp>16.0</ns3:atemp>
          </ns3:TrackPointExtension>
        </extensions>
      </trkpt>
      <trkpt lat="42.55865578539669513702392578125" lon="20.06189438514411449432373046875">
        <ele>2182.39990234375</ele>
        <time>2026-06-19T11:42:14.000Z</time>
        <extensions>
          <ns3:TrackPointExtension>
            <ns3:atemp>16.0</ns3:atemp>
          </ns3:TrackPointExtension>
        </extensions>
      </trkpt>
      <trkpt lat="42.55866944789886474609375" lon="20.06192791275680065155029296875">
        <ele>2182.39990234375</ele>
        <time>2026-06-19T11:42:15.000Z</time>
        <extensions>
          <ns3:TrackPointExtension>
            <ns3:atemp>16.0</ns3:atemp>
          </ns3:TrackPointExtension>
        </extensions>
      </trkpt>
      <trkpt lat="42.55868361331522464752197265625" lon="20.06196546368300914764404296875">
        <ele>2182.199951171875</ele>
        <time>2026-06-19T11:42:16.000Z</time>
        <extensions>
          <ns3:TrackPointExtension>
            <ns3:atemp>16.0</ns3:atemp>
          </ns3:TrackPointExtension>
        </extensions>
      </trkpt>
      <trkpt lat="42.55869786255061626434326171875" lon="20.06200670264661312103271484375">
        <ele>2182</ele>
        <time>2026-06-19T11:42:17.000Z</time>
        <extensions>
          <ns3:TrackPointExtension>
            <ns3:atemp>16.0</ns3:atemp>
          </ns3:TrackPointExtension>
        </extensions>
      </trkpt>
      <trkpt lat="42.55871227942407131195068359375" lon="20.06204341538250446319580078125">
        <ele>2181.800048828125</ele>
        <time>2026-06-19T11:42:18.000Z</time>
        <extensions>
          <ns3:TrackPointExtension>
            <ns3:atemp>16.0</ns3:atemp>
          </ns3:TrackPointExtension>
        </extensions>
      </trkpt>
      <trkpt lat="42.5587168894708156585693359375" lon="20.0620770268142223358154296875">
        <ele>2181.60009765625</ele>
        <time>2026-06-19T11:42:19.000Z</time>
        <extensions>
          <ns3:TrackPointExtension>
            <ns3:atemp>16.0</ns3:atemp>
          </ns3:TrackPointExtension>
        </extensions>
      </trkpt>
      <trkpt lat="42.558722086250782012939453125" lon="20.06210091523826122283935546875">
        <ele>2181.39990234375</ele>
        <time>2026-06-19T11:42:20.000Z</time>
        <extensions>
          <ns3:TrackPointExtension>
            <ns3:atemp>16.0</ns3:atemp>
          </ns3:TrackPointExtension>
        </extensions>
      </trkpt>
      <trkpt lat="42.558740191161632537841796875" lon="20.06212941370904445648193359375">
        <ele>2181.199951171875</ele>
        <time>2026-06-19T11:42:21.000Z</time>
        <extensions>
          <ns3:TrackPointExtension>
            <ns3:atemp>16.0</ns3:atemp>
          </ns3:TrackPointExtension>
        </extensions>
      </trkpt>
      <trkpt lat="42.55875217728316783905029296875" lon="20.0621662102639675140380859375">
        <ele>2181</ele>
        <time>2026-06-19T11:42:22.000Z</time>
        <extensions>
          <ns3:TrackPointExtension>
            <ns3:atemp>16.0</ns3:atemp>
          </ns3:TrackPointExtension>
        </extensions>
      </trkpt>
      <trkpt lat="42.5587675161659717559814453125" lon="20.0622064433991909027099609375">
        <ele>2180.800048828125</ele>
        <time>2026-06-19T11:42:23.000Z</time>
        <extensions>
          <ns3:TrackPointExtension>
            <ns3:atemp>16.0</ns3:atemp>
          </ns3:TrackPointExtension>
        </extensions>
      </trkpt>
      <trkpt lat="42.55877447314560413360595703125" lon="20.0622359476983547210693359375">
        <ele>2180.800048828125</ele>
        <time>2026-06-19T11:42:24.000Z</time>
        <extensions>
          <ns3:TrackPointExtension>
            <ns3:atemp>16.0</ns3:atemp>
          </ns3:TrackPointExtension>
        </extensions>
      </trkpt>
      <trkpt lat="42.55878788419067859649658203125" lon="20.062264613807201385498046875">
        <ele>2180.60009765625</ele>
        <time>2026-06-19T11:42:25.000Z</time>
        <extensions>
          <ns3:TrackPointExtension>
            <ns3:atemp>16.0</ns3:atemp>
          </ns3:TrackPointExtension>
        </extensions>
      </trkpt>
      <trkpt lat="42.55879224278032779693603515625" lon="20.06227768957614898681640625">
        <ele>2180.60009765625</ele>
        <time>2026-06-19T11:42:26.000Z</time>
        <extensions>
          <ns3:TrackPointExtension>
            <ns3:atemp>16.0</ns3:atemp>
          </ns3:TrackPointExtension>
        </extensions>
      </trkpt>
      <trkpt lat="42.55879291333258152008056640625" lon="20.06228397600352764129638671875">
        <ele>2180.800048828125</ele>
        <time>2026-06-19T11:42:27.000Z</time>
        <extensions>
          <ns3:TrackPointExtension>
            <ns3:atemp>16.0</ns3:atemp>
          </ns3:TrackPointExtension>
        </extensions>
      </trkpt>
      <trkpt lat="42.55879257805645465850830078125" lon="20.0622805394232273101806640625">
        <ele>2181</ele>
        <time>2026-06-19T11:42:28.000Z</time>
        <extensions>
          <ns3:TrackPointExtension>
            <ns3:atemp>16.0</ns3:atemp>
          </ns3:TrackPointExtension>
        </extensions>
      </trkpt>
      <trkpt lat="42.55879257805645465850830078125" lon="20.0622805394232273101806640625">
        <ele>2181.199951171875</ele>
        <time>2026-06-19T11:42:29.000Z</time>
        <extensions>
          <ns3:TrackPointExtension>
            <ns3:atemp>16.0</ns3:atemp>
          </ns3:TrackPointExtension>
        </extensions>
      </trkpt>
      <trkpt lat="42.55879257805645465850830078125" lon="20.0622805394232273101806640625">
        <ele>2181.39990234375</ele>
        <time>2026-06-19T11:42:30.000Z</time>
        <extensions>
          <ns3:TrackPointExtension>
            <ns3:atemp>16.0</ns3:atemp>
          </ns3:TrackPointExtension>
        </extensions>
      </trkpt>
      <trkpt lat="42.55879257805645465850830078125" lon="20.0622805394232273101806640625">
        <ele>2181.60009765625</ele>
        <time>2026-06-19T11:42:31.000Z</time>
        <extensions>
          <ns3:TrackPointExtension>
            <ns3:atemp>16.0</ns3:atemp>
          </ns3:TrackPointExtension>
        </extensions>
      </trkpt>
      <trkpt lat="42.55879257805645465850830078125" lon="20.0622805394232273101806640625">
        <ele>2181.60009765625</ele>
        <time>2026-06-19T11:42:32.000Z</time>
        <extensions>
          <ns3:TrackPointExtension>
            <ns3:atemp>16.0</ns3:atemp>
          </ns3:TrackPointExtension>
        </extensions>
      </trkpt>
      <trkpt lat="42.55879257805645465850830078125" lon="20.0622805394232273101806640625">
        <ele>2181.60009765625</ele>
        <time>2026-06-19T11:42:33.000Z</time>
        <extensions>
          <ns3:TrackPointExtension>
            <ns3:atemp>16.0</ns3:atemp>
          </ns3:TrackPointExtension>
        </extensions>
      </trkpt>
      <trkpt lat="42.55879257805645465850830078125" lon="20.0622805394232273101806640625">
        <ele>2181.60009765625</ele>
        <time>2026-06-19T11:42:34.000Z</time>
        <extensions>
          <ns3:TrackPointExtension>
            <ns3:atemp>16.0</ns3:atemp>
          </ns3:TrackPointExtension>
        </extensions>
      </trkpt>
      <trkpt lat="42.55879257805645465850830078125" lon="20.0622805394232273101806640625">
        <ele>2181.39990234375</ele>
        <time>2026-06-19T11:42:35.000Z</time>
        <extensions>
          <ns3:TrackPointExtension>
            <ns3:atemp>16.0</ns3:atemp>
          </ns3:TrackPointExtension>
        </extensions>
      </trkpt>
      <trkpt lat="42.55879257805645465850830078125" lon="20.0622805394232273101806640625">
        <ele>2181.39990234375</ele>
        <time>2026-06-19T11:42:36.000Z</time>
        <extensions>
          <ns3:TrackPointExtension>
            <ns3:atemp>16.0</ns3:atemp>
          </ns3:TrackPointExtension>
        </extensions>
      </trkpt>
      <trkpt lat="42.55879257805645465850830078125" lon="20.0622805394232273101806640625">
        <ele>2181.39990234375</ele>
        <time>2026-06-19T11:42:37.000Z</time>
        <extensions>
          <ns3:TrackPointExtension>
            <ns3:atemp>16.0</ns3:atemp>
          </ns3:TrackPointExtension>
        </extensions>
      </trkpt>
      <trkpt lat="42.55879257805645465850830078125" lon="20.0622805394232273101806640625">
        <ele>2181.39990234375</ele>
        <time>2026-06-19T11:42:38.000Z</time>
        <extensions>
          <ns3:TrackPointExtension>
            <ns3:atemp>16.0</ns3:atemp>
          </ns3:TrackPointExtension>
        </extensions>
      </trkpt>
      <trkpt lat="42.55879257805645465850830078125" lon="20.0622805394232273101806640625">
        <ele>2181.39990234375</ele>
        <time>2026-06-19T11:42:39.000Z</time>
        <extensions>
          <ns3:TrackPointExtension>
            <ns3:atemp>16.0</ns3:atemp>
          </ns3:TrackPointExtension>
        </extensions>
      </trkpt>
      <trkpt lat="42.55879257805645465850830078125" lon="20.0622805394232273101806640625">
        <ele>2181.39990234375</ele>
        <time>2026-06-19T11:42:40.000Z</time>
        <extensions>
          <ns3:TrackPointExtension>
            <ns3:atemp>16.0</ns3:atemp>
          </ns3:TrackPointExtension>
        </extensions>
      </trkpt>
      <trkpt lat="42.55879257805645465850830078125" lon="20.0622805394232273101806640625">
        <ele>2181.39990234375</ele>
        <time>2026-06-19T11:42:41.000Z</time>
        <extensions>
          <ns3:TrackPointExtension>
            <ns3:atemp>16.0</ns3:atemp>
          </ns3:TrackPointExtension>
        </extensions>
      </trkpt>
      <trkpt lat="42.55879257805645465850830078125" lon="20.0622805394232273101806640625">
        <ele>2181.39990234375</ele>
        <time>2026-06-19T11:42:42.000Z</time>
        <extensions>
          <ns3:TrackPointExtension>
            <ns3:atemp>16.0</ns3:atemp>
          </ns3:TrackPointExtension>
        </extensions>
      </trkpt>
      <trkpt lat="42.55879257805645465850830078125" lon="20.0622805394232273101806640625">
        <ele>2181.39990234375</ele>
        <time>2026-06-19T11:42:43.000Z</time>
        <extensions>
          <ns3:TrackPointExtension>
            <ns3:atemp>16.0</ns3:atemp>
          </ns3:TrackPointExtension>
        </extensions>
      </trkpt>
      <trkpt lat="42.55879257805645465850830078125" lon="20.0622805394232273101806640625">
        <ele>2181.39990234375</ele>
        <time>2026-06-19T11:42:44.000Z</time>
        <extensions>
          <ns3:TrackPointExtension>
            <ns3:atemp>16.0</ns3:atemp>
          </ns3:TrackPointExtension>
        </extensions>
      </trkpt>
      <trkpt lat="42.55879257805645465850830078125" lon="20.0622805394232273101806640625">
        <ele>2181.39990234375</ele>
        <time>2026-06-19T11:42:45.000Z</time>
        <extensions>
          <ns3:TrackPointExtension>
            <ns3:atemp>16.0</ns3:atemp>
          </ns3:TrackPointExtension>
        </extensions>
      </trkpt>
      <trkpt lat="42.55879257805645465850830078125" lon="20.0622805394232273101806640625">
        <ele>2181.39990234375</ele>
        <time>2026-06-19T11:42:46.000Z</time>
        <extensions>
          <ns3:TrackPointExtension>
            <ns3:atemp>16.0</ns3:atemp>
          </ns3:TrackPointExtension>
        </extensions>
      </trkpt>
      <trkpt lat="42.55879257805645465850830078125" lon="20.0622805394232273101806640625">
        <ele>2181.39990234375</ele>
        <time>2026-06-19T11:42:47.000Z</time>
        <extensions>
          <ns3:TrackPointExtension>
            <ns3:atemp>16.0</ns3:atemp>
          </ns3:TrackPointExtension>
        </extensions>
      </trkpt>
      <trkpt lat="42.55879257805645465850830078125" lon="20.0622805394232273101806640625">
        <ele>2181.39990234375</ele>
        <time>2026-06-19T11:42:48.000Z</time>
        <extensions>
          <ns3:TrackPointExtension>
            <ns3:atemp>16.0</ns3:atemp>
          </ns3:TrackPointExtension>
        </extensions>
      </trkpt>
      <trkpt lat="42.55879257805645465850830078125" lon="20.0622805394232273101806640625">
        <ele>2181.39990234375</ele>
        <time>2026-06-19T11:42:49.000Z</time>
        <extensions>
          <ns3:TrackPointExtension>
            <ns3:atemp>16.0</ns3:atemp>
          </ns3:TrackPointExtension>
        </extensions>
      </trkpt>
      <trkpt lat="42.55879257805645465850830078125" lon="20.0622805394232273101806640625">
        <ele>2181.39990234375</ele>
        <time>2026-06-19T11:42:50.000Z</time>
        <extensions>
          <ns3:TrackPointExtension>
            <ns3:atemp>16.0</ns3:atemp>
          </ns3:TrackPointExtension>
        </extensions>
      </trkpt>
      <trkpt lat="42.55879257805645465850830078125" lon="20.0622805394232273101806640625">
        <ele>2181.39990234375</ele>
        <time>2026-06-19T11:42:51.000Z</time>
        <extensions>
          <ns3:TrackPointExtension>
            <ns3:atemp>16.0</ns3:atemp>
          </ns3:TrackPointExtension>
        </extensions>
      </trkpt>
      <trkpt lat="42.55879257805645465850830078125" lon="20.0622805394232273101806640625">
        <ele>2181.39990234375</ele>
        <time>2026-06-19T11:42:52.000Z</time>
        <extensions>
          <ns3:TrackPointExtension>
            <ns3:atemp>16.0</ns3:atemp>
          </ns3:TrackPointExtension>
        </extensions>
      </trkpt>
      <trkpt lat="42.55879257805645465850830078125" lon="20.0622805394232273101806640625">
        <ele>2181.39990234375</ele>
        <time>2026-06-19T11:42:53.000Z</time>
        <extensions>
          <ns3:TrackPointExtension>
            <ns3:atemp>16.0</ns3:atemp>
          </ns3:TrackPointExtension>
        </extensions>
      </trkpt>
      <trkpt lat="42.55879257805645465850830078125" lon="20.0622805394232273101806640625">
        <ele>2181.39990234375</ele>
        <time>2026-06-19T11:42:54.000Z</time>
        <extensions>
          <ns3:TrackPointExtension>
            <ns3:atemp>16.0</ns3:atemp>
          </ns3:TrackPointExtension>
        </extensions>
      </trkpt>
      <trkpt lat="42.55879257805645465850830078125" lon="20.0622805394232273101806640625">
        <ele>2181.39990234375</ele>
        <time>2026-06-19T11:42:55.000Z</time>
        <extensions>
          <ns3:TrackPointExtension>
            <ns3:atemp>16.0</ns3:atemp>
          </ns3:TrackPointExtension>
        </extensions>
      </trkpt>
      <trkpt lat="42.55879257805645465850830078125" lon="20.0622805394232273101806640625">
        <ele>2181.39990234375</ele>
        <time>2026-06-19T11:42:56.000Z</time>
        <extensions>
          <ns3:TrackPointExtension>
            <ns3:atemp>16.0</ns3:atemp>
          </ns3:TrackPointExtension>
        </extensions>
      </trkpt>
      <trkpt lat="42.55879257805645465850830078125" lon="20.0622805394232273101806640625">
        <ele>2181.39990234375</ele>
        <time>2026-06-19T11:42:57.000Z</time>
        <extensions>
          <ns3:TrackPointExtension>
            <ns3:atemp>16.0</ns3:atemp>
          </ns3:TrackPointExtension>
        </extensions>
      </trkpt>
      <trkpt lat="42.55879257805645465850830078125" lon="20.0622805394232273101806640625">
        <ele>2181.39990234375</ele>
        <time>2026-06-19T11:42:58.000Z</time>
        <extensions>
          <ns3:TrackPointExtension>
            <ns3:atemp>16.0</ns3:atemp>
          </ns3:TrackPointExtension>
        </extensions>
      </trkpt>
      <trkpt lat="42.55879257805645465850830078125" lon="20.0622805394232273101806640625">
        <ele>2181.39990234375</ele>
        <time>2026-06-19T11:42:59.000Z</time>
        <extensions>
          <ns3:TrackPointExtension>
            <ns3:atemp>16.0</ns3:atemp>
          </ns3:TrackPointExtension>
        </extensions>
      </trkpt>
      <trkpt lat="42.55879257805645465850830078125" lon="20.0622805394232273101806640625">
        <ele>2181.39990234375</ele>
        <time>2026-06-19T11:43:00.000Z</time>
        <extensions>
          <ns3:TrackPointExtension>
            <ns3:atemp>16.0</ns3:atemp>
          </ns3:TrackPointExtension>
        </extensions>
      </trkpt>
      <trkpt lat="42.55879257805645465850830078125" lon="20.0622805394232273101806640625">
        <ele>2181.39990234375</ele>
        <time>2026-06-19T11:43:01.000Z</time>
        <extensions>
          <ns3:TrackPointExtension>
            <ns3:atemp>16.0</ns3:atemp>
          </ns3:TrackPointExtension>
        </extensions>
      </trkpt>
      <trkpt lat="42.55879257805645465850830078125" lon="20.0622805394232273101806640625">
        <ele>2181.39990234375</ele>
        <time>2026-06-19T11:43:02.000Z</time>
        <extensions>
          <ns3:TrackPointExtension>
            <ns3:atemp>16.0</ns3:atemp>
          </ns3:TrackPointExtension>
        </extensions>
      </trkpt>
      <trkpt lat="42.55879257805645465850830078125" lon="20.0622805394232273101806640625">
        <ele>2181.39990234375</ele>
        <time>2026-06-19T11:43:03.000Z</time>
        <extensions>
          <ns3:TrackPointExtension>
            <ns3:atemp>16.0</ns3:atemp>
          </ns3:TrackPointExtension>
        </extensions>
      </trkpt>
      <trkpt lat="42.55879257805645465850830078125" lon="20.0622805394232273101806640625">
        <ele>2181.39990234375</ele>
        <time>2026-06-19T11:43:04.000Z</time>
        <extensions>
          <ns3:TrackPointExtension>
            <ns3:atemp>16.0</ns3:atemp>
          </ns3:TrackPointExtension>
        </extensions>
      </trkpt>
      <trkpt lat="42.55879257805645465850830078125" lon="20.0622805394232273101806640625">
        <ele>2181.39990234375</ele>
        <time>2026-06-19T11:43:05.000Z</time>
        <extensions>
          <ns3:TrackPointExtension>
            <ns3:atemp>16.0</ns3:atemp>
          </ns3:TrackPointExtension>
        </extensions>
      </trkpt>
      <trkpt lat="42.55879257805645465850830078125" lon="20.0622805394232273101806640625">
        <ele>2181.39990234375</ele>
        <time>2026-06-19T11:43:06.000Z</time>
        <extensions>
          <ns3:TrackPointExtension>
            <ns3:atemp>16.0</ns3:atemp>
          </ns3:TrackPointExtension>
        </extensions>
      </trkpt>
      <trkpt lat="42.55879257805645465850830078125" lon="20.0622805394232273101806640625">
        <ele>2181.39990234375</ele>
        <time>2026-06-19T11:43:07.000Z</time>
        <extensions>
          <ns3:TrackPointExtension>
            <ns3:atemp>16.0</ns3:atemp>
          </ns3:TrackPointExtension>
        </extensions>
      </trkpt>
      <trkpt lat="42.55879257805645465850830078125" lon="20.0622805394232273101806640625">
        <ele>2181.39990234375</ele>
        <time>2026-06-19T11:43:08.000Z</time>
        <extensions>
          <ns3:TrackPointExtension>
            <ns3:atemp>16.0</ns3:atemp>
          </ns3:TrackPointExtension>
        </extensions>
      </trkpt>
      <trkpt lat="42.55879291333258152008056640625" lon="20.062278695404529571533203125">
        <ele>2181.39990234375</ele>
        <time>2026-06-19T11:43:09.000Z</time>
        <extensions>
          <ns3:TrackPointExtension>
            <ns3:atemp>16.0</ns3:atemp>
          </ns3:TrackPointExtension>
        </extensions>
      </trkpt>
      <trkpt lat="42.55879257805645465850830078125" lon="20.0622805394232273101806640625">
        <ele>2181.39990234375</ele>
        <time>2026-06-19T11:43:10.000Z</time>
        <extensions>
          <ns3:TrackPointExtension>
            <ns3:atemp>16.0</ns3:atemp>
          </ns3:TrackPointExtension>
        </extensions>
      </trkpt>
      <trkpt lat="42.55879375152289867401123046875" lon="20.062276013195514678955078125">
        <ele>2181.39990234375</ele>
        <time>2026-06-19T11:43:11.000Z</time>
        <extensions>
          <ns3:TrackPointExtension>
            <ns3:atemp>16.0</ns3:atemp>
          </ns3:TrackPointExtension>
        </extensions>
      </trkpt>
      <trkpt lat="42.5587956793606281280517578125" lon="20.0622882507741451263427734375">
        <ele>2181.39990234375</ele>
        <time>2026-06-19T11:43:12.000Z</time>
        <extensions>
          <ns3:TrackPointExtension>
            <ns3:atemp>16.0</ns3:atemp>
          </ns3:TrackPointExtension>
        </extensions>
      </trkpt>
      <trkpt lat="42.55879257805645465850830078125" lon="20.0622805394232273101806640625">
        <ele>2181.39990234375</ele>
        <time>2026-06-19T11:43:13.000Z</time>
        <extensions>
          <ns3:TrackPointExtension>
            <ns3:atemp>16.0</ns3:atemp>
          </ns3:TrackPointExtension>
        </extensions>
      </trkpt>
      <trkpt lat="42.55879257805645465850830078125" lon="20.0622805394232273101806640625">
        <ele>2181.39990234375</ele>
        <time>2026-06-19T11:43:14.000Z</time>
        <extensions>
          <ns3:TrackPointExtension>
            <ns3:atemp>16.0</ns3:atemp>
          </ns3:TrackPointExtension>
        </extensions>
      </trkpt>
      <trkpt lat="42.55879257805645465850830078125" lon="20.0622805394232273101806640625">
        <ele>2181.60009765625</ele>
        <time>2026-06-19T11:43:15.000Z</time>
        <extensions>
          <ns3:TrackPointExtension>
            <ns3:atemp>16.0</ns3:atemp>
          </ns3:TrackPointExtension>
        </extensions>
      </trkpt>
      <trkpt lat="42.55879257805645465850830078125" lon="20.0622805394232273101806640625">
        <ele>2181.800048828125</ele>
        <time>2026-06-19T11:43:16.000Z</time>
        <extensions>
          <ns3:TrackPointExtension>
            <ns3:atemp>16.0</ns3:atemp>
          </ns3:TrackPointExtension>
        </extensions>
      </trkpt>
      <trkpt lat="42.55879257805645465850830078125" lon="20.0622805394232273101806640625">
        <ele>2181.800048828125</ele>
        <time>2026-06-19T11:43:17.000Z</time>
        <extensions>
          <ns3:TrackPointExtension>
            <ns3:atemp>16.0</ns3:atemp>
          </ns3:TrackPointExtension>
        </extensions>
      </trkpt>
      <trkpt lat="42.55879257805645465850830078125" lon="20.0622805394232273101806640625">
        <ele>2181.800048828125</ele>
        <time>2026-06-19T11:43:18.000Z</time>
        <extensions>
          <ns3:TrackPointExtension>
            <ns3:atemp>16.0</ns3:atemp>
          </ns3:TrackPointExtension>
        </extensions>
      </trkpt>
      <trkpt lat="42.55879257805645465850830078125" lon="20.0622805394232273101806640625">
        <ele>2182</ele>
        <time>2026-06-19T11:43:19.000Z</time>
        <extensions>
          <ns3:TrackPointExtension>
            <ns3:atemp>16.0</ns3:atemp>
          </ns3:TrackPointExtension>
        </extensions>
      </trkpt>
      <trkpt lat="42.55879257805645465850830078125" lon="20.0622805394232273101806640625">
        <ele>2182</ele>
        <time>2026-06-19T11:43:20.000Z</time>
        <extensions>
          <ns3:TrackPointExtension>
            <ns3:atemp>16.0</ns3:atemp>
          </ns3:TrackPointExtension>
        </extensions>
      </trkpt>
      <trkpt lat="42.55879257805645465850830078125" lon="20.0622805394232273101806640625">
        <ele>2182</ele>
        <time>2026-06-19T11:43:21.000Z</time>
        <extensions>
          <ns3:TrackPointExtension>
            <ns3:atemp>16.0</ns3:atemp>
          </ns3:TrackPointExtension>
        </extensions>
      </trkpt>
      <trkpt lat="42.55879257805645465850830078125" lon="20.0622805394232273101806640625">
        <ele>2182</ele>
        <time>2026-06-19T11:43:22.000Z</time>
        <extensions>
          <ns3:TrackPointExtension>
            <ns3:atemp>16.0</ns3:atemp>
          </ns3:TrackPointExtension>
        </extensions>
      </trkpt>
      <trkpt lat="42.55879257805645465850830078125" lon="20.0622805394232273101806640625">
        <ele>2182</ele>
        <time>2026-06-19T11:43:23.000Z</time>
        <extensions>
          <ns3:TrackPointExtension>
            <ns3:atemp>16.0</ns3:atemp>
          </ns3:TrackPointExtension>
        </extensions>
      </trkpt>
      <trkpt lat="42.55879257805645465850830078125" lon="20.0622805394232273101806640625">
        <ele>2182</ele>
        <time>2026-06-19T11:43:24.000Z</time>
        <extensions>
          <ns3:TrackPointExtension>
            <ns3:atemp>16.0</ns3:atemp>
          </ns3:TrackPointExtension>
        </extensions>
      </trkpt>
      <trkpt lat="42.55879257805645465850830078125" lon="20.0622805394232273101806640625">
        <ele>2182</ele>
        <time>2026-06-19T11:43:25.000Z</time>
        <extensions>
          <ns3:TrackPointExtension>
            <ns3:atemp>16.0</ns3:atemp>
          </ns3:TrackPointExtension>
        </extensions>
      </trkpt>
      <trkpt lat="42.55879257805645465850830078125" lon="20.0622805394232273101806640625">
        <ele>2182</ele>
        <time>2026-06-19T11:43:26.000Z</time>
        <extensions>
          <ns3:TrackPointExtension>
            <ns3:atemp>16.0</ns3:atemp>
          </ns3:TrackPointExtension>
        </extensions>
      </trkpt>
      <trkpt lat="42.55879257805645465850830078125" lon="20.0622805394232273101806640625">
        <ele>2182.199951171875</ele>
        <time>2026-06-19T11:43:27.000Z</time>
        <extensions>
          <ns3:TrackPointExtension>
            <ns3:atemp>16.0</ns3:atemp>
          </ns3:TrackPointExtension>
        </extensions>
      </trkpt>
      <trkpt lat="42.55879676900804042816162109375" lon="20.06229638122022151947021484375">
        <ele>2182.199951171875</ele>
        <time>2026-06-19T11:43:28.000Z</time>
        <extensions>
          <ns3:TrackPointExtension>
            <ns3:atemp>16.0</ns3:atemp>
          </ns3:TrackPointExtension>
        </extensions>
      </trkpt>
      <trkpt lat="42.558799870312213897705078125" lon="20.06229755468666553497314453125">
        <ele>2182.199951171875</ele>
        <time>2026-06-19T11:43:29.000Z</time>
        <extensions>
          <ns3:TrackPointExtension>
            <ns3:atemp>16.0</ns3:atemp>
          </ns3:TrackPointExtension>
        </extensions>
      </trkpt>
      <trkpt lat="42.55879995413124561309814453125" lon="20.0622976385056972503662109375">
        <ele>2182.199951171875</ele>
        <time>2026-06-19T11:43:30.000Z</time>
        <extensions>
          <ns3:TrackPointExtension>
            <ns3:atemp>16.0</ns3:atemp>
          </ns3:TrackPointExtension>
        </extensions>
      </trkpt>
      <trkpt lat="42.5588000379502773284912109375" lon="20.06229772232472896575927734375">
        <ele>2182.199951171875</ele>
        <time>2026-06-19T11:43:31.000Z</time>
        <extensions>
          <ns3:TrackPointExtension>
            <ns3:atemp>16.0</ns3:atemp>
          </ns3:TrackPointExtension>
        </extensions>
      </trkpt>
      <trkpt lat="42.5588017143309116363525390625" lon="20.062324963510036468505859375">
        <ele>2182</ele>
        <time>2026-06-19T11:43:32.000Z</time>
        <extensions>
          <ns3:TrackPointExtension>
            <ns3:atemp>16.0</ns3:atemp>
          </ns3:TrackPointExtension>
        </extensions>
      </trkpt>
      <trkpt lat="42.55879408679902553558349609375" lon="20.06234474480152130126953125">
        <ele>2182</ele>
        <time>2026-06-19T11:43:33.000Z</time>
        <extensions>
          <ns3:TrackPointExtension>
            <ns3:atemp>16.0</ns3:atemp>
          </ns3:TrackPointExtension>
        </extensions>
      </trkpt>
      <trkpt lat="42.5587861239910125732421875" lon="20.06236762739717960357666015625">
        <ele>2182</ele>
        <time>2026-06-19T11:43:34.000Z</time>
        <extensions>
          <ns3:TrackPointExtension>
            <ns3:atemp>16.0</ns3:atemp>
          </ns3:TrackPointExtension>
        </extensions>
      </trkpt>
      <trkpt lat="42.5587852858006954193115234375" lon="20.062398724257946014404296875">
        <ele>2182</ele>
        <time>2026-06-19T11:43:35.000Z</time>
        <extensions>
          <ns3:TrackPointExtension>
            <ns3:atemp>16.0</ns3:atemp>
          </ns3:TrackPointExtension>
        </extensions>
      </trkpt>
      <trkpt lat="42.55878637544810771942138671875" lon="20.06242831237614154815673828125">
        <ele>2182</ele>
        <time>2026-06-19T11:43:36.000Z</time>
        <extensions>
          <ns3:TrackPointExtension>
            <ns3:atemp>16.0</ns3:atemp>
          </ns3:TrackPointExtension>
        </extensions>
      </trkpt>
      <trkpt lat="42.55878905765712261199951171875" lon="20.062459073960781097412109375">
        <ele>2182</ele>
        <time>2026-06-19T11:43:37.000Z</time>
        <extensions>
          <ns3:TrackPointExtension>
            <ns3:atemp>16.0</ns3:atemp>
          </ns3:TrackPointExtension>
        </extensions>
      </trkpt>
      <trkpt lat="42.55879819393157958984375" lon="20.06248313002288341522216796875">
        <ele>2182.199951171875</ele>
        <time>2026-06-19T11:43:38.000Z</time>
        <extensions>
          <ns3:TrackPointExtension>
            <ns3:atemp>16.0</ns3:atemp>
          </ns3:TrackPointExtension>
        </extensions>
      </trkpt>
      <trkpt lat="42.5588047318160533905029296875" lon="20.06250031292438507080078125">
        <ele>2182.199951171875</ele>
        <time>2026-06-19T11:43:39.000Z</time>
        <extensions>
          <ns3:TrackPointExtension>
            <ns3:atemp>16.0</ns3:atemp>
          </ns3:TrackPointExtension>
        </extensions>
      </trkpt>
      <trkpt lat="42.55880699492990970611572265625" lon="20.06252017803490161895751953125">
        <ele>2182.39990234375</ele>
        <time>2026-06-19T11:43:40.000Z</time>
        <extensions>
          <ns3:TrackPointExtension>
            <ns3:atemp>16.0</ns3:atemp>
          </ns3:TrackPointExtension>
        </extensions>
      </trkpt>
      <trkpt lat="42.5588102638721466064453125" lon="20.06254716776311397552490234375">
        <ele>2182.60009765625</ele>
        <time>2026-06-19T11:43:41.000Z</time>
        <extensions>
          <ns3:TrackPointExtension>
            <ns3:atemp>16.0</ns3:atemp>
          </ns3:TrackPointExtension>
        </extensions>
      </trkpt>
      <trkpt lat="42.55881319753825664520263671875" lon="20.0625695474445819854736328125">
        <ele>2182.800048828125</ele>
        <time>2026-06-19T11:43:42.000Z</time>
        <extensions>
          <ns3:TrackPointExtension>
            <ns3:atemp>16.0</ns3:atemp>
          </ns3:TrackPointExtension>
        </extensions>
      </trkpt>
      <trkpt lat="42.55881219170987606048583984375" lon="20.06259410642087459564208984375">
        <ele>2183</ele>
        <time>2026-06-19T11:43:43.000Z</time>
        <extensions>
          <ns3:TrackPointExtension>
            <ns3:atemp>16.0</ns3:atemp>
          </ns3:TrackPointExtension>
        </extensions>
      </trkpt>
      <trkpt lat="42.55881361663341522216796875" lon="20.06262025795876979827880859375">
        <ele>2183.199951171875</ele>
        <time>2026-06-19T11:43:44.000Z</time>
        <extensions>
          <ns3:TrackPointExtension>
            <ns3:atemp>16.0</ns3:atemp>
          </ns3:TrackPointExtension>
        </extensions>
      </trkpt>
      <trkpt lat="42.5588174723088741302490234375" lon="20.0626439787447452545166015625">
        <ele>2183.60009765625</ele>
        <time>2026-06-19T11:43:45.000Z</time>
        <extensions>
          <ns3:TrackPointExtension>
            <ns3:atemp>16.0</ns3:atemp>
          </ns3:TrackPointExtension>
        </extensions>
      </trkpt>
      <trkpt lat="42.5588211603462696075439453125" lon="20.062663257122039794921875">
        <ele>2184</ele>
        <time>2026-06-19T11:43:46.000Z</time>
        <extensions>
          <ns3:TrackPointExtension>
            <ns3:atemp>16.0</ns3:atemp>
          </ns3:TrackPointExtension>
        </extensions>
      </trkpt>
      <trkpt lat="42.5588228367269039154052734375" lon="20.0626788474619388580322265625">
        <ele>2184.39990234375</ele>
        <time>2026-06-19T11:43:47.000Z</time>
        <extensions>
          <ns3:TrackPointExtension>
            <ns3:atemp>16.0</ns3:atemp>
          </ns3:TrackPointExtension>
        </extensions>
      </trkpt>
      <trkpt lat="42.55881495773792266845703125" lon="20.0626758299767971038818359375">
        <ele>2184.60009765625</ele>
        <time>2026-06-19T11:43:48.000Z</time>
        <extensions>
          <ns3:TrackPointExtension>
            <ns3:atemp>16.0</ns3:atemp>
          </ns3:TrackPointExtension>
        </extensions>
      </trkpt>
      <trkpt lat="42.55881822668015956878662109375" lon="20.06268161348998546600341796875">
        <ele>2185</ele>
        <time>2026-06-19T11:43:49.000Z</time>
        <extensions>
          <ns3:TrackPointExtension>
            <ns3:atemp>16.0</ns3:atemp>
          </ns3:TrackPointExtension>
        </extensions>
      </trkpt>
      <trkpt lat="42.55881822668015956878662109375" lon="20.062681697309017181396484375">
        <ele>2185.39990234375</ele>
        <time>2026-06-19T11:43:50.000Z</time>
        <extensions>
          <ns3:TrackPointExtension>
            <ns3:atemp>16.0</ns3:atemp>
          </ns3:TrackPointExtension>
        </extensions>
      </trkpt>
      <trkpt lat="42.55881839431822299957275390625" lon="20.06268178112804889678955078125">
        <ele>2185.800048828125</ele>
        <time>2026-06-19T11:43:51.000Z</time>
        <extensions>
          <ns3:TrackPointExtension>
            <ns3:atemp>16.0</ns3:atemp>
          </ns3:TrackPointExtension>
        </extensions>
      </trkpt>
      <trkpt lat="42.55882568657398223876953125" lon="20.06269368343055248260498046875">
        <ele>2185.800048828125</ele>
        <time>2026-06-19T11:43:52.000Z</time>
        <extensions>
          <ns3:TrackPointExtension>
            <ns3:atemp>16.0</ns3:atemp>
          </ns3:TrackPointExtension>
        </extensions>
      </trkpt>
      <trkpt lat="42.55883113481104373931884765625" lon="20.06270684301853179931640625">
        <ele>2185.800048828125</ele>
        <time>2026-06-19T11:43:53.000Z</time>
        <extensions>
          <ns3:TrackPointExtension>
            <ns3:atemp>16.0</ns3:atemp>
          </ns3:TrackPointExtension>
        </extensions>
      </trkpt>
      <trkpt lat="42.55882996134459972381591796875" lon="20.062710531055927276611328125">
        <ele>2185.800048828125</ele>
        <time>2026-06-19T11:43:54.000Z</time>
        <extensions>
          <ns3:TrackPointExtension>
            <ns3:atemp>16.0</ns3:atemp>
          </ns3:TrackPointExtension>
        </extensions>
      </trkpt>
      <trkpt lat="42.55882811732590198516845703125" lon="20.06271421909332275390625">
        <ele>2185.800048828125</ele>
        <time>2026-06-19T11:43:55.000Z</time>
        <extensions>
          <ns3:TrackPointExtension>
            <ns3:atemp>16.0</ns3:atemp>
          </ns3:TrackPointExtension>
        </extensions>
      </trkpt>
      <trkpt lat="42.55882811732590198516845703125" lon="20.06271413527429103851318359375">
        <ele>2185.800048828125</ele>
        <time>2026-06-19T11:43:56.000Z</time>
        <extensions>
          <ns3:TrackPointExtension>
            <ns3:atemp>16.0</ns3:atemp>
          </ns3:TrackPointExtension>
        </extensions>
      </trkpt>
      <trkpt lat="42.55882811732590198516845703125" lon="20.06271413527429103851318359375">
        <ele>2185.800048828125</ele>
        <time>2026-06-19T11:43:57.000Z</time>
        <extensions>
          <ns3:TrackPointExtension>
            <ns3:atemp>16.0</ns3:atemp>
          </ns3:TrackPointExtension>
        </extensions>
      </trkpt>
      <trkpt lat="42.55882828496396541595458984375" lon="20.06271421909332275390625">
        <ele>2186</ele>
        <time>2026-06-19T11:43:58.000Z</time>
        <extensions>
          <ns3:TrackPointExtension>
            <ns3:atemp>16.0</ns3:atemp>
          </ns3:TrackPointExtension>
        </extensions>
      </trkpt>
      <trkpt lat="42.55882828496396541595458984375" lon="20.06272788159549236297607421875">
        <ele>2186</ele>
        <time>2026-06-19T11:43:59.000Z</time>
        <extensions>
          <ns3:TrackPointExtension>
            <ns3:atemp>16.0</ns3:atemp>
          </ns3:TrackPointExtension>
        </extensions>
      </trkpt>
      <trkpt lat="42.55883038043975830078125" lon="20.0627348385751247406005859375">
        <ele>2186.199951171875</ele>
        <time>2026-06-19T11:44:00.000Z</time>
        <extensions>
          <ns3:TrackPointExtension>
            <ns3:atemp>16.0</ns3:atemp>
          </ns3:TrackPointExtension>
        </extensions>
      </trkpt>
      <trkpt lat="42.55882929079234600067138671875" lon="20.06273391656577587127685546875">
        <ele>2186.199951171875</ele>
        <time>2026-06-19T11:44:01.000Z</time>
        <extensions>
          <ns3:TrackPointExtension>
            <ns3:atemp>16.0</ns3:atemp>
          </ns3:TrackPointExtension>
        </extensions>
      </trkpt>
      <trkpt lat="42.558829374611377716064453125" lon="20.062734000384807586669921875">
        <ele>2186.199951171875</ele>
        <time>2026-06-19T11:44:02.000Z</time>
        <extensions>
          <ns3:TrackPointExtension>
            <ns3:atemp>16.0</ns3:atemp>
          </ns3:TrackPointExtension>
        </extensions>
      </trkpt>
      <trkpt lat="42.558829374611377716064453125" lon="20.062734000384807586669921875">
        <ele>2186.199951171875</ele>
        <time>2026-06-19T11:44:03.000Z</time>
        <extensions>
          <ns3:TrackPointExtension>
            <ns3:atemp>16.0</ns3:atemp>
          </ns3:TrackPointExtension>
        </extensions>
      </trkpt>
      <trkpt lat="42.558829374611377716064453125" lon="20.062734000384807586669921875">
        <ele>2186.199951171875</ele>
        <time>2026-06-19T11:44:04.000Z</time>
        <extensions>
          <ns3:TrackPointExtension>
            <ns3:atemp>16.0</ns3:atemp>
          </ns3:TrackPointExtension>
        </extensions>
      </trkpt>
      <trkpt lat="42.558829374611377716064453125" lon="20.062734000384807586669921875">
        <ele>2186.199951171875</ele>
        <time>2026-06-19T11:44:05.000Z</time>
        <extensions>
          <ns3:TrackPointExtension>
            <ns3:atemp>16.0</ns3:atemp>
          </ns3:TrackPointExtension>
        </extensions>
      </trkpt>
      <trkpt lat="42.558829374611377716064453125" lon="20.062734000384807586669921875">
        <ele>2186.199951171875</ele>
        <time>2026-06-19T11:44:06.000Z</time>
        <extensions>
          <ns3:TrackPointExtension>
            <ns3:atemp>16.0</ns3:atemp>
          </ns3:TrackPointExtension>
        </extensions>
      </trkpt>
      <trkpt lat="42.558829374611377716064453125" lon="20.062734000384807586669921875">
        <ele>2186.199951171875</ele>
        <time>2026-06-19T11:44:07.000Z</time>
        <extensions>
          <ns3:TrackPointExtension>
            <ns3:atemp>16.0</ns3:atemp>
          </ns3:TrackPointExtension>
        </extensions>
      </trkpt>
      <trkpt lat="42.558829374611377716064453125" lon="20.062734000384807586669921875">
        <ele>2186.199951171875</ele>
        <time>2026-06-19T11:44:08.000Z</time>
        <extensions>
          <ns3:TrackPointExtension>
            <ns3:atemp>16.0</ns3:atemp>
          </ns3:TrackPointExtension>
        </extensions>
      </trkpt>
      <trkpt lat="42.558829374611377716064453125" lon="20.062734000384807586669921875">
        <ele>2186.199951171875</ele>
        <time>2026-06-19T11:44:09.000Z</time>
        <extensions>
          <ns3:TrackPointExtension>
            <ns3:atemp>16.0</ns3:atemp>
          </ns3:TrackPointExtension>
        </extensions>
      </trkpt>
      <trkpt lat="42.558829374611377716064453125" lon="20.062734000384807586669921875">
        <ele>2186.199951171875</ele>
        <time>2026-06-19T11:44:10.000Z</time>
        <extensions>
          <ns3:TrackPointExtension>
            <ns3:atemp>16.0</ns3:atemp>
          </ns3:TrackPointExtension>
        </extensions>
      </trkpt>
      <trkpt lat="42.558829374611377716064453125" lon="20.062734000384807586669921875">
        <ele>2186.199951171875</ele>
        <time>2026-06-19T11:44:11.000Z</time>
        <extensions>
          <ns3:TrackPointExtension>
            <ns3:atemp>16.0</ns3:atemp>
          </ns3:TrackPointExtension>
        </extensions>
      </trkpt>
      <trkpt lat="42.558829374611377716064453125" lon="20.062734000384807586669921875">
        <ele>2186.199951171875</ele>
        <time>2026-06-19T11:44:12.000Z</time>
        <extensions>
          <ns3:TrackPointExtension>
            <ns3:atemp>16.0</ns3:atemp>
          </ns3:TrackPointExtension>
        </extensions>
      </trkpt>
      <trkpt lat="42.558829374611377716064453125" lon="20.062734000384807586669921875">
        <ele>2186.199951171875</ele>
        <time>2026-06-19T11:44:13.000Z</time>
        <extensions>
          <ns3:TrackPointExtension>
            <ns3:atemp>16.0</ns3:atemp>
          </ns3:TrackPointExtension>
        </extensions>
      </trkpt>
      <trkpt lat="42.558829374611377716064453125" lon="20.062734000384807586669921875">
        <ele>2186.199951171875</ele>
        <time>2026-06-19T11:44:14.000Z</time>
        <extensions>
          <ns3:TrackPointExtension>
            <ns3:atemp>16.0</ns3:atemp>
          </ns3:TrackPointExtension>
        </extensions>
      </trkpt>
      <trkpt lat="42.558829374611377716064453125" lon="20.062734000384807586669921875">
        <ele>2186.199951171875</ele>
        <time>2026-06-19T11:44:15.000Z</time>
        <extensions>
          <ns3:TrackPointExtension>
            <ns3:atemp>16.0</ns3:atemp>
          </ns3:TrackPointExtension>
        </extensions>
      </trkpt>
      <trkpt lat="42.558829374611377716064453125" lon="20.062734000384807586669921875">
        <ele>2186.199951171875</ele>
        <time>2026-06-19T11:44:16.000Z</time>
        <extensions>
          <ns3:TrackPointExtension>
            <ns3:atemp>16.0</ns3:atemp>
          </ns3:TrackPointExtension>
        </extensions>
      </trkpt>
      <trkpt lat="42.558829374611377716064453125" lon="20.062734000384807586669921875">
        <ele>2186.199951171875</ele>
        <time>2026-06-19T11:44:17.000Z</time>
        <extensions>
          <ns3:TrackPointExtension>
            <ns3:atemp>16.0</ns3:atemp>
          </ns3:TrackPointExtension>
        </extensions>
      </trkpt>
      <trkpt lat="42.558829374611377716064453125" lon="20.062734000384807586669921875">
        <ele>2186.199951171875</ele>
        <time>2026-06-19T11:44:18.000Z</time>
        <extensions>
          <ns3:TrackPointExtension>
            <ns3:atemp>16.0</ns3:atemp>
          </ns3:TrackPointExtension>
        </extensions>
      </trkpt>
      <trkpt lat="42.558829374611377716064453125" lon="20.062734000384807586669921875">
        <ele>2186.199951171875</ele>
        <time>2026-06-19T11:44:19.000Z</time>
        <extensions>
          <ns3:TrackPointExtension>
            <ns3:atemp>16.0</ns3:atemp>
          </ns3:TrackPointExtension>
        </extensions>
      </trkpt>
      <trkpt lat="42.558829374611377716064453125" lon="20.062734000384807586669921875">
        <ele>2186.199951171875</ele>
        <time>2026-06-19T11:44:20.000Z</time>
        <extensions>
          <ns3:TrackPointExtension>
            <ns3:atemp>16.0</ns3:atemp>
          </ns3:TrackPointExtension>
        </extensions>
      </trkpt>
      <trkpt lat="42.558829374611377716064453125" lon="20.062734000384807586669921875">
        <ele>2186.199951171875</ele>
        <time>2026-06-19T11:44:21.000Z</time>
        <extensions>
          <ns3:TrackPointExtension>
            <ns3:atemp>16.0</ns3:atemp>
          </ns3:TrackPointExtension>
        </extensions>
      </trkpt>
      <trkpt lat="42.558830045163631439208984375" lon="20.0627331621944904327392578125">
        <ele>2186.199951171875</ele>
        <time>2026-06-19T11:44:22.000Z</time>
        <extensions>
          <ns3:TrackPointExtension>
            <ns3:atemp>16.0</ns3:atemp>
          </ns3:TrackPointExtension>
        </extensions>
      </trkpt>
      <trkpt lat="42.55883641541004180908203125" lon="20.0627532787621021270751953125">
        <ele>2186.199951171875</ele>
        <time>2026-06-19T11:44:23.000Z</time>
        <extensions>
          <ns3:TrackPointExtension>
            <ns3:atemp>16.0</ns3:atemp>
          </ns3:TrackPointExtension>
        </extensions>
      </trkpt>
      <trkpt lat="42.55884337238967418670654296875" lon="20.0627868063747882843017578125">
        <ele>2186.199951171875</ele>
        <time>2026-06-19T11:44:24.000Z</time>
        <extensions>
          <ns3:TrackPointExtension>
            <ns3:atemp>16.0</ns3:atemp>
          </ns3:TrackPointExtension>
        </extensions>
      </trkpt>
      <trkpt lat="42.5588499940931797027587890625" lon="20.06281689740717411041259765625">
        <ele>2186.199951171875</ele>
        <time>2026-06-19T11:44:25.000Z</time>
        <extensions>
          <ns3:TrackPointExtension>
            <ns3:atemp>16.0</ns3:atemp>
          </ns3:TrackPointExtension>
        </extensions>
      </trkpt>
      <trkpt lat="42.55885376594960689544677734375" lon="20.06284606643021106719970703125">
        <ele>2186.199951171875</ele>
        <time>2026-06-19T11:44:26.000Z</time>
        <extensions>
          <ns3:TrackPointExtension>
            <ns3:atemp>16.0</ns3:atemp>
          </ns3:TrackPointExtension>
        </extensions>
      </trkpt>
      <trkpt lat="42.55885745398700237274169921875" lon="20.0628791749477386474609375">
        <ele>2186.199951171875</ele>
        <time>2026-06-19T11:44:27.000Z</time>
        <extensions>
          <ns3:TrackPointExtension>
            <ns3:atemp>16.0</ns3:atemp>
          </ns3:TrackPointExtension>
        </extensions>
      </trkpt>
      <trkpt lat="42.55886030383408069610595703125" lon="20.06291010417044162750244140625">
        <ele>2186.39990234375</ele>
        <time>2026-06-19T11:44:28.000Z</time>
        <extensions>
          <ns3:TrackPointExtension>
            <ns3:atemp>16.0</ns3:atemp>
          </ns3:TrackPointExtension>
        </extensions>
      </trkpt>
      <trkpt lat="42.55886298604309558868408203125" lon="20.06294463761150836944580078125">
        <ele>2186.39990234375</ele>
        <time>2026-06-19T11:44:29.000Z</time>
        <extensions>
          <ns3:TrackPointExtension>
            <ns3:atemp>16.0</ns3:atemp>
          </ns3:TrackPointExtension>
        </extensions>
      </trkpt>
      <trkpt lat="42.5588650815188884735107421875" lon="20.062979757785797119140625">
        <ele>2186.60009765625</ele>
        <time>2026-06-19T11:44:30.000Z</time>
        <extensions>
          <ns3:TrackPointExtension>
            <ns3:atemp>16.0</ns3:atemp>
          </ns3:TrackPointExtension>
        </extensions>
      </trkpt>
      <trkpt lat="42.5588660873472690582275390625" lon="20.0630101002752780914306640625">
        <ele>2186.800048828125</ele>
        <time>2026-06-19T11:44:31.000Z</time>
        <extensions>
          <ns3:TrackPointExtension>
            <ns3:atemp>16.0</ns3:atemp>
          </ns3:TrackPointExtension>
        </extensions>
      </trkpt>
      <trkpt lat="42.5588637404143810272216796875" lon="20.0630401074886322021484375">
        <ele>2187</ele>
        <time>2026-06-19T11:44:32.000Z</time>
        <extensions>
          <ns3:TrackPointExtension>
            <ns3:atemp>16.0</ns3:atemp>
          </ns3:TrackPointExtension>
        </extensions>
      </trkpt>
      <trkpt lat="42.55886432714760303497314453125" lon="20.063065923750400543212890625">
        <ele>2187.199951171875</ele>
        <time>2026-06-19T11:44:33.000Z</time>
        <extensions>
          <ns3:TrackPointExtension>
            <ns3:atemp>16.0</ns3:atemp>
          </ns3:TrackPointExtension>
        </extensions>
      </trkpt>
      <trkpt lat="42.5588680990040302276611328125" lon="20.06309308111667633056640625">
        <ele>2187.39990234375</ele>
        <time>2026-06-19T11:44:34.000Z</time>
        <extensions>
          <ns3:TrackPointExtension>
            <ns3:atemp>16.0</ns3:atemp>
          </ns3:TrackPointExtension>
        </extensions>
      </trkpt>
      <trkpt lat="42.55886348895728588104248046875" lon="20.06311998702585697174072265625">
        <ele>2187.60009765625</ele>
        <time>2026-06-19T11:44:35.000Z</time>
        <extensions>
          <ns3:TrackPointExtension>
            <ns3:atemp>16.0</ns3:atemp>
          </ns3:TrackPointExtension>
        </extensions>
      </trkpt>
      <trkpt lat="42.55886323750019073486328125" lon="20.06314940750598907470703125">
        <ele>2188</ele>
        <time>2026-06-19T11:44:36.000Z</time>
        <extensions>
          <ns3:TrackPointExtension>
            <ns3:atemp>16.0</ns3:atemp>
          </ns3:TrackPointExtension>
        </extensions>
      </trkpt>
      <trkpt lat="42.5588597171008586883544921875" lon="20.0631794147193431854248046875">
        <ele>2188.199951171875</ele>
        <time>2026-06-19T11:44:37.000Z</time>
        <extensions>
          <ns3:TrackPointExtension>
            <ns3:atemp>16.0</ns3:atemp>
          </ns3:TrackPointExtension>
        </extensions>
      </trkpt>
      <trkpt lat="42.55885946564376354217529296875" lon="20.06320816464722156524658203125">
        <ele>2188.39990234375</ele>
        <time>2026-06-19T11:44:38.000Z</time>
        <extensions>
          <ns3:TrackPointExtension>
            <ns3:atemp>16.0</ns3:atemp>
          </ns3:TrackPointExtension>
        </extensions>
      </trkpt>
      <trkpt lat="42.5588558614253997802734375" lon="20.06323431618511676788330078125">
        <ele>2188.60009765625</ele>
        <time>2026-06-19T11:44:39.000Z</time>
        <extensions>
          <ns3:TrackPointExtension>
            <ns3:atemp>16.0</ns3:atemp>
          </ns3:TrackPointExtension>
        </extensions>
      </trkpt>
      <trkpt lat="42.55885108374059200286865234375" lon="20.0632578693330287933349609375">
        <ele>2189</ele>
        <time>2026-06-19T11:44:40.000Z</time>
        <extensions>
          <ns3:TrackPointExtension>
            <ns3:atemp>16.0</ns3:atemp>
          </ns3:TrackPointExtension>
        </extensions>
      </trkpt>
      <trkpt lat="42.55884706042706966400146484375" lon="20.063284523785114288330078125">
        <ele>2189.199951171875</ele>
        <time>2026-06-19T11:44:41.000Z</time>
        <extensions>
          <ns3:TrackPointExtension>
            <ns3:atemp>16.0</ns3:atemp>
          </ns3:TrackPointExtension>
        </extensions>
      </trkpt>
      <trkpt lat="42.55884085781872272491455078125" lon="20.06331075914204120635986328125">
        <ele>2189.39990234375</ele>
        <time>2026-06-19T11:44:42.000Z</time>
        <extensions>
          <ns3:TrackPointExtension>
            <ns3:atemp>16.0</ns3:atemp>
          </ns3:TrackPointExtension>
        </extensions>
      </trkpt>
      <trkpt lat="42.5588345713913440704345703125" lon="20.0633339770138263702392578125">
        <ele>2189.800048828125</ele>
        <time>2026-06-19T11:44:43.000Z</time>
        <extensions>
          <ns3:TrackPointExtension>
            <ns3:atemp>16.0</ns3:atemp>
          </ns3:TrackPointExtension>
        </extensions>
      </trkpt>
      <trkpt lat="42.55882778204977512359619140625" lon="20.06335199810564517974853515625">
        <ele>2190</ele>
        <time>2026-06-19T11:44:44.000Z</time>
        <extensions>
          <ns3:TrackPointExtension>
            <ns3:atemp>16.0</ns3:atemp>
          </ns3:TrackPointExtension>
        </extensions>
      </trkpt>
      <trkpt lat="42.55881520919501781463623046875" lon="20.063367672264575958251953125">
        <ele>2190.199951171875</ele>
        <time>2026-06-19T11:44:45.000Z</time>
        <extensions>
          <ns3:TrackPointExtension>
            <ns3:atemp>16.0</ns3:atemp>
          </ns3:TrackPointExtension>
        </extensions>
      </trkpt>
      <trkpt lat="42.558799199759960174560546875" lon="20.06338946521282196044921875">
        <ele>2190.39990234375</ele>
        <time>2026-06-19T11:44:46.000Z</time>
        <extensions>
          <ns3:TrackPointExtension>
            <ns3:atemp>16.0</ns3:atemp>
          </ns3:TrackPointExtension>
        </extensions>
      </trkpt>
      <trkpt lat="42.5587780773639678955078125" lon="20.06340958178043365478515625">
        <ele>2190.39990234375</ele>
        <time>2026-06-19T11:44:47.000Z</time>
        <extensions>
          <ns3:TrackPointExtension>
            <ns3:atemp>16.0</ns3:atemp>
          </ns3:TrackPointExtension>
        </extensions>
      </trkpt>
      <trkpt lat="42.558750249445438385009765625" lon="20.06342827342450618743896484375">
        <ele>2190.39990234375</ele>
        <time>2026-06-19T11:44:48.000Z</time>
        <extensions>
          <ns3:TrackPointExtension>
            <ns3:atemp>16.0</ns3:atemp>
          </ns3:TrackPointExtension>
        </extensions>
      </trkpt>
      <trkpt lat="42.558725439012050628662109375" lon="20.0634389184415340423583984375">
        <ele>2190.39990234375</ele>
        <time>2026-06-19T11:44:49.000Z</time>
        <extensions>
          <ns3:TrackPointExtension>
            <ns3:atemp>16.0</ns3:atemp>
          </ns3:TrackPointExtension>
        </extensions>
      </trkpt>
      <trkpt lat="42.55870071239769458770751953125" lon="20.0634513236582279205322265625">
        <ele>2190.39990234375</ele>
        <time>2026-06-19T11:44:50.000Z</time>
        <extensions>
          <ns3:TrackPointExtension>
            <ns3:atemp>16.0</ns3:atemp>
          </ns3:TrackPointExtension>
        </extensions>
      </trkpt>
      <trkpt lat="42.55867992527782917022705078125" lon="20.0634650699794292449951171875">
        <ele>2190.199951171875</ele>
        <time>2026-06-19T11:44:51.000Z</time>
        <extensions>
          <ns3:TrackPointExtension>
            <ns3:atemp>16.0</ns3:atemp>
          </ns3:TrackPointExtension>
        </extensions>
      </trkpt>
      <trkpt lat="42.55866399966180324554443359375" lon="20.06347470916807651519775390625">
        <ele>2190.199951171875</ele>
        <time>2026-06-19T11:44:52.000Z</time>
        <extensions>
          <ns3:TrackPointExtension>
            <ns3:atemp>16.0</ns3:atemp>
          </ns3:TrackPointExtension>
        </extensions>
      </trkpt>
      <trkpt lat="42.5586505047976970672607421875" lon="20.06347705610096454620361328125">
        <ele>2190.199951171875</ele>
        <time>2026-06-19T11:44:53.000Z</time>
        <extensions>
          <ns3:TrackPointExtension>
            <ns3:atemp>16.0</ns3:atemp>
          </ns3:TrackPointExtension>
        </extensions>
      </trkpt>
      <trkpt lat="42.558646984398365020751953125" lon="20.06347596645355224609375">
        <ele>2190.199951171875</ele>
        <time>2026-06-19T11:44:54.000Z</time>
        <extensions>
          <ns3:TrackPointExtension>
            <ns3:atemp>16.0</ns3:atemp>
          </ns3:TrackPointExtension>
        </extensions>
      </trkpt>
      <trkpt lat="42.558646984398365020751953125" lon="20.06347596645355224609375">
        <ele>2190.39990234375</ele>
        <time>2026-06-19T11:44:55.000Z</time>
        <extensions>
          <ns3:TrackPointExtension>
            <ns3:atemp>16.0</ns3:atemp>
          </ns3:TrackPointExtension>
        </extensions>
      </trkpt>
      <trkpt lat="42.558646984398365020751953125" lon="20.06347596645355224609375">
        <ele>2190.39990234375</ele>
        <time>2026-06-19T11:44:56.000Z</time>
        <extensions>
          <ns3:TrackPointExtension>
            <ns3:atemp>16.0</ns3:atemp>
          </ns3:TrackPointExtension>
        </extensions>
      </trkpt>
      <trkpt lat="42.558646984398365020751953125" lon="20.06347596645355224609375">
        <ele>2190.60009765625</ele>
        <time>2026-06-19T11:44:57.000Z</time>
        <extensions>
          <ns3:TrackPointExtension>
            <ns3:atemp>16.0</ns3:atemp>
          </ns3:TrackPointExtension>
        </extensions>
      </trkpt>
      <trkpt lat="42.558646984398365020751953125" lon="20.06347596645355224609375">
        <ele>2190.60009765625</ele>
        <time>2026-06-19T11:44:58.000Z</time>
        <extensions>
          <ns3:TrackPointExtension>
            <ns3:atemp>16.0</ns3:atemp>
          </ns3:TrackPointExtension>
        </extensions>
      </trkpt>
      <trkpt lat="42.55864740349352359771728515625" lon="20.06347588263452053070068359375">
        <ele>2190.60009765625</ele>
        <time>2026-06-19T11:44:59.000Z</time>
        <extensions>
          <ns3:TrackPointExtension>
            <ns3:atemp>16.0</ns3:atemp>
          </ns3:TrackPointExtension>
        </extensions>
      </trkpt>
      <trkpt lat="42.558646984398365020751953125" lon="20.06347596645355224609375">
        <ele>2190.60009765625</ele>
        <time>2026-06-19T11:45:00.000Z</time>
        <extensions>
          <ns3:TrackPointExtension>
            <ns3:atemp>16.0</ns3:atemp>
          </ns3:TrackPointExtension>
        </extensions>
      </trkpt>
      <trkpt lat="42.558646984398365020751953125" lon="20.06347596645355224609375">
        <ele>2190.60009765625</ele>
        <time>2026-06-19T11:45:01.000Z</time>
        <extensions>
          <ns3:TrackPointExtension>
            <ns3:atemp>16.0</ns3:atemp>
          </ns3:TrackPointExtension>
        </extensions>
      </trkpt>
      <trkpt lat="42.558646984398365020751953125" lon="20.06347596645355224609375">
        <ele>2190.39990234375</ele>
        <time>2026-06-19T11:45:02.000Z</time>
        <extensions>
          <ns3:TrackPointExtension>
            <ns3:atemp>16.0</ns3:atemp>
          </ns3:TrackPointExtension>
        </extensions>
      </trkpt>
      <trkpt lat="42.558646984398365020751953125" lon="20.06347596645355224609375">
        <ele>2190.39990234375</ele>
        <time>2026-06-19T11:45:03.000Z</time>
        <extensions>
          <ns3:TrackPointExtension>
            <ns3:atemp>16.0</ns3:atemp>
          </ns3:TrackPointExtension>
        </extensions>
      </trkpt>
      <trkpt lat="42.558646984398365020751953125" lon="20.06347596645355224609375">
        <ele>2190.39990234375</ele>
        <time>2026-06-19T11:45:04.000Z</time>
        <extensions>
          <ns3:TrackPointExtension>
            <ns3:atemp>16.0</ns3:atemp>
          </ns3:TrackPointExtension>
        </extensions>
      </trkpt>
      <trkpt lat="42.558646984398365020751953125" lon="20.06347596645355224609375">
        <ele>2190.39990234375</ele>
        <time>2026-06-19T11:45:05.000Z</time>
        <extensions>
          <ns3:TrackPointExtension>
            <ns3:atemp>16.0</ns3:atemp>
          </ns3:TrackPointExtension>
        </extensions>
      </trkpt>
      <trkpt lat="42.558646984398365020751953125" lon="20.06347596645355224609375">
        <ele>2190.39990234375</ele>
        <time>2026-06-19T11:45:06.000Z</time>
        <extensions>
          <ns3:TrackPointExtension>
            <ns3:atemp>16.0</ns3:atemp>
          </ns3:TrackPointExtension>
        </extensions>
      </trkpt>
      <trkpt lat="42.558646984398365020751953125" lon="20.06347596645355224609375">
        <ele>2190.39990234375</ele>
        <time>2026-06-19T11:45:07.000Z</time>
        <extensions>
          <ns3:TrackPointExtension>
            <ns3:atemp>16.0</ns3:atemp>
          </ns3:TrackPointExtension>
        </extensions>
      </trkpt>
      <trkpt lat="42.558646984398365020751953125" lon="20.06347596645355224609375">
        <ele>2190.39990234375</ele>
        <time>2026-06-19T11:45:08.000Z</time>
        <extensions>
          <ns3:TrackPointExtension>
            <ns3:atemp>16.0</ns3:atemp>
          </ns3:TrackPointExtension>
        </extensions>
      </trkpt>
      <trkpt lat="42.558646984398365020751953125" lon="20.06347596645355224609375">
        <ele>2190.199951171875</ele>
        <time>2026-06-19T11:45:09.000Z</time>
        <extensions>
          <ns3:TrackPointExtension>
            <ns3:atemp>16.0</ns3:atemp>
          </ns3:TrackPointExtension>
        </extensions>
      </trkpt>
      <trkpt lat="42.558646984398365020751953125" lon="20.06347596645355224609375">
        <ele>2190.199951171875</ele>
        <time>2026-06-19T11:45:10.000Z</time>
        <extensions>
          <ns3:TrackPointExtension>
            <ns3:atemp>16.0</ns3:atemp>
          </ns3:TrackPointExtension>
        </extensions>
      </trkpt>
      <trkpt lat="42.558646984398365020751953125" lon="20.06347596645355224609375">
        <ele>2190.199951171875</ele>
        <time>2026-06-19T11:45:11.000Z</time>
        <extensions>
          <ns3:TrackPointExtension>
            <ns3:atemp>16.0</ns3:atemp>
          </ns3:TrackPointExtension>
        </extensions>
      </trkpt>
      <trkpt lat="42.558646984398365020751953125" lon="20.06347596645355224609375">
        <ele>2190.39990234375</ele>
        <time>2026-06-19T11:45:12.000Z</time>
        <extensions>
          <ns3:TrackPointExtension>
            <ns3:atemp>16.0</ns3:atemp>
          </ns3:TrackPointExtension>
        </extensions>
      </trkpt>
      <trkpt lat="42.558646984398365020751953125" lon="20.06347596645355224609375">
        <ele>2190.39990234375</ele>
        <time>2026-06-19T11:45:13.000Z</time>
        <extensions>
          <ns3:TrackPointExtension>
            <ns3:atemp>16.0</ns3:atemp>
          </ns3:TrackPointExtension>
        </extensions>
      </trkpt>
      <trkpt lat="42.558646984398365020751953125" lon="20.06347596645355224609375">
        <ele>2190.39990234375</ele>
        <time>2026-06-19T11:45:14.000Z</time>
        <extensions>
          <ns3:TrackPointExtension>
            <ns3:atemp>16.0</ns3:atemp>
          </ns3:TrackPointExtension>
        </extensions>
      </trkpt>
      <trkpt lat="42.558646984398365020751953125" lon="20.06347596645355224609375">
        <ele>2190.39990234375</ele>
        <time>2026-06-19T11:45:15.000Z</time>
        <extensions>
          <ns3:TrackPointExtension>
            <ns3:atemp>16.0</ns3:atemp>
          </ns3:TrackPointExtension>
        </extensions>
      </trkpt>
      <trkpt lat="42.558646984398365020751953125" lon="20.06347596645355224609375">
        <ele>2190.39990234375</ele>
        <time>2026-06-19T11:45:16.000Z</time>
        <extensions>
          <ns3:TrackPointExtension>
            <ns3:atemp>16.0</ns3:atemp>
          </ns3:TrackPointExtension>
        </extensions>
      </trkpt>
      <trkpt lat="42.558646984398365020751953125" lon="20.06347596645355224609375">
        <ele>2190.39990234375</ele>
        <time>2026-06-19T11:45:17.000Z</time>
        <extensions>
          <ns3:TrackPointExtension>
            <ns3:atemp>16.0</ns3:atemp>
          </ns3:TrackPointExtension>
        </extensions>
      </trkpt>
      <trkpt lat="42.558646984398365020751953125" lon="20.06347596645355224609375">
        <ele>2190.39990234375</ele>
        <time>2026-06-19T11:45:18.000Z</time>
        <extensions>
          <ns3:TrackPointExtension>
            <ns3:atemp>16.0</ns3:atemp>
          </ns3:TrackPointExtension>
        </extensions>
      </trkpt>
      <trkpt lat="42.558646984398365020751953125" lon="20.06347596645355224609375">
        <ele>2190.39990234375</ele>
        <time>2026-06-19T11:45:19.000Z</time>
        <extensions>
          <ns3:TrackPointExtension>
            <ns3:atemp>16.0</ns3:atemp>
          </ns3:TrackPointExtension>
        </extensions>
      </trkpt>
      <trkpt lat="42.558646984398365020751953125" lon="20.06347596645355224609375">
        <ele>2190.39990234375</ele>
        <time>2026-06-19T11:45:20.000Z</time>
        <extensions>
          <ns3:TrackPointExtension>
            <ns3:atemp>16.0</ns3:atemp>
          </ns3:TrackPointExtension>
        </extensions>
      </trkpt>
      <trkpt lat="42.558646984398365020751953125" lon="20.06347596645355224609375">
        <ele>2190.39990234375</ele>
        <time>2026-06-19T11:45:21.000Z</time>
        <extensions>
          <ns3:TrackPointExtension>
            <ns3:atemp>16.0</ns3:atemp>
          </ns3:TrackPointExtension>
        </extensions>
      </trkpt>
      <trkpt lat="42.558646984398365020751953125" lon="20.06347596645355224609375">
        <ele>2190.39990234375</ele>
        <time>2026-06-19T11:45:22.000Z</time>
        <extensions>
          <ns3:TrackPointExtension>
            <ns3:atemp>16.0</ns3:atemp>
          </ns3:TrackPointExtension>
        </extensions>
      </trkpt>
      <trkpt lat="42.558646984398365020751953125" lon="20.06347596645355224609375">
        <ele>2190.39990234375</ele>
        <time>2026-06-19T11:45:23.000Z</time>
        <extensions>
          <ns3:TrackPointExtension>
            <ns3:atemp>16.0</ns3:atemp>
          </ns3:TrackPointExtension>
        </extensions>
      </trkpt>
      <trkpt lat="42.558646984398365020751953125" lon="20.06347596645355224609375">
        <ele>2190.39990234375</ele>
        <time>2026-06-19T11:45:24.000Z</time>
        <extensions>
          <ns3:TrackPointExtension>
            <ns3:atemp>16.0</ns3:atemp>
          </ns3:TrackPointExtension>
        </extensions>
      </trkpt>
      <trkpt lat="42.558646984398365020751953125" lon="20.06347596645355224609375">
        <ele>2190.199951171875</ele>
        <time>2026-06-19T11:45:25.000Z</time>
        <extensions>
          <ns3:TrackPointExtension>
            <ns3:atemp>16.0</ns3:atemp>
          </ns3:TrackPointExtension>
        </extensions>
      </trkpt>
      <trkpt lat="42.558646984398365020751953125" lon="20.06347596645355224609375">
        <ele>2190.199951171875</ele>
        <time>2026-06-19T11:45:26.000Z</time>
        <extensions>
          <ns3:TrackPointExtension>
            <ns3:atemp>16.0</ns3:atemp>
          </ns3:TrackPointExtension>
        </extensions>
      </trkpt>
      <trkpt lat="42.558646984398365020751953125" lon="20.06347596645355224609375">
        <ele>2190.199951171875</ele>
        <time>2026-06-19T11:45:27.000Z</time>
        <extensions>
          <ns3:TrackPointExtension>
            <ns3:atemp>16.0</ns3:atemp>
          </ns3:TrackPointExtension>
        </extensions>
      </trkpt>
      <trkpt lat="42.558646984398365020751953125" lon="20.06347596645355224609375">
        <ele>2190.199951171875</ele>
        <time>2026-06-19T11:45:28.000Z</time>
        <extensions>
          <ns3:TrackPointExtension>
            <ns3:atemp>16.0</ns3:atemp>
          </ns3:TrackPointExtension>
        </extensions>
      </trkpt>
      <trkpt lat="42.558646984398365020751953125" lon="20.06347596645355224609375">
        <ele>2190.199951171875</ele>
        <time>2026-06-19T11:45:29.000Z</time>
        <extensions>
          <ns3:TrackPointExtension>
            <ns3:atemp>16.0</ns3:atemp>
          </ns3:TrackPointExtension>
        </extensions>
      </trkpt>
      <trkpt lat="42.558646984398365020751953125" lon="20.06347596645355224609375">
        <ele>2190.199951171875</ele>
        <time>2026-06-19T11:45:30.000Z</time>
        <extensions>
          <ns3:TrackPointExtension>
            <ns3:atemp>16.0</ns3:atemp>
          </ns3:TrackPointExtension>
        </extensions>
      </trkpt>
      <trkpt lat="42.558646984398365020751953125" lon="20.06347596645355224609375">
        <ele>2190.199951171875</ele>
        <time>2026-06-19T11:45:31.000Z</time>
        <extensions>
          <ns3:TrackPointExtension>
            <ns3:atemp>16.0</ns3:atemp>
          </ns3:TrackPointExtension>
        </extensions>
      </trkpt>
      <trkpt lat="42.558646984398365020751953125" lon="20.06347596645355224609375">
        <ele>2190.199951171875</ele>
        <time>2026-06-19T11:45:32.000Z</time>
        <extensions>
          <ns3:TrackPointExtension>
            <ns3:atemp>16.0</ns3:atemp>
          </ns3:TrackPointExtension>
        </extensions>
      </trkpt>
      <trkpt lat="42.558646984398365020751953125" lon="20.06347596645355224609375">
        <ele>2190</ele>
        <time>2026-06-19T11:45:33.000Z</time>
        <extensions>
          <ns3:TrackPointExtension>
            <ns3:atemp>16.0</ns3:atemp>
          </ns3:TrackPointExtension>
        </extensions>
      </trkpt>
      <trkpt lat="42.558646984398365020751953125" lon="20.06347596645355224609375">
        <ele>2190</ele>
        <time>2026-06-19T11:45:34.000Z</time>
        <extensions>
          <ns3:TrackPointExtension>
            <ns3:atemp>16.0</ns3:atemp>
          </ns3:TrackPointExtension>
        </extensions>
      </trkpt>
      <trkpt lat="42.558646984398365020751953125" lon="20.06347596645355224609375">
        <ele>2190</ele>
        <time>2026-06-19T11:45:35.000Z</time>
        <extensions>
          <ns3:TrackPointExtension>
            <ns3:atemp>16.0</ns3:atemp>
          </ns3:TrackPointExtension>
        </extensions>
      </trkpt>
      <trkpt lat="42.558646984398365020751953125" lon="20.06347596645355224609375">
        <ele>2190</ele>
        <time>2026-06-19T11:45:36.000Z</time>
        <extensions>
          <ns3:TrackPointExtension>
            <ns3:atemp>16.0</ns3:atemp>
          </ns3:TrackPointExtension>
        </extensions>
      </trkpt>
      <trkpt lat="42.558646984398365020751953125" lon="20.06347596645355224609375">
        <ele>2190</ele>
        <time>2026-06-19T11:45:37.000Z</time>
        <extensions>
          <ns3:TrackPointExtension>
            <ns3:atemp>16.0</ns3:atemp>
          </ns3:TrackPointExtension>
        </extensions>
      </trkpt>
      <trkpt lat="42.558646984398365020751953125" lon="20.06347596645355224609375">
        <ele>2190</ele>
        <time>2026-06-19T11:45:38.000Z</time>
        <extensions>
          <ns3:TrackPointExtension>
            <ns3:atemp>16.0</ns3:atemp>
          </ns3:TrackPointExtension>
        </extensions>
      </trkpt>
      <trkpt lat="42.558646984398365020751953125" lon="20.06347596645355224609375">
        <ele>2190.199951171875</ele>
        <time>2026-06-19T11:45:39.000Z</time>
        <extensions>
          <ns3:TrackPointExtension>
            <ns3:atemp>16.0</ns3:atemp>
          </ns3:TrackPointExtension>
        </extensions>
      </trkpt>
      <trkpt lat="42.558646984398365020751953125" lon="20.06347596645355224609375">
        <ele>2190.199951171875</ele>
        <time>2026-06-19T11:45:40.000Z</time>
        <extensions>
          <ns3:TrackPointExtension>
            <ns3:atemp>16.0</ns3:atemp>
          </ns3:TrackPointExtension>
        </extensions>
      </trkpt>
      <trkpt lat="42.558646984398365020751953125" lon="20.06347596645355224609375">
        <ele>2190.199951171875</ele>
        <time>2026-06-19T11:45:41.000Z</time>
        <extensions>
          <ns3:TrackPointExtension>
            <ns3:atemp>16.0</ns3:atemp>
          </ns3:TrackPointExtension>
        </extensions>
      </trkpt>
      <trkpt lat="42.558646984398365020751953125" lon="20.06347596645355224609375">
        <ele>2190.199951171875</ele>
        <time>2026-06-19T11:45:42.000Z</time>
        <extensions>
          <ns3:TrackPointExtension>
            <ns3:atemp>16.0</ns3:atemp>
          </ns3:TrackPointExtension>
        </extensions>
      </trkpt>
      <trkpt lat="42.558646984398365020751953125" lon="20.06347596645355224609375">
        <ele>2190.199951171875</ele>
        <time>2026-06-19T11:45:43.000Z</time>
        <extensions>
          <ns3:TrackPointExtension>
            <ns3:atemp>16.0</ns3:atemp>
          </ns3:TrackPointExtension>
        </extensions>
      </trkpt>
      <trkpt lat="42.558646984398365020751953125" lon="20.06347596645355224609375">
        <ele>2190.199951171875</ele>
        <time>2026-06-19T11:45:44.000Z</time>
        <extensions>
          <ns3:TrackPointExtension>
            <ns3:atemp>16.0</ns3:atemp>
          </ns3:TrackPointExtension>
        </extensions>
      </trkpt>
      <trkpt lat="42.558646984398365020751953125" lon="20.06347596645355224609375">
        <ele>2190.199951171875</ele>
        <time>2026-06-19T11:45:45.000Z</time>
        <extensions>
          <ns3:TrackPointExtension>
            <ns3:atemp>16.0</ns3:atemp>
          </ns3:TrackPointExtension>
        </extensions>
      </trkpt>
      <trkpt lat="42.558646984398365020751953125" lon="20.06347596645355224609375">
        <ele>2190.199951171875</ele>
        <time>2026-06-19T11:45:46.000Z</time>
        <extensions>
          <ns3:TrackPointExtension>
            <ns3:atemp>16.0</ns3:atemp>
          </ns3:TrackPointExtension>
        </extensions>
      </trkpt>
      <trkpt lat="42.558646984398365020751953125" lon="20.06347596645355224609375">
        <ele>2190.199951171875</ele>
        <time>2026-06-19T11:45:47.000Z</time>
        <extensions>
          <ns3:TrackPointExtension>
            <ns3:atemp>16.0</ns3:atemp>
          </ns3:TrackPointExtension>
        </extensions>
      </trkpt>
      <trkpt lat="42.558646984398365020751953125" lon="20.06347596645355224609375">
        <ele>2190.199951171875</ele>
        <time>2026-06-19T11:45:48.000Z</time>
        <extensions>
          <ns3:TrackPointExtension>
            <ns3:atemp>16.0</ns3:atemp>
          </ns3:TrackPointExtension>
        </extensions>
      </trkpt>
      <trkpt lat="42.558646984398365020751953125" lon="20.06347596645355224609375">
        <ele>2190.199951171875</ele>
        <time>2026-06-19T11:45:49.000Z</time>
        <extensions>
          <ns3:TrackPointExtension>
            <ns3:atemp>16.0</ns3:atemp>
          </ns3:TrackPointExtension>
        </extensions>
      </trkpt>
      <trkpt lat="42.558646984398365020751953125" lon="20.06347596645355224609375">
        <ele>2190.199951171875</ele>
        <time>2026-06-19T11:45:50.000Z</time>
        <extensions>
          <ns3:TrackPointExtension>
            <ns3:atemp>16.0</ns3:atemp>
          </ns3:TrackPointExtension>
        </extensions>
      </trkpt>
      <trkpt lat="42.558646984398365020751953125" lon="20.06347596645355224609375">
        <ele>2190.199951171875</ele>
        <time>2026-06-19T11:45:51.000Z</time>
        <extensions>
          <ns3:TrackPointExtension>
            <ns3:atemp>16.0</ns3:atemp>
          </ns3:TrackPointExtension>
        </extensions>
      </trkpt>
      <trkpt lat="42.558646984398365020751953125" lon="20.06347596645355224609375">
        <ele>2190.199951171875</ele>
        <time>2026-06-19T11:45:52.000Z</time>
        <extensions>
          <ns3:TrackPointExtension>
            <ns3:atemp>16.0</ns3:atemp>
          </ns3:TrackPointExtension>
        </extensions>
      </trkpt>
      <trkpt lat="42.558646984398365020751953125" lon="20.06347596645355224609375">
        <ele>2190.199951171875</ele>
        <time>2026-06-19T11:45:53.000Z</time>
        <extensions>
          <ns3:TrackPointExtension>
            <ns3:atemp>16.0</ns3:atemp>
          </ns3:TrackPointExtension>
        </extensions>
      </trkpt>
      <trkpt lat="42.558646984398365020751953125" lon="20.06347596645355224609375">
        <ele>2190.199951171875</ele>
        <time>2026-06-19T11:45:54.000Z</time>
        <extensions>
          <ns3:TrackPointExtension>
            <ns3:atemp>16.0</ns3:atemp>
          </ns3:TrackPointExtension>
        </extensions>
      </trkpt>
      <trkpt lat="42.558646984398365020751953125" lon="20.06347596645355224609375">
        <ele>2190.199951171875</ele>
        <time>2026-06-19T11:45:55.000Z</time>
        <extensions>
          <ns3:TrackPointExtension>
            <ns3:atemp>16.0</ns3:atemp>
          </ns3:TrackPointExtension>
        </extensions>
      </trkpt>
      <trkpt lat="42.558646984398365020751953125" lon="20.06347596645355224609375">
        <ele>2190.39990234375</ele>
        <time>2026-06-19T11:45:56.000Z</time>
        <extensions>
          <ns3:TrackPointExtension>
            <ns3:atemp>16.0</ns3:atemp>
          </ns3:TrackPointExtension>
        </extensions>
      </trkpt>
      <trkpt lat="42.558646984398365020751953125" lon="20.06347596645355224609375">
        <ele>2190.39990234375</ele>
        <time>2026-06-19T11:45:57.000Z</time>
        <extensions>
          <ns3:TrackPointExtension>
            <ns3:atemp>16.0</ns3:atemp>
          </ns3:TrackPointExtension>
        </extensions>
      </trkpt>
      <trkpt lat="42.558646984398365020751953125" lon="20.06347596645355224609375">
        <ele>2190.39990234375</ele>
        <time>2026-06-19T11:45:58.000Z</time>
        <extensions>
          <ns3:TrackPointExtension>
            <ns3:atemp>16.0</ns3:atemp>
          </ns3:TrackPointExtension>
        </extensions>
      </trkpt>
      <trkpt lat="42.558646984398365020751953125" lon="20.06347596645355224609375">
        <ele>2190.39990234375</ele>
        <time>2026-06-19T11:45:59.000Z</time>
        <extensions>
          <ns3:TrackPointExtension>
            <ns3:atemp>16.0</ns3:atemp>
          </ns3:TrackPointExtension>
        </extensions>
      </trkpt>
      <trkpt lat="42.558646984398365020751953125" lon="20.06347596645355224609375">
        <ele>2190.39990234375</ele>
        <time>2026-06-19T11:46:00.000Z</time>
        <extensions>
          <ns3:TrackPointExtension>
            <ns3:atemp>16.0</ns3:atemp>
          </ns3:TrackPointExtension>
        </extensions>
      </trkpt>
      <trkpt lat="42.558646984398365020751953125" lon="20.06347596645355224609375">
        <ele>2190.39990234375</ele>
        <time>2026-06-19T11:46:01.000Z</time>
        <extensions>
          <ns3:TrackPointExtension>
            <ns3:atemp>16.0</ns3:atemp>
          </ns3:TrackPointExtension>
        </extensions>
      </trkpt>
      <trkpt lat="42.558646984398365020751953125" lon="20.06347596645355224609375">
        <ele>2190.39990234375</ele>
        <time>2026-06-19T11:46:02.000Z</time>
        <extensions>
          <ns3:TrackPointExtension>
            <ns3:atemp>16.0</ns3:atemp>
          </ns3:TrackPointExtension>
        </extensions>
      </trkpt>
      <trkpt lat="42.558646984398365020751953125" lon="20.06347596645355224609375">
        <ele>2190.39990234375</ele>
        <time>2026-06-19T11:46:03.000Z</time>
        <extensions>
          <ns3:TrackPointExtension>
            <ns3:atemp>16.0</ns3:atemp>
          </ns3:TrackPointExtension>
        </extensions>
      </trkpt>
      <trkpt lat="42.558646984398365020751953125" lon="20.06347596645355224609375">
        <ele>2190.39990234375</ele>
        <time>2026-06-19T11:46:04.000Z</time>
        <extensions>
          <ns3:TrackPointExtension>
            <ns3:atemp>16.0</ns3:atemp>
          </ns3:TrackPointExtension>
        </extensions>
      </trkpt>
      <trkpt lat="42.558646984398365020751953125" lon="20.06347596645355224609375">
        <ele>2190.39990234375</ele>
        <time>2026-06-19T11:46:05.000Z</time>
        <extensions>
          <ns3:TrackPointExtension>
            <ns3:atemp>16.0</ns3:atemp>
          </ns3:TrackPointExtension>
        </extensions>
      </trkpt>
      <trkpt lat="42.5586494989693164825439453125" lon="20.06347605027258396148681640625">
        <ele>2190.39990234375</ele>
        <time>2026-06-19T11:46:06.000Z</time>
        <extensions>
          <ns3:TrackPointExtension>
            <ns3:atemp>16.0</ns3:atemp>
          </ns3:TrackPointExtension>
        </extensions>
      </trkpt>
      <trkpt lat="42.5586441345512866973876953125" lon="20.06349004805088043212890625">
        <ele>2190.39990234375</ele>
        <time>2026-06-19T11:46:07.000Z</time>
        <extensions>
          <ns3:TrackPointExtension>
            <ns3:atemp>16.0</ns3:atemp>
          </ns3:TrackPointExtension>
        </extensions>
      </trkpt>
      <trkpt lat="42.55863416008651256561279296875" lon="20.06350052542984485626220703125">
        <ele>2190.39990234375</ele>
        <time>2026-06-19T11:46:08.000Z</time>
        <extensions>
          <ns3:TrackPointExtension>
            <ns3:atemp>16.0</ns3:atemp>
          </ns3:TrackPointExtension>
        </extensions>
      </trkpt>
      <trkpt lat="42.55862695164978504180908203125" lon="20.06351016461849212646484375">
        <ele>2190.199951171875</ele>
        <time>2026-06-19T11:46:09.000Z</time>
        <extensions>
          <ns3:TrackPointExtension>
            <ns3:atemp>16.0</ns3:atemp>
          </ns3:TrackPointExtension>
        </extensions>
      </trkpt>
      <trkpt lat="42.5586260296404361724853515625" lon="20.0635094940662384033203125">
        <ele>2190.39990234375</ele>
        <time>2026-06-19T11:46:10.000Z</time>
        <extensions>
          <ns3:TrackPointExtension>
            <ns3:atemp>16.0</ns3:atemp>
          </ns3:TrackPointExtension>
        </extensions>
      </trkpt>
      <trkpt lat="42.55862611345946788787841796875" lon="20.0635103322565555572509765625">
        <ele>2190.39990234375</ele>
        <time>2026-06-19T11:46:11.000Z</time>
        <extensions>
          <ns3:TrackPointExtension>
            <ns3:atemp>16.0</ns3:atemp>
          </ns3:TrackPointExtension>
        </extensions>
      </trkpt>
      <trkpt lat="42.55862611345946788787841796875" lon="20.0635103322565555572509765625">
        <ele>2190.39990234375</ele>
        <time>2026-06-19T11:46:12.000Z</time>
        <extensions>
          <ns3:TrackPointExtension>
            <ns3:atemp>16.0</ns3:atemp>
          </ns3:TrackPointExtension>
        </extensions>
      </trkpt>
      <trkpt lat="42.55862611345946788787841796875" lon="20.0635103322565555572509765625">
        <ele>2190.39990234375</ele>
        <time>2026-06-19T11:46:13.000Z</time>
        <extensions>
          <ns3:TrackPointExtension>
            <ns3:atemp>16.0</ns3:atemp>
          </ns3:TrackPointExtension>
        </extensions>
      </trkpt>
      <trkpt lat="42.55862611345946788787841796875" lon="20.0635103322565555572509765625">
        <ele>2190.39990234375</ele>
        <time>2026-06-19T11:46:14.000Z</time>
        <extensions>
          <ns3:TrackPointExtension>
            <ns3:atemp>16.0</ns3:atemp>
          </ns3:TrackPointExtension>
        </extensions>
      </trkpt>
      <trkpt lat="42.55862611345946788787841796875" lon="20.0635103322565555572509765625">
        <ele>2190.39990234375</ele>
        <time>2026-06-19T11:46:15.000Z</time>
        <extensions>
          <ns3:TrackPointExtension>
            <ns3:atemp>16.0</ns3:atemp>
          </ns3:TrackPointExtension>
        </extensions>
      </trkpt>
      <trkpt lat="42.55862611345946788787841796875" lon="20.0635103322565555572509765625">
        <ele>2190.39990234375</ele>
        <time>2026-06-19T11:46:16.000Z</time>
        <extensions>
          <ns3:TrackPointExtension>
            <ns3:atemp>16.0</ns3:atemp>
          </ns3:TrackPointExtension>
        </extensions>
      </trkpt>
      <trkpt lat="42.55862611345946788787841796875" lon="20.0635103322565555572509765625">
        <ele>2190.39990234375</ele>
        <time>2026-06-19T11:46:17.000Z</time>
        <extensions>
          <ns3:TrackPointExtension>
            <ns3:atemp>16.0</ns3:atemp>
          </ns3:TrackPointExtension>
        </extensions>
      </trkpt>
      <trkpt lat="42.55862611345946788787841796875" lon="20.0635103322565555572509765625">
        <ele>2190.39990234375</ele>
        <time>2026-06-19T11:46:18.000Z</time>
        <extensions>
          <ns3:TrackPointExtension>
            <ns3:atemp>16.0</ns3:atemp>
          </ns3:TrackPointExtension>
        </extensions>
      </trkpt>
      <trkpt lat="42.55862611345946788787841796875" lon="20.0635103322565555572509765625">
        <ele>2190.39990234375</ele>
        <time>2026-06-19T11:46:19.000Z</time>
        <extensions>
          <ns3:TrackPointExtension>
            <ns3:atemp>16.0</ns3:atemp>
          </ns3:TrackPointExtension>
        </extensions>
      </trkpt>
      <trkpt lat="42.55862611345946788787841796875" lon="20.0635103322565555572509765625">
        <ele>2190.39990234375</ele>
        <time>2026-06-19T11:46:20.000Z</time>
        <extensions>
          <ns3:TrackPointExtension>
            <ns3:atemp>16.0</ns3:atemp>
          </ns3:TrackPointExtension>
        </extensions>
      </trkpt>
      <trkpt lat="42.55862611345946788787841796875" lon="20.0635103322565555572509765625">
        <ele>2190.39990234375</ele>
        <time>2026-06-19T11:46:21.000Z</time>
        <extensions>
          <ns3:TrackPointExtension>
            <ns3:atemp>16.0</ns3:atemp>
          </ns3:TrackPointExtension>
        </extensions>
      </trkpt>
      <trkpt lat="42.55862611345946788787841796875" lon="20.0635103322565555572509765625">
        <ele>2190.60009765625</ele>
        <time>2026-06-19T11:46:22.000Z</time>
        <extensions>
          <ns3:TrackPointExtension>
            <ns3:atemp>16.0</ns3:atemp>
          </ns3:TrackPointExtension>
        </extensions>
      </trkpt>
      <trkpt lat="42.55862611345946788787841796875" lon="20.0635103322565555572509765625">
        <ele>2190.60009765625</ele>
        <time>2026-06-19T11:46:23.000Z</time>
        <extensions>
          <ns3:TrackPointExtension>
            <ns3:atemp>16.0</ns3:atemp>
          </ns3:TrackPointExtension>
        </extensions>
      </trkpt>
      <trkpt lat="42.5586260296404361724853515625" lon="20.06351158954203128814697265625">
        <ele>2190.60009765625</ele>
        <time>2026-06-19T11:46:24.000Z</time>
        <extensions>
          <ns3:TrackPointExtension>
            <ns3:atemp>16.0</ns3:atemp>
          </ns3:TrackPointExtension>
        </extensions>
      </trkpt>
      <trkpt lat="42.55861052311956882476806640625" lon="20.06353304721415042877197265625">
        <ele>2190.60009765625</ele>
        <time>2026-06-19T11:46:25.000Z</time>
        <extensions>
          <ns3:TrackPointExtension>
            <ns3:atemp>16.0</ns3:atemp>
          </ns3:TrackPointExtension>
        </extensions>
      </trkpt>
      <trkpt lat="42.55858428776264190673828125" lon="20.06355307996273040771484375">
        <ele>2190.39990234375</ele>
        <time>2026-06-19T11:46:26.000Z</time>
        <extensions>
          <ns3:TrackPointExtension>
            <ns3:atemp>16.0</ns3:atemp>
          </ns3:TrackPointExtension>
        </extensions>
      </trkpt>
      <trkpt lat="42.55855520255863666534423828125" lon="20.0635703466832637786865234375">
        <ele>2190.39990234375</ele>
        <time>2026-06-19T11:46:27.000Z</time>
        <extensions>
          <ns3:TrackPointExtension>
            <ns3:atemp>16.0</ns3:atemp>
          </ns3:TrackPointExtension>
        </extensions>
      </trkpt>
      <trkpt lat="42.558523602783679962158203125" lon="20.06358283571898937225341796875">
        <ele>2190.199951171875</ele>
        <time>2026-06-19T11:46:28.000Z</time>
        <extensions>
          <ns3:TrackPointExtension>
            <ns3:atemp>16.0</ns3:atemp>
          </ns3:TrackPointExtension>
        </extensions>
      </trkpt>
      <trkpt lat="42.5584919191896915435791015625" lon="20.06359398365020751953125">
        <ele>2190.199951171875</ele>
        <time>2026-06-19T11:46:29.000Z</time>
        <extensions>
          <ns3:TrackPointExtension>
            <ns3:atemp>16.0</ns3:atemp>
          </ns3:TrackPointExtension>
        </extensions>
      </trkpt>
      <trkpt lat="42.55845461972057819366455078125" lon="20.06360270082950592041015625">
        <ele>2190</ele>
        <time>2026-06-19T11:46:30.000Z</time>
        <extensions>
          <ns3:TrackPointExtension>
            <ns3:atemp>16.0</ns3:atemp>
          </ns3:TrackPointExtension>
        </extensions>
      </trkpt>
      <trkpt lat="42.5584148056805133819580078125" lon="20.06362147629261016845703125">
        <ele>2190</ele>
        <time>2026-06-19T11:46:31.000Z</time>
        <extensions>
          <ns3:TrackPointExtension>
            <ns3:atemp>16.0</ns3:atemp>
          </ns3:TrackPointExtension>
        </extensions>
      </trkpt>
      <trkpt lat="42.55837750621140003204345703125" lon="20.0636434368789196014404296875">
        <ele>2189.800048828125</ele>
        <time>2026-06-19T11:46:32.000Z</time>
        <extensions>
          <ns3:TrackPointExtension>
            <ns3:atemp>16.0</ns3:atemp>
          </ns3:TrackPointExtension>
        </extensions>
      </trkpt>
      <trkpt lat="42.55834565497934818267822265625" lon="20.063677132129669189453125">
        <ele>2189.60009765625</ele>
        <time>2026-06-19T11:46:33.000Z</time>
        <extensions>
          <ns3:TrackPointExtension>
            <ns3:atemp>16.0</ns3:atemp>
          </ns3:TrackPointExtension>
        </extensions>
      </trkpt>
      <trkpt lat="42.55831338465213775634765625" lon="20.0637128390371799468994140625">
        <ele>2189.199951171875</ele>
        <time>2026-06-19T11:46:34.000Z</time>
        <extensions>
          <ns3:TrackPointExtension>
            <ns3:atemp>16.0</ns3:atemp>
          </ns3:TrackPointExtension>
        </extensions>
      </trkpt>
      <trkpt lat="42.5582857243716716766357421875" lon="20.0637456960976123809814453125">
        <ele>2189</ele>
        <time>2026-06-19T11:46:35.000Z</time>
        <extensions>
          <ns3:TrackPointExtension>
            <ns3:atemp>16.0</ns3:atemp>
          </ns3:TrackPointExtension>
        </extensions>
      </trkpt>
      <trkpt lat="42.5582612492144107818603515625" lon="20.06377813406288623809814453125">
        <ele>2188.60009765625</ele>
        <time>2026-06-19T11:46:36.000Z</time>
        <extensions>
          <ns3:TrackPointExtension>
            <ns3:atemp>16.0</ns3:atemp>
          </ns3:TrackPointExtension>
        </extensions>
      </trkpt>
      <trkpt lat="42.55823769606649875640869140625" lon="20.06380931474268436431884765625">
        <ele>2188.39990234375</ele>
        <time>2026-06-19T11:46:37.000Z</time>
        <extensions>
          <ns3:TrackPointExtension>
            <ns3:atemp>16.0</ns3:atemp>
          </ns3:TrackPointExtension>
        </extensions>
      </trkpt>
      <trkpt lat="42.55821825005114078521728515625" lon="20.0638345442712306976318359375">
        <ele>2188.199951171875</ele>
        <time>2026-06-19T11:46:38.000Z</time>
        <extensions>
          <ns3:TrackPointExtension>
            <ns3:atemp>16.0</ns3:atemp>
          </ns3:TrackPointExtension>
        </extensions>
      </trkpt>
      <trkpt lat="42.558208443224430084228515625" lon="20.06385893560945987701416015625">
        <ele>2188</ele>
        <time>2026-06-19T11:46:39.000Z</time>
        <extensions>
          <ns3:TrackPointExtension>
            <ns3:atemp>16.0</ns3:atemp>
          </ns3:TrackPointExtension>
        </extensions>
      </trkpt>
      <trkpt lat="42.558201737701892852783203125" lon="20.0638757832348346710205078125">
        <ele>2188</ele>
        <time>2026-06-19T11:46:40.000Z</time>
        <extensions>
          <ns3:TrackPointExtension>
            <ns3:atemp>16.0</ns3:atemp>
          </ns3:TrackPointExtension>
        </extensions>
      </trkpt>
      <trkpt lat="42.5581995584070682525634765625" lon="20.06388039328157901763916015625">
        <ele>2188</ele>
        <time>2026-06-19T11:46:41.000Z</time>
        <extensions>
          <ns3:TrackPointExtension>
            <ns3:atemp>16.0</ns3:atemp>
          </ns3:TrackPointExtension>
        </extensions>
      </trkpt>
      <trkpt lat="42.55819779820740222930908203125" lon="20.0638851709663867950439453125">
        <ele>2188</ele>
        <time>2026-06-19T11:46:42.000Z</time>
        <extensions>
          <ns3:TrackPointExtension>
            <ns3:atemp>16.0</ns3:atemp>
          </ns3:TrackPointExtension>
        </extensions>
      </trkpt>
      <trkpt lat="42.558198384940624237060546875" lon="20.06389715708792209625244140625">
        <ele>2188</ele>
        <time>2026-06-19T11:46:43.000Z</time>
        <extensions>
          <ns3:TrackPointExtension>
            <ns3:atemp>16.0</ns3:atemp>
          </ns3:TrackPointExtension>
        </extensions>
      </trkpt>
      <trkpt lat="42.55819696001708507537841796875" lon="20.06391660310328006744384765625">
        <ele>2187.800048828125</ele>
        <time>2026-06-19T11:46:44.000Z</time>
        <extensions>
          <ns3:TrackPointExtension>
            <ns3:atemp>16.0</ns3:atemp>
          </ns3:TrackPointExtension>
        </extensions>
      </trkpt>
      <trkpt lat="42.5581978820264339447021484375" lon="20.063933618366718292236328125">
        <ele>2187.800048828125</ele>
        <time>2026-06-19T11:46:45.000Z</time>
        <extensions>
          <ns3:TrackPointExtension>
            <ns3:atemp>16.0</ns3:atemp>
          </ns3:TrackPointExtension>
        </extensions>
      </trkpt>
      <trkpt lat="42.55819779820740222930908203125" lon="20.06394803524017333984375">
        <ele>2187.800048828125</ele>
        <time>2026-06-19T11:46:46.000Z</time>
        <extensions>
          <ns3:TrackPointExtension>
            <ns3:atemp>16.0</ns3:atemp>
          </ns3:TrackPointExtension>
        </extensions>
      </trkpt>
      <trkpt lat="42.5581960380077362060546875" lon="20.06396236829459667205810546875">
        <ele>2187.60009765625</ele>
        <time>2026-06-19T11:46:47.000Z</time>
        <extensions>
          <ns3:TrackPointExtension>
            <ns3:atemp>16.0</ns3:atemp>
          </ns3:TrackPointExtension>
        </extensions>
      </trkpt>
      <trkpt lat="42.55819276906549930572509765625" lon="20.0639790482819080352783203125">
        <ele>2187.60009765625</ele>
        <time>2026-06-19T11:46:48.000Z</time>
        <extensions>
          <ns3:TrackPointExtension>
            <ns3:atemp>16.0</ns3:atemp>
          </ns3:TrackPointExtension>
        </extensions>
      </trkpt>
      <trkpt lat="42.558191008865833282470703125" lon="20.063995309174060821533203125">
        <ele>2187.60009765625</ele>
        <time>2026-06-19T11:46:49.000Z</time>
        <extensions>
          <ns3:TrackPointExtension>
            <ns3:atemp>16.0</ns3:atemp>
          </ns3:TrackPointExtension>
        </extensions>
      </trkpt>
      <trkpt lat="42.5581891648471355438232421875" lon="20.0640078820288181304931640625">
        <ele>2187.60009765625</ele>
        <time>2026-06-19T11:46:50.000Z</time>
        <extensions>
          <ns3:TrackPointExtension>
            <ns3:atemp>16.0</ns3:atemp>
          </ns3:TrackPointExtension>
        </extensions>
      </trkpt>
      <trkpt lat="42.55818673409521579742431640625" lon="20.06401886232197284698486328125">
        <ele>2187.800048828125</ele>
        <time>2026-06-19T11:46:51.000Z</time>
        <extensions>
          <ns3:TrackPointExtension>
            <ns3:atemp>16.0</ns3:atemp>
          </ns3:TrackPointExtension>
        </extensions>
      </trkpt>
      <trkpt lat="42.55818924866616725921630859375" lon="20.0640293397009372711181640625">
        <ele>2187.800048828125</ele>
        <time>2026-06-19T11:46:52.000Z</time>
        <extensions>
          <ns3:TrackPointExtension>
            <ns3:atemp>16.0</ns3:atemp>
          </ns3:TrackPointExtension>
        </extensions>
      </trkpt>
      <trkpt lat="42.55819243378937244415283203125" lon="20.06404266692698001861572265625">
        <ele>2188</ele>
        <time>2026-06-19T11:46:53.000Z</time>
        <extensions>
          <ns3:TrackPointExtension>
            <ns3:atemp>16.0</ns3:atemp>
          </ns3:TrackPointExtension>
        </extensions>
      </trkpt>
      <trkpt lat="42.5581955350935459136962890625" lon="20.06405121646821498870849609375">
        <ele>2188.199951171875</ele>
        <time>2026-06-19T11:46:54.000Z</time>
        <extensions>
          <ns3:TrackPointExtension>
            <ns3:atemp>16.0</ns3:atemp>
          </ns3:TrackPointExtension>
        </extensions>
      </trkpt>
      <trkpt lat="42.5581945292651653289794921875" lon="20.06405976600944995880126953125">
        <ele>2188.199951171875</ele>
        <time>2026-06-19T11:46:55.000Z</time>
        <extensions>
          <ns3:TrackPointExtension>
            <ns3:atemp>16.0</ns3:atemp>
          </ns3:TrackPointExtension>
        </extensions>
      </trkpt>
      <trkpt lat="42.55819804966449737548828125" lon="20.0640699081122875213623046875">
        <ele>2188.39990234375</ele>
        <time>2026-06-19T11:46:56.000Z</time>
        <extensions>
          <ns3:TrackPointExtension>
            <ns3:atemp>16.0</ns3:atemp>
          </ns3:TrackPointExtension>
        </extensions>
      </trkpt>
      <trkpt lat="42.55819763056933879852294921875" lon="20.06407636217772960662841796875">
        <ele>2188.39990234375</ele>
        <time>2026-06-19T11:46:57.000Z</time>
        <extensions>
          <ns3:TrackPointExtension>
            <ns3:atemp>16.0</ns3:atemp>
          </ns3:TrackPointExtension>
        </extensions>
      </trkpt>
      <trkpt lat="42.55819763056933879852294921875" lon="20.064076445996761322021484375">
        <ele>2188.60009765625</ele>
        <time>2026-06-19T11:46:58.000Z</time>
        <extensions>
          <ns3:TrackPointExtension>
            <ns3:atemp>16.0</ns3:atemp>
          </ns3:TrackPointExtension>
        </extensions>
      </trkpt>
      <trkpt lat="42.55819763056933879852294921875" lon="20.064076445996761322021484375">
        <ele>2188.800048828125</ele>
        <time>2026-06-19T11:46:59.000Z</time>
        <extensions>
          <ns3:TrackPointExtension>
            <ns3:atemp>16.0</ns3:atemp>
          </ns3:TrackPointExtension>
        </extensions>
      </trkpt>
      <trkpt lat="42.55819763056933879852294921875" lon="20.064076445996761322021484375">
        <ele>2188.800048828125</ele>
        <time>2026-06-19T11:47:00.000Z</time>
        <extensions>
          <ns3:TrackPointExtension>
            <ns3:atemp>16.0</ns3:atemp>
          </ns3:TrackPointExtension>
        </extensions>
      </trkpt>
      <trkpt lat="42.558197714388370513916015625" lon="20.06407686509191989898681640625">
        <ele>2189</ele>
        <time>2026-06-19T11:47:01.000Z</time>
        <extensions>
          <ns3:TrackPointExtension>
            <ns3:atemp>16.0</ns3:atemp>
          </ns3:TrackPointExtension>
        </extensions>
      </trkpt>
      <trkpt lat="42.5581987202167510986328125" lon="20.0640903599560260772705078125">
        <ele>2189</ele>
        <time>2026-06-19T11:47:02.000Z</time>
        <extensions>
          <ns3:TrackPointExtension>
            <ns3:atemp>16.0</ns3:atemp>
          </ns3:TrackPointExtension>
        </extensions>
      </trkpt>
      <trkpt lat="42.55820073187351226806640625" lon="20.064103938639163970947265625">
        <ele>2189</ele>
        <time>2026-06-19T11:47:03.000Z</time>
        <extensions>
          <ns3:TrackPointExtension>
            <ns3:atemp>16.0</ns3:atemp>
          </ns3:TrackPointExtension>
        </extensions>
      </trkpt>
      <trkpt lat="42.55820182152092456817626953125" lon="20.06411910988390445709228515625">
        <ele>2189</ele>
        <time>2026-06-19T11:47:04.000Z</time>
        <extensions>
          <ns3:TrackPointExtension>
            <ns3:atemp>16.0</ns3:atemp>
          </ns3:TrackPointExtension>
        </extensions>
      </trkpt>
      <trkpt lat="42.55820500664412975311279296875" lon="20.06414324976503849029541015625">
        <ele>2189</ele>
        <time>2026-06-19T11:47:05.000Z</time>
        <extensions>
          <ns3:TrackPointExtension>
            <ns3:atemp>16.0</ns3:atemp>
          </ns3:TrackPointExtension>
        </extensions>
      </trkpt>
      <trkpt lat="42.5582116283476352691650390625" lon="20.064180381596088409423828125">
        <ele>2188.800048828125</ele>
        <time>2026-06-19T11:47:06.000Z</time>
        <extensions>
          <ns3:TrackPointExtension>
            <ns3:atemp>16.0</ns3:atemp>
          </ns3:TrackPointExtension>
        </extensions>
      </trkpt>
      <trkpt lat="42.55821556784212589263916015625" lon="20.06422170437872409820556640625">
        <ele>2188.800048828125</ele>
        <time>2026-06-19T11:47:07.000Z</time>
        <extensions>
          <ns3:TrackPointExtension>
            <ns3:atemp>16.0</ns3:atemp>
          </ns3:TrackPointExtension>
        </extensions>
      </trkpt>
      <trkpt lat="42.55821506492793560028076171875" lon="20.06425824947655200958251953125">
        <ele>2188.60009765625</ele>
        <time>2026-06-19T11:47:08.000Z</time>
        <extensions>
          <ns3:TrackPointExtension>
            <ns3:atemp>16.0</ns3:atemp>
          </ns3:TrackPointExtension>
        </extensions>
      </trkpt>
      <trkpt lat="42.55821590311825275421142578125" lon="20.06428993307054042816162109375">
        <ele>2188.60009765625</ele>
        <time>2026-06-19T11:47:09.000Z</time>
        <extensions>
          <ns3:TrackPointExtension>
            <ns3:atemp>16.0</ns3:atemp>
          </ns3:TrackPointExtension>
        </extensions>
      </trkpt>
      <trkpt lat="42.55821640603244304656982421875" lon="20.06432027556002140045166015625">
        <ele>2188.39990234375</ele>
        <time>2026-06-19T11:47:10.000Z</time>
        <extensions>
          <ns3:TrackPointExtension>
            <ns3:atemp>16.0</ns3:atemp>
          </ns3:TrackPointExtension>
        </extensions>
      </trkpt>
      <trkpt lat="42.558219172060489654541015625" lon="20.06434827111661434173583984375">
        <ele>2188.39990234375</ele>
        <time>2026-06-19T11:47:11.000Z</time>
        <extensions>
          <ns3:TrackPointExtension>
            <ns3:atemp>16.0</ns3:atemp>
          </ns3:TrackPointExtension>
        </extensions>
      </trkpt>
      <trkpt lat="42.55822562612593173980712890625" lon="20.0643800385296344757080078125">
        <ele>2188.199951171875</ele>
        <time>2026-06-19T11:47:12.000Z</time>
        <extensions>
          <ns3:TrackPointExtension>
            <ns3:atemp>16.0</ns3:atemp>
          </ns3:TrackPointExtension>
        </extensions>
      </trkpt>
      <trkpt lat="42.5582335889339447021484375" lon="20.064401328563690185546875">
        <ele>2188.199951171875</ele>
        <time>2026-06-19T11:47:13.000Z</time>
        <extensions>
          <ns3:TrackPointExtension>
            <ns3:atemp>16.0</ns3:atemp>
          </ns3:TrackPointExtension>
        </extensions>
      </trkpt>
      <trkpt lat="42.55823903717100620269775390625" lon="20.06442387588322162628173828125">
        <ele>2188</ele>
        <time>2026-06-19T11:47:14.000Z</time>
        <extensions>
          <ns3:TrackPointExtension>
            <ns3:atemp>16.0</ns3:atemp>
          </ns3:TrackPointExtension>
        </extensions>
      </trkpt>
      <trkpt lat="42.55823870189487934112548828125" lon="20.06445539183914661407470703125">
        <ele>2188</ele>
        <time>2026-06-19T11:47:15.000Z</time>
        <extensions>
          <ns3:TrackPointExtension>
            <ns3:atemp>16.0</ns3:atemp>
          </ns3:TrackPointExtension>
        </extensions>
      </trkpt>
      <trkpt lat="42.5582350976765155792236328125" lon="20.064482800662517547607421875">
        <ele>2187.800048828125</ele>
        <time>2026-06-19T11:47:16.000Z</time>
        <extensions>
          <ns3:TrackPointExtension>
            <ns3:atemp>16.0</ns3:atemp>
          </ns3:TrackPointExtension>
        </extensions>
      </trkpt>
      <trkpt lat="42.5582324154675006866455078125" lon="20.064515657722949981689453125">
        <ele>2187.800048828125</ele>
        <time>2026-06-19T11:47:17.000Z</time>
        <extensions>
          <ns3:TrackPointExtension>
            <ns3:atemp>16.0</ns3:atemp>
          </ns3:TrackPointExtension>
        </extensions>
      </trkpt>
      <trkpt lat="42.55823266692459583282470703125" lon="20.06454222835600376129150390625">
        <ele>2187.60009765625</ele>
        <time>2026-06-19T11:47:18.000Z</time>
        <extensions>
          <ns3:TrackPointExtension>
            <ns3:atemp>16.0</ns3:atemp>
          </ns3:TrackPointExtension>
        </extensions>
      </trkpt>
      <trkpt lat="42.55822964943945407867431640625" lon="20.06456905044615268707275390625">
        <ele>2187.60009765625</ele>
        <time>2026-06-19T11:47:19.000Z</time>
        <extensions>
          <ns3:TrackPointExtension>
            <ns3:atemp>16.0</ns3:atemp>
          </ns3:TrackPointExtension>
        </extensions>
      </trkpt>
      <trkpt lat="42.5582307390868663787841796875" lon="20.0646013207733631134033203125">
        <ele>2187.39990234375</ele>
        <time>2026-06-19T11:47:20.000Z</time>
        <extensions>
          <ns3:TrackPointExtension>
            <ns3:atemp>16.0</ns3:atemp>
          </ns3:TrackPointExtension>
        </extensions>
      </trkpt>
      <trkpt lat="42.5582267157733440399169921875" lon="20.0646293163299560546875">
        <ele>2187.39990234375</ele>
        <time>2026-06-19T11:47:21.000Z</time>
        <extensions>
          <ns3:TrackPointExtension>
            <ns3:atemp>16.0</ns3:atemp>
          </ns3:TrackPointExtension>
        </extensions>
      </trkpt>
      <trkpt lat="42.55822445265948772430419921875" lon="20.06466058082878589630126953125">
        <ele>2187.39990234375</ele>
        <time>2026-06-19T11:47:22.000Z</time>
        <extensions>
          <ns3:TrackPointExtension>
            <ns3:atemp>16.0</ns3:atemp>
          </ns3:TrackPointExtension>
        </extensions>
      </trkpt>
      <trkpt lat="42.55822545848786830902099609375" lon="20.06469762884080410003662109375">
        <ele>2187.199951171875</ele>
        <time>2026-06-19T11:47:23.000Z</time>
        <extensions>
          <ns3:TrackPointExtension>
            <ns3:atemp>16.0</ns3:atemp>
          </ns3:TrackPointExtension>
        </extensions>
      </trkpt>
      <trkpt lat="42.5582267157733440399169921875" lon="20.0647293962538242340087890625">
        <ele>2187</ele>
        <time>2026-06-19T11:47:24.000Z</time>
        <extensions>
          <ns3:TrackPointExtension>
            <ns3:atemp>16.0</ns3:atemp>
          </ns3:TrackPointExtension>
        </extensions>
      </trkpt>
      <trkpt lat="42.558229230344295501708984375" lon="20.06475596688687801361083984375">
        <ele>2186.800048828125</ele>
        <time>2026-06-19T11:47:25.000Z</time>
        <extensions>
          <ns3:TrackPointExtension>
            <ns3:atemp>16.0</ns3:atemp>
          </ns3:TrackPointExtension>
        </extensions>
      </trkpt>
      <trkpt lat="42.55823400802910327911376953125" lon="20.06478287279605865478515625">
        <ele>2186.60009765625</ele>
        <time>2026-06-19T11:47:26.000Z</time>
        <extensions>
          <ns3:TrackPointExtension>
            <ns3:atemp>16.0</ns3:atemp>
          </ns3:TrackPointExtension>
        </extensions>
      </trkpt>
      <trkpt lat="42.55823903717100620269775390625" lon="20.06480525247752666473388671875">
        <ele>2186.39990234375</ele>
        <time>2026-06-19T11:47:27.000Z</time>
        <extensions>
          <ns3:TrackPointExtension>
            <ns3:atemp>16.0</ns3:atemp>
          </ns3:TrackPointExtension>
        </extensions>
      </trkpt>
      <trkpt lat="42.55824238993227481842041015625" lon="20.06482872180640697479248046875">
        <ele>2186.39990234375</ele>
        <time>2026-06-19T11:47:28.000Z</time>
        <extensions>
          <ns3:TrackPointExtension>
            <ns3:atemp>16.0</ns3:atemp>
          </ns3:TrackPointExtension>
        </extensions>
      </trkpt>
      <trkpt lat="42.558249346911907196044921875" lon="20.0648544542491436004638671875">
        <ele>2186.199951171875</ele>
        <time>2026-06-19T11:47:29.000Z</time>
        <extensions>
          <ns3:TrackPointExtension>
            <ns3:atemp>16.0</ns3:atemp>
          </ns3:TrackPointExtension>
        </extensions>
      </trkpt>
      <trkpt lat="42.558254711329936981201171875" lon="20.064882449805736541748046875">
        <ele>2186</ele>
        <time>2026-06-19T11:47:30.000Z</time>
        <extensions>
          <ns3:TrackPointExtension>
            <ns3:atemp>16.0</ns3:atemp>
          </ns3:TrackPointExtension>
        </extensions>
      </trkpt>
      <trkpt lat="42.55825848318636417388916015625" lon="20.0649114511907100677490234375">
        <ele>2185.800048828125</ele>
        <time>2026-06-19T11:47:31.000Z</time>
        <extensions>
          <ns3:TrackPointExtension>
            <ns3:atemp>16.0</ns3:atemp>
          </ns3:TrackPointExtension>
        </extensions>
      </trkpt>
      <trkpt lat="42.55826099775731563568115234375" lon="20.0649409554898738861083984375">
        <ele>2185.60009765625</ele>
        <time>2026-06-19T11:47:32.000Z</time>
        <extensions>
          <ns3:TrackPointExtension>
            <ns3:atemp>16.0</ns3:atemp>
          </ns3:TrackPointExtension>
        </extensions>
      </trkpt>
      <trkpt lat="42.5582619197666645050048828125" lon="20.06496794521808624267578125">
        <ele>2185.60009765625</ele>
        <time>2026-06-19T11:47:33.000Z</time>
        <extensions>
          <ns3:TrackPointExtension>
            <ns3:atemp>16.0</ns3:atemp>
          </ns3:TrackPointExtension>
        </extensions>
      </trkpt>
      <trkpt lat="42.558260746300220489501953125" lon="20.06499133072793483734130859375">
        <ele>2185.39990234375</ele>
        <time>2026-06-19T11:47:34.000Z</time>
        <extensions>
          <ns3:TrackPointExtension>
            <ns3:atemp>16.0</ns3:atemp>
          </ns3:TrackPointExtension>
        </extensions>
      </trkpt>
      <trkpt lat="42.55825362168252468109130859375" lon="20.06501463241875171661376953125">
        <ele>2185.199951171875</ele>
        <time>2026-06-19T11:47:35.000Z</time>
        <extensions>
          <ns3:TrackPointExtension>
            <ns3:atemp>16.0</ns3:atemp>
          </ns3:TrackPointExtension>
        </extensions>
      </trkpt>
      <trkpt lat="42.558239959180355072021484375" lon="20.06503893993794918060302734375">
        <ele>2185</ele>
        <time>2026-06-19T11:47:36.000Z</time>
        <extensions>
          <ns3:TrackPointExtension>
            <ns3:atemp>16.0</ns3:atemp>
          </ns3:TrackPointExtension>
        </extensions>
      </trkpt>
      <trkpt lat="42.558228559792041778564453125" lon="20.06506492383778095245361328125">
        <ele>2184.800048828125</ele>
        <time>2026-06-19T11:47:37.000Z</time>
        <extensions>
          <ns3:TrackPointExtension>
            <ns3:atemp>16.0</ns3:atemp>
          </ns3:TrackPointExtension>
        </extensions>
      </trkpt>
      <trkpt lat="42.558216489851474761962890625" lon="20.06509593687951564788818359375">
        <ele>2184.39990234375</ele>
        <time>2026-06-19T11:47:38.000Z</time>
        <extensions>
          <ns3:TrackPointExtension>
            <ns3:atemp>16.0</ns3:atemp>
          </ns3:TrackPointExtension>
        </extensions>
      </trkpt>
      <trkpt lat="42.5582032464444637298583984375" lon="20.0651270337402820587158203125">
        <ele>2184.199951171875</ele>
        <time>2026-06-19T11:47:39.000Z</time>
        <extensions>
          <ns3:TrackPointExtension>
            <ns3:atemp>16.0</ns3:atemp>
          </ns3:TrackPointExtension>
        </extensions>
      </trkpt>
      <trkpt lat="42.558187656104564666748046875" lon="20.065163075923919677734375">
        <ele>2183.800048828125</ele>
        <time>2026-06-19T11:47:40.000Z</time>
        <extensions>
          <ns3:TrackPointExtension>
            <ns3:atemp>16.0</ns3:atemp>
          </ns3:TrackPointExtension>
        </extensions>
      </trkpt>
      <trkpt lat="42.55817365832626819610595703125" lon="20.06520708091557025909423828125">
        <ele>2183.60009765625</ele>
        <time>2026-06-19T11:47:41.000Z</time>
        <extensions>
          <ns3:TrackPointExtension>
            <ns3:atemp>16.0</ns3:atemp>
          </ns3:TrackPointExtension>
        </extensions>
      </trkpt>
      <trkpt lat="42.55816594697535037994384765625" lon="20.06526106037199497222900390625">
        <ele>2183.199951171875</ele>
        <time>2026-06-19T11:47:42.000Z</time>
        <extensions>
          <ns3:TrackPointExtension>
            <ns3:atemp>16.0</ns3:atemp>
          </ns3:TrackPointExtension>
        </extensions>
      </trkpt>
      <trkpt lat="42.55814918316900730133056640625" lon="20.06531034596264362335205078125">
        <ele>2182.800048828125</ele>
        <time>2026-06-19T11:47:43.000Z</time>
        <extensions>
          <ns3:TrackPointExtension>
            <ns3:atemp>16.0</ns3:atemp>
          </ns3:TrackPointExtension>
        </extensions>
      </trkpt>
      <trkpt lat="42.55813208408653736114501953125" lon="20.0653640739619731903076171875">
        <ele>2182.199951171875</ele>
        <time>2026-06-19T11:47:44.000Z</time>
        <extensions>
          <ns3:TrackPointExtension>
            <ns3:atemp>16.0</ns3:atemp>
          </ns3:TrackPointExtension>
        </extensions>
      </trkpt>
      <trkpt lat="42.5581194274127483367919921875" lon="20.065428949892520904541015625">
        <ele>2181.800048828125</ele>
        <time>2026-06-19T11:47:45.000Z</time>
        <extensions>
          <ns3:TrackPointExtension>
            <ns3:atemp>16.0</ns3:atemp>
          </ns3:TrackPointExtension>
        </extensions>
      </trkpt>
      <trkpt lat="42.55810727365314960479736328125" lon="20.0654820911586284637451171875">
        <ele>2181.199951171875</ele>
        <time>2026-06-19T11:47:46.000Z</time>
        <extensions>
          <ns3:TrackPointExtension>
            <ns3:atemp>16.0</ns3:atemp>
          </ns3:TrackPointExtension>
        </extensions>
      </trkpt>
      <trkpt lat="42.55809252150356769561767578125" lon="20.06552584469318389892578125">
        <ele>2180.800048828125</ele>
        <time>2026-06-19T11:47:47.000Z</time>
        <extensions>
          <ns3:TrackPointExtension>
            <ns3:atemp>16.0</ns3:atemp>
          </ns3:TrackPointExtension>
        </extensions>
      </trkpt>
      <trkpt lat="42.558083720505237579345703125" lon="20.065569095313549041748046875">
        <ele>2180.39990234375</ele>
        <time>2026-06-19T11:47:48.000Z</time>
        <extensions>
          <ns3:TrackPointExtension>
            <ns3:atemp>16.0</ns3:atemp>
          </ns3:TrackPointExtension>
        </extensions>
      </trkpt>
      <trkpt lat="42.55807173438370227813720703125" lon="20.06561293266713619232177734375">
        <ele>2179.800048828125</ele>
        <time>2026-06-19T11:47:49.000Z</time>
        <extensions>
          <ns3:TrackPointExtension>
            <ns3:atemp>16.0</ns3:atemp>
          </ns3:TrackPointExtension>
        </extensions>
      </trkpt>
      <trkpt lat="42.55805346183478832244873046875" lon="20.06565500982105731964111328125">
        <ele>2179.39990234375</ele>
        <time>2026-06-19T11:47:50.000Z</time>
        <extensions>
          <ns3:TrackPointExtension>
            <ns3:atemp>16.0</ns3:atemp>
          </ns3:TrackPointExtension>
        </extensions>
      </trkpt>
      <trkpt lat="42.5580351054668426513671875" lon="20.06569859571754932403564453125">
        <ele>2178.800048828125</ele>
        <time>2026-06-19T11:47:51.000Z</time>
        <extensions>
          <ns3:TrackPointExtension>
            <ns3:atemp>16.0</ns3:atemp>
          </ns3:TrackPointExtension>
        </extensions>
      </trkpt>
      <trkpt lat="42.55801842547953128814697265625" lon="20.065735392272472381591796875">
        <ele>2178.39990234375</ele>
        <time>2026-06-19T11:47:52.000Z</time>
        <extensions>
          <ns3:TrackPointExtension>
            <ns3:atemp>16.0</ns3:atemp>
          </ns3:TrackPointExtension>
        </extensions>
      </trkpt>
      <trkpt lat="42.5580121390521526336669921875" lon="20.0657518208026885986328125">
        <ele>2178.199951171875</ele>
        <time>2026-06-19T11:47:53.000Z</time>
        <extensions>
          <ns3:TrackPointExtension>
            <ns3:atemp>16.0</ns3:atemp>
          </ns3:TrackPointExtension>
        </extensions>
      </trkpt>
      <trkpt lat="42.55801574327051639556884765625" lon="20.065746791660785675048828125">
        <ele>2178</ele>
        <time>2026-06-19T11:47:54.000Z</time>
        <extensions>
          <ns3:TrackPointExtension>
            <ns3:atemp>16.0</ns3:atemp>
          </ns3:TrackPointExtension>
        </extensions>
      </trkpt>
      <trkpt lat="42.55801574327051639556884765625" lon="20.065746791660785675048828125">
        <ele>2178</ele>
        <time>2026-06-19T11:47:55.000Z</time>
        <extensions>
          <ns3:TrackPointExtension>
            <ns3:atemp>16.0</ns3:atemp>
          </ns3:TrackPointExtension>
        </extensions>
      </trkpt>
      <trkpt lat="42.55801574327051639556884765625" lon="20.065746791660785675048828125">
        <ele>2178</ele>
        <time>2026-06-19T11:47:56.000Z</time>
        <extensions>
          <ns3:TrackPointExtension>
            <ns3:atemp>16.0</ns3:atemp>
          </ns3:TrackPointExtension>
        </extensions>
      </trkpt>
      <trkpt lat="42.55801574327051639556884765625" lon="20.065746791660785675048828125">
        <ele>2178</ele>
        <time>2026-06-19T11:47:57.000Z</time>
        <extensions>
          <ns3:TrackPointExtension>
            <ns3:atemp>16.0</ns3:atemp>
          </ns3:TrackPointExtension>
        </extensions>
      </trkpt>
      <trkpt lat="42.55801574327051639556884765625" lon="20.065746791660785675048828125">
        <ele>2178</ele>
        <time>2026-06-19T11:47:58.000Z</time>
        <extensions>
          <ns3:TrackPointExtension>
            <ns3:atemp>16.0</ns3:atemp>
          </ns3:TrackPointExtension>
        </extensions>
      </trkpt>
      <trkpt lat="42.55801574327051639556884765625" lon="20.065746791660785675048828125">
        <ele>2178</ele>
        <time>2026-06-19T11:47:59.000Z</time>
        <extensions>
          <ns3:TrackPointExtension>
            <ns3:atemp>16.0</ns3:atemp>
          </ns3:TrackPointExtension>
        </extensions>
      </trkpt>
      <trkpt lat="42.55801574327051639556884765625" lon="20.065746791660785675048828125">
        <ele>2177.800048828125</ele>
        <time>2026-06-19T11:48:00.000Z</time>
        <extensions>
          <ns3:TrackPointExtension>
            <ns3:atemp>16.0</ns3:atemp>
          </ns3:TrackPointExtension>
        </extensions>
      </trkpt>
      <trkpt lat="42.55801574327051639556884765625" lon="20.065746791660785675048828125">
        <ele>2177.800048828125</ele>
        <time>2026-06-19T11:48:01.000Z</time>
        <extensions>
          <ns3:TrackPointExtension>
            <ns3:atemp>16.0</ns3:atemp>
          </ns3:TrackPointExtension>
        </extensions>
      </trkpt>
      <trkpt lat="42.55801574327051639556884765625" lon="20.065746791660785675048828125">
        <ele>2177.800048828125</ele>
        <time>2026-06-19T11:48:02.000Z</time>
        <extensions>
          <ns3:TrackPointExtension>
            <ns3:atemp>16.0</ns3:atemp>
          </ns3:TrackPointExtension>
        </extensions>
      </trkpt>
      <trkpt lat="42.55801574327051639556884765625" lon="20.065746791660785675048828125">
        <ele>2177.800048828125</ele>
        <time>2026-06-19T11:48:03.000Z</time>
        <extensions>
          <ns3:TrackPointExtension>
            <ns3:atemp>16.0</ns3:atemp>
          </ns3:TrackPointExtension>
        </extensions>
      </trkpt>
      <trkpt lat="42.55801574327051639556884765625" lon="20.065746791660785675048828125">
        <ele>2177.800048828125</ele>
        <time>2026-06-19T11:48:04.000Z</time>
        <extensions>
          <ns3:TrackPointExtension>
            <ns3:atemp>16.0</ns3:atemp>
          </ns3:TrackPointExtension>
        </extensions>
      </trkpt>
      <trkpt lat="42.55801574327051639556884765625" lon="20.065746791660785675048828125">
        <ele>2177.800048828125</ele>
        <time>2026-06-19T11:48:05.000Z</time>
        <extensions>
          <ns3:TrackPointExtension>
            <ns3:atemp>16.0</ns3:atemp>
          </ns3:TrackPointExtension>
        </extensions>
      </trkpt>
      <trkpt lat="42.55801574327051639556884765625" lon="20.065746791660785675048828125">
        <ele>2177.800048828125</ele>
        <time>2026-06-19T11:48:06.000Z</time>
        <extensions>
          <ns3:TrackPointExtension>
            <ns3:atemp>16.0</ns3:atemp>
          </ns3:TrackPointExtension>
        </extensions>
      </trkpt>
      <trkpt lat="42.55801574327051639556884765625" lon="20.065746791660785675048828125">
        <ele>2177.800048828125</ele>
        <time>2026-06-19T11:48:07.000Z</time>
        <extensions>
          <ns3:TrackPointExtension>
            <ns3:atemp>16.0</ns3:atemp>
          </ns3:TrackPointExtension>
        </extensions>
      </trkpt>
      <trkpt lat="42.55801574327051639556884765625" lon="20.065746791660785675048828125">
        <ele>2177.800048828125</ele>
        <time>2026-06-19T11:48:08.000Z</time>
        <extensions>
          <ns3:TrackPointExtension>
            <ns3:atemp>16.0</ns3:atemp>
          </ns3:TrackPointExtension>
        </extensions>
      </trkpt>
      <trkpt lat="42.55801574327051639556884765625" lon="20.065746791660785675048828125">
        <ele>2177.800048828125</ele>
        <time>2026-06-19T11:48:09.000Z</time>
        <extensions>
          <ns3:TrackPointExtension>
            <ns3:atemp>16.0</ns3:atemp>
          </ns3:TrackPointExtension>
        </extensions>
      </trkpt>
      <trkpt lat="42.55801574327051639556884765625" lon="20.065746791660785675048828125">
        <ele>2177.800048828125</ele>
        <time>2026-06-19T11:48:10.000Z</time>
        <extensions>
          <ns3:TrackPointExtension>
            <ns3:atemp>16.0</ns3:atemp>
          </ns3:TrackPointExtension>
        </extensions>
      </trkpt>
      <trkpt lat="42.55801624618470668792724609375" lon="20.06574989296495914459228515625">
        <ele>2177.800048828125</ele>
        <time>2026-06-19T11:48:11.000Z</time>
        <extensions>
          <ns3:TrackPointExtension>
            <ns3:atemp>16.0</ns3:atemp>
          </ns3:TrackPointExtension>
        </extensions>
      </trkpt>
      <trkpt lat="42.5580084510147571563720703125" lon="20.065779983997344970703125">
        <ele>2177.800048828125</ele>
        <time>2026-06-19T11:48:12.000Z</time>
        <extensions>
          <ns3:TrackPointExtension>
            <ns3:atemp>16.0</ns3:atemp>
          </ns3:TrackPointExtension>
        </extensions>
      </trkpt>
      <trkpt lat="42.55799814127385616302490234375" lon="20.06580471061170101165771484375">
        <ele>2177.800048828125</ele>
        <time>2026-06-19T11:48:13.000Z</time>
        <extensions>
          <ns3:TrackPointExtension>
            <ns3:atemp>16.0</ns3:atemp>
          </ns3:TrackPointExtension>
        </extensions>
      </trkpt>
      <trkpt lat="42.55798372440040111541748046875" lon="20.06583052687346935272216796875">
        <ele>2177.60009765625</ele>
        <time>2026-06-19T11:48:14.000Z</time>
        <extensions>
          <ns3:TrackPointExtension>
            <ns3:atemp>16.0</ns3:atemp>
          </ns3:TrackPointExtension>
        </extensions>
      </trkpt>
      <trkpt lat="42.5579695589840412139892578125" lon="20.06585282273590564727783203125">
        <ele>2177.60009765625</ele>
        <time>2026-06-19T11:48:15.000Z</time>
        <extensions>
          <ns3:TrackPointExtension>
            <ns3:atemp>16.0</ns3:atemp>
          </ns3:TrackPointExtension>
        </extensions>
      </trkpt>
      <trkpt lat="42.55796126089990139007568359375" lon="20.06587126292288303375244140625">
        <ele>2177.39990234375</ele>
        <time>2026-06-19T11:48:16.000Z</time>
        <extensions>
          <ns3:TrackPointExtension>
            <ns3:atemp>16.0</ns3:atemp>
          </ns3:TrackPointExtension>
        </extensions>
      </trkpt>
      <trkpt lat="42.5579517893493175506591796875" lon="20.06587922573089599609375">
        <ele>2177.199951171875</ele>
        <time>2026-06-19T11:48:17.000Z</time>
        <extensions>
          <ns3:TrackPointExtension>
            <ns3:atemp>16.0</ns3:atemp>
          </ns3:TrackPointExtension>
        </extensions>
      </trkpt>
      <trkpt lat="42.55794935859739780426025390625" lon="20.06588065065443515777587890625">
        <ele>2177</ele>
        <time>2026-06-19T11:48:18.000Z</time>
        <extensions>
          <ns3:TrackPointExtension>
            <ns3:atemp>16.0</ns3:atemp>
          </ns3:TrackPointExtension>
        </extensions>
      </trkpt>
      <trkpt lat="42.55794952623546123504638671875" lon="20.065880902111530303955078125">
        <ele>2177</ele>
        <time>2026-06-19T11:48:19.000Z</time>
        <extensions>
          <ns3:TrackPointExtension>
            <ns3:atemp>16.0</ns3:atemp>
          </ns3:TrackPointExtension>
        </extensions>
      </trkpt>
      <trkpt lat="42.55794952623546123504638671875" lon="20.065880902111530303955078125">
        <ele>2176.800048828125</ele>
        <time>2026-06-19T11:48:20.000Z</time>
        <extensions>
          <ns3:TrackPointExtension>
            <ns3:atemp>16.0</ns3:atemp>
          </ns3:TrackPointExtension>
        </extensions>
      </trkpt>
      <trkpt lat="42.55794952623546123504638671875" lon="20.065880902111530303955078125">
        <ele>2176.800048828125</ele>
        <time>2026-06-19T11:48:21.000Z</time>
        <extensions>
          <ns3:TrackPointExtension>
            <ns3:atemp>16.0</ns3:atemp>
          </ns3:TrackPointExtension>
        </extensions>
      </trkpt>
      <trkpt lat="42.55794952623546123504638671875" lon="20.065880902111530303955078125">
        <ele>2176.800048828125</ele>
        <time>2026-06-19T11:48:22.000Z</time>
        <extensions>
          <ns3:TrackPointExtension>
            <ns3:atemp>16.0</ns3:atemp>
          </ns3:TrackPointExtension>
        </extensions>
      </trkpt>
      <trkpt lat="42.55794952623546123504638671875" lon="20.065880902111530303955078125">
        <ele>2176.60009765625</ele>
        <time>2026-06-19T11:48:23.000Z</time>
        <extensions>
          <ns3:TrackPointExtension>
            <ns3:atemp>16.0</ns3:atemp>
          </ns3:TrackPointExtension>
        </extensions>
      </trkpt>
      <trkpt lat="42.55794952623546123504638671875" lon="20.065880902111530303955078125">
        <ele>2176.60009765625</ele>
        <time>2026-06-19T11:48:24.000Z</time>
        <extensions>
          <ns3:TrackPointExtension>
            <ns3:atemp>16.0</ns3:atemp>
          </ns3:TrackPointExtension>
        </extensions>
      </trkpt>
      <trkpt lat="42.55794952623546123504638671875" lon="20.065880902111530303955078125">
        <ele>2176.60009765625</ele>
        <time>2026-06-19T11:48:25.000Z</time>
        <extensions>
          <ns3:TrackPointExtension>
            <ns3:atemp>16.0</ns3:atemp>
          </ns3:TrackPointExtension>
        </extensions>
      </trkpt>
      <trkpt lat="42.55794952623546123504638671875" lon="20.065880902111530303955078125">
        <ele>2176.60009765625</ele>
        <time>2026-06-19T11:48:26.000Z</time>
        <extensions>
          <ns3:TrackPointExtension>
            <ns3:atemp>16.0</ns3:atemp>
          </ns3:TrackPointExtension>
        </extensions>
      </trkpt>
      <trkpt lat="42.55794952623546123504638671875" lon="20.065880902111530303955078125">
        <ele>2176.60009765625</ele>
        <time>2026-06-19T11:48:27.000Z</time>
        <extensions>
          <ns3:TrackPointExtension>
            <ns3:atemp>16.0</ns3:atemp>
          </ns3:TrackPointExtension>
        </extensions>
      </trkpt>
      <trkpt lat="42.55794952623546123504638671875" lon="20.065880902111530303955078125">
        <ele>2176.60009765625</ele>
        <time>2026-06-19T11:48:28.000Z</time>
        <extensions>
          <ns3:TrackPointExtension>
            <ns3:atemp>16.0</ns3:atemp>
          </ns3:TrackPointExtension>
        </extensions>
      </trkpt>
      <trkpt lat="42.55794952623546123504638671875" lon="20.065880902111530303955078125">
        <ele>2176.60009765625</ele>
        <time>2026-06-19T11:48:29.000Z</time>
        <extensions>
          <ns3:TrackPointExtension>
            <ns3:atemp>16.0</ns3:atemp>
          </ns3:TrackPointExtension>
        </extensions>
      </trkpt>
      <trkpt lat="42.55794952623546123504638671875" lon="20.065880902111530303955078125">
        <ele>2176.60009765625</ele>
        <time>2026-06-19T11:48:30.000Z</time>
        <extensions>
          <ns3:TrackPointExtension>
            <ns3:atemp>16.0</ns3:atemp>
          </ns3:TrackPointExtension>
        </extensions>
      </trkpt>
      <trkpt lat="42.55794952623546123504638671875" lon="20.065880902111530303955078125">
        <ele>2176.800048828125</ele>
        <time>2026-06-19T11:48:31.000Z</time>
        <extensions>
          <ns3:TrackPointExtension>
            <ns3:atemp>16.0</ns3:atemp>
          </ns3:TrackPointExtension>
        </extensions>
      </trkpt>
      <trkpt lat="42.55794952623546123504638671875" lon="20.065880902111530303955078125">
        <ele>2176.800048828125</ele>
        <time>2026-06-19T11:48:32.000Z</time>
        <extensions>
          <ns3:TrackPointExtension>
            <ns3:atemp>16.0</ns3:atemp>
          </ns3:TrackPointExtension>
        </extensions>
      </trkpt>
      <trkpt lat="42.55794952623546123504638671875" lon="20.065880902111530303955078125">
        <ele>2176.800048828125</ele>
        <time>2026-06-19T11:48:33.000Z</time>
        <extensions>
          <ns3:TrackPointExtension>
            <ns3:atemp>16.0</ns3:atemp>
          </ns3:TrackPointExtension>
        </extensions>
      </trkpt>
      <trkpt lat="42.55794952623546123504638671875" lon="20.065880902111530303955078125">
        <ele>2176.800048828125</ele>
        <time>2026-06-19T11:48:34.000Z</time>
        <extensions>
          <ns3:TrackPointExtension>
            <ns3:atemp>16.0</ns3:atemp>
          </ns3:TrackPointExtension>
        </extensions>
      </trkpt>
      <trkpt lat="42.55794952623546123504638671875" lon="20.065880902111530303955078125">
        <ele>2176.800048828125</ele>
        <time>2026-06-19T11:48:35.000Z</time>
        <extensions>
          <ns3:TrackPointExtension>
            <ns3:atemp>16.0</ns3:atemp>
          </ns3:TrackPointExtension>
        </extensions>
      </trkpt>
      <trkpt lat="42.55794952623546123504638671875" lon="20.065880902111530303955078125">
        <ele>2176.800048828125</ele>
        <time>2026-06-19T11:48:36.000Z</time>
        <extensions>
          <ns3:TrackPointExtension>
            <ns3:atemp>16.0</ns3:atemp>
          </ns3:TrackPointExtension>
        </extensions>
      </trkpt>
      <trkpt lat="42.55794952623546123504638671875" lon="20.065880902111530303955078125">
        <ele>2176.60009765625</ele>
        <time>2026-06-19T11:48:37.000Z</time>
        <extensions>
          <ns3:TrackPointExtension>
            <ns3:atemp>16.0</ns3:atemp>
          </ns3:TrackPointExtension>
        </extensions>
      </trkpt>
      <trkpt lat="42.55794952623546123504638671875" lon="20.065880902111530303955078125">
        <ele>2176.60009765625</ele>
        <time>2026-06-19T11:48:38.000Z</time>
        <extensions>
          <ns3:TrackPointExtension>
            <ns3:atemp>16.0</ns3:atemp>
          </ns3:TrackPointExtension>
        </extensions>
      </trkpt>
      <trkpt lat="42.55794952623546123504638671875" lon="20.065880902111530303955078125">
        <ele>2176.60009765625</ele>
        <time>2026-06-19T11:48:39.000Z</time>
        <extensions>
          <ns3:TrackPointExtension>
            <ns3:atemp>16.0</ns3:atemp>
          </ns3:TrackPointExtension>
        </extensions>
      </trkpt>
      <trkpt lat="42.55794952623546123504638671875" lon="20.065880902111530303955078125">
        <ele>2176.60009765625</ele>
        <time>2026-06-19T11:48:40.000Z</time>
        <extensions>
          <ns3:TrackPointExtension>
            <ns3:atemp>16.0</ns3:atemp>
          </ns3:TrackPointExtension>
        </extensions>
      </trkpt>
      <trkpt lat="42.55794952623546123504638671875" lon="20.065880902111530303955078125">
        <ele>2176.60009765625</ele>
        <time>2026-06-19T11:48:41.000Z</time>
        <extensions>
          <ns3:TrackPointExtension>
            <ns3:atemp>16.0</ns3:atemp>
          </ns3:TrackPointExtension>
        </extensions>
      </trkpt>
      <trkpt lat="42.55794952623546123504638671875" lon="20.065880902111530303955078125">
        <ele>2176.60009765625</ele>
        <time>2026-06-19T11:48:42.000Z</time>
        <extensions>
          <ns3:TrackPointExtension>
            <ns3:atemp>16.0</ns3:atemp>
          </ns3:TrackPointExtension>
        </extensions>
      </trkpt>
      <trkpt lat="42.55794952623546123504638671875" lon="20.065880902111530303955078125">
        <ele>2176.60009765625</ele>
        <time>2026-06-19T11:48:43.000Z</time>
        <extensions>
          <ns3:TrackPointExtension>
            <ns3:atemp>16.0</ns3:atemp>
          </ns3:TrackPointExtension>
        </extensions>
      </trkpt>
      <trkpt lat="42.55794952623546123504638671875" lon="20.065880902111530303955078125">
        <ele>2176.60009765625</ele>
        <time>2026-06-19T11:48:44.000Z</time>
        <extensions>
          <ns3:TrackPointExtension>
            <ns3:atemp>16.0</ns3:atemp>
          </ns3:TrackPointExtension>
        </extensions>
      </trkpt>
      <trkpt lat="42.55794952623546123504638671875" lon="20.065880902111530303955078125">
        <ele>2176.60009765625</ele>
        <time>2026-06-19T11:48:45.000Z</time>
        <extensions>
          <ns3:TrackPointExtension>
            <ns3:atemp>16.0</ns3:atemp>
          </ns3:TrackPointExtension>
        </extensions>
      </trkpt>
      <trkpt lat="42.55794952623546123504638671875" lon="20.065880902111530303955078125">
        <ele>2176.60009765625</ele>
        <time>2026-06-19T11:48:46.000Z</time>
        <extensions>
          <ns3:TrackPointExtension>
            <ns3:atemp>16.0</ns3:atemp>
          </ns3:TrackPointExtension>
        </extensions>
      </trkpt>
      <trkpt lat="42.55794952623546123504638671875" lon="20.065880902111530303955078125">
        <ele>2176.800048828125</ele>
        <time>2026-06-19T11:48:47.000Z</time>
        <extensions>
          <ns3:TrackPointExtension>
            <ns3:atemp>16.0</ns3:atemp>
          </ns3:TrackPointExtension>
        </extensions>
      </trkpt>
      <trkpt lat="42.55794952623546123504638671875" lon="20.065880902111530303955078125">
        <ele>2176.800048828125</ele>
        <time>2026-06-19T11:48:48.000Z</time>
        <extensions>
          <ns3:TrackPointExtension>
            <ns3:atemp>16.0</ns3:atemp>
          </ns3:TrackPointExtension>
        </extensions>
      </trkpt>
      <trkpt lat="42.55794952623546123504638671875" lon="20.065880902111530303955078125">
        <ele>2176.800048828125</ele>
        <time>2026-06-19T11:48:49.000Z</time>
        <extensions>
          <ns3:TrackPointExtension>
            <ns3:atemp>16.0</ns3:atemp>
          </ns3:TrackPointExtension>
        </extensions>
      </trkpt>
      <trkpt lat="42.55794952623546123504638671875" lon="20.065880902111530303955078125">
        <ele>2176.800048828125</ele>
        <time>2026-06-19T11:48:50.000Z</time>
        <extensions>
          <ns3:TrackPointExtension>
            <ns3:atemp>16.0</ns3:atemp>
          </ns3:TrackPointExtension>
        </extensions>
      </trkpt>
      <trkpt lat="42.55794952623546123504638671875" lon="20.065880902111530303955078125">
        <ele>2176.800048828125</ele>
        <time>2026-06-19T11:48:51.000Z</time>
        <extensions>
          <ns3:TrackPointExtension>
            <ns3:atemp>16.0</ns3:atemp>
          </ns3:TrackPointExtension>
        </extensions>
      </trkpt>
      <trkpt lat="42.55794952623546123504638671875" lon="20.065880902111530303955078125">
        <ele>2176.800048828125</ele>
        <time>2026-06-19T11:48:52.000Z</time>
        <extensions>
          <ns3:TrackPointExtension>
            <ns3:atemp>16.0</ns3:atemp>
          </ns3:TrackPointExtension>
        </extensions>
      </trkpt>
      <trkpt lat="42.55794952623546123504638671875" lon="20.065880902111530303955078125">
        <ele>2176.800048828125</ele>
        <time>2026-06-19T11:48:53.000Z</time>
        <extensions>
          <ns3:TrackPointExtension>
            <ns3:atemp>16.0</ns3:atemp>
          </ns3:TrackPointExtension>
        </extensions>
      </trkpt>
      <trkpt lat="42.55794952623546123504638671875" lon="20.065880902111530303955078125">
        <ele>2176.800048828125</ele>
        <time>2026-06-19T11:48:54.000Z</time>
        <extensions>
          <ns3:TrackPointExtension>
            <ns3:atemp>16.0</ns3:atemp>
          </ns3:TrackPointExtension>
        </extensions>
      </trkpt>
      <trkpt lat="42.55794952623546123504638671875" lon="20.065880902111530303955078125">
        <ele>2177</ele>
        <time>2026-06-19T11:48:55.000Z</time>
        <extensions>
          <ns3:TrackPointExtension>
            <ns3:atemp>16.0</ns3:atemp>
          </ns3:TrackPointExtension>
        </extensions>
      </trkpt>
      <trkpt lat="42.55794952623546123504638671875" lon="20.065880902111530303955078125">
        <ele>2177</ele>
        <time>2026-06-19T11:48:56.000Z</time>
        <extensions>
          <ns3:TrackPointExtension>
            <ns3:atemp>16.0</ns3:atemp>
          </ns3:TrackPointExtension>
        </extensions>
      </trkpt>
      <trkpt lat="42.55794952623546123504638671875" lon="20.065880902111530303955078125">
        <ele>2177</ele>
        <time>2026-06-19T11:48:57.000Z</time>
        <extensions>
          <ns3:TrackPointExtension>
            <ns3:atemp>16.0</ns3:atemp>
          </ns3:TrackPointExtension>
        </extensions>
      </trkpt>
      <trkpt lat="42.55794952623546123504638671875" lon="20.065880902111530303955078125">
        <ele>2177</ele>
        <time>2026-06-19T11:48:58.000Z</time>
        <extensions>
          <ns3:TrackPointExtension>
            <ns3:atemp>16.0</ns3:atemp>
          </ns3:TrackPointExtension>
        </extensions>
      </trkpt>
      <trkpt lat="42.55794952623546123504638671875" lon="20.065880902111530303955078125">
        <ele>2177</ele>
        <time>2026-06-19T11:48:59.000Z</time>
        <extensions>
          <ns3:TrackPointExtension>
            <ns3:atemp>16.0</ns3:atemp>
          </ns3:TrackPointExtension>
        </extensions>
      </trkpt>
      <trkpt lat="42.55794952623546123504638671875" lon="20.065880902111530303955078125">
        <ele>2177</ele>
        <time>2026-06-19T11:49:00.000Z</time>
        <extensions>
          <ns3:TrackPointExtension>
            <ns3:atemp>16.0</ns3:atemp>
          </ns3:TrackPointExtension>
        </extensions>
      </trkpt>
      <trkpt lat="42.55794952623546123504638671875" lon="20.065880902111530303955078125">
        <ele>2177</ele>
        <time>2026-06-19T11:49:01.000Z</time>
        <extensions>
          <ns3:TrackPointExtension>
            <ns3:atemp>16.0</ns3:atemp>
          </ns3:TrackPointExtension>
        </extensions>
      </trkpt>
      <trkpt lat="42.55794952623546123504638671875" lon="20.065880902111530303955078125">
        <ele>2177</ele>
        <time>2026-06-19T11:49:02.000Z</time>
        <extensions>
          <ns3:TrackPointExtension>
            <ns3:atemp>16.0</ns3:atemp>
          </ns3:TrackPointExtension>
        </extensions>
      </trkpt>
      <trkpt lat="42.55794952623546123504638671875" lon="20.065880902111530303955078125">
        <ele>2177</ele>
        <time>2026-06-19T11:49:03.000Z</time>
        <extensions>
          <ns3:TrackPointExtension>
            <ns3:atemp>16.0</ns3:atemp>
          </ns3:TrackPointExtension>
        </extensions>
      </trkpt>
      <trkpt lat="42.55794952623546123504638671875" lon="20.065880902111530303955078125">
        <ele>2177</ele>
        <time>2026-06-19T11:49:04.000Z</time>
        <extensions>
          <ns3:TrackPointExtension>
            <ns3:atemp>16.0</ns3:atemp>
          </ns3:TrackPointExtension>
        </extensions>
      </trkpt>
      <trkpt lat="42.55794952623546123504638671875" lon="20.065880902111530303955078125">
        <ele>2177</ele>
        <time>2026-06-19T11:49:05.000Z</time>
        <extensions>
          <ns3:TrackPointExtension>
            <ns3:atemp>16.0</ns3:atemp>
          </ns3:TrackPointExtension>
        </extensions>
      </trkpt>
      <trkpt lat="42.55794952623546123504638671875" lon="20.065880902111530303955078125">
        <ele>2177</ele>
        <time>2026-06-19T11:49:06.000Z</time>
        <extensions>
          <ns3:TrackPointExtension>
            <ns3:atemp>16.0</ns3:atemp>
          </ns3:TrackPointExtension>
        </extensions>
      </trkpt>
      <trkpt lat="42.55794952623546123504638671875" lon="20.065880902111530303955078125">
        <ele>2176.800048828125</ele>
        <time>2026-06-19T11:49:07.000Z</time>
        <extensions>
          <ns3:TrackPointExtension>
            <ns3:atemp>16.0</ns3:atemp>
          </ns3:TrackPointExtension>
        </extensions>
      </trkpt>
      <trkpt lat="42.55794952623546123504638671875" lon="20.065880902111530303955078125">
        <ele>2176.800048828125</ele>
        <time>2026-06-19T11:49:08.000Z</time>
        <extensions>
          <ns3:TrackPointExtension>
            <ns3:atemp>16.0</ns3:atemp>
          </ns3:TrackPointExtension>
        </extensions>
      </trkpt>
      <trkpt lat="42.55794952623546123504638671875" lon="20.065880902111530303955078125">
        <ele>2176.800048828125</ele>
        <time>2026-06-19T11:49:09.000Z</time>
        <extensions>
          <ns3:TrackPointExtension>
            <ns3:atemp>16.0</ns3:atemp>
          </ns3:TrackPointExtension>
        </extensions>
      </trkpt>
      <trkpt lat="42.55794952623546123504638671875" lon="20.065880902111530303955078125">
        <ele>2176.800048828125</ele>
        <time>2026-06-19T11:49:10.000Z</time>
        <extensions>
          <ns3:TrackPointExtension>
            <ns3:atemp>16.0</ns3:atemp>
          </ns3:TrackPointExtension>
        </extensions>
      </trkpt>
      <trkpt lat="42.55794952623546123504638671875" lon="20.065880902111530303955078125">
        <ele>2176.800048828125</ele>
        <time>2026-06-19T11:49:11.000Z</time>
        <extensions>
          <ns3:TrackPointExtension>
            <ns3:atemp>16.0</ns3:atemp>
          </ns3:TrackPointExtension>
        </extensions>
      </trkpt>
      <trkpt lat="42.55794952623546123504638671875" lon="20.065880902111530303955078125">
        <ele>2176.800048828125</ele>
        <time>2026-06-19T11:49:12.000Z</time>
        <extensions>
          <ns3:TrackPointExtension>
            <ns3:atemp>16.0</ns3:atemp>
          </ns3:TrackPointExtension>
        </extensions>
      </trkpt>
      <trkpt lat="42.55794952623546123504638671875" lon="20.065880902111530303955078125">
        <ele>2176.800048828125</ele>
        <time>2026-06-19T11:49:13.000Z</time>
        <extensions>
          <ns3:TrackPointExtension>
            <ns3:atemp>16.0</ns3:atemp>
          </ns3:TrackPointExtension>
        </extensions>
      </trkpt>
      <trkpt lat="42.55794952623546123504638671875" lon="20.065880902111530303955078125">
        <ele>2176.800048828125</ele>
        <time>2026-06-19T11:49:14.000Z</time>
        <extensions>
          <ns3:TrackPointExtension>
            <ns3:atemp>16.0</ns3:atemp>
          </ns3:TrackPointExtension>
        </extensions>
      </trkpt>
      <trkpt lat="42.55794952623546123504638671875" lon="20.065880902111530303955078125">
        <ele>2176.60009765625</ele>
        <time>2026-06-19T11:49:15.000Z</time>
        <extensions>
          <ns3:TrackPointExtension>
            <ns3:atemp>16.0</ns3:atemp>
          </ns3:TrackPointExtension>
        </extensions>
      </trkpt>
      <trkpt lat="42.55794952623546123504638671875" lon="20.065880902111530303955078125">
        <ele>2176.60009765625</ele>
        <time>2026-06-19T11:49:16.000Z</time>
        <extensions>
          <ns3:TrackPointExtension>
            <ns3:atemp>16.0</ns3:atemp>
          </ns3:TrackPointExtension>
        </extensions>
      </trkpt>
      <trkpt lat="42.55794952623546123504638671875" lon="20.065880902111530303955078125">
        <ele>2176.60009765625</ele>
        <time>2026-06-19T11:49:17.000Z</time>
        <extensions>
          <ns3:TrackPointExtension>
            <ns3:atemp>16.0</ns3:atemp>
          </ns3:TrackPointExtension>
        </extensions>
      </trkpt>
      <trkpt lat="42.55794952623546123504638671875" lon="20.065880902111530303955078125">
        <ele>2176.60009765625</ele>
        <time>2026-06-19T11:49:18.000Z</time>
        <extensions>
          <ns3:TrackPointExtension>
            <ns3:atemp>16.0</ns3:atemp>
          </ns3:TrackPointExtension>
        </extensions>
      </trkpt>
      <trkpt lat="42.55794952623546123504638671875" lon="20.065880902111530303955078125">
        <ele>2176.60009765625</ele>
        <time>2026-06-19T11:49:19.000Z</time>
        <extensions>
          <ns3:TrackPointExtension>
            <ns3:atemp>16.0</ns3:atemp>
          </ns3:TrackPointExtension>
        </extensions>
      </trkpt>
      <trkpt lat="42.55794952623546123504638671875" lon="20.065880902111530303955078125">
        <ele>2176.60009765625</ele>
        <time>2026-06-19T11:49:20.000Z</time>
        <extensions>
          <ns3:TrackPointExtension>
            <ns3:atemp>16.0</ns3:atemp>
          </ns3:TrackPointExtension>
        </extensions>
      </trkpt>
      <trkpt lat="42.5579519569873809814453125" lon="20.06588182412087917327880859375">
        <ele>2176.60009765625</ele>
        <time>2026-06-19T11:49:21.000Z</time>
        <extensions>
          <ns3:TrackPointExtension>
            <ns3:atemp>16.0</ns3:atemp>
          </ns3:TrackPointExtension>
        </extensions>
      </trkpt>
      <trkpt lat="42.55794768221676349639892578125" lon="20.0659031979739665985107421875">
        <ele>2176.60009765625</ele>
        <time>2026-06-19T11:49:22.000Z</time>
        <extensions>
          <ns3:TrackPointExtension>
            <ns3:atemp>16.0</ns3:atemp>
          </ns3:TrackPointExtension>
        </extensions>
      </trkpt>
      <trkpt lat="42.55793251097202301025390625" lon="20.06593429483473300933837890625">
        <ele>2176.60009765625</ele>
        <time>2026-06-19T11:49:23.000Z</time>
        <extensions>
          <ns3:TrackPointExtension>
            <ns3:atemp>16.0</ns3:atemp>
          </ns3:TrackPointExtension>
        </extensions>
      </trkpt>
      <trkpt lat="42.5579128973186016082763671875" lon="20.06596706807613372802734375">
        <ele>2176.39990234375</ele>
        <time>2026-06-19T11:49:24.000Z</time>
        <extensions>
          <ns3:TrackPointExtension>
            <ns3:atemp>16.0</ns3:atemp>
          </ns3:TrackPointExtension>
        </extensions>
      </trkpt>
      <trkpt lat="42.55788599140942096710205078125" lon="20.06600822322070598602294921875">
        <ele>2176.199951171875</ele>
        <time>2026-06-19T11:49:25.000Z</time>
        <extensions>
          <ns3:TrackPointExtension>
            <ns3:atemp>16.0</ns3:atemp>
          </ns3:TrackPointExtension>
        </extensions>
      </trkpt>
      <trkpt lat="42.55785196088254451751708984375" lon="20.066059939563274383544921875">
        <ele>2175.800048828125</ele>
        <time>2026-06-19T11:49:26.000Z</time>
        <extensions>
          <ns3:TrackPointExtension>
            <ns3:atemp>16.0</ns3:atemp>
          </ns3:TrackPointExtension>
        </extensions>
      </trkpt>
      <trkpt lat="42.55780837498605251312255859375" lon="20.06611056625843048095703125">
        <ele>2175</ele>
        <time>2026-06-19T11:49:27.000Z</time>
        <extensions>
          <ns3:TrackPointExtension>
            <ns3:atemp>16.0</ns3:atemp>
          </ns3:TrackPointExtension>
        </extensions>
      </trkpt>
      <trkpt lat="42.55775741301476955413818359375" lon="20.066163539886474609375">
        <ele>2174.60009765625</ele>
        <time>2026-06-19T11:49:28.000Z</time>
        <extensions>
          <ns3:TrackPointExtension>
            <ns3:atemp>16.0</ns3:atemp>
          </ns3:TrackPointExtension>
        </extensions>
      </trkpt>
      <trkpt lat="42.55769790150225162506103515625" lon="20.066218189895153045654296875">
        <ele>2173.800048828125</ele>
        <time>2026-06-19T11:49:29.000Z</time>
        <extensions>
          <ns3:TrackPointExtension>
            <ns3:atemp>16.0</ns3:atemp>
          </ns3:TrackPointExtension>
        </extensions>
      </trkpt>
      <trkpt lat="42.55763805471360683441162109375" lon="20.0662802159786224365234375">
        <ele>2173.199951171875</ele>
        <time>2026-06-19T11:49:30.000Z</time>
        <extensions>
          <ns3:TrackPointExtension>
            <ns3:atemp>16.0</ns3:atemp>
          </ns3:TrackPointExtension>
        </extensions>
      </trkpt>
      <trkpt lat="42.5575809739530086517333984375" lon="20.06635271944105625152587890625">
        <ele>2172.60009765625</ele>
        <time>2026-06-19T11:49:31.000Z</time>
        <extensions>
          <ns3:TrackPointExtension>
            <ns3:atemp>16.0</ns3:atemp>
          </ns3:TrackPointExtension>
        </extensions>
      </trkpt>
      <trkpt lat="42.55753160454332828521728515625" lon="20.06643913686275482177734375">
        <ele>2172</ele>
        <time>2026-06-19T11:49:32.000Z</time>
        <extensions>
          <ns3:TrackPointExtension>
            <ns3:atemp>16.0</ns3:atemp>
          </ns3:TrackPointExtension>
        </extensions>
      </trkpt>
      <trkpt lat="42.55747913382947444915771484375" lon="20.06653041578829288482666015625">
        <ele>2171</ele>
        <time>2026-06-19T11:49:33.000Z</time>
        <extensions>
          <ns3:TrackPointExtension>
            <ns3:atemp>16.0</ns3:atemp>
          </ns3:TrackPointExtension>
        </extensions>
      </trkpt>
      <trkpt lat="42.557433284819126129150390625" lon="20.066611468791961669921875">
        <ele>2170.199951171875</ele>
        <time>2026-06-19T11:49:34.000Z</time>
        <extensions>
          <ns3:TrackPointExtension>
            <ns3:atemp>16.0</ns3:atemp>
          </ns3:TrackPointExtension>
        </extensions>
      </trkpt>
      <trkpt lat="42.55740386433899402618408203125" lon="20.06666754372417926788330078125">
        <ele>2169.39990234375</ele>
        <time>2026-06-19T11:49:35.000Z</time>
        <extensions>
          <ns3:TrackPointExtension>
            <ns3:atemp>16.0</ns3:atemp>
          </ns3:TrackPointExtension>
        </extensions>
      </trkpt>
      <trkpt lat="42.55739045329391956329345703125" lon="20.06669771857559680938720703125">
        <ele>2168.800048828125</ele>
        <time>2026-06-19T11:49:36.000Z</time>
        <extensions>
          <ns3:TrackPointExtension>
            <ns3:atemp>16.0</ns3:atemp>
          </ns3:TrackPointExtension>
        </extensions>
      </trkpt>
      <trkpt lat="42.557374276220798492431640625" lon="20.06672705523669719696044921875">
        <ele>2168.39990234375</ele>
        <time>2026-06-19T11:49:37.000Z</time>
        <extensions>
          <ns3:TrackPointExtension>
            <ns3:atemp>16.0</ns3:atemp>
          </ns3:TrackPointExtension>
        </extensions>
      </trkpt>
      <trkpt lat="42.5573553331196308135986328125" lon="20.06676142103970050811767578125">
        <ele>2167.800048828125</ele>
        <time>2026-06-19T11:49:38.000Z</time>
        <extensions>
          <ns3:TrackPointExtension>
            <ns3:atemp>16.0</ns3:atemp>
          </ns3:TrackPointExtension>
        </extensions>
      </trkpt>
      <trkpt lat="42.55733035504817962646484375" lon="20.0668181665241718292236328125">
        <ele>2167.199951171875</ele>
        <time>2026-06-19T11:49:39.000Z</time>
        <extensions>
          <ns3:TrackPointExtension>
            <ns3:atemp>16.0</ns3:atemp>
          </ns3:TrackPointExtension>
        </extensions>
      </trkpt>
      <trkpt lat="42.5573000125586986541748046875" lon="20.066885054111480712890625">
        <ele>2166.39990234375</ele>
        <time>2026-06-19T11:49:40.000Z</time>
        <extensions>
          <ns3:TrackPointExtension>
            <ns3:atemp>16.0</ns3:atemp>
          </ns3:TrackPointExtension>
        </extensions>
      </trkpt>
      <trkpt lat="42.55727059207856655120849609375" lon="20.06696174852550029754638671875">
        <ele>2165.60009765625</ele>
        <time>2026-06-19T11:49:41.000Z</time>
        <extensions>
          <ns3:TrackPointExtension>
            <ns3:atemp>16.0</ns3:atemp>
          </ns3:TrackPointExtension>
        </extensions>
      </trkpt>
      <trkpt lat="42.55723387934267520904541015625" lon="20.067035257816314697265625">
        <ele>2164.800048828125</ele>
        <time>2026-06-19T11:49:42.000Z</time>
        <extensions>
          <ns3:TrackPointExtension>
            <ns3:atemp>16.0</ns3:atemp>
          </ns3:TrackPointExtension>
        </extensions>
      </trkpt>
      <trkpt lat="42.557194568216800689697265625" lon="20.0671105273067951202392578125">
        <ele>2164.199951171875</ele>
        <time>2026-06-19T11:49:43.000Z</time>
        <extensions>
          <ns3:TrackPointExtension>
            <ns3:atemp>16.0</ns3:atemp>
          </ns3:TrackPointExtension>
        </extensions>
      </trkpt>
      <trkpt lat="42.557164393365383148193359375" lon="20.0671802647411823272705078125">
        <ele>2163.39990234375</ele>
        <time>2026-06-19T11:49:44.000Z</time>
        <extensions>
          <ns3:TrackPointExtension>
            <ns3:atemp>16.0</ns3:atemp>
          </ns3:TrackPointExtension>
        </extensions>
      </trkpt>
      <trkpt lat="42.5571353919804096221923828125" lon="20.0672469846904277801513671875">
        <ele>2163</ele>
        <time>2026-06-19T11:49:45.000Z</time>
        <extensions>
          <ns3:TrackPointExtension>
            <ns3:atemp>16.0</ns3:atemp>
          </ns3:TrackPointExtension>
        </extensions>
      </trkpt>
      <trkpt lat="42.55709842778742313385009765625" lon="20.06731512956321239471435546875">
        <ele>2162.39990234375</ele>
        <time>2026-06-19T11:49:46.000Z</time>
        <extensions>
          <ns3:TrackPointExtension>
            <ns3:atemp>16.0</ns3:atemp>
          </ns3:TrackPointExtension>
        </extensions>
      </trkpt>
      <trkpt lat="42.557068169116973876953125" lon="20.06739106960594654083251953125">
        <ele>2161.60009765625</ele>
        <time>2026-06-19T11:49:47.000Z</time>
        <extensions>
          <ns3:TrackPointExtension>
            <ns3:atemp>16.0</ns3:atemp>
          </ns3:TrackPointExtension>
        </extensions>
      </trkpt>
      <trkpt lat="42.5570428557693958282470703125" lon="20.06746164523065090179443359375">
        <ele>2161</ele>
        <time>2026-06-19T11:49:48.000Z</time>
        <extensions>
          <ns3:TrackPointExtension>
            <ns3:atemp>16.0</ns3:atemp>
          </ns3:TrackPointExtension>
        </extensions>
      </trkpt>
      <trkpt lat="42.5570234097540378570556640625" lon="20.06751880981028079986572265625">
        <ele>2160.39990234375</ele>
        <time>2026-06-19T11:49:49.000Z</time>
        <extensions>
          <ns3:TrackPointExtension>
            <ns3:atemp>16.0</ns3:atemp>
          </ns3:TrackPointExtension>
        </extensions>
      </trkpt>
      <trkpt lat="42.55700522102415561676025390625" lon="20.0675728730857372283935546875">
        <ele>2159.800048828125</ele>
        <time>2026-06-19T11:49:50.000Z</time>
        <extensions>
          <ns3:TrackPointExtension>
            <ns3:atemp>16.0</ns3:atemp>
          </ns3:TrackPointExtension>
        </extensions>
      </trkpt>
      <trkpt lat="42.55698443390429019927978515625" lon="20.0676224939525127410888671875">
        <ele>2159.199951171875</ele>
        <time>2026-06-19T11:49:51.000Z</time>
        <extensions>
          <ns3:TrackPointExtension>
            <ns3:atemp>16.0</ns3:atemp>
          </ns3:TrackPointExtension>
        </extensions>
      </trkpt>
      <trkpt lat="42.55696213804185390472412109375" lon="20.06767605431377887725830078125">
        <ele>2158.60009765625</ele>
        <time>2026-06-19T11:49:52.000Z</time>
        <extensions>
          <ns3:TrackPointExtension>
            <ns3:atemp>16.0</ns3:atemp>
          </ns3:TrackPointExtension>
        </extensions>
      </trkpt>
      <trkpt lat="42.5569459609687328338623046875" lon="20.067745707929134368896484375">
        <ele>2157.800048828125</ele>
        <time>2026-06-19T11:49:53.000Z</time>
        <extensions>
          <ns3:TrackPointExtension>
            <ns3:atemp>16.0</ns3:atemp>
          </ns3:TrackPointExtension>
        </extensions>
      </trkpt>
      <trkpt lat="42.55692777223885059356689453125" lon="20.06781586445868015289306640625">
        <ele>2157.199951171875</ele>
        <time>2026-06-19T11:49:54.000Z</time>
        <extensions>
          <ns3:TrackPointExtension>
            <ns3:atemp>16.0</ns3:atemp>
          </ns3:TrackPointExtension>
        </extensions>
      </trkpt>
      <trkpt lat="42.5569000281393527984619140625" lon="20.067879818379878997802734375">
        <ele>2156.60009765625</ele>
        <time>2026-06-19T11:49:55.000Z</time>
        <extensions>
          <ns3:TrackPointExtension>
            <ns3:atemp>16.0</ns3:atemp>
          </ns3:TrackPointExtension>
        </extensions>
      </trkpt>
      <trkpt lat="42.55687345750629901885986328125" lon="20.0679423473775386810302734375">
        <ele>2156</ele>
        <time>2026-06-19T11:49:56.000Z</time>
        <extensions>
          <ns3:TrackPointExtension>
            <ns3:atemp>16.0</ns3:atemp>
          </ns3:TrackPointExtension>
        </extensions>
      </trkpt>
      <trkpt lat="42.5568437017500400543212890625" lon="20.0680021941661834716796875">
        <ele>2155.60009765625</ele>
        <time>2026-06-19T11:49:57.000Z</time>
        <extensions>
          <ns3:TrackPointExtension>
            <ns3:atemp>16.0</ns3:atemp>
          </ns3:TrackPointExtension>
        </extensions>
      </trkpt>
      <trkpt lat="42.55681210197508335113525390625" lon="20.06806011311709880828857421875">
        <ele>2155.199951171875</ele>
        <time>2026-06-19T11:49:58.000Z</time>
        <extensions>
          <ns3:TrackPointExtension>
            <ns3:atemp>16.0</ns3:atemp>
          </ns3:TrackPointExtension>
        </extensions>
      </trkpt>
      <trkpt lat="42.55677916109561920166015625" lon="20.06811618804931640625">
        <ele>2155</ele>
        <time>2026-06-19T11:49:59.000Z</time>
        <extensions>
          <ns3:TrackPointExtension>
            <ns3:atemp>16.0</ns3:atemp>
          </ns3:TrackPointExtension>
        </extensions>
      </trkpt>
      <trkpt lat="42.5567518360912799835205078125" lon="20.06817729212343692779541015625">
        <ele>2154.800048828125</ele>
        <time>2026-06-19T11:50:00.000Z</time>
        <extensions>
          <ns3:TrackPointExtension>
            <ns3:atemp>16.0</ns3:atemp>
          </ns3:TrackPointExtension>
        </extensions>
      </trkpt>
      <trkpt lat="42.55672979168593883514404296875" lon="20.06824384443461894989013671875">
        <ele>2154.800048828125</ele>
        <time>2026-06-19T11:50:01.000Z</time>
        <extensions>
          <ns3:TrackPointExtension>
            <ns3:atemp>16.0</ns3:atemp>
          </ns3:TrackPointExtension>
        </extensions>
      </trkpt>
      <trkpt lat="42.55671403370797634124755859375" lon="20.0683148391544818878173828125">
        <ele>2154.60009765625</ele>
        <time>2026-06-19T11:50:02.000Z</time>
        <extensions>
          <ns3:TrackPointExtension>
            <ns3:atemp>16.0</ns3:atemp>
          </ns3:TrackPointExtension>
        </extensions>
      </trkpt>
      <trkpt lat="42.5567002035677433013916015625" lon="20.06837544031441211700439453125">
        <ele>2154.60009765625</ele>
        <time>2026-06-19T11:50:03.000Z</time>
        <extensions>
          <ns3:TrackPointExtension>
            <ns3:atemp>16.0</ns3:atemp>
          </ns3:TrackPointExtension>
        </extensions>
      </trkpt>
      <trkpt lat="42.55669408477842807769775390625" lon="20.068430341780185699462890625">
        <ele>2154.39990234375</ele>
        <time>2026-06-19T11:50:04.000Z</time>
        <extensions>
          <ns3:TrackPointExtension>
            <ns3:atemp>16.0</ns3:atemp>
          </ns3:TrackPointExtension>
        </extensions>
      </trkpt>
      <trkpt lat="42.55668788217008113861083984375" lon="20.068479962646961212158203125">
        <ele>2154.39990234375</ele>
        <time>2026-06-19T11:50:05.000Z</time>
        <extensions>
          <ns3:TrackPointExtension>
            <ns3:atemp>16.0</ns3:atemp>
          </ns3:TrackPointExtension>
        </extensions>
      </trkpt>
      <trkpt lat="42.55669123493134975433349609375" lon="20.0685344450175762176513671875">
        <ele>2154.199951171875</ele>
        <time>2026-06-19T11:50:06.000Z</time>
        <extensions>
          <ns3:TrackPointExtension>
            <ns3:atemp>16.0</ns3:atemp>
          </ns3:TrackPointExtension>
        </extensions>
      </trkpt>
      <trkpt lat="42.5566934980452060699462890625" lon="20.0685870833694934844970703125">
        <ele>2154.199951171875</ele>
        <time>2026-06-19T11:50:07.000Z</time>
        <extensions>
          <ns3:TrackPointExtension>
            <ns3:atemp>16.0</ns3:atemp>
          </ns3:TrackPointExtension>
        </extensions>
      </trkpt>
      <trkpt lat="42.55669358186423778533935546875" lon="20.0686377100646495819091796875">
        <ele>2154.199951171875</ele>
        <time>2026-06-19T11:50:08.000Z</time>
        <extensions>
          <ns3:TrackPointExtension>
            <ns3:atemp>16.0</ns3:atemp>
          </ns3:TrackPointExtension>
        </extensions>
      </trkpt>
      <trkpt lat="42.55669157020747661590576171875" lon="20.0686926953494548797607421875">
        <ele>2154.199951171875</ele>
        <time>2026-06-19T11:50:09.000Z</time>
        <extensions>
          <ns3:TrackPointExtension>
            <ns3:atemp>16.0</ns3:atemp>
          </ns3:TrackPointExtension>
        </extensions>
      </trkpt>
      <trkpt lat="42.55668930709362030029296875" lon="20.06875564344227313995361328125">
        <ele>2154.39990234375</ele>
        <time>2026-06-19T11:50:10.000Z</time>
        <extensions>
          <ns3:TrackPointExtension>
            <ns3:atemp>16.0</ns3:atemp>
          </ns3:TrackPointExtension>
        </extensions>
      </trkpt>
      <trkpt lat="42.55668654106557369232177734375" lon="20.06880325265228748321533203125">
        <ele>2154.39990234375</ele>
        <time>2026-06-19T11:50:11.000Z</time>
        <extensions>
          <ns3:TrackPointExtension>
            <ns3:atemp>16.0</ns3:atemp>
          </ns3:TrackPointExtension>
        </extensions>
      </trkpt>
      <trkpt lat="42.55668662488460540771484375" lon="20.06884147413074970245361328125">
        <ele>2154.39990234375</ele>
        <time>2026-06-19T11:50:12.000Z</time>
        <extensions>
          <ns3:TrackPointExtension>
            <ns3:atemp>16.0</ns3:atemp>
          </ns3:TrackPointExtension>
        </extensions>
      </trkpt>
      <trkpt lat="42.5566837750375270843505859375" lon="20.06887131370604038238525390625">
        <ele>2154.60009765625</ele>
        <time>2026-06-19T11:50:13.000Z</time>
        <extensions>
          <ns3:TrackPointExtension>
            <ns3:atemp>16.0</ns3:atemp>
          </ns3:TrackPointExtension>
        </extensions>
      </trkpt>
      <trkpt lat="42.55667991936206817626953125" lon="20.0689062662422657012939453125">
        <ele>2154.60009765625</ele>
        <time>2026-06-19T11:50:14.000Z</time>
        <extensions>
          <ns3:TrackPointExtension>
            <ns3:atemp>16.0</ns3:atemp>
          </ns3:TrackPointExtension>
        </extensions>
      </trkpt>
      <trkpt lat="42.55667966790497303009033203125" lon="20.06893090903759002685546875">
        <ele>2154.60009765625</ele>
        <time>2026-06-19T11:50:15.000Z</time>
        <extensions>
          <ns3:TrackPointExtension>
            <ns3:atemp>16.0</ns3:atemp>
          </ns3:TrackPointExtension>
        </extensions>
      </trkpt>
      <trkpt lat="42.5566777400672435760498046875" lon="20.0689558871090412139892578125">
        <ele>2154.800048828125</ele>
        <time>2026-06-19T11:50:16.000Z</time>
        <extensions>
          <ns3:TrackPointExtension>
            <ns3:atemp>16.0</ns3:atemp>
          </ns3:TrackPointExtension>
        </extensions>
      </trkpt>
      <trkpt lat="42.556674219667911529541015625" lon="20.06897944025695323944091796875">
        <ele>2154.800048828125</ele>
        <time>2026-06-19T11:50:17.000Z</time>
        <extensions>
          <ns3:TrackPointExtension>
            <ns3:atemp>16.0</ns3:atemp>
          </ns3:TrackPointExtension>
        </extensions>
      </trkpt>
      <trkpt lat="42.5566720403730869293212890625" lon="20.06900324486196041107177734375">
        <ele>2155</ele>
        <time>2026-06-19T11:50:18.000Z</time>
        <extensions>
          <ns3:TrackPointExtension>
            <ns3:atemp>16.0</ns3:atemp>
          </ns3:TrackPointExtension>
        </extensions>
      </trkpt>
      <trkpt lat="42.55667296238243579864501953125" lon="20.0690195895731449127197265625">
        <ele>2155</ele>
        <time>2026-06-19T11:50:19.000Z</time>
        <extensions>
          <ns3:TrackPointExtension>
            <ns3:atemp>16.0</ns3:atemp>
          </ns3:TrackPointExtension>
        </extensions>
      </trkpt>
      <trkpt lat="42.5566730462014675140380859375" lon="20.06903551518917083740234375">
        <ele>2155.199951171875</ele>
        <time>2026-06-19T11:50:20.000Z</time>
        <extensions>
          <ns3:TrackPointExtension>
            <ns3:atemp>16.0</ns3:atemp>
          </ns3:TrackPointExtension>
        </extensions>
      </trkpt>
      <trkpt lat="42.55667313002049922943115234375" lon="20.06905001588165760040283203125">
        <ele>2155.199951171875</ele>
        <time>2026-06-19T11:50:21.000Z</time>
        <extensions>
          <ns3:TrackPointExtension>
            <ns3:atemp>16.0</ns3:atemp>
          </ns3:TrackPointExtension>
        </extensions>
      </trkpt>
      <trkpt lat="42.55667078308761119842529296875" lon="20.0690480880439281463623046875">
        <ele>2155.199951171875</ele>
        <time>2026-06-19T11:50:22.000Z</time>
        <extensions>
          <ns3:TrackPointExtension>
            <ns3:atemp>16.0</ns3:atemp>
          </ns3:TrackPointExtension>
        </extensions>
      </trkpt>
      <trkpt lat="42.55667078308761119842529296875" lon="20.06904800422489643096923828125">
        <ele>2155.199951171875</ele>
        <time>2026-06-19T11:50:23.000Z</time>
        <extensions>
          <ns3:TrackPointExtension>
            <ns3:atemp>16.0</ns3:atemp>
          </ns3:TrackPointExtension>
        </extensions>
      </trkpt>
      <trkpt lat="42.55667078308761119842529296875" lon="20.06904800422489643096923828125">
        <ele>2155.199951171875</ele>
        <time>2026-06-19T11:50:24.000Z</time>
        <extensions>
          <ns3:TrackPointExtension>
            <ns3:atemp>16.0</ns3:atemp>
          </ns3:TrackPointExtension>
        </extensions>
      </trkpt>
      <trkpt lat="42.55667078308761119842529296875" lon="20.06904800422489643096923828125">
        <ele>2155.199951171875</ele>
        <time>2026-06-19T11:50:25.000Z</time>
        <extensions>
          <ns3:TrackPointExtension>
            <ns3:atemp>16.0</ns3:atemp>
          </ns3:TrackPointExtension>
        </extensions>
      </trkpt>
      <trkpt lat="42.55667078308761119842529296875" lon="20.06904800422489643096923828125">
        <ele>2155.199951171875</ele>
        <time>2026-06-19T11:50:26.000Z</time>
        <extensions>
          <ns3:TrackPointExtension>
            <ns3:atemp>16.0</ns3:atemp>
          </ns3:TrackPointExtension>
        </extensions>
      </trkpt>
      <trkpt lat="42.55667078308761119842529296875" lon="20.06904800422489643096923828125">
        <ele>2155.199951171875</ele>
        <time>2026-06-19T11:50:27.000Z</time>
        <extensions>
          <ns3:TrackPointExtension>
            <ns3:atemp>16.0</ns3:atemp>
          </ns3:TrackPointExtension>
        </extensions>
      </trkpt>
      <trkpt lat="42.55667078308761119842529296875" lon="20.06904800422489643096923828125">
        <ele>2155.199951171875</ele>
        <time>2026-06-19T11:50:28.000Z</time>
        <extensions>
          <ns3:TrackPointExtension>
            <ns3:atemp>16.0</ns3:atemp>
          </ns3:TrackPointExtension>
        </extensions>
      </trkpt>
      <trkpt lat="42.55667078308761119842529296875" lon="20.06904800422489643096923828125">
        <ele>2155.199951171875</ele>
        <time>2026-06-19T11:50:29.000Z</time>
        <extensions>
          <ns3:TrackPointExtension>
            <ns3:atemp>16.0</ns3:atemp>
          </ns3:TrackPointExtension>
        </extensions>
      </trkpt>
      <trkpt lat="42.55667078308761119842529296875" lon="20.06904800422489643096923828125">
        <ele>2155.199951171875</ele>
        <time>2026-06-19T11:50:30.000Z</time>
        <extensions>
          <ns3:TrackPointExtension>
            <ns3:atemp>16.0</ns3:atemp>
          </ns3:TrackPointExtension>
        </extensions>
      </trkpt>
      <trkpt lat="42.55667078308761119842529296875" lon="20.06904800422489643096923828125">
        <ele>2155.199951171875</ele>
        <time>2026-06-19T11:50:31.000Z</time>
        <extensions>
          <ns3:TrackPointExtension>
            <ns3:atemp>16.0</ns3:atemp>
          </ns3:TrackPointExtension>
        </extensions>
      </trkpt>
      <trkpt lat="42.55667078308761119842529296875" lon="20.06904800422489643096923828125">
        <ele>2155.199951171875</ele>
        <time>2026-06-19T11:50:32.000Z</time>
        <extensions>
          <ns3:TrackPointExtension>
            <ns3:atemp>16.0</ns3:atemp>
          </ns3:TrackPointExtension>
        </extensions>
      </trkpt>
      <trkpt lat="42.55667078308761119842529296875" lon="20.06904800422489643096923828125">
        <ele>2155.199951171875</ele>
        <time>2026-06-19T11:50:33.000Z</time>
        <extensions>
          <ns3:TrackPointExtension>
            <ns3:atemp>16.0</ns3:atemp>
          </ns3:TrackPointExtension>
        </extensions>
      </trkpt>
      <trkpt lat="42.55667078308761119842529296875" lon="20.06904800422489643096923828125">
        <ele>2155.199951171875</ele>
        <time>2026-06-19T11:50:34.000Z</time>
        <extensions>
          <ns3:TrackPointExtension>
            <ns3:atemp>16.0</ns3:atemp>
          </ns3:TrackPointExtension>
        </extensions>
      </trkpt>
      <trkpt lat="42.55667078308761119842529296875" lon="20.06904800422489643096923828125">
        <ele>2155.199951171875</ele>
        <time>2026-06-19T11:50:35.000Z</time>
        <extensions>
          <ns3:TrackPointExtension>
            <ns3:atemp>16.0</ns3:atemp>
          </ns3:TrackPointExtension>
        </extensions>
      </trkpt>
      <trkpt lat="42.55667078308761119842529296875" lon="20.06904800422489643096923828125">
        <ele>2155.199951171875</ele>
        <time>2026-06-19T11:50:36.000Z</time>
        <extensions>
          <ns3:TrackPointExtension>
            <ns3:atemp>16.0</ns3:atemp>
          </ns3:TrackPointExtension>
        </extensions>
      </trkpt>
      <trkpt lat="42.55667078308761119842529296875" lon="20.06904800422489643096923828125">
        <ele>2155.199951171875</ele>
        <time>2026-06-19T11:50:37.000Z</time>
        <extensions>
          <ns3:TrackPointExtension>
            <ns3:atemp>16.0</ns3:atemp>
          </ns3:TrackPointExtension>
        </extensions>
      </trkpt>
      <trkpt lat="42.55667078308761119842529296875" lon="20.06904800422489643096923828125">
        <ele>2155.199951171875</ele>
        <time>2026-06-19T11:50:38.000Z</time>
        <extensions>
          <ns3:TrackPointExtension>
            <ns3:atemp>16.0</ns3:atemp>
          </ns3:TrackPointExtension>
        </extensions>
      </trkpt>
      <trkpt lat="42.55667078308761119842529296875" lon="20.06904800422489643096923828125">
        <ele>2155.199951171875</ele>
        <time>2026-06-19T11:50:39.000Z</time>
        <extensions>
          <ns3:TrackPointExtension>
            <ns3:atemp>16.0</ns3:atemp>
          </ns3:TrackPointExtension>
        </extensions>
      </trkpt>
      <trkpt lat="42.55667078308761119842529296875" lon="20.06904800422489643096923828125">
        <ele>2155.199951171875</ele>
        <time>2026-06-19T11:50:40.000Z</time>
        <extensions>
          <ns3:TrackPointExtension>
            <ns3:atemp>16.0</ns3:atemp>
          </ns3:TrackPointExtension>
        </extensions>
      </trkpt>
      <trkpt lat="42.55667078308761119842529296875" lon="20.06904800422489643096923828125">
        <ele>2155.199951171875</ele>
        <time>2026-06-19T11:50:41.000Z</time>
        <extensions>
          <ns3:TrackPointExtension>
            <ns3:atemp>16.0</ns3:atemp>
          </ns3:TrackPointExtension>
        </extensions>
      </trkpt>
      <trkpt lat="42.55667078308761119842529296875" lon="20.06904800422489643096923828125">
        <ele>2155.199951171875</ele>
        <time>2026-06-19T11:50:42.000Z</time>
        <extensions>
          <ns3:TrackPointExtension>
            <ns3:atemp>16.0</ns3:atemp>
          </ns3:TrackPointExtension>
        </extensions>
      </trkpt>
      <trkpt lat="42.55667413584887981414794921875" lon="20.069049261510372161865234375">
        <ele>2155.199951171875</ele>
        <time>2026-06-19T11:50:43.000Z</time>
        <extensions>
          <ns3:TrackPointExtension>
            <ns3:atemp>16.0</ns3:atemp>
          </ns3:TrackPointExtension>
        </extensions>
      </trkpt>
      <trkpt lat="42.55667849443852901458740234375" lon="20.06907750852406024932861328125">
        <ele>2155.199951171875</ele>
        <time>2026-06-19T11:50:44.000Z</time>
        <extensions>
          <ns3:TrackPointExtension>
            <ns3:atemp>16.0</ns3:atemp>
          </ns3:TrackPointExtension>
        </extensions>
      </trkpt>
      <trkpt lat="42.5566760636866092681884765625" lon="20.06911061704158782958984375">
        <ele>2155</ele>
        <time>2026-06-19T11:50:45.000Z</time>
        <extensions>
          <ns3:TrackPointExtension>
            <ns3:atemp>16.0</ns3:atemp>
          </ns3:TrackPointExtension>
        </extensions>
      </trkpt>
      <trkpt lat="42.5566740520298480987548828125" lon="20.06915093399584293365478515625">
        <ele>2155</ele>
        <time>2026-06-19T11:50:46.000Z</time>
        <extensions>
          <ns3:TrackPointExtension>
            <ns3:atemp>16.0</ns3:atemp>
          </ns3:TrackPointExtension>
        </extensions>
      </trkpt>
      <trkpt lat="42.5566698610782623291015625" lon="20.06918244995176792144775390625">
        <ele>2154.800048828125</ele>
        <time>2026-06-19T11:50:47.000Z</time>
        <extensions>
          <ns3:TrackPointExtension>
            <ns3:atemp>16.0</ns3:atemp>
          </ns3:TrackPointExtension>
        </extensions>
      </trkpt>
      <trkpt lat="42.55666374228894710540771484375" lon="20.0692011415958404541015625">
        <ele>2154.800048828125</ele>
        <time>2026-06-19T11:50:48.000Z</time>
        <extensions>
          <ns3:TrackPointExtension>
            <ns3:atemp>16.0</ns3:atemp>
          </ns3:TrackPointExtension>
        </extensions>
      </trkpt>
      <trkpt lat="42.55665653385221958160400390625" lon="20.06921983323991298675537109375">
        <ele>2154.800048828125</ele>
        <time>2026-06-19T11:50:49.000Z</time>
        <extensions>
          <ns3:TrackPointExtension>
            <ns3:atemp>16.0</ns3:atemp>
          </ns3:TrackPointExtension>
        </extensions>
      </trkpt>
      <trkpt lat="42.55665133707225322723388671875" lon="20.06924531422555446624755859375">
        <ele>2154.800048828125</ele>
        <time>2026-06-19T11:50:50.000Z</time>
        <extensions>
          <ns3:TrackPointExtension>
            <ns3:atemp>16.0</ns3:atemp>
          </ns3:TrackPointExtension>
        </extensions>
      </trkpt>
      <trkpt lat="42.55664764903485774993896484375" lon="20.0692670233547687530517578125">
        <ele>2154.800048828125</ele>
        <time>2026-06-19T11:50:51.000Z</time>
        <extensions>
          <ns3:TrackPointExtension>
            <ns3:atemp>16.0</ns3:atemp>
          </ns3:TrackPointExtension>
        </extensions>
      </trkpt>
      <trkpt lat="42.55664630793035030364990234375" lon="20.06928688846528530120849609375">
        <ele>2155</ele>
        <time>2026-06-19T11:50:52.000Z</time>
        <extensions>
          <ns3:TrackPointExtension>
            <ns3:atemp>16.0</ns3:atemp>
          </ns3:TrackPointExtension>
        </extensions>
      </trkpt>
      <trkpt lat="42.5566438771784305572509765625" lon="20.06930834613740444183349609375">
        <ele>2155</ele>
        <time>2026-06-19T11:50:53.000Z</time>
        <extensions>
          <ns3:TrackPointExtension>
            <ns3:atemp>16.0</ns3:atemp>
          </ns3:TrackPointExtension>
        </extensions>
      </trkpt>
      <trkpt lat="42.55664102733135223388671875" lon="20.06932477466762065887451171875">
        <ele>2155.199951171875</ele>
        <time>2026-06-19T11:50:54.000Z</time>
        <extensions>
          <ns3:TrackPointExtension>
            <ns3:atemp>16.0</ns3:atemp>
          </ns3:TrackPointExtension>
        </extensions>
      </trkpt>
      <trkpt lat="42.5566401891410350799560546875" lon="20.06934740580618381500244140625">
        <ele>2155.199951171875</ele>
        <time>2026-06-19T11:50:55.000Z</time>
        <extensions>
          <ns3:TrackPointExtension>
            <ns3:atemp>16.0</ns3:atemp>
          </ns3:TrackPointExtension>
        </extensions>
      </trkpt>
      <trkpt lat="42.556636668741703033447265625" lon="20.0693800114095211029052734375">
        <ele>2155.39990234375</ele>
        <time>2026-06-19T11:50:56.000Z</time>
        <extensions>
          <ns3:TrackPointExtension>
            <ns3:atemp>16.0</ns3:atemp>
          </ns3:TrackPointExtension>
        </extensions>
      </trkpt>
      <trkpt lat="42.5566301308572292327880859375" lon="20.06941462866961956024169921875">
        <ele>2155.60009765625</ele>
        <time>2026-06-19T11:50:57.000Z</time>
        <extensions>
          <ns3:TrackPointExtension>
            <ns3:atemp>16.0</ns3:atemp>
          </ns3:TrackPointExtension>
        </extensions>
      </trkpt>
      <trkpt lat="42.55662015639245510101318359375" lon="20.06944983266294002532958984375">
        <ele>2155.800048828125</ele>
        <time>2026-06-19T11:50:58.000Z</time>
        <extensions>
          <ns3:TrackPointExtension>
            <ns3:atemp>16.0</ns3:atemp>
          </ns3:TrackPointExtension>
        </extensions>
      </trkpt>
      <trkpt lat="42.55661210976541042327880859375" lon="20.0694916583597660064697265625">
        <ele>2155.800048828125</ele>
        <time>2026-06-19T11:50:59.000Z</time>
        <extensions>
          <ns3:TrackPointExtension>
            <ns3:atemp>16.0</ns3:atemp>
          </ns3:TrackPointExtension>
        </extensions>
      </trkpt>
      <trkpt lat="42.55660624243319034576416015625" lon="20.06952661089599132537841796875">
        <ele>2156</ele>
        <time>2026-06-19T11:51:00.000Z</time>
        <extensions>
          <ns3:TrackPointExtension>
            <ns3:atemp>16.0</ns3:atemp>
          </ns3:TrackPointExtension>
        </extensions>
      </trkpt>
      <trkpt lat="42.5566056556999683380126953125" lon="20.06955393590033054351806640625">
        <ele>2156.199951171875</ele>
        <time>2026-06-19T11:51:01.000Z</time>
        <extensions>
          <ns3:TrackPointExtension>
            <ns3:atemp>16.0</ns3:atemp>
          </ns3:TrackPointExtension>
        </extensions>
      </trkpt>
      <trkpt lat="42.55659936927258968353271484375" lon="20.06956986151635646820068359375">
        <ele>2156.39990234375</ele>
        <time>2026-06-19T11:51:02.000Z</time>
        <extensions>
          <ns3:TrackPointExtension>
            <ns3:atemp>16.0</ns3:atemp>
          </ns3:TrackPointExtension>
        </extensions>
      </trkpt>
      <trkpt lat="42.55659677088260650634765625" lon="20.06959282793104648590087890625">
        <ele>2156.60009765625</ele>
        <time>2026-06-19T11:51:03.000Z</time>
        <extensions>
          <ns3:TrackPointExtension>
            <ns3:atemp>16.0</ns3:atemp>
          </ns3:TrackPointExtension>
        </extensions>
      </trkpt>
      <trkpt lat="42.5565955974161624908447265625" lon="20.0696193985641002655029296875">
        <ele>2157</ele>
        <time>2026-06-19T11:51:04.000Z</time>
        <extensions>
          <ns3:TrackPointExtension>
            <ns3:atemp>16.0</ns3:atemp>
          </ns3:TrackPointExtension>
        </extensions>
      </trkpt>
      <trkpt lat="42.5565947592258453369140625" lon="20.06965166889131069183349609375">
        <ele>2157.199951171875</ele>
        <time>2026-06-19T11:51:05.000Z</time>
        <extensions>
          <ns3:TrackPointExtension>
            <ns3:atemp>16.0</ns3:atemp>
          </ns3:TrackPointExtension>
        </extensions>
      </trkpt>
      <trkpt lat="42.55659316666424274444580078125" lon="20.06968301720917224884033203125">
        <ele>2157.39990234375</ele>
        <time>2026-06-19T11:51:06.000Z</time>
        <extensions>
          <ns3:TrackPointExtension>
            <ns3:atemp>16.0</ns3:atemp>
          </ns3:TrackPointExtension>
        </extensions>
      </trkpt>
      <trkpt lat="42.55659249611198902130126953125" lon="20.06971000693738460540771484375">
        <ele>2157.60009765625</ele>
        <time>2026-06-19T11:51:07.000Z</time>
        <extensions>
          <ns3:TrackPointExtension>
            <ns3:atemp>16.0</ns3:atemp>
          </ns3:TrackPointExtension>
        </extensions>
      </trkpt>
      <trkpt lat="42.55658847279846668243408203125" lon="20.06973548792302608489990234375">
        <ele>2157.800048828125</ele>
        <time>2026-06-19T11:51:08.000Z</time>
        <extensions>
          <ns3:TrackPointExtension>
            <ns3:atemp>16.0</ns3:atemp>
          </ns3:TrackPointExtension>
        </extensions>
      </trkpt>
      <trkpt lat="42.55658377893269062042236328125" lon="20.069760046899318695068359375">
        <ele>2158.199951171875</ele>
        <time>2026-06-19T11:51:09.000Z</time>
        <extensions>
          <ns3:TrackPointExtension>
            <ns3:atemp>16.0</ns3:atemp>
          </ns3:TrackPointExtension>
        </extensions>
      </trkpt>
      <trkpt lat="42.55657891742885112762451171875" lon="20.06978779099881649017333984375">
        <ele>2158.39990234375</ele>
        <time>2026-06-19T11:51:10.000Z</time>
        <extensions>
          <ns3:TrackPointExtension>
            <ns3:atemp>16.0</ns3:atemp>
          </ns3:TrackPointExtension>
        </extensions>
      </trkpt>
      <trkpt lat="42.5565724633634090423583984375" lon="20.06981729529798030853271484375">
        <ele>2158.60009765625</ele>
        <time>2026-06-19T11:51:11.000Z</time>
        <extensions>
          <ns3:TrackPointExtension>
            <ns3:atemp>16.0</ns3:atemp>
          </ns3:TrackPointExtension>
        </extensions>
      </trkpt>
      <trkpt lat="42.55656600929796695709228515625" lon="20.06984814070165157318115234375">
        <ele>2158.800048828125</ele>
        <time>2026-06-19T11:51:12.000Z</time>
        <extensions>
          <ns3:TrackPointExtension>
            <ns3:atemp>16.0</ns3:atemp>
          </ns3:TrackPointExtension>
        </extensions>
      </trkpt>
      <trkpt lat="42.5565597228705883026123046875" lon="20.069884099066257476806640625">
        <ele>2159</ele>
        <time>2026-06-19T11:51:13.000Z</time>
        <extensions>
          <ns3:TrackPointExtension>
            <ns3:atemp>16.0</ns3:atemp>
          </ns3:TrackPointExtension>
        </extensions>
      </trkpt>
      <trkpt lat="42.5565572082996368408203125" lon="20.069915950298309326171875">
        <ele>2159.199951171875</ele>
        <time>2026-06-19T11:51:14.000Z</time>
        <extensions>
          <ns3:TrackPointExtension>
            <ns3:atemp>16.0</ns3:atemp>
          </ns3:TrackPointExtension>
        </extensions>
      </trkpt>
      <trkpt lat="42.556552179157733917236328125" lon="20.069942437112331390380859375">
        <ele>2159.39990234375</ele>
        <time>2026-06-19T11:51:15.000Z</time>
        <extensions>
          <ns3:TrackPointExtension>
            <ns3:atemp>16.0</ns3:atemp>
          </ns3:TrackPointExtension>
        </extensions>
      </trkpt>
      <trkpt lat="42.5565439648926258087158203125" lon="20.069969929754734039306640625">
        <ele>2159.60009765625</ele>
        <time>2026-06-19T11:51:16.000Z</time>
        <extensions>
          <ns3:TrackPointExtension>
            <ns3:atemp>16.0</ns3:atemp>
          </ns3:TrackPointExtension>
        </extensions>
      </trkpt>
      <trkpt lat="42.55653508007526397705078125" lon="20.06999784149229526519775390625">
        <ele>2159.800048828125</ele>
        <time>2026-06-19T11:51:17.000Z</time>
        <extensions>
          <ns3:TrackPointExtension>
            <ns3:atemp>16.0</ns3:atemp>
          </ns3:TrackPointExtension>
        </extensions>
      </trkpt>
      <trkpt lat="42.55652594380080699920654296875" lon="20.0700314529240131378173828125">
        <ele>2160</ele>
        <time>2026-06-19T11:51:18.000Z</time>
        <extensions>
          <ns3:TrackPointExtension>
            <ns3:atemp>16.0</ns3:atemp>
          </ns3:TrackPointExtension>
        </extensions>
      </trkpt>
      <trkpt lat="42.55651370622217655181884765625" lon="20.0700690038502216339111328125">
        <ele>2160.199951171875</ele>
        <time>2026-06-19T11:51:19.000Z</time>
        <extensions>
          <ns3:TrackPointExtension>
            <ns3:atemp>16.0</ns3:atemp>
          </ns3:TrackPointExtension>
        </extensions>
      </trkpt>
      <trkpt lat="42.55650247447192668914794921875" lon="20.07010999135673046112060546875">
        <ele>2160.199951171875</ele>
        <time>2026-06-19T11:51:20.000Z</time>
        <extensions>
          <ns3:TrackPointExtension>
            <ns3:atemp>16.0</ns3:atemp>
          </ns3:TrackPointExtension>
        </extensions>
      </trkpt>
      <trkpt lat="42.556494511663913726806640625" lon="20.07014955393970012664794921875">
        <ele>2160.199951171875</ele>
        <time>2026-06-19T11:51:21.000Z</time>
        <extensions>
          <ns3:TrackPointExtension>
            <ns3:atemp>16.0</ns3:atemp>
          </ns3:TrackPointExtension>
        </extensions>
      </trkpt>
      <trkpt lat="42.5564906559884548187255859375" lon="20.07018408738076686859130859375">
        <ele>2160.199951171875</ele>
        <time>2026-06-19T11:51:22.000Z</time>
        <extensions>
          <ns3:TrackPointExtension>
            <ns3:atemp>16.0</ns3:atemp>
          </ns3:TrackPointExtension>
        </extensions>
      </trkpt>
      <trkpt lat="42.55648680031299591064453125" lon="20.07020437158644199371337890625">
        <ele>2160.199951171875</ele>
        <time>2026-06-19T11:51:23.000Z</time>
        <extensions>
          <ns3:TrackPointExtension>
            <ns3:atemp>16.0</ns3:atemp>
          </ns3:TrackPointExtension>
        </extensions>
      </trkpt>
      <trkpt lat="42.55648353137075901031494140625" lon="20.07022532634437084197998046875">
        <ele>2160.199951171875</ele>
        <time>2026-06-19T11:51:24.000Z</time>
        <extensions>
          <ns3:TrackPointExtension>
            <ns3:atemp>16.0</ns3:atemp>
          </ns3:TrackPointExtension>
        </extensions>
      </trkpt>
      <trkpt lat="42.55648638121783733367919921875" lon="20.07024493999779224395751953125">
        <ele>2160.39990234375</ele>
        <time>2026-06-19T11:51:25.000Z</time>
        <extensions>
          <ns3:TrackPointExtension>
            <ns3:atemp>16.0</ns3:atemp>
          </ns3:TrackPointExtension>
        </extensions>
      </trkpt>
      <trkpt lat="42.55648009479045867919921875" lon="20.07026069797575473785400390625">
        <ele>2160.39990234375</ele>
        <time>2026-06-19T11:51:26.000Z</time>
        <extensions>
          <ns3:TrackPointExtension>
            <ns3:atemp>16.0</ns3:atemp>
          </ns3:TrackPointExtension>
        </extensions>
      </trkpt>
      <trkpt lat="42.55647204816341400146484375" lon="20.070279054343700408935546875">
        <ele>2160.60009765625</ele>
        <time>2026-06-19T11:51:27.000Z</time>
        <extensions>
          <ns3:TrackPointExtension>
            <ns3:atemp>16.0</ns3:atemp>
          </ns3:TrackPointExtension>
        </extensions>
      </trkpt>
      <trkpt lat="42.5564606487751007080078125" lon="20.07030126638710498809814453125">
        <ele>2160.60009765625</ele>
        <time>2026-06-19T11:51:28.000Z</time>
        <extensions>
          <ns3:TrackPointExtension>
            <ns3:atemp>16.0</ns3:atemp>
          </ns3:TrackPointExtension>
        </extensions>
      </trkpt>
      <trkpt lat="42.55643877200782299041748046875" lon="20.07032289169728755950927734375">
        <ele>2160.60009765625</ele>
        <time>2026-06-19T11:51:29.000Z</time>
        <extensions>
          <ns3:TrackPointExtension>
            <ns3:atemp>16.0</ns3:atemp>
          </ns3:TrackPointExtension>
        </extensions>
      </trkpt>
      <trkpt lat="42.55641295574605464935302734375" lon="20.070352815091609954833984375">
        <ele>2160.39990234375</ele>
        <time>2026-06-19T11:51:30.000Z</time>
        <extensions>
          <ns3:TrackPointExtension>
            <ns3:atemp>16.0</ns3:atemp>
          </ns3:TrackPointExtension>
        </extensions>
      </trkpt>
      <trkpt lat="42.5563873909413814544677734375" lon="20.0703888572752475738525390625">
        <ele>2160</ele>
        <time>2026-06-19T11:51:31.000Z</time>
        <extensions>
          <ns3:TrackPointExtension>
            <ns3:atemp>16.0</ns3:atemp>
          </ns3:TrackPointExtension>
        </extensions>
      </trkpt>
      <trkpt lat="42.5563572160899639129638671875" lon="20.07042179815471172332763671875">
        <ele>2159.800048828125</ele>
        <time>2026-06-19T11:51:32.000Z</time>
        <extensions>
          <ns3:TrackPointExtension>
            <ns3:atemp>16.0</ns3:atemp>
          </ns3:TrackPointExtension>
        </extensions>
      </trkpt>
      <trkpt lat="42.55633031018078327178955078125" lon="20.07045532576739788055419921875">
        <ele>2159.39990234375</ele>
        <time>2026-06-19T11:51:33.000Z</time>
        <extensions>
          <ns3:TrackPointExtension>
            <ns3:atemp>16.0</ns3:atemp>
          </ns3:TrackPointExtension>
        </extensions>
      </trkpt>
      <trkpt lat="42.556312121450901031494140625" lon="20.070494972169399261474609375">
        <ele>2159.199951171875</ele>
        <time>2026-06-19T11:51:34.000Z</time>
        <extensions>
          <ns3:TrackPointExtension>
            <ns3:atemp>16.0</ns3:atemp>
          </ns3:TrackPointExtension>
        </extensions>
      </trkpt>
      <trkpt lat="42.5562951900064945220947265625" lon="20.07054266519844532012939453125">
        <ele>2158.800048828125</ele>
        <time>2026-06-19T11:51:35.000Z</time>
        <extensions>
          <ns3:TrackPointExtension>
            <ns3:atemp>16.0</ns3:atemp>
          </ns3:TrackPointExtension>
        </extensions>
      </trkpt>
      <trkpt lat="42.5562811084091663360595703125" lon="20.0705883465707302093505859375">
        <ele>2158.60009765625</ele>
        <time>2026-06-19T11:51:36.000Z</time>
        <extensions>
          <ns3:TrackPointExtension>
            <ns3:atemp>16.0</ns3:atemp>
          </ns3:TrackPointExtension>
        </extensions>
      </trkpt>
      <trkpt lat="42.55627599544823169708251953125" lon="20.0706356205046176910400390625">
        <ele>2158.39990234375</ele>
        <time>2026-06-19T11:51:37.000Z</time>
        <extensions>
          <ns3:TrackPointExtension>
            <ns3:atemp>16.0</ns3:atemp>
          </ns3:TrackPointExtension>
        </extensions>
      </trkpt>
      <trkpt lat="42.55626074038445949554443359375" lon="20.0706771947443485260009765625">
        <ele>2158.199951171875</ele>
        <time>2026-06-19T11:51:38.000Z</time>
        <extensions>
          <ns3:TrackPointExtension>
            <ns3:atemp>16.0</ns3:atemp>
          </ns3:TrackPointExtension>
        </extensions>
      </trkpt>
      <trkpt lat="42.55624213255941867828369140625" lon="20.07071214728057384490966796875">
        <ele>2158</ele>
        <time>2026-06-19T11:51:39.000Z</time>
        <extensions>
          <ns3:TrackPointExtension>
            <ns3:atemp>16.0</ns3:atemp>
          </ns3:TrackPointExtension>
        </extensions>
      </trkpt>
      <trkpt lat="42.55622637458145618438720703125" lon="20.0707482732832431793212890625">
        <ele>2158</ele>
        <time>2026-06-19T11:51:40.000Z</time>
        <extensions>
          <ns3:TrackPointExtension>
            <ns3:atemp>16.0</ns3:atemp>
          </ns3:TrackPointExtension>
        </extensions>
      </trkpt>
      <trkpt lat="42.5562120415270328521728515625" lon="20.07078523747622966766357421875">
        <ele>2158</ele>
        <time>2026-06-19T11:51:41.000Z</time>
        <extensions>
          <ns3:TrackPointExtension>
            <ns3:atemp>16.0</ns3:atemp>
          </ns3:TrackPointExtension>
        </extensions>
      </trkpt>
      <trkpt lat="42.55620424635708332061767578125" lon="20.070819854736328125">
        <ele>2157.800048828125</ele>
        <time>2026-06-19T11:51:42.000Z</time>
        <extensions>
          <ns3:TrackPointExtension>
            <ns3:atemp>16.0</ns3:atemp>
          </ns3:TrackPointExtension>
        </extensions>
      </trkpt>
      <trkpt lat="42.55619117058813571929931640625" lon="20.07085531018674373626708984375">
        <ele>2157.60009765625</ele>
        <time>2026-06-19T11:51:43.000Z</time>
        <extensions>
          <ns3:TrackPointExtension>
            <ns3:atemp>16.0</ns3:atemp>
          </ns3:TrackPointExtension>
        </extensions>
      </trkpt>
      <trkpt lat="42.55617566406726837158203125" lon="20.07089068181812763214111328125">
        <ele>2157.60009765625</ele>
        <time>2026-06-19T11:51:44.000Z</time>
        <extensions>
          <ns3:TrackPointExtension>
            <ns3:atemp>16.0</ns3:atemp>
          </ns3:TrackPointExtension>
        </extensions>
      </trkpt>
      <trkpt lat="42.55616200156509876251220703125" lon="20.07092940621078014373779296875">
        <ele>2157.60009765625</ele>
        <time>2026-06-19T11:51:45.000Z</time>
        <extensions>
          <ns3:TrackPointExtension>
            <ns3:atemp>16.0</ns3:atemp>
          </ns3:TrackPointExtension>
        </extensions>
      </trkpt>
      <trkpt lat="42.5561530329287052154541015625" lon="20.0709698908030986785888671875">
        <ele>2157.60009765625</ele>
        <time>2026-06-19T11:51:46.000Z</time>
        <extensions>
          <ns3:TrackPointExtension>
            <ns3:atemp>16.0</ns3:atemp>
          </ns3:TrackPointExtension>
        </extensions>
      </trkpt>
      <trkpt lat="42.55614875815808773040771484375" lon="20.07101858966052532196044921875">
        <ele>2157.60009765625</ele>
        <time>2026-06-19T11:51:47.000Z</time>
        <extensions>
          <ns3:TrackPointExtension>
            <ns3:atemp>16.0</ns3:atemp>
          </ns3:TrackPointExtension>
        </extensions>
      </trkpt>
      <trkpt lat="42.556144483387470245361328125" lon="20.071063935756683349609375">
        <ele>2157.39990234375</ele>
        <time>2026-06-19T11:51:48.000Z</time>
        <extensions>
          <ns3:TrackPointExtension>
            <ns3:atemp>16.0</ns3:atemp>
          </ns3:TrackPointExtension>
        </extensions>
      </trkpt>
      <trkpt lat="42.55613819696009159088134765625" lon="20.07110693491995334625244140625">
        <ele>2157.39990234375</ele>
        <time>2026-06-19T11:51:49.000Z</time>
        <extensions>
          <ns3:TrackPointExtension>
            <ns3:atemp>16.0</ns3:atemp>
          </ns3:TrackPointExtension>
        </extensions>
      </trkpt>
      <trkpt lat="42.55613115616142749786376953125" lon="20.0711428932845592498779296875">
        <ele>2157.39990234375</ele>
        <time>2026-06-19T11:51:50.000Z</time>
        <extensions>
          <ns3:TrackPointExtension>
            <ns3:atemp>16.0</ns3:atemp>
          </ns3:TrackPointExtension>
        </extensions>
      </trkpt>
      <trkpt lat="42.55612109787762165069580078125" lon="20.07117533124983310699462890625">
        <ele>2157.39990234375</ele>
        <time>2026-06-19T11:51:51.000Z</time>
        <extensions>
          <ns3:TrackPointExtension>
            <ns3:atemp>16.0</ns3:atemp>
          </ns3:TrackPointExtension>
        </extensions>
      </trkpt>
      <trkpt lat="42.55611606873571872711181640625" lon="20.0712126307189464569091796875">
        <ele>2157.39990234375</ele>
        <time>2026-06-19T11:51:52.000Z</time>
        <extensions>
          <ns3:TrackPointExtension>
            <ns3:atemp>16.0</ns3:atemp>
          </ns3:TrackPointExtension>
        </extensions>
      </trkpt>
      <trkpt lat="42.5561077706515789031982421875" lon="20.07125236093997955322265625">
        <ele>2157.39990234375</ele>
        <time>2026-06-19T11:51:53.000Z</time>
        <extensions>
          <ns3:TrackPointExtension>
            <ns3:atemp>16.0</ns3:atemp>
          </ns3:TrackPointExtension>
        </extensions>
      </trkpt>
      <trkpt lat="42.55608622916042804718017578125" lon="20.07129183970391750335693359375">
        <ele>2157.39990234375</ele>
        <time>2026-06-19T11:51:54.000Z</time>
        <extensions>
          <ns3:TrackPointExtension>
            <ns3:atemp>16.0</ns3:atemp>
          </ns3:TrackPointExtension>
        </extensions>
      </trkpt>
      <trkpt lat="42.55607365630567073822021484375" lon="20.07133643142879009246826171875">
        <ele>2157.39990234375</ele>
        <time>2026-06-19T11:51:55.000Z</time>
        <extensions>
          <ns3:TrackPointExtension>
            <ns3:atemp>16.0</ns3:atemp>
          </ns3:TrackPointExtension>
        </extensions>
      </trkpt>
      <trkpt lat="42.55606703460216522216796875" lon="20.0713658519089221954345703125">
        <ele>2157.39990234375</ele>
        <time>2026-06-19T11:51:56.000Z</time>
        <extensions>
          <ns3:TrackPointExtension>
            <ns3:atemp>16.0</ns3:atemp>
          </ns3:TrackPointExtension>
        </extensions>
      </trkpt>
      <trkpt lat="42.55606225691735744476318359375" lon="20.07139091379940509796142578125">
        <ele>2157.60009765625</ele>
        <time>2026-06-19T11:51:57.000Z</time>
        <extensions>
          <ns3:TrackPointExtension>
            <ns3:atemp>16.0</ns3:atemp>
          </ns3:TrackPointExtension>
        </extensions>
      </trkpt>
      <trkpt lat="42.55605739541351795196533203125" lon="20.0714220106601715087890625">
        <ele>2157.60009765625</ele>
        <time>2026-06-19T11:51:58.000Z</time>
        <extensions>
          <ns3:TrackPointExtension>
            <ns3:atemp>16.0</ns3:atemp>
          </ns3:TrackPointExtension>
        </extensions>
      </trkpt>
      <trkpt lat="42.55605001933872699737548828125" lon="20.07146148942410945892333984375">
        <ele>2157.800048828125</ele>
        <time>2026-06-19T11:51:59.000Z</time>
        <extensions>
          <ns3:TrackPointExtension>
            <ns3:atemp>16.0</ns3:atemp>
          </ns3:TrackPointExtension>
        </extensions>
      </trkpt>
      <trkpt lat="42.55604733712971210479736328125" lon="20.07150624878704547882080078125">
        <ele>2157.800048828125</ele>
        <time>2026-06-19T11:52:00.000Z</time>
        <extensions>
          <ns3:TrackPointExtension>
            <ns3:atemp>16.0</ns3:atemp>
          </ns3:TrackPointExtension>
        </extensions>
      </trkpt>
      <trkpt lat="42.55604767240583896636962890625" lon="20.07155285216867923736572265625">
        <ele>2157.800048828125</ele>
        <time>2026-06-19T11:52:01.000Z</time>
        <extensions>
          <ns3:TrackPointExtension>
            <ns3:atemp>16.0</ns3:atemp>
          </ns3:TrackPointExtension>
        </extensions>
      </trkpt>
      <trkpt lat="42.55604649893939495086669921875" lon="20.07160180248320102691650390625">
        <ele>2157.800048828125</ele>
        <time>2026-06-19T11:52:02.000Z</time>
        <extensions>
          <ns3:TrackPointExtension>
            <ns3:atemp>16.0</ns3:atemp>
          </ns3:TrackPointExtension>
        </extensions>
      </trkpt>
      <trkpt lat="42.5560449063777923583984375" lon="20.07164907641708850860595703125">
        <ele>2157.800048828125</ele>
        <time>2026-06-19T11:52:03.000Z</time>
        <extensions>
          <ns3:TrackPointExtension>
            <ns3:atemp>16.0</ns3:atemp>
          </ns3:TrackPointExtension>
        </extensions>
      </trkpt>
      <trkpt lat="42.55604364909231662750244140625" lon="20.0716974399983882904052734375">
        <ele>2157.800048828125</ele>
        <time>2026-06-19T11:52:04.000Z</time>
        <extensions>
          <ns3:TrackPointExtension>
            <ns3:atemp>16.0</ns3:atemp>
          </ns3:TrackPointExtension>
        </extensions>
      </trkpt>
      <trkpt lat="42.55604465492069721221923828125" lon="20.07174798287451267242431640625">
        <ele>2157.800048828125</ele>
        <time>2026-06-19T11:52:05.000Z</time>
        <extensions>
          <ns3:TrackPointExtension>
            <ns3:atemp>16.0</ns3:atemp>
          </ns3:TrackPointExtension>
        </extensions>
      </trkpt>
      <trkpt lat="42.55604247562587261199951171875" lon="20.0717976875603199005126953125">
        <ele>2157.800048828125</ele>
        <time>2026-06-19T11:52:06.000Z</time>
        <extensions>
          <ns3:TrackPointExtension>
            <ns3:atemp>16.0</ns3:atemp>
          </ns3:TrackPointExtension>
        </extensions>
      </trkpt>
      <trkpt lat="42.5560395419597625732421875" lon="20.0718469731509685516357421875">
        <ele>2157.800048828125</ele>
        <time>2026-06-19T11:52:07.000Z</time>
        <extensions>
          <ns3:TrackPointExtension>
            <ns3:atemp>16.0</ns3:atemp>
          </ns3:TrackPointExtension>
        </extensions>
      </trkpt>
      <trkpt lat="42.55603476427495479583740234375" lon="20.07190237753093242645263671875">
        <ele>2157.60009765625</ele>
        <time>2026-06-19T11:52:08.000Z</time>
        <extensions>
          <ns3:TrackPointExtension>
            <ns3:atemp>16.0</ns3:atemp>
          </ns3:TrackPointExtension>
        </extensions>
      </trkpt>
      <trkpt lat="42.5560216046869754791259765625" lon="20.071955434978008270263671875">
        <ele>2157.39990234375</ele>
        <time>2026-06-19T11:52:09.000Z</time>
        <extensions>
          <ns3:TrackPointExtension>
            <ns3:atemp>16.0</ns3:atemp>
          </ns3:TrackPointExtension>
        </extensions>
      </trkpt>
      <trkpt lat="42.55600425414741039276123046875" lon="20.07199801504611968994140625">
        <ele>2157</ele>
        <time>2026-06-19T11:52:10.000Z</time>
        <extensions>
          <ns3:TrackPointExtension>
            <ns3:atemp>16.0</ns3:atemp>
          </ns3:TrackPointExtension>
        </extensions>
      </trkpt>
      <trkpt lat="42.55599268712103366851806640625" lon="20.0720380805432796478271484375">
        <ele>2156.800048828125</ele>
        <time>2026-06-19T11:52:11.000Z</time>
        <extensions>
          <ns3:TrackPointExtension>
            <ns3:atemp>16.0</ns3:atemp>
          </ns3:TrackPointExtension>
        </extensions>
      </trkpt>
      <trkpt lat="42.555991597473621368408203125" lon="20.07208359427750110626220703125">
        <ele>2156.39990234375</ele>
        <time>2026-06-19T11:52:12.000Z</time>
        <extensions>
          <ns3:TrackPointExtension>
            <ns3:atemp>16.0</ns3:atemp>
          </ns3:TrackPointExtension>
        </extensions>
      </trkpt>
      <trkpt lat="42.55599235184490680694580078125" lon="20.07212617434561252593994140625">
        <ele>2156.199951171875</ele>
        <time>2026-06-19T11:52:13.000Z</time>
        <extensions>
          <ns3:TrackPointExtension>
            <ns3:atemp>16.0</ns3:atemp>
          </ns3:TrackPointExtension>
        </extensions>
      </trkpt>
      <trkpt lat="42.5559964589774608612060546875" lon="20.072161294519901275634765625">
        <ele>2156.199951171875</ele>
        <time>2026-06-19T11:52:14.000Z</time>
        <extensions>
          <ns3:TrackPointExtension>
            <ns3:atemp>16.0</ns3:atemp>
          </ns3:TrackPointExtension>
        </extensions>
      </trkpt>
      <trkpt lat="42.55599453113973140716552734375" lon="20.0721918046474456787109375">
        <ele>2156.199951171875</ele>
        <time>2026-06-19T11:52:15.000Z</time>
        <extensions>
          <ns3:TrackPointExtension>
            <ns3:atemp>16.0</ns3:atemp>
          </ns3:TrackPointExtension>
        </extensions>
      </trkpt>
      <trkpt lat="42.555989585816860198974609375" lon="20.072228349745273590087890625">
        <ele>2156</ele>
        <time>2026-06-19T11:52:16.000Z</time>
        <extensions>
          <ns3:TrackPointExtension>
            <ns3:atemp>16.0</ns3:atemp>
          </ns3:TrackPointExtension>
        </extensions>
      </trkpt>
      <trkpt lat="42.55597709678113460540771484375" lon="20.072263218462467193603515625">
        <ele>2155.800048828125</ele>
        <time>2026-06-19T11:52:17.000Z</time>
        <extensions>
          <ns3:TrackPointExtension>
            <ns3:atemp>16.0</ns3:atemp>
          </ns3:TrackPointExtension>
        </extensions>
      </trkpt>
      <trkpt lat="42.55596242845058441162109375" lon="20.07228777743875980377197265625">
        <ele>2155.800048828125</ele>
        <time>2026-06-19T11:52:18.000Z</time>
        <extensions>
          <ns3:TrackPointExtension>
            <ns3:atemp>16.0</ns3:atemp>
          </ns3:TrackPointExtension>
        </extensions>
      </trkpt>
      <trkpt lat="42.555954046547412872314453125" lon="20.07231359370052814483642578125">
        <ele>2155.60009765625</ele>
        <time>2026-06-19T11:52:19.000Z</time>
        <extensions>
          <ns3:TrackPointExtension>
            <ns3:atemp>16.0</ns3:atemp>
          </ns3:TrackPointExtension>
        </extensions>
      </trkpt>
      <trkpt lat="42.555954717099666595458984375" lon="20.0723260827362537384033203125">
        <ele>2155.39990234375</ele>
        <time>2026-06-19T11:52:20.000Z</time>
        <extensions>
          <ns3:TrackPointExtension>
            <ns3:atemp>16.0</ns3:atemp>
          </ns3:TrackPointExtension>
        </extensions>
      </trkpt>
      <trkpt lat="42.55595563910901546478271484375" lon="20.07232918404042720794677734375">
        <ele>2155.39990234375</ele>
        <time>2026-06-19T11:52:21.000Z</time>
        <extensions>
          <ns3:TrackPointExtension>
            <ns3:atemp>16.0</ns3:atemp>
          </ns3:TrackPointExtension>
        </extensions>
      </trkpt>
      <trkpt lat="42.5559572316706180572509765625" lon="20.0723312795162200927734375">
        <ele>2155.60009765625</ele>
        <time>2026-06-19T11:52:22.000Z</time>
        <extensions>
          <ns3:TrackPointExtension>
            <ns3:atemp>16.0</ns3:atemp>
          </ns3:TrackPointExtension>
        </extensions>
      </trkpt>
      <trkpt lat="42.5559572316706180572509765625" lon="20.07233136333525180816650390625">
        <ele>2155.60009765625</ele>
        <time>2026-06-19T11:52:23.000Z</time>
        <extensions>
          <ns3:TrackPointExtension>
            <ns3:atemp>16.0</ns3:atemp>
          </ns3:TrackPointExtension>
        </extensions>
      </trkpt>
      <trkpt lat="42.55595731548964977264404296875" lon="20.0723314471542835235595703125">
        <ele>2155.60009765625</ele>
        <time>2026-06-19T11:52:24.000Z</time>
        <extensions>
          <ns3:TrackPointExtension>
            <ns3:atemp>16.0</ns3:atemp>
          </ns3:TrackPointExtension>
        </extensions>
      </trkpt>
      <trkpt lat="42.555952705442905426025390625" lon="20.0723448581993579864501953125">
        <ele>2155.60009765625</ele>
        <time>2026-06-19T11:52:25.000Z</time>
        <extensions>
          <ns3:TrackPointExtension>
            <ns3:atemp>16.0</ns3:atemp>
          </ns3:TrackPointExtension>
        </extensions>
      </trkpt>
      <trkpt lat="42.55594809539616107940673828125" lon="20.07235801778733730316162109375">
        <ele>2155.60009765625</ele>
        <time>2026-06-19T11:52:26.000Z</time>
        <extensions>
          <ns3:TrackPointExtension>
            <ns3:atemp>16.0</ns3:atemp>
          </ns3:TrackPointExtension>
        </extensions>
      </trkpt>
      <trkpt lat="42.5559454970061779022216796875" lon="20.072366483509540557861328125">
        <ele>2155.60009765625</ele>
        <time>2026-06-19T11:52:27.000Z</time>
        <extensions>
          <ns3:TrackPointExtension>
            <ns3:atemp>16.0</ns3:atemp>
          </ns3:TrackPointExtension>
        </extensions>
      </trkpt>
      <trkpt lat="42.55594289861619472503662109375" lon="20.07237260229885578155517578125">
        <ele>2155.60009765625</ele>
        <time>2026-06-19T11:52:28.000Z</time>
        <extensions>
          <ns3:TrackPointExtension>
            <ns3:atemp>16.0</ns3:atemp>
          </ns3:TrackPointExtension>
        </extensions>
      </trkpt>
      <trkpt lat="42.5559408031404018402099609375" lon="20.07237863726913928985595703125">
        <ele>2155.60009765625</ele>
        <time>2026-06-19T11:52:29.000Z</time>
        <extensions>
          <ns3:TrackPointExtension>
            <ns3:atemp>16.0</ns3:atemp>
          </ns3:TrackPointExtension>
        </extensions>
      </trkpt>
      <trkpt lat="42.5559371151030063629150390625" lon="20.07238618098199367523193359375">
        <ele>2155.60009765625</ele>
        <time>2026-06-19T11:52:30.000Z</time>
        <extensions>
          <ns3:TrackPointExtension>
            <ns3:atemp>16.0</ns3:atemp>
          </ns3:TrackPointExtension>
        </extensions>
      </trkpt>
      <trkpt lat="42.5559347681701183319091796875" lon="20.07239322178065776824951171875">
        <ele>2155.60009765625</ele>
        <time>2026-06-19T11:52:31.000Z</time>
        <extensions>
          <ns3:TrackPointExtension>
            <ns3:atemp>16.0</ns3:atemp>
          </ns3:TrackPointExtension>
        </extensions>
      </trkpt>
      <trkpt lat="42.555930912494659423828125" lon="20.07240009494125843048095703125">
        <ele>2155.60009765625</ele>
        <time>2026-06-19T11:52:32.000Z</time>
        <extensions>
          <ns3:TrackPointExtension>
            <ns3:atemp>16.0</ns3:atemp>
          </ns3:TrackPointExtension>
        </extensions>
      </trkpt>
      <trkpt lat="42.5559304095804691314697265625" lon="20.07240311242640018463134765625">
        <ele>2155.60009765625</ele>
        <time>2026-06-19T11:52:33.000Z</time>
        <extensions>
          <ns3:TrackPointExtension>
            <ns3:atemp>16.0</ns3:atemp>
          </ns3:TrackPointExtension>
        </extensions>
      </trkpt>
      <trkpt lat="42.55592848174273967742919921875" lon="20.0724105723202228546142578125">
        <ele>2155.60009765625</ele>
        <time>2026-06-19T11:52:34.000Z</time>
        <extensions>
          <ns3:TrackPointExtension>
            <ns3:atemp>16.0</ns3:atemp>
          </ns3:TrackPointExtension>
        </extensions>
      </trkpt>
      <trkpt lat="42.55592579953372478485107421875" lon="20.07242180407047271728515625">
        <ele>2155.60009765625</ele>
        <time>2026-06-19T11:52:35.000Z</time>
        <extensions>
          <ns3:TrackPointExtension>
            <ns3:atemp>16.0</ns3:atemp>
          </ns3:TrackPointExtension>
        </extensions>
      </trkpt>
      <trkpt lat="42.55592311732470989227294921875" lon="20.07242306135594844818115234375">
        <ele>2155.60009765625</ele>
        <time>2026-06-19T11:52:36.000Z</time>
        <extensions>
          <ns3:TrackPointExtension>
            <ns3:atemp>16.0</ns3:atemp>
          </ns3:TrackPointExtension>
        </extensions>
      </trkpt>
      <trkpt lat="42.5559242069721221923828125" lon="20.0724253244698047637939453125">
        <ele>2155.60009765625</ele>
        <time>2026-06-19T11:52:37.000Z</time>
        <extensions>
          <ns3:TrackPointExtension>
            <ns3:atemp>16.0</ns3:atemp>
          </ns3:TrackPointExtension>
        </extensions>
      </trkpt>
      <trkpt lat="42.55592412315309047698974609375" lon="20.07242524065077304840087890625">
        <ele>2155.60009765625</ele>
        <time>2026-06-19T11:52:38.000Z</time>
        <extensions>
          <ns3:TrackPointExtension>
            <ns3:atemp>16.0</ns3:atemp>
          </ns3:TrackPointExtension>
        </extensions>
      </trkpt>
      <trkpt lat="42.5559242069721221923828125" lon="20.0724251568317413330078125">
        <ele>2155.60009765625</ele>
        <time>2026-06-19T11:52:39.000Z</time>
        <extensions>
          <ns3:TrackPointExtension>
            <ns3:atemp>16.0</ns3:atemp>
          </ns3:TrackPointExtension>
        </extensions>
      </trkpt>
      <trkpt lat="42.55592353641986846923828125" lon="20.07243211381137371063232421875">
        <ele>2155.60009765625</ele>
        <time>2026-06-19T11:52:40.000Z</time>
        <extensions>
          <ns3:TrackPointExtension>
            <ns3:atemp>16.0</ns3:atemp>
          </ns3:TrackPointExtension>
        </extensions>
      </trkpt>
      <trkpt lat="42.55592462606728076934814453125" lon="20.072441585361957550048828125">
        <ele>2155.60009765625</ele>
        <time>2026-06-19T11:52:41.000Z</time>
        <extensions>
          <ns3:TrackPointExtension>
            <ns3:atemp>16.0</ns3:atemp>
          </ns3:TrackPointExtension>
        </extensions>
      </trkpt>
      <trkpt lat="42.5559263862669467926025390625" lon="20.07245290093123912811279296875">
        <ele>2155.60009765625</ele>
        <time>2026-06-19T11:52:42.000Z</time>
        <extensions>
          <ns3:TrackPointExtension>
            <ns3:atemp>16.0</ns3:atemp>
          </ns3:TrackPointExtension>
        </extensions>
      </trkpt>
      <trkpt lat="42.5559270568192005157470703125" lon="20.0724680721759796142578125">
        <ele>2155.60009765625</ele>
        <time>2026-06-19T11:52:43.000Z</time>
        <extensions>
          <ns3:TrackPointExtension>
            <ns3:atemp>16.0</ns3:atemp>
          </ns3:TrackPointExtension>
        </extensions>
      </trkpt>
      <trkpt lat="42.55592890083789825439453125" lon="20.0724762864410877227783203125">
        <ele>2155.60009765625</ele>
        <time>2026-06-19T11:52:44.000Z</time>
        <extensions>
          <ns3:TrackPointExtension>
            <ns3:atemp>16.0</ns3:atemp>
          </ns3:TrackPointExtension>
        </extensions>
      </trkpt>
      <trkpt lat="42.55593082867562770843505859375" lon="20.07248190231621265411376953125">
        <ele>2155.60009765625</ele>
        <time>2026-06-19T11:52:45.000Z</time>
        <extensions>
          <ns3:TrackPointExtension>
            <ns3:atemp>16.0</ns3:atemp>
          </ns3:TrackPointExtension>
        </extensions>
      </trkpt>
      <trkpt lat="42.55592881701886653900146484375" lon="20.072491876780986785888671875">
        <ele>2155.60009765625</ele>
        <time>2026-06-19T11:52:46.000Z</time>
        <extensions>
          <ns3:TrackPointExtension>
            <ns3:atemp>16.0</ns3:atemp>
          </ns3:TrackPointExtension>
        </extensions>
      </trkpt>
      <trkpt lat="42.555927224457263946533203125" lon="20.072497911751270294189453125">
        <ele>2155.60009765625</ele>
        <time>2026-06-19T11:52:47.000Z</time>
        <extensions>
          <ns3:TrackPointExtension>
            <ns3:atemp>16.0</ns3:atemp>
          </ns3:TrackPointExtension>
        </extensions>
      </trkpt>
      <trkpt lat="42.5559270568192005157470703125" lon="20.0725057907402515411376953125">
        <ele>2155.60009765625</ele>
        <time>2026-06-19T11:52:48.000Z</time>
        <extensions>
          <ns3:TrackPointExtension>
            <ns3:atemp>16.0</ns3:atemp>
          </ns3:TrackPointExtension>
        </extensions>
      </trkpt>
      <trkpt lat="42.55592630244791507720947265625" lon="20.07250964641571044921875">
        <ele>2155.60009765625</ele>
        <time>2026-06-19T11:52:49.000Z</time>
        <extensions>
          <ns3:TrackPointExtension>
            <ns3:atemp>16.0</ns3:atemp>
          </ns3:TrackPointExtension>
        </extensions>
      </trkpt>
      <trkpt lat="42.55592462606728076934814453125" lon="20.07250973023474216461181640625">
        <ele>2157.60009765625</ele>
        <time>2026-06-19T11:52:50.000Z</time>
        <extensions>
          <ns3:TrackPointExtension>
            <ns3:atemp>16.0</ns3:atemp>
          </ns3:TrackPointExtension>
        </extensions>
      </trkpt>
      <trkpt lat="42.55592563189566135406494140625" lon="20.0725138373672962188720703125">
        <ele>2157.60009765625</ele>
        <time>2026-06-19T11:52:51.000Z</time>
        <extensions>
          <ns3:TrackPointExtension>
            <ns3:atemp>16.0</ns3:atemp>
          </ns3:TrackPointExtension>
        </extensions>
      </trkpt>
      <trkpt lat="42.5559277273714542388916015625" lon="20.07251895032823085784912109375">
        <ele>2157.800048828125</ele>
        <time>2026-06-19T11:52:52.000Z</time>
        <extensions>
          <ns3:TrackPointExtension>
            <ns3:atemp>16.0</ns3:atemp>
          </ns3:TrackPointExtension>
        </extensions>
      </trkpt>
      <trkpt lat="42.55592864938080310821533203125" lon="20.072523057460784912109375">
        <ele>2157.800048828125</ele>
        <time>2026-06-19T11:52:53.000Z</time>
        <extensions>
          <ns3:TrackPointExtension>
            <ns3:atemp>16.0</ns3:atemp>
          </ns3:TrackPointExtension>
        </extensions>
      </trkpt>
      <trkpt lat="42.55592915229499340057373046875" lon="20.072531439363956451416015625">
        <ele>2158</ele>
        <time>2026-06-19T11:52:54.000Z</time>
        <extensions>
          <ns3:TrackPointExtension>
            <ns3:atemp>16.0</ns3:atemp>
          </ns3:TrackPointExtension>
        </extensions>
      </trkpt>
      <trkpt lat="42.5559297390282154083251953125" lon="20.07254191674292087554931640625">
        <ele>2158</ele>
        <time>2026-06-19T11:52:55.000Z</time>
        <extensions>
          <ns3:TrackPointExtension>
            <ns3:atemp>16.0</ns3:atemp>
          </ns3:TrackPointExtension>
        </extensions>
      </trkpt>
      <trkpt lat="42.555925883352756500244140625" lon="20.0725430063903331756591796875">
        <ele>2158</ele>
        <time>2026-06-19T11:52:56.000Z</time>
        <extensions>
          <ns3:TrackPointExtension>
            <ns3:atemp>16.0</ns3:atemp>
          </ns3:TrackPointExtension>
        </extensions>
      </trkpt>
      <trkpt lat="42.555925883352756500244140625" lon="20.07254292257130146026611328125">
        <ele>2158.199951171875</ele>
        <time>2026-06-19T11:52:57.000Z</time>
        <extensions>
          <ns3:TrackPointExtension>
            <ns3:atemp>16.0</ns3:atemp>
          </ns3:TrackPointExtension>
        </extensions>
      </trkpt>
      <trkpt lat="42.555925883352756500244140625" lon="20.07254292257130146026611328125">
        <ele>2158.199951171875</ele>
        <time>2026-06-19T11:52:58.000Z</time>
        <extensions>
          <ns3:TrackPointExtension>
            <ns3:atemp>16.0</ns3:atemp>
          </ns3:TrackPointExtension>
        </extensions>
      </trkpt>
      <trkpt lat="42.555925883352756500244140625" lon="20.07254292257130146026611328125">
        <ele>2158.39990234375</ele>
        <time>2026-06-19T11:52:59.000Z</time>
        <extensions>
          <ns3:TrackPointExtension>
            <ns3:atemp>16.0</ns3:atemp>
          </ns3:TrackPointExtension>
        </extensions>
      </trkpt>
      <trkpt lat="42.555925883352756500244140625" lon="20.07254292257130146026611328125">
        <ele>2158.39990234375</ele>
        <time>2026-06-19T11:53:00.000Z</time>
        <extensions>
          <ns3:TrackPointExtension>
            <ns3:atemp>16.0</ns3:atemp>
          </ns3:TrackPointExtension>
        </extensions>
      </trkpt>
      <trkpt lat="42.555925883352756500244140625" lon="20.07254292257130146026611328125">
        <ele>2158.39990234375</ele>
        <time>2026-06-19T11:53:01.000Z</time>
        <extensions>
          <ns3:TrackPointExtension>
            <ns3:atemp>16.0</ns3:atemp>
          </ns3:TrackPointExtension>
        </extensions>
      </trkpt>
      <trkpt lat="42.555925883352756500244140625" lon="20.07254292257130146026611328125">
        <ele>2158.39990234375</ele>
        <time>2026-06-19T11:53:02.000Z</time>
        <extensions>
          <ns3:TrackPointExtension>
            <ns3:atemp>16.0</ns3:atemp>
          </ns3:TrackPointExtension>
        </extensions>
      </trkpt>
      <trkpt lat="42.5559257157146930694580078125" lon="20.07254292257130146026611328125">
        <ele>2158.39990234375</ele>
        <time>2026-06-19T11:53:03.000Z</time>
        <extensions>
          <ns3:TrackPointExtension>
            <ns3:atemp>16.0</ns3:atemp>
          </ns3:TrackPointExtension>
        </extensions>
      </trkpt>
      <trkpt lat="42.55592579953372478485107421875" lon="20.07255583070218563079833984375">
        <ele>2158.39990234375</ele>
        <time>2026-06-19T11:53:04.000Z</time>
        <extensions>
          <ns3:TrackPointExtension>
            <ns3:atemp>16.0</ns3:atemp>
          </ns3:TrackPointExtension>
        </extensions>
      </trkpt>
      <trkpt lat="42.55592881701886653900146484375" lon="20.07258449681103229522705078125">
        <ele>2158.199951171875</ele>
        <time>2026-06-19T11:53:05.000Z</time>
        <extensions>
          <ns3:TrackPointExtension>
            <ns3:atemp>16.0</ns3:atemp>
          </ns3:TrackPointExtension>
        </extensions>
      </trkpt>
      <trkpt lat="42.55593024194240570068359375" lon="20.07260545156896114349365234375">
        <ele>2158.199951171875</ele>
        <time>2026-06-19T11:53:06.000Z</time>
        <extensions>
          <ns3:TrackPointExtension>
            <ns3:atemp>16.0</ns3:atemp>
          </ns3:TrackPointExtension>
        </extensions>
      </trkpt>
      <trkpt lat="42.555930912494659423828125" lon="20.072629339993000030517578125">
        <ele>2158.39990234375</ele>
        <time>2026-06-19T11:53:07.000Z</time>
        <extensions>
          <ns3:TrackPointExtension>
            <ns3:atemp>16.0</ns3:atemp>
          </ns3:TrackPointExtension>
        </extensions>
      </trkpt>
      <trkpt lat="42.5559327565133571624755859375" lon="20.07264987565577030181884765625">
        <ele>2158.39990234375</ele>
        <time>2026-06-19T11:53:08.000Z</time>
        <extensions>
          <ns3:TrackPointExtension>
            <ns3:atemp>16.0</ns3:atemp>
          </ns3:TrackPointExtension>
        </extensions>
      </trkpt>
      <trkpt lat="42.555937953293323516845703125" lon="20.07267015986144542694091796875">
        <ele>2158.60009765625</ele>
        <time>2026-06-19T11:53:09.000Z</time>
        <extensions>
          <ns3:TrackPointExtension>
            <ns3:atemp>16.0</ns3:atemp>
          </ns3:TrackPointExtension>
        </extensions>
      </trkpt>
      <trkpt lat="42.5559424795210361480712890625" lon="20.072693042457103729248046875">
        <ele>2158.800048828125</ele>
        <time>2026-06-19T11:53:10.000Z</time>
        <extensions>
          <ns3:TrackPointExtension>
            <ns3:atemp>16.0</ns3:atemp>
          </ns3:TrackPointExtension>
        </extensions>
      </trkpt>
      <trkpt lat="42.555948011577129364013671875" lon="20.07271408103406429290771484375">
        <ele>2159</ele>
        <time>2026-06-19T11:53:11.000Z</time>
        <extensions>
          <ns3:TrackPointExtension>
            <ns3:atemp>16.0</ns3:atemp>
          </ns3:TrackPointExtension>
        </extensions>
      </trkpt>
      <trkpt lat="42.55595228634774684906005859375" lon="20.07273687981069087982177734375">
        <ele>2159.199951171875</ele>
        <time>2026-06-19T11:53:12.000Z</time>
        <extensions>
          <ns3:TrackPointExtension>
            <ns3:atemp>16.0</ns3:atemp>
          </ns3:TrackPointExtension>
        </extensions>
      </trkpt>
      <trkpt lat="42.55595630966126918792724609375" lon="20.07275632582604885101318359375">
        <ele>2159.39990234375</ele>
        <time>2026-06-19T11:53:13.000Z</time>
        <extensions>
          <ns3:TrackPointExtension>
            <ns3:atemp>16.0</ns3:atemp>
          </ns3:TrackPointExtension>
        </extensions>
      </trkpt>
      <trkpt lat="42.55595882423222064971923828125" lon="20.0727783702313899993896484375">
        <ele>2159.800048828125</ele>
        <time>2026-06-19T11:53:14.000Z</time>
        <extensions>
          <ns3:TrackPointExtension>
            <ns3:atemp>16.0</ns3:atemp>
          </ns3:TrackPointExtension>
        </extensions>
      </trkpt>
      <trkpt lat="42.55596133880317211151123046875" lon="20.07279940880835056304931640625">
        <ele>2160</ele>
        <time>2026-06-19T11:53:15.000Z</time>
        <extensions>
          <ns3:TrackPointExtension>
            <ns3:atemp>16.0</ns3:atemp>
          </ns3:TrackPointExtension>
        </extensions>
      </trkpt>
      <trkpt lat="42.55596502684056758880615234375" lon="20.072825141251087188720703125">
        <ele>2160.199951171875</ele>
        <time>2026-06-19T11:53:16.000Z</time>
        <extensions>
          <ns3:TrackPointExtension>
            <ns3:atemp>16.0</ns3:atemp>
          </ns3:TrackPointExtension>
        </extensions>
      </trkpt>
      <trkpt lat="42.555967457592487335205078125" lon="20.07284651510417461395263671875">
        <ele>2160.39990234375</ele>
        <time>2026-06-19T11:53:17.000Z</time>
        <extensions>
          <ns3:TrackPointExtension>
            <ns3:atemp>16.0</ns3:atemp>
          </ns3:TrackPointExtension>
        </extensions>
      </trkpt>
      <trkpt lat="42.55597122944891452789306640625" lon="20.072868727147579193115234375">
        <ele>2160.60009765625</ele>
        <time>2026-06-19T11:53:18.000Z</time>
        <extensions>
          <ns3:TrackPointExtension>
            <ns3:atemp>16.0</ns3:atemp>
          </ns3:TrackPointExtension>
        </extensions>
      </trkpt>
      <trkpt lat="42.55597793497145175933837890625" lon="20.0728891789913177490234375">
        <ele>2160.800048828125</ele>
        <time>2026-06-19T11:53:19.000Z</time>
        <extensions>
          <ns3:TrackPointExtension>
            <ns3:atemp>16.0</ns3:atemp>
          </ns3:TrackPointExtension>
        </extensions>
      </trkpt>
      <trkpt lat="42.555986903607845306396484375" lon="20.0729071162641048431396484375">
        <ele>2161</ele>
        <time>2026-06-19T11:53:20.000Z</time>
        <extensions>
          <ns3:TrackPointExtension>
            <ns3:atemp>16.0</ns3:atemp>
          </ns3:TrackPointExtension>
        </extensions>
      </trkpt>
      <trkpt lat="42.55599888972938060760498046875" lon="20.0729215331375598907470703125">
        <ele>2161</ele>
        <time>2026-06-19T11:53:21.000Z</time>
        <extensions>
          <ns3:TrackPointExtension>
            <ns3:atemp>16.0</ns3:atemp>
          </ns3:TrackPointExtension>
        </extensions>
      </trkpt>
      <trkpt lat="42.55600668489933013916015625" lon="20.07293251343071460723876953125">
        <ele>2161.199951171875</ele>
        <time>2026-06-19T11:53:22.000Z</time>
        <extensions>
          <ns3:TrackPointExtension>
            <ns3:atemp>16.0</ns3:atemp>
          </ns3:TrackPointExtension>
        </extensions>
      </trkpt>
      <trkpt lat="42.556013725697994232177734375" lon="20.0729483552277088165283203125">
        <ele>2161.199951171875</ele>
        <time>2026-06-19T11:53:23.000Z</time>
        <extensions>
          <ns3:TrackPointExtension>
            <ns3:atemp>16.0</ns3:atemp>
          </ns3:TrackPointExtension>
        </extensions>
      </trkpt>
      <trkpt lat="42.556016743183135986328125" lon="20.07296570576727390289306640625">
        <ele>2161.39990234375</ele>
        <time>2026-06-19T11:53:24.000Z</time>
        <extensions>
          <ns3:TrackPointExtension>
            <ns3:atemp>16.0</ns3:atemp>
          </ns3:TrackPointExtension>
        </extensions>
      </trkpt>
      <trkpt lat="42.5560195930302143096923828125" lon="20.0729815475642681121826171875">
        <ele>2161.39990234375</ele>
        <time>2026-06-19T11:53:25.000Z</time>
        <extensions>
          <ns3:TrackPointExtension>
            <ns3:atemp>16.0</ns3:atemp>
          </ns3:TrackPointExtension>
        </extensions>
      </trkpt>
      <trkpt lat="42.5560209341347217559814453125" lon="20.07299856282770633697509765625">
        <ele>2161.39990234375</ele>
        <time>2026-06-19T11:53:26.000Z</time>
        <extensions>
          <ns3:TrackPointExtension>
            <ns3:atemp>16.0</ns3:atemp>
          </ns3:TrackPointExtension>
        </extensions>
      </trkpt>
      <trkpt lat="42.55602504126727581024169921875" lon="20.073016583919525146484375">
        <ele>2161.39990234375</ele>
        <time>2026-06-19T11:53:27.000Z</time>
        <extensions>
          <ns3:TrackPointExtension>
            <ns3:atemp>16.0</ns3:atemp>
          </ns3:TrackPointExtension>
        </extensions>
      </trkpt>
      <trkpt lat="42.5560296513140201568603515625" lon="20.0730315037071704864501953125">
        <ele>2161.60009765625</ele>
        <time>2026-06-19T11:53:28.000Z</time>
        <extensions>
          <ns3:TrackPointExtension>
            <ns3:atemp>16.0</ns3:atemp>
          </ns3:TrackPointExtension>
        </extensions>
      </trkpt>
      <trkpt lat="42.556037195026874542236328125" lon="20.0730415619909763336181640625">
        <ele>2161.60009765625</ele>
        <time>2026-06-19T11:53:29.000Z</time>
        <extensions>
          <ns3:TrackPointExtension>
            <ns3:atemp>16.0</ns3:atemp>
          </ns3:TrackPointExtension>
        </extensions>
      </trkpt>
      <trkpt lat="42.55604666657745838165283203125" lon="20.073055140674114227294921875">
        <ele>2161.60009765625</ele>
        <time>2026-06-19T11:53:30.000Z</time>
        <extensions>
          <ns3:TrackPointExtension>
            <ns3:atemp>16.0</ns3:atemp>
          </ns3:TrackPointExtension>
        </extensions>
      </trkpt>
      <trkpt lat="42.55605957470834255218505859375" lon="20.07306830026209354400634765625">
        <ele>2161.60009765625</ele>
        <time>2026-06-19T11:53:31.000Z</time>
        <extensions>
          <ns3:TrackPointExtension>
            <ns3:atemp>16.0</ns3:atemp>
          </ns3:TrackPointExtension>
        </extensions>
      </trkpt>
      <trkpt lat="42.556062005460262298583984375" lon="20.073074586689472198486328125">
        <ele>2161.60009765625</ele>
        <time>2026-06-19T11:53:32.000Z</time>
        <extensions>
          <ns3:TrackPointExtension>
            <ns3:atemp>16.0</ns3:atemp>
          </ns3:TrackPointExtension>
        </extensions>
      </trkpt>
      <trkpt lat="42.55606108345091342926025390625" lon="20.0730767659842967987060546875">
        <ele>2161.60009765625</ele>
        <time>2026-06-19T11:53:33.000Z</time>
        <extensions>
          <ns3:TrackPointExtension>
            <ns3:atemp>16.0</ns3:atemp>
          </ns3:TrackPointExtension>
        </extensions>
      </trkpt>
      <trkpt lat="42.55606125108897686004638671875" lon="20.0730767659842967987060546875">
        <ele>2161.60009765625</ele>
        <time>2026-06-19T11:53:34.000Z</time>
        <extensions>
          <ns3:TrackPointExtension>
            <ns3:atemp>16.0</ns3:atemp>
          </ns3:TrackPointExtension>
        </extensions>
      </trkpt>
      <trkpt lat="42.55606141872704029083251953125" lon="20.07307684980332851409912109375">
        <ele>2161.60009765625</ele>
        <time>2026-06-19T11:53:35.000Z</time>
        <extensions>
          <ns3:TrackPointExtension>
            <ns3:atemp>16.0</ns3:atemp>
          </ns3:TrackPointExtension>
        </extensions>
      </trkpt>
      <trkpt lat="42.55607164464890956878662109375" lon="20.07308070547878742218017578125">
        <ele>2161.60009765625</ele>
        <time>2026-06-19T11:53:36.000Z</time>
        <extensions>
          <ns3:TrackPointExtension>
            <ns3:atemp>16.0</ns3:atemp>
          </ns3:TrackPointExtension>
        </extensions>
      </trkpt>
      <trkpt lat="42.55606125108897686004638671875" lon="20.0730767659842967987060546875">
        <ele>2161.60009765625</ele>
        <time>2026-06-19T11:53:37.000Z</time>
        <extensions>
          <ns3:TrackPointExtension>
            <ns3:atemp>16.0</ns3:atemp>
          </ns3:TrackPointExtension>
        </extensions>
      </trkpt>
      <trkpt lat="42.55606125108897686004638671875" lon="20.0730767659842967987060546875">
        <ele>2161.60009765625</ele>
        <time>2026-06-19T11:53:38.000Z</time>
        <extensions>
          <ns3:TrackPointExtension>
            <ns3:atemp>16.0</ns3:atemp>
          </ns3:TrackPointExtension>
        </extensions>
      </trkpt>
      <trkpt lat="42.55606125108897686004638671875" lon="20.0730767659842967987060546875">
        <ele>2161.60009765625</ele>
        <time>2026-06-19T11:53:39.000Z</time>
        <extensions>
          <ns3:TrackPointExtension>
            <ns3:atemp>16.0</ns3:atemp>
          </ns3:TrackPointExtension>
        </extensions>
      </trkpt>
      <trkpt lat="42.55606125108897686004638671875" lon="20.0730767659842967987060546875">
        <ele>2161.60009765625</ele>
        <time>2026-06-19T11:53:40.000Z</time>
        <extensions>
          <ns3:TrackPointExtension>
            <ns3:atemp>16.0</ns3:atemp>
          </ns3:TrackPointExtension>
        </extensions>
      </trkpt>
      <trkpt lat="42.55606125108897686004638671875" lon="20.0730767659842967987060546875">
        <ele>2161.800048828125</ele>
        <time>2026-06-19T11:53:41.000Z</time>
        <extensions>
          <ns3:TrackPointExtension>
            <ns3:atemp>16.0</ns3:atemp>
          </ns3:TrackPointExtension>
        </extensions>
      </trkpt>
      <trkpt lat="42.55606125108897686004638671875" lon="20.0730767659842967987060546875">
        <ele>2161.800048828125</ele>
        <time>2026-06-19T11:53:42.000Z</time>
        <extensions>
          <ns3:TrackPointExtension>
            <ns3:atemp>16.0</ns3:atemp>
          </ns3:TrackPointExtension>
        </extensions>
      </trkpt>
      <trkpt lat="42.55606125108897686004638671875" lon="20.0730767659842967987060546875">
        <ele>2161.800048828125</ele>
        <time>2026-06-19T11:53:43.000Z</time>
        <extensions>
          <ns3:TrackPointExtension>
            <ns3:atemp>16.0</ns3:atemp>
          </ns3:TrackPointExtension>
        </extensions>
      </trkpt>
      <trkpt lat="42.55606125108897686004638671875" lon="20.0730767659842967987060546875">
        <ele>2161.800048828125</ele>
        <time>2026-06-19T11:53:44.000Z</time>
        <extensions>
          <ns3:TrackPointExtension>
            <ns3:atemp>16.0</ns3:atemp>
          </ns3:TrackPointExtension>
        </extensions>
      </trkpt>
      <trkpt lat="42.5560739077627658843994140625" lon="20.07307827472686767578125">
        <ele>2161.800048828125</ele>
        <time>2026-06-19T11:53:45.000Z</time>
        <extensions>
          <ns3:TrackPointExtension>
            <ns3:atemp>16.0</ns3:atemp>
          </ns3:TrackPointExtension>
        </extensions>
      </trkpt>
      <trkpt lat="42.55607374012470245361328125" lon="20.07308523170650005340576171875">
        <ele>2161.800048828125</ele>
        <time>2026-06-19T11:53:46.000Z</time>
        <extensions>
          <ns3:TrackPointExtension>
            <ns3:atemp>16.0</ns3:atemp>
          </ns3:TrackPointExtension>
        </extensions>
      </trkpt>
      <trkpt lat="42.55607399158179759979248046875" lon="20.073091685771942138671875">
        <ele>2161.60009765625</ele>
        <time>2026-06-19T11:53:47.000Z</time>
        <extensions>
          <ns3:TrackPointExtension>
            <ns3:atemp>16.0</ns3:atemp>
          </ns3:TrackPointExtension>
        </extensions>
      </trkpt>
      <trkpt lat="42.5560742430388927459716796875" lon="20.0730918534100055694580078125">
        <ele>2161.800048828125</ele>
        <time>2026-06-19T11:53:48.000Z</time>
        <extensions>
          <ns3:TrackPointExtension>
            <ns3:atemp>16.0</ns3:atemp>
          </ns3:TrackPointExtension>
        </extensions>
      </trkpt>
      <trkpt lat="42.5560742430388927459716796875" lon="20.0730918534100055694580078125">
        <ele>2161.800048828125</ele>
        <time>2026-06-19T11:53:49.000Z</time>
        <extensions>
          <ns3:TrackPointExtension>
            <ns3:atemp>16.0</ns3:atemp>
          </ns3:TrackPointExtension>
        </extensions>
      </trkpt>
      <trkpt lat="42.5560742430388927459716796875" lon="20.0730918534100055694580078125">
        <ele>2161.800048828125</ele>
        <time>2026-06-19T11:53:50.000Z</time>
        <extensions>
          <ns3:TrackPointExtension>
            <ns3:atemp>16.0</ns3:atemp>
          </ns3:TrackPointExtension>
        </extensions>
      </trkpt>
      <trkpt lat="42.5560749135911464691162109375" lon="20.07309260778129100799560546875">
        <ele>2162</ele>
        <time>2026-06-19T11:53:51.000Z</time>
        <extensions>
          <ns3:TrackPointExtension>
            <ns3:atemp>16.0</ns3:atemp>
          </ns3:TrackPointExtension>
        </extensions>
      </trkpt>
      <trkpt lat="42.5560742430388927459716796875" lon="20.0730918534100055694580078125">
        <ele>2162</ele>
        <time>2026-06-19T11:53:52.000Z</time>
        <extensions>
          <ns3:TrackPointExtension>
            <ns3:atemp>16.0</ns3:atemp>
          </ns3:TrackPointExtension>
        </extensions>
      </trkpt>
      <trkpt lat="42.55608354695141315460205078125" lon="20.073101408779621124267578125">
        <ele>2162.199951171875</ele>
        <time>2026-06-19T11:53:53.000Z</time>
        <extensions>
          <ns3:TrackPointExtension>
            <ns3:atemp>16.0</ns3:atemp>
          </ns3:TrackPointExtension>
        </extensions>
      </trkpt>
      <trkpt lat="42.556096874177455902099609375" lon="20.07311272434890270233154296875">
        <ele>2162.199951171875</ele>
        <time>2026-06-19T11:53:54.000Z</time>
        <extensions>
          <ns3:TrackPointExtension>
            <ns3:atemp>16.0</ns3:atemp>
          </ns3:TrackPointExtension>
        </extensions>
      </trkpt>
      <trkpt lat="42.5561060942709445953369140625" lon="20.07311792112886905670166015625">
        <ele>2162.199951171875</ele>
        <time>2026-06-19T11:53:55.000Z</time>
        <extensions>
          <ns3:TrackPointExtension>
            <ns3:atemp>16.0</ns3:atemp>
          </ns3:TrackPointExtension>
        </extensions>
      </trkpt>
      <trkpt lat="42.55611020140349864959716796875" lon="20.073120184242725372314453125">
        <ele>2162.199951171875</ele>
        <time>2026-06-19T11:53:56.000Z</time>
        <extensions>
          <ns3:TrackPointExtension>
            <ns3:atemp>16.0</ns3:atemp>
          </ns3:TrackPointExtension>
        </extensions>
      </trkpt>
      <trkpt lat="42.55611020140349864959716796875" lon="20.07312026806175708770751953125">
        <ele>2162.39990234375</ele>
        <time>2026-06-19T11:53:57.000Z</time>
        <extensions>
          <ns3:TrackPointExtension>
            <ns3:atemp>16.0</ns3:atemp>
          </ns3:TrackPointExtension>
        </extensions>
      </trkpt>
      <trkpt lat="42.55611020140349864959716796875" lon="20.07312026806175708770751953125">
        <ele>2162.39990234375</ele>
        <time>2026-06-19T11:53:58.000Z</time>
        <extensions>
          <ns3:TrackPointExtension>
            <ns3:atemp>16.0</ns3:atemp>
          </ns3:TrackPointExtension>
        </extensions>
      </trkpt>
      <trkpt lat="42.55611020140349864959716796875" lon="20.07312026806175708770751953125">
        <ele>2162.39990234375</ele>
        <time>2026-06-19T11:53:59.000Z</time>
        <extensions>
          <ns3:TrackPointExtension>
            <ns3:atemp>16.0</ns3:atemp>
          </ns3:TrackPointExtension>
        </extensions>
      </trkpt>
      <trkpt lat="42.55611020140349864959716796875" lon="20.07312026806175708770751953125">
        <ele>2162.60009765625</ele>
        <time>2026-06-19T11:54:00.000Z</time>
        <extensions>
          <ns3:TrackPointExtension>
            <ns3:atemp>16.0</ns3:atemp>
          </ns3:TrackPointExtension>
        </extensions>
      </trkpt>
      <trkpt lat="42.55611020140349864959716796875" lon="20.07312026806175708770751953125">
        <ele>2162.60009765625</ele>
        <time>2026-06-19T11:54:01.000Z</time>
        <extensions>
          <ns3:TrackPointExtension>
            <ns3:atemp>16.0</ns3:atemp>
          </ns3:TrackPointExtension>
        </extensions>
      </trkpt>
      <trkpt lat="42.55611020140349864959716796875" lon="20.07312026806175708770751953125">
        <ele>2162.800048828125</ele>
        <time>2026-06-19T11:54:02.000Z</time>
        <extensions>
          <ns3:TrackPointExtension>
            <ns3:atemp>16.0</ns3:atemp>
          </ns3:TrackPointExtension>
        </extensions>
      </trkpt>
      <trkpt lat="42.55611020140349864959716796875" lon="20.07312026806175708770751953125">
        <ele>2162.800048828125</ele>
        <time>2026-06-19T11:54:03.000Z</time>
        <extensions>
          <ns3:TrackPointExtension>
            <ns3:atemp>16.0</ns3:atemp>
          </ns3:TrackPointExtension>
        </extensions>
      </trkpt>
      <trkpt lat="42.55611020140349864959716796875" lon="20.07312026806175708770751953125">
        <ele>2163</ele>
        <time>2026-06-19T11:54:04.000Z</time>
        <extensions>
          <ns3:TrackPointExtension>
            <ns3:atemp>16.0</ns3:atemp>
          </ns3:TrackPointExtension>
        </extensions>
      </trkpt>
      <trkpt lat="42.5561107881367206573486328125" lon="20.0731206871569156646728515625">
        <ele>2163</ele>
        <time>2026-06-19T11:54:05.000Z</time>
        <extensions>
          <ns3:TrackPointExtension>
            <ns3:atemp>16.0</ns3:atemp>
          </ns3:TrackPointExtension>
        </extensions>
      </trkpt>
      <trkpt lat="42.5561218522489070892333984375" lon="20.073128230869770050048828125">
        <ele>2163</ele>
        <time>2026-06-19T11:54:06.000Z</time>
        <extensions>
          <ns3:TrackPointExtension>
            <ns3:atemp>16.0</ns3:atemp>
          </ns3:TrackPointExtension>
        </extensions>
      </trkpt>
      <trkpt lat="42.55612864159047603607177734375" lon="20.073130242526531219482421875">
        <ele>2163</ele>
        <time>2026-06-19T11:54:07.000Z</time>
        <extensions>
          <ns3:TrackPointExtension>
            <ns3:atemp>16.0</ns3:atemp>
          </ns3:TrackPointExtension>
        </extensions>
      </trkpt>
      <trkpt lat="42.5561416335403919219970703125" lon="20.07313988171517848968505859375">
        <ele>2163</ele>
        <time>2026-06-19T11:54:08.000Z</time>
        <extensions>
          <ns3:TrackPointExtension>
            <ns3:atemp>16.0</ns3:atemp>
          </ns3:TrackPointExtension>
        </extensions>
      </trkpt>
      <trkpt lat="42.5561548769474029541015625" lon="20.07315278984606266021728515625">
        <ele>2163</ele>
        <time>2026-06-19T11:54:09.000Z</time>
        <extensions>
          <ns3:TrackPointExtension>
            <ns3:atemp>16.0</ns3:atemp>
          </ns3:TrackPointExtension>
        </extensions>
      </trkpt>
      <trkpt lat="42.55617004819214344024658203125" lon="20.073172487318515777587890625">
        <ele>2163.199951171875</ele>
        <time>2026-06-19T11:54:10.000Z</time>
        <extensions>
          <ns3:TrackPointExtension>
            <ns3:atemp>16.0</ns3:atemp>
          </ns3:TrackPointExtension>
        </extensions>
      </trkpt>
      <trkpt lat="42.55618639290332794189453125" lon="20.07319335825741291046142578125">
        <ele>2163.199951171875</ele>
        <time>2026-06-19T11:54:11.000Z</time>
        <extensions>
          <ns3:TrackPointExtension>
            <ns3:atemp>16.0</ns3:atemp>
          </ns3:TrackPointExtension>
        </extensions>
      </trkpt>
      <trkpt lat="42.5561986304819583892822265625" lon="20.07321381010115146636962890625">
        <ele>2163.39990234375</ele>
        <time>2026-06-19T11:54:12.000Z</time>
        <extensions>
          <ns3:TrackPointExtension>
            <ns3:atemp>16.0</ns3:atemp>
          </ns3:TrackPointExtension>
        </extensions>
      </trkpt>
      <trkpt lat="42.556207515299320220947265625" lon="20.07323308847844600677490234375">
        <ele>2163.39990234375</ele>
        <time>2026-06-19T11:54:13.000Z</time>
        <extensions>
          <ns3:TrackPointExtension>
            <ns3:atemp>16.0</ns3:atemp>
          </ns3:TrackPointExtension>
        </extensions>
      </trkpt>
      <trkpt lat="42.55621531046926975250244140625" lon="20.07325203157961368560791015625">
        <ele>2163.60009765625</ele>
        <time>2026-06-19T11:54:14.000Z</time>
        <extensions>
          <ns3:TrackPointExtension>
            <ns3:atemp>16.0</ns3:atemp>
          </ns3:TrackPointExtension>
        </extensions>
      </trkpt>
      <trkpt lat="42.55622327327728271484375" lon="20.073266364634037017822265625">
        <ele>2163.800048828125</ele>
        <time>2026-06-19T11:54:15.000Z</time>
        <extensions>
          <ns3:TrackPointExtension>
            <ns3:atemp>16.0</ns3:atemp>
          </ns3:TrackPointExtension>
        </extensions>
      </trkpt>
      <trkpt lat="42.55622872151434421539306640625" lon="20.07328304462134838104248046875">
        <ele>2164</ele>
        <time>2026-06-19T11:54:16.000Z</time>
        <extensions>
          <ns3:TrackPointExtension>
            <ns3:atemp>16.0</ns3:atemp>
          </ns3:TrackPointExtension>
        </extensions>
      </trkpt>
      <trkpt lat="42.5562311522662639617919921875" lon="20.0732940249145030975341796875">
        <ele>2164.199951171875</ele>
        <time>2026-06-19T11:54:17.000Z</time>
        <extensions>
          <ns3:TrackPointExtension>
            <ns3:atemp>16.0</ns3:atemp>
          </ns3:TrackPointExtension>
        </extensions>
      </trkpt>
      <trkpt lat="42.55623324774205684661865234375" lon="20.07330768741667270660400390625">
        <ele>2164.39990234375</ele>
        <time>2026-06-19T11:54:18.000Z</time>
        <extensions>
          <ns3:TrackPointExtension>
            <ns3:atemp>16.0</ns3:atemp>
          </ns3:TrackPointExtension>
        </extensions>
      </trkpt>
      <trkpt lat="42.55623391829431056976318359375" lon="20.07332093082368373870849609375">
        <ele>2164.60009765625</ele>
        <time>2026-06-19T11:54:19.000Z</time>
        <extensions>
          <ns3:TrackPointExtension>
            <ns3:atemp>16.0</ns3:atemp>
          </ns3:TrackPointExtension>
        </extensions>
      </trkpt>
      <trkpt lat="42.55623199045658111572265625" lon="20.07332378067076206207275390625">
        <ele>2164.60009765625</ele>
        <time>2026-06-19T11:54:20.000Z</time>
        <extensions>
          <ns3:TrackPointExtension>
            <ns3:atemp>16.0</ns3:atemp>
          </ns3:TrackPointExtension>
        </extensions>
      </trkpt>
      <trkpt lat="42.55623207427561283111572265625" lon="20.0733238644897937774658203125">
        <ele>2164.800048828125</ele>
        <time>2026-06-19T11:54:21.000Z</time>
        <extensions>
          <ns3:TrackPointExtension>
            <ns3:atemp>16.0</ns3:atemp>
          </ns3:TrackPointExtension>
        </extensions>
      </trkpt>
      <trkpt lat="42.55623207427561283111572265625" lon="20.0733238644897937774658203125">
        <ele>2164.800048828125</ele>
        <time>2026-06-19T11:54:22.000Z</time>
        <extensions>
          <ns3:TrackPointExtension>
            <ns3:atemp>16.0</ns3:atemp>
          </ns3:TrackPointExtension>
        </extensions>
      </trkpt>
      <trkpt lat="42.55623224191367626190185546875" lon="20.073324032127857208251953125">
        <ele>2164.800048828125</ele>
        <time>2026-06-19T11:54:23.000Z</time>
        <extensions>
          <ns3:TrackPointExtension>
            <ns3:atemp>16.0</ns3:atemp>
          </ns3:TrackPointExtension>
        </extensions>
      </trkpt>
      <trkpt lat="42.55623710341751575469970703125" lon="20.0733335874974727630615234375">
        <ele>2165</ele>
        <time>2026-06-19T11:54:24.000Z</time>
        <extensions>
          <ns3:TrackPointExtension>
            <ns3:atemp>16.0</ns3:atemp>
          </ns3:TrackPointExtension>
        </extensions>
      </trkpt>
      <trkpt lat="42.55624447949230670928955078125" lon="20.07334448397159576416015625">
        <ele>2165</ele>
        <time>2026-06-19T11:54:25.000Z</time>
        <extensions>
          <ns3:TrackPointExtension>
            <ns3:atemp>16.0</ns3:atemp>
          </ns3:TrackPointExtension>
        </extensions>
      </trkpt>
      <trkpt lat="42.556247413158416748046875" lon="20.07334984838962554931640625">
        <ele>2164.800048828125</ele>
        <time>2026-06-19T11:54:26.000Z</time>
        <extensions>
          <ns3:TrackPointExtension>
            <ns3:atemp>16.0</ns3:atemp>
          </ns3:TrackPointExtension>
        </extensions>
      </trkpt>
      <trkpt lat="42.5562475807964801788330078125" lon="20.07334993220865726470947265625">
        <ele>2164.800048828125</ele>
        <time>2026-06-19T11:54:27.000Z</time>
        <extensions>
          <ns3:TrackPointExtension>
            <ns3:atemp>16.0</ns3:atemp>
          </ns3:TrackPointExtension>
        </extensions>
      </trkpt>
      <trkpt lat="42.55625638179481029510498046875" lon="20.0733594037592411041259765625">
        <ele>2164.800048828125</ele>
        <time>2026-06-19T11:54:28.000Z</time>
        <extensions>
          <ns3:TrackPointExtension>
            <ns3:atemp>16.0</ns3:atemp>
          </ns3:TrackPointExtension>
        </extensions>
      </trkpt>
      <trkpt lat="42.5562616623938083648681640625" lon="20.07336703129112720489501953125">
        <ele>2164.800048828125</ele>
        <time>2026-06-19T11:54:29.000Z</time>
        <extensions>
          <ns3:TrackPointExtension>
            <ns3:atemp>16.0</ns3:atemp>
          </ns3:TrackPointExtension>
        </extensions>
      </trkpt>
      <trkpt lat="42.5562636740505695343017578125" lon="20.073373317718505859375">
        <ele>2164.800048828125</ele>
        <time>2026-06-19T11:54:30.000Z</time>
        <extensions>
          <ns3:TrackPointExtension>
            <ns3:atemp>16.0</ns3:atemp>
          </ns3:TrackPointExtension>
        </extensions>
      </trkpt>
      <trkpt lat="42.5562636740505695343017578125" lon="20.073373317718505859375">
        <ele>2164.800048828125</ele>
        <time>2026-06-19T11:54:31.000Z</time>
        <extensions>
          <ns3:TrackPointExtension>
            <ns3:atemp>16.0</ns3:atemp>
          </ns3:TrackPointExtension>
        </extensions>
      </trkpt>
      <trkpt lat="42.55626417696475982666015625" lon="20.07337340153753757476806640625">
        <ele>2164.800048828125</ele>
        <time>2026-06-19T11:54:32.000Z</time>
        <extensions>
          <ns3:TrackPointExtension>
            <ns3:atemp>16.0</ns3:atemp>
          </ns3:TrackPointExtension>
        </extensions>
      </trkpt>
      <trkpt lat="42.5562636740505695343017578125" lon="20.073373317718505859375">
        <ele>2164.800048828125</ele>
        <time>2026-06-19T11:54:33.000Z</time>
        <extensions>
          <ns3:TrackPointExtension>
            <ns3:atemp>16.0</ns3:atemp>
          </ns3:TrackPointExtension>
        </extensions>
      </trkpt>
      <trkpt lat="42.5562720559537410736083984375" lon="20.07337725721299648284912109375">
        <ele>2164.800048828125</ele>
        <time>2026-06-19T11:54:34.000Z</time>
        <extensions>
          <ns3:TrackPointExtension>
            <ns3:atemp>16.0</ns3:atemp>
          </ns3:TrackPointExtension>
        </extensions>
      </trkpt>
      <trkpt lat="42.5562844611704349517822265625" lon="20.07337809540331363677978515625">
        <ele>2164.800048828125</ele>
        <time>2026-06-19T11:54:35.000Z</time>
        <extensions>
          <ns3:TrackPointExtension>
            <ns3:atemp>16.0</ns3:atemp>
          </ns3:TrackPointExtension>
        </extensions>
      </trkpt>
      <trkpt lat="42.556284628808498382568359375" lon="20.07337809540331363677978515625">
        <ele>2165</ele>
        <time>2026-06-19T11:54:36.000Z</time>
        <extensions>
          <ns3:TrackPointExtension>
            <ns3:atemp>16.0</ns3:atemp>
          </ns3:TrackPointExtension>
        </extensions>
      </trkpt>
      <trkpt lat="42.55630130879580974578857421875" lon="20.07338362745940685272216796875">
        <ele>2165</ele>
        <time>2026-06-19T11:54:37.000Z</time>
        <extensions>
          <ns3:TrackPointExtension>
            <ns3:atemp>16.0</ns3:atemp>
          </ns3:TrackPointExtension>
        </extensions>
      </trkpt>
      <trkpt lat="42.55630952306091785430908203125" lon="20.0733855552971363067626953125">
        <ele>2165</ele>
        <time>2026-06-19T11:54:38.000Z</time>
        <extensions>
          <ns3:TrackPointExtension>
            <ns3:atemp>16.0</ns3:atemp>
          </ns3:TrackPointExtension>
        </extensions>
      </trkpt>
      <trkpt lat="42.55630935542285442352294921875" lon="20.0733872316777706146240234375">
        <ele>2165.199951171875</ele>
        <time>2026-06-19T11:54:39.000Z</time>
        <extensions>
          <ns3:TrackPointExtension>
            <ns3:atemp>16.0</ns3:atemp>
          </ns3:TrackPointExtension>
        </extensions>
      </trkpt>
      <trkpt lat="42.556309439241886138916015625" lon="20.0733872316777706146240234375">
        <ele>2165.199951171875</ele>
        <time>2026-06-19T11:54:40.000Z</time>
        <extensions>
          <ns3:TrackPointExtension>
            <ns3:atemp>16.0</ns3:atemp>
          </ns3:TrackPointExtension>
        </extensions>
      </trkpt>
      <trkpt lat="42.55631639622151851654052734375" lon="20.07338949479162693023681640625">
        <ele>2165.199951171875</ele>
        <time>2026-06-19T11:54:41.000Z</time>
        <extensions>
          <ns3:TrackPointExtension>
            <ns3:atemp>16.0</ns3:atemp>
          </ns3:TrackPointExtension>
        </extensions>
      </trkpt>
      <trkpt lat="42.556322850286960601806640625" lon="20.0733865611255168914794921875">
        <ele>2165.39990234375</ele>
        <time>2026-06-19T11:54:42.000Z</time>
        <extensions>
          <ns3:TrackPointExtension>
            <ns3:atemp>16.0</ns3:atemp>
          </ns3:TrackPointExtension>
        </extensions>
      </trkpt>
      <trkpt lat="42.55632410757243633270263671875" lon="20.07338874042034149169921875">
        <ele>2165.39990234375</ele>
        <time>2026-06-19T11:54:43.000Z</time>
        <extensions>
          <ns3:TrackPointExtension>
            <ns3:atemp>16.0</ns3:atemp>
          </ns3:TrackPointExtension>
        </extensions>
      </trkpt>
      <trkpt lat="42.55632410757243633270263671875" lon="20.07338865660130977630615234375">
        <ele>2165.39990234375</ele>
        <time>2026-06-19T11:54:44.000Z</time>
        <extensions>
          <ns3:TrackPointExtension>
            <ns3:atemp>16.0</ns3:atemp>
          </ns3:TrackPointExtension>
        </extensions>
      </trkpt>
      <trkpt lat="42.55632410757243633270263671875" lon="20.07338865660130977630615234375">
        <ele>2165.39990234375</ele>
        <time>2026-06-19T11:54:45.000Z</time>
        <extensions>
          <ns3:TrackPointExtension>
            <ns3:atemp>16.0</ns3:atemp>
          </ns3:TrackPointExtension>
        </extensions>
      </trkpt>
      <trkpt lat="42.55632410757243633270263671875" lon="20.07338865660130977630615234375">
        <ele>2165.60009765625</ele>
        <time>2026-06-19T11:54:46.000Z</time>
        <extensions>
          <ns3:TrackPointExtension>
            <ns3:atemp>16.0</ns3:atemp>
          </ns3:TrackPointExtension>
        </extensions>
      </trkpt>
      <trkpt lat="42.55632410757243633270263671875" lon="20.07338865660130977630615234375">
        <ele>2165.60009765625</ele>
        <time>2026-06-19T11:54:47.000Z</time>
        <extensions>
          <ns3:TrackPointExtension>
            <ns3:atemp>16.0</ns3:atemp>
          </ns3:TrackPointExtension>
        </extensions>
      </trkpt>
      <trkpt lat="42.55632410757243633270263671875" lon="20.07338865660130977630615234375">
        <ele>2165.60009765625</ele>
        <time>2026-06-19T11:54:48.000Z</time>
        <extensions>
          <ns3:TrackPointExtension>
            <ns3:atemp>16.0</ns3:atemp>
          </ns3:TrackPointExtension>
        </extensions>
      </trkpt>
      <trkpt lat="42.55632410757243633270263671875" lon="20.07338865660130977630615234375">
        <ele>2165.60009765625</ele>
        <time>2026-06-19T11:54:49.000Z</time>
        <extensions>
          <ns3:TrackPointExtension>
            <ns3:atemp>16.0</ns3:atemp>
          </ns3:TrackPointExtension>
        </extensions>
      </trkpt>
      <trkpt lat="42.55632410757243633270263671875" lon="20.07338865660130977630615234375">
        <ele>2165.39990234375</ele>
        <time>2026-06-19T11:54:50.000Z</time>
        <extensions>
          <ns3:TrackPointExtension>
            <ns3:atemp>16.0</ns3:atemp>
          </ns3:TrackPointExtension>
        </extensions>
      </trkpt>
      <trkpt lat="42.55632410757243633270263671875" lon="20.07338865660130977630615234375">
        <ele>2165.199951171875</ele>
        <time>2026-06-19T11:54:51.000Z</time>
        <extensions>
          <ns3:TrackPointExtension>
            <ns3:atemp>16.0</ns3:atemp>
          </ns3:TrackPointExtension>
        </extensions>
      </trkpt>
      <trkpt lat="42.55632410757243633270263671875" lon="20.07338865660130977630615234375">
        <ele>2165.199951171875</ele>
        <time>2026-06-19T11:54:52.000Z</time>
        <extensions>
          <ns3:TrackPointExtension>
            <ns3:atemp>16.0</ns3:atemp>
          </ns3:TrackPointExtension>
        </extensions>
      </trkpt>
      <trkpt lat="42.55632410757243633270263671875" lon="20.07338865660130977630615234375">
        <ele>2165.199951171875</ele>
        <time>2026-06-19T11:54:53.000Z</time>
        <extensions>
          <ns3:TrackPointExtension>
            <ns3:atemp>16.0</ns3:atemp>
          </ns3:TrackPointExtension>
        </extensions>
      </trkpt>
      <trkpt lat="42.55632410757243633270263671875" lon="20.07338865660130977630615234375">
        <ele>2165</ele>
        <time>2026-06-19T11:54:54.000Z</time>
        <extensions>
          <ns3:TrackPointExtension>
            <ns3:atemp>16.0</ns3:atemp>
          </ns3:TrackPointExtension>
        </extensions>
      </trkpt>
      <trkpt lat="42.55632410757243633270263671875" lon="20.07338865660130977630615234375">
        <ele>2165</ele>
        <time>2026-06-19T11:54:55.000Z</time>
        <extensions>
          <ns3:TrackPointExtension>
            <ns3:atemp>16.0</ns3:atemp>
          </ns3:TrackPointExtension>
        </extensions>
      </trkpt>
      <trkpt lat="42.55632410757243633270263671875" lon="20.07338865660130977630615234375">
        <ele>2165</ele>
        <time>2026-06-19T11:54:56.000Z</time>
        <extensions>
          <ns3:TrackPointExtension>
            <ns3:atemp>16.0</ns3:atemp>
          </ns3:TrackPointExtension>
        </extensions>
      </trkpt>
      <trkpt lat="42.55632410757243633270263671875" lon="20.07338865660130977630615234375">
        <ele>2164.800048828125</ele>
        <time>2026-06-19T11:54:57.000Z</time>
        <extensions>
          <ns3:TrackPointExtension>
            <ns3:atemp>16.0</ns3:atemp>
          </ns3:TrackPointExtension>
        </extensions>
      </trkpt>
      <trkpt lat="42.55632410757243633270263671875" lon="20.07338865660130977630615234375">
        <ele>2164.800048828125</ele>
        <time>2026-06-19T11:54:58.000Z</time>
        <extensions>
          <ns3:TrackPointExtension>
            <ns3:atemp>16.0</ns3:atemp>
          </ns3:TrackPointExtension>
        </extensions>
      </trkpt>
      <trkpt lat="42.55632410757243633270263671875" lon="20.07338865660130977630615234375">
        <ele>2164.800048828125</ele>
        <time>2026-06-19T11:54:59.000Z</time>
        <extensions>
          <ns3:TrackPointExtension>
            <ns3:atemp>16.0</ns3:atemp>
          </ns3:TrackPointExtension>
        </extensions>
      </trkpt>
      <trkpt lat="42.55632410757243633270263671875" lon="20.07338865660130977630615234375">
        <ele>2164.800048828125</ele>
        <time>2026-06-19T11:55:00.000Z</time>
        <extensions>
          <ns3:TrackPointExtension>
            <ns3:atemp>16.0</ns3:atemp>
          </ns3:TrackPointExtension>
        </extensions>
      </trkpt>
      <trkpt lat="42.55632410757243633270263671875" lon="20.07338865660130977630615234375">
        <ele>2164.60009765625</ele>
        <time>2026-06-19T11:55:01.000Z</time>
        <extensions>
          <ns3:TrackPointExtension>
            <ns3:atemp>16.0</ns3:atemp>
          </ns3:TrackPointExtension>
        </extensions>
      </trkpt>
      <trkpt lat="42.55632410757243633270263671875" lon="20.07338865660130977630615234375">
        <ele>2164.60009765625</ele>
        <time>2026-06-19T11:55:02.000Z</time>
        <extensions>
          <ns3:TrackPointExtension>
            <ns3:atemp>16.0</ns3:atemp>
          </ns3:TrackPointExtension>
        </extensions>
      </trkpt>
      <trkpt lat="42.55632410757243633270263671875" lon="20.07338865660130977630615234375">
        <ele>2164.60009765625</ele>
        <time>2026-06-19T11:55:03.000Z</time>
        <extensions>
          <ns3:TrackPointExtension>
            <ns3:atemp>16.0</ns3:atemp>
          </ns3:TrackPointExtension>
        </extensions>
      </trkpt>
      <trkpt lat="42.55632410757243633270263671875" lon="20.07338865660130977630615234375">
        <ele>2164.60009765625</ele>
        <time>2026-06-19T11:55:04.000Z</time>
        <extensions>
          <ns3:TrackPointExtension>
            <ns3:atemp>16.0</ns3:atemp>
          </ns3:TrackPointExtension>
        </extensions>
      </trkpt>
      <trkpt lat="42.55632410757243633270263671875" lon="20.07338865660130977630615234375">
        <ele>2164.60009765625</ele>
        <time>2026-06-19T11:55:05.000Z</time>
        <extensions>
          <ns3:TrackPointExtension>
            <ns3:atemp>16.0</ns3:atemp>
          </ns3:TrackPointExtension>
        </extensions>
      </trkpt>
      <trkpt lat="42.55632410757243633270263671875" lon="20.07338865660130977630615234375">
        <ele>2164.39990234375</ele>
        <time>2026-06-19T11:55:06.000Z</time>
        <extensions>
          <ns3:TrackPointExtension>
            <ns3:atemp>16.0</ns3:atemp>
          </ns3:TrackPointExtension>
        </extensions>
      </trkpt>
      <trkpt lat="42.5563251972198486328125" lon="20.0733872316777706146240234375">
        <ele>2164.39990234375</ele>
        <time>2026-06-19T11:55:07.000Z</time>
        <extensions>
          <ns3:TrackPointExtension>
            <ns3:atemp>16.0</ns3:atemp>
          </ns3:TrackPointExtension>
        </extensions>
      </trkpt>
      <trkpt lat="42.55633215419948101043701171875" lon="20.07338396273553371429443359375">
        <ele>2164.39990234375</ele>
        <time>2026-06-19T11:55:08.000Z</time>
        <extensions>
          <ns3:TrackPointExtension>
            <ns3:atemp>16.0</ns3:atemp>
          </ns3:TrackPointExtension>
        </extensions>
      </trkpt>
      <trkpt lat="42.55632410757243633270263671875" lon="20.07338865660130977630615234375">
        <ele>2164.60009765625</ele>
        <time>2026-06-19T11:55:09.000Z</time>
        <extensions>
          <ns3:TrackPointExtension>
            <ns3:atemp>16.0</ns3:atemp>
          </ns3:TrackPointExtension>
        </extensions>
      </trkpt>
      <trkpt lat="42.55632410757243633270263671875" lon="20.07338865660130977630615234375">
        <ele>2164.60009765625</ele>
        <time>2026-06-19T11:55:10.000Z</time>
        <extensions>
          <ns3:TrackPointExtension>
            <ns3:atemp>16.0</ns3:atemp>
          </ns3:TrackPointExtension>
        </extensions>
      </trkpt>
      <trkpt lat="42.5563307292759418487548828125" lon="20.07338413037359714508056640625">
        <ele>2164.800048828125</ele>
        <time>2026-06-19T11:55:11.000Z</time>
        <extensions>
          <ns3:TrackPointExtension>
            <ns3:atemp>16.0</ns3:atemp>
          </ns3:TrackPointExtension>
        </extensions>
      </trkpt>
      <trkpt lat="42.55634271539747714996337890625" lon="20.0733781792223453521728515625">
        <ele>2165</ele>
        <time>2026-06-19T11:55:12.000Z</time>
        <extensions>
          <ns3:TrackPointExtension>
            <ns3:atemp>16.0</ns3:atemp>
          </ns3:TrackPointExtension>
        </extensions>
      </trkpt>
      <trkpt lat="42.55636082030832767486572265625" lon="20.07337172515690326690673828125">
        <ele>2165</ele>
        <time>2026-06-19T11:55:13.000Z</time>
        <extensions>
          <ns3:TrackPointExtension>
            <ns3:atemp>16.0</ns3:atemp>
          </ns3:TrackPointExtension>
        </extensions>
      </trkpt>
      <trkpt lat="42.55637808702886104583740234375" lon="20.07336602546274662017822265625">
        <ele>2165.199951171875</ele>
        <time>2026-06-19T11:55:14.000Z</time>
        <extensions>
          <ns3:TrackPointExtension>
            <ns3:atemp>16.0</ns3:atemp>
          </ns3:TrackPointExtension>
        </extensions>
      </trkpt>
      <trkpt lat="42.55638998933136463165283203125" lon="20.0733640976250171661376953125">
        <ele>2165.39990234375</ele>
        <time>2026-06-19T11:55:15.000Z</time>
        <extensions>
          <ns3:TrackPointExtension>
            <ns3:atemp>16.0</ns3:atemp>
          </ns3:TrackPointExtension>
        </extensions>
      </trkpt>
      <trkpt lat="42.55639518611133098602294921875" lon="20.07336384616792201995849609375">
        <ele>2165.60009765625</ele>
        <time>2026-06-19T11:55:16.000Z</time>
        <extensions>
          <ns3:TrackPointExtension>
            <ns3:atemp>16.0</ns3:atemp>
          </ns3:TrackPointExtension>
        </extensions>
      </trkpt>
      <trkpt lat="42.55640189163386821746826171875" lon="20.07335781119763851165771484375">
        <ele>2165.800048828125</ele>
        <time>2026-06-19T11:55:17.000Z</time>
        <extensions>
          <ns3:TrackPointExtension>
            <ns3:atemp>16.0</ns3:atemp>
          </ns3:TrackPointExtension>
        </extensions>
      </trkpt>
      <trkpt lat="42.55640926770865917205810546875" lon="20.07335194386541843414306640625">
        <ele>2166.199951171875</ele>
        <time>2026-06-19T11:55:18.000Z</time>
        <extensions>
          <ns3:TrackPointExtension>
            <ns3:atemp>16.0</ns3:atemp>
          </ns3:TrackPointExtension>
        </extensions>
      </trkpt>
      <trkpt lat="42.55641865544021129608154296875" lon="20.0733513571321964263916015625">
        <ele>2166.39990234375</ele>
        <time>2026-06-19T11:55:19.000Z</time>
        <extensions>
          <ns3:TrackPointExtension>
            <ns3:atemp>16.0</ns3:atemp>
          </ns3:TrackPointExtension>
        </extensions>
      </trkpt>
      <trkpt lat="42.55642686970531940460205078125" lon="20.07335144095122814178466796875">
        <ele>2166.800048828125</ele>
        <time>2026-06-19T11:55:20.000Z</time>
        <extensions>
          <ns3:TrackPointExtension>
            <ns3:atemp>16.0</ns3:atemp>
          </ns3:TrackPointExtension>
        </extensions>
      </trkpt>
      <trkpt lat="42.55643424578011035919189453125" lon="20.07335227914154529571533203125">
        <ele>2167</ele>
        <time>2026-06-19T11:55:21.000Z</time>
        <extensions>
          <ns3:TrackPointExtension>
            <ns3:atemp>16.0</ns3:atemp>
          </ns3:TrackPointExtension>
        </extensions>
      </trkpt>
      <trkpt lat="42.5564443878829479217529296875" lon="20.0733540393412113189697265625">
        <ele>2167.39990234375</ele>
        <time>2026-06-19T11:55:22.000Z</time>
        <extensions>
          <ns3:TrackPointExtension>
            <ns3:atemp>16.0</ns3:atemp>
          </ns3:TrackPointExtension>
        </extensions>
      </trkpt>
      <trkpt lat="42.556456625461578369140625" lon="20.07335814647376537322998046875">
        <ele>2167.60009765625</ele>
        <time>2026-06-19T11:55:23.000Z</time>
        <extensions>
          <ns3:TrackPointExtension>
            <ns3:atemp>16.0</ns3:atemp>
          </ns3:TrackPointExtension>
        </extensions>
      </trkpt>
      <trkpt lat="42.55646861158311367034912109375" lon="20.07336317561566829681396484375">
        <ele>2167.800048828125</ele>
        <time>2026-06-19T11:55:24.000Z</time>
        <extensions>
          <ns3:TrackPointExtension>
            <ns3:atemp>16.0</ns3:atemp>
          </ns3:TrackPointExtension>
        </extensions>
      </trkpt>
      <trkpt lat="42.55647833459079265594482421875" lon="20.07336921058595180511474609375">
        <ele>2168</ele>
        <time>2026-06-19T11:55:25.000Z</time>
        <extensions>
          <ns3:TrackPointExtension>
            <ns3:atemp>16.0</ns3:atemp>
          </ns3:TrackPointExtension>
        </extensions>
      </trkpt>
      <trkpt lat="42.5564869679510593414306640625" lon="20.07337457500398159027099609375">
        <ele>2168.39990234375</ele>
        <time>2026-06-19T11:55:26.000Z</time>
        <extensions>
          <ns3:TrackPointExtension>
            <ns3:atemp>16.0</ns3:atemp>
          </ns3:TrackPointExtension>
        </extensions>
      </trkpt>
      <trkpt lat="42.55649325437843799591064453125" lon="20.073377676308155059814453125">
        <ele>2168.60009765625</ele>
        <time>2026-06-19T11:55:27.000Z</time>
        <extensions>
          <ns3:TrackPointExtension>
            <ns3:atemp>16.0</ns3:atemp>
          </ns3:TrackPointExtension>
        </extensions>
      </trkpt>
      <trkpt lat="42.556495182216167449951171875" lon="20.07337893359363079071044921875">
        <ele>2169</ele>
        <time>2026-06-19T11:55:28.000Z</time>
        <extensions>
          <ns3:TrackPointExtension>
            <ns3:atemp>16.0</ns3:atemp>
          </ns3:TrackPointExtension>
        </extensions>
      </trkpt>
      <trkpt lat="42.5564896501600742340087890625" lon="20.0733798556029796600341796875">
        <ele>2169.199951171875</ele>
        <time>2026-06-19T11:55:29.000Z</time>
        <extensions>
          <ns3:TrackPointExtension>
            <ns3:atemp>16.0</ns3:atemp>
          </ns3:TrackPointExtension>
        </extensions>
      </trkpt>
      <trkpt lat="42.5564856268465518951416015625" lon="20.07338203489780426025390625">
        <ele>2169.60009765625</ele>
        <time>2026-06-19T11:55:30.000Z</time>
        <extensions>
          <ns3:TrackPointExtension>
            <ns3:atemp>16.0</ns3:atemp>
          </ns3:TrackPointExtension>
        </extensions>
      </trkpt>
      <trkpt lat="42.55648571066558361053466796875" lon="20.07338211871683597564697265625">
        <ele>2169.800048828125</ele>
        <time>2026-06-19T11:55:31.000Z</time>
        <extensions>
          <ns3:TrackPointExtension>
            <ns3:atemp>16.0</ns3:atemp>
          </ns3:TrackPointExtension>
        </extensions>
      </trkpt>
      <trkpt lat="42.55648571066558361053466796875" lon="20.07338211871683597564697265625">
        <ele>2170</ele>
        <time>2026-06-19T11:55:32.000Z</time>
        <extensions>
          <ns3:TrackPointExtension>
            <ns3:atemp>16.0</ns3:atemp>
          </ns3:TrackPointExtension>
        </extensions>
      </trkpt>
      <trkpt lat="42.55648571066558361053466796875" lon="20.07338211871683597564697265625">
        <ele>2170</ele>
        <time>2026-06-19T11:55:33.000Z</time>
        <extensions>
          <ns3:TrackPointExtension>
            <ns3:atemp>16.0</ns3:atemp>
          </ns3:TrackPointExtension>
        </extensions>
      </trkpt>
      <trkpt lat="42.55648571066558361053466796875" lon="20.07338211871683597564697265625">
        <ele>2170.199951171875</ele>
        <time>2026-06-19T11:55:34.000Z</time>
        <extensions>
          <ns3:TrackPointExtension>
            <ns3:atemp>16.0</ns3:atemp>
          </ns3:TrackPointExtension>
        </extensions>
      </trkpt>
      <trkpt lat="42.5564861297607421875" lon="20.0733827054500579833984375">
        <ele>2170.199951171875</ele>
        <time>2026-06-19T11:55:35.000Z</time>
        <extensions>
          <ns3:TrackPointExtension>
            <ns3:atemp>16.0</ns3:atemp>
          </ns3:TrackPointExtension>
        </extensions>
      </trkpt>
      <trkpt lat="42.55648571066558361053466796875" lon="20.07338211871683597564697265625">
        <ele>2170.199951171875</ele>
        <time>2026-06-19T11:55:36.000Z</time>
        <extensions>
          <ns3:TrackPointExtension>
            <ns3:atemp>16.0</ns3:atemp>
          </ns3:TrackPointExtension>
        </extensions>
      </trkpt>
      <trkpt lat="42.55649073980748653411865234375" lon="20.07339150644838809967041015625">
        <ele>2170.199951171875</ele>
        <time>2026-06-19T11:55:37.000Z</time>
        <extensions>
          <ns3:TrackPointExtension>
            <ns3:atemp>16.0</ns3:atemp>
          </ns3:TrackPointExtension>
        </extensions>
      </trkpt>
      <trkpt lat="42.55650616250932216644287109375" lon="20.07340173237025737762451171875">
        <ele>2170.199951171875</ele>
        <time>2026-06-19T11:55:38.000Z</time>
        <extensions>
          <ns3:TrackPointExtension>
            <ns3:atemp>16.0</ns3:atemp>
          </ns3:TrackPointExtension>
        </extensions>
      </trkpt>
      <trkpt lat="42.55652158521115779876708984375" lon="20.07341782562434673309326171875">
        <ele>2170.199951171875</ele>
        <time>2026-06-19T11:55:39.000Z</time>
        <extensions>
          <ns3:TrackPointExtension>
            <ns3:atemp>16.0</ns3:atemp>
          </ns3:TrackPointExtension>
        </extensions>
      </trkpt>
      <trkpt lat="42.55653348751366138458251953125" lon="20.0734304822981357574462890625">
        <ele>2170.39990234375</ele>
        <time>2026-06-19T11:55:40.000Z</time>
        <extensions>
          <ns3:TrackPointExtension>
            <ns3:atemp>16.0</ns3:atemp>
          </ns3:TrackPointExtension>
        </extensions>
      </trkpt>
      <trkpt lat="42.55654488690197467803955078125" lon="20.07344448007643222808837890625">
        <ele>2170.39990234375</ele>
        <time>2026-06-19T11:55:41.000Z</time>
        <extensions>
          <ns3:TrackPointExtension>
            <ns3:atemp>16.0</ns3:atemp>
          </ns3:TrackPointExtension>
        </extensions>
      </trkpt>
      <trkpt lat="42.55655628629028797149658203125" lon="20.07346610538661479949951171875">
        <ele>2170.60009765625</ele>
        <time>2026-06-19T11:55:42.000Z</time>
        <extensions>
          <ns3:TrackPointExtension>
            <ns3:atemp>16.0</ns3:atemp>
          </ns3:TrackPointExtension>
        </extensions>
      </trkpt>
      <trkpt lat="42.55657288245856761932373046875" lon="20.07348395884037017822265625">
        <ele>2170.60009765625</ele>
        <time>2026-06-19T11:55:43.000Z</time>
        <extensions>
          <ns3:TrackPointExtension>
            <ns3:atemp>16.0</ns3:atemp>
          </ns3:TrackPointExtension>
        </extensions>
      </trkpt>
      <trkpt lat="42.55658780224621295928955078125" lon="20.07350130937993526458740234375">
        <ele>2170.800048828125</ele>
        <time>2026-06-19T11:55:44.000Z</time>
        <extensions>
          <ns3:TrackPointExtension>
            <ns3:atemp>16.0</ns3:atemp>
          </ns3:TrackPointExtension>
        </extensions>
      </trkpt>
      <trkpt lat="42.55660347640514373779296875" lon="20.07352008484303951263427734375">
        <ele>2171</ele>
        <time>2026-06-19T11:55:45.000Z</time>
        <extensions>
          <ns3:TrackPointExtension>
            <ns3:atemp>16.0</ns3:atemp>
          </ns3:TrackPointExtension>
        </extensions>
      </trkpt>
      <trkpt lat="42.5566162168979644775390625" lon="20.07354053668677806854248046875">
        <ele>2171.39990234375</ele>
        <time>2026-06-19T11:55:46.000Z</time>
        <extensions>
          <ns3:TrackPointExtension>
            <ns3:atemp>16.0</ns3:atemp>
          </ns3:TrackPointExtension>
        </extensions>
      </trkpt>
      <trkpt lat="42.55662686191499233245849609375" lon="20.07356517948210239410400390625">
        <ele>2171.800048828125</ele>
        <time>2026-06-19T11:55:47.000Z</time>
        <extensions>
          <ns3:TrackPointExtension>
            <ns3:atemp>16.0</ns3:atemp>
          </ns3:TrackPointExtension>
        </extensions>
      </trkpt>
      <trkpt lat="42.55663876421749591827392578125" lon="20.073587894439697265625">
        <ele>2172.199951171875</ele>
        <time>2026-06-19T11:55:48.000Z</time>
        <extensions>
          <ns3:TrackPointExtension>
            <ns3:atemp>16.0</ns3:atemp>
          </ns3:TrackPointExtension>
        </extensions>
      </trkpt>
      <trkpt lat="42.5566559471189975738525390625" lon="20.0736138783395290374755859375">
        <ele>2172.60009765625</ele>
        <time>2026-06-19T11:55:49.000Z</time>
        <extensions>
          <ns3:TrackPointExtension>
            <ns3:atemp>16.0</ns3:atemp>
          </ns3:TrackPointExtension>
        </extensions>
      </trkpt>
      <trkpt lat="42.55667547695338726043701171875" lon="20.07363617420196533203125">
        <ele>2172.800048828125</ele>
        <time>2026-06-19T11:55:50.000Z</time>
        <extensions>
          <ns3:TrackPointExtension>
            <ns3:atemp>16.0</ns3:atemp>
          </ns3:TrackPointExtension>
        </extensions>
      </trkpt>
      <trkpt lat="42.55669341422617435455322265625" lon="20.0736557878553867340087890625">
        <ele>2173.199951171875</ele>
        <time>2026-06-19T11:55:51.000Z</time>
        <extensions>
          <ns3:TrackPointExtension>
            <ns3:atemp>16.0</ns3:atemp>
          </ns3:TrackPointExtension>
        </extensions>
      </trkpt>
      <trkpt lat="42.5567085854709148406982421875" lon="20.0736722163856029510498046875">
        <ele>2173.60009765625</ele>
        <time>2026-06-19T11:55:52.000Z</time>
        <extensions>
          <ns3:TrackPointExtension>
            <ns3:atemp>16.0</ns3:atemp>
          </ns3:TrackPointExtension>
        </extensions>
      </trkpt>
      <trkpt lat="42.55672006867825984954833984375" lon="20.07369426079094409942626953125">
        <ele>2174</ele>
        <time>2026-06-19T11:55:53.000Z</time>
        <extensions>
          <ns3:TrackPointExtension>
            <ns3:atemp>16.0</ns3:atemp>
          </ns3:TrackPointExtension>
        </extensions>
      </trkpt>
      <trkpt lat="42.55673599429428577423095703125" lon="20.07371068932116031646728515625">
        <ele>2174.199951171875</ele>
        <time>2026-06-19T11:55:54.000Z</time>
        <extensions>
          <ns3:TrackPointExtension>
            <ns3:atemp>16.0</ns3:atemp>
          </ns3:TrackPointExtension>
        </extensions>
      </trkpt>
      <trkpt lat="42.5567518360912799835205078125" lon="20.07372929714620113372802734375">
        <ele>2174.60009765625</ele>
        <time>2026-06-19T11:55:55.000Z</time>
        <extensions>
          <ns3:TrackPointExtension>
            <ns3:atemp>16.0</ns3:atemp>
          </ns3:TrackPointExtension>
        </extensions>
      </trkpt>
      <trkpt lat="42.55676918663084506988525390625" lon="20.0737503357231616973876953125">
        <ele>2174.800048828125</ele>
        <time>2026-06-19T11:55:56.000Z</time>
        <extensions>
          <ns3:TrackPointExtension>
            <ns3:atemp>16.0</ns3:atemp>
          </ns3:TrackPointExtension>
        </extensions>
      </trkpt>
      <trkpt lat="42.55678947083652019500732421875" lon="20.073770619928836822509765625">
        <ele>2175</ele>
        <time>2026-06-19T11:55:57.000Z</time>
        <extensions>
          <ns3:TrackPointExtension>
            <ns3:atemp>16.0</ns3:atemp>
          </ns3:TrackPointExtension>
        </extensions>
      </trkpt>
      <trkpt lat="42.5568064860999584197998046875" lon="20.07379182614386081695556640625">
        <ele>2175</ele>
        <time>2026-06-19T11:55:58.000Z</time>
        <extensions>
          <ns3:TrackPointExtension>
            <ns3:atemp>16.0</ns3:atemp>
          </ns3:TrackPointExtension>
        </extensions>
      </trkpt>
      <trkpt lat="42.5568209029734134674072265625" lon="20.0738113559782505035400390625">
        <ele>2175.39990234375</ele>
        <time>2026-06-19T11:55:59.000Z</time>
        <extensions>
          <ns3:TrackPointExtension>
            <ns3:atemp>16.0</ns3:atemp>
          </ns3:TrackPointExtension>
        </extensions>
      </trkpt>
      <trkpt lat="42.5568369962275028228759765625" lon="20.07382820360362529754638671875">
        <ele>2175.60009765625</ele>
        <time>2026-06-19T11:56:00.000Z</time>
        <extensions>
          <ns3:TrackPointExtension>
            <ns3:atemp>16.0</ns3:atemp>
          </ns3:TrackPointExtension>
        </extensions>
      </trkpt>
      <trkpt lat="42.55685032345354557037353515625" lon="20.073847733438014984130859375">
        <ele>2175.800048828125</ele>
        <time>2026-06-19T11:56:01.000Z</time>
        <extensions>
          <ns3:TrackPointExtension>
            <ns3:atemp>16.0</ns3:atemp>
          </ns3:TrackPointExtension>
        </extensions>
      </trkpt>
      <trkpt lat="42.5568641535937786102294921875" lon="20.0738680176436901092529296875">
        <ele>2176</ele>
        <time>2026-06-19T11:56:02.000Z</time>
        <extensions>
          <ns3:TrackPointExtension>
            <ns3:atemp>16.0</ns3:atemp>
          </ns3:TrackPointExtension>
        </extensions>
      </trkpt>
      <trkpt lat="42.55687840282917022705078125" lon="20.0738854520022869110107421875">
        <ele>2176.199951171875</ele>
        <time>2026-06-19T11:56:03.000Z</time>
        <extensions>
          <ns3:TrackPointExtension>
            <ns3:atemp>16.0</ns3:atemp>
          </ns3:TrackPointExtension>
        </extensions>
      </trkpt>
      <trkpt lat="42.55689206533133983612060546875" lon="20.07390439510345458984375">
        <ele>2176.39990234375</ele>
        <time>2026-06-19T11:56:04.000Z</time>
        <extensions>
          <ns3:TrackPointExtension>
            <ns3:atemp>16.0</ns3:atemp>
          </ns3:TrackPointExtension>
        </extensions>
      </trkpt>
      <trkpt lat="42.5569063983857631683349609375" lon="20.0739209912717342376708984375">
        <ele>2176.800048828125</ele>
        <time>2026-06-19T11:56:05.000Z</time>
        <extensions>
          <ns3:TrackPointExtension>
            <ns3:atemp>16.0</ns3:atemp>
          </ns3:TrackPointExtension>
        </extensions>
      </trkpt>
      <trkpt lat="42.556922324001789093017578125" lon="20.0739354081451892852783203125">
        <ele>2177</ele>
        <time>2026-06-19T11:56:06.000Z</time>
        <extensions>
          <ns3:TrackPointExtension>
            <ns3:atemp>16.0</ns3:atemp>
          </ns3:TrackPointExtension>
        </extensions>
      </trkpt>
      <trkpt lat="42.5569392554461956024169921875" lon="20.073946975171566009521484375">
        <ele>2177.39990234375</ele>
        <time>2026-06-19T11:56:07.000Z</time>
        <extensions>
          <ns3:TrackPointExtension>
            <ns3:atemp>16.0</ns3:atemp>
          </ns3:TrackPointExtension>
        </extensions>
      </trkpt>
      <trkpt lat="42.556959204375743865966796875" lon="20.07395091466605663299560546875">
        <ele>2177.60009765625</ele>
        <time>2026-06-19T11:56:08.000Z</time>
        <extensions>
          <ns3:TrackPointExtension>
            <ns3:atemp>16.0</ns3:atemp>
          </ns3:TrackPointExtension>
        </extensions>
      </trkpt>
      <trkpt lat="42.55697722546756267547607421875" lon="20.07395477034151554107666015625">
        <ele>2178</ele>
        <time>2026-06-19T11:56:09.000Z</time>
        <extensions>
          <ns3:TrackPointExtension>
            <ns3:atemp>16.0</ns3:atemp>
          </ns3:TrackPointExtension>
        </extensions>
      </trkpt>
      <trkpt lat="42.5569949112832546234130859375" lon="20.073963738977909088134765625">
        <ele>2178.199951171875</ele>
        <time>2026-06-19T11:56:10.000Z</time>
        <extensions>
          <ns3:TrackPointExtension>
            <ns3:atemp>16.0</ns3:atemp>
          </ns3:TrackPointExtension>
        </extensions>
      </trkpt>
      <trkpt lat="42.5570130161941051483154296875" lon="20.07396784611046314239501953125">
        <ele>2178.60009765625</ele>
        <time>2026-06-19T11:56:11.000Z</time>
        <extensions>
          <ns3:TrackPointExtension>
            <ns3:atemp>16.0</ns3:atemp>
          </ns3:TrackPointExtension>
        </extensions>
      </trkpt>
      <trkpt lat="42.55703237839043140411376953125" lon="20.07397103123366832733154296875">
        <ele>2179</ele>
        <time>2026-06-19T11:56:12.000Z</time>
        <extensions>
          <ns3:TrackPointExtension>
            <ns3:atemp>16.0</ns3:atemp>
          </ns3:TrackPointExtension>
        </extensions>
      </trkpt>
      <trkpt lat="42.55705065093934535980224609375" lon="20.073976814746856689453125">
        <ele>2179.39990234375</ele>
        <time>2026-06-19T11:56:13.000Z</time>
        <extensions>
          <ns3:TrackPointExtension>
            <ns3:atemp>16.0</ns3:atemp>
          </ns3:TrackPointExtension>
        </extensions>
      </trkpt>
      <trkpt lat="42.5570710189640522003173828125" lon="20.0739835202693939208984375">
        <ele>2179.800048828125</ele>
        <time>2026-06-19T11:56:14.000Z</time>
        <extensions>
          <ns3:TrackPointExtension>
            <ns3:atemp>16.0</ns3:atemp>
          </ns3:TrackPointExtension>
        </extensions>
      </trkpt>
      <trkpt lat="42.5570894591510295867919921875" lon="20.07399383001029491424560546875">
        <ele>2180.199951171875</ele>
        <time>2026-06-19T11:56:15.000Z</time>
        <extensions>
          <ns3:TrackPointExtension>
            <ns3:atemp>16.0</ns3:atemp>
          </ns3:TrackPointExtension>
        </extensions>
      </trkpt>
      <trkpt lat="42.557105384767055511474609375" lon="20.074007324874401092529296875">
        <ele>2180.39990234375</ele>
        <time>2026-06-19T11:56:16.000Z</time>
        <extensions>
          <ns3:TrackPointExtension>
            <ns3:atemp>16.0</ns3:atemp>
          </ns3:TrackPointExtension>
        </extensions>
      </trkpt>
      <trkpt lat="42.55712206475436687469482421875" lon="20.074018053710460662841796875">
        <ele>2180.800048828125</ele>
        <time>2026-06-19T11:56:17.000Z</time>
        <extensions>
          <ns3:TrackPointExtension>
            <ns3:atemp>16.0</ns3:atemp>
          </ns3:TrackPointExtension>
        </extensions>
      </trkpt>
      <trkpt lat="42.55713966675102710723876953125" lon="20.0740329734981060028076171875">
        <ele>2181.199951171875</ele>
        <time>2026-06-19T11:56:18.000Z</time>
        <extensions>
          <ns3:TrackPointExtension>
            <ns3:atemp>16.0</ns3:atemp>
          </ns3:TrackPointExtension>
        </extensions>
      </trkpt>
      <trkpt lat="42.55715743638575077056884765625" lon="20.07404630072414875030517578125">
        <ele>2181.39990234375</ele>
        <time>2026-06-19T11:56:19.000Z</time>
        <extensions>
          <ns3:TrackPointExtension>
            <ns3:atemp>16.0</ns3:atemp>
          </ns3:TrackPointExtension>
        </extensions>
      </trkpt>
      <trkpt lat="42.55717369727790355682373046875" lon="20.074057281017303466796875">
        <ele>2181.800048828125</ele>
        <time>2026-06-19T11:56:20.000Z</time>
        <extensions>
          <ns3:TrackPointExtension>
            <ns3:atemp>16.0</ns3:atemp>
          </ns3:TrackPointExtension>
        </extensions>
      </trkpt>
      <trkpt lat="42.557188533246517181396484375" lon="20.07407077588140964508056640625">
        <ele>2182</ele>
        <time>2026-06-19T11:56:21.000Z</time>
        <extensions>
          <ns3:TrackPointExtension>
            <ns3:atemp>16.0</ns3:atemp>
          </ns3:TrackPointExtension>
        </extensions>
      </trkpt>
      <trkpt lat="42.5572034530341625213623046875" lon="20.0740819238126277923583984375">
        <ele>2182.39990234375</ele>
        <time>2026-06-19T11:56:22.000Z</time>
        <extensions>
          <ns3:TrackPointExtension>
            <ns3:atemp>16.0</ns3:atemp>
          </ns3:TrackPointExtension>
        </extensions>
      </trkpt>
      <trkpt lat="42.557219378650188446044921875" lon="20.07409675978124141693115234375">
        <ele>2182.800048828125</ele>
        <time>2026-06-19T11:56:23.000Z</time>
        <extensions>
          <ns3:TrackPointExtension>
            <ns3:atemp>16.0</ns3:atemp>
          </ns3:TrackPointExtension>
        </extensions>
      </trkpt>
      <trkpt lat="42.55723555572330951690673828125" lon="20.07411151193082332611083984375">
        <ele>2183.199951171875</ele>
        <time>2026-06-19T11:56:24.000Z</time>
        <extensions>
          <ns3:TrackPointExtension>
            <ns3:atemp>16.0</ns3:atemp>
          </ns3:TrackPointExtension>
        </extensions>
      </trkpt>
      <trkpt lat="42.55725231952965259552001953125" lon="20.0741258449852466583251953125">
        <ele>2183.60009765625</ele>
        <time>2026-06-19T11:56:25.000Z</time>
        <extensions>
          <ns3:TrackPointExtension>
            <ns3:atemp>16.0</ns3:atemp>
          </ns3:TrackPointExtension>
        </extensions>
      </trkpt>
      <trkpt lat="42.5572711788117885589599609375" lon="20.0741399265825748443603515625">
        <ele>2183.800048828125</ele>
        <time>2026-06-19T11:56:26.000Z</time>
        <extensions>
          <ns3:TrackPointExtension>
            <ns3:atemp>16.0</ns3:atemp>
          </ns3:TrackPointExtension>
        </extensions>
      </trkpt>
      <trkpt lat="42.5572867691516876220703125" lon="20.074158199131488800048828125">
        <ele>2184</ele>
        <time>2026-06-19T11:56:27.000Z</time>
        <extensions>
          <ns3:TrackPointExtension>
            <ns3:atemp>16.0</ns3:atemp>
          </ns3:TrackPointExtension>
        </extensions>
      </trkpt>
      <trkpt lat="42.55730210803449153900146484375" lon="20.07417839951813220977783203125">
        <ele>2184.199951171875</ele>
        <time>2026-06-19T11:56:28.000Z</time>
        <extensions>
          <ns3:TrackPointExtension>
            <ns3:atemp>16.0</ns3:atemp>
          </ns3:TrackPointExtension>
        </extensions>
      </trkpt>
      <trkpt lat="42.55731853656470775604248046875" lon="20.074195079505443572998046875">
        <ele>2184.39990234375</ele>
        <time>2026-06-19T11:56:29.000Z</time>
        <extensions>
          <ns3:TrackPointExtension>
            <ns3:atemp>16.0</ns3:atemp>
          </ns3:TrackPointExtension>
        </extensions>
      </trkpt>
      <trkpt lat="42.55733597092330455780029296875" lon="20.07421008311212062835693359375">
        <ele>2184.800048828125</ele>
        <time>2026-06-19T11:56:30.000Z</time>
        <extensions>
          <ns3:TrackPointExtension>
            <ns3:atemp>16.0</ns3:atemp>
          </ns3:TrackPointExtension>
        </extensions>
      </trkpt>
      <trkpt lat="42.55735290236771106719970703125" lon="20.07422282360494136810302734375">
        <ele>2185.199951171875</ele>
        <time>2026-06-19T11:56:31.000Z</time>
        <extensions>
          <ns3:TrackPointExtension>
            <ns3:atemp>16.0</ns3:atemp>
          </ns3:TrackPointExtension>
        </extensions>
      </trkpt>
      <trkpt lat="42.55737318657338619232177734375" lon="20.0742351450026035308837890625">
        <ele>2185.60009765625</ele>
        <time>2026-06-19T11:56:32.000Z</time>
        <extensions>
          <ns3:TrackPointExtension>
            <ns3:atemp>16.0</ns3:atemp>
          </ns3:TrackPointExtension>
        </extensions>
      </trkpt>
      <trkpt lat="42.557393051683902740478515625" lon="20.07424981333315372467041015625">
        <ele>2186</ele>
        <time>2026-06-19T11:56:33.000Z</time>
        <extensions>
          <ns3:TrackPointExtension>
            <ns3:atemp>16.0</ns3:atemp>
          </ns3:TrackPointExtension>
        </extensions>
      </trkpt>
      <trkpt lat="42.5574146769940853118896484375" lon="20.07426272146403789520263671875">
        <ele>2186</ele>
        <time>2026-06-19T11:56:34.000Z</time>
        <extensions>
          <ns3:TrackPointExtension>
            <ns3:atemp>16.0</ns3:atemp>
          </ns3:TrackPointExtension>
        </extensions>
      </trkpt>
      <trkpt lat="42.55743353627622127532958984375" lon="20.07427814416587352752685546875">
        <ele>2186.199951171875</ele>
        <time>2026-06-19T11:56:35.000Z</time>
        <extensions>
          <ns3:TrackPointExtension>
            <ns3:atemp>16.0</ns3:atemp>
          </ns3:TrackPointExtension>
        </extensions>
      </trkpt>
      <trkpt lat="42.557455413043498992919921875" lon="20.07429390214383602142333984375">
        <ele>2186.39990234375</ele>
        <time>2026-06-19T11:56:36.000Z</time>
        <extensions>
          <ns3:TrackPointExtension>
            <ns3:atemp>16.0</ns3:atemp>
          </ns3:TrackPointExtension>
        </extensions>
      </trkpt>
      <trkpt lat="42.55748047493398189544677734375" lon="20.0743115879595279693603515625">
        <ele>2186.39990234375</ele>
        <time>2026-06-19T11:56:37.000Z</time>
        <extensions>
          <ns3:TrackPointExtension>
            <ns3:atemp>16.0</ns3:atemp>
          </ns3:TrackPointExtension>
        </extensions>
      </trkpt>
      <trkpt lat="42.55750327371060848236083984375" lon="20.074330866336822509765625">
        <ele>2186.60009765625</ele>
        <time>2026-06-19T11:56:38.000Z</time>
        <extensions>
          <ns3:TrackPointExtension>
            <ns3:atemp>16.0</ns3:atemp>
          </ns3:TrackPointExtension>
        </extensions>
      </trkpt>
      <trkpt lat="42.55753160454332828521728515625" lon="20.07434704340994358062744140625">
        <ele>2186.800048828125</ele>
        <time>2026-06-19T11:56:39.000Z</time>
        <extensions>
          <ns3:TrackPointExtension>
            <ns3:atemp>16.0</ns3:atemp>
          </ns3:TrackPointExtension>
        </extensions>
      </trkpt>
      <trkpt lat="42.55756630562245845794677734375" lon="20.07435777224600315093994140625">
        <ele>2186.800048828125</ele>
        <time>2026-06-19T11:56:40.000Z</time>
        <extensions>
          <ns3:TrackPointExtension>
            <ns3:atemp>16.0</ns3:atemp>
          </ns3:TrackPointExtension>
        </extensions>
      </trkpt>
      <trkpt lat="42.55760301835834980010986328125" lon="20.0743719376623630523681640625">
        <ele>2186.800048828125</ele>
        <time>2026-06-19T11:56:41.000Z</time>
        <extensions>
          <ns3:TrackPointExtension>
            <ns3:atemp>16.0</ns3:atemp>
          </ns3:TrackPointExtension>
        </extensions>
      </trkpt>
      <trkpt lat="42.55763269029557704925537109375" lon="20.07438593544065952301025390625">
        <ele>2186.800048828125</ele>
        <time>2026-06-19T11:56:42.000Z</time>
        <extensions>
          <ns3:TrackPointExtension>
            <ns3:atemp>16.0</ns3:atemp>
          </ns3:TrackPointExtension>
        </extensions>
      </trkpt>
      <trkpt lat="42.55766202695667743682861328125" lon="20.07440127432346343994140625">
        <ele>2187</ele>
        <time>2026-06-19T11:56:43.000Z</time>
        <extensions>
          <ns3:TrackPointExtension>
            <ns3:atemp>16.0</ns3:atemp>
          </ns3:TrackPointExtension>
        </extensions>
      </trkpt>
      <trkpt lat="42.55768499337136745452880859375" lon="20.0744151882827281951904296875">
        <ele>2187.199951171875</ele>
        <time>2026-06-19T11:56:44.000Z</time>
        <extensions>
          <ns3:TrackPointExtension>
            <ns3:atemp>16.0</ns3:atemp>
          </ns3:TrackPointExtension>
        </extensions>
      </trkpt>
      <trkpt lat="42.55770510993897914886474609375" lon="20.074425749480724334716796875">
        <ele>2187.39990234375</ele>
        <time>2026-06-19T11:56:45.000Z</time>
        <extensions>
          <ns3:TrackPointExtension>
            <ns3:atemp>16.0</ns3:atemp>
          </ns3:TrackPointExtension>
        </extensions>
      </trkpt>
      <trkpt lat="42.55772924982011318206787109375" lon="20.07443505339324474334716796875">
        <ele>2187.60009765625</ele>
        <time>2026-06-19T11:56:46.000Z</time>
        <extensions>
          <ns3:TrackPointExtension>
            <ns3:atemp>16.0</ns3:atemp>
          </ns3:TrackPointExtension>
        </extensions>
      </trkpt>
      <trkpt lat="42.55775590427219867706298828125" lon="20.07443857379257678985595703125">
        <ele>2187.800048828125</ele>
        <time>2026-06-19T11:56:47.000Z</time>
        <extensions>
          <ns3:TrackPointExtension>
            <ns3:atemp>16.0</ns3:atemp>
          </ns3:TrackPointExtension>
        </extensions>
      </trkpt>
      <trkpt lat="42.55777903832495212554931640625" lon="20.0744410045444965362548828125">
        <ele>2188</ele>
        <time>2026-06-19T11:56:48.000Z</time>
        <extensions>
          <ns3:TrackPointExtension>
            <ns3:atemp>16.0</ns3:atemp>
          </ns3:TrackPointExtension>
        </extensions>
      </trkpt>
      <trkpt lat="42.5578015856444835662841796875" lon="20.07443890906870365142822265625">
        <ele>2188.199951171875</ele>
        <time>2026-06-19T11:56:49.000Z</time>
        <extensions>
          <ns3:TrackPointExtension>
            <ns3:atemp>17.0</ns3:atemp>
          </ns3:TrackPointExtension>
        </extensions>
      </trkpt>
      <trkpt lat="42.55782497115433216094970703125" lon="20.07443320937454700469970703125">
        <ele>2188.60009765625</ele>
        <time>2026-06-19T11:56:50.000Z</time>
        <extensions>
          <ns3:TrackPointExtension>
            <ns3:atemp>17.0</ns3:atemp>
          </ns3:TrackPointExtension>
        </extensions>
      </trkpt>
      <trkpt lat="42.5578500330448150634765625" lon="20.07442533038556575775146484375">
        <ele>2189</ele>
        <time>2026-06-19T11:56:51.000Z</time>
        <extensions>
          <ns3:TrackPointExtension>
            <ns3:atemp>17.0</ns3:atemp>
          </ns3:TrackPointExtension>
        </extensions>
      </trkpt>
      <trkpt lat="42.5578713230788707733154296875" lon="20.07441661320626735687255859375">
        <ele>2189.39990234375</ele>
        <time>2026-06-19T11:56:52.000Z</time>
        <extensions>
          <ns3:TrackPointExtension>
            <ns3:atemp>17.0</ns3:atemp>
          </ns3:TrackPointExtension>
        </extensions>
      </trkpt>
      <trkpt lat="42.557885237038135528564453125" lon="20.0744084827601909637451171875">
        <ele>2189.800048828125</ele>
        <time>2026-06-19T11:56:53.000Z</time>
        <extensions>
          <ns3:TrackPointExtension>
            <ns3:atemp>17.0</ns3:atemp>
          </ns3:TrackPointExtension>
        </extensions>
      </trkpt>
      <trkpt lat="42.55790577270090579986572265625" lon="20.07440102286636829376220703125">
        <ele>2190.199951171875</ele>
        <time>2026-06-19T11:56:54.000Z</time>
        <extensions>
          <ns3:TrackPointExtension>
            <ns3:atemp>17.0</ns3:atemp>
          </ns3:TrackPointExtension>
        </extensions>
      </trkpt>
      <trkpt lat="42.55792387761175632476806640625" lon="20.07439599372446537017822265625">
        <ele>2190.39990234375</ele>
        <time>2026-06-19T11:56:55.000Z</time>
        <extensions>
          <ns3:TrackPointExtension>
            <ns3:atemp>17.0</ns3:atemp>
          </ns3:TrackPointExtension>
        </extensions>
      </trkpt>
      <trkpt lat="42.557942904531955718994140625" lon="20.0743923895061016082763671875">
        <ele>2190.60009765625</ele>
        <time>2026-06-19T11:56:56.000Z</time>
        <extensions>
          <ns3:TrackPointExtension>
            <ns3:atemp>17.0</ns3:atemp>
          </ns3:TrackPointExtension>
        </extensions>
      </trkpt>
      <trkpt lat="42.55795774050056934356689453125" lon="20.07438677363097667694091796875">
        <ele>2190.800048828125</ele>
        <time>2026-06-19T11:56:57.000Z</time>
        <extensions>
          <ns3:TrackPointExtension>
            <ns3:atemp>17.0</ns3:atemp>
          </ns3:TrackPointExtension>
        </extensions>
      </trkpt>
      <trkpt lat="42.557977773249149322509765625" lon="20.074382163584232330322265625">
        <ele>2191.199951171875</ele>
        <time>2026-06-19T11:56:58.000Z</time>
        <extensions>
          <ns3:TrackPointExtension>
            <ns3:atemp>17.0</ns3:atemp>
          </ns3:TrackPointExtension>
        </extensions>
      </trkpt>
      <trkpt lat="42.55799663253128528594970703125" lon="20.07438090629875659942626953125">
        <ele>2191.39990234375</ele>
        <time>2026-06-19T11:56:59.000Z</time>
        <extensions>
          <ns3:TrackPointExtension>
            <ns3:atemp>16.0</ns3:atemp>
          </ns3:TrackPointExtension>
        </extensions>
      </trkpt>
      <trkpt lat="42.55801406688988208770751953125" lon="20.07438308559358119964599609375">
        <ele>2191.800048828125</ele>
        <time>2026-06-19T11:57:00.000Z</time>
        <extensions>
          <ns3:TrackPointExtension>
            <ns3:atemp>16.0</ns3:atemp>
          </ns3:TrackPointExtension>
        </extensions>
      </trkpt>
      <trkpt lat="42.55803552456200122833251953125" lon="20.0743923895061016082763671875">
        <ele>2192.199951171875</ele>
        <time>2026-06-19T11:57:01.000Z</time>
        <extensions>
          <ns3:TrackPointExtension>
            <ns3:atemp>17.0</ns3:atemp>
          </ns3:TrackPointExtension>
        </extensions>
      </trkpt>
      <trkpt lat="42.5580431520938873291015625" lon="20.0743920542299747467041015625">
        <ele>2192.60009765625</ele>
        <time>2026-06-19T11:57:02.000Z</time>
        <extensions>
          <ns3:TrackPointExtension>
            <ns3:atemp>17.0</ns3:atemp>
          </ns3:TrackPointExtension>
        </extensions>
      </trkpt>
      <trkpt lat="42.55804323591291904449462890625" lon="20.074392221868038177490234375">
        <ele>2193</ele>
        <time>2026-06-19T11:57:03.000Z</time>
        <extensions>
          <ns3:TrackPointExtension>
            <ns3:atemp>17.0</ns3:atemp>
          </ns3:TrackPointExtension>
        </extensions>
      </trkpt>
      <trkpt lat="42.55804323591291904449462890625" lon="20.074392221868038177490234375">
        <ele>2193.39990234375</ele>
        <time>2026-06-19T11:57:04.000Z</time>
        <extensions>
          <ns3:TrackPointExtension>
            <ns3:atemp>17.0</ns3:atemp>
          </ns3:TrackPointExtension>
        </extensions>
      </trkpt>
      <trkpt lat="42.55804373882710933685302734375" lon="20.07439280860126018524169921875">
        <ele>2193.800048828125</ele>
        <time>2026-06-19T11:57:05.000Z</time>
        <extensions>
          <ns3:TrackPointExtension>
            <ns3:atemp>17.0</ns3:atemp>
          </ns3:TrackPointExtension>
        </extensions>
      </trkpt>
      <trkpt lat="42.55805698223412036895751953125" lon="20.07441342808306217193603515625">
        <ele>2194</ele>
        <time>2026-06-19T11:57:06.000Z</time>
        <extensions>
          <ns3:TrackPointExtension>
            <ns3:atemp>17.0</ns3:atemp>
          </ns3:TrackPointExtension>
        </extensions>
      </trkpt>
      <trkpt lat="42.55805647931993007659912109375" lon="20.074422061443328857421875">
        <ele>2194.199951171875</ele>
        <time>2026-06-19T11:57:07.000Z</time>
        <extensions>
          <ns3:TrackPointExtension>
            <ns3:atemp>17.0</ns3:atemp>
          </ns3:TrackPointExtension>
        </extensions>
      </trkpt>
      <trkpt lat="42.5580565631389617919921875" lon="20.0744222290813922882080078125">
        <ele>2194.39990234375</ele>
        <time>2026-06-19T11:57:08.000Z</time>
        <extensions>
          <ns3:TrackPointExtension>
            <ns3:atemp>17.0</ns3:atemp>
          </ns3:TrackPointExtension>
        </extensions>
      </trkpt>
      <trkpt lat="42.55805664695799350738525390625" lon="20.074422396719455718994140625">
        <ele>2194.60009765625</ele>
        <time>2026-06-19T11:57:09.000Z</time>
        <extensions>
          <ns3:TrackPointExtension>
            <ns3:atemp>17.0</ns3:atemp>
          </ns3:TrackPointExtension>
        </extensions>
      </trkpt>
      <trkpt lat="42.5580641068518161773681640625" lon="20.074433796107769012451171875">
        <ele>2194.60009765625</ele>
        <time>2026-06-19T11:57:10.000Z</time>
        <extensions>
          <ns3:TrackPointExtension>
            <ns3:atemp>17.0</ns3:atemp>
          </ns3:TrackPointExtension>
        </extensions>
      </trkpt>
      <trkpt lat="42.55807324312627315521240234375" lon="20.0744460336863994598388671875">
        <ele>2194.800048828125</ele>
        <time>2026-06-19T11:57:11.000Z</time>
        <extensions>
          <ns3:TrackPointExtension>
            <ns3:atemp>17.0</ns3:atemp>
          </ns3:TrackPointExtension>
        </extensions>
      </trkpt>
      <trkpt lat="42.55808548070490360260009765625" lon="20.07446271367371082305908203125">
        <ele>2194.800048828125</ele>
        <time>2026-06-19T11:57:12.000Z</time>
        <extensions>
          <ns3:TrackPointExtension>
            <ns3:atemp>17.0</ns3:atemp>
          </ns3:TrackPointExtension>
        </extensions>
      </trkpt>
      <trkpt lat="42.5580969639122486114501953125" lon="20.0744855962693691253662109375">
        <ele>2194.800048828125</ele>
        <time>2026-06-19T11:57:13.000Z</time>
        <extensions>
          <ns3:TrackPointExtension>
            <ns3:atemp>17.0</ns3:atemp>
          </ns3:TrackPointExtension>
        </extensions>
      </trkpt>
      <trkpt lat="42.558107860386371612548828125" lon="20.07450629957020282745361328125">
        <ele>2194.60009765625</ele>
        <time>2026-06-19T11:57:14.000Z</time>
        <extensions>
          <ns3:TrackPointExtension>
            <ns3:atemp>17.0</ns3:atemp>
          </ns3:TrackPointExtension>
        </extensions>
      </trkpt>
      <trkpt lat="42.55811817012727260589599609375" lon="20.07452507503330707550048828125">
        <ele>2194.60009765625</ele>
        <time>2026-06-19T11:57:15.000Z</time>
        <extensions>
          <ns3:TrackPointExtension>
            <ns3:atemp>17.0</ns3:atemp>
          </ns3:TrackPointExtension>
        </extensions>
      </trkpt>
      <trkpt lat="42.5581284798681735992431640625" lon="20.07454636506736278533935546875">
        <ele>2194.800048828125</ele>
        <time>2026-06-19T11:57:16.000Z</time>
        <extensions>
          <ns3:TrackPointExtension>
            <ns3:atemp>17.0</ns3:atemp>
          </ns3:TrackPointExtension>
        </extensions>
      </trkpt>
      <trkpt lat="42.558136023581027984619140625" lon="20.07456681691110134124755859375">
        <ele>2195.199951171875</ele>
        <time>2026-06-19T11:57:17.000Z</time>
        <extensions>
          <ns3:TrackPointExtension>
            <ns3:atemp>17.0</ns3:atemp>
          </ns3:TrackPointExtension>
        </extensions>
      </trkpt>
      <trkpt lat="42.55814398638904094696044921875" lon="20.0745979137718677520751953125">
        <ele>2195.60009765625</ele>
        <time>2026-06-19T11:57:18.000Z</time>
        <extensions>
          <ns3:TrackPointExtension>
            <ns3:atemp>17.0</ns3:atemp>
          </ns3:TrackPointExtension>
        </extensions>
      </trkpt>
      <trkpt lat="42.558148093521595001220703125" lon="20.074628926813602447509765625">
        <ele>2196</ele>
        <time>2026-06-19T11:57:19.000Z</time>
        <extensions>
          <ns3:TrackPointExtension>
            <ns3:atemp>17.0</ns3:atemp>
          </ns3:TrackPointExtension>
        </extensions>
      </trkpt>
      <trkpt lat="42.55815437994897365570068359375" lon="20.074657090008258819580078125">
        <ele>2196.199951171875</ele>
        <time>2026-06-19T11:57:20.000Z</time>
        <extensions>
          <ns3:TrackPointExtension>
            <ns3:atemp>17.0</ns3:atemp>
          </ns3:TrackPointExtension>
        </extensions>
      </trkpt>
      <trkpt lat="42.55816628225147724151611328125" lon="20.07468466646969318389892578125">
        <ele>2196.60009765625</ele>
        <time>2026-06-19T11:57:21.000Z</time>
        <extensions>
          <ns3:TrackPointExtension>
            <ns3:atemp>17.0</ns3:atemp>
          </ns3:TrackPointExtension>
        </extensions>
      </trkpt>
      <trkpt lat="42.5581794418394565582275390625" lon="20.07470545358955860137939453125">
        <ele>2196.800048828125</ele>
        <time>2026-06-19T11:57:22.000Z</time>
        <extensions>
          <ns3:TrackPointExtension>
            <ns3:atemp>17.0</ns3:atemp>
          </ns3:TrackPointExtension>
        </extensions>
      </trkpt>
      <trkpt lat="42.5581915117800235748291015625" lon="20.07472825236618518829345703125">
        <ele>2197.199951171875</ele>
        <time>2026-06-19T11:57:23.000Z</time>
        <extensions>
          <ns3:TrackPointExtension>
            <ns3:atemp>17.0</ns3:atemp>
          </ns3:TrackPointExtension>
        </extensions>
      </trkpt>
      <trkpt lat="42.55820500664412975311279296875" lon="20.07475172169506549835205078125">
        <ele>2197.800048828125</ele>
        <time>2026-06-19T11:57:24.000Z</time>
        <extensions>
          <ns3:TrackPointExtension>
            <ns3:atemp>17.0</ns3:atemp>
          </ns3:TrackPointExtension>
        </extensions>
      </trkpt>
      <trkpt lat="42.55821674130856990814208984375" lon="20.07477653212845325469970703125">
        <ele>2198.199951171875</ele>
        <time>2026-06-19T11:57:25.000Z</time>
        <extensions>
          <ns3:TrackPointExtension>
            <ns3:atemp>17.0</ns3:atemp>
          </ns3:TrackPointExtension>
        </extensions>
      </trkpt>
      <trkpt lat="42.5582290627062320709228515625" lon="20.074797905981540679931640625">
        <ele>2198.60009765625</ele>
        <time>2026-06-19T11:57:26.000Z</time>
        <extensions>
          <ns3:TrackPointExtension>
            <ns3:atemp>17.0</ns3:atemp>
          </ns3:TrackPointExtension>
        </extensions>
      </trkpt>
      <trkpt lat="42.55824121646583080291748046875" lon="20.0748185254633426666259765625">
        <ele>2199.199951171875</ele>
        <time>2026-06-19T11:57:27.000Z</time>
        <extensions>
          <ns3:TrackPointExtension>
            <ns3:atemp>17.0</ns3:atemp>
          </ns3:TrackPointExtension>
        </extensions>
      </trkpt>
      <trkpt lat="42.5582558847963809967041015625" lon="20.07483671419322490692138671875">
        <ele>2199.60009765625</ele>
        <time>2026-06-19T11:57:28.000Z</time>
        <extensions>
          <ns3:TrackPointExtension>
            <ns3:atemp>17.0</ns3:atemp>
          </ns3:TrackPointExtension>
        </extensions>
      </trkpt>
      <trkpt lat="42.558272145688533782958984375" lon="20.0748600997030735015869140625">
        <ele>2200</ele>
        <time>2026-06-19T11:57:29.000Z</time>
        <extensions>
          <ns3:TrackPointExtension>
            <ns3:atemp>17.0</ns3:atemp>
          </ns3:TrackPointExtension>
        </extensions>
      </trkpt>
      <trkpt lat="42.558286227285861968994140625" lon="20.07488063536584377288818359375">
        <ele>2200.60009765625</ele>
        <time>2026-06-19T11:57:30.000Z</time>
        <extensions>
          <ns3:TrackPointExtension>
            <ns3:atemp>17.0</ns3:atemp>
          </ns3:TrackPointExtension>
        </extensions>
      </trkpt>
      <trkpt lat="42.558295615017414093017578125" lon="20.07490024901926517486572265625">
        <ele>2201</ele>
        <time>2026-06-19T11:57:31.000Z</time>
        <extensions>
          <ns3:TrackPointExtension>
            <ns3:atemp>17.0</ns3:atemp>
          </ns3:TrackPointExtension>
        </extensions>
      </trkpt>
      <trkpt lat="42.55830089561641216278076171875" lon="20.07492321543395519256591796875">
        <ele>2201.39990234375</ele>
        <time>2026-06-19T11:57:32.000Z</time>
        <extensions>
          <ns3:TrackPointExtension>
            <ns3:atemp>17.0</ns3:atemp>
          </ns3:TrackPointExtension>
        </extensions>
      </trkpt>
      <trkpt lat="42.55830190144479274749755859375" lon="20.0749442540109157562255859375">
        <ele>2201.800048828125</ele>
        <time>2026-06-19T11:57:33.000Z</time>
        <extensions>
          <ns3:TrackPointExtension>
            <ns3:atemp>17.0</ns3:atemp>
          </ns3:TrackPointExtension>
        </extensions>
      </trkpt>
      <trkpt lat="42.5583014823496341705322265625" lon="20.074961185455322265625">
        <ele>2202.199951171875</ele>
        <time>2026-06-19T11:57:34.000Z</time>
        <extensions>
          <ns3:TrackPointExtension>
            <ns3:atemp>17.0</ns3:atemp>
          </ns3:TrackPointExtension>
        </extensions>
      </trkpt>
      <trkpt lat="42.558296956121921539306640625" lon="20.07497660815715789794921875">
        <ele>2202.60009765625</ele>
        <time>2026-06-19T11:57:35.000Z</time>
        <extensions>
          <ns3:TrackPointExtension>
            <ns3:atemp>17.0</ns3:atemp>
          </ns3:TrackPointExtension>
        </extensions>
      </trkpt>
      <trkpt lat="42.5582847185432910919189453125" lon="20.07499412633478641510009765625">
        <ele>2203</ele>
        <time>2026-06-19T11:57:36.000Z</time>
        <extensions>
          <ns3:TrackPointExtension>
            <ns3:atemp>17.0</ns3:atemp>
          </ns3:TrackPointExtension>
        </extensions>
      </trkpt>
      <trkpt lat="42.55826451815664768218994140625" lon="20.07501541636884212493896484375">
        <ele>2203.199951171875</ele>
        <time>2026-06-19T11:57:37.000Z</time>
        <extensions>
          <ns3:TrackPointExtension>
            <ns3:atemp>17.0</ns3:atemp>
          </ns3:TrackPointExtension>
        </extensions>
      </trkpt>
      <trkpt lat="42.55824364721775054931640625" lon="20.075035281479358673095703125">
        <ele>2203.199951171875</ele>
        <time>2026-06-19T11:57:38.000Z</time>
        <extensions>
          <ns3:TrackPointExtension>
            <ns3:atemp>17.0</ns3:atemp>
          </ns3:TrackPointExtension>
        </extensions>
      </trkpt>
      <trkpt lat="42.55822562612593173980712890625" lon="20.0750559009611606597900390625">
        <ele>2203.199951171875</ele>
        <time>2026-06-19T11:57:39.000Z</time>
        <extensions>
          <ns3:TrackPointExtension>
            <ns3:atemp>17.0</ns3:atemp>
          </ns3:TrackPointExtension>
        </extensions>
      </trkpt>
      <trkpt lat="42.5582052581012248992919921875" lon="20.0750736705958843231201171875">
        <ele>2203.39990234375</ele>
        <time>2026-06-19T11:57:40.000Z</time>
        <extensions>
          <ns3:TrackPointExtension>
            <ns3:atemp>17.0</ns3:atemp>
          </ns3:TrackPointExtension>
        </extensions>
      </trkpt>
      <trkpt lat="42.5581871531903743743896484375" lon="20.07509202696382999420166015625">
        <ele>2203.39990234375</ele>
        <time>2026-06-19T11:57:41.000Z</time>
        <extensions>
          <ns3:TrackPointExtension>
            <ns3:atemp>17.0</ns3:atemp>
          </ns3:TrackPointExtension>
        </extensions>
      </trkpt>
      <trkpt lat="42.55816745571792125701904296875" lon="20.07510828785598278045654296875">
        <ele>2203.39990234375</ele>
        <time>2026-06-19T11:57:42.000Z</time>
        <extensions>
          <ns3:TrackPointExtension>
            <ns3:atemp>17.0</ns3:atemp>
          </ns3:TrackPointExtension>
        </extensions>
      </trkpt>
      <trkpt lat="42.55814935080707073211669921875" lon="20.07512454874813556671142578125">
        <ele>2203.39990234375</ele>
        <time>2026-06-19T11:57:43.000Z</time>
        <extensions>
          <ns3:TrackPointExtension>
            <ns3:atemp>17.0</ns3:atemp>
          </ns3:TrackPointExtension>
        </extensions>
      </trkpt>
      <trkpt lat="42.55812806077301502227783203125" lon="20.07514399476349353790283203125">
        <ele>2203.39990234375</ele>
        <time>2026-06-19T11:57:44.000Z</time>
        <extensions>
          <ns3:TrackPointExtension>
            <ns3:atemp>17.0</ns3:atemp>
          </ns3:TrackPointExtension>
        </extensions>
      </trkpt>
      <trkpt lat="42.558105178177356719970703125" lon="20.07516679354012012481689453125">
        <ele>2203.60009765625</ele>
        <time>2026-06-19T11:57:45.000Z</time>
        <extensions>
          <ns3:TrackPointExtension>
            <ns3:atemp>17.0</ns3:atemp>
          </ns3:TrackPointExtension>
        </extensions>
      </trkpt>
      <trkpt lat="42.55807944573462009429931640625" lon="20.075188837945461273193359375">
        <ele>2203.60009765625</ele>
        <time>2026-06-19T11:57:46.000Z</time>
        <extensions>
          <ns3:TrackPointExtension>
            <ns3:atemp>17.0</ns3:atemp>
          </ns3:TrackPointExtension>
        </extensions>
      </trkpt>
      <trkpt lat="42.558055222034454345703125" lon="20.0752131454646587371826171875">
        <ele>2203.60009765625</ele>
        <time>2026-06-19T11:57:47.000Z</time>
        <extensions>
          <ns3:TrackPointExtension>
            <ns3:atemp>17.0</ns3:atemp>
          </ns3:TrackPointExtension>
        </extensions>
      </trkpt>
      <trkpt lat="42.55802663974463939666748046875" lon="20.07523812353610992431640625">
        <ele>2203.60009765625</ele>
        <time>2026-06-19T11:57:48.000Z</time>
        <extensions>
          <ns3:TrackPointExtension>
            <ns3:atemp>17.0</ns3:atemp>
          </ns3:TrackPointExtension>
        </extensions>
      </trkpt>
      <trkpt lat="42.55799847654998302459716796875" lon="20.07526653818786144256591796875">
        <ele>2203.39990234375</ele>
        <time>2026-06-19T11:57:49.000Z</time>
        <extensions>
          <ns3:TrackPointExtension>
            <ns3:atemp>17.0</ns3:atemp>
          </ns3:TrackPointExtension>
        </extensions>
      </trkpt>
      <trkpt lat="42.5579658709466457366943359375" lon="20.07529713213443756103515625">
        <ele>2203.39990234375</ele>
        <time>2026-06-19T11:57:50.000Z</time>
        <extensions>
          <ns3:TrackPointExtension>
            <ns3:atemp>17.0</ns3:atemp>
          </ns3:TrackPointExtension>
        </extensions>
      </trkpt>
      <trkpt lat="42.55793561227619647979736328125" lon="20.07532521151006221771240234375">
        <ele>2203.199951171875</ele>
        <time>2026-06-19T11:57:51.000Z</time>
        <extensions>
          <ns3:TrackPointExtension>
            <ns3:atemp>17.0</ns3:atemp>
          </ns3:TrackPointExtension>
        </extensions>
      </trkpt>
      <trkpt lat="42.5579009950160980224609375" lon="20.07535136304795742034912109375">
        <ele>2203</ele>
        <time>2026-06-19T11:57:52.000Z</time>
        <extensions>
          <ns3:TrackPointExtension>
            <ns3:atemp>17.0</ns3:atemp>
          </ns3:TrackPointExtension>
        </extensions>
      </trkpt>
      <trkpt lat="42.5578582473099231719970703125" lon="20.075377933681011199951171875">
        <ele>2202.800048828125</ele>
        <time>2026-06-19T11:57:53.000Z</time>
        <extensions>
          <ns3:TrackPointExtension>
            <ns3:atemp>17.0</ns3:atemp>
          </ns3:TrackPointExtension>
        </extensions>
      </trkpt>
      <trkpt lat="42.55781985819339752197265625" lon="20.0754050910472869873046875">
        <ele>2202.39990234375</ele>
        <time>2026-06-19T11:57:54.000Z</time>
        <extensions>
          <ns3:TrackPointExtension>
            <ns3:atemp>17.0</ns3:atemp>
          </ns3:TrackPointExtension>
        </extensions>
      </trkpt>
      <trkpt lat="42.55778876133263111114501953125" lon="20.075435936450958251953125">
        <ele>2202.199951171875</ele>
        <time>2026-06-19T11:57:55.000Z</time>
        <extensions>
          <ns3:TrackPointExtension>
            <ns3:atemp>17.0</ns3:atemp>
          </ns3:TrackPointExtension>
        </extensions>
      </trkpt>
      <trkpt lat="42.557767219841480255126953125" lon="20.07546585984528064727783203125">
        <ele>2202</ele>
        <time>2026-06-19T11:57:56.000Z</time>
        <extensions>
          <ns3:TrackPointExtension>
            <ns3:atemp>17.0</ns3:atemp>
          </ns3:TrackPointExtension>
        </extensions>
      </trkpt>
      <trkpt lat="42.557752132415771484375" lon="20.07549033500254154205322265625">
        <ele>2201.800048828125</ele>
        <time>2026-06-19T11:57:57.000Z</time>
        <extensions>
          <ns3:TrackPointExtension>
            <ns3:atemp>17.0</ns3:atemp>
          </ns3:TrackPointExtension>
        </extensions>
      </trkpt>
      <trkpt lat="42.557736374437808990478515625" lon="20.075510032474994659423828125">
        <ele>2201.60009765625</ele>
        <time>2026-06-19T11:57:58.000Z</time>
        <extensions>
          <ns3:TrackPointExtension>
            <ns3:atemp>17.0</ns3:atemp>
          </ns3:TrackPointExtension>
        </extensions>
      </trkpt>
      <trkpt lat="42.55771969445049762725830078125" lon="20.07553408853709697723388671875">
        <ele>2201.60009765625</ele>
        <time>2026-06-19T11:57:59.000Z</time>
        <extensions>
          <ns3:TrackPointExtension>
            <ns3:atemp>17.0</ns3:atemp>
          </ns3:TrackPointExtension>
        </extensions>
      </trkpt>
      <trkpt lat="42.55770863033831119537353515625" lon="20.07555789314210414886474609375">
        <ele>2201.800048828125</ele>
        <time>2026-06-19T11:58:00.000Z</time>
        <extensions>
          <ns3:TrackPointExtension>
            <ns3:atemp>17.0</ns3:atemp>
          </ns3:TrackPointExtension>
        </extensions>
      </trkpt>
      <trkpt lat="42.55769806914031505584716796875" lon="20.07557876408100128173828125">
        <ele>2202</ele>
        <time>2026-06-19T11:58:01.000Z</time>
        <extensions>
          <ns3:TrackPointExtension>
            <ns3:atemp>17.0</ns3:atemp>
          </ns3:TrackPointExtension>
        </extensions>
      </trkpt>
      <trkpt lat="42.55768868140876293182373046875" lon="20.0755913369357585906982421875">
        <ele>2202</ele>
        <time>2026-06-19T11:58:02.000Z</time>
        <extensions>
          <ns3:TrackPointExtension>
            <ns3:atemp>17.0</ns3:atemp>
          </ns3:TrackPointExtension>
        </extensions>
      </trkpt>
      <trkpt lat="42.5576869212090969085693359375" lon="20.07558890618383884429931640625">
        <ele>2202.199951171875</ele>
        <time>2026-06-19T11:58:03.000Z</time>
        <extensions>
          <ns3:TrackPointExtension>
            <ns3:atemp>17.0</ns3:atemp>
          </ns3:TrackPointExtension>
        </extensions>
      </trkpt>
      <trkpt lat="42.55768700502812862396240234375" lon="20.0755889900028705596923828125">
        <ele>2202.199951171875</ele>
        <time>2026-06-19T11:58:04.000Z</time>
        <extensions>
          <ns3:TrackPointExtension>
            <ns3:atemp>17.0</ns3:atemp>
          </ns3:TrackPointExtension>
        </extensions>
      </trkpt>
      <trkpt lat="42.55768708884716033935546875" lon="20.075589157640933990478515625">
        <ele>2202.39990234375</ele>
        <time>2026-06-19T11:58:05.000Z</time>
        <extensions>
          <ns3:TrackPointExtension>
            <ns3:atemp>17.0</ns3:atemp>
          </ns3:TrackPointExtension>
        </extensions>
      </trkpt>
      <trkpt lat="42.5576919503509998321533203125" lon="20.07559795863926410675048828125">
        <ele>2202.39990234375</ele>
        <time>2026-06-19T11:58:06.000Z</time>
        <extensions>
          <ns3:TrackPointExtension>
            <ns3:atemp>17.0</ns3:atemp>
          </ns3:TrackPointExtension>
        </extensions>
      </trkpt>
      <trkpt lat="42.55768700502812862396240234375" lon="20.0755889900028705596923828125">
        <ele>2202.60009765625</ele>
        <time>2026-06-19T11:58:07.000Z</time>
        <extensions>
          <ns3:TrackPointExtension>
            <ns3:atemp>17.0</ns3:atemp>
          </ns3:TrackPointExtension>
        </extensions>
      </trkpt>
      <trkpt lat="42.55768700502812862396240234375" lon="20.0755889900028705596923828125">
        <ele>2202.60009765625</ele>
        <time>2026-06-19T11:58:08.000Z</time>
        <extensions>
          <ns3:TrackPointExtension>
            <ns3:atemp>17.0</ns3:atemp>
          </ns3:TrackPointExtension>
        </extensions>
      </trkpt>
      <trkpt lat="42.55769387818872928619384765625" lon="20.07559929974377155303955078125">
        <ele>2202.60009765625</ele>
        <time>2026-06-19T11:58:09.000Z</time>
        <extensions>
          <ns3:TrackPointExtension>
            <ns3:atemp>17.0</ns3:atemp>
          </ns3:TrackPointExtension>
        </extensions>
      </trkpt>
      <trkpt lat="42.55769245326519012451171875" lon="20.0756062567234039306640625">
        <ele>2202.60009765625</ele>
        <time>2026-06-19T11:58:10.000Z</time>
        <extensions>
          <ns3:TrackPointExtension>
            <ns3:atemp>17.0</ns3:atemp>
          </ns3:TrackPointExtension>
        </extensions>
      </trkpt>
      <trkpt lat="42.55769236944615840911865234375" lon="20.07560634054243564605712890625">
        <ele>2202.60009765625</ele>
        <time>2026-06-19T11:58:11.000Z</time>
        <extensions>
          <ns3:TrackPointExtension>
            <ns3:atemp>17.0</ns3:atemp>
          </ns3:TrackPointExtension>
        </extensions>
      </trkpt>
      <trkpt lat="42.55768306553363800048828125" lon="20.0756158120930194854736328125">
        <ele>2202.60009765625</ele>
        <time>2026-06-19T11:58:12.000Z</time>
        <extensions>
          <ns3:TrackPointExtension>
            <ns3:atemp>17.0</ns3:atemp>
          </ns3:TrackPointExtension>
        </extensions>
      </trkpt>
      <trkpt lat="42.5576795451343059539794921875" lon="20.0756255351006984710693359375">
        <ele>2202.800048828125</ele>
        <time>2026-06-19T11:58:13.000Z</time>
        <extensions>
          <ns3:TrackPointExtension>
            <ns3:atemp>17.0</ns3:atemp>
          </ns3:TrackPointExtension>
        </extensions>
      </trkpt>
      <trkpt lat="42.55767367780208587646484375" lon="20.075636096298694610595703125">
        <ele>2202.800048828125</ele>
        <time>2026-06-19T11:58:14.000Z</time>
        <extensions>
          <ns3:TrackPointExtension>
            <ns3:atemp>17.0</ns3:atemp>
          </ns3:TrackPointExtension>
        </extensions>
      </trkpt>
      <trkpt lat="42.55766621790826320648193359375" lon="20.07564405910670757293701171875">
        <ele>2202.800048828125</ele>
        <time>2026-06-19T11:58:15.000Z</time>
        <extensions>
          <ns3:TrackPointExtension>
            <ns3:atemp>17.0</ns3:atemp>
          </ns3:TrackPointExtension>
        </extensions>
      </trkpt>
      <trkpt lat="42.557660602033138275146484375" lon="20.0756560452282428741455078125">
        <ele>2202.800048828125</ele>
        <time>2026-06-19T11:58:16.000Z</time>
        <extensions>
          <ns3:TrackPointExtension>
            <ns3:atemp>17.0</ns3:atemp>
          </ns3:TrackPointExtension>
        </extensions>
      </trkpt>
      <trkpt lat="42.5576560758054256439208984375" lon="20.07566417567431926727294921875">
        <ele>2203</ele>
        <time>2026-06-19T11:58:17.000Z</time>
        <extensions>
          <ns3:TrackPointExtension>
            <ns3:atemp>17.0</ns3:atemp>
          </ns3:TrackPointExtension>
        </extensions>
      </trkpt>
      <trkpt lat="42.55765062756836414337158203125" lon="20.0756707973778247833251953125">
        <ele>2203</ele>
        <time>2026-06-19T11:58:18.000Z</time>
        <extensions>
          <ns3:TrackPointExtension>
            <ns3:atemp>17.0</ns3:atemp>
          </ns3:TrackPointExtension>
        </extensions>
      </trkpt>
      <trkpt lat="42.557646520435810089111328125" lon="20.07567892782390117645263671875">
        <ele>2203</ele>
        <time>2026-06-19T11:58:19.000Z</time>
        <extensions>
          <ns3:TrackPointExtension>
            <ns3:atemp>17.0</ns3:atemp>
          </ns3:TrackPointExtension>
        </extensions>
      </trkpt>
      <trkpt lat="42.55764274857938289642333984375" lon="20.075690746307373046875">
        <ele>2203.199951171875</ele>
        <time>2026-06-19T11:58:20.000Z</time>
        <extensions>
          <ns3:TrackPointExtension>
            <ns3:atemp>17.0</ns3:atemp>
          </ns3:TrackPointExtension>
        </extensions>
      </trkpt>
      <trkpt lat="42.55764140747487545013427734375" lon="20.07569937966763973236083984375">
        <ele>2203.199951171875</ele>
        <time>2026-06-19T11:58:21.000Z</time>
        <extensions>
          <ns3:TrackPointExtension>
            <ns3:atemp>17.0</ns3:atemp>
          </ns3:TrackPointExtension>
        </extensions>
      </trkpt>
      <trkpt lat="42.5576383061707019805908203125" lon="20.0757046602666378021240234375">
        <ele>2203.39990234375</ele>
        <time>2026-06-19T11:58:22.000Z</time>
        <extensions>
          <ns3:TrackPointExtension>
            <ns3:atemp>17.0</ns3:atemp>
          </ns3:TrackPointExtension>
        </extensions>
      </trkpt>
      <trkpt lat="42.5576341152191162109375" lon="20.075719244778156280517578125">
        <ele>2203.39990234375</ele>
        <time>2026-06-19T11:58:23.000Z</time>
        <extensions>
          <ns3:TrackPointExtension>
            <ns3:atemp>17.0</ns3:atemp>
          </ns3:TrackPointExtension>
        </extensions>
      </trkpt>
      <trkpt lat="42.5576316006481647491455078125" lon="20.0757214240729808807373046875">
        <ele>2203.60009765625</ele>
        <time>2026-06-19T11:58:24.000Z</time>
        <extensions>
          <ns3:TrackPointExtension>
            <ns3:atemp>17.0</ns3:atemp>
          </ns3:TrackPointExtension>
        </extensions>
      </trkpt>
      <trkpt lat="42.5576316006481647491455078125" lon="20.0757214240729808807373046875">
        <ele>2203.60009765625</ele>
        <time>2026-06-19T11:58:25.000Z</time>
        <extensions>
          <ns3:TrackPointExtension>
            <ns3:atemp>17.0</ns3:atemp>
          </ns3:TrackPointExtension>
        </extensions>
      </trkpt>
      <trkpt lat="42.5576316006481647491455078125" lon="20.0757214240729808807373046875">
        <ele>2203.60009765625</ele>
        <time>2026-06-19T11:58:26.000Z</time>
        <extensions>
          <ns3:TrackPointExtension>
            <ns3:atemp>17.0</ns3:atemp>
          </ns3:TrackPointExtension>
        </extensions>
      </trkpt>
      <trkpt lat="42.5576316006481647491455078125" lon="20.0757214240729808807373046875">
        <ele>2203.60009765625</ele>
        <time>2026-06-19T11:58:27.000Z</time>
        <extensions>
          <ns3:TrackPointExtension>
            <ns3:atemp>17.0</ns3:atemp>
          </ns3:TrackPointExtension>
        </extensions>
      </trkpt>
      <trkpt lat="42.5576316006481647491455078125" lon="20.0757214240729808807373046875">
        <ele>2203.60009765625</ele>
        <time>2026-06-19T11:58:28.000Z</time>
        <extensions>
          <ns3:TrackPointExtension>
            <ns3:atemp>17.0</ns3:atemp>
          </ns3:TrackPointExtension>
        </extensions>
      </trkpt>
      <trkpt lat="42.5576316006481647491455078125" lon="20.0757214240729808807373046875">
        <ele>2203.800048828125</ele>
        <time>2026-06-19T11:58:29.000Z</time>
        <extensions>
          <ns3:TrackPointExtension>
            <ns3:atemp>17.0</ns3:atemp>
          </ns3:TrackPointExtension>
        </extensions>
      </trkpt>
      <trkpt lat="42.5576316006481647491455078125" lon="20.0757214240729808807373046875">
        <ele>2203.800048828125</ele>
        <time>2026-06-19T11:58:30.000Z</time>
        <extensions>
          <ns3:TrackPointExtension>
            <ns3:atemp>17.0</ns3:atemp>
          </ns3:TrackPointExtension>
        </extensions>
      </trkpt>
      <trkpt lat="42.5576316006481647491455078125" lon="20.0757214240729808807373046875">
        <ele>2203.800048828125</ele>
        <time>2026-06-19T11:58:31.000Z</time>
        <extensions>
          <ns3:TrackPointExtension>
            <ns3:atemp>17.0</ns3:atemp>
          </ns3:TrackPointExtension>
        </extensions>
      </trkpt>
      <trkpt lat="42.5576316006481647491455078125" lon="20.0757214240729808807373046875">
        <ele>2204</ele>
        <time>2026-06-19T11:58:32.000Z</time>
        <extensions>
          <ns3:TrackPointExtension>
            <ns3:atemp>17.0</ns3:atemp>
          </ns3:TrackPointExtension>
        </extensions>
      </trkpt>
      <trkpt lat="42.5576316006481647491455078125" lon="20.0757214240729808807373046875">
        <ele>2204</ele>
        <time>2026-06-19T11:58:33.000Z</time>
        <extensions>
          <ns3:TrackPointExtension>
            <ns3:atemp>17.0</ns3:atemp>
          </ns3:TrackPointExtension>
        </extensions>
      </trkpt>
      <trkpt lat="42.5576316006481647491455078125" lon="20.0757214240729808807373046875">
        <ele>2204</ele>
        <time>2026-06-19T11:58:34.000Z</time>
        <extensions>
          <ns3:TrackPointExtension>
            <ns3:atemp>17.0</ns3:atemp>
          </ns3:TrackPointExtension>
        </extensions>
      </trkpt>
      <trkpt lat="42.5576316006481647491455078125" lon="20.0757214240729808807373046875">
        <ele>2204</ele>
        <time>2026-06-19T11:58:35.000Z</time>
        <extensions>
          <ns3:TrackPointExtension>
            <ns3:atemp>17.0</ns3:atemp>
          </ns3:TrackPointExtension>
        </extensions>
      </trkpt>
      <trkpt lat="42.5576316006481647491455078125" lon="20.0757214240729808807373046875">
        <ele>2204</ele>
        <time>2026-06-19T11:58:36.000Z</time>
        <extensions>
          <ns3:TrackPointExtension>
            <ns3:atemp>17.0</ns3:atemp>
          </ns3:TrackPointExtension>
        </extensions>
      </trkpt>
      <trkpt lat="42.5576316006481647491455078125" lon="20.0757214240729808807373046875">
        <ele>2204</ele>
        <time>2026-06-19T11:58:37.000Z</time>
        <extensions>
          <ns3:TrackPointExtension>
            <ns3:atemp>17.0</ns3:atemp>
          </ns3:TrackPointExtension>
        </extensions>
      </trkpt>
      <trkpt lat="42.55763084627687931060791015625" lon="20.0757229328155517578125">
        <ele>2204</ele>
        <time>2026-06-19T11:58:38.000Z</time>
        <extensions>
          <ns3:TrackPointExtension>
            <ns3:atemp>17.0</ns3:atemp>
          </ns3:TrackPointExtension>
        </extensions>
      </trkpt>
      <trkpt lat="42.55762766115367412567138671875" lon="20.07573592476546764373779296875">
        <ele>2204</ele>
        <time>2026-06-19T11:58:39.000Z</time>
        <extensions>
          <ns3:TrackPointExtension>
            <ns3:atemp>17.0</ns3:atemp>
          </ns3:TrackPointExtension>
        </extensions>
      </trkpt>
      <trkpt lat="42.5576242245733737945556640625" lon="20.0757448934018611907958984375">
        <ele>2204</ele>
        <time>2026-06-19T11:58:40.000Z</time>
        <extensions>
          <ns3:TrackPointExtension>
            <ns3:atemp>17.0</ns3:atemp>
          </ns3:TrackPointExtension>
        </extensions>
      </trkpt>
      <trkpt lat="42.55762330256402492523193359375" lon="20.07575470022857189178466796875">
        <ele>2204</ele>
        <time>2026-06-19T11:58:41.000Z</time>
        <extensions>
          <ns3:TrackPointExtension>
            <ns3:atemp>17.0</ns3:atemp>
          </ns3:TrackPointExtension>
        </extensions>
      </trkpt>
      <trkpt lat="42.55762095563113689422607421875" lon="20.0757643394172191619873046875">
        <ele>2204</ele>
        <time>2026-06-19T11:58:42.000Z</time>
        <extensions>
          <ns3:TrackPointExtension>
            <ns3:atemp>17.0</ns3:atemp>
          </ns3:TrackPointExtension>
        </extensions>
      </trkpt>
      <trkpt lat="42.5576191954314708709716796875" lon="20.07577188313007354736328125">
        <ele>2204.199951171875</ele>
        <time>2026-06-19T11:58:43.000Z</time>
        <extensions>
          <ns3:TrackPointExtension>
            <ns3:atemp>17.0</ns3:atemp>
          </ns3:TrackPointExtension>
        </extensions>
      </trkpt>
      <trkpt lat="42.55761735141277313232421875" lon="20.07578537799417972564697265625">
        <ele>2204.199951171875</ele>
        <time>2026-06-19T11:58:44.000Z</time>
        <extensions>
          <ns3:TrackPointExtension>
            <ns3:atemp>17.0</ns3:atemp>
          </ns3:TrackPointExtension>
        </extensions>
      </trkpt>
      <trkpt lat="42.55761525593698024749755859375" lon="20.075795687735080718994140625">
        <ele>2204.199951171875</ele>
        <time>2026-06-19T11:58:45.000Z</time>
        <extensions>
          <ns3:TrackPointExtension>
            <ns3:atemp>17.0</ns3:atemp>
          </ns3:TrackPointExtension>
        </extensions>
      </trkpt>
      <trkpt lat="42.5576138310134410858154296875" lon="20.0758092664182186126708984375">
        <ele>2204.39990234375</ele>
        <time>2026-06-19T11:58:46.000Z</time>
        <extensions>
          <ns3:TrackPointExtension>
            <ns3:atemp>17.0</ns3:atemp>
          </ns3:TrackPointExtension>
        </extensions>
      </trkpt>
      <trkpt lat="42.55761207081377506256103515625" lon="20.07581739686429500579833984375">
        <ele>2204.39990234375</ele>
        <time>2026-06-19T11:58:47.000Z</time>
        <extensions>
          <ns3:TrackPointExtension>
            <ns3:atemp>17.0</ns3:atemp>
          </ns3:TrackPointExtension>
        </extensions>
      </trkpt>
      <trkpt lat="42.5576121546328067779541015625" lon="20.07582846097648143768310546875">
        <ele>2204.60009765625</ele>
        <time>2026-06-19T11:58:48.000Z</time>
        <extensions>
          <ns3:TrackPointExtension>
            <ns3:atemp>17.0</ns3:atemp>
          </ns3:TrackPointExtension>
        </extensions>
      </trkpt>
      <trkpt lat="42.5576121546328067779541015625" lon="20.07583952508866786956787109375">
        <ele>2204.60009765625</ele>
        <time>2026-06-19T11:58:49.000Z</time>
        <extensions>
          <ns3:TrackPointExtension>
            <ns3:atemp>17.0</ns3:atemp>
          </ns3:TrackPointExtension>
        </extensions>
      </trkpt>
      <trkpt lat="42.55760989151895046234130859375" lon="20.0758516788482666015625">
        <ele>2204.800048828125</ele>
        <time>2026-06-19T11:58:50.000Z</time>
        <extensions>
          <ns3:TrackPointExtension>
            <ns3:atemp>17.0</ns3:atemp>
          </ns3:TrackPointExtension>
        </extensions>
      </trkpt>
      <trkpt lat="42.55760938860476016998291015625" lon="20.0758632458746433258056640625">
        <ele>2204.800048828125</ele>
        <time>2026-06-19T11:58:51.000Z</time>
        <extensions>
          <ns3:TrackPointExtension>
            <ns3:atemp>17.0</ns3:atemp>
          </ns3:TrackPointExtension>
        </extensions>
      </trkpt>
      <trkpt lat="42.5576088018715381622314453125" lon="20.07588042877614498138427734375">
        <ele>2204.800048828125</ele>
        <time>2026-06-19T11:58:52.000Z</time>
        <extensions>
          <ns3:TrackPointExtension>
            <ns3:atemp>17.0</ns3:atemp>
          </ns3:TrackPointExtension>
        </extensions>
      </trkpt>
      <trkpt lat="42.55761106498539447784423828125" lon="20.07588344626128673553466796875">
        <ele>2204.800048828125</ele>
        <time>2026-06-19T11:58:53.000Z</time>
        <extensions>
          <ns3:TrackPointExtension>
            <ns3:atemp>17.0</ns3:atemp>
          </ns3:TrackPointExtension>
        </extensions>
      </trkpt>
      <trkpt lat="42.55761106498539447784423828125" lon="20.07588344626128673553466796875">
        <ele>2204.800048828125</ele>
        <time>2026-06-19T11:58:54.000Z</time>
        <extensions>
          <ns3:TrackPointExtension>
            <ns3:atemp>17.0</ns3:atemp>
          </ns3:TrackPointExtension>
        </extensions>
      </trkpt>
      <trkpt lat="42.55760804750025272369384765625" lon="20.07589300163090229034423828125">
        <ele>2204.800048828125</ele>
        <time>2026-06-19T11:58:55.000Z</time>
        <extensions>
          <ns3:TrackPointExtension>
            <ns3:atemp>17.0</ns3:atemp>
          </ns3:TrackPointExtension>
        </extensions>
      </trkpt>
      <trkpt lat="42.55760704167187213897705078125" lon="20.07590523920953273773193359375">
        <ele>2205</ele>
        <time>2026-06-19T11:58:56.000Z</time>
        <extensions>
          <ns3:TrackPointExtension>
            <ns3:atemp>17.0</ns3:atemp>
          </ns3:TrackPointExtension>
        </extensions>
      </trkpt>
      <trkpt lat="42.557603605091571807861328125" lon="20.07591563276946544647216796875">
        <ele>2205</ele>
        <time>2026-06-19T11:58:57.000Z</time>
        <extensions>
          <ns3:TrackPointExtension>
            <ns3:atemp>17.0</ns3:atemp>
          </ns3:TrackPointExtension>
        </extensions>
      </trkpt>
      <trkpt lat="42.557600922882556915283203125" lon="20.07592719979584217071533203125">
        <ele>2205</ele>
        <time>2026-06-19T11:58:58.000Z</time>
        <extensions>
          <ns3:TrackPointExtension>
            <ns3:atemp>17.0</ns3:atemp>
          </ns3:TrackPointExtension>
        </extensions>
      </trkpt>
      <trkpt lat="42.5575984083116054534912109375" lon="20.0759334862232208251953125">
        <ele>2205</ele>
        <time>2026-06-19T11:58:59.000Z</time>
        <extensions>
          <ns3:TrackPointExtension>
            <ns3:atemp>17.0</ns3:atemp>
          </ns3:TrackPointExtension>
        </extensions>
      </trkpt>
      <trkpt lat="42.55759631283581256866455078125" lon="20.0759447179734706878662109375">
        <ele>2205</ele>
        <time>2026-06-19T11:59:00.000Z</time>
        <extensions>
          <ns3:TrackPointExtension>
            <ns3:atemp>17.0</ns3:atemp>
          </ns3:TrackPointExtension>
        </extensions>
      </trkpt>
      <trkpt lat="42.55759413354098796844482421875" lon="20.07595553062856197357177734375">
        <ele>2205</ele>
        <time>2026-06-19T11:59:01.000Z</time>
        <extensions>
          <ns3:TrackPointExtension>
            <ns3:atemp>17.0</ns3:atemp>
          </ns3:TrackPointExtension>
        </extensions>
      </trkpt>
      <trkpt lat="42.55759195424616336822509765625" lon="20.0759675167500972747802734375">
        <ele>2205</ele>
        <time>2026-06-19T11:59:02.000Z</time>
        <extensions>
          <ns3:TrackPointExtension>
            <ns3:atemp>17.0</ns3:atemp>
          </ns3:TrackPointExtension>
        </extensions>
      </trkpt>
      <trkpt lat="42.55759078077971935272216796875" lon="20.075979419052600860595703125">
        <ele>2205</ele>
        <time>2026-06-19T11:59:03.000Z</time>
        <extensions>
          <ns3:TrackPointExtension>
            <ns3:atemp>17.0</ns3:atemp>
          </ns3:TrackPointExtension>
        </extensions>
      </trkpt>
      <trkpt lat="42.5575890205800533294677734375" lon="20.07599224336445331573486328125">
        <ele>2205</ele>
        <time>2026-06-19T11:59:04.000Z</time>
        <extensions>
          <ns3:TrackPointExtension>
            <ns3:atemp>17.0</ns3:atemp>
          </ns3:TrackPointExtension>
        </extensions>
      </trkpt>
      <trkpt lat="42.5575898587703704833984375" lon="20.0760010443627834320068359375">
        <ele>2205</ele>
        <time>2026-06-19T11:59:05.000Z</time>
        <extensions>
          <ns3:TrackPointExtension>
            <ns3:atemp>17.0</ns3:atemp>
          </ns3:TrackPointExtension>
        </extensions>
      </trkpt>
      <trkpt lat="42.5575876794755458831787109375" lon="20.07601219229400157928466796875">
        <ele>2205</ele>
        <time>2026-06-19T11:59:06.000Z</time>
        <extensions>
          <ns3:TrackPointExtension>
            <ns3:atemp>17.0</ns3:atemp>
          </ns3:TrackPointExtension>
        </extensions>
      </trkpt>
      <trkpt lat="42.5575876794755458831787109375" lon="20.07602292113006114959716796875">
        <ele>2205</ele>
        <time>2026-06-19T11:59:07.000Z</time>
        <extensions>
          <ns3:TrackPointExtension>
            <ns3:atemp>17.0</ns3:atemp>
          </ns3:TrackPointExtension>
        </extensions>
      </trkpt>
      <trkpt lat="42.557588517665863037109375" lon="20.07603247649967670440673828125">
        <ele>2205</ele>
        <time>2026-06-19T11:59:08.000Z</time>
        <extensions>
          <ns3:TrackPointExtension>
            <ns3:atemp>17.0</ns3:atemp>
          </ns3:TrackPointExtension>
        </extensions>
      </trkpt>
      <trkpt lat="42.5575880147516727447509765625" lon="20.07604421116411685943603515625">
        <ele>2205</ele>
        <time>2026-06-19T11:59:09.000Z</time>
        <extensions>
          <ns3:TrackPointExtension>
            <ns3:atemp>17.0</ns3:atemp>
          </ns3:TrackPointExtension>
        </extensions>
      </trkpt>
      <trkpt lat="42.5575906969606876373291015625" lon="20.07605410180985927581787109375">
        <ele>2205</ele>
        <time>2026-06-19T11:59:10.000Z</time>
        <extensions>
          <ns3:TrackPointExtension>
            <ns3:atemp>17.0</ns3:atemp>
          </ns3:TrackPointExtension>
        </extensions>
      </trkpt>
      <trkpt lat="42.55759027786552906036376953125" lon="20.07606499828398227691650390625">
        <ele>2205</ele>
        <time>2026-06-19T11:59:11.000Z</time>
        <extensions>
          <ns3:TrackPointExtension>
            <ns3:atemp>17.0</ns3:atemp>
          </ns3:TrackPointExtension>
        </extensions>
      </trkpt>
      <trkpt lat="42.55759480409324169158935546875" lon="20.07607287727296352386474609375">
        <ele>2205.199951171875</ele>
        <time>2026-06-19T11:59:12.000Z</time>
        <extensions>
          <ns3:TrackPointExtension>
            <ns3:atemp>17.0</ns3:atemp>
          </ns3:TrackPointExtension>
        </extensions>
      </trkpt>
      <trkpt lat="42.5575987435877323150634765625" lon="20.0760841928422451019287109375">
        <ele>2205.39990234375</ele>
        <time>2026-06-19T11:59:13.000Z</time>
        <extensions>
          <ns3:TrackPointExtension>
            <ns3:atemp>17.0</ns3:atemp>
          </ns3:TrackPointExtension>
        </extensions>
      </trkpt>
      <trkpt lat="42.5575990788638591766357421875" lon="20.0760908983647823333740234375">
        <ele>2205.39990234375</ele>
        <time>2026-06-19T11:59:14.000Z</time>
        <extensions>
          <ns3:TrackPointExtension>
            <ns3:atemp>17.0</ns3:atemp>
          </ns3:TrackPointExtension>
        </extensions>
      </trkpt>
      <trkpt lat="42.55760394036769866943359375" lon="20.0760996155440807342529296875">
        <ele>2205.60009765625</ele>
        <time>2026-06-19T11:59:15.000Z</time>
        <extensions>
          <ns3:TrackPointExtension>
            <ns3:atemp>17.0</ns3:atemp>
          </ns3:TrackPointExtension>
        </extensions>
      </trkpt>
      <trkpt lat="42.5576061196625232696533203125" lon="20.07611026056110858917236328125">
        <ele>2205.60009765625</ele>
        <time>2026-06-19T11:59:16.000Z</time>
        <extensions>
          <ns3:TrackPointExtension>
            <ns3:atemp>17.0</ns3:atemp>
          </ns3:TrackPointExtension>
        </extensions>
      </trkpt>
      <trkpt lat="42.55760754458606243133544921875" lon="20.0761187262833118438720703125">
        <ele>2205.60009765625</ele>
        <time>2026-06-19T11:59:17.000Z</time>
        <extensions>
          <ns3:TrackPointExtension>
            <ns3:atemp>17.0</ns3:atemp>
          </ns3:TrackPointExtension>
        </extensions>
      </trkpt>
      <trkpt lat="42.55760905332863330841064453125" lon="20.07613238878548145294189453125">
        <ele>2205.39990234375</ele>
        <time>2026-06-19T11:59:18.000Z</time>
        <extensions>
          <ns3:TrackPointExtension>
            <ns3:atemp>17.0</ns3:atemp>
          </ns3:TrackPointExtension>
        </extensions>
      </trkpt>
      <trkpt lat="42.55761391483247280120849609375" lon="20.07614479400217533111572265625">
        <ele>2205.39990234375</ele>
        <time>2026-06-19T11:59:19.000Z</time>
        <extensions>
          <ns3:TrackPointExtension>
            <ns3:atemp>17.0</ns3:atemp>
          </ns3:TrackPointExtension>
        </extensions>
      </trkpt>
      <trkpt lat="42.5576168484985828399658203125" lon="20.07615049369633197784423828125">
        <ele>2205.199951171875</ele>
        <time>2026-06-19T11:59:20.000Z</time>
        <extensions>
          <ns3:TrackPointExtension>
            <ns3:atemp>17.0</ns3:atemp>
          </ns3:TrackPointExtension>
        </extensions>
      </trkpt>
      <trkpt lat="42.5576232187449932098388671875" lon="20.07616474293172359466552734375">
        <ele>2205.199951171875</ele>
        <time>2026-06-19T11:59:21.000Z</time>
        <extensions>
          <ns3:TrackPointExtension>
            <ns3:atemp>17.0</ns3:atemp>
          </ns3:TrackPointExtension>
        </extensions>
      </trkpt>
      <trkpt lat="42.55762632004916667938232421875" lon="20.07617295719683170318603515625">
        <ele>2205</ele>
        <time>2026-06-19T11:59:22.000Z</time>
        <extensions>
          <ns3:TrackPointExtension>
            <ns3:atemp>17.0</ns3:atemp>
          </ns3:TrackPointExtension>
        </extensions>
      </trkpt>
      <trkpt lat="42.55762916989624500274658203125" lon="20.07618385367095470428466796875">
        <ele>2205</ele>
        <time>2026-06-19T11:59:23.000Z</time>
        <extensions>
          <ns3:TrackPointExtension>
            <ns3:atemp>17.0</ns3:atemp>
          </ns3:TrackPointExtension>
        </extensions>
      </trkpt>
      <trkpt lat="42.557631768286228179931640625" lon="20.076192654669284820556640625">
        <ele>2205</ele>
        <time>2026-06-19T11:59:24.000Z</time>
        <extensions>
          <ns3:TrackPointExtension>
            <ns3:atemp>17.0</ns3:atemp>
          </ns3:TrackPointExtension>
        </extensions>
      </trkpt>
      <trkpt lat="42.55763721652328968048095703125" lon="20.076199360191822052001953125">
        <ele>2205</ele>
        <time>2026-06-19T11:59:25.000Z</time>
        <extensions>
          <ns3:TrackPointExtension>
            <ns3:atemp>17.0</ns3:atemp>
          </ns3:TrackPointExtension>
        </extensions>
      </trkpt>
      <trkpt lat="42.55763889290392398834228515625" lon="20.07620505988597869873046875">
        <ele>2205.199951171875</ele>
        <time>2026-06-19T11:59:26.000Z</time>
        <extensions>
          <ns3:TrackPointExtension>
            <ns3:atemp>17.0</ns3:atemp>
          </ns3:TrackPointExtension>
        </extensions>
      </trkpt>
      <trkpt lat="42.55764015018939971923828125" lon="20.0762159563601016998291015625">
        <ele>2205.199951171875</ele>
        <time>2026-06-19T11:59:27.000Z</time>
        <extensions>
          <ns3:TrackPointExtension>
            <ns3:atemp>17.0</ns3:atemp>
          </ns3:TrackPointExtension>
        </extensions>
      </trkpt>
      <trkpt lat="42.55764140747487545013427734375" lon="20.07621972821652889251708984375">
        <ele>2205.199951171875</ele>
        <time>2026-06-19T11:59:28.000Z</time>
        <extensions>
          <ns3:TrackPointExtension>
            <ns3:atemp>17.0</ns3:atemp>
          </ns3:TrackPointExtension>
        </extensions>
      </trkpt>
      <trkpt lat="42.55764140747487545013427734375" lon="20.07621972821652889251708984375">
        <ele>2205.39990234375</ele>
        <time>2026-06-19T11:59:29.000Z</time>
        <extensions>
          <ns3:TrackPointExtension>
            <ns3:atemp>17.0</ns3:atemp>
          </ns3:TrackPointExtension>
        </extensions>
      </trkpt>
      <trkpt lat="42.55763880908489227294921875" lon="20.07622274570167064666748046875">
        <ele>2205.39990234375</ele>
        <time>2026-06-19T11:59:30.000Z</time>
        <extensions>
          <ns3:TrackPointExtension>
            <ns3:atemp>17.0</ns3:atemp>
          </ns3:TrackPointExtension>
        </extensions>
      </trkpt>
      <trkpt lat="42.55763989873230457305908203125" lon="20.07622324861586093902587890625">
        <ele>2205.60009765625</ele>
        <time>2026-06-19T11:59:31.000Z</time>
        <extensions>
          <ns3:TrackPointExtension>
            <ns3:atemp>17.0</ns3:atemp>
          </ns3:TrackPointExtension>
        </extensions>
      </trkpt>
      <trkpt lat="42.55764291621744632720947265625" lon="20.07623548619449138641357421875">
        <ele>2205.800048828125</ele>
        <time>2026-06-19T11:59:32.000Z</time>
        <extensions>
          <ns3:TrackPointExtension>
            <ns3:atemp>17.0</ns3:atemp>
          </ns3:TrackPointExtension>
        </extensions>
      </trkpt>
      <trkpt lat="42.557644508779048919677734375" lon="20.07624822668731212615966796875">
        <ele>2205.800048828125</ele>
        <time>2026-06-19T11:59:33.000Z</time>
        <extensions>
          <ns3:TrackPointExtension>
            <ns3:atemp>17.0</ns3:atemp>
          </ns3:TrackPointExtension>
        </extensions>
      </trkpt>
      <trkpt lat="42.55764476023614406585693359375" lon="20.07625543512403964996337890625">
        <ele>2206</ele>
        <time>2026-06-19T11:59:34.000Z</time>
        <extensions>
          <ns3:TrackPointExtension>
            <ns3:atemp>17.0</ns3:atemp>
          </ns3:TrackPointExtension>
        </extensions>
      </trkpt>
      <trkpt lat="42.55764291621744632720947265625" lon="20.07626566104590892791748046875">
        <ele>2206</ele>
        <time>2026-06-19T11:59:35.000Z</time>
        <extensions>
          <ns3:TrackPointExtension>
            <ns3:atemp>17.0</ns3:atemp>
          </ns3:TrackPointExtension>
        </extensions>
      </trkpt>
      <trkpt lat="42.55763973109424114227294921875" lon="20.0762682594358921051025390625">
        <ele>2206</ele>
        <time>2026-06-19T11:59:36.000Z</time>
        <extensions>
          <ns3:TrackPointExtension>
            <ns3:atemp>17.0</ns3:atemp>
          </ns3:TrackPointExtension>
        </extensions>
      </trkpt>
      <trkpt lat="42.5576396472752094268798828125" lon="20.07626834325492382049560546875">
        <ele>2206</ele>
        <time>2026-06-19T11:59:37.000Z</time>
        <extensions>
          <ns3:TrackPointExtension>
            <ns3:atemp>17.0</ns3:atemp>
          </ns3:TrackPointExtension>
        </extensions>
      </trkpt>
      <trkpt lat="42.5576396472752094268798828125" lon="20.07626834325492382049560546875">
        <ele>2206.199951171875</ele>
        <time>2026-06-19T11:59:38.000Z</time>
        <extensions>
          <ns3:TrackPointExtension>
            <ns3:atemp>17.0</ns3:atemp>
          </ns3:TrackPointExtension>
        </extensions>
      </trkpt>
      <trkpt lat="42.5576396472752094268798828125" lon="20.07626834325492382049560546875">
        <ele>2206.199951171875</ele>
        <time>2026-06-19T11:59:39.000Z</time>
        <extensions>
          <ns3:TrackPointExtension>
            <ns3:atemp>17.0</ns3:atemp>
          </ns3:TrackPointExtension>
        </extensions>
      </trkpt>
      <trkpt lat="42.55763956345617771148681640625" lon="20.07626851089298725128173828125">
        <ele>2206.199951171875</ele>
        <time>2026-06-19T11:59:40.000Z</time>
        <extensions>
          <ns3:TrackPointExtension>
            <ns3:atemp>17.0</ns3:atemp>
          </ns3:TrackPointExtension>
        </extensions>
      </trkpt>
      <trkpt lat="42.5576396472752094268798828125" lon="20.0762742944061756134033203125">
        <ele>2206.199951171875</ele>
        <time>2026-06-19T11:59:41.000Z</time>
        <extensions>
          <ns3:TrackPointExtension>
            <ns3:atemp>17.0</ns3:atemp>
          </ns3:TrackPointExtension>
        </extensions>
      </trkpt>
      <trkpt lat="42.55764207802712917327880859375" lon="20.07628016173839569091796875">
        <ele>2206.199951171875</ele>
        <time>2026-06-19T11:59:42.000Z</time>
        <extensions>
          <ns3:TrackPointExtension>
            <ns3:atemp>17.0</ns3:atemp>
          </ns3:TrackPointExtension>
        </extensions>
      </trkpt>
      <trkpt lat="42.55764258094131946563720703125" lon="20.076283514499664306640625">
        <ele>2206.199951171875</ele>
        <time>2026-06-19T11:59:43.000Z</time>
        <extensions>
          <ns3:TrackPointExtension>
            <ns3:atemp>17.0</ns3:atemp>
          </ns3:TrackPointExtension>
        </extensions>
      </trkpt>
      <trkpt lat="42.5576396472752094268798828125" lon="20.07626834325492382049560546875">
        <ele>2206.199951171875</ele>
        <time>2026-06-19T11:59:44.000Z</time>
        <extensions>
          <ns3:TrackPointExtension>
            <ns3:atemp>17.0</ns3:atemp>
          </ns3:TrackPointExtension>
        </extensions>
      </trkpt>
      <trkpt lat="42.5576396472752094268798828125" lon="20.07626834325492382049560546875">
        <ele>2206.199951171875</ele>
        <time>2026-06-19T11:59:45.000Z</time>
        <extensions>
          <ns3:TrackPointExtension>
            <ns3:atemp>17.0</ns3:atemp>
          </ns3:TrackPointExtension>
        </extensions>
      </trkpt>
      <trkpt lat="42.55764224566519260406494140625" lon="20.07628108374774456024169921875">
        <ele>2206.199951171875</ele>
        <time>2026-06-19T11:59:46.000Z</time>
        <extensions>
          <ns3:TrackPointExtension>
            <ns3:atemp>17.0</ns3:atemp>
          </ns3:TrackPointExtension>
        </extensions>
      </trkpt>
      <trkpt lat="42.5576453469693660736083984375" lon="20.07629801519215106964111328125">
        <ele>2206.199951171875</ele>
        <time>2026-06-19T11:59:47.000Z</time>
        <extensions>
          <ns3:TrackPointExtension>
            <ns3:atemp>17.0</ns3:atemp>
          </ns3:TrackPointExtension>
        </extensions>
      </trkpt>
      <trkpt lat="42.55765280686318874359130859375" lon="20.0763168744742870330810546875">
        <ele>2206.199951171875</ele>
        <time>2026-06-19T11:59:48.000Z</time>
        <extensions>
          <ns3:TrackPointExtension>
            <ns3:atemp>17.0</ns3:atemp>
          </ns3:TrackPointExtension>
        </extensions>
      </trkpt>
      <trkpt lat="42.55766001529991626739501953125" lon="20.07632986642420291900634765625">
        <ele>2206.39990234375</ele>
        <time>2026-06-19T11:59:49.000Z</time>
        <extensions>
          <ns3:TrackPointExtension>
            <ns3:atemp>17.0</ns3:atemp>
          </ns3:TrackPointExtension>
        </extensions>
      </trkpt>
      <trkpt lat="42.5576651282608509063720703125" lon="20.07634277455508708953857421875">
        <ele>2206.800048828125</ele>
        <time>2026-06-19T11:59:50.000Z</time>
        <extensions>
          <ns3:TrackPointExtension>
            <ns3:atemp>17.0</ns3:atemp>
          </ns3:TrackPointExtension>
        </extensions>
      </trkpt>
      <trkpt lat="42.55766957066953182220458984375" lon="20.07636037655174732208251953125">
        <ele>2207</ele>
        <time>2026-06-19T11:59:51.000Z</time>
        <extensions>
          <ns3:TrackPointExtension>
            <ns3:atemp>17.0</ns3:atemp>
          </ns3:TrackPointExtension>
        </extensions>
      </trkpt>
      <trkpt lat="42.55767459981143474578857421875" lon="20.076376385986804962158203125">
        <ele>2207.199951171875</ele>
        <time>2026-06-19T11:59:52.000Z</time>
        <extensions>
          <ns3:TrackPointExtension>
            <ns3:atemp>17.0</ns3:atemp>
          </ns3:TrackPointExtension>
        </extensions>
      </trkpt>
      <trkpt lat="42.55767912603914737701416015625" lon="20.07639071904122829437255859375">
        <ele>2207.39990234375</ele>
        <time>2026-06-19T11:59:53.000Z</time>
        <extensions>
          <ns3:TrackPointExtension>
            <ns3:atemp>17.0</ns3:atemp>
          </ns3:TrackPointExtension>
        </extensions>
      </trkpt>
      <trkpt lat="42.55768784321844577789306640625" lon="20.076408572494983673095703125">
        <ele>2207.39990234375</ele>
        <time>2026-06-19T11:59:54.000Z</time>
        <extensions>
          <ns3:TrackPointExtension>
            <ns3:atemp>17.0</ns3:atemp>
          </ns3:TrackPointExtension>
        </extensions>
      </trkpt>
      <trkpt lat="42.55769639275968074798583984375" lon="20.07643480785191059112548828125">
        <ele>2207.39990234375</ele>
        <time>2026-06-19T11:59:55.000Z</time>
        <extensions>
          <ns3:TrackPointExtension>
            <ns3:atemp>17.0</ns3:atemp>
          </ns3:TrackPointExtension>
        </extensions>
      </trkpt>
      <trkpt lat="42.5577070377767086029052734375" lon="20.07646297104656696319580078125">
        <ele>2207.39990234375</ele>
        <time>2026-06-19T11:59:56.000Z</time>
        <extensions>
          <ns3:TrackPointExtension>
            <ns3:atemp>17.0</ns3:atemp>
          </ns3:TrackPointExtension>
        </extensions>
      </trkpt>
      <trkpt lat="42.5577087141573429107666015625" lon="20.0764741189777851104736328125">
        <ele>2207.39990234375</ele>
        <time>2026-06-19T11:59:57.000Z</time>
        <extensions>
          <ns3:TrackPointExtension>
            <ns3:atemp>17.0</ns3:atemp>
          </ns3:TrackPointExtension>
        </extensions>
      </trkpt>
      <trkpt lat="42.5577087141573429107666015625" lon="20.076474286615848541259765625">
        <ele>2207.60009765625</ele>
        <time>2026-06-19T11:59:58.000Z</time>
        <extensions>
          <ns3:TrackPointExtension>
            <ns3:atemp>17.0</ns3:atemp>
          </ns3:TrackPointExtension>
        </extensions>
      </trkpt>
      <trkpt lat="42.5577087141573429107666015625" lon="20.0764744542539119720458984375">
        <ele>2207.800048828125</ele>
        <time>2026-06-19T11:59:59.000Z</time>
        <extensions>
          <ns3:TrackPointExtension>
            <ns3:atemp>17.0</ns3:atemp>
          </ns3:TrackPointExtension>
        </extensions>
      </trkpt>
      <trkpt lat="42.55771852098405361175537109375" lon="20.07648224942386150360107421875">
        <ele>2208.199951171875</ele>
        <time>2026-06-19T12:00:00.000Z</time>
        <extensions>
          <ns3:TrackPointExtension>
            <ns3:atemp>17.0</ns3:atemp>
          </ns3:TrackPointExtension>
        </extensions>
      </trkpt>
      <trkpt lat="42.55772639997303485870361328125" lon="20.0764902122318744659423828125">
        <ele>2208.39990234375</ele>
        <time>2026-06-19T12:00:01.000Z</time>
        <extensions>
          <ns3:TrackPointExtension>
            <ns3:atemp>17.0</ns3:atemp>
          </ns3:TrackPointExtension>
        </extensions>
      </trkpt>
      <trkpt lat="42.557733356952667236328125" lon="20.07649498991668224334716796875">
        <ele>2208.39990234375</ele>
        <time>2026-06-19T12:00:02.000Z</time>
        <extensions>
          <ns3:TrackPointExtension>
            <ns3:atemp>17.0</ns3:atemp>
          </ns3:TrackPointExtension>
        </extensions>
      </trkpt>
      <trkpt lat="42.55774207413196563720703125" lon="20.0765012763440608978271484375">
        <ele>2208.39990234375</ele>
        <time>2026-06-19T12:00:03.000Z</time>
        <extensions>
          <ns3:TrackPointExtension>
            <ns3:atemp>17.0</ns3:atemp>
          </ns3:TrackPointExtension>
        </extensions>
      </trkpt>
      <trkpt lat="42.557751797139644622802734375" lon="20.07650949060916900634765625">
        <ele>2208.39990234375</ele>
        <time>2026-06-19T12:00:04.000Z</time>
        <extensions>
          <ns3:TrackPointExtension>
            <ns3:atemp>17.0</ns3:atemp>
          </ns3:TrackPointExtension>
        </extensions>
      </trkpt>
      <trkpt lat="42.55775841884315013885498046875" lon="20.076516531407833099365234375">
        <ele>2208.199951171875</ele>
        <time>2026-06-19T12:00:05.000Z</time>
        <extensions>
          <ns3:TrackPointExtension>
            <ns3:atemp>17.0</ns3:atemp>
          </ns3:TrackPointExtension>
        </extensions>
      </trkpt>
      <trkpt lat="42.55776562727987766265869140625" lon="20.07652365602552890777587890625">
        <ele>2208</ele>
        <time>2026-06-19T12:00:06.000Z</time>
        <extensions>
          <ns3:TrackPointExtension>
            <ns3:atemp>17.0</ns3:atemp>
          </ns3:TrackPointExtension>
        </extensions>
      </trkpt>
      <trkpt lat="42.55777400918304920196533203125" lon="20.07653220556676387786865234375">
        <ele>2208</ele>
        <time>2026-06-19T12:00:07.000Z</time>
        <extensions>
          <ns3:TrackPointExtension>
            <ns3:atemp>17.0</ns3:atemp>
          </ns3:TrackPointExtension>
        </extensions>
      </trkpt>
      <trkpt lat="42.55778188817203044891357421875" lon="20.0765408389270305633544921875">
        <ele>2208</ele>
        <time>2026-06-19T12:00:08.000Z</time>
        <extensions>
          <ns3:TrackPointExtension>
            <ns3:atemp>17.0</ns3:atemp>
          </ns3:TrackPointExtension>
        </extensions>
      </trkpt>
      <trkpt lat="42.5577854923903942108154296875" lon="20.07654712535440921783447265625">
        <ele>2208</ele>
        <time>2026-06-19T12:00:09.000Z</time>
        <extensions>
          <ns3:TrackPointExtension>
            <ns3:atemp>17.0</ns3:atemp>
          </ns3:TrackPointExtension>
        </extensions>
      </trkpt>
      <trkpt lat="42.5577881745994091033935546875" lon="20.07655383087694644927978515625">
        <ele>2208.199951171875</ele>
        <time>2026-06-19T12:00:10.000Z</time>
        <extensions>
          <ns3:TrackPointExtension>
            <ns3:atemp>17.0</ns3:atemp>
          </ns3:TrackPointExtension>
        </extensions>
      </trkpt>
      <trkpt lat="42.55778976716101169586181640625" lon="20.076564811170101165771484375">
        <ele>2208.199951171875</ele>
        <time>2026-06-19T12:00:11.000Z</time>
        <extensions>
          <ns3:TrackPointExtension>
            <ns3:atemp>17.0</ns3:atemp>
          </ns3:TrackPointExtension>
        </extensions>
      </trkpt>
      <trkpt lat="42.55779580213129520416259765625" lon="20.0765745341777801513671875">
        <ele>2208.199951171875</ele>
        <time>2026-06-19T12:00:12.000Z</time>
        <extensions>
          <ns3:TrackPointExtension>
            <ns3:atemp>17.0</ns3:atemp>
          </ns3:TrackPointExtension>
        </extensions>
      </trkpt>
      <trkpt lat="42.5578022561967372894287109375" lon="20.0765800662338733673095703125">
        <ele>2208.199951171875</ele>
        <time>2026-06-19T12:00:13.000Z</time>
        <extensions>
          <ns3:TrackPointExtension>
            <ns3:atemp>17.0</ns3:atemp>
          </ns3:TrackPointExtension>
        </extensions>
      </trkpt>
      <trkpt lat="42.557808458805084228515625" lon="20.07658836431801319122314453125">
        <ele>2208.199951171875</ele>
        <time>2026-06-19T12:00:14.000Z</time>
        <extensions>
          <ns3:TrackPointExtension>
            <ns3:atemp>17.0</ns3:atemp>
          </ns3:TrackPointExtension>
        </extensions>
      </trkpt>
      <trkpt lat="42.55781139247119426727294921875" lon="20.07659674622118473052978515625">
        <ele>2208.39990234375</ele>
        <time>2026-06-19T12:00:15.000Z</time>
        <extensions>
          <ns3:TrackPointExtension>
            <ns3:atemp>17.0</ns3:atemp>
          </ns3:TrackPointExtension>
        </extensions>
      </trkpt>
      <trkpt lat="42.55781239829957485198974609375" lon="20.076608397066593170166015625">
        <ele>2208.39990234375</ele>
        <time>2026-06-19T12:00:16.000Z</time>
        <extensions>
          <ns3:TrackPointExtension>
            <ns3:atemp>17.0</ns3:atemp>
          </ns3:TrackPointExtension>
        </extensions>
      </trkpt>
      <trkpt lat="42.55781239829957485198974609375" lon="20.07661334238946437835693359375">
        <ele>2208.39990234375</ele>
        <time>2026-06-19T12:00:17.000Z</time>
        <extensions>
          <ns3:TrackPointExtension>
            <ns3:atemp>17.0</ns3:atemp>
          </ns3:TrackPointExtension>
        </extensions>
      </trkpt>
      <trkpt lat="42.557814158499240875244140625" lon="20.0766162760555744171142578125">
        <ele>2208.39990234375</ele>
        <time>2026-06-19T12:00:18.000Z</time>
        <extensions>
          <ns3:TrackPointExtension>
            <ns3:atemp>17.0</ns3:atemp>
          </ns3:TrackPointExtension>
        </extensions>
      </trkpt>
      <trkpt lat="42.55781658925116062164306640625" lon="20.0766216404736042022705078125">
        <ele>2208.60009765625</ele>
        <time>2026-06-19T12:00:19.000Z</time>
        <extensions>
          <ns3:TrackPointExtension>
            <ns3:atemp>17.0</ns3:atemp>
          </ns3:TrackPointExtension>
        </extensions>
      </trkpt>
      <trkpt lat="42.55782128311693668365478515625" lon="20.076631195843219757080078125">
        <ele>2208.60009765625</ele>
        <time>2026-06-19T12:00:20.000Z</time>
        <extensions>
          <ns3:TrackPointExtension>
            <ns3:atemp>17.0</ns3:atemp>
          </ns3:TrackPointExtension>
        </extensions>
      </trkpt>
      <trkpt lat="42.5578220374882221221923828125" lon="20.0766397453844547271728515625">
        <ele>2208.800048828125</ele>
        <time>2026-06-19T12:00:21.000Z</time>
        <extensions>
          <ns3:TrackPointExtension>
            <ns3:atemp>17.0</ns3:atemp>
          </ns3:TrackPointExtension>
        </extensions>
      </trkpt>
      <trkpt lat="42.55782245658338069915771484375" lon="20.0766451098024845123291015625">
        <ele>2209</ele>
        <time>2026-06-19T12:00:22.000Z</time>
        <extensions>
          <ns3:TrackPointExtension>
            <ns3:atemp>17.0</ns3:atemp>
          </ns3:TrackPointExtension>
        </extensions>
      </trkpt>
      <trkpt lat="42.55782379768788814544677734375" lon="20.07665558718144893646240234375">
        <ele>2209.199951171875</ele>
        <time>2026-06-19T12:00:23.000Z</time>
        <extensions>
          <ns3:TrackPointExtension>
            <ns3:atemp>17.0</ns3:atemp>
          </ns3:TrackPointExtension>
        </extensions>
      </trkpt>
      <trkpt lat="42.55782522261142730712890625" lon="20.076662041246891021728515625">
        <ele>2209.39990234375</ele>
        <time>2026-06-19T12:00:24.000Z</time>
        <extensions>
          <ns3:TrackPointExtension>
            <ns3:atemp>17.0</ns3:atemp>
          </ns3:TrackPointExtension>
        </extensions>
      </trkpt>
      <trkpt lat="42.5578257255256175994873046875" lon="20.07667201571166515350341796875">
        <ele>2209.39990234375</ele>
        <time>2026-06-19T12:00:25.000Z</time>
        <extensions>
          <ns3:TrackPointExtension>
            <ns3:atemp>17.0</ns3:atemp>
          </ns3:TrackPointExtension>
        </extensions>
      </trkpt>
      <trkpt lat="42.5578267313539981842041015625" lon="20.07668207399547100067138671875">
        <ele>2209.39990234375</ele>
        <time>2026-06-19T12:00:26.000Z</time>
        <extensions>
          <ns3:TrackPointExtension>
            <ns3:atemp>17.0</ns3:atemp>
          </ns3:TrackPointExtension>
        </extensions>
      </trkpt>
      <trkpt lat="42.55782480351626873016357421875" lon="20.07669364102184772491455078125">
        <ele>2209.60009765625</ele>
        <time>2026-06-19T12:00:27.000Z</time>
        <extensions>
          <ns3:TrackPointExtension>
            <ns3:atemp>17.0</ns3:atemp>
          </ns3:TrackPointExtension>
        </extensions>
      </trkpt>
      <trkpt lat="42.557824887335300445556640625" lon="20.0767011009156703948974609375">
        <ele>2209.800048828125</ele>
        <time>2026-06-19T12:00:28.000Z</time>
        <extensions>
          <ns3:TrackPointExtension>
            <ns3:atemp>17.0</ns3:atemp>
          </ns3:TrackPointExtension>
        </extensions>
      </trkpt>
      <trkpt lat="42.55782698281109333038330078125" lon="20.0767098180949687957763671875">
        <ele>2209.800048828125</ele>
        <time>2026-06-19T12:00:29.000Z</time>
        <extensions>
          <ns3:TrackPointExtension>
            <ns3:atemp>17.0</ns3:atemp>
          </ns3:TrackPointExtension>
        </extensions>
      </trkpt>
      <trkpt lat="42.557831592857837677001953125" lon="20.07671912200748920440673828125">
        <ele>2210.199951171875</ele>
        <time>2026-06-19T12:00:30.000Z</time>
        <extensions>
          <ns3:TrackPointExtension>
            <ns3:atemp>17.0</ns3:atemp>
          </ns3:TrackPointExtension>
        </extensions>
      </trkpt>
      <trkpt lat="42.55783502943813800811767578125" lon="20.07672465406358242034912109375">
        <ele>2210.39990234375</ele>
        <time>2026-06-19T12:00:31.000Z</time>
        <extensions>
          <ns3:TrackPointExtension>
            <ns3:atemp>17.0</ns3:atemp>
          </ns3:TrackPointExtension>
        </extensions>
      </trkpt>
      <trkpt lat="42.55783259868621826171875" lon="20.076721049845218658447265625">
        <ele>2210.39990234375</ele>
        <time>2026-06-19T12:00:32.000Z</time>
        <extensions>
          <ns3:TrackPointExtension>
            <ns3:atemp>17.0</ns3:atemp>
          </ns3:TrackPointExtension>
        </extensions>
      </trkpt>
      <trkpt lat="42.55783251486718654632568359375" lon="20.07672096602618694305419921875">
        <ele>2210.39990234375</ele>
        <time>2026-06-19T12:00:33.000Z</time>
        <extensions>
          <ns3:TrackPointExtension>
            <ns3:atemp>17.0</ns3:atemp>
          </ns3:TrackPointExtension>
        </extensions>
      </trkpt>
      <trkpt lat="42.55783251486718654632568359375" lon="20.07672096602618694305419921875">
        <ele>2210.199951171875</ele>
        <time>2026-06-19T12:00:34.000Z</time>
        <extensions>
          <ns3:TrackPointExtension>
            <ns3:atemp>17.0</ns3:atemp>
          </ns3:TrackPointExtension>
        </extensions>
      </trkpt>
      <trkpt lat="42.55783251486718654632568359375" lon="20.07672096602618694305419921875">
        <ele>2210.199951171875</ele>
        <time>2026-06-19T12:00:35.000Z</time>
        <extensions>
          <ns3:TrackPointExtension>
            <ns3:atemp>17.0</ns3:atemp>
          </ns3:TrackPointExtension>
        </extensions>
      </trkpt>
      <trkpt lat="42.55783251486718654632568359375" lon="20.07672096602618694305419921875">
        <ele>2210</ele>
        <time>2026-06-19T12:00:36.000Z</time>
        <extensions>
          <ns3:TrackPointExtension>
            <ns3:atemp>17.0</ns3:atemp>
          </ns3:TrackPointExtension>
        </extensions>
      </trkpt>
      <trkpt lat="42.55783251486718654632568359375" lon="20.07672096602618694305419921875">
        <ele>2210</ele>
        <time>2026-06-19T12:00:37.000Z</time>
        <extensions>
          <ns3:TrackPointExtension>
            <ns3:atemp>17.0</ns3:atemp>
          </ns3:TrackPointExtension>
        </extensions>
      </trkpt>
      <trkpt lat="42.55783251486718654632568359375" lon="20.07672096602618694305419921875">
        <ele>2210</ele>
        <time>2026-06-19T12:00:38.000Z</time>
        <extensions>
          <ns3:TrackPointExtension>
            <ns3:atemp>17.0</ns3:atemp>
          </ns3:TrackPointExtension>
        </extensions>
      </trkpt>
      <trkpt lat="42.55783251486718654632568359375" lon="20.07672096602618694305419921875">
        <ele>2210</ele>
        <time>2026-06-19T12:00:39.000Z</time>
        <extensions>
          <ns3:TrackPointExtension>
            <ns3:atemp>17.0</ns3:atemp>
          </ns3:TrackPointExtension>
        </extensions>
      </trkpt>
      <trkpt lat="42.55783251486718654632568359375" lon="20.07672096602618694305419921875">
        <ele>2210</ele>
        <time>2026-06-19T12:00:40.000Z</time>
        <extensions>
          <ns3:TrackPointExtension>
            <ns3:atemp>17.0</ns3:atemp>
          </ns3:TrackPointExtension>
        </extensions>
      </trkpt>
      <trkpt lat="42.55783251486718654632568359375" lon="20.07672096602618694305419921875">
        <ele>2210</ele>
        <time>2026-06-19T12:00:41.000Z</time>
        <extensions>
          <ns3:TrackPointExtension>
            <ns3:atemp>17.0</ns3:atemp>
          </ns3:TrackPointExtension>
        </extensions>
      </trkpt>
      <trkpt lat="42.55783251486718654632568359375" lon="20.07672096602618694305419921875">
        <ele>2210</ele>
        <time>2026-06-19T12:00:42.000Z</time>
        <extensions>
          <ns3:TrackPointExtension>
            <ns3:atemp>17.0</ns3:atemp>
          </ns3:TrackPointExtension>
        </extensions>
      </trkpt>
      <trkpt lat="42.55783251486718654632568359375" lon="20.07672096602618694305419921875">
        <ele>2210</ele>
        <time>2026-06-19T12:00:43.000Z</time>
        <extensions>
          <ns3:TrackPointExtension>
            <ns3:atemp>17.0</ns3:atemp>
          </ns3:TrackPointExtension>
        </extensions>
      </trkpt>
      <trkpt lat="42.55783251486718654632568359375" lon="20.07672096602618694305419921875">
        <ele>2209.800048828125</ele>
        <time>2026-06-19T12:00:44.000Z</time>
        <extensions>
          <ns3:TrackPointExtension>
            <ns3:atemp>17.0</ns3:atemp>
          </ns3:TrackPointExtension>
        </extensions>
      </trkpt>
      <trkpt lat="42.55783251486718654632568359375" lon="20.07672096602618694305419921875">
        <ele>2209.800048828125</ele>
        <time>2026-06-19T12:00:45.000Z</time>
        <extensions>
          <ns3:TrackPointExtension>
            <ns3:atemp>17.0</ns3:atemp>
          </ns3:TrackPointExtension>
        </extensions>
      </trkpt>
      <trkpt lat="42.55783251486718654632568359375" lon="20.07672096602618694305419921875">
        <ele>2209.800048828125</ele>
        <time>2026-06-19T12:00:46.000Z</time>
        <extensions>
          <ns3:TrackPointExtension>
            <ns3:atemp>17.0</ns3:atemp>
          </ns3:TrackPointExtension>
        </extensions>
      </trkpt>
      <trkpt lat="42.55783251486718654632568359375" lon="20.07672096602618694305419921875">
        <ele>2209.60009765625</ele>
        <time>2026-06-19T12:00:47.000Z</time>
        <extensions>
          <ns3:TrackPointExtension>
            <ns3:atemp>17.0</ns3:atemp>
          </ns3:TrackPointExtension>
        </extensions>
      </trkpt>
      <trkpt lat="42.55783251486718654632568359375" lon="20.07672096602618694305419921875">
        <ele>2209.60009765625</ele>
        <time>2026-06-19T12:00:48.000Z</time>
        <extensions>
          <ns3:TrackPointExtension>
            <ns3:atemp>17.0</ns3:atemp>
          </ns3:TrackPointExtension>
        </extensions>
      </trkpt>
      <trkpt lat="42.55783251486718654632568359375" lon="20.07672096602618694305419921875">
        <ele>2209.800048828125</ele>
        <time>2026-06-19T12:00:49.000Z</time>
        <extensions>
          <ns3:TrackPointExtension>
            <ns3:atemp>17.0</ns3:atemp>
          </ns3:TrackPointExtension>
        </extensions>
      </trkpt>
      <trkpt lat="42.55783251486718654632568359375" lon="20.07672096602618694305419921875">
        <ele>2209.800048828125</ele>
        <time>2026-06-19T12:00:50.000Z</time>
        <extensions>
          <ns3:TrackPointExtension>
            <ns3:atemp>17.0</ns3:atemp>
          </ns3:TrackPointExtension>
        </extensions>
      </trkpt>
      <trkpt lat="42.55783251486718654632568359375" lon="20.07672096602618694305419921875">
        <ele>2210</ele>
        <time>2026-06-19T12:00:51.000Z</time>
        <extensions>
          <ns3:TrackPointExtension>
            <ns3:atemp>17.0</ns3:atemp>
          </ns3:TrackPointExtension>
        </extensions>
      </trkpt>
      <trkpt lat="42.55783251486718654632568359375" lon="20.07672096602618694305419921875">
        <ele>2210.39990234375</ele>
        <time>2026-06-19T12:00:52.000Z</time>
        <extensions>
          <ns3:TrackPointExtension>
            <ns3:atemp>17.0</ns3:atemp>
          </ns3:TrackPointExtension>
        </extensions>
      </trkpt>
      <trkpt lat="42.55783251486718654632568359375" lon="20.07672096602618694305419921875">
        <ele>2210.60009765625</ele>
        <time>2026-06-19T12:00:53.000Z</time>
        <extensions>
          <ns3:TrackPointExtension>
            <ns3:atemp>17.0</ns3:atemp>
          </ns3:TrackPointExtension>
        </extensions>
      </trkpt>
      <trkpt lat="42.55783251486718654632568359375" lon="20.07672096602618694305419921875">
        <ele>2210.800048828125</ele>
        <time>2026-06-19T12:00:54.000Z</time>
        <extensions>
          <ns3:TrackPointExtension>
            <ns3:atemp>17.0</ns3:atemp>
          </ns3:TrackPointExtension>
        </extensions>
      </trkpt>
      <trkpt lat="42.55783251486718654632568359375" lon="20.07672096602618694305419921875">
        <ele>2211</ele>
        <time>2026-06-19T12:00:55.000Z</time>
        <extensions>
          <ns3:TrackPointExtension>
            <ns3:atemp>17.0</ns3:atemp>
          </ns3:TrackPointExtension>
        </extensions>
      </trkpt>
      <trkpt lat="42.55783251486718654632568359375" lon="20.07672096602618694305419921875">
        <ele>2211.199951171875</ele>
        <time>2026-06-19T12:00:56.000Z</time>
        <extensions>
          <ns3:TrackPointExtension>
            <ns3:atemp>17.0</ns3:atemp>
          </ns3:TrackPointExtension>
        </extensions>
      </trkpt>
      <trkpt lat="42.55783251486718654632568359375" lon="20.07672096602618694305419921875">
        <ele>2211.39990234375</ele>
        <time>2026-06-19T12:00:57.000Z</time>
        <extensions>
          <ns3:TrackPointExtension>
            <ns3:atemp>17.0</ns3:atemp>
          </ns3:TrackPointExtension>
        </extensions>
      </trkpt>
      <trkpt lat="42.55783251486718654632568359375" lon="20.07672096602618694305419921875">
        <ele>2211.39990234375</ele>
        <time>2026-06-19T12:00:58.000Z</time>
        <extensions>
          <ns3:TrackPointExtension>
            <ns3:atemp>17.0</ns3:atemp>
          </ns3:TrackPointExtension>
        </extensions>
      </trkpt>
      <trkpt lat="42.55783251486718654632568359375" lon="20.07672096602618694305419921875">
        <ele>2211.39990234375</ele>
        <time>2026-06-19T12:00:59.000Z</time>
        <extensions>
          <ns3:TrackPointExtension>
            <ns3:atemp>17.0</ns3:atemp>
          </ns3:TrackPointExtension>
        </extensions>
      </trkpt>
      <trkpt lat="42.55783251486718654632568359375" lon="20.07672096602618694305419921875">
        <ele>2211.60009765625</ele>
        <time>2026-06-19T12:01:00.000Z</time>
        <extensions>
          <ns3:TrackPointExtension>
            <ns3:atemp>17.0</ns3:atemp>
          </ns3:TrackPointExtension>
        </extensions>
      </trkpt>
      <trkpt lat="42.55783251486718654632568359375" lon="20.07672096602618694305419921875">
        <ele>2211.60009765625</ele>
        <time>2026-06-19T12:01:01.000Z</time>
        <extensions>
          <ns3:TrackPointExtension>
            <ns3:atemp>17.0</ns3:atemp>
          </ns3:TrackPointExtension>
        </extensions>
      </trkpt>
      <trkpt lat="42.55783251486718654632568359375" lon="20.07672096602618694305419921875">
        <ele>2211.60009765625</ele>
        <time>2026-06-19T12:01:02.000Z</time>
        <extensions>
          <ns3:TrackPointExtension>
            <ns3:atemp>17.0</ns3:atemp>
          </ns3:TrackPointExtension>
        </extensions>
      </trkpt>
      <trkpt lat="42.55783251486718654632568359375" lon="20.07672096602618694305419921875">
        <ele>2211.60009765625</ele>
        <time>2026-06-19T12:01:03.000Z</time>
        <extensions>
          <ns3:TrackPointExtension>
            <ns3:atemp>17.0</ns3:atemp>
          </ns3:TrackPointExtension>
        </extensions>
      </trkpt>
      <trkpt lat="42.55783251486718654632568359375" lon="20.07672096602618694305419921875">
        <ele>2211.39990234375</ele>
        <time>2026-06-19T12:01:04.000Z</time>
        <extensions>
          <ns3:TrackPointExtension>
            <ns3:atemp>17.0</ns3:atemp>
          </ns3:TrackPointExtension>
        </extensions>
      </trkpt>
      <trkpt lat="42.55783251486718654632568359375" lon="20.07672096602618694305419921875">
        <ele>2211.199951171875</ele>
        <time>2026-06-19T12:01:05.000Z</time>
        <extensions>
          <ns3:TrackPointExtension>
            <ns3:atemp>17.0</ns3:atemp>
          </ns3:TrackPointExtension>
        </extensions>
      </trkpt>
      <trkpt lat="42.55783251486718654632568359375" lon="20.07672096602618694305419921875">
        <ele>2211</ele>
        <time>2026-06-19T12:01:06.000Z</time>
        <extensions>
          <ns3:TrackPointExtension>
            <ns3:atemp>17.0</ns3:atemp>
          </ns3:TrackPointExtension>
        </extensions>
      </trkpt>
      <trkpt lat="42.55783251486718654632568359375" lon="20.07672096602618694305419921875">
        <ele>2210.800048828125</ele>
        <time>2026-06-19T12:01:07.000Z</time>
        <extensions>
          <ns3:TrackPointExtension>
            <ns3:atemp>17.0</ns3:atemp>
          </ns3:TrackPointExtension>
        </extensions>
      </trkpt>
      <trkpt lat="42.55783251486718654632568359375" lon="20.07672096602618694305419921875">
        <ele>2210.800048828125</ele>
        <time>2026-06-19T12:01:08.000Z</time>
        <extensions>
          <ns3:TrackPointExtension>
            <ns3:atemp>17.0</ns3:atemp>
          </ns3:TrackPointExtension>
        </extensions>
      </trkpt>
      <trkpt lat="42.55783251486718654632568359375" lon="20.07672096602618694305419921875">
        <ele>2210.800048828125</ele>
        <time>2026-06-19T12:01:09.000Z</time>
        <extensions>
          <ns3:TrackPointExtension>
            <ns3:atemp>17.0</ns3:atemp>
          </ns3:TrackPointExtension>
        </extensions>
      </trkpt>
      <trkpt lat="42.55783251486718654632568359375" lon="20.07672096602618694305419921875">
        <ele>2210.800048828125</ele>
        <time>2026-06-19T12:01:10.000Z</time>
        <extensions>
          <ns3:TrackPointExtension>
            <ns3:atemp>17.0</ns3:atemp>
          </ns3:TrackPointExtension>
        </extensions>
      </trkpt>
      <trkpt lat="42.55783251486718654632568359375" lon="20.07672096602618694305419921875">
        <ele>2211</ele>
        <time>2026-06-19T12:01:11.000Z</time>
        <extensions>
          <ns3:TrackPointExtension>
            <ns3:atemp>17.0</ns3:atemp>
          </ns3:TrackPointExtension>
        </extensions>
      </trkpt>
      <trkpt lat="42.55783251486718654632568359375" lon="20.07672096602618694305419921875">
        <ele>2211.199951171875</ele>
        <time>2026-06-19T12:01:12.000Z</time>
        <extensions>
          <ns3:TrackPointExtension>
            <ns3:atemp>17.0</ns3:atemp>
          </ns3:TrackPointExtension>
        </extensions>
      </trkpt>
      <trkpt lat="42.55783251486718654632568359375" lon="20.07672096602618694305419921875">
        <ele>2211.60009765625</ele>
        <time>2026-06-19T12:01:13.000Z</time>
        <extensions>
          <ns3:TrackPointExtension>
            <ns3:atemp>17.0</ns3:atemp>
          </ns3:TrackPointExtension>
        </extensions>
      </trkpt>
      <trkpt lat="42.55783251486718654632568359375" lon="20.07672096602618694305419921875">
        <ele>2211.60009765625</ele>
        <time>2026-06-19T12:01:14.000Z</time>
        <extensions>
          <ns3:TrackPointExtension>
            <ns3:atemp>17.0</ns3:atemp>
          </ns3:TrackPointExtension>
        </extensions>
      </trkpt>
      <trkpt lat="42.55783251486718654632568359375" lon="20.07672096602618694305419921875">
        <ele>2211.60009765625</ele>
        <time>2026-06-19T12:01:15.000Z</time>
        <extensions>
          <ns3:TrackPointExtension>
            <ns3:atemp>17.0</ns3:atemp>
          </ns3:TrackPointExtension>
        </extensions>
      </trkpt>
      <trkpt lat="42.55783251486718654632568359375" lon="20.07672096602618694305419921875">
        <ele>2211.800048828125</ele>
        <time>2026-06-19T12:01:16.000Z</time>
        <extensions>
          <ns3:TrackPointExtension>
            <ns3:atemp>17.0</ns3:atemp>
          </ns3:TrackPointExtension>
        </extensions>
      </trkpt>
      <trkpt lat="42.55783251486718654632568359375" lon="20.07672096602618694305419921875">
        <ele>2211.60009765625</ele>
        <time>2026-06-19T12:01:17.000Z</time>
        <extensions>
          <ns3:TrackPointExtension>
            <ns3:atemp>17.0</ns3:atemp>
          </ns3:TrackPointExtension>
        </extensions>
      </trkpt>
      <trkpt lat="42.55783251486718654632568359375" lon="20.07672096602618694305419921875">
        <ele>2211.60009765625</ele>
        <time>2026-06-19T12:01:18.000Z</time>
        <extensions>
          <ns3:TrackPointExtension>
            <ns3:atemp>17.0</ns3:atemp>
          </ns3:TrackPointExtension>
        </extensions>
      </trkpt>
      <trkpt lat="42.55783251486718654632568359375" lon="20.07672096602618694305419921875">
        <ele>2211.60009765625</ele>
        <time>2026-06-19T12:01:19.000Z</time>
        <extensions>
          <ns3:TrackPointExtension>
            <ns3:atemp>17.0</ns3:atemp>
          </ns3:TrackPointExtension>
        </extensions>
      </trkpt>
      <trkpt lat="42.55783251486718654632568359375" lon="20.07672096602618694305419921875">
        <ele>2211.60009765625</ele>
        <time>2026-06-19T12:01:20.000Z</time>
        <extensions>
          <ns3:TrackPointExtension>
            <ns3:atemp>17.0</ns3:atemp>
          </ns3:TrackPointExtension>
        </extensions>
      </trkpt>
      <trkpt lat="42.55783251486718654632568359375" lon="20.07672096602618694305419921875">
        <ele>2211.60009765625</ele>
        <time>2026-06-19T12:01:21.000Z</time>
        <extensions>
          <ns3:TrackPointExtension>
            <ns3:atemp>17.0</ns3:atemp>
          </ns3:TrackPointExtension>
        </extensions>
      </trkpt>
      <trkpt lat="42.55783251486718654632568359375" lon="20.07672096602618694305419921875">
        <ele>2211.60009765625</ele>
        <time>2026-06-19T12:01:22.000Z</time>
        <extensions>
          <ns3:TrackPointExtension>
            <ns3:atemp>17.0</ns3:atemp>
          </ns3:TrackPointExtension>
        </extensions>
      </trkpt>
      <trkpt lat="42.55783251486718654632568359375" lon="20.07672096602618694305419921875">
        <ele>2211.60009765625</ele>
        <time>2026-06-19T12:01:23.000Z</time>
        <extensions>
          <ns3:TrackPointExtension>
            <ns3:atemp>17.0</ns3:atemp>
          </ns3:TrackPointExtension>
        </extensions>
      </trkpt>
      <trkpt lat="42.55783251486718654632568359375" lon="20.07672096602618694305419921875">
        <ele>2211.60009765625</ele>
        <time>2026-06-19T12:01:24.000Z</time>
        <extensions>
          <ns3:TrackPointExtension>
            <ns3:atemp>17.0</ns3:atemp>
          </ns3:TrackPointExtension>
        </extensions>
      </trkpt>
      <trkpt lat="42.55783251486718654632568359375" lon="20.07672096602618694305419921875">
        <ele>2211.60009765625</ele>
        <time>2026-06-19T12:01:25.000Z</time>
        <extensions>
          <ns3:TrackPointExtension>
            <ns3:atemp>17.0</ns3:atemp>
          </ns3:TrackPointExtension>
        </extensions>
      </trkpt>
      <trkpt lat="42.55783251486718654632568359375" lon="20.07672096602618694305419921875">
        <ele>2211.39990234375</ele>
        <time>2026-06-19T12:01:26.000Z</time>
        <extensions>
          <ns3:TrackPointExtension>
            <ns3:atemp>17.0</ns3:atemp>
          </ns3:TrackPointExtension>
        </extensions>
      </trkpt>
      <trkpt lat="42.55783251486718654632568359375" lon="20.07672096602618694305419921875">
        <ele>2211.39990234375</ele>
        <time>2026-06-19T12:01:27.000Z</time>
        <extensions>
          <ns3:TrackPointExtension>
            <ns3:atemp>17.0</ns3:atemp>
          </ns3:TrackPointExtension>
        </extensions>
      </trkpt>
      <trkpt lat="42.55783251486718654632568359375" lon="20.07672096602618694305419921875">
        <ele>2211.39990234375</ele>
        <time>2026-06-19T12:01:28.000Z</time>
        <extensions>
          <ns3:TrackPointExtension>
            <ns3:atemp>17.0</ns3:atemp>
          </ns3:TrackPointExtension>
        </extensions>
      </trkpt>
      <trkpt lat="42.55783251486718654632568359375" lon="20.07672096602618694305419921875">
        <ele>2211.39990234375</ele>
        <time>2026-06-19T12:01:29.000Z</time>
        <extensions>
          <ns3:TrackPointExtension>
            <ns3:atemp>17.0</ns3:atemp>
          </ns3:TrackPointExtension>
        </extensions>
      </trkpt>
      <trkpt lat="42.55783251486718654632568359375" lon="20.07672096602618694305419921875">
        <ele>2211.39990234375</ele>
        <time>2026-06-19T12:01:30.000Z</time>
        <extensions>
          <ns3:TrackPointExtension>
            <ns3:atemp>17.0</ns3:atemp>
          </ns3:TrackPointExtension>
        </extensions>
      </trkpt>
      <trkpt lat="42.55783251486718654632568359375" lon="20.07672096602618694305419921875">
        <ele>2211.60009765625</ele>
        <time>2026-06-19T12:01:31.000Z</time>
        <extensions>
          <ns3:TrackPointExtension>
            <ns3:atemp>17.0</ns3:atemp>
          </ns3:TrackPointExtension>
        </extensions>
      </trkpt>
      <trkpt lat="42.55783251486718654632568359375" lon="20.07672096602618694305419921875">
        <ele>2211.800048828125</ele>
        <time>2026-06-19T12:01:32.000Z</time>
        <extensions>
          <ns3:TrackPointExtension>
            <ns3:atemp>17.0</ns3:atemp>
          </ns3:TrackPointExtension>
        </extensions>
      </trkpt>
      <trkpt lat="42.55783251486718654632568359375" lon="20.07672096602618694305419921875">
        <ele>2212</ele>
        <time>2026-06-19T12:01:33.000Z</time>
        <extensions>
          <ns3:TrackPointExtension>
            <ns3:atemp>17.0</ns3:atemp>
          </ns3:TrackPointExtension>
        </extensions>
      </trkpt>
      <trkpt lat="42.55783251486718654632568359375" lon="20.07672096602618694305419921875">
        <ele>2212.199951171875</ele>
        <time>2026-06-19T12:01:34.000Z</time>
        <extensions>
          <ns3:TrackPointExtension>
            <ns3:atemp>17.0</ns3:atemp>
          </ns3:TrackPointExtension>
        </extensions>
      </trkpt>
      <trkpt lat="42.55783251486718654632568359375" lon="20.07672096602618694305419921875">
        <ele>2212.199951171875</ele>
        <time>2026-06-19T12:01:35.000Z</time>
        <extensions>
          <ns3:TrackPointExtension>
            <ns3:atemp>17.0</ns3:atemp>
          </ns3:TrackPointExtension>
        </extensions>
      </trkpt>
      <trkpt lat="42.55783251486718654632568359375" lon="20.07672096602618694305419921875">
        <ele>2212.199951171875</ele>
        <time>2026-06-19T12:01:36.000Z</time>
        <extensions>
          <ns3:TrackPointExtension>
            <ns3:atemp>17.0</ns3:atemp>
          </ns3:TrackPointExtension>
        </extensions>
      </trkpt>
      <trkpt lat="42.55783251486718654632568359375" lon="20.07672096602618694305419921875">
        <ele>2212</ele>
        <time>2026-06-19T12:01:37.000Z</time>
        <extensions>
          <ns3:TrackPointExtension>
            <ns3:atemp>17.0</ns3:atemp>
          </ns3:TrackPointExtension>
        </extensions>
      </trkpt>
      <trkpt lat="42.55783251486718654632568359375" lon="20.07672096602618694305419921875">
        <ele>2212</ele>
        <time>2026-06-19T12:01:38.000Z</time>
        <extensions>
          <ns3:TrackPointExtension>
            <ns3:atemp>17.0</ns3:atemp>
          </ns3:TrackPointExtension>
        </extensions>
      </trkpt>
      <trkpt lat="42.55783251486718654632568359375" lon="20.07672096602618694305419921875">
        <ele>2211.800048828125</ele>
        <time>2026-06-19T12:01:39.000Z</time>
        <extensions>
          <ns3:TrackPointExtension>
            <ns3:atemp>17.0</ns3:atemp>
          </ns3:TrackPointExtension>
        </extensions>
      </trkpt>
      <trkpt lat="42.55783251486718654632568359375" lon="20.07672096602618694305419921875">
        <ele>2211.800048828125</ele>
        <time>2026-06-19T12:01:40.000Z</time>
        <extensions>
          <ns3:TrackPointExtension>
            <ns3:atemp>17.0</ns3:atemp>
          </ns3:TrackPointExtension>
        </extensions>
      </trkpt>
      <trkpt lat="42.55783251486718654632568359375" lon="20.07672096602618694305419921875">
        <ele>2211.800048828125</ele>
        <time>2026-06-19T12:01:41.000Z</time>
        <extensions>
          <ns3:TrackPointExtension>
            <ns3:atemp>17.0</ns3:atemp>
          </ns3:TrackPointExtension>
        </extensions>
      </trkpt>
      <trkpt lat="42.55783251486718654632568359375" lon="20.07672096602618694305419921875">
        <ele>2211.60009765625</ele>
        <time>2026-06-19T12:01:42.000Z</time>
        <extensions>
          <ns3:TrackPointExtension>
            <ns3:atemp>17.0</ns3:atemp>
          </ns3:TrackPointExtension>
        </extensions>
      </trkpt>
      <trkpt lat="42.55783251486718654632568359375" lon="20.07672096602618694305419921875">
        <ele>2211.60009765625</ele>
        <time>2026-06-19T12:01:43.000Z</time>
        <extensions>
          <ns3:TrackPointExtension>
            <ns3:atemp>17.0</ns3:atemp>
          </ns3:TrackPointExtension>
        </extensions>
      </trkpt>
      <trkpt lat="42.55783251486718654632568359375" lon="20.07672096602618694305419921875">
        <ele>2211.60009765625</ele>
        <time>2026-06-19T12:01:44.000Z</time>
        <extensions>
          <ns3:TrackPointExtension>
            <ns3:atemp>17.0</ns3:atemp>
          </ns3:TrackPointExtension>
        </extensions>
      </trkpt>
      <trkpt lat="42.55783251486718654632568359375" lon="20.07672096602618694305419921875">
        <ele>2211.60009765625</ele>
        <time>2026-06-19T12:01:45.000Z</time>
        <extensions>
          <ns3:TrackPointExtension>
            <ns3:atemp>17.0</ns3:atemp>
          </ns3:TrackPointExtension>
        </extensions>
      </trkpt>
      <trkpt lat="42.55783251486718654632568359375" lon="20.07672096602618694305419921875">
        <ele>2211.60009765625</ele>
        <time>2026-06-19T12:01:46.000Z</time>
        <extensions>
          <ns3:TrackPointExtension>
            <ns3:atemp>17.0</ns3:atemp>
          </ns3:TrackPointExtension>
        </extensions>
      </trkpt>
      <trkpt lat="42.55783251486718654632568359375" lon="20.07672096602618694305419921875">
        <ele>2211.60009765625</ele>
        <time>2026-06-19T12:01:47.000Z</time>
        <extensions>
          <ns3:TrackPointExtension>
            <ns3:atemp>17.0</ns3:atemp>
          </ns3:TrackPointExtension>
        </extensions>
      </trkpt>
      <trkpt lat="42.55783251486718654632568359375" lon="20.07672096602618694305419921875">
        <ele>2211.60009765625</ele>
        <time>2026-06-19T12:01:48.000Z</time>
        <extensions>
          <ns3:TrackPointExtension>
            <ns3:atemp>17.0</ns3:atemp>
          </ns3:TrackPointExtension>
        </extensions>
      </trkpt>
      <trkpt lat="42.55783251486718654632568359375" lon="20.07672096602618694305419921875">
        <ele>2211.60009765625</ele>
        <time>2026-06-19T12:01:49.000Z</time>
        <extensions>
          <ns3:TrackPointExtension>
            <ns3:atemp>17.0</ns3:atemp>
          </ns3:TrackPointExtension>
        </extensions>
      </trkpt>
      <trkpt lat="42.55783251486718654632568359375" lon="20.07672096602618694305419921875">
        <ele>2211.39990234375</ele>
        <time>2026-06-19T12:01:50.000Z</time>
        <extensions>
          <ns3:TrackPointExtension>
            <ns3:atemp>17.0</ns3:atemp>
          </ns3:TrackPointExtension>
        </extensions>
      </trkpt>
      <trkpt lat="42.55783251486718654632568359375" lon="20.07672096602618694305419921875">
        <ele>2211.39990234375</ele>
        <time>2026-06-19T12:01:51.000Z</time>
        <extensions>
          <ns3:TrackPointExtension>
            <ns3:atemp>17.0</ns3:atemp>
          </ns3:TrackPointExtension>
        </extensions>
      </trkpt>
      <trkpt lat="42.55783251486718654632568359375" lon="20.07672096602618694305419921875">
        <ele>2211.199951171875</ele>
        <time>2026-06-19T12:01:52.000Z</time>
        <extensions>
          <ns3:TrackPointExtension>
            <ns3:atemp>17.0</ns3:atemp>
          </ns3:TrackPointExtension>
        </extensions>
      </trkpt>
      <trkpt lat="42.55783251486718654632568359375" lon="20.07672096602618694305419921875">
        <ele>2211.199951171875</ele>
        <time>2026-06-19T12:01:53.000Z</time>
        <extensions>
          <ns3:TrackPointExtension>
            <ns3:atemp>17.0</ns3:atemp>
          </ns3:TrackPointExtension>
        </extensions>
      </trkpt>
      <trkpt lat="42.55783251486718654632568359375" lon="20.07672096602618694305419921875">
        <ele>2211</ele>
        <time>2026-06-19T12:01:54.000Z</time>
        <extensions>
          <ns3:TrackPointExtension>
            <ns3:atemp>17.0</ns3:atemp>
          </ns3:TrackPointExtension>
        </extensions>
      </trkpt>
      <trkpt lat="42.55783251486718654632568359375" lon="20.07672096602618694305419921875">
        <ele>2211</ele>
        <time>2026-06-19T12:01:55.000Z</time>
        <extensions>
          <ns3:TrackPointExtension>
            <ns3:atemp>17.0</ns3:atemp>
          </ns3:TrackPointExtension>
        </extensions>
      </trkpt>
      <trkpt lat="42.55783251486718654632568359375" lon="20.07672096602618694305419921875">
        <ele>2211</ele>
        <time>2026-06-19T12:01:56.000Z</time>
        <extensions>
          <ns3:TrackPointExtension>
            <ns3:atemp>17.0</ns3:atemp>
          </ns3:TrackPointExtension>
        </extensions>
      </trkpt>
      <trkpt lat="42.55783251486718654632568359375" lon="20.07672096602618694305419921875">
        <ele>2210.800048828125</ele>
        <time>2026-06-19T12:01:57.000Z</time>
        <extensions>
          <ns3:TrackPointExtension>
            <ns3:atemp>17.0</ns3:atemp>
          </ns3:TrackPointExtension>
        </extensions>
      </trkpt>
      <trkpt lat="42.55783251486718654632568359375" lon="20.07672096602618694305419921875">
        <ele>2210.800048828125</ele>
        <time>2026-06-19T12:01:58.000Z</time>
        <extensions>
          <ns3:TrackPointExtension>
            <ns3:atemp>17.0</ns3:atemp>
          </ns3:TrackPointExtension>
        </extensions>
      </trkpt>
      <trkpt lat="42.55783251486718654632568359375" lon="20.07672096602618694305419921875">
        <ele>2211</ele>
        <time>2026-06-19T12:01:59.000Z</time>
        <extensions>
          <ns3:TrackPointExtension>
            <ns3:atemp>17.0</ns3:atemp>
          </ns3:TrackPointExtension>
        </extensions>
      </trkpt>
      <trkpt lat="42.55783251486718654632568359375" lon="20.07672096602618694305419921875">
        <ele>2211</ele>
        <time>2026-06-19T12:02:00.000Z</time>
        <extensions>
          <ns3:TrackPointExtension>
            <ns3:atemp>17.0</ns3:atemp>
          </ns3:TrackPointExtension>
        </extensions>
      </trkpt>
      <trkpt lat="42.55783251486718654632568359375" lon="20.07672096602618694305419921875">
        <ele>2211.199951171875</ele>
        <time>2026-06-19T12:02:01.000Z</time>
        <extensions>
          <ns3:TrackPointExtension>
            <ns3:atemp>17.0</ns3:atemp>
          </ns3:TrackPointExtension>
        </extensions>
      </trkpt>
      <trkpt lat="42.55783251486718654632568359375" lon="20.07672096602618694305419921875">
        <ele>2211.39990234375</ele>
        <time>2026-06-19T12:02:02.000Z</time>
        <extensions>
          <ns3:TrackPointExtension>
            <ns3:atemp>17.0</ns3:atemp>
          </ns3:TrackPointExtension>
        </extensions>
      </trkpt>
      <trkpt lat="42.55783251486718654632568359375" lon="20.07672096602618694305419921875">
        <ele>2211.60009765625</ele>
        <time>2026-06-19T12:02:03.000Z</time>
        <extensions>
          <ns3:TrackPointExtension>
            <ns3:atemp>17.0</ns3:atemp>
          </ns3:TrackPointExtension>
        </extensions>
      </trkpt>
      <trkpt lat="42.55783251486718654632568359375" lon="20.07672096602618694305419921875">
        <ele>2211.60009765625</ele>
        <time>2026-06-19T12:02:04.000Z</time>
        <extensions>
          <ns3:TrackPointExtension>
            <ns3:atemp>17.0</ns3:atemp>
          </ns3:TrackPointExtension>
        </extensions>
      </trkpt>
      <trkpt lat="42.55783251486718654632568359375" lon="20.07672096602618694305419921875">
        <ele>2211.60009765625</ele>
        <time>2026-06-19T12:02:05.000Z</time>
        <extensions>
          <ns3:TrackPointExtension>
            <ns3:atemp>17.0</ns3:atemp>
          </ns3:TrackPointExtension>
        </extensions>
      </trkpt>
      <trkpt lat="42.55783251486718654632568359375" lon="20.07672096602618694305419921875">
        <ele>2211.60009765625</ele>
        <time>2026-06-19T12:02:06.000Z</time>
        <extensions>
          <ns3:TrackPointExtension>
            <ns3:atemp>17.0</ns3:atemp>
          </ns3:TrackPointExtension>
        </extensions>
      </trkpt>
      <trkpt lat="42.55783251486718654632568359375" lon="20.07672096602618694305419921875">
        <ele>2211.60009765625</ele>
        <time>2026-06-19T12:02:07.000Z</time>
        <extensions>
          <ns3:TrackPointExtension>
            <ns3:atemp>17.0</ns3:atemp>
          </ns3:TrackPointExtension>
        </extensions>
      </trkpt>
      <trkpt lat="42.55783251486718654632568359375" lon="20.07672096602618694305419921875">
        <ele>2211.60009765625</ele>
        <time>2026-06-19T12:02:08.000Z</time>
        <extensions>
          <ns3:TrackPointExtension>
            <ns3:atemp>17.0</ns3:atemp>
          </ns3:TrackPointExtension>
        </extensions>
      </trkpt>
      <trkpt lat="42.55783251486718654632568359375" lon="20.07672096602618694305419921875">
        <ele>2211.800048828125</ele>
        <time>2026-06-19T12:02:09.000Z</time>
        <extensions>
          <ns3:TrackPointExtension>
            <ns3:atemp>18.0</ns3:atemp>
          </ns3:TrackPointExtension>
        </extensions>
      </trkpt>
      <trkpt lat="42.55783251486718654632568359375" lon="20.07672096602618694305419921875">
        <ele>2211.800048828125</ele>
        <time>2026-06-19T12:02:10.000Z</time>
        <extensions>
          <ns3:TrackPointExtension>
            <ns3:atemp>18.0</ns3:atemp>
          </ns3:TrackPointExtension>
        </extensions>
      </trkpt>
      <trkpt lat="42.55783251486718654632568359375" lon="20.07672096602618694305419921875">
        <ele>2211.800048828125</ele>
        <time>2026-06-19T12:02:11.000Z</time>
        <extensions>
          <ns3:TrackPointExtension>
            <ns3:atemp>18.0</ns3:atemp>
          </ns3:TrackPointExtension>
        </extensions>
      </trkpt>
      <trkpt lat="42.55783251486718654632568359375" lon="20.07672096602618694305419921875">
        <ele>2211.800048828125</ele>
        <time>2026-06-19T12:02:12.000Z</time>
        <extensions>
          <ns3:TrackPointExtension>
            <ns3:atemp>18.0</ns3:atemp>
          </ns3:TrackPointExtension>
        </extensions>
      </trkpt>
      <trkpt lat="42.55783251486718654632568359375" lon="20.07672096602618694305419921875">
        <ele>2212</ele>
        <time>2026-06-19T12:02:13.000Z</time>
        <extensions>
          <ns3:TrackPointExtension>
            <ns3:atemp>18.0</ns3:atemp>
          </ns3:TrackPointExtension>
        </extensions>
      </trkpt>
      <trkpt lat="42.55783251486718654632568359375" lon="20.07672096602618694305419921875">
        <ele>2212</ele>
        <time>2026-06-19T12:02:14.000Z</time>
        <extensions>
          <ns3:TrackPointExtension>
            <ns3:atemp>18.0</ns3:atemp>
          </ns3:TrackPointExtension>
        </extensions>
      </trkpt>
      <trkpt lat="42.55783251486718654632568359375" lon="20.07672096602618694305419921875">
        <ele>2212</ele>
        <time>2026-06-19T12:02:15.000Z</time>
        <extensions>
          <ns3:TrackPointExtension>
            <ns3:atemp>18.0</ns3:atemp>
          </ns3:TrackPointExtension>
        </extensions>
      </trkpt>
      <trkpt lat="42.55783251486718654632568359375" lon="20.07672096602618694305419921875">
        <ele>2212</ele>
        <time>2026-06-19T12:02:16.000Z</time>
        <extensions>
          <ns3:TrackPointExtension>
            <ns3:atemp>18.0</ns3:atemp>
          </ns3:TrackPointExtension>
        </extensions>
      </trkpt>
      <trkpt lat="42.55783251486718654632568359375" lon="20.07672096602618694305419921875">
        <ele>2212</ele>
        <time>2026-06-19T12:02:17.000Z</time>
        <extensions>
          <ns3:TrackPointExtension>
            <ns3:atemp>18.0</ns3:atemp>
          </ns3:TrackPointExtension>
        </extensions>
      </trkpt>
      <trkpt lat="42.55783251486718654632568359375" lon="20.07672096602618694305419921875">
        <ele>2211.800048828125</ele>
        <time>2026-06-19T12:02:18.000Z</time>
        <extensions>
          <ns3:TrackPointExtension>
            <ns3:atemp>18.0</ns3:atemp>
          </ns3:TrackPointExtension>
        </extensions>
      </trkpt>
      <trkpt lat="42.55783251486718654632568359375" lon="20.07672096602618694305419921875">
        <ele>2211.800048828125</ele>
        <time>2026-06-19T12:02:19.000Z</time>
        <extensions>
          <ns3:TrackPointExtension>
            <ns3:atemp>18.0</ns3:atemp>
          </ns3:TrackPointExtension>
        </extensions>
      </trkpt>
      <trkpt lat="42.55783251486718654632568359375" lon="20.07672096602618694305419921875">
        <ele>2211.800048828125</ele>
        <time>2026-06-19T12:02:20.000Z</time>
        <extensions>
          <ns3:TrackPointExtension>
            <ns3:atemp>18.0</ns3:atemp>
          </ns3:TrackPointExtension>
        </extensions>
      </trkpt>
      <trkpt lat="42.55783251486718654632568359375" lon="20.07672096602618694305419921875">
        <ele>2212</ele>
        <time>2026-06-19T12:02:21.000Z</time>
        <extensions>
          <ns3:TrackPointExtension>
            <ns3:atemp>18.0</ns3:atemp>
          </ns3:TrackPointExtension>
        </extensions>
      </trkpt>
      <trkpt lat="42.55783251486718654632568359375" lon="20.07672096602618694305419921875">
        <ele>2212</ele>
        <time>2026-06-19T12:02:22.000Z</time>
        <extensions>
          <ns3:TrackPointExtension>
            <ns3:atemp>18.0</ns3:atemp>
          </ns3:TrackPointExtension>
        </extensions>
      </trkpt>
      <trkpt lat="42.55783251486718654632568359375" lon="20.07672096602618694305419921875">
        <ele>2212.199951171875</ele>
        <time>2026-06-19T12:02:23.000Z</time>
        <extensions>
          <ns3:TrackPointExtension>
            <ns3:atemp>18.0</ns3:atemp>
          </ns3:TrackPointExtension>
        </extensions>
      </trkpt>
      <trkpt lat="42.55783251486718654632568359375" lon="20.07672096602618694305419921875">
        <ele>2212.199951171875</ele>
        <time>2026-06-19T12:02:24.000Z</time>
        <extensions>
          <ns3:TrackPointExtension>
            <ns3:atemp>18.0</ns3:atemp>
          </ns3:TrackPointExtension>
        </extensions>
      </trkpt>
      <trkpt lat="42.55783251486718654632568359375" lon="20.07672096602618694305419921875">
        <ele>2212.39990234375</ele>
        <time>2026-06-19T12:02:25.000Z</time>
        <extensions>
          <ns3:TrackPointExtension>
            <ns3:atemp>18.0</ns3:atemp>
          </ns3:TrackPointExtension>
        </extensions>
      </trkpt>
      <trkpt lat="42.55783251486718654632568359375" lon="20.07672096602618694305419921875">
        <ele>2212.39990234375</ele>
        <time>2026-06-19T12:02:26.000Z</time>
        <extensions>
          <ns3:TrackPointExtension>
            <ns3:atemp>18.0</ns3:atemp>
          </ns3:TrackPointExtension>
        </extensions>
      </trkpt>
      <trkpt lat="42.55783251486718654632568359375" lon="20.07672096602618694305419921875">
        <ele>2212.39990234375</ele>
        <time>2026-06-19T12:02:27.000Z</time>
        <extensions>
          <ns3:TrackPointExtension>
            <ns3:atemp>18.0</ns3:atemp>
          </ns3:TrackPointExtension>
        </extensions>
      </trkpt>
      <trkpt lat="42.55783251486718654632568359375" lon="20.07672096602618694305419921875">
        <ele>2212.39990234375</ele>
        <time>2026-06-19T12:02:28.000Z</time>
        <extensions>
          <ns3:TrackPointExtension>
            <ns3:atemp>18.0</ns3:atemp>
          </ns3:TrackPointExtension>
        </extensions>
      </trkpt>
      <trkpt lat="42.55783251486718654632568359375" lon="20.07672096602618694305419921875">
        <ele>2212.39990234375</ele>
        <time>2026-06-19T12:02:29.000Z</time>
        <extensions>
          <ns3:TrackPointExtension>
            <ns3:atemp>18.0</ns3:atemp>
          </ns3:TrackPointExtension>
        </extensions>
      </trkpt>
      <trkpt lat="42.55783251486718654632568359375" lon="20.07672096602618694305419921875">
        <ele>2212.39990234375</ele>
        <time>2026-06-19T12:02:30.000Z</time>
        <extensions>
          <ns3:TrackPointExtension>
            <ns3:atemp>18.0</ns3:atemp>
          </ns3:TrackPointExtension>
        </extensions>
      </trkpt>
      <trkpt lat="42.55783461034297943115234375" lon="20.0767220556735992431640625">
        <ele>2212.39990234375</ele>
        <time>2026-06-19T12:02:31.000Z</time>
        <extensions>
          <ns3:TrackPointExtension>
            <ns3:atemp>18.0</ns3:atemp>
          </ns3:TrackPointExtension>
        </extensions>
      </trkpt>
      <trkpt lat="42.55785338580608367919921875" lon="20.07673437707126140594482421875">
        <ele>2212.199951171875</ele>
        <time>2026-06-19T12:02:32.000Z</time>
        <extensions>
          <ns3:TrackPointExtension>
            <ns3:atemp>18.0</ns3:atemp>
          </ns3:TrackPointExtension>
        </extensions>
      </trkpt>
      <trkpt lat="42.5578629411756992340087890625" lon="20.07674560882151126861572265625">
        <ele>2212.199951171875</ele>
        <time>2026-06-19T12:02:33.000Z</time>
        <extensions>
          <ns3:TrackPointExtension>
            <ns3:atemp>18.0</ns3:atemp>
          </ns3:TrackPointExtension>
        </extensions>
      </trkpt>
      <trkpt lat="42.557870484888553619384765625" lon="20.0767594389617443084716796875">
        <ele>2212.199951171875</ele>
        <time>2026-06-19T12:02:34.000Z</time>
        <extensions>
          <ns3:TrackPointExtension>
            <ns3:atemp>18.0</ns3:atemp>
          </ns3:TrackPointExtension>
        </extensions>
      </trkpt>
      <trkpt lat="42.5578741729259490966796875" lon="20.07677880115807056427001953125">
        <ele>2212.199951171875</ele>
        <time>2026-06-19T12:02:35.000Z</time>
        <extensions>
          <ns3:TrackPointExtension>
            <ns3:atemp>18.0</ns3:atemp>
          </ns3:TrackPointExtension>
        </extensions>
      </trkpt>
      <trkpt lat="42.5578833930194377899169921875" lon="20.07680528797209262847900390625">
        <ele>2212.199951171875</ele>
        <time>2026-06-19T12:02:36.000Z</time>
        <extensions>
          <ns3:TrackPointExtension>
            <ns3:atemp>18.0</ns3:atemp>
          </ns3:TrackPointExtension>
        </extensions>
      </trkpt>
      <trkpt lat="42.5578991509974002838134765625" lon="20.07683680392801761627197265625">
        <ele>2212.39990234375</ele>
        <time>2026-06-19T12:02:37.000Z</time>
        <extensions>
          <ns3:TrackPointExtension>
            <ns3:atemp>18.0</ns3:atemp>
          </ns3:TrackPointExtension>
        </extensions>
      </trkpt>
      <trkpt lat="42.557912729680538177490234375" lon="20.076862871646881103515625">
        <ele>2212.39990234375</ele>
        <time>2026-06-19T12:02:38.000Z</time>
        <extensions>
          <ns3:TrackPointExtension>
            <ns3:atemp>18.0</ns3:atemp>
          </ns3:TrackPointExtension>
        </extensions>
      </trkpt>
      <trkpt lat="42.5579269789159297943115234375" lon="20.0768932141363620758056640625">
        <ele>2212.60009765625</ele>
        <time>2026-06-19T12:02:39.000Z</time>
        <extensions>
          <ns3:TrackPointExtension>
            <ns3:atemp>18.0</ns3:atemp>
          </ns3:TrackPointExtension>
        </extensions>
      </trkpt>
      <trkpt lat="42.55793896503746509552001953125" lon="20.07692213170230388641357421875">
        <ele>2212.800048828125</ele>
        <time>2026-06-19T12:02:40.000Z</time>
        <extensions>
          <ns3:TrackPointExtension>
            <ns3:atemp>18.0</ns3:atemp>
          </ns3:TrackPointExtension>
        </extensions>
      </trkpt>
      <trkpt lat="42.5579491071403026580810546875" lon="20.07695138454437255859375">
        <ele>2213</ele>
        <time>2026-06-19T12:02:41.000Z</time>
        <extensions>
          <ns3:TrackPointExtension>
            <ns3:atemp>18.0</ns3:atemp>
          </ns3:TrackPointExtension>
        </extensions>
      </trkpt>
      <trkpt lat="42.5579615123569965362548828125" lon="20.07698155939579010009765625">
        <ele>2213.199951171875</ele>
        <time>2026-06-19T12:02:42.000Z</time>
        <extensions>
          <ns3:TrackPointExtension>
            <ns3:atemp>18.0</ns3:atemp>
          </ns3:TrackPointExtension>
        </extensions>
      </trkpt>
      <trkpt lat="42.5579732470214366912841796875" lon="20.07701106369495391845703125">
        <ele>2213.39990234375</ele>
        <time>2026-06-19T12:02:43.000Z</time>
        <extensions>
          <ns3:TrackPointExtension>
            <ns3:atemp>18.0</ns3:atemp>
          </ns3:TrackPointExtension>
        </extensions>
      </trkpt>
      <trkpt lat="42.55798255093395709991455078125" lon="20.07703897543251514434814453125">
        <ele>2213.60009765625</ele>
        <time>2026-06-19T12:02:44.000Z</time>
        <extensions>
          <ns3:TrackPointExtension>
            <ns3:atemp>18.0</ns3:atemp>
          </ns3:TrackPointExtension>
        </extensions>
      </trkpt>
      <trkpt lat="42.557993195950984954833984375" lon="20.07706663571298122406005859375">
        <ele>2214</ele>
        <time>2026-06-19T12:02:45.000Z</time>
        <extensions>
          <ns3:TrackPointExtension>
            <ns3:atemp>18.0</ns3:atemp>
          </ns3:TrackPointExtension>
        </extensions>
      </trkpt>
      <trkpt lat="42.55800451152026653289794921875" lon="20.07709345780313014984130859375">
        <ele>2214.199951171875</ele>
        <time>2026-06-19T12:02:46.000Z</time>
        <extensions>
          <ns3:TrackPointExtension>
            <ns3:atemp>18.0</ns3:atemp>
          </ns3:TrackPointExtension>
        </extensions>
      </trkpt>
      <trkpt lat="42.55801188759505748748779296875" lon="20.07711810059845447540283203125">
        <ele>2214.39990234375</ele>
        <time>2026-06-19T12:02:47.000Z</time>
        <extensions>
          <ns3:TrackPointExtension>
            <ns3:atemp>18.0</ns3:atemp>
          </ns3:TrackPointExtension>
        </extensions>
      </trkpt>
      <trkpt lat="42.5580216944217681884765625" lon="20.07714341394603252410888671875">
        <ele>2214.800048828125</ele>
        <time>2026-06-19T12:02:48.000Z</time>
        <extensions>
          <ns3:TrackPointExtension>
            <ns3:atemp>18.0</ns3:atemp>
          </ns3:TrackPointExtension>
        </extensions>
      </trkpt>
      <trkpt lat="42.558032758533954620361328125" lon="20.07716855965554714202880859375">
        <ele>2215</ele>
        <time>2026-06-19T12:02:49.000Z</time>
        <extensions>
          <ns3:TrackPointExtension>
            <ns3:atemp>18.0</ns3:atemp>
          </ns3:TrackPointExtension>
        </extensions>
      </trkpt>
      <trkpt lat="42.55804440937936305999755859375" lon="20.07720150053501129150390625">
        <ele>2215</ele>
        <time>2026-06-19T12:02:50.000Z</time>
        <extensions>
          <ns3:TrackPointExtension>
            <ns3:atemp>18.0</ns3:atemp>
          </ns3:TrackPointExtension>
        </extensions>
      </trkpt>
      <trkpt lat="42.55805782042443752288818359375" lon="20.07723368704319000244140625">
        <ele>2215.199951171875</ele>
        <time>2026-06-19T12:02:51.000Z</time>
        <extensions>
          <ns3:TrackPointExtension>
            <ns3:atemp>18.0</ns3:atemp>
          </ns3:TrackPointExtension>
        </extensions>
      </trkpt>
      <trkpt lat="42.5580711476504802703857421875" lon="20.07726377807557582855224609375">
        <ele>2215.199951171875</ele>
        <time>2026-06-19T12:02:52.000Z</time>
        <extensions>
          <ns3:TrackPointExtension>
            <ns3:atemp>18.0</ns3:atemp>
          </ns3:TrackPointExtension>
        </extensions>
      </trkpt>
      <trkpt lat="42.558081038296222686767578125" lon="20.07728657685220241546630859375">
        <ele>2215.199951171875</ele>
        <time>2026-06-19T12:02:53.000Z</time>
        <extensions>
          <ns3:TrackPointExtension>
            <ns3:atemp>18.0</ns3:atemp>
          </ns3:TrackPointExtension>
        </extensions>
      </trkpt>
      <trkpt lat="42.55808648653328418731689453125" lon="20.07730736397206783294677734375">
        <ele>2215.199951171875</ele>
        <time>2026-06-19T12:02:54.000Z</time>
        <extensions>
          <ns3:TrackPointExtension>
            <ns3:atemp>18.0</ns3:atemp>
          </ns3:TrackPointExtension>
        </extensions>
      </trkpt>
      <trkpt lat="42.5580932758748531341552734375" lon="20.0773213617503643035888671875">
        <ele>2215.199951171875</ele>
        <time>2026-06-19T12:02:55.000Z</time>
        <extensions>
          <ns3:TrackPointExtension>
            <ns3:atemp>18.0</ns3:atemp>
          </ns3:TrackPointExtension>
        </extensions>
      </trkpt>
      <trkpt lat="42.55809671245515346527099609375" lon="20.07734592072665691375732421875">
        <ele>2215.199951171875</ele>
        <time>2026-06-19T12:02:56.000Z</time>
        <extensions>
          <ns3:TrackPointExtension>
            <ns3:atemp>18.0</ns3:atemp>
          </ns3:TrackPointExtension>
        </extensions>
      </trkpt>
      <trkpt lat="42.5580979697406291961669921875" lon="20.07737207226455211639404296875">
        <ele>2215.39990234375</ele>
        <time>2026-06-19T12:02:57.000Z</time>
        <extensions>
          <ns3:TrackPointExtension>
            <ns3:atemp>18.0</ns3:atemp>
          </ns3:TrackPointExtension>
        </extensions>
      </trkpt>
      <trkpt lat="42.5580996461212635040283203125" lon="20.07739503867924213409423828125">
        <ele>2215.39990234375</ele>
        <time>2026-06-19T12:02:58.000Z</time>
        <extensions>
          <ns3:TrackPointExtension>
            <ns3:atemp>18.0</ns3:atemp>
          </ns3:TrackPointExtension>
        </extensions>
      </trkpt>
      <trkpt lat="42.55810090340673923492431640625" lon="20.0774179212749004364013671875">
        <ele>2215.39990234375</ele>
        <time>2026-06-19T12:02:59.000Z</time>
        <extensions>
          <ns3:TrackPointExtension>
            <ns3:atemp>18.0</ns3:atemp>
          </ns3:TrackPointExtension>
        </extensions>
      </trkpt>
      <trkpt lat="42.5581009872257709503173828125" lon="20.07743929512798786163330078125">
        <ele>2215.39990234375</ele>
        <time>2026-06-19T12:03:00.000Z</time>
        <extensions>
          <ns3:TrackPointExtension>
            <ns3:atemp>18.0</ns3:atemp>
          </ns3:TrackPointExtension>
        </extensions>
      </trkpt>
      <trkpt lat="42.55810073576867580413818359375" lon="20.077460668981075286865234375">
        <ele>2215.60009765625</ele>
        <time>2026-06-19T12:03:01.000Z</time>
        <extensions>
          <ns3:TrackPointExtension>
            <ns3:atemp>18.0</ns3:atemp>
          </ns3:TrackPointExtension>
        </extensions>
      </trkpt>
      <trkpt lat="42.55809989757835865020751953125" lon="20.07748422212898731231689453125">
        <ele>2215.800048828125</ele>
        <time>2026-06-19T12:03:02.000Z</time>
        <extensions>
          <ns3:TrackPointExtension>
            <ns3:atemp>18.0</ns3:atemp>
          </ns3:TrackPointExtension>
        </extensions>
      </trkpt>
      <trkpt lat="42.55809746682643890380859375" lon="20.07748983800411224365234375">
        <ele>2215.800048828125</ele>
        <time>2026-06-19T12:03:03.000Z</time>
        <extensions>
          <ns3:TrackPointExtension>
            <ns3:atemp>18.0</ns3:atemp>
          </ns3:TrackPointExtension>
        </extensions>
      </trkpt>
      <trkpt lat="42.558093778789043426513671875" lon="20.07748782634735107421875">
        <ele>2216</ele>
        <time>2026-06-19T12:03:04.000Z</time>
        <extensions>
          <ns3:TrackPointExtension>
            <ns3:atemp>18.0</ns3:atemp>
          </ns3:TrackPointExtension>
        </extensions>
      </trkpt>
      <trkpt lat="42.558093778789043426513671875" lon="20.07748791016638278961181640625">
        <ele>2216.199951171875</ele>
        <time>2026-06-19T12:03:05.000Z</time>
        <extensions>
          <ns3:TrackPointExtension>
            <ns3:atemp>18.0</ns3:atemp>
          </ns3:TrackPointExtension>
        </extensions>
      </trkpt>
      <trkpt lat="42.558093778789043426513671875" lon="20.07748791016638278961181640625">
        <ele>2216.39990234375</ele>
        <time>2026-06-19T12:03:06.000Z</time>
        <extensions>
          <ns3:TrackPointExtension>
            <ns3:atemp>18.0</ns3:atemp>
          </ns3:TrackPointExtension>
        </extensions>
      </trkpt>
      <trkpt lat="42.558093778789043426513671875" lon="20.07748791016638278961181640625">
        <ele>2216.39990234375</ele>
        <time>2026-06-19T12:03:07.000Z</time>
        <extensions>
          <ns3:TrackPointExtension>
            <ns3:atemp>18.0</ns3:atemp>
          </ns3:TrackPointExtension>
        </extensions>
      </trkpt>
      <trkpt lat="42.55809386260807514190673828125" lon="20.07748858071863651275634765625">
        <ele>2216.60009765625</ele>
        <time>2026-06-19T12:03:08.000Z</time>
        <extensions>
          <ns3:TrackPointExtension>
            <ns3:atemp>18.0</ns3:atemp>
          </ns3:TrackPointExtension>
        </extensions>
      </trkpt>
      <trkpt lat="42.55809268914163112640380859375" lon="20.0775071047246456146240234375">
        <ele>2216.60009765625</ele>
        <time>2026-06-19T12:03:09.000Z</time>
        <extensions>
          <ns3:TrackPointExtension>
            <ns3:atemp>18.0</ns3:atemp>
          </ns3:TrackPointExtension>
        </extensions>
      </trkpt>
      <trkpt lat="42.55809268914163112640380859375" lon="20.07751800119876861572265625">
        <ele>2216.60009765625</ele>
        <time>2026-06-19T12:03:10.000Z</time>
        <extensions>
          <ns3:TrackPointExtension>
            <ns3:atemp>18.0</ns3:atemp>
          </ns3:TrackPointExtension>
        </extensions>
      </trkpt>
      <trkpt lat="42.55809201858937740325927734375" lon="20.07752780802547931671142578125">
        <ele>2216.60009765625</ele>
        <time>2026-06-19T12:03:11.000Z</time>
        <extensions>
          <ns3:TrackPointExtension>
            <ns3:atemp>18.0</ns3:atemp>
          </ns3:TrackPointExtension>
        </extensions>
      </trkpt>
      <trkpt lat="42.55809084512293338775634765625" lon="20.0775335915386676788330078125">
        <ele>2216.60009765625</ele>
        <time>2026-06-19T12:03:12.000Z</time>
        <extensions>
          <ns3:TrackPointExtension>
            <ns3:atemp>18.0</ns3:atemp>
          </ns3:TrackPointExtension>
        </extensions>
      </trkpt>
      <trkpt lat="42.55808942019939422607421875" lon="20.0775426439940929412841796875">
        <ele>2216.60009765625</ele>
        <time>2026-06-19T12:03:13.000Z</time>
        <extensions>
          <ns3:TrackPointExtension>
            <ns3:atemp>18.0</ns3:atemp>
          </ns3:TrackPointExtension>
        </extensions>
      </trkpt>
      <trkpt lat="42.5580869056284427642822265625" lon="20.07754608057439327239990234375">
        <ele>2216.60009765625</ele>
        <time>2026-06-19T12:03:14.000Z</time>
        <extensions>
          <ns3:TrackPointExtension>
            <ns3:atemp>18.0</ns3:atemp>
          </ns3:TrackPointExtension>
        </extensions>
      </trkpt>
      <trkpt lat="42.55808673799037933349609375" lon="20.0775573961436748504638671875">
        <ele>2216.800048828125</ele>
        <time>2026-06-19T12:03:15.000Z</time>
        <extensions>
          <ns3:TrackPointExtension>
            <ns3:atemp>18.0</ns3:atemp>
          </ns3:TrackPointExtension>
        </extensions>
      </trkpt>
      <trkpt lat="42.55808380432426929473876953125" lon="20.07756200619041919708251953125">
        <ele>2217</ele>
        <time>2026-06-19T12:03:16.000Z</time>
        <extensions>
          <ns3:TrackPointExtension>
            <ns3:atemp>18.0</ns3:atemp>
          </ns3:TrackPointExtension>
        </extensions>
      </trkpt>
      <trkpt lat="42.558084391057491302490234375" lon="20.07756954990327358245849609375">
        <ele>2217</ele>
        <time>2026-06-19T12:03:17.000Z</time>
        <extensions>
          <ns3:TrackPointExtension>
            <ns3:atemp>18.0</ns3:atemp>
          </ns3:TrackPointExtension>
        </extensions>
      </trkpt>
      <trkpt lat="42.5580838881433010101318359375" lon="20.07757910527288913726806640625">
        <ele>2217.199951171875</ele>
        <time>2026-06-19T12:03:18.000Z</time>
        <extensions>
          <ns3:TrackPointExtension>
            <ns3:atemp>18.0</ns3:atemp>
          </ns3:TrackPointExtension>
        </extensions>
      </trkpt>
      <trkpt lat="42.55808782763779163360595703125" lon="20.0775946117937564849853515625">
        <ele>2217.199951171875</ele>
        <time>2026-06-19T12:03:19.000Z</time>
        <extensions>
          <ns3:TrackPointExtension>
            <ns3:atemp>18.0</ns3:atemp>
          </ns3:TrackPointExtension>
        </extensions>
      </trkpt>
      <trkpt lat="42.55809000693261623382568359375" lon="20.07760592736303806304931640625">
        <ele>2217.39990234375</ele>
        <time>2026-06-19T12:03:20.000Z</time>
        <extensions>
          <ns3:TrackPointExtension>
            <ns3:atemp>18.0</ns3:atemp>
          </ns3:TrackPointExtension>
        </extensions>
      </trkpt>
      <trkpt lat="42.55809369497001171112060546875" lon="20.07761749438941478729248046875">
        <ele>2217.39990234375</ele>
        <time>2026-06-19T12:03:21.000Z</time>
        <extensions>
          <ns3:TrackPointExtension>
            <ns3:atemp>18.0</ns3:atemp>
          </ns3:TrackPointExtension>
        </extensions>
      </trkpt>
      <trkpt lat="42.55809520371258258819580078125" lon="20.07762872613966464996337890625">
        <ele>2217.60009765625</ele>
        <time>2026-06-19T12:03:22.000Z</time>
        <extensions>
          <ns3:TrackPointExtension>
            <ns3:atemp>18.0</ns3:atemp>
          </ns3:TrackPointExtension>
        </extensions>
      </trkpt>
      <trkpt lat="42.5580959580838680267333984375" lon="20.07763761095702648162841796875">
        <ele>2217.60009765625</ele>
        <time>2026-06-19T12:03:23.000Z</time>
        <extensions>
          <ns3:TrackPointExtension>
            <ns3:atemp>18.0</ns3:atemp>
          </ns3:TrackPointExtension>
        </extensions>
      </trkpt>
      <trkpt lat="42.5580989755690097808837890625" lon="20.07764817215502262115478515625">
        <ele>2217.60009765625</ele>
        <time>2026-06-19T12:03:24.000Z</time>
        <extensions>
          <ns3:TrackPointExtension>
            <ns3:atemp>18.0</ns3:atemp>
          </ns3:TrackPointExtension>
        </extensions>
      </trkpt>
      <trkpt lat="42.55810241214931011199951171875" lon="20.077656805515289306640625">
        <ele>2217.800048828125</ele>
        <time>2026-06-19T12:03:25.000Z</time>
        <extensions>
          <ns3:TrackPointExtension>
            <ns3:atemp>18.0</ns3:atemp>
          </ns3:TrackPointExtension>
        </extensions>
      </trkpt>
      <trkpt lat="42.55810542963445186614990234375" lon="20.07766745053231716156005859375">
        <ele>2217.800048828125</ele>
        <time>2026-06-19T12:03:26.000Z</time>
        <extensions>
          <ns3:TrackPointExtension>
            <ns3:atemp>18.0</ns3:atemp>
          </ns3:TrackPointExtension>
        </extensions>
      </trkpt>
      <trkpt lat="42.55810953676700592041015625" lon="20.07767884992063045501708984375">
        <ele>2218</ele>
        <time>2026-06-19T12:03:27.000Z</time>
        <extensions>
          <ns3:TrackPointExtension>
            <ns3:atemp>18.0</ns3:atemp>
          </ns3:TrackPointExtension>
        </extensions>
      </trkpt>
      <trkpt lat="42.55811448208987712860107421875" lon="20.07768589071929454803466796875">
        <ele>2218</ele>
        <time>2026-06-19T12:03:28.000Z</time>
        <extensions>
          <ns3:TrackPointExtension>
            <ns3:atemp>18.0</ns3:atemp>
          </ns3:TrackPointExtension>
        </extensions>
      </trkpt>
      <trkpt lat="42.55811624228954315185546875" lon="20.07769561372697353363037109375">
        <ele>2218.199951171875</ele>
        <time>2026-06-19T12:03:29.000Z</time>
        <extensions>
          <ns3:TrackPointExtension>
            <ns3:atemp>18.0</ns3:atemp>
          </ns3:TrackPointExtension>
        </extensions>
      </trkpt>
      <trkpt lat="42.55811984650790691375732421875" lon="20.07770349271595478057861328125">
        <ele>2218.199951171875</ele>
        <time>2026-06-19T12:03:30.000Z</time>
        <extensions>
          <ns3:TrackPointExtension>
            <ns3:atemp>18.0</ns3:atemp>
          </ns3:TrackPointExtension>
        </extensions>
      </trkpt>
      <trkpt lat="42.55812219344079494476318359375" lon="20.07771388627588748931884765625">
        <ele>2218.39990234375</ele>
        <time>2026-06-19T12:03:31.000Z</time>
        <extensions>
          <ns3:TrackPointExtension>
            <ns3:atemp>18.0</ns3:atemp>
          </ns3:TrackPointExtension>
        </extensions>
      </trkpt>
      <trkpt lat="42.55812638439238071441650390625" lon="20.07772360928356647491455078125">
        <ele>2218.39990234375</ele>
        <time>2026-06-19T12:03:32.000Z</time>
        <extensions>
          <ns3:TrackPointExtension>
            <ns3:atemp>18.0</ns3:atemp>
          </ns3:TrackPointExtension>
        </extensions>
      </trkpt>
      <trkpt lat="42.558129988610744476318359375" lon="20.0777314044535160064697265625">
        <ele>2218.39990234375</ele>
        <time>2026-06-19T12:03:33.000Z</time>
        <extensions>
          <ns3:TrackPointExtension>
            <ns3:atemp>18.0</ns3:atemp>
          </ns3:TrackPointExtension>
        </extensions>
      </trkpt>
      <trkpt lat="42.55812839604914188385009765625" lon="20.07773534394800662994384765625">
        <ele>2218.39990234375</ele>
        <time>2026-06-19T12:03:34.000Z</time>
        <extensions>
          <ns3:TrackPointExtension>
            <ns3:atemp>18.0</ns3:atemp>
          </ns3:TrackPointExtension>
        </extensions>
      </trkpt>
      <trkpt lat="42.5581284798681735992431640625" lon="20.07773534394800662994384765625">
        <ele>2218.39990234375</ele>
        <time>2026-06-19T12:03:35.000Z</time>
        <extensions>
          <ns3:TrackPointExtension>
            <ns3:atemp>18.0</ns3:atemp>
          </ns3:TrackPointExtension>
        </extensions>
      </trkpt>
      <trkpt lat="42.5581284798681735992431640625" lon="20.07773534394800662994384765625">
        <ele>2218.39990234375</ele>
        <time>2026-06-19T12:03:36.000Z</time>
        <extensions>
          <ns3:TrackPointExtension>
            <ns3:atemp>18.0</ns3:atemp>
          </ns3:TrackPointExtension>
        </extensions>
      </trkpt>
      <trkpt lat="42.5581284798681735992431640625" lon="20.07773534394800662994384765625">
        <ele>2218.39990234375</ele>
        <time>2026-06-19T12:03:37.000Z</time>
        <extensions>
          <ns3:TrackPointExtension>
            <ns3:atemp>18.0</ns3:atemp>
          </ns3:TrackPointExtension>
        </extensions>
      </trkpt>
      <trkpt lat="42.5581284798681735992431640625" lon="20.07773534394800662994384765625">
        <ele>2218.39990234375</ele>
        <time>2026-06-19T12:03:38.000Z</time>
        <extensions>
          <ns3:TrackPointExtension>
            <ns3:atemp>18.0</ns3:atemp>
          </ns3:TrackPointExtension>
        </extensions>
      </trkpt>
      <trkpt lat="42.5581284798681735992431640625" lon="20.07773534394800662994384765625">
        <ele>2218.60009765625</ele>
        <time>2026-06-19T12:03:39.000Z</time>
        <extensions>
          <ns3:TrackPointExtension>
            <ns3:atemp>18.0</ns3:atemp>
          </ns3:TrackPointExtension>
        </extensions>
      </trkpt>
      <trkpt lat="42.5581284798681735992431640625" lon="20.07773534394800662994384765625">
        <ele>2218.60009765625</ele>
        <time>2026-06-19T12:03:40.000Z</time>
        <extensions>
          <ns3:TrackPointExtension>
            <ns3:atemp>18.0</ns3:atemp>
          </ns3:TrackPointExtension>
        </extensions>
      </trkpt>
      <trkpt lat="42.5581284798681735992431640625" lon="20.07773534394800662994384765625">
        <ele>2218.800048828125</ele>
        <time>2026-06-19T12:03:41.000Z</time>
        <extensions>
          <ns3:TrackPointExtension>
            <ns3:atemp>18.0</ns3:atemp>
          </ns3:TrackPointExtension>
        </extensions>
      </trkpt>
      <trkpt lat="42.5581284798681735992431640625" lon="20.07773534394800662994384765625">
        <ele>2218.800048828125</ele>
        <time>2026-06-19T12:03:42.000Z</time>
        <extensions>
          <ns3:TrackPointExtension>
            <ns3:atemp>18.0</ns3:atemp>
          </ns3:TrackPointExtension>
        </extensions>
      </trkpt>
      <trkpt lat="42.55812873132526874542236328125" lon="20.0777360983192920684814453125">
        <ele>2219</ele>
        <time>2026-06-19T12:03:43.000Z</time>
        <extensions>
          <ns3:TrackPointExtension>
            <ns3:atemp>18.0</ns3:atemp>
          </ns3:TrackPointExtension>
        </extensions>
      </trkpt>
      <trkpt lat="42.55814231000840663909912109375" lon="20.07775478996336460113525390625">
        <ele>2219</ele>
        <time>2026-06-19T12:03:44.000Z</time>
        <extensions>
          <ns3:TrackPointExtension>
            <ns3:atemp>18.0</ns3:atemp>
          </ns3:TrackPointExtension>
        </extensions>
      </trkpt>
      <trkpt lat="42.558152787387371063232421875" lon="20.07776937447488307952880859375">
        <ele>2219</ele>
        <time>2026-06-19T12:03:45.000Z</time>
        <extensions>
          <ns3:TrackPointExtension>
            <ns3:atemp>18.0</ns3:atemp>
          </ns3:TrackPointExtension>
        </extensions>
      </trkpt>
      <trkpt lat="42.55816762335598468780517578125" lon="20.077786557376384735107421875">
        <ele>2219</ele>
        <time>2026-06-19T12:03:46.000Z</time>
        <extensions>
          <ns3:TrackPointExtension>
            <ns3:atemp>18.0</ns3:atemp>
          </ns3:TrackPointExtension>
        </extensions>
      </trkpt>
      <trkpt lat="42.5581841357052326202392578125" lon="20.07780776359140872955322265625">
        <ele>2219</ele>
        <time>2026-06-19T12:03:47.000Z</time>
        <extensions>
          <ns3:TrackPointExtension>
            <ns3:atemp>18.0</ns3:atemp>
          </ns3:TrackPointExtension>
        </extensions>
      </trkpt>
      <trkpt lat="42.5581987202167510986328125" lon="20.077826790511608123779296875">
        <ele>2219.199951171875</ele>
        <time>2026-06-19T12:03:48.000Z</time>
        <extensions>
          <ns3:TrackPointExtension>
            <ns3:atemp>18.0</ns3:atemp>
          </ns3:TrackPointExtension>
        </extensions>
      </trkpt>
      <trkpt lat="42.55821472965180873870849609375" lon="20.07784296758472919464111328125">
        <ele>2219.39990234375</ele>
        <time>2026-06-19T12:03:49.000Z</time>
        <extensions>
          <ns3:TrackPointExtension>
            <ns3:atemp>18.0</ns3:atemp>
          </ns3:TrackPointExtension>
        </extensions>
      </trkpt>
      <trkpt lat="42.55822562612593173980712890625" lon="20.0778578035533428192138671875">
        <ele>2219.60009765625</ele>
        <time>2026-06-19T12:03:50.000Z</time>
        <extensions>
          <ns3:TrackPointExtension>
            <ns3:atemp>18.0</ns3:atemp>
          </ns3:TrackPointExtension>
        </extensions>
      </trkpt>
      <trkpt lat="42.5582389533519744873046875" lon="20.07787582464516162872314453125">
        <ele>2219.800048828125</ele>
        <time>2026-06-19T12:03:51.000Z</time>
        <extensions>
          <ns3:TrackPointExtension>
            <ns3:atemp>18.0</ns3:atemp>
          </ns3:TrackPointExtension>
        </extensions>
      </trkpt>
      <trkpt lat="42.55825311876833438873291015625" lon="20.0778930075466632843017578125">
        <ele>2220</ele>
        <time>2026-06-19T12:03:52.000Z</time>
        <extensions>
          <ns3:TrackPointExtension>
            <ns3:atemp>18.0</ns3:atemp>
          </ns3:TrackPointExtension>
        </extensions>
      </trkpt>
      <trkpt lat="42.55826418288052082061767578125" lon="20.0779121182858943939208984375">
        <ele>2220.39990234375</ele>
        <time>2026-06-19T12:03:53.000Z</time>
        <extensions>
          <ns3:TrackPointExtension>
            <ns3:atemp>18.0</ns3:atemp>
          </ns3:TrackPointExtension>
        </extensions>
      </trkpt>
      <trkpt lat="42.5582763366401195526123046875" lon="20.0779278762638568878173828125">
        <ele>2220.800048828125</ele>
        <time>2026-06-19T12:03:54.000Z</time>
        <extensions>
          <ns3:TrackPointExtension>
            <ns3:atemp>18.0</ns3:atemp>
          </ns3:TrackPointExtension>
        </extensions>
      </trkpt>
      <trkpt lat="42.558291256427764892578125" lon="20.07794053293764591217041015625">
        <ele>2221.199951171875</ele>
        <time>2026-06-19T12:03:55.000Z</time>
        <extensions>
          <ns3:TrackPointExtension>
            <ns3:atemp>18.0</ns3:atemp>
          </ns3:TrackPointExtension>
        </extensions>
      </trkpt>
      <trkpt lat="42.558305673301219940185546875" lon="20.077958218753337860107421875">
        <ele>2221.39990234375</ele>
        <time>2026-06-19T12:03:56.000Z</time>
        <extensions>
          <ns3:TrackPointExtension>
            <ns3:atemp>18.0</ns3:atemp>
          </ns3:TrackPointExtension>
        </extensions>
      </trkpt>
      <trkpt lat="42.5583239458501338958740234375" lon="20.0779724679887294769287109375">
        <ele>2221.60009765625</ele>
        <time>2026-06-19T12:03:57.000Z</time>
        <extensions>
          <ns3:TrackPointExtension>
            <ns3:atemp>18.0</ns3:atemp>
          </ns3:TrackPointExtension>
        </extensions>
      </trkpt>
      <trkpt lat="42.558335848152637481689453125" lon="20.07798780687153339385986328125">
        <ele>2222</ele>
        <time>2026-06-19T12:03:58.000Z</time>
        <extensions>
          <ns3:TrackPointExtension>
            <ns3:atemp>18.0</ns3:atemp>
          </ns3:TrackPointExtension>
        </extensions>
      </trkpt>
      <trkpt lat="42.558351270854473114013671875" lon="20.07800138555467128753662109375">
        <ele>2222.199951171875</ele>
        <time>2026-06-19T12:03:59.000Z</time>
        <extensions>
          <ns3:TrackPointExtension>
            <ns3:atemp>18.0</ns3:atemp>
          </ns3:TrackPointExtension>
        </extensions>
      </trkpt>
      <trkpt lat="42.558368034660816192626953125" lon="20.07802150212228298187255859375">
        <ele>2222.39990234375</ele>
        <time>2026-06-19T12:04:00.000Z</time>
        <extensions>
          <ns3:TrackPointExtension>
            <ns3:atemp>18.0</ns3:atemp>
          </ns3:TrackPointExtension>
        </extensions>
      </trkpt>
      <trkpt lat="42.55838555283844470977783203125" lon="20.07803742773830890655517578125">
        <ele>2222.60009765625</ele>
        <time>2026-06-19T12:04:01.000Z</time>
        <extensions>
          <ns3:TrackPointExtension>
            <ns3:atemp>18.0</ns3:atemp>
          </ns3:TrackPointExtension>
        </extensions>
      </trkpt>
      <trkpt lat="42.558405585587024688720703125" lon="20.07804907858371734619140625">
        <ele>2222.800048828125</ele>
        <time>2026-06-19T12:04:02.000Z</time>
        <extensions>
          <ns3:TrackPointExtension>
            <ns3:atemp>18.0</ns3:atemp>
          </ns3:TrackPointExtension>
        </extensions>
      </trkpt>
      <trkpt lat="42.558423019945621490478515625" lon="20.07805989123880863189697265625">
        <ele>2223</ele>
        <time>2026-06-19T12:04:03.000Z</time>
        <extensions>
          <ns3:TrackPointExtension>
            <ns3:atemp>18.0</ns3:atemp>
          </ns3:TrackPointExtension>
        </extensions>
      </trkpt>
      <trkpt lat="42.55844472907483577728271484375" lon="20.07806743495166301727294921875">
        <ele>2223.199951171875</ele>
        <time>2026-06-19T12:04:04.000Z</time>
        <extensions>
          <ns3:TrackPointExtension>
            <ns3:atemp>18.0</ns3:atemp>
          </ns3:TrackPointExtension>
        </extensions>
      </trkpt>
      <trkpt lat="42.5584647618234157562255859375" lon="20.0780777446925640106201171875">
        <ele>2223.39990234375</ele>
        <time>2026-06-19T12:04:05.000Z</time>
        <extensions>
          <ns3:TrackPointExtension>
            <ns3:atemp>18.0</ns3:atemp>
          </ns3:TrackPointExtension>
        </extensions>
      </trkpt>
      <trkpt lat="42.55848236382007598876953125" lon="20.07808973081409931182861328125">
        <ele>2223.800048828125</ele>
        <time>2026-06-19T12:04:06.000Z</time>
        <extensions>
          <ns3:TrackPointExtension>
            <ns3:atemp>18.0</ns3:atemp>
          </ns3:TrackPointExtension>
        </extensions>
      </trkpt>
      <trkpt lat="42.55849954672157764434814453125" lon="20.07809677161276340484619140625">
        <ele>2224</ele>
        <time>2026-06-19T12:04:07.000Z</time>
        <extensions>
          <ns3:TrackPointExtension>
            <ns3:atemp>18.0</ns3:atemp>
          </ns3:TrackPointExtension>
        </extensions>
      </trkpt>
      <trkpt lat="42.5585194118320941925048828125" lon="20.07810833863914012908935546875">
        <ele>2224.199951171875</ele>
        <time>2026-06-19T12:04:08.000Z</time>
        <extensions>
          <ns3:TrackPointExtension>
            <ns3:atemp>18.0</ns3:atemp>
          </ns3:TrackPointExtension>
        </extensions>
      </trkpt>
      <trkpt lat="42.55853676237165927886962890625" lon="20.0781216658651828765869140625">
        <ele>2224.39990234375</ele>
        <time>2026-06-19T12:04:09.000Z</time>
        <extensions>
          <ns3:TrackPointExtension>
            <ns3:atemp>18.0</ns3:atemp>
          </ns3:TrackPointExtension>
        </extensions>
      </trkpt>
      <trkpt lat="42.5585512630641460418701171875" lon="20.0781293772161006927490234375">
        <ele>2224.800048828125</ele>
        <time>2026-06-19T12:04:10.000Z</time>
        <extensions>
          <ns3:TrackPointExtension>
            <ns3:atemp>18.0</ns3:atemp>
          </ns3:TrackPointExtension>
        </extensions>
      </trkpt>
      <trkpt lat="42.55856542848050594329833984375" lon="20.078139603137969970703125">
        <ele>2225.199951171875</ele>
        <time>2026-06-19T12:04:11.000Z</time>
        <extensions>
          <ns3:TrackPointExtension>
            <ns3:atemp>18.0</ns3:atemp>
          </ns3:TrackPointExtension>
        </extensions>
      </trkpt>
      <trkpt lat="42.55858068354427814483642578125" lon="20.07814907468855381011962890625">
        <ele>2225.60009765625</ele>
        <time>2026-06-19T12:04:12.000Z</time>
        <extensions>
          <ns3:TrackPointExtension>
            <ns3:atemp>18.0</ns3:atemp>
          </ns3:TrackPointExtension>
        </extensions>
      </trkpt>
      <trkpt lat="42.55859979428350925445556640625" lon="20.0781565345823764801025390625">
        <ele>2225.800048828125</ele>
        <time>2026-06-19T12:04:13.000Z</time>
        <extensions>
          <ns3:TrackPointExtension>
            <ns3:atemp>18.0</ns3:atemp>
          </ns3:TrackPointExtension>
        </extensions>
      </trkpt>
      <trkpt lat="42.55861689336597919464111328125" lon="20.07816885598003864288330078125">
        <ele>2226.199951171875</ele>
        <time>2026-06-19T12:04:14.000Z</time>
        <extensions>
          <ns3:TrackPointExtension>
            <ns3:atemp>18.0</ns3:atemp>
          </ns3:TrackPointExtension>
        </extensions>
      </trkpt>
      <trkpt lat="42.55863659083843231201171875" lon="20.0781857036054134368896484375">
        <ele>2226.39990234375</ele>
        <time>2026-06-19T12:04:15.000Z</time>
        <extensions>
          <ns3:TrackPointExtension>
            <ns3:atemp>18.0</ns3:atemp>
          </ns3:TrackPointExtension>
        </extensions>
      </trkpt>
      <trkpt lat="42.55865461193025112152099609375" lon="20.0782048143446445465087890625">
        <ele>2226.60009765625</ele>
        <time>2026-06-19T12:04:16.000Z</time>
        <extensions>
          <ns3:TrackPointExtension>
            <ns3:atemp>18.0</ns3:atemp>
          </ns3:TrackPointExtension>
        </extensions>
      </trkpt>
      <trkpt lat="42.55866869352757930755615234375" lon="20.0782276131212711334228515625">
        <ele>2226.800048828125</ele>
        <time>2026-06-19T12:04:17.000Z</time>
        <extensions>
          <ns3:TrackPointExtension>
            <ns3:atemp>18.0</ns3:atemp>
          </ns3:TrackPointExtension>
        </extensions>
      </trkpt>
      <trkpt lat="42.55868713371455669403076171875" lon="20.0782504118978977203369140625">
        <ele>2227</ele>
        <time>2026-06-19T12:04:18.000Z</time>
        <extensions>
          <ns3:TrackPointExtension>
            <ns3:atemp>18.0</ns3:atemp>
          </ns3:TrackPointExtension>
        </extensions>
      </trkpt>
      <trkpt lat="42.558699958026409149169921875" lon="20.07827974855899810791015625">
        <ele>2227.199951171875</ele>
        <time>2026-06-19T12:04:19.000Z</time>
        <extensions>
          <ns3:TrackPointExtension>
            <ns3:atemp>18.0</ns3:atemp>
          </ns3:TrackPointExtension>
        </extensions>
      </trkpt>
      <trkpt lat="42.55871496163308620452880859375" lon="20.07830564863979816436767578125">
        <ele>2227.39990234375</ele>
        <time>2026-06-19T12:04:20.000Z</time>
        <extensions>
          <ns3:TrackPointExtension>
            <ns3:atemp>18.0</ns3:atemp>
          </ns3:TrackPointExtension>
        </extensions>
      </trkpt>
      <trkpt lat="42.558737508952617645263671875" lon="20.07832936942577362060546875">
        <ele>2227.60009765625</ele>
        <time>2026-06-19T12:04:21.000Z</time>
        <extensions>
          <ns3:TrackPointExtension>
            <ns3:atemp>18.0</ns3:atemp>
          </ns3:TrackPointExtension>
        </extensions>
      </trkpt>
      <trkpt lat="42.55876072682440280914306640625" lon="20.0783526711165904998779296875">
        <ele>2227.60009765625</ele>
        <time>2026-06-19T12:04:22.000Z</time>
        <extensions>
          <ns3:TrackPointExtension>
            <ns3:atemp>18.0</ns3:atemp>
          </ns3:TrackPointExtension>
        </extensions>
      </trkpt>
      <trkpt lat="42.5587805919349193572998046875" lon="20.078370608389377593994140625">
        <ele>2227.800048828125</ele>
        <time>2026-06-19T12:04:23.000Z</time>
        <extensions>
          <ns3:TrackPointExtension>
            <ns3:atemp>18.0</ns3:atemp>
          </ns3:TrackPointExtension>
        </extensions>
      </trkpt>
      <trkpt lat="42.558798529207706451416015625" lon="20.0783861987292766571044921875">
        <ele>2227.800048828125</ele>
        <time>2026-06-19T12:04:24.000Z</time>
        <extensions>
          <ns3:TrackPointExtension>
            <ns3:atemp>18.0</ns3:atemp>
          </ns3:TrackPointExtension>
        </extensions>
      </trkpt>
      <trkpt lat="42.55881956778466701507568359375" lon="20.0784063152968883514404296875">
        <ele>2228</ele>
        <time>2026-06-19T12:04:25.000Z</time>
        <extensions>
          <ns3:TrackPointExtension>
            <ns3:atemp>18.0</ns3:atemp>
          </ns3:TrackPointExtension>
        </extensions>
      </trkpt>
      <trkpt lat="42.5588352419435977935791015625" lon="20.07842634804546833038330078125">
        <ele>2228</ele>
        <time>2026-06-19T12:04:26.000Z</time>
        <extensions>
          <ns3:TrackPointExtension>
            <ns3:atemp>18.0</ns3:atemp>
          </ns3:TrackPointExtension>
        </extensions>
      </trkpt>
      <trkpt lat="42.55885259248316287994384765625" lon="20.07844679988920688629150390625">
        <ele>2228.199951171875</ele>
        <time>2026-06-19T12:04:27.000Z</time>
        <extensions>
          <ns3:TrackPointExtension>
            <ns3:atemp>18.0</ns3:atemp>
          </ns3:TrackPointExtension>
        </extensions>
      </trkpt>
      <trkpt lat="42.55887572653591632843017578125" lon="20.07845987565815448760986328125">
        <ele>2228.39990234375</ele>
        <time>2026-06-19T12:04:28.000Z</time>
        <extensions>
          <ns3:TrackPointExtension>
            <ns3:atemp>18.0</ns3:atemp>
          </ns3:TrackPointExtension>
        </extensions>
      </trkpt>
      <trkpt lat="42.55890036933124065399169921875" lon="20.078470520675182342529296875">
        <ele>2228.60009765625</ele>
        <time>2026-06-19T12:04:29.000Z</time>
        <extensions>
          <ns3:TrackPointExtension>
            <ns3:atemp>18.0</ns3:atemp>
          </ns3:TrackPointExtension>
        </extensions>
      </trkpt>
      <trkpt lat="42.5589237548410892486572265625" lon="20.07848300971090793609619140625">
        <ele>2228.800048828125</ele>
        <time>2026-06-19T12:04:30.000Z</time>
        <extensions>
          <ns3:TrackPointExtension>
            <ns3:atemp>18.0</ns3:atemp>
          </ns3:TrackPointExtension>
        </extensions>
      </trkpt>
      <trkpt lat="42.5589430332183837890625" lon="20.07849759422242641448974609375">
        <ele>2229</ele>
        <time>2026-06-19T12:04:31.000Z</time>
        <extensions>
          <ns3:TrackPointExtension>
            <ns3:atemp>18.0</ns3:atemp>
          </ns3:TrackPointExtension>
        </extensions>
      </trkpt>
      <trkpt lat="42.55895753391087055206298828125" lon="20.07850698195397853851318359375">
        <ele>2229.39990234375</ele>
        <time>2026-06-19T12:04:32.000Z</time>
        <extensions>
          <ns3:TrackPointExtension>
            <ns3:atemp>18.0</ns3:atemp>
          </ns3:TrackPointExtension>
        </extensions>
      </trkpt>
      <trkpt lat="42.5589738786220550537109375" lon="20.07851972244679927825927734375">
        <ele>2229.800048828125</ele>
        <time>2026-06-19T12:04:33.000Z</time>
        <extensions>
          <ns3:TrackPointExtension>
            <ns3:atemp>18.0</ns3:atemp>
          </ns3:TrackPointExtension>
        </extensions>
      </trkpt>
      <trkpt lat="42.55899055860936641693115234375" lon="20.07853045128285884857177734375">
        <ele>2230</ele>
        <time>2026-06-19T12:04:34.000Z</time>
        <extensions>
          <ns3:TrackPointExtension>
            <ns3:atemp>18.0</ns3:atemp>
          </ns3:TrackPointExtension>
        </extensions>
      </trkpt>
      <trkpt lat="42.5590089149773120880126953125" lon="20.07853698916733264923095703125">
        <ele>2230.39990234375</ele>
        <time>2026-06-19T12:04:35.000Z</time>
        <extensions>
          <ns3:TrackPointExtension>
            <ns3:atemp>18.0</ns3:atemp>
          </ns3:TrackPointExtension>
        </extensions>
      </trkpt>
      <trkpt lat="42.55902660079300403594970703125" lon="20.07855140604078769683837890625">
        <ele>2230.800048828125</ele>
        <time>2026-06-19T12:04:36.000Z</time>
        <extensions>
          <ns3:TrackPointExtension>
            <ns3:atemp>18.0</ns3:atemp>
          </ns3:TrackPointExtension>
        </extensions>
      </trkpt>
      <trkpt lat="42.55904118530452251434326171875" lon="20.07856213487684726715087890625">
        <ele>2231.199951171875</ele>
        <time>2026-06-19T12:04:37.000Z</time>
        <extensions>
          <ns3:TrackPointExtension>
            <ns3:atemp>18.0</ns3:atemp>
          </ns3:TrackPointExtension>
        </extensions>
      </trkpt>
      <trkpt lat="42.55905375815927982330322265625" lon="20.0785759650170803070068359375">
        <ele>2231.60009765625</ele>
        <time>2026-06-19T12:04:38.000Z</time>
        <extensions>
          <ns3:TrackPointExtension>
            <ns3:atemp>18.0</ns3:atemp>
          </ns3:TrackPointExtension>
        </extensions>
      </trkpt>
      <trkpt lat="42.559074461460113525390625" lon="20.07858308963477611541748046875">
        <ele>2232</ele>
        <time>2026-06-19T12:04:39.000Z</time>
        <extensions>
          <ns3:TrackPointExtension>
            <ns3:atemp>18.0</ns3:atemp>
          </ns3:TrackPointExtension>
        </extensions>
      </trkpt>
      <trkpt lat="42.55909516476094722747802734375" lon="20.078595578670501708984375">
        <ele>2232.39990234375</ele>
        <time>2026-06-19T12:04:40.000Z</time>
        <extensions>
          <ns3:TrackPointExtension>
            <ns3:atemp>18.0</ns3:atemp>
          </ns3:TrackPointExtension>
        </extensions>
      </trkpt>
      <trkpt lat="42.55911578424274921417236328125" lon="20.07861074991524219512939453125">
        <ele>2232.800048828125</ele>
        <time>2026-06-19T12:04:41.000Z</time>
        <extensions>
          <ns3:TrackPointExtension>
            <ns3:atemp>18.0</ns3:atemp>
          </ns3:TrackPointExtension>
        </extensions>
      </trkpt>
      <trkpt lat="42.559143193066120147705078125" lon="20.078622400760650634765625">
        <ele>2233</ele>
        <time>2026-06-19T12:04:42.000Z</time>
        <extensions>
          <ns3:TrackPointExtension>
            <ns3:atemp>18.0</ns3:atemp>
          </ns3:TrackPointExtension>
        </extensions>
      </trkpt>
      <trkpt lat="42.5591715238988399505615234375" lon="20.0786410085856914520263671875">
        <ele>2233.39990234375</ele>
        <time>2026-06-19T12:04:43.000Z</time>
        <extensions>
          <ns3:TrackPointExtension>
            <ns3:atemp>18.0</ns3:atemp>
          </ns3:TrackPointExtension>
        </extensions>
      </trkpt>
      <trkpt lat="42.559192813932895660400390625" lon="20.0786611251533031463623046875">
        <ele>2233.60009765625</ele>
        <time>2026-06-19T12:04:44.000Z</time>
        <extensions>
          <ns3:TrackPointExtension>
            <ns3:atemp>18.0</ns3:atemp>
          </ns3:TrackPointExtension>
        </extensions>
      </trkpt>
      <trkpt lat="42.55921150557696819305419921875" lon="20.07868207991123199462890625">
        <ele>2233.800048828125</ele>
        <time>2026-06-19T12:04:45.000Z</time>
        <extensions>
          <ns3:TrackPointExtension>
            <ns3:atemp>18.0</ns3:atemp>
          </ns3:TrackPointExtension>
        </extensions>
      </trkpt>
      <trkpt lat="42.55922709591686725616455078125" lon="20.078705213963985443115234375">
        <ele>2234</ele>
        <time>2026-06-19T12:04:46.000Z</time>
        <extensions>
          <ns3:TrackPointExtension>
            <ns3:atemp>18.0</ns3:atemp>
          </ns3:TrackPointExtension>
        </extensions>
      </trkpt>
      <trkpt lat="42.5592409260571002960205078125" lon="20.0787322036921977996826171875">
        <ele>2234.199951171875</ele>
        <time>2026-06-19T12:04:47.000Z</time>
        <extensions>
          <ns3:TrackPointExtension>
            <ns3:atemp>18.0</ns3:atemp>
          </ns3:TrackPointExtension>
        </extensions>
      </trkpt>
      <trkpt lat="42.5592536665499210357666015625" lon="20.0787563435733318328857421875">
        <ele>2234.39990234375</ele>
        <time>2026-06-19T12:04:48.000Z</time>
        <extensions>
          <ns3:TrackPointExtension>
            <ns3:atemp>18.0</ns3:atemp>
          </ns3:TrackPointExtension>
        </extensions>
      </trkpt>
      <trkpt lat="42.559265233576297760009765625" lon="20.07878132164478302001953125">
        <ele>2234.60009765625</ele>
        <time>2026-06-19T12:04:49.000Z</time>
        <extensions>
          <ns3:TrackPointExtension>
            <ns3:atemp>18.0</ns3:atemp>
          </ns3:TrackPointExtension>
        </extensions>
      </trkpt>
      <trkpt lat="42.55927638150751590728759765625" lon="20.07880412042140960693359375">
        <ele>2234.60009765625</ele>
        <time>2026-06-19T12:04:50.000Z</time>
        <extensions>
          <ns3:TrackPointExtension>
            <ns3:atemp>19.0</ns3:atemp>
          </ns3:TrackPointExtension>
        </extensions>
      </trkpt>
      <trkpt lat="42.5592875294387340545654296875" lon="20.078827254474163055419921875">
        <ele>2234.800048828125</ele>
        <time>2026-06-19T12:04:51.000Z</time>
        <extensions>
          <ns3:TrackPointExtension>
            <ns3:atemp>19.0</ns3:atemp>
          </ns3:TrackPointExtension>
        </extensions>
      </trkpt>
      <trkpt lat="42.559300772845745086669921875" lon="20.07884695194661617279052734375">
        <ele>2235</ele>
        <time>2026-06-19T12:04:52.000Z</time>
        <extensions>
          <ns3:TrackPointExtension>
            <ns3:atemp>19.0</ns3:atemp>
          </ns3:TrackPointExtension>
        </extensions>
      </trkpt>
      <trkpt lat="42.5593106634914875030517578125" lon="20.07886472158133983612060546875">
        <ele>2235.199951171875</ele>
        <time>2026-06-19T12:04:53.000Z</time>
        <extensions>
          <ns3:TrackPointExtension>
            <ns3:atemp>19.0</ns3:atemp>
          </ns3:TrackPointExtension>
        </extensions>
      </trkpt>
      <trkpt lat="42.559320218861103057861328125" lon="20.07888383232057094573974609375">
        <ele>2235.60009765625</ele>
        <time>2026-06-19T12:04:54.000Z</time>
        <extensions>
          <ns3:TrackPointExtension>
            <ns3:atemp>19.0</ns3:atemp>
          </ns3:TrackPointExtension>
        </extensions>
      </trkpt>
      <trkpt lat="42.55933756940066814422607421875" lon="20.0788961537182331085205078125">
        <ele>2235.800048828125</ele>
        <time>2026-06-19T12:04:55.000Z</time>
        <extensions>
          <ns3:TrackPointExtension>
            <ns3:atemp>19.0</ns3:atemp>
          </ns3:TrackPointExtension>
        </extensions>
      </trkpt>
      <trkpt lat="42.55935165099799633026123046875" lon="20.07890948094427585601806640625">
        <ele>2236</ele>
        <time>2026-06-19T12:04:56.000Z</time>
        <extensions>
          <ns3:TrackPointExtension>
            <ns3:atemp>19.0</ns3:atemp>
          </ns3:TrackPointExtension>
        </extensions>
      </trkpt>
      <trkpt lat="42.559355087578296661376953125" lon="20.07892959751188755035400390625">
        <ele>2236.199951171875</ele>
        <time>2026-06-19T12:04:57.000Z</time>
        <extensions>
          <ns3:TrackPointExtension>
            <ns3:atemp>19.0</ns3:atemp>
          </ns3:TrackPointExtension>
        </extensions>
      </trkpt>
      <trkpt lat="42.5593529082834720611572265625" lon="20.078939236700534820556640625">
        <ele>2236.39990234375</ele>
        <time>2026-06-19T12:04:58.000Z</time>
        <extensions>
          <ns3:TrackPointExtension>
            <ns3:atemp>19.0</ns3:atemp>
          </ns3:TrackPointExtension>
        </extensions>
      </trkpt>
      <trkpt lat="42.55935232155025005340576171875" lon="20.07894133217632770538330078125">
        <ele>2236.39990234375</ele>
        <time>2026-06-19T12:04:59.000Z</time>
        <extensions>
          <ns3:TrackPointExtension>
            <ns3:atemp>19.0</ns3:atemp>
          </ns3:TrackPointExtension>
        </extensions>
      </trkpt>
      <trkpt lat="42.55935701541602611541748046875" lon="20.07893932051956653594970703125">
        <ele>2236.60009765625</ele>
        <time>2026-06-19T12:05:00.000Z</time>
        <extensions>
          <ns3:TrackPointExtension>
            <ns3:atemp>19.0</ns3:atemp>
          </ns3:TrackPointExtension>
        </extensions>
      </trkpt>
      <trkpt lat="42.5593601167201995849609375" lon="20.07894049398601055145263671875">
        <ele>2236.60009765625</ele>
        <time>2026-06-19T12:05:01.000Z</time>
        <extensions>
          <ns3:TrackPointExtension>
            <ns3:atemp>19.0</ns3:atemp>
          </ns3:TrackPointExtension>
        </extensions>
      </trkpt>
      <trkpt lat="42.55935835652053356170654296875" lon="20.07894133217632770538330078125">
        <ele>2236.800048828125</ele>
        <time>2026-06-19T12:05:02.000Z</time>
        <extensions>
          <ns3:TrackPointExtension>
            <ns3:atemp>19.0</ns3:atemp>
          </ns3:TrackPointExtension>
        </extensions>
      </trkpt>
      <trkpt lat="42.5593502260744571685791015625" lon="20.0789424218237400054931640625">
        <ele>2237</ele>
        <time>2026-06-19T12:05:03.000Z</time>
        <extensions>
          <ns3:TrackPointExtension>
            <ns3:atemp>19.0</ns3:atemp>
          </ns3:TrackPointExtension>
        </extensions>
      </trkpt>
      <trkpt lat="42.55934871733188629150390625" lon="20.07894233800470829010009765625">
        <ele>2237.39990234375</ele>
        <time>2026-06-19T12:05:04.000Z</time>
        <extensions>
          <ns3:TrackPointExtension>
            <ns3:atemp>19.0</ns3:atemp>
          </ns3:TrackPointExtension>
        </extensions>
      </trkpt>
      <trkpt lat="42.55934871733188629150390625" lon="20.07894233800470829010009765625">
        <ele>2237.800048828125</ele>
        <time>2026-06-19T12:05:05.000Z</time>
        <extensions>
          <ns3:TrackPointExtension>
            <ns3:atemp>19.0</ns3:atemp>
          </ns3:TrackPointExtension>
        </extensions>
      </trkpt>
      <trkpt lat="42.55934871733188629150390625" lon="20.07894233800470829010009765625">
        <ele>2238</ele>
        <time>2026-06-19T12:05:06.000Z</time>
        <extensions>
          <ns3:TrackPointExtension>
            <ns3:atemp>19.0</ns3:atemp>
          </ns3:TrackPointExtension>
        </extensions>
      </trkpt>
      <trkpt lat="42.55934871733188629150390625" lon="20.07894233800470829010009765625">
        <ele>2238.199951171875</ele>
        <time>2026-06-19T12:05:07.000Z</time>
        <extensions>
          <ns3:TrackPointExtension>
            <ns3:atemp>19.0</ns3:atemp>
          </ns3:TrackPointExtension>
        </extensions>
      </trkpt>
      <trkpt lat="42.55934871733188629150390625" lon="20.07894233800470829010009765625">
        <ele>2238.39990234375</ele>
        <time>2026-06-19T12:05:08.000Z</time>
        <extensions>
          <ns3:TrackPointExtension>
            <ns3:atemp>19.0</ns3:atemp>
          </ns3:TrackPointExtension>
        </extensions>
      </trkpt>
      <trkpt lat="42.55934871733188629150390625" lon="20.07894233800470829010009765625">
        <ele>2238.39990234375</ele>
        <time>2026-06-19T12:05:09.000Z</time>
        <extensions>
          <ns3:TrackPointExtension>
            <ns3:atemp>19.0</ns3:atemp>
          </ns3:TrackPointExtension>
        </extensions>
      </trkpt>
      <trkpt lat="42.55934871733188629150390625" lon="20.07894233800470829010009765625">
        <ele>2238.39990234375</ele>
        <time>2026-06-19T12:05:10.000Z</time>
        <extensions>
          <ns3:TrackPointExtension>
            <ns3:atemp>19.0</ns3:atemp>
          </ns3:TrackPointExtension>
        </extensions>
      </trkpt>
      <trkpt lat="42.55934871733188629150390625" lon="20.07894233800470829010009765625">
        <ele>2238.39990234375</ele>
        <time>2026-06-19T12:05:11.000Z</time>
        <extensions>
          <ns3:TrackPointExtension>
            <ns3:atemp>19.0</ns3:atemp>
          </ns3:TrackPointExtension>
        </extensions>
      </trkpt>
      <trkpt lat="42.55934871733188629150390625" lon="20.07894233800470829010009765625">
        <ele>2238.199951171875</ele>
        <time>2026-06-19T12:05:12.000Z</time>
        <extensions>
          <ns3:TrackPointExtension>
            <ns3:atemp>19.0</ns3:atemp>
          </ns3:TrackPointExtension>
        </extensions>
      </trkpt>
      <trkpt lat="42.55934871733188629150390625" lon="20.07894233800470829010009765625">
        <ele>2238.199951171875</ele>
        <time>2026-06-19T12:05:13.000Z</time>
        <extensions>
          <ns3:TrackPointExtension>
            <ns3:atemp>19.0</ns3:atemp>
          </ns3:TrackPointExtension>
        </extensions>
      </trkpt>
      <trkpt lat="42.55934871733188629150390625" lon="20.07894233800470829010009765625">
        <ele>2238.199951171875</ele>
        <time>2026-06-19T12:05:14.000Z</time>
        <extensions>
          <ns3:TrackPointExtension>
            <ns3:atemp>19.0</ns3:atemp>
          </ns3:TrackPointExtension>
        </extensions>
      </trkpt>
      <trkpt lat="42.55934871733188629150390625" lon="20.07894233800470829010009765625">
        <ele>2238.199951171875</ele>
        <time>2026-06-19T12:05:15.000Z</time>
        <extensions>
          <ns3:TrackPointExtension>
            <ns3:atemp>19.0</ns3:atemp>
          </ns3:TrackPointExtension>
        </extensions>
      </trkpt>
      <trkpt lat="42.55934871733188629150390625" lon="20.07894233800470829010009765625">
        <ele>2238.199951171875</ele>
        <time>2026-06-19T12:05:16.000Z</time>
        <extensions>
          <ns3:TrackPointExtension>
            <ns3:atemp>19.0</ns3:atemp>
          </ns3:TrackPointExtension>
        </extensions>
      </trkpt>
      <trkpt lat="42.55934871733188629150390625" lon="20.07894233800470829010009765625">
        <ele>2238.199951171875</ele>
        <time>2026-06-19T12:05:17.000Z</time>
        <extensions>
          <ns3:TrackPointExtension>
            <ns3:atemp>19.0</ns3:atemp>
          </ns3:TrackPointExtension>
        </extensions>
      </trkpt>
      <trkpt lat="42.55934871733188629150390625" lon="20.07894233800470829010009765625">
        <ele>2238.199951171875</ele>
        <time>2026-06-19T12:05:18.000Z</time>
        <extensions>
          <ns3:TrackPointExtension>
            <ns3:atemp>19.0</ns3:atemp>
          </ns3:TrackPointExtension>
        </extensions>
      </trkpt>
      <trkpt lat="42.55934871733188629150390625" lon="20.07894233800470829010009765625">
        <ele>2238.199951171875</ele>
        <time>2026-06-19T12:05:19.000Z</time>
        <extensions>
          <ns3:TrackPointExtension>
            <ns3:atemp>19.0</ns3:atemp>
          </ns3:TrackPointExtension>
        </extensions>
      </trkpt>
      <trkpt lat="42.55934871733188629150390625" lon="20.07894233800470829010009765625">
        <ele>2238.199951171875</ele>
        <time>2026-06-19T12:05:20.000Z</time>
        <extensions>
          <ns3:TrackPointExtension>
            <ns3:atemp>19.0</ns3:atemp>
          </ns3:TrackPointExtension>
        </extensions>
      </trkpt>
      <trkpt lat="42.55934871733188629150390625" lon="20.07894233800470829010009765625">
        <ele>2238.199951171875</ele>
        <time>2026-06-19T12:05:21.000Z</time>
        <extensions>
          <ns3:TrackPointExtension>
            <ns3:atemp>19.0</ns3:atemp>
          </ns3:TrackPointExtension>
        </extensions>
      </trkpt>
      <trkpt lat="42.55934871733188629150390625" lon="20.07894233800470829010009765625">
        <ele>2238</ele>
        <time>2026-06-19T12:05:22.000Z</time>
        <extensions>
          <ns3:TrackPointExtension>
            <ns3:atemp>19.0</ns3:atemp>
          </ns3:TrackPointExtension>
        </extensions>
      </trkpt>
      <trkpt lat="42.55934871733188629150390625" lon="20.07894233800470829010009765625">
        <ele>2238</ele>
        <time>2026-06-19T12:05:23.000Z</time>
        <extensions>
          <ns3:TrackPointExtension>
            <ns3:atemp>19.0</ns3:atemp>
          </ns3:TrackPointExtension>
        </extensions>
      </trkpt>
      <trkpt lat="42.55934871733188629150390625" lon="20.07894233800470829010009765625">
        <ele>2238</ele>
        <time>2026-06-19T12:05:24.000Z</time>
        <extensions>
          <ns3:TrackPointExtension>
            <ns3:atemp>19.0</ns3:atemp>
          </ns3:TrackPointExtension>
        </extensions>
      </trkpt>
      <trkpt lat="42.55934871733188629150390625" lon="20.07894233800470829010009765625">
        <ele>2237.800048828125</ele>
        <time>2026-06-19T12:05:25.000Z</time>
        <extensions>
          <ns3:TrackPointExtension>
            <ns3:atemp>19.0</ns3:atemp>
          </ns3:TrackPointExtension>
        </extensions>
      </trkpt>
      <trkpt lat="42.55934871733188629150390625" lon="20.07894233800470829010009765625">
        <ele>2237.800048828125</ele>
        <time>2026-06-19T12:05:26.000Z</time>
        <extensions>
          <ns3:TrackPointExtension>
            <ns3:atemp>19.0</ns3:atemp>
          </ns3:TrackPointExtension>
        </extensions>
      </trkpt>
      <trkpt lat="42.55934871733188629150390625" lon="20.07894233800470829010009765625">
        <ele>2237.800048828125</ele>
        <time>2026-06-19T12:05:27.000Z</time>
        <extensions>
          <ns3:TrackPointExtension>
            <ns3:atemp>19.0</ns3:atemp>
          </ns3:TrackPointExtension>
        </extensions>
      </trkpt>
      <trkpt lat="42.55934871733188629150390625" lon="20.07894233800470829010009765625">
        <ele>2237.60009765625</ele>
        <time>2026-06-19T12:05:28.000Z</time>
        <extensions>
          <ns3:TrackPointExtension>
            <ns3:atemp>19.0</ns3:atemp>
          </ns3:TrackPointExtension>
        </extensions>
      </trkpt>
      <trkpt lat="42.55934871733188629150390625" lon="20.07894233800470829010009765625">
        <ele>2237.60009765625</ele>
        <time>2026-06-19T12:05:29.000Z</time>
        <extensions>
          <ns3:TrackPointExtension>
            <ns3:atemp>19.0</ns3:atemp>
          </ns3:TrackPointExtension>
        </extensions>
      </trkpt>
      <trkpt lat="42.55934871733188629150390625" lon="20.07894233800470829010009765625">
        <ele>2237.60009765625</ele>
        <time>2026-06-19T12:05:30.000Z</time>
        <extensions>
          <ns3:TrackPointExtension>
            <ns3:atemp>19.0</ns3:atemp>
          </ns3:TrackPointExtension>
        </extensions>
      </trkpt>
      <trkpt lat="42.55934871733188629150390625" lon="20.07894233800470829010009765625">
        <ele>2237.60009765625</ele>
        <time>2026-06-19T12:05:31.000Z</time>
        <extensions>
          <ns3:TrackPointExtension>
            <ns3:atemp>19.0</ns3:atemp>
          </ns3:TrackPointExtension>
        </extensions>
      </trkpt>
      <trkpt lat="42.55934871733188629150390625" lon="20.07894233800470829010009765625">
        <ele>2237.60009765625</ele>
        <time>2026-06-19T12:05:32.000Z</time>
        <extensions>
          <ns3:TrackPointExtension>
            <ns3:atemp>19.0</ns3:atemp>
          </ns3:TrackPointExtension>
        </extensions>
      </trkpt>
      <trkpt lat="42.55934871733188629150390625" lon="20.07894233800470829010009765625">
        <ele>2237.60009765625</ele>
        <time>2026-06-19T12:05:33.000Z</time>
        <extensions>
          <ns3:TrackPointExtension>
            <ns3:atemp>19.0</ns3:atemp>
          </ns3:TrackPointExtension>
        </extensions>
      </trkpt>
      <trkpt lat="42.55934871733188629150390625" lon="20.07894233800470829010009765625">
        <ele>2237.60009765625</ele>
        <time>2026-06-19T12:05:34.000Z</time>
        <extensions>
          <ns3:TrackPointExtension>
            <ns3:atemp>19.0</ns3:atemp>
          </ns3:TrackPointExtension>
        </extensions>
      </trkpt>
      <trkpt lat="42.55934871733188629150390625" lon="20.07894233800470829010009765625">
        <ele>2237.60009765625</ele>
        <time>2026-06-19T12:05:35.000Z</time>
        <extensions>
          <ns3:TrackPointExtension>
            <ns3:atemp>19.0</ns3:atemp>
          </ns3:TrackPointExtension>
        </extensions>
      </trkpt>
      <trkpt lat="42.55934871733188629150390625" lon="20.07894233800470829010009765625">
        <ele>2237.60009765625</ele>
        <time>2026-06-19T12:05:36.000Z</time>
        <extensions>
          <ns3:TrackPointExtension>
            <ns3:atemp>19.0</ns3:atemp>
          </ns3:TrackPointExtension>
        </extensions>
      </trkpt>
      <trkpt lat="42.55934871733188629150390625" lon="20.07894233800470829010009765625">
        <ele>2237.60009765625</ele>
        <time>2026-06-19T12:05:37.000Z</time>
        <extensions>
          <ns3:TrackPointExtension>
            <ns3:atemp>19.0</ns3:atemp>
          </ns3:TrackPointExtension>
        </extensions>
      </trkpt>
      <trkpt lat="42.55934871733188629150390625" lon="20.07894233800470829010009765625">
        <ele>2237.800048828125</ele>
        <time>2026-06-19T12:05:38.000Z</time>
        <extensions>
          <ns3:TrackPointExtension>
            <ns3:atemp>19.0</ns3:atemp>
          </ns3:TrackPointExtension>
        </extensions>
      </trkpt>
      <trkpt lat="42.55934871733188629150390625" lon="20.07894233800470829010009765625">
        <ele>2237.800048828125</ele>
        <time>2026-06-19T12:05:39.000Z</time>
        <extensions>
          <ns3:TrackPointExtension>
            <ns3:atemp>19.0</ns3:atemp>
          </ns3:TrackPointExtension>
        </extensions>
      </trkpt>
      <trkpt lat="42.55934871733188629150390625" lon="20.07894233800470829010009765625">
        <ele>2237.800048828125</ele>
        <time>2026-06-19T12:05:40.000Z</time>
        <extensions>
          <ns3:TrackPointExtension>
            <ns3:atemp>19.0</ns3:atemp>
          </ns3:TrackPointExtension>
        </extensions>
      </trkpt>
      <trkpt lat="42.55934871733188629150390625" lon="20.07894233800470829010009765625">
        <ele>2237.800048828125</ele>
        <time>2026-06-19T12:05:41.000Z</time>
        <extensions>
          <ns3:TrackPointExtension>
            <ns3:atemp>19.0</ns3:atemp>
          </ns3:TrackPointExtension>
        </extensions>
      </trkpt>
      <trkpt lat="42.55934871733188629150390625" lon="20.07894233800470829010009765625">
        <ele>2237.800048828125</ele>
        <time>2026-06-19T12:05:42.000Z</time>
        <extensions>
          <ns3:TrackPointExtension>
            <ns3:atemp>19.0</ns3:atemp>
          </ns3:TrackPointExtension>
        </extensions>
      </trkpt>
      <trkpt lat="42.55934871733188629150390625" lon="20.07894233800470829010009765625">
        <ele>2237.800048828125</ele>
        <time>2026-06-19T12:05:43.000Z</time>
        <extensions>
          <ns3:TrackPointExtension>
            <ns3:atemp>19.0</ns3:atemp>
          </ns3:TrackPointExtension>
        </extensions>
      </trkpt>
      <trkpt lat="42.55934871733188629150390625" lon="20.07894233800470829010009765625">
        <ele>2237.800048828125</ele>
        <time>2026-06-19T12:05:44.000Z</time>
        <extensions>
          <ns3:TrackPointExtension>
            <ns3:atemp>19.0</ns3:atemp>
          </ns3:TrackPointExtension>
        </extensions>
      </trkpt>
      <trkpt lat="42.55934871733188629150390625" lon="20.07894233800470829010009765625">
        <ele>2237.800048828125</ele>
        <time>2026-06-19T12:05:45.000Z</time>
        <extensions>
          <ns3:TrackPointExtension>
            <ns3:atemp>19.0</ns3:atemp>
          </ns3:TrackPointExtension>
        </extensions>
      </trkpt>
      <trkpt lat="42.55934871733188629150390625" lon="20.07894233800470829010009765625">
        <ele>2237.800048828125</ele>
        <time>2026-06-19T12:05:46.000Z</time>
        <extensions>
          <ns3:TrackPointExtension>
            <ns3:atemp>19.0</ns3:atemp>
          </ns3:TrackPointExtension>
        </extensions>
      </trkpt>
      <trkpt lat="42.55934871733188629150390625" lon="20.07894233800470829010009765625">
        <ele>2237.60009765625</ele>
        <time>2026-06-19T12:05:47.000Z</time>
        <extensions>
          <ns3:TrackPointExtension>
            <ns3:atemp>19.0</ns3:atemp>
          </ns3:TrackPointExtension>
        </extensions>
      </trkpt>
      <trkpt lat="42.55934871733188629150390625" lon="20.07894233800470829010009765625">
        <ele>2237.60009765625</ele>
        <time>2026-06-19T12:05:48.000Z</time>
        <extensions>
          <ns3:TrackPointExtension>
            <ns3:atemp>19.0</ns3:atemp>
          </ns3:TrackPointExtension>
        </extensions>
      </trkpt>
      <trkpt lat="42.55934871733188629150390625" lon="20.07894233800470829010009765625">
        <ele>2237.60009765625</ele>
        <time>2026-06-19T12:05:49.000Z</time>
        <extensions>
          <ns3:TrackPointExtension>
            <ns3:atemp>19.0</ns3:atemp>
          </ns3:TrackPointExtension>
        </extensions>
      </trkpt>
      <trkpt lat="42.55934871733188629150390625" lon="20.07894233800470829010009765625">
        <ele>2237.60009765625</ele>
        <time>2026-06-19T12:05:50.000Z</time>
        <extensions>
          <ns3:TrackPointExtension>
            <ns3:atemp>19.0</ns3:atemp>
          </ns3:TrackPointExtension>
        </extensions>
      </trkpt>
      <trkpt lat="42.55934871733188629150390625" lon="20.07894233800470829010009765625">
        <ele>2237.800048828125</ele>
        <time>2026-06-19T12:05:51.000Z</time>
        <extensions>
          <ns3:TrackPointExtension>
            <ns3:atemp>19.0</ns3:atemp>
          </ns3:TrackPointExtension>
        </extensions>
      </trkpt>
      <trkpt lat="42.55934871733188629150390625" lon="20.07894233800470829010009765625">
        <ele>2237.800048828125</ele>
        <time>2026-06-19T12:05:52.000Z</time>
        <extensions>
          <ns3:TrackPointExtension>
            <ns3:atemp>19.0</ns3:atemp>
          </ns3:TrackPointExtension>
        </extensions>
      </trkpt>
      <trkpt lat="42.55934871733188629150390625" lon="20.07894233800470829010009765625">
        <ele>2237.800048828125</ele>
        <time>2026-06-19T12:05:53.000Z</time>
        <extensions>
          <ns3:TrackPointExtension>
            <ns3:atemp>19.0</ns3:atemp>
          </ns3:TrackPointExtension>
        </extensions>
      </trkpt>
      <trkpt lat="42.55934871733188629150390625" lon="20.07894233800470829010009765625">
        <ele>2238</ele>
        <time>2026-06-19T12:05:54.000Z</time>
        <extensions>
          <ns3:TrackPointExtension>
            <ns3:atemp>19.0</ns3:atemp>
          </ns3:TrackPointExtension>
        </extensions>
      </trkpt>
      <trkpt lat="42.55934871733188629150390625" lon="20.07894233800470829010009765625">
        <ele>2238</ele>
        <time>2026-06-19T12:05:55.000Z</time>
        <extensions>
          <ns3:TrackPointExtension>
            <ns3:atemp>19.0</ns3:atemp>
          </ns3:TrackPointExtension>
        </extensions>
      </trkpt>
      <trkpt lat="42.55934871733188629150390625" lon="20.07894233800470829010009765625">
        <ele>2238</ele>
        <time>2026-06-19T12:05:56.000Z</time>
        <extensions>
          <ns3:TrackPointExtension>
            <ns3:atemp>19.0</ns3:atemp>
          </ns3:TrackPointExtension>
        </extensions>
      </trkpt>
      <trkpt lat="42.55934871733188629150390625" lon="20.07894233800470829010009765625">
        <ele>2238</ele>
        <time>2026-06-19T12:05:57.000Z</time>
        <extensions>
          <ns3:TrackPointExtension>
            <ns3:atemp>19.0</ns3:atemp>
          </ns3:TrackPointExtension>
        </extensions>
      </trkpt>
      <trkpt lat="42.55934871733188629150390625" lon="20.07894233800470829010009765625">
        <ele>2237.800048828125</ele>
        <time>2026-06-19T12:05:58.000Z</time>
        <extensions>
          <ns3:TrackPointExtension>
            <ns3:atemp>19.0</ns3:atemp>
          </ns3:TrackPointExtension>
        </extensions>
      </trkpt>
      <trkpt lat="42.55934871733188629150390625" lon="20.07894233800470829010009765625">
        <ele>2237.800048828125</ele>
        <time>2026-06-19T12:05:59.000Z</time>
        <extensions>
          <ns3:TrackPointExtension>
            <ns3:atemp>19.0</ns3:atemp>
          </ns3:TrackPointExtension>
        </extensions>
      </trkpt>
      <trkpt lat="42.55934871733188629150390625" lon="20.07894233800470829010009765625">
        <ele>2237.800048828125</ele>
        <time>2026-06-19T12:06:00.000Z</time>
        <extensions>
          <ns3:TrackPointExtension>
            <ns3:atemp>19.0</ns3:atemp>
          </ns3:TrackPointExtension>
        </extensions>
      </trkpt>
      <trkpt lat="42.55934871733188629150390625" lon="20.07894233800470829010009765625">
        <ele>2237.60009765625</ele>
        <time>2026-06-19T12:06:01.000Z</time>
        <extensions>
          <ns3:TrackPointExtension>
            <ns3:atemp>19.0</ns3:atemp>
          </ns3:TrackPointExtension>
        </extensions>
      </trkpt>
      <trkpt lat="42.55934871733188629150390625" lon="20.07894233800470829010009765625">
        <ele>2237.60009765625</ele>
        <time>2026-06-19T12:06:02.000Z</time>
        <extensions>
          <ns3:TrackPointExtension>
            <ns3:atemp>19.0</ns3:atemp>
          </ns3:TrackPointExtension>
        </extensions>
      </trkpt>
      <trkpt lat="42.55934871733188629150390625" lon="20.07894233800470829010009765625">
        <ele>2237.60009765625</ele>
        <time>2026-06-19T12:06:03.000Z</time>
        <extensions>
          <ns3:TrackPointExtension>
            <ns3:atemp>19.0</ns3:atemp>
          </ns3:TrackPointExtension>
        </extensions>
      </trkpt>
      <trkpt lat="42.55934871733188629150390625" lon="20.07894233800470829010009765625">
        <ele>2237.60009765625</ele>
        <time>2026-06-19T12:06:04.000Z</time>
        <extensions>
          <ns3:TrackPointExtension>
            <ns3:atemp>19.0</ns3:atemp>
          </ns3:TrackPointExtension>
        </extensions>
      </trkpt>
      <trkpt lat="42.55934871733188629150390625" lon="20.07894233800470829010009765625">
        <ele>2237.60009765625</ele>
        <time>2026-06-19T12:06:05.000Z</time>
        <extensions>
          <ns3:TrackPointExtension>
            <ns3:atemp>19.0</ns3:atemp>
          </ns3:TrackPointExtension>
        </extensions>
      </trkpt>
      <trkpt lat="42.55934871733188629150390625" lon="20.07894233800470829010009765625">
        <ele>2237.60009765625</ele>
        <time>2026-06-19T12:06:06.000Z</time>
        <extensions>
          <ns3:TrackPointExtension>
            <ns3:atemp>19.0</ns3:atemp>
          </ns3:TrackPointExtension>
        </extensions>
      </trkpt>
      <trkpt lat="42.55934871733188629150390625" lon="20.07894233800470829010009765625">
        <ele>2237.60009765625</ele>
        <time>2026-06-19T12:06:07.000Z</time>
        <extensions>
          <ns3:TrackPointExtension>
            <ns3:atemp>19.0</ns3:atemp>
          </ns3:TrackPointExtension>
        </extensions>
      </trkpt>
      <trkpt lat="42.55934871733188629150390625" lon="20.07894233800470829010009765625">
        <ele>2237.60009765625</ele>
        <time>2026-06-19T12:06:08.000Z</time>
        <extensions>
          <ns3:TrackPointExtension>
            <ns3:atemp>19.0</ns3:atemp>
          </ns3:TrackPointExtension>
        </extensions>
      </trkpt>
      <trkpt lat="42.55934871733188629150390625" lon="20.07894233800470829010009765625">
        <ele>2237.800048828125</ele>
        <time>2026-06-19T12:06:09.000Z</time>
        <extensions>
          <ns3:TrackPointExtension>
            <ns3:atemp>19.0</ns3:atemp>
          </ns3:TrackPointExtension>
        </extensions>
      </trkpt>
      <trkpt lat="42.55934871733188629150390625" lon="20.07894233800470829010009765625">
        <ele>2237.800048828125</ele>
        <time>2026-06-19T12:06:10.000Z</time>
        <extensions>
          <ns3:TrackPointExtension>
            <ns3:atemp>19.0</ns3:atemp>
          </ns3:TrackPointExtension>
        </extensions>
      </trkpt>
      <trkpt lat="42.55934871733188629150390625" lon="20.07894233800470829010009765625">
        <ele>2237.800048828125</ele>
        <time>2026-06-19T12:06:11.000Z</time>
        <extensions>
          <ns3:TrackPointExtension>
            <ns3:atemp>19.0</ns3:atemp>
          </ns3:TrackPointExtension>
        </extensions>
      </trkpt>
      <trkpt lat="42.55934871733188629150390625" lon="20.07894233800470829010009765625">
        <ele>2237.800048828125</ele>
        <time>2026-06-19T12:06:12.000Z</time>
        <extensions>
          <ns3:TrackPointExtension>
            <ns3:atemp>19.0</ns3:atemp>
          </ns3:TrackPointExtension>
        </extensions>
      </trkpt>
      <trkpt lat="42.55934871733188629150390625" lon="20.07894233800470829010009765625">
        <ele>2237.60009765625</ele>
        <time>2026-06-19T12:06:13.000Z</time>
        <extensions>
          <ns3:TrackPointExtension>
            <ns3:atemp>19.0</ns3:atemp>
          </ns3:TrackPointExtension>
        </extensions>
      </trkpt>
      <trkpt lat="42.55934871733188629150390625" lon="20.07894233800470829010009765625">
        <ele>2237.60009765625</ele>
        <time>2026-06-19T12:06:14.000Z</time>
        <extensions>
          <ns3:TrackPointExtension>
            <ns3:atemp>19.0</ns3:atemp>
          </ns3:TrackPointExtension>
        </extensions>
      </trkpt>
      <trkpt lat="42.55934871733188629150390625" lon="20.07894233800470829010009765625">
        <ele>2237.60009765625</ele>
        <time>2026-06-19T12:06:15.000Z</time>
        <extensions>
          <ns3:TrackPointExtension>
            <ns3:atemp>19.0</ns3:atemp>
          </ns3:TrackPointExtension>
        </extensions>
      </trkpt>
      <trkpt lat="42.55934871733188629150390625" lon="20.07894233800470829010009765625">
        <ele>2237.60009765625</ele>
        <time>2026-06-19T12:06:16.000Z</time>
        <extensions>
          <ns3:TrackPointExtension>
            <ns3:atemp>19.0</ns3:atemp>
          </ns3:TrackPointExtension>
        </extensions>
      </trkpt>
      <trkpt lat="42.55934871733188629150390625" lon="20.07894233800470829010009765625">
        <ele>2237.60009765625</ele>
        <time>2026-06-19T12:06:17.000Z</time>
        <extensions>
          <ns3:TrackPointExtension>
            <ns3:atemp>19.0</ns3:atemp>
          </ns3:TrackPointExtension>
        </extensions>
      </trkpt>
      <trkpt lat="42.55934871733188629150390625" lon="20.07894233800470829010009765625">
        <ele>2237.60009765625</ele>
        <time>2026-06-19T12:06:18.000Z</time>
        <extensions>
          <ns3:TrackPointExtension>
            <ns3:atemp>19.0</ns3:atemp>
          </ns3:TrackPointExtension>
        </extensions>
      </trkpt>
      <trkpt lat="42.55934871733188629150390625" lon="20.07894233800470829010009765625">
        <ele>2237.39990234375</ele>
        <time>2026-06-19T12:06:19.000Z</time>
        <extensions>
          <ns3:TrackPointExtension>
            <ns3:atemp>19.0</ns3:atemp>
          </ns3:TrackPointExtension>
        </extensions>
      </trkpt>
      <trkpt lat="42.55934871733188629150390625" lon="20.07894233800470829010009765625">
        <ele>2237.39990234375</ele>
        <time>2026-06-19T12:06:20.000Z</time>
        <extensions>
          <ns3:TrackPointExtension>
            <ns3:atemp>19.0</ns3:atemp>
          </ns3:TrackPointExtension>
        </extensions>
      </trkpt>
      <trkpt lat="42.55934871733188629150390625" lon="20.07894233800470829010009765625">
        <ele>2237.39990234375</ele>
        <time>2026-06-19T12:06:21.000Z</time>
        <extensions>
          <ns3:TrackPointExtension>
            <ns3:atemp>19.0</ns3:atemp>
          </ns3:TrackPointExtension>
        </extensions>
      </trkpt>
      <trkpt lat="42.55934871733188629150390625" lon="20.07894233800470829010009765625">
        <ele>2237.39990234375</ele>
        <time>2026-06-19T12:06:22.000Z</time>
        <extensions>
          <ns3:TrackPointExtension>
            <ns3:atemp>19.0</ns3:atemp>
          </ns3:TrackPointExtension>
        </extensions>
      </trkpt>
      <trkpt lat="42.55934871733188629150390625" lon="20.07894233800470829010009765625">
        <ele>2237.39990234375</ele>
        <time>2026-06-19T12:06:23.000Z</time>
        <extensions>
          <ns3:TrackPointExtension>
            <ns3:atemp>19.0</ns3:atemp>
          </ns3:TrackPointExtension>
        </extensions>
      </trkpt>
      <trkpt lat="42.55934871733188629150390625" lon="20.07894233800470829010009765625">
        <ele>2237.39990234375</ele>
        <time>2026-06-19T12:06:24.000Z</time>
        <extensions>
          <ns3:TrackPointExtension>
            <ns3:atemp>19.0</ns3:atemp>
          </ns3:TrackPointExtension>
        </extensions>
      </trkpt>
      <trkpt lat="42.55934871733188629150390625" lon="20.07894233800470829010009765625">
        <ele>2237.39990234375</ele>
        <time>2026-06-19T12:06:25.000Z</time>
        <extensions>
          <ns3:TrackPointExtension>
            <ns3:atemp>19.0</ns3:atemp>
          </ns3:TrackPointExtension>
        </extensions>
      </trkpt>
      <trkpt lat="42.55934871733188629150390625" lon="20.07894233800470829010009765625">
        <ele>2237.39990234375</ele>
        <time>2026-06-19T12:06:26.000Z</time>
        <extensions>
          <ns3:TrackPointExtension>
            <ns3:atemp>19.0</ns3:atemp>
          </ns3:TrackPointExtension>
        </extensions>
      </trkpt>
      <trkpt lat="42.55934871733188629150390625" lon="20.07894233800470829010009765625">
        <ele>2237.39990234375</ele>
        <time>2026-06-19T12:06:27.000Z</time>
        <extensions>
          <ns3:TrackPointExtension>
            <ns3:atemp>19.0</ns3:atemp>
          </ns3:TrackPointExtension>
        </extensions>
      </trkpt>
      <trkpt lat="42.55934871733188629150390625" lon="20.07894233800470829010009765625">
        <ele>2237.39990234375</ele>
        <time>2026-06-19T12:06:28.000Z</time>
        <extensions>
          <ns3:TrackPointExtension>
            <ns3:atemp>19.0</ns3:atemp>
          </ns3:TrackPointExtension>
        </extensions>
      </trkpt>
      <trkpt lat="42.55934871733188629150390625" lon="20.07894233800470829010009765625">
        <ele>2237.39990234375</ele>
        <time>2026-06-19T12:06:29.000Z</time>
        <extensions>
          <ns3:TrackPointExtension>
            <ns3:atemp>19.0</ns3:atemp>
          </ns3:TrackPointExtension>
        </extensions>
      </trkpt>
      <trkpt lat="42.55934871733188629150390625" lon="20.07894233800470829010009765625">
        <ele>2237.199951171875</ele>
        <time>2026-06-19T12:06:30.000Z</time>
        <extensions>
          <ns3:TrackPointExtension>
            <ns3:atemp>19.0</ns3:atemp>
          </ns3:TrackPointExtension>
        </extensions>
      </trkpt>
      <trkpt lat="42.55934871733188629150390625" lon="20.07894233800470829010009765625">
        <ele>2237.39990234375</ele>
        <time>2026-06-19T12:06:31.000Z</time>
        <extensions>
          <ns3:TrackPointExtension>
            <ns3:atemp>19.0</ns3:atemp>
          </ns3:TrackPointExtension>
        </extensions>
      </trkpt>
      <trkpt lat="42.55934871733188629150390625" lon="20.07894233800470829010009765625">
        <ele>2237.39990234375</ele>
        <time>2026-06-19T12:06:32.000Z</time>
        <extensions>
          <ns3:TrackPointExtension>
            <ns3:atemp>19.0</ns3:atemp>
          </ns3:TrackPointExtension>
        </extensions>
      </trkpt>
      <trkpt lat="42.55934871733188629150390625" lon="20.07894233800470829010009765625">
        <ele>2237.39990234375</ele>
        <time>2026-06-19T12:06:33.000Z</time>
        <extensions>
          <ns3:TrackPointExtension>
            <ns3:atemp>19.0</ns3:atemp>
          </ns3:TrackPointExtension>
        </extensions>
      </trkpt>
      <trkpt lat="42.55934871733188629150390625" lon="20.07894233800470829010009765625">
        <ele>2237.39990234375</ele>
        <time>2026-06-19T12:06:34.000Z</time>
        <extensions>
          <ns3:TrackPointExtension>
            <ns3:atemp>19.0</ns3:atemp>
          </ns3:TrackPointExtension>
        </extensions>
      </trkpt>
      <trkpt lat="42.55934871733188629150390625" lon="20.07894233800470829010009765625">
        <ele>2237.39990234375</ele>
        <time>2026-06-19T12:06:35.000Z</time>
        <extensions>
          <ns3:TrackPointExtension>
            <ns3:atemp>19.0</ns3:atemp>
          </ns3:TrackPointExtension>
        </extensions>
      </trkpt>
      <trkpt lat="42.55934871733188629150390625" lon="20.07894233800470829010009765625">
        <ele>2237.39990234375</ele>
        <time>2026-06-19T12:06:36.000Z</time>
        <extensions>
          <ns3:TrackPointExtension>
            <ns3:atemp>19.0</ns3:atemp>
          </ns3:TrackPointExtension>
        </extensions>
      </trkpt>
      <trkpt lat="42.55934871733188629150390625" lon="20.07894233800470829010009765625">
        <ele>2237.39990234375</ele>
        <time>2026-06-19T12:06:37.000Z</time>
        <extensions>
          <ns3:TrackPointExtension>
            <ns3:atemp>19.0</ns3:atemp>
          </ns3:TrackPointExtension>
        </extensions>
      </trkpt>
      <trkpt lat="42.55934871733188629150390625" lon="20.07894233800470829010009765625">
        <ele>2237.39990234375</ele>
        <time>2026-06-19T12:06:38.000Z</time>
        <extensions>
          <ns3:TrackPointExtension>
            <ns3:atemp>19.0</ns3:atemp>
          </ns3:TrackPointExtension>
        </extensions>
      </trkpt>
      <trkpt lat="42.55934871733188629150390625" lon="20.07894233800470829010009765625">
        <ele>2237.199951171875</ele>
        <time>2026-06-19T12:06:39.000Z</time>
        <extensions>
          <ns3:TrackPointExtension>
            <ns3:atemp>19.0</ns3:atemp>
          </ns3:TrackPointExtension>
        </extensions>
      </trkpt>
      <trkpt lat="42.55934871733188629150390625" lon="20.07894233800470829010009765625">
        <ele>2237.199951171875</ele>
        <time>2026-06-19T12:06:40.000Z</time>
        <extensions>
          <ns3:TrackPointExtension>
            <ns3:atemp>19.0</ns3:atemp>
          </ns3:TrackPointExtension>
        </extensions>
      </trkpt>
      <trkpt lat="42.55934871733188629150390625" lon="20.07894233800470829010009765625">
        <ele>2237.199951171875</ele>
        <time>2026-06-19T12:06:41.000Z</time>
        <extensions>
          <ns3:TrackPointExtension>
            <ns3:atemp>19.0</ns3:atemp>
          </ns3:TrackPointExtension>
        </extensions>
      </trkpt>
      <trkpt lat="42.55934871733188629150390625" lon="20.07894233800470829010009765625">
        <ele>2237</ele>
        <time>2026-06-19T12:06:42.000Z</time>
        <extensions>
          <ns3:TrackPointExtension>
            <ns3:atemp>19.0</ns3:atemp>
          </ns3:TrackPointExtension>
        </extensions>
      </trkpt>
      <trkpt lat="42.55934871733188629150390625" lon="20.07894233800470829010009765625">
        <ele>2237</ele>
        <time>2026-06-19T12:06:43.000Z</time>
        <extensions>
          <ns3:TrackPointExtension>
            <ns3:atemp>19.0</ns3:atemp>
          </ns3:TrackPointExtension>
        </extensions>
      </trkpt>
      <trkpt lat="42.55934871733188629150390625" lon="20.07894233800470829010009765625">
        <ele>2237</ele>
        <time>2026-06-19T12:06:44.000Z</time>
        <extensions>
          <ns3:TrackPointExtension>
            <ns3:atemp>19.0</ns3:atemp>
          </ns3:TrackPointExtension>
        </extensions>
      </trkpt>
      <trkpt lat="42.55934871733188629150390625" lon="20.07894233800470829010009765625">
        <ele>2237</ele>
        <time>2026-06-19T12:06:45.000Z</time>
        <extensions>
          <ns3:TrackPointExtension>
            <ns3:atemp>19.0</ns3:atemp>
          </ns3:TrackPointExtension>
        </extensions>
      </trkpt>
      <trkpt lat="42.55934871733188629150390625" lon="20.07894233800470829010009765625">
        <ele>2237</ele>
        <time>2026-06-19T12:06:46.000Z</time>
        <extensions>
          <ns3:TrackPointExtension>
            <ns3:atemp>19.0</ns3:atemp>
          </ns3:TrackPointExtension>
        </extensions>
      </trkpt>
      <trkpt lat="42.55934871733188629150390625" lon="20.07894233800470829010009765625">
        <ele>2237</ele>
        <time>2026-06-19T12:06:47.000Z</time>
        <extensions>
          <ns3:TrackPointExtension>
            <ns3:atemp>19.0</ns3:atemp>
          </ns3:TrackPointExtension>
        </extensions>
      </trkpt>
      <trkpt lat="42.55934871733188629150390625" lon="20.07894233800470829010009765625">
        <ele>2237</ele>
        <time>2026-06-19T12:06:48.000Z</time>
        <extensions>
          <ns3:TrackPointExtension>
            <ns3:atemp>19.0</ns3:atemp>
          </ns3:TrackPointExtension>
        </extensions>
      </trkpt>
      <trkpt lat="42.55934871733188629150390625" lon="20.07894233800470829010009765625">
        <ele>2237</ele>
        <time>2026-06-19T12:06:49.000Z</time>
        <extensions>
          <ns3:TrackPointExtension>
            <ns3:atemp>19.0</ns3:atemp>
          </ns3:TrackPointExtension>
        </extensions>
      </trkpt>
      <trkpt lat="42.55934871733188629150390625" lon="20.07894233800470829010009765625">
        <ele>2237</ele>
        <time>2026-06-19T12:06:50.000Z</time>
        <extensions>
          <ns3:TrackPointExtension>
            <ns3:atemp>19.0</ns3:atemp>
          </ns3:TrackPointExtension>
        </extensions>
      </trkpt>
      <trkpt lat="42.55934871733188629150390625" lon="20.07894233800470829010009765625">
        <ele>2237</ele>
        <time>2026-06-19T12:06:51.000Z</time>
        <extensions>
          <ns3:TrackPointExtension>
            <ns3:atemp>19.0</ns3:atemp>
          </ns3:TrackPointExtension>
        </extensions>
      </trkpt>
      <trkpt lat="42.55934871733188629150390625" lon="20.07894233800470829010009765625">
        <ele>2237</ele>
        <time>2026-06-19T12:06:52.000Z</time>
        <extensions>
          <ns3:TrackPointExtension>
            <ns3:atemp>19.0</ns3:atemp>
          </ns3:TrackPointExtension>
        </extensions>
      </trkpt>
      <trkpt lat="42.55934871733188629150390625" lon="20.07894233800470829010009765625">
        <ele>2237</ele>
        <time>2026-06-19T12:06:53.000Z</time>
        <extensions>
          <ns3:TrackPointExtension>
            <ns3:atemp>19.0</ns3:atemp>
          </ns3:TrackPointExtension>
        </extensions>
      </trkpt>
      <trkpt lat="42.55934871733188629150390625" lon="20.07894233800470829010009765625">
        <ele>2237</ele>
        <time>2026-06-19T12:06:54.000Z</time>
        <extensions>
          <ns3:TrackPointExtension>
            <ns3:atemp>19.0</ns3:atemp>
          </ns3:TrackPointExtension>
        </extensions>
      </trkpt>
      <trkpt lat="42.55934871733188629150390625" lon="20.07894233800470829010009765625">
        <ele>2237</ele>
        <time>2026-06-19T12:06:55.000Z</time>
        <extensions>
          <ns3:TrackPointExtension>
            <ns3:atemp>19.0</ns3:atemp>
          </ns3:TrackPointExtension>
        </extensions>
      </trkpt>
      <trkpt lat="42.55934871733188629150390625" lon="20.07894233800470829010009765625">
        <ele>2237</ele>
        <time>2026-06-19T12:06:56.000Z</time>
        <extensions>
          <ns3:TrackPointExtension>
            <ns3:atemp>19.0</ns3:atemp>
          </ns3:TrackPointExtension>
        </extensions>
      </trkpt>
      <trkpt lat="42.55934871733188629150390625" lon="20.07894233800470829010009765625">
        <ele>2237.199951171875</ele>
        <time>2026-06-19T12:06:57.000Z</time>
        <extensions>
          <ns3:TrackPointExtension>
            <ns3:atemp>19.0</ns3:atemp>
          </ns3:TrackPointExtension>
        </extensions>
      </trkpt>
      <trkpt lat="42.55934871733188629150390625" lon="20.07894233800470829010009765625">
        <ele>2237</ele>
        <time>2026-06-19T12:06:58.000Z</time>
        <extensions>
          <ns3:TrackPointExtension>
            <ns3:atemp>19.0</ns3:atemp>
          </ns3:TrackPointExtension>
        </extensions>
      </trkpt>
      <trkpt lat="42.55934871733188629150390625" lon="20.07894233800470829010009765625">
        <ele>2237</ele>
        <time>2026-06-19T12:06:59.000Z</time>
        <extensions>
          <ns3:TrackPointExtension>
            <ns3:atemp>19.0</ns3:atemp>
          </ns3:TrackPointExtension>
        </extensions>
      </trkpt>
      <trkpt lat="42.55934871733188629150390625" lon="20.07894233800470829010009765625">
        <ele>2237</ele>
        <time>2026-06-19T12:07:00.000Z</time>
        <extensions>
          <ns3:TrackPointExtension>
            <ns3:atemp>19.0</ns3:atemp>
          </ns3:TrackPointExtension>
        </extensions>
      </trkpt>
      <trkpt lat="42.55934871733188629150390625" lon="20.07894233800470829010009765625">
        <ele>2237</ele>
        <time>2026-06-19T12:07:01.000Z</time>
        <extensions>
          <ns3:TrackPointExtension>
            <ns3:atemp>19.0</ns3:atemp>
          </ns3:TrackPointExtension>
        </extensions>
      </trkpt>
      <trkpt lat="42.55934871733188629150390625" lon="20.07894233800470829010009765625">
        <ele>2237</ele>
        <time>2026-06-19T12:07:02.000Z</time>
        <extensions>
          <ns3:TrackPointExtension>
            <ns3:atemp>19.0</ns3:atemp>
          </ns3:TrackPointExtension>
        </extensions>
      </trkpt>
      <trkpt lat="42.55934871733188629150390625" lon="20.07894233800470829010009765625">
        <ele>2237</ele>
        <time>2026-06-19T12:07:03.000Z</time>
        <extensions>
          <ns3:TrackPointExtension>
            <ns3:atemp>19.0</ns3:atemp>
          </ns3:TrackPointExtension>
        </extensions>
      </trkpt>
      <trkpt lat="42.55934871733188629150390625" lon="20.07894233800470829010009765625">
        <ele>2237</ele>
        <time>2026-06-19T12:07:04.000Z</time>
        <extensions>
          <ns3:TrackPointExtension>
            <ns3:atemp>19.0</ns3:atemp>
          </ns3:TrackPointExtension>
        </extensions>
      </trkpt>
      <trkpt lat="42.55934871733188629150390625" lon="20.07894233800470829010009765625">
        <ele>2237</ele>
        <time>2026-06-19T12:07:05.000Z</time>
        <extensions>
          <ns3:TrackPointExtension>
            <ns3:atemp>19.0</ns3:atemp>
          </ns3:TrackPointExtension>
        </extensions>
      </trkpt>
      <trkpt lat="42.55934871733188629150390625" lon="20.07894233800470829010009765625">
        <ele>2237</ele>
        <time>2026-06-19T12:07:06.000Z</time>
        <extensions>
          <ns3:TrackPointExtension>
            <ns3:atemp>19.0</ns3:atemp>
          </ns3:TrackPointExtension>
        </extensions>
      </trkpt>
      <trkpt lat="42.55934871733188629150390625" lon="20.07894233800470829010009765625">
        <ele>2237</ele>
        <time>2026-06-19T12:07:07.000Z</time>
        <extensions>
          <ns3:TrackPointExtension>
            <ns3:atemp>19.0</ns3:atemp>
          </ns3:TrackPointExtension>
        </extensions>
      </trkpt>
      <trkpt lat="42.55934871733188629150390625" lon="20.07894233800470829010009765625">
        <ele>2237</ele>
        <time>2026-06-19T12:07:08.000Z</time>
        <extensions>
          <ns3:TrackPointExtension>
            <ns3:atemp>19.0</ns3:atemp>
          </ns3:TrackPointExtension>
        </extensions>
      </trkpt>
      <trkpt lat="42.55934871733188629150390625" lon="20.07894233800470829010009765625">
        <ele>2236.800048828125</ele>
        <time>2026-06-19T12:07:09.000Z</time>
        <extensions>
          <ns3:TrackPointExtension>
            <ns3:atemp>19.0</ns3:atemp>
          </ns3:TrackPointExtension>
        </extensions>
      </trkpt>
      <trkpt lat="42.55934871733188629150390625" lon="20.07894233800470829010009765625">
        <ele>2236.800048828125</ele>
        <time>2026-06-19T12:07:10.000Z</time>
        <extensions>
          <ns3:TrackPointExtension>
            <ns3:atemp>19.0</ns3:atemp>
          </ns3:TrackPointExtension>
        </extensions>
      </trkpt>
      <trkpt lat="42.55934871733188629150390625" lon="20.07894233800470829010009765625">
        <ele>2236.800048828125</ele>
        <time>2026-06-19T12:07:11.000Z</time>
        <extensions>
          <ns3:TrackPointExtension>
            <ns3:atemp>19.0</ns3:atemp>
          </ns3:TrackPointExtension>
        </extensions>
      </trkpt>
      <trkpt lat="42.55934871733188629150390625" lon="20.07894233800470829010009765625">
        <ele>2236.800048828125</ele>
        <time>2026-06-19T12:07:12.000Z</time>
        <extensions>
          <ns3:TrackPointExtension>
            <ns3:atemp>19.0</ns3:atemp>
          </ns3:TrackPointExtension>
        </extensions>
      </trkpt>
      <trkpt lat="42.55934871733188629150390625" lon="20.07894233800470829010009765625">
        <ele>2236.800048828125</ele>
        <time>2026-06-19T12:07:13.000Z</time>
        <extensions>
          <ns3:TrackPointExtension>
            <ns3:atemp>19.0</ns3:atemp>
          </ns3:TrackPointExtension>
        </extensions>
      </trkpt>
      <trkpt lat="42.55934871733188629150390625" lon="20.07894233800470829010009765625">
        <ele>2236.800048828125</ele>
        <time>2026-06-19T12:07:14.000Z</time>
        <extensions>
          <ns3:TrackPointExtension>
            <ns3:atemp>19.0</ns3:atemp>
          </ns3:TrackPointExtension>
        </extensions>
      </trkpt>
      <trkpt lat="42.55934871733188629150390625" lon="20.07894233800470829010009765625">
        <ele>2236.800048828125</ele>
        <time>2026-06-19T12:07:15.000Z</time>
        <extensions>
          <ns3:TrackPointExtension>
            <ns3:atemp>19.0</ns3:atemp>
          </ns3:TrackPointExtension>
        </extensions>
      </trkpt>
      <trkpt lat="42.55934871733188629150390625" lon="20.07894233800470829010009765625">
        <ele>2236.800048828125</ele>
        <time>2026-06-19T12:07:16.000Z</time>
        <extensions>
          <ns3:TrackPointExtension>
            <ns3:atemp>19.0</ns3:atemp>
          </ns3:TrackPointExtension>
        </extensions>
      </trkpt>
      <trkpt lat="42.55934871733188629150390625" lon="20.07894233800470829010009765625">
        <ele>2236.800048828125</ele>
        <time>2026-06-19T12:07:17.000Z</time>
        <extensions>
          <ns3:TrackPointExtension>
            <ns3:atemp>19.0</ns3:atemp>
          </ns3:TrackPointExtension>
        </extensions>
      </trkpt>
      <trkpt lat="42.55934871733188629150390625" lon="20.07894233800470829010009765625">
        <ele>2236.60009765625</ele>
        <time>2026-06-19T12:07:18.000Z</time>
        <extensions>
          <ns3:TrackPointExtension>
            <ns3:atemp>19.0</ns3:atemp>
          </ns3:TrackPointExtension>
        </extensions>
      </trkpt>
      <trkpt lat="42.55934871733188629150390625" lon="20.07894233800470829010009765625">
        <ele>2236.60009765625</ele>
        <time>2026-06-19T12:07:19.000Z</time>
        <extensions>
          <ns3:TrackPointExtension>
            <ns3:atemp>19.0</ns3:atemp>
          </ns3:TrackPointExtension>
        </extensions>
      </trkpt>
      <trkpt lat="42.55934871733188629150390625" lon="20.07894233800470829010009765625">
        <ele>2236.60009765625</ele>
        <time>2026-06-19T12:07:20.000Z</time>
        <extensions>
          <ns3:TrackPointExtension>
            <ns3:atemp>19.0</ns3:atemp>
          </ns3:TrackPointExtension>
        </extensions>
      </trkpt>
      <trkpt lat="42.55934871733188629150390625" lon="20.07894233800470829010009765625">
        <ele>2236.60009765625</ele>
        <time>2026-06-19T12:07:21.000Z</time>
        <extensions>
          <ns3:TrackPointExtension>
            <ns3:atemp>19.0</ns3:atemp>
          </ns3:TrackPointExtension>
        </extensions>
      </trkpt>
      <trkpt lat="42.55934871733188629150390625" lon="20.07894233800470829010009765625">
        <ele>2236.60009765625</ele>
        <time>2026-06-19T12:07:22.000Z</time>
        <extensions>
          <ns3:TrackPointExtension>
            <ns3:atemp>19.0</ns3:atemp>
          </ns3:TrackPointExtension>
        </extensions>
      </trkpt>
      <trkpt lat="42.55934871733188629150390625" lon="20.07894233800470829010009765625">
        <ele>2236.60009765625</ele>
        <time>2026-06-19T12:07:23.000Z</time>
        <extensions>
          <ns3:TrackPointExtension>
            <ns3:atemp>19.0</ns3:atemp>
          </ns3:TrackPointExtension>
        </extensions>
      </trkpt>
      <trkpt lat="42.55934871733188629150390625" lon="20.07894233800470829010009765625">
        <ele>2236.60009765625</ele>
        <time>2026-06-19T12:07:24.000Z</time>
        <extensions>
          <ns3:TrackPointExtension>
            <ns3:atemp>19.0</ns3:atemp>
          </ns3:TrackPointExtension>
        </extensions>
      </trkpt>
      <trkpt lat="42.55934871733188629150390625" lon="20.07894233800470829010009765625">
        <ele>2236.60009765625</ele>
        <time>2026-06-19T12:07:25.000Z</time>
        <extensions>
          <ns3:TrackPointExtension>
            <ns3:atemp>19.0</ns3:atemp>
          </ns3:TrackPointExtension>
        </extensions>
      </trkpt>
      <trkpt lat="42.55934871733188629150390625" lon="20.07894233800470829010009765625">
        <ele>2236.39990234375</ele>
        <time>2026-06-19T12:07:26.000Z</time>
        <extensions>
          <ns3:TrackPointExtension>
            <ns3:atemp>19.0</ns3:atemp>
          </ns3:TrackPointExtension>
        </extensions>
      </trkpt>
      <trkpt lat="42.55934871733188629150390625" lon="20.07894233800470829010009765625">
        <ele>2236.39990234375</ele>
        <time>2026-06-19T12:07:27.000Z</time>
        <extensions>
          <ns3:TrackPointExtension>
            <ns3:atemp>19.0</ns3:atemp>
          </ns3:TrackPointExtension>
        </extensions>
      </trkpt>
      <trkpt lat="42.55934871733188629150390625" lon="20.07894233800470829010009765625">
        <ele>2236.39990234375</ele>
        <time>2026-06-19T12:07:28.000Z</time>
        <extensions>
          <ns3:TrackPointExtension>
            <ns3:atemp>19.0</ns3:atemp>
          </ns3:TrackPointExtension>
        </extensions>
      </trkpt>
      <trkpt lat="42.55934871733188629150390625" lon="20.07894233800470829010009765625">
        <ele>2236.60009765625</ele>
        <time>2026-06-19T12:07:29.000Z</time>
        <extensions>
          <ns3:TrackPointExtension>
            <ns3:atemp>19.0</ns3:atemp>
          </ns3:TrackPointExtension>
        </extensions>
      </trkpt>
      <trkpt lat="42.55934871733188629150390625" lon="20.07894233800470829010009765625">
        <ele>2236.60009765625</ele>
        <time>2026-06-19T12:07:30.000Z</time>
        <extensions>
          <ns3:TrackPointExtension>
            <ns3:atemp>19.0</ns3:atemp>
          </ns3:TrackPointExtension>
        </extensions>
      </trkpt>
      <trkpt lat="42.55934871733188629150390625" lon="20.07894233800470829010009765625">
        <ele>2236.60009765625</ele>
        <time>2026-06-19T12:07:31.000Z</time>
        <extensions>
          <ns3:TrackPointExtension>
            <ns3:atemp>19.0</ns3:atemp>
          </ns3:TrackPointExtension>
        </extensions>
      </trkpt>
      <trkpt lat="42.55934871733188629150390625" lon="20.07894233800470829010009765625">
        <ele>2236.60009765625</ele>
        <time>2026-06-19T12:07:32.000Z</time>
        <extensions>
          <ns3:TrackPointExtension>
            <ns3:atemp>19.0</ns3:atemp>
          </ns3:TrackPointExtension>
        </extensions>
      </trkpt>
      <trkpt lat="42.55934871733188629150390625" lon="20.07894233800470829010009765625">
        <ele>2236.60009765625</ele>
        <time>2026-06-19T12:07:33.000Z</time>
        <extensions>
          <ns3:TrackPointExtension>
            <ns3:atemp>19.0</ns3:atemp>
          </ns3:TrackPointExtension>
        </extensions>
      </trkpt>
      <trkpt lat="42.55934871733188629150390625" lon="20.07894233800470829010009765625">
        <ele>2236.39990234375</ele>
        <time>2026-06-19T12:07:34.000Z</time>
        <extensions>
          <ns3:TrackPointExtension>
            <ns3:atemp>19.0</ns3:atemp>
          </ns3:TrackPointExtension>
        </extensions>
      </trkpt>
      <trkpt lat="42.55934871733188629150390625" lon="20.07894233800470829010009765625">
        <ele>2236.39990234375</ele>
        <time>2026-06-19T12:07:35.000Z</time>
        <extensions>
          <ns3:TrackPointExtension>
            <ns3:atemp>19.0</ns3:atemp>
          </ns3:TrackPointExtension>
        </extensions>
      </trkpt>
      <trkpt lat="42.55934871733188629150390625" lon="20.07894233800470829010009765625">
        <ele>2236.39990234375</ele>
        <time>2026-06-19T12:07:36.000Z</time>
        <extensions>
          <ns3:TrackPointExtension>
            <ns3:atemp>19.0</ns3:atemp>
          </ns3:TrackPointExtension>
        </extensions>
      </trkpt>
      <trkpt lat="42.55934871733188629150390625" lon="20.07894233800470829010009765625">
        <ele>2236.39990234375</ele>
        <time>2026-06-19T12:07:37.000Z</time>
        <extensions>
          <ns3:TrackPointExtension>
            <ns3:atemp>19.0</ns3:atemp>
          </ns3:TrackPointExtension>
        </extensions>
      </trkpt>
      <trkpt lat="42.55934871733188629150390625" lon="20.07894233800470829010009765625">
        <ele>2236.39990234375</ele>
        <time>2026-06-19T12:07:38.000Z</time>
        <extensions>
          <ns3:TrackPointExtension>
            <ns3:atemp>19.0</ns3:atemp>
          </ns3:TrackPointExtension>
        </extensions>
      </trkpt>
      <trkpt lat="42.55934871733188629150390625" lon="20.07894233800470829010009765625">
        <ele>2236.39990234375</ele>
        <time>2026-06-19T12:07:39.000Z</time>
        <extensions>
          <ns3:TrackPointExtension>
            <ns3:atemp>19.0</ns3:atemp>
          </ns3:TrackPointExtension>
        </extensions>
      </trkpt>
      <trkpt lat="42.55934871733188629150390625" lon="20.07894233800470829010009765625">
        <ele>2236.39990234375</ele>
        <time>2026-06-19T12:07:40.000Z</time>
        <extensions>
          <ns3:TrackPointExtension>
            <ns3:atemp>19.0</ns3:atemp>
          </ns3:TrackPointExtension>
        </extensions>
      </trkpt>
      <trkpt lat="42.55934871733188629150390625" lon="20.07894233800470829010009765625">
        <ele>2236.39990234375</ele>
        <time>2026-06-19T12:07:41.000Z</time>
        <extensions>
          <ns3:TrackPointExtension>
            <ns3:atemp>19.0</ns3:atemp>
          </ns3:TrackPointExtension>
        </extensions>
      </trkpt>
      <trkpt lat="42.55934871733188629150390625" lon="20.07894233800470829010009765625">
        <ele>2236.39990234375</ele>
        <time>2026-06-19T12:07:42.000Z</time>
        <extensions>
          <ns3:TrackPointExtension>
            <ns3:atemp>19.0</ns3:atemp>
          </ns3:TrackPointExtension>
        </extensions>
      </trkpt>
      <trkpt lat="42.55934871733188629150390625" lon="20.07894233800470829010009765625">
        <ele>2236.39990234375</ele>
        <time>2026-06-19T12:07:43.000Z</time>
        <extensions>
          <ns3:TrackPointExtension>
            <ns3:atemp>19.0</ns3:atemp>
          </ns3:TrackPointExtension>
        </extensions>
      </trkpt>
      <trkpt lat="42.55934871733188629150390625" lon="20.07894233800470829010009765625">
        <ele>2236.39990234375</ele>
        <time>2026-06-19T12:07:44.000Z</time>
        <extensions>
          <ns3:TrackPointExtension>
            <ns3:atemp>19.0</ns3:atemp>
          </ns3:TrackPointExtension>
        </extensions>
      </trkpt>
      <trkpt lat="42.55934871733188629150390625" lon="20.07894233800470829010009765625">
        <ele>2236.39990234375</ele>
        <time>2026-06-19T12:07:45.000Z</time>
        <extensions>
          <ns3:TrackPointExtension>
            <ns3:atemp>19.0</ns3:atemp>
          </ns3:TrackPointExtension>
        </extensions>
      </trkpt>
      <trkpt lat="42.55934871733188629150390625" lon="20.07894233800470829010009765625">
        <ele>2236.39990234375</ele>
        <time>2026-06-19T12:07:46.000Z</time>
        <extensions>
          <ns3:TrackPointExtension>
            <ns3:atemp>19.0</ns3:atemp>
          </ns3:TrackPointExtension>
        </extensions>
      </trkpt>
      <trkpt lat="42.55934871733188629150390625" lon="20.07894233800470829010009765625">
        <ele>2236.60009765625</ele>
        <time>2026-06-19T12:07:47.000Z</time>
        <extensions>
          <ns3:TrackPointExtension>
            <ns3:atemp>19.0</ns3:atemp>
          </ns3:TrackPointExtension>
        </extensions>
      </trkpt>
      <trkpt lat="42.55934871733188629150390625" lon="20.07894233800470829010009765625">
        <ele>2236.60009765625</ele>
        <time>2026-06-19T12:07:48.000Z</time>
        <extensions>
          <ns3:TrackPointExtension>
            <ns3:atemp>19.0</ns3:atemp>
          </ns3:TrackPointExtension>
        </extensions>
      </trkpt>
      <trkpt lat="42.55934871733188629150390625" lon="20.07894233800470829010009765625">
        <ele>2236.60009765625</ele>
        <time>2026-06-19T12:07:49.000Z</time>
        <extensions>
          <ns3:TrackPointExtension>
            <ns3:atemp>19.0</ns3:atemp>
          </ns3:TrackPointExtension>
        </extensions>
      </trkpt>
      <trkpt lat="42.55934871733188629150390625" lon="20.07894233800470829010009765625">
        <ele>2236.60009765625</ele>
        <time>2026-06-19T12:07:50.000Z</time>
        <extensions>
          <ns3:TrackPointExtension>
            <ns3:atemp>19.0</ns3:atemp>
          </ns3:TrackPointExtension>
        </extensions>
      </trkpt>
      <trkpt lat="42.55934871733188629150390625" lon="20.07894233800470829010009765625">
        <ele>2236.60009765625</ele>
        <time>2026-06-19T12:07:51.000Z</time>
        <extensions>
          <ns3:TrackPointExtension>
            <ns3:atemp>19.0</ns3:atemp>
          </ns3:TrackPointExtension>
        </extensions>
      </trkpt>
      <trkpt lat="42.55934871733188629150390625" lon="20.07894233800470829010009765625">
        <ele>2236.60009765625</ele>
        <time>2026-06-19T12:07:52.000Z</time>
        <extensions>
          <ns3:TrackPointExtension>
            <ns3:atemp>19.0</ns3:atemp>
          </ns3:TrackPointExtension>
        </extensions>
      </trkpt>
      <trkpt lat="42.55934871733188629150390625" lon="20.07894233800470829010009765625">
        <ele>2236.800048828125</ele>
        <time>2026-06-19T12:07:53.000Z</time>
        <extensions>
          <ns3:TrackPointExtension>
            <ns3:atemp>19.0</ns3:atemp>
          </ns3:TrackPointExtension>
        </extensions>
      </trkpt>
      <trkpt lat="42.55934871733188629150390625" lon="20.07894233800470829010009765625">
        <ele>2236.800048828125</ele>
        <time>2026-06-19T12:07:54.000Z</time>
        <extensions>
          <ns3:TrackPointExtension>
            <ns3:atemp>19.0</ns3:atemp>
          </ns3:TrackPointExtension>
        </extensions>
      </trkpt>
      <trkpt lat="42.55934871733188629150390625" lon="20.07894233800470829010009765625">
        <ele>2236.800048828125</ele>
        <time>2026-06-19T12:07:55.000Z</time>
        <extensions>
          <ns3:TrackPointExtension>
            <ns3:atemp>19.0</ns3:atemp>
          </ns3:TrackPointExtension>
        </extensions>
      </trkpt>
      <trkpt lat="42.55934871733188629150390625" lon="20.07894233800470829010009765625">
        <ele>2236.800048828125</ele>
        <time>2026-06-19T12:07:56.000Z</time>
        <extensions>
          <ns3:TrackPointExtension>
            <ns3:atemp>19.0</ns3:atemp>
          </ns3:TrackPointExtension>
        </extensions>
      </trkpt>
      <trkpt lat="42.55934871733188629150390625" lon="20.07894233800470829010009765625">
        <ele>2236.800048828125</ele>
        <time>2026-06-19T12:07:57.000Z</time>
        <extensions>
          <ns3:TrackPointExtension>
            <ns3:atemp>19.0</ns3:atemp>
          </ns3:TrackPointExtension>
        </extensions>
      </trkpt>
      <trkpt lat="42.55934871733188629150390625" lon="20.07894233800470829010009765625">
        <ele>2236.800048828125</ele>
        <time>2026-06-19T12:07:58.000Z</time>
        <extensions>
          <ns3:TrackPointExtension>
            <ns3:atemp>19.0</ns3:atemp>
          </ns3:TrackPointExtension>
        </extensions>
      </trkpt>
      <trkpt lat="42.55934871733188629150390625" lon="20.07894233800470829010009765625">
        <ele>2236.800048828125</ele>
        <time>2026-06-19T12:07:59.000Z</time>
        <extensions>
          <ns3:TrackPointExtension>
            <ns3:atemp>19.0</ns3:atemp>
          </ns3:TrackPointExtension>
        </extensions>
      </trkpt>
      <trkpt lat="42.55934871733188629150390625" lon="20.07894233800470829010009765625">
        <ele>2236.800048828125</ele>
        <time>2026-06-19T12:08:00.000Z</time>
        <extensions>
          <ns3:TrackPointExtension>
            <ns3:atemp>19.0</ns3:atemp>
          </ns3:TrackPointExtension>
        </extensions>
      </trkpt>
      <trkpt lat="42.55934871733188629150390625" lon="20.07894233800470829010009765625">
        <ele>2236.800048828125</ele>
        <time>2026-06-19T12:08:01.000Z</time>
        <extensions>
          <ns3:TrackPointExtension>
            <ns3:atemp>19.0</ns3:atemp>
          </ns3:TrackPointExtension>
        </extensions>
      </trkpt>
      <trkpt lat="42.55934871733188629150390625" lon="20.07894233800470829010009765625">
        <ele>2236.800048828125</ele>
        <time>2026-06-19T12:08:02.000Z</time>
        <extensions>
          <ns3:TrackPointExtension>
            <ns3:atemp>19.0</ns3:atemp>
          </ns3:TrackPointExtension>
        </extensions>
      </trkpt>
      <trkpt lat="42.55934871733188629150390625" lon="20.07894233800470829010009765625">
        <ele>2236.800048828125</ele>
        <time>2026-06-19T12:08:03.000Z</time>
        <extensions>
          <ns3:TrackPointExtension>
            <ns3:atemp>19.0</ns3:atemp>
          </ns3:TrackPointExtension>
        </extensions>
      </trkpt>
      <trkpt lat="42.55934871733188629150390625" lon="20.07894233800470829010009765625">
        <ele>2236.800048828125</ele>
        <time>2026-06-19T12:08:04.000Z</time>
        <extensions>
          <ns3:TrackPointExtension>
            <ns3:atemp>19.0</ns3:atemp>
          </ns3:TrackPointExtension>
        </extensions>
      </trkpt>
      <trkpt lat="42.55934871733188629150390625" lon="20.07894233800470829010009765625">
        <ele>2236.800048828125</ele>
        <time>2026-06-19T12:08:05.000Z</time>
        <extensions>
          <ns3:TrackPointExtension>
            <ns3:atemp>19.0</ns3:atemp>
          </ns3:TrackPointExtension>
        </extensions>
      </trkpt>
      <trkpt lat="42.55934871733188629150390625" lon="20.07894233800470829010009765625">
        <ele>2236.800048828125</ele>
        <time>2026-06-19T12:08:06.000Z</time>
        <extensions>
          <ns3:TrackPointExtension>
            <ns3:atemp>19.0</ns3:atemp>
          </ns3:TrackPointExtension>
        </extensions>
      </trkpt>
      <trkpt lat="42.55934871733188629150390625" lon="20.07894233800470829010009765625">
        <ele>2236.800048828125</ele>
        <time>2026-06-19T12:08:07.000Z</time>
        <extensions>
          <ns3:TrackPointExtension>
            <ns3:atemp>19.0</ns3:atemp>
          </ns3:TrackPointExtension>
        </extensions>
      </trkpt>
      <trkpt lat="42.55934871733188629150390625" lon="20.07894233800470829010009765625">
        <ele>2236.800048828125</ele>
        <time>2026-06-19T12:08:08.000Z</time>
        <extensions>
          <ns3:TrackPointExtension>
            <ns3:atemp>19.0</ns3:atemp>
          </ns3:TrackPointExtension>
        </extensions>
      </trkpt>
      <trkpt lat="42.55934871733188629150390625" lon="20.07894233800470829010009765625">
        <ele>2236.800048828125</ele>
        <time>2026-06-19T12:08:09.000Z</time>
        <extensions>
          <ns3:TrackPointExtension>
            <ns3:atemp>19.0</ns3:atemp>
          </ns3:TrackPointExtension>
        </extensions>
      </trkpt>
      <trkpt lat="42.55934871733188629150390625" lon="20.07894233800470829010009765625">
        <ele>2236.800048828125</ele>
        <time>2026-06-19T12:08:10.000Z</time>
        <extensions>
          <ns3:TrackPointExtension>
            <ns3:atemp>19.0</ns3:atemp>
          </ns3:TrackPointExtension>
        </extensions>
      </trkpt>
      <trkpt lat="42.55934871733188629150390625" lon="20.07894233800470829010009765625">
        <ele>2236.800048828125</ele>
        <time>2026-06-19T12:08:11.000Z</time>
        <extensions>
          <ns3:TrackPointExtension>
            <ns3:atemp>19.0</ns3:atemp>
          </ns3:TrackPointExtension>
        </extensions>
      </trkpt>
      <trkpt lat="42.55934871733188629150390625" lon="20.07894233800470829010009765625">
        <ele>2236.800048828125</ele>
        <time>2026-06-19T12:08:12.000Z</time>
        <extensions>
          <ns3:TrackPointExtension>
            <ns3:atemp>19.0</ns3:atemp>
          </ns3:TrackPointExtension>
        </extensions>
      </trkpt>
      <trkpt lat="42.55934871733188629150390625" lon="20.07894233800470829010009765625">
        <ele>2236.800048828125</ele>
        <time>2026-06-19T12:08:13.000Z</time>
        <extensions>
          <ns3:TrackPointExtension>
            <ns3:atemp>19.0</ns3:atemp>
          </ns3:TrackPointExtension>
        </extensions>
      </trkpt>
      <trkpt lat="42.55934871733188629150390625" lon="20.07894233800470829010009765625">
        <ele>2236.800048828125</ele>
        <time>2026-06-19T12:08:14.000Z</time>
        <extensions>
          <ns3:TrackPointExtension>
            <ns3:atemp>19.0</ns3:atemp>
          </ns3:TrackPointExtension>
        </extensions>
      </trkpt>
      <trkpt lat="42.55934871733188629150390625" lon="20.07894233800470829010009765625">
        <ele>2236.800048828125</ele>
        <time>2026-06-19T12:08:15.000Z</time>
        <extensions>
          <ns3:TrackPointExtension>
            <ns3:atemp>19.0</ns3:atemp>
          </ns3:TrackPointExtension>
        </extensions>
      </trkpt>
      <trkpt lat="42.55934871733188629150390625" lon="20.07894233800470829010009765625">
        <ele>2236.800048828125</ele>
        <time>2026-06-19T12:08:16.000Z</time>
        <extensions>
          <ns3:TrackPointExtension>
            <ns3:atemp>19.0</ns3:atemp>
          </ns3:TrackPointExtension>
        </extensions>
      </trkpt>
      <trkpt lat="42.55934871733188629150390625" lon="20.07894233800470829010009765625">
        <ele>2236.800048828125</ele>
        <time>2026-06-19T12:08:17.000Z</time>
        <extensions>
          <ns3:TrackPointExtension>
            <ns3:atemp>19.0</ns3:atemp>
          </ns3:TrackPointExtension>
        </extensions>
      </trkpt>
      <trkpt lat="42.55934871733188629150390625" lon="20.07894233800470829010009765625">
        <ele>2236.800048828125</ele>
        <time>2026-06-19T12:08:18.000Z</time>
        <extensions>
          <ns3:TrackPointExtension>
            <ns3:atemp>19.0</ns3:atemp>
          </ns3:TrackPointExtension>
        </extensions>
      </trkpt>
      <trkpt lat="42.55934871733188629150390625" lon="20.07894233800470829010009765625">
        <ele>2236.800048828125</ele>
        <time>2026-06-19T12:08:19.000Z</time>
        <extensions>
          <ns3:TrackPointExtension>
            <ns3:atemp>19.0</ns3:atemp>
          </ns3:TrackPointExtension>
        </extensions>
      </trkpt>
      <trkpt lat="42.55934871733188629150390625" lon="20.07894233800470829010009765625">
        <ele>2236.800048828125</ele>
        <time>2026-06-19T12:08:20.000Z</time>
        <extensions>
          <ns3:TrackPointExtension>
            <ns3:atemp>19.0</ns3:atemp>
          </ns3:TrackPointExtension>
        </extensions>
      </trkpt>
      <trkpt lat="42.55934871733188629150390625" lon="20.07894233800470829010009765625">
        <ele>2236.800048828125</ele>
        <time>2026-06-19T12:08:21.000Z</time>
        <extensions>
          <ns3:TrackPointExtension>
            <ns3:atemp>19.0</ns3:atemp>
          </ns3:TrackPointExtension>
        </extensions>
      </trkpt>
      <trkpt lat="42.55934871733188629150390625" lon="20.07894233800470829010009765625">
        <ele>2236.800048828125</ele>
        <time>2026-06-19T12:08:22.000Z</time>
        <extensions>
          <ns3:TrackPointExtension>
            <ns3:atemp>19.0</ns3:atemp>
          </ns3:TrackPointExtension>
        </extensions>
      </trkpt>
      <trkpt lat="42.55934871733188629150390625" lon="20.07894233800470829010009765625">
        <ele>2236.800048828125</ele>
        <time>2026-06-19T12:08:23.000Z</time>
        <extensions>
          <ns3:TrackPointExtension>
            <ns3:atemp>19.0</ns3:atemp>
          </ns3:TrackPointExtension>
        </extensions>
      </trkpt>
      <trkpt lat="42.55934871733188629150390625" lon="20.07894233800470829010009765625">
        <ele>2236.800048828125</ele>
        <time>2026-06-19T12:08:24.000Z</time>
        <extensions>
          <ns3:TrackPointExtension>
            <ns3:atemp>19.0</ns3:atemp>
          </ns3:TrackPointExtension>
        </extensions>
      </trkpt>
      <trkpt lat="42.55934871733188629150390625" lon="20.07894233800470829010009765625">
        <ele>2236.800048828125</ele>
        <time>2026-06-19T12:08:25.000Z</time>
        <extensions>
          <ns3:TrackPointExtension>
            <ns3:atemp>19.0</ns3:atemp>
          </ns3:TrackPointExtension>
        </extensions>
      </trkpt>
      <trkpt lat="42.55934871733188629150390625" lon="20.07894233800470829010009765625">
        <ele>2236.800048828125</ele>
        <time>2026-06-19T12:08:26.000Z</time>
        <extensions>
          <ns3:TrackPointExtension>
            <ns3:atemp>19.0</ns3:atemp>
          </ns3:TrackPointExtension>
        </extensions>
      </trkpt>
      <trkpt lat="42.55934871733188629150390625" lon="20.07894233800470829010009765625">
        <ele>2236.800048828125</ele>
        <time>2026-06-19T12:08:27.000Z</time>
        <extensions>
          <ns3:TrackPointExtension>
            <ns3:atemp>19.0</ns3:atemp>
          </ns3:TrackPointExtension>
        </extensions>
      </trkpt>
      <trkpt lat="42.55934871733188629150390625" lon="20.07894233800470829010009765625">
        <ele>2236.800048828125</ele>
        <time>2026-06-19T12:08:28.000Z</time>
        <extensions>
          <ns3:TrackPointExtension>
            <ns3:atemp>19.0</ns3:atemp>
          </ns3:TrackPointExtension>
        </extensions>
      </trkpt>
      <trkpt lat="42.55934871733188629150390625" lon="20.07894233800470829010009765625">
        <ele>2236.800048828125</ele>
        <time>2026-06-19T12:08:29.000Z</time>
        <extensions>
          <ns3:TrackPointExtension>
            <ns3:atemp>19.0</ns3:atemp>
          </ns3:TrackPointExtension>
        </extensions>
      </trkpt>
      <trkpt lat="42.55934871733188629150390625" lon="20.07894233800470829010009765625">
        <ele>2236.800048828125</ele>
        <time>2026-06-19T12:08:30.000Z</time>
        <extensions>
          <ns3:TrackPointExtension>
            <ns3:atemp>19.0</ns3:atemp>
          </ns3:TrackPointExtension>
        </extensions>
      </trkpt>
      <trkpt lat="42.55934871733188629150390625" lon="20.07894233800470829010009765625">
        <ele>2236.800048828125</ele>
        <time>2026-06-19T12:08:31.000Z</time>
        <extensions>
          <ns3:TrackPointExtension>
            <ns3:atemp>19.0</ns3:atemp>
          </ns3:TrackPointExtension>
        </extensions>
      </trkpt>
      <trkpt lat="42.55934871733188629150390625" lon="20.07894233800470829010009765625">
        <ele>2236.800048828125</ele>
        <time>2026-06-19T12:08:32.000Z</time>
        <extensions>
          <ns3:TrackPointExtension>
            <ns3:atemp>19.0</ns3:atemp>
          </ns3:TrackPointExtension>
        </extensions>
      </trkpt>
      <trkpt lat="42.55934871733188629150390625" lon="20.07894233800470829010009765625">
        <ele>2236.800048828125</ele>
        <time>2026-06-19T12:08:33.000Z</time>
        <extensions>
          <ns3:TrackPointExtension>
            <ns3:atemp>19.0</ns3:atemp>
          </ns3:TrackPointExtension>
        </extensions>
      </trkpt>
      <trkpt lat="42.55934871733188629150390625" lon="20.07894233800470829010009765625">
        <ele>2236.800048828125</ele>
        <time>2026-06-19T12:08:34.000Z</time>
        <extensions>
          <ns3:TrackPointExtension>
            <ns3:atemp>19.0</ns3:atemp>
          </ns3:TrackPointExtension>
        </extensions>
      </trkpt>
      <trkpt lat="42.55934871733188629150390625" lon="20.07894233800470829010009765625">
        <ele>2236.800048828125</ele>
        <time>2026-06-19T12:08:35.000Z</time>
        <extensions>
          <ns3:TrackPointExtension>
            <ns3:atemp>19.0</ns3:atemp>
          </ns3:TrackPointExtension>
        </extensions>
      </trkpt>
      <trkpt lat="42.55934871733188629150390625" lon="20.07894233800470829010009765625">
        <ele>2236.800048828125</ele>
        <time>2026-06-19T12:08:36.000Z</time>
        <extensions>
          <ns3:TrackPointExtension>
            <ns3:atemp>19.0</ns3:atemp>
          </ns3:TrackPointExtension>
        </extensions>
      </trkpt>
      <trkpt lat="42.55934871733188629150390625" lon="20.07894233800470829010009765625">
        <ele>2236.800048828125</ele>
        <time>2026-06-19T12:08:37.000Z</time>
        <extensions>
          <ns3:TrackPointExtension>
            <ns3:atemp>19.0</ns3:atemp>
          </ns3:TrackPointExtension>
        </extensions>
      </trkpt>
      <trkpt lat="42.55934871733188629150390625" lon="20.07894233800470829010009765625">
        <ele>2236.800048828125</ele>
        <time>2026-06-19T12:08:38.000Z</time>
        <extensions>
          <ns3:TrackPointExtension>
            <ns3:atemp>19.0</ns3:atemp>
          </ns3:TrackPointExtension>
        </extensions>
      </trkpt>
      <trkpt lat="42.55934871733188629150390625" lon="20.07894233800470829010009765625">
        <ele>2236.800048828125</ele>
        <time>2026-06-19T12:08:39.000Z</time>
        <extensions>
          <ns3:TrackPointExtension>
            <ns3:atemp>19.0</ns3:atemp>
          </ns3:TrackPointExtension>
        </extensions>
      </trkpt>
      <trkpt lat="42.55934871733188629150390625" lon="20.07894233800470829010009765625">
        <ele>2236.800048828125</ele>
        <time>2026-06-19T12:08:40.000Z</time>
        <extensions>
          <ns3:TrackPointExtension>
            <ns3:atemp>19.0</ns3:atemp>
          </ns3:TrackPointExtension>
        </extensions>
      </trkpt>
      <trkpt lat="42.55934871733188629150390625" lon="20.07894233800470829010009765625">
        <ele>2236.800048828125</ele>
        <time>2026-06-19T12:08:41.000Z</time>
        <extensions>
          <ns3:TrackPointExtension>
            <ns3:atemp>19.0</ns3:atemp>
          </ns3:TrackPointExtension>
        </extensions>
      </trkpt>
      <trkpt lat="42.55934871733188629150390625" lon="20.07894233800470829010009765625">
        <ele>2236.800048828125</ele>
        <time>2026-06-19T12:08:42.000Z</time>
        <extensions>
          <ns3:TrackPointExtension>
            <ns3:atemp>19.0</ns3:atemp>
          </ns3:TrackPointExtension>
        </extensions>
      </trkpt>
      <trkpt lat="42.55934871733188629150390625" lon="20.07894233800470829010009765625">
        <ele>2236.800048828125</ele>
        <time>2026-06-19T12:08:43.000Z</time>
        <extensions>
          <ns3:TrackPointExtension>
            <ns3:atemp>19.0</ns3:atemp>
          </ns3:TrackPointExtension>
        </extensions>
      </trkpt>
      <trkpt lat="42.55934871733188629150390625" lon="20.07894233800470829010009765625">
        <ele>2236.800048828125</ele>
        <time>2026-06-19T12:08:44.000Z</time>
        <extensions>
          <ns3:TrackPointExtension>
            <ns3:atemp>19.0</ns3:atemp>
          </ns3:TrackPointExtension>
        </extensions>
      </trkpt>
      <trkpt lat="42.55934871733188629150390625" lon="20.07894233800470829010009765625">
        <ele>2236.800048828125</ele>
        <time>2026-06-19T12:08:45.000Z</time>
        <extensions>
          <ns3:TrackPointExtension>
            <ns3:atemp>19.0</ns3:atemp>
          </ns3:TrackPointExtension>
        </extensions>
      </trkpt>
      <trkpt lat="42.559348046779632568359375" lon="20.07894099690020084381103515625">
        <ele>2236.800048828125</ele>
        <time>2026-06-19T12:08:46.000Z</time>
        <extensions>
          <ns3:TrackPointExtension>
            <ns3:atemp>19.0</ns3:atemp>
          </ns3:TrackPointExtension>
        </extensions>
      </trkpt>
      <trkpt lat="42.55934678949415683746337890625" lon="20.07893529720604419708251953125">
        <ele>2236.800048828125</ele>
        <time>2026-06-19T12:08:47.000Z</time>
        <extensions>
          <ns3:TrackPointExtension>
            <ns3:atemp>19.0</ns3:atemp>
          </ns3:TrackPointExtension>
        </extensions>
      </trkpt>
      <trkpt lat="42.55934871733188629150390625" lon="20.07894233800470829010009765625">
        <ele>2236.800048828125</ele>
        <time>2026-06-19T12:08:48.000Z</time>
        <extensions>
          <ns3:TrackPointExtension>
            <ns3:atemp>19.0</ns3:atemp>
          </ns3:TrackPointExtension>
        </extensions>
      </trkpt>
      <trkpt lat="42.55934871733188629150390625" lon="20.07894233800470829010009765625">
        <ele>2236.800048828125</ele>
        <time>2026-06-19T12:08:49.000Z</time>
        <extensions>
          <ns3:TrackPointExtension>
            <ns3:atemp>19.0</ns3:atemp>
          </ns3:TrackPointExtension>
        </extensions>
      </trkpt>
      <trkpt lat="42.55934871733188629150390625" lon="20.07894233800470829010009765625">
        <ele>2236.800048828125</ele>
        <time>2026-06-19T12:08:50.000Z</time>
        <extensions>
          <ns3:TrackPointExtension>
            <ns3:atemp>19.0</ns3:atemp>
          </ns3:TrackPointExtension>
        </extensions>
      </trkpt>
      <trkpt lat="42.55934871733188629150390625" lon="20.07894233800470829010009765625">
        <ele>2236.800048828125</ele>
        <time>2026-06-19T12:08:51.000Z</time>
        <extensions>
          <ns3:TrackPointExtension>
            <ns3:atemp>19.0</ns3:atemp>
          </ns3:TrackPointExtension>
        </extensions>
      </trkpt>
      <trkpt lat="42.55934871733188629150390625" lon="20.07894233800470829010009765625">
        <ele>2236.800048828125</ele>
        <time>2026-06-19T12:08:52.000Z</time>
        <extensions>
          <ns3:TrackPointExtension>
            <ns3:atemp>19.0</ns3:atemp>
          </ns3:TrackPointExtension>
        </extensions>
      </trkpt>
      <trkpt lat="42.55934871733188629150390625" lon="20.07894233800470829010009765625">
        <ele>2236.800048828125</ele>
        <time>2026-06-19T12:08:53.000Z</time>
        <extensions>
          <ns3:TrackPointExtension>
            <ns3:atemp>19.0</ns3:atemp>
          </ns3:TrackPointExtension>
        </extensions>
      </trkpt>
      <trkpt lat="42.55934871733188629150390625" lon="20.07894233800470829010009765625">
        <ele>2236.800048828125</ele>
        <time>2026-06-19T12:08:54.000Z</time>
        <extensions>
          <ns3:TrackPointExtension>
            <ns3:atemp>19.0</ns3:atemp>
          </ns3:TrackPointExtension>
        </extensions>
      </trkpt>
      <trkpt lat="42.55934871733188629150390625" lon="20.07894233800470829010009765625">
        <ele>2236.800048828125</ele>
        <time>2026-06-19T12:08:55.000Z</time>
        <extensions>
          <ns3:TrackPointExtension>
            <ns3:atemp>19.0</ns3:atemp>
          </ns3:TrackPointExtension>
        </extensions>
      </trkpt>
      <trkpt lat="42.55934871733188629150390625" lon="20.07894233800470829010009765625">
        <ele>2236.800048828125</ele>
        <time>2026-06-19T12:08:56.000Z</time>
        <extensions>
          <ns3:TrackPointExtension>
            <ns3:atemp>19.0</ns3:atemp>
          </ns3:TrackPointExtension>
        </extensions>
      </trkpt>
      <trkpt lat="42.55934871733188629150390625" lon="20.07894233800470829010009765625">
        <ele>2236.800048828125</ele>
        <time>2026-06-19T12:08:57.000Z</time>
        <extensions>
          <ns3:TrackPointExtension>
            <ns3:atemp>19.0</ns3:atemp>
          </ns3:TrackPointExtension>
        </extensions>
      </trkpt>
      <trkpt lat="42.55934871733188629150390625" lon="20.07894233800470829010009765625">
        <ele>2236.800048828125</ele>
        <time>2026-06-19T12:08:58.000Z</time>
        <extensions>
          <ns3:TrackPointExtension>
            <ns3:atemp>19.0</ns3:atemp>
          </ns3:TrackPointExtension>
        </extensions>
      </trkpt>
      <trkpt lat="42.55934871733188629150390625" lon="20.07894233800470829010009765625">
        <ele>2236.800048828125</ele>
        <time>2026-06-19T12:08:59.000Z</time>
        <extensions>
          <ns3:TrackPointExtension>
            <ns3:atemp>19.0</ns3:atemp>
          </ns3:TrackPointExtension>
        </extensions>
      </trkpt>
      <trkpt lat="42.55934871733188629150390625" lon="20.07894233800470829010009765625">
        <ele>2236.800048828125</ele>
        <time>2026-06-19T12:09:00.000Z</time>
        <extensions>
          <ns3:TrackPointExtension>
            <ns3:atemp>19.0</ns3:atemp>
          </ns3:TrackPointExtension>
        </extensions>
      </trkpt>
      <trkpt lat="42.55934871733188629150390625" lon="20.07894233800470829010009765625">
        <ele>2236.800048828125</ele>
        <time>2026-06-19T12:09:01.000Z</time>
        <extensions>
          <ns3:TrackPointExtension>
            <ns3:atemp>19.0</ns3:atemp>
          </ns3:TrackPointExtension>
        </extensions>
      </trkpt>
      <trkpt lat="42.55934871733188629150390625" lon="20.07894233800470829010009765625">
        <ele>2236.800048828125</ele>
        <time>2026-06-19T12:09:02.000Z</time>
        <extensions>
          <ns3:TrackPointExtension>
            <ns3:atemp>19.0</ns3:atemp>
          </ns3:TrackPointExtension>
        </extensions>
      </trkpt>
      <trkpt lat="42.55934871733188629150390625" lon="20.07894233800470829010009765625">
        <ele>2236.800048828125</ele>
        <time>2026-06-19T12:09:03.000Z</time>
        <extensions>
          <ns3:TrackPointExtension>
            <ns3:atemp>19.0</ns3:atemp>
          </ns3:TrackPointExtension>
        </extensions>
      </trkpt>
      <trkpt lat="42.55934871733188629150390625" lon="20.07894233800470829010009765625">
        <ele>2236.800048828125</ele>
        <time>2026-06-19T12:09:04.000Z</time>
        <extensions>
          <ns3:TrackPointExtension>
            <ns3:atemp>19.0</ns3:atemp>
          </ns3:TrackPointExtension>
        </extensions>
      </trkpt>
      <trkpt lat="42.55934871733188629150390625" lon="20.07894233800470829010009765625">
        <ele>2236.800048828125</ele>
        <time>2026-06-19T12:09:05.000Z</time>
        <extensions>
          <ns3:TrackPointExtension>
            <ns3:atemp>19.0</ns3:atemp>
          </ns3:TrackPointExtension>
        </extensions>
      </trkpt>
      <trkpt lat="42.55934871733188629150390625" lon="20.07894233800470829010009765625">
        <ele>2236.800048828125</ele>
        <time>2026-06-19T12:09:06.000Z</time>
        <extensions>
          <ns3:TrackPointExtension>
            <ns3:atemp>19.0</ns3:atemp>
          </ns3:TrackPointExtension>
        </extensions>
      </trkpt>
      <trkpt lat="42.55934871733188629150390625" lon="20.07894233800470829010009765625">
        <ele>2236.800048828125</ele>
        <time>2026-06-19T12:09:07.000Z</time>
        <extensions>
          <ns3:TrackPointExtension>
            <ns3:atemp>19.0</ns3:atemp>
          </ns3:TrackPointExtension>
        </extensions>
      </trkpt>
      <trkpt lat="42.55934871733188629150390625" lon="20.07894233800470829010009765625">
        <ele>2236.800048828125</ele>
        <time>2026-06-19T12:09:08.000Z</time>
        <extensions>
          <ns3:TrackPointExtension>
            <ns3:atemp>19.0</ns3:atemp>
          </ns3:TrackPointExtension>
        </extensions>
      </trkpt>
      <trkpt lat="42.55934871733188629150390625" lon="20.07894233800470829010009765625">
        <ele>2236.800048828125</ele>
        <time>2026-06-19T12:09:09.000Z</time>
        <extensions>
          <ns3:TrackPointExtension>
            <ns3:atemp>19.0</ns3:atemp>
          </ns3:TrackPointExtension>
        </extensions>
      </trkpt>
      <trkpt lat="42.55934871733188629150390625" lon="20.07894233800470829010009765625">
        <ele>2236.800048828125</ele>
        <time>2026-06-19T12:09:10.000Z</time>
        <extensions>
          <ns3:TrackPointExtension>
            <ns3:atemp>19.0</ns3:atemp>
          </ns3:TrackPointExtension>
        </extensions>
      </trkpt>
      <trkpt lat="42.55934871733188629150390625" lon="20.07894233800470829010009765625">
        <ele>2236.800048828125</ele>
        <time>2026-06-19T12:09:11.000Z</time>
        <extensions>
          <ns3:TrackPointExtension>
            <ns3:atemp>19.0</ns3:atemp>
          </ns3:TrackPointExtension>
        </extensions>
      </trkpt>
      <trkpt lat="42.55934871733188629150390625" lon="20.07894233800470829010009765625">
        <ele>2236.800048828125</ele>
        <time>2026-06-19T12:09:12.000Z</time>
        <extensions>
          <ns3:TrackPointExtension>
            <ns3:atemp>19.0</ns3:atemp>
          </ns3:TrackPointExtension>
        </extensions>
      </trkpt>
      <trkpt lat="42.55934871733188629150390625" lon="20.07894233800470829010009765625">
        <ele>2236.800048828125</ele>
        <time>2026-06-19T12:09:13.000Z</time>
        <extensions>
          <ns3:TrackPointExtension>
            <ns3:atemp>19.0</ns3:atemp>
          </ns3:TrackPointExtension>
        </extensions>
      </trkpt>
      <trkpt lat="42.55934871733188629150390625" lon="20.07894233800470829010009765625">
        <ele>2236.800048828125</ele>
        <time>2026-06-19T12:09:14.000Z</time>
        <extensions>
          <ns3:TrackPointExtension>
            <ns3:atemp>19.0</ns3:atemp>
          </ns3:TrackPointExtension>
        </extensions>
      </trkpt>
      <trkpt lat="42.55934871733188629150390625" lon="20.07894233800470829010009765625">
        <ele>2236.800048828125</ele>
        <time>2026-06-19T12:09:15.000Z</time>
        <extensions>
          <ns3:TrackPointExtension>
            <ns3:atemp>19.0</ns3:atemp>
          </ns3:TrackPointExtension>
        </extensions>
      </trkpt>
      <trkpt lat="42.55934871733188629150390625" lon="20.07894233800470829010009765625">
        <ele>2236.800048828125</ele>
        <time>2026-06-19T12:09:16.000Z</time>
        <extensions>
          <ns3:TrackPointExtension>
            <ns3:atemp>19.0</ns3:atemp>
          </ns3:TrackPointExtension>
        </extensions>
      </trkpt>
      <trkpt lat="42.55934871733188629150390625" lon="20.07894233800470829010009765625">
        <ele>2236.800048828125</ele>
        <time>2026-06-19T12:09:17.000Z</time>
        <extensions>
          <ns3:TrackPointExtension>
            <ns3:atemp>19.0</ns3:atemp>
          </ns3:TrackPointExtension>
        </extensions>
      </trkpt>
      <trkpt lat="42.55934871733188629150390625" lon="20.07894233800470829010009765625">
        <ele>2236.800048828125</ele>
        <time>2026-06-19T12:09:18.000Z</time>
        <extensions>
          <ns3:TrackPointExtension>
            <ns3:atemp>19.0</ns3:atemp>
          </ns3:TrackPointExtension>
        </extensions>
      </trkpt>
      <trkpt lat="42.55934871733188629150390625" lon="20.07894233800470829010009765625">
        <ele>2236.800048828125</ele>
        <time>2026-06-19T12:09:19.000Z</time>
        <extensions>
          <ns3:TrackPointExtension>
            <ns3:atemp>19.0</ns3:atemp>
          </ns3:TrackPointExtension>
        </extensions>
      </trkpt>
      <trkpt lat="42.55934871733188629150390625" lon="20.07894233800470829010009765625">
        <ele>2236.800048828125</ele>
        <time>2026-06-19T12:09:20.000Z</time>
        <extensions>
          <ns3:TrackPointExtension>
            <ns3:atemp>19.0</ns3:atemp>
          </ns3:TrackPointExtension>
        </extensions>
      </trkpt>
      <trkpt lat="42.55934871733188629150390625" lon="20.07894233800470829010009765625">
        <ele>2236.800048828125</ele>
        <time>2026-06-19T12:09:21.000Z</time>
        <extensions>
          <ns3:TrackPointExtension>
            <ns3:atemp>19.0</ns3:atemp>
          </ns3:TrackPointExtension>
        </extensions>
      </trkpt>
      <trkpt lat="42.55934871733188629150390625" lon="20.07894233800470829010009765625">
        <ele>2236.800048828125</ele>
        <time>2026-06-19T12:09:22.000Z</time>
        <extensions>
          <ns3:TrackPointExtension>
            <ns3:atemp>19.0</ns3:atemp>
          </ns3:TrackPointExtension>
        </extensions>
      </trkpt>
      <trkpt lat="42.55934871733188629150390625" lon="20.07894233800470829010009765625">
        <ele>2236.800048828125</ele>
        <time>2026-06-19T12:09:23.000Z</time>
        <extensions>
          <ns3:TrackPointExtension>
            <ns3:atemp>19.0</ns3:atemp>
          </ns3:TrackPointExtension>
        </extensions>
      </trkpt>
      <trkpt lat="42.55934871733188629150390625" lon="20.07894233800470829010009765625">
        <ele>2236.800048828125</ele>
        <time>2026-06-19T12:09:24.000Z</time>
        <extensions>
          <ns3:TrackPointExtension>
            <ns3:atemp>19.0</ns3:atemp>
          </ns3:TrackPointExtension>
        </extensions>
      </trkpt>
      <trkpt lat="42.55934871733188629150390625" lon="20.07894233800470829010009765625">
        <ele>2236.800048828125</ele>
        <time>2026-06-19T12:09:25.000Z</time>
        <extensions>
          <ns3:TrackPointExtension>
            <ns3:atemp>19.0</ns3:atemp>
          </ns3:TrackPointExtension>
        </extensions>
      </trkpt>
      <trkpt lat="42.55934871733188629150390625" lon="20.07894233800470829010009765625">
        <ele>2236.800048828125</ele>
        <time>2026-06-19T12:09:26.000Z</time>
        <extensions>
          <ns3:TrackPointExtension>
            <ns3:atemp>19.0</ns3:atemp>
          </ns3:TrackPointExtension>
        </extensions>
      </trkpt>
      <trkpt lat="42.55934871733188629150390625" lon="20.07894233800470829010009765625">
        <ele>2236.800048828125</ele>
        <time>2026-06-19T12:09:27.000Z</time>
        <extensions>
          <ns3:TrackPointExtension>
            <ns3:atemp>19.0</ns3:atemp>
          </ns3:TrackPointExtension>
        </extensions>
      </trkpt>
      <trkpt lat="42.55934871733188629150390625" lon="20.07894233800470829010009765625">
        <ele>2236.800048828125</ele>
        <time>2026-06-19T12:09:28.000Z</time>
        <extensions>
          <ns3:TrackPointExtension>
            <ns3:atemp>19.0</ns3:atemp>
          </ns3:TrackPointExtension>
        </extensions>
      </trkpt>
      <trkpt lat="42.55934871733188629150390625" lon="20.07894233800470829010009765625">
        <ele>2236.800048828125</ele>
        <time>2026-06-19T12:09:29.000Z</time>
        <extensions>
          <ns3:TrackPointExtension>
            <ns3:atemp>19.0</ns3:atemp>
          </ns3:TrackPointExtension>
        </extensions>
      </trkpt>
      <trkpt lat="42.55934871733188629150390625" lon="20.07894233800470829010009765625">
        <ele>2236.800048828125</ele>
        <time>2026-06-19T12:09:30.000Z</time>
        <extensions>
          <ns3:TrackPointExtension>
            <ns3:atemp>19.0</ns3:atemp>
          </ns3:TrackPointExtension>
        </extensions>
      </trkpt>
      <trkpt lat="42.55934871733188629150390625" lon="20.07894233800470829010009765625">
        <ele>2236.800048828125</ele>
        <time>2026-06-19T12:09:31.000Z</time>
        <extensions>
          <ns3:TrackPointExtension>
            <ns3:atemp>19.0</ns3:atemp>
          </ns3:TrackPointExtension>
        </extensions>
      </trkpt>
      <trkpt lat="42.55934871733188629150390625" lon="20.07894233800470829010009765625">
        <ele>2236.800048828125</ele>
        <time>2026-06-19T12:09:32.000Z</time>
        <extensions>
          <ns3:TrackPointExtension>
            <ns3:atemp>19.0</ns3:atemp>
          </ns3:TrackPointExtension>
        </extensions>
      </trkpt>
      <trkpt lat="42.55934871733188629150390625" lon="20.07894233800470829010009765625">
        <ele>2236.800048828125</ele>
        <time>2026-06-19T12:09:33.000Z</time>
        <extensions>
          <ns3:TrackPointExtension>
            <ns3:atemp>19.0</ns3:atemp>
          </ns3:TrackPointExtension>
        </extensions>
      </trkpt>
      <trkpt lat="42.55934871733188629150390625" lon="20.07894233800470829010009765625">
        <ele>2236.800048828125</ele>
        <time>2026-06-19T12:09:34.000Z</time>
        <extensions>
          <ns3:TrackPointExtension>
            <ns3:atemp>19.0</ns3:atemp>
          </ns3:TrackPointExtension>
        </extensions>
      </trkpt>
      <trkpt lat="42.55934871733188629150390625" lon="20.07894233800470829010009765625">
        <ele>2236.800048828125</ele>
        <time>2026-06-19T12:09:35.000Z</time>
        <extensions>
          <ns3:TrackPointExtension>
            <ns3:atemp>19.0</ns3:atemp>
          </ns3:TrackPointExtension>
        </extensions>
      </trkpt>
      <trkpt lat="42.55934871733188629150390625" lon="20.07894233800470829010009765625">
        <ele>2236.800048828125</ele>
        <time>2026-06-19T12:09:36.000Z</time>
        <extensions>
          <ns3:TrackPointExtension>
            <ns3:atemp>19.0</ns3:atemp>
          </ns3:TrackPointExtension>
        </extensions>
      </trkpt>
      <trkpt lat="42.55934871733188629150390625" lon="20.07894233800470829010009765625">
        <ele>2236.800048828125</ele>
        <time>2026-06-19T12:09:37.000Z</time>
        <extensions>
          <ns3:TrackPointExtension>
            <ns3:atemp>19.0</ns3:atemp>
          </ns3:TrackPointExtension>
        </extensions>
      </trkpt>
      <trkpt lat="42.55934871733188629150390625" lon="20.07894233800470829010009765625">
        <ele>2236.800048828125</ele>
        <time>2026-06-19T12:09:38.000Z</time>
        <extensions>
          <ns3:TrackPointExtension>
            <ns3:atemp>19.0</ns3:atemp>
          </ns3:TrackPointExtension>
        </extensions>
      </trkpt>
      <trkpt lat="42.55934871733188629150390625" lon="20.07894233800470829010009765625">
        <ele>2236.800048828125</ele>
        <time>2026-06-19T12:09:39.000Z</time>
        <extensions>
          <ns3:TrackPointExtension>
            <ns3:atemp>19.0</ns3:atemp>
          </ns3:TrackPointExtension>
        </extensions>
      </trkpt>
      <trkpt lat="42.55934871733188629150390625" lon="20.07894233800470829010009765625">
        <ele>2236.800048828125</ele>
        <time>2026-06-19T12:09:40.000Z</time>
        <extensions>
          <ns3:TrackPointExtension>
            <ns3:atemp>19.0</ns3:atemp>
          </ns3:TrackPointExtension>
        </extensions>
      </trkpt>
      <trkpt lat="42.55934871733188629150390625" lon="20.07894233800470829010009765625">
        <ele>2236.800048828125</ele>
        <time>2026-06-19T12:09:41.000Z</time>
        <extensions>
          <ns3:TrackPointExtension>
            <ns3:atemp>19.0</ns3:atemp>
          </ns3:TrackPointExtension>
        </extensions>
      </trkpt>
      <trkpt lat="42.55934871733188629150390625" lon="20.07894233800470829010009765625">
        <ele>2236.800048828125</ele>
        <time>2026-06-19T12:09:42.000Z</time>
        <extensions>
          <ns3:TrackPointExtension>
            <ns3:atemp>19.0</ns3:atemp>
          </ns3:TrackPointExtension>
        </extensions>
      </trkpt>
      <trkpt lat="42.55934871733188629150390625" lon="20.07894233800470829010009765625">
        <ele>2236.800048828125</ele>
        <time>2026-06-19T12:09:43.000Z</time>
        <extensions>
          <ns3:TrackPointExtension>
            <ns3:atemp>19.0</ns3:atemp>
          </ns3:TrackPointExtension>
        </extensions>
      </trkpt>
      <trkpt lat="42.55934871733188629150390625" lon="20.07894233800470829010009765625">
        <ele>2236.800048828125</ele>
        <time>2026-06-19T12:09:44.000Z</time>
        <extensions>
          <ns3:TrackPointExtension>
            <ns3:atemp>19.0</ns3:atemp>
          </ns3:TrackPointExtension>
        </extensions>
      </trkpt>
      <trkpt lat="42.55934678949415683746337890625" lon="20.07893621921539306640625">
        <ele>2236.800048828125</ele>
        <time>2026-06-19T12:09:45.000Z</time>
        <extensions>
          <ns3:TrackPointExtension>
            <ns3:atemp>19.0</ns3:atemp>
          </ns3:TrackPointExtension>
        </extensions>
      </trkpt>
      <trkpt lat="42.55934201180934906005859375" lon="20.0789642147719860076904296875">
        <ele>2236.800048828125</ele>
        <time>2026-06-19T12:09:46.000Z</time>
        <extensions>
          <ns3:TrackPointExtension>
            <ns3:atemp>19.0</ns3:atemp>
          </ns3:TrackPointExtension>
        </extensions>
      </trkpt>
      <trkpt lat="42.559335641562938690185546875" lon="20.0789789669215679168701171875">
        <ele>2237</ele>
        <time>2026-06-19T12:09:47.000Z</time>
        <extensions>
          <ns3:TrackPointExtension>
            <ns3:atemp>19.0</ns3:atemp>
          </ns3:TrackPointExtension>
        </extensions>
      </trkpt>
      <trkpt lat="42.55933371372520923614501953125" lon="20.07898307405412197113037109375">
        <ele>2236.800048828125</ele>
        <time>2026-06-19T12:09:48.000Z</time>
        <extensions>
          <ns3:TrackPointExtension>
            <ns3:atemp>19.0</ns3:atemp>
          </ns3:TrackPointExtension>
        </extensions>
      </trkpt>
      <trkpt lat="42.55933371372520923614501953125" lon="20.07898307405412197113037109375">
        <ele>2236.800048828125</ele>
        <time>2026-06-19T12:09:49.000Z</time>
        <extensions>
          <ns3:TrackPointExtension>
            <ns3:atemp>19.0</ns3:atemp>
          </ns3:TrackPointExtension>
        </extensions>
      </trkpt>
      <trkpt lat="42.55933371372520923614501953125" lon="20.07898307405412197113037109375">
        <ele>2236.800048828125</ele>
        <time>2026-06-19T12:09:50.000Z</time>
        <extensions>
          <ns3:TrackPointExtension>
            <ns3:atemp>19.0</ns3:atemp>
          </ns3:TrackPointExtension>
        </extensions>
      </trkpt>
      <trkpt lat="42.55933371372520923614501953125" lon="20.07898307405412197113037109375">
        <ele>2236.800048828125</ele>
        <time>2026-06-19T12:09:51.000Z</time>
        <extensions>
          <ns3:TrackPointExtension>
            <ns3:atemp>19.0</ns3:atemp>
          </ns3:TrackPointExtension>
        </extensions>
      </trkpt>
      <trkpt lat="42.55933371372520923614501953125" lon="20.07898307405412197113037109375">
        <ele>2236.800048828125</ele>
        <time>2026-06-19T12:09:52.000Z</time>
        <extensions>
          <ns3:TrackPointExtension>
            <ns3:atemp>19.0</ns3:atemp>
          </ns3:TrackPointExtension>
        </extensions>
      </trkpt>
      <trkpt lat="42.55933371372520923614501953125" lon="20.07898307405412197113037109375">
        <ele>2236.800048828125</ele>
        <time>2026-06-19T12:09:53.000Z</time>
        <extensions>
          <ns3:TrackPointExtension>
            <ns3:atemp>19.0</ns3:atemp>
          </ns3:TrackPointExtension>
        </extensions>
      </trkpt>
      <trkpt lat="42.55933371372520923614501953125" lon="20.07898307405412197113037109375">
        <ele>2236.800048828125</ele>
        <time>2026-06-19T12:09:54.000Z</time>
        <extensions>
          <ns3:TrackPointExtension>
            <ns3:atemp>19.0</ns3:atemp>
          </ns3:TrackPointExtension>
        </extensions>
      </trkpt>
      <trkpt lat="42.55933371372520923614501953125" lon="20.07898307405412197113037109375">
        <ele>2236.800048828125</ele>
        <time>2026-06-19T12:09:55.000Z</time>
        <extensions>
          <ns3:TrackPointExtension>
            <ns3:atemp>19.0</ns3:atemp>
          </ns3:TrackPointExtension>
        </extensions>
      </trkpt>
      <trkpt lat="42.55933371372520923614501953125" lon="20.07898307405412197113037109375">
        <ele>2236.800048828125</ele>
        <time>2026-06-19T12:09:56.000Z</time>
        <extensions>
          <ns3:TrackPointExtension>
            <ns3:atemp>19.0</ns3:atemp>
          </ns3:TrackPointExtension>
        </extensions>
      </trkpt>
      <trkpt lat="42.55933371372520923614501953125" lon="20.07898307405412197113037109375">
        <ele>2236.60009765625</ele>
        <time>2026-06-19T12:09:57.000Z</time>
        <extensions>
          <ns3:TrackPointExtension>
            <ns3:atemp>19.0</ns3:atemp>
          </ns3:TrackPointExtension>
        </extensions>
      </trkpt>
      <trkpt lat="42.55933371372520923614501953125" lon="20.07898307405412197113037109375">
        <ele>2236.60009765625</ele>
        <time>2026-06-19T12:09:58.000Z</time>
        <extensions>
          <ns3:TrackPointExtension>
            <ns3:atemp>19.0</ns3:atemp>
          </ns3:TrackPointExtension>
        </extensions>
      </trkpt>
      <trkpt lat="42.55933371372520923614501953125" lon="20.07898307405412197113037109375">
        <ele>2236.60009765625</ele>
        <time>2026-06-19T12:09:59.000Z</time>
        <extensions>
          <ns3:TrackPointExtension>
            <ns3:atemp>19.0</ns3:atemp>
          </ns3:TrackPointExtension>
        </extensions>
      </trkpt>
      <trkpt lat="42.55933371372520923614501953125" lon="20.07898307405412197113037109375">
        <ele>2236.60009765625</ele>
        <time>2026-06-19T12:10:00.000Z</time>
        <extensions>
          <ns3:TrackPointExtension>
            <ns3:atemp>19.0</ns3:atemp>
          </ns3:TrackPointExtension>
        </extensions>
      </trkpt>
      <trkpt lat="42.55933371372520923614501953125" lon="20.07898307405412197113037109375">
        <ele>2236.60009765625</ele>
        <time>2026-06-19T12:10:01.000Z</time>
        <extensions>
          <ns3:TrackPointExtension>
            <ns3:atemp>19.0</ns3:atemp>
          </ns3:TrackPointExtension>
        </extensions>
      </trkpt>
      <trkpt lat="42.55933371372520923614501953125" lon="20.07898307405412197113037109375">
        <ele>2236.39990234375</ele>
        <time>2026-06-19T12:10:02.000Z</time>
        <extensions>
          <ns3:TrackPointExtension>
            <ns3:atemp>19.0</ns3:atemp>
          </ns3:TrackPointExtension>
        </extensions>
      </trkpt>
      <trkpt lat="42.55933371372520923614501953125" lon="20.07898307405412197113037109375">
        <ele>2236.39990234375</ele>
        <time>2026-06-19T12:10:03.000Z</time>
        <extensions>
          <ns3:TrackPointExtension>
            <ns3:atemp>19.0</ns3:atemp>
          </ns3:TrackPointExtension>
        </extensions>
      </trkpt>
      <trkpt lat="42.55933371372520923614501953125" lon="20.07898307405412197113037109375">
        <ele>2236.199951171875</ele>
        <time>2026-06-19T12:10:04.000Z</time>
        <extensions>
          <ns3:TrackPointExtension>
            <ns3:atemp>19.0</ns3:atemp>
          </ns3:TrackPointExtension>
        </extensions>
      </trkpt>
      <trkpt lat="42.55933371372520923614501953125" lon="20.07898307405412197113037109375">
        <ele>2236.199951171875</ele>
        <time>2026-06-19T12:10:05.000Z</time>
        <extensions>
          <ns3:TrackPointExtension>
            <ns3:atemp>19.0</ns3:atemp>
          </ns3:TrackPointExtension>
        </extensions>
      </trkpt>
      <trkpt lat="42.55933371372520923614501953125" lon="20.07898307405412197113037109375">
        <ele>2236.199951171875</ele>
        <time>2026-06-19T12:10:06.000Z</time>
        <extensions>
          <ns3:TrackPointExtension>
            <ns3:atemp>19.0</ns3:atemp>
          </ns3:TrackPointExtension>
        </extensions>
      </trkpt>
      <trkpt lat="42.55933371372520923614501953125" lon="20.07898307405412197113037109375">
        <ele>2236.199951171875</ele>
        <time>2026-06-19T12:10:07.000Z</time>
        <extensions>
          <ns3:TrackPointExtension>
            <ns3:atemp>19.0</ns3:atemp>
          </ns3:TrackPointExtension>
        </extensions>
      </trkpt>
      <trkpt lat="42.55933371372520923614501953125" lon="20.07898307405412197113037109375">
        <ele>2236.199951171875</ele>
        <time>2026-06-19T12:10:08.000Z</time>
        <extensions>
          <ns3:TrackPointExtension>
            <ns3:atemp>19.0</ns3:atemp>
          </ns3:TrackPointExtension>
        </extensions>
      </trkpt>
      <trkpt lat="42.55933371372520923614501953125" lon="20.07898307405412197113037109375">
        <ele>2236.199951171875</ele>
        <time>2026-06-19T12:10:09.000Z</time>
        <extensions>
          <ns3:TrackPointExtension>
            <ns3:atemp>18.0</ns3:atemp>
          </ns3:TrackPointExtension>
        </extensions>
      </trkpt>
      <trkpt lat="42.55933371372520923614501953125" lon="20.07898307405412197113037109375">
        <ele>2236.199951171875</ele>
        <time>2026-06-19T12:10:10.000Z</time>
        <extensions>
          <ns3:TrackPointExtension>
            <ns3:atemp>18.0</ns3:atemp>
          </ns3:TrackPointExtension>
        </extensions>
      </trkpt>
      <trkpt lat="42.55933371372520923614501953125" lon="20.07898307405412197113037109375">
        <ele>2236.199951171875</ele>
        <time>2026-06-19T12:10:11.000Z</time>
        <extensions>
          <ns3:TrackPointExtension>
            <ns3:atemp>18.0</ns3:atemp>
          </ns3:TrackPointExtension>
        </extensions>
      </trkpt>
      <trkpt lat="42.55933371372520923614501953125" lon="20.07898307405412197113037109375">
        <ele>2236.199951171875</ele>
        <time>2026-06-19T12:10:12.000Z</time>
        <extensions>
          <ns3:TrackPointExtension>
            <ns3:atemp>18.0</ns3:atemp>
          </ns3:TrackPointExtension>
        </extensions>
      </trkpt>
      <trkpt lat="42.55933371372520923614501953125" lon="20.07898307405412197113037109375">
        <ele>2236.199951171875</ele>
        <time>2026-06-19T12:10:13.000Z</time>
        <extensions>
          <ns3:TrackPointExtension>
            <ns3:atemp>19.0</ns3:atemp>
          </ns3:TrackPointExtension>
        </extensions>
      </trkpt>
      <trkpt lat="42.55933371372520923614501953125" lon="20.07898307405412197113037109375">
        <ele>2236.199951171875</ele>
        <time>2026-06-19T12:10:14.000Z</time>
        <extensions>
          <ns3:TrackPointExtension>
            <ns3:atemp>19.0</ns3:atemp>
          </ns3:TrackPointExtension>
        </extensions>
      </trkpt>
      <trkpt lat="42.55933371372520923614501953125" lon="20.07898307405412197113037109375">
        <ele>2236.39990234375</ele>
        <time>2026-06-19T12:10:15.000Z</time>
        <extensions>
          <ns3:TrackPointExtension>
            <ns3:atemp>19.0</ns3:atemp>
          </ns3:TrackPointExtension>
        </extensions>
      </trkpt>
      <trkpt lat="42.55933371372520923614501953125" lon="20.07898307405412197113037109375">
        <ele>2236.39990234375</ele>
        <time>2026-06-19T12:10:16.000Z</time>
        <extensions>
          <ns3:TrackPointExtension>
            <ns3:atemp>19.0</ns3:atemp>
          </ns3:TrackPointExtension>
        </extensions>
      </trkpt>
      <trkpt lat="42.55933371372520923614501953125" lon="20.07898307405412197113037109375">
        <ele>2236.39990234375</ele>
        <time>2026-06-19T12:10:17.000Z</time>
        <extensions>
          <ns3:TrackPointExtension>
            <ns3:atemp>19.0</ns3:atemp>
          </ns3:TrackPointExtension>
        </extensions>
      </trkpt>
      <trkpt lat="42.559333629906177520751953125" lon="20.0789863429963588714599609375">
        <ele>2236.39990234375</ele>
        <time>2026-06-19T12:10:18.000Z</time>
        <extensions>
          <ns3:TrackPointExtension>
            <ns3:atemp>18.0</ns3:atemp>
          </ns3:TrackPointExtension>
        </extensions>
      </trkpt>
      <trkpt lat="42.55932860076427459716796875" lon="20.0790041126310825347900390625">
        <ele>2236.199951171875</ele>
        <time>2026-06-19T12:10:19.000Z</time>
        <extensions>
          <ns3:TrackPointExtension>
            <ns3:atemp>18.0</ns3:atemp>
          </ns3:TrackPointExtension>
        </extensions>
      </trkpt>
      <trkpt lat="42.5593279302120208740234375" lon="20.07900352589786052703857421875">
        <ele>2236.199951171875</ele>
        <time>2026-06-19T12:10:20.000Z</time>
        <extensions>
          <ns3:TrackPointExtension>
            <ns3:atemp>18.0</ns3:atemp>
          </ns3:TrackPointExtension>
        </extensions>
      </trkpt>
      <trkpt lat="42.5593279302120208740234375" lon="20.07900352589786052703857421875">
        <ele>2236</ele>
        <time>2026-06-19T12:10:21.000Z</time>
        <extensions>
          <ns3:TrackPointExtension>
            <ns3:atemp>18.0</ns3:atemp>
          </ns3:TrackPointExtension>
        </extensions>
      </trkpt>
      <trkpt lat="42.5593279302120208740234375" lon="20.07900352589786052703857421875">
        <ele>2236</ele>
        <time>2026-06-19T12:10:22.000Z</time>
        <extensions>
          <ns3:TrackPointExtension>
            <ns3:atemp>18.0</ns3:atemp>
          </ns3:TrackPointExtension>
        </extensions>
      </trkpt>
      <trkpt lat="42.5593279302120208740234375" lon="20.07900352589786052703857421875">
        <ele>2236</ele>
        <time>2026-06-19T12:10:23.000Z</time>
        <extensions>
          <ns3:TrackPointExtension>
            <ns3:atemp>18.0</ns3:atemp>
          </ns3:TrackPointExtension>
        </extensions>
      </trkpt>
      <trkpt lat="42.5593279302120208740234375" lon="20.07900352589786052703857421875">
        <ele>2236</ele>
        <time>2026-06-19T12:10:24.000Z</time>
        <extensions>
          <ns3:TrackPointExtension>
            <ns3:atemp>18.0</ns3:atemp>
          </ns3:TrackPointExtension>
        </extensions>
      </trkpt>
      <trkpt lat="42.5593279302120208740234375" lon="20.07900352589786052703857421875">
        <ele>2236.199951171875</ele>
        <time>2026-06-19T12:10:25.000Z</time>
        <extensions>
          <ns3:TrackPointExtension>
            <ns3:atemp>18.0</ns3:atemp>
          </ns3:TrackPointExtension>
        </extensions>
      </trkpt>
      <trkpt lat="42.5593279302120208740234375" lon="20.07900352589786052703857421875">
        <ele>2236.199951171875</ele>
        <time>2026-06-19T12:10:26.000Z</time>
        <extensions>
          <ns3:TrackPointExtension>
            <ns3:atemp>18.0</ns3:atemp>
          </ns3:TrackPointExtension>
        </extensions>
      </trkpt>
      <trkpt lat="42.5593279302120208740234375" lon="20.07900352589786052703857421875">
        <ele>2236</ele>
        <time>2026-06-19T12:10:27.000Z</time>
        <extensions>
          <ns3:TrackPointExtension>
            <ns3:atemp>18.0</ns3:atemp>
          </ns3:TrackPointExtension>
        </extensions>
      </trkpt>
      <trkpt lat="42.5593279302120208740234375" lon="20.07900352589786052703857421875">
        <ele>2236</ele>
        <time>2026-06-19T12:10:28.000Z</time>
        <extensions>
          <ns3:TrackPointExtension>
            <ns3:atemp>18.0</ns3:atemp>
          </ns3:TrackPointExtension>
        </extensions>
      </trkpt>
      <trkpt lat="42.5593279302120208740234375" lon="20.07900352589786052703857421875">
        <ele>2236</ele>
        <time>2026-06-19T12:10:29.000Z</time>
        <extensions>
          <ns3:TrackPointExtension>
            <ns3:atemp>18.0</ns3:atemp>
          </ns3:TrackPointExtension>
        </extensions>
      </trkpt>
      <trkpt lat="42.5593279302120208740234375" lon="20.07900352589786052703857421875">
        <ele>2235.800048828125</ele>
        <time>2026-06-19T12:10:30.000Z</time>
        <extensions>
          <ns3:TrackPointExtension>
            <ns3:atemp>18.0</ns3:atemp>
          </ns3:TrackPointExtension>
        </extensions>
      </trkpt>
      <trkpt lat="42.5593279302120208740234375" lon="20.07900352589786052703857421875">
        <ele>2235.800048828125</ele>
        <time>2026-06-19T12:10:31.000Z</time>
        <extensions>
          <ns3:TrackPointExtension>
            <ns3:atemp>18.0</ns3:atemp>
          </ns3:TrackPointExtension>
        </extensions>
      </trkpt>
      <trkpt lat="42.5593279302120208740234375" lon="20.07900352589786052703857421875">
        <ele>2235.800048828125</ele>
        <time>2026-06-19T12:10:32.000Z</time>
        <extensions>
          <ns3:TrackPointExtension>
            <ns3:atemp>18.0</ns3:atemp>
          </ns3:TrackPointExtension>
        </extensions>
      </trkpt>
      <trkpt lat="42.55932767875492572784423828125" lon="20.07900436408817768096923828125">
        <ele>2235.800048828125</ele>
        <time>2026-06-19T12:10:33.000Z</time>
        <extensions>
          <ns3:TrackPointExtension>
            <ns3:atemp>18.0</ns3:atemp>
          </ns3:TrackPointExtension>
        </extensions>
      </trkpt>
      <trkpt lat="42.5593279302120208740234375" lon="20.07900352589786052703857421875">
        <ele>2235.800048828125</ele>
        <time>2026-06-19T12:10:34.000Z</time>
        <extensions>
          <ns3:TrackPointExtension>
            <ns3:atemp>18.0</ns3:atemp>
          </ns3:TrackPointExtension>
        </extensions>
      </trkpt>
      <trkpt lat="42.5593279302120208740234375" lon="20.07900352589786052703857421875">
        <ele>2235.800048828125</ele>
        <time>2026-06-19T12:10:35.000Z</time>
        <extensions>
          <ns3:TrackPointExtension>
            <ns3:atemp>18.0</ns3:atemp>
          </ns3:TrackPointExtension>
        </extensions>
      </trkpt>
      <trkpt lat="42.559326589107513427734375" lon="20.0790111534297466278076171875">
        <ele>2235.800048828125</ele>
        <time>2026-06-19T12:10:36.000Z</time>
        <extensions>
          <ns3:TrackPointExtension>
            <ns3:atemp>18.0</ns3:atemp>
          </ns3:TrackPointExtension>
        </extensions>
      </trkpt>
      <trkpt lat="42.559332959353923797607421875" lon="20.0790366344153881072998046875">
        <ele>2235.800048828125</ele>
        <time>2026-06-19T12:10:37.000Z</time>
        <extensions>
          <ns3:TrackPointExtension>
            <ns3:atemp>18.0</ns3:atemp>
          </ns3:TrackPointExtension>
        </extensions>
      </trkpt>
      <trkpt lat="42.55934326909482479095458984375" lon="20.079051554203033447265625">
        <ele>2235.800048828125</ele>
        <time>2026-06-19T12:10:38.000Z</time>
        <extensions>
          <ns3:TrackPointExtension>
            <ns3:atemp>18.0</ns3:atemp>
          </ns3:TrackPointExtension>
        </extensions>
      </trkpt>
      <trkpt lat="42.559355758130550384521484375" lon="20.079074688255786895751953125">
        <ele>2235.60009765625</ele>
        <time>2026-06-19T12:10:39.000Z</time>
        <extensions>
          <ns3:TrackPointExtension>
            <ns3:atemp>18.0</ns3:atemp>
          </ns3:TrackPointExtension>
        </extensions>
      </trkpt>
      <trkpt lat="42.55936455912888050079345703125" lon="20.079094804823398590087890625">
        <ele>2235.39990234375</ele>
        <time>2026-06-19T12:10:40.000Z</time>
        <extensions>
          <ns3:TrackPointExtension>
            <ns3:atemp>18.0</ns3:atemp>
          </ns3:TrackPointExtension>
        </extensions>
      </trkpt>
      <trkpt lat="42.559374868869781494140625" lon="20.07910595275461673736572265625">
        <ele>2235</ele>
        <time>2026-06-19T12:10:41.000Z</time>
        <extensions>
          <ns3:TrackPointExtension>
            <ns3:atemp>18.0</ns3:atemp>
          </ns3:TrackPointExtension>
        </extensions>
      </trkpt>
      <trkpt lat="42.5593787245452404022216796875" lon="20.0791030190885066986083984375">
        <ele>2234.60009765625</ele>
        <time>2026-06-19T12:10:42.000Z</time>
        <extensions>
          <ns3:TrackPointExtension>
            <ns3:atemp>18.0</ns3:atemp>
          </ns3:TrackPointExtension>
        </extensions>
      </trkpt>
      <trkpt lat="42.55938719026744365692138671875" lon="20.0791050307452678680419921875">
        <ele>2234.39990234375</ele>
        <time>2026-06-19T12:10:43.000Z</time>
        <extensions>
          <ns3:TrackPointExtension>
            <ns3:atemp>18.0</ns3:atemp>
          </ns3:TrackPointExtension>
        </extensions>
      </trkpt>
      <trkpt lat="42.5593901239335536956787109375" lon="20.07911047898232936859130859375">
        <ele>2234</ele>
        <time>2026-06-19T12:10:44.000Z</time>
        <extensions>
          <ns3:TrackPointExtension>
            <ns3:atemp>18.0</ns3:atemp>
          </ns3:TrackPointExtension>
        </extensions>
      </trkpt>
      <trkpt lat="42.55939674563705921173095703125" lon="20.0791167654097080230712890625">
        <ele>2233.39990234375</ele>
        <time>2026-06-19T12:10:45.000Z</time>
        <extensions>
          <ns3:TrackPointExtension>
            <ns3:atemp>18.0</ns3:atemp>
          </ns3:TrackPointExtension>
        </extensions>
      </trkpt>
      <trkpt lat="42.5594015233218669891357421875" lon="20.07912657223641872406005859375">
        <ele>2233.199951171875</ele>
        <time>2026-06-19T12:10:46.000Z</time>
        <extensions>
          <ns3:TrackPointExtension>
            <ns3:atemp>18.0</ns3:atemp>
          </ns3:TrackPointExtension>
        </extensions>
      </trkpt>
      <trkpt lat="42.55940646864473819732666015625" lon="20.079123973846435546875">
        <ele>2232.800048828125</ele>
        <time>2026-06-19T12:10:47.000Z</time>
        <extensions>
          <ns3:TrackPointExtension>
            <ns3:atemp>18.0</ns3:atemp>
          </ns3:TrackPointExtension>
        </extensions>
      </trkpt>
      <trkpt lat="42.55940646864473819732666015625" lon="20.079123973846435546875">
        <ele>2232.39990234375</ele>
        <time>2026-06-19T12:10:48.000Z</time>
        <extensions>
          <ns3:TrackPointExtension>
            <ns3:atemp>18.0</ns3:atemp>
          </ns3:TrackPointExtension>
        </extensions>
      </trkpt>
      <trkpt lat="42.55940630100667476654052734375" lon="20.0791331939399242401123046875">
        <ele>2232</ele>
        <time>2026-06-19T12:10:49.000Z</time>
        <extensions>
          <ns3:TrackPointExtension>
            <ns3:atemp>18.0</ns3:atemp>
          </ns3:TrackPointExtension>
        </extensions>
      </trkpt>
      <trkpt lat="42.55939037539064884185791015625" lon="20.07914207875728607177734375">
        <ele>2231.60009765625</ele>
        <time>2026-06-19T12:10:50.000Z</time>
        <extensions>
          <ns3:TrackPointExtension>
            <ns3:atemp>18.0</ns3:atemp>
          </ns3:TrackPointExtension>
        </extensions>
      </trkpt>
      <trkpt lat="42.55936883389949798583984375" lon="20.079149119555950164794921875">
        <ele>2231.199951171875</ele>
        <time>2026-06-19T12:10:51.000Z</time>
        <extensions>
          <ns3:TrackPointExtension>
            <ns3:atemp>18.0</ns3:atemp>
          </ns3:TrackPointExtension>
        </extensions>
      </trkpt>
      <trkpt lat="42.55934871733188629150390625" lon="20.079148113727569580078125">
        <ele>2230.800048828125</ele>
        <time>2026-06-19T12:10:52.000Z</time>
        <extensions>
          <ns3:TrackPointExtension>
            <ns3:atemp>18.0</ns3:atemp>
          </ns3:TrackPointExtension>
        </extensions>
      </trkpt>
      <trkpt lat="42.559320889413356781005859375" lon="20.07915004156529903411865234375">
        <ele>2230.39990234375</ele>
        <time>2026-06-19T12:10:53.000Z</time>
        <extensions>
          <ns3:TrackPointExtension>
            <ns3:atemp>18.0</ns3:atemp>
          </ns3:TrackPointExtension>
        </extensions>
      </trkpt>
      <trkpt lat="42.5592930614948272705078125" lon="20.0791660510003566741943359375">
        <ele>2230</ele>
        <time>2026-06-19T12:10:54.000Z</time>
        <extensions>
          <ns3:TrackPointExtension>
            <ns3:atemp>18.0</ns3:atemp>
          </ns3:TrackPointExtension>
        </extensions>
      </trkpt>
      <trkpt lat="42.55927118472754955291748046875" lon="20.0791811384260654449462890625">
        <ele>2229.39990234375</ele>
        <time>2026-06-19T12:10:55.000Z</time>
        <extensions>
          <ns3:TrackPointExtension>
            <ns3:atemp>18.0</ns3:atemp>
          </ns3:TrackPointExtension>
        </extensions>
      </trkpt>
      <trkpt lat="42.55924670957028865814208984375" lon="20.07919480092823505401611328125">
        <ele>2229</ele>
        <time>2026-06-19T12:10:56.000Z</time>
        <extensions>
          <ns3:TrackPointExtension>
            <ns3:atemp>18.0</ns3:atemp>
          </ns3:TrackPointExtension>
        </extensions>
      </trkpt>
      <trkpt lat="42.5592152774333953857421875" lon="20.07921558804810047149658203125">
        <ele>2228.199951171875</ele>
        <time>2026-06-19T12:10:57.000Z</time>
        <extensions>
          <ns3:TrackPointExtension>
            <ns3:atemp>18.0</ns3:atemp>
          </ns3:TrackPointExtension>
        </extensions>
      </trkpt>
      <trkpt lat="42.5591849349439144134521484375" lon="20.07924023084342479705810546875">
        <ele>2227.39990234375</ele>
        <time>2026-06-19T12:10:58.000Z</time>
        <extensions>
          <ns3:TrackPointExtension>
            <ns3:atemp>18.0</ns3:atemp>
          </ns3:TrackPointExtension>
        </extensions>
      </trkpt>
      <trkpt lat="42.559158615767955780029296875" lon="20.07926051504909992218017578125">
        <ele>2226.60009765625</ele>
        <time>2026-06-19T12:10:59.000Z</time>
        <extensions>
          <ns3:TrackPointExtension>
            <ns3:atemp>18.0</ns3:atemp>
          </ns3:TrackPointExtension>
        </extensions>
      </trkpt>
      <trkpt lat="42.55913338623940944671630859375" lon="20.0792830623686313629150390625">
        <ele>2226</ele>
        <time>2026-06-19T12:11:00.000Z</time>
        <extensions>
          <ns3:TrackPointExtension>
            <ns3:atemp>18.0</ns3:atemp>
          </ns3:TrackPointExtension>
        </extensions>
      </trkpt>
      <trkpt lat="42.55910589359700679779052734375" lon="20.0793045200407505035400390625">
        <ele>2225.199951171875</ele>
        <time>2026-06-19T12:11:01.000Z</time>
        <extensions>
          <ns3:TrackPointExtension>
            <ns3:atemp>18.0</ns3:atemp>
          </ns3:TrackPointExtension>
        </extensions>
      </trkpt>
      <trkpt lat="42.559075467288494110107421875" lon="20.079329498112201690673828125">
        <ele>2224.39990234375</ele>
        <time>2026-06-19T12:11:02.000Z</time>
        <extensions>
          <ns3:TrackPointExtension>
            <ns3:atemp>18.0</ns3:atemp>
          </ns3:TrackPointExtension>
        </extensions>
      </trkpt>
      <trkpt lat="42.55905023775994777679443359375" lon="20.07935690693557262420654296875">
        <ele>2223.60009765625</ele>
        <time>2026-06-19T12:11:03.000Z</time>
        <extensions>
          <ns3:TrackPointExtension>
            <ns3:atemp>18.0</ns3:atemp>
          </ns3:TrackPointExtension>
        </extensions>
      </trkpt>
      <trkpt lat="42.55903313867747783660888671875" lon="20.0793776102364063262939453125">
        <ele>2223</ele>
        <time>2026-06-19T12:11:04.000Z</time>
        <extensions>
          <ns3:TrackPointExtension>
            <ns3:atemp>18.0</ns3:atemp>
          </ns3:TrackPointExtension>
        </extensions>
      </trkpt>
      <trkpt lat="42.5590213201940059661865234375" lon="20.0793881714344024658203125">
        <ele>2222.39990234375</ele>
        <time>2026-06-19T12:11:05.000Z</time>
        <extensions>
          <ns3:TrackPointExtension>
            <ns3:atemp>18.0</ns3:atemp>
          </ns3:TrackPointExtension>
        </extensions>
      </trkpt>
      <trkpt lat="42.5590162910521030426025390625" lon="20.0793849863111972808837890625">
        <ele>2221.800048828125</ele>
        <time>2026-06-19T12:11:06.000Z</time>
        <extensions>
          <ns3:TrackPointExtension>
            <ns3:atemp>18.0</ns3:atemp>
          </ns3:TrackPointExtension>
        </extensions>
      </trkpt>
      <trkpt lat="42.5590162910521030426025390625" lon="20.0793849863111972808837890625">
        <ele>2221.39990234375</ele>
        <time>2026-06-19T12:11:07.000Z</time>
        <extensions>
          <ns3:TrackPointExtension>
            <ns3:atemp>18.0</ns3:atemp>
          </ns3:TrackPointExtension>
        </extensions>
      </trkpt>
      <trkpt lat="42.5590162910521030426025390625" lon="20.0793849863111972808837890625">
        <ele>2221.199951171875</ele>
        <time>2026-06-19T12:11:08.000Z</time>
        <extensions>
          <ns3:TrackPointExtension>
            <ns3:atemp>18.0</ns3:atemp>
          </ns3:TrackPointExtension>
        </extensions>
      </trkpt>
      <trkpt lat="42.5590162910521030426025390625" lon="20.0793849863111972808837890625">
        <ele>2221</ele>
        <time>2026-06-19T12:11:09.000Z</time>
        <extensions>
          <ns3:TrackPointExtension>
            <ns3:atemp>18.0</ns3:atemp>
          </ns3:TrackPointExtension>
        </extensions>
      </trkpt>
      <trkpt lat="42.5590162910521030426025390625" lon="20.0793849863111972808837890625">
        <ele>2220.800048828125</ele>
        <time>2026-06-19T12:11:10.000Z</time>
        <extensions>
          <ns3:TrackPointExtension>
            <ns3:atemp>18.0</ns3:atemp>
          </ns3:TrackPointExtension>
        </extensions>
      </trkpt>
      <trkpt lat="42.5590162910521030426025390625" lon="20.0793849863111972808837890625">
        <ele>2220.800048828125</ele>
        <time>2026-06-19T12:11:11.000Z</time>
        <extensions>
          <ns3:TrackPointExtension>
            <ns3:atemp>18.0</ns3:atemp>
          </ns3:TrackPointExtension>
        </extensions>
      </trkpt>
      <trkpt lat="42.5590162910521030426025390625" lon="20.0793849863111972808837890625">
        <ele>2220.60009765625</ele>
        <time>2026-06-19T12:11:12.000Z</time>
        <extensions>
          <ns3:TrackPointExtension>
            <ns3:atemp>18.0</ns3:atemp>
          </ns3:TrackPointExtension>
        </extensions>
      </trkpt>
      <trkpt lat="42.5590162910521030426025390625" lon="20.0793849863111972808837890625">
        <ele>2220.60009765625</ele>
        <time>2026-06-19T12:11:13.000Z</time>
        <extensions>
          <ns3:TrackPointExtension>
            <ns3:atemp>18.0</ns3:atemp>
          </ns3:TrackPointExtension>
        </extensions>
      </trkpt>
      <trkpt lat="42.5590162910521030426025390625" lon="20.0793849863111972808837890625">
        <ele>2220.60009765625</ele>
        <time>2026-06-19T12:11:14.000Z</time>
        <extensions>
          <ns3:TrackPointExtension>
            <ns3:atemp>18.0</ns3:atemp>
          </ns3:TrackPointExtension>
        </extensions>
      </trkpt>
      <trkpt lat="42.5590162910521030426025390625" lon="20.0793849863111972808837890625">
        <ele>2220.39990234375</ele>
        <time>2026-06-19T12:11:15.000Z</time>
        <extensions>
          <ns3:TrackPointExtension>
            <ns3:atemp>18.0</ns3:atemp>
          </ns3:TrackPointExtension>
        </extensions>
      </trkpt>
      <trkpt lat="42.5590162910521030426025390625" lon="20.0793849863111972808837890625">
        <ele>2220.39990234375</ele>
        <time>2026-06-19T12:11:16.000Z</time>
        <extensions>
          <ns3:TrackPointExtension>
            <ns3:atemp>18.0</ns3:atemp>
          </ns3:TrackPointExtension>
        </extensions>
      </trkpt>
      <trkpt lat="42.55901402793824672698974609375" lon="20.07938574068248271942138671875">
        <ele>2220.39990234375</ele>
        <time>2026-06-19T12:11:17.000Z</time>
        <extensions>
          <ns3:TrackPointExtension>
            <ns3:atemp>18.0</ns3:atemp>
          </ns3:TrackPointExtension>
        </extensions>
      </trkpt>
      <trkpt lat="42.55899910815060138702392578125" lon="20.07939822971820831298828125">
        <ele>2220.39990234375</ele>
        <time>2026-06-19T12:11:18.000Z</time>
        <extensions>
          <ns3:TrackPointExtension>
            <ns3:atemp>18.0</ns3:atemp>
          </ns3:TrackPointExtension>
        </extensions>
      </trkpt>
      <trkpt lat="42.55899005569517612457275390625" lon="20.07940552197396755218505859375">
        <ele>2220.39990234375</ele>
        <time>2026-06-19T12:11:19.000Z</time>
        <extensions>
          <ns3:TrackPointExtension>
            <ns3:atemp>18.0</ns3:atemp>
          </ns3:TrackPointExtension>
        </extensions>
      </trkpt>
      <trkpt lat="42.5589844398200511932373046875" lon="20.07940686307847499847412109375">
        <ele>2220.199951171875</ele>
        <time>2026-06-19T12:11:20.000Z</time>
        <extensions>
          <ns3:TrackPointExtension>
            <ns3:atemp>18.0</ns3:atemp>
          </ns3:TrackPointExtension>
        </extensions>
      </trkpt>
      <trkpt lat="42.5589800812304019927978515625" lon="20.0794057734310626983642578125">
        <ele>2220.199951171875</ele>
        <time>2026-06-19T12:11:21.000Z</time>
        <extensions>
          <ns3:TrackPointExtension>
            <ns3:atemp>18.0</ns3:atemp>
          </ns3:TrackPointExtension>
        </extensions>
      </trkpt>
      <trkpt lat="42.5589800812304019927978515625" lon="20.07940568961203098297119140625">
        <ele>2220</ele>
        <time>2026-06-19T12:11:22.000Z</time>
        <extensions>
          <ns3:TrackPointExtension>
            <ns3:atemp>18.0</ns3:atemp>
          </ns3:TrackPointExtension>
        </extensions>
      </trkpt>
      <trkpt lat="42.5589800812304019927978515625" lon="20.07940568961203098297119140625">
        <ele>2220</ele>
        <time>2026-06-19T12:11:23.000Z</time>
        <extensions>
          <ns3:TrackPointExtension>
            <ns3:atemp>18.0</ns3:atemp>
          </ns3:TrackPointExtension>
        </extensions>
      </trkpt>
      <trkpt lat="42.5589800812304019927978515625" lon="20.07940568961203098297119140625">
        <ele>2220</ele>
        <time>2026-06-19T12:11:24.000Z</time>
        <extensions>
          <ns3:TrackPointExtension>
            <ns3:atemp>18.0</ns3:atemp>
          </ns3:TrackPointExtension>
        </extensions>
      </trkpt>
      <trkpt lat="42.5589800812304019927978515625" lon="20.07940568961203098297119140625">
        <ele>2220</ele>
        <time>2026-06-19T12:11:25.000Z</time>
        <extensions>
          <ns3:TrackPointExtension>
            <ns3:atemp>18.0</ns3:atemp>
          </ns3:TrackPointExtension>
        </extensions>
      </trkpt>
      <trkpt lat="42.5589800812304019927978515625" lon="20.07940568961203098297119140625">
        <ele>2220</ele>
        <time>2026-06-19T12:11:26.000Z</time>
        <extensions>
          <ns3:TrackPointExtension>
            <ns3:atemp>18.0</ns3:atemp>
          </ns3:TrackPointExtension>
        </extensions>
      </trkpt>
      <trkpt lat="42.5589800812304019927978515625" lon="20.07940568961203098297119140625">
        <ele>2220</ele>
        <time>2026-06-19T12:11:27.000Z</time>
        <extensions>
          <ns3:TrackPointExtension>
            <ns3:atemp>18.0</ns3:atemp>
          </ns3:TrackPointExtension>
        </extensions>
      </trkpt>
      <trkpt lat="42.5589800812304019927978515625" lon="20.07940568961203098297119140625">
        <ele>2220</ele>
        <time>2026-06-19T12:11:28.000Z</time>
        <extensions>
          <ns3:TrackPointExtension>
            <ns3:atemp>18.0</ns3:atemp>
          </ns3:TrackPointExtension>
        </extensions>
      </trkpt>
      <trkpt lat="42.5589804165065288543701171875" lon="20.0794051028788089752197265625">
        <ele>2220</ele>
        <time>2026-06-19T12:11:29.000Z</time>
        <extensions>
          <ns3:TrackPointExtension>
            <ns3:atemp>18.0</ns3:atemp>
          </ns3:TrackPointExtension>
        </extensions>
      </trkpt>
      <trkpt lat="42.55897848866879940032958984375" lon="20.07941834628582000732421875">
        <ele>2220</ele>
        <time>2026-06-19T12:11:30.000Z</time>
        <extensions>
          <ns3:TrackPointExtension>
            <ns3:atemp>18.0</ns3:atemp>
          </ns3:TrackPointExtension>
        </extensions>
      </trkpt>
      <trkpt lat="42.55897614173591136932373046875" lon="20.07944458164274692535400390625">
        <ele>2219.800048828125</ele>
        <time>2026-06-19T12:11:31.000Z</time>
        <extensions>
          <ns3:TrackPointExtension>
            <ns3:atemp>18.0</ns3:atemp>
          </ns3:TrackPointExtension>
        </extensions>
      </trkpt>
      <trkpt lat="42.55898150615394115447998046875" lon="20.07947861216962337493896484375">
        <ele>2219.60009765625</ele>
        <time>2026-06-19T12:11:32.000Z</time>
        <extensions>
          <ns3:TrackPointExtension>
            <ns3:atemp>18.0</ns3:atemp>
          </ns3:TrackPointExtension>
        </extensions>
      </trkpt>
      <trkpt lat="42.55898754112422466278076171875" lon="20.0795169174671173095703125">
        <ele>2219</ele>
        <time>2026-06-19T12:11:33.000Z</time>
        <extensions>
          <ns3:TrackPointExtension>
            <ns3:atemp>18.0</ns3:atemp>
          </ns3:TrackPointExtension>
        </extensions>
      </trkpt>
      <trkpt lat="42.558991648256778717041015625" lon="20.079559497535228729248046875">
        <ele>2218.199951171875</ele>
        <time>2026-06-19T12:11:34.000Z</time>
        <extensions>
          <ns3:TrackPointExtension>
            <ns3:atemp>18.0</ns3:atemp>
          </ns3:TrackPointExtension>
        </extensions>
      </trkpt>
      <trkpt lat="42.55899290554225444793701171875" lon="20.079600401222705841064453125">
        <ele>2217.39990234375</ele>
        <time>2026-06-19T12:11:35.000Z</time>
        <extensions>
          <ns3:TrackPointExtension>
            <ns3:atemp>18.0</ns3:atemp>
          </ns3:TrackPointExtension>
        </extensions>
      </trkpt>
      <trkpt lat="42.55899122916162014007568359375" lon="20.0796344317495822906494140625">
        <ele>2216.60009765625</ele>
        <time>2026-06-19T12:11:36.000Z</time>
        <extensions>
          <ns3:TrackPointExtension>
            <ns3:atemp>18.0</ns3:atemp>
          </ns3:TrackPointExtension>
        </extensions>
      </trkpt>
      <trkpt lat="42.558996677398681640625" lon="20.0796636007726192474365234375">
        <ele>2215.800048828125</ele>
        <time>2026-06-19T12:11:37.000Z</time>
        <extensions>
          <ns3:TrackPointExtension>
            <ns3:atemp>18.0</ns3:atemp>
          </ns3:TrackPointExtension>
        </extensions>
      </trkpt>
      <trkpt lat="42.55900405347347259521484375" lon="20.07969997823238372802734375">
        <ele>2215</ele>
        <time>2026-06-19T12:11:38.000Z</time>
        <extensions>
          <ns3:TrackPointExtension>
            <ns3:atemp>18.0</ns3:atemp>
          </ns3:TrackPointExtension>
        </extensions>
      </trkpt>
      <trkpt lat="42.55901989527046680450439453125" lon="20.07973811589181423187255859375">
        <ele>2214.199951171875</ele>
        <time>2026-06-19T12:11:39.000Z</time>
        <extensions>
          <ns3:TrackPointExtension>
            <ns3:atemp>18.0</ns3:atemp>
          </ns3:TrackPointExtension>
        </extensions>
      </trkpt>
      <trkpt lat="42.55903280340135097503662109375" lon="20.07976644672453403472900390625">
        <ele>2213.199951171875</ele>
        <time>2026-06-19T12:11:40.000Z</time>
        <extensions>
          <ns3:TrackPointExtension>
            <ns3:atemp>18.0</ns3:atemp>
          </ns3:TrackPointExtension>
        </extensions>
      </trkpt>
      <trkpt lat="42.55903263576328754425048828125" lon="20.079784132540225982666015625">
        <ele>2212.39990234375</ele>
        <time>2026-06-19T12:11:41.000Z</time>
        <extensions>
          <ns3:TrackPointExtension>
            <ns3:atemp>18.0</ns3:atemp>
          </ns3:TrackPointExtension>
        </extensions>
      </trkpt>
      <trkpt lat="42.5590270198881626129150390625" lon="20.07980517111718654632568359375">
        <ele>2211.60009765625</ele>
        <time>2026-06-19T12:11:42.000Z</time>
        <extensions>
          <ns3:TrackPointExtension>
            <ns3:atemp>18.0</ns3:atemp>
          </ns3:TrackPointExtension>
        </extensions>
      </trkpt>
      <trkpt lat="42.55902123637497425079345703125" lon="20.0798148103058338165283203125">
        <ele>2211</ele>
        <time>2026-06-19T12:11:43.000Z</time>
        <extensions>
          <ns3:TrackPointExtension>
            <ns3:atemp>18.0</ns3:atemp>
          </ns3:TrackPointExtension>
        </extensions>
      </trkpt>
      <trkpt lat="42.5590112619102001190185546875" lon="20.07981891743838787078857421875">
        <ele>2210.60009765625</ele>
        <time>2026-06-19T12:11:44.000Z</time>
        <extensions>
          <ns3:TrackPointExtension>
            <ns3:atemp>18.0</ns3:atemp>
          </ns3:TrackPointExtension>
        </extensions>
      </trkpt>
      <trkpt lat="42.558992318809032440185546875" lon="20.07981355302035808563232421875">
        <ele>2210.39990234375</ele>
        <time>2026-06-19T12:11:45.000Z</time>
        <extensions>
          <ns3:TrackPointExtension>
            <ns3:atemp>18.0</ns3:atemp>
          </ns3:TrackPointExtension>
        </extensions>
      </trkpt>
      <trkpt lat="42.5589752197265625" lon="20.07982847280800342559814453125">
        <ele>2210</ele>
        <time>2026-06-19T12:11:46.000Z</time>
        <extensions>
          <ns3:TrackPointExtension>
            <ns3:atemp>18.0</ns3:atemp>
          </ns3:TrackPointExtension>
        </extensions>
      </trkpt>
      <trkpt lat="42.5589639879763126373291015625" lon="20.0798523612320423126220703125">
        <ele>2210</ele>
        <time>2026-06-19T12:11:47.000Z</time>
        <extensions>
          <ns3:TrackPointExtension>
            <ns3:atemp>18.0</ns3:atemp>
          </ns3:TrackPointExtension>
        </extensions>
      </trkpt>
      <trkpt lat="42.55895166657865047454833984375" lon="20.079877339303493499755859375">
        <ele>2209.800048828125</ele>
        <time>2026-06-19T12:11:48.000Z</time>
        <extensions>
          <ns3:TrackPointExtension>
            <ns3:atemp>18.0</ns3:atemp>
          </ns3:TrackPointExtension>
        </extensions>
      </trkpt>
      <trkpt lat="42.55893859080970287322998046875" lon="20.07991933263838291168212890625">
        <ele>2209.60009765625</ele>
        <time>2026-06-19T12:11:49.000Z</time>
        <extensions>
          <ns3:TrackPointExtension>
            <ns3:atemp>18.0</ns3:atemp>
          </ns3:TrackPointExtension>
        </extensions>
      </trkpt>
      <trkpt lat="42.5589264370501041412353515625" lon="20.0799586437642574310302734375">
        <ele>2209.39990234375</ele>
        <time>2026-06-19T12:11:50.000Z</time>
        <extensions>
          <ns3:TrackPointExtension>
            <ns3:atemp>18.0</ns3:atemp>
          </ns3:TrackPointExtension>
        </extensions>
      </trkpt>
      <trkpt lat="42.55891025997698307037353515625" lon="20.08001186884939670562744140625">
        <ele>2209.199951171875</ele>
        <time>2026-06-19T12:11:51.000Z</time>
        <extensions>
          <ns3:TrackPointExtension>
            <ns3:atemp>18.0</ns3:atemp>
          </ns3:TrackPointExtension>
        </extensions>
      </trkpt>
      <trkpt lat="42.5589006207883358001708984375" lon="20.08006920106709003448486328125">
        <ele>2208.800048828125</ele>
        <time>2026-06-19T12:11:52.000Z</time>
        <extensions>
          <ns3:TrackPointExtension>
            <ns3:atemp>18.0</ns3:atemp>
          </ns3:TrackPointExtension>
        </extensions>
      </trkpt>
      <trkpt lat="42.5588987767696380615234375" lon="20.08013122715055942535400390625">
        <ele>2208.60009765625</ele>
        <time>2026-06-19T12:11:53.000Z</time>
        <extensions>
          <ns3:TrackPointExtension>
            <ns3:atemp>18.0</ns3:atemp>
          </ns3:TrackPointExtension>
        </extensions>
      </trkpt>
      <trkpt lat="42.55889869295060634613037109375" lon="20.08019593544304370880126953125">
        <ele>2208.199951171875</ele>
        <time>2026-06-19T12:11:54.000Z</time>
        <extensions>
          <ns3:TrackPointExtension>
            <ns3:atemp>18.0</ns3:atemp>
          </ns3:TrackPointExtension>
        </extensions>
      </trkpt>
      <trkpt lat="42.5588929094374179840087890625" lon="20.080258212983608245849609375">
        <ele>2207.800048828125</ele>
        <time>2026-06-19T12:11:55.000Z</time>
        <extensions>
          <ns3:TrackPointExtension>
            <ns3:atemp>18.0</ns3:atemp>
          </ns3:TrackPointExtension>
        </extensions>
      </trkpt>
      <trkpt lat="42.55888528190553188323974609375" lon="20.08031579665839672088623046875">
        <ele>2207.39990234375</ele>
        <time>2026-06-19T12:11:56.000Z</time>
        <extensions>
          <ns3:TrackPointExtension>
            <ns3:atemp>18.0</ns3:atemp>
          </ns3:TrackPointExtension>
        </extensions>
      </trkpt>
      <trkpt lat="42.55887555889785289764404296875" lon="20.08037933148443698883056640625">
        <ele>2207</ele>
        <time>2026-06-19T12:11:57.000Z</time>
        <extensions>
          <ns3:TrackPointExtension>
            <ns3:atemp>18.0</ns3:atemp>
          </ns3:TrackPointExtension>
        </extensions>
      </trkpt>
      <trkpt lat="42.55886080674827098846435546875" lon="20.08044831454753875732421875">
        <ele>2206.39990234375</ele>
        <time>2026-06-19T12:11:58.000Z</time>
        <extensions>
          <ns3:TrackPointExtension>
            <ns3:atemp>18.0</ns3:atemp>
          </ns3:TrackPointExtension>
        </extensions>
      </trkpt>
      <trkpt lat="42.55883549340069293975830078125" lon="20.0805175490677356719970703125">
        <ele>2205.800048828125</ele>
        <time>2026-06-19T12:11:59.000Z</time>
        <extensions>
          <ns3:TrackPointExtension>
            <ns3:atemp>18.0</ns3:atemp>
          </ns3:TrackPointExtension>
        </extensions>
      </trkpt>
      <trkpt lat="42.5587929971516132354736328125" lon="20.08057571947574615478515625">
        <ele>2205</ele>
        <time>2026-06-19T12:12:00.000Z</time>
        <extensions>
          <ns3:TrackPointExtension>
            <ns3:atemp>18.0</ns3:atemp>
          </ns3:TrackPointExtension>
        </extensions>
      </trkpt>
      <trkpt lat="42.5587490759789943695068359375" lon="20.08062324486672878265380859375">
        <ele>2204.199951171875</ele>
        <time>2026-06-19T12:12:01.000Z</time>
        <extensions>
          <ns3:TrackPointExtension>
            <ns3:atemp>18.0</ns3:atemp>
          </ns3:TrackPointExtension>
        </extensions>
      </trkpt>
      <trkpt lat="42.55871747620403766632080078125" lon="20.08066691458225250244140625">
        <ele>2203.60009765625</ele>
        <time>2026-06-19T12:12:02.000Z</time>
        <extensions>
          <ns3:TrackPointExtension>
            <ns3:atemp>17.0</ns3:atemp>
          </ns3:TrackPointExtension>
        </extensions>
      </trkpt>
      <trkpt lat="42.55869015119969844818115234375" lon="20.0807116739451885223388671875">
        <ele>2202.800048828125</ele>
        <time>2026-06-19T12:12:03.000Z</time>
        <extensions>
          <ns3:TrackPointExtension>
            <ns3:atemp>17.0</ns3:atemp>
          </ns3:TrackPointExtension>
        </extensions>
      </trkpt>
      <trkpt lat="42.55868981592357158660888671875" lon="20.080773867666721343994140625">
        <ele>2202</ele>
        <time>2026-06-19T12:12:04.000Z</time>
        <extensions>
          <ns3:TrackPointExtension>
            <ns3:atemp>17.0</ns3:atemp>
          </ns3:TrackPointExtension>
        </extensions>
      </trkpt>
      <trkpt lat="42.55870389752089977264404296875" lon="20.0808417610824108123779296875">
        <ele>2201.39990234375</ele>
        <time>2026-06-19T12:12:05.000Z</time>
        <extensions>
          <ns3:TrackPointExtension>
            <ns3:atemp>17.0</ns3:atemp>
          </ns3:TrackPointExtension>
        </extensions>
      </trkpt>
      <trkpt lat="42.55872501991689205169677734375" lon="20.08090554736554622650146484375">
        <ele>2200.60009765625</ele>
        <time>2026-06-19T12:12:06.000Z</time>
        <extensions>
          <ns3:TrackPointExtension>
            <ns3:atemp>17.0</ns3:atemp>
          </ns3:TrackPointExtension>
        </extensions>
      </trkpt>
      <trkpt lat="42.55874111317098140716552734375" lon="20.08097511716187000274658203125">
        <ele>2199.60009765625</ele>
        <time>2026-06-19T12:12:07.000Z</time>
        <extensions>
          <ns3:TrackPointExtension>
            <ns3:atemp>17.0</ns3:atemp>
          </ns3:TrackPointExtension>
        </extensions>
      </trkpt>
      <trkpt lat="42.558746896684169769287109375" lon="20.08104703389108180999755859375">
        <ele>2198.60009765625</ele>
        <time>2026-06-19T12:12:08.000Z</time>
        <extensions>
          <ns3:TrackPointExtension>
            <ns3:atemp>17.0</ns3:atemp>
          </ns3:TrackPointExtension>
        </extensions>
      </trkpt>
      <trkpt lat="42.55874312482774257659912109375" lon="20.081122554838657379150390625">
        <ele>2197.39990234375</ele>
        <time>2026-06-19T12:12:09.000Z</time>
        <extensions>
          <ns3:TrackPointExtension>
            <ns3:atemp>17.0</ns3:atemp>
          </ns3:TrackPointExtension>
        </extensions>
      </trkpt>
      <trkpt lat="42.55873424001038074493408203125" lon="20.08118860423564910888671875">
        <ele>2196</ele>
        <time>2026-06-19T12:12:10.000Z</time>
        <extensions>
          <ns3:TrackPointExtension>
            <ns3:atemp>17.0</ns3:atemp>
          </ns3:TrackPointExtension>
        </extensions>
      </trkpt>
      <trkpt lat="42.5587239302694797515869140625" lon="20.08125239051878452301025390625">
        <ele>2195</ele>
        <time>2026-06-19T12:12:11.000Z</time>
        <extensions>
          <ns3:TrackPointExtension>
            <ns3:atemp>17.0</ns3:atemp>
          </ns3:TrackPointExtension>
        </extensions>
      </trkpt>
      <trkpt lat="42.5587108545005321502685546875" lon="20.08130150847136974334716796875">
        <ele>2193.800048828125</ele>
        <time>2026-06-19T12:12:12.000Z</time>
        <extensions>
          <ns3:TrackPointExtension>
            <ns3:atemp>17.0</ns3:atemp>
          </ns3:TrackPointExtension>
        </extensions>
      </trkpt>
      <trkpt lat="42.55869735963642597198486328125" lon="20.0813423283398151397705078125">
        <ele>2193</ele>
        <time>2026-06-19T12:12:13.000Z</time>
        <extensions>
          <ns3:TrackPointExtension>
            <ns3:atemp>17.0</ns3:atemp>
          </ns3:TrackPointExtension>
        </extensions>
      </trkpt>
      <trkpt lat="42.55868478678166866302490234375" lon="20.08139203302562236785888671875">
        <ele>2192.199951171875</ele>
        <time>2026-06-19T12:12:14.000Z</time>
        <extensions>
          <ns3:TrackPointExtension>
            <ns3:atemp>17.0</ns3:atemp>
          </ns3:TrackPointExtension>
        </extensions>
      </trkpt>
      <trkpt lat="42.55867489613592624664306640625" lon="20.08143670856952667236328125">
        <ele>2191.39990234375</ele>
        <time>2026-06-19T12:12:15.000Z</time>
        <extensions>
          <ns3:TrackPointExtension>
            <ns3:atemp>17.0</ns3:atemp>
          </ns3:TrackPointExtension>
        </extensions>
      </trkpt>
      <trkpt lat="42.55865871906280517578125" lon="20.0814747624099254608154296875">
        <ele>2190.60009765625</ele>
        <time>2026-06-19T12:12:16.000Z</time>
        <extensions>
          <ns3:TrackPointExtension>
            <ns3:atemp>17.0</ns3:atemp>
          </ns3:TrackPointExtension>
        </extensions>
      </trkpt>
      <trkpt lat="42.55864388309419155120849609375" lon="20.08150820620357990264892578125">
        <ele>2189.800048828125</ele>
        <time>2026-06-19T12:12:17.000Z</time>
        <extensions>
          <ns3:TrackPointExtension>
            <ns3:atemp>17.0</ns3:atemp>
          </ns3:TrackPointExtension>
        </extensions>
      </trkpt>
      <trkpt lat="42.5586256943643093109130859375" lon="20.08153536356985569000244140625">
        <ele>2189.199951171875</ele>
        <time>2026-06-19T12:12:18.000Z</time>
        <extensions>
          <ns3:TrackPointExtension>
            <ns3:atemp>17.0</ns3:atemp>
          </ns3:TrackPointExtension>
        </extensions>
      </trkpt>
      <trkpt lat="42.55860532633960247039794921875" lon="20.08155782707035541534423828125">
        <ele>2188.800048828125</ele>
        <time>2026-06-19T12:12:19.000Z</time>
        <extensions>
          <ns3:TrackPointExtension>
            <ns3:atemp>17.0</ns3:atemp>
          </ns3:TrackPointExtension>
        </extensions>
      </trkpt>
      <trkpt lat="42.55858671851456165313720703125" lon="20.0815823860466480255126953125">
        <ele>2188.199951171875</ele>
        <time>2026-06-19T12:12:20.000Z</time>
        <extensions>
          <ns3:TrackPointExtension>
            <ns3:atemp>17.0</ns3:atemp>
          </ns3:TrackPointExtension>
        </extensions>
      </trkpt>
      <trkpt lat="42.55856459029018878936767578125" lon="20.0816068612039089202880859375">
        <ele>2187.800048828125</ele>
        <time>2026-06-19T12:12:21.000Z</time>
        <extensions>
          <ns3:TrackPointExtension>
            <ns3:atemp>17.0</ns3:atemp>
          </ns3:TrackPointExtension>
        </extensions>
      </trkpt>
      <trkpt lat="42.5585499219596385955810546875" lon="20.08163896389305591583251953125">
        <ele>2187.199951171875</ele>
        <time>2026-06-19T12:12:22.000Z</time>
        <extensions>
          <ns3:TrackPointExtension>
            <ns3:atemp>17.0</ns3:atemp>
          </ns3:TrackPointExtension>
        </extensions>
      </trkpt>
      <trkpt lat="42.55853693000972270965576171875" lon="20.0816792808473110198974609375">
        <ele>2186.60009765625</ele>
        <time>2026-06-19T12:12:23.000Z</time>
        <extensions>
          <ns3:TrackPointExtension>
            <ns3:atemp>17.0</ns3:atemp>
          </ns3:TrackPointExtension>
        </extensions>
      </trkpt>
      <trkpt lat="42.558527290821075439453125" lon="20.0817228667438030242919921875">
        <ele>2185.800048828125</ele>
        <time>2026-06-19T12:12:24.000Z</time>
        <extensions>
          <ns3:TrackPointExtension>
            <ns3:atemp>17.0</ns3:atemp>
          </ns3:TrackPointExtension>
        </extensions>
      </trkpt>
      <trkpt lat="42.55851899273693561553955078125" lon="20.0817714817821979522705078125">
        <ele>2185</ele>
        <time>2026-06-19T12:12:25.000Z</time>
        <extensions>
          <ns3:TrackPointExtension>
            <ns3:atemp>17.0</ns3:atemp>
          </ns3:TrackPointExtension>
        </extensions>
      </trkpt>
      <trkpt lat="42.55851362831890583038330078125" lon="20.08182152174413204193115234375">
        <ele>2184.39990234375</ele>
        <time>2026-06-19T12:12:26.000Z</time>
        <extensions>
          <ns3:TrackPointExtension>
            <ns3:atemp>17.0</ns3:atemp>
          </ns3:TrackPointExtension>
        </extensions>
      </trkpt>
      <trkpt lat="42.5585123710334300994873046875" lon="20.08186510764062404632568359375">
        <ele>2183.60009765625</ele>
        <time>2026-06-19T12:12:27.000Z</time>
        <extensions>
          <ns3:TrackPointExtension>
            <ns3:atemp>17.0</ns3:atemp>
          </ns3:TrackPointExtension>
        </extensions>
      </trkpt>
      <trkpt lat="42.55851748399436473846435546875" lon="20.08190969936549663543701171875">
        <ele>2182.60009765625</ele>
        <time>2026-06-19T12:12:28.000Z</time>
        <extensions>
          <ns3:TrackPointExtension>
            <ns3:atemp>17.0</ns3:atemp>
          </ns3:TrackPointExtension>
        </extensions>
      </trkpt>
      <trkpt lat="42.55852821283042430877685546875" lon="20.08194540627300739288330078125">
        <ele>2181.39990234375</ele>
        <time>2026-06-19T12:12:29.000Z</time>
        <extensions>
          <ns3:TrackPointExtension>
            <ns3:atemp>17.0</ns3:atemp>
          </ns3:TrackPointExtension>
        </extensions>
      </trkpt>
      <trkpt lat="42.5585351698100566864013671875" lon="20.0819850526750087738037109375">
        <ele>2180.60009765625</ele>
        <time>2026-06-19T12:12:30.000Z</time>
        <extensions>
          <ns3:TrackPointExtension>
            <ns3:atemp>17.0</ns3:atemp>
          </ns3:TrackPointExtension>
        </extensions>
      </trkpt>
      <trkpt lat="42.55853676237165927886962890625" lon="20.0820202566683292388916015625">
        <ele>2179.60009765625</ele>
        <time>2026-06-19T12:12:31.000Z</time>
        <extensions>
          <ns3:TrackPointExtension>
            <ns3:atemp>17.0</ns3:atemp>
          </ns3:TrackPointExtension>
        </extensions>
      </trkpt>
      <trkpt lat="42.55853600800037384033203125" lon="20.082050263881683349609375">
        <ele>2178.60009765625</ele>
        <time>2026-06-19T12:12:32.000Z</time>
        <extensions>
          <ns3:TrackPointExtension>
            <ns3:atemp>17.0</ns3:atemp>
          </ns3:TrackPointExtension>
        </extensions>
      </trkpt>
      <trkpt lat="42.5585244409739971160888671875" lon="20.08207834325730800628662109375">
        <ele>2177.800048828125</ele>
        <time>2026-06-19T12:12:33.000Z</time>
        <extensions>
          <ns3:TrackPointExtension>
            <ns3:atemp>17.0</ns3:atemp>
          </ns3:TrackPointExtension>
        </extensions>
      </trkpt>
      <trkpt lat="42.5585053302347660064697265625" lon="20.0821097753942012786865234375">
        <ele>2177</ele>
        <time>2026-06-19T12:12:34.000Z</time>
        <extensions>
          <ns3:TrackPointExtension>
            <ns3:atemp>17.0</ns3:atemp>
          </ns3:TrackPointExtension>
        </extensions>
      </trkpt>
      <trkpt lat="42.5584979541599750518798828125" lon="20.08214053697884082794189453125">
        <ele>2176</ele>
        <time>2026-06-19T12:12:35.000Z</time>
        <extensions>
          <ns3:TrackPointExtension>
            <ns3:atemp>17.0</ns3:atemp>
          </ns3:TrackPointExtension>
        </extensions>
      </trkpt>
      <trkpt lat="42.55849284119904041290283203125" lon="20.0821728073060512542724609375">
        <ele>2175.39990234375</ele>
        <time>2026-06-19T12:12:36.000Z</time>
        <extensions>
          <ns3:TrackPointExtension>
            <ns3:atemp>17.0</ns3:atemp>
          </ns3:TrackPointExtension>
        </extensions>
      </trkpt>
      <trkpt lat="42.55848429165780544281005859375" lon="20.08220759220421314239501953125">
        <ele>2174.60009765625</ele>
        <time>2026-06-19T12:12:37.000Z</time>
        <extensions>
          <ns3:TrackPointExtension>
            <ns3:atemp>17.0</ns3:atemp>
          </ns3:TrackPointExtension>
        </extensions>
      </trkpt>
      <trkpt lat="42.55847808904945850372314453125" lon="20.08224078454077243804931640625">
        <ele>2174.199951171875</ele>
        <time>2026-06-19T12:12:38.000Z</time>
        <extensions>
          <ns3:TrackPointExtension>
            <ns3:atemp>17.0</ns3:atemp>
          </ns3:TrackPointExtension>
        </extensions>
      </trkpt>
      <trkpt lat="42.55847029387950897216796875" lon="20.08228160440921783447265625">
        <ele>2173.60009765625</ele>
        <time>2026-06-19T12:12:39.000Z</time>
        <extensions>
          <ns3:TrackPointExtension>
            <ns3:atemp>17.0</ns3:atemp>
          </ns3:TrackPointExtension>
        </extensions>
      </trkpt>
      <trkpt lat="42.55846350453794002532958984375" lon="20.08232343010604381561279296875">
        <ele>2173.39990234375</ele>
        <time>2026-06-19T12:12:40.000Z</time>
        <extensions>
          <ns3:TrackPointExtension>
            <ns3:atemp>17.0</ns3:atemp>
          </ns3:TrackPointExtension>
        </extensions>
      </trkpt>
      <trkpt lat="42.55845964886248111724853515625" lon="20.08236852474510669708251953125">
        <ele>2173</ele>
        <time>2026-06-19T12:12:41.000Z</time>
        <extensions>
          <ns3:TrackPointExtension>
            <ns3:atemp>17.0</ns3:atemp>
          </ns3:TrackPointExtension>
        </extensions>
      </trkpt>
      <trkpt lat="42.558457888662815093994140625" lon="20.0824058242142200469970703125">
        <ele>2172.60009765625</ele>
        <time>2026-06-19T12:12:42.000Z</time>
        <extensions>
          <ns3:TrackPointExtension>
            <ns3:atemp>17.0</ns3:atemp>
          </ns3:TrackPointExtension>
        </extensions>
      </trkpt>
      <trkpt lat="42.55845285952091217041015625" lon="20.08244563825428485870361328125">
        <ele>2172.39990234375</ele>
        <time>2026-06-19T12:12:43.000Z</time>
        <extensions>
          <ns3:TrackPointExtension>
            <ns3:atemp>17.0</ns3:atemp>
          </ns3:TrackPointExtension>
        </extensions>
      </trkpt>
      <trkpt lat="42.55845495499670505523681640625" lon="20.08248436264693737030029296875">
        <ele>2172.39990234375</ele>
        <time>2026-06-19T12:12:44.000Z</time>
        <extensions>
          <ns3:TrackPointExtension>
            <ns3:atemp>17.0</ns3:atemp>
          </ns3:TrackPointExtension>
        </extensions>
      </trkpt>
      <trkpt lat="42.5584630854427814483642578125" lon="20.0825201533734798431396484375">
        <ele>2172.199951171875</ele>
        <time>2026-06-19T12:12:45.000Z</time>
        <extensions>
          <ns3:TrackPointExtension>
            <ns3:atemp>17.0</ns3:atemp>
          </ns3:TrackPointExtension>
        </extensions>
      </trkpt>
      <trkpt lat="42.55847859196364879608154296875" lon="20.0825563631951808929443359375">
        <ele>2172</ele>
        <time>2026-06-19T12:12:46.000Z</time>
        <extensions>
          <ns3:TrackPointExtension>
            <ns3:atemp>17.0</ns3:atemp>
          </ns3:TrackPointExtension>
        </extensions>
      </trkpt>
      <trkpt lat="42.5584952719509601593017578125" lon="20.08258209563791751861572265625">
        <ele>2171.60009765625</ele>
        <time>2026-06-19T12:12:47.000Z</time>
        <extensions>
          <ns3:TrackPointExtension>
            <ns3:atemp>17.0</ns3:atemp>
          </ns3:TrackPointExtension>
        </extensions>
      </trkpt>
      <trkpt lat="42.558506838977336883544921875" lon="20.08259014226496219635009765625">
        <ele>2171.39990234375</ele>
        <time>2026-06-19T12:12:48.000Z</time>
        <extensions>
          <ns3:TrackPointExtension>
            <ns3:atemp>17.0</ns3:atemp>
          </ns3:TrackPointExtension>
        </extensions>
      </trkpt>
      <trkpt lat="42.55850876681506633758544921875" lon="20.0825992785394191741943359375">
        <ele>2171.39990234375</ele>
        <time>2026-06-19T12:12:49.000Z</time>
        <extensions>
          <ns3:TrackPointExtension>
            <ns3:atemp>17.0</ns3:atemp>
          </ns3:TrackPointExtension>
        </extensions>
      </trkpt>
      <trkpt lat="42.55850742571055889129638671875" lon="20.0826002843677997589111328125">
        <ele>2171.199951171875</ele>
        <time>2026-06-19T12:12:50.000Z</time>
        <extensions>
          <ns3:TrackPointExtension>
            <ns3:atemp>17.0</ns3:atemp>
          </ns3:TrackPointExtension>
        </extensions>
      </trkpt>
      <trkpt lat="42.55850742571055889129638671875" lon="20.0826002843677997589111328125">
        <ele>2171.199951171875</ele>
        <time>2026-06-19T12:12:51.000Z</time>
        <extensions>
          <ns3:TrackPointExtension>
            <ns3:atemp>17.0</ns3:atemp>
          </ns3:TrackPointExtension>
        </extensions>
      </trkpt>
      <trkpt lat="42.55850742571055889129638671875" lon="20.0826002843677997589111328125">
        <ele>2171.199951171875</ele>
        <time>2026-06-19T12:12:52.000Z</time>
        <extensions>
          <ns3:TrackPointExtension>
            <ns3:atemp>17.0</ns3:atemp>
          </ns3:TrackPointExtension>
        </extensions>
      </trkpt>
      <trkpt lat="42.55850742571055889129638671875" lon="20.0826002843677997589111328125">
        <ele>2171.199951171875</ele>
        <time>2026-06-19T12:12:53.000Z</time>
        <extensions>
          <ns3:TrackPointExtension>
            <ns3:atemp>17.0</ns3:atemp>
          </ns3:TrackPointExtension>
        </extensions>
      </trkpt>
      <trkpt lat="42.55850742571055889129638671875" lon="20.0826002843677997589111328125">
        <ele>2171.199951171875</ele>
        <time>2026-06-19T12:12:54.000Z</time>
        <extensions>
          <ns3:TrackPointExtension>
            <ns3:atemp>17.0</ns3:atemp>
          </ns3:TrackPointExtension>
        </extensions>
      </trkpt>
      <trkpt lat="42.55850742571055889129638671875" lon="20.0826002843677997589111328125">
        <ele>2171.199951171875</ele>
        <time>2026-06-19T12:12:55.000Z</time>
        <extensions>
          <ns3:TrackPointExtension>
            <ns3:atemp>17.0</ns3:atemp>
          </ns3:TrackPointExtension>
        </extensions>
      </trkpt>
      <trkpt lat="42.55850742571055889129638671875" lon="20.0826002843677997589111328125">
        <ele>2171.199951171875</ele>
        <time>2026-06-19T12:12:56.000Z</time>
        <extensions>
          <ns3:TrackPointExtension>
            <ns3:atemp>17.0</ns3:atemp>
          </ns3:TrackPointExtension>
        </extensions>
      </trkpt>
      <trkpt lat="42.55850742571055889129638671875" lon="20.0826002843677997589111328125">
        <ele>2171.199951171875</ele>
        <time>2026-06-19T12:12:57.000Z</time>
        <extensions>
          <ns3:TrackPointExtension>
            <ns3:atemp>17.0</ns3:atemp>
          </ns3:TrackPointExtension>
        </extensions>
      </trkpt>
      <trkpt lat="42.55850742571055889129638671875" lon="20.0826002843677997589111328125">
        <ele>2171</ele>
        <time>2026-06-19T12:12:58.000Z</time>
        <extensions>
          <ns3:TrackPointExtension>
            <ns3:atemp>17.0</ns3:atemp>
          </ns3:TrackPointExtension>
        </extensions>
      </trkpt>
      <trkpt lat="42.55850742571055889129638671875" lon="20.0826002843677997589111328125">
        <ele>2171.199951171875</ele>
        <time>2026-06-19T12:12:59.000Z</time>
        <extensions>
          <ns3:TrackPointExtension>
            <ns3:atemp>17.0</ns3:atemp>
          </ns3:TrackPointExtension>
        </extensions>
      </trkpt>
      <trkpt lat="42.55850742571055889129638671875" lon="20.0826002843677997589111328125">
        <ele>2171</ele>
        <time>2026-06-19T12:13:00.000Z</time>
        <extensions>
          <ns3:TrackPointExtension>
            <ns3:atemp>17.0</ns3:atemp>
          </ns3:TrackPointExtension>
        </extensions>
      </trkpt>
      <trkpt lat="42.55850742571055889129638671875" lon="20.0826002843677997589111328125">
        <ele>2171</ele>
        <time>2026-06-19T12:13:01.000Z</time>
        <extensions>
          <ns3:TrackPointExtension>
            <ns3:atemp>17.0</ns3:atemp>
          </ns3:TrackPointExtension>
        </extensions>
      </trkpt>
      <trkpt lat="42.55850742571055889129638671875" lon="20.0826002843677997589111328125">
        <ele>2171</ele>
        <time>2026-06-19T12:13:02.000Z</time>
        <extensions>
          <ns3:TrackPointExtension>
            <ns3:atemp>17.0</ns3:atemp>
          </ns3:TrackPointExtension>
        </extensions>
      </trkpt>
      <trkpt lat="42.55850742571055889129638671875" lon="20.0826002843677997589111328125">
        <ele>2171</ele>
        <time>2026-06-19T12:13:03.000Z</time>
        <extensions>
          <ns3:TrackPointExtension>
            <ns3:atemp>17.0</ns3:atemp>
          </ns3:TrackPointExtension>
        </extensions>
      </trkpt>
      <trkpt lat="42.55850742571055889129638671875" lon="20.0826002843677997589111328125">
        <ele>2171</ele>
        <time>2026-06-19T12:13:04.000Z</time>
        <extensions>
          <ns3:TrackPointExtension>
            <ns3:atemp>17.0</ns3:atemp>
          </ns3:TrackPointExtension>
        </extensions>
      </trkpt>
      <trkpt lat="42.55850742571055889129638671875" lon="20.0826002843677997589111328125">
        <ele>2170.800048828125</ele>
        <time>2026-06-19T12:13:05.000Z</time>
        <extensions>
          <ns3:TrackPointExtension>
            <ns3:atemp>17.0</ns3:atemp>
          </ns3:TrackPointExtension>
        </extensions>
      </trkpt>
      <trkpt lat="42.55850742571055889129638671875" lon="20.0826002843677997589111328125">
        <ele>2170.800048828125</ele>
        <time>2026-06-19T12:13:06.000Z</time>
        <extensions>
          <ns3:TrackPointExtension>
            <ns3:atemp>17.0</ns3:atemp>
          </ns3:TrackPointExtension>
        </extensions>
      </trkpt>
      <trkpt lat="42.55850742571055889129638671875" lon="20.0826002843677997589111328125">
        <ele>2171</ele>
        <time>2026-06-19T12:13:07.000Z</time>
        <extensions>
          <ns3:TrackPointExtension>
            <ns3:atemp>17.0</ns3:atemp>
          </ns3:TrackPointExtension>
        </extensions>
      </trkpt>
      <trkpt lat="42.55850742571055889129638671875" lon="20.0826002843677997589111328125">
        <ele>2171</ele>
        <time>2026-06-19T12:13:08.000Z</time>
        <extensions>
          <ns3:TrackPointExtension>
            <ns3:atemp>17.0</ns3:atemp>
          </ns3:TrackPointExtension>
        </extensions>
      </trkpt>
      <trkpt lat="42.55850742571055889129638671875" lon="20.0826002843677997589111328125">
        <ele>2171</ele>
        <time>2026-06-19T12:13:09.000Z</time>
        <extensions>
          <ns3:TrackPointExtension>
            <ns3:atemp>17.0</ns3:atemp>
          </ns3:TrackPointExtension>
        </extensions>
      </trkpt>
      <trkpt lat="42.55850742571055889129638671875" lon="20.0826002843677997589111328125">
        <ele>2171</ele>
        <time>2026-06-19T12:13:10.000Z</time>
        <extensions>
          <ns3:TrackPointExtension>
            <ns3:atemp>17.0</ns3:atemp>
          </ns3:TrackPointExtension>
        </extensions>
      </trkpt>
      <trkpt lat="42.55850742571055889129638671875" lon="20.0826002843677997589111328125">
        <ele>2171</ele>
        <time>2026-06-19T12:13:11.000Z</time>
        <extensions>
          <ns3:TrackPointExtension>
            <ns3:atemp>17.0</ns3:atemp>
          </ns3:TrackPointExtension>
        </extensions>
      </trkpt>
      <trkpt lat="42.55850742571055889129638671875" lon="20.0826002843677997589111328125">
        <ele>2171</ele>
        <time>2026-06-19T12:13:12.000Z</time>
        <extensions>
          <ns3:TrackPointExtension>
            <ns3:atemp>17.0</ns3:atemp>
          </ns3:TrackPointExtension>
        </extensions>
      </trkpt>
      <trkpt lat="42.55850742571055889129638671875" lon="20.0826002843677997589111328125">
        <ele>2171</ele>
        <time>2026-06-19T12:13:13.000Z</time>
        <extensions>
          <ns3:TrackPointExtension>
            <ns3:atemp>17.0</ns3:atemp>
          </ns3:TrackPointExtension>
        </extensions>
      </trkpt>
      <trkpt lat="42.55850742571055889129638671875" lon="20.0826002843677997589111328125">
        <ele>2171</ele>
        <time>2026-06-19T12:13:14.000Z</time>
        <extensions>
          <ns3:TrackPointExtension>
            <ns3:atemp>17.0</ns3:atemp>
          </ns3:TrackPointExtension>
        </extensions>
      </trkpt>
      <trkpt lat="42.55850742571055889129638671875" lon="20.0826002843677997589111328125">
        <ele>2171</ele>
        <time>2026-06-19T12:13:15.000Z</time>
        <extensions>
          <ns3:TrackPointExtension>
            <ns3:atemp>17.0</ns3:atemp>
          </ns3:TrackPointExtension>
        </extensions>
      </trkpt>
      <trkpt lat="42.55850742571055889129638671875" lon="20.0826002843677997589111328125">
        <ele>2171</ele>
        <time>2026-06-19T12:13:16.000Z</time>
        <extensions>
          <ns3:TrackPointExtension>
            <ns3:atemp>17.0</ns3:atemp>
          </ns3:TrackPointExtension>
        </extensions>
      </trkpt>
      <trkpt lat="42.55850742571055889129638671875" lon="20.0826002843677997589111328125">
        <ele>2171</ele>
        <time>2026-06-19T12:13:17.000Z</time>
        <extensions>
          <ns3:TrackPointExtension>
            <ns3:atemp>17.0</ns3:atemp>
          </ns3:TrackPointExtension>
        </extensions>
      </trkpt>
      <trkpt lat="42.55850742571055889129638671875" lon="20.0826002843677997589111328125">
        <ele>2171</ele>
        <time>2026-06-19T12:13:18.000Z</time>
        <extensions>
          <ns3:TrackPointExtension>
            <ns3:atemp>17.0</ns3:atemp>
          </ns3:TrackPointExtension>
        </extensions>
      </trkpt>
      <trkpt lat="42.55850742571055889129638671875" lon="20.0826002843677997589111328125">
        <ele>2171</ele>
        <time>2026-06-19T12:13:19.000Z</time>
        <extensions>
          <ns3:TrackPointExtension>
            <ns3:atemp>17.0</ns3:atemp>
          </ns3:TrackPointExtension>
        </extensions>
      </trkpt>
      <trkpt lat="42.55850742571055889129638671875" lon="20.0826002843677997589111328125">
        <ele>2171</ele>
        <time>2026-06-19T12:13:20.000Z</time>
        <extensions>
          <ns3:TrackPointExtension>
            <ns3:atemp>17.0</ns3:atemp>
          </ns3:TrackPointExtension>
        </extensions>
      </trkpt>
      <trkpt lat="42.55850742571055889129638671875" lon="20.0826002843677997589111328125">
        <ele>2171</ele>
        <time>2026-06-19T12:13:21.000Z</time>
        <extensions>
          <ns3:TrackPointExtension>
            <ns3:atemp>17.0</ns3:atemp>
          </ns3:TrackPointExtension>
        </extensions>
      </trkpt>
      <trkpt lat="42.55850742571055889129638671875" lon="20.0826002843677997589111328125">
        <ele>2171</ele>
        <time>2026-06-19T12:13:22.000Z</time>
        <extensions>
          <ns3:TrackPointExtension>
            <ns3:atemp>17.0</ns3:atemp>
          </ns3:TrackPointExtension>
        </extensions>
      </trkpt>
      <trkpt lat="42.55850742571055889129638671875" lon="20.0826002843677997589111328125">
        <ele>2171</ele>
        <time>2026-06-19T12:13:23.000Z</time>
        <extensions>
          <ns3:TrackPointExtension>
            <ns3:atemp>17.0</ns3:atemp>
          </ns3:TrackPointExtension>
        </extensions>
      </trkpt>
      <trkpt lat="42.55850742571055889129638671875" lon="20.0826002843677997589111328125">
        <ele>2170.800048828125</ele>
        <time>2026-06-19T12:13:24.000Z</time>
        <extensions>
          <ns3:TrackPointExtension>
            <ns3:atemp>17.0</ns3:atemp>
          </ns3:TrackPointExtension>
        </extensions>
      </trkpt>
      <trkpt lat="42.55850742571055889129638671875" lon="20.0826002843677997589111328125">
        <ele>2170.800048828125</ele>
        <time>2026-06-19T12:13:25.000Z</time>
        <extensions>
          <ns3:TrackPointExtension>
            <ns3:atemp>17.0</ns3:atemp>
          </ns3:TrackPointExtension>
        </extensions>
      </trkpt>
      <trkpt lat="42.55850742571055889129638671875" lon="20.0826002843677997589111328125">
        <ele>2170.800048828125</ele>
        <time>2026-06-19T12:13:26.000Z</time>
        <extensions>
          <ns3:TrackPointExtension>
            <ns3:atemp>17.0</ns3:atemp>
          </ns3:TrackPointExtension>
        </extensions>
      </trkpt>
      <trkpt lat="42.55850742571055889129638671875" lon="20.0826002843677997589111328125">
        <ele>2170.800048828125</ele>
        <time>2026-06-19T12:13:27.000Z</time>
        <extensions>
          <ns3:TrackPointExtension>
            <ns3:atemp>17.0</ns3:atemp>
          </ns3:TrackPointExtension>
        </extensions>
      </trkpt>
      <trkpt lat="42.55850742571055889129638671875" lon="20.0826002843677997589111328125">
        <ele>2170.800048828125</ele>
        <time>2026-06-19T12:13:28.000Z</time>
        <extensions>
          <ns3:TrackPointExtension>
            <ns3:atemp>17.0</ns3:atemp>
          </ns3:TrackPointExtension>
        </extensions>
      </trkpt>
      <trkpt lat="42.55850742571055889129638671875" lon="20.0826002843677997589111328125">
        <ele>2170.800048828125</ele>
        <time>2026-06-19T12:13:29.000Z</time>
        <extensions>
          <ns3:TrackPointExtension>
            <ns3:atemp>17.0</ns3:atemp>
          </ns3:TrackPointExtension>
        </extensions>
      </trkpt>
      <trkpt lat="42.55850742571055889129638671875" lon="20.0826002843677997589111328125">
        <ele>2170.800048828125</ele>
        <time>2026-06-19T12:13:30.000Z</time>
        <extensions>
          <ns3:TrackPointExtension>
            <ns3:atemp>17.0</ns3:atemp>
          </ns3:TrackPointExtension>
        </extensions>
      </trkpt>
      <trkpt lat="42.55850742571055889129638671875" lon="20.0826002843677997589111328125">
        <ele>2170.800048828125</ele>
        <time>2026-06-19T12:13:31.000Z</time>
        <extensions>
          <ns3:TrackPointExtension>
            <ns3:atemp>17.0</ns3:atemp>
          </ns3:TrackPointExtension>
        </extensions>
      </trkpt>
      <trkpt lat="42.55850742571055889129638671875" lon="20.0826002843677997589111328125">
        <ele>2170.800048828125</ele>
        <time>2026-06-19T12:13:32.000Z</time>
        <extensions>
          <ns3:TrackPointExtension>
            <ns3:atemp>17.0</ns3:atemp>
          </ns3:TrackPointExtension>
        </extensions>
      </trkpt>
      <trkpt lat="42.55850742571055889129638671875" lon="20.0826002843677997589111328125">
        <ele>2170.800048828125</ele>
        <time>2026-06-19T12:13:33.000Z</time>
        <extensions>
          <ns3:TrackPointExtension>
            <ns3:atemp>17.0</ns3:atemp>
          </ns3:TrackPointExtension>
        </extensions>
      </trkpt>
      <trkpt lat="42.55850742571055889129638671875" lon="20.0826002843677997589111328125">
        <ele>2170.60009765625</ele>
        <time>2026-06-19T12:13:34.000Z</time>
        <extensions>
          <ns3:TrackPointExtension>
            <ns3:atemp>17.0</ns3:atemp>
          </ns3:TrackPointExtension>
        </extensions>
      </trkpt>
      <trkpt lat="42.55850742571055889129638671875" lon="20.0826002843677997589111328125">
        <ele>2170.60009765625</ele>
        <time>2026-06-19T12:13:35.000Z</time>
        <extensions>
          <ns3:TrackPointExtension>
            <ns3:atemp>17.0</ns3:atemp>
          </ns3:TrackPointExtension>
        </extensions>
      </trkpt>
      <trkpt lat="42.55850742571055889129638671875" lon="20.0826002843677997589111328125">
        <ele>2170.60009765625</ele>
        <time>2026-06-19T12:13:36.000Z</time>
        <extensions>
          <ns3:TrackPointExtension>
            <ns3:atemp>17.0</ns3:atemp>
          </ns3:TrackPointExtension>
        </extensions>
      </trkpt>
      <trkpt lat="42.55850742571055889129638671875" lon="20.0826002843677997589111328125">
        <ele>2170.60009765625</ele>
        <time>2026-06-19T12:13:37.000Z</time>
        <extensions>
          <ns3:TrackPointExtension>
            <ns3:atemp>17.0</ns3:atemp>
          </ns3:TrackPointExtension>
        </extensions>
      </trkpt>
      <trkpt lat="42.55850742571055889129638671875" lon="20.0826002843677997589111328125">
        <ele>2170.60009765625</ele>
        <time>2026-06-19T12:13:38.000Z</time>
        <extensions>
          <ns3:TrackPointExtension>
            <ns3:atemp>17.0</ns3:atemp>
          </ns3:TrackPointExtension>
        </extensions>
      </trkpt>
      <trkpt lat="42.55850742571055889129638671875" lon="20.0826002843677997589111328125">
        <ele>2170.60009765625</ele>
        <time>2026-06-19T12:13:39.000Z</time>
        <extensions>
          <ns3:TrackPointExtension>
            <ns3:atemp>17.0</ns3:atemp>
          </ns3:TrackPointExtension>
        </extensions>
      </trkpt>
      <trkpt lat="42.55850742571055889129638671875" lon="20.0826002843677997589111328125">
        <ele>2170.60009765625</ele>
        <time>2026-06-19T12:13:40.000Z</time>
        <extensions>
          <ns3:TrackPointExtension>
            <ns3:atemp>17.0</ns3:atemp>
          </ns3:TrackPointExtension>
        </extensions>
      </trkpt>
      <trkpt lat="42.55850742571055889129638671875" lon="20.0826002843677997589111328125">
        <ele>2170.60009765625</ele>
        <time>2026-06-19T12:13:41.000Z</time>
        <extensions>
          <ns3:TrackPointExtension>
            <ns3:atemp>17.0</ns3:atemp>
          </ns3:TrackPointExtension>
        </extensions>
      </trkpt>
      <trkpt lat="42.55850742571055889129638671875" lon="20.0826002843677997589111328125">
        <ele>2170.60009765625</ele>
        <time>2026-06-19T12:13:42.000Z</time>
        <extensions>
          <ns3:TrackPointExtension>
            <ns3:atemp>17.0</ns3:atemp>
          </ns3:TrackPointExtension>
        </extensions>
      </trkpt>
      <trkpt lat="42.55850742571055889129638671875" lon="20.0826002843677997589111328125">
        <ele>2170.60009765625</ele>
        <time>2026-06-19T12:13:43.000Z</time>
        <extensions>
          <ns3:TrackPointExtension>
            <ns3:atemp>17.0</ns3:atemp>
          </ns3:TrackPointExtension>
        </extensions>
      </trkpt>
      <trkpt lat="42.55850742571055889129638671875" lon="20.0826002843677997589111328125">
        <ele>2170.60009765625</ele>
        <time>2026-06-19T12:13:44.000Z</time>
        <extensions>
          <ns3:TrackPointExtension>
            <ns3:atemp>17.0</ns3:atemp>
          </ns3:TrackPointExtension>
        </extensions>
      </trkpt>
      <trkpt lat="42.55850742571055889129638671875" lon="20.0826002843677997589111328125">
        <ele>2170.60009765625</ele>
        <time>2026-06-19T12:13:45.000Z</time>
        <extensions>
          <ns3:TrackPointExtension>
            <ns3:atemp>17.0</ns3:atemp>
          </ns3:TrackPointExtension>
        </extensions>
      </trkpt>
      <trkpt lat="42.55850742571055889129638671875" lon="20.0826002843677997589111328125">
        <ele>2170.60009765625</ele>
        <time>2026-06-19T12:13:46.000Z</time>
        <extensions>
          <ns3:TrackPointExtension>
            <ns3:atemp>17.0</ns3:atemp>
          </ns3:TrackPointExtension>
        </extensions>
      </trkpt>
      <trkpt lat="42.55850742571055889129638671875" lon="20.0826002843677997589111328125">
        <ele>2170.60009765625</ele>
        <time>2026-06-19T12:13:47.000Z</time>
        <extensions>
          <ns3:TrackPointExtension>
            <ns3:atemp>17.0</ns3:atemp>
          </ns3:TrackPointExtension>
        </extensions>
      </trkpt>
      <trkpt lat="42.55850742571055889129638671875" lon="20.0826002843677997589111328125">
        <ele>2170.39990234375</ele>
        <time>2026-06-19T12:13:48.000Z</time>
        <extensions>
          <ns3:TrackPointExtension>
            <ns3:atemp>17.0</ns3:atemp>
          </ns3:TrackPointExtension>
        </extensions>
      </trkpt>
      <trkpt lat="42.55850742571055889129638671875" lon="20.0826002843677997589111328125">
        <ele>2170.60009765625</ele>
        <time>2026-06-19T12:13:49.000Z</time>
        <extensions>
          <ns3:TrackPointExtension>
            <ns3:atemp>17.0</ns3:atemp>
          </ns3:TrackPointExtension>
        </extensions>
      </trkpt>
      <trkpt lat="42.55850742571055889129638671875" lon="20.0826002843677997589111328125">
        <ele>2170.60009765625</ele>
        <time>2026-06-19T12:13:50.000Z</time>
        <extensions>
          <ns3:TrackPointExtension>
            <ns3:atemp>17.0</ns3:atemp>
          </ns3:TrackPointExtension>
        </extensions>
      </trkpt>
      <trkpt lat="42.55850742571055889129638671875" lon="20.0826002843677997589111328125">
        <ele>2170.60009765625</ele>
        <time>2026-06-19T12:13:51.000Z</time>
        <extensions>
          <ns3:TrackPointExtension>
            <ns3:atemp>17.0</ns3:atemp>
          </ns3:TrackPointExtension>
        </extensions>
      </trkpt>
      <trkpt lat="42.55850742571055889129638671875" lon="20.0826002843677997589111328125">
        <ele>2170.60009765625</ele>
        <time>2026-06-19T12:13:52.000Z</time>
        <extensions>
          <ns3:TrackPointExtension>
            <ns3:atemp>17.0</ns3:atemp>
          </ns3:TrackPointExtension>
        </extensions>
      </trkpt>
      <trkpt lat="42.55850742571055889129638671875" lon="20.0826002843677997589111328125">
        <ele>2170.60009765625</ele>
        <time>2026-06-19T12:13:53.000Z</time>
        <extensions>
          <ns3:TrackPointExtension>
            <ns3:atemp>17.0</ns3:atemp>
          </ns3:TrackPointExtension>
        </extensions>
      </trkpt>
      <trkpt lat="42.55850742571055889129638671875" lon="20.0826002843677997589111328125">
        <ele>2170.60009765625</ele>
        <time>2026-06-19T12:13:54.000Z</time>
        <extensions>
          <ns3:TrackPointExtension>
            <ns3:atemp>17.0</ns3:atemp>
          </ns3:TrackPointExtension>
        </extensions>
      </trkpt>
      <trkpt lat="42.55850742571055889129638671875" lon="20.0826002843677997589111328125">
        <ele>2170.60009765625</ele>
        <time>2026-06-19T12:13:55.000Z</time>
        <extensions>
          <ns3:TrackPointExtension>
            <ns3:atemp>17.0</ns3:atemp>
          </ns3:TrackPointExtension>
        </extensions>
      </trkpt>
      <trkpt lat="42.55850742571055889129638671875" lon="20.0826002843677997589111328125">
        <ele>2170.60009765625</ele>
        <time>2026-06-19T12:13:56.000Z</time>
        <extensions>
          <ns3:TrackPointExtension>
            <ns3:atemp>17.0</ns3:atemp>
          </ns3:TrackPointExtension>
        </extensions>
      </trkpt>
      <trkpt lat="42.55850742571055889129638671875" lon="20.0826002843677997589111328125">
        <ele>2170.60009765625</ele>
        <time>2026-06-19T12:13:57.000Z</time>
        <extensions>
          <ns3:TrackPointExtension>
            <ns3:atemp>17.0</ns3:atemp>
          </ns3:TrackPointExtension>
        </extensions>
      </trkpt>
      <trkpt lat="42.55850742571055889129638671875" lon="20.0826002843677997589111328125">
        <ele>2170.60009765625</ele>
        <time>2026-06-19T12:13:58.000Z</time>
        <extensions>
          <ns3:TrackPointExtension>
            <ns3:atemp>17.0</ns3:atemp>
          </ns3:TrackPointExtension>
        </extensions>
      </trkpt>
      <trkpt lat="42.55850742571055889129638671875" lon="20.0826002843677997589111328125">
        <ele>2170.60009765625</ele>
        <time>2026-06-19T12:13:59.000Z</time>
        <extensions>
          <ns3:TrackPointExtension>
            <ns3:atemp>17.0</ns3:atemp>
          </ns3:TrackPointExtension>
        </extensions>
      </trkpt>
      <trkpt lat="42.55850742571055889129638671875" lon="20.0826002843677997589111328125">
        <ele>2170.60009765625</ele>
        <time>2026-06-19T12:14:00.000Z</time>
        <extensions>
          <ns3:TrackPointExtension>
            <ns3:atemp>17.0</ns3:atemp>
          </ns3:TrackPointExtension>
        </extensions>
      </trkpt>
      <trkpt lat="42.55850742571055889129638671875" lon="20.0826002843677997589111328125">
        <ele>2170.60009765625</ele>
        <time>2026-06-19T12:14:01.000Z</time>
        <extensions>
          <ns3:TrackPointExtension>
            <ns3:atemp>17.0</ns3:atemp>
          </ns3:TrackPointExtension>
        </extensions>
      </trkpt>
      <trkpt lat="42.55850742571055889129638671875" lon="20.0826002843677997589111328125">
        <ele>2170.60009765625</ele>
        <time>2026-06-19T12:14:02.000Z</time>
        <extensions>
          <ns3:TrackPointExtension>
            <ns3:atemp>17.0</ns3:atemp>
          </ns3:TrackPointExtension>
        </extensions>
      </trkpt>
      <trkpt lat="42.55850742571055889129638671875" lon="20.0826002843677997589111328125">
        <ele>2170.60009765625</ele>
        <time>2026-06-19T12:14:03.000Z</time>
        <extensions>
          <ns3:TrackPointExtension>
            <ns3:atemp>17.0</ns3:atemp>
          </ns3:TrackPointExtension>
        </extensions>
      </trkpt>
      <trkpt lat="42.55850742571055889129638671875" lon="20.0826002843677997589111328125">
        <ele>2170.60009765625</ele>
        <time>2026-06-19T12:14:04.000Z</time>
        <extensions>
          <ns3:TrackPointExtension>
            <ns3:atemp>17.0</ns3:atemp>
          </ns3:TrackPointExtension>
        </extensions>
      </trkpt>
      <trkpt lat="42.55850742571055889129638671875" lon="20.0826002843677997589111328125">
        <ele>2170.60009765625</ele>
        <time>2026-06-19T12:14:05.000Z</time>
        <extensions>
          <ns3:TrackPointExtension>
            <ns3:atemp>17.0</ns3:atemp>
          </ns3:TrackPointExtension>
        </extensions>
      </trkpt>
      <trkpt lat="42.55850742571055889129638671875" lon="20.0826002843677997589111328125">
        <ele>2170.39990234375</ele>
        <time>2026-06-19T12:14:06.000Z</time>
        <extensions>
          <ns3:TrackPointExtension>
            <ns3:atemp>17.0</ns3:atemp>
          </ns3:TrackPointExtension>
        </extensions>
      </trkpt>
      <trkpt lat="42.55850742571055889129638671875" lon="20.0826002843677997589111328125">
        <ele>2170.39990234375</ele>
        <time>2026-06-19T12:14:07.000Z</time>
        <extensions>
          <ns3:TrackPointExtension>
            <ns3:atemp>17.0</ns3:atemp>
          </ns3:TrackPointExtension>
        </extensions>
      </trkpt>
      <trkpt lat="42.55850742571055889129638671875" lon="20.0826002843677997589111328125">
        <ele>2170.199951171875</ele>
        <time>2026-06-19T12:14:08.000Z</time>
        <extensions>
          <ns3:TrackPointExtension>
            <ns3:atemp>17.0</ns3:atemp>
          </ns3:TrackPointExtension>
        </extensions>
      </trkpt>
      <trkpt lat="42.55850742571055889129638671875" lon="20.0826002843677997589111328125">
        <ele>2170.199951171875</ele>
        <time>2026-06-19T12:14:09.000Z</time>
        <extensions>
          <ns3:TrackPointExtension>
            <ns3:atemp>17.0</ns3:atemp>
          </ns3:TrackPointExtension>
        </extensions>
      </trkpt>
      <trkpt lat="42.55850742571055889129638671875" lon="20.0826002843677997589111328125">
        <ele>2170.39990234375</ele>
        <time>2026-06-19T12:14:10.000Z</time>
        <extensions>
          <ns3:TrackPointExtension>
            <ns3:atemp>17.0</ns3:atemp>
          </ns3:TrackPointExtension>
        </extensions>
      </trkpt>
      <trkpt lat="42.55850742571055889129638671875" lon="20.0826002843677997589111328125">
        <ele>2170.39990234375</ele>
        <time>2026-06-19T12:14:11.000Z</time>
        <extensions>
          <ns3:TrackPointExtension>
            <ns3:atemp>17.0</ns3:atemp>
          </ns3:TrackPointExtension>
        </extensions>
      </trkpt>
      <trkpt lat="42.55850742571055889129638671875" lon="20.0826002843677997589111328125">
        <ele>2170.60009765625</ele>
        <time>2026-06-19T12:14:12.000Z</time>
        <extensions>
          <ns3:TrackPointExtension>
            <ns3:atemp>17.0</ns3:atemp>
          </ns3:TrackPointExtension>
        </extensions>
      </trkpt>
      <trkpt lat="42.55850742571055889129638671875" lon="20.0826002843677997589111328125">
        <ele>2170.60009765625</ele>
        <time>2026-06-19T12:14:13.000Z</time>
        <extensions>
          <ns3:TrackPointExtension>
            <ns3:atemp>17.0</ns3:atemp>
          </ns3:TrackPointExtension>
        </extensions>
      </trkpt>
      <trkpt lat="42.55850742571055889129638671875" lon="20.0826002843677997589111328125">
        <ele>2170.800048828125</ele>
        <time>2026-06-19T12:14:14.000Z</time>
        <extensions>
          <ns3:TrackPointExtension>
            <ns3:atemp>17.0</ns3:atemp>
          </ns3:TrackPointExtension>
        </extensions>
      </trkpt>
      <trkpt lat="42.55850742571055889129638671875" lon="20.0826002843677997589111328125">
        <ele>2170.800048828125</ele>
        <time>2026-06-19T12:14:15.000Z</time>
        <extensions>
          <ns3:TrackPointExtension>
            <ns3:atemp>17.0</ns3:atemp>
          </ns3:TrackPointExtension>
        </extensions>
      </trkpt>
      <trkpt lat="42.55850742571055889129638671875" lon="20.0826002843677997589111328125">
        <ele>2170.800048828125</ele>
        <time>2026-06-19T12:14:16.000Z</time>
        <extensions>
          <ns3:TrackPointExtension>
            <ns3:atemp>17.0</ns3:atemp>
          </ns3:TrackPointExtension>
        </extensions>
      </trkpt>
      <trkpt lat="42.55850742571055889129638671875" lon="20.0826002843677997589111328125">
        <ele>2170.800048828125</ele>
        <time>2026-06-19T12:14:17.000Z</time>
        <extensions>
          <ns3:TrackPointExtension>
            <ns3:atemp>17.0</ns3:atemp>
          </ns3:TrackPointExtension>
        </extensions>
      </trkpt>
      <trkpt lat="42.55850742571055889129638671875" lon="20.0826002843677997589111328125">
        <ele>2170.800048828125</ele>
        <time>2026-06-19T12:14:18.000Z</time>
        <extensions>
          <ns3:TrackPointExtension>
            <ns3:atemp>17.0</ns3:atemp>
          </ns3:TrackPointExtension>
        </extensions>
      </trkpt>
      <trkpt lat="42.55850742571055889129638671875" lon="20.0826002843677997589111328125">
        <ele>2170.800048828125</ele>
        <time>2026-06-19T12:14:19.000Z</time>
        <extensions>
          <ns3:TrackPointExtension>
            <ns3:atemp>17.0</ns3:atemp>
          </ns3:TrackPointExtension>
        </extensions>
      </trkpt>
      <trkpt lat="42.55850742571055889129638671875" lon="20.0826002843677997589111328125">
        <ele>2170.800048828125</ele>
        <time>2026-06-19T12:14:20.000Z</time>
        <extensions>
          <ns3:TrackPointExtension>
            <ns3:atemp>17.0</ns3:atemp>
          </ns3:TrackPointExtension>
        </extensions>
      </trkpt>
      <trkpt lat="42.55850742571055889129638671875" lon="20.0826002843677997589111328125">
        <ele>2170.800048828125</ele>
        <time>2026-06-19T12:14:21.000Z</time>
        <extensions>
          <ns3:TrackPointExtension>
            <ns3:atemp>17.0</ns3:atemp>
          </ns3:TrackPointExtension>
        </extensions>
      </trkpt>
      <trkpt lat="42.55850742571055889129638671875" lon="20.0826002843677997589111328125">
        <ele>2170.800048828125</ele>
        <time>2026-06-19T12:14:22.000Z</time>
        <extensions>
          <ns3:TrackPointExtension>
            <ns3:atemp>17.0</ns3:atemp>
          </ns3:TrackPointExtension>
        </extensions>
      </trkpt>
      <trkpt lat="42.55850742571055889129638671875" lon="20.0826002843677997589111328125">
        <ele>2170.800048828125</ele>
        <time>2026-06-19T12:14:23.000Z</time>
        <extensions>
          <ns3:TrackPointExtension>
            <ns3:atemp>17.0</ns3:atemp>
          </ns3:TrackPointExtension>
        </extensions>
      </trkpt>
      <trkpt lat="42.55850742571055889129638671875" lon="20.0826002843677997589111328125">
        <ele>2170.800048828125</ele>
        <time>2026-06-19T12:14:24.000Z</time>
        <extensions>
          <ns3:TrackPointExtension>
            <ns3:atemp>17.0</ns3:atemp>
          </ns3:TrackPointExtension>
        </extensions>
      </trkpt>
      <trkpt lat="42.55850742571055889129638671875" lon="20.0826002843677997589111328125">
        <ele>2170.60009765625</ele>
        <time>2026-06-19T12:14:25.000Z</time>
        <extensions>
          <ns3:TrackPointExtension>
            <ns3:atemp>17.0</ns3:atemp>
          </ns3:TrackPointExtension>
        </extensions>
      </trkpt>
      <trkpt lat="42.55850742571055889129638671875" lon="20.0826002843677997589111328125">
        <ele>2170.60009765625</ele>
        <time>2026-06-19T12:14:26.000Z</time>
        <extensions>
          <ns3:TrackPointExtension>
            <ns3:atemp>17.0</ns3:atemp>
          </ns3:TrackPointExtension>
        </extensions>
      </trkpt>
      <trkpt lat="42.55850742571055889129638671875" lon="20.0826002843677997589111328125">
        <ele>2170.60009765625</ele>
        <time>2026-06-19T12:14:27.000Z</time>
        <extensions>
          <ns3:TrackPointExtension>
            <ns3:atemp>17.0</ns3:atemp>
          </ns3:TrackPointExtension>
        </extensions>
      </trkpt>
      <trkpt lat="42.55850742571055889129638671875" lon="20.0826002843677997589111328125">
        <ele>2170.60009765625</ele>
        <time>2026-06-19T12:14:28.000Z</time>
        <extensions>
          <ns3:TrackPointExtension>
            <ns3:atemp>17.0</ns3:atemp>
          </ns3:TrackPointExtension>
        </extensions>
      </trkpt>
      <trkpt lat="42.55850742571055889129638671875" lon="20.0826002843677997589111328125">
        <ele>2170.60009765625</ele>
        <time>2026-06-19T12:14:29.000Z</time>
        <extensions>
          <ns3:TrackPointExtension>
            <ns3:atemp>17.0</ns3:atemp>
          </ns3:TrackPointExtension>
        </extensions>
      </trkpt>
      <trkpt lat="42.55850742571055889129638671875" lon="20.0826002843677997589111328125">
        <ele>2170.60009765625</ele>
        <time>2026-06-19T12:14:30.000Z</time>
        <extensions>
          <ns3:TrackPointExtension>
            <ns3:atemp>17.0</ns3:atemp>
          </ns3:TrackPointExtension>
        </extensions>
      </trkpt>
      <trkpt lat="42.55850742571055889129638671875" lon="20.0826002843677997589111328125">
        <ele>2170.60009765625</ele>
        <time>2026-06-19T12:14:31.000Z</time>
        <extensions>
          <ns3:TrackPointExtension>
            <ns3:atemp>17.0</ns3:atemp>
          </ns3:TrackPointExtension>
        </extensions>
      </trkpt>
      <trkpt lat="42.55850742571055889129638671875" lon="20.0826002843677997589111328125">
        <ele>2170.60009765625</ele>
        <time>2026-06-19T12:14:32.000Z</time>
        <extensions>
          <ns3:TrackPointExtension>
            <ns3:atemp>17.0</ns3:atemp>
          </ns3:TrackPointExtension>
        </extensions>
      </trkpt>
      <trkpt lat="42.55850742571055889129638671875" lon="20.0826002843677997589111328125">
        <ele>2170.60009765625</ele>
        <time>2026-06-19T12:14:33.000Z</time>
        <extensions>
          <ns3:TrackPointExtension>
            <ns3:atemp>17.0</ns3:atemp>
          </ns3:TrackPointExtension>
        </extensions>
      </trkpt>
      <trkpt lat="42.55850742571055889129638671875" lon="20.0826002843677997589111328125">
        <ele>2170.60009765625</ele>
        <time>2026-06-19T12:14:34.000Z</time>
        <extensions>
          <ns3:TrackPointExtension>
            <ns3:atemp>17.0</ns3:atemp>
          </ns3:TrackPointExtension>
        </extensions>
      </trkpt>
      <trkpt lat="42.55850742571055889129638671875" lon="20.0826002843677997589111328125">
        <ele>2170.60009765625</ele>
        <time>2026-06-19T12:14:35.000Z</time>
        <extensions>
          <ns3:TrackPointExtension>
            <ns3:atemp>17.0</ns3:atemp>
          </ns3:TrackPointExtension>
        </extensions>
      </trkpt>
      <trkpt lat="42.55850742571055889129638671875" lon="20.0826002843677997589111328125">
        <ele>2170.60009765625</ele>
        <time>2026-06-19T12:14:36.000Z</time>
        <extensions>
          <ns3:TrackPointExtension>
            <ns3:atemp>17.0</ns3:atemp>
          </ns3:TrackPointExtension>
        </extensions>
      </trkpt>
      <trkpt lat="42.55850742571055889129638671875" lon="20.0826002843677997589111328125">
        <ele>2170.60009765625</ele>
        <time>2026-06-19T12:14:37.000Z</time>
        <extensions>
          <ns3:TrackPointExtension>
            <ns3:atemp>17.0</ns3:atemp>
          </ns3:TrackPointExtension>
        </extensions>
      </trkpt>
      <trkpt lat="42.55850742571055889129638671875" lon="20.0826002843677997589111328125">
        <ele>2170.60009765625</ele>
        <time>2026-06-19T12:14:38.000Z</time>
        <extensions>
          <ns3:TrackPointExtension>
            <ns3:atemp>17.0</ns3:atemp>
          </ns3:TrackPointExtension>
        </extensions>
      </trkpt>
      <trkpt lat="42.55850742571055889129638671875" lon="20.0826002843677997589111328125">
        <ele>2170.60009765625</ele>
        <time>2026-06-19T12:14:39.000Z</time>
        <extensions>
          <ns3:TrackPointExtension>
            <ns3:atemp>17.0</ns3:atemp>
          </ns3:TrackPointExtension>
        </extensions>
      </trkpt>
      <trkpt lat="42.55850742571055889129638671875" lon="20.0826002843677997589111328125">
        <ele>2170.60009765625</ele>
        <time>2026-06-19T12:14:40.000Z</time>
        <extensions>
          <ns3:TrackPointExtension>
            <ns3:atemp>17.0</ns3:atemp>
          </ns3:TrackPointExtension>
        </extensions>
      </trkpt>
      <trkpt lat="42.55850742571055889129638671875" lon="20.0826002843677997589111328125">
        <ele>2170.60009765625</ele>
        <time>2026-06-19T12:14:41.000Z</time>
        <extensions>
          <ns3:TrackPointExtension>
            <ns3:atemp>17.0</ns3:atemp>
          </ns3:TrackPointExtension>
        </extensions>
      </trkpt>
      <trkpt lat="42.55850742571055889129638671875" lon="20.0826002843677997589111328125">
        <ele>2170.60009765625</ele>
        <time>2026-06-19T12:14:42.000Z</time>
        <extensions>
          <ns3:TrackPointExtension>
            <ns3:atemp>17.0</ns3:atemp>
          </ns3:TrackPointExtension>
        </extensions>
      </trkpt>
      <trkpt lat="42.55850742571055889129638671875" lon="20.0826002843677997589111328125">
        <ele>2170.60009765625</ele>
        <time>2026-06-19T12:14:43.000Z</time>
        <extensions>
          <ns3:TrackPointExtension>
            <ns3:atemp>17.0</ns3:atemp>
          </ns3:TrackPointExtension>
        </extensions>
      </trkpt>
      <trkpt lat="42.55850742571055889129638671875" lon="20.0826002843677997589111328125">
        <ele>2170.60009765625</ele>
        <time>2026-06-19T12:14:44.000Z</time>
        <extensions>
          <ns3:TrackPointExtension>
            <ns3:atemp>17.0</ns3:atemp>
          </ns3:TrackPointExtension>
        </extensions>
      </trkpt>
      <trkpt lat="42.55850742571055889129638671875" lon="20.0826002843677997589111328125">
        <ele>2170.60009765625</ele>
        <time>2026-06-19T12:14:45.000Z</time>
        <extensions>
          <ns3:TrackPointExtension>
            <ns3:atemp>17.0</ns3:atemp>
          </ns3:TrackPointExtension>
        </extensions>
      </trkpt>
      <trkpt lat="42.55850742571055889129638671875" lon="20.0826002843677997589111328125">
        <ele>2170.60009765625</ele>
        <time>2026-06-19T12:14:46.000Z</time>
        <extensions>
          <ns3:TrackPointExtension>
            <ns3:atemp>17.0</ns3:atemp>
          </ns3:TrackPointExtension>
        </extensions>
      </trkpt>
      <trkpt lat="42.55850742571055889129638671875" lon="20.0826002843677997589111328125">
        <ele>2170.60009765625</ele>
        <time>2026-06-19T12:14:47.000Z</time>
        <extensions>
          <ns3:TrackPointExtension>
            <ns3:atemp>17.0</ns3:atemp>
          </ns3:TrackPointExtension>
        </extensions>
      </trkpt>
      <trkpt lat="42.55850742571055889129638671875" lon="20.0826002843677997589111328125">
        <ele>2170.60009765625</ele>
        <time>2026-06-19T12:14:48.000Z</time>
        <extensions>
          <ns3:TrackPointExtension>
            <ns3:atemp>17.0</ns3:atemp>
          </ns3:TrackPointExtension>
        </extensions>
      </trkpt>
      <trkpt lat="42.55850742571055889129638671875" lon="20.0826002843677997589111328125">
        <ele>2170.60009765625</ele>
        <time>2026-06-19T12:14:49.000Z</time>
        <extensions>
          <ns3:TrackPointExtension>
            <ns3:atemp>17.0</ns3:atemp>
          </ns3:TrackPointExtension>
        </extensions>
      </trkpt>
      <trkpt lat="42.55850742571055889129638671875" lon="20.0826002843677997589111328125">
        <ele>2170.60009765625</ele>
        <time>2026-06-19T12:14:50.000Z</time>
        <extensions>
          <ns3:TrackPointExtension>
            <ns3:atemp>17.0</ns3:atemp>
          </ns3:TrackPointExtension>
        </extensions>
      </trkpt>
      <trkpt lat="42.55850742571055889129638671875" lon="20.0826002843677997589111328125">
        <ele>2170.60009765625</ele>
        <time>2026-06-19T12:14:51.000Z</time>
        <extensions>
          <ns3:TrackPointExtension>
            <ns3:atemp>17.0</ns3:atemp>
          </ns3:TrackPointExtension>
        </extensions>
      </trkpt>
      <trkpt lat="42.55850742571055889129638671875" lon="20.0826002843677997589111328125">
        <ele>2170.60009765625</ele>
        <time>2026-06-19T12:14:52.000Z</time>
        <extensions>
          <ns3:TrackPointExtension>
            <ns3:atemp>17.0</ns3:atemp>
          </ns3:TrackPointExtension>
        </extensions>
      </trkpt>
      <trkpt lat="42.55850742571055889129638671875" lon="20.0826002843677997589111328125">
        <ele>2170.60009765625</ele>
        <time>2026-06-19T12:14:53.000Z</time>
        <extensions>
          <ns3:TrackPointExtension>
            <ns3:atemp>17.0</ns3:atemp>
          </ns3:TrackPointExtension>
        </extensions>
      </trkpt>
      <trkpt lat="42.55850742571055889129638671875" lon="20.0826002843677997589111328125">
        <ele>2170.60009765625</ele>
        <time>2026-06-19T12:14:54.000Z</time>
        <extensions>
          <ns3:TrackPointExtension>
            <ns3:atemp>17.0</ns3:atemp>
          </ns3:TrackPointExtension>
        </extensions>
      </trkpt>
      <trkpt lat="42.55850742571055889129638671875" lon="20.0826002843677997589111328125">
        <ele>2170.60009765625</ele>
        <time>2026-06-19T12:14:55.000Z</time>
        <extensions>
          <ns3:TrackPointExtension>
            <ns3:atemp>17.0</ns3:atemp>
          </ns3:TrackPointExtension>
        </extensions>
      </trkpt>
      <trkpt lat="42.55850742571055889129638671875" lon="20.0826002843677997589111328125">
        <ele>2170.60009765625</ele>
        <time>2026-06-19T12:14:56.000Z</time>
        <extensions>
          <ns3:TrackPointExtension>
            <ns3:atemp>17.0</ns3:atemp>
          </ns3:TrackPointExtension>
        </extensions>
      </trkpt>
      <trkpt lat="42.55850742571055889129638671875" lon="20.0826002843677997589111328125">
        <ele>2170.60009765625</ele>
        <time>2026-06-19T12:14:57.000Z</time>
        <extensions>
          <ns3:TrackPointExtension>
            <ns3:atemp>17.0</ns3:atemp>
          </ns3:TrackPointExtension>
        </extensions>
      </trkpt>
      <trkpt lat="42.55850742571055889129638671875" lon="20.0826002843677997589111328125">
        <ele>2170.60009765625</ele>
        <time>2026-06-19T12:14:58.000Z</time>
        <extensions>
          <ns3:TrackPointExtension>
            <ns3:atemp>17.0</ns3:atemp>
          </ns3:TrackPointExtension>
        </extensions>
      </trkpt>
      <trkpt lat="42.55850742571055889129638671875" lon="20.0826002843677997589111328125">
        <ele>2170.60009765625</ele>
        <time>2026-06-19T12:14:59.000Z</time>
        <extensions>
          <ns3:TrackPointExtension>
            <ns3:atemp>17.0</ns3:atemp>
          </ns3:TrackPointExtension>
        </extensions>
      </trkpt>
      <trkpt lat="42.55850742571055889129638671875" lon="20.0826002843677997589111328125">
        <ele>2170.60009765625</ele>
        <time>2026-06-19T12:15:00.000Z</time>
        <extensions>
          <ns3:TrackPointExtension>
            <ns3:atemp>17.0</ns3:atemp>
          </ns3:TrackPointExtension>
        </extensions>
      </trkpt>
      <trkpt lat="42.55850742571055889129638671875" lon="20.0826002843677997589111328125">
        <ele>2170.60009765625</ele>
        <time>2026-06-19T12:15:01.000Z</time>
        <extensions>
          <ns3:TrackPointExtension>
            <ns3:atemp>17.0</ns3:atemp>
          </ns3:TrackPointExtension>
        </extensions>
      </trkpt>
      <trkpt lat="42.55850742571055889129638671875" lon="20.0826002843677997589111328125">
        <ele>2170.60009765625</ele>
        <time>2026-06-19T12:15:02.000Z</time>
        <extensions>
          <ns3:TrackPointExtension>
            <ns3:atemp>17.0</ns3:atemp>
          </ns3:TrackPointExtension>
        </extensions>
      </trkpt>
      <trkpt lat="42.55850742571055889129638671875" lon="20.0826002843677997589111328125">
        <ele>2170.60009765625</ele>
        <time>2026-06-19T12:15:03.000Z</time>
        <extensions>
          <ns3:TrackPointExtension>
            <ns3:atemp>17.0</ns3:atemp>
          </ns3:TrackPointExtension>
        </extensions>
      </trkpt>
      <trkpt lat="42.55850742571055889129638671875" lon="20.0826002843677997589111328125">
        <ele>2170.60009765625</ele>
        <time>2026-06-19T12:15:04.000Z</time>
        <extensions>
          <ns3:TrackPointExtension>
            <ns3:atemp>17.0</ns3:atemp>
          </ns3:TrackPointExtension>
        </extensions>
      </trkpt>
      <trkpt lat="42.55850742571055889129638671875" lon="20.0826002843677997589111328125">
        <ele>2170.60009765625</ele>
        <time>2026-06-19T12:15:05.000Z</time>
        <extensions>
          <ns3:TrackPointExtension>
            <ns3:atemp>17.0</ns3:atemp>
          </ns3:TrackPointExtension>
        </extensions>
      </trkpt>
      <trkpt lat="42.55850742571055889129638671875" lon="20.0826002843677997589111328125">
        <ele>2170.60009765625</ele>
        <time>2026-06-19T12:15:06.000Z</time>
        <extensions>
          <ns3:TrackPointExtension>
            <ns3:atemp>17.0</ns3:atemp>
          </ns3:TrackPointExtension>
        </extensions>
      </trkpt>
      <trkpt lat="42.55850742571055889129638671875" lon="20.0826002843677997589111328125">
        <ele>2170.60009765625</ele>
        <time>2026-06-19T12:15:07.000Z</time>
        <extensions>
          <ns3:TrackPointExtension>
            <ns3:atemp>17.0</ns3:atemp>
          </ns3:TrackPointExtension>
        </extensions>
      </trkpt>
      <trkpt lat="42.55850742571055889129638671875" lon="20.0826002843677997589111328125">
        <ele>2170.60009765625</ele>
        <time>2026-06-19T12:15:08.000Z</time>
        <extensions>
          <ns3:TrackPointExtension>
            <ns3:atemp>17.0</ns3:atemp>
          </ns3:TrackPointExtension>
        </extensions>
      </trkpt>
      <trkpt lat="42.55850742571055889129638671875" lon="20.0826002843677997589111328125">
        <ele>2170.60009765625</ele>
        <time>2026-06-19T12:15:09.000Z</time>
        <extensions>
          <ns3:TrackPointExtension>
            <ns3:atemp>17.0</ns3:atemp>
          </ns3:TrackPointExtension>
        </extensions>
      </trkpt>
      <trkpt lat="42.55850742571055889129638671875" lon="20.0826002843677997589111328125">
        <ele>2170.60009765625</ele>
        <time>2026-06-19T12:15:10.000Z</time>
        <extensions>
          <ns3:TrackPointExtension>
            <ns3:atemp>17.0</ns3:atemp>
          </ns3:TrackPointExtension>
        </extensions>
      </trkpt>
      <trkpt lat="42.55850641988217830657958984375" lon="20.0825965963304042816162109375">
        <ele>2170.60009765625</ele>
        <time>2026-06-19T12:15:11.000Z</time>
        <extensions>
          <ns3:TrackPointExtension>
            <ns3:atemp>17.0</ns3:atemp>
          </ns3:TrackPointExtension>
        </extensions>
      </trkpt>
      <trkpt lat="42.55851144902408123016357421875" lon="20.08259919472038745880126953125">
        <ele>2170.60009765625</ele>
        <time>2026-06-19T12:15:12.000Z</time>
        <extensions>
          <ns3:TrackPointExtension>
            <ns3:atemp>17.0</ns3:atemp>
          </ns3:TrackPointExtension>
        </extensions>
      </trkpt>
      <trkpt lat="42.55851949565112590789794921875" lon="20.08260841481387615203857421875">
        <ele>2170.60009765625</ele>
        <time>2026-06-19T12:15:13.000Z</time>
        <extensions>
          <ns3:TrackPointExtension>
            <ns3:atemp>17.0</ns3:atemp>
          </ns3:TrackPointExtension>
        </extensions>
      </trkpt>
      <trkpt lat="42.55853273905813694000244140625" lon="20.082625262439250946044921875">
        <ele>2170.800048828125</ele>
        <time>2026-06-19T12:15:14.000Z</time>
        <extensions>
          <ns3:TrackPointExtension>
            <ns3:atemp>17.0</ns3:atemp>
          </ns3:TrackPointExtension>
        </extensions>
      </trkpt>
      <trkpt lat="42.5585569627583026885986328125" lon="20.082651078701019287109375">
        <ele>2170.60009765625</ele>
        <time>2026-06-19T12:15:15.000Z</time>
        <extensions>
          <ns3:TrackPointExtension>
            <ns3:atemp>17.0</ns3:atemp>
          </ns3:TrackPointExtension>
        </extensions>
      </trkpt>
      <trkpt lat="42.5585894845426082611083984375" lon="20.08268217556178569793701171875">
        <ele>2170.39990234375</ele>
        <time>2026-06-19T12:15:16.000Z</time>
        <extensions>
          <ns3:TrackPointExtension>
            <ns3:atemp>17.0</ns3:atemp>
          </ns3:TrackPointExtension>
        </extensions>
      </trkpt>
      <trkpt lat="42.5586199946701526641845703125" lon="20.08271880447864532470703125">
        <ele>2170.199951171875</ele>
        <time>2026-06-19T12:15:17.000Z</time>
        <extensions>
          <ns3:TrackPointExtension>
            <ns3:atemp>17.0</ns3:atemp>
          </ns3:TrackPointExtension>
        </extensions>
      </trkpt>
      <trkpt lat="42.5586494989693164825439453125" lon="20.08275895379483699798583984375">
        <ele>2169.800048828125</ele>
        <time>2026-06-19T12:15:18.000Z</time>
        <extensions>
          <ns3:TrackPointExtension>
            <ns3:atemp>17.0</ns3:atemp>
          </ns3:TrackPointExtension>
        </extensions>
      </trkpt>
      <trkpt lat="42.55868218839168548583984375" lon="20.082795917987823486328125">
        <ele>2169.39990234375</ele>
        <time>2026-06-19T12:15:19.000Z</time>
        <extensions>
          <ns3:TrackPointExtension>
            <ns3:atemp>17.0</ns3:atemp>
          </ns3:TrackPointExtension>
        </extensions>
      </trkpt>
      <trkpt lat="42.55871764384210109710693359375" lon="20.08284084498882293701171875">
        <ele>2168.800048828125</ele>
        <time>2026-06-19T12:15:20.000Z</time>
        <extensions>
          <ns3:TrackPointExtension>
            <ns3:atemp>17.0</ns3:atemp>
          </ns3:TrackPointExtension>
        </extensions>
      </trkpt>
      <trkpt lat="42.55875586532056331634521484375" lon="20.0828909687697887420654296875">
        <ele>2168.199951171875</ele>
        <time>2026-06-19T12:15:21.000Z</time>
        <extensions>
          <ns3:TrackPointExtension>
            <ns3:atemp>17.0</ns3:atemp>
          </ns3:TrackPointExtension>
        </extensions>
      </trkpt>
      <trkpt lat="42.55879291333258152008056640625" lon="20.08294788189232349395751953125">
        <ele>2167.60009765625</ele>
        <time>2026-06-19T12:15:22.000Z</time>
        <extensions>
          <ns3:TrackPointExtension>
            <ns3:atemp>17.0</ns3:atemp>
          </ns3:TrackPointExtension>
        </extensions>
      </trkpt>
      <trkpt lat="42.55883297882974147796630859375" lon="20.08300219662487506866455078125">
        <ele>2166.800048828125</ele>
        <time>2026-06-19T12:15:23.000Z</time>
        <extensions>
          <ns3:TrackPointExtension>
            <ns3:atemp>17.0</ns3:atemp>
          </ns3:TrackPointExtension>
        </extensions>
      </trkpt>
      <trkpt lat="42.55887069739401340484619140625" lon="20.08305835537612438201904296875">
        <ele>2166</ele>
        <time>2026-06-19T12:15:24.000Z</time>
        <extensions>
          <ns3:TrackPointExtension>
            <ns3:atemp>17.0</ns3:atemp>
          </ns3:TrackPointExtension>
        </extensions>
      </trkpt>
      <trkpt lat="42.55890858359634876251220703125" lon="20.08311568759381771087646484375">
        <ele>2165.800048828125</ele>
        <time>2026-06-19T12:15:25.000Z</time>
        <extensions>
          <ns3:TrackPointExtension>
            <ns3:atemp>17.0</ns3:atemp>
          </ns3:TrackPointExtension>
        </extensions>
      </trkpt>
      <trkpt lat="42.5589411891996860504150390625" lon="20.0831635482609272003173828125">
        <ele>2165.199951171875</ele>
        <time>2026-06-19T12:15:26.000Z</time>
        <extensions>
          <ns3:TrackPointExtension>
            <ns3:atemp>17.0</ns3:atemp>
          </ns3:TrackPointExtension>
        </extensions>
      </trkpt>
      <trkpt lat="42.55897161550819873809814453125" lon="20.08321811445057392120361328125">
        <ele>2164.60009765625</ele>
        <time>2026-06-19T12:15:27.000Z</time>
        <extensions>
          <ns3:TrackPointExtension>
            <ns3:atemp>17.0</ns3:atemp>
          </ns3:TrackPointExtension>
        </extensions>
      </trkpt>
      <trkpt lat="42.55900111980736255645751953125" lon="20.0832738541066646575927734375">
        <ele>2163.800048828125</ele>
        <time>2026-06-19T12:15:28.000Z</time>
        <extensions>
          <ns3:TrackPointExtension>
            <ns3:atemp>17.0</ns3:atemp>
          </ns3:TrackPointExtension>
        </extensions>
      </trkpt>
      <trkpt lat="42.5590263493359088897705078125" lon="20.083329677581787109375">
        <ele>2163.199951171875</ele>
        <time>2026-06-19T12:15:29.000Z</time>
        <extensions>
          <ns3:TrackPointExtension>
            <ns3:atemp>17.0</ns3:atemp>
          </ns3:TrackPointExtension>
        </extensions>
      </trkpt>
      <trkpt lat="42.55905560217797756195068359375" lon="20.0833952240645885467529296875">
        <ele>2162.60009765625</ele>
        <time>2026-06-19T12:15:30.000Z</time>
        <extensions>
          <ns3:TrackPointExtension>
            <ns3:atemp>17.0</ns3:atemp>
          </ns3:TrackPointExtension>
        </extensions>
      </trkpt>
      <trkpt lat="42.5590652413666248321533203125" lon="20.08347225375473499298095703125">
        <ele>2161.60009765625</ele>
        <time>2026-06-19T12:15:31.000Z</time>
        <extensions>
          <ns3:TrackPointExtension>
            <ns3:atemp>17.0</ns3:atemp>
          </ns3:TrackPointExtension>
        </extensions>
      </trkpt>
      <trkpt lat="42.55906465463340282440185546875" lon="20.08354534395039081573486328125">
        <ele>2160.800048828125</ele>
        <time>2026-06-19T12:15:32.000Z</time>
        <extensions>
          <ns3:TrackPointExtension>
            <ns3:atemp>17.0</ns3:atemp>
          </ns3:TrackPointExtension>
        </extensions>
      </trkpt>
      <trkpt lat="42.5590568594634532928466796875" lon="20.083600580692291259765625">
        <ele>2160</ele>
        <time>2026-06-19T12:15:33.000Z</time>
        <extensions>
          <ns3:TrackPointExtension>
            <ns3:atemp>17.0</ns3:atemp>
          </ns3:TrackPointExtension>
        </extensions>
      </trkpt>
      <trkpt lat="42.559049315750598907470703125" lon="20.0836463458836078643798828125">
        <ele>2159.199951171875</ele>
        <time>2026-06-19T12:15:34.000Z</time>
        <extensions>
          <ns3:TrackPointExtension>
            <ns3:atemp>17.0</ns3:atemp>
          </ns3:TrackPointExtension>
        </extensions>
      </trkpt>
      <trkpt lat="42.55904353223741054534912109375" lon="20.083690099418163299560546875">
        <ele>2158.39990234375</ele>
        <time>2026-06-19T12:15:35.000Z</time>
        <extensions>
          <ns3:TrackPointExtension>
            <ns3:atemp>17.0</ns3:atemp>
          </ns3:TrackPointExtension>
        </extensions>
      </trkpt>
      <trkpt lat="42.55904202349483966827392578125" lon="20.083725638687610626220703125">
        <ele>2157.800048828125</ele>
        <time>2026-06-19T12:15:36.000Z</time>
        <extensions>
          <ns3:TrackPointExtension>
            <ns3:atemp>17.0</ns3:atemp>
          </ns3:TrackPointExtension>
        </extensions>
      </trkpt>
      <trkpt lat="42.55904428660869598388671875" lon="20.0837532989680767059326171875">
        <ele>2157.39990234375</ele>
        <time>2026-06-19T12:15:37.000Z</time>
        <extensions>
          <ns3:TrackPointExtension>
            <ns3:atemp>17.0</ns3:atemp>
          </ns3:TrackPointExtension>
        </extensions>
      </trkpt>
      <trkpt lat="42.559053003787994384765625" lon="20.083775259554386138916015625">
        <ele>2157</ele>
        <time>2026-06-19T12:15:38.000Z</time>
        <extensions>
          <ns3:TrackPointExtension>
            <ns3:atemp>17.0</ns3:atemp>
          </ns3:TrackPointExtension>
        </extensions>
      </trkpt>
      <trkpt lat="42.55906431935727596282958984375" lon="20.0838045962154865264892578125">
        <ele>2156.800048828125</ele>
        <time>2026-06-19T12:15:39.000Z</time>
        <extensions>
          <ns3:TrackPointExtension>
            <ns3:atemp>17.0</ns3:atemp>
          </ns3:TrackPointExtension>
        </extensions>
      </trkpt>
      <trkpt lat="42.5590709410607814788818359375" lon="20.0838280655443668365478515625">
        <ele>2156.60009765625</ele>
        <time>2026-06-19T12:15:40.000Z</time>
        <extensions>
          <ns3:TrackPointExtension>
            <ns3:atemp>17.0</ns3:atemp>
          </ns3:TrackPointExtension>
        </extensions>
      </trkpt>
      <trkpt lat="42.55907437764108180999755859375" lon="20.0838538818061351776123046875">
        <ele>2156.39990234375</ele>
        <time>2026-06-19T12:15:41.000Z</time>
        <extensions>
          <ns3:TrackPointExtension>
            <ns3:atemp>17.0</ns3:atemp>
          </ns3:TrackPointExtension>
        </extensions>
      </trkpt>
      <trkpt lat="42.55908317863941192626953125" lon="20.08388824760913848876953125">
        <ele>2156.39990234375</ele>
        <time>2026-06-19T12:15:42.000Z</time>
        <extensions>
          <ns3:TrackPointExtension>
            <ns3:atemp>17.0</ns3:atemp>
          </ns3:TrackPointExtension>
        </extensions>
      </trkpt>
      <trkpt lat="42.55909164436161518096923828125" lon="20.0839202664792537689208984375">
        <ele>2156.199951171875</ele>
        <time>2026-06-19T12:15:43.000Z</time>
        <extensions>
          <ns3:TrackPointExtension>
            <ns3:atemp>17.0</ns3:atemp>
          </ns3:TrackPointExtension>
        </extensions>
      </trkpt>
      <trkpt lat="42.55909524857997894287109375" lon="20.08394851349294185638427734375">
        <ele>2156.199951171875</ele>
        <time>2026-06-19T12:15:44.000Z</time>
        <extensions>
          <ns3:TrackPointExtension>
            <ns3:atemp>17.0</ns3:atemp>
          </ns3:TrackPointExtension>
        </extensions>
      </trkpt>
      <trkpt lat="42.55909550003707408905029296875" lon="20.0839789398014545440673828125">
        <ele>2156.199951171875</ele>
        <time>2026-06-19T12:15:45.000Z</time>
        <extensions>
          <ns3:TrackPointExtension>
            <ns3:atemp>17.0</ns3:atemp>
          </ns3:TrackPointExtension>
        </extensions>
      </trkpt>
      <trkpt lat="42.55909717641770839691162109375" lon="20.084004588425159454345703125">
        <ele>2156</ele>
        <time>2026-06-19T12:15:46.000Z</time>
        <extensions>
          <ns3:TrackPointExtension>
            <ns3:atemp>17.0</ns3:atemp>
          </ns3:TrackPointExtension>
        </extensions>
      </trkpt>
      <trkpt lat="42.5590997748076915740966796875" lon="20.084029734134674072265625">
        <ele>2156</ele>
        <time>2026-06-19T12:15:47.000Z</time>
        <extensions>
          <ns3:TrackPointExtension>
            <ns3:atemp>17.0</ns3:atemp>
          </ns3:TrackPointExtension>
        </extensions>
      </trkpt>
      <trkpt lat="42.55910731852054595947265625" lon="20.08406250737607479095458984375">
        <ele>2156</ele>
        <time>2026-06-19T12:15:48.000Z</time>
        <extensions>
          <ns3:TrackPointExtension>
            <ns3:atemp>17.0</ns3:atemp>
          </ns3:TrackPointExtension>
        </extensions>
      </trkpt>
      <trkpt lat="42.55912148393690586090087890625" lon="20.08409477770328521728515625">
        <ele>2155.800048828125</ele>
        <time>2026-06-19T12:15:49.000Z</time>
        <extensions>
          <ns3:TrackPointExtension>
            <ns3:atemp>17.0</ns3:atemp>
          </ns3:TrackPointExtension>
        </extensions>
      </trkpt>
      <trkpt lat="42.55913724191486835479736328125" lon="20.0841194204986095428466796875">
        <ele>2155.800048828125</ele>
        <time>2026-06-19T12:15:50.000Z</time>
        <extensions>
          <ns3:TrackPointExtension>
            <ns3:atemp>17.0</ns3:atemp>
          </ns3:TrackPointExtension>
        </extensions>
      </trkpt>
      <trkpt lat="42.55915216170251369476318359375" lon="20.08414766751229763031005859375">
        <ele>2156</ele>
        <time>2026-06-19T12:15:51.000Z</time>
        <extensions>
          <ns3:TrackPointExtension>
            <ns3:atemp>17.0</ns3:atemp>
          </ns3:TrackPointExtension>
        </extensions>
      </trkpt>
      <trkpt lat="42.55915903486311435699462890625" lon="20.08417214266955852508544921875">
        <ele>2156.199951171875</ele>
        <time>2026-06-19T12:15:52.000Z</time>
        <extensions>
          <ns3:TrackPointExtension>
            <ns3:atemp>17.0</ns3:atemp>
          </ns3:TrackPointExtension>
        </extensions>
      </trkpt>
      <trkpt lat="42.5591654889285564422607421875" lon="20.08419477380812168121337890625">
        <ele>2156.39990234375</ele>
        <time>2026-06-19T12:15:53.000Z</time>
        <extensions>
          <ns3:TrackPointExtension>
            <ns3:atemp>17.0</ns3:atemp>
          </ns3:TrackPointExtension>
        </extensions>
      </trkpt>
      <trkpt lat="42.55917076952755451202392578125" lon="20.084217488765716552734375">
        <ele>2156.39990234375</ele>
        <time>2026-06-19T12:15:54.000Z</time>
        <extensions>
          <ns3:TrackPointExtension>
            <ns3:atemp>17.0</ns3:atemp>
          </ns3:TrackPointExtension>
        </extensions>
      </trkpt>
      <trkpt lat="42.55917395465075969696044921875" lon="20.0842303968966007232666015625">
        <ele>2156.39990234375</ele>
        <time>2026-06-19T12:15:55.000Z</time>
        <extensions>
          <ns3:TrackPointExtension>
            <ns3:atemp>17.0</ns3:atemp>
          </ns3:TrackPointExtension>
        </extensions>
      </trkpt>
      <trkpt lat="42.55917764268815517425537109375" lon="20.084247328341007232666015625">
        <ele>2156.39990234375</ele>
        <time>2026-06-19T12:15:56.000Z</time>
        <extensions>
          <ns3:TrackPointExtension>
            <ns3:atemp>17.0</ns3:atemp>
          </ns3:TrackPointExtension>
        </extensions>
      </trkpt>
      <trkpt lat="42.55918619222939014434814453125" lon="20.0842753238976001739501953125">
        <ele>2156.39990234375</ele>
        <time>2026-06-19T12:15:57.000Z</time>
        <extensions>
          <ns3:TrackPointExtension>
            <ns3:atemp>17.0</ns3:atemp>
          </ns3:TrackPointExtension>
        </extensions>
      </trkpt>
      <trkpt lat="42.55919323302805423736572265625" lon="20.08430792950093746185302734375">
        <ele>2156.199951171875</ele>
        <time>2026-06-19T12:15:58.000Z</time>
        <extensions>
          <ns3:TrackPointExtension>
            <ns3:atemp>17.0</ns3:atemp>
          </ns3:TrackPointExtension>
        </extensions>
      </trkpt>
      <trkpt lat="42.5592003576457500457763671875" lon="20.0843390263617038726806640625">
        <ele>2156</ele>
        <time>2026-06-19T12:15:59.000Z</time>
        <extensions>
          <ns3:TrackPointExtension>
            <ns3:atemp>17.0</ns3:atemp>
          </ns3:TrackPointExtension>
        </extensions>
      </trkpt>
      <trkpt lat="42.5592043809592723846435546875" lon="20.084366016089916229248046875">
        <ele>2156</ele>
        <time>2026-06-19T12:16:00.000Z</time>
        <extensions>
          <ns3:TrackPointExtension>
            <ns3:atemp>17.0</ns3:atemp>
          </ns3:TrackPointExtension>
        </extensions>
      </trkpt>
      <trkpt lat="42.55920396186411380767822265625" lon="20.0843852944672107696533203125">
        <ele>2155.800048828125</ele>
        <time>2026-06-19T12:16:01.000Z</time>
        <extensions>
          <ns3:TrackPointExtension>
            <ns3:atemp>17.0</ns3:atemp>
          </ns3:TrackPointExtension>
        </extensions>
      </trkpt>
      <trkpt lat="42.55920480005443096160888671875" lon="20.08440633304417133331298828125">
        <ele>2155.60009765625</ele>
        <time>2026-06-19T12:16:02.000Z</time>
        <extensions>
          <ns3:TrackPointExtension>
            <ns3:atemp>17.0</ns3:atemp>
          </ns3:TrackPointExtension>
        </extensions>
      </trkpt>
      <trkpt lat="42.55920563824474811553955078125" lon="20.08442728780210018157958984375">
        <ele>2155.60009765625</ele>
        <time>2026-06-19T12:16:03.000Z</time>
        <extensions>
          <ns3:TrackPointExtension>
            <ns3:atemp>17.0</ns3:atemp>
          </ns3:TrackPointExtension>
        </extensions>
      </trkpt>
      <trkpt lat="42.5592110864818096160888671875" lon="20.0844446383416652679443359375">
        <ele>2155.60009765625</ele>
        <time>2026-06-19T12:16:04.000Z</time>
        <extensions>
          <ns3:TrackPointExtension>
            <ns3:atemp>17.0</ns3:atemp>
          </ns3:TrackPointExtension>
        </extensions>
      </trkpt>
      <trkpt lat="42.5592174567282199859619140625" lon="20.0844694487750530242919921875">
        <ele>2155.60009765625</ele>
        <time>2026-06-19T12:16:05.000Z</time>
        <extensions>
          <ns3:TrackPointExtension>
            <ns3:atemp>17.0</ns3:atemp>
          </ns3:TrackPointExtension>
        </extensions>
      </trkpt>
      <trkpt lat="42.5592144392430782318115234375" lon="20.08448579348623752593994140625">
        <ele>2155.39990234375</ele>
        <time>2026-06-19T12:16:06.000Z</time>
        <extensions>
          <ns3:TrackPointExtension>
            <ns3:atemp>17.0</ns3:atemp>
          </ns3:TrackPointExtension>
        </extensions>
      </trkpt>
      <trkpt lat="42.5592124275863170623779296875" lon="20.08450389839708805084228515625">
        <ele>2155.199951171875</ele>
        <time>2026-06-19T12:16:07.000Z</time>
        <extensions>
          <ns3:TrackPointExtension>
            <ns3:atemp>17.0</ns3:atemp>
          </ns3:TrackPointExtension>
        </extensions>
      </trkpt>
      <trkpt lat="42.55920714698731899261474609375" lon="20.0845194049179553985595703125">
        <ele>2155</ele>
        <time>2026-06-19T12:16:08.000Z</time>
        <extensions>
          <ns3:TrackPointExtension>
            <ns3:atemp>17.0</ns3:atemp>
          </ns3:TrackPointExtension>
        </extensions>
      </trkpt>
      <trkpt lat="42.5591956637799739837646484375" lon="20.084532313048839569091796875">
        <ele>2154.60009765625</ele>
        <time>2026-06-19T12:16:09.000Z</time>
        <extensions>
          <ns3:TrackPointExtension>
            <ns3:atemp>17.0</ns3:atemp>
          </ns3:TrackPointExtension>
        </extensions>
      </trkpt>
      <trkpt lat="42.5591815821826457977294921875" lon="20.0845401920378208160400390625">
        <ele>2154.39990234375</ele>
        <time>2026-06-19T12:16:10.000Z</time>
        <extensions>
          <ns3:TrackPointExtension>
            <ns3:atemp>17.0</ns3:atemp>
          </ns3:TrackPointExtension>
        </extensions>
      </trkpt>
      <trkpt lat="42.559157945215702056884765625" lon="20.08454815484583377838134765625">
        <ele>2154</ele>
        <time>2026-06-19T12:16:11.000Z</time>
        <extensions>
          <ns3:TrackPointExtension>
            <ns3:atemp>17.0</ns3:atemp>
          </ns3:TrackPointExtension>
        </extensions>
      </trkpt>
      <trkpt lat="42.5591306202113628387451171875" lon="20.08454916067421436309814453125">
        <ele>2153.60009765625</ele>
        <time>2026-06-19T12:16:12.000Z</time>
        <extensions>
          <ns3:TrackPointExtension>
            <ns3:atemp>17.0</ns3:atemp>
          </ns3:TrackPointExtension>
        </extensions>
      </trkpt>
      <trkpt lat="42.55909985862672328948974609375" lon="20.084557123482227325439453125">
        <ele>2153.199951171875</ele>
        <time>2026-06-19T12:16:13.000Z</time>
        <extensions>
          <ns3:TrackPointExtension>
            <ns3:atemp>17.0</ns3:atemp>
          </ns3:TrackPointExtension>
        </extensions>
      </trkpt>
      <trkpt lat="42.5590702705085277557373046875" lon="20.084582604467868804931640625">
        <ele>2152.800048828125</ele>
        <time>2026-06-19T12:16:14.000Z</time>
        <extensions>
          <ns3:TrackPointExtension>
            <ns3:atemp>17.0</ns3:atemp>
          </ns3:TrackPointExtension>
        </extensions>
      </trkpt>
      <trkpt lat="42.55903950892388820648193359375" lon="20.08460213430225849151611328125">
        <ele>2152.39990234375</ele>
        <time>2026-06-19T12:16:15.000Z</time>
        <extensions>
          <ns3:TrackPointExtension>
            <ns3:atemp>17.0</ns3:atemp>
          </ns3:TrackPointExtension>
        </extensions>
      </trkpt>
      <trkpt lat="42.5590169616043567657470703125" lon="20.0846211612224578857421875">
        <ele>2152</ele>
        <time>2026-06-19T12:16:16.000Z</time>
        <extensions>
          <ns3:TrackPointExtension>
            <ns3:atemp>17.0</ns3:atemp>
          </ns3:TrackPointExtension>
        </extensions>
      </trkpt>
      <trkpt lat="42.559008412063121795654296875" lon="20.0846360810101032257080078125">
        <ele>2151.60009765625</ele>
        <time>2026-06-19T12:16:17.000Z</time>
        <extensions>
          <ns3:TrackPointExtension>
            <ns3:atemp>17.0</ns3:atemp>
          </ns3:TrackPointExtension>
        </extensions>
      </trkpt>
      <trkpt lat="42.5590045563876628875732421875" lon="20.0846493244171142578125">
        <ele>2151.199951171875</ele>
        <time>2026-06-19T12:16:18.000Z</time>
        <extensions>
          <ns3:TrackPointExtension>
            <ns3:atemp>17.0</ns3:atemp>
          </ns3:TrackPointExtension>
        </extensions>
      </trkpt>
      <trkpt lat="42.5590087473392486572265625" lon="20.08466399274766445159912109375">
        <ele>2151</ele>
        <time>2026-06-19T12:16:19.000Z</time>
        <extensions>
          <ns3:TrackPointExtension>
            <ns3:atemp>17.0</ns3:atemp>
          </ns3:TrackPointExtension>
        </extensions>
      </trkpt>
      <trkpt lat="42.55902542732656002044677734375" lon="20.0846766494214534759521484375">
        <ele>2150.800048828125</ele>
        <time>2026-06-19T12:16:20.000Z</time>
        <extensions>
          <ns3:TrackPointExtension>
            <ns3:atemp>17.0</ns3:atemp>
          </ns3:TrackPointExtension>
        </extensions>
      </trkpt>
      <trkpt lat="42.55905191414058208465576171875" lon="20.08468830026686191558837890625">
        <ele>2150.60009765625</ele>
        <time>2026-06-19T12:16:21.000Z</time>
        <extensions>
          <ns3:TrackPointExtension>
            <ns3:atemp>17.0</ns3:atemp>
          </ns3:TrackPointExtension>
        </extensions>
      </trkpt>
      <trkpt lat="42.55908787250518798828125" lon="20.08470171131193637847900390625">
        <ele>2150</ele>
        <time>2026-06-19T12:16:22.000Z</time>
        <extensions>
          <ns3:TrackPointExtension>
            <ns3:atemp>17.0</ns3:atemp>
          </ns3:TrackPointExtension>
        </extensions>
      </trkpt>
      <trkpt lat="42.5591276027262210845947265625" lon="20.0847177207469940185546875">
        <ele>2149.39990234375</ele>
        <time>2026-06-19T12:16:23.000Z</time>
        <extensions>
          <ns3:TrackPointExtension>
            <ns3:atemp>17.0</ns3:atemp>
          </ns3:TrackPointExtension>
        </extensions>
      </trkpt>
      <trkpt lat="42.55916590802371501922607421875" lon="20.08473448455333709716796875">
        <ele>2149</ele>
        <time>2026-06-19T12:16:24.000Z</time>
        <extensions>
          <ns3:TrackPointExtension>
            <ns3:atemp>17.0</ns3:atemp>
          </ns3:TrackPointExtension>
        </extensions>
      </trkpt>
      <trkpt lat="42.55920563824474811553955078125" lon="20.08474898524582386016845703125">
        <ele>2148.39990234375</ele>
        <time>2026-06-19T12:16:25.000Z</time>
        <extensions>
          <ns3:TrackPointExtension>
            <ns3:atemp>17.0</ns3:atemp>
          </ns3:TrackPointExtension>
        </extensions>
      </trkpt>
      <trkpt lat="42.5592382438480854034423828125" lon="20.08475669659674167633056640625">
        <ele>2147.800048828125</ele>
        <time>2026-06-19T12:16:26.000Z</time>
        <extensions>
          <ns3:TrackPointExtension>
            <ns3:atemp>17.0</ns3:atemp>
          </ns3:TrackPointExtension>
        </extensions>
      </trkpt>
      <trkpt lat="42.5592654012143611907958984375" lon="20.08476625196635723114013671875">
        <ele>2147.60009765625</ele>
        <time>2026-06-19T12:16:27.000Z</time>
        <extensions>
          <ns3:TrackPointExtension>
            <ns3:atemp>17.0</ns3:atemp>
          </ns3:TrackPointExtension>
        </extensions>
      </trkpt>
      <trkpt lat="42.5592845119535923004150390625" lon="20.08477681316435337066650390625">
        <ele>2147.199951171875</ele>
        <time>2026-06-19T12:16:28.000Z</time>
        <extensions>
          <ns3:TrackPointExtension>
            <ns3:atemp>17.0</ns3:atemp>
          </ns3:TrackPointExtension>
        </extensions>
      </trkpt>
      <trkpt lat="42.5593026168644428253173828125" lon="20.08478435687720775604248046875">
        <ele>2146.60009765625</ele>
        <time>2026-06-19T12:16:29.000Z</time>
        <extensions>
          <ns3:TrackPointExtension>
            <ns3:atemp>17.0</ns3:atemp>
          </ns3:TrackPointExtension>
        </extensions>
      </trkpt>
      <trkpt lat="42.55931544117629528045654296875" lon="20.0847946666181087493896484375">
        <ele>2146.39990234375</ele>
        <time>2026-06-19T12:16:30.000Z</time>
        <extensions>
          <ns3:TrackPointExtension>
            <ns3:atemp>17.0</ns3:atemp>
          </ns3:TrackPointExtension>
        </extensions>
      </trkpt>
      <trkpt lat="42.5593225657939910888671875" lon="20.08480816148221492767333984375">
        <ele>2146</ele>
        <time>2026-06-19T12:16:31.000Z</time>
        <extensions>
          <ns3:TrackPointExtension>
            <ns3:atemp>17.0</ns3:atemp>
          </ns3:TrackPointExtension>
        </extensions>
      </trkpt>
      <trkpt lat="42.5593213923275470733642578125" lon="20.084817968308925628662109375">
        <ele>2145.800048828125</ele>
        <time>2026-06-19T12:16:32.000Z</time>
        <extensions>
          <ns3:TrackPointExtension>
            <ns3:atemp>17.0</ns3:atemp>
          </ns3:TrackPointExtension>
        </extensions>
      </trkpt>
      <trkpt lat="42.5593106634914875030517578125" lon="20.0848345644772052764892578125">
        <ele>2145.39990234375</ele>
        <time>2026-06-19T12:16:33.000Z</time>
        <extensions>
          <ns3:TrackPointExtension>
            <ns3:atemp>17.0</ns3:atemp>
          </ns3:TrackPointExtension>
        </extensions>
      </trkpt>
      <trkpt lat="42.55929281003773212432861328125" lon="20.08484956808388233184814453125">
        <ele>2145.199951171875</ele>
        <time>2026-06-19T12:16:34.000Z</time>
        <extensions>
          <ns3:TrackPointExtension>
            <ns3:atemp>17.0</ns3:atemp>
          </ns3:TrackPointExtension>
        </extensions>
      </trkpt>
      <trkpt lat="42.55926556885242462158203125" lon="20.08486515842378139495849609375">
        <ele>2144.60009765625</ele>
        <time>2026-06-19T12:16:35.000Z</time>
        <extensions>
          <ns3:TrackPointExtension>
            <ns3:atemp>17.0</ns3:atemp>
          </ns3:TrackPointExtension>
        </extensions>
      </trkpt>
      <trkpt lat="42.559243105351924896240234375" lon="20.08488007821142673492431640625">
        <ele>2144.199951171875</ele>
        <time>2026-06-19T12:16:36.000Z</time>
        <extensions>
          <ns3:TrackPointExtension>
            <ns3:atemp>17.0</ns3:atemp>
          </ns3:TrackPointExtension>
        </extensions>
      </trkpt>
      <trkpt lat="42.559218965470790863037109375" lon="20.08490472100675106048583984375">
        <ele>2143.800048828125</ele>
        <time>2026-06-19T12:16:37.000Z</time>
        <extensions>
          <ns3:TrackPointExtension>
            <ns3:atemp>17.0</ns3:atemp>
          </ns3:TrackPointExtension>
        </extensions>
      </trkpt>
      <trkpt lat="42.55919306538999080657958984375" lon="20.084934644401073455810546875">
        <ele>2143.199951171875</ele>
        <time>2026-06-19T12:16:38.000Z</time>
        <extensions>
          <ns3:TrackPointExtension>
            <ns3:atemp>17.0</ns3:atemp>
          </ns3:TrackPointExtension>
        </extensions>
      </trkpt>
      <trkpt lat="42.55916976369917392730712890625" lon="20.0849710218608379364013671875">
        <ele>2142.60009765625</ele>
        <time>2026-06-19T12:16:39.000Z</time>
        <extensions>
          <ns3:TrackPointExtension>
            <ns3:atemp>17.0</ns3:atemp>
          </ns3:TrackPointExtension>
        </extensions>
      </trkpt>
      <trkpt lat="42.55915098823606967926025390625" lon="20.08499708957970142364501953125">
        <ele>2142.199951171875</ele>
        <time>2026-06-19T12:16:40.000Z</time>
        <extensions>
          <ns3:TrackPointExtension>
            <ns3:atemp>17.0</ns3:atemp>
          </ns3:TrackPointExtension>
        </extensions>
      </trkpt>
      <trkpt lat="42.55915149115025997161865234375" lon="20.085000358521938323974609375">
        <ele>2141.800048828125</ele>
        <time>2026-06-19T12:16:41.000Z</time>
        <extensions>
          <ns3:TrackPointExtension>
            <ns3:atemp>17.0</ns3:atemp>
          </ns3:TrackPointExtension>
        </extensions>
      </trkpt>
      <trkpt lat="42.55915149115025997161865234375" lon="20.0850005261600017547607421875">
        <ele>2141.39990234375</ele>
        <time>2026-06-19T12:16:42.000Z</time>
        <extensions>
          <ns3:TrackPointExtension>
            <ns3:atemp>17.0</ns3:atemp>
          </ns3:TrackPointExtension>
        </extensions>
      </trkpt>
      <trkpt lat="42.55915149115025997161865234375" lon="20.0850005261600017547607421875">
        <ele>2141.39990234375</ele>
        <time>2026-06-19T12:16:43.000Z</time>
        <extensions>
          <ns3:TrackPointExtension>
            <ns3:atemp>17.0</ns3:atemp>
          </ns3:TrackPointExtension>
        </extensions>
      </trkpt>
      <trkpt lat="42.5591514073312282562255859375" lon="20.08500094525516033172607421875">
        <ele>2141.199951171875</ele>
        <time>2026-06-19T12:16:44.000Z</time>
        <extensions>
          <ns3:TrackPointExtension>
            <ns3:atemp>17.0</ns3:atemp>
          </ns3:TrackPointExtension>
        </extensions>
      </trkpt>
      <trkpt lat="42.55914260633289813995361328125" lon="20.085034556686878204345703125">
        <ele>2141.199951171875</ele>
        <time>2026-06-19T12:16:45.000Z</time>
        <extensions>
          <ns3:TrackPointExtension>
            <ns3:atemp>17.0</ns3:atemp>
          </ns3:TrackPointExtension>
        </extensions>
      </trkpt>
      <trkpt lat="42.55914009176194667816162109375" lon="20.08505542762577533721923828125">
        <ele>2141</ele>
        <time>2026-06-19T12:16:46.000Z</time>
        <extensions>
          <ns3:TrackPointExtension>
            <ns3:atemp>17.0</ns3:atemp>
          </ns3:TrackPointExtension>
        </extensions>
      </trkpt>
      <trkpt lat="42.5591369904577732086181640625" lon="20.08508107624948024749755859375">
        <ele>2140.800048828125</ele>
        <time>2026-06-19T12:16:47.000Z</time>
        <extensions>
          <ns3:TrackPointExtension>
            <ns3:atemp>17.0</ns3:atemp>
          </ns3:TrackPointExtension>
        </extensions>
      </trkpt>
      <trkpt lat="42.55913414061069488525390625" lon="20.0851131789386272430419921875">
        <ele>2140.60009765625</ele>
        <time>2026-06-19T12:16:48.000Z</time>
        <extensions>
          <ns3:TrackPointExtension>
            <ns3:atemp>17.0</ns3:atemp>
          </ns3:TrackPointExtension>
        </extensions>
      </trkpt>
      <trkpt lat="42.55913103930652141571044921875" lon="20.08514125831425189971923828125">
        <ele>2140.39990234375</ele>
        <time>2026-06-19T12:16:49.000Z</time>
        <extensions>
          <ns3:TrackPointExtension>
            <ns3:atemp>17.0</ns3:atemp>
          </ns3:TrackPointExtension>
        </extensions>
      </trkpt>
      <trkpt lat="42.55913279950618743896484375" lon="20.08517629466950893402099609375">
        <ele>2140.199951171875</ele>
        <time>2026-06-19T12:16:50.000Z</time>
        <extensions>
          <ns3:TrackPointExtension>
            <ns3:atemp>17.0</ns3:atemp>
          </ns3:TrackPointExtension>
        </extensions>
      </trkpt>
      <trkpt lat="42.5591336376965045928955078125" lon="20.0852097384631633758544921875">
        <ele>2140</ele>
        <time>2026-06-19T12:16:51.000Z</time>
        <extensions>
          <ns3:TrackPointExtension>
            <ns3:atemp>17.0</ns3:atemp>
          </ns3:TrackPointExtension>
        </extensions>
      </trkpt>
      <trkpt lat="42.55914579145610332489013671875" lon="20.08523781783878803253173828125">
        <ele>2139.60009765625</ele>
        <time>2026-06-19T12:16:52.000Z</time>
        <extensions>
          <ns3:TrackPointExtension>
            <ns3:atemp>17.0</ns3:atemp>
          </ns3:TrackPointExtension>
        </extensions>
      </trkpt>
      <trkpt lat="42.5591520778834819793701171875" lon="20.0852764584124088287353515625">
        <ele>2139.39990234375</ele>
        <time>2026-06-19T12:16:53.000Z</time>
        <extensions>
          <ns3:TrackPointExtension>
            <ns3:atemp>17.0</ns3:atemp>
          </ns3:TrackPointExtension>
        </extensions>
      </trkpt>
      <trkpt lat="42.55915400572121143341064453125" lon="20.0853109918534755706787109375">
        <ele>2139.199951171875</ele>
        <time>2026-06-19T12:16:54.000Z</time>
        <extensions>
          <ns3:TrackPointExtension>
            <ns3:atemp>17.0</ns3:atemp>
          </ns3:TrackPointExtension>
        </extensions>
      </trkpt>
      <trkpt lat="42.5591668300330638885498046875" lon="20.08534326218068599700927734375">
        <ele>2139</ele>
        <time>2026-06-19T12:16:55.000Z</time>
        <extensions>
          <ns3:TrackPointExtension>
            <ns3:atemp>17.0</ns3:atemp>
          </ns3:TrackPointExtension>
        </extensions>
      </trkpt>
      <trkpt lat="42.55916607566177845001220703125" lon="20.08537913672626018524169921875">
        <ele>2138.800048828125</ele>
        <time>2026-06-19T12:16:56.000Z</time>
        <extensions>
          <ns3:TrackPointExtension>
            <ns3:atemp>17.0</ns3:atemp>
          </ns3:TrackPointExtension>
        </extensions>
      </trkpt>
      <trkpt lat="42.5591668300330638885498046875" lon="20.0853974930942058563232421875">
        <ele>2138.800048828125</ele>
        <time>2026-06-19T12:16:57.000Z</time>
        <extensions>
          <ns3:TrackPointExtension>
            <ns3:atemp>17.0</ns3:atemp>
          </ns3:TrackPointExtension>
        </extensions>
      </trkpt>
      <trkpt lat="42.55916305817663669586181640625" lon="20.08539958856999874114990234375">
        <ele>2138.60009765625</ele>
        <time>2026-06-19T12:16:58.000Z</time>
        <extensions>
          <ns3:TrackPointExtension>
            <ns3:atemp>17.0</ns3:atemp>
          </ns3:TrackPointExtension>
        </extensions>
      </trkpt>
      <trkpt lat="42.55916272290050983428955078125" lon="20.085400007665157318115234375">
        <ele>2138.60009765625</ele>
        <time>2026-06-19T12:16:59.000Z</time>
        <extensions>
          <ns3:TrackPointExtension>
            <ns3:atemp>17.0</ns3:atemp>
          </ns3:TrackPointExtension>
        </extensions>
      </trkpt>
      <trkpt lat="42.55916272290050983428955078125" lon="20.085400007665157318115234375">
        <ele>2138.39990234375</ele>
        <time>2026-06-19T12:17:00.000Z</time>
        <extensions>
          <ns3:TrackPointExtension>
            <ns3:atemp>17.0</ns3:atemp>
          </ns3:TrackPointExtension>
        </extensions>
      </trkpt>
      <trkpt lat="42.55916272290050983428955078125" lon="20.085400007665157318115234375">
        <ele>2138.39990234375</ele>
        <time>2026-06-19T12:17:01.000Z</time>
        <extensions>
          <ns3:TrackPointExtension>
            <ns3:atemp>17.0</ns3:atemp>
          </ns3:TrackPointExtension>
        </extensions>
      </trkpt>
      <trkpt lat="42.55916272290050983428955078125" lon="20.085400007665157318115234375">
        <ele>2138.39990234375</ele>
        <time>2026-06-19T12:17:02.000Z</time>
        <extensions>
          <ns3:TrackPointExtension>
            <ns3:atemp>17.0</ns3:atemp>
          </ns3:TrackPointExtension>
        </extensions>
      </trkpt>
      <trkpt lat="42.55916272290050983428955078125" lon="20.085400007665157318115234375">
        <ele>2138.199951171875</ele>
        <time>2026-06-19T12:17:03.000Z</time>
        <extensions>
          <ns3:TrackPointExtension>
            <ns3:atemp>17.0</ns3:atemp>
          </ns3:TrackPointExtension>
        </extensions>
      </trkpt>
      <trkpt lat="42.55916272290050983428955078125" lon="20.085400007665157318115234375">
        <ele>2138.199951171875</ele>
        <time>2026-06-19T12:17:04.000Z</time>
        <extensions>
          <ns3:TrackPointExtension>
            <ns3:atemp>17.0</ns3:atemp>
          </ns3:TrackPointExtension>
        </extensions>
      </trkpt>
      <trkpt lat="42.55916272290050983428955078125" lon="20.085400007665157318115234375">
        <ele>2138.199951171875</ele>
        <time>2026-06-19T12:17:05.000Z</time>
        <extensions>
          <ns3:TrackPointExtension>
            <ns3:atemp>17.0</ns3:atemp>
          </ns3:TrackPointExtension>
        </extensions>
      </trkpt>
      <trkpt lat="42.55916272290050983428955078125" lon="20.085400007665157318115234375">
        <ele>2138.199951171875</ele>
        <time>2026-06-19T12:17:06.000Z</time>
        <extensions>
          <ns3:TrackPointExtension>
            <ns3:atemp>17.0</ns3:atemp>
          </ns3:TrackPointExtension>
        </extensions>
      </trkpt>
      <trkpt lat="42.55916272290050983428955078125" lon="20.085400007665157318115234375">
        <ele>2138.199951171875</ele>
        <time>2026-06-19T12:17:07.000Z</time>
        <extensions>
          <ns3:TrackPointExtension>
            <ns3:atemp>17.0</ns3:atemp>
          </ns3:TrackPointExtension>
        </extensions>
      </trkpt>
      <trkpt lat="42.55916272290050983428955078125" lon="20.085400007665157318115234375">
        <ele>2138.199951171875</ele>
        <time>2026-06-19T12:17:08.000Z</time>
        <extensions>
          <ns3:TrackPointExtension>
            <ns3:atemp>17.0</ns3:atemp>
          </ns3:TrackPointExtension>
        </extensions>
      </trkpt>
      <trkpt lat="42.55916272290050983428955078125" lon="20.085400007665157318115234375">
        <ele>2138.39990234375</ele>
        <time>2026-06-19T12:17:09.000Z</time>
        <extensions>
          <ns3:TrackPointExtension>
            <ns3:atemp>17.0</ns3:atemp>
          </ns3:TrackPointExtension>
        </extensions>
      </trkpt>
      <trkpt lat="42.55916272290050983428955078125" lon="20.085400007665157318115234375">
        <ele>2138.39990234375</ele>
        <time>2026-06-19T12:17:10.000Z</time>
        <extensions>
          <ns3:TrackPointExtension>
            <ns3:atemp>17.0</ns3:atemp>
          </ns3:TrackPointExtension>
        </extensions>
      </trkpt>
      <trkpt lat="42.55916272290050983428955078125" lon="20.085400007665157318115234375">
        <ele>2138.39990234375</ele>
        <time>2026-06-19T12:17:11.000Z</time>
        <extensions>
          <ns3:TrackPointExtension>
            <ns3:atemp>17.0</ns3:atemp>
          </ns3:TrackPointExtension>
        </extensions>
      </trkpt>
      <trkpt lat="42.559163309633731842041015625" lon="20.08540042676031589508056640625">
        <ele>2138.39990234375</ele>
        <time>2026-06-19T12:17:12.000Z</time>
        <extensions>
          <ns3:TrackPointExtension>
            <ns3:atemp>17.0</ns3:atemp>
          </ns3:TrackPointExtension>
        </extensions>
      </trkpt>
      <trkpt lat="42.55916272290050983428955078125" lon="20.085400007665157318115234375">
        <ele>2138.199951171875</ele>
        <time>2026-06-19T12:17:13.000Z</time>
        <extensions>
          <ns3:TrackPointExtension>
            <ns3:atemp>17.0</ns3:atemp>
          </ns3:TrackPointExtension>
        </extensions>
      </trkpt>
      <trkpt lat="42.55916272290050983428955078125" lon="20.085400007665157318115234375">
        <ele>2138.199951171875</ele>
        <time>2026-06-19T12:17:14.000Z</time>
        <extensions>
          <ns3:TrackPointExtension>
            <ns3:atemp>17.0</ns3:atemp>
          </ns3:TrackPointExtension>
        </extensions>
      </trkpt>
      <trkpt lat="42.55916272290050983428955078125" lon="20.085400007665157318115234375">
        <ele>2138.39990234375</ele>
        <time>2026-06-19T12:17:15.000Z</time>
        <extensions>
          <ns3:TrackPointExtension>
            <ns3:atemp>17.0</ns3:atemp>
          </ns3:TrackPointExtension>
        </extensions>
      </trkpt>
      <trkpt lat="42.55916356109082698822021484375" lon="20.08540503680706024169921875">
        <ele>2138.39990234375</ele>
        <time>2026-06-19T12:17:16.000Z</time>
        <extensions>
          <ns3:TrackPointExtension>
            <ns3:atemp>17.0</ns3:atemp>
          </ns3:TrackPointExtension>
        </extensions>
      </trkpt>
      <trkpt lat="42.5591705180704593658447265625" lon="20.0854152627289295196533203125">
        <ele>2138.39990234375</ele>
        <time>2026-06-19T12:17:17.000Z</time>
        <extensions>
          <ns3:TrackPointExtension>
            <ns3:atemp>17.0</ns3:atemp>
          </ns3:TrackPointExtension>
        </extensions>
      </trkpt>
      <trkpt lat="42.5591735355556011199951171875" lon="20.0854189507663249969482421875">
        <ele>2138.39990234375</ele>
        <time>2026-06-19T12:17:18.000Z</time>
        <extensions>
          <ns3:TrackPointExtension>
            <ns3:atemp>17.0</ns3:atemp>
          </ns3:TrackPointExtension>
        </extensions>
      </trkpt>
      <trkpt lat="42.55917361937463283538818359375" lon="20.08541903458535671234130859375">
        <ele>2138.39990234375</ele>
        <time>2026-06-19T12:17:19.000Z</time>
        <extensions>
          <ns3:TrackPointExtension>
            <ns3:atemp>17.0</ns3:atemp>
          </ns3:TrackPointExtension>
        </extensions>
      </trkpt>
      <trkpt lat="42.55917370319366455078125" lon="20.08541920222342014312744140625">
        <ele>2138.39990234375</ele>
        <time>2026-06-19T12:17:20.000Z</time>
        <extensions>
          <ns3:TrackPointExtension>
            <ns3:atemp>17.0</ns3:atemp>
          </ns3:TrackPointExtension>
        </extensions>
      </trkpt>
      <trkpt lat="42.5591765530407428741455078125" lon="20.08544619195163249969482421875">
        <ele>2138.39990234375</ele>
        <time>2026-06-19T12:17:21.000Z</time>
        <extensions>
          <ns3:TrackPointExtension>
            <ns3:atemp>17.0</ns3:atemp>
          </ns3:TrackPointExtension>
        </extensions>
      </trkpt>
      <trkpt lat="42.55917496047914028167724609375" lon="20.0854689069092273712158203125">
        <ele>2138.199951171875</ele>
        <time>2026-06-19T12:17:22.000Z</time>
        <extensions>
          <ns3:TrackPointExtension>
            <ns3:atemp>17.0</ns3:atemp>
          </ns3:TrackPointExtension>
        </extensions>
      </trkpt>
      <trkpt lat="42.55917009897530078887939453125" lon="20.0855088047683238983154296875">
        <ele>2138.199951171875</ele>
        <time>2026-06-19T12:17:23.000Z</time>
        <extensions>
          <ns3:TrackPointExtension>
            <ns3:atemp>17.0</ns3:atemp>
          </ns3:TrackPointExtension>
        </extensions>
      </trkpt>
      <trkpt lat="42.5591614656150341033935546875" lon="20.08554694242775440216064453125">
        <ele>2137.800048828125</ele>
        <time>2026-06-19T12:17:24.000Z</time>
        <extensions>
          <ns3:TrackPointExtension>
            <ns3:atemp>17.0</ns3:atemp>
          </ns3:TrackPointExtension>
        </extensions>
      </trkpt>
      <trkpt lat="42.5591607950627803802490234375" lon="20.08557443507015705108642578125">
        <ele>2137.60009765625</ele>
        <time>2026-06-19T12:17:25.000Z</time>
        <extensions>
          <ns3:TrackPointExtension>
            <ns3:atemp>17.0</ns3:atemp>
          </ns3:TrackPointExtension>
        </extensions>
      </trkpt>
      <trkpt lat="42.559160627424716949462890625" lon="20.0856016762554645538330078125">
        <ele>2137.60009765625</ele>
        <time>2026-06-19T12:17:26.000Z</time>
        <extensions>
          <ns3:TrackPointExtension>
            <ns3:atemp>17.0</ns3:atemp>
          </ns3:TrackPointExtension>
        </extensions>
      </trkpt>
      <trkpt lat="42.55916574038565158843994140625" lon="20.08563159964978694915771484375">
        <ele>2137.60009765625</ele>
        <time>2026-06-19T12:17:27.000Z</time>
        <extensions>
          <ns3:TrackPointExtension>
            <ns3:atemp>17.0</ns3:atemp>
          </ns3:TrackPointExtension>
        </extensions>
      </trkpt>
      <trkpt lat="42.559181414544582366943359375" lon="20.08566512726247310638427734375">
        <ele>2137.39990234375</ele>
        <time>2026-06-19T12:17:28.000Z</time>
        <extensions>
          <ns3:TrackPointExtension>
            <ns3:atemp>17.0</ns3:atemp>
          </ns3:TrackPointExtension>
        </extensions>
      </trkpt>
      <trkpt lat="42.5591993518173694610595703125" lon="20.08570586331188678741455078125">
        <ele>2137.199951171875</ele>
        <time>2026-06-19T12:17:29.000Z</time>
        <extensions>
          <ns3:TrackPointExtension>
            <ns3:atemp>17.0</ns3:atemp>
          </ns3:TrackPointExtension>
        </extensions>
      </trkpt>
      <trkpt lat="42.55921971984207630157470703125" lon="20.08575498126447200775146484375">
        <ele>2137</ele>
        <time>2026-06-19T12:17:30.000Z</time>
        <extensions>
          <ns3:TrackPointExtension>
            <ns3:atemp>17.0</ns3:atemp>
          </ns3:TrackPointExtension>
        </extensions>
      </trkpt>
      <trkpt lat="42.55924318917095661163330078125" lon="20.0857994891703128814697265625">
        <ele>2136.800048828125</ele>
        <time>2026-06-19T12:17:31.000Z</time>
        <extensions>
          <ns3:TrackPointExtension>
            <ns3:atemp>17.0</ns3:atemp>
          </ns3:TrackPointExtension>
        </extensions>
      </trkpt>
      <trkpt lat="42.55926582030951976776123046875" lon="20.0858457572758197784423828125">
        <ele>2136.39990234375</ele>
        <time>2026-06-19T12:17:32.000Z</time>
        <extensions>
          <ns3:TrackPointExtension>
            <ns3:atemp>17.0</ns3:atemp>
          </ns3:TrackPointExtension>
        </extensions>
      </trkpt>
      <trkpt lat="42.55929029546678066253662109375" lon="20.0858890078961849212646484375">
        <ele>2136.199951171875</ele>
        <time>2026-06-19T12:17:33.000Z</time>
        <extensions>
          <ns3:TrackPointExtension>
            <ns3:atemp>17.0</ns3:atemp>
          </ns3:TrackPointExtension>
        </extensions>
      </trkpt>
      <trkpt lat="42.5593096576631069183349609375" lon="20.085929743945598602294921875">
        <ele>2136</ele>
        <time>2026-06-19T12:17:34.000Z</time>
        <extensions>
          <ns3:TrackPointExtension>
            <ns3:atemp>17.0</ns3:atemp>
          </ns3:TrackPointExtension>
        </extensions>
      </trkpt>
      <trkpt lat="42.55932985804975032806396484375" lon="20.085973329842090606689453125">
        <ele>2135.60009765625</ele>
        <time>2026-06-19T12:17:35.000Z</time>
        <extensions>
          <ns3:TrackPointExtension>
            <ns3:atemp>17.0</ns3:atemp>
          </ns3:TrackPointExtension>
        </extensions>
      </trkpt>
      <trkpt lat="42.55935399793088436126708984375" lon="20.08601901121437549591064453125">
        <ele>2135.39990234375</ele>
        <time>2026-06-19T12:17:36.000Z</time>
        <extensions>
          <ns3:TrackPointExtension>
            <ns3:atemp>17.0</ns3:atemp>
          </ns3:TrackPointExtension>
        </extensions>
      </trkpt>
      <trkpt lat="42.55937310867011547088623046875" lon="20.08607265539467334747314453125">
        <ele>2135.199951171875</ele>
        <time>2026-06-19T12:17:37.000Z</time>
        <extensions>
          <ns3:TrackPointExtension>
            <ns3:atemp>17.0</ns3:atemp>
          </ns3:TrackPointExtension>
        </extensions>
      </trkpt>
      <trkpt lat="42.55939473398029804229736328125" lon="20.08612294681370258331298828125">
        <ele>2135</ele>
        <time>2026-06-19T12:17:38.000Z</time>
        <extensions>
          <ns3:TrackPointExtension>
            <ns3:atemp>17.0</ns3:atemp>
          </ns3:TrackPointExtension>
        </extensions>
      </trkpt>
      <trkpt lat="42.55941635929048061370849609375" lon="20.08617625571787357330322265625">
        <ele>2134.60009765625</ele>
        <time>2026-06-19T12:17:39.000Z</time>
        <extensions>
          <ns3:TrackPointExtension>
            <ns3:atemp>17.0</ns3:atemp>
          </ns3:TrackPointExtension>
        </extensions>
      </trkpt>
      <trkpt lat="42.5594370625913143157958984375" lon="20.0862303189933300018310546875">
        <ele>2134.199951171875</ele>
        <time>2026-06-19T12:17:40.000Z</time>
        <extensions>
          <ns3:TrackPointExtension>
            <ns3:atemp>17.0</ns3:atemp>
          </ns3:TrackPointExtension>
        </extensions>
      </trkpt>
      <trkpt lat="42.55944284610450267791748046875" lon="20.0862933509051799774169921875">
        <ele>2133.60009765625</ele>
        <time>2026-06-19T12:17:41.000Z</time>
        <extensions>
          <ns3:TrackPointExtension>
            <ns3:atemp>17.0</ns3:atemp>
          </ns3:TrackPointExtension>
        </extensions>
      </trkpt>
      <trkpt lat="42.55946145392954349517822265625" lon="20.08635160513222217559814453125">
        <ele>2133</ele>
        <time>2026-06-19T12:17:42.000Z</time>
        <extensions>
          <ns3:TrackPointExtension>
            <ns3:atemp>17.0</ns3:atemp>
          </ns3:TrackPointExtension>
        </extensions>
      </trkpt>
      <trkpt lat="42.55949464626610279083251953125" lon="20.086401812732219696044921875">
        <ele>2132.39990234375</ele>
        <time>2026-06-19T12:17:43.000Z</time>
        <extensions>
          <ns3:TrackPointExtension>
            <ns3:atemp>17.0</ns3:atemp>
          </ns3:TrackPointExtension>
        </extensions>
      </trkpt>
      <trkpt lat="42.55952146835625171661376953125" lon="20.08646073751151561737060546875">
        <ele>2132</ele>
        <time>2026-06-19T12:17:44.000Z</time>
        <extensions>
          <ns3:TrackPointExtension>
            <ns3:atemp>17.0</ns3:atemp>
          </ns3:TrackPointExtension>
        </extensions>
      </trkpt>
      <trkpt lat="42.55954493768513202667236328125" lon="20.0865307264029979705810546875">
        <ele>2131.60009765625</ele>
        <time>2026-06-19T12:17:45.000Z</time>
        <extensions>
          <ns3:TrackPointExtension>
            <ns3:atemp>17.0</ns3:atemp>
          </ns3:TrackPointExtension>
        </extensions>
      </trkpt>
      <trkpt lat="42.55957377143204212188720703125" lon="20.0865994580090045928955078125">
        <ele>2131</ele>
        <time>2026-06-19T12:17:46.000Z</time>
        <extensions>
          <ns3:TrackPointExtension>
            <ns3:atemp>17.0</ns3:atemp>
          </ns3:TrackPointExtension>
        </extensions>
      </trkpt>
      <trkpt lat="42.55960411392152309417724609375" lon="20.08667162619531154632568359375">
        <ele>2130.39990234375</ele>
        <time>2026-06-19T12:17:47.000Z</time>
        <extensions>
          <ns3:TrackPointExtension>
            <ns3:atemp>17.0</ns3:atemp>
          </ns3:TrackPointExtension>
        </extensions>
      </trkpt>
      <trkpt lat="42.55963361822068691253662109375" lon="20.0867429561913013458251953125">
        <ele>2129.60009765625</ele>
        <time>2026-06-19T12:17:48.000Z</time>
        <extensions>
          <ns3:TrackPointExtension>
            <ns3:atemp>17.0</ns3:atemp>
          </ns3:TrackPointExtension>
        </extensions>
      </trkpt>
      <trkpt lat="42.55966396071016788482666015625" lon="20.0868069939315319061279296875">
        <ele>2128.800048828125</ele>
        <time>2026-06-19T12:17:49.000Z</time>
        <extensions>
          <ns3:TrackPointExtension>
            <ns3:atemp>17.0</ns3:atemp>
          </ns3:TrackPointExtension>
        </extensions>
      </trkpt>
      <trkpt lat="42.55969740450382232666015625" lon="20.08686625398695468902587890625">
        <ele>2128</ele>
        <time>2026-06-19T12:17:50.000Z</time>
        <extensions>
          <ns3:TrackPointExtension>
            <ns3:atemp>17.0</ns3:atemp>
          </ns3:TrackPointExtension>
        </extensions>
      </trkpt>
      <trkpt lat="42.55973185412585735321044921875" lon="20.08691822178661823272705078125">
        <ele>2127.39990234375</ele>
        <time>2026-06-19T12:17:51.000Z</time>
        <extensions>
          <ns3:TrackPointExtension>
            <ns3:atemp>17.0</ns3:atemp>
          </ns3:TrackPointExtension>
        </extensions>
      </trkpt>
      <trkpt lat="42.559764124453067779541015625" lon="20.086959712207317352294921875">
        <ele>2126.60009765625</ele>
        <time>2026-06-19T12:17:52.000Z</time>
        <extensions>
          <ns3:TrackPointExtension>
            <ns3:atemp>17.0</ns3:atemp>
          </ns3:TrackPointExtension>
        </extensions>
      </trkpt>
      <trkpt lat="42.559790946543216705322265625" lon="20.08700002916157245635986328125">
        <ele>2125.60009765625</ele>
        <time>2026-06-19T12:17:53.000Z</time>
        <extensions>
          <ns3:TrackPointExtension>
            <ns3:atemp>17.0</ns3:atemp>
          </ns3:TrackPointExtension>
        </extensions>
      </trkpt>
      <trkpt lat="42.55980645306408405303955078125" lon="20.08705870248377323150634765625">
        <ele>2124.60009765625</ele>
        <time>2026-06-19T12:17:54.000Z</time>
        <extensions>
          <ns3:TrackPointExtension>
            <ns3:atemp>17.0</ns3:atemp>
          </ns3:TrackPointExtension>
        </extensions>
      </trkpt>
      <trkpt lat="42.55981676280498504638671875" lon="20.08713229559361934661865234375">
        <ele>2123.800048828125</ele>
        <time>2026-06-19T12:17:55.000Z</time>
        <extensions>
          <ns3:TrackPointExtension>
            <ns3:atemp>17.0</ns3:atemp>
          </ns3:TrackPointExtension>
        </extensions>
      </trkpt>
      <trkpt lat="42.55982807837426662445068359375" lon="20.08721494115889072418212890625">
        <ele>2123</ele>
        <time>2026-06-19T12:17:56.000Z</time>
        <extensions>
          <ns3:TrackPointExtension>
            <ns3:atemp>17.0</ns3:atemp>
          </ns3:TrackPointExtension>
        </extensions>
      </trkpt>
      <trkpt lat="42.559835873544216156005859375" lon="20.08729406632483005523681640625">
        <ele>2122.199951171875</ele>
        <time>2026-06-19T12:17:57.000Z</time>
        <extensions>
          <ns3:TrackPointExtension>
            <ns3:atemp>17.0</ns3:atemp>
          </ns3:TrackPointExtension>
        </extensions>
      </trkpt>
      <trkpt lat="42.5598380528390407562255859375" lon="20.08736975491046905517578125">
        <ele>2121.39990234375</ele>
        <time>2026-06-19T12:17:58.000Z</time>
        <extensions>
          <ns3:TrackPointExtension>
            <ns3:atemp>17.0</ns3:atemp>
          </ns3:TrackPointExtension>
        </extensions>
      </trkpt>
      <trkpt lat="42.5598494522273540496826171875" lon="20.0874426774680614471435546875">
        <ele>2120.39990234375</ele>
        <time>2026-06-19T12:17:59.000Z</time>
        <extensions>
          <ns3:TrackPointExtension>
            <ns3:atemp>17.0</ns3:atemp>
          </ns3:TrackPointExtension>
        </extensions>
      </trkpt>
      <trkpt lat="42.5598578341305255889892578125" lon="20.08750612847506999969482421875">
        <ele>2119.39990234375</ele>
        <time>2026-06-19T12:18:00.000Z</time>
        <extensions>
          <ns3:TrackPointExtension>
            <ns3:atemp>17.0</ns3:atemp>
          </ns3:TrackPointExtension>
        </extensions>
      </trkpt>
      <trkpt lat="42.5598709098994731903076171875" lon="20.08756530471146106719970703125">
        <ele>2118.60009765625</ele>
        <time>2026-06-19T12:18:01.000Z</time>
        <extensions>
          <ns3:TrackPointExtension>
            <ns3:atemp>17.0</ns3:atemp>
          </ns3:TrackPointExtension>
        </extensions>
      </trkpt>
      <trkpt lat="42.559882141649723052978515625" lon="20.08762682788074016571044921875">
        <ele>2118.199951171875</ele>
        <time>2026-06-19T12:18:02.000Z</time>
        <extensions>
          <ns3:TrackPointExtension>
            <ns3:atemp>17.0</ns3:atemp>
          </ns3:TrackPointExtension>
        </extensions>
      </trkpt>
      <trkpt lat="42.5598836503922939300537109375" lon="20.08768223226070404052734375">
        <ele>2117.800048828125</ele>
        <time>2026-06-19T12:18:03.000Z</time>
        <extensions>
          <ns3:TrackPointExtension>
            <ns3:atemp>17.0</ns3:atemp>
          </ns3:TrackPointExtension>
        </extensions>
      </trkpt>
      <trkpt lat="42.559879124164581298828125" lon="20.08774031884968280792236328125">
        <ele>2117.199951171875</ele>
        <time>2026-06-19T12:18:04.000Z</time>
        <extensions>
          <ns3:TrackPointExtension>
            <ns3:atemp>17.0</ns3:atemp>
          </ns3:TrackPointExtension>
        </extensions>
      </trkpt>
      <trkpt lat="42.55988792516291141510009765625" lon="20.087807290256023406982421875">
        <ele>2116.800048828125</ele>
        <time>2026-06-19T12:18:05.000Z</time>
        <extensions>
          <ns3:TrackPointExtension>
            <ns3:atemp>17.0</ns3:atemp>
          </ns3:TrackPointExtension>
        </extensions>
      </trkpt>
      <trkpt lat="42.55989965982735157012939453125" lon="20.0878641195595264434814453125">
        <ele>2116</ele>
        <time>2026-06-19T12:18:06.000Z</time>
        <extensions>
          <ns3:TrackPointExtension>
            <ns3:atemp>17.0</ns3:atemp>
          </ns3:TrackPointExtension>
        </extensions>
      </trkpt>
      <trkpt lat="42.5599153339862823486328125" lon="20.0879234634339809417724609375">
        <ele>2115.39990234375</ele>
        <time>2026-06-19T12:18:07.000Z</time>
        <extensions>
          <ns3:TrackPointExtension>
            <ns3:atemp>17.0</ns3:atemp>
          </ns3:TrackPointExtension>
        </extensions>
      </trkpt>
      <trkpt lat="42.559921033680438995361328125" lon="20.08796520531177520751953125">
        <ele>2114.800048828125</ele>
        <time>2026-06-19T12:18:08.000Z</time>
        <extensions>
          <ns3:TrackPointExtension>
            <ns3:atemp>17.0</ns3:atemp>
          </ns3:TrackPointExtension>
        </extensions>
      </trkpt>
      <trkpt lat="42.55993385799229145050048828125" lon="20.08801792748272418975830078125">
        <ele>2114.199951171875</ele>
        <time>2026-06-19T12:18:09.000Z</time>
        <extensions>
          <ns3:TrackPointExtension>
            <ns3:atemp>17.0</ns3:atemp>
          </ns3:TrackPointExtension>
        </extensions>
      </trkpt>
      <trkpt lat="42.5599456764757633209228515625" lon="20.0880699791014194488525390625">
        <ele>2113.800048828125</ele>
        <time>2026-06-19T12:18:10.000Z</time>
        <extensions>
          <ns3:TrackPointExtension>
            <ns3:atemp>17.0</ns3:atemp>
          </ns3:TrackPointExtension>
        </extensions>
      </trkpt>
      <trkpt lat="42.5599530525505542755126953125" lon="20.0881159119307994842529296875">
        <ele>2113.39990234375</ele>
        <time>2026-06-19T12:18:11.000Z</time>
        <extensions>
          <ns3:TrackPointExtension>
            <ns3:atemp>17.0</ns3:atemp>
          </ns3:TrackPointExtension>
        </extensions>
      </trkpt>
      <trkpt lat="42.55996160209178924560546875" lon="20.0881685502827167510986328125">
        <ele>2113</ele>
        <time>2026-06-19T12:18:12.000Z</time>
        <extensions>
          <ns3:TrackPointExtension>
            <ns3:atemp>17.0</ns3:atemp>
          </ns3:TrackPointExtension>
        </extensions>
      </trkpt>
      <trkpt lat="42.559968642890453338623046875" lon="20.08821875788271427154541015625">
        <ele>2112.39990234375</ele>
        <time>2026-06-19T12:18:13.000Z</time>
        <extensions>
          <ns3:TrackPointExtension>
            <ns3:atemp>17.0</ns3:atemp>
          </ns3:TrackPointExtension>
        </extensions>
      </trkpt>
      <trkpt lat="42.55997912026941776275634765625" lon="20.08826653473079204559326171875">
        <ele>2112</ele>
        <time>2026-06-19T12:18:14.000Z</time>
        <extensions>
          <ns3:TrackPointExtension>
            <ns3:atemp>17.0</ns3:atemp>
          </ns3:TrackPointExtension>
        </extensions>
      </trkpt>
      <trkpt lat="42.559983395040035247802734375" lon="20.0883127190172672271728515625">
        <ele>2111.800048828125</ele>
        <time>2026-06-19T12:18:15.000Z</time>
        <extensions>
          <ns3:TrackPointExtension>
            <ns3:atemp>17.0</ns3:atemp>
          </ns3:TrackPointExtension>
        </extensions>
      </trkpt>
      <trkpt lat="42.559991441667079925537109375" lon="20.08836242370307445526123046875">
        <ele>2111.39990234375</ele>
        <time>2026-06-19T12:18:16.000Z</time>
        <extensions>
          <ns3:TrackPointExtension>
            <ns3:atemp>17.0</ns3:atemp>
          </ns3:TrackPointExtension>
        </extensions>
      </trkpt>
      <trkpt lat="42.56000694818794727325439453125" lon="20.08840634487569332122802734375">
        <ele>2111.199951171875</ele>
        <time>2026-06-19T12:18:17.000Z</time>
        <extensions>
          <ns3:TrackPointExtension>
            <ns3:atemp>17.0</ns3:atemp>
          </ns3:TrackPointExtension>
        </extensions>
      </trkpt>
      <trkpt lat="42.560024969279766082763671875" lon="20.08844741620123386383056640625">
        <ele>2111</ele>
        <time>2026-06-19T12:18:18.000Z</time>
        <extensions>
          <ns3:TrackPointExtension>
            <ns3:atemp>17.0</ns3:atemp>
          </ns3:TrackPointExtension>
        </extensions>
      </trkpt>
      <trkpt lat="42.56004399619996547698974609375" lon="20.0885048322379589080810546875">
        <ele>2110.39990234375</ele>
        <time>2026-06-19T12:18:19.000Z</time>
        <extensions>
          <ns3:TrackPointExtension>
            <ns3:atemp>17.0</ns3:atemp>
          </ns3:TrackPointExtension>
        </extensions>
      </trkpt>
      <trkpt lat="42.560045421123504638671875" lon="20.0885665230453014373779296875">
        <ele>2110</ele>
        <time>2026-06-19T12:18:20.000Z</time>
        <extensions>
          <ns3:TrackPointExtension>
            <ns3:atemp>17.0</ns3:atemp>
          </ns3:TrackPointExtension>
        </extensions>
      </trkpt>
      <trkpt lat="42.56005103699862957000732421875" lon="20.0886372663080692291259765625">
        <ele>2109.199951171875</ele>
        <time>2026-06-19T12:18:21.000Z</time>
        <extensions>
          <ns3:TrackPointExtension>
            <ns3:atemp>17.0</ns3:atemp>
          </ns3:TrackPointExtension>
        </extensions>
      </trkpt>
      <trkpt lat="42.56006084382534027099609375" lon="20.08871144615113735198974609375">
        <ele>2108.60009765625</ele>
        <time>2026-06-19T12:18:22.000Z</time>
        <extensions>
          <ns3:TrackPointExtension>
            <ns3:atemp>17.0</ns3:atemp>
          </ns3:TrackPointExtension>
        </extensions>
      </trkpt>
      <trkpt lat="42.56007065065205097198486328125" lon="20.08878587745130062103271484375">
        <ele>2107.800048828125</ele>
        <time>2026-06-19T12:18:23.000Z</time>
        <extensions>
          <ns3:TrackPointExtension>
            <ns3:atemp>17.0</ns3:atemp>
          </ns3:TrackPointExtension>
        </extensions>
      </trkpt>
      <trkpt lat="42.5600774399936199188232421875" lon="20.0888642482459545135498046875">
        <ele>2107</ele>
        <time>2026-06-19T12:18:24.000Z</time>
        <extensions>
          <ns3:TrackPointExtension>
            <ns3:atemp>17.0</ns3:atemp>
          </ns3:TrackPointExtension>
        </extensions>
      </trkpt>
      <trkpt lat="42.56007333286106586456298828125" lon="20.0889393500983715057373046875">
        <ele>2106.39990234375</ele>
        <time>2026-06-19T12:18:25.000Z</time>
        <extensions>
          <ns3:TrackPointExtension>
            <ns3:atemp>17.0</ns3:atemp>
          </ns3:TrackPointExtension>
        </extensions>
      </trkpt>
      <trkpt lat="42.56006830371916294097900390625" lon="20.08901252411305904388427734375">
        <ele>2105.800048828125</ele>
        <time>2026-06-19T12:18:26.000Z</time>
        <extensions>
          <ns3:TrackPointExtension>
            <ns3:atemp>17.0</ns3:atemp>
          </ns3:TrackPointExtension>
        </extensions>
      </trkpt>
      <trkpt lat="42.56006511859595775604248046875" lon="20.089088715612888336181640625">
        <ele>2105.199951171875</ele>
        <time>2026-06-19T12:18:27.000Z</time>
        <extensions>
          <ns3:TrackPointExtension>
            <ns3:atemp>17.0</ns3:atemp>
          </ns3:TrackPointExtension>
        </extensions>
      </trkpt>
      <trkpt lat="42.56006428040564060211181640625" lon="20.089158117771148681640625">
        <ele>2104.800048828125</ele>
        <time>2026-06-19T12:18:28.000Z</time>
        <extensions>
          <ns3:TrackPointExtension>
            <ns3:atemp>17.0</ns3:atemp>
          </ns3:TrackPointExtension>
        </extensions>
      </trkpt>
      <trkpt lat="42.56006746552884578704833984375" lon="20.08921855129301548004150390625">
        <ele>2104.39990234375</ele>
        <time>2026-06-19T12:18:29.000Z</time>
        <extensions>
          <ns3:TrackPointExtension>
            <ns3:atemp>17.0</ns3:atemp>
          </ns3:TrackPointExtension>
        </extensions>
      </trkpt>
      <trkpt lat="42.560071907937526702880859375" lon="20.0892645679414272308349609375">
        <ele>2104.39990234375</ele>
        <time>2026-06-19T12:18:30.000Z</time>
        <extensions>
          <ns3:TrackPointExtension>
            <ns3:atemp>17.0</ns3:atemp>
          </ns3:TrackPointExtension>
        </extensions>
      </trkpt>
      <trkpt lat="42.56007450632750988006591796875" lon="20.0893058069050312042236328125">
        <ele>2104.199951171875</ele>
        <time>2026-06-19T12:18:31.000Z</time>
        <extensions>
          <ns3:TrackPointExtension>
            <ns3:atemp>17.0</ns3:atemp>
          </ns3:TrackPointExtension>
        </extensions>
      </trkpt>
      <trkpt lat="42.56007961928844451904296875" lon="20.08933992125093936920166015625">
        <ele>2104.199951171875</ele>
        <time>2026-06-19T12:18:32.000Z</time>
        <extensions>
          <ns3:TrackPointExtension>
            <ns3:atemp>17.0</ns3:atemp>
          </ns3:TrackPointExtension>
        </extensions>
      </trkpt>
      <trkpt lat="42.5600895099341869354248046875" lon="20.0893691740930080413818359375">
        <ele>2104.199951171875</ele>
        <time>2026-06-19T12:18:33.000Z</time>
        <extensions>
          <ns3:TrackPointExtension>
            <ns3:atemp>17.0</ns3:atemp>
          </ns3:TrackPointExtension>
        </extensions>
      </trkpt>
      <trkpt lat="42.56010015495121479034423828125" lon="20.0893899612128734588623046875">
        <ele>2104.199951171875</ele>
        <time>2026-06-19T12:18:34.000Z</time>
        <extensions>
          <ns3:TrackPointExtension>
            <ns3:atemp>17.0</ns3:atemp>
          </ns3:TrackPointExtension>
        </extensions>
      </trkpt>
      <trkpt lat="42.56010987795889377593994140625" lon="20.08941720239818096160888671875">
        <ele>2104</ele>
        <time>2026-06-19T12:18:35.000Z</time>
        <extensions>
          <ns3:TrackPointExtension>
            <ns3:atemp>17.0</ns3:atemp>
          </ns3:TrackPointExtension>
        </extensions>
      </trkpt>
      <trkpt lat="42.56011708639562129974365234375" lon="20.08944972418248653411865234375">
        <ele>2104</ele>
        <time>2026-06-19T12:18:36.000Z</time>
        <extensions>
          <ns3:TrackPointExtension>
            <ns3:atemp>17.0</ns3:atemp>
          </ns3:TrackPointExtension>
        </extensions>
      </trkpt>
      <trkpt lat="42.56011993624269962310791015625" lon="20.089482329785823822021484375">
        <ele>2104</ele>
        <time>2026-06-19T12:18:37.000Z</time>
        <extensions>
          <ns3:TrackPointExtension>
            <ns3:atemp>17.0</ns3:atemp>
          </ns3:TrackPointExtension>
        </extensions>
      </trkpt>
      <trkpt lat="42.56012463010847568511962890625" lon="20.08952264674007892608642578125">
        <ele>2104</ele>
        <time>2026-06-19T12:18:38.000Z</time>
        <extensions>
          <ns3:TrackPointExtension>
            <ns3:atemp>17.0</ns3:atemp>
          </ns3:TrackPointExtension>
        </extensions>
      </trkpt>
      <trkpt lat="42.56013602949678897857666015625" lon="20.089564807713031768798828125">
        <ele>2104</ele>
        <time>2026-06-19T12:18:39.000Z</time>
        <extensions>
          <ns3:TrackPointExtension>
            <ns3:atemp>17.0</ns3:atemp>
          </ns3:TrackPointExtension>
        </extensions>
      </trkpt>
      <trkpt lat="42.560147680342197418212890625" lon="20.0896088965237140655517578125">
        <ele>2103.800048828125</ele>
        <time>2026-06-19T12:18:40.000Z</time>
        <extensions>
          <ns3:TrackPointExtension>
            <ns3:atemp>17.0</ns3:atemp>
          </ns3:TrackPointExtension>
        </extensions>
      </trkpt>
      <trkpt lat="42.560158073902130126953125" lon="20.08965373970568180084228515625">
        <ele>2103.60009765625</ele>
        <time>2026-06-19T12:18:41.000Z</time>
        <extensions>
          <ns3:TrackPointExtension>
            <ns3:atemp>17.0</ns3:atemp>
          </ns3:TrackPointExtension>
        </extensions>
      </trkpt>
      <trkpt lat="42.56016083993017673492431640625" lon="20.0897012650966644287109375">
        <ele>2103.39990234375</ele>
        <time>2026-06-19T12:18:42.000Z</time>
        <extensions>
          <ns3:TrackPointExtension>
            <ns3:atemp>17.0</ns3:atemp>
          </ns3:TrackPointExtension>
        </extensions>
      </trkpt>
      <trkpt lat="42.560155056416988372802734375" lon="20.08974158205091953277587890625">
        <ele>2103</ele>
        <time>2026-06-19T12:18:43.000Z</time>
        <extensions>
          <ns3:TrackPointExtension>
            <ns3:atemp>17.0</ns3:atemp>
          </ns3:TrackPointExtension>
        </extensions>
      </trkpt>
      <trkpt lat="42.5601522065699100494384765625" lon="20.08977795951068401336669921875">
        <ele>2102.800048828125</ele>
        <time>2026-06-19T12:18:44.000Z</time>
        <extensions>
          <ns3:TrackPointExtension>
            <ns3:atemp>17.0</ns3:atemp>
          </ns3:TrackPointExtension>
        </extensions>
      </trkpt>
      <trkpt lat="42.5601642765104770660400390625" lon="20.089806206524372100830078125">
        <ele>2102.800048828125</ele>
        <time>2026-06-19T12:18:45.000Z</time>
        <extensions>
          <ns3:TrackPointExtension>
            <ns3:atemp>17.0</ns3:atemp>
          </ns3:TrackPointExtension>
        </extensions>
      </trkpt>
      <trkpt lat="42.5601810403168201446533203125" lon="20.0898248143494129180908203125">
        <ele>2102.60009765625</ele>
        <time>2026-06-19T12:18:46.000Z</time>
        <extensions>
          <ns3:TrackPointExtension>
            <ns3:atemp>17.0</ns3:atemp>
          </ns3:TrackPointExtension>
        </extensions>
      </trkpt>
      <trkpt lat="42.5601988099515438079833984375" lon="20.089850462973117828369140625">
        <ele>2102.60009765625</ele>
        <time>2026-06-19T12:18:47.000Z</time>
        <extensions>
          <ns3:TrackPointExtension>
            <ns3:atemp>17.0</ns3:atemp>
          </ns3:TrackPointExtension>
        </extensions>
      </trkpt>
      <trkpt lat="42.56021481938660144805908203125" lon="20.0898751057684421539306640625">
        <ele>2102.39990234375</ele>
        <time>2026-06-19T12:18:48.000Z</time>
        <extensions>
          <ns3:TrackPointExtension>
            <ns3:atemp>17.0</ns3:atemp>
          </ns3:TrackPointExtension>
        </extensions>
      </trkpt>
      <trkpt lat="42.56022789515554904937744140625" lon="20.08990041911602020263671875">
        <ele>2102.199951171875</ele>
        <time>2026-06-19T12:18:49.000Z</time>
        <extensions>
          <ns3:TrackPointExtension>
            <ns3:atemp>17.0</ns3:atemp>
          </ns3:TrackPointExtension>
        </extensions>
      </trkpt>
      <trkpt lat="42.56024264730513095855712890625" lon="20.08992481045424938201904296875">
        <ele>2102.199951171875</ele>
        <time>2026-06-19T12:18:50.000Z</time>
        <extensions>
          <ns3:TrackPointExtension>
            <ns3:atemp>17.0</ns3:atemp>
          </ns3:TrackPointExtension>
        </extensions>
      </trkpt>
      <trkpt lat="42.56025823764503002166748046875" lon="20.089959092438220977783203125">
        <ele>2102</ele>
        <time>2026-06-19T12:18:51.000Z</time>
        <extensions>
          <ns3:TrackPointExtension>
            <ns3:atemp>17.0</ns3:atemp>
          </ns3:TrackPointExtension>
        </extensions>
      </trkpt>
      <trkpt lat="42.56027349270880222320556640625" lon="20.08999790064990520477294921875">
        <ele>2102</ele>
        <time>2026-06-19T12:18:52.000Z</time>
        <extensions>
          <ns3:TrackPointExtension>
            <ns3:atemp>17.0</ns3:atemp>
          </ns3:TrackPointExtension>
        </extensions>
      </trkpt>
      <trkpt lat="42.5602893345057964324951171875" lon="20.09004232473671436309814453125">
        <ele>2101.800048828125</ele>
        <time>2026-06-19T12:18:53.000Z</time>
        <extensions>
          <ns3:TrackPointExtension>
            <ns3:atemp>17.0</ns3:atemp>
          </ns3:TrackPointExtension>
        </extensions>
      </trkpt>
      <trkpt lat="42.56030651740729808807373046875" lon="20.090085156261920928955078125">
        <ele>2101.60009765625</ele>
        <time>2026-06-19T12:18:54.000Z</time>
        <extensions>
          <ns3:TrackPointExtension>
            <ns3:atemp>17.0</ns3:atemp>
          </ns3:TrackPointExtension>
        </extensions>
      </trkpt>
      <trkpt lat="42.56033233366906642913818359375" lon="20.09012446738779544830322265625">
        <ele>2101.199951171875</ele>
        <time>2026-06-19T12:18:55.000Z</time>
        <extensions>
          <ns3:TrackPointExtension>
            <ns3:atemp>17.0</ns3:atemp>
          </ns3:TrackPointExtension>
        </extensions>
      </trkpt>
      <trkpt lat="42.56036125123500823974609375" lon="20.09016620926558971405029296875">
        <ele>2100.800048828125</ele>
        <time>2026-06-19T12:18:56.000Z</time>
        <extensions>
          <ns3:TrackPointExtension>
            <ns3:atemp>17.0</ns3:atemp>
          </ns3:TrackPointExtension>
        </extensions>
      </trkpt>
      <trkpt lat="42.560389079153537750244140625" lon="20.090206526219844818115234375">
        <ele>2100.60009765625</ele>
        <time>2026-06-19T12:18:57.000Z</time>
        <extensions>
          <ns3:TrackPointExtension>
            <ns3:atemp>17.0</ns3:atemp>
          </ns3:TrackPointExtension>
        </extensions>
      </trkpt>
      <trkpt lat="42.5604160688817501068115234375" lon="20.0902496092021465301513671875">
        <ele>2100.199951171875</ele>
        <time>2026-06-19T12:18:58.000Z</time>
        <extensions>
          <ns3:TrackPointExtension>
            <ns3:atemp>17.0</ns3:atemp>
          </ns3:TrackPointExtension>
        </extensions>
      </trkpt>
      <trkpt lat="42.5604388676583766937255859375" lon="20.090290345251560211181640625">
        <ele>2099.800048828125</ele>
        <time>2026-06-19T12:18:59.000Z</time>
        <extensions>
          <ns3:TrackPointExtension>
            <ns3:atemp>17.0</ns3:atemp>
          </ns3:TrackPointExtension>
        </extensions>
      </trkpt>
      <trkpt lat="42.56045672111213207244873046875" lon="20.0903247110545635223388671875">
        <ele>2099.39990234375</ele>
        <time>2026-06-19T12:19:00.000Z</time>
        <extensions>
          <ns3:TrackPointExtension>
            <ns3:atemp>17.0</ns3:atemp>
          </ns3:TrackPointExtension>
        </extensions>
      </trkpt>
      <trkpt lat="42.5604705512523651123046875" lon="20.0903478451073169708251953125">
        <ele>2099</ele>
        <time>2026-06-19T12:19:01.000Z</time>
        <extensions>
          <ns3:TrackPointExtension>
            <ns3:atemp>17.0</ns3:atemp>
          </ns3:TrackPointExtension>
        </extensions>
      </trkpt>
      <trkpt lat="42.56048253737390041351318359375" lon="20.09036712348461151123046875">
        <ele>2098.60009765625</ele>
        <time>2026-06-19T12:19:02.000Z</time>
        <extensions>
          <ns3:TrackPointExtension>
            <ns3:atemp>17.0</ns3:atemp>
          </ns3:TrackPointExtension>
        </extensions>
      </trkpt>
      <trkpt lat="42.56049745716154575347900390625" lon="20.09038045071065425872802734375">
        <ele>2098.39990234375</ele>
        <time>2026-06-19T12:19:03.000Z</time>
        <extensions>
          <ns3:TrackPointExtension>
            <ns3:atemp>17.0</ns3:atemp>
          </ns3:TrackPointExtension>
        </extensions>
      </trkpt>
      <trkpt lat="42.560515142977237701416015625" lon="20.09040056727826595306396484375">
        <ele>2098</ele>
        <time>2026-06-19T12:19:04.000Z</time>
        <extensions>
          <ns3:TrackPointExtension>
            <ns3:atemp>17.0</ns3:atemp>
          </ns3:TrackPointExtension>
        </extensions>
      </trkpt>
      <trkpt lat="42.5605322420597076416015625" lon="20.09042856283485889434814453125">
        <ele>2097.800048828125</ele>
        <time>2026-06-19T12:19:05.000Z</time>
        <extensions>
          <ns3:TrackPointExtension>
            <ns3:atemp>17.0</ns3:atemp>
          </ns3:TrackPointExtension>
        </extensions>
      </trkpt>
      <trkpt lat="42.560541965067386627197265625" lon="20.09046225808560848236083984375">
        <ele>2097.60009765625</ele>
        <time>2026-06-19T12:19:06.000Z</time>
        <extensions>
          <ns3:TrackPointExtension>
            <ns3:atemp>17.0</ns3:atemp>
          </ns3:TrackPointExtension>
        </extensions>
      </trkpt>
      <trkpt lat="42.5605525262653827667236328125" lon="20.09049721062183380126953125">
        <ele>2097.199951171875</ele>
        <time>2026-06-19T12:19:07.000Z</time>
        <extensions>
          <ns3:TrackPointExtension>
            <ns3:atemp>17.0</ns3:atemp>
          </ns3:TrackPointExtension>
        </extensions>
      </trkpt>
      <trkpt lat="42.56056367419660091400146484375" lon="20.09053216315805912017822265625">
        <ele>2097</ele>
        <time>2026-06-19T12:19:08.000Z</time>
        <extensions>
          <ns3:TrackPointExtension>
            <ns3:atemp>17.0</ns3:atemp>
          </ns3:TrackPointExtension>
        </extensions>
      </trkpt>
      <trkpt lat="42.5605773366987705230712890625" lon="20.0905729830265045166015625">
        <ele>2096.800048828125</ele>
        <time>2026-06-19T12:19:09.000Z</time>
        <extensions>
          <ns3:TrackPointExtension>
            <ns3:atemp>17.0</ns3:atemp>
          </ns3:TrackPointExtension>
        </extensions>
      </trkpt>
      <trkpt lat="42.5605890713632106781005859375" lon="20.090610869228839874267578125">
        <ele>2096.60009765625</ele>
        <time>2026-06-19T12:19:10.000Z</time>
        <extensions>
          <ns3:TrackPointExtension>
            <ns3:atemp>17.0</ns3:atemp>
          </ns3:TrackPointExtension>
        </extensions>
      </trkpt>
      <trkpt lat="42.560584545135498046875" lon="20.090650431811809539794921875">
        <ele>2096.199951171875</ele>
        <time>2026-06-19T12:19:11.000Z</time>
        <extensions>
          <ns3:TrackPointExtension>
            <ns3:atemp>17.0</ns3:atemp>
          </ns3:TrackPointExtension>
        </extensions>
      </trkpt>
      <trkpt lat="42.56058244965970516204833984375" lon="20.090689994394779205322265625">
        <ele>2095.800048828125</ele>
        <time>2026-06-19T12:19:12.000Z</time>
        <extensions>
          <ns3:TrackPointExtension>
            <ns3:atemp>17.0</ns3:atemp>
          </ns3:TrackPointExtension>
        </extensions>
      </trkpt>
      <trkpt lat="42.56058513186872005462646484375" lon="20.09072913788259029388427734375">
        <ele>2095.199951171875</ele>
        <time>2026-06-19T12:19:13.000Z</time>
        <extensions>
          <ns3:TrackPointExtension>
            <ns3:atemp>17.0</ns3:atemp>
          </ns3:TrackPointExtension>
        </extensions>
      </trkpt>
      <trkpt lat="42.56058563478291034698486328125" lon="20.09076543152332305908203125">
        <ele>2094.800048828125</ele>
        <time>2026-06-19T12:19:14.000Z</time>
        <extensions>
          <ns3:TrackPointExtension>
            <ns3:atemp>17.0</ns3:atemp>
          </ns3:TrackPointExtension>
        </extensions>
      </trkpt>
      <trkpt lat="42.56059016101062297821044921875" lon="20.090801976621150970458984375">
        <ele>2094.60009765625</ele>
        <time>2026-06-19T12:19:15.000Z</time>
        <extensions>
          <ns3:TrackPointExtension>
            <ns3:atemp>17.0</ns3:atemp>
          </ns3:TrackPointExtension>
        </extensions>
      </trkpt>
      <trkpt lat="42.5605947710573673248291015625" lon="20.0908376835286617279052734375">
        <ele>2094.39990234375</ele>
        <time>2026-06-19T12:19:16.000Z</time>
        <extensions>
          <ns3:TrackPointExtension>
            <ns3:atemp>17.0</ns3:atemp>
          </ns3:TrackPointExtension>
        </extensions>
      </trkpt>
      <trkpt lat="42.56060105748474597930908203125" lon="20.0908651761710643768310546875">
        <ele>2094</ele>
        <time>2026-06-19T12:19:17.000Z</time>
        <extensions>
          <ns3:TrackPointExtension>
            <ns3:atemp>17.0</ns3:atemp>
          </ns3:TrackPointExtension>
        </extensions>
      </trkpt>
      <trkpt lat="42.56060357205569744110107421875" lon="20.09089191444218158721923828125">
        <ele>2093.60009765625</ele>
        <time>2026-06-19T12:19:18.000Z</time>
        <extensions>
          <ns3:TrackPointExtension>
            <ns3:atemp>17.0</ns3:atemp>
          </ns3:TrackPointExtension>
        </extensions>
      </trkpt>
      <trkpt lat="42.56060843355953693389892578125" lon="20.09092292748391628265380859375">
        <ele>2093</ele>
        <time>2026-06-19T12:19:19.000Z</time>
        <extensions>
          <ns3:TrackPointExtension>
            <ns3:atemp>17.0</ns3:atemp>
          </ns3:TrackPointExtension>
        </extensions>
      </trkpt>
      <trkpt lat="42.560609690845012664794921875" lon="20.0909565389156341552734375">
        <ele>2092.60009765625</ele>
        <time>2026-06-19T12:19:20.000Z</time>
        <extensions>
          <ns3:TrackPointExtension>
            <ns3:atemp>17.0</ns3:atemp>
          </ns3:TrackPointExtension>
        </extensions>
      </trkpt>
      <trkpt lat="42.56061933003365993499755859375" lon="20.09098243899643421173095703125">
        <ele>2092</ele>
        <time>2026-06-19T12:19:21.000Z</time>
        <extensions>
          <ns3:TrackPointExtension>
            <ns3:atemp>17.0</ns3:atemp>
          </ns3:TrackPointExtension>
        </extensions>
      </trkpt>
      <trkpt lat="42.56063039414584636688232421875" lon="20.09100305847823619842529296875">
        <ele>2091.800048828125</ele>
        <time>2026-06-19T12:19:22.000Z</time>
        <extensions>
          <ns3:TrackPointExtension>
            <ns3:atemp>17.0</ns3:atemp>
          </ns3:TrackPointExtension>
        </extensions>
      </trkpt>
      <trkpt lat="42.56064346991479396820068359375" lon="20.09102351032197475433349609375">
        <ele>2091.39990234375</ele>
        <time>2026-06-19T12:19:23.000Z</time>
        <extensions>
          <ns3:TrackPointExtension>
            <ns3:atemp>17.0</ns3:atemp>
          </ns3:TrackPointExtension>
        </extensions>
      </trkpt>
      <trkpt lat="42.56065092980861663818359375" lon="20.0910435430705547332763671875">
        <ele>2091.199951171875</ele>
        <time>2026-06-19T12:19:24.000Z</time>
        <extensions>
          <ns3:TrackPointExtension>
            <ns3:atemp>17.0</ns3:atemp>
          </ns3:TrackPointExtension>
        </extensions>
      </trkpt>
      <trkpt lat="42.56064849905669689178466796875" lon="20.09105603210628032684326171875">
        <ele>2090.800048828125</ele>
        <time>2026-06-19T12:19:25.000Z</time>
        <extensions>
          <ns3:TrackPointExtension>
            <ns3:atemp>17.0</ns3:atemp>
          </ns3:TrackPointExtension>
        </extensions>
      </trkpt>
      <trkpt lat="42.5606567971408367156982421875" lon="20.09107547812163829803466796875">
        <ele>2090.60009765625</ele>
        <time>2026-06-19T12:19:26.000Z</time>
        <extensions>
          <ns3:TrackPointExtension>
            <ns3:atemp>17.0</ns3:atemp>
          </ns3:TrackPointExtension>
        </extensions>
      </trkpt>
      <trkpt lat="42.56066593341529369354248046875" lon="20.09109592996537685394287109375">
        <ele>2090.60009765625</ele>
        <time>2026-06-19T12:19:27.000Z</time>
        <extensions>
          <ns3:TrackPointExtension>
            <ns3:atemp>17.0</ns3:atemp>
          </ns3:TrackPointExtension>
        </extensions>
      </trkpt>
      <trkpt lat="42.56068001501262187957763671875" lon="20.09112359024584293365478515625">
        <ele>2090.39990234375</ele>
        <time>2026-06-19T12:19:28.000Z</time>
        <extensions>
          <ns3:TrackPointExtension>
            <ns3:atemp>17.0</ns3:atemp>
          </ns3:TrackPointExtension>
        </extensions>
      </trkpt>
      <trkpt lat="42.56069459952414035797119140625" lon="20.0911662541329860687255859375">
        <ele>2090.199951171875</ele>
        <time>2026-06-19T12:19:29.000Z</time>
        <extensions>
          <ns3:TrackPointExtension>
            <ns3:atemp>17.0</ns3:atemp>
          </ns3:TrackPointExtension>
        </extensions>
      </trkpt>
      <trkpt lat="42.56070264615118503570556640625" lon="20.09122098796069622039794921875">
        <ele>2089.800048828125</ele>
        <time>2026-06-19T12:19:30.000Z</time>
        <extensions>
          <ns3:TrackPointExtension>
            <ns3:atemp>17.0</ns3:atemp>
          </ns3:TrackPointExtension>
        </extensions>
      </trkpt>
      <trkpt lat="42.5607080943882465362548828125" lon="20.09127228520810604095458984375">
        <ele>2089.39990234375</ele>
        <time>2026-06-19T12:19:31.000Z</time>
        <extensions>
          <ns3:TrackPointExtension>
            <ns3:atemp>17.0</ns3:atemp>
          </ns3:TrackPointExtension>
        </extensions>
      </trkpt>
      <trkpt lat="42.5607117824256420135498046875" lon="20.091315619647502899169921875">
        <ele>2088.800048828125</ele>
        <time>2026-06-19T12:19:32.000Z</time>
        <extensions>
          <ns3:TrackPointExtension>
            <ns3:atemp>17.0</ns3:atemp>
          </ns3:TrackPointExtension>
        </extensions>
      </trkpt>
      <trkpt lat="42.560718990862369537353515625" lon="20.09135493077337741851806640625">
        <ele>2088.39990234375</ele>
        <time>2026-06-19T12:19:33.000Z</time>
        <extensions>
          <ns3:TrackPointExtension>
            <ns3:atemp>17.0</ns3:atemp>
          </ns3:TrackPointExtension>
        </extensions>
      </trkpt>
      <trkpt lat="42.56072871387004852294921875" lon="20.091396085917949676513671875">
        <ele>2088</ele>
        <time>2026-06-19T12:19:34.000Z</time>
        <extensions>
          <ns3:TrackPointExtension>
            <ns3:atemp>17.0</ns3:atemp>
          </ns3:TrackPointExtension>
        </extensions>
      </trkpt>
      <trkpt lat="42.56073567084968090057373046875" lon="20.0914270989596843719482421875">
        <ele>2087.60009765625</ele>
        <time>2026-06-19T12:19:35.000Z</time>
        <extensions>
          <ns3:TrackPointExtension>
            <ns3:atemp>17.0</ns3:atemp>
          </ns3:TrackPointExtension>
        </extensions>
      </trkpt>
      <trkpt lat="42.5607414543628692626953125" lon="20.0914452038705348968505859375">
        <ele>2087.39990234375</ele>
        <time>2026-06-19T12:19:36.000Z</time>
        <extensions>
          <ns3:TrackPointExtension>
            <ns3:atemp>17.0</ns3:atemp>
          </ns3:TrackPointExtension>
        </extensions>
      </trkpt>
      <trkpt lat="42.56074883043766021728515625" lon="20.0914572738111019134521484375">
        <ele>2087</ele>
        <time>2026-06-19T12:19:37.000Z</time>
        <extensions>
          <ns3:TrackPointExtension>
            <ns3:atemp>17.0</ns3:atemp>
          </ns3:TrackPointExtension>
        </extensions>
      </trkpt>
      <trkpt lat="42.56075645796954631805419921875" lon="20.09147495962679386138916015625">
        <ele>2086.800048828125</ele>
        <time>2026-06-19T12:19:38.000Z</time>
        <extensions>
          <ns3:TrackPointExtension>
            <ns3:atemp>17.0</ns3:atemp>
          </ns3:TrackPointExtension>
        </extensions>
      </trkpt>
      <trkpt lat="42.56076081655919551849365234375" lon="20.091483928263187408447265625">
        <ele>2086.60009765625</ele>
        <time>2026-06-19T12:19:39.000Z</time>
        <extensions>
          <ns3:TrackPointExtension>
            <ns3:atemp>17.0</ns3:atemp>
          </ns3:TrackPointExtension>
        </extensions>
      </trkpt>
      <trkpt lat="42.56076215766370296478271484375" lon="20.0914822518825531005859375">
        <ele>2086.39990234375</ele>
        <time>2026-06-19T12:19:40.000Z</time>
        <extensions>
          <ns3:TrackPointExtension>
            <ns3:atemp>17.0</ns3:atemp>
          </ns3:TrackPointExtension>
        </extensions>
      </trkpt>
      <trkpt lat="42.56076215766370296478271484375" lon="20.09148233570158481597900390625">
        <ele>2086.199951171875</ele>
        <time>2026-06-19T12:19:41.000Z</time>
        <extensions>
          <ns3:TrackPointExtension>
            <ns3:atemp>17.0</ns3:atemp>
          </ns3:TrackPointExtension>
        </extensions>
      </trkpt>
      <trkpt lat="42.56076215766370296478271484375" lon="20.09148233570158481597900390625">
        <ele>2086</ele>
        <time>2026-06-19T12:19:42.000Z</time>
        <extensions>
          <ns3:TrackPointExtension>
            <ns3:atemp>17.0</ns3:atemp>
          </ns3:TrackPointExtension>
        </extensions>
      </trkpt>
      <trkpt lat="42.56076224148273468017578125" lon="20.0914824195206165313720703125">
        <ele>2086</ele>
        <time>2026-06-19T12:19:43.000Z</time>
        <extensions>
          <ns3:TrackPointExtension>
            <ns3:atemp>17.0</ns3:atemp>
          </ns3:TrackPointExtension>
        </extensions>
      </trkpt>
      <trkpt lat="42.56076467223465442657470703125" lon="20.0914951600134372711181640625">
        <ele>2085.800048828125</ele>
        <time>2026-06-19T12:19:44.000Z</time>
        <extensions>
          <ns3:TrackPointExtension>
            <ns3:atemp>17.0</ns3:atemp>
          </ns3:TrackPointExtension>
        </extensions>
      </trkpt>
      <trkpt lat="42.5607669353485107421875" lon="20.09150211699306964874267578125">
        <ele>2085.60009765625</ele>
        <time>2026-06-19T12:19:45.000Z</time>
        <extensions>
          <ns3:TrackPointExtension>
            <ns3:atemp>17.0</ns3:atemp>
          </ns3:TrackPointExtension>
        </extensions>
      </trkpt>
      <trkpt lat="42.5607701204717159271240234375" lon="20.0915037095546722412109375">
        <ele>2085.60009765625</ele>
        <time>2026-06-19T12:19:46.000Z</time>
        <extensions>
          <ns3:TrackPointExtension>
            <ns3:atemp>17.0</ns3:atemp>
          </ns3:TrackPointExtension>
        </extensions>
      </trkpt>
      <trkpt lat="42.5607701204717159271240234375" lon="20.0915037095546722412109375">
        <ele>2085.39990234375</ele>
        <time>2026-06-19T12:19:47.000Z</time>
        <extensions>
          <ns3:TrackPointExtension>
            <ns3:atemp>17.0</ns3:atemp>
          </ns3:TrackPointExtension>
        </extensions>
      </trkpt>
      <trkpt lat="42.5607701204717159271240234375" lon="20.0915037095546722412109375">
        <ele>2085.199951171875</ele>
        <time>2026-06-19T12:19:48.000Z</time>
        <extensions>
          <ns3:TrackPointExtension>
            <ns3:atemp>17.0</ns3:atemp>
          </ns3:TrackPointExtension>
        </extensions>
      </trkpt>
      <trkpt lat="42.56077028810977935791015625" lon="20.0915038771927356719970703125">
        <ele>2085.199951171875</ele>
        <time>2026-06-19T12:19:49.000Z</time>
        <extensions>
          <ns3:TrackPointExtension>
            <ns3:atemp>17.0</ns3:atemp>
          </ns3:TrackPointExtension>
        </extensions>
      </trkpt>
      <trkpt lat="42.5607751496136188507080078125" lon="20.0915182940661907196044921875">
        <ele>2085</ele>
        <time>2026-06-19T12:19:50.000Z</time>
        <extensions>
          <ns3:TrackPointExtension>
            <ns3:atemp>17.0</ns3:atemp>
          </ns3:TrackPointExtension>
        </extensions>
      </trkpt>
      <trkpt lat="42.56077640689909458160400390625" lon="20.09152625687420368194580078125">
        <ele>2085</ele>
        <time>2026-06-19T12:19:51.000Z</time>
        <extensions>
          <ns3:TrackPointExtension>
            <ns3:atemp>17.0</ns3:atemp>
          </ns3:TrackPointExtension>
        </extensions>
      </trkpt>
      <trkpt lat="42.56077456288039684295654296875" lon="20.091534219682216644287109375">
        <ele>2084.800048828125</ele>
        <time>2026-06-19T12:19:52.000Z</time>
        <extensions>
          <ns3:TrackPointExtension>
            <ns3:atemp>17.0</ns3:atemp>
          </ns3:TrackPointExtension>
        </extensions>
      </trkpt>
      <trkpt lat="42.56077221594750881195068359375" lon="20.09154268540441989898681640625">
        <ele>2084.800048828125</ele>
        <time>2026-06-19T12:19:53.000Z</time>
        <extensions>
          <ns3:TrackPointExtension>
            <ns3:atemp>17.0</ns3:atemp>
          </ns3:TrackPointExtension>
        </extensions>
      </trkpt>
      <trkpt lat="42.56076919846236705780029296875" lon="20.0915528275072574615478515625">
        <ele>2084.60009765625</ele>
        <time>2026-06-19T12:19:54.000Z</time>
        <extensions>
          <ns3:TrackPointExtension>
            <ns3:atemp>17.0</ns3:atemp>
          </ns3:TrackPointExtension>
        </extensions>
      </trkpt>
      <trkpt lat="42.5607669353485107421875" lon="20.09157017804682254791259765625">
        <ele>2084.199951171875</ele>
        <time>2026-06-19T12:19:55.000Z</time>
        <extensions>
          <ns3:TrackPointExtension>
            <ns3:atemp>17.0</ns3:atemp>
          </ns3:TrackPointExtension>
        </extensions>
      </trkpt>
      <trkpt lat="42.56076584570109844207763671875" lon="20.0915695913136005401611328125">
        <ele>2084</ele>
        <time>2026-06-19T12:19:56.000Z</time>
        <extensions>
          <ns3:TrackPointExtension>
            <ns3:atemp>17.0</ns3:atemp>
          </ns3:TrackPointExtension>
        </extensions>
      </trkpt>
      <trkpt lat="42.5607657618820667266845703125" lon="20.09156967513263225555419921875">
        <ele>2083.800048828125</ele>
        <time>2026-06-19T12:19:57.000Z</time>
        <extensions>
          <ns3:TrackPointExtension>
            <ns3:atemp>17.0</ns3:atemp>
          </ns3:TrackPointExtension>
        </extensions>
      </trkpt>
      <trkpt lat="42.5607657618820667266845703125" lon="20.09156984277069568634033203125">
        <ele>2083.800048828125</ele>
        <time>2026-06-19T12:19:58.000Z</time>
        <extensions>
          <ns3:TrackPointExtension>
            <ns3:atemp>17.0</ns3:atemp>
          </ns3:TrackPointExtension>
        </extensions>
      </trkpt>
      <trkpt lat="42.5607644207775592803955078125" lon="20.09158576838672161102294921875">
        <ele>2083.60009765625</ele>
        <time>2026-06-19T12:19:59.000Z</time>
        <extensions>
          <ns3:TrackPointExtension>
            <ns3:atemp>17.0</ns3:atemp>
          </ns3:TrackPointExtension>
        </extensions>
      </trkpt>
      <trkpt lat="42.560764253139495849609375" lon="20.09159767068922519683837890625">
        <ele>2083.39990234375</ele>
        <time>2026-06-19T12:20:00.000Z</time>
        <extensions>
          <ns3:TrackPointExtension>
            <ns3:atemp>17.0</ns3:atemp>
          </ns3:TrackPointExtension>
        </extensions>
      </trkpt>
      <trkpt lat="42.56076584570109844207763671875" lon="20.09160571731626987457275390625">
        <ele>2083.39990234375</ele>
        <time>2026-06-19T12:20:01.000Z</time>
        <extensions>
          <ns3:TrackPointExtension>
            <ns3:atemp>17.0</ns3:atemp>
          </ns3:TrackPointExtension>
        </extensions>
      </trkpt>
      <trkpt lat="42.5607660971581935882568359375" lon="20.0916138477623462677001953125">
        <ele>2083.199951171875</ele>
        <time>2026-06-19T12:20:02.000Z</time>
        <extensions>
          <ns3:TrackPointExtension>
            <ns3:atemp>17.0</ns3:atemp>
          </ns3:TrackPointExtension>
        </extensions>
      </trkpt>
      <trkpt lat="42.56076416932046413421630859375" lon="20.09161745198071002960205078125">
        <ele>2083</ele>
        <time>2026-06-19T12:20:03.000Z</time>
        <extensions>
          <ns3:TrackPointExtension>
            <ns3:atemp>17.0</ns3:atemp>
          </ns3:TrackPointExtension>
        </extensions>
      </trkpt>
      <trkpt lat="42.5607630796730518341064453125" lon="20.09162751026451587677001953125">
        <ele>2083</ele>
        <time>2026-06-19T12:20:04.000Z</time>
        <extensions>
          <ns3:TrackPointExtension>
            <ns3:atemp>17.0</ns3:atemp>
          </ns3:TrackPointExtension>
        </extensions>
      </trkpt>
      <trkpt lat="42.56076450459659099578857421875" lon="20.09164460934698581695556640625">
        <ele>2082.800048828125</ele>
        <time>2026-06-19T12:20:05.000Z</time>
        <extensions>
          <ns3:TrackPointExtension>
            <ns3:atemp>17.0</ns3:atemp>
          </ns3:TrackPointExtension>
        </extensions>
      </trkpt>
      <trkpt lat="42.56076651625335216522216796875" lon="20.0916607864201068878173828125">
        <ele>2082.800048828125</ele>
        <time>2026-06-19T12:20:06.000Z</time>
        <extensions>
          <ns3:TrackPointExtension>
            <ns3:atemp>17.0</ns3:atemp>
          </ns3:TrackPointExtension>
        </extensions>
      </trkpt>
      <trkpt lat="42.56077020429074764251708984375" lon="20.09167109616100788116455078125">
        <ele>2082.800048828125</ele>
        <time>2026-06-19T12:20:07.000Z</time>
        <extensions>
          <ns3:TrackPointExtension>
            <ns3:atemp>17.0</ns3:atemp>
          </ns3:TrackPointExtension>
        </extensions>
      </trkpt>
      <trkpt lat="42.56077003665268421173095703125" lon="20.0916731916368007659912109375">
        <ele>2082.60009765625</ele>
        <time>2026-06-19T12:20:08.000Z</time>
        <extensions>
          <ns3:TrackPointExtension>
            <ns3:atemp>17.0</ns3:atemp>
          </ns3:TrackPointExtension>
        </extensions>
      </trkpt>
      <trkpt lat="42.56077003665268421173095703125" lon="20.0916731916368007659912109375">
        <ele>2082.60009765625</ele>
        <time>2026-06-19T12:20:09.000Z</time>
        <extensions>
          <ns3:TrackPointExtension>
            <ns3:atemp>17.0</ns3:atemp>
          </ns3:TrackPointExtension>
        </extensions>
      </trkpt>
      <trkpt lat="42.56077003665268421173095703125" lon="20.0916731916368007659912109375">
        <ele>2082.60009765625</ele>
        <time>2026-06-19T12:20:10.000Z</time>
        <extensions>
          <ns3:TrackPointExtension>
            <ns3:atemp>17.0</ns3:atemp>
          </ns3:TrackPointExtension>
        </extensions>
      </trkpt>
      <trkpt lat="42.56077003665268421173095703125" lon="20.0916731916368007659912109375">
        <ele>2082.60009765625</ele>
        <time>2026-06-19T12:20:11.000Z</time>
        <extensions>
          <ns3:TrackPointExtension>
            <ns3:atemp>17.0</ns3:atemp>
          </ns3:TrackPointExtension>
        </extensions>
      </trkpt>
      <trkpt lat="42.56077003665268421173095703125" lon="20.0916731916368007659912109375">
        <ele>2082.39990234375</ele>
        <time>2026-06-19T12:20:12.000Z</time>
        <extensions>
          <ns3:TrackPointExtension>
            <ns3:atemp>17.0</ns3:atemp>
          </ns3:TrackPointExtension>
        </extensions>
      </trkpt>
      <trkpt lat="42.56077020429074764251708984375" lon="20.09167310781776905059814453125">
        <ele>2082.39990234375</ele>
        <time>2026-06-19T12:20:13.000Z</time>
        <extensions>
          <ns3:TrackPointExtension>
            <ns3:atemp>17.0</ns3:atemp>
          </ns3:TrackPointExtension>
        </extensions>
      </trkpt>
      <trkpt lat="42.5607761554419994354248046875" lon="20.091679729521274566650390625">
        <ele>2082.39990234375</ele>
        <time>2026-06-19T12:20:14.000Z</time>
        <extensions>
          <ns3:TrackPointExtension>
            <ns3:atemp>17.0</ns3:atemp>
          </ns3:TrackPointExtension>
        </extensions>
      </trkpt>
      <trkpt lat="42.56077967584133148193359375" lon="20.09168618358671665191650390625">
        <ele>2082.199951171875</ele>
        <time>2026-06-19T12:20:15.000Z</time>
        <extensions>
          <ns3:TrackPointExtension>
            <ns3:atemp>17.0</ns3:atemp>
          </ns3:TrackPointExtension>
        </extensions>
      </trkpt>
      <trkpt lat="42.56078638136386871337890625" lon="20.091695487499237060546875">
        <ele>2082.199951171875</ele>
        <time>2026-06-19T12:20:16.000Z</time>
        <extensions>
          <ns3:TrackPointExtension>
            <ns3:atemp>17.0</ns3:atemp>
          </ns3:TrackPointExtension>
        </extensions>
      </trkpt>
      <trkpt lat="42.56079048849642276763916015625" lon="20.09169523604214191436767578125">
        <ele>2082.199951171875</ele>
        <time>2026-06-19T12:20:17.000Z</time>
        <extensions>
          <ns3:TrackPointExtension>
            <ns3:atemp>17.0</ns3:atemp>
          </ns3:TrackPointExtension>
        </extensions>
      </trkpt>
      <trkpt lat="42.5607949309051036834716796875" lon="20.09170152246952056884765625">
        <ele>2082</ele>
        <time>2026-06-19T12:20:18.000Z</time>
        <extensions>
          <ns3:TrackPointExtension>
            <ns3:atemp>17.0</ns3:atemp>
          </ns3:TrackPointExtension>
        </extensions>
      </trkpt>
      <trkpt lat="42.5608039833605289459228515625" lon="20.0917063839733600616455078125">
        <ele>2082</ele>
        <time>2026-06-19T12:20:19.000Z</time>
        <extensions>
          <ns3:TrackPointExtension>
            <ns3:atemp>17.0</ns3:atemp>
          </ns3:TrackPointExtension>
        </extensions>
      </trkpt>
      <trkpt lat="42.56081379018723964691162109375" lon="20.09171451441943645477294921875">
        <ele>2081.800048828125</ele>
        <time>2026-06-19T12:20:20.000Z</time>
        <extensions>
          <ns3:TrackPointExtension>
            <ns3:atemp>17.0</ns3:atemp>
          </ns3:TrackPointExtension>
        </extensions>
      </trkpt>
      <trkpt lat="42.56081680767238140106201171875" lon="20.091717280447483062744140625">
        <ele>2081.800048828125</ele>
        <time>2026-06-19T12:20:21.000Z</time>
        <extensions>
          <ns3:TrackPointExtension>
            <ns3:atemp>17.0</ns3:atemp>
          </ns3:TrackPointExtension>
        </extensions>
      </trkpt>
      <trkpt lat="42.560816891491413116455078125" lon="20.091717280447483062744140625">
        <ele>2081.60009765625</ele>
        <time>2026-06-19T12:20:22.000Z</time>
        <extensions>
          <ns3:TrackPointExtension>
            <ns3:atemp>17.0</ns3:atemp>
          </ns3:TrackPointExtension>
        </extensions>
      </trkpt>
      <trkpt lat="42.5608170591294765472412109375" lon="20.09171736426651477813720703125">
        <ele>2081.60009765625</ele>
        <time>2026-06-19T12:20:23.000Z</time>
        <extensions>
          <ns3:TrackPointExtension>
            <ns3:atemp>17.0</ns3:atemp>
          </ns3:TrackPointExtension>
        </extensions>
      </trkpt>
      <trkpt lat="42.560816891491413116455078125" lon="20.091717280447483062744140625">
        <ele>2081.60009765625</ele>
        <time>2026-06-19T12:20:24.000Z</time>
        <extensions>
          <ns3:TrackPointExtension>
            <ns3:atemp>17.0</ns3:atemp>
          </ns3:TrackPointExtension>
        </extensions>
      </trkpt>
      <trkpt lat="42.560816891491413116455078125" lon="20.091717280447483062744140625">
        <ele>2081.60009765625</ele>
        <time>2026-06-19T12:20:25.000Z</time>
        <extensions>
          <ns3:TrackPointExtension>
            <ns3:atemp>17.0</ns3:atemp>
          </ns3:TrackPointExtension>
        </extensions>
      </trkpt>
      <trkpt lat="42.560816891491413116455078125" lon="20.091717280447483062744140625">
        <ele>2081.39990234375</ele>
        <time>2026-06-19T12:20:26.000Z</time>
        <extensions>
          <ns3:TrackPointExtension>
            <ns3:atemp>17.0</ns3:atemp>
          </ns3:TrackPointExtension>
        </extensions>
      </trkpt>
      <trkpt lat="42.560816891491413116455078125" lon="20.091717280447483062744140625">
        <ele>2081.39990234375</ele>
        <time>2026-06-19T12:20:27.000Z</time>
        <extensions>
          <ns3:TrackPointExtension>
            <ns3:atemp>17.0</ns3:atemp>
          </ns3:TrackPointExtension>
        </extensions>
      </trkpt>
      <trkpt lat="42.560816891491413116455078125" lon="20.091717280447483062744140625">
        <ele>2081.199951171875</ele>
        <time>2026-06-19T12:20:28.000Z</time>
        <extensions>
          <ns3:TrackPointExtension>
            <ns3:atemp>17.0</ns3:atemp>
          </ns3:TrackPointExtension>
        </extensions>
      </trkpt>
      <trkpt lat="42.560816891491413116455078125" lon="20.091717280447483062744140625">
        <ele>2081.199951171875</ele>
        <time>2026-06-19T12:20:29.000Z</time>
        <extensions>
          <ns3:TrackPointExtension>
            <ns3:atemp>17.0</ns3:atemp>
          </ns3:TrackPointExtension>
        </extensions>
      </trkpt>
      <trkpt lat="42.56082200445234775543212890625" lon="20.09171761572360992431640625">
        <ele>2081.199951171875</ele>
        <time>2026-06-19T12:20:30.000Z</time>
        <extensions>
          <ns3:TrackPointExtension>
            <ns3:atemp>17.0</ns3:atemp>
          </ns3:TrackPointExtension>
        </extensions>
      </trkpt>
      <trkpt lat="42.56084044463932514190673828125" lon="20.0917254947125911712646484375">
        <ele>2081.199951171875</ele>
        <time>2026-06-19T12:20:31.000Z</time>
        <extensions>
          <ns3:TrackPointExtension>
            <ns3:atemp>17.0</ns3:atemp>
          </ns3:TrackPointExtension>
        </extensions>
      </trkpt>
      <trkpt lat="42.5608556158840656280517578125" lon="20.09173295460641384124755859375">
        <ele>2081</ele>
        <time>2026-06-19T12:20:32.000Z</time>
        <extensions>
          <ns3:TrackPointExtension>
            <ns3:atemp>17.0</ns3:atemp>
          </ns3:TrackPointExtension>
        </extensions>
      </trkpt>
      <trkpt lat="42.560869194567203521728515625" lon="20.09174443781375885009765625">
        <ele>2080.800048828125</ele>
        <time>2026-06-19T12:20:33.000Z</time>
        <extensions>
          <ns3:TrackPointExtension>
            <ns3:atemp>17.0</ns3:atemp>
          </ns3:TrackPointExtension>
        </extensions>
      </trkpt>
      <trkpt lat="42.5608787499368190765380859375" lon="20.09176111780107021331787109375">
        <ele>2080.60009765625</ele>
        <time>2026-06-19T12:20:34.000Z</time>
        <extensions>
          <ns3:TrackPointExtension>
            <ns3:atemp>17.0</ns3:atemp>
          </ns3:TrackPointExtension>
        </extensions>
      </trkpt>
      <trkpt lat="42.5608844496309757232666015625" lon="20.09177804924547672271728515625">
        <ele>2080.39990234375</ele>
        <time>2026-06-19T12:20:35.000Z</time>
        <extensions>
          <ns3:TrackPointExtension>
            <ns3:atemp>17.0</ns3:atemp>
          </ns3:TrackPointExtension>
        </extensions>
      </trkpt>
      <trkpt lat="42.560882270336151123046875" lon="20.09178777225315570831298828125">
        <ele>2080.199951171875</ele>
        <time>2026-06-19T12:20:36.000Z</time>
        <extensions>
          <ns3:TrackPointExtension>
            <ns3:atemp>17.0</ns3:atemp>
          </ns3:TrackPointExtension>
        </extensions>
      </trkpt>
      <trkpt lat="42.56088252179324626922607421875" lon="20.09178576059639453887939453125">
        <ele>2080</ele>
        <time>2026-06-19T12:20:37.000Z</time>
        <extensions>
          <ns3:TrackPointExtension>
            <ns3:atemp>17.0</ns3:atemp>
          </ns3:TrackPointExtension>
        </extensions>
      </trkpt>
      <trkpt lat="42.560882605612277984619140625" lon="20.09178576059639453887939453125">
        <ele>2080</ele>
        <time>2026-06-19T12:20:38.000Z</time>
        <extensions>
          <ns3:TrackPointExtension>
            <ns3:atemp>17.0</ns3:atemp>
          </ns3:TrackPointExtension>
        </extensions>
      </trkpt>
      <trkpt lat="42.560882605612277984619140625" lon="20.09178576059639453887939453125">
        <ele>2079.800048828125</ele>
        <time>2026-06-19T12:20:39.000Z</time>
        <extensions>
          <ns3:TrackPointExtension>
            <ns3:atemp>17.0</ns3:atemp>
          </ns3:TrackPointExtension>
        </extensions>
      </trkpt>
      <trkpt lat="42.560882605612277984619140625" lon="20.09178576059639453887939453125">
        <ele>2079.800048828125</ele>
        <time>2026-06-19T12:20:40.000Z</time>
        <extensions>
          <ns3:TrackPointExtension>
            <ns3:atemp>17.0</ns3:atemp>
          </ns3:TrackPointExtension>
        </extensions>
      </trkpt>
      <trkpt lat="42.560882605612277984619140625" lon="20.09178576059639453887939453125">
        <ele>2079.800048828125</ele>
        <time>2026-06-19T12:20:41.000Z</time>
        <extensions>
          <ns3:TrackPointExtension>
            <ns3:atemp>17.0</ns3:atemp>
          </ns3:TrackPointExtension>
        </extensions>
      </trkpt>
      <trkpt lat="42.560882605612277984619140625" lon="20.09178576059639453887939453125">
        <ele>2079.800048828125</ele>
        <time>2026-06-19T12:20:42.000Z</time>
        <extensions>
          <ns3:TrackPointExtension>
            <ns3:atemp>17.0</ns3:atemp>
          </ns3:TrackPointExtension>
        </extensions>
      </trkpt>
      <trkpt lat="42.56088285706937313079833984375" lon="20.0917855091392993927001953125">
        <ele>2079.60009765625</ele>
        <time>2026-06-19T12:20:43.000Z</time>
        <extensions>
          <ns3:TrackPointExtension>
            <ns3:atemp>17.0</ns3:atemp>
          </ns3:TrackPointExtension>
        </extensions>
      </trkpt>
      <trkpt lat="42.560882605612277984619140625" lon="20.09178576059639453887939453125">
        <ele>2079.60009765625</ele>
        <time>2026-06-19T12:20:44.000Z</time>
        <extensions>
          <ns3:TrackPointExtension>
            <ns3:atemp>17.0</ns3:atemp>
          </ns3:TrackPointExtension>
        </extensions>
      </trkpt>
      <trkpt lat="42.560882605612277984619140625" lon="20.09178576059639453887939453125">
        <ele>2079.800048828125</ele>
        <time>2026-06-19T12:20:45.000Z</time>
        <extensions>
          <ns3:TrackPointExtension>
            <ns3:atemp>17.0</ns3:atemp>
          </ns3:TrackPointExtension>
        </extensions>
      </trkpt>
      <trkpt lat="42.560882605612277984619140625" lon="20.09178576059639453887939453125">
        <ele>2079.800048828125</ele>
        <time>2026-06-19T12:20:46.000Z</time>
        <extensions>
          <ns3:TrackPointExtension>
            <ns3:atemp>17.0</ns3:atemp>
          </ns3:TrackPointExtension>
        </extensions>
      </trkpt>
      <trkpt lat="42.560882605612277984619140625" lon="20.09178576059639453887939453125">
        <ele>2079.800048828125</ele>
        <time>2026-06-19T12:20:47.000Z</time>
        <extensions>
          <ns3:TrackPointExtension>
            <ns3:atemp>17.0</ns3:atemp>
          </ns3:TrackPointExtension>
        </extensions>
      </trkpt>
      <trkpt lat="42.560882605612277984619140625" lon="20.09178576059639453887939453125">
        <ele>2079.800048828125</ele>
        <time>2026-06-19T12:20:48.000Z</time>
        <extensions>
          <ns3:TrackPointExtension>
            <ns3:atemp>17.0</ns3:atemp>
          </ns3:TrackPointExtension>
        </extensions>
      </trkpt>
      <trkpt lat="42.560882605612277984619140625" lon="20.09178576059639453887939453125">
        <ele>2079.60009765625</ele>
        <time>2026-06-19T12:20:49.000Z</time>
        <extensions>
          <ns3:TrackPointExtension>
            <ns3:atemp>17.0</ns3:atemp>
          </ns3:TrackPointExtension>
        </extensions>
      </trkpt>
      <trkpt lat="42.560882605612277984619140625" lon="20.09178576059639453887939453125">
        <ele>2079.60009765625</ele>
        <time>2026-06-19T12:20:50.000Z</time>
        <extensions>
          <ns3:TrackPointExtension>
            <ns3:atemp>17.0</ns3:atemp>
          </ns3:TrackPointExtension>
        </extensions>
      </trkpt>
      <trkpt lat="42.560882605612277984619140625" lon="20.09178576059639453887939453125">
        <ele>2079.39990234375</ele>
        <time>2026-06-19T12:20:51.000Z</time>
        <extensions>
          <ns3:TrackPointExtension>
            <ns3:atemp>17.0</ns3:atemp>
          </ns3:TrackPointExtension>
        </extensions>
      </trkpt>
      <trkpt lat="42.560882605612277984619140625" lon="20.09178576059639453887939453125">
        <ele>2079.39990234375</ele>
        <time>2026-06-19T12:20:52.000Z</time>
        <extensions>
          <ns3:TrackPointExtension>
            <ns3:atemp>17.0</ns3:atemp>
          </ns3:TrackPointExtension>
        </extensions>
      </trkpt>
      <trkpt lat="42.560882605612277984619140625" lon="20.09178576059639453887939453125">
        <ele>2079.39990234375</ele>
        <time>2026-06-19T12:20:53.000Z</time>
        <extensions>
          <ns3:TrackPointExtension>
            <ns3:atemp>17.0</ns3:atemp>
          </ns3:TrackPointExtension>
        </extensions>
      </trkpt>
      <trkpt lat="42.560882605612277984619140625" lon="20.09178576059639453887939453125">
        <ele>2079.39990234375</ele>
        <time>2026-06-19T12:20:54.000Z</time>
        <extensions>
          <ns3:TrackPointExtension>
            <ns3:atemp>17.0</ns3:atemp>
          </ns3:TrackPointExtension>
        </extensions>
      </trkpt>
      <trkpt lat="42.560882605612277984619140625" lon="20.09178576059639453887939453125">
        <ele>2079.39990234375</ele>
        <time>2026-06-19T12:20:55.000Z</time>
        <extensions>
          <ns3:TrackPointExtension>
            <ns3:atemp>17.0</ns3:atemp>
          </ns3:TrackPointExtension>
        </extensions>
      </trkpt>
      <trkpt lat="42.560882605612277984619140625" lon="20.09178576059639453887939453125">
        <ele>2079.39990234375</ele>
        <time>2026-06-19T12:20:56.000Z</time>
        <extensions>
          <ns3:TrackPointExtension>
            <ns3:atemp>17.0</ns3:atemp>
          </ns3:TrackPointExtension>
        </extensions>
      </trkpt>
      <trkpt lat="42.560882605612277984619140625" lon="20.09178576059639453887939453125">
        <ele>2079.39990234375</ele>
        <time>2026-06-19T12:20:57.000Z</time>
        <extensions>
          <ns3:TrackPointExtension>
            <ns3:atemp>17.0</ns3:atemp>
          </ns3:TrackPointExtension>
        </extensions>
      </trkpt>
      <trkpt lat="42.560882605612277984619140625" lon="20.09178576059639453887939453125">
        <ele>2079.39990234375</ele>
        <time>2026-06-19T12:20:58.000Z</time>
        <extensions>
          <ns3:TrackPointExtension>
            <ns3:atemp>17.0</ns3:atemp>
          </ns3:TrackPointExtension>
        </extensions>
      </trkpt>
      <trkpt lat="42.560882605612277984619140625" lon="20.09178576059639453887939453125">
        <ele>2079.39990234375</ele>
        <time>2026-06-19T12:20:59.000Z</time>
        <extensions>
          <ns3:TrackPointExtension>
            <ns3:atemp>17.0</ns3:atemp>
          </ns3:TrackPointExtension>
        </extensions>
      </trkpt>
      <trkpt lat="42.560882605612277984619140625" lon="20.09178576059639453887939453125">
        <ele>2079.39990234375</ele>
        <time>2026-06-19T12:21:00.000Z</time>
        <extensions>
          <ns3:TrackPointExtension>
            <ns3:atemp>17.0</ns3:atemp>
          </ns3:TrackPointExtension>
        </extensions>
      </trkpt>
      <trkpt lat="42.560882605612277984619140625" lon="20.09178576059639453887939453125">
        <ele>2079.39990234375</ele>
        <time>2026-06-19T12:21:01.000Z</time>
        <extensions>
          <ns3:TrackPointExtension>
            <ns3:atemp>17.0</ns3:atemp>
          </ns3:TrackPointExtension>
        </extensions>
      </trkpt>
      <trkpt lat="42.560882605612277984619140625" lon="20.09178576059639453887939453125">
        <ele>2079.39990234375</ele>
        <time>2026-06-19T12:21:02.000Z</time>
        <extensions>
          <ns3:TrackPointExtension>
            <ns3:atemp>17.0</ns3:atemp>
          </ns3:TrackPointExtension>
        </extensions>
      </trkpt>
      <trkpt lat="42.560882605612277984619140625" lon="20.09178576059639453887939453125">
        <ele>2079.39990234375</ele>
        <time>2026-06-19T12:21:03.000Z</time>
        <extensions>
          <ns3:TrackPointExtension>
            <ns3:atemp>17.0</ns3:atemp>
          </ns3:TrackPointExtension>
        </extensions>
      </trkpt>
      <trkpt lat="42.560882605612277984619140625" lon="20.09178576059639453887939453125">
        <ele>2079.39990234375</ele>
        <time>2026-06-19T12:21:04.000Z</time>
        <extensions>
          <ns3:TrackPointExtension>
            <ns3:atemp>17.0</ns3:atemp>
          </ns3:TrackPointExtension>
        </extensions>
      </trkpt>
      <trkpt lat="42.560882605612277984619140625" lon="20.09178576059639453887939453125">
        <ele>2079.39990234375</ele>
        <time>2026-06-19T12:21:05.000Z</time>
        <extensions>
          <ns3:TrackPointExtension>
            <ns3:atemp>17.0</ns3:atemp>
          </ns3:TrackPointExtension>
        </extensions>
      </trkpt>
      <trkpt lat="42.560882605612277984619140625" lon="20.09178576059639453887939453125">
        <ele>2079.199951171875</ele>
        <time>2026-06-19T12:21:06.000Z</time>
        <extensions>
          <ns3:TrackPointExtension>
            <ns3:atemp>17.0</ns3:atemp>
          </ns3:TrackPointExtension>
        </extensions>
      </trkpt>
      <trkpt lat="42.560882605612277984619140625" lon="20.09178576059639453887939453125">
        <ele>2079.199951171875</ele>
        <time>2026-06-19T12:21:07.000Z</time>
        <extensions>
          <ns3:TrackPointExtension>
            <ns3:atemp>17.0</ns3:atemp>
          </ns3:TrackPointExtension>
        </extensions>
      </trkpt>
      <trkpt lat="42.560882605612277984619140625" lon="20.09178576059639453887939453125">
        <ele>2079.199951171875</ele>
        <time>2026-06-19T12:21:08.000Z</time>
        <extensions>
          <ns3:TrackPointExtension>
            <ns3:atemp>17.0</ns3:atemp>
          </ns3:TrackPointExtension>
        </extensions>
      </trkpt>
      <trkpt lat="42.560882605612277984619140625" lon="20.09178576059639453887939453125">
        <ele>2079.199951171875</ele>
        <time>2026-06-19T12:21:09.000Z</time>
        <extensions>
          <ns3:TrackPointExtension>
            <ns3:atemp>17.0</ns3:atemp>
          </ns3:TrackPointExtension>
        </extensions>
      </trkpt>
      <trkpt lat="42.560882605612277984619140625" lon="20.09178576059639453887939453125">
        <ele>2079.39990234375</ele>
        <time>2026-06-19T12:21:10.000Z</time>
        <extensions>
          <ns3:TrackPointExtension>
            <ns3:atemp>17.0</ns3:atemp>
          </ns3:TrackPointExtension>
        </extensions>
      </trkpt>
      <trkpt lat="42.560882605612277984619140625" lon="20.09178576059639453887939453125">
        <ele>2079.39990234375</ele>
        <time>2026-06-19T12:21:11.000Z</time>
        <extensions>
          <ns3:TrackPointExtension>
            <ns3:atemp>17.0</ns3:atemp>
          </ns3:TrackPointExtension>
        </extensions>
      </trkpt>
      <trkpt lat="42.560882605612277984619140625" lon="20.09178576059639453887939453125">
        <ele>2079.39990234375</ele>
        <time>2026-06-19T12:21:12.000Z</time>
        <extensions>
          <ns3:TrackPointExtension>
            <ns3:atemp>17.0</ns3:atemp>
          </ns3:TrackPointExtension>
        </extensions>
      </trkpt>
      <trkpt lat="42.560882605612277984619140625" lon="20.09178576059639453887939453125">
        <ele>2079.39990234375</ele>
        <time>2026-06-19T12:21:13.000Z</time>
        <extensions>
          <ns3:TrackPointExtension>
            <ns3:atemp>17.0</ns3:atemp>
          </ns3:TrackPointExtension>
        </extensions>
      </trkpt>
      <trkpt lat="42.560882605612277984619140625" lon="20.09178576059639453887939453125">
        <ele>2079.39990234375</ele>
        <time>2026-06-19T12:21:14.000Z</time>
        <extensions>
          <ns3:TrackPointExtension>
            <ns3:atemp>17.0</ns3:atemp>
          </ns3:TrackPointExtension>
        </extensions>
      </trkpt>
      <trkpt lat="42.560882605612277984619140625" lon="20.09178576059639453887939453125">
        <ele>2079.39990234375</ele>
        <time>2026-06-19T12:21:15.000Z</time>
        <extensions>
          <ns3:TrackPointExtension>
            <ns3:atemp>17.0</ns3:atemp>
          </ns3:TrackPointExtension>
        </extensions>
      </trkpt>
      <trkpt lat="42.560882605612277984619140625" lon="20.09178576059639453887939453125">
        <ele>2079.39990234375</ele>
        <time>2026-06-19T12:21:16.000Z</time>
        <extensions>
          <ns3:TrackPointExtension>
            <ns3:atemp>17.0</ns3:atemp>
          </ns3:TrackPointExtension>
        </extensions>
      </trkpt>
      <trkpt lat="42.560882605612277984619140625" lon="20.09178576059639453887939453125">
        <ele>2079.39990234375</ele>
        <time>2026-06-19T12:21:17.000Z</time>
        <extensions>
          <ns3:TrackPointExtension>
            <ns3:atemp>17.0</ns3:atemp>
          </ns3:TrackPointExtension>
        </extensions>
      </trkpt>
      <trkpt lat="42.560882605612277984619140625" lon="20.09178576059639453887939453125">
        <ele>2079.39990234375</ele>
        <time>2026-06-19T12:21:18.000Z</time>
        <extensions>
          <ns3:TrackPointExtension>
            <ns3:atemp>17.0</ns3:atemp>
          </ns3:TrackPointExtension>
        </extensions>
      </trkpt>
      <trkpt lat="42.560882605612277984619140625" lon="20.09178576059639453887939453125">
        <ele>2079.39990234375</ele>
        <time>2026-06-19T12:21:19.000Z</time>
        <extensions>
          <ns3:TrackPointExtension>
            <ns3:atemp>17.0</ns3:atemp>
          </ns3:TrackPointExtension>
        </extensions>
      </trkpt>
      <trkpt lat="42.560882605612277984619140625" lon="20.09178576059639453887939453125">
        <ele>2079.39990234375</ele>
        <time>2026-06-19T12:21:20.000Z</time>
        <extensions>
          <ns3:TrackPointExtension>
            <ns3:atemp>17.0</ns3:atemp>
          </ns3:TrackPointExtension>
        </extensions>
      </trkpt>
      <trkpt lat="42.560882605612277984619140625" lon="20.09178576059639453887939453125">
        <ele>2079.39990234375</ele>
        <time>2026-06-19T12:21:21.000Z</time>
        <extensions>
          <ns3:TrackPointExtension>
            <ns3:atemp>17.0</ns3:atemp>
          </ns3:TrackPointExtension>
        </extensions>
      </trkpt>
      <trkpt lat="42.560882605612277984619140625" lon="20.09178576059639453887939453125">
        <ele>2079.39990234375</ele>
        <time>2026-06-19T12:21:22.000Z</time>
        <extensions>
          <ns3:TrackPointExtension>
            <ns3:atemp>17.0</ns3:atemp>
          </ns3:TrackPointExtension>
        </extensions>
      </trkpt>
      <trkpt lat="42.56088570691645145416259765625" lon="20.09178073145449161529541015625">
        <ele>2079.39990234375</ele>
        <time>2026-06-19T12:21:23.000Z</time>
        <extensions>
          <ns3:TrackPointExtension>
            <ns3:atemp>17.0</ns3:atemp>
          </ns3:TrackPointExtension>
        </extensions>
      </trkpt>
      <trkpt lat="42.56088637746870517730712890625" lon="20.0917845033109188079833984375">
        <ele>2079.39990234375</ele>
        <time>2026-06-19T12:21:24.000Z</time>
        <extensions>
          <ns3:TrackPointExtension>
            <ns3:atemp>17.0</ns3:atemp>
          </ns3:TrackPointExtension>
        </extensions>
      </trkpt>
      <trkpt lat="42.560882605612277984619140625" lon="20.09178576059639453887939453125">
        <ele>2079.39990234375</ele>
        <time>2026-06-19T12:21:25.000Z</time>
        <extensions>
          <ns3:TrackPointExtension>
            <ns3:atemp>17.0</ns3:atemp>
          </ns3:TrackPointExtension>
        </extensions>
      </trkpt>
      <trkpt lat="42.560882605612277984619140625" lon="20.09178576059639453887939453125">
        <ele>2079.39990234375</ele>
        <time>2026-06-19T12:21:26.000Z</time>
        <extensions>
          <ns3:TrackPointExtension>
            <ns3:atemp>17.0</ns3:atemp>
          </ns3:TrackPointExtension>
        </extensions>
      </trkpt>
      <trkpt lat="42.560882605612277984619140625" lon="20.09178576059639453887939453125">
        <ele>2079.199951171875</ele>
        <time>2026-06-19T12:21:27.000Z</time>
        <extensions>
          <ns3:TrackPointExtension>
            <ns3:atemp>17.0</ns3:atemp>
          </ns3:TrackPointExtension>
        </extensions>
      </trkpt>
      <trkpt lat="42.560882605612277984619140625" lon="20.09178576059639453887939453125">
        <ele>2079.199951171875</ele>
        <time>2026-06-19T12:21:28.000Z</time>
        <extensions>
          <ns3:TrackPointExtension>
            <ns3:atemp>17.0</ns3:atemp>
          </ns3:TrackPointExtension>
        </extensions>
      </trkpt>
      <trkpt lat="42.560882605612277984619140625" lon="20.09178576059639453887939453125">
        <ele>2079.199951171875</ele>
        <time>2026-06-19T12:21:29.000Z</time>
        <extensions>
          <ns3:TrackPointExtension>
            <ns3:atemp>17.0</ns3:atemp>
          </ns3:TrackPointExtension>
        </extensions>
      </trkpt>
      <trkpt lat="42.560882605612277984619140625" lon="20.09178576059639453887939453125">
        <ele>2079.39990234375</ele>
        <time>2026-06-19T12:21:30.000Z</time>
        <extensions>
          <ns3:TrackPointExtension>
            <ns3:atemp>17.0</ns3:atemp>
          </ns3:TrackPointExtension>
        </extensions>
      </trkpt>
      <trkpt lat="42.560882605612277984619140625" lon="20.09178576059639453887939453125">
        <ele>2079.39990234375</ele>
        <time>2026-06-19T12:21:31.000Z</time>
        <extensions>
          <ns3:TrackPointExtension>
            <ns3:atemp>17.0</ns3:atemp>
          </ns3:TrackPointExtension>
        </extensions>
      </trkpt>
      <trkpt lat="42.560882605612277984619140625" lon="20.09178576059639453887939453125">
        <ele>2079.39990234375</ele>
        <time>2026-06-19T12:21:32.000Z</time>
        <extensions>
          <ns3:TrackPointExtension>
            <ns3:atemp>17.0</ns3:atemp>
          </ns3:TrackPointExtension>
        </extensions>
      </trkpt>
      <trkpt lat="42.560882605612277984619140625" lon="20.09178576059639453887939453125">
        <ele>2079.39990234375</ele>
        <time>2026-06-19T12:21:33.000Z</time>
        <extensions>
          <ns3:TrackPointExtension>
            <ns3:atemp>18.0</ns3:atemp>
          </ns3:TrackPointExtension>
        </extensions>
      </trkpt>
      <trkpt lat="42.560882605612277984619140625" lon="20.09178576059639453887939453125">
        <ele>2079.39990234375</ele>
        <time>2026-06-19T12:21:34.000Z</time>
        <extensions>
          <ns3:TrackPointExtension>
            <ns3:atemp>17.0</ns3:atemp>
          </ns3:TrackPointExtension>
        </extensions>
      </trkpt>
      <trkpt lat="42.560882605612277984619140625" lon="20.09178576059639453887939453125">
        <ele>2079.199951171875</ele>
        <time>2026-06-19T12:21:35.000Z</time>
        <extensions>
          <ns3:TrackPointExtension>
            <ns3:atemp>17.0</ns3:atemp>
          </ns3:TrackPointExtension>
        </extensions>
      </trkpt>
      <trkpt lat="42.560882605612277984619140625" lon="20.09178576059639453887939453125">
        <ele>2079.39990234375</ele>
        <time>2026-06-19T12:21:36.000Z</time>
        <extensions>
          <ns3:TrackPointExtension>
            <ns3:atemp>17.0</ns3:atemp>
          </ns3:TrackPointExtension>
        </extensions>
      </trkpt>
      <trkpt lat="42.560882605612277984619140625" lon="20.09178576059639453887939453125">
        <ele>2079.199951171875</ele>
        <time>2026-06-19T12:21:37.000Z</time>
        <extensions>
          <ns3:TrackPointExtension>
            <ns3:atemp>17.0</ns3:atemp>
          </ns3:TrackPointExtension>
        </extensions>
      </trkpt>
      <trkpt lat="42.560882605612277984619140625" lon="20.09178576059639453887939453125">
        <ele>2079.39990234375</ele>
        <time>2026-06-19T12:21:38.000Z</time>
        <extensions>
          <ns3:TrackPointExtension>
            <ns3:atemp>17.0</ns3:atemp>
          </ns3:TrackPointExtension>
        </extensions>
      </trkpt>
      <trkpt lat="42.560882605612277984619140625" lon="20.09178576059639453887939453125">
        <ele>2079.39990234375</ele>
        <time>2026-06-19T12:21:39.000Z</time>
        <extensions>
          <ns3:TrackPointExtension>
            <ns3:atemp>17.0</ns3:atemp>
          </ns3:TrackPointExtension>
        </extensions>
      </trkpt>
      <trkpt lat="42.560882605612277984619140625" lon="20.09178576059639453887939453125">
        <ele>2079.39990234375</ele>
        <time>2026-06-19T12:21:40.000Z</time>
        <extensions>
          <ns3:TrackPointExtension>
            <ns3:atemp>17.0</ns3:atemp>
          </ns3:TrackPointExtension>
        </extensions>
      </trkpt>
      <trkpt lat="42.560882605612277984619140625" lon="20.09178576059639453887939453125">
        <ele>2079.39990234375</ele>
        <time>2026-06-19T12:21:41.000Z</time>
        <extensions>
          <ns3:TrackPointExtension>
            <ns3:atemp>17.0</ns3:atemp>
          </ns3:TrackPointExtension>
        </extensions>
      </trkpt>
      <trkpt lat="42.560882605612277984619140625" lon="20.09178576059639453887939453125">
        <ele>2079.199951171875</ele>
        <time>2026-06-19T12:21:42.000Z</time>
        <extensions>
          <ns3:TrackPointExtension>
            <ns3:atemp>17.0</ns3:atemp>
          </ns3:TrackPointExtension>
        </extensions>
      </trkpt>
      <trkpt lat="42.560882605612277984619140625" lon="20.09178576059639453887939453125">
        <ele>2079.199951171875</ele>
        <time>2026-06-19T12:21:43.000Z</time>
        <extensions>
          <ns3:TrackPointExtension>
            <ns3:atemp>17.0</ns3:atemp>
          </ns3:TrackPointExtension>
        </extensions>
      </trkpt>
      <trkpt lat="42.560882605612277984619140625" lon="20.09178576059639453887939453125">
        <ele>2079</ele>
        <time>2026-06-19T12:21:44.000Z</time>
        <extensions>
          <ns3:TrackPointExtension>
            <ns3:atemp>17.0</ns3:atemp>
          </ns3:TrackPointExtension>
        </extensions>
      </trkpt>
      <trkpt lat="42.560882605612277984619140625" lon="20.09178576059639453887939453125">
        <ele>2079</ele>
        <time>2026-06-19T12:21:45.000Z</time>
        <extensions>
          <ns3:TrackPointExtension>
            <ns3:atemp>17.0</ns3:atemp>
          </ns3:TrackPointExtension>
        </extensions>
      </trkpt>
      <trkpt lat="42.560882605612277984619140625" lon="20.09178576059639453887939453125">
        <ele>2079</ele>
        <time>2026-06-19T12:21:46.000Z</time>
        <extensions>
          <ns3:TrackPointExtension>
            <ns3:atemp>18.0</ns3:atemp>
          </ns3:TrackPointExtension>
        </extensions>
      </trkpt>
      <trkpt lat="42.560882605612277984619140625" lon="20.09178576059639453887939453125">
        <ele>2079</ele>
        <time>2026-06-19T12:21:47.000Z</time>
        <extensions>
          <ns3:TrackPointExtension>
            <ns3:atemp>18.0</ns3:atemp>
          </ns3:TrackPointExtension>
        </extensions>
      </trkpt>
      <trkpt lat="42.560882605612277984619140625" lon="20.09178576059639453887939453125">
        <ele>2079</ele>
        <time>2026-06-19T12:21:48.000Z</time>
        <extensions>
          <ns3:TrackPointExtension>
            <ns3:atemp>18.0</ns3:atemp>
          </ns3:TrackPointExtension>
        </extensions>
      </trkpt>
      <trkpt lat="42.560882605612277984619140625" lon="20.09178576059639453887939453125">
        <ele>2079.199951171875</ele>
        <time>2026-06-19T12:21:49.000Z</time>
        <extensions>
          <ns3:TrackPointExtension>
            <ns3:atemp>18.0</ns3:atemp>
          </ns3:TrackPointExtension>
        </extensions>
      </trkpt>
      <trkpt lat="42.560882605612277984619140625" lon="20.09178576059639453887939453125">
        <ele>2079.199951171875</ele>
        <time>2026-06-19T12:21:50.000Z</time>
        <extensions>
          <ns3:TrackPointExtension>
            <ns3:atemp>18.0</ns3:atemp>
          </ns3:TrackPointExtension>
        </extensions>
      </trkpt>
      <trkpt lat="42.560882605612277984619140625" lon="20.09178576059639453887939453125">
        <ele>2079.199951171875</ele>
        <time>2026-06-19T12:21:51.000Z</time>
        <extensions>
          <ns3:TrackPointExtension>
            <ns3:atemp>18.0</ns3:atemp>
          </ns3:TrackPointExtension>
        </extensions>
      </trkpt>
      <trkpt lat="42.560882605612277984619140625" lon="20.09178576059639453887939453125">
        <ele>2079.199951171875</ele>
        <time>2026-06-19T12:21:52.000Z</time>
        <extensions>
          <ns3:TrackPointExtension>
            <ns3:atemp>18.0</ns3:atemp>
          </ns3:TrackPointExtension>
        </extensions>
      </trkpt>
      <trkpt lat="42.560882605612277984619140625" lon="20.09178576059639453887939453125">
        <ele>2079.39990234375</ele>
        <time>2026-06-19T12:21:53.000Z</time>
        <extensions>
          <ns3:TrackPointExtension>
            <ns3:atemp>18.0</ns3:atemp>
          </ns3:TrackPointExtension>
        </extensions>
      </trkpt>
      <trkpt lat="42.560882605612277984619140625" lon="20.09178576059639453887939453125">
        <ele>2079.39990234375</ele>
        <time>2026-06-19T12:21:54.000Z</time>
        <extensions>
          <ns3:TrackPointExtension>
            <ns3:atemp>18.0</ns3:atemp>
          </ns3:TrackPointExtension>
        </extensions>
      </trkpt>
      <trkpt lat="42.560882605612277984619140625" lon="20.09178576059639453887939453125">
        <ele>2079.39990234375</ele>
        <time>2026-06-19T12:21:55.000Z</time>
        <extensions>
          <ns3:TrackPointExtension>
            <ns3:atemp>18.0</ns3:atemp>
          </ns3:TrackPointExtension>
        </extensions>
      </trkpt>
      <trkpt lat="42.560882605612277984619140625" lon="20.09178576059639453887939453125">
        <ele>2079.39990234375</ele>
        <time>2026-06-19T12:21:56.000Z</time>
        <extensions>
          <ns3:TrackPointExtension>
            <ns3:atemp>18.0</ns3:atemp>
          </ns3:TrackPointExtension>
        </extensions>
      </trkpt>
      <trkpt lat="42.560882605612277984619140625" lon="20.09178576059639453887939453125">
        <ele>2079.39990234375</ele>
        <time>2026-06-19T12:21:57.000Z</time>
        <extensions>
          <ns3:TrackPointExtension>
            <ns3:atemp>17.0</ns3:atemp>
          </ns3:TrackPointExtension>
        </extensions>
      </trkpt>
      <trkpt lat="42.560882605612277984619140625" lon="20.09178576059639453887939453125">
        <ele>2079.39990234375</ele>
        <time>2026-06-19T12:21:58.000Z</time>
        <extensions>
          <ns3:TrackPointExtension>
            <ns3:atemp>18.0</ns3:atemp>
          </ns3:TrackPointExtension>
        </extensions>
      </trkpt>
      <trkpt lat="42.560882605612277984619140625" lon="20.09178576059639453887939453125">
        <ele>2079.39990234375</ele>
        <time>2026-06-19T12:21:59.000Z</time>
        <extensions>
          <ns3:TrackPointExtension>
            <ns3:atemp>18.0</ns3:atemp>
          </ns3:TrackPointExtension>
        </extensions>
      </trkpt>
      <trkpt lat="42.560882605612277984619140625" lon="20.09178576059639453887939453125">
        <ele>2079.39990234375</ele>
        <time>2026-06-19T12:22:00.000Z</time>
        <extensions>
          <ns3:TrackPointExtension>
            <ns3:atemp>17.0</ns3:atemp>
          </ns3:TrackPointExtension>
        </extensions>
      </trkpt>
      <trkpt lat="42.560882605612277984619140625" lon="20.09178576059639453887939453125">
        <ele>2079.39990234375</ele>
        <time>2026-06-19T12:22:01.000Z</time>
        <extensions>
          <ns3:TrackPointExtension>
            <ns3:atemp>18.0</ns3:atemp>
          </ns3:TrackPointExtension>
        </extensions>
      </trkpt>
      <trkpt lat="42.560882605612277984619140625" lon="20.09178576059639453887939453125">
        <ele>2079.39990234375</ele>
        <time>2026-06-19T12:22:02.000Z</time>
        <extensions>
          <ns3:TrackPointExtension>
            <ns3:atemp>17.0</ns3:atemp>
          </ns3:TrackPointExtension>
        </extensions>
      </trkpt>
      <trkpt lat="42.560882605612277984619140625" lon="20.09178576059639453887939453125">
        <ele>2079.39990234375</ele>
        <time>2026-06-19T12:22:03.000Z</time>
        <extensions>
          <ns3:TrackPointExtension>
            <ns3:atemp>17.0</ns3:atemp>
          </ns3:TrackPointExtension>
        </extensions>
      </trkpt>
      <trkpt lat="42.560882605612277984619140625" lon="20.09178576059639453887939453125">
        <ele>2079.39990234375</ele>
        <time>2026-06-19T12:22:04.000Z</time>
        <extensions>
          <ns3:TrackPointExtension>
            <ns3:atemp>18.0</ns3:atemp>
          </ns3:TrackPointExtension>
        </extensions>
      </trkpt>
      <trkpt lat="42.560882605612277984619140625" lon="20.09178576059639453887939453125">
        <ele>2079.39990234375</ele>
        <time>2026-06-19T12:22:05.000Z</time>
        <extensions>
          <ns3:TrackPointExtension>
            <ns3:atemp>18.0</ns3:atemp>
          </ns3:TrackPointExtension>
        </extensions>
      </trkpt>
      <trkpt lat="42.560882605612277984619140625" lon="20.09178576059639453887939453125">
        <ele>2079.39990234375</ele>
        <time>2026-06-19T12:22:06.000Z</time>
        <extensions>
          <ns3:TrackPointExtension>
            <ns3:atemp>18.0</ns3:atemp>
          </ns3:TrackPointExtension>
        </extensions>
      </trkpt>
      <trkpt lat="42.560882605612277984619140625" lon="20.09178576059639453887939453125">
        <ele>2079.39990234375</ele>
        <time>2026-06-19T12:22:07.000Z</time>
        <extensions>
          <ns3:TrackPointExtension>
            <ns3:atemp>17.0</ns3:atemp>
          </ns3:TrackPointExtension>
        </extensions>
      </trkpt>
      <trkpt lat="42.560882605612277984619140625" lon="20.09178576059639453887939453125">
        <ele>2079.39990234375</ele>
        <time>2026-06-19T12:22:08.000Z</time>
        <extensions>
          <ns3:TrackPointExtension>
            <ns3:atemp>18.0</ns3:atemp>
          </ns3:TrackPointExtension>
        </extensions>
      </trkpt>
      <trkpt lat="42.560882605612277984619140625" lon="20.09178576059639453887939453125">
        <ele>2079.39990234375</ele>
        <time>2026-06-19T12:22:09.000Z</time>
        <extensions>
          <ns3:TrackPointExtension>
            <ns3:atemp>18.0</ns3:atemp>
          </ns3:TrackPointExtension>
        </extensions>
      </trkpt>
      <trkpt lat="42.560882605612277984619140625" lon="20.09178576059639453887939453125">
        <ele>2079.39990234375</ele>
        <time>2026-06-19T12:22:10.000Z</time>
        <extensions>
          <ns3:TrackPointExtension>
            <ns3:atemp>18.0</ns3:atemp>
          </ns3:TrackPointExtension>
        </extensions>
      </trkpt>
      <trkpt lat="42.560882605612277984619140625" lon="20.09178576059639453887939453125">
        <ele>2079.60009765625</ele>
        <time>2026-06-19T12:22:11.000Z</time>
        <extensions>
          <ns3:TrackPointExtension>
            <ns3:atemp>18.0</ns3:atemp>
          </ns3:TrackPointExtension>
        </extensions>
      </trkpt>
      <trkpt lat="42.560882605612277984619140625" lon="20.09178576059639453887939453125">
        <ele>2079.60009765625</ele>
        <time>2026-06-19T12:22:12.000Z</time>
        <extensions>
          <ns3:TrackPointExtension>
            <ns3:atemp>18.0</ns3:atemp>
          </ns3:TrackPointExtension>
        </extensions>
      </trkpt>
      <trkpt lat="42.560882605612277984619140625" lon="20.09178576059639453887939453125">
        <ele>2079.60009765625</ele>
        <time>2026-06-19T12:22:13.000Z</time>
        <extensions>
          <ns3:TrackPointExtension>
            <ns3:atemp>18.0</ns3:atemp>
          </ns3:TrackPointExtension>
        </extensions>
      </trkpt>
      <trkpt lat="42.560882605612277984619140625" lon="20.09178576059639453887939453125">
        <ele>2079.60009765625</ele>
        <time>2026-06-19T12:22:14.000Z</time>
        <extensions>
          <ns3:TrackPointExtension>
            <ns3:atemp>18.0</ns3:atemp>
          </ns3:TrackPointExtension>
        </extensions>
      </trkpt>
      <trkpt lat="42.560882605612277984619140625" lon="20.09178576059639453887939453125">
        <ele>2079.60009765625</ele>
        <time>2026-06-19T12:22:15.000Z</time>
        <extensions>
          <ns3:TrackPointExtension>
            <ns3:atemp>18.0</ns3:atemp>
          </ns3:TrackPointExtension>
        </extensions>
      </trkpt>
      <trkpt lat="42.560882605612277984619140625" lon="20.09178576059639453887939453125">
        <ele>2079.60009765625</ele>
        <time>2026-06-19T12:22:16.000Z</time>
        <extensions>
          <ns3:TrackPointExtension>
            <ns3:atemp>18.0</ns3:atemp>
          </ns3:TrackPointExtension>
        </extensions>
      </trkpt>
      <trkpt lat="42.560882605612277984619140625" lon="20.09178576059639453887939453125">
        <ele>2079.60009765625</ele>
        <time>2026-06-19T12:22:17.000Z</time>
        <extensions>
          <ns3:TrackPointExtension>
            <ns3:atemp>18.0</ns3:atemp>
          </ns3:TrackPointExtension>
        </extensions>
      </trkpt>
      <trkpt lat="42.56088822148740291595458984375" lon="20.0917960703372955322265625">
        <ele>2079.60009765625</ele>
        <time>2026-06-19T12:22:18.000Z</time>
        <extensions>
          <ns3:TrackPointExtension>
            <ns3:atemp>18.0</ns3:atemp>
          </ns3:TrackPointExtension>
        </extensions>
      </trkpt>
      <trkpt lat="42.5608945079147815704345703125" lon="20.09182347916066646575927734375">
        <ele>2079.60009765625</ele>
        <time>2026-06-19T12:22:19.000Z</time>
        <extensions>
          <ns3:TrackPointExtension>
            <ns3:atemp>18.0</ns3:atemp>
          </ns3:TrackPointExtension>
        </extensions>
      </trkpt>
      <trkpt lat="42.560902051627635955810546875" lon="20.0918488763272762298583984375">
        <ele>2079.39990234375</ele>
        <time>2026-06-19T12:22:20.000Z</time>
        <extensions>
          <ns3:TrackPointExtension>
            <ns3:atemp>18.0</ns3:atemp>
          </ns3:TrackPointExtension>
        </extensions>
      </trkpt>
      <trkpt lat="42.56090582348406314849853515625" lon="20.09186153300106525421142578125">
        <ele>2079.199951171875</ele>
        <time>2026-06-19T12:22:21.000Z</time>
        <extensions>
          <ns3:TrackPointExtension>
            <ns3:atemp>18.0</ns3:atemp>
          </ns3:TrackPointExtension>
        </extensions>
      </trkpt>
      <trkpt lat="42.56090573966503143310546875" lon="20.09185901843011379241943359375">
        <ele>2079.199951171875</ele>
        <time>2026-06-19T12:22:22.000Z</time>
        <extensions>
          <ns3:TrackPointExtension>
            <ns3:atemp>18.0</ns3:atemp>
          </ns3:TrackPointExtension>
        </extensions>
      </trkpt>
      <trkpt lat="42.56090573966503143310546875" lon="20.0918589346110820770263671875">
        <ele>2079.39990234375</ele>
        <time>2026-06-19T12:22:23.000Z</time>
        <extensions>
          <ns3:TrackPointExtension>
            <ns3:atemp>18.0</ns3:atemp>
          </ns3:TrackPointExtension>
        </extensions>
      </trkpt>
      <trkpt lat="42.56090573966503143310546875" lon="20.0918589346110820770263671875">
        <ele>2079.60009765625</ele>
        <time>2026-06-19T12:22:24.000Z</time>
        <extensions>
          <ns3:TrackPointExtension>
            <ns3:atemp>18.0</ns3:atemp>
          </ns3:TrackPointExtension>
        </extensions>
      </trkpt>
      <trkpt lat="42.56090573966503143310546875" lon="20.0918589346110820770263671875">
        <ele>2079.800048828125</ele>
        <time>2026-06-19T12:22:25.000Z</time>
        <extensions>
          <ns3:TrackPointExtension>
            <ns3:atemp>18.0</ns3:atemp>
          </ns3:TrackPointExtension>
        </extensions>
      </trkpt>
      <trkpt lat="42.56090573966503143310546875" lon="20.0918589346110820770263671875">
        <ele>2080</ele>
        <time>2026-06-19T12:22:26.000Z</time>
        <extensions>
          <ns3:TrackPointExtension>
            <ns3:atemp>18.0</ns3:atemp>
          </ns3:TrackPointExtension>
        </extensions>
      </trkpt>
      <trkpt lat="42.56090573966503143310546875" lon="20.0918589346110820770263671875">
        <ele>2080.199951171875</ele>
        <time>2026-06-19T12:22:27.000Z</time>
        <extensions>
          <ns3:TrackPointExtension>
            <ns3:atemp>18.0</ns3:atemp>
          </ns3:TrackPointExtension>
        </extensions>
      </trkpt>
      <trkpt lat="42.56090573966503143310546875" lon="20.0918589346110820770263671875">
        <ele>2080.199951171875</ele>
        <time>2026-06-19T12:22:28.000Z</time>
        <extensions>
          <ns3:TrackPointExtension>
            <ns3:atemp>18.0</ns3:atemp>
          </ns3:TrackPointExtension>
        </extensions>
      </trkpt>
      <trkpt lat="42.560906074941158294677734375" lon="20.091858766973018646240234375">
        <ele>2080</ele>
        <time>2026-06-19T12:22:29.000Z</time>
        <extensions>
          <ns3:TrackPointExtension>
            <ns3:atemp>18.0</ns3:atemp>
          </ns3:TrackPointExtension>
        </extensions>
      </trkpt>
      <trkpt lat="42.560912780463695526123046875" lon="20.0918622873723506927490234375">
        <ele>2080</ele>
        <time>2026-06-19T12:22:30.000Z</time>
        <extensions>
          <ns3:TrackPointExtension>
            <ns3:atemp>18.0</ns3:atemp>
          </ns3:TrackPointExtension>
        </extensions>
      </trkpt>
      <trkpt lat="42.560914792120456695556640625" lon="20.09187779389321804046630859375">
        <ele>2080</ele>
        <time>2026-06-19T12:22:31.000Z</time>
        <extensions>
          <ns3:TrackPointExtension>
            <ns3:atemp>18.0</ns3:atemp>
          </ns3:TrackPointExtension>
        </extensions>
      </trkpt>
      <trkpt lat="42.560920827090740203857421875" lon="20.09189673699438571929931640625">
        <ele>2079.800048828125</ele>
        <time>2026-06-19T12:22:32.000Z</time>
        <extensions>
          <ns3:TrackPointExtension>
            <ns3:atemp>18.0</ns3:atemp>
          </ns3:TrackPointExtension>
        </extensions>
      </trkpt>
      <trkpt lat="42.5609290413558483123779296875" lon="20.09191819466650485992431640625">
        <ele>2079.800048828125</ele>
        <time>2026-06-19T12:22:33.000Z</time>
        <extensions>
          <ns3:TrackPointExtension>
            <ns3:atemp>18.0</ns3:atemp>
          </ns3:TrackPointExtension>
        </extensions>
      </trkpt>
      <trkpt lat="42.56093884818255901336669921875" lon="20.0919434241950511932373046875">
        <ele>2079.800048828125</ele>
        <time>2026-06-19T12:22:34.000Z</time>
        <extensions>
          <ns3:TrackPointExtension>
            <ns3:atemp>18.0</ns3:atemp>
          </ns3:TrackPointExtension>
        </extensions>
      </trkpt>
      <trkpt lat="42.5609479844570159912109375" lon="20.09197602979838848114013671875">
        <ele>2079.60009765625</ele>
        <time>2026-06-19T12:22:35.000Z</time>
        <extensions>
          <ns3:TrackPointExtension>
            <ns3:atemp>18.0</ns3:atemp>
          </ns3:TrackPointExtension>
        </extensions>
      </trkpt>
      <trkpt lat="42.5609541870653629302978515625" lon="20.09200519882142543792724609375">
        <ele>2079.39990234375</ele>
        <time>2026-06-19T12:22:36.000Z</time>
        <extensions>
          <ns3:TrackPointExtension>
            <ns3:atemp>18.0</ns3:atemp>
          </ns3:TrackPointExtension>
        </extensions>
      </trkpt>
      <trkpt lat="42.560968436300754547119140625" lon="20.09203420020639896392822265625">
        <ele>2079.199951171875</ele>
        <time>2026-06-19T12:22:37.000Z</time>
        <extensions>
          <ns3:TrackPointExtension>
            <ns3:atemp>18.0</ns3:atemp>
          </ns3:TrackPointExtension>
        </extensions>
      </trkpt>
      <trkpt lat="42.560979835689067840576171875" lon="20.09206286631524562835693359375">
        <ele>2079</ele>
        <time>2026-06-19T12:22:38.000Z</time>
        <extensions>
          <ns3:TrackPointExtension>
            <ns3:atemp>18.0</ns3:atemp>
          </ns3:TrackPointExtension>
        </extensions>
      </trkpt>
      <trkpt lat="42.56098796613514423370361328125" lon="20.09209957905113697052001953125">
        <ele>2078.800048828125</ele>
        <time>2026-06-19T12:22:39.000Z</time>
        <extensions>
          <ns3:TrackPointExtension>
            <ns3:atemp>18.0</ns3:atemp>
          </ns3:TrackPointExtension>
        </extensions>
      </trkpt>
      <trkpt lat="42.56099299527704715728759765625" lon="20.0921442545950412750244140625">
        <ele>2078.60009765625</ele>
        <time>2026-06-19T12:22:40.000Z</time>
        <extensions>
          <ns3:TrackPointExtension>
            <ns3:atemp>18.0</ns3:atemp>
          </ns3:TrackPointExtension>
        </extensions>
      </trkpt>
      <trkpt lat="42.56099433638155460357666015625" lon="20.09218976832926273345947265625">
        <ele>2078.199951171875</ele>
        <time>2026-06-19T12:22:41.000Z</time>
        <extensions>
          <ns3:TrackPointExtension>
            <ns3:atemp>18.0</ns3:atemp>
          </ns3:TrackPointExtension>
        </extensions>
      </trkpt>
      <trkpt lat="42.56099903024733066558837890625" lon="20.09222916327416896820068359375">
        <ele>2078.199951171875</ele>
        <time>2026-06-19T12:22:42.000Z</time>
        <extensions>
          <ns3:TrackPointExtension>
            <ns3:atemp>18.0</ns3:atemp>
          </ns3:TrackPointExtension>
        </extensions>
      </trkpt>
      <trkpt lat="42.5610054843127727508544921875" lon="20.09227341972291469573974609375">
        <ele>2078</ele>
        <time>2026-06-19T12:22:43.000Z</time>
        <extensions>
          <ns3:TrackPointExtension>
            <ns3:atemp>18.0</ns3:atemp>
          </ns3:TrackPointExtension>
        </extensions>
      </trkpt>
      <trkpt lat="42.56101847626268863677978515625" lon="20.09232220239937305450439453125">
        <ele>2077.60009765625</ele>
        <time>2026-06-19T12:22:44.000Z</time>
        <extensions>
          <ns3:TrackPointExtension>
            <ns3:atemp>18.0</ns3:atemp>
          </ns3:TrackPointExtension>
        </extensions>
      </trkpt>
      <trkpt lat="42.56102333776652812957763671875" lon="20.092374421656131744384765625">
        <ele>2077.199951171875</ele>
        <time>2026-06-19T12:22:45.000Z</time>
        <extensions>
          <ns3:TrackPointExtension>
            <ns3:atemp>18.0</ns3:atemp>
          </ns3:TrackPointExtension>
        </extensions>
      </trkpt>
      <trkpt lat="42.561027444899082183837890625" lon="20.0924258865416049957275390625">
        <ele>2077</ele>
        <time>2026-06-19T12:22:46.000Z</time>
        <extensions>
          <ns3:TrackPointExtension>
            <ns3:atemp>18.0</ns3:atemp>
          </ns3:TrackPointExtension>
        </extensions>
      </trkpt>
      <trkpt lat="42.56102912127971649169921875" lon="20.09247743524610996246337890625">
        <ele>2076.39990234375</ele>
        <time>2026-06-19T12:22:47.000Z</time>
        <extensions>
          <ns3:TrackPointExtension>
            <ns3:atemp>18.0</ns3:atemp>
          </ns3:TrackPointExtension>
        </extensions>
      </trkpt>
      <trkpt lat="42.5610313005745410919189453125" lon="20.092535354197025299072265625">
        <ele>2076</ele>
        <time>2026-06-19T12:22:48.000Z</time>
        <extensions>
          <ns3:TrackPointExtension>
            <ns3:atemp>18.0</ns3:atemp>
          </ns3:TrackPointExtension>
        </extensions>
      </trkpt>
      <trkpt lat="42.56103448569774627685546875" lon="20.092590339481830596923828125">
        <ele>2075.60009765625</ele>
        <time>2026-06-19T12:22:49.000Z</time>
        <extensions>
          <ns3:TrackPointExtension>
            <ns3:atemp>18.0</ns3:atemp>
          </ns3:TrackPointExtension>
        </extensions>
      </trkpt>
      <trkpt lat="42.5610450468957424163818359375" lon="20.09264104999601840972900390625">
        <ele>2075.39990234375</ele>
        <time>2026-06-19T12:22:50.000Z</time>
        <extensions>
          <ns3:TrackPointExtension>
            <ns3:atemp>18.0</ns3:atemp>
          </ns3:TrackPointExtension>
        </extensions>
      </trkpt>
      <trkpt lat="42.56106357090175151824951171875" lon="20.09268849156796932220458984375">
        <ele>2074.800048828125</ele>
        <time>2026-06-19T12:22:51.000Z</time>
        <extensions>
          <ns3:TrackPointExtension>
            <ns3:atemp>18.0</ns3:atemp>
          </ns3:TrackPointExtension>
        </extensions>
      </trkpt>
      <trkpt lat="42.5610829330980777740478515625" lon="20.092729814350605010986328125">
        <ele>2074.39990234375</ele>
        <time>2026-06-19T12:22:52.000Z</time>
        <extensions>
          <ns3:TrackPointExtension>
            <ns3:atemp>18.0</ns3:atemp>
          </ns3:TrackPointExtension>
        </extensions>
      </trkpt>
      <trkpt lat="42.56108653731644153594970703125" lon="20.09277096949517726898193359375">
        <ele>2074</ele>
        <time>2026-06-19T12:22:53.000Z</time>
        <extensions>
          <ns3:TrackPointExtension>
            <ns3:atemp>18.0</ns3:atemp>
          </ns3:TrackPointExtension>
        </extensions>
      </trkpt>
      <trkpt lat="42.56109416484832763671875" lon="20.09280902333557605743408203125">
        <ele>2073.60009765625</ele>
        <time>2026-06-19T12:22:54.000Z</time>
        <extensions>
          <ns3:TrackPointExtension>
            <ns3:atemp>18.0</ns3:atemp>
          </ns3:TrackPointExtension>
        </extensions>
      </trkpt>
      <trkpt lat="42.56110380403697490692138671875" lon="20.0928396172821521759033203125">
        <ele>2073.199951171875</ele>
        <time>2026-06-19T12:22:55.000Z</time>
        <extensions>
          <ns3:TrackPointExtension>
            <ns3:atemp>18.0</ns3:atemp>
          </ns3:TrackPointExtension>
        </extensions>
      </trkpt>
      <trkpt lat="42.56111252121627330780029296875" lon="20.09285998530685901641845703125">
        <ele>2072.800048828125</ele>
        <time>2026-06-19T12:22:56.000Z</time>
        <extensions>
          <ns3:TrackPointExtension>
            <ns3:atemp>18.0</ns3:atemp>
          </ns3:TrackPointExtension>
        </extensions>
      </trkpt>
      <trkpt lat="42.5611194781959056854248046875" lon="20.0928862206637859344482421875">
        <ele>2072.60009765625</ele>
        <time>2026-06-19T12:22:57.000Z</time>
        <extensions>
          <ns3:TrackPointExtension>
            <ns3:atemp>18.0</ns3:atemp>
          </ns3:TrackPointExtension>
        </extensions>
      </trkpt>
      <trkpt lat="42.56112257950007915496826171875" lon="20.092913545668125152587890625">
        <ele>2072.39990234375</ele>
        <time>2026-06-19T12:22:58.000Z</time>
        <extensions>
          <ns3:TrackPointExtension>
            <ns3:atemp>18.0</ns3:atemp>
          </ns3:TrackPointExtension>
        </extensions>
      </trkpt>
      <trkpt lat="42.56112777628004550933837890625" lon="20.09294481016695499420166015625">
        <ele>2072.199951171875</ele>
        <time>2026-06-19T12:22:59.000Z</time>
        <extensions>
          <ns3:TrackPointExtension>
            <ns3:atemp>18.0</ns3:atemp>
          </ns3:TrackPointExtension>
        </extensions>
      </trkpt>
      <trkpt lat="42.56113716401159763336181640625" lon="20.09297582320868968963623046875">
        <ele>2072</ele>
        <time>2026-06-19T12:23:00.000Z</time>
        <extensions>
          <ns3:TrackPointExtension>
            <ns3:atemp>18.0</ns3:atemp>
          </ns3:TrackPointExtension>
        </extensions>
      </trkpt>
      <trkpt lat="42.56114705465734004974365234375" lon="20.09301370941102504730224609375">
        <ele>2072</ele>
        <time>2026-06-19T12:23:01.000Z</time>
        <extensions>
          <ns3:TrackPointExtension>
            <ns3:atemp>18.0</ns3:atemp>
          </ns3:TrackPointExtension>
        </extensions>
      </trkpt>
      <trkpt lat="42.56115711294114589691162109375" lon="20.0930607318878173828125">
        <ele>2071.800048828125</ele>
        <time>2026-06-19T12:23:02.000Z</time>
        <extensions>
          <ns3:TrackPointExtension>
            <ns3:atemp>18.0</ns3:atemp>
          </ns3:TrackPointExtension>
        </extensions>
      </trkpt>
      <trkpt lat="42.561166584491729736328125" lon="20.093112699687480926513671875">
        <ele>2071.39990234375</ele>
        <time>2026-06-19T12:23:03.000Z</time>
        <extensions>
          <ns3:TrackPointExtension>
            <ns3:atemp>18.0</ns3:atemp>
          </ns3:TrackPointExtension>
        </extensions>
      </trkpt>
      <trkpt lat="42.5611798278987407684326171875" lon="20.09316341020166873931884765625">
        <ele>2071</ele>
        <time>2026-06-19T12:23:04.000Z</time>
        <extensions>
          <ns3:TrackPointExtension>
            <ns3:atemp>18.0</ns3:atemp>
          </ns3:TrackPointExtension>
        </extensions>
      </trkpt>
      <trkpt lat="42.561199776828289031982421875" lon="20.093207918107509613037109375">
        <ele>2070.800048828125</ele>
        <time>2026-06-19T12:23:05.000Z</time>
        <extensions>
          <ns3:TrackPointExtension>
            <ns3:atemp>18.0</ns3:atemp>
          </ns3:TrackPointExtension>
        </extensions>
      </trkpt>
      <trkpt lat="42.561221905052661895751953125" lon="20.09324974380433559417724609375">
        <ele>2070.39990234375</ele>
        <time>2026-06-19T12:23:06.000Z</time>
        <extensions>
          <ns3:TrackPointExtension>
            <ns3:atemp>18.0</ns3:atemp>
          </ns3:TrackPointExtension>
        </extensions>
      </trkpt>
      <trkpt lat="42.5612418539822101593017578125" lon="20.093289054930210113525390625">
        <ele>2070.199951171875</ele>
        <time>2026-06-19T12:23:07.000Z</time>
        <extensions>
          <ns3:TrackPointExtension>
            <ns3:atemp>18.0</ns3:atemp>
          </ns3:TrackPointExtension>
        </extensions>
      </trkpt>
      <trkpt lat="42.56125568412244319915771484375" lon="20.09333088062703609466552734375">
        <ele>2070</ele>
        <time>2026-06-19T12:23:08.000Z</time>
        <extensions>
          <ns3:TrackPointExtension>
            <ns3:atemp>18.0</ns3:atemp>
          </ns3:TrackPointExtension>
        </extensions>
      </trkpt>
      <trkpt lat="42.5612698495388031005859375" lon="20.0933690182864665985107421875">
        <ele>2069.800048828125</ele>
        <time>2026-06-19T12:23:09.000Z</time>
        <extensions>
          <ns3:TrackPointExtension>
            <ns3:atemp>18.0</ns3:atemp>
          </ns3:TrackPointExtension>
        </extensions>
      </trkpt>
      <trkpt lat="42.561280913650989532470703125" lon="20.0934075750410556793212890625">
        <ele>2069.60009765625</ele>
        <time>2026-06-19T12:23:10.000Z</time>
        <extensions>
          <ns3:TrackPointExtension>
            <ns3:atemp>18.0</ns3:atemp>
          </ns3:TrackPointExtension>
        </extensions>
      </trkpt>
      <trkpt lat="42.5612924806773662567138671875" lon="20.09344403631985187530517578125">
        <ele>2069.60009765625</ele>
        <time>2026-06-19T12:23:11.000Z</time>
        <extensions>
          <ns3:TrackPointExtension>
            <ns3:atemp>18.0</ns3:atemp>
          </ns3:TrackPointExtension>
        </extensions>
      </trkpt>
      <trkpt lat="42.56130346097052097320556640625" lon="20.09347471408545970916748046875">
        <ele>2069.60009765625</ele>
        <time>2026-06-19T12:23:12.000Z</time>
        <extensions>
          <ns3:TrackPointExtension>
            <ns3:atemp>18.0</ns3:atemp>
          </ns3:TrackPointExtension>
        </extensions>
      </trkpt>
      <trkpt lat="42.56131703965365886688232421875" lon="20.09349860250949859619140625">
        <ele>2069.60009765625</ele>
        <time>2026-06-19T12:23:13.000Z</time>
        <extensions>
          <ns3:TrackPointExtension>
            <ns3:atemp>18.0</ns3:atemp>
          </ns3:TrackPointExtension>
        </extensions>
      </trkpt>
      <trkpt lat="42.561326511204242706298828125" lon="20.09352534078061580657958984375">
        <ele>2069.60009765625</ele>
        <time>2026-06-19T12:23:14.000Z</time>
        <extensions>
          <ns3:TrackPointExtension>
            <ns3:atemp>18.0</ns3:atemp>
          </ns3:TrackPointExtension>
        </extensions>
      </trkpt>
      <trkpt lat="42.561337240040302276611328125" lon="20.093553923070430755615234375">
        <ele>2069.60009765625</ele>
        <time>2026-06-19T12:23:15.000Z</time>
        <extensions>
          <ns3:TrackPointExtension>
            <ns3:atemp>18.0</ns3:atemp>
          </ns3:TrackPointExtension>
        </extensions>
      </trkpt>
      <trkpt lat="42.56134704686701297760009765625" lon="20.0935859419405460357666015625">
        <ele>2069.60009765625</ele>
        <time>2026-06-19T12:23:16.000Z</time>
        <extensions>
          <ns3:TrackPointExtension>
            <ns3:atemp>18.0</ns3:atemp>
          </ns3:TrackPointExtension>
        </extensions>
      </trkpt>
      <trkpt lat="42.56135760806500911712646484375" lon="20.09361955337226390838623046875">
        <ele>2069.39990234375</ele>
        <time>2026-06-19T12:23:17.000Z</time>
        <extensions>
          <ns3:TrackPointExtension>
            <ns3:atemp>18.0</ns3:atemp>
          </ns3:TrackPointExtension>
        </extensions>
      </trkpt>
      <trkpt lat="42.56136263720691204071044921875" lon="20.09365894831717014312744140625">
        <ele>2069.199951171875</ele>
        <time>2026-06-19T12:23:18.000Z</time>
        <extensions>
          <ns3:TrackPointExtension>
            <ns3:atemp>18.0</ns3:atemp>
          </ns3:TrackPointExtension>
        </extensions>
      </trkpt>
      <trkpt lat="42.5613662414252758026123046875" lon="20.0937012769281864166259765625">
        <ele>2069.199951171875</ele>
        <time>2026-06-19T12:23:19.000Z</time>
        <extensions>
          <ns3:TrackPointExtension>
            <ns3:atemp>18.0</ns3:atemp>
          </ns3:TrackPointExtension>
        </extensions>
      </trkpt>
      <trkpt lat="42.56137101911008358001708984375" lon="20.09374461136758327484130859375">
        <ele>2069.199951171875</ele>
        <time>2026-06-19T12:23:20.000Z</time>
        <extensions>
          <ns3:TrackPointExtension>
            <ns3:atemp>18.0</ns3:atemp>
          </ns3:TrackPointExtension>
        </extensions>
      </trkpt>
      <trkpt lat="42.56138585507869720458984375" lon="20.09378031827509403228759765625">
        <ele>2069.199951171875</ele>
        <time>2026-06-19T12:23:21.000Z</time>
        <extensions>
          <ns3:TrackPointExtension>
            <ns3:atemp>18.0</ns3:atemp>
          </ns3:TrackPointExtension>
        </extensions>
      </trkpt>
      <trkpt lat="42.56140219978988170623779296875" lon="20.0938095711171627044677734375">
        <ele>2069.199951171875</ele>
        <time>2026-06-19T12:23:22.000Z</time>
        <extensions>
          <ns3:TrackPointExtension>
            <ns3:atemp>18.0</ns3:atemp>
          </ns3:TrackPointExtension>
        </extensions>
      </trkpt>
      <trkpt lat="42.56142348982393741607666015625" lon="20.09383396245539188385009765625">
        <ele>2069.39990234375</ele>
        <time>2026-06-19T12:23:23.000Z</time>
        <extensions>
          <ns3:TrackPointExtension>
            <ns3:atemp>18.0</ns3:atemp>
          </ns3:TrackPointExtension>
        </extensions>
      </trkpt>
      <trkpt lat="42.56144360639154911041259765625" lon="20.09385667741298675537109375">
        <ele>2069.60009765625</ele>
        <time>2026-06-19T12:23:24.000Z</time>
        <extensions>
          <ns3:TrackPointExtension>
            <ns3:atemp>18.0</ns3:atemp>
          </ns3:TrackPointExtension>
        </extensions>
      </trkpt>
      <trkpt lat="42.56146288476884365081787109375" lon="20.0938826613128185272216796875">
        <ele>2069.60009765625</ele>
        <time>2026-06-19T12:23:25.000Z</time>
        <extensions>
          <ns3:TrackPointExtension>
            <ns3:atemp>18.0</ns3:atemp>
          </ns3:TrackPointExtension>
        </extensions>
      </trkpt>
      <trkpt lat="42.5614785589277744293212890625" lon="20.0939123332500457763671875">
        <ele>2069.800048828125</ele>
        <time>2026-06-19T12:23:26.000Z</time>
        <extensions>
          <ns3:TrackPointExtension>
            <ns3:atemp>18.0</ns3:atemp>
          </ns3:TrackPointExtension>
        </extensions>
      </trkpt>
      <trkpt lat="42.5614924728870391845703125" lon="20.09393655695021152496337890625">
        <ele>2070</ele>
        <time>2026-06-19T12:23:27.000Z</time>
        <extensions>
          <ns3:TrackPointExtension>
            <ns3:atemp>18.0</ns3:atemp>
          </ns3:TrackPointExtension>
        </extensions>
      </trkpt>
      <trkpt lat="42.56150496192276477813720703125" lon="20.09395885281264781951904296875">
        <ele>2070.199951171875</ele>
        <time>2026-06-19T12:23:28.000Z</time>
        <extensions>
          <ns3:TrackPointExtension>
            <ns3:atemp>18.0</ns3:atemp>
          </ns3:TrackPointExtension>
        </extensions>
      </trkpt>
      <trkpt lat="42.56151552312076091766357421875" lon="20.09398274123668670654296875">
        <ele>2070.199951171875</ele>
        <time>2026-06-19T12:23:29.000Z</time>
        <extensions>
          <ns3:TrackPointExtension>
            <ns3:atemp>18.0</ns3:atemp>
          </ns3:TrackPointExtension>
        </extensions>
      </trkpt>
      <trkpt lat="42.56152071990072727203369140625" lon="20.09401149116456508636474609375">
        <ele>2070.39990234375</ele>
        <time>2026-06-19T12:23:30.000Z</time>
        <extensions>
          <ns3:TrackPointExtension>
            <ns3:atemp>18.0</ns3:atemp>
          </ns3:TrackPointExtension>
        </extensions>
      </trkpt>
      <trkpt lat="42.561527006328105926513671875" lon="20.094034709036350250244140625">
        <ele>2070.60009765625</ele>
        <time>2026-06-19T12:23:31.000Z</time>
        <extensions>
          <ns3:TrackPointExtension>
            <ns3:atemp>18.0</ns3:atemp>
          </ns3:TrackPointExtension>
        </extensions>
      </trkpt>
      <trkpt lat="42.5615322031080722808837890625" lon="20.09406094439327716827392578125">
        <ele>2070.800048828125</ele>
        <time>2026-06-19T12:23:32.000Z</time>
        <extensions>
          <ns3:TrackPointExtension>
            <ns3:atemp>18.0</ns3:atemp>
          </ns3:TrackPointExtension>
        </extensions>
      </trkpt>
      <trkpt lat="42.56153631024062633514404296875" lon="20.09408734738826751708984375">
        <ele>2071</ele>
        <time>2026-06-19T12:23:33.000Z</time>
        <extensions>
          <ns3:TrackPointExtension>
            <ns3:atemp>18.0</ns3:atemp>
          </ns3:TrackPointExtension>
        </extensions>
      </trkpt>
      <trkpt lat="42.56153748370707035064697265625" lon="20.09410075843334197998046875">
        <ele>2071.199951171875</ele>
        <time>2026-06-19T12:23:34.000Z</time>
        <extensions>
          <ns3:TrackPointExtension>
            <ns3:atemp>18.0</ns3:atemp>
          </ns3:TrackPointExtension>
        </extensions>
      </trkpt>
      <trkpt lat="42.56153463385999202728271484375" lon="20.094105117022991180419921875">
        <ele>2071.39990234375</ele>
        <time>2026-06-19T12:23:35.000Z</time>
        <extensions>
          <ns3:TrackPointExtension>
            <ns3:atemp>18.0</ns3:atemp>
          </ns3:TrackPointExtension>
        </extensions>
      </trkpt>
      <trkpt lat="42.56153463385999202728271484375" lon="20.094105117022991180419921875">
        <ele>2071.60009765625</ele>
        <time>2026-06-19T12:23:36.000Z</time>
        <extensions>
          <ns3:TrackPointExtension>
            <ns3:atemp>18.0</ns3:atemp>
          </ns3:TrackPointExtension>
        </extensions>
      </trkpt>
      <trkpt lat="42.56153463385999202728271484375" lon="20.094105117022991180419921875">
        <ele>2071.800048828125</ele>
        <time>2026-06-19T12:23:37.000Z</time>
        <extensions>
          <ns3:TrackPointExtension>
            <ns3:atemp>18.0</ns3:atemp>
          </ns3:TrackPointExtension>
        </extensions>
      </trkpt>
      <trkpt lat="42.56153463385999202728271484375" lon="20.094105117022991180419921875">
        <ele>2072</ele>
        <time>2026-06-19T12:23:38.000Z</time>
        <extensions>
          <ns3:TrackPointExtension>
            <ns3:atemp>18.0</ns3:atemp>
          </ns3:TrackPointExtension>
        </extensions>
      </trkpt>
      <trkpt lat="42.56153463385999202728271484375" lon="20.0941049493849277496337890625">
        <ele>2072.199951171875</ele>
        <time>2026-06-19T12:23:39.000Z</time>
        <extensions>
          <ns3:TrackPointExtension>
            <ns3:atemp>18.0</ns3:atemp>
          </ns3:TrackPointExtension>
        </extensions>
      </trkpt>
      <trkpt lat="42.56153463385999202728271484375" lon="20.094105117022991180419921875">
        <ele>2072.199951171875</ele>
        <time>2026-06-19T12:23:40.000Z</time>
        <extensions>
          <ns3:TrackPointExtension>
            <ns3:atemp>18.0</ns3:atemp>
          </ns3:TrackPointExtension>
        </extensions>
      </trkpt>
      <trkpt lat="42.56153463385999202728271484375" lon="20.094105117022991180419921875">
        <ele>2072.199951171875</ele>
        <time>2026-06-19T12:23:41.000Z</time>
        <extensions>
          <ns3:TrackPointExtension>
            <ns3:atemp>18.0</ns3:atemp>
          </ns3:TrackPointExtension>
        </extensions>
      </trkpt>
      <trkpt lat="42.56153463385999202728271484375" lon="20.094105117022991180419921875">
        <ele>2072.199951171875</ele>
        <time>2026-06-19T12:23:42.000Z</time>
        <extensions>
          <ns3:TrackPointExtension>
            <ns3:atemp>18.0</ns3:atemp>
          </ns3:TrackPointExtension>
        </extensions>
      </trkpt>
      <trkpt lat="42.56153463385999202728271484375" lon="20.094105117022991180419921875">
        <ele>2072.199951171875</ele>
        <time>2026-06-19T12:23:43.000Z</time>
        <extensions>
          <ns3:TrackPointExtension>
            <ns3:atemp>18.0</ns3:atemp>
          </ns3:TrackPointExtension>
        </extensions>
      </trkpt>
      <trkpt lat="42.56153463385999202728271484375" lon="20.094105117022991180419921875">
        <ele>2072</ele>
        <time>2026-06-19T12:23:44.000Z</time>
        <extensions>
          <ns3:TrackPointExtension>
            <ns3:atemp>18.0</ns3:atemp>
          </ns3:TrackPointExtension>
        </extensions>
      </trkpt>
      <trkpt lat="42.56153463385999202728271484375" lon="20.094105117022991180419921875">
        <ele>2071.800048828125</ele>
        <time>2026-06-19T12:23:45.000Z</time>
        <extensions>
          <ns3:TrackPointExtension>
            <ns3:atemp>18.0</ns3:atemp>
          </ns3:TrackPointExtension>
        </extensions>
      </trkpt>
      <trkpt lat="42.56153463385999202728271484375" lon="20.094105117022991180419921875">
        <ele>2071.800048828125</ele>
        <time>2026-06-19T12:23:46.000Z</time>
        <extensions>
          <ns3:TrackPointExtension>
            <ns3:atemp>18.0</ns3:atemp>
          </ns3:TrackPointExtension>
        </extensions>
      </trkpt>
      <trkpt lat="42.56153463385999202728271484375" lon="20.094105117022991180419921875">
        <ele>2071.800048828125</ele>
        <time>2026-06-19T12:23:47.000Z</time>
        <extensions>
          <ns3:TrackPointExtension>
            <ns3:atemp>18.0</ns3:atemp>
          </ns3:TrackPointExtension>
        </extensions>
      </trkpt>
      <trkpt lat="42.56153463385999202728271484375" lon="20.094105117022991180419921875">
        <ele>2071.60009765625</ele>
        <time>2026-06-19T12:23:48.000Z</time>
        <extensions>
          <ns3:TrackPointExtension>
            <ns3:atemp>18.0</ns3:atemp>
          </ns3:TrackPointExtension>
        </extensions>
      </trkpt>
      <trkpt lat="42.56153463385999202728271484375" lon="20.094105117022991180419921875">
        <ele>2071.60009765625</ele>
        <time>2026-06-19T12:23:49.000Z</time>
        <extensions>
          <ns3:TrackPointExtension>
            <ns3:atemp>18.0</ns3:atemp>
          </ns3:TrackPointExtension>
        </extensions>
      </trkpt>
      <trkpt lat="42.56153463385999202728271484375" lon="20.094105117022991180419921875">
        <ele>2071.60009765625</ele>
        <time>2026-06-19T12:23:50.000Z</time>
        <extensions>
          <ns3:TrackPointExtension>
            <ns3:atemp>18.0</ns3:atemp>
          </ns3:TrackPointExtension>
        </extensions>
      </trkpt>
      <trkpt lat="42.56153463385999202728271484375" lon="20.094105117022991180419921875">
        <ele>2071.60009765625</ele>
        <time>2026-06-19T12:23:51.000Z</time>
        <extensions>
          <ns3:TrackPointExtension>
            <ns3:atemp>18.0</ns3:atemp>
          </ns3:TrackPointExtension>
        </extensions>
      </trkpt>
      <trkpt lat="42.56153463385999202728271484375" lon="20.094105117022991180419921875">
        <ele>2071.60009765625</ele>
        <time>2026-06-19T12:23:52.000Z</time>
        <extensions>
          <ns3:TrackPointExtension>
            <ns3:atemp>18.0</ns3:atemp>
          </ns3:TrackPointExtension>
        </extensions>
      </trkpt>
      <trkpt lat="42.56153463385999202728271484375" lon="20.094105117022991180419921875">
        <ele>2071.60009765625</ele>
        <time>2026-06-19T12:23:53.000Z</time>
        <extensions>
          <ns3:TrackPointExtension>
            <ns3:atemp>18.0</ns3:atemp>
          </ns3:TrackPointExtension>
        </extensions>
      </trkpt>
      <trkpt lat="42.56153463385999202728271484375" lon="20.094105117022991180419921875">
        <ele>2071.39990234375</ele>
        <time>2026-06-19T12:23:54.000Z</time>
        <extensions>
          <ns3:TrackPointExtension>
            <ns3:atemp>18.0</ns3:atemp>
          </ns3:TrackPointExtension>
        </extensions>
      </trkpt>
      <trkpt lat="42.56153463385999202728271484375" lon="20.094105117022991180419921875">
        <ele>2071.60009765625</ele>
        <time>2026-06-19T12:23:55.000Z</time>
        <extensions>
          <ns3:TrackPointExtension>
            <ns3:atemp>18.0</ns3:atemp>
          </ns3:TrackPointExtension>
        </extensions>
      </trkpt>
      <trkpt lat="42.56153463385999202728271484375" lon="20.094105117022991180419921875">
        <ele>2071.60009765625</ele>
        <time>2026-06-19T12:23:56.000Z</time>
        <extensions>
          <ns3:TrackPointExtension>
            <ns3:atemp>18.0</ns3:atemp>
          </ns3:TrackPointExtension>
        </extensions>
      </trkpt>
      <trkpt lat="42.56153069436550140380859375" lon="20.09410235099494457244873046875">
        <ele>2071.39990234375</ele>
        <time>2026-06-19T12:23:57.000Z</time>
        <extensions>
          <ns3:TrackPointExtension>
            <ns3:atemp>18.0</ns3:atemp>
          </ns3:TrackPointExtension>
        </extensions>
      </trkpt>
      <trkpt lat="42.56152264773845672607421875" lon="20.0941116549074649810791015625">
        <ele>2071.39990234375</ele>
        <time>2026-06-19T12:23:58.000Z</time>
        <extensions>
          <ns3:TrackPointExtension>
            <ns3:atemp>18.0</ns3:atemp>
          </ns3:TrackPointExtension>
        </extensions>
      </trkpt>
      <trkpt lat="42.5615208037197589874267578125" lon="20.09412531740963459014892578125">
        <ele>2071.39990234375</ele>
        <time>2026-06-19T12:23:59.000Z</time>
        <extensions>
          <ns3:TrackPointExtension>
            <ns3:atemp>18.0</ns3:atemp>
          </ns3:TrackPointExtension>
        </extensions>
      </trkpt>
      <trkpt lat="42.56152105517685413360595703125" lon="20.094129256904125213623046875">
        <ele>2071.199951171875</ele>
        <time>2026-06-19T12:24:00.000Z</time>
        <extensions>
          <ns3:TrackPointExtension>
            <ns3:atemp>18.0</ns3:atemp>
          </ns3:TrackPointExtension>
        </extensions>
      </trkpt>
      <trkpt lat="42.56152273155748844146728515625" lon="20.0941269099712371826171875">
        <ele>2071.199951171875</ele>
        <time>2026-06-19T12:24:01.000Z</time>
        <extensions>
          <ns3:TrackPointExtension>
            <ns3:atemp>18.0</ns3:atemp>
          </ns3:TrackPointExtension>
        </extensions>
      </trkpt>
      <trkpt lat="42.56152424030005931854248046875" lon="20.09412313811480998992919921875">
        <ele>2071.39990234375</ele>
        <time>2026-06-19T12:24:02.000Z</time>
        <extensions>
          <ns3:TrackPointExtension>
            <ns3:atemp>18.0</ns3:atemp>
          </ns3:TrackPointExtension>
        </extensions>
      </trkpt>
      <trkpt lat="42.561524324119091033935546875" lon="20.094123221933841705322265625">
        <ele>2071.60009765625</ele>
        <time>2026-06-19T12:24:03.000Z</time>
        <extensions>
          <ns3:TrackPointExtension>
            <ns3:atemp>18.0</ns3:atemp>
          </ns3:TrackPointExtension>
        </extensions>
      </trkpt>
      <trkpt lat="42.561524324119091033935546875" lon="20.094123221933841705322265625">
        <ele>2071.60009765625</ele>
        <time>2026-06-19T12:24:04.000Z</time>
        <extensions>
          <ns3:TrackPointExtension>
            <ns3:atemp>18.0</ns3:atemp>
          </ns3:TrackPointExtension>
        </extensions>
      </trkpt>
      <trkpt lat="42.561524324119091033935546875" lon="20.094123221933841705322265625">
        <ele>2071.800048828125</ele>
        <time>2026-06-19T12:24:05.000Z</time>
        <extensions>
          <ns3:TrackPointExtension>
            <ns3:atemp>18.0</ns3:atemp>
          </ns3:TrackPointExtension>
        </extensions>
      </trkpt>
      <trkpt lat="42.561524324119091033935546875" lon="20.094123221933841705322265625">
        <ele>2071.800048828125</ele>
        <time>2026-06-19T12:24:06.000Z</time>
        <extensions>
          <ns3:TrackPointExtension>
            <ns3:atemp>18.0</ns3:atemp>
          </ns3:TrackPointExtension>
        </extensions>
      </trkpt>
      <trkpt lat="42.561524324119091033935546875" lon="20.094123221933841705322265625">
        <ele>2071.800048828125</ele>
        <time>2026-06-19T12:24:07.000Z</time>
        <extensions>
          <ns3:TrackPointExtension>
            <ns3:atemp>18.0</ns3:atemp>
          </ns3:TrackPointExtension>
        </extensions>
      </trkpt>
      <trkpt lat="42.561524324119091033935546875" lon="20.094123221933841705322265625">
        <ele>2071.800048828125</ele>
        <time>2026-06-19T12:24:08.000Z</time>
        <extensions>
          <ns3:TrackPointExtension>
            <ns3:atemp>18.0</ns3:atemp>
          </ns3:TrackPointExtension>
        </extensions>
      </trkpt>
      <trkpt lat="42.56152524612843990325927734375" lon="20.094123892486095428466796875">
        <ele>2071.800048828125</ele>
        <time>2026-06-19T12:24:09.000Z</time>
        <extensions>
          <ns3:TrackPointExtension>
            <ns3:atemp>18.0</ns3:atemp>
          </ns3:TrackPointExtension>
        </extensions>
      </trkpt>
      <trkpt lat="42.56152323447167873382568359375" lon="20.09414970874786376953125">
        <ele>2071.60009765625</ele>
        <time>2026-06-19T12:24:10.000Z</time>
        <extensions>
          <ns3:TrackPointExtension>
            <ns3:atemp>18.0</ns3:atemp>
          </ns3:TrackPointExtension>
        </extensions>
      </trkpt>
      <trkpt lat="42.56151862442493438720703125" lon="20.0941726751625537872314453125">
        <ele>2071.60009765625</ele>
        <time>2026-06-19T12:24:11.000Z</time>
        <extensions>
          <ns3:TrackPointExtension>
            <ns3:atemp>18.0</ns3:atemp>
          </ns3:TrackPointExtension>
        </extensions>
      </trkpt>
      <trkpt lat="42.561518289148807525634765625" lon="20.09420008398592472076416015625">
        <ele>2071.60009765625</ele>
        <time>2026-06-19T12:24:12.000Z</time>
        <extensions>
          <ns3:TrackPointExtension>
            <ns3:atemp>18.0</ns3:atemp>
          </ns3:TrackPointExtension>
        </extensions>
      </trkpt>
      <trkpt lat="42.56152021698653697967529296875" lon="20.0942194461822509765625">
        <ele>2071.60009765625</ele>
        <time>2026-06-19T12:24:13.000Z</time>
        <extensions>
          <ns3:TrackPointExtension>
            <ns3:atemp>18.0</ns3:atemp>
          </ns3:TrackPointExtension>
        </extensions>
      </trkpt>
      <trkpt lat="42.56152105517685413360595703125" lon="20.09423553943634033203125">
        <ele>2071.60009765625</ele>
        <time>2026-06-19T12:24:14.000Z</time>
        <extensions>
          <ns3:TrackPointExtension>
            <ns3:atemp>18.0</ns3:atemp>
          </ns3:TrackPointExtension>
        </extensions>
      </trkpt>
      <trkpt lat="42.5615177862346172332763671875" lon="20.09423294104635715484619140625">
        <ele>2071.60009765625</ele>
        <time>2026-06-19T12:24:15.000Z</time>
        <extensions>
          <ns3:TrackPointExtension>
            <ns3:atemp>18.0</ns3:atemp>
          </ns3:TrackPointExtension>
        </extensions>
      </trkpt>
      <trkpt lat="42.5615177862346172332763671875" lon="20.0942330248653888702392578125">
        <ele>2071.800048828125</ele>
        <time>2026-06-19T12:24:16.000Z</time>
        <extensions>
          <ns3:TrackPointExtension>
            <ns3:atemp>18.0</ns3:atemp>
          </ns3:TrackPointExtension>
        </extensions>
      </trkpt>
      <trkpt lat="42.5615177862346172332763671875" lon="20.0942330248653888702392578125">
        <ele>2071.800048828125</ele>
        <time>2026-06-19T12:24:17.000Z</time>
        <extensions>
          <ns3:TrackPointExtension>
            <ns3:atemp>18.0</ns3:atemp>
          </ns3:TrackPointExtension>
        </extensions>
      </trkpt>
      <trkpt lat="42.5615177862346172332763671875" lon="20.0942330248653888702392578125">
        <ele>2072</ele>
        <time>2026-06-19T12:24:18.000Z</time>
        <extensions>
          <ns3:TrackPointExtension>
            <ns3:atemp>18.0</ns3:atemp>
          </ns3:TrackPointExtension>
        </extensions>
      </trkpt>
      <trkpt lat="42.5615177862346172332763671875" lon="20.0942330248653888702392578125">
        <ele>2072</ele>
        <time>2026-06-19T12:24:19.000Z</time>
        <extensions>
          <ns3:TrackPointExtension>
            <ns3:atemp>18.0</ns3:atemp>
          </ns3:TrackPointExtension>
        </extensions>
      </trkpt>
      <trkpt lat="42.5615177862346172332763671875" lon="20.0942330248653888702392578125">
        <ele>2072</ele>
        <time>2026-06-19T12:24:20.000Z</time>
        <extensions>
          <ns3:TrackPointExtension>
            <ns3:atemp>18.0</ns3:atemp>
          </ns3:TrackPointExtension>
        </extensions>
      </trkpt>
      <trkpt lat="42.5615177862346172332763671875" lon="20.0942330248653888702392578125">
        <ele>2072.199951171875</ele>
        <time>2026-06-19T12:24:21.000Z</time>
        <extensions>
          <ns3:TrackPointExtension>
            <ns3:atemp>18.0</ns3:atemp>
          </ns3:TrackPointExtension>
        </extensions>
      </trkpt>
      <trkpt lat="42.5615177862346172332763671875" lon="20.0942330248653888702392578125">
        <ele>2072.199951171875</ele>
        <time>2026-06-19T12:24:22.000Z</time>
        <extensions>
          <ns3:TrackPointExtension>
            <ns3:atemp>18.0</ns3:atemp>
          </ns3:TrackPointExtension>
        </extensions>
      </trkpt>
      <trkpt lat="42.5615177862346172332763671875" lon="20.0942330248653888702392578125">
        <ele>2072.199951171875</ele>
        <time>2026-06-19T12:24:23.000Z</time>
        <extensions>
          <ns3:TrackPointExtension>
            <ns3:atemp>18.0</ns3:atemp>
          </ns3:TrackPointExtension>
        </extensions>
      </trkpt>
      <trkpt lat="42.5615177862346172332763671875" lon="20.0942330248653888702392578125">
        <ele>2072.199951171875</ele>
        <time>2026-06-19T12:24:24.000Z</time>
        <extensions>
          <ns3:TrackPointExtension>
            <ns3:atemp>18.0</ns3:atemp>
          </ns3:TrackPointExtension>
        </extensions>
      </trkpt>
      <trkpt lat="42.5615177862346172332763671875" lon="20.0942330248653888702392578125">
        <ele>2072.199951171875</ele>
        <time>2026-06-19T12:24:25.000Z</time>
        <extensions>
          <ns3:TrackPointExtension>
            <ns3:atemp>18.0</ns3:atemp>
          </ns3:TrackPointExtension>
        </extensions>
      </trkpt>
      <trkpt lat="42.5615177862346172332763671875" lon="20.0942330248653888702392578125">
        <ele>2072.199951171875</ele>
        <time>2026-06-19T12:24:26.000Z</time>
        <extensions>
          <ns3:TrackPointExtension>
            <ns3:atemp>18.0</ns3:atemp>
          </ns3:TrackPointExtension>
        </extensions>
      </trkpt>
      <trkpt lat="42.5615177862346172332763671875" lon="20.0942330248653888702392578125">
        <ele>2072.199951171875</ele>
        <time>2026-06-19T12:24:27.000Z</time>
        <extensions>
          <ns3:TrackPointExtension>
            <ns3:atemp>18.0</ns3:atemp>
          </ns3:TrackPointExtension>
        </extensions>
      </trkpt>
      <trkpt lat="42.5615177862346172332763671875" lon="20.0942330248653888702392578125">
        <ele>2072.199951171875</ele>
        <time>2026-06-19T12:24:28.000Z</time>
        <extensions>
          <ns3:TrackPointExtension>
            <ns3:atemp>18.0</ns3:atemp>
          </ns3:TrackPointExtension>
        </extensions>
      </trkpt>
      <trkpt lat="42.5615177862346172332763671875" lon="20.0942330248653888702392578125">
        <ele>2072.199951171875</ele>
        <time>2026-06-19T12:24:29.000Z</time>
        <extensions>
          <ns3:TrackPointExtension>
            <ns3:atemp>18.0</ns3:atemp>
          </ns3:TrackPointExtension>
        </extensions>
      </trkpt>
      <trkpt lat="42.5615177862346172332763671875" lon="20.0942330248653888702392578125">
        <ele>2072</ele>
        <time>2026-06-19T12:24:30.000Z</time>
        <extensions>
          <ns3:TrackPointExtension>
            <ns3:atemp>18.0</ns3:atemp>
          </ns3:TrackPointExtension>
        </extensions>
      </trkpt>
      <trkpt lat="42.5615177862346172332763671875" lon="20.0942330248653888702392578125">
        <ele>2072</ele>
        <time>2026-06-19T12:24:31.000Z</time>
        <extensions>
          <ns3:TrackPointExtension>
            <ns3:atemp>18.0</ns3:atemp>
          </ns3:TrackPointExtension>
        </extensions>
      </trkpt>
      <trkpt lat="42.5615177862346172332763671875" lon="20.0942330248653888702392578125">
        <ele>2072</ele>
        <time>2026-06-19T12:24:32.000Z</time>
        <extensions>
          <ns3:TrackPointExtension>
            <ns3:atemp>18.0</ns3:atemp>
          </ns3:TrackPointExtension>
        </extensions>
      </trkpt>
      <trkpt lat="42.5615177862346172332763671875" lon="20.0942330248653888702392578125">
        <ele>2072</ele>
        <time>2026-06-19T12:24:33.000Z</time>
        <extensions>
          <ns3:TrackPointExtension>
            <ns3:atemp>18.0</ns3:atemp>
          </ns3:TrackPointExtension>
        </extensions>
      </trkpt>
      <trkpt lat="42.5615177862346172332763671875" lon="20.0942330248653888702392578125">
        <ele>2072</ele>
        <time>2026-06-19T12:24:34.000Z</time>
        <extensions>
          <ns3:TrackPointExtension>
            <ns3:atemp>18.0</ns3:atemp>
          </ns3:TrackPointExtension>
        </extensions>
      </trkpt>
      <trkpt lat="42.5615177862346172332763671875" lon="20.0942330248653888702392578125">
        <ele>2072</ele>
        <time>2026-06-19T12:24:35.000Z</time>
        <extensions>
          <ns3:TrackPointExtension>
            <ns3:atemp>18.0</ns3:atemp>
          </ns3:TrackPointExtension>
        </extensions>
      </trkpt>
      <trkpt lat="42.5615177862346172332763671875" lon="20.0942330248653888702392578125">
        <ele>2072</ele>
        <time>2026-06-19T12:24:36.000Z</time>
        <extensions>
          <ns3:TrackPointExtension>
            <ns3:atemp>18.0</ns3:atemp>
          </ns3:TrackPointExtension>
        </extensions>
      </trkpt>
      <trkpt lat="42.5615177862346172332763671875" lon="20.0942330248653888702392578125">
        <ele>2072.199951171875</ele>
        <time>2026-06-19T12:24:37.000Z</time>
        <extensions>
          <ns3:TrackPointExtension>
            <ns3:atemp>18.0</ns3:atemp>
          </ns3:TrackPointExtension>
        </extensions>
      </trkpt>
      <trkpt lat="42.5615177862346172332763671875" lon="20.0942330248653888702392578125">
        <ele>2072.199951171875</ele>
        <time>2026-06-19T12:24:38.000Z</time>
        <extensions>
          <ns3:TrackPointExtension>
            <ns3:atemp>18.0</ns3:atemp>
          </ns3:TrackPointExtension>
        </extensions>
      </trkpt>
      <trkpt lat="42.5615177862346172332763671875" lon="20.0942330248653888702392578125">
        <ele>2072.199951171875</ele>
        <time>2026-06-19T12:24:39.000Z</time>
        <extensions>
          <ns3:TrackPointExtension>
            <ns3:atemp>18.0</ns3:atemp>
          </ns3:TrackPointExtension>
        </extensions>
      </trkpt>
      <trkpt lat="42.5615177862346172332763671875" lon="20.0942330248653888702392578125">
        <ele>2072.199951171875</ele>
        <time>2026-06-19T12:24:40.000Z</time>
        <extensions>
          <ns3:TrackPointExtension>
            <ns3:atemp>18.0</ns3:atemp>
          </ns3:TrackPointExtension>
        </extensions>
      </trkpt>
      <trkpt lat="42.5615177862346172332763671875" lon="20.0942330248653888702392578125">
        <ele>2072.199951171875</ele>
        <time>2026-06-19T12:24:41.000Z</time>
        <extensions>
          <ns3:TrackPointExtension>
            <ns3:atemp>18.0</ns3:atemp>
          </ns3:TrackPointExtension>
        </extensions>
      </trkpt>
      <trkpt lat="42.5615177862346172332763671875" lon="20.0942330248653888702392578125">
        <ele>2072.199951171875</ele>
        <time>2026-06-19T12:24:42.000Z</time>
        <extensions>
          <ns3:TrackPointExtension>
            <ns3:atemp>18.0</ns3:atemp>
          </ns3:TrackPointExtension>
        </extensions>
      </trkpt>
      <trkpt lat="42.5615177862346172332763671875" lon="20.0942330248653888702392578125">
        <ele>2072.199951171875</ele>
        <time>2026-06-19T12:24:43.000Z</time>
        <extensions>
          <ns3:TrackPointExtension>
            <ns3:atemp>18.0</ns3:atemp>
          </ns3:TrackPointExtension>
        </extensions>
      </trkpt>
      <trkpt lat="42.5615177862346172332763671875" lon="20.0942330248653888702392578125">
        <ele>2072.199951171875</ele>
        <time>2026-06-19T12:24:44.000Z</time>
        <extensions>
          <ns3:TrackPointExtension>
            <ns3:atemp>18.0</ns3:atemp>
          </ns3:TrackPointExtension>
        </extensions>
      </trkpt>
      <trkpt lat="42.5615177862346172332763671875" lon="20.0942330248653888702392578125">
        <ele>2072.199951171875</ele>
        <time>2026-06-19T12:24:45.000Z</time>
        <extensions>
          <ns3:TrackPointExtension>
            <ns3:atemp>18.0</ns3:atemp>
          </ns3:TrackPointExtension>
        </extensions>
      </trkpt>
      <trkpt lat="42.5615177862346172332763671875" lon="20.0942330248653888702392578125">
        <ele>2072.199951171875</ele>
        <time>2026-06-19T12:24:46.000Z</time>
        <extensions>
          <ns3:TrackPointExtension>
            <ns3:atemp>18.0</ns3:atemp>
          </ns3:TrackPointExtension>
        </extensions>
      </trkpt>
      <trkpt lat="42.5615177862346172332763671875" lon="20.0942330248653888702392578125">
        <ele>2072.199951171875</ele>
        <time>2026-06-19T12:24:47.000Z</time>
        <extensions>
          <ns3:TrackPointExtension>
            <ns3:atemp>18.0</ns3:atemp>
          </ns3:TrackPointExtension>
        </extensions>
      </trkpt>
      <trkpt lat="42.5615177862346172332763671875" lon="20.0942330248653888702392578125">
        <ele>2072.199951171875</ele>
        <time>2026-06-19T12:24:48.000Z</time>
        <extensions>
          <ns3:TrackPointExtension>
            <ns3:atemp>18.0</ns3:atemp>
          </ns3:TrackPointExtension>
        </extensions>
      </trkpt>
      <trkpt lat="42.5615177862346172332763671875" lon="20.0942330248653888702392578125">
        <ele>2072.199951171875</ele>
        <time>2026-06-19T12:24:49.000Z</time>
        <extensions>
          <ns3:TrackPointExtension>
            <ns3:atemp>18.0</ns3:atemp>
          </ns3:TrackPointExtension>
        </extensions>
      </trkpt>
      <trkpt lat="42.5615177862346172332763671875" lon="20.0942330248653888702392578125">
        <ele>2072.199951171875</ele>
        <time>2026-06-19T12:24:50.000Z</time>
        <extensions>
          <ns3:TrackPointExtension>
            <ns3:atemp>18.0</ns3:atemp>
          </ns3:TrackPointExtension>
        </extensions>
      </trkpt>
      <trkpt lat="42.5615177862346172332763671875" lon="20.0942330248653888702392578125">
        <ele>2072.199951171875</ele>
        <time>2026-06-19T12:24:51.000Z</time>
        <extensions>
          <ns3:TrackPointExtension>
            <ns3:atemp>18.0</ns3:atemp>
          </ns3:TrackPointExtension>
        </extensions>
      </trkpt>
      <trkpt lat="42.561520971357822418212890625" lon="20.094237886369228363037109375">
        <ele>2072.199951171875</ele>
        <time>2026-06-19T12:24:52.000Z</time>
        <extensions>
          <ns3:TrackPointExtension>
            <ns3:atemp>18.0</ns3:atemp>
          </ns3:TrackPointExtension>
        </extensions>
      </trkpt>
      <trkpt lat="42.5615248270332813262939453125" lon="20.09425724856555461883544921875">
        <ele>2072.199951171875</ele>
        <time>2026-06-19T12:24:53.000Z</time>
        <extensions>
          <ns3:TrackPointExtension>
            <ns3:atemp>18.0</ns3:atemp>
          </ns3:TrackPointExtension>
        </extensions>
      </trkpt>
      <trkpt lat="42.5615258328616619110107421875" lon="20.0942548178136348724365234375">
        <ele>2072.199951171875</ele>
        <time>2026-06-19T12:24:54.000Z</time>
        <extensions>
          <ns3:TrackPointExtension>
            <ns3:atemp>18.0</ns3:atemp>
          </ns3:TrackPointExtension>
        </extensions>
      </trkpt>
      <trkpt lat="42.5615258328616619110107421875" lon="20.0942548178136348724365234375">
        <ele>2072.199951171875</ele>
        <time>2026-06-19T12:24:55.000Z</time>
        <extensions>
          <ns3:TrackPointExtension>
            <ns3:atemp>18.0</ns3:atemp>
          </ns3:TrackPointExtension>
        </extensions>
      </trkpt>
      <trkpt lat="42.5615258328616619110107421875" lon="20.0942548178136348724365234375">
        <ele>2072.199951171875</ele>
        <time>2026-06-19T12:24:56.000Z</time>
        <extensions>
          <ns3:TrackPointExtension>
            <ns3:atemp>18.0</ns3:atemp>
          </ns3:TrackPointExtension>
        </extensions>
      </trkpt>
      <trkpt lat="42.5615258328616619110107421875" lon="20.0942548178136348724365234375">
        <ele>2072.199951171875</ele>
        <time>2026-06-19T12:24:57.000Z</time>
        <extensions>
          <ns3:TrackPointExtension>
            <ns3:atemp>18.0</ns3:atemp>
          </ns3:TrackPointExtension>
        </extensions>
      </trkpt>
      <trkpt lat="42.5615258328616619110107421875" lon="20.0942548178136348724365234375">
        <ele>2072.199951171875</ele>
        <time>2026-06-19T12:24:58.000Z</time>
        <extensions>
          <ns3:TrackPointExtension>
            <ns3:atemp>18.0</ns3:atemp>
          </ns3:TrackPointExtension>
        </extensions>
      </trkpt>
      <trkpt lat="42.5615258328616619110107421875" lon="20.0942548178136348724365234375">
        <ele>2072.199951171875</ele>
        <time>2026-06-19T12:24:59.000Z</time>
        <extensions>
          <ns3:TrackPointExtension>
            <ns3:atemp>18.0</ns3:atemp>
          </ns3:TrackPointExtension>
        </extensions>
      </trkpt>
      <trkpt lat="42.5615258328616619110107421875" lon="20.0942548178136348724365234375">
        <ele>2072.199951171875</ele>
        <time>2026-06-19T12:25:00.000Z</time>
        <extensions>
          <ns3:TrackPointExtension>
            <ns3:atemp>18.0</ns3:atemp>
          </ns3:TrackPointExtension>
        </extensions>
      </trkpt>
      <trkpt lat="42.5615258328616619110107421875" lon="20.0942548178136348724365234375">
        <ele>2072.199951171875</ele>
        <time>2026-06-19T12:25:01.000Z</time>
        <extensions>
          <ns3:TrackPointExtension>
            <ns3:atemp>18.0</ns3:atemp>
          </ns3:TrackPointExtension>
        </extensions>
      </trkpt>
      <trkpt lat="42.5615258328616619110107421875" lon="20.0942548178136348724365234375">
        <ele>2072.199951171875</ele>
        <time>2026-06-19T12:25:02.000Z</time>
        <extensions>
          <ns3:TrackPointExtension>
            <ns3:atemp>18.0</ns3:atemp>
          </ns3:TrackPointExtension>
        </extensions>
      </trkpt>
      <trkpt lat="42.5615258328616619110107421875" lon="20.0942548178136348724365234375">
        <ele>2072.199951171875</ele>
        <time>2026-06-19T12:25:03.000Z</time>
        <extensions>
          <ns3:TrackPointExtension>
            <ns3:atemp>18.0</ns3:atemp>
          </ns3:TrackPointExtension>
        </extensions>
      </trkpt>
      <trkpt lat="42.5615258328616619110107421875" lon="20.0942548178136348724365234375">
        <ele>2072.199951171875</ele>
        <time>2026-06-19T12:25:04.000Z</time>
        <extensions>
          <ns3:TrackPointExtension>
            <ns3:atemp>18.0</ns3:atemp>
          </ns3:TrackPointExtension>
        </extensions>
      </trkpt>
      <trkpt lat="42.5615258328616619110107421875" lon="20.0942548178136348724365234375">
        <ele>2072.199951171875</ele>
        <time>2026-06-19T12:25:05.000Z</time>
        <extensions>
          <ns3:TrackPointExtension>
            <ns3:atemp>18.0</ns3:atemp>
          </ns3:TrackPointExtension>
        </extensions>
      </trkpt>
      <trkpt lat="42.5615258328616619110107421875" lon="20.0942548178136348724365234375">
        <ele>2072.199951171875</ele>
        <time>2026-06-19T12:25:06.000Z</time>
        <extensions>
          <ns3:TrackPointExtension>
            <ns3:atemp>18.0</ns3:atemp>
          </ns3:TrackPointExtension>
        </extensions>
      </trkpt>
      <trkpt lat="42.5615258328616619110107421875" lon="20.0942548178136348724365234375">
        <ele>2072.199951171875</ele>
        <time>2026-06-19T12:25:07.000Z</time>
        <extensions>
          <ns3:TrackPointExtension>
            <ns3:atemp>18.0</ns3:atemp>
          </ns3:TrackPointExtension>
        </extensions>
      </trkpt>
      <trkpt lat="42.5615258328616619110107421875" lon="20.0942548178136348724365234375">
        <ele>2072.199951171875</ele>
        <time>2026-06-19T12:25:08.000Z</time>
        <extensions>
          <ns3:TrackPointExtension>
            <ns3:atemp>18.0</ns3:atemp>
          </ns3:TrackPointExtension>
        </extensions>
      </trkpt>
      <trkpt lat="42.5615258328616619110107421875" lon="20.0942548178136348724365234375">
        <ele>2072.199951171875</ele>
        <time>2026-06-19T12:25:09.000Z</time>
        <extensions>
          <ns3:TrackPointExtension>
            <ns3:atemp>18.0</ns3:atemp>
          </ns3:TrackPointExtension>
        </extensions>
      </trkpt>
      <trkpt lat="42.5615258328616619110107421875" lon="20.0942548178136348724365234375">
        <ele>2072.199951171875</ele>
        <time>2026-06-19T12:25:10.000Z</time>
        <extensions>
          <ns3:TrackPointExtension>
            <ns3:atemp>18.0</ns3:atemp>
          </ns3:TrackPointExtension>
        </extensions>
      </trkpt>
      <trkpt lat="42.5615258328616619110107421875" lon="20.0942548178136348724365234375">
        <ele>2072.199951171875</ele>
        <time>2026-06-19T12:25:11.000Z</time>
        <extensions>
          <ns3:TrackPointExtension>
            <ns3:atemp>18.0</ns3:atemp>
          </ns3:TrackPointExtension>
        </extensions>
      </trkpt>
      <trkpt lat="42.5615258328616619110107421875" lon="20.0942548178136348724365234375">
        <ele>2072.199951171875</ele>
        <time>2026-06-19T12:25:12.000Z</time>
        <extensions>
          <ns3:TrackPointExtension>
            <ns3:atemp>18.0</ns3:atemp>
          </ns3:TrackPointExtension>
        </extensions>
      </trkpt>
      <trkpt lat="42.5615258328616619110107421875" lon="20.0942548178136348724365234375">
        <ele>2072.199951171875</ele>
        <time>2026-06-19T12:25:13.000Z</time>
        <extensions>
          <ns3:TrackPointExtension>
            <ns3:atemp>18.0</ns3:atemp>
          </ns3:TrackPointExtension>
        </extensions>
      </trkpt>
      <trkpt lat="42.5615258328616619110107421875" lon="20.0942548178136348724365234375">
        <ele>2072.199951171875</ele>
        <time>2026-06-19T12:25:14.000Z</time>
        <extensions>
          <ns3:TrackPointExtension>
            <ns3:atemp>18.0</ns3:atemp>
          </ns3:TrackPointExtension>
        </extensions>
      </trkpt>
      <trkpt lat="42.5615258328616619110107421875" lon="20.0942548178136348724365234375">
        <ele>2072.199951171875</ele>
        <time>2026-06-19T12:25:15.000Z</time>
        <extensions>
          <ns3:TrackPointExtension>
            <ns3:atemp>18.0</ns3:atemp>
          </ns3:TrackPointExtension>
        </extensions>
      </trkpt>
      <trkpt lat="42.5615258328616619110107421875" lon="20.0942548178136348724365234375">
        <ele>2072.199951171875</ele>
        <time>2026-06-19T12:25:16.000Z</time>
        <extensions>
          <ns3:TrackPointExtension>
            <ns3:atemp>18.0</ns3:atemp>
          </ns3:TrackPointExtension>
        </extensions>
      </trkpt>
      <trkpt lat="42.5615258328616619110107421875" lon="20.0942548178136348724365234375">
        <ele>2072.199951171875</ele>
        <time>2026-06-19T12:25:17.000Z</time>
        <extensions>
          <ns3:TrackPointExtension>
            <ns3:atemp>18.0</ns3:atemp>
          </ns3:TrackPointExtension>
        </extensions>
      </trkpt>
      <trkpt lat="42.5615258328616619110107421875" lon="20.0942548178136348724365234375">
        <ele>2072.199951171875</ele>
        <time>2026-06-19T12:25:18.000Z</time>
        <extensions>
          <ns3:TrackPointExtension>
            <ns3:atemp>18.0</ns3:atemp>
          </ns3:TrackPointExtension>
        </extensions>
      </trkpt>
      <trkpt lat="42.5615258328616619110107421875" lon="20.0942548178136348724365234375">
        <ele>2072.199951171875</ele>
        <time>2026-06-19T12:25:19.000Z</time>
        <extensions>
          <ns3:TrackPointExtension>
            <ns3:atemp>18.0</ns3:atemp>
          </ns3:TrackPointExtension>
        </extensions>
      </trkpt>
      <trkpt lat="42.5615258328616619110107421875" lon="20.0942548178136348724365234375">
        <ele>2072.199951171875</ele>
        <time>2026-06-19T12:25:20.000Z</time>
        <extensions>
          <ns3:TrackPointExtension>
            <ns3:atemp>18.0</ns3:atemp>
          </ns3:TrackPointExtension>
        </extensions>
      </trkpt>
      <trkpt lat="42.5615258328616619110107421875" lon="20.0942548178136348724365234375">
        <ele>2072.199951171875</ele>
        <time>2026-06-19T12:25:21.000Z</time>
        <extensions>
          <ns3:TrackPointExtension>
            <ns3:atemp>18.0</ns3:atemp>
          </ns3:TrackPointExtension>
        </extensions>
      </trkpt>
      <trkpt lat="42.5615258328616619110107421875" lon="20.0942548178136348724365234375">
        <ele>2072.199951171875</ele>
        <time>2026-06-19T12:25:22.000Z</time>
        <extensions>
          <ns3:TrackPointExtension>
            <ns3:atemp>18.0</ns3:atemp>
          </ns3:TrackPointExtension>
        </extensions>
      </trkpt>
      <trkpt lat="42.5615258328616619110107421875" lon="20.0942548178136348724365234375">
        <ele>2072.199951171875</ele>
        <time>2026-06-19T12:25:23.000Z</time>
        <extensions>
          <ns3:TrackPointExtension>
            <ns3:atemp>18.0</ns3:atemp>
          </ns3:TrackPointExtension>
        </extensions>
      </trkpt>
      <trkpt lat="42.5615258328616619110107421875" lon="20.0942548178136348724365234375">
        <ele>2072.199951171875</ele>
        <time>2026-06-19T12:25:24.000Z</time>
        <extensions>
          <ns3:TrackPointExtension>
            <ns3:atemp>18.0</ns3:atemp>
          </ns3:TrackPointExtension>
        </extensions>
      </trkpt>
      <trkpt lat="42.5615258328616619110107421875" lon="20.0942548178136348724365234375">
        <ele>2072.199951171875</ele>
        <time>2026-06-19T12:25:25.000Z</time>
        <extensions>
          <ns3:TrackPointExtension>
            <ns3:atemp>18.0</ns3:atemp>
          </ns3:TrackPointExtension>
        </extensions>
      </trkpt>
      <trkpt lat="42.5615258328616619110107421875" lon="20.0942548178136348724365234375">
        <ele>2072.199951171875</ele>
        <time>2026-06-19T12:25:26.000Z</time>
        <extensions>
          <ns3:TrackPointExtension>
            <ns3:atemp>18.0</ns3:atemp>
          </ns3:TrackPointExtension>
        </extensions>
      </trkpt>
      <trkpt lat="42.5615258328616619110107421875" lon="20.0942548178136348724365234375">
        <ele>2072.199951171875</ele>
        <time>2026-06-19T12:25:27.000Z</time>
        <extensions>
          <ns3:TrackPointExtension>
            <ns3:atemp>18.0</ns3:atemp>
          </ns3:TrackPointExtension>
        </extensions>
      </trkpt>
      <trkpt lat="42.5615258328616619110107421875" lon="20.0942548178136348724365234375">
        <ele>2072.199951171875</ele>
        <time>2026-06-19T12:25:28.000Z</time>
        <extensions>
          <ns3:TrackPointExtension>
            <ns3:atemp>18.0</ns3:atemp>
          </ns3:TrackPointExtension>
        </extensions>
      </trkpt>
      <trkpt lat="42.5615258328616619110107421875" lon="20.0942548178136348724365234375">
        <ele>2072.199951171875</ele>
        <time>2026-06-19T12:25:29.000Z</time>
        <extensions>
          <ns3:TrackPointExtension>
            <ns3:atemp>18.0</ns3:atemp>
          </ns3:TrackPointExtension>
        </extensions>
      </trkpt>
      <trkpt lat="42.5615258328616619110107421875" lon="20.0942548178136348724365234375">
        <ele>2072.199951171875</ele>
        <time>2026-06-19T12:25:30.000Z</time>
        <extensions>
          <ns3:TrackPointExtension>
            <ns3:atemp>18.0</ns3:atemp>
          </ns3:TrackPointExtension>
        </extensions>
      </trkpt>
      <trkpt lat="42.5615258328616619110107421875" lon="20.0942548178136348724365234375">
        <ele>2072.199951171875</ele>
        <time>2026-06-19T12:25:31.000Z</time>
        <extensions>
          <ns3:TrackPointExtension>
            <ns3:atemp>18.0</ns3:atemp>
          </ns3:TrackPointExtension>
        </extensions>
      </trkpt>
      <trkpt lat="42.5615258328616619110107421875" lon="20.0942548178136348724365234375">
        <ele>2072.199951171875</ele>
        <time>2026-06-19T12:25:32.000Z</time>
        <extensions>
          <ns3:TrackPointExtension>
            <ns3:atemp>18.0</ns3:atemp>
          </ns3:TrackPointExtension>
        </extensions>
      </trkpt>
      <trkpt lat="42.5615258328616619110107421875" lon="20.0942548178136348724365234375">
        <ele>2072.199951171875</ele>
        <time>2026-06-19T12:25:33.000Z</time>
        <extensions>
          <ns3:TrackPointExtension>
            <ns3:atemp>18.0</ns3:atemp>
          </ns3:TrackPointExtension>
        </extensions>
      </trkpt>
      <trkpt lat="42.5615258328616619110107421875" lon="20.0942548178136348724365234375">
        <ele>2072.199951171875</ele>
        <time>2026-06-19T12:25:34.000Z</time>
        <extensions>
          <ns3:TrackPointExtension>
            <ns3:atemp>18.0</ns3:atemp>
          </ns3:TrackPointExtension>
        </extensions>
      </trkpt>
      <trkpt lat="42.5615258328616619110107421875" lon="20.0942548178136348724365234375">
        <ele>2072.199951171875</ele>
        <time>2026-06-19T12:25:35.000Z</time>
        <extensions>
          <ns3:TrackPointExtension>
            <ns3:atemp>18.0</ns3:atemp>
          </ns3:TrackPointExtension>
        </extensions>
      </trkpt>
      <trkpt lat="42.5615258328616619110107421875" lon="20.0942548178136348724365234375">
        <ele>2072.199951171875</ele>
        <time>2026-06-19T12:25:36.000Z</time>
        <extensions>
          <ns3:TrackPointExtension>
            <ns3:atemp>18.0</ns3:atemp>
          </ns3:TrackPointExtension>
        </extensions>
      </trkpt>
      <trkpt lat="42.5615258328616619110107421875" lon="20.0942548178136348724365234375">
        <ele>2072.199951171875</ele>
        <time>2026-06-19T12:25:37.000Z</time>
        <extensions>
          <ns3:TrackPointExtension>
            <ns3:atemp>18.0</ns3:atemp>
          </ns3:TrackPointExtension>
        </extensions>
      </trkpt>
      <trkpt lat="42.5615258328616619110107421875" lon="20.0942548178136348724365234375">
        <ele>2072.199951171875</ele>
        <time>2026-06-19T12:25:38.000Z</time>
        <extensions>
          <ns3:TrackPointExtension>
            <ns3:atemp>18.0</ns3:atemp>
          </ns3:TrackPointExtension>
        </extensions>
      </trkpt>
      <trkpt lat="42.5615258328616619110107421875" lon="20.0942548178136348724365234375">
        <ele>2072.199951171875</ele>
        <time>2026-06-19T12:25:39.000Z</time>
        <extensions>
          <ns3:TrackPointExtension>
            <ns3:atemp>18.0</ns3:atemp>
          </ns3:TrackPointExtension>
        </extensions>
      </trkpt>
      <trkpt lat="42.5615258328616619110107421875" lon="20.0942548178136348724365234375">
        <ele>2072.199951171875</ele>
        <time>2026-06-19T12:25:40.000Z</time>
        <extensions>
          <ns3:TrackPointExtension>
            <ns3:atemp>18.0</ns3:atemp>
          </ns3:TrackPointExtension>
        </extensions>
      </trkpt>
      <trkpt lat="42.5615258328616619110107421875" lon="20.0942548178136348724365234375">
        <ele>2072.199951171875</ele>
        <time>2026-06-19T12:25:41.000Z</time>
        <extensions>
          <ns3:TrackPointExtension>
            <ns3:atemp>18.0</ns3:atemp>
          </ns3:TrackPointExtension>
        </extensions>
      </trkpt>
      <trkpt lat="42.5615258328616619110107421875" lon="20.0942548178136348724365234375">
        <ele>2072.199951171875</ele>
        <time>2026-06-19T12:25:42.000Z</time>
        <extensions>
          <ns3:TrackPointExtension>
            <ns3:atemp>18.0</ns3:atemp>
          </ns3:TrackPointExtension>
        </extensions>
      </trkpt>
      <trkpt lat="42.5615258328616619110107421875" lon="20.0942548178136348724365234375">
        <ele>2072.199951171875</ele>
        <time>2026-06-19T12:25:43.000Z</time>
        <extensions>
          <ns3:TrackPointExtension>
            <ns3:atemp>18.0</ns3:atemp>
          </ns3:TrackPointExtension>
        </extensions>
      </trkpt>
      <trkpt lat="42.5615258328616619110107421875" lon="20.0942548178136348724365234375">
        <ele>2072.199951171875</ele>
        <time>2026-06-19T12:25:44.000Z</time>
        <extensions>
          <ns3:TrackPointExtension>
            <ns3:atemp>18.0</ns3:atemp>
          </ns3:TrackPointExtension>
        </extensions>
      </trkpt>
      <trkpt lat="42.5615258328616619110107421875" lon="20.0942548178136348724365234375">
        <ele>2072.199951171875</ele>
        <time>2026-06-19T12:25:45.000Z</time>
        <extensions>
          <ns3:TrackPointExtension>
            <ns3:atemp>18.0</ns3:atemp>
          </ns3:TrackPointExtension>
        </extensions>
      </trkpt>
      <trkpt lat="42.5615258328616619110107421875" lon="20.0942548178136348724365234375">
        <ele>2072.199951171875</ele>
        <time>2026-06-19T12:25:46.000Z</time>
        <extensions>
          <ns3:TrackPointExtension>
            <ns3:atemp>18.0</ns3:atemp>
          </ns3:TrackPointExtension>
        </extensions>
      </trkpt>
      <trkpt lat="42.5615258328616619110107421875" lon="20.0942548178136348724365234375">
        <ele>2072.199951171875</ele>
        <time>2026-06-19T12:25:47.000Z</time>
        <extensions>
          <ns3:TrackPointExtension>
            <ns3:atemp>18.0</ns3:atemp>
          </ns3:TrackPointExtension>
        </extensions>
      </trkpt>
      <trkpt lat="42.5615258328616619110107421875" lon="20.0942548178136348724365234375">
        <ele>2072.199951171875</ele>
        <time>2026-06-19T12:25:48.000Z</time>
        <extensions>
          <ns3:TrackPointExtension>
            <ns3:atemp>18.0</ns3:atemp>
          </ns3:TrackPointExtension>
        </extensions>
      </trkpt>
      <trkpt lat="42.5615258328616619110107421875" lon="20.0942548178136348724365234375">
        <ele>2072.199951171875</ele>
        <time>2026-06-19T12:25:49.000Z</time>
        <extensions>
          <ns3:TrackPointExtension>
            <ns3:atemp>18.0</ns3:atemp>
          </ns3:TrackPointExtension>
        </extensions>
      </trkpt>
      <trkpt lat="42.5615258328616619110107421875" lon="20.0942548178136348724365234375">
        <ele>2072.199951171875</ele>
        <time>2026-06-19T12:25:50.000Z</time>
        <extensions>
          <ns3:TrackPointExtension>
            <ns3:atemp>18.0</ns3:atemp>
          </ns3:TrackPointExtension>
        </extensions>
      </trkpt>
      <trkpt lat="42.5615258328616619110107421875" lon="20.0942548178136348724365234375">
        <ele>2072.199951171875</ele>
        <time>2026-06-19T12:25:51.000Z</time>
        <extensions>
          <ns3:TrackPointExtension>
            <ns3:atemp>18.0</ns3:atemp>
          </ns3:TrackPointExtension>
        </extensions>
      </trkpt>
      <trkpt lat="42.5615258328616619110107421875" lon="20.0942548178136348724365234375">
        <ele>2072.199951171875</ele>
        <time>2026-06-19T12:25:52.000Z</time>
        <extensions>
          <ns3:TrackPointExtension>
            <ns3:atemp>18.0</ns3:atemp>
          </ns3:TrackPointExtension>
        </extensions>
      </trkpt>
      <trkpt lat="42.5615258328616619110107421875" lon="20.0942548178136348724365234375">
        <ele>2072.199951171875</ele>
        <time>2026-06-19T12:25:53.000Z</time>
        <extensions>
          <ns3:TrackPointExtension>
            <ns3:atemp>18.0</ns3:atemp>
          </ns3:TrackPointExtension>
        </extensions>
      </trkpt>
      <trkpt lat="42.5615258328616619110107421875" lon="20.0942548178136348724365234375">
        <ele>2072.199951171875</ele>
        <time>2026-06-19T12:25:54.000Z</time>
        <extensions>
          <ns3:TrackPointExtension>
            <ns3:atemp>18.0</ns3:atemp>
          </ns3:TrackPointExtension>
        </extensions>
      </trkpt>
      <trkpt lat="42.5615258328616619110107421875" lon="20.0942548178136348724365234375">
        <ele>2072.199951171875</ele>
        <time>2026-06-19T12:25:55.000Z</time>
        <extensions>
          <ns3:TrackPointExtension>
            <ns3:atemp>18.0</ns3:atemp>
          </ns3:TrackPointExtension>
        </extensions>
      </trkpt>
      <trkpt lat="42.5615258328616619110107421875" lon="20.0942548178136348724365234375">
        <ele>2072.199951171875</ele>
        <time>2026-06-19T12:25:56.000Z</time>
        <extensions>
          <ns3:TrackPointExtension>
            <ns3:atemp>18.0</ns3:atemp>
          </ns3:TrackPointExtension>
        </extensions>
      </trkpt>
      <trkpt lat="42.5615258328616619110107421875" lon="20.0942548178136348724365234375">
        <ele>2072.199951171875</ele>
        <time>2026-06-19T12:25:57.000Z</time>
        <extensions>
          <ns3:TrackPointExtension>
            <ns3:atemp>18.0</ns3:atemp>
          </ns3:TrackPointExtension>
        </extensions>
      </trkpt>
      <trkpt lat="42.5615258328616619110107421875" lon="20.0942548178136348724365234375">
        <ele>2072.199951171875</ele>
        <time>2026-06-19T12:25:58.000Z</time>
        <extensions>
          <ns3:TrackPointExtension>
            <ns3:atemp>18.0</ns3:atemp>
          </ns3:TrackPointExtension>
        </extensions>
      </trkpt>
      <trkpt lat="42.5615258328616619110107421875" lon="20.0942548178136348724365234375">
        <ele>2072.199951171875</ele>
        <time>2026-06-19T12:25:59.000Z</time>
        <extensions>
          <ns3:TrackPointExtension>
            <ns3:atemp>18.0</ns3:atemp>
          </ns3:TrackPointExtension>
        </extensions>
      </trkpt>
      <trkpt lat="42.5615258328616619110107421875" lon="20.0942548178136348724365234375">
        <ele>2072.199951171875</ele>
        <time>2026-06-19T12:26:00.000Z</time>
        <extensions>
          <ns3:TrackPointExtension>
            <ns3:atemp>18.0</ns3:atemp>
          </ns3:TrackPointExtension>
        </extensions>
      </trkpt>
      <trkpt lat="42.5615258328616619110107421875" lon="20.0942548178136348724365234375">
        <ele>2072.199951171875</ele>
        <time>2026-06-19T12:26:01.000Z</time>
        <extensions>
          <ns3:TrackPointExtension>
            <ns3:atemp>18.0</ns3:atemp>
          </ns3:TrackPointExtension>
        </extensions>
      </trkpt>
      <trkpt lat="42.5615258328616619110107421875" lon="20.0942548178136348724365234375">
        <ele>2072.199951171875</ele>
        <time>2026-06-19T12:26:02.000Z</time>
        <extensions>
          <ns3:TrackPointExtension>
            <ns3:atemp>18.0</ns3:atemp>
          </ns3:TrackPointExtension>
        </extensions>
      </trkpt>
      <trkpt lat="42.5615258328616619110107421875" lon="20.0942548178136348724365234375">
        <ele>2072.199951171875</ele>
        <time>2026-06-19T12:26:03.000Z</time>
        <extensions>
          <ns3:TrackPointExtension>
            <ns3:atemp>18.0</ns3:atemp>
          </ns3:TrackPointExtension>
        </extensions>
      </trkpt>
      <trkpt lat="42.5615258328616619110107421875" lon="20.0942548178136348724365234375">
        <ele>2072.199951171875</ele>
        <time>2026-06-19T12:26:04.000Z</time>
        <extensions>
          <ns3:TrackPointExtension>
            <ns3:atemp>18.0</ns3:atemp>
          </ns3:TrackPointExtension>
        </extensions>
      </trkpt>
      <trkpt lat="42.5615258328616619110107421875" lon="20.0942548178136348724365234375">
        <ele>2072.199951171875</ele>
        <time>2026-06-19T12:26:05.000Z</time>
        <extensions>
          <ns3:TrackPointExtension>
            <ns3:atemp>18.0</ns3:atemp>
          </ns3:TrackPointExtension>
        </extensions>
      </trkpt>
      <trkpt lat="42.5615258328616619110107421875" lon="20.0942548178136348724365234375">
        <ele>2072.199951171875</ele>
        <time>2026-06-19T12:26:06.000Z</time>
        <extensions>
          <ns3:TrackPointExtension>
            <ns3:atemp>18.0</ns3:atemp>
          </ns3:TrackPointExtension>
        </extensions>
      </trkpt>
      <trkpt lat="42.5615258328616619110107421875" lon="20.0942548178136348724365234375">
        <ele>2072.199951171875</ele>
        <time>2026-06-19T12:26:07.000Z</time>
        <extensions>
          <ns3:TrackPointExtension>
            <ns3:atemp>18.0</ns3:atemp>
          </ns3:TrackPointExtension>
        </extensions>
      </trkpt>
      <trkpt lat="42.5615258328616619110107421875" lon="20.0942548178136348724365234375">
        <ele>2072.199951171875</ele>
        <time>2026-06-19T12:26:08.000Z</time>
        <extensions>
          <ns3:TrackPointExtension>
            <ns3:atemp>18.0</ns3:atemp>
          </ns3:TrackPointExtension>
        </extensions>
      </trkpt>
      <trkpt lat="42.5615258328616619110107421875" lon="20.0942548178136348724365234375">
        <ele>2072.199951171875</ele>
        <time>2026-06-19T12:26:09.000Z</time>
        <extensions>
          <ns3:TrackPointExtension>
            <ns3:atemp>18.0</ns3:atemp>
          </ns3:TrackPointExtension>
        </extensions>
      </trkpt>
      <trkpt lat="42.561527006328105926513671875" lon="20.09425372816622257232666015625">
        <ele>2072.199951171875</ele>
        <time>2026-06-19T12:26:10.000Z</time>
        <extensions>
          <ns3:TrackPointExtension>
            <ns3:atemp>18.0</ns3:atemp>
          </ns3:TrackPointExtension>
        </extensions>
      </trkpt>
      <trkpt lat="42.5615380704402923583984375" lon="20.094244591891765594482421875">
        <ele>2072.199951171875</ele>
        <time>2026-06-19T12:26:11.000Z</time>
        <extensions>
          <ns3:TrackPointExtension>
            <ns3:atemp>18.0</ns3:atemp>
          </ns3:TrackPointExtension>
        </extensions>
      </trkpt>
      <trkpt lat="42.5615332089364528656005859375" lon="20.094235874712467193603515625">
        <ele>2072.199951171875</ele>
        <time>2026-06-19T12:26:12.000Z</time>
        <extensions>
          <ns3:TrackPointExtension>
            <ns3:atemp>18.0</ns3:atemp>
          </ns3:TrackPointExtension>
        </extensions>
      </trkpt>
      <trkpt lat="42.56152725778520107269287109375" lon="20.09421936236321926116943359375">
        <ele>2072.199951171875</ele>
        <time>2026-06-19T12:26:13.000Z</time>
        <extensions>
          <ns3:TrackPointExtension>
            <ns3:atemp>18.0</ns3:atemp>
          </ns3:TrackPointExtension>
        </extensions>
      </trkpt>
      <trkpt lat="42.56152424030005931854248046875" lon="20.09421399794518947601318359375">
        <ele>2072.199951171875</ele>
        <time>2026-06-19T12:26:14.000Z</time>
        <extensions>
          <ns3:TrackPointExtension>
            <ns3:atemp>18.0</ns3:atemp>
          </ns3:TrackPointExtension>
        </extensions>
      </trkpt>
      <trkpt lat="42.56152424030005931854248046875" lon="20.09421383030712604522705078125">
        <ele>2072.199951171875</ele>
        <time>2026-06-19T12:26:15.000Z</time>
        <extensions>
          <ns3:TrackPointExtension>
            <ns3:atemp>18.0</ns3:atemp>
          </ns3:TrackPointExtension>
        </extensions>
      </trkpt>
      <trkpt lat="42.56152424030005931854248046875" lon="20.09421383030712604522705078125">
        <ele>2072</ele>
        <time>2026-06-19T12:26:16.000Z</time>
        <extensions>
          <ns3:TrackPointExtension>
            <ns3:atemp>18.0</ns3:atemp>
          </ns3:TrackPointExtension>
        </extensions>
      </trkpt>
      <trkpt lat="42.56152424030005931854248046875" lon="20.09421383030712604522705078125">
        <ele>2071.800048828125</ele>
        <time>2026-06-19T12:26:17.000Z</time>
        <extensions>
          <ns3:TrackPointExtension>
            <ns3:atemp>18.0</ns3:atemp>
          </ns3:TrackPointExtension>
        </extensions>
      </trkpt>
      <trkpt lat="42.56152424030005931854248046875" lon="20.09421383030712604522705078125">
        <ele>2071.800048828125</ele>
        <time>2026-06-19T12:26:18.000Z</time>
        <extensions>
          <ns3:TrackPointExtension>
            <ns3:atemp>18.0</ns3:atemp>
          </ns3:TrackPointExtension>
        </extensions>
      </trkpt>
      <trkpt lat="42.56152390502393245697021484375" lon="20.09421282447874546051025390625">
        <ele>2071.800048828125</ele>
        <time>2026-06-19T12:26:19.000Z</time>
        <extensions>
          <ns3:TrackPointExtension>
            <ns3:atemp>18.0</ns3:atemp>
          </ns3:TrackPointExtension>
        </extensions>
      </trkpt>
      <trkpt lat="42.56152340210974216461181640625" lon="20.0941840745508670806884765625">
        <ele>2071.800048828125</ele>
        <time>2026-06-19T12:26:20.000Z</time>
        <extensions>
          <ns3:TrackPointExtension>
            <ns3:atemp>18.0</ns3:atemp>
          </ns3:TrackPointExtension>
        </extensions>
      </trkpt>
      <trkpt lat="42.56152893416583538055419921875" lon="20.09416102431714534759521484375">
        <ele>2071.800048828125</ele>
        <time>2026-06-19T12:26:21.000Z</time>
        <extensions>
          <ns3:TrackPointExtension>
            <ns3:atemp>18.0</ns3:atemp>
          </ns3:TrackPointExtension>
        </extensions>
      </trkpt>
      <trkpt lat="42.56153580732643604278564453125" lon="20.0941361300647258758544921875">
        <ele>2071.60009765625</ele>
        <time>2026-06-19T12:26:22.000Z</time>
        <extensions>
          <ns3:TrackPointExtension>
            <ns3:atemp>18.0</ns3:atemp>
          </ns3:TrackPointExtension>
        </extensions>
      </trkpt>
      <trkpt lat="42.56153547205030918121337890625" lon="20.09409564547240734100341796875">
        <ele>2071.39990234375</ele>
        <time>2026-06-19T12:26:23.000Z</time>
        <extensions>
          <ns3:TrackPointExtension>
            <ns3:atemp>18.0</ns3:atemp>
          </ns3:TrackPointExtension>
        </extensions>
      </trkpt>
      <trkpt lat="42.5615281797945499420166015625" lon="20.0940509699285030364990234375">
        <ele>2071</ele>
        <time>2026-06-19T12:26:24.000Z</time>
        <extensions>
          <ns3:TrackPointExtension>
            <ns3:atemp>18.0</ns3:atemp>
          </ns3:TrackPointExtension>
        </extensions>
      </trkpt>
      <trkpt lat="42.56151686422526836395263671875" lon="20.094008557498455047607421875">
        <ele>2070.60009765625</ele>
        <time>2026-06-19T12:26:25.000Z</time>
        <extensions>
          <ns3:TrackPointExtension>
            <ns3:atemp>18.0</ns3:atemp>
          </ns3:TrackPointExtension>
        </extensions>
      </trkpt>
      <trkpt lat="42.56150244735181331634521484375" lon="20.09396220557391643524169921875">
        <ele>2070.199951171875</ele>
        <time>2026-06-19T12:26:26.000Z</time>
        <extensions>
          <ns3:TrackPointExtension>
            <ns3:atemp>18.0</ns3:atemp>
          </ns3:TrackPointExtension>
        </extensions>
      </trkpt>
      <trkpt lat="42.56148920394480228424072265625" lon="20.0939150154590606689453125">
        <ele>2070</ele>
        <time>2026-06-19T12:26:27.000Z</time>
        <extensions>
          <ns3:TrackPointExtension>
            <ns3:atemp>18.0</ns3:atemp>
          </ns3:TrackPointExtension>
        </extensions>
      </trkpt>
      <trkpt lat="42.5614795647561550140380859375" lon="20.09386480785906314849853515625">
        <ele>2069.60009765625</ele>
        <time>2026-06-19T12:26:28.000Z</time>
        <extensions>
          <ns3:TrackPointExtension>
            <ns3:atemp>18.0</ns3:atemp>
          </ns3:TrackPointExtension>
        </extensions>
      </trkpt>
      <trkpt lat="42.5614929758012294769287109375" lon="20.0938273407518863677978515625">
        <ele>2069.39990234375</ele>
        <time>2026-06-19T12:26:29.000Z</time>
        <extensions>
          <ns3:TrackPointExtension>
            <ns3:atemp>18.0</ns3:atemp>
          </ns3:TrackPointExtension>
        </extensions>
      </trkpt>
      <trkpt lat="42.56151602603495121002197265625" lon="20.09379993192851543426513671875">
        <ele>2069</ele>
        <time>2026-06-19T12:26:30.000Z</time>
        <extensions>
          <ns3:TrackPointExtension>
            <ns3:atemp>18.0</ns3:atemp>
          </ns3:TrackPointExtension>
        </extensions>
      </trkpt>
      <trkpt lat="42.5615305267274379730224609375" lon="20.093777887523174285888671875">
        <ele>2068.800048828125</ele>
        <time>2026-06-19T12:26:31.000Z</time>
        <extensions>
          <ns3:TrackPointExtension>
            <ns3:atemp>18.0</ns3:atemp>
          </ns3:TrackPointExtension>
        </extensions>
      </trkpt>
      <trkpt lat="42.56153714843094348907470703125" lon="20.09374528191983699798583984375">
        <ele>2068.39990234375</ele>
        <time>2026-06-19T12:26:32.000Z</time>
        <extensions>
          <ns3:TrackPointExtension>
            <ns3:atemp>18.0</ns3:atemp>
          </ns3:TrackPointExtension>
        </extensions>
      </trkpt>
      <trkpt lat="42.56154284812510013580322265625" lon="20.09370907209813594818115234375">
        <ele>2067.800048828125</ele>
        <time>2026-06-19T12:26:33.000Z</time>
        <extensions>
          <ns3:TrackPointExtension>
            <ns3:atemp>18.0</ns3:atemp>
          </ns3:TrackPointExtension>
        </extensions>
      </trkpt>
      <trkpt lat="42.56155257113277912139892578125" lon="20.09366431273519992828369140625">
        <ele>2067.60009765625</ele>
        <time>2026-06-19T12:26:34.000Z</time>
        <extensions>
          <ns3:TrackPointExtension>
            <ns3:atemp>18.0</ns3:atemp>
          </ns3:TrackPointExtension>
        </extensions>
      </trkpt>
      <trkpt lat="42.5615667365491390228271484375" lon="20.09362600743770599365234375">
        <ele>2067</ele>
        <time>2026-06-19T12:26:35.000Z</time>
        <extensions>
          <ns3:TrackPointExtension>
            <ns3:atemp>18.0</ns3:atemp>
          </ns3:TrackPointExtension>
        </extensions>
      </trkpt>
      <trkpt lat="42.56158274598419666290283203125" lon="20.09358066134154796600341796875">
        <ele>2066.60009765625</ele>
        <time>2026-06-19T12:26:36.000Z</time>
        <extensions>
          <ns3:TrackPointExtension>
            <ns3:atemp>18.0</ns3:atemp>
          </ns3:TrackPointExtension>
        </extensions>
      </trkpt>
      <trkpt lat="42.56160303018987178802490234375" lon="20.09353489615023136138916015625">
        <ele>2066.199951171875</ele>
        <time>2026-06-19T12:26:37.000Z</time>
        <extensions>
          <ns3:TrackPointExtension>
            <ns3:atemp>18.0</ns3:atemp>
          </ns3:TrackPointExtension>
        </extensions>
      </trkpt>
      <trkpt lat="42.56161828525364398956298828125" lon="20.09347639046609401702880859375">
        <ele>2065.60009765625</ele>
        <time>2026-06-19T12:26:38.000Z</time>
        <extensions>
          <ns3:TrackPointExtension>
            <ns3:atemp>18.0</ns3:atemp>
          </ns3:TrackPointExtension>
        </extensions>
      </trkpt>
      <trkpt lat="42.56163303740322589874267578125" lon="20.093428194522857666015625">
        <ele>2064.800048828125</ele>
        <time>2026-06-19T12:26:39.000Z</time>
        <extensions>
          <ns3:TrackPointExtension>
            <ns3:atemp>18.0</ns3:atemp>
          </ns3:TrackPointExtension>
        </extensions>
      </trkpt>
      <trkpt lat="42.5616508908569812774658203125" lon="20.09338335134088993072509765625">
        <ele>2064.199951171875</ele>
        <time>2026-06-19T12:26:40.000Z</time>
        <extensions>
          <ns3:TrackPointExtension>
            <ns3:atemp>18.0</ns3:atemp>
          </ns3:TrackPointExtension>
        </extensions>
      </trkpt>
      <trkpt lat="42.56167888641357421875" lon="20.0933448784053325653076171875">
        <ele>2063.60009765625</ele>
        <time>2026-06-19T12:26:41.000Z</time>
        <extensions>
          <ns3:TrackPointExtension>
            <ns3:atemp>18.0</ns3:atemp>
          </ns3:TrackPointExtension>
        </extensions>
      </trkpt>
      <trkpt lat="42.561701349914073944091796875" lon="20.093291066586971282958984375">
        <ele>2063</ele>
        <time>2026-06-19T12:26:42.000Z</time>
        <extensions>
          <ns3:TrackPointExtension>
            <ns3:atemp>18.0</ns3:atemp>
          </ns3:TrackPointExtension>
        </extensions>
      </trkpt>
      <trkpt lat="42.56173227913677692413330078125" lon="20.09323683567345142364501953125">
        <ele>2062.800048828125</ele>
        <time>2026-06-19T12:26:43.000Z</time>
        <extensions>
          <ns3:TrackPointExtension>
            <ns3:atemp>18.0</ns3:atemp>
          </ns3:TrackPointExtension>
        </extensions>
      </trkpt>
      <trkpt lat="42.56175457499921321868896484375" lon="20.093179754912853240966796875">
        <ele>2062.199951171875</ele>
        <time>2026-06-19T12:26:44.000Z</time>
        <extensions>
          <ns3:TrackPointExtension>
            <ns3:atemp>18.0</ns3:atemp>
          </ns3:TrackPointExtension>
        </extensions>
      </trkpt>
      <trkpt lat="42.56177754141390323638916015625" lon="20.09312418289482593536376953125">
        <ele>2061.60009765625</ele>
        <time>2026-06-19T12:26:45.000Z</time>
        <extensions>
          <ns3:TrackPointExtension>
            <ns3:atemp>18.0</ns3:atemp>
          </ns3:TrackPointExtension>
        </extensions>
      </trkpt>
      <trkpt lat="42.56180034019052982330322265625" lon="20.0930816866457462310791015625">
        <ele>2061.199951171875</ele>
        <time>2026-06-19T12:26:46.000Z</time>
        <extensions>
          <ns3:TrackPointExtension>
            <ns3:atemp>18.0</ns3:atemp>
          </ns3:TrackPointExtension>
        </extensions>
      </trkpt>
      <trkpt lat="42.561828754842281341552734375" lon="20.0930585525929927825927734375">
        <ele>2060.800048828125</ele>
        <time>2026-06-19T12:26:47.000Z</time>
        <extensions>
          <ns3:TrackPointExtension>
            <ns3:atemp>18.0</ns3:atemp>
          </ns3:TrackPointExtension>
        </extensions>
      </trkpt>
      <trkpt lat="42.561863623559474945068359375" lon="20.09304790757596492767333984375">
        <ele>2060.39990234375</ele>
        <time>2026-06-19T12:26:48.000Z</time>
        <extensions>
          <ns3:TrackPointExtension>
            <ns3:atemp>18.0</ns3:atemp>
          </ns3:TrackPointExtension>
        </extensions>
      </trkpt>
      <trkpt lat="42.56189555861055850982666015625" lon="20.0930256955325603485107421875">
        <ele>2059.800048828125</ele>
        <time>2026-06-19T12:26:49.000Z</time>
        <extensions>
          <ns3:TrackPointExtension>
            <ns3:atemp>18.0</ns3:atemp>
          </ns3:TrackPointExtension>
        </extensions>
      </trkpt>
      <trkpt lat="42.56192254833877086639404296875" lon="20.09300264529883861541748046875">
        <ele>2059.60009765625</ele>
        <time>2026-06-19T12:26:50.000Z</time>
        <extensions>
          <ns3:TrackPointExtension>
            <ns3:atemp>18.0</ns3:atemp>
          </ns3:TrackPointExtension>
        </extensions>
      </trkpt>
      <trkpt lat="42.561948783695697784423828125" lon="20.09296928532421588897705078125">
        <ele>2059.199951171875</ele>
        <time>2026-06-19T12:26:51.000Z</time>
        <extensions>
          <ns3:TrackPointExtension>
            <ns3:atemp>18.0</ns3:atemp>
          </ns3:TrackPointExtension>
        </extensions>
      </trkpt>
      <trkpt lat="42.56196596659719944000244140625" lon="20.092936344444751739501953125">
        <ele>2059</ele>
        <time>2026-06-19T12:26:52.000Z</time>
        <extensions>
          <ns3:TrackPointExtension>
            <ns3:atemp>18.0</ns3:atemp>
          </ns3:TrackPointExtension>
        </extensions>
      </trkpt>
      <trkpt lat="42.5619861669838428497314453125" lon="20.0929147191345691680908203125">
        <ele>2058.800048828125</ele>
        <time>2026-06-19T12:26:53.000Z</time>
        <extensions>
          <ns3:TrackPointExtension>
            <ns3:atemp>18.0</ns3:atemp>
          </ns3:TrackPointExtension>
        </extensions>
      </trkpt>
      <trkpt lat="42.5620086304843425750732421875" lon="20.0928935967385768890380859375">
        <ele>2058.800048828125</ele>
        <time>2026-06-19T12:26:54.000Z</time>
        <extensions>
          <ns3:TrackPointExtension>
            <ns3:atemp>18.0</ns3:atemp>
          </ns3:TrackPointExtension>
        </extensions>
      </trkpt>
      <trkpt lat="42.5620351172983646392822265625" lon="20.0928738154470920562744140625">
        <ele>2058.60009765625</ele>
        <time>2026-06-19T12:26:55.000Z</time>
        <extensions>
          <ns3:TrackPointExtension>
            <ns3:atemp>18.0</ns3:atemp>
          </ns3:TrackPointExtension>
        </extensions>
      </trkpt>
      <trkpt lat="42.5620652921497821807861328125" lon="20.0928671099245548248291015625">
        <ele>2058.39990234375</ele>
        <time>2026-06-19T12:26:56.000Z</time>
        <extensions>
          <ns3:TrackPointExtension>
            <ns3:atemp>18.0</ns3:atemp>
          </ns3:TrackPointExtension>
        </extensions>
      </trkpt>
      <trkpt lat="42.56209605373442173004150390625" lon="20.0928654335439205169677734375">
        <ele>2058</ele>
        <time>2026-06-19T12:26:57.000Z</time>
        <extensions>
          <ns3:TrackPointExtension>
            <ns3:atemp>18.0</ns3:atemp>
          </ns3:TrackPointExtension>
        </extensions>
      </trkpt>
      <trkpt lat="42.5621306709945201873779296875" lon="20.09286233223974704742431640625">
        <ele>2057.60009765625</ele>
        <time>2026-06-19T12:26:58.000Z</time>
        <extensions>
          <ns3:TrackPointExtension>
            <ns3:atemp>18.0</ns3:atemp>
          </ns3:TrackPointExtension>
        </extensions>
      </trkpt>
      <trkpt lat="42.56215858273208141326904296875" lon="20.0928634218871593475341796875">
        <ele>2057.199951171875</ele>
        <time>2026-06-19T12:26:59.000Z</time>
        <extensions>
          <ns3:TrackPointExtension>
            <ns3:atemp>18.0</ns3:atemp>
          </ns3:TrackPointExtension>
        </extensions>
      </trkpt>
      <trkpt lat="42.56218624301254749298095703125" lon="20.09286669082939624786376953125">
        <ele>2056.800048828125</ele>
        <time>2026-06-19T12:27:00.000Z</time>
        <extensions>
          <ns3:TrackPointExtension>
            <ns3:atemp>18.0</ns3:atemp>
          </ns3:TrackPointExtension>
        </extensions>
      </trkpt>
      <trkpt lat="42.56221172399818897247314453125" lon="20.09286199696362018585205078125">
        <ele>2056.60009765625</ele>
        <time>2026-06-19T12:27:01.000Z</time>
        <extensions>
          <ns3:TrackPointExtension>
            <ns3:atemp>18.0</ns3:atemp>
          </ns3:TrackPointExtension>
        </extensions>
      </trkpt>
      <trkpt lat="42.562243156135082244873046875" lon="20.0928654335439205169677734375">
        <ele>2056.199951171875</ele>
        <time>2026-06-19T12:27:02.000Z</time>
        <extensions>
          <ns3:TrackPointExtension>
            <ns3:atemp>18.0</ns3:atemp>
          </ns3:TrackPointExtension>
        </extensions>
      </trkpt>
      <trkpt lat="42.56227157078683376312255859375" lon="20.0928718037903308868408203125">
        <ele>2055.800048828125</ele>
        <time>2026-06-19T12:27:03.000Z</time>
        <extensions>
          <ns3:TrackPointExtension>
            <ns3:atemp>18.0</ns3:atemp>
          </ns3:TrackPointExtension>
        </extensions>
      </trkpt>
      <trkpt lat="42.56229110062122344970703125" lon="20.09287205524742603302001953125">
        <ele>2055.39990234375</ele>
        <time>2026-06-19T12:27:04.000Z</time>
        <extensions>
          <ns3:TrackPointExtension>
            <ns3:atemp>18.0</ns3:atemp>
          </ns3:TrackPointExtension>
        </extensions>
      </trkpt>
      <trkpt lat="42.5623113848268985748291015625" lon="20.092869959771633148193359375">
        <ele>2055</ele>
        <time>2026-06-19T12:27:05.000Z</time>
        <extensions>
          <ns3:TrackPointExtension>
            <ns3:atemp>18.0</ns3:atemp>
          </ns3:TrackPointExtension>
        </extensions>
      </trkpt>
      <trkpt lat="42.5623264722526073455810546875" lon="20.09286752901971340179443359375">
        <ele>2054.60009765625</ele>
        <time>2026-06-19T12:27:06.000Z</time>
        <extensions>
          <ns3:TrackPointExtension>
            <ns3:atemp>18.0</ns3:atemp>
          </ns3:TrackPointExtension>
        </extensions>
      </trkpt>
      <trkpt lat="42.56233267486095428466796875" lon="20.0928662717342376708984375">
        <ele>2054.199951171875</ele>
        <time>2026-06-19T12:27:07.000Z</time>
        <extensions>
          <ns3:TrackPointExtension>
            <ns3:atemp>18.0</ns3:atemp>
          </ns3:TrackPointExtension>
        </extensions>
      </trkpt>
      <trkpt lat="42.5623298250138759613037109375" lon="20.09287725202739238739013671875">
        <ele>2054</ele>
        <time>2026-06-19T12:27:08.000Z</time>
        <extensions>
          <ns3:TrackPointExtension>
            <ns3:atemp>18.0</ns3:atemp>
          </ns3:TrackPointExtension>
        </extensions>
      </trkpt>
      <trkpt lat="42.5623293220996856689453125" lon="20.0928758271038532257080078125">
        <ele>2053.60009765625</ele>
        <time>2026-06-19T12:27:09.000Z</time>
        <extensions>
          <ns3:TrackPointExtension>
            <ns3:atemp>18.0</ns3:atemp>
          </ns3:TrackPointExtension>
        </extensions>
      </trkpt>
      <trkpt lat="42.56232940591871738433837890625" lon="20.0928758271038532257080078125">
        <ele>2053.60009765625</ele>
        <time>2026-06-19T12:27:10.000Z</time>
        <extensions>
          <ns3:TrackPointExtension>
            <ns3:atemp>18.0</ns3:atemp>
          </ns3:TrackPointExtension>
        </extensions>
      </trkpt>
      <trkpt lat="42.56232940591871738433837890625" lon="20.0928758271038532257080078125">
        <ele>2053.39990234375</ele>
        <time>2026-06-19T12:27:11.000Z</time>
        <extensions>
          <ns3:TrackPointExtension>
            <ns3:atemp>18.0</ns3:atemp>
          </ns3:TrackPointExtension>
        </extensions>
      </trkpt>
      <trkpt lat="42.56232957355678081512451171875" lon="20.09287574328482151031494140625">
        <ele>2053.199951171875</ele>
        <time>2026-06-19T12:27:12.000Z</time>
        <extensions>
          <ns3:TrackPointExtension>
            <ns3:atemp>18.0</ns3:atemp>
          </ns3:TrackPointExtension>
        </extensions>
      </trkpt>
      <trkpt lat="42.56232940591871738433837890625" lon="20.0928758271038532257080078125">
        <ele>2053.199951171875</ele>
        <time>2026-06-19T12:27:13.000Z</time>
        <extensions>
          <ns3:TrackPointExtension>
            <ns3:atemp>18.0</ns3:atemp>
          </ns3:TrackPointExtension>
        </extensions>
      </trkpt>
      <trkpt lat="42.56232940591871738433837890625" lon="20.0928758271038532257080078125">
        <ele>2053.199951171875</ele>
        <time>2026-06-19T12:27:14.000Z</time>
        <extensions>
          <ns3:TrackPointExtension>
            <ns3:atemp>18.0</ns3:atemp>
          </ns3:TrackPointExtension>
        </extensions>
      </trkpt>
      <trkpt lat="42.56232940591871738433837890625" lon="20.0928758271038532257080078125">
        <ele>2053.199951171875</ele>
        <time>2026-06-19T12:27:15.000Z</time>
        <extensions>
          <ns3:TrackPointExtension>
            <ns3:atemp>18.0</ns3:atemp>
          </ns3:TrackPointExtension>
        </extensions>
      </trkpt>
      <trkpt lat="42.56232940591871738433837890625" lon="20.0928758271038532257080078125">
        <ele>2053</ele>
        <time>2026-06-19T12:27:16.000Z</time>
        <extensions>
          <ns3:TrackPointExtension>
            <ns3:atemp>18.0</ns3:atemp>
          </ns3:TrackPointExtension>
        </extensions>
      </trkpt>
      <trkpt lat="42.56232940591871738433837890625" lon="20.0928758271038532257080078125">
        <ele>2053</ele>
        <time>2026-06-19T12:27:17.000Z</time>
        <extensions>
          <ns3:TrackPointExtension>
            <ns3:atemp>18.0</ns3:atemp>
          </ns3:TrackPointExtension>
        </extensions>
      </trkpt>
      <trkpt lat="42.56232940591871738433837890625" lon="20.0928758271038532257080078125">
        <ele>2052.800048828125</ele>
        <time>2026-06-19T12:27:18.000Z</time>
        <extensions>
          <ns3:TrackPointExtension>
            <ns3:atemp>18.0</ns3:atemp>
          </ns3:TrackPointExtension>
        </extensions>
      </trkpt>
      <trkpt lat="42.56232940591871738433837890625" lon="20.0928758271038532257080078125">
        <ele>2052.60009765625</ele>
        <time>2026-06-19T12:27:19.000Z</time>
        <extensions>
          <ns3:TrackPointExtension>
            <ns3:atemp>18.0</ns3:atemp>
          </ns3:TrackPointExtension>
        </extensions>
      </trkpt>
      <trkpt lat="42.56232940591871738433837890625" lon="20.0928758271038532257080078125">
        <ele>2052.60009765625</ele>
        <time>2026-06-19T12:27:20.000Z</time>
        <extensions>
          <ns3:TrackPointExtension>
            <ns3:atemp>18.0</ns3:atemp>
          </ns3:TrackPointExtension>
        </extensions>
      </trkpt>
      <trkpt lat="42.56232940591871738433837890625" lon="20.0928758271038532257080078125">
        <ele>2052.39990234375</ele>
        <time>2026-06-19T12:27:21.000Z</time>
        <extensions>
          <ns3:TrackPointExtension>
            <ns3:atemp>18.0</ns3:atemp>
          </ns3:TrackPointExtension>
        </extensions>
      </trkpt>
      <trkpt lat="42.56232940591871738433837890625" lon="20.0928758271038532257080078125">
        <ele>2052.39990234375</ele>
        <time>2026-06-19T12:27:22.000Z</time>
        <extensions>
          <ns3:TrackPointExtension>
            <ns3:atemp>18.0</ns3:atemp>
          </ns3:TrackPointExtension>
        </extensions>
      </trkpt>
      <trkpt lat="42.56232940591871738433837890625" lon="20.0928758271038532257080078125">
        <ele>2052.39990234375</ele>
        <time>2026-06-19T12:27:23.000Z</time>
        <extensions>
          <ns3:TrackPointExtension>
            <ns3:atemp>18.0</ns3:atemp>
          </ns3:TrackPointExtension>
        </extensions>
      </trkpt>
      <trkpt lat="42.56232940591871738433837890625" lon="20.0928758271038532257080078125">
        <ele>2052.39990234375</ele>
        <time>2026-06-19T12:27:24.000Z</time>
        <extensions>
          <ns3:TrackPointExtension>
            <ns3:atemp>18.0</ns3:atemp>
          </ns3:TrackPointExtension>
        </extensions>
      </trkpt>
      <trkpt lat="42.56232940591871738433837890625" lon="20.0928758271038532257080078125">
        <ele>2052.199951171875</ele>
        <time>2026-06-19T12:27:25.000Z</time>
        <extensions>
          <ns3:TrackPointExtension>
            <ns3:atemp>18.0</ns3:atemp>
          </ns3:TrackPointExtension>
        </extensions>
      </trkpt>
      <trkpt lat="42.56232940591871738433837890625" lon="20.0928758271038532257080078125">
        <ele>2052.199951171875</ele>
        <time>2026-06-19T12:27:26.000Z</time>
        <extensions>
          <ns3:TrackPointExtension>
            <ns3:atemp>18.0</ns3:atemp>
          </ns3:TrackPointExtension>
        </extensions>
      </trkpt>
      <trkpt lat="42.56232940591871738433837890625" lon="20.0928758271038532257080078125">
        <ele>2052.199951171875</ele>
        <time>2026-06-19T12:27:27.000Z</time>
        <extensions>
          <ns3:TrackPointExtension>
            <ns3:atemp>18.0</ns3:atemp>
          </ns3:TrackPointExtension>
        </extensions>
      </trkpt>
      <trkpt lat="42.56232940591871738433837890625" lon="20.0928758271038532257080078125">
        <ele>2052.199951171875</ele>
        <time>2026-06-19T12:27:28.000Z</time>
        <extensions>
          <ns3:TrackPointExtension>
            <ns3:atemp>18.0</ns3:atemp>
          </ns3:TrackPointExtension>
        </extensions>
      </trkpt>
      <trkpt lat="42.56232940591871738433837890625" lon="20.0928758271038532257080078125">
        <ele>2052.199951171875</ele>
        <time>2026-06-19T12:27:29.000Z</time>
        <extensions>
          <ns3:TrackPointExtension>
            <ns3:atemp>18.0</ns3:atemp>
          </ns3:TrackPointExtension>
        </extensions>
      </trkpt>
      <trkpt lat="42.56232940591871738433837890625" lon="20.0928758271038532257080078125">
        <ele>2052.199951171875</ele>
        <time>2026-06-19T12:27:30.000Z</time>
        <extensions>
          <ns3:TrackPointExtension>
            <ns3:atemp>18.0</ns3:atemp>
          </ns3:TrackPointExtension>
        </extensions>
      </trkpt>
      <trkpt lat="42.56232940591871738433837890625" lon="20.0928758271038532257080078125">
        <ele>2052.199951171875</ele>
        <time>2026-06-19T12:27:31.000Z</time>
        <extensions>
          <ns3:TrackPointExtension>
            <ns3:atemp>18.0</ns3:atemp>
          </ns3:TrackPointExtension>
        </extensions>
      </trkpt>
      <trkpt lat="42.56232940591871738433837890625" lon="20.0928758271038532257080078125">
        <ele>2052.199951171875</ele>
        <time>2026-06-19T12:27:32.000Z</time>
        <extensions>
          <ns3:TrackPointExtension>
            <ns3:atemp>18.0</ns3:atemp>
          </ns3:TrackPointExtension>
        </extensions>
      </trkpt>
      <trkpt lat="42.56232940591871738433837890625" lon="20.0928758271038532257080078125">
        <ele>2052.199951171875</ele>
        <time>2026-06-19T12:27:33.000Z</time>
        <extensions>
          <ns3:TrackPointExtension>
            <ns3:atemp>18.0</ns3:atemp>
          </ns3:TrackPointExtension>
        </extensions>
      </trkpt>
      <trkpt lat="42.56232940591871738433837890625" lon="20.0928758271038532257080078125">
        <ele>2052.199951171875</ele>
        <time>2026-06-19T12:27:34.000Z</time>
        <extensions>
          <ns3:TrackPointExtension>
            <ns3:atemp>18.0</ns3:atemp>
          </ns3:TrackPointExtension>
        </extensions>
      </trkpt>
      <trkpt lat="42.56232940591871738433837890625" lon="20.0928758271038532257080078125">
        <ele>2052.199951171875</ele>
        <time>2026-06-19T12:27:35.000Z</time>
        <extensions>
          <ns3:TrackPointExtension>
            <ns3:atemp>18.0</ns3:atemp>
          </ns3:TrackPointExtension>
        </extensions>
      </trkpt>
      <trkpt lat="42.56232940591871738433837890625" lon="20.0928758271038532257080078125">
        <ele>2052</ele>
        <time>2026-06-19T12:27:36.000Z</time>
        <extensions>
          <ns3:TrackPointExtension>
            <ns3:atemp>18.0</ns3:atemp>
          </ns3:TrackPointExtension>
        </extensions>
      </trkpt>
      <trkpt lat="42.56232940591871738433837890625" lon="20.0928758271038532257080078125">
        <ele>2052</ele>
        <time>2026-06-19T12:27:37.000Z</time>
        <extensions>
          <ns3:TrackPointExtension>
            <ns3:atemp>18.0</ns3:atemp>
          </ns3:TrackPointExtension>
        </extensions>
      </trkpt>
      <trkpt lat="42.56232940591871738433837890625" lon="20.0928758271038532257080078125">
        <ele>2052</ele>
        <time>2026-06-19T12:27:38.000Z</time>
        <extensions>
          <ns3:TrackPointExtension>
            <ns3:atemp>18.0</ns3:atemp>
          </ns3:TrackPointExtension>
        </extensions>
      </trkpt>
      <trkpt lat="42.56232940591871738433837890625" lon="20.0928758271038532257080078125">
        <ele>2052</ele>
        <time>2026-06-19T12:27:39.000Z</time>
        <extensions>
          <ns3:TrackPointExtension>
            <ns3:atemp>18.0</ns3:atemp>
          </ns3:TrackPointExtension>
        </extensions>
      </trkpt>
      <trkpt lat="42.56232940591871738433837890625" lon="20.0928758271038532257080078125">
        <ele>2052</ele>
        <time>2026-06-19T12:27:40.000Z</time>
        <extensions>
          <ns3:TrackPointExtension>
            <ns3:atemp>18.0</ns3:atemp>
          </ns3:TrackPointExtension>
        </extensions>
      </trkpt>
      <trkpt lat="42.56232940591871738433837890625" lon="20.0928758271038532257080078125">
        <ele>2051.800048828125</ele>
        <time>2026-06-19T12:27:41.000Z</time>
        <extensions>
          <ns3:TrackPointExtension>
            <ns3:atemp>18.0</ns3:atemp>
          </ns3:TrackPointExtension>
        </extensions>
      </trkpt>
      <trkpt lat="42.56232940591871738433837890625" lon="20.0928758271038532257080078125">
        <ele>2051.800048828125</ele>
        <time>2026-06-19T12:27:42.000Z</time>
        <extensions>
          <ns3:TrackPointExtension>
            <ns3:atemp>18.0</ns3:atemp>
          </ns3:TrackPointExtension>
        </extensions>
      </trkpt>
      <trkpt lat="42.56232940591871738433837890625" lon="20.0928758271038532257080078125">
        <ele>2051.800048828125</ele>
        <time>2026-06-19T12:27:43.000Z</time>
        <extensions>
          <ns3:TrackPointExtension>
            <ns3:atemp>18.0</ns3:atemp>
          </ns3:TrackPointExtension>
        </extensions>
      </trkpt>
      <trkpt lat="42.56232940591871738433837890625" lon="20.0928758271038532257080078125">
        <ele>2051.800048828125</ele>
        <time>2026-06-19T12:27:44.000Z</time>
        <extensions>
          <ns3:TrackPointExtension>
            <ns3:atemp>18.0</ns3:atemp>
          </ns3:TrackPointExtension>
        </extensions>
      </trkpt>
      <trkpt lat="42.56232940591871738433837890625" lon="20.0928758271038532257080078125">
        <ele>2051.800048828125</ele>
        <time>2026-06-19T12:27:45.000Z</time>
        <extensions>
          <ns3:TrackPointExtension>
            <ns3:atemp>18.0</ns3:atemp>
          </ns3:TrackPointExtension>
        </extensions>
      </trkpt>
      <trkpt lat="42.56232940591871738433837890625" lon="20.0928758271038532257080078125">
        <ele>2051.60009765625</ele>
        <time>2026-06-19T12:27:46.000Z</time>
        <extensions>
          <ns3:TrackPointExtension>
            <ns3:atemp>18.0</ns3:atemp>
          </ns3:TrackPointExtension>
        </extensions>
      </trkpt>
      <trkpt lat="42.56232940591871738433837890625" lon="20.0928758271038532257080078125">
        <ele>2051.60009765625</ele>
        <time>2026-06-19T12:27:47.000Z</time>
        <extensions>
          <ns3:TrackPointExtension>
            <ns3:atemp>18.0</ns3:atemp>
          </ns3:TrackPointExtension>
        </extensions>
      </trkpt>
      <trkpt lat="42.56232940591871738433837890625" lon="20.0928758271038532257080078125">
        <ele>2051.60009765625</ele>
        <time>2026-06-19T12:27:48.000Z</time>
        <extensions>
          <ns3:TrackPointExtension>
            <ns3:atemp>18.0</ns3:atemp>
          </ns3:TrackPointExtension>
        </extensions>
      </trkpt>
      <trkpt lat="42.56232940591871738433837890625" lon="20.0928758271038532257080078125">
        <ele>2051.60009765625</ele>
        <time>2026-06-19T12:27:49.000Z</time>
        <extensions>
          <ns3:TrackPointExtension>
            <ns3:atemp>18.0</ns3:atemp>
          </ns3:TrackPointExtension>
        </extensions>
      </trkpt>
      <trkpt lat="42.56232940591871738433837890625" lon="20.0928758271038532257080078125">
        <ele>2051.60009765625</ele>
        <time>2026-06-19T12:27:50.000Z</time>
        <extensions>
          <ns3:TrackPointExtension>
            <ns3:atemp>18.0</ns3:atemp>
          </ns3:TrackPointExtension>
        </extensions>
      </trkpt>
      <trkpt lat="42.56232940591871738433837890625" lon="20.0928758271038532257080078125">
        <ele>2051.60009765625</ele>
        <time>2026-06-19T12:27:51.000Z</time>
        <extensions>
          <ns3:TrackPointExtension>
            <ns3:atemp>18.0</ns3:atemp>
          </ns3:TrackPointExtension>
        </extensions>
      </trkpt>
      <trkpt lat="42.56232940591871738433837890625" lon="20.0928758271038532257080078125">
        <ele>2051.60009765625</ele>
        <time>2026-06-19T12:27:52.000Z</time>
        <extensions>
          <ns3:TrackPointExtension>
            <ns3:atemp>18.0</ns3:atemp>
          </ns3:TrackPointExtension>
        </extensions>
      </trkpt>
      <trkpt lat="42.56232940591871738433837890625" lon="20.0928758271038532257080078125">
        <ele>2051.60009765625</ele>
        <time>2026-06-19T12:27:53.000Z</time>
        <extensions>
          <ns3:TrackPointExtension>
            <ns3:atemp>18.0</ns3:atemp>
          </ns3:TrackPointExtension>
        </extensions>
      </trkpt>
      <trkpt lat="42.56232940591871738433837890625" lon="20.0928758271038532257080078125">
        <ele>2051.39990234375</ele>
        <time>2026-06-19T12:27:54.000Z</time>
        <extensions>
          <ns3:TrackPointExtension>
            <ns3:atemp>18.0</ns3:atemp>
          </ns3:TrackPointExtension>
        </extensions>
      </trkpt>
      <trkpt lat="42.56232940591871738433837890625" lon="20.0928758271038532257080078125">
        <ele>2051.39990234375</ele>
        <time>2026-06-19T12:27:55.000Z</time>
        <extensions>
          <ns3:TrackPointExtension>
            <ns3:atemp>18.0</ns3:atemp>
          </ns3:TrackPointExtension>
        </extensions>
      </trkpt>
      <trkpt lat="42.56232940591871738433837890625" lon="20.0928758271038532257080078125">
        <ele>2051.39990234375</ele>
        <time>2026-06-19T12:27:56.000Z</time>
        <extensions>
          <ns3:TrackPointExtension>
            <ns3:atemp>18.0</ns3:atemp>
          </ns3:TrackPointExtension>
        </extensions>
      </trkpt>
      <trkpt lat="42.56232940591871738433837890625" lon="20.0928758271038532257080078125">
        <ele>2051.39990234375</ele>
        <time>2026-06-19T12:27:57.000Z</time>
        <extensions>
          <ns3:TrackPointExtension>
            <ns3:atemp>18.0</ns3:atemp>
          </ns3:TrackPointExtension>
        </extensions>
      </trkpt>
      <trkpt lat="42.56232940591871738433837890625" lon="20.0928758271038532257080078125">
        <ele>2051.39990234375</ele>
        <time>2026-06-19T12:27:58.000Z</time>
        <extensions>
          <ns3:TrackPointExtension>
            <ns3:atemp>18.0</ns3:atemp>
          </ns3:TrackPointExtension>
        </extensions>
      </trkpt>
      <trkpt lat="42.56232940591871738433837890625" lon="20.0928758271038532257080078125">
        <ele>2051.39990234375</ele>
        <time>2026-06-19T12:27:59.000Z</time>
        <extensions>
          <ns3:TrackPointExtension>
            <ns3:atemp>18.0</ns3:atemp>
          </ns3:TrackPointExtension>
        </extensions>
      </trkpt>
      <trkpt lat="42.56232940591871738433837890625" lon="20.0928758271038532257080078125">
        <ele>2051.39990234375</ele>
        <time>2026-06-19T12:28:00.000Z</time>
        <extensions>
          <ns3:TrackPointExtension>
            <ns3:atemp>18.0</ns3:atemp>
          </ns3:TrackPointExtension>
        </extensions>
      </trkpt>
      <trkpt lat="42.56232940591871738433837890625" lon="20.0928758271038532257080078125">
        <ele>2051.199951171875</ele>
        <time>2026-06-19T12:28:01.000Z</time>
        <extensions>
          <ns3:TrackPointExtension>
            <ns3:atemp>18.0</ns3:atemp>
          </ns3:TrackPointExtension>
        </extensions>
      </trkpt>
      <trkpt lat="42.56232940591871738433837890625" lon="20.0928758271038532257080078125">
        <ele>2051.199951171875</ele>
        <time>2026-06-19T12:28:02.000Z</time>
        <extensions>
          <ns3:TrackPointExtension>
            <ns3:atemp>18.0</ns3:atemp>
          </ns3:TrackPointExtension>
        </extensions>
      </trkpt>
      <trkpt lat="42.56232940591871738433837890625" lon="20.0928758271038532257080078125">
        <ele>2051.199951171875</ele>
        <time>2026-06-19T12:28:03.000Z</time>
        <extensions>
          <ns3:TrackPointExtension>
            <ns3:atemp>18.0</ns3:atemp>
          </ns3:TrackPointExtension>
        </extensions>
      </trkpt>
      <trkpt lat="42.56232940591871738433837890625" lon="20.0928758271038532257080078125">
        <ele>2051.199951171875</ele>
        <time>2026-06-19T12:28:04.000Z</time>
        <extensions>
          <ns3:TrackPointExtension>
            <ns3:atemp>18.0</ns3:atemp>
          </ns3:TrackPointExtension>
        </extensions>
      </trkpt>
      <trkpt lat="42.56232940591871738433837890625" lon="20.0928758271038532257080078125">
        <ele>2051.199951171875</ele>
        <time>2026-06-19T12:28:05.000Z</time>
        <extensions>
          <ns3:TrackPointExtension>
            <ns3:atemp>18.0</ns3:atemp>
          </ns3:TrackPointExtension>
        </extensions>
      </trkpt>
      <trkpt lat="42.56232940591871738433837890625" lon="20.0928758271038532257080078125">
        <ele>2051.199951171875</ele>
        <time>2026-06-19T12:28:06.000Z</time>
        <extensions>
          <ns3:TrackPointExtension>
            <ns3:atemp>18.0</ns3:atemp>
          </ns3:TrackPointExtension>
        </extensions>
      </trkpt>
      <trkpt lat="42.56232940591871738433837890625" lon="20.0928758271038532257080078125">
        <ele>2051.199951171875</ele>
        <time>2026-06-19T12:28:07.000Z</time>
        <extensions>
          <ns3:TrackPointExtension>
            <ns3:atemp>18.0</ns3:atemp>
          </ns3:TrackPointExtension>
        </extensions>
      </trkpt>
      <trkpt lat="42.56232940591871738433837890625" lon="20.0928758271038532257080078125">
        <ele>2051.199951171875</ele>
        <time>2026-06-19T12:28:08.000Z</time>
        <extensions>
          <ns3:TrackPointExtension>
            <ns3:atemp>18.0</ns3:atemp>
          </ns3:TrackPointExtension>
        </extensions>
      </trkpt>
      <trkpt lat="42.56232940591871738433837890625" lon="20.0928758271038532257080078125">
        <ele>2051.199951171875</ele>
        <time>2026-06-19T12:28:09.000Z</time>
        <extensions>
          <ns3:TrackPointExtension>
            <ns3:atemp>18.0</ns3:atemp>
          </ns3:TrackPointExtension>
        </extensions>
      </trkpt>
      <trkpt lat="42.56232940591871738433837890625" lon="20.0928758271038532257080078125">
        <ele>2051</ele>
        <time>2026-06-19T12:28:10.000Z</time>
        <extensions>
          <ns3:TrackPointExtension>
            <ns3:atemp>18.0</ns3:atemp>
          </ns3:TrackPointExtension>
        </extensions>
      </trkpt>
      <trkpt lat="42.56232940591871738433837890625" lon="20.0928758271038532257080078125">
        <ele>2051</ele>
        <time>2026-06-19T12:28:11.000Z</time>
        <extensions>
          <ns3:TrackPointExtension>
            <ns3:atemp>18.0</ns3:atemp>
          </ns3:TrackPointExtension>
        </extensions>
      </trkpt>
      <trkpt lat="42.56232940591871738433837890625" lon="20.0928758271038532257080078125">
        <ele>2051</ele>
        <time>2026-06-19T12:28:12.000Z</time>
        <extensions>
          <ns3:TrackPointExtension>
            <ns3:atemp>18.0</ns3:atemp>
          </ns3:TrackPointExtension>
        </extensions>
      </trkpt>
      <trkpt lat="42.56232940591871738433837890625" lon="20.0928758271038532257080078125">
        <ele>2051</ele>
        <time>2026-06-19T12:28:13.000Z</time>
        <extensions>
          <ns3:TrackPointExtension>
            <ns3:atemp>18.0</ns3:atemp>
          </ns3:TrackPointExtension>
        </extensions>
      </trkpt>
      <trkpt lat="42.56232940591871738433837890625" lon="20.0928758271038532257080078125">
        <ele>2051</ele>
        <time>2026-06-19T12:28:14.000Z</time>
        <extensions>
          <ns3:TrackPointExtension>
            <ns3:atemp>18.0</ns3:atemp>
          </ns3:TrackPointExtension>
        </extensions>
      </trkpt>
      <trkpt lat="42.56232940591871738433837890625" lon="20.0928758271038532257080078125">
        <ele>2051</ele>
        <time>2026-06-19T12:28:15.000Z</time>
        <extensions>
          <ns3:TrackPointExtension>
            <ns3:atemp>18.0</ns3:atemp>
          </ns3:TrackPointExtension>
        </extensions>
      </trkpt>
      <trkpt lat="42.56232940591871738433837890625" lon="20.0928758271038532257080078125">
        <ele>2051</ele>
        <time>2026-06-19T12:28:16.000Z</time>
        <extensions>
          <ns3:TrackPointExtension>
            <ns3:atemp>18.0</ns3:atemp>
          </ns3:TrackPointExtension>
        </extensions>
      </trkpt>
      <trkpt lat="42.56232940591871738433837890625" lon="20.0928758271038532257080078125">
        <ele>2051</ele>
        <time>2026-06-19T12:28:17.000Z</time>
        <extensions>
          <ns3:TrackPointExtension>
            <ns3:atemp>18.0</ns3:atemp>
          </ns3:TrackPointExtension>
        </extensions>
      </trkpt>
      <trkpt lat="42.5623325072228908538818359375" lon="20.092867277562618255615234375">
        <ele>2051</ele>
        <time>2026-06-19T12:28:18.000Z</time>
        <extensions>
          <ns3:TrackPointExtension>
            <ns3:atemp>18.0</ns3:atemp>
          </ns3:TrackPointExtension>
        </extensions>
      </trkpt>
      <trkpt lat="42.56233711726963520050048828125" lon="20.0928600691258907318115234375">
        <ele>2050.800048828125</ele>
        <time>2026-06-19T12:28:19.000Z</time>
        <extensions>
          <ns3:TrackPointExtension>
            <ns3:atemp>18.0</ns3:atemp>
          </ns3:TrackPointExtension>
        </extensions>
      </trkpt>
      <trkpt lat="42.56232940591871738433837890625" lon="20.0928758271038532257080078125">
        <ele>2050.60009765625</ele>
        <time>2026-06-19T12:28:20.000Z</time>
        <extensions>
          <ns3:TrackPointExtension>
            <ns3:atemp>18.0</ns3:atemp>
          </ns3:TrackPointExtension>
        </extensions>
      </trkpt>
      <trkpt lat="42.562337704002857208251953125" lon="20.0928620807826519012451171875">
        <ele>2050.199951171875</ele>
        <time>2026-06-19T12:28:21.000Z</time>
        <extensions>
          <ns3:TrackPointExtension>
            <ns3:atemp>18.0</ns3:atemp>
          </ns3:TrackPointExtension>
        </extensions>
      </trkpt>
      <trkpt lat="42.56234851665794849395751953125" lon="20.09285445325076580047607421875">
        <ele>2050</ele>
        <time>2026-06-19T12:28:22.000Z</time>
        <extensions>
          <ns3:TrackPointExtension>
            <ns3:atemp>18.0</ns3:atemp>
          </ns3:TrackPointExtension>
        </extensions>
      </trkpt>
      <trkpt lat="42.5623566471040248870849609375" lon="20.09285093285143375396728515625">
        <ele>2049.800048828125</ele>
        <time>2026-06-19T12:28:23.000Z</time>
        <extensions>
          <ns3:TrackPointExtension>
            <ns3:atemp>18.0</ns3:atemp>
          </ns3:TrackPointExtension>
        </extensions>
      </trkpt>
      <trkpt lat="42.56236460991203784942626953125" lon="20.0928449817001819610595703125">
        <ele>2049.800048828125</ele>
        <time>2026-06-19T12:28:24.000Z</time>
        <extensions>
          <ns3:TrackPointExtension>
            <ns3:atemp>18.0</ns3:atemp>
          </ns3:TrackPointExtension>
        </extensions>
      </trkpt>
      <trkpt lat="42.5623713992536067962646484375" lon="20.09284389205276966094970703125">
        <ele>2049.800048828125</ele>
        <time>2026-06-19T12:28:25.000Z</time>
        <extensions>
          <ns3:TrackPointExtension>
            <ns3:atemp>18.0</ns3:atemp>
          </ns3:TrackPointExtension>
        </extensions>
      </trkpt>
      <trkpt lat="42.56237416528165340423583984375" lon="20.0928379409015178680419921875">
        <ele>2049.800048828125</ele>
        <time>2026-06-19T12:28:26.000Z</time>
        <extensions>
          <ns3:TrackPointExtension>
            <ns3:atemp>18.0</ns3:atemp>
          </ns3:TrackPointExtension>
        </extensions>
      </trkpt>
      <trkpt lat="42.562381960451602935791015625" lon="20.09283282794058322906494140625">
        <ele>2049.800048828125</ele>
        <time>2026-06-19T12:28:27.000Z</time>
        <extensions>
          <ns3:TrackPointExtension>
            <ns3:atemp>18.0</ns3:atemp>
          </ns3:TrackPointExtension>
        </extensions>
      </trkpt>
      <trkpt lat="42.56238992325961589813232421875" lon="20.09282528422772884368896484375">
        <ele>2049.60009765625</ele>
        <time>2026-06-19T12:28:28.000Z</time>
        <extensions>
          <ns3:TrackPointExtension>
            <ns3:atemp>18.0</ns3:atemp>
          </ns3:TrackPointExtension>
        </extensions>
      </trkpt>
      <trkpt lat="42.562402077019214630126953125" lon="20.0928201712667942047119140625">
        <ele>2049.60009765625</ele>
        <time>2026-06-19T12:28:29.000Z</time>
        <extensions>
          <ns3:TrackPointExtension>
            <ns3:atemp>18.0</ns3:atemp>
          </ns3:TrackPointExtension>
        </extensions>
      </trkpt>
      <trkpt lat="42.56240601651370525360107421875" lon="20.0928138010203838348388671875">
        <ele>2049.39990234375</ele>
        <time>2026-06-19T12:28:30.000Z</time>
        <extensions>
          <ns3:TrackPointExtension>
            <ns3:atemp>18.0</ns3:atemp>
          </ns3:TrackPointExtension>
        </extensions>
      </trkpt>
      <trkpt lat="42.56241188384592533111572265625" lon="20.0928104482591152191162109375">
        <ele>2049.39990234375</ele>
        <time>2026-06-19T12:28:31.000Z</time>
        <extensions>
          <ns3:TrackPointExtension>
            <ns3:atemp>18.0</ns3:atemp>
          </ns3:TrackPointExtension>
        </extensions>
      </trkpt>
      <trkpt lat="42.56241473369300365447998046875" lon="20.0928117893636226654052734375">
        <ele>2049.39990234375</ele>
        <time>2026-06-19T12:28:32.000Z</time>
        <extensions>
          <ns3:TrackPointExtension>
            <ns3:atemp>18.0</ns3:atemp>
          </ns3:TrackPointExtension>
        </extensions>
      </trkpt>
      <trkpt lat="42.562414817512035369873046875" lon="20.09281187318265438079833984375">
        <ele>2049.39990234375</ele>
        <time>2026-06-19T12:28:33.000Z</time>
        <extensions>
          <ns3:TrackPointExtension>
            <ns3:atemp>18.0</ns3:atemp>
          </ns3:TrackPointExtension>
        </extensions>
      </trkpt>
      <trkpt lat="42.5624339282512664794921875" lon="20.09281053207814693450927734375">
        <ele>2049.199951171875</ele>
        <time>2026-06-19T12:28:34.000Z</time>
        <extensions>
          <ns3:TrackPointExtension>
            <ns3:atemp>18.0</ns3:atemp>
          </ns3:TrackPointExtension>
        </extensions>
      </trkpt>
      <trkpt lat="42.56244591437280178070068359375" lon="20.09280784986913204193115234375">
        <ele>2049</ele>
        <time>2026-06-19T12:28:35.000Z</time>
        <extensions>
          <ns3:TrackPointExtension>
            <ns3:atemp>18.0</ns3:atemp>
          </ns3:TrackPointExtension>
        </extensions>
      </trkpt>
      <trkpt lat="42.56246368400752544403076171875" lon="20.09280382655560970306396484375">
        <ele>2048.800048828125</ele>
        <time>2026-06-19T12:28:36.000Z</time>
        <extensions>
          <ns3:TrackPointExtension>
            <ns3:atemp>18.0</ns3:atemp>
          </ns3:TrackPointExtension>
        </extensions>
      </trkpt>
      <trkpt lat="42.5624793581664562225341796875" lon="20.0928050838410854339599609375">
        <ele>2048.60009765625</ele>
        <time>2026-06-19T12:28:37.000Z</time>
        <extensions>
          <ns3:TrackPointExtension>
            <ns3:atemp>18.0</ns3:atemp>
          </ns3:TrackPointExtension>
        </extensions>
      </trkpt>
      <trkpt lat="42.562491260468959808349609375" lon="20.09280198253691196441650390625">
        <ele>2048.39990234375</ele>
        <time>2026-06-19T12:28:38.000Z</time>
        <extensions>
          <ns3:TrackPointExtension>
            <ns3:atemp>18.0</ns3:atemp>
          </ns3:TrackPointExtension>
        </extensions>
      </trkpt>
      <trkpt lat="42.56250224076211452484130859375" lon="20.0927997194230556488037109375">
        <ele>2048.199951171875</ele>
        <time>2026-06-19T12:28:39.000Z</time>
        <extensions>
          <ns3:TrackPointExtension>
            <ns3:atemp>18.0</ns3:atemp>
          </ns3:TrackPointExtension>
        </extensions>
      </trkpt>
      <trkpt lat="42.5625117123126983642578125" lon="20.0927977077662944793701171875">
        <ele>2048</ele>
        <time>2026-06-19T12:28:40.000Z</time>
        <extensions>
          <ns3:TrackPointExtension>
            <ns3:atemp>18.0</ns3:atemp>
          </ns3:TrackPointExtension>
        </extensions>
      </trkpt>
      <trkpt lat="42.5625246204435825347900390625" lon="20.09280198253691196441650390625">
        <ele>2047.800048828125</ele>
        <time>2026-06-19T12:28:41.000Z</time>
        <extensions>
          <ns3:TrackPointExtension>
            <ns3:atemp>18.0</ns3:atemp>
          </ns3:TrackPointExtension>
        </extensions>
      </trkpt>
      <trkpt lat="42.56253778003156185150146484375" lon="20.0928037427365779876708984375">
        <ele>2047.5999755859375</ele>
        <time>2026-06-19T12:28:42.000Z</time>
        <extensions>
          <ns3:TrackPointExtension>
            <ns3:atemp>18.0</ns3:atemp>
          </ns3:TrackPointExtension>
        </extensions>
      </trkpt>
      <trkpt lat="42.562549598515033721923828125" lon="20.092796199023723602294921875">
        <ele>2047.199951171875</ele>
        <time>2026-06-19T12:28:43.000Z</time>
        <extensions>
          <ns3:TrackPointExtension>
            <ns3:atemp>18.0</ns3:atemp>
          </ns3:TrackPointExtension>
        </extensions>
      </trkpt>
      <trkpt lat="42.562568373978137969970703125" lon="20.0927849672734737396240234375">
        <ele>2047</ele>
        <time>2026-06-19T12:28:44.000Z</time>
        <extensions>
          <ns3:TrackPointExtension>
            <ns3:atemp>18.0</ns3:atemp>
          </ns3:TrackPointExtension>
        </extensions>
      </trkpt>
      <trkpt lat="42.56258941255509853363037109375" lon="20.092773735523223876953125">
        <ele>2046.5999755859375</ele>
        <time>2026-06-19T12:28:45.000Z</time>
        <extensions>
          <ns3:TrackPointExtension>
            <ns3:atemp>18.0</ns3:atemp>
          </ns3:TrackPointExtension>
        </extensions>
      </trkpt>
      <trkpt lat="42.562605254352092742919921875" lon="20.092768706381320953369140625">
        <ele>2046</ele>
        <time>2026-06-19T12:28:46.000Z</time>
        <extensions>
          <ns3:TrackPointExtension>
            <ns3:atemp>18.0</ns3:atemp>
          </ns3:TrackPointExtension>
        </extensions>
      </trkpt>
      <trkpt lat="42.56262059323489665985107421875" lon="20.092767365276813507080078125">
        <ele>2045.5999755859375</ele>
        <time>2026-06-19T12:28:47.000Z</time>
        <extensions>
          <ns3:TrackPointExtension>
            <ns3:atemp>18.0</ns3:atemp>
          </ns3:TrackPointExtension>
        </extensions>
      </trkpt>
      <trkpt lat="42.5626312382519245147705078125" lon="20.0927712209522724151611328125">
        <ele>2045.199951171875</ele>
        <time>2026-06-19T12:28:48.000Z</time>
        <extensions>
          <ns3:TrackPointExtension>
            <ns3:atemp>18.0</ns3:atemp>
          </ns3:TrackPointExtension>
        </extensions>
      </trkpt>
      <trkpt lat="42.56264238618314266204833984375" lon="20.09277448989450931549072265625">
        <ele>2044.800048828125</ele>
        <time>2026-06-19T12:28:49.000Z</time>
        <extensions>
          <ns3:TrackPointExtension>
            <ns3:atemp>18.0</ns3:atemp>
          </ns3:TrackPointExtension>
        </extensions>
      </trkpt>
      <trkpt lat="42.5626543723046779632568359375" lon="20.09277440607547760009765625">
        <ele>2044.4000244140625</ele>
        <time>2026-06-19T12:28:50.000Z</time>
        <extensions>
          <ns3:TrackPointExtension>
            <ns3:atemp>18.0</ns3:atemp>
          </ns3:TrackPointExtension>
        </extensions>
      </trkpt>
      <trkpt lat="42.56266602315008640289306640625" lon="20.09277063421905040740966796875">
        <ele>2044</ele>
        <time>2026-06-19T12:28:51.000Z</time>
        <extensions>
          <ns3:TrackPointExtension>
            <ns3:atemp>18.0</ns3:atemp>
          </ns3:TrackPointExtension>
        </extensions>
      </trkpt>
      <trkpt lat="42.56267599761486053466796875" lon="20.092771388590335845947265625">
        <ele>2043.5999755859375</ele>
        <time>2026-06-19T12:28:52.000Z</time>
        <extensions>
          <ns3:TrackPointExtension>
            <ns3:atemp>18.0</ns3:atemp>
          </ns3:TrackPointExtension>
        </extensions>
      </trkpt>
      <trkpt lat="42.56268546916544437408447265625" lon="20.0927752442657947540283203125">
        <ele>2043.199951171875</ele>
        <time>2026-06-19T12:28:53.000Z</time>
        <extensions>
          <ns3:TrackPointExtension>
            <ns3:atemp>18.0</ns3:atemp>
          </ns3:TrackPointExtension>
        </extensions>
      </trkpt>
      <trkpt lat="42.562695443630218505859375" lon="20.09278052486479282379150390625">
        <ele>2042.800048828125</ele>
        <time>2026-06-19T12:28:54.000Z</time>
        <extensions>
          <ns3:TrackPointExtension>
            <ns3:atemp>18.0</ns3:atemp>
          </ns3:TrackPointExtension>
        </extensions>
      </trkpt>
      <trkpt lat="42.5627073459327220916748046875" lon="20.09278287179768085479736328125">
        <ele>2042.4000244140625</ele>
        <time>2026-06-19T12:28:55.000Z</time>
        <extensions>
          <ns3:TrackPointExtension>
            <ns3:atemp>18.0</ns3:atemp>
          </ns3:TrackPointExtension>
        </extensions>
      </trkpt>
      <trkpt lat="42.56271530874073505401611328125" lon="20.09278303943574428558349609375">
        <ele>2042</ele>
        <time>2026-06-19T12:28:56.000Z</time>
        <extensions>
          <ns3:TrackPointExtension>
            <ns3:atemp>18.0</ns3:atemp>
          </ns3:TrackPointExtension>
        </extensions>
      </trkpt>
      <trkpt lat="42.5627231039106845855712890625" lon="20.09278354234993457794189453125">
        <ele>2041.5999755859375</ele>
        <time>2026-06-19T12:28:57.000Z</time>
        <extensions>
          <ns3:TrackPointExtension>
            <ns3:atemp>18.0</ns3:atemp>
          </ns3:TrackPointExtension>
        </extensions>
      </trkpt>
      <trkpt lat="42.56272561848163604736328125" lon="20.0927863083779811859130859375">
        <ele>2041.199951171875</ele>
        <time>2026-06-19T12:28:58.000Z</time>
        <extensions>
          <ns3:TrackPointExtension>
            <ns3:atemp>18.0</ns3:atemp>
          </ns3:TrackPointExtension>
        </extensions>
      </trkpt>
      <trkpt lat="42.56272561848163604736328125" lon="20.0927863083779811859130859375">
        <ele>2040.800048828125</ele>
        <time>2026-06-19T12:28:59.000Z</time>
        <extensions>
          <ns3:TrackPointExtension>
            <ns3:atemp>18.0</ns3:atemp>
          </ns3:TrackPointExtension>
        </extensions>
      </trkpt>
      <trkpt lat="42.56272561848163604736328125" lon="20.0927863083779811859130859375">
        <ele>2040.5999755859375</ele>
        <time>2026-06-19T12:29:00.000Z</time>
        <extensions>
          <ns3:TrackPointExtension>
            <ns3:atemp>18.0</ns3:atemp>
          </ns3:TrackPointExtension>
        </extensions>
      </trkpt>
      <trkpt lat="42.56272561848163604736328125" lon="20.0927863083779811859130859375">
        <ele>2040.4000244140625</ele>
        <time>2026-06-19T12:29:01.000Z</time>
        <extensions>
          <ns3:TrackPointExtension>
            <ns3:atemp>18.0</ns3:atemp>
          </ns3:TrackPointExtension>
        </extensions>
      </trkpt>
      <trkpt lat="42.56272561848163604736328125" lon="20.0927863083779811859130859375">
        <ele>2040.199951171875</ele>
        <time>2026-06-19T12:29:02.000Z</time>
        <extensions>
          <ns3:TrackPointExtension>
            <ns3:atemp>18.0</ns3:atemp>
          </ns3:TrackPointExtension>
        </extensions>
      </trkpt>
      <trkpt lat="42.56272561848163604736328125" lon="20.0927863083779811859130859375">
        <ele>2040.199951171875</ele>
        <time>2026-06-19T12:29:03.000Z</time>
        <extensions>
          <ns3:TrackPointExtension>
            <ns3:atemp>18.0</ns3:atemp>
          </ns3:TrackPointExtension>
        </extensions>
      </trkpt>
      <trkpt lat="42.56272561848163604736328125" lon="20.0927863083779811859130859375">
        <ele>2040</ele>
        <time>2026-06-19T12:29:04.000Z</time>
        <extensions>
          <ns3:TrackPointExtension>
            <ns3:atemp>18.0</ns3:atemp>
          </ns3:TrackPointExtension>
        </extensions>
      </trkpt>
      <trkpt lat="42.5627262890338897705078125" lon="20.09278647601604461669921875">
        <ele>2040</ele>
        <time>2026-06-19T12:29:05.000Z</time>
        <extensions>
          <ns3:TrackPointExtension>
            <ns3:atemp>18.0</ns3:atemp>
          </ns3:TrackPointExtension>
        </extensions>
      </trkpt>
      <trkpt lat="42.56273492239415645599365234375" lon="20.09278513491153717041015625">
        <ele>2040</ele>
        <time>2026-06-19T12:29:06.000Z</time>
        <extensions>
          <ns3:TrackPointExtension>
            <ns3:atemp>18.0</ns3:atemp>
          </ns3:TrackPointExtension>
        </extensions>
      </trkpt>
      <trkpt lat="42.562744058668613433837890625" lon="20.092774070799350738525390625">
        <ele>2039.800048828125</ele>
        <time>2026-06-19T12:29:07.000Z</time>
        <extensions>
          <ns3:TrackPointExtension>
            <ns3:atemp>18.0</ns3:atemp>
          </ns3:TrackPointExtension>
        </extensions>
      </trkpt>
      <trkpt lat="42.5627519376575946807861328125" lon="20.0927648507058620452880859375">
        <ele>2039.800048828125</ele>
        <time>2026-06-19T12:29:08.000Z</time>
        <extensions>
          <ns3:TrackPointExtension>
            <ns3:atemp>18.0</ns3:atemp>
          </ns3:TrackPointExtension>
        </extensions>
      </trkpt>
      <trkpt lat="42.5627616606652736663818359375" lon="20.09275588206946849822998046875">
        <ele>2039.5999755859375</ele>
        <time>2026-06-19T12:29:09.000Z</time>
        <extensions>
          <ns3:TrackPointExtension>
            <ns3:atemp>18.0</ns3:atemp>
          </ns3:TrackPointExtension>
        </extensions>
      </trkpt>
      <trkpt lat="42.56277398206293582916259765625" lon="20.09274347685277462005615234375">
        <ele>2039.199951171875</ele>
        <time>2026-06-19T12:29:10.000Z</time>
        <extensions>
          <ns3:TrackPointExtension>
            <ns3:atemp>18.0</ns3:atemp>
          </ns3:TrackPointExtension>
        </extensions>
      </trkpt>
      <trkpt lat="42.56278437562286853790283203125" lon="20.09273140691220760345458984375">
        <ele>2039</ele>
        <time>2026-06-19T12:29:11.000Z</time>
        <extensions>
          <ns3:TrackPointExtension>
            <ns3:atemp>18.0</ns3:atemp>
          </ns3:TrackPointExtension>
        </extensions>
      </trkpt>
      <trkpt lat="42.562794350087642669677734375" lon="20.092730484902858734130859375">
        <ele>2038.800048828125</ele>
        <time>2026-06-19T12:29:12.000Z</time>
        <extensions>
          <ns3:TrackPointExtension>
            <ns3:atemp>18.0</ns3:atemp>
          </ns3:TrackPointExtension>
        </extensions>
      </trkpt>
      <trkpt lat="42.56280130706727504730224609375" lon="20.09273207746446132659912109375">
        <ele>2038.4000244140625</ele>
        <time>2026-06-19T12:29:13.000Z</time>
        <extensions>
          <ns3:TrackPointExtension>
            <ns3:atemp>18.0</ns3:atemp>
          </ns3:TrackPointExtension>
        </extensions>
      </trkpt>
      <trkpt lat="42.56281270645558834075927734375" lon="20.09273459203541278839111328125">
        <ele>2038</ele>
        <time>2026-06-19T12:29:14.000Z</time>
        <extensions>
          <ns3:TrackPointExtension>
            <ns3:atemp>18.0</ns3:atemp>
          </ns3:TrackPointExtension>
        </extensions>
      </trkpt>
      <trkpt lat="42.5628313980996608734130859375" lon="20.0927413813769817352294921875">
        <ele>2037.800048828125</ele>
        <time>2026-06-19T12:29:15.000Z</time>
        <extensions>
          <ns3:TrackPointExtension>
            <ns3:atemp>18.0</ns3:atemp>
          </ns3:TrackPointExtension>
        </extensions>
      </trkpt>
      <trkpt lat="42.56285109557211399078369140625" lon="20.092751942574977874755859375">
        <ele>2037.199951171875</ele>
        <time>2026-06-19T12:29:16.000Z</time>
        <extensions>
          <ns3:TrackPointExtension>
            <ns3:atemp>18.0</ns3:atemp>
          </ns3:TrackPointExtension>
        </extensions>
      </trkpt>
      <trkpt lat="42.5628692843019962310791015625" lon="20.09276845492422580718994140625">
        <ele>2036.5999755859375</ele>
        <time>2026-06-19T12:29:17.000Z</time>
        <extensions>
          <ns3:TrackPointExtension>
            <ns3:atemp>18.0</ns3:atemp>
          </ns3:TrackPointExtension>
        </extensions>
      </trkpt>
      <trkpt lat="42.56287959404289722442626953125" lon="20.0927789323031902313232421875">
        <ele>2036.199951171875</ele>
        <time>2026-06-19T12:29:18.000Z</time>
        <extensions>
          <ns3:TrackPointExtension>
            <ns3:atemp>18.0</ns3:atemp>
          </ns3:TrackPointExtension>
        </extensions>
      </trkpt>
      <trkpt lat="42.56288789212703704833984375" lon="20.09278790093958377838134765625">
        <ele>2035.5999755859375</ele>
        <time>2026-06-19T12:29:19.000Z</time>
        <extensions>
          <ns3:TrackPointExtension>
            <ns3:atemp>18.0</ns3:atemp>
          </ns3:TrackPointExtension>
        </extensions>
      </trkpt>
      <trkpt lat="42.5628937594592571258544921875" lon="20.09280525147914886474609375">
        <ele>2035</ele>
        <time>2026-06-19T12:29:20.000Z</time>
        <extensions>
          <ns3:TrackPointExtension>
            <ns3:atemp>18.0</ns3:atemp>
          </ns3:TrackPointExtension>
        </extensions>
      </trkpt>
      <trkpt lat="42.562899626791477203369140625" lon="20.092838443815708160400390625">
        <ele>2034.4000244140625</ele>
        <time>2026-06-19T12:29:21.000Z</time>
        <extensions>
          <ns3:TrackPointExtension>
            <ns3:atemp>18.0</ns3:atemp>
          </ns3:TrackPointExtension>
        </extensions>
      </trkpt>
      <trkpt lat="42.56290691904723644256591796875" lon="20.092870295047760009765625">
        <ele>2033.5999755859375</ele>
        <time>2026-06-19T12:29:22.000Z</time>
        <extensions>
          <ns3:TrackPointExtension>
            <ns3:atemp>18.0</ns3:atemp>
          </ns3:TrackPointExtension>
        </extensions>
      </trkpt>
      <trkpt lat="42.56291094236075878143310546875" lon="20.09290692396461963653564453125">
        <ele>2033</ele>
        <time>2026-06-19T12:29:23.000Z</time>
        <extensions>
          <ns3:TrackPointExtension>
            <ns3:atemp>18.0</ns3:atemp>
          </ns3:TrackPointExtension>
        </extensions>
      </trkpt>
      <trkpt lat="42.56291463039815425872802734375" lon="20.09293056093156337738037109375">
        <ele>2032.4000244140625</ele>
        <time>2026-06-19T12:29:24.000Z</time>
        <extensions>
          <ns3:TrackPointExtension>
            <ns3:atemp>18.0</ns3:atemp>
          </ns3:TrackPointExtension>
        </extensions>
      </trkpt>
      <trkpt lat="42.562921084463596343994140625" lon="20.0929492525756359100341796875">
        <ele>2032</ele>
        <time>2026-06-19T12:29:25.000Z</time>
        <extensions>
          <ns3:TrackPointExtension>
            <ns3:atemp>18.0</ns3:atemp>
          </ns3:TrackPointExtension>
        </extensions>
      </trkpt>
      <trkpt lat="42.56292602978646755218505859375" lon="20.09296174161136150360107421875">
        <ele>2031.5999755859375</ele>
        <time>2026-06-19T12:29:26.000Z</time>
        <extensions>
          <ns3:TrackPointExtension>
            <ns3:atemp>18.0</ns3:atemp>
          </ns3:TrackPointExtension>
        </extensions>
      </trkpt>
      <trkpt lat="42.5629242695868015289306640625" lon="20.0929636694490909576416015625">
        <ele>2031.199951171875</ele>
        <time>2026-06-19T12:29:27.000Z</time>
        <extensions>
          <ns3:TrackPointExtension>
            <ns3:atemp>18.0</ns3:atemp>
          </ns3:TrackPointExtension>
        </extensions>
      </trkpt>
      <trkpt lat="42.562923766672611236572265625" lon="20.092965848743915557861328125">
        <ele>2030.800048828125</ele>
        <time>2026-06-19T12:29:28.000Z</time>
        <extensions>
          <ns3:TrackPointExtension>
            <ns3:atemp>18.0</ns3:atemp>
          </ns3:TrackPointExtension>
        </extensions>
      </trkpt>
      <trkpt lat="42.562923766672611236572265625" lon="20.09296576492488384246826171875">
        <ele>2030.5999755859375</ele>
        <time>2026-06-19T12:29:29.000Z</time>
        <extensions>
          <ns3:TrackPointExtension>
            <ns3:atemp>18.0</ns3:atemp>
          </ns3:TrackPointExtension>
        </extensions>
      </trkpt>
      <trkpt lat="42.562923766672611236572265625" lon="20.09296559728682041168212890625">
        <ele>2030.5999755859375</ele>
        <time>2026-06-19T12:29:30.000Z</time>
        <extensions>
          <ns3:TrackPointExtension>
            <ns3:atemp>18.0</ns3:atemp>
          </ns3:TrackPointExtension>
        </extensions>
      </trkpt>
      <trkpt lat="42.56291815079748630523681640625" lon="20.09297079406678676605224609375">
        <ele>2030.4000244140625</ele>
        <time>2026-06-19T12:29:31.000Z</time>
        <extensions>
          <ns3:TrackPointExtension>
            <ns3:atemp>18.0</ns3:atemp>
          </ns3:TrackPointExtension>
        </extensions>
      </trkpt>
      <trkpt lat="42.56291446276009082794189453125" lon="20.09297733195126056671142578125">
        <ele>2030.4000244140625</ele>
        <time>2026-06-19T12:29:32.000Z</time>
        <extensions>
          <ns3:TrackPointExtension>
            <ns3:atemp>18.0</ns3:atemp>
          </ns3:TrackPointExtension>
        </extensions>
      </trkpt>
      <trkpt lat="42.56290943361818790435791015625" lon="20.09298219345510005950927734375">
        <ele>2030.199951171875</ele>
        <time>2026-06-19T12:29:33.000Z</time>
        <extensions>
          <ns3:TrackPointExtension>
            <ns3:atemp>18.0</ns3:atemp>
          </ns3:TrackPointExtension>
        </extensions>
      </trkpt>
      <trkpt lat="42.56290733814239501953125" lon="20.0929844565689563751220703125">
        <ele>2030</ele>
        <time>2026-06-19T12:29:34.000Z</time>
        <extensions>
          <ns3:TrackPointExtension>
            <ns3:atemp>18.0</ns3:atemp>
          </ns3:TrackPointExtension>
        </extensions>
      </trkpt>
      <trkpt lat="42.5629028119146823883056640625" lon="20.0929948501288890838623046875">
        <ele>2030</ele>
        <time>2026-06-19T12:29:35.000Z</time>
        <extensions>
          <ns3:TrackPointExtension>
            <ns3:atemp>18.0</ns3:atemp>
          </ns3:TrackPointExtension>
        </extensions>
      </trkpt>
      <trkpt lat="42.56289820186793804168701171875" lon="20.0930030643939971923828125">
        <ele>2029.800048828125</ele>
        <time>2026-06-19T12:29:36.000Z</time>
        <extensions>
          <ns3:TrackPointExtension>
            <ns3:atemp>18.0</ns3:atemp>
          </ns3:TrackPointExtension>
        </extensions>
      </trkpt>
      <trkpt lat="42.562892250716686248779296875" lon="20.0930159725248813629150390625">
        <ele>2029.5999755859375</ele>
        <time>2026-06-19T12:29:37.000Z</time>
        <extensions>
          <ns3:TrackPointExtension>
            <ns3:atemp>18.0</ns3:atemp>
          </ns3:TrackPointExtension>
        </extensions>
      </trkpt>
      <trkpt lat="42.56288998760282993316650390625" lon="20.0930287130177021026611328125">
        <ele>2029.4000244140625</ele>
        <time>2026-06-19T12:29:38.000Z</time>
        <extensions>
          <ns3:TrackPointExtension>
            <ns3:atemp>18.0</ns3:atemp>
          </ns3:TrackPointExtension>
        </extensions>
      </trkpt>
      <trkpt lat="42.56289484910666942596435546875" lon="20.0930406153202056884765625">
        <ele>2029.4000244140625</ele>
        <time>2026-06-19T12:29:39.000Z</time>
        <extensions>
          <ns3:TrackPointExtension>
            <ns3:atemp>18.0</ns3:atemp>
          </ns3:TrackPointExtension>
        </extensions>
      </trkpt>
      <trkpt lat="42.5629034824669361114501953125" lon="20.0930484943091869354248046875">
        <ele>2029.199951171875</ele>
        <time>2026-06-19T12:29:40.000Z</time>
        <extensions>
          <ns3:TrackPointExtension>
            <ns3:atemp>18.0</ns3:atemp>
          </ns3:TrackPointExtension>
        </extensions>
      </trkpt>
      <trkpt lat="42.56291127763688564300537109375" lon="20.0930551998317241668701171875">
        <ele>2029.199951171875</ele>
        <time>2026-06-19T12:29:41.000Z</time>
        <extensions>
          <ns3:TrackPointExtension>
            <ns3:atemp>18.0</ns3:atemp>
          </ns3:TrackPointExtension>
        </extensions>
      </trkpt>
      <trkpt lat="42.56292234174907207489013671875" lon="20.0930602289736270904541015625">
        <ele>2029</ele>
        <time>2026-06-19T12:29:42.000Z</time>
        <extensions>
          <ns3:TrackPointExtension>
            <ns3:atemp>18.0</ns3:atemp>
          </ns3:TrackPointExtension>
        </extensions>
      </trkpt>
      <trkpt lat="42.5629319809377193450927734375" lon="20.0930622406303882598876953125">
        <ele>2028.800048828125</ele>
        <time>2026-06-19T12:29:43.000Z</time>
        <extensions>
          <ns3:TrackPointExtension>
            <ns3:atemp>18.0</ns3:atemp>
          </ns3:TrackPointExtension>
        </extensions>
      </trkpt>
      <trkpt lat="42.562931142747402191162109375" lon="20.093067102134227752685546875">
        <ele>2028.5999755859375</ele>
        <time>2026-06-19T12:29:44.000Z</time>
        <extensions>
          <ns3:TrackPointExtension>
            <ns3:atemp>18.0</ns3:atemp>
          </ns3:TrackPointExtension>
        </extensions>
      </trkpt>
      <trkpt lat="42.562931142747402191162109375" lon="20.093067102134227752685546875">
        <ele>2028.199951171875</ele>
        <time>2026-06-19T12:29:45.000Z</time>
        <extensions>
          <ns3:TrackPointExtension>
            <ns3:atemp>18.0</ns3:atemp>
          </ns3:TrackPointExtension>
        </extensions>
      </trkpt>
      <trkpt lat="42.562931142747402191162109375" lon="20.093067102134227752685546875">
        <ele>2028</ele>
        <time>2026-06-19T12:29:46.000Z</time>
        <extensions>
          <ns3:TrackPointExtension>
            <ns3:atemp>18.0</ns3:atemp>
          </ns3:TrackPointExtension>
        </extensions>
      </trkpt>
      <trkpt lat="42.562931142747402191162109375" lon="20.093067102134227752685546875">
        <ele>2027.800048828125</ele>
        <time>2026-06-19T12:29:47.000Z</time>
        <extensions>
          <ns3:TrackPointExtension>
            <ns3:atemp>18.0</ns3:atemp>
          </ns3:TrackPointExtension>
        </extensions>
      </trkpt>
      <trkpt lat="42.562931142747402191162109375" lon="20.093067102134227752685546875">
        <ele>2027.800048828125</ele>
        <time>2026-06-19T12:29:48.000Z</time>
        <extensions>
          <ns3:TrackPointExtension>
            <ns3:atemp>18.0</ns3:atemp>
          </ns3:TrackPointExtension>
        </extensions>
      </trkpt>
      <trkpt lat="42.562931142747402191162109375" lon="20.093067102134227752685546875">
        <ele>2027.800048828125</ele>
        <time>2026-06-19T12:29:49.000Z</time>
        <extensions>
          <ns3:TrackPointExtension>
            <ns3:atemp>18.0</ns3:atemp>
          </ns3:TrackPointExtension>
        </extensions>
      </trkpt>
      <trkpt lat="42.562931142747402191162109375" lon="20.093067102134227752685546875">
        <ele>2027.800048828125</ele>
        <time>2026-06-19T12:29:50.000Z</time>
        <extensions>
          <ns3:TrackPointExtension>
            <ns3:atemp>18.0</ns3:atemp>
          </ns3:TrackPointExtension>
        </extensions>
      </trkpt>
      <trkpt lat="42.562931142747402191162109375" lon="20.093067102134227752685546875">
        <ele>2028</ele>
        <time>2026-06-19T12:29:51.000Z</time>
        <extensions>
          <ns3:TrackPointExtension>
            <ns3:atemp>18.0</ns3:atemp>
          </ns3:TrackPointExtension>
        </extensions>
      </trkpt>
      <trkpt lat="42.562931142747402191162109375" lon="20.093067102134227752685546875">
        <ele>2028</ele>
        <time>2026-06-19T12:29:52.000Z</time>
        <extensions>
          <ns3:TrackPointExtension>
            <ns3:atemp>18.0</ns3:atemp>
          </ns3:TrackPointExtension>
        </extensions>
      </trkpt>
      <trkpt lat="42.562931142747402191162109375" lon="20.093067102134227752685546875">
        <ele>2028</ele>
        <time>2026-06-19T12:29:53.000Z</time>
        <extensions>
          <ns3:TrackPointExtension>
            <ns3:atemp>18.0</ns3:atemp>
          </ns3:TrackPointExtension>
        </extensions>
      </trkpt>
      <trkpt lat="42.562931142747402191162109375" lon="20.093067102134227752685546875">
        <ele>2028</ele>
        <time>2026-06-19T12:29:54.000Z</time>
        <extensions>
          <ns3:TrackPointExtension>
            <ns3:atemp>18.0</ns3:atemp>
          </ns3:TrackPointExtension>
        </extensions>
      </trkpt>
      <trkpt lat="42.562931142747402191162109375" lon="20.093067102134227752685546875">
        <ele>2027.800048828125</ele>
        <time>2026-06-19T12:29:55.000Z</time>
        <extensions>
          <ns3:TrackPointExtension>
            <ns3:atemp>18.0</ns3:atemp>
          </ns3:TrackPointExtension>
        </extensions>
      </trkpt>
      <trkpt lat="42.562931142747402191162109375" lon="20.093067102134227752685546875">
        <ele>2027.800048828125</ele>
        <time>2026-06-19T12:29:56.000Z</time>
        <extensions>
          <ns3:TrackPointExtension>
            <ns3:atemp>18.0</ns3:atemp>
          </ns3:TrackPointExtension>
        </extensions>
      </trkpt>
      <trkpt lat="42.562931142747402191162109375" lon="20.093067102134227752685546875">
        <ele>2027.5999755859375</ele>
        <time>2026-06-19T12:29:57.000Z</time>
        <extensions>
          <ns3:TrackPointExtension>
            <ns3:atemp>18.0</ns3:atemp>
          </ns3:TrackPointExtension>
        </extensions>
      </trkpt>
      <trkpt lat="42.562931142747402191162109375" lon="20.093067102134227752685546875">
        <ele>2027.5999755859375</ele>
        <time>2026-06-19T12:29:58.000Z</time>
        <extensions>
          <ns3:TrackPointExtension>
            <ns3:atemp>18.0</ns3:atemp>
          </ns3:TrackPointExtension>
        </extensions>
      </trkpt>
      <trkpt lat="42.562931142747402191162109375" lon="20.093067102134227752685546875">
        <ele>2027.4000244140625</ele>
        <time>2026-06-19T12:29:59.000Z</time>
        <extensions>
          <ns3:TrackPointExtension>
            <ns3:atemp>18.0</ns3:atemp>
          </ns3:TrackPointExtension>
        </extensions>
      </trkpt>
      <trkpt lat="42.562931142747402191162109375" lon="20.093067102134227752685546875">
        <ele>2027.199951171875</ele>
        <time>2026-06-19T12:30:00.000Z</time>
        <extensions>
          <ns3:TrackPointExtension>
            <ns3:atemp>18.0</ns3:atemp>
          </ns3:TrackPointExtension>
        </extensions>
      </trkpt>
      <trkpt lat="42.562931142747402191162109375" lon="20.093067102134227752685546875">
        <ele>2027.199951171875</ele>
        <time>2026-06-19T12:30:01.000Z</time>
        <extensions>
          <ns3:TrackPointExtension>
            <ns3:atemp>18.0</ns3:atemp>
          </ns3:TrackPointExtension>
        </extensions>
      </trkpt>
      <trkpt lat="42.562931142747402191162109375" lon="20.093067102134227752685546875">
        <ele>2027.199951171875</ele>
        <time>2026-06-19T12:30:02.000Z</time>
        <extensions>
          <ns3:TrackPointExtension>
            <ns3:atemp>18.0</ns3:atemp>
          </ns3:TrackPointExtension>
        </extensions>
      </trkpt>
      <trkpt lat="42.562931142747402191162109375" lon="20.093067102134227752685546875">
        <ele>2027.199951171875</ele>
        <time>2026-06-19T12:30:03.000Z</time>
        <extensions>
          <ns3:TrackPointExtension>
            <ns3:atemp>18.0</ns3:atemp>
          </ns3:TrackPointExtension>
        </extensions>
      </trkpt>
      <trkpt lat="42.562931142747402191162109375" lon="20.093067102134227752685546875">
        <ele>2027</ele>
        <time>2026-06-19T12:30:04.000Z</time>
        <extensions>
          <ns3:TrackPointExtension>
            <ns3:atemp>18.0</ns3:atemp>
          </ns3:TrackPointExtension>
        </extensions>
      </trkpt>
      <trkpt lat="42.562931142747402191162109375" lon="20.093067102134227752685546875">
        <ele>2027</ele>
        <time>2026-06-19T12:30:05.000Z</time>
        <extensions>
          <ns3:TrackPointExtension>
            <ns3:atemp>18.0</ns3:atemp>
          </ns3:TrackPointExtension>
        </extensions>
      </trkpt>
      <trkpt lat="42.562931142747402191162109375" lon="20.093067102134227752685546875">
        <ele>2027</ele>
        <time>2026-06-19T12:30:06.000Z</time>
        <extensions>
          <ns3:TrackPointExtension>
            <ns3:atemp>18.0</ns3:atemp>
          </ns3:TrackPointExtension>
        </extensions>
      </trkpt>
      <trkpt lat="42.562931142747402191162109375" lon="20.093067102134227752685546875">
        <ele>2027</ele>
        <time>2026-06-19T12:30:07.000Z</time>
        <extensions>
          <ns3:TrackPointExtension>
            <ns3:atemp>18.0</ns3:atemp>
          </ns3:TrackPointExtension>
        </extensions>
      </trkpt>
      <trkpt lat="42.562931142747402191162109375" lon="20.093067102134227752685546875">
        <ele>2027</ele>
        <time>2026-06-19T12:30:08.000Z</time>
        <extensions>
          <ns3:TrackPointExtension>
            <ns3:atemp>18.0</ns3:atemp>
          </ns3:TrackPointExtension>
        </extensions>
      </trkpt>
      <trkpt lat="42.562931142747402191162109375" lon="20.093067102134227752685546875">
        <ele>2027.199951171875</ele>
        <time>2026-06-19T12:30:09.000Z</time>
        <extensions>
          <ns3:TrackPointExtension>
            <ns3:atemp>18.0</ns3:atemp>
          </ns3:TrackPointExtension>
        </extensions>
      </trkpt>
      <trkpt lat="42.562931142747402191162109375" lon="20.093067102134227752685546875">
        <ele>2027.199951171875</ele>
        <time>2026-06-19T12:30:10.000Z</time>
        <extensions>
          <ns3:TrackPointExtension>
            <ns3:atemp>18.0</ns3:atemp>
          </ns3:TrackPointExtension>
        </extensions>
      </trkpt>
      <trkpt lat="42.562931142747402191162109375" lon="20.093067102134227752685546875">
        <ele>2027.199951171875</ele>
        <time>2026-06-19T12:30:11.000Z</time>
        <extensions>
          <ns3:TrackPointExtension>
            <ns3:atemp>18.0</ns3:atemp>
          </ns3:TrackPointExtension>
        </extensions>
      </trkpt>
      <trkpt lat="42.562931142747402191162109375" lon="20.093067102134227752685546875">
        <ele>2027.199951171875</ele>
        <time>2026-06-19T12:30:12.000Z</time>
        <extensions>
          <ns3:TrackPointExtension>
            <ns3:atemp>19.0</ns3:atemp>
          </ns3:TrackPointExtension>
        </extensions>
      </trkpt>
      <trkpt lat="42.562931142747402191162109375" lon="20.093067102134227752685546875">
        <ele>2027.199951171875</ele>
        <time>2026-06-19T12:30:13.000Z</time>
        <extensions>
          <ns3:TrackPointExtension>
            <ns3:atemp>19.0</ns3:atemp>
          </ns3:TrackPointExtension>
        </extensions>
      </trkpt>
      <trkpt lat="42.562931142747402191162109375" lon="20.093067102134227752685546875">
        <ele>2027.199951171875</ele>
        <time>2026-06-19T12:30:14.000Z</time>
        <extensions>
          <ns3:TrackPointExtension>
            <ns3:atemp>19.0</ns3:atemp>
          </ns3:TrackPointExtension>
        </extensions>
      </trkpt>
      <trkpt lat="42.562931142747402191162109375" lon="20.093067102134227752685546875">
        <ele>2027.199951171875</ele>
        <time>2026-06-19T12:30:15.000Z</time>
        <extensions>
          <ns3:TrackPointExtension>
            <ns3:atemp>19.0</ns3:atemp>
          </ns3:TrackPointExtension>
        </extensions>
      </trkpt>
      <trkpt lat="42.562931142747402191162109375" lon="20.093067102134227752685546875">
        <ele>2027.199951171875</ele>
        <time>2026-06-19T12:30:16.000Z</time>
        <extensions>
          <ns3:TrackPointExtension>
            <ns3:atemp>19.0</ns3:atemp>
          </ns3:TrackPointExtension>
        </extensions>
      </trkpt>
      <trkpt lat="42.562931142747402191162109375" lon="20.093067102134227752685546875">
        <ele>2027.199951171875</ele>
        <time>2026-06-19T12:30:17.000Z</time>
        <extensions>
          <ns3:TrackPointExtension>
            <ns3:atemp>19.0</ns3:atemp>
          </ns3:TrackPointExtension>
        </extensions>
      </trkpt>
      <trkpt lat="42.562931142747402191162109375" lon="20.093067102134227752685546875">
        <ele>2027.199951171875</ele>
        <time>2026-06-19T12:30:18.000Z</time>
        <extensions>
          <ns3:TrackPointExtension>
            <ns3:atemp>19.0</ns3:atemp>
          </ns3:TrackPointExtension>
        </extensions>
      </trkpt>
      <trkpt lat="42.562931142747402191162109375" lon="20.093067102134227752685546875">
        <ele>2027.199951171875</ele>
        <time>2026-06-19T12:30:19.000Z</time>
        <extensions>
          <ns3:TrackPointExtension>
            <ns3:atemp>19.0</ns3:atemp>
          </ns3:TrackPointExtension>
        </extensions>
      </trkpt>
      <trkpt lat="42.562931142747402191162109375" lon="20.093067102134227752685546875">
        <ele>2027.4000244140625</ele>
        <time>2026-06-19T12:30:20.000Z</time>
        <extensions>
          <ns3:TrackPointExtension>
            <ns3:atemp>19.0</ns3:atemp>
          </ns3:TrackPointExtension>
        </extensions>
      </trkpt>
      <trkpt lat="42.562931142747402191162109375" lon="20.093067102134227752685546875">
        <ele>2027.4000244140625</ele>
        <time>2026-06-19T12:30:21.000Z</time>
        <extensions>
          <ns3:TrackPointExtension>
            <ns3:atemp>19.0</ns3:atemp>
          </ns3:TrackPointExtension>
        </extensions>
      </trkpt>
      <trkpt lat="42.562931142747402191162109375" lon="20.093067102134227752685546875">
        <ele>2027.4000244140625</ele>
        <time>2026-06-19T12:30:22.000Z</time>
        <extensions>
          <ns3:TrackPointExtension>
            <ns3:atemp>19.0</ns3:atemp>
          </ns3:TrackPointExtension>
        </extensions>
      </trkpt>
      <trkpt lat="42.562931142747402191162109375" lon="20.093067102134227752685546875">
        <ele>2027.4000244140625</ele>
        <time>2026-06-19T12:30:23.000Z</time>
        <extensions>
          <ns3:TrackPointExtension>
            <ns3:atemp>19.0</ns3:atemp>
          </ns3:TrackPointExtension>
        </extensions>
      </trkpt>
      <trkpt lat="42.562931142747402191162109375" lon="20.093067102134227752685546875">
        <ele>2027.4000244140625</ele>
        <time>2026-06-19T12:30:24.000Z</time>
        <extensions>
          <ns3:TrackPointExtension>
            <ns3:atemp>19.0</ns3:atemp>
          </ns3:TrackPointExtension>
        </extensions>
      </trkpt>
      <trkpt lat="42.562931142747402191162109375" lon="20.093067102134227752685546875">
        <ele>2027.4000244140625</ele>
        <time>2026-06-19T12:30:25.000Z</time>
        <extensions>
          <ns3:TrackPointExtension>
            <ns3:atemp>19.0</ns3:atemp>
          </ns3:TrackPointExtension>
        </extensions>
      </trkpt>
      <trkpt lat="42.562931142747402191162109375" lon="20.093067102134227752685546875">
        <ele>2027.4000244140625</ele>
        <time>2026-06-19T12:30:26.000Z</time>
        <extensions>
          <ns3:TrackPointExtension>
            <ns3:atemp>19.0</ns3:atemp>
          </ns3:TrackPointExtension>
        </extensions>
      </trkpt>
      <trkpt lat="42.562931142747402191162109375" lon="20.093067102134227752685546875">
        <ele>2027.4000244140625</ele>
        <time>2026-06-19T12:30:27.000Z</time>
        <extensions>
          <ns3:TrackPointExtension>
            <ns3:atemp>19.0</ns3:atemp>
          </ns3:TrackPointExtension>
        </extensions>
      </trkpt>
      <trkpt lat="42.562931142747402191162109375" lon="20.093067102134227752685546875">
        <ele>2027.4000244140625</ele>
        <time>2026-06-19T12:30:28.000Z</time>
        <extensions>
          <ns3:TrackPointExtension>
            <ns3:atemp>19.0</ns3:atemp>
          </ns3:TrackPointExtension>
        </extensions>
      </trkpt>
      <trkpt lat="42.562931142747402191162109375" lon="20.093067102134227752685546875">
        <ele>2027.4000244140625</ele>
        <time>2026-06-19T12:30:29.000Z</time>
        <extensions>
          <ns3:TrackPointExtension>
            <ns3:atemp>19.0</ns3:atemp>
          </ns3:TrackPointExtension>
        </extensions>
      </trkpt>
      <trkpt lat="42.562931142747402191162109375" lon="20.093067102134227752685546875">
        <ele>2027.4000244140625</ele>
        <time>2026-06-19T12:30:30.000Z</time>
        <extensions>
          <ns3:TrackPointExtension>
            <ns3:atemp>19.0</ns3:atemp>
          </ns3:TrackPointExtension>
        </extensions>
      </trkpt>
      <trkpt lat="42.562931142747402191162109375" lon="20.093067102134227752685546875">
        <ele>2027.4000244140625</ele>
        <time>2026-06-19T12:30:31.000Z</time>
        <extensions>
          <ns3:TrackPointExtension>
            <ns3:atemp>19.0</ns3:atemp>
          </ns3:TrackPointExtension>
        </extensions>
      </trkpt>
      <trkpt lat="42.562931142747402191162109375" lon="20.093067102134227752685546875">
        <ele>2027.4000244140625</ele>
        <time>2026-06-19T12:30:32.000Z</time>
        <extensions>
          <ns3:TrackPointExtension>
            <ns3:atemp>19.0</ns3:atemp>
          </ns3:TrackPointExtension>
        </extensions>
      </trkpt>
      <trkpt lat="42.562931142747402191162109375" lon="20.093067102134227752685546875">
        <ele>2027.4000244140625</ele>
        <time>2026-06-19T12:30:33.000Z</time>
        <extensions>
          <ns3:TrackPointExtension>
            <ns3:atemp>19.0</ns3:atemp>
          </ns3:TrackPointExtension>
        </extensions>
      </trkpt>
      <trkpt lat="42.562931142747402191162109375" lon="20.093067102134227752685546875">
        <ele>2027.4000244140625</ele>
        <time>2026-06-19T12:30:34.000Z</time>
        <extensions>
          <ns3:TrackPointExtension>
            <ns3:atemp>19.0</ns3:atemp>
          </ns3:TrackPointExtension>
        </extensions>
      </trkpt>
      <trkpt lat="42.562931142747402191162109375" lon="20.093067102134227752685546875">
        <ele>2027.4000244140625</ele>
        <time>2026-06-19T12:30:35.000Z</time>
        <extensions>
          <ns3:TrackPointExtension>
            <ns3:atemp>19.0</ns3:atemp>
          </ns3:TrackPointExtension>
        </extensions>
      </trkpt>
      <trkpt lat="42.562931142747402191162109375" lon="20.093067102134227752685546875">
        <ele>2027.4000244140625</ele>
        <time>2026-06-19T12:30:36.000Z</time>
        <extensions>
          <ns3:TrackPointExtension>
            <ns3:atemp>19.0</ns3:atemp>
          </ns3:TrackPointExtension>
        </extensions>
      </trkpt>
      <trkpt lat="42.562931142747402191162109375" lon="20.093067102134227752685546875">
        <ele>2027.4000244140625</ele>
        <time>2026-06-19T12:30:37.000Z</time>
        <extensions>
          <ns3:TrackPointExtension>
            <ns3:atemp>19.0</ns3:atemp>
          </ns3:TrackPointExtension>
        </extensions>
      </trkpt>
      <trkpt lat="42.562931142747402191162109375" lon="20.093067102134227752685546875">
        <ele>2027.199951171875</ele>
        <time>2026-06-19T12:30:38.000Z</time>
        <extensions>
          <ns3:TrackPointExtension>
            <ns3:atemp>19.0</ns3:atemp>
          </ns3:TrackPointExtension>
        </extensions>
      </trkpt>
      <trkpt lat="42.562931142747402191162109375" lon="20.093067102134227752685546875">
        <ele>2027.199951171875</ele>
        <time>2026-06-19T12:30:39.000Z</time>
        <extensions>
          <ns3:TrackPointExtension>
            <ns3:atemp>19.0</ns3:atemp>
          </ns3:TrackPointExtension>
        </extensions>
      </trkpt>
      <trkpt lat="42.562931142747402191162109375" lon="20.093067102134227752685546875">
        <ele>2027.199951171875</ele>
        <time>2026-06-19T12:30:40.000Z</time>
        <extensions>
          <ns3:TrackPointExtension>
            <ns3:atemp>19.0</ns3:atemp>
          </ns3:TrackPointExtension>
        </extensions>
      </trkpt>
      <trkpt lat="42.562931142747402191162109375" lon="20.093067102134227752685546875">
        <ele>2027</ele>
        <time>2026-06-19T12:30:41.000Z</time>
        <extensions>
          <ns3:TrackPointExtension>
            <ns3:atemp>19.0</ns3:atemp>
          </ns3:TrackPointExtension>
        </extensions>
      </trkpt>
      <trkpt lat="42.562931142747402191162109375" lon="20.093067102134227752685546875">
        <ele>2027</ele>
        <time>2026-06-19T12:30:42.000Z</time>
        <extensions>
          <ns3:TrackPointExtension>
            <ns3:atemp>19.0</ns3:atemp>
          </ns3:TrackPointExtension>
        </extensions>
      </trkpt>
      <trkpt lat="42.562931142747402191162109375" lon="20.093067102134227752685546875">
        <ele>2027</ele>
        <time>2026-06-19T12:30:43.000Z</time>
        <extensions>
          <ns3:TrackPointExtension>
            <ns3:atemp>19.0</ns3:atemp>
          </ns3:TrackPointExtension>
        </extensions>
      </trkpt>
      <trkpt lat="42.562931142747402191162109375" lon="20.093067102134227752685546875">
        <ele>2027</ele>
        <time>2026-06-19T12:30:44.000Z</time>
        <extensions>
          <ns3:TrackPointExtension>
            <ns3:atemp>19.0</ns3:atemp>
          </ns3:TrackPointExtension>
        </extensions>
      </trkpt>
      <trkpt lat="42.562931142747402191162109375" lon="20.093067102134227752685546875">
        <ele>2027</ele>
        <time>2026-06-19T12:30:45.000Z</time>
        <extensions>
          <ns3:TrackPointExtension>
            <ns3:atemp>19.0</ns3:atemp>
          </ns3:TrackPointExtension>
        </extensions>
      </trkpt>
      <trkpt lat="42.562931142747402191162109375" lon="20.093067102134227752685546875">
        <ele>2027</ele>
        <time>2026-06-19T12:30:46.000Z</time>
        <extensions>
          <ns3:TrackPointExtension>
            <ns3:atemp>19.0</ns3:atemp>
          </ns3:TrackPointExtension>
        </extensions>
      </trkpt>
      <trkpt lat="42.562931142747402191162109375" lon="20.093067102134227752685546875">
        <ele>2027.199951171875</ele>
        <time>2026-06-19T12:30:47.000Z</time>
        <extensions>
          <ns3:TrackPointExtension>
            <ns3:atemp>19.0</ns3:atemp>
          </ns3:TrackPointExtension>
        </extensions>
      </trkpt>
      <trkpt lat="42.562931142747402191162109375" lon="20.093067102134227752685546875">
        <ele>2027.199951171875</ele>
        <time>2026-06-19T12:30:48.000Z</time>
        <extensions>
          <ns3:TrackPointExtension>
            <ns3:atemp>19.0</ns3:atemp>
          </ns3:TrackPointExtension>
        </extensions>
      </trkpt>
      <trkpt lat="42.562931142747402191162109375" lon="20.093067102134227752685546875">
        <ele>2027.199951171875</ele>
        <time>2026-06-19T12:30:49.000Z</time>
        <extensions>
          <ns3:TrackPointExtension>
            <ns3:atemp>19.0</ns3:atemp>
          </ns3:TrackPointExtension>
        </extensions>
      </trkpt>
      <trkpt lat="42.562931142747402191162109375" lon="20.093067102134227752685546875">
        <ele>2027.199951171875</ele>
        <time>2026-06-19T12:30:50.000Z</time>
        <extensions>
          <ns3:TrackPointExtension>
            <ns3:atemp>19.0</ns3:atemp>
          </ns3:TrackPointExtension>
        </extensions>
      </trkpt>
      <trkpt lat="42.562931142747402191162109375" lon="20.093067102134227752685546875">
        <ele>2027.199951171875</ele>
        <time>2026-06-19T12:30:51.000Z</time>
        <extensions>
          <ns3:TrackPointExtension>
            <ns3:atemp>19.0</ns3:atemp>
          </ns3:TrackPointExtension>
        </extensions>
      </trkpt>
      <trkpt lat="42.562931142747402191162109375" lon="20.093067102134227752685546875">
        <ele>2027.199951171875</ele>
        <time>2026-06-19T12:30:52.000Z</time>
        <extensions>
          <ns3:TrackPointExtension>
            <ns3:atemp>19.0</ns3:atemp>
          </ns3:TrackPointExtension>
        </extensions>
      </trkpt>
      <trkpt lat="42.562931142747402191162109375" lon="20.093067102134227752685546875">
        <ele>2027.4000244140625</ele>
        <time>2026-06-19T12:30:53.000Z</time>
        <extensions>
          <ns3:TrackPointExtension>
            <ns3:atemp>19.0</ns3:atemp>
          </ns3:TrackPointExtension>
        </extensions>
      </trkpt>
      <trkpt lat="42.562931142747402191162109375" lon="20.093067102134227752685546875">
        <ele>2027.4000244140625</ele>
        <time>2026-06-19T12:30:54.000Z</time>
        <extensions>
          <ns3:TrackPointExtension>
            <ns3:atemp>19.0</ns3:atemp>
          </ns3:TrackPointExtension>
        </extensions>
      </trkpt>
      <trkpt lat="42.562931142747402191162109375" lon="20.093067102134227752685546875">
        <ele>2027.4000244140625</ele>
        <time>2026-06-19T12:30:55.000Z</time>
        <extensions>
          <ns3:TrackPointExtension>
            <ns3:atemp>19.0</ns3:atemp>
          </ns3:TrackPointExtension>
        </extensions>
      </trkpt>
      <trkpt lat="42.562931142747402191162109375" lon="20.093067102134227752685546875">
        <ele>2027.4000244140625</ele>
        <time>2026-06-19T12:30:56.000Z</time>
        <extensions>
          <ns3:TrackPointExtension>
            <ns3:atemp>19.0</ns3:atemp>
          </ns3:TrackPointExtension>
        </extensions>
      </trkpt>
      <trkpt lat="42.562931142747402191162109375" lon="20.093067102134227752685546875">
        <ele>2027.4000244140625</ele>
        <time>2026-06-19T12:30:57.000Z</time>
        <extensions>
          <ns3:TrackPointExtension>
            <ns3:atemp>19.0</ns3:atemp>
          </ns3:TrackPointExtension>
        </extensions>
      </trkpt>
      <trkpt lat="42.562931142747402191162109375" lon="20.093067102134227752685546875">
        <ele>2027.4000244140625</ele>
        <time>2026-06-19T12:30:58.000Z</time>
        <extensions>
          <ns3:TrackPointExtension>
            <ns3:atemp>19.0</ns3:atemp>
          </ns3:TrackPointExtension>
        </extensions>
      </trkpt>
      <trkpt lat="42.562931142747402191162109375" lon="20.093067102134227752685546875">
        <ele>2027.4000244140625</ele>
        <time>2026-06-19T12:30:59.000Z</time>
        <extensions>
          <ns3:TrackPointExtension>
            <ns3:atemp>19.0</ns3:atemp>
          </ns3:TrackPointExtension>
        </extensions>
      </trkpt>
      <trkpt lat="42.562931142747402191162109375" lon="20.093067102134227752685546875">
        <ele>2027.4000244140625</ele>
        <time>2026-06-19T12:31:00.000Z</time>
        <extensions>
          <ns3:TrackPointExtension>
            <ns3:atemp>19.0</ns3:atemp>
          </ns3:TrackPointExtension>
        </extensions>
      </trkpt>
      <trkpt lat="42.562931142747402191162109375" lon="20.093067102134227752685546875">
        <ele>2027.4000244140625</ele>
        <time>2026-06-19T12:31:01.000Z</time>
        <extensions>
          <ns3:TrackPointExtension>
            <ns3:atemp>19.0</ns3:atemp>
          </ns3:TrackPointExtension>
        </extensions>
      </trkpt>
      <trkpt lat="42.562931142747402191162109375" lon="20.093067102134227752685546875">
        <ele>2027.4000244140625</ele>
        <time>2026-06-19T12:31:02.000Z</time>
        <extensions>
          <ns3:TrackPointExtension>
            <ns3:atemp>19.0</ns3:atemp>
          </ns3:TrackPointExtension>
        </extensions>
      </trkpt>
      <trkpt lat="42.562931142747402191162109375" lon="20.093067102134227752685546875">
        <ele>2027.4000244140625</ele>
        <time>2026-06-19T12:31:03.000Z</time>
        <extensions>
          <ns3:TrackPointExtension>
            <ns3:atemp>19.0</ns3:atemp>
          </ns3:TrackPointExtension>
        </extensions>
      </trkpt>
      <trkpt lat="42.562931142747402191162109375" lon="20.093067102134227752685546875">
        <ele>2027.199951171875</ele>
        <time>2026-06-19T12:31:04.000Z</time>
        <extensions>
          <ns3:TrackPointExtension>
            <ns3:atemp>19.0</ns3:atemp>
          </ns3:TrackPointExtension>
        </extensions>
      </trkpt>
      <trkpt lat="42.562931142747402191162109375" lon="20.093067102134227752685546875">
        <ele>2027.199951171875</ele>
        <time>2026-06-19T12:31:05.000Z</time>
        <extensions>
          <ns3:TrackPointExtension>
            <ns3:atemp>19.0</ns3:atemp>
          </ns3:TrackPointExtension>
        </extensions>
      </trkpt>
      <trkpt lat="42.562931142747402191162109375" lon="20.093067102134227752685546875">
        <ele>2027.199951171875</ele>
        <time>2026-06-19T12:31:06.000Z</time>
        <extensions>
          <ns3:TrackPointExtension>
            <ns3:atemp>19.0</ns3:atemp>
          </ns3:TrackPointExtension>
        </extensions>
      </trkpt>
      <trkpt lat="42.562931142747402191162109375" lon="20.093067102134227752685546875">
        <ele>2027.199951171875</ele>
        <time>2026-06-19T12:31:07.000Z</time>
        <extensions>
          <ns3:TrackPointExtension>
            <ns3:atemp>19.0</ns3:atemp>
          </ns3:TrackPointExtension>
        </extensions>
      </trkpt>
      <trkpt lat="42.562931142747402191162109375" lon="20.093067102134227752685546875">
        <ele>2027.199951171875</ele>
        <time>2026-06-19T12:31:08.000Z</time>
        <extensions>
          <ns3:TrackPointExtension>
            <ns3:atemp>19.0</ns3:atemp>
          </ns3:TrackPointExtension>
        </extensions>
      </trkpt>
      <trkpt lat="42.562931142747402191162109375" lon="20.093067102134227752685546875">
        <ele>2027.199951171875</ele>
        <time>2026-06-19T12:31:09.000Z</time>
        <extensions>
          <ns3:TrackPointExtension>
            <ns3:atemp>19.0</ns3:atemp>
          </ns3:TrackPointExtension>
        </extensions>
      </trkpt>
      <trkpt lat="42.562931142747402191162109375" lon="20.093067102134227752685546875">
        <ele>2027.199951171875</ele>
        <time>2026-06-19T12:31:10.000Z</time>
        <extensions>
          <ns3:TrackPointExtension>
            <ns3:atemp>19.0</ns3:atemp>
          </ns3:TrackPointExtension>
        </extensions>
      </trkpt>
      <trkpt lat="42.562931142747402191162109375" lon="20.093067102134227752685546875">
        <ele>2027.199951171875</ele>
        <time>2026-06-19T12:31:11.000Z</time>
        <extensions>
          <ns3:TrackPointExtension>
            <ns3:atemp>19.0</ns3:atemp>
          </ns3:TrackPointExtension>
        </extensions>
      </trkpt>
      <trkpt lat="42.562931142747402191162109375" lon="20.093067102134227752685546875">
        <ele>2027</ele>
        <time>2026-06-19T12:31:12.000Z</time>
        <extensions>
          <ns3:TrackPointExtension>
            <ns3:atemp>19.0</ns3:atemp>
          </ns3:TrackPointExtension>
        </extensions>
      </trkpt>
      <trkpt lat="42.562931142747402191162109375" lon="20.093067102134227752685546875">
        <ele>2026.800048828125</ele>
        <time>2026-06-19T12:31:13.000Z</time>
        <extensions>
          <ns3:TrackPointExtension>
            <ns3:atemp>19.0</ns3:atemp>
          </ns3:TrackPointExtension>
        </extensions>
      </trkpt>
      <trkpt lat="42.562931142747402191162109375" lon="20.093067102134227752685546875">
        <ele>2026.800048828125</ele>
        <time>2026-06-19T12:31:14.000Z</time>
        <extensions>
          <ns3:TrackPointExtension>
            <ns3:atemp>19.0</ns3:atemp>
          </ns3:TrackPointExtension>
        </extensions>
      </trkpt>
      <trkpt lat="42.562931142747402191162109375" lon="20.093067102134227752685546875">
        <ele>2026.800048828125</ele>
        <time>2026-06-19T12:31:15.000Z</time>
        <extensions>
          <ns3:TrackPointExtension>
            <ns3:atemp>19.0</ns3:atemp>
          </ns3:TrackPointExtension>
        </extensions>
      </trkpt>
      <trkpt lat="42.562931142747402191162109375" lon="20.093067102134227752685546875">
        <ele>2026.800048828125</ele>
        <time>2026-06-19T12:31:16.000Z</time>
        <extensions>
          <ns3:TrackPointExtension>
            <ns3:atemp>19.0</ns3:atemp>
          </ns3:TrackPointExtension>
        </extensions>
      </trkpt>
      <trkpt lat="42.562931142747402191162109375" lon="20.093067102134227752685546875">
        <ele>2026.800048828125</ele>
        <time>2026-06-19T12:31:17.000Z</time>
        <extensions>
          <ns3:TrackPointExtension>
            <ns3:atemp>19.0</ns3:atemp>
          </ns3:TrackPointExtension>
        </extensions>
      </trkpt>
      <trkpt lat="42.562931142747402191162109375" lon="20.093067102134227752685546875">
        <ele>2026.800048828125</ele>
        <time>2026-06-19T12:31:18.000Z</time>
        <extensions>
          <ns3:TrackPointExtension>
            <ns3:atemp>19.0</ns3:atemp>
          </ns3:TrackPointExtension>
        </extensions>
      </trkpt>
      <trkpt lat="42.562931142747402191162109375" lon="20.093067102134227752685546875">
        <ele>2026.800048828125</ele>
        <time>2026-06-19T12:31:19.000Z</time>
        <extensions>
          <ns3:TrackPointExtension>
            <ns3:atemp>19.0</ns3:atemp>
          </ns3:TrackPointExtension>
        </extensions>
      </trkpt>
      <trkpt lat="42.562931142747402191162109375" lon="20.093067102134227752685546875">
        <ele>2026.5999755859375</ele>
        <time>2026-06-19T12:31:20.000Z</time>
        <extensions>
          <ns3:TrackPointExtension>
            <ns3:atemp>19.0</ns3:atemp>
          </ns3:TrackPointExtension>
        </extensions>
      </trkpt>
      <trkpt lat="42.562931142747402191162109375" lon="20.093067102134227752685546875">
        <ele>2026.5999755859375</ele>
        <time>2026-06-19T12:31:21.000Z</time>
        <extensions>
          <ns3:TrackPointExtension>
            <ns3:atemp>19.0</ns3:atemp>
          </ns3:TrackPointExtension>
        </extensions>
      </trkpt>
      <trkpt lat="42.562931142747402191162109375" lon="20.093067102134227752685546875">
        <ele>2026.5999755859375</ele>
        <time>2026-06-19T12:31:22.000Z</time>
        <extensions>
          <ns3:TrackPointExtension>
            <ns3:atemp>19.0</ns3:atemp>
          </ns3:TrackPointExtension>
        </extensions>
      </trkpt>
      <trkpt lat="42.562931142747402191162109375" lon="20.093067102134227752685546875">
        <ele>2026.5999755859375</ele>
        <time>2026-06-19T12:31:23.000Z</time>
        <extensions>
          <ns3:TrackPointExtension>
            <ns3:atemp>19.0</ns3:atemp>
          </ns3:TrackPointExtension>
        </extensions>
      </trkpt>
      <trkpt lat="42.562931142747402191162109375" lon="20.093067102134227752685546875">
        <ele>2026.4000244140625</ele>
        <time>2026-06-19T12:31:24.000Z</time>
        <extensions>
          <ns3:TrackPointExtension>
            <ns3:atemp>19.0</ns3:atemp>
          </ns3:TrackPointExtension>
        </extensions>
      </trkpt>
      <trkpt lat="42.562931142747402191162109375" lon="20.093067102134227752685546875">
        <ele>2026.4000244140625</ele>
        <time>2026-06-19T12:31:25.000Z</time>
        <extensions>
          <ns3:TrackPointExtension>
            <ns3:atemp>19.0</ns3:atemp>
          </ns3:TrackPointExtension>
        </extensions>
      </trkpt>
      <trkpt lat="42.562931142747402191162109375" lon="20.093067102134227752685546875">
        <ele>2026.4000244140625</ele>
        <time>2026-06-19T12:31:26.000Z</time>
        <extensions>
          <ns3:TrackPointExtension>
            <ns3:atemp>19.0</ns3:atemp>
          </ns3:TrackPointExtension>
        </extensions>
      </trkpt>
      <trkpt lat="42.562931142747402191162109375" lon="20.093067102134227752685546875">
        <ele>2026.4000244140625</ele>
        <time>2026-06-19T12:31:27.000Z</time>
        <extensions>
          <ns3:TrackPointExtension>
            <ns3:atemp>19.0</ns3:atemp>
          </ns3:TrackPointExtension>
        </extensions>
      </trkpt>
      <trkpt lat="42.562931142747402191162109375" lon="20.093067102134227752685546875">
        <ele>2026.4000244140625</ele>
        <time>2026-06-19T12:31:28.000Z</time>
        <extensions>
          <ns3:TrackPointExtension>
            <ns3:atemp>19.0</ns3:atemp>
          </ns3:TrackPointExtension>
        </extensions>
      </trkpt>
      <trkpt lat="42.562931142747402191162109375" lon="20.093067102134227752685546875">
        <ele>2026.4000244140625</ele>
        <time>2026-06-19T12:31:29.000Z</time>
        <extensions>
          <ns3:TrackPointExtension>
            <ns3:atemp>19.0</ns3:atemp>
          </ns3:TrackPointExtension>
        </extensions>
      </trkpt>
      <trkpt lat="42.562931142747402191162109375" lon="20.093067102134227752685546875">
        <ele>2026.4000244140625</ele>
        <time>2026-06-19T12:31:30.000Z</time>
        <extensions>
          <ns3:TrackPointExtension>
            <ns3:atemp>19.0</ns3:atemp>
          </ns3:TrackPointExtension>
        </extensions>
      </trkpt>
      <trkpt lat="42.562931142747402191162109375" lon="20.093067102134227752685546875">
        <ele>2026.4000244140625</ele>
        <time>2026-06-19T12:31:31.000Z</time>
        <extensions>
          <ns3:TrackPointExtension>
            <ns3:atemp>19.0</ns3:atemp>
          </ns3:TrackPointExtension>
        </extensions>
      </trkpt>
      <trkpt lat="42.562931142747402191162109375" lon="20.093067102134227752685546875">
        <ele>2026.4000244140625</ele>
        <time>2026-06-19T12:31:32.000Z</time>
        <extensions>
          <ns3:TrackPointExtension>
            <ns3:atemp>19.0</ns3:atemp>
          </ns3:TrackPointExtension>
        </extensions>
      </trkpt>
      <trkpt lat="42.562931142747402191162109375" lon="20.093067102134227752685546875">
        <ele>2026.4000244140625</ele>
        <time>2026-06-19T12:31:33.000Z</time>
        <extensions>
          <ns3:TrackPointExtension>
            <ns3:atemp>19.0</ns3:atemp>
          </ns3:TrackPointExtension>
        </extensions>
      </trkpt>
      <trkpt lat="42.562931142747402191162109375" lon="20.093067102134227752685546875">
        <ele>2026.199951171875</ele>
        <time>2026-06-19T12:31:34.000Z</time>
        <extensions>
          <ns3:TrackPointExtension>
            <ns3:atemp>19.0</ns3:atemp>
          </ns3:TrackPointExtension>
        </extensions>
      </trkpt>
      <trkpt lat="42.562931142747402191162109375" lon="20.093067102134227752685546875">
        <ele>2026.199951171875</ele>
        <time>2026-06-19T12:31:35.000Z</time>
        <extensions>
          <ns3:TrackPointExtension>
            <ns3:atemp>19.0</ns3:atemp>
          </ns3:TrackPointExtension>
        </extensions>
      </trkpt>
      <trkpt lat="42.562931142747402191162109375" lon="20.093067102134227752685546875">
        <ele>2026.199951171875</ele>
        <time>2026-06-19T12:31:36.000Z</time>
        <extensions>
          <ns3:TrackPointExtension>
            <ns3:atemp>19.0</ns3:atemp>
          </ns3:TrackPointExtension>
        </extensions>
      </trkpt>
      <trkpt lat="42.562931142747402191162109375" lon="20.093067102134227752685546875">
        <ele>2026.199951171875</ele>
        <time>2026-06-19T12:31:37.000Z</time>
        <extensions>
          <ns3:TrackPointExtension>
            <ns3:atemp>19.0</ns3:atemp>
          </ns3:TrackPointExtension>
        </extensions>
      </trkpt>
      <trkpt lat="42.562931142747402191162109375" lon="20.093067102134227752685546875">
        <ele>2026.199951171875</ele>
        <time>2026-06-19T12:31:38.000Z</time>
        <extensions>
          <ns3:TrackPointExtension>
            <ns3:atemp>19.0</ns3:atemp>
          </ns3:TrackPointExtension>
        </extensions>
      </trkpt>
      <trkpt lat="42.562931142747402191162109375" lon="20.093067102134227752685546875">
        <ele>2026.199951171875</ele>
        <time>2026-06-19T12:31:39.000Z</time>
        <extensions>
          <ns3:TrackPointExtension>
            <ns3:atemp>19.0</ns3:atemp>
          </ns3:TrackPointExtension>
        </extensions>
      </trkpt>
      <trkpt lat="42.562931142747402191162109375" lon="20.093067102134227752685546875">
        <ele>2026.199951171875</ele>
        <time>2026-06-19T12:31:40.000Z</time>
        <extensions>
          <ns3:TrackPointExtension>
            <ns3:atemp>19.0</ns3:atemp>
          </ns3:TrackPointExtension>
        </extensions>
      </trkpt>
      <trkpt lat="42.562931142747402191162109375" lon="20.093067102134227752685546875">
        <ele>2026.199951171875</ele>
        <time>2026-06-19T12:31:41.000Z</time>
        <extensions>
          <ns3:TrackPointExtension>
            <ns3:atemp>19.0</ns3:atemp>
          </ns3:TrackPointExtension>
        </extensions>
      </trkpt>
      <trkpt lat="42.562931142747402191162109375" lon="20.093067102134227752685546875">
        <ele>2026.199951171875</ele>
        <time>2026-06-19T12:31:42.000Z</time>
        <extensions>
          <ns3:TrackPointExtension>
            <ns3:atemp>19.0</ns3:atemp>
          </ns3:TrackPointExtension>
        </extensions>
      </trkpt>
      <trkpt lat="42.562931142747402191162109375" lon="20.093067102134227752685546875">
        <ele>2026.199951171875</ele>
        <time>2026-06-19T12:31:43.000Z</time>
        <extensions>
          <ns3:TrackPointExtension>
            <ns3:atemp>19.0</ns3:atemp>
          </ns3:TrackPointExtension>
        </extensions>
      </trkpt>
      <trkpt lat="42.562931142747402191162109375" lon="20.093067102134227752685546875">
        <ele>2026.4000244140625</ele>
        <time>2026-06-19T12:31:44.000Z</time>
        <extensions>
          <ns3:TrackPointExtension>
            <ns3:atemp>19.0</ns3:atemp>
          </ns3:TrackPointExtension>
        </extensions>
      </trkpt>
      <trkpt lat="42.562931142747402191162109375" lon="20.093067102134227752685546875">
        <ele>2026.4000244140625</ele>
        <time>2026-06-19T12:31:45.000Z</time>
        <extensions>
          <ns3:TrackPointExtension>
            <ns3:atemp>19.0</ns3:atemp>
          </ns3:TrackPointExtension>
        </extensions>
      </trkpt>
      <trkpt lat="42.562931142747402191162109375" lon="20.093067102134227752685546875">
        <ele>2026.4000244140625</ele>
        <time>2026-06-19T12:31:46.000Z</time>
        <extensions>
          <ns3:TrackPointExtension>
            <ns3:atemp>19.0</ns3:atemp>
          </ns3:TrackPointExtension>
        </extensions>
      </trkpt>
      <trkpt lat="42.562931142747402191162109375" lon="20.093067102134227752685546875">
        <ele>2026.4000244140625</ele>
        <time>2026-06-19T12:31:47.000Z</time>
        <extensions>
          <ns3:TrackPointExtension>
            <ns3:atemp>19.0</ns3:atemp>
          </ns3:TrackPointExtension>
        </extensions>
      </trkpt>
      <trkpt lat="42.562931142747402191162109375" lon="20.093067102134227752685546875">
        <ele>2026.4000244140625</ele>
        <time>2026-06-19T12:31:48.000Z</time>
        <extensions>
          <ns3:TrackPointExtension>
            <ns3:atemp>19.0</ns3:atemp>
          </ns3:TrackPointExtension>
        </extensions>
      </trkpt>
      <trkpt lat="42.562931142747402191162109375" lon="20.093067102134227752685546875">
        <ele>2026.4000244140625</ele>
        <time>2026-06-19T12:31:49.000Z</time>
        <extensions>
          <ns3:TrackPointExtension>
            <ns3:atemp>19.0</ns3:atemp>
          </ns3:TrackPointExtension>
        </extensions>
      </trkpt>
      <trkpt lat="42.562931142747402191162109375" lon="20.093067102134227752685546875">
        <ele>2026.199951171875</ele>
        <time>2026-06-19T12:31:50.000Z</time>
        <extensions>
          <ns3:TrackPointExtension>
            <ns3:atemp>19.0</ns3:atemp>
          </ns3:TrackPointExtension>
        </extensions>
      </trkpt>
      <trkpt lat="42.562931142747402191162109375" lon="20.093067102134227752685546875">
        <ele>2026.199951171875</ele>
        <time>2026-06-19T12:31:51.000Z</time>
        <extensions>
          <ns3:TrackPointExtension>
            <ns3:atemp>19.0</ns3:atemp>
          </ns3:TrackPointExtension>
        </extensions>
      </trkpt>
      <trkpt lat="42.562931142747402191162109375" lon="20.093067102134227752685546875">
        <ele>2026.199951171875</ele>
        <time>2026-06-19T12:31:52.000Z</time>
        <extensions>
          <ns3:TrackPointExtension>
            <ns3:atemp>19.0</ns3:atemp>
          </ns3:TrackPointExtension>
        </extensions>
      </trkpt>
      <trkpt lat="42.562931142747402191162109375" lon="20.093067102134227752685546875">
        <ele>2026.199951171875</ele>
        <time>2026-06-19T12:31:53.000Z</time>
        <extensions>
          <ns3:TrackPointExtension>
            <ns3:atemp>19.0</ns3:atemp>
          </ns3:TrackPointExtension>
        </extensions>
      </trkpt>
      <trkpt lat="42.562931142747402191162109375" lon="20.093067102134227752685546875">
        <ele>2026.4000244140625</ele>
        <time>2026-06-19T12:31:54.000Z</time>
        <extensions>
          <ns3:TrackPointExtension>
            <ns3:atemp>19.0</ns3:atemp>
          </ns3:TrackPointExtension>
        </extensions>
      </trkpt>
      <trkpt lat="42.562931142747402191162109375" lon="20.093067102134227752685546875">
        <ele>2026.199951171875</ele>
        <time>2026-06-19T12:31:55.000Z</time>
        <extensions>
          <ns3:TrackPointExtension>
            <ns3:atemp>19.0</ns3:atemp>
          </ns3:TrackPointExtension>
        </extensions>
      </trkpt>
      <trkpt lat="42.562931142747402191162109375" lon="20.093067102134227752685546875">
        <ele>2026.199951171875</ele>
        <time>2026-06-19T12:31:56.000Z</time>
        <extensions>
          <ns3:TrackPointExtension>
            <ns3:atemp>19.0</ns3:atemp>
          </ns3:TrackPointExtension>
        </extensions>
      </trkpt>
      <trkpt lat="42.562931142747402191162109375" lon="20.093067102134227752685546875">
        <ele>2026.199951171875</ele>
        <time>2026-06-19T12:31:57.000Z</time>
        <extensions>
          <ns3:TrackPointExtension>
            <ns3:atemp>19.0</ns3:atemp>
          </ns3:TrackPointExtension>
        </extensions>
      </trkpt>
      <trkpt lat="42.562931142747402191162109375" lon="20.093067102134227752685546875">
        <ele>2026.199951171875</ele>
        <time>2026-06-19T12:31:58.000Z</time>
        <extensions>
          <ns3:TrackPointExtension>
            <ns3:atemp>19.0</ns3:atemp>
          </ns3:TrackPointExtension>
        </extensions>
      </trkpt>
      <trkpt lat="42.562931142747402191162109375" lon="20.093067102134227752685546875">
        <ele>2026.199951171875</ele>
        <time>2026-06-19T12:31:59.000Z</time>
        <extensions>
          <ns3:TrackPointExtension>
            <ns3:atemp>19.0</ns3:atemp>
          </ns3:TrackPointExtension>
        </extensions>
      </trkpt>
      <trkpt lat="42.562931142747402191162109375" lon="20.093067102134227752685546875">
        <ele>2026.199951171875</ele>
        <time>2026-06-19T12:32:00.000Z</time>
        <extensions>
          <ns3:TrackPointExtension>
            <ns3:atemp>19.0</ns3:atemp>
          </ns3:TrackPointExtension>
        </extensions>
      </trkpt>
      <trkpt lat="42.562931142747402191162109375" lon="20.093067102134227752685546875">
        <ele>2026.199951171875</ele>
        <time>2026-06-19T12:32:01.000Z</time>
        <extensions>
          <ns3:TrackPointExtension>
            <ns3:atemp>19.0</ns3:atemp>
          </ns3:TrackPointExtension>
        </extensions>
      </trkpt>
      <trkpt lat="42.562931142747402191162109375" lon="20.093067102134227752685546875">
        <ele>2026.199951171875</ele>
        <time>2026-06-19T12:32:02.000Z</time>
        <extensions>
          <ns3:TrackPointExtension>
            <ns3:atemp>19.0</ns3:atemp>
          </ns3:TrackPointExtension>
        </extensions>
      </trkpt>
      <trkpt lat="42.562931142747402191162109375" lon="20.093067102134227752685546875">
        <ele>2026</ele>
        <time>2026-06-19T12:32:03.000Z</time>
        <extensions>
          <ns3:TrackPointExtension>
            <ns3:atemp>19.0</ns3:atemp>
          </ns3:TrackPointExtension>
        </extensions>
      </trkpt>
      <trkpt lat="42.562931142747402191162109375" lon="20.093067102134227752685546875">
        <ele>2026</ele>
        <time>2026-06-19T12:32:04.000Z</time>
        <extensions>
          <ns3:TrackPointExtension>
            <ns3:atemp>19.0</ns3:atemp>
          </ns3:TrackPointExtension>
        </extensions>
      </trkpt>
      <trkpt lat="42.562931142747402191162109375" lon="20.093067102134227752685546875">
        <ele>2026.199951171875</ele>
        <time>2026-06-19T12:32:05.000Z</time>
        <extensions>
          <ns3:TrackPointExtension>
            <ns3:atemp>19.0</ns3:atemp>
          </ns3:TrackPointExtension>
        </extensions>
      </trkpt>
      <trkpt lat="42.56293374113738536834716796875" lon="20.09306768886744976043701171875">
        <ele>2026.199951171875</ele>
        <time>2026-06-19T12:32:06.000Z</time>
        <extensions>
          <ns3:TrackPointExtension>
            <ns3:atemp>19.0</ns3:atemp>
          </ns3:TrackPointExtension>
        </extensions>
      </trkpt>
      <trkpt lat="42.56293893791735172271728515625" lon="20.0930726341903209686279296875">
        <ele>2026.199951171875</ele>
        <time>2026-06-19T12:32:07.000Z</time>
        <extensions>
          <ns3:TrackPointExtension>
            <ns3:atemp>19.0</ns3:atemp>
          </ns3:TrackPointExtension>
        </extensions>
      </trkpt>
      <trkpt lat="42.562944889068603515625" lon="20.093083195388317108154296875">
        <ele>2026.4000244140625</ele>
        <time>2026-06-19T12:32:08.000Z</time>
        <extensions>
          <ns3:TrackPointExtension>
            <ns3:atemp>19.0</ns3:atemp>
          </ns3:TrackPointExtension>
        </extensions>
      </trkpt>
      <trkpt lat="42.562949247658252716064453125" lon="20.09308696724474430084228515625">
        <ele>2026.5999755859375</ele>
        <time>2026-06-19T12:32:09.000Z</time>
        <extensions>
          <ns3:TrackPointExtension>
            <ns3:atemp>19.0</ns3:atemp>
          </ns3:TrackPointExtension>
        </extensions>
      </trkpt>
      <trkpt lat="42.56295167841017246246337890625" lon="20.09308797307312488555908203125">
        <ele>2026.5999755859375</ele>
        <time>2026-06-19T12:32:10.000Z</time>
        <extensions>
          <ns3:TrackPointExtension>
            <ns3:atemp>19.0</ns3:atemp>
          </ns3:TrackPointExtension>
        </extensions>
      </trkpt>
      <trkpt lat="42.56295167841017246246337890625" lon="20.09308797307312488555908203125">
        <ele>2026.5999755859375</ele>
        <time>2026-06-19T12:32:11.000Z</time>
        <extensions>
          <ns3:TrackPointExtension>
            <ns3:atemp>19.0</ns3:atemp>
          </ns3:TrackPointExtension>
        </extensions>
      </trkpt>
      <trkpt lat="42.56295762956142425537109375" lon="20.093097276985645294189453125">
        <ele>2026.5999755859375</ele>
        <time>2026-06-19T12:32:12.000Z</time>
        <extensions>
          <ns3:TrackPointExtension>
            <ns3:atemp>19.0</ns3:atemp>
          </ns3:TrackPointExtension>
        </extensions>
      </trkpt>
      <trkpt lat="42.56295788101851940155029296875" lon="20.09310071356594562530517578125">
        <ele>2026.5999755859375</ele>
        <time>2026-06-19T12:32:13.000Z</time>
        <extensions>
          <ns3:TrackPointExtension>
            <ns3:atemp>19.0</ns3:atemp>
          </ns3:TrackPointExtension>
        </extensions>
      </trkpt>
      <trkpt lat="42.56295788101851940155029296875" lon="20.09310071356594562530517578125">
        <ele>2026.5999755859375</ele>
        <time>2026-06-19T12:32:14.000Z</time>
        <extensions>
          <ns3:TrackPointExtension>
            <ns3:atemp>19.0</ns3:atemp>
          </ns3:TrackPointExtension>
        </extensions>
      </trkpt>
      <trkpt lat="42.56295788101851940155029296875" lon="20.09310071356594562530517578125">
        <ele>2026.800048828125</ele>
        <time>2026-06-19T12:32:15.000Z</time>
        <extensions>
          <ns3:TrackPointExtension>
            <ns3:atemp>19.0</ns3:atemp>
          </ns3:TrackPointExtension>
        </extensions>
      </trkpt>
      <trkpt lat="42.56295788101851940155029296875" lon="20.09310071356594562530517578125">
        <ele>2026.800048828125</ele>
        <time>2026-06-19T12:32:16.000Z</time>
        <extensions>
          <ns3:TrackPointExtension>
            <ns3:atemp>19.0</ns3:atemp>
          </ns3:TrackPointExtension>
        </extensions>
      </trkpt>
      <trkpt lat="42.56295788101851940155029296875" lon="20.09310071356594562530517578125">
        <ele>2027</ele>
        <time>2026-06-19T12:32:17.000Z</time>
        <extensions>
          <ns3:TrackPointExtension>
            <ns3:atemp>19.0</ns3:atemp>
          </ns3:TrackPointExtension>
        </extensions>
      </trkpt>
      <trkpt lat="42.56295788101851940155029296875" lon="20.09310071356594562530517578125">
        <ele>2027</ele>
        <time>2026-06-19T12:32:18.000Z</time>
        <extensions>
          <ns3:TrackPointExtension>
            <ns3:atemp>19.0</ns3:atemp>
          </ns3:TrackPointExtension>
        </extensions>
      </trkpt>
      <trkpt lat="42.56295788101851940155029296875" lon="20.09310071356594562530517578125">
        <ele>2027</ele>
        <time>2026-06-19T12:32:19.000Z</time>
        <extensions>
          <ns3:TrackPointExtension>
            <ns3:atemp>19.0</ns3:atemp>
          </ns3:TrackPointExtension>
        </extensions>
      </trkpt>
      <trkpt lat="42.56295788101851940155029296875" lon="20.09310071356594562530517578125">
        <ele>2027</ele>
        <time>2026-06-19T12:32:20.000Z</time>
        <extensions>
          <ns3:TrackPointExtension>
            <ns3:atemp>19.0</ns3:atemp>
          </ns3:TrackPointExtension>
        </extensions>
      </trkpt>
      <trkpt lat="42.56295788101851940155029296875" lon="20.09310071356594562530517578125">
        <ele>2027</ele>
        <time>2026-06-19T12:32:21.000Z</time>
        <extensions>
          <ns3:TrackPointExtension>
            <ns3:atemp>19.0</ns3:atemp>
          </ns3:TrackPointExtension>
        </extensions>
      </trkpt>
      <trkpt lat="42.56295788101851940155029296875" lon="20.09310071356594562530517578125">
        <ele>2027.199951171875</ele>
        <time>2026-06-19T12:32:22.000Z</time>
        <extensions>
          <ns3:TrackPointExtension>
            <ns3:atemp>19.0</ns3:atemp>
          </ns3:TrackPointExtension>
        </extensions>
      </trkpt>
      <trkpt lat="42.56295788101851940155029296875" lon="20.09310071356594562530517578125">
        <ele>2027.199951171875</ele>
        <time>2026-06-19T12:32:23.000Z</time>
        <extensions>
          <ns3:TrackPointExtension>
            <ns3:atemp>19.0</ns3:atemp>
          </ns3:TrackPointExtension>
        </extensions>
      </trkpt>
      <trkpt lat="42.56295788101851940155029296875" lon="20.09310071356594562530517578125">
        <ele>2027.4000244140625</ele>
        <time>2026-06-19T12:32:24.000Z</time>
        <extensions>
          <ns3:TrackPointExtension>
            <ns3:atemp>19.0</ns3:atemp>
          </ns3:TrackPointExtension>
        </extensions>
      </trkpt>
      <trkpt lat="42.56295788101851940155029296875" lon="20.09310071356594562530517578125">
        <ele>2027.4000244140625</ele>
        <time>2026-06-19T12:32:25.000Z</time>
        <extensions>
          <ns3:TrackPointExtension>
            <ns3:atemp>19.0</ns3:atemp>
          </ns3:TrackPointExtension>
        </extensions>
      </trkpt>
      <trkpt lat="42.56295788101851940155029296875" lon="20.09310071356594562530517578125">
        <ele>2027.5999755859375</ele>
        <time>2026-06-19T12:32:26.000Z</time>
        <extensions>
          <ns3:TrackPointExtension>
            <ns3:atemp>19.0</ns3:atemp>
          </ns3:TrackPointExtension>
        </extensions>
      </trkpt>
      <trkpt lat="42.56295788101851940155029296875" lon="20.09310071356594562530517578125">
        <ele>2027.5999755859375</ele>
        <time>2026-06-19T12:32:27.000Z</time>
        <extensions>
          <ns3:TrackPointExtension>
            <ns3:atemp>19.0</ns3:atemp>
          </ns3:TrackPointExtension>
        </extensions>
      </trkpt>
      <trkpt lat="42.56295788101851940155029296875" lon="20.09310071356594562530517578125">
        <ele>2027.5999755859375</ele>
        <time>2026-06-19T12:32:28.000Z</time>
        <extensions>
          <ns3:TrackPointExtension>
            <ns3:atemp>19.0</ns3:atemp>
          </ns3:TrackPointExtension>
        </extensions>
      </trkpt>
      <trkpt lat="42.56295788101851940155029296875" lon="20.09310071356594562530517578125">
        <ele>2027.4000244140625</ele>
        <time>2026-06-19T12:32:29.000Z</time>
        <extensions>
          <ns3:TrackPointExtension>
            <ns3:atemp>19.0</ns3:atemp>
          </ns3:TrackPointExtension>
        </extensions>
      </trkpt>
      <trkpt lat="42.56295788101851940155029296875" lon="20.09310071356594562530517578125">
        <ele>2027.4000244140625</ele>
        <time>2026-06-19T12:32:30.000Z</time>
        <extensions>
          <ns3:TrackPointExtension>
            <ns3:atemp>19.0</ns3:atemp>
          </ns3:TrackPointExtension>
        </extensions>
      </trkpt>
      <trkpt lat="42.56295821629464626312255859375" lon="20.09309853427112102508544921875">
        <ele>2027.199951171875</ele>
        <time>2026-06-19T12:32:31.000Z</time>
        <extensions>
          <ns3:TrackPointExtension>
            <ns3:atemp>19.0</ns3:atemp>
          </ns3:TrackPointExtension>
        </extensions>
      </trkpt>
      <trkpt lat="42.56295788101851940155029296875" lon="20.09310071356594562530517578125">
        <ele>2027.4000244140625</ele>
        <time>2026-06-19T12:32:32.000Z</time>
        <extensions>
          <ns3:TrackPointExtension>
            <ns3:atemp>19.0</ns3:atemp>
          </ns3:TrackPointExtension>
        </extensions>
      </trkpt>
      <trkpt lat="42.56295788101851940155029296875" lon="20.09310071356594562530517578125">
        <ele>2027.4000244140625</ele>
        <time>2026-06-19T12:32:33.000Z</time>
        <extensions>
          <ns3:TrackPointExtension>
            <ns3:atemp>19.0</ns3:atemp>
          </ns3:TrackPointExtension>
        </extensions>
      </trkpt>
      <trkpt lat="42.56295788101851940155029296875" lon="20.09310071356594562530517578125">
        <ele>2027.5999755859375</ele>
        <time>2026-06-19T12:32:34.000Z</time>
        <extensions>
          <ns3:TrackPointExtension>
            <ns3:atemp>19.0</ns3:atemp>
          </ns3:TrackPointExtension>
        </extensions>
      </trkpt>
      <trkpt lat="42.56295788101851940155029296875" lon="20.09310071356594562530517578125">
        <ele>2027.5999755859375</ele>
        <time>2026-06-19T12:32:35.000Z</time>
        <extensions>
          <ns3:TrackPointExtension>
            <ns3:atemp>19.0</ns3:atemp>
          </ns3:TrackPointExtension>
        </extensions>
      </trkpt>
      <trkpt lat="42.56295788101851940155029296875" lon="20.09310071356594562530517578125">
        <ele>2027.5999755859375</ele>
        <time>2026-06-19T12:32:36.000Z</time>
        <extensions>
          <ns3:TrackPointExtension>
            <ns3:atemp>19.0</ns3:atemp>
          </ns3:TrackPointExtension>
        </extensions>
      </trkpt>
      <trkpt lat="42.56295788101851940155029296875" lon="20.09310071356594562530517578125">
        <ele>2027.800048828125</ele>
        <time>2026-06-19T12:32:37.000Z</time>
        <extensions>
          <ns3:TrackPointExtension>
            <ns3:atemp>19.0</ns3:atemp>
          </ns3:TrackPointExtension>
        </extensions>
      </trkpt>
      <trkpt lat="42.56295788101851940155029296875" lon="20.09310071356594562530517578125">
        <ele>2027.800048828125</ele>
        <time>2026-06-19T12:32:38.000Z</time>
        <extensions>
          <ns3:TrackPointExtension>
            <ns3:atemp>19.0</ns3:atemp>
          </ns3:TrackPointExtension>
        </extensions>
      </trkpt>
      <trkpt lat="42.56295788101851940155029296875" lon="20.09310071356594562530517578125">
        <ele>2027.800048828125</ele>
        <time>2026-06-19T12:32:39.000Z</time>
        <extensions>
          <ns3:TrackPointExtension>
            <ns3:atemp>19.0</ns3:atemp>
          </ns3:TrackPointExtension>
        </extensions>
      </trkpt>
      <trkpt lat="42.56295788101851940155029296875" lon="20.09310071356594562530517578125">
        <ele>2027.800048828125</ele>
        <time>2026-06-19T12:32:40.000Z</time>
        <extensions>
          <ns3:TrackPointExtension>
            <ns3:atemp>19.0</ns3:atemp>
          </ns3:TrackPointExtension>
        </extensions>
      </trkpt>
      <trkpt lat="42.56295788101851940155029296875" lon="20.09310071356594562530517578125">
        <ele>2028</ele>
        <time>2026-06-19T12:32:41.000Z</time>
        <extensions>
          <ns3:TrackPointExtension>
            <ns3:atemp>19.0</ns3:atemp>
          </ns3:TrackPointExtension>
        </extensions>
      </trkpt>
      <trkpt lat="42.56295788101851940155029296875" lon="20.09310071356594562530517578125">
        <ele>2028</ele>
        <time>2026-06-19T12:32:42.000Z</time>
        <extensions>
          <ns3:TrackPointExtension>
            <ns3:atemp>19.0</ns3:atemp>
          </ns3:TrackPointExtension>
        </extensions>
      </trkpt>
      <trkpt lat="42.56295788101851940155029296875" lon="20.09310071356594562530517578125">
        <ele>2028.199951171875</ele>
        <time>2026-06-19T12:32:43.000Z</time>
        <extensions>
          <ns3:TrackPointExtension>
            <ns3:atemp>19.0</ns3:atemp>
          </ns3:TrackPointExtension>
        </extensions>
      </trkpt>
      <trkpt lat="42.56295788101851940155029296875" lon="20.09310071356594562530517578125">
        <ele>2028.199951171875</ele>
        <time>2026-06-19T12:32:44.000Z</time>
        <extensions>
          <ns3:TrackPointExtension>
            <ns3:atemp>19.0</ns3:atemp>
          </ns3:TrackPointExtension>
        </extensions>
      </trkpt>
      <trkpt lat="42.56295788101851940155029296875" lon="20.09310071356594562530517578125">
        <ele>2028.199951171875</ele>
        <time>2026-06-19T12:32:45.000Z</time>
        <extensions>
          <ns3:TrackPointExtension>
            <ns3:atemp>19.0</ns3:atemp>
          </ns3:TrackPointExtension>
        </extensions>
      </trkpt>
      <trkpt lat="42.56295788101851940155029296875" lon="20.09310071356594562530517578125">
        <ele>2028.199951171875</ele>
        <time>2026-06-19T12:32:46.000Z</time>
        <extensions>
          <ns3:TrackPointExtension>
            <ns3:atemp>19.0</ns3:atemp>
          </ns3:TrackPointExtension>
        </extensions>
      </trkpt>
      <trkpt lat="42.56295788101851940155029296875" lon="20.09310071356594562530517578125">
        <ele>2028.199951171875</ele>
        <time>2026-06-19T12:32:47.000Z</time>
        <extensions>
          <ns3:TrackPointExtension>
            <ns3:atemp>19.0</ns3:atemp>
          </ns3:TrackPointExtension>
        </extensions>
      </trkpt>
      <trkpt lat="42.56295788101851940155029296875" lon="20.09310071356594562530517578125">
        <ele>2028.4000244140625</ele>
        <time>2026-06-19T12:32:48.000Z</time>
        <extensions>
          <ns3:TrackPointExtension>
            <ns3:atemp>19.0</ns3:atemp>
          </ns3:TrackPointExtension>
        </extensions>
      </trkpt>
      <trkpt lat="42.56295788101851940155029296875" lon="20.09310071356594562530517578125">
        <ele>2028.4000244140625</ele>
        <time>2026-06-19T12:32:49.000Z</time>
        <extensions>
          <ns3:TrackPointExtension>
            <ns3:atemp>19.0</ns3:atemp>
          </ns3:TrackPointExtension>
        </extensions>
      </trkpt>
      <trkpt lat="42.56295788101851940155029296875" lon="20.09310071356594562530517578125">
        <ele>2028.4000244140625</ele>
        <time>2026-06-19T12:32:50.000Z</time>
        <extensions>
          <ns3:TrackPointExtension>
            <ns3:atemp>19.0</ns3:atemp>
          </ns3:TrackPointExtension>
        </extensions>
      </trkpt>
      <trkpt lat="42.56295788101851940155029296875" lon="20.09310071356594562530517578125">
        <ele>2028.4000244140625</ele>
        <time>2026-06-19T12:32:51.000Z</time>
        <extensions>
          <ns3:TrackPointExtension>
            <ns3:atemp>19.0</ns3:atemp>
          </ns3:TrackPointExtension>
        </extensions>
      </trkpt>
      <trkpt lat="42.56295788101851940155029296875" lon="20.09310071356594562530517578125">
        <ele>2028.4000244140625</ele>
        <time>2026-06-19T12:32:52.000Z</time>
        <extensions>
          <ns3:TrackPointExtension>
            <ns3:atemp>19.0</ns3:atemp>
          </ns3:TrackPointExtension>
        </extensions>
      </trkpt>
      <trkpt lat="42.56295788101851940155029296875" lon="20.09310071356594562530517578125">
        <ele>2028.4000244140625</ele>
        <time>2026-06-19T12:32:53.000Z</time>
        <extensions>
          <ns3:TrackPointExtension>
            <ns3:atemp>19.0</ns3:atemp>
          </ns3:TrackPointExtension>
        </extensions>
      </trkpt>
      <trkpt lat="42.56295788101851940155029296875" lon="20.09310071356594562530517578125">
        <ele>2028.4000244140625</ele>
        <time>2026-06-19T12:32:54.000Z</time>
        <extensions>
          <ns3:TrackPointExtension>
            <ns3:atemp>19.0</ns3:atemp>
          </ns3:TrackPointExtension>
        </extensions>
      </trkpt>
      <trkpt lat="42.56295788101851940155029296875" lon="20.09310071356594562530517578125">
        <ele>2028.4000244140625</ele>
        <time>2026-06-19T12:32:55.000Z</time>
        <extensions>
          <ns3:TrackPointExtension>
            <ns3:atemp>19.0</ns3:atemp>
          </ns3:TrackPointExtension>
        </extensions>
      </trkpt>
      <trkpt lat="42.56295788101851940155029296875" lon="20.09310071356594562530517578125">
        <ele>2028.4000244140625</ele>
        <time>2026-06-19T12:32:56.000Z</time>
        <extensions>
          <ns3:TrackPointExtension>
            <ns3:atemp>19.0</ns3:atemp>
          </ns3:TrackPointExtension>
        </extensions>
      </trkpt>
      <trkpt lat="42.56295788101851940155029296875" lon="20.09310071356594562530517578125">
        <ele>2028.4000244140625</ele>
        <time>2026-06-19T12:32:57.000Z</time>
        <extensions>
          <ns3:TrackPointExtension>
            <ns3:atemp>19.0</ns3:atemp>
          </ns3:TrackPointExtension>
        </extensions>
      </trkpt>
      <trkpt lat="42.56295788101851940155029296875" lon="20.09310071356594562530517578125">
        <ele>2028.4000244140625</ele>
        <time>2026-06-19T12:32:58.000Z</time>
        <extensions>
          <ns3:TrackPointExtension>
            <ns3:atemp>19.0</ns3:atemp>
          </ns3:TrackPointExtension>
        </extensions>
      </trkpt>
      <trkpt lat="42.56295788101851940155029296875" lon="20.09310071356594562530517578125">
        <ele>2028.4000244140625</ele>
        <time>2026-06-19T12:32:59.000Z</time>
        <extensions>
          <ns3:TrackPointExtension>
            <ns3:atemp>19.0</ns3:atemp>
          </ns3:TrackPointExtension>
        </extensions>
      </trkpt>
      <trkpt lat="42.56295788101851940155029296875" lon="20.09310071356594562530517578125">
        <ele>2028.4000244140625</ele>
        <time>2026-06-19T12:33:00.000Z</time>
        <extensions>
          <ns3:TrackPointExtension>
            <ns3:atemp>19.0</ns3:atemp>
          </ns3:TrackPointExtension>
        </extensions>
      </trkpt>
      <trkpt lat="42.56295788101851940155029296875" lon="20.09310071356594562530517578125">
        <ele>2028.4000244140625</ele>
        <time>2026-06-19T12:33:01.000Z</time>
        <extensions>
          <ns3:TrackPointExtension>
            <ns3:atemp>19.0</ns3:atemp>
          </ns3:TrackPointExtension>
        </extensions>
      </trkpt>
      <trkpt lat="42.56295788101851940155029296875" lon="20.09310071356594562530517578125">
        <ele>2028.4000244140625</ele>
        <time>2026-06-19T12:33:02.000Z</time>
        <extensions>
          <ns3:TrackPointExtension>
            <ns3:atemp>19.0</ns3:atemp>
          </ns3:TrackPointExtension>
        </extensions>
      </trkpt>
      <trkpt lat="42.56295788101851940155029296875" lon="20.09310071356594562530517578125">
        <ele>2028.4000244140625</ele>
        <time>2026-06-19T12:33:03.000Z</time>
        <extensions>
          <ns3:TrackPointExtension>
            <ns3:atemp>19.0</ns3:atemp>
          </ns3:TrackPointExtension>
        </extensions>
      </trkpt>
      <trkpt lat="42.56295788101851940155029296875" lon="20.09310071356594562530517578125">
        <ele>2028.4000244140625</ele>
        <time>2026-06-19T12:33:04.000Z</time>
        <extensions>
          <ns3:TrackPointExtension>
            <ns3:atemp>19.0</ns3:atemp>
          </ns3:TrackPointExtension>
        </extensions>
      </trkpt>
      <trkpt lat="42.56295788101851940155029296875" lon="20.09310071356594562530517578125">
        <ele>2028.4000244140625</ele>
        <time>2026-06-19T12:33:05.000Z</time>
        <extensions>
          <ns3:TrackPointExtension>
            <ns3:atemp>19.0</ns3:atemp>
          </ns3:TrackPointExtension>
        </extensions>
      </trkpt>
      <trkpt lat="42.56295788101851940155029296875" lon="20.09310071356594562530517578125">
        <ele>2028.4000244140625</ele>
        <time>2026-06-19T12:33:06.000Z</time>
        <extensions>
          <ns3:TrackPointExtension>
            <ns3:atemp>19.0</ns3:atemp>
          </ns3:TrackPointExtension>
        </extensions>
      </trkpt>
      <trkpt lat="42.56295788101851940155029296875" lon="20.09310071356594562530517578125">
        <ele>2028.4000244140625</ele>
        <time>2026-06-19T12:33:07.000Z</time>
        <extensions>
          <ns3:TrackPointExtension>
            <ns3:atemp>19.0</ns3:atemp>
          </ns3:TrackPointExtension>
        </extensions>
      </trkpt>
      <trkpt lat="42.56295788101851940155029296875" lon="20.09310071356594562530517578125">
        <ele>2028.4000244140625</ele>
        <time>2026-06-19T12:33:08.000Z</time>
        <extensions>
          <ns3:TrackPointExtension>
            <ns3:atemp>19.0</ns3:atemp>
          </ns3:TrackPointExtension>
        </extensions>
      </trkpt>
      <trkpt lat="42.56295788101851940155029296875" lon="20.09310071356594562530517578125">
        <ele>2028.4000244140625</ele>
        <time>2026-06-19T12:33:09.000Z</time>
        <extensions>
          <ns3:TrackPointExtension>
            <ns3:atemp>19.0</ns3:atemp>
          </ns3:TrackPointExtension>
        </extensions>
      </trkpt>
      <trkpt lat="42.56295788101851940155029296875" lon="20.09310071356594562530517578125">
        <ele>2028.5999755859375</ele>
        <time>2026-06-19T12:33:10.000Z</time>
        <extensions>
          <ns3:TrackPointExtension>
            <ns3:atemp>19.0</ns3:atemp>
          </ns3:TrackPointExtension>
        </extensions>
      </trkpt>
      <trkpt lat="42.56295788101851940155029296875" lon="20.09310071356594562530517578125">
        <ele>2028.5999755859375</ele>
        <time>2026-06-19T12:33:11.000Z</time>
        <extensions>
          <ns3:TrackPointExtension>
            <ns3:atemp>19.0</ns3:atemp>
          </ns3:TrackPointExtension>
        </extensions>
      </trkpt>
      <trkpt lat="42.56295788101851940155029296875" lon="20.09310071356594562530517578125">
        <ele>2028.5999755859375</ele>
        <time>2026-06-19T12:33:12.000Z</time>
        <extensions>
          <ns3:TrackPointExtension>
            <ns3:atemp>19.0</ns3:atemp>
          </ns3:TrackPointExtension>
        </extensions>
      </trkpt>
      <trkpt lat="42.56295788101851940155029296875" lon="20.09310071356594562530517578125">
        <ele>2028.5999755859375</ele>
        <time>2026-06-19T12:33:13.000Z</time>
        <extensions>
          <ns3:TrackPointExtension>
            <ns3:atemp>19.0</ns3:atemp>
          </ns3:TrackPointExtension>
        </extensions>
      </trkpt>
      <trkpt lat="42.56295788101851940155029296875" lon="20.09310071356594562530517578125">
        <ele>2028.4000244140625</ele>
        <time>2026-06-19T12:33:14.000Z</time>
        <extensions>
          <ns3:TrackPointExtension>
            <ns3:atemp>19.0</ns3:atemp>
          </ns3:TrackPointExtension>
        </extensions>
      </trkpt>
      <trkpt lat="42.56295788101851940155029296875" lon="20.09310071356594562530517578125">
        <ele>2028.4000244140625</ele>
        <time>2026-06-19T12:33:15.000Z</time>
        <extensions>
          <ns3:TrackPointExtension>
            <ns3:atemp>19.0</ns3:atemp>
          </ns3:TrackPointExtension>
        </extensions>
      </trkpt>
      <trkpt lat="42.56295788101851940155029296875" lon="20.09310071356594562530517578125">
        <ele>2028.4000244140625</ele>
        <time>2026-06-19T12:33:16.000Z</time>
        <extensions>
          <ns3:TrackPointExtension>
            <ns3:atemp>20.0</ns3:atemp>
          </ns3:TrackPointExtension>
        </extensions>
      </trkpt>
      <trkpt lat="42.56295788101851940155029296875" lon="20.09310071356594562530517578125">
        <ele>2028.5999755859375</ele>
        <time>2026-06-19T12:33:17.000Z</time>
        <extensions>
          <ns3:TrackPointExtension>
            <ns3:atemp>20.0</ns3:atemp>
          </ns3:TrackPointExtension>
        </extensions>
      </trkpt>
      <trkpt lat="42.56295788101851940155029296875" lon="20.09310071356594562530517578125">
        <ele>2028.5999755859375</ele>
        <time>2026-06-19T12:33:18.000Z</time>
        <extensions>
          <ns3:TrackPointExtension>
            <ns3:atemp>20.0</ns3:atemp>
          </ns3:TrackPointExtension>
        </extensions>
      </trkpt>
      <trkpt lat="42.56295788101851940155029296875" lon="20.09310071356594562530517578125">
        <ele>2028.800048828125</ele>
        <time>2026-06-19T12:33:19.000Z</time>
        <extensions>
          <ns3:TrackPointExtension>
            <ns3:atemp>20.0</ns3:atemp>
          </ns3:TrackPointExtension>
        </extensions>
      </trkpt>
      <trkpt lat="42.56295788101851940155029296875" lon="20.09310071356594562530517578125">
        <ele>2028.800048828125</ele>
        <time>2026-06-19T12:33:20.000Z</time>
        <extensions>
          <ns3:TrackPointExtension>
            <ns3:atemp>20.0</ns3:atemp>
          </ns3:TrackPointExtension>
        </extensions>
      </trkpt>
      <trkpt lat="42.56296022795140743255615234375" lon="20.09309249930083751678466796875">
        <ele>2028.800048828125</ele>
        <time>2026-06-19T12:33:21.000Z</time>
        <extensions>
          <ns3:TrackPointExtension>
            <ns3:atemp>20.0</ns3:atemp>
          </ns3:TrackPointExtension>
        </extensions>
      </trkpt>
      <trkpt lat="42.56296961568295955657958984375" lon="20.0931135378777980804443359375">
        <ele>2028.800048828125</ele>
        <time>2026-06-19T12:33:22.000Z</time>
        <extensions>
          <ns3:TrackPointExtension>
            <ns3:atemp>20.0</ns3:atemp>
          </ns3:TrackPointExtension>
        </extensions>
      </trkpt>
      <trkpt lat="42.56298243999481201171875" lon="20.09314195252954959869384765625">
        <ele>2028.5999755859375</ele>
        <time>2026-06-19T12:33:23.000Z</time>
        <extensions>
          <ns3:TrackPointExtension>
            <ns3:atemp>20.0</ns3:atemp>
          </ns3:TrackPointExtension>
        </extensions>
      </trkpt>
      <trkpt lat="42.56299526430666446685791015625" lon="20.09316265583038330078125">
        <ele>2028.4000244140625</ele>
        <time>2026-06-19T12:33:24.000Z</time>
        <extensions>
          <ns3:TrackPointExtension>
            <ns3:atemp>20.0</ns3:atemp>
          </ns3:TrackPointExtension>
        </extensions>
      </trkpt>
      <trkpt lat="42.563003562390804290771484375" lon="20.09317380376160144805908203125">
        <ele>2028</ele>
        <time>2026-06-19T12:33:25.000Z</time>
        <extensions>
          <ns3:TrackPointExtension>
            <ns3:atemp>20.0</ns3:atemp>
          </ns3:TrackPointExtension>
        </extensions>
      </trkpt>
      <trkpt lat="42.5630111061036586761474609375" lon="20.0931872986257076263427734375">
        <ele>2027.5999755859375</ele>
        <time>2026-06-19T12:33:26.000Z</time>
        <extensions>
          <ns3:TrackPointExtension>
            <ns3:atemp>20.0</ns3:atemp>
          </ns3:TrackPointExtension>
        </extensions>
      </trkpt>
      <trkpt lat="42.56301873363554477691650390625" lon="20.0932067446410655975341796875">
        <ele>2027.199951171875</ele>
        <time>2026-06-19T12:33:27.000Z</time>
        <extensions>
          <ns3:TrackPointExtension>
            <ns3:atemp>20.0</ns3:atemp>
          </ns3:TrackPointExtension>
        </extensions>
      </trkpt>
      <trkpt lat="42.56303851492702960968017578125" lon="20.09322308935225009918212890625">
        <ele>2026.800048828125</ele>
        <time>2026-06-19T12:33:28.000Z</time>
        <extensions>
          <ns3:TrackPointExtension>
            <ns3:atemp>20.0</ns3:atemp>
          </ns3:TrackPointExtension>
        </extensions>
      </trkpt>
      <trkpt lat="42.56305762566626071929931640625" lon="20.09323214180767536163330078125">
        <ele>2026.199951171875</ele>
        <time>2026-06-19T12:33:29.000Z</time>
        <extensions>
          <ns3:TrackPointExtension>
            <ns3:atemp>20.0</ns3:atemp>
          </ns3:TrackPointExtension>
        </extensions>
      </trkpt>
      <trkpt lat="42.56307623349130153656005859375" lon="20.09324572049081325531005859375">
        <ele>2025.5999755859375</ele>
        <time>2026-06-19T12:33:30.000Z</time>
        <extensions>
          <ns3:TrackPointExtension>
            <ns3:atemp>20.0</ns3:atemp>
          </ns3:TrackPointExtension>
        </extensions>
      </trkpt>
      <trkpt lat="42.5630892254412174224853515625" lon="20.09325544349849224090576171875">
        <ele>2025</ele>
        <time>2026-06-19T12:33:31.000Z</time>
        <extensions>
          <ns3:TrackPointExtension>
            <ns3:atemp>20.0</ns3:atemp>
          </ns3:TrackPointExtension>
        </extensions>
      </trkpt>
      <trkpt lat="42.563101463019847869873046875" lon="20.09326667524874210357666015625">
        <ele>2024.4000244140625</ele>
        <time>2026-06-19T12:33:32.000Z</time>
        <extensions>
          <ns3:TrackPointExtension>
            <ns3:atemp>20.0</ns3:atemp>
          </ns3:TrackPointExtension>
        </extensions>
      </trkpt>
      <trkpt lat="42.56310825236141681671142578125" lon="20.09328897111117839813232421875">
        <ele>2024.199951171875</ele>
        <time>2026-06-19T12:33:33.000Z</time>
        <extensions>
          <ns3:TrackPointExtension>
            <ns3:atemp>20.0</ns3:atemp>
          </ns3:TrackPointExtension>
        </extensions>
      </trkpt>
      <trkpt lat="42.56310506723821163177490234375" lon="20.0933002866804599761962890625">
        <ele>2024</ele>
        <time>2026-06-19T12:33:34.000Z</time>
        <extensions>
          <ns3:TrackPointExtension>
            <ns3:atemp>20.0</ns3:atemp>
          </ns3:TrackPointExtension>
        </extensions>
      </trkpt>
      <trkpt lat="42.5631029717624187469482421875" lon="20.09332585148513317108154296875">
        <ele>2023.800048828125</ele>
        <time>2026-06-19T12:33:35.000Z</time>
        <extensions>
          <ns3:TrackPointExtension>
            <ns3:atemp>20.0</ns3:atemp>
          </ns3:TrackPointExtension>
        </extensions>
      </trkpt>
      <trkpt lat="42.56309651769697666168212890625" lon="20.093355439603328704833984375">
        <ele>2023.199951171875</ele>
        <time>2026-06-19T12:33:36.000Z</time>
        <extensions>
          <ns3:TrackPointExtension>
            <ns3:atemp>20.0</ns3:atemp>
          </ns3:TrackPointExtension>
        </extensions>
      </trkpt>
      <trkpt lat="42.5630919076502323150634765625" lon="20.093382261693477630615234375">
        <ele>2022.800048828125</ele>
        <time>2026-06-19T12:33:37.000Z</time>
        <extensions>
          <ns3:TrackPointExtension>
            <ns3:atemp>20.0</ns3:atemp>
          </ns3:TrackPointExtension>
        </extensions>
      </trkpt>
      <trkpt lat="42.563089393079280853271484375" lon="20.093409083783626556396484375">
        <ele>2022.199951171875</ele>
        <time>2026-06-19T12:33:38.000Z</time>
        <extensions>
          <ns3:TrackPointExtension>
            <ns3:atemp>20.0</ns3:atemp>
          </ns3:TrackPointExtension>
        </extensions>
      </trkpt>
      <trkpt lat="42.5630818493664264678955078125" lon="20.09343422949314117431640625">
        <ele>2021.800048828125</ele>
        <time>2026-06-19T12:33:39.000Z</time>
        <extensions>
          <ns3:TrackPointExtension>
            <ns3:atemp>20.0</ns3:atemp>
          </ns3:TrackPointExtension>
        </extensions>
      </trkpt>
      <trkpt lat="42.5630758143961429595947265625" lon="20.09347119368612766265869140625">
        <ele>2021.5999755859375</ele>
        <time>2026-06-19T12:33:40.000Z</time>
        <extensions>
          <ns3:TrackPointExtension>
            <ns3:atemp>20.0</ns3:atemp>
          </ns3:TrackPointExtension>
        </extensions>
      </trkpt>
      <trkpt lat="42.56306894123554229736328125" lon="20.0935011170804500579833984375">
        <ele>2021.4000244140625</ele>
        <time>2026-06-19T12:33:41.000Z</time>
        <extensions>
          <ns3:TrackPointExtension>
            <ns3:atemp>20.0</ns3:atemp>
          </ns3:TrackPointExtension>
        </extensions>
      </trkpt>
      <trkpt lat="42.56307221017777919769287109375" lon="20.0935260951519012451171875">
        <ele>2021.199951171875</ele>
        <time>2026-06-19T12:33:42.000Z</time>
        <extensions>
          <ns3:TrackPointExtension>
            <ns3:atemp>20.0</ns3:atemp>
          </ns3:TrackPointExtension>
        </extensions>
      </trkpt>
      <trkpt lat="42.56307975389063358306884765625" lon="20.093549229204654693603515625">
        <ele>2021</ele>
        <time>2026-06-19T12:33:43.000Z</time>
        <extensions>
          <ns3:TrackPointExtension>
            <ns3:atemp>20.0</ns3:atemp>
          </ns3:TrackPointExtension>
        </extensions>
      </trkpt>
      <trkpt lat="42.56308637559413909912109375" lon="20.09357362054288387298583984375">
        <ele>2020.800048828125</ele>
        <time>2026-06-19T12:33:44.000Z</time>
        <extensions>
          <ns3:TrackPointExtension>
            <ns3:atemp>20.0</ns3:atemp>
          </ns3:TrackPointExtension>
        </extensions>
      </trkpt>
      <trkpt lat="42.5630939193069934844970703125" lon="20.09360295720398426055908203125">
        <ele>2020.5999755859375</ele>
        <time>2026-06-19T12:33:45.000Z</time>
        <extensions>
          <ns3:TrackPointExtension>
            <ns3:atemp>20.0</ns3:atemp>
          </ns3:TrackPointExtension>
        </extensions>
      </trkpt>
      <trkpt lat="42.5631009601056575775146484375" lon="20.09363665245473384857177734375">
        <ele>2020.4000244140625</ele>
        <time>2026-06-19T12:33:46.000Z</time>
        <extensions>
          <ns3:TrackPointExtension>
            <ns3:atemp>20.0</ns3:atemp>
          </ns3:TrackPointExtension>
        </extensions>
      </trkpt>
      <trkpt lat="42.56310791708528995513916015625" lon="20.09366649203002452850341796875">
        <ele>2020</ele>
        <time>2026-06-19T12:33:47.000Z</time>
        <extensions>
          <ns3:TrackPointExtension>
            <ns3:atemp>20.0</ns3:atemp>
          </ns3:TrackPointExtension>
        </extensions>
      </trkpt>
      <trkpt lat="42.56311328150331974029541015625" lon="20.09370169602334499359130859375">
        <ele>2019.800048828125</ele>
        <time>2026-06-19T12:33:48.000Z</time>
        <extensions>
          <ns3:TrackPointExtension>
            <ns3:atemp>20.0</ns3:atemp>
          </ns3:TrackPointExtension>
        </extensions>
      </trkpt>
      <trkpt lat="42.5631180591881275177001953125" lon="20.09373606182634830474853515625">
        <ele>2019.4000244140625</ele>
        <time>2026-06-19T12:33:49.000Z</time>
        <extensions>
          <ns3:TrackPointExtension>
            <ns3:atemp>20.0</ns3:atemp>
          </ns3:TrackPointExtension>
        </extensions>
      </trkpt>
      <trkpt lat="42.56313063204288482666015625" lon="20.093770511448383331298828125">
        <ele>2019.199951171875</ele>
        <time>2026-06-19T12:33:50.000Z</time>
        <extensions>
          <ns3:TrackPointExtension>
            <ns3:atemp>20.0</ns3:atemp>
          </ns3:TrackPointExtension>
        </extensions>
      </trkpt>
      <trkpt lat="42.56314496509730815887451171875" lon="20.0938075594604015350341796875">
        <ele>2019</ele>
        <time>2026-06-19T12:33:51.000Z</time>
        <extensions>
          <ns3:TrackPointExtension>
            <ns3:atemp>20.0</ns3:atemp>
          </ns3:TrackPointExtension>
        </extensions>
      </trkpt>
      <trkpt lat="42.563162147998809814453125" lon="20.09384267963469028472900390625">
        <ele>2018.800048828125</ele>
        <time>2026-06-19T12:33:52.000Z</time>
        <extensions>
          <ns3:TrackPointExtension>
            <ns3:atemp>20.0</ns3:atemp>
          </ns3:TrackPointExtension>
        </extensions>
      </trkpt>
      <trkpt lat="42.5631794147193431854248046875" lon="20.09388106875121593475341796875">
        <ele>2018.4000244140625</ele>
        <time>2026-06-19T12:33:53.000Z</time>
        <extensions>
          <ns3:TrackPointExtension>
            <ns3:atemp>20.0</ns3:atemp>
          </ns3:TrackPointExtension>
        </extensions>
      </trkpt>
      <trkpt lat="42.56319307722151279449462890625" lon="20.09392029605805873870849609375">
        <ele>2018.199951171875</ele>
        <time>2026-06-19T12:33:54.000Z</time>
        <extensions>
          <ns3:TrackPointExtension>
            <ns3:atemp>20.0</ns3:atemp>
          </ns3:TrackPointExtension>
        </extensions>
      </trkpt>
      <trkpt lat="42.56319777108728885650634765625" lon="20.09396187029778957366943359375">
        <ele>2017.800048828125</ele>
        <time>2026-06-19T12:33:55.000Z</time>
        <extensions>
          <ns3:TrackPointExtension>
            <ns3:atemp>20.0</ns3:atemp>
          </ns3:TrackPointExtension>
        </extensions>
      </trkpt>
      <trkpt lat="42.56320313550531864166259765625" lon="20.0940035283565521240234375">
        <ele>2017.5999755859375</ele>
        <time>2026-06-19T12:33:56.000Z</time>
        <extensions>
          <ns3:TrackPointExtension>
            <ns3:atemp>20.0</ns3:atemp>
          </ns3:TrackPointExtension>
        </extensions>
      </trkpt>
      <trkpt lat="42.56320212967693805694580078125" lon="20.0940392352640628814697265625">
        <ele>2017.199951171875</ele>
        <time>2026-06-19T12:33:57.000Z</time>
        <extensions>
          <ns3:TrackPointExtension>
            <ns3:atemp>20.0</ns3:atemp>
          </ns3:TrackPointExtension>
        </extensions>
      </trkpt>
      <trkpt lat="42.56319634616374969482421875" lon="20.0940732657909393310546875">
        <ele>2016.800048828125</ele>
        <time>2026-06-19T12:33:58.000Z</time>
        <extensions>
          <ns3:TrackPointExtension>
            <ns3:atemp>20.0</ns3:atemp>
          </ns3:TrackPointExtension>
        </extensions>
      </trkpt>
      <trkpt lat="42.563185952603816986083984375" lon="20.09410872124135494232177734375">
        <ele>2016.4000244140625</ele>
        <time>2026-06-19T12:33:59.000Z</time>
        <extensions>
          <ns3:TrackPointExtension>
            <ns3:atemp>20.0</ns3:atemp>
          </ns3:TrackPointExtension>
        </extensions>
      </trkpt>
      <trkpt lat="42.5631795823574066162109375" lon="20.0941414944827556610107421875">
        <ele>2015.800048828125</ele>
        <time>2026-06-19T12:34:00.000Z</time>
        <extensions>
          <ns3:TrackPointExtension>
            <ns3:atemp>20.0</ns3:atemp>
          </ns3:TrackPointExtension>
        </extensions>
      </trkpt>
      <trkpt lat="42.56317933090031147003173828125" lon="20.0941703282296657562255859375">
        <ele>2015.4000244140625</ele>
        <time>2026-06-19T12:34:01.000Z</time>
        <extensions>
          <ns3:TrackPointExtension>
            <ns3:atemp>20.0</ns3:atemp>
          </ns3:TrackPointExtension>
        </extensions>
      </trkpt>
      <trkpt lat="42.56318159401416778564453125" lon="20.09419572539627552032470703125">
        <ele>2015</ele>
        <time>2026-06-19T12:34:02.000Z</time>
        <extensions>
          <ns3:TrackPointExtension>
            <ns3:atemp>20.0</ns3:atemp>
          </ns3:TrackPointExtension>
        </extensions>
      </trkpt>
      <trkpt lat="42.56318436004221439361572265625" lon="20.0942234694957733154296875">
        <ele>2014.800048828125</ele>
        <time>2026-06-19T12:34:03.000Z</time>
        <extensions>
          <ns3:TrackPointExtension>
            <ns3:atemp>20.0</ns3:atemp>
          </ns3:TrackPointExtension>
        </extensions>
      </trkpt>
      <trkpt lat="42.563182599842548370361328125" lon="20.09424869902431964874267578125">
        <ele>2014.800048828125</ele>
        <time>2026-06-19T12:34:04.000Z</time>
        <extensions>
          <ns3:TrackPointExtension>
            <ns3:atemp>20.0</ns3:atemp>
          </ns3:TrackPointExtension>
        </extensions>
      </trkpt>
      <trkpt lat="42.56317698396742343902587890625" lon="20.0942769460380077362060546875">
        <ele>2014.5999755859375</ele>
        <time>2026-06-19T12:34:05.000Z</time>
        <extensions>
          <ns3:TrackPointExtension>
            <ns3:atemp>20.0</ns3:atemp>
          </ns3:TrackPointExtension>
        </extensions>
      </trkpt>
      <trkpt lat="42.56316818296909332275390625" lon="20.09430536068975925445556640625">
        <ele>2014.4000244140625</ele>
        <time>2026-06-19T12:34:06.000Z</time>
        <extensions>
          <ns3:TrackPointExtension>
            <ns3:atemp>20.0</ns3:atemp>
          </ns3:TrackPointExtension>
        </extensions>
      </trkpt>
      <trkpt lat="42.56316290237009525299072265625" lon="20.09433000348508358001708984375">
        <ele>2014.199951171875</ele>
        <time>2026-06-19T12:34:07.000Z</time>
        <extensions>
          <ns3:TrackPointExtension>
            <ns3:atemp>20.0</ns3:atemp>
          </ns3:TrackPointExtension>
        </extensions>
      </trkpt>
      <trkpt lat="42.56315804086625576019287109375" lon="20.0943530537188053131103515625">
        <ele>2014</ele>
        <time>2026-06-19T12:34:08.000Z</time>
        <extensions>
          <ns3:TrackPointExtension>
            <ns3:atemp>20.0</ns3:atemp>
          </ns3:TrackPointExtension>
        </extensions>
      </trkpt>
      <trkpt lat="42.563154436647891998291015625" lon="20.09438113309442996978759765625">
        <ele>2013.800048828125</ele>
        <time>2026-06-19T12:34:09.000Z</time>
        <extensions>
          <ns3:TrackPointExtension>
            <ns3:atemp>20.0</ns3:atemp>
          </ns3:TrackPointExtension>
        </extensions>
      </trkpt>
      <trkpt lat="42.56314898841083049774169921875" lon="20.09440409950911998748779296875">
        <ele>2013.5999755859375</ele>
        <time>2026-06-19T12:34:10.000Z</time>
        <extensions>
          <ns3:TrackPointExtension>
            <ns3:atemp>20.0</ns3:atemp>
          </ns3:TrackPointExtension>
        </extensions>
      </trkpt>
      <trkpt lat="42.56314194761216640472412109375" lon="20.094421617686748504638671875">
        <ele>2013.5999755859375</ele>
        <time>2026-06-19T12:34:11.000Z</time>
        <extensions>
          <ns3:TrackPointExtension>
            <ns3:atemp>20.0</ns3:atemp>
          </ns3:TrackPointExtension>
        </extensions>
      </trkpt>
      <trkpt lat="42.5631388463079929351806640625" lon="20.09444634430110454559326171875">
        <ele>2013.5999755859375</ele>
        <time>2026-06-19T12:34:12.000Z</time>
        <extensions>
          <ns3:TrackPointExtension>
            <ns3:atemp>20.0</ns3:atemp>
          </ns3:TrackPointExtension>
        </extensions>
      </trkpt>
      <trkpt lat="42.56313943304121494293212890625" lon="20.0944714061915874481201171875">
        <ele>2013.4000244140625</ele>
        <time>2026-06-19T12:34:13.000Z</time>
        <extensions>
          <ns3:TrackPointExtension>
            <ns3:atemp>20.0</ns3:atemp>
          </ns3:TrackPointExtension>
        </extensions>
      </trkpt>
      <trkpt lat="42.56313943304121494293212890625" lon="20.094498731195926666259765625">
        <ele>2013.4000244140625</ele>
        <time>2026-06-19T12:34:14.000Z</time>
        <extensions>
          <ns3:TrackPointExtension>
            <ns3:atemp>20.0</ns3:atemp>
          </ns3:TrackPointExtension>
        </extensions>
      </trkpt>
      <trkpt lat="42.56314530037343502044677734375" lon="20.09452530182898044586181640625">
        <ele>2013.4000244140625</ele>
        <time>2026-06-19T12:34:15.000Z</time>
        <extensions>
          <ns3:TrackPointExtension>
            <ns3:atemp>20.0</ns3:atemp>
          </ns3:TrackPointExtension>
        </extensions>
      </trkpt>
      <trkpt lat="42.5631487369537353515625" lon="20.0945495255291461944580078125">
        <ele>2013.4000244140625</ele>
        <time>2026-06-19T12:34:16.000Z</time>
        <extensions>
          <ns3:TrackPointExtension>
            <ns3:atemp>20.0</ns3:atemp>
          </ns3:TrackPointExtension>
        </extensions>
      </trkpt>
      <trkpt lat="42.56315284408628940582275390625" lon="20.09456452913582324981689453125">
        <ele>2013.199951171875</ele>
        <time>2026-06-19T12:34:17.000Z</time>
        <extensions>
          <ns3:TrackPointExtension>
            <ns3:atemp>20.0</ns3:atemp>
          </ns3:TrackPointExtension>
        </extensions>
      </trkpt>
      <trkpt lat="42.5631492398679256439208984375" lon="20.094568468630313873291015625">
        <ele>2013.199951171875</ele>
        <time>2026-06-19T12:34:18.000Z</time>
        <extensions>
          <ns3:TrackPointExtension>
            <ns3:atemp>20.0</ns3:atemp>
          </ns3:TrackPointExtension>
        </extensions>
      </trkpt>
      <trkpt lat="42.56314747966825962066650390625" lon="20.09456922300159931182861328125">
        <ele>2013.199951171875</ele>
        <time>2026-06-19T12:34:19.000Z</time>
        <extensions>
          <ns3:TrackPointExtension>
            <ns3:atemp>20.0</ns3:atemp>
          </ns3:TrackPointExtension>
        </extensions>
      </trkpt>
      <trkpt lat="42.5631473958492279052734375" lon="20.094569139182567596435546875">
        <ele>2013.199951171875</ele>
        <time>2026-06-19T12:34:20.000Z</time>
        <extensions>
          <ns3:TrackPointExtension>
            <ns3:atemp>20.0</ns3:atemp>
          </ns3:TrackPointExtension>
        </extensions>
      </trkpt>
      <trkpt lat="42.5631473958492279052734375" lon="20.0945689715445041656494140625">
        <ele>2013.199951171875</ele>
        <time>2026-06-19T12:34:21.000Z</time>
        <extensions>
          <ns3:TrackPointExtension>
            <ns3:atemp>20.0</ns3:atemp>
          </ns3:TrackPointExtension>
        </extensions>
      </trkpt>
      <trkpt lat="42.56315150298178195953369140625" lon="20.0945683009922504425048828125">
        <ele>2013</ele>
        <time>2026-06-19T12:34:22.000Z</time>
        <extensions>
          <ns3:TrackPointExtension>
            <ns3:atemp>20.0</ns3:atemp>
          </ns3:TrackPointExtension>
        </extensions>
      </trkpt>
      <trkpt lat="42.5631473958492279052734375" lon="20.094569139182567596435546875">
        <ele>2013</ele>
        <time>2026-06-19T12:34:23.000Z</time>
        <extensions>
          <ns3:TrackPointExtension>
            <ns3:atemp>20.0</ns3:atemp>
          </ns3:TrackPointExtension>
        </extensions>
      </trkpt>
      <trkpt lat="42.5631473958492279052734375" lon="20.094569139182567596435546875">
        <ele>2013</ele>
        <time>2026-06-19T12:34:24.000Z</time>
        <extensions>
          <ns3:TrackPointExtension>
            <ns3:atemp>20.0</ns3:atemp>
          </ns3:TrackPointExtension>
        </extensions>
      </trkpt>
      <trkpt lat="42.5631473958492279052734375" lon="20.094569139182567596435546875">
        <ele>2013</ele>
        <time>2026-06-19T12:34:25.000Z</time>
        <extensions>
          <ns3:TrackPointExtension>
            <ns3:atemp>20.0</ns3:atemp>
          </ns3:TrackPointExtension>
        </extensions>
      </trkpt>
      <trkpt lat="42.5631473958492279052734375" lon="20.094569139182567596435546875">
        <ele>2013</ele>
        <time>2026-06-19T12:34:26.000Z</time>
        <extensions>
          <ns3:TrackPointExtension>
            <ns3:atemp>20.0</ns3:atemp>
          </ns3:TrackPointExtension>
        </extensions>
      </trkpt>
      <trkpt lat="42.5631473958492279052734375" lon="20.094569139182567596435546875">
        <ele>2013</ele>
        <time>2026-06-19T12:34:27.000Z</time>
        <extensions>
          <ns3:TrackPointExtension>
            <ns3:atemp>20.0</ns3:atemp>
          </ns3:TrackPointExtension>
        </extensions>
      </trkpt>
      <trkpt lat="42.5631473958492279052734375" lon="20.094569139182567596435546875">
        <ele>2012.800048828125</ele>
        <time>2026-06-19T12:34:28.000Z</time>
        <extensions>
          <ns3:TrackPointExtension>
            <ns3:atemp>20.0</ns3:atemp>
          </ns3:TrackPointExtension>
        </extensions>
      </trkpt>
      <trkpt lat="42.5631473958492279052734375" lon="20.094569139182567596435546875">
        <ele>2012.800048828125</ele>
        <time>2026-06-19T12:34:29.000Z</time>
        <extensions>
          <ns3:TrackPointExtension>
            <ns3:atemp>20.0</ns3:atemp>
          </ns3:TrackPointExtension>
        </extensions>
      </trkpt>
      <trkpt lat="42.5631473958492279052734375" lon="20.094569139182567596435546875">
        <ele>2012.5999755859375</ele>
        <time>2026-06-19T12:34:30.000Z</time>
        <extensions>
          <ns3:TrackPointExtension>
            <ns3:atemp>20.0</ns3:atemp>
          </ns3:TrackPointExtension>
        </extensions>
      </trkpt>
      <trkpt lat="42.5631473958492279052734375" lon="20.094569139182567596435546875">
        <ele>2012.4000244140625</ele>
        <time>2026-06-19T12:34:31.000Z</time>
        <extensions>
          <ns3:TrackPointExtension>
            <ns3:atemp>20.0</ns3:atemp>
          </ns3:TrackPointExtension>
        </extensions>
      </trkpt>
      <trkpt lat="42.5631473958492279052734375" lon="20.094569139182567596435546875">
        <ele>2012.4000244140625</ele>
        <time>2026-06-19T12:34:32.000Z</time>
        <extensions>
          <ns3:TrackPointExtension>
            <ns3:atemp>20.0</ns3:atemp>
          </ns3:TrackPointExtension>
        </extensions>
      </trkpt>
      <trkpt lat="42.5631473958492279052734375" lon="20.094569139182567596435546875">
        <ele>2012.4000244140625</ele>
        <time>2026-06-19T12:34:33.000Z</time>
        <extensions>
          <ns3:TrackPointExtension>
            <ns3:atemp>20.0</ns3:atemp>
          </ns3:TrackPointExtension>
        </extensions>
      </trkpt>
      <trkpt lat="42.5631473958492279052734375" lon="20.094569139182567596435546875">
        <ele>2012.4000244140625</ele>
        <time>2026-06-19T12:34:34.000Z</time>
        <extensions>
          <ns3:TrackPointExtension>
            <ns3:atemp>20.0</ns3:atemp>
          </ns3:TrackPointExtension>
        </extensions>
      </trkpt>
      <trkpt lat="42.5631473958492279052734375" lon="20.094569139182567596435546875">
        <ele>2012.199951171875</ele>
        <time>2026-06-19T12:34:35.000Z</time>
        <extensions>
          <ns3:TrackPointExtension>
            <ns3:atemp>20.0</ns3:atemp>
          </ns3:TrackPointExtension>
        </extensions>
      </trkpt>
      <trkpt lat="42.5631473958492279052734375" lon="20.094569139182567596435546875">
        <ele>2012.199951171875</ele>
        <time>2026-06-19T12:34:36.000Z</time>
        <extensions>
          <ns3:TrackPointExtension>
            <ns3:atemp>20.0</ns3:atemp>
          </ns3:TrackPointExtension>
        </extensions>
      </trkpt>
      <trkpt lat="42.5631473958492279052734375" lon="20.094569139182567596435546875">
        <ele>2012.199951171875</ele>
        <time>2026-06-19T12:34:37.000Z</time>
        <extensions>
          <ns3:TrackPointExtension>
            <ns3:atemp>20.0</ns3:atemp>
          </ns3:TrackPointExtension>
        </extensions>
      </trkpt>
      <trkpt lat="42.5631473958492279052734375" lon="20.094569139182567596435546875">
        <ele>2012.199951171875</ele>
        <time>2026-06-19T12:34:38.000Z</time>
        <extensions>
          <ns3:TrackPointExtension>
            <ns3:atemp>20.0</ns3:atemp>
          </ns3:TrackPointExtension>
        </extensions>
      </trkpt>
      <trkpt lat="42.56315317936241626739501953125" lon="20.09456821717321872711181640625">
        <ele>2012</ele>
        <time>2026-06-19T12:34:39.000Z</time>
        <extensions>
          <ns3:TrackPointExtension>
            <ns3:atemp>20.0</ns3:atemp>
          </ns3:TrackPointExtension>
        </extensions>
      </trkpt>
      <trkpt lat="42.56315485574305057525634765625" lon="20.09457953274250030517578125">
        <ele>2012</ele>
        <time>2026-06-19T12:34:40.000Z</time>
        <extensions>
          <ns3:TrackPointExtension>
            <ns3:atemp>20.0</ns3:atemp>
          </ns3:TrackPointExtension>
        </extensions>
      </trkpt>
      <trkpt lat="42.5631639920175075531005859375" lon="20.09459688328206539154052734375">
        <ele>2011.800048828125</ele>
        <time>2026-06-19T12:34:41.000Z</time>
        <extensions>
          <ns3:TrackPointExtension>
            <ns3:atemp>20.0</ns3:atemp>
          </ns3:TrackPointExtension>
        </extensions>
      </trkpt>
      <trkpt lat="42.5631727091968059539794921875" lon="20.09460275061428546905517578125">
        <ele>2011.800048828125</ele>
        <time>2026-06-19T12:34:42.000Z</time>
        <extensions>
          <ns3:TrackPointExtension>
            <ns3:atemp>20.0</ns3:atemp>
          </ns3:TrackPointExtension>
        </extensions>
      </trkpt>
      <trkpt lat="42.5631790794432163238525390625" lon="20.09460769593715667724609375">
        <ele>2012</ele>
        <time>2026-06-19T12:34:43.000Z</time>
        <extensions>
          <ns3:TrackPointExtension>
            <ns3:atemp>20.0</ns3:atemp>
          </ns3:TrackPointExtension>
        </extensions>
      </trkpt>
      <trkpt lat="42.5631894730031490325927734375" lon="20.09461716748774051666259765625">
        <ele>2012</ele>
        <time>2026-06-19T12:34:44.000Z</time>
        <extensions>
          <ns3:TrackPointExtension>
            <ns3:atemp>20.0</ns3:atemp>
          </ns3:TrackPointExtension>
        </extensions>
      </trkpt>
      <trkpt lat="42.5631991960108280181884765625" lon="20.094621442258358001708984375">
        <ele>2012.199951171875</ele>
        <time>2026-06-19T12:34:45.000Z</time>
        <extensions>
          <ns3:TrackPointExtension>
            <ns3:atemp>20.0</ns3:atemp>
          </ns3:TrackPointExtension>
        </extensions>
      </trkpt>
      <trkpt lat="42.5632072426378726959228515625" lon="20.094630159437656402587890625">
        <ele>2012.4000244140625</ele>
        <time>2026-06-19T12:34:46.000Z</time>
        <extensions>
          <ns3:TrackPointExtension>
            <ns3:atemp>20.0</ns3:atemp>
          </ns3:TrackPointExtension>
        </extensions>
      </trkpt>
      <trkpt lat="42.56321520544588565826416015625" lon="20.0946370325982570648193359375">
        <ele>2012.5999755859375</ele>
        <time>2026-06-19T12:34:47.000Z</time>
        <extensions>
          <ns3:TrackPointExtension>
            <ns3:atemp>20.0</ns3:atemp>
          </ns3:TrackPointExtension>
        </extensions>
      </trkpt>
      <trkpt lat="42.563224174082279205322265625" lon="20.09464331902563571929931640625">
        <ele>2012.5999755859375</ele>
        <time>2026-06-19T12:34:48.000Z</time>
        <extensions>
          <ns3:TrackPointExtension>
            <ns3:atemp>20.0</ns3:atemp>
          </ns3:TrackPointExtension>
        </extensions>
      </trkpt>
      <trkpt lat="42.56323029287159442901611328125" lon="20.09464767761528491973876953125">
        <ele>2012.5999755859375</ele>
        <time>2026-06-19T12:34:49.000Z</time>
        <extensions>
          <ns3:TrackPointExtension>
            <ns3:atemp>20.0</ns3:atemp>
          </ns3:TrackPointExtension>
        </extensions>
      </trkpt>
      <trkpt lat="42.5632332265377044677734375" lon="20.09464834816753864288330078125">
        <ele>2012.5999755859375</ele>
        <time>2026-06-19T12:34:50.000Z</time>
        <extensions>
          <ns3:TrackPointExtension>
            <ns3:atemp>20.0</ns3:atemp>
          </ns3:TrackPointExtension>
        </extensions>
      </trkpt>
      <trkpt lat="42.56323431618511676788330078125" lon="20.0946444086730480194091796875">
        <ele>2012.5999755859375</ele>
        <time>2026-06-19T12:34:51.000Z</time>
        <extensions>
          <ns3:TrackPointExtension>
            <ns3:atemp>20.0</ns3:atemp>
          </ns3:TrackPointExtension>
        </extensions>
      </trkpt>
      <trkpt lat="42.563234232366085052490234375" lon="20.094644241034984588623046875">
        <ele>2012.5999755859375</ele>
        <time>2026-06-19T12:34:52.000Z</time>
        <extensions>
          <ns3:TrackPointExtension>
            <ns3:atemp>20.0</ns3:atemp>
          </ns3:TrackPointExtension>
        </extensions>
      </trkpt>
      <trkpt lat="42.563234232366085052490234375" lon="20.094644241034984588623046875">
        <ele>2012.4000244140625</ele>
        <time>2026-06-19T12:34:53.000Z</time>
        <extensions>
          <ns3:TrackPointExtension>
            <ns3:atemp>20.0</ns3:atemp>
          </ns3:TrackPointExtension>
        </extensions>
      </trkpt>
      <trkpt lat="42.563234232366085052490234375" lon="20.094644241034984588623046875">
        <ele>2012.4000244140625</ele>
        <time>2026-06-19T12:34:54.000Z</time>
        <extensions>
          <ns3:TrackPointExtension>
            <ns3:atemp>20.0</ns3:atemp>
          </ns3:TrackPointExtension>
        </extensions>
      </trkpt>
      <trkpt lat="42.563234232366085052490234375" lon="20.094644241034984588623046875">
        <ele>2012.4000244140625</ele>
        <time>2026-06-19T12:34:55.000Z</time>
        <extensions>
          <ns3:TrackPointExtension>
            <ns3:atemp>20.0</ns3:atemp>
          </ns3:TrackPointExtension>
        </extensions>
      </trkpt>
      <trkpt lat="42.563234232366085052490234375" lon="20.09464348666369915008544921875">
        <ele>2012.4000244140625</ele>
        <time>2026-06-19T12:34:56.000Z</time>
        <extensions>
          <ns3:TrackPointExtension>
            <ns3:atemp>20.0</ns3:atemp>
          </ns3:TrackPointExtension>
        </extensions>
      </trkpt>
      <trkpt lat="42.563236244022846221923828125" lon="20.0946390442550182342529296875">
        <ele>2012.4000244140625</ele>
        <time>2026-06-19T12:34:57.000Z</time>
        <extensions>
          <ns3:TrackPointExtension>
            <ns3:atemp>20.0</ns3:atemp>
          </ns3:TrackPointExtension>
        </extensions>
      </trkpt>
      <trkpt lat="42.563234232366085052490234375" lon="20.094644241034984588623046875">
        <ele>2012.4000244140625</ele>
        <time>2026-06-19T12:34:58.000Z</time>
        <extensions>
          <ns3:TrackPointExtension>
            <ns3:atemp>20.0</ns3:atemp>
          </ns3:TrackPointExtension>
        </extensions>
      </trkpt>
      <trkpt lat="42.563234232366085052490234375" lon="20.094644241034984588623046875">
        <ele>2012.4000244140625</ele>
        <time>2026-06-19T12:34:59.000Z</time>
        <extensions>
          <ns3:TrackPointExtension>
            <ns3:atemp>20.0</ns3:atemp>
          </ns3:TrackPointExtension>
        </extensions>
      </trkpt>
      <trkpt lat="42.563234232366085052490234375" lon="20.094644241034984588623046875">
        <ele>2012.4000244140625</ele>
        <time>2026-06-19T12:35:00.000Z</time>
        <extensions>
          <ns3:TrackPointExtension>
            <ns3:atemp>20.0</ns3:atemp>
          </ns3:TrackPointExtension>
        </extensions>
      </trkpt>
      <trkpt lat="42.563234232366085052490234375" lon="20.094644241034984588623046875">
        <ele>2012.199951171875</ele>
        <time>2026-06-19T12:35:01.000Z</time>
        <extensions>
          <ns3:TrackPointExtension>
            <ns3:atemp>20.0</ns3:atemp>
          </ns3:TrackPointExtension>
        </extensions>
      </trkpt>
      <trkpt lat="42.563234232366085052490234375" lon="20.094644241034984588623046875">
        <ele>2011.800048828125</ele>
        <time>2026-06-19T12:35:02.000Z</time>
        <extensions>
          <ns3:TrackPointExtension>
            <ns3:atemp>20.0</ns3:atemp>
          </ns3:TrackPointExtension>
        </extensions>
      </trkpt>
      <trkpt lat="42.563234232366085052490234375" lon="20.094644241034984588623046875">
        <ele>2011.5999755859375</ele>
        <time>2026-06-19T12:35:03.000Z</time>
        <extensions>
          <ns3:TrackPointExtension>
            <ns3:atemp>20.0</ns3:atemp>
          </ns3:TrackPointExtension>
        </extensions>
      </trkpt>
      <trkpt lat="42.563234232366085052490234375" lon="20.094644241034984588623046875">
        <ele>2011.199951171875</ele>
        <time>2026-06-19T12:35:04.000Z</time>
        <extensions>
          <ns3:TrackPointExtension>
            <ns3:atemp>20.0</ns3:atemp>
          </ns3:TrackPointExtension>
        </extensions>
      </trkpt>
      <trkpt lat="42.563234232366085052490234375" lon="20.094644241034984588623046875">
        <ele>2011</ele>
        <time>2026-06-19T12:35:05.000Z</time>
        <extensions>
          <ns3:TrackPointExtension>
            <ns3:atemp>20.0</ns3:atemp>
          </ns3:TrackPointExtension>
        </extensions>
      </trkpt>
      <trkpt lat="42.563234232366085052490234375" lon="20.094644241034984588623046875">
        <ele>2011</ele>
        <time>2026-06-19T12:35:06.000Z</time>
        <extensions>
          <ns3:TrackPointExtension>
            <ns3:atemp>20.0</ns3:atemp>
          </ns3:TrackPointExtension>
        </extensions>
      </trkpt>
      <trkpt lat="42.563234232366085052490234375" lon="20.094644241034984588623046875">
        <ele>2010.800048828125</ele>
        <time>2026-06-19T12:35:07.000Z</time>
        <extensions>
          <ns3:TrackPointExtension>
            <ns3:atemp>20.0</ns3:atemp>
          </ns3:TrackPointExtension>
        </extensions>
      </trkpt>
      <trkpt lat="42.563234232366085052490234375" lon="20.094644241034984588623046875">
        <ele>2010.800048828125</ele>
        <time>2026-06-19T12:35:08.000Z</time>
        <extensions>
          <ns3:TrackPointExtension>
            <ns3:atemp>20.0</ns3:atemp>
          </ns3:TrackPointExtension>
        </extensions>
      </trkpt>
      <trkpt lat="42.563234232366085052490234375" lon="20.094644241034984588623046875">
        <ele>2010.800048828125</ele>
        <time>2026-06-19T12:35:09.000Z</time>
        <extensions>
          <ns3:TrackPointExtension>
            <ns3:atemp>20.0</ns3:atemp>
          </ns3:TrackPointExtension>
        </extensions>
      </trkpt>
      <trkpt lat="42.563234232366085052490234375" lon="20.094644241034984588623046875">
        <ele>2010.800048828125</ele>
        <time>2026-06-19T12:35:10.000Z</time>
        <extensions>
          <ns3:TrackPointExtension>
            <ns3:atemp>20.0</ns3:atemp>
          </ns3:TrackPointExtension>
        </extensions>
      </trkpt>
      <trkpt lat="42.563234232366085052490234375" lon="20.094644241034984588623046875">
        <ele>2010.800048828125</ele>
        <time>2026-06-19T12:35:11.000Z</time>
        <extensions>
          <ns3:TrackPointExtension>
            <ns3:atemp>20.0</ns3:atemp>
          </ns3:TrackPointExtension>
        </extensions>
      </trkpt>
      <trkpt lat="42.563234232366085052490234375" lon="20.094644241034984588623046875">
        <ele>2010.800048828125</ele>
        <time>2026-06-19T12:35:12.000Z</time>
        <extensions>
          <ns3:TrackPointExtension>
            <ns3:atemp>20.0</ns3:atemp>
          </ns3:TrackPointExtension>
        </extensions>
      </trkpt>
      <trkpt lat="42.563234232366085052490234375" lon="20.094644241034984588623046875">
        <ele>2010.800048828125</ele>
        <time>2026-06-19T12:35:13.000Z</time>
        <extensions>
          <ns3:TrackPointExtension>
            <ns3:atemp>20.0</ns3:atemp>
          </ns3:TrackPointExtension>
        </extensions>
      </trkpt>
      <trkpt lat="42.563234232366085052490234375" lon="20.094644241034984588623046875">
        <ele>2010.5999755859375</ele>
        <time>2026-06-19T12:35:14.000Z</time>
        <extensions>
          <ns3:TrackPointExtension>
            <ns3:atemp>20.0</ns3:atemp>
          </ns3:TrackPointExtension>
        </extensions>
      </trkpt>
      <trkpt lat="42.563234232366085052490234375" lon="20.094644241034984588623046875">
        <ele>2010.5999755859375</ele>
        <time>2026-06-19T12:35:15.000Z</time>
        <extensions>
          <ns3:TrackPointExtension>
            <ns3:atemp>20.0</ns3:atemp>
          </ns3:TrackPointExtension>
        </extensions>
      </trkpt>
      <trkpt lat="42.563234232366085052490234375" lon="20.094644241034984588623046875">
        <ele>2010.5999755859375</ele>
        <time>2026-06-19T12:35:16.000Z</time>
        <extensions>
          <ns3:TrackPointExtension>
            <ns3:atemp>20.0</ns3:atemp>
          </ns3:TrackPointExtension>
        </extensions>
      </trkpt>
      <trkpt lat="42.563234232366085052490234375" lon="20.094644241034984588623046875">
        <ele>2010.5999755859375</ele>
        <time>2026-06-19T12:35:17.000Z</time>
        <extensions>
          <ns3:TrackPointExtension>
            <ns3:atemp>20.0</ns3:atemp>
          </ns3:TrackPointExtension>
        </extensions>
      </trkpt>
      <trkpt lat="42.563234232366085052490234375" lon="20.094644241034984588623046875">
        <ele>2010.5999755859375</ele>
        <time>2026-06-19T12:35:18.000Z</time>
        <extensions>
          <ns3:TrackPointExtension>
            <ns3:atemp>20.0</ns3:atemp>
          </ns3:TrackPointExtension>
        </extensions>
      </trkpt>
      <trkpt lat="42.563234232366085052490234375" lon="20.094644241034984588623046875">
        <ele>2010.5999755859375</ele>
        <time>2026-06-19T12:35:19.000Z</time>
        <extensions>
          <ns3:TrackPointExtension>
            <ns3:atemp>20.0</ns3:atemp>
          </ns3:TrackPointExtension>
        </extensions>
      </trkpt>
      <trkpt lat="42.563234232366085052490234375" lon="20.094644241034984588623046875">
        <ele>2010.5999755859375</ele>
        <time>2026-06-19T12:35:20.000Z</time>
        <extensions>
          <ns3:TrackPointExtension>
            <ns3:atemp>20.0</ns3:atemp>
          </ns3:TrackPointExtension>
        </extensions>
      </trkpt>
      <trkpt lat="42.563234232366085052490234375" lon="20.094644241034984588623046875">
        <ele>2010.4000244140625</ele>
        <time>2026-06-19T12:35:21.000Z</time>
        <extensions>
          <ns3:TrackPointExtension>
            <ns3:atemp>20.0</ns3:atemp>
          </ns3:TrackPointExtension>
        </extensions>
      </trkpt>
      <trkpt lat="42.563234232366085052490234375" lon="20.094644241034984588623046875">
        <ele>2010.4000244140625</ele>
        <time>2026-06-19T12:35:22.000Z</time>
        <extensions>
          <ns3:TrackPointExtension>
            <ns3:atemp>20.0</ns3:atemp>
          </ns3:TrackPointExtension>
        </extensions>
      </trkpt>
      <trkpt lat="42.563234232366085052490234375" lon="20.094644241034984588623046875">
        <ele>2010.199951171875</ele>
        <time>2026-06-19T12:35:23.000Z</time>
        <extensions>
          <ns3:TrackPointExtension>
            <ns3:atemp>20.0</ns3:atemp>
          </ns3:TrackPointExtension>
        </extensions>
      </trkpt>
      <trkpt lat="42.563234232366085052490234375" lon="20.094644241034984588623046875">
        <ele>2010.199951171875</ele>
        <time>2026-06-19T12:35:24.000Z</time>
        <extensions>
          <ns3:TrackPointExtension>
            <ns3:atemp>20.0</ns3:atemp>
          </ns3:TrackPointExtension>
        </extensions>
      </trkpt>
      <trkpt lat="42.563234232366085052490234375" lon="20.094644241034984588623046875">
        <ele>2010.199951171875</ele>
        <time>2026-06-19T12:35:25.000Z</time>
        <extensions>
          <ns3:TrackPointExtension>
            <ns3:atemp>20.0</ns3:atemp>
          </ns3:TrackPointExtension>
        </extensions>
      </trkpt>
      <trkpt lat="42.563234232366085052490234375" lon="20.094644241034984588623046875">
        <ele>2010</ele>
        <time>2026-06-19T12:35:26.000Z</time>
        <extensions>
          <ns3:TrackPointExtension>
            <ns3:atemp>20.0</ns3:atemp>
          </ns3:TrackPointExtension>
        </extensions>
      </trkpt>
      <trkpt lat="42.563234232366085052490234375" lon="20.094644241034984588623046875">
        <ele>2010</ele>
        <time>2026-06-19T12:35:27.000Z</time>
        <extensions>
          <ns3:TrackPointExtension>
            <ns3:atemp>20.0</ns3:atemp>
          </ns3:TrackPointExtension>
        </extensions>
      </trkpt>
      <trkpt lat="42.563234232366085052490234375" lon="20.094644241034984588623046875">
        <ele>2010</ele>
        <time>2026-06-19T12:35:28.000Z</time>
        <extensions>
          <ns3:TrackPointExtension>
            <ns3:atemp>20.0</ns3:atemp>
          </ns3:TrackPointExtension>
        </extensions>
      </trkpt>
      <trkpt lat="42.563234232366085052490234375" lon="20.094644241034984588623046875">
        <ele>2010</ele>
        <time>2026-06-19T12:35:29.000Z</time>
        <extensions>
          <ns3:TrackPointExtension>
            <ns3:atemp>20.0</ns3:atemp>
          </ns3:TrackPointExtension>
        </extensions>
      </trkpt>
      <trkpt lat="42.563234232366085052490234375" lon="20.094644241034984588623046875">
        <ele>2010</ele>
        <time>2026-06-19T12:35:30.000Z</time>
        <extensions>
          <ns3:TrackPointExtension>
            <ns3:atemp>20.0</ns3:atemp>
          </ns3:TrackPointExtension>
        </extensions>
      </trkpt>
      <trkpt lat="42.563234232366085052490234375" lon="20.094644241034984588623046875">
        <ele>2009.800048828125</ele>
        <time>2026-06-19T12:35:31.000Z</time>
        <extensions>
          <ns3:TrackPointExtension>
            <ns3:atemp>20.0</ns3:atemp>
          </ns3:TrackPointExtension>
        </extensions>
      </trkpt>
      <trkpt lat="42.563234232366085052490234375" lon="20.094644241034984588623046875">
        <ele>2009.800048828125</ele>
        <time>2026-06-19T12:35:32.000Z</time>
        <extensions>
          <ns3:TrackPointExtension>
            <ns3:atemp>20.0</ns3:atemp>
          </ns3:TrackPointExtension>
        </extensions>
      </trkpt>
      <trkpt lat="42.563234232366085052490234375" lon="20.094644241034984588623046875">
        <ele>2009.800048828125</ele>
        <time>2026-06-19T12:35:33.000Z</time>
        <extensions>
          <ns3:TrackPointExtension>
            <ns3:atemp>20.0</ns3:atemp>
          </ns3:TrackPointExtension>
        </extensions>
      </trkpt>
      <trkpt lat="42.563234232366085052490234375" lon="20.094644241034984588623046875">
        <ele>2009.800048828125</ele>
        <time>2026-06-19T12:35:34.000Z</time>
        <extensions>
          <ns3:TrackPointExtension>
            <ns3:atemp>20.0</ns3:atemp>
          </ns3:TrackPointExtension>
        </extensions>
      </trkpt>
      <trkpt lat="42.563234232366085052490234375" lon="20.094644241034984588623046875">
        <ele>2009.800048828125</ele>
        <time>2026-06-19T12:35:35.000Z</time>
        <extensions>
          <ns3:TrackPointExtension>
            <ns3:atemp>20.0</ns3:atemp>
          </ns3:TrackPointExtension>
        </extensions>
      </trkpt>
      <trkpt lat="42.563234232366085052490234375" lon="20.094644241034984588623046875">
        <ele>2009.800048828125</ele>
        <time>2026-06-19T12:35:36.000Z</time>
        <extensions>
          <ns3:TrackPointExtension>
            <ns3:atemp>20.0</ns3:atemp>
          </ns3:TrackPointExtension>
        </extensions>
      </trkpt>
      <trkpt lat="42.563234232366085052490234375" lon="20.094644241034984588623046875">
        <ele>2009.800048828125</ele>
        <time>2026-06-19T12:35:37.000Z</time>
        <extensions>
          <ns3:TrackPointExtension>
            <ns3:atemp>20.0</ns3:atemp>
          </ns3:TrackPointExtension>
        </extensions>
      </trkpt>
      <trkpt lat="42.563234232366085052490234375" lon="20.094644241034984588623046875">
        <ele>2009.800048828125</ele>
        <time>2026-06-19T12:35:38.000Z</time>
        <extensions>
          <ns3:TrackPointExtension>
            <ns3:atemp>20.0</ns3:atemp>
          </ns3:TrackPointExtension>
        </extensions>
      </trkpt>
      <trkpt lat="42.563234232366085052490234375" lon="20.094644241034984588623046875">
        <ele>2009.800048828125</ele>
        <time>2026-06-19T12:35:39.000Z</time>
        <extensions>
          <ns3:TrackPointExtension>
            <ns3:atemp>20.0</ns3:atemp>
          </ns3:TrackPointExtension>
        </extensions>
      </trkpt>
      <trkpt lat="42.563234232366085052490234375" lon="20.094644241034984588623046875">
        <ele>2009.800048828125</ele>
        <time>2026-06-19T12:35:40.000Z</time>
        <extensions>
          <ns3:TrackPointExtension>
            <ns3:atemp>20.0</ns3:atemp>
          </ns3:TrackPointExtension>
        </extensions>
      </trkpt>
      <trkpt lat="42.563234232366085052490234375" lon="20.094644241034984588623046875">
        <ele>2009.800048828125</ele>
        <time>2026-06-19T12:35:41.000Z</time>
        <extensions>
          <ns3:TrackPointExtension>
            <ns3:atemp>20.0</ns3:atemp>
          </ns3:TrackPointExtension>
        </extensions>
      </trkpt>
      <trkpt lat="42.563234232366085052490234375" lon="20.094644241034984588623046875">
        <ele>2009.800048828125</ele>
        <time>2026-06-19T12:35:42.000Z</time>
        <extensions>
          <ns3:TrackPointExtension>
            <ns3:atemp>20.0</ns3:atemp>
          </ns3:TrackPointExtension>
        </extensions>
      </trkpt>
      <trkpt lat="42.563234232366085052490234375" lon="20.094644241034984588623046875">
        <ele>2009.800048828125</ele>
        <time>2026-06-19T12:35:43.000Z</time>
        <extensions>
          <ns3:TrackPointExtension>
            <ns3:atemp>20.0</ns3:atemp>
          </ns3:TrackPointExtension>
        </extensions>
      </trkpt>
      <trkpt lat="42.563234232366085052490234375" lon="20.094644241034984588623046875">
        <ele>2009.800048828125</ele>
        <time>2026-06-19T12:35:44.000Z</time>
        <extensions>
          <ns3:TrackPointExtension>
            <ns3:atemp>20.0</ns3:atemp>
          </ns3:TrackPointExtension>
        </extensions>
      </trkpt>
      <trkpt lat="42.563234232366085052490234375" lon="20.094644241034984588623046875">
        <ele>2009.800048828125</ele>
        <time>2026-06-19T12:35:45.000Z</time>
        <extensions>
          <ns3:TrackPointExtension>
            <ns3:atemp>20.0</ns3:atemp>
          </ns3:TrackPointExtension>
        </extensions>
      </trkpt>
      <trkpt lat="42.563234232366085052490234375" lon="20.094644241034984588623046875">
        <ele>2009.800048828125</ele>
        <time>2026-06-19T12:35:46.000Z</time>
        <extensions>
          <ns3:TrackPointExtension>
            <ns3:atemp>20.0</ns3:atemp>
          </ns3:TrackPointExtension>
        </extensions>
      </trkpt>
      <trkpt lat="42.563234232366085052490234375" lon="20.094644241034984588623046875">
        <ele>2009.800048828125</ele>
        <time>2026-06-19T12:35:47.000Z</time>
        <extensions>
          <ns3:TrackPointExtension>
            <ns3:atemp>20.0</ns3:atemp>
          </ns3:TrackPointExtension>
        </extensions>
      </trkpt>
      <trkpt lat="42.563234232366085052490234375" lon="20.094644241034984588623046875">
        <ele>2009.800048828125</ele>
        <time>2026-06-19T12:35:48.000Z</time>
        <extensions>
          <ns3:TrackPointExtension>
            <ns3:atemp>20.0</ns3:atemp>
          </ns3:TrackPointExtension>
        </extensions>
      </trkpt>
      <trkpt lat="42.563234232366085052490234375" lon="20.094644241034984588623046875">
        <ele>2009.800048828125</ele>
        <time>2026-06-19T12:35:49.000Z</time>
        <extensions>
          <ns3:TrackPointExtension>
            <ns3:atemp>20.0</ns3:atemp>
          </ns3:TrackPointExtension>
        </extensions>
      </trkpt>
      <trkpt lat="42.563234232366085052490234375" lon="20.094644241034984588623046875">
        <ele>2009.800048828125</ele>
        <time>2026-06-19T12:35:50.000Z</time>
        <extensions>
          <ns3:TrackPointExtension>
            <ns3:atemp>20.0</ns3:atemp>
          </ns3:TrackPointExtension>
        </extensions>
      </trkpt>
      <trkpt lat="42.563234232366085052490234375" lon="20.094644241034984588623046875">
        <ele>2009.800048828125</ele>
        <time>2026-06-19T12:35:51.000Z</time>
        <extensions>
          <ns3:TrackPointExtension>
            <ns3:atemp>20.0</ns3:atemp>
          </ns3:TrackPointExtension>
        </extensions>
      </trkpt>
      <trkpt lat="42.563234232366085052490234375" lon="20.094644241034984588623046875">
        <ele>2009.800048828125</ele>
        <time>2026-06-19T12:35:52.000Z</time>
        <extensions>
          <ns3:TrackPointExtension>
            <ns3:atemp>20.0</ns3:atemp>
          </ns3:TrackPointExtension>
        </extensions>
      </trkpt>
      <trkpt lat="42.563234232366085052490234375" lon="20.094644241034984588623046875">
        <ele>2009.800048828125</ele>
        <time>2026-06-19T12:35:53.000Z</time>
        <extensions>
          <ns3:TrackPointExtension>
            <ns3:atemp>20.0</ns3:atemp>
          </ns3:TrackPointExtension>
        </extensions>
      </trkpt>
      <trkpt lat="42.563234232366085052490234375" lon="20.094644241034984588623046875">
        <ele>2009.800048828125</ele>
        <time>2026-06-19T12:35:54.000Z</time>
        <extensions>
          <ns3:TrackPointExtension>
            <ns3:atemp>20.0</ns3:atemp>
          </ns3:TrackPointExtension>
        </extensions>
      </trkpt>
      <trkpt lat="42.563234232366085052490234375" lon="20.094644241034984588623046875">
        <ele>2009.800048828125</ele>
        <time>2026-06-19T12:35:55.000Z</time>
        <extensions>
          <ns3:TrackPointExtension>
            <ns3:atemp>20.0</ns3:atemp>
          </ns3:TrackPointExtension>
        </extensions>
      </trkpt>
      <trkpt lat="42.563234232366085052490234375" lon="20.094644241034984588623046875">
        <ele>2009.5999755859375</ele>
        <time>2026-06-19T12:35:56.000Z</time>
        <extensions>
          <ns3:TrackPointExtension>
            <ns3:atemp>20.0</ns3:atemp>
          </ns3:TrackPointExtension>
        </extensions>
      </trkpt>
      <trkpt lat="42.563234232366085052490234375" lon="20.094644241034984588623046875">
        <ele>2009.5999755859375</ele>
        <time>2026-06-19T12:35:57.000Z</time>
        <extensions>
          <ns3:TrackPointExtension>
            <ns3:atemp>20.0</ns3:atemp>
          </ns3:TrackPointExtension>
        </extensions>
      </trkpt>
      <trkpt lat="42.563234232366085052490234375" lon="20.094644241034984588623046875">
        <ele>2009.5999755859375</ele>
        <time>2026-06-19T12:35:58.000Z</time>
        <extensions>
          <ns3:TrackPointExtension>
            <ns3:atemp>20.0</ns3:atemp>
          </ns3:TrackPointExtension>
        </extensions>
      </trkpt>
      <trkpt lat="42.563234232366085052490234375" lon="20.094644241034984588623046875">
        <ele>2009.5999755859375</ele>
        <time>2026-06-19T12:35:59.000Z</time>
        <extensions>
          <ns3:TrackPointExtension>
            <ns3:atemp>20.0</ns3:atemp>
          </ns3:TrackPointExtension>
        </extensions>
      </trkpt>
      <trkpt lat="42.563234232366085052490234375" lon="20.094644241034984588623046875">
        <ele>2009.5999755859375</ele>
        <time>2026-06-19T12:36:00.000Z</time>
        <extensions>
          <ns3:TrackPointExtension>
            <ns3:atemp>20.0</ns3:atemp>
          </ns3:TrackPointExtension>
        </extensions>
      </trkpt>
      <trkpt lat="42.563234232366085052490234375" lon="20.094644241034984588623046875">
        <ele>2009.5999755859375</ele>
        <time>2026-06-19T12:36:01.000Z</time>
        <extensions>
          <ns3:TrackPointExtension>
            <ns3:atemp>20.0</ns3:atemp>
          </ns3:TrackPointExtension>
        </extensions>
      </trkpt>
      <trkpt lat="42.563234232366085052490234375" lon="20.094644241034984588623046875">
        <ele>2009.5999755859375</ele>
        <time>2026-06-19T12:36:02.000Z</time>
        <extensions>
          <ns3:TrackPointExtension>
            <ns3:atemp>20.0</ns3:atemp>
          </ns3:TrackPointExtension>
        </extensions>
      </trkpt>
      <trkpt lat="42.563234232366085052490234375" lon="20.094644241034984588623046875">
        <ele>2009.5999755859375</ele>
        <time>2026-06-19T12:36:03.000Z</time>
        <extensions>
          <ns3:TrackPointExtension>
            <ns3:atemp>20.0</ns3:atemp>
          </ns3:TrackPointExtension>
        </extensions>
      </trkpt>
      <trkpt lat="42.563234232366085052490234375" lon="20.094644241034984588623046875">
        <ele>2009.5999755859375</ele>
        <time>2026-06-19T12:36:04.000Z</time>
        <extensions>
          <ns3:TrackPointExtension>
            <ns3:atemp>20.0</ns3:atemp>
          </ns3:TrackPointExtension>
        </extensions>
      </trkpt>
      <trkpt lat="42.563234232366085052490234375" lon="20.094644241034984588623046875">
        <ele>2009.5999755859375</ele>
        <time>2026-06-19T12:36:05.000Z</time>
        <extensions>
          <ns3:TrackPointExtension>
            <ns3:atemp>20.0</ns3:atemp>
          </ns3:TrackPointExtension>
        </extensions>
      </trkpt>
      <trkpt lat="42.563234232366085052490234375" lon="20.094644241034984588623046875">
        <ele>2009.4000244140625</ele>
        <time>2026-06-19T12:36:06.000Z</time>
        <extensions>
          <ns3:TrackPointExtension>
            <ns3:atemp>20.0</ns3:atemp>
          </ns3:TrackPointExtension>
        </extensions>
      </trkpt>
      <trkpt lat="42.563234232366085052490234375" lon="20.094644241034984588623046875">
        <ele>2009.4000244140625</ele>
        <time>2026-06-19T12:36:07.000Z</time>
        <extensions>
          <ns3:TrackPointExtension>
            <ns3:atemp>20.0</ns3:atemp>
          </ns3:TrackPointExtension>
        </extensions>
      </trkpt>
      <trkpt lat="42.563234232366085052490234375" lon="20.094644241034984588623046875">
        <ele>2009.4000244140625</ele>
        <time>2026-06-19T12:36:08.000Z</time>
        <extensions>
          <ns3:TrackPointExtension>
            <ns3:atemp>20.0</ns3:atemp>
          </ns3:TrackPointExtension>
        </extensions>
      </trkpt>
      <trkpt lat="42.563234232366085052490234375" lon="20.094644241034984588623046875">
        <ele>2009.4000244140625</ele>
        <time>2026-06-19T12:36:09.000Z</time>
        <extensions>
          <ns3:TrackPointExtension>
            <ns3:atemp>20.0</ns3:atemp>
          </ns3:TrackPointExtension>
        </extensions>
      </trkpt>
      <trkpt lat="42.563234232366085052490234375" lon="20.094644241034984588623046875">
        <ele>2009.4000244140625</ele>
        <time>2026-06-19T12:36:10.000Z</time>
        <extensions>
          <ns3:TrackPointExtension>
            <ns3:atemp>20.0</ns3:atemp>
          </ns3:TrackPointExtension>
        </extensions>
      </trkpt>
      <trkpt lat="42.563234232366085052490234375" lon="20.094644241034984588623046875">
        <ele>2009.4000244140625</ele>
        <time>2026-06-19T12:36:11.000Z</time>
        <extensions>
          <ns3:TrackPointExtension>
            <ns3:atemp>20.0</ns3:atemp>
          </ns3:TrackPointExtension>
        </extensions>
      </trkpt>
      <trkpt lat="42.563234232366085052490234375" lon="20.094644241034984588623046875">
        <ele>2009.4000244140625</ele>
        <time>2026-06-19T12:36:12.000Z</time>
        <extensions>
          <ns3:TrackPointExtension>
            <ns3:atemp>20.0</ns3:atemp>
          </ns3:TrackPointExtension>
        </extensions>
      </trkpt>
      <trkpt lat="42.563234232366085052490234375" lon="20.094644241034984588623046875">
        <ele>2009.4000244140625</ele>
        <time>2026-06-19T12:36:13.000Z</time>
        <extensions>
          <ns3:TrackPointExtension>
            <ns3:atemp>20.0</ns3:atemp>
          </ns3:TrackPointExtension>
        </extensions>
      </trkpt>
      <trkpt lat="42.563234232366085052490234375" lon="20.094644241034984588623046875">
        <ele>2009.4000244140625</ele>
        <time>2026-06-19T12:36:14.000Z</time>
        <extensions>
          <ns3:TrackPointExtension>
            <ns3:atemp>20.0</ns3:atemp>
          </ns3:TrackPointExtension>
        </extensions>
      </trkpt>
      <trkpt lat="42.56323993206024169921875" lon="20.0946413911879062652587890625">
        <ele>2009.5999755859375</ele>
        <time>2026-06-19T12:36:15.000Z</time>
        <extensions>
          <ns3:TrackPointExtension>
            <ns3:atemp>20.0</ns3:atemp>
          </ns3:TrackPointExtension>
        </extensions>
      </trkpt>
      <trkpt lat="42.56323649547994136810302734375" lon="20.09462957270443439483642578125">
        <ele>2009.5999755859375</ele>
        <time>2026-06-19T12:36:16.000Z</time>
        <extensions>
          <ns3:TrackPointExtension>
            <ns3:atemp>20.0</ns3:atemp>
          </ns3:TrackPointExtension>
        </extensions>
      </trkpt>
      <trkpt lat="42.56323548965156078338623046875" lon="20.09461817331612110137939453125">
        <ele>2009.5999755859375</ele>
        <time>2026-06-19T12:36:17.000Z</time>
        <extensions>
          <ns3:TrackPointExtension>
            <ns3:atemp>20.0</ns3:atemp>
          </ns3:TrackPointExtension>
        </extensions>
      </trkpt>
      <trkpt lat="42.56323096342384815216064453125" lon="20.09460610337555408477783203125">
        <ele>2009.5999755859375</ele>
        <time>2026-06-19T12:36:18.000Z</time>
        <extensions>
          <ns3:TrackPointExtension>
            <ns3:atemp>20.0</ns3:atemp>
          </ns3:TrackPointExtension>
        </extensions>
      </trkpt>
      <trkpt lat="42.56322174333035945892333984375" lon="20.0945909321308135986328125">
        <ele>2009.5999755859375</ele>
        <time>2026-06-19T12:36:19.000Z</time>
        <extensions>
          <ns3:TrackPointExtension>
            <ns3:atemp>20.0</ns3:atemp>
          </ns3:TrackPointExtension>
        </extensions>
      </trkpt>
      <trkpt lat="42.56321017630398273468017578125" lon="20.09458380751311779022216796875">
        <ele>2009.4000244140625</ele>
        <time>2026-06-19T12:36:20.000Z</time>
        <extensions>
          <ns3:TrackPointExtension>
            <ns3:atemp>20.0</ns3:atemp>
          </ns3:TrackPointExtension>
        </extensions>
      </trkpt>
      <trkpt lat="42.5631918199360370635986328125" lon="20.0945823825895786285400390625">
        <ele>2009.4000244140625</ele>
        <time>2026-06-19T12:36:21.000Z</time>
        <extensions>
          <ns3:TrackPointExtension>
            <ns3:atemp>20.0</ns3:atemp>
          </ns3:TrackPointExtension>
        </extensions>
      </trkpt>
      <trkpt lat="42.5631770677864551544189453125" lon="20.09458330459892749786376953125">
        <ele>2009.4000244140625</ele>
        <time>2026-06-19T12:36:22.000Z</time>
        <extensions>
          <ns3:TrackPointExtension>
            <ns3:atemp>20.0</ns3:atemp>
          </ns3:TrackPointExtension>
        </extensions>
      </trkpt>
      <trkpt lat="42.5631723739206790924072265625" lon="20.09458682499825954437255859375">
        <ele>2009.4000244140625</ele>
        <time>2026-06-19T12:36:23.000Z</time>
        <extensions>
          <ns3:TrackPointExtension>
            <ns3:atemp>20.0</ns3:atemp>
          </ns3:TrackPointExtension>
        </extensions>
      </trkpt>
      <trkpt lat="42.5631723739206790924072265625" lon="20.094599314033985137939453125">
        <ele>2009.5999755859375</ele>
        <time>2026-06-19T12:36:24.000Z</time>
        <extensions>
          <ns3:TrackPointExtension>
            <ns3:atemp>20.0</ns3:atemp>
          </ns3:TrackPointExtension>
        </extensions>
      </trkpt>
      <trkpt lat="42.56316994316875934600830078125" lon="20.09460878558456897735595703125">
        <ele>2009.800048828125</ele>
        <time>2026-06-19T12:36:25.000Z</time>
        <extensions>
          <ns3:TrackPointExtension>
            <ns3:atemp>20.0</ns3:atemp>
          </ns3:TrackPointExtension>
        </extensions>
      </trkpt>
      <trkpt lat="42.56316994316875934600830078125" lon="20.0946088694036006927490234375">
        <ele>2010</ele>
        <time>2026-06-19T12:36:26.000Z</time>
        <extensions>
          <ns3:TrackPointExtension>
            <ns3:atemp>20.0</ns3:atemp>
          </ns3:TrackPointExtension>
        </extensions>
      </trkpt>
      <trkpt lat="42.56316994316875934600830078125" lon="20.0946088694036006927490234375">
        <ele>2010.4000244140625</ele>
        <time>2026-06-19T12:36:27.000Z</time>
        <extensions>
          <ns3:TrackPointExtension>
            <ns3:atemp>20.0</ns3:atemp>
          </ns3:TrackPointExtension>
        </extensions>
      </trkpt>
      <trkpt lat="42.56316994316875934600830078125" lon="20.0946088694036006927490234375">
        <ele>2010.4000244140625</ele>
        <time>2026-06-19T12:36:28.000Z</time>
        <extensions>
          <ns3:TrackPointExtension>
            <ns3:atemp>20.0</ns3:atemp>
          </ns3:TrackPointExtension>
        </extensions>
      </trkpt>
      <trkpt lat="42.56316994316875934600830078125" lon="20.0946088694036006927490234375">
        <ele>2010.4000244140625</ele>
        <time>2026-06-19T12:36:29.000Z</time>
        <extensions>
          <ns3:TrackPointExtension>
            <ns3:atemp>20.0</ns3:atemp>
          </ns3:TrackPointExtension>
        </extensions>
      </trkpt>
      <trkpt lat="42.56316994316875934600830078125" lon="20.0946088694036006927490234375">
        <ele>2010.4000244140625</ele>
        <time>2026-06-19T12:36:30.000Z</time>
        <extensions>
          <ns3:TrackPointExtension>
            <ns3:atemp>20.0</ns3:atemp>
          </ns3:TrackPointExtension>
        </extensions>
      </trkpt>
      <trkpt lat="42.56316994316875934600830078125" lon="20.0946088694036006927490234375">
        <ele>2010.4000244140625</ele>
        <time>2026-06-19T12:36:31.000Z</time>
        <extensions>
          <ns3:TrackPointExtension>
            <ns3:atemp>20.0</ns3:atemp>
          </ns3:TrackPointExtension>
        </extensions>
      </trkpt>
      <trkpt lat="42.56316994316875934600830078125" lon="20.0946088694036006927490234375">
        <ele>2010.4000244140625</ele>
        <time>2026-06-19T12:36:32.000Z</time>
        <extensions>
          <ns3:TrackPointExtension>
            <ns3:atemp>20.0</ns3:atemp>
          </ns3:TrackPointExtension>
        </extensions>
      </trkpt>
      <trkpt lat="42.56316994316875934600830078125" lon="20.0946088694036006927490234375">
        <ele>2010.4000244140625</ele>
        <time>2026-06-19T12:36:33.000Z</time>
        <extensions>
          <ns3:TrackPointExtension>
            <ns3:atemp>20.0</ns3:atemp>
          </ns3:TrackPointExtension>
        </extensions>
      </trkpt>
      <trkpt lat="42.56316994316875934600830078125" lon="20.0946088694036006927490234375">
        <ele>2010.4000244140625</ele>
        <time>2026-06-19T12:36:34.000Z</time>
        <extensions>
          <ns3:TrackPointExtension>
            <ns3:atemp>20.0</ns3:atemp>
          </ns3:TrackPointExtension>
        </extensions>
      </trkpt>
      <trkpt lat="42.56316994316875934600830078125" lon="20.0946088694036006927490234375">
        <ele>2010.4000244140625</ele>
        <time>2026-06-19T12:36:35.000Z</time>
        <extensions>
          <ns3:TrackPointExtension>
            <ns3:atemp>20.0</ns3:atemp>
          </ns3:TrackPointExtension>
        </extensions>
      </trkpt>
      <trkpt lat="42.56316994316875934600830078125" lon="20.0946088694036006927490234375">
        <ele>2010.4000244140625</ele>
        <time>2026-06-19T12:36:36.000Z</time>
        <extensions>
          <ns3:TrackPointExtension>
            <ns3:atemp>20.0</ns3:atemp>
          </ns3:TrackPointExtension>
        </extensions>
      </trkpt>
      <trkpt lat="42.56316994316875934600830078125" lon="20.0946088694036006927490234375">
        <ele>2010.4000244140625</ele>
        <time>2026-06-19T12:36:37.000Z</time>
        <extensions>
          <ns3:TrackPointExtension>
            <ns3:atemp>21.0</ns3:atemp>
          </ns3:TrackPointExtension>
        </extensions>
      </trkpt>
      <trkpt lat="42.56316994316875934600830078125" lon="20.0946088694036006927490234375">
        <ele>2010.4000244140625</ele>
        <time>2026-06-19T12:36:38.000Z</time>
        <extensions>
          <ns3:TrackPointExtension>
            <ns3:atemp>20.0</ns3:atemp>
          </ns3:TrackPointExtension>
        </extensions>
      </trkpt>
      <trkpt lat="42.56316994316875934600830078125" lon="20.0946088694036006927490234375">
        <ele>2010.4000244140625</ele>
        <time>2026-06-19T12:36:39.000Z</time>
        <extensions>
          <ns3:TrackPointExtension>
            <ns3:atemp>21.0</ns3:atemp>
          </ns3:TrackPointExtension>
        </extensions>
      </trkpt>
      <trkpt lat="42.56316994316875934600830078125" lon="20.0946088694036006927490234375">
        <ele>2010.4000244140625</ele>
        <time>2026-06-19T12:36:40.000Z</time>
        <extensions>
          <ns3:TrackPointExtension>
            <ns3:atemp>21.0</ns3:atemp>
          </ns3:TrackPointExtension>
        </extensions>
      </trkpt>
      <trkpt lat="42.56316994316875934600830078125" lon="20.0946088694036006927490234375">
        <ele>2010.4000244140625</ele>
        <time>2026-06-19T12:36:41.000Z</time>
        <extensions>
          <ns3:TrackPointExtension>
            <ns3:atemp>21.0</ns3:atemp>
          </ns3:TrackPointExtension>
        </extensions>
      </trkpt>
      <trkpt lat="42.56316994316875934600830078125" lon="20.0946088694036006927490234375">
        <ele>2010.4000244140625</ele>
        <time>2026-06-19T12:36:42.000Z</time>
        <extensions>
          <ns3:TrackPointExtension>
            <ns3:atemp>21.0</ns3:atemp>
          </ns3:TrackPointExtension>
        </extensions>
      </trkpt>
      <trkpt lat="42.56316994316875934600830078125" lon="20.0946088694036006927490234375">
        <ele>2010.4000244140625</ele>
        <time>2026-06-19T12:36:43.000Z</time>
        <extensions>
          <ns3:TrackPointExtension>
            <ns3:atemp>21.0</ns3:atemp>
          </ns3:TrackPointExtension>
        </extensions>
      </trkpt>
      <trkpt lat="42.56316994316875934600830078125" lon="20.0946088694036006927490234375">
        <ele>2010.4000244140625</ele>
        <time>2026-06-19T12:36:44.000Z</time>
        <extensions>
          <ns3:TrackPointExtension>
            <ns3:atemp>21.0</ns3:atemp>
          </ns3:TrackPointExtension>
        </extensions>
      </trkpt>
      <trkpt lat="42.56316994316875934600830078125" lon="20.0946088694036006927490234375">
        <ele>2010.4000244140625</ele>
        <time>2026-06-19T12:36:45.000Z</time>
        <extensions>
          <ns3:TrackPointExtension>
            <ns3:atemp>21.0</ns3:atemp>
          </ns3:TrackPointExtension>
        </extensions>
      </trkpt>
      <trkpt lat="42.56316994316875934600830078125" lon="20.0946088694036006927490234375">
        <ele>2010.4000244140625</ele>
        <time>2026-06-19T12:36:46.000Z</time>
        <extensions>
          <ns3:TrackPointExtension>
            <ns3:atemp>21.0</ns3:atemp>
          </ns3:TrackPointExtension>
        </extensions>
      </trkpt>
      <trkpt lat="42.56316994316875934600830078125" lon="20.0946088694036006927490234375">
        <ele>2010.4000244140625</ele>
        <time>2026-06-19T12:36:47.000Z</time>
        <extensions>
          <ns3:TrackPointExtension>
            <ns3:atemp>21.0</ns3:atemp>
          </ns3:TrackPointExtension>
        </extensions>
      </trkpt>
      <trkpt lat="42.56316994316875934600830078125" lon="20.0946088694036006927490234375">
        <ele>2010.4000244140625</ele>
        <time>2026-06-19T12:36:48.000Z</time>
        <extensions>
          <ns3:TrackPointExtension>
            <ns3:atemp>21.0</ns3:atemp>
          </ns3:TrackPointExtension>
        </extensions>
      </trkpt>
      <trkpt lat="42.56316994316875934600830078125" lon="20.0946088694036006927490234375">
        <ele>2010.4000244140625</ele>
        <time>2026-06-19T12:36:49.000Z</time>
        <extensions>
          <ns3:TrackPointExtension>
            <ns3:atemp>21.0</ns3:atemp>
          </ns3:TrackPointExtension>
        </extensions>
      </trkpt>
      <trkpt lat="42.56316994316875934600830078125" lon="20.0946088694036006927490234375">
        <ele>2010.4000244140625</ele>
        <time>2026-06-19T12:36:50.000Z</time>
        <extensions>
          <ns3:TrackPointExtension>
            <ns3:atemp>21.0</ns3:atemp>
          </ns3:TrackPointExtension>
        </extensions>
      </trkpt>
      <trkpt lat="42.56316994316875934600830078125" lon="20.0946088694036006927490234375">
        <ele>2010.4000244140625</ele>
        <time>2026-06-19T12:36:51.000Z</time>
        <extensions>
          <ns3:TrackPointExtension>
            <ns3:atemp>21.0</ns3:atemp>
          </ns3:TrackPointExtension>
        </extensions>
      </trkpt>
      <trkpt lat="42.56316994316875934600830078125" lon="20.0946088694036006927490234375">
        <ele>2010.4000244140625</ele>
        <time>2026-06-19T12:36:52.000Z</time>
        <extensions>
          <ns3:TrackPointExtension>
            <ns3:atemp>21.0</ns3:atemp>
          </ns3:TrackPointExtension>
        </extensions>
      </trkpt>
      <trkpt lat="42.56316994316875934600830078125" lon="20.0946088694036006927490234375">
        <ele>2010.4000244140625</ele>
        <time>2026-06-19T12:36:53.000Z</time>
        <extensions>
          <ns3:TrackPointExtension>
            <ns3:atemp>21.0</ns3:atemp>
          </ns3:TrackPointExtension>
        </extensions>
      </trkpt>
      <trkpt lat="42.56316994316875934600830078125" lon="20.0946088694036006927490234375">
        <ele>2010.4000244140625</ele>
        <time>2026-06-19T12:36:54.000Z</time>
        <extensions>
          <ns3:TrackPointExtension>
            <ns3:atemp>21.0</ns3:atemp>
          </ns3:TrackPointExtension>
        </extensions>
      </trkpt>
      <trkpt lat="42.56316994316875934600830078125" lon="20.0946088694036006927490234375">
        <ele>2010.4000244140625</ele>
        <time>2026-06-19T12:36:55.000Z</time>
        <extensions>
          <ns3:TrackPointExtension>
            <ns3:atemp>21.0</ns3:atemp>
          </ns3:TrackPointExtension>
        </extensions>
      </trkpt>
      <trkpt lat="42.56316994316875934600830078125" lon="20.0946088694036006927490234375">
        <ele>2010.4000244140625</ele>
        <time>2026-06-19T12:36:56.000Z</time>
        <extensions>
          <ns3:TrackPointExtension>
            <ns3:atemp>21.0</ns3:atemp>
          </ns3:TrackPointExtension>
        </extensions>
      </trkpt>
      <trkpt lat="42.56316994316875934600830078125" lon="20.0946088694036006927490234375">
        <ele>2010.4000244140625</ele>
        <time>2026-06-19T12:36:57.000Z</time>
        <extensions>
          <ns3:TrackPointExtension>
            <ns3:atemp>21.0</ns3:atemp>
          </ns3:TrackPointExtension>
        </extensions>
      </trkpt>
      <trkpt lat="42.56316994316875934600830078125" lon="20.0946088694036006927490234375">
        <ele>2010.4000244140625</ele>
        <time>2026-06-19T12:36:58.000Z</time>
        <extensions>
          <ns3:TrackPointExtension>
            <ns3:atemp>21.0</ns3:atemp>
          </ns3:TrackPointExtension>
        </extensions>
      </trkpt>
      <trkpt lat="42.56316994316875934600830078125" lon="20.0946088694036006927490234375">
        <ele>2010.4000244140625</ele>
        <time>2026-06-19T12:36:59.000Z</time>
        <extensions>
          <ns3:TrackPointExtension>
            <ns3:atemp>21.0</ns3:atemp>
          </ns3:TrackPointExtension>
        </extensions>
      </trkpt>
      <trkpt lat="42.56316994316875934600830078125" lon="20.0946088694036006927490234375">
        <ele>2010.4000244140625</ele>
        <time>2026-06-19T12:37:00.000Z</time>
        <extensions>
          <ns3:TrackPointExtension>
            <ns3:atemp>21.0</ns3:atemp>
          </ns3:TrackPointExtension>
        </extensions>
      </trkpt>
      <trkpt lat="42.56316994316875934600830078125" lon="20.0946088694036006927490234375">
        <ele>2010.4000244140625</ele>
        <time>2026-06-19T12:37:01.000Z</time>
        <extensions>
          <ns3:TrackPointExtension>
            <ns3:atemp>21.0</ns3:atemp>
          </ns3:TrackPointExtension>
        </extensions>
      </trkpt>
      <trkpt lat="42.56316994316875934600830078125" lon="20.0946088694036006927490234375">
        <ele>2010.4000244140625</ele>
        <time>2026-06-19T12:37:02.000Z</time>
        <extensions>
          <ns3:TrackPointExtension>
            <ns3:atemp>21.0</ns3:atemp>
          </ns3:TrackPointExtension>
        </extensions>
      </trkpt>
      <trkpt lat="42.56316994316875934600830078125" lon="20.0946088694036006927490234375">
        <ele>2010.4000244140625</ele>
        <time>2026-06-19T12:37:03.000Z</time>
        <extensions>
          <ns3:TrackPointExtension>
            <ns3:atemp>21.0</ns3:atemp>
          </ns3:TrackPointExtension>
        </extensions>
      </trkpt>
      <trkpt lat="42.56316994316875934600830078125" lon="20.0946088694036006927490234375">
        <ele>2010.4000244140625</ele>
        <time>2026-06-19T12:37:04.000Z</time>
        <extensions>
          <ns3:TrackPointExtension>
            <ns3:atemp>21.0</ns3:atemp>
          </ns3:TrackPointExtension>
        </extensions>
      </trkpt>
      <trkpt lat="42.56316994316875934600830078125" lon="20.0946088694036006927490234375">
        <ele>2010.4000244140625</ele>
        <time>2026-06-19T12:37:05.000Z</time>
        <extensions>
          <ns3:TrackPointExtension>
            <ns3:atemp>21.0</ns3:atemp>
          </ns3:TrackPointExtension>
        </extensions>
      </trkpt>
      <trkpt lat="42.56316994316875934600830078125" lon="20.0946088694036006927490234375">
        <ele>2010.4000244140625</ele>
        <time>2026-06-19T12:37:06.000Z</time>
        <extensions>
          <ns3:TrackPointExtension>
            <ns3:atemp>21.0</ns3:atemp>
          </ns3:TrackPointExtension>
        </extensions>
      </trkpt>
      <trkpt lat="42.56316994316875934600830078125" lon="20.0946088694036006927490234375">
        <ele>2010.4000244140625</ele>
        <time>2026-06-19T12:37:07.000Z</time>
        <extensions>
          <ns3:TrackPointExtension>
            <ns3:atemp>21.0</ns3:atemp>
          </ns3:TrackPointExtension>
        </extensions>
      </trkpt>
      <trkpt lat="42.56316994316875934600830078125" lon="20.0946088694036006927490234375">
        <ele>2010.4000244140625</ele>
        <time>2026-06-19T12:37:08.000Z</time>
        <extensions>
          <ns3:TrackPointExtension>
            <ns3:atemp>21.0</ns3:atemp>
          </ns3:TrackPointExtension>
        </extensions>
      </trkpt>
      <trkpt lat="42.56316994316875934600830078125" lon="20.0946088694036006927490234375">
        <ele>2010.4000244140625</ele>
        <time>2026-06-19T12:37:09.000Z</time>
        <extensions>
          <ns3:TrackPointExtension>
            <ns3:atemp>21.0</ns3:atemp>
          </ns3:TrackPointExtension>
        </extensions>
      </trkpt>
      <trkpt lat="42.56316994316875934600830078125" lon="20.0946088694036006927490234375">
        <ele>2010.4000244140625</ele>
        <time>2026-06-19T12:37:10.000Z</time>
        <extensions>
          <ns3:TrackPointExtension>
            <ns3:atemp>21.0</ns3:atemp>
          </ns3:TrackPointExtension>
        </extensions>
      </trkpt>
      <trkpt lat="42.56316994316875934600830078125" lon="20.0946088694036006927490234375">
        <ele>2010.4000244140625</ele>
        <time>2026-06-19T12:37:11.000Z</time>
        <extensions>
          <ns3:TrackPointExtension>
            <ns3:atemp>21.0</ns3:atemp>
          </ns3:TrackPointExtension>
        </extensions>
      </trkpt>
      <trkpt lat="42.56316994316875934600830078125" lon="20.0946088694036006927490234375">
        <ele>2010.4000244140625</ele>
        <time>2026-06-19T12:37:12.000Z</time>
        <extensions>
          <ns3:TrackPointExtension>
            <ns3:atemp>21.0</ns3:atemp>
          </ns3:TrackPointExtension>
        </extensions>
      </trkpt>
      <trkpt lat="42.56316994316875934600830078125" lon="20.0946088694036006927490234375">
        <ele>2010.4000244140625</ele>
        <time>2026-06-19T12:37:13.000Z</time>
        <extensions>
          <ns3:TrackPointExtension>
            <ns3:atemp>21.0</ns3:atemp>
          </ns3:TrackPointExtension>
        </extensions>
      </trkpt>
      <trkpt lat="42.56316994316875934600830078125" lon="20.0946088694036006927490234375">
        <ele>2010.4000244140625</ele>
        <time>2026-06-19T12:37:14.000Z</time>
        <extensions>
          <ns3:TrackPointExtension>
            <ns3:atemp>21.0</ns3:atemp>
          </ns3:TrackPointExtension>
        </extensions>
      </trkpt>
      <trkpt lat="42.56316994316875934600830078125" lon="20.0946088694036006927490234375">
        <ele>2010.4000244140625</ele>
        <time>2026-06-19T12:37:15.000Z</time>
        <extensions>
          <ns3:TrackPointExtension>
            <ns3:atemp>21.0</ns3:atemp>
          </ns3:TrackPointExtension>
        </extensions>
      </trkpt>
      <trkpt lat="42.56316994316875934600830078125" lon="20.0946088694036006927490234375">
        <ele>2010.4000244140625</ele>
        <time>2026-06-19T12:37:16.000Z</time>
        <extensions>
          <ns3:TrackPointExtension>
            <ns3:atemp>21.0</ns3:atemp>
          </ns3:TrackPointExtension>
        </extensions>
      </trkpt>
      <trkpt lat="42.56316994316875934600830078125" lon="20.0946088694036006927490234375">
        <ele>2010.4000244140625</ele>
        <time>2026-06-19T12:37:17.000Z</time>
        <extensions>
          <ns3:TrackPointExtension>
            <ns3:atemp>21.0</ns3:atemp>
          </ns3:TrackPointExtension>
        </extensions>
      </trkpt>
      <trkpt lat="42.56316994316875934600830078125" lon="20.0946088694036006927490234375">
        <ele>2010.4000244140625</ele>
        <time>2026-06-19T12:37:18.000Z</time>
        <extensions>
          <ns3:TrackPointExtension>
            <ns3:atemp>21.0</ns3:atemp>
          </ns3:TrackPointExtension>
        </extensions>
      </trkpt>
      <trkpt lat="42.56316994316875934600830078125" lon="20.0946088694036006927490234375">
        <ele>2010.4000244140625</ele>
        <time>2026-06-19T12:37:19.000Z</time>
        <extensions>
          <ns3:TrackPointExtension>
            <ns3:atemp>21.0</ns3:atemp>
          </ns3:TrackPointExtension>
        </extensions>
      </trkpt>
      <trkpt lat="42.56316994316875934600830078125" lon="20.0946088694036006927490234375">
        <ele>2010.4000244140625</ele>
        <time>2026-06-19T12:37:20.000Z</time>
        <extensions>
          <ns3:TrackPointExtension>
            <ns3:atemp>21.0</ns3:atemp>
          </ns3:TrackPointExtension>
        </extensions>
      </trkpt>
      <trkpt lat="42.56316994316875934600830078125" lon="20.0946088694036006927490234375">
        <ele>2010.4000244140625</ele>
        <time>2026-06-19T12:37:21.000Z</time>
        <extensions>
          <ns3:TrackPointExtension>
            <ns3:atemp>21.0</ns3:atemp>
          </ns3:TrackPointExtension>
        </extensions>
      </trkpt>
      <trkpt lat="42.56316994316875934600830078125" lon="20.0946088694036006927490234375">
        <ele>2010.4000244140625</ele>
        <time>2026-06-19T12:37:22.000Z</time>
        <extensions>
          <ns3:TrackPointExtension>
            <ns3:atemp>21.0</ns3:atemp>
          </ns3:TrackPointExtension>
        </extensions>
      </trkpt>
      <trkpt lat="42.56316994316875934600830078125" lon="20.0946088694036006927490234375">
        <ele>2010.4000244140625</ele>
        <time>2026-06-19T12:37:23.000Z</time>
        <extensions>
          <ns3:TrackPointExtension>
            <ns3:atemp>21.0</ns3:atemp>
          </ns3:TrackPointExtension>
        </extensions>
      </trkpt>
      <trkpt lat="42.56316994316875934600830078125" lon="20.0946088694036006927490234375">
        <ele>2010.4000244140625</ele>
        <time>2026-06-19T12:37:24.000Z</time>
        <extensions>
          <ns3:TrackPointExtension>
            <ns3:atemp>21.0</ns3:atemp>
          </ns3:TrackPointExtension>
        </extensions>
      </trkpt>
      <trkpt lat="42.56316994316875934600830078125" lon="20.0946088694036006927490234375">
        <ele>2010.4000244140625</ele>
        <time>2026-06-19T12:37:25.000Z</time>
        <extensions>
          <ns3:TrackPointExtension>
            <ns3:atemp>21.0</ns3:atemp>
          </ns3:TrackPointExtension>
        </extensions>
      </trkpt>
      <trkpt lat="42.56316994316875934600830078125" lon="20.0946088694036006927490234375">
        <ele>2010.4000244140625</ele>
        <time>2026-06-19T12:37:26.000Z</time>
        <extensions>
          <ns3:TrackPointExtension>
            <ns3:atemp>21.0</ns3:atemp>
          </ns3:TrackPointExtension>
        </extensions>
      </trkpt>
      <trkpt lat="42.56316994316875934600830078125" lon="20.0946088694036006927490234375">
        <ele>2010.4000244140625</ele>
        <time>2026-06-19T12:37:27.000Z</time>
        <extensions>
          <ns3:TrackPointExtension>
            <ns3:atemp>21.0</ns3:atemp>
          </ns3:TrackPointExtension>
        </extensions>
      </trkpt>
      <trkpt lat="42.56316994316875934600830078125" lon="20.0946088694036006927490234375">
        <ele>2010.4000244140625</ele>
        <time>2026-06-19T12:37:28.000Z</time>
        <extensions>
          <ns3:TrackPointExtension>
            <ns3:atemp>21.0</ns3:atemp>
          </ns3:TrackPointExtension>
        </extensions>
      </trkpt>
      <trkpt lat="42.56316994316875934600830078125" lon="20.0946088694036006927490234375">
        <ele>2010.4000244140625</ele>
        <time>2026-06-19T12:37:29.000Z</time>
        <extensions>
          <ns3:TrackPointExtension>
            <ns3:atemp>21.0</ns3:atemp>
          </ns3:TrackPointExtension>
        </extensions>
      </trkpt>
      <trkpt lat="42.56316994316875934600830078125" lon="20.0946088694036006927490234375">
        <ele>2010.4000244140625</ele>
        <time>2026-06-19T12:37:30.000Z</time>
        <extensions>
          <ns3:TrackPointExtension>
            <ns3:atemp>21.0</ns3:atemp>
          </ns3:TrackPointExtension>
        </extensions>
      </trkpt>
      <trkpt lat="42.56316994316875934600830078125" lon="20.0946088694036006927490234375">
        <ele>2010.4000244140625</ele>
        <time>2026-06-19T12:37:31.000Z</time>
        <extensions>
          <ns3:TrackPointExtension>
            <ns3:atemp>21.0</ns3:atemp>
          </ns3:TrackPointExtension>
        </extensions>
      </trkpt>
      <trkpt lat="42.56316994316875934600830078125" lon="20.0946088694036006927490234375">
        <ele>2010.4000244140625</ele>
        <time>2026-06-19T12:37:32.000Z</time>
        <extensions>
          <ns3:TrackPointExtension>
            <ns3:atemp>21.0</ns3:atemp>
          </ns3:TrackPointExtension>
        </extensions>
      </trkpt>
      <trkpt lat="42.56316994316875934600830078125" lon="20.0946088694036006927490234375">
        <ele>2010.4000244140625</ele>
        <time>2026-06-19T12:37:33.000Z</time>
        <extensions>
          <ns3:TrackPointExtension>
            <ns3:atemp>21.0</ns3:atemp>
          </ns3:TrackPointExtension>
        </extensions>
      </trkpt>
      <trkpt lat="42.56316994316875934600830078125" lon="20.0946088694036006927490234375">
        <ele>2010.4000244140625</ele>
        <time>2026-06-19T12:37:34.000Z</time>
        <extensions>
          <ns3:TrackPointExtension>
            <ns3:atemp>21.0</ns3:atemp>
          </ns3:TrackPointExtension>
        </extensions>
      </trkpt>
      <trkpt lat="42.56316994316875934600830078125" lon="20.0946088694036006927490234375">
        <ele>2010.4000244140625</ele>
        <time>2026-06-19T12:37:35.000Z</time>
        <extensions>
          <ns3:TrackPointExtension>
            <ns3:atemp>21.0</ns3:atemp>
          </ns3:TrackPointExtension>
        </extensions>
      </trkpt>
      <trkpt lat="42.56316994316875934600830078125" lon="20.0946088694036006927490234375">
        <ele>2010.4000244140625</ele>
        <time>2026-06-19T12:37:36.000Z</time>
        <extensions>
          <ns3:TrackPointExtension>
            <ns3:atemp>21.0</ns3:atemp>
          </ns3:TrackPointExtension>
        </extensions>
      </trkpt>
      <trkpt lat="42.56316994316875934600830078125" lon="20.0946088694036006927490234375">
        <ele>2010.4000244140625</ele>
        <time>2026-06-19T12:37:37.000Z</time>
        <extensions>
          <ns3:TrackPointExtension>
            <ns3:atemp>21.0</ns3:atemp>
          </ns3:TrackPointExtension>
        </extensions>
      </trkpt>
      <trkpt lat="42.56316994316875934600830078125" lon="20.0946088694036006927490234375">
        <ele>2010.4000244140625</ele>
        <time>2026-06-19T12:37:38.000Z</time>
        <extensions>
          <ns3:TrackPointExtension>
            <ns3:atemp>21.0</ns3:atemp>
          </ns3:TrackPointExtension>
        </extensions>
      </trkpt>
      <trkpt lat="42.56316994316875934600830078125" lon="20.0946088694036006927490234375">
        <ele>2010.4000244140625</ele>
        <time>2026-06-19T12:37:39.000Z</time>
        <extensions>
          <ns3:TrackPointExtension>
            <ns3:atemp>21.0</ns3:atemp>
          </ns3:TrackPointExtension>
        </extensions>
      </trkpt>
      <trkpt lat="42.56316994316875934600830078125" lon="20.0946088694036006927490234375">
        <ele>2010.4000244140625</ele>
        <time>2026-06-19T12:37:40.000Z</time>
        <extensions>
          <ns3:TrackPointExtension>
            <ns3:atemp>21.0</ns3:atemp>
          </ns3:TrackPointExtension>
        </extensions>
      </trkpt>
      <trkpt lat="42.56316994316875934600830078125" lon="20.0946088694036006927490234375">
        <ele>2010.4000244140625</ele>
        <time>2026-06-19T12:37:41.000Z</time>
        <extensions>
          <ns3:TrackPointExtension>
            <ns3:atemp>21.0</ns3:atemp>
          </ns3:TrackPointExtension>
        </extensions>
      </trkpt>
      <trkpt lat="42.56316994316875934600830078125" lon="20.0946088694036006927490234375">
        <ele>2010.4000244140625</ele>
        <time>2026-06-19T12:37:42.000Z</time>
        <extensions>
          <ns3:TrackPointExtension>
            <ns3:atemp>21.0</ns3:atemp>
          </ns3:TrackPointExtension>
        </extensions>
      </trkpt>
      <trkpt lat="42.56316994316875934600830078125" lon="20.0946088694036006927490234375">
        <ele>2010.4000244140625</ele>
        <time>2026-06-19T12:37:43.000Z</time>
        <extensions>
          <ns3:TrackPointExtension>
            <ns3:atemp>21.0</ns3:atemp>
          </ns3:TrackPointExtension>
        </extensions>
      </trkpt>
      <trkpt lat="42.56316994316875934600830078125" lon="20.0946088694036006927490234375">
        <ele>2010.4000244140625</ele>
        <time>2026-06-19T12:37:44.000Z</time>
        <extensions>
          <ns3:TrackPointExtension>
            <ns3:atemp>21.0</ns3:atemp>
          </ns3:TrackPointExtension>
        </extensions>
      </trkpt>
      <trkpt lat="42.56316994316875934600830078125" lon="20.0946088694036006927490234375">
        <ele>2010.4000244140625</ele>
        <time>2026-06-19T12:37:45.000Z</time>
        <extensions>
          <ns3:TrackPointExtension>
            <ns3:atemp>21.0</ns3:atemp>
          </ns3:TrackPointExtension>
        </extensions>
      </trkpt>
      <trkpt lat="42.56316994316875934600830078125" lon="20.0946088694036006927490234375">
        <ele>2010.4000244140625</ele>
        <time>2026-06-19T12:37:46.000Z</time>
        <extensions>
          <ns3:TrackPointExtension>
            <ns3:atemp>21.0</ns3:atemp>
          </ns3:TrackPointExtension>
        </extensions>
      </trkpt>
      <trkpt lat="42.56316994316875934600830078125" lon="20.0946088694036006927490234375">
        <ele>2010.4000244140625</ele>
        <time>2026-06-19T12:37:47.000Z</time>
        <extensions>
          <ns3:TrackPointExtension>
            <ns3:atemp>21.0</ns3:atemp>
          </ns3:TrackPointExtension>
        </extensions>
      </trkpt>
      <trkpt lat="42.56316994316875934600830078125" lon="20.0946088694036006927490234375">
        <ele>2010.4000244140625</ele>
        <time>2026-06-19T12:37:48.000Z</time>
        <extensions>
          <ns3:TrackPointExtension>
            <ns3:atemp>21.0</ns3:atemp>
          </ns3:TrackPointExtension>
        </extensions>
      </trkpt>
      <trkpt lat="42.56316994316875934600830078125" lon="20.0946088694036006927490234375">
        <ele>2010.4000244140625</ele>
        <time>2026-06-19T12:37:49.000Z</time>
        <extensions>
          <ns3:TrackPointExtension>
            <ns3:atemp>21.0</ns3:atemp>
          </ns3:TrackPointExtension>
        </extensions>
      </trkpt>
      <trkpt lat="42.56316994316875934600830078125" lon="20.0946088694036006927490234375">
        <ele>2010.4000244140625</ele>
        <time>2026-06-19T12:37:50.000Z</time>
        <extensions>
          <ns3:TrackPointExtension>
            <ns3:atemp>21.0</ns3:atemp>
          </ns3:TrackPointExtension>
        </extensions>
      </trkpt>
      <trkpt lat="42.56316994316875934600830078125" lon="20.0946088694036006927490234375">
        <ele>2010.4000244140625</ele>
        <time>2026-06-19T12:37:51.000Z</time>
        <extensions>
          <ns3:TrackPointExtension>
            <ns3:atemp>21.0</ns3:atemp>
          </ns3:TrackPointExtension>
        </extensions>
      </trkpt>
      <trkpt lat="42.56316994316875934600830078125" lon="20.0946088694036006927490234375">
        <ele>2010.4000244140625</ele>
        <time>2026-06-19T12:37:52.000Z</time>
        <extensions>
          <ns3:TrackPointExtension>
            <ns3:atemp>21.0</ns3:atemp>
          </ns3:TrackPointExtension>
        </extensions>
      </trkpt>
      <trkpt lat="42.56316994316875934600830078125" lon="20.0946088694036006927490234375">
        <ele>2010.4000244140625</ele>
        <time>2026-06-19T12:37:53.000Z</time>
        <extensions>
          <ns3:TrackPointExtension>
            <ns3:atemp>21.0</ns3:atemp>
          </ns3:TrackPointExtension>
        </extensions>
      </trkpt>
      <trkpt lat="42.56316994316875934600830078125" lon="20.0946088694036006927490234375">
        <ele>2010.4000244140625</ele>
        <time>2026-06-19T12:37:54.000Z</time>
        <extensions>
          <ns3:TrackPointExtension>
            <ns3:atemp>21.0</ns3:atemp>
          </ns3:TrackPointExtension>
        </extensions>
      </trkpt>
      <trkpt lat="42.56316994316875934600830078125" lon="20.0946088694036006927490234375">
        <ele>2010.4000244140625</ele>
        <time>2026-06-19T12:37:55.000Z</time>
        <extensions>
          <ns3:TrackPointExtension>
            <ns3:atemp>21.0</ns3:atemp>
          </ns3:TrackPointExtension>
        </extensions>
      </trkpt>
      <trkpt lat="42.56316994316875934600830078125" lon="20.0946088694036006927490234375">
        <ele>2010.4000244140625</ele>
        <time>2026-06-19T12:37:56.000Z</time>
        <extensions>
          <ns3:TrackPointExtension>
            <ns3:atemp>21.0</ns3:atemp>
          </ns3:TrackPointExtension>
        </extensions>
      </trkpt>
      <trkpt lat="42.56316994316875934600830078125" lon="20.0946088694036006927490234375">
        <ele>2010.4000244140625</ele>
        <time>2026-06-19T12:37:57.000Z</time>
        <extensions>
          <ns3:TrackPointExtension>
            <ns3:atemp>21.0</ns3:atemp>
          </ns3:TrackPointExtension>
        </extensions>
      </trkpt>
      <trkpt lat="42.56316994316875934600830078125" lon="20.0946088694036006927490234375">
        <ele>2010.4000244140625</ele>
        <time>2026-06-19T12:37:58.000Z</time>
        <extensions>
          <ns3:TrackPointExtension>
            <ns3:atemp>21.0</ns3:atemp>
          </ns3:TrackPointExtension>
        </extensions>
      </trkpt>
      <trkpt lat="42.56316994316875934600830078125" lon="20.0946088694036006927490234375">
        <ele>2010.4000244140625</ele>
        <time>2026-06-19T12:37:59.000Z</time>
        <extensions>
          <ns3:TrackPointExtension>
            <ns3:atemp>21.0</ns3:atemp>
          </ns3:TrackPointExtension>
        </extensions>
      </trkpt>
      <trkpt lat="42.56316994316875934600830078125" lon="20.0946088694036006927490234375">
        <ele>2010.4000244140625</ele>
        <time>2026-06-19T12:38:00.000Z</time>
        <extensions>
          <ns3:TrackPointExtension>
            <ns3:atemp>21.0</ns3:atemp>
          </ns3:TrackPointExtension>
        </extensions>
      </trkpt>
      <trkpt lat="42.56316994316875934600830078125" lon="20.0946088694036006927490234375">
        <ele>2010.4000244140625</ele>
        <time>2026-06-19T12:38:01.000Z</time>
        <extensions>
          <ns3:TrackPointExtension>
            <ns3:atemp>21.0</ns3:atemp>
          </ns3:TrackPointExtension>
        </extensions>
      </trkpt>
      <trkpt lat="42.56316994316875934600830078125" lon="20.0946088694036006927490234375">
        <ele>2010.4000244140625</ele>
        <time>2026-06-19T12:38:02.000Z</time>
        <extensions>
          <ns3:TrackPointExtension>
            <ns3:atemp>21.0</ns3:atemp>
          </ns3:TrackPointExtension>
        </extensions>
      </trkpt>
      <trkpt lat="42.56316994316875934600830078125" lon="20.0946088694036006927490234375">
        <ele>2010.4000244140625</ele>
        <time>2026-06-19T12:38:03.000Z</time>
        <extensions>
          <ns3:TrackPointExtension>
            <ns3:atemp>21.0</ns3:atemp>
          </ns3:TrackPointExtension>
        </extensions>
      </trkpt>
      <trkpt lat="42.56316994316875934600830078125" lon="20.0946088694036006927490234375">
        <ele>2010.4000244140625</ele>
        <time>2026-06-19T12:38:04.000Z</time>
        <extensions>
          <ns3:TrackPointExtension>
            <ns3:atemp>22.0</ns3:atemp>
          </ns3:TrackPointExtension>
        </extensions>
      </trkpt>
      <trkpt lat="42.56316994316875934600830078125" lon="20.0946088694036006927490234375">
        <ele>2010.4000244140625</ele>
        <time>2026-06-19T12:38:05.000Z</time>
        <extensions>
          <ns3:TrackPointExtension>
            <ns3:atemp>21.0</ns3:atemp>
          </ns3:TrackPointExtension>
        </extensions>
      </trkpt>
      <trkpt lat="42.56316994316875934600830078125" lon="20.0946088694036006927490234375">
        <ele>2010.4000244140625</ele>
        <time>2026-06-19T12:38:06.000Z</time>
        <extensions>
          <ns3:TrackPointExtension>
            <ns3:atemp>22.0</ns3:atemp>
          </ns3:TrackPointExtension>
        </extensions>
      </trkpt>
      <trkpt lat="42.56316994316875934600830078125" lon="20.0946088694036006927490234375">
        <ele>2010.4000244140625</ele>
        <time>2026-06-19T12:38:07.000Z</time>
        <extensions>
          <ns3:TrackPointExtension>
            <ns3:atemp>22.0</ns3:atemp>
          </ns3:TrackPointExtension>
        </extensions>
      </trkpt>
      <trkpt lat="42.56316994316875934600830078125" lon="20.0946088694036006927490234375">
        <ele>2010.4000244140625</ele>
        <time>2026-06-19T12:38:08.000Z</time>
        <extensions>
          <ns3:TrackPointExtension>
            <ns3:atemp>22.0</ns3:atemp>
          </ns3:TrackPointExtension>
        </extensions>
      </trkpt>
      <trkpt lat="42.56316994316875934600830078125" lon="20.0946088694036006927490234375">
        <ele>2010.4000244140625</ele>
        <time>2026-06-19T12:38:09.000Z</time>
        <extensions>
          <ns3:TrackPointExtension>
            <ns3:atemp>22.0</ns3:atemp>
          </ns3:TrackPointExtension>
        </extensions>
      </trkpt>
      <trkpt lat="42.56316994316875934600830078125" lon="20.0946088694036006927490234375">
        <ele>2010.4000244140625</ele>
        <time>2026-06-19T12:38:10.000Z</time>
        <extensions>
          <ns3:TrackPointExtension>
            <ns3:atemp>22.0</ns3:atemp>
          </ns3:TrackPointExtension>
        </extensions>
      </trkpt>
      <trkpt lat="42.56316994316875934600830078125" lon="20.0946088694036006927490234375">
        <ele>2010.4000244140625</ele>
        <time>2026-06-19T12:38:11.000Z</time>
        <extensions>
          <ns3:TrackPointExtension>
            <ns3:atemp>22.0</ns3:atemp>
          </ns3:TrackPointExtension>
        </extensions>
      </trkpt>
      <trkpt lat="42.56316994316875934600830078125" lon="20.0946088694036006927490234375">
        <ele>2010.4000244140625</ele>
        <time>2026-06-19T12:38:12.000Z</time>
        <extensions>
          <ns3:TrackPointExtension>
            <ns3:atemp>22.0</ns3:atemp>
          </ns3:TrackPointExtension>
        </extensions>
      </trkpt>
      <trkpt lat="42.56316994316875934600830078125" lon="20.0946088694036006927490234375">
        <ele>2010.4000244140625</ele>
        <time>2026-06-19T12:38:13.000Z</time>
        <extensions>
          <ns3:TrackPointExtension>
            <ns3:atemp>22.0</ns3:atemp>
          </ns3:TrackPointExtension>
        </extensions>
      </trkpt>
      <trkpt lat="42.56316994316875934600830078125" lon="20.0946088694036006927490234375">
        <ele>2010.4000244140625</ele>
        <time>2026-06-19T12:38:14.000Z</time>
        <extensions>
          <ns3:TrackPointExtension>
            <ns3:atemp>22.0</ns3:atemp>
          </ns3:TrackPointExtension>
        </extensions>
      </trkpt>
      <trkpt lat="42.56316994316875934600830078125" lon="20.0946088694036006927490234375">
        <ele>2010.4000244140625</ele>
        <time>2026-06-19T12:38:15.000Z</time>
        <extensions>
          <ns3:TrackPointExtension>
            <ns3:atemp>22.0</ns3:atemp>
          </ns3:TrackPointExtension>
        </extensions>
      </trkpt>
      <trkpt lat="42.56316994316875934600830078125" lon="20.0946088694036006927490234375">
        <ele>2010.4000244140625</ele>
        <time>2026-06-19T12:38:16.000Z</time>
        <extensions>
          <ns3:TrackPointExtension>
            <ns3:atemp>22.0</ns3:atemp>
          </ns3:TrackPointExtension>
        </extensions>
      </trkpt>
      <trkpt lat="42.56316994316875934600830078125" lon="20.0946088694036006927490234375">
        <ele>2010.4000244140625</ele>
        <time>2026-06-19T12:38:17.000Z</time>
        <extensions>
          <ns3:TrackPointExtension>
            <ns3:atemp>22.0</ns3:atemp>
          </ns3:TrackPointExtension>
        </extensions>
      </trkpt>
      <trkpt lat="42.56316994316875934600830078125" lon="20.0946088694036006927490234375">
        <ele>2010.4000244140625</ele>
        <time>2026-06-19T12:38:18.000Z</time>
        <extensions>
          <ns3:TrackPointExtension>
            <ns3:atemp>22.0</ns3:atemp>
          </ns3:TrackPointExtension>
        </extensions>
      </trkpt>
      <trkpt lat="42.56316994316875934600830078125" lon="20.0946088694036006927490234375">
        <ele>2010.4000244140625</ele>
        <time>2026-06-19T12:38:19.000Z</time>
        <extensions>
          <ns3:TrackPointExtension>
            <ns3:atemp>22.0</ns3:atemp>
          </ns3:TrackPointExtension>
        </extensions>
      </trkpt>
      <trkpt lat="42.56316994316875934600830078125" lon="20.0946088694036006927490234375">
        <ele>2010.4000244140625</ele>
        <time>2026-06-19T12:38:20.000Z</time>
        <extensions>
          <ns3:TrackPointExtension>
            <ns3:atemp>22.0</ns3:atemp>
          </ns3:TrackPointExtension>
        </extensions>
      </trkpt>
      <trkpt lat="42.56316994316875934600830078125" lon="20.0946088694036006927490234375">
        <ele>2010.4000244140625</ele>
        <time>2026-06-19T12:38:21.000Z</time>
        <extensions>
          <ns3:TrackPointExtension>
            <ns3:atemp>22.0</ns3:atemp>
          </ns3:TrackPointExtension>
        </extensions>
      </trkpt>
      <trkpt lat="42.56316994316875934600830078125" lon="20.0946088694036006927490234375">
        <ele>2010.4000244140625</ele>
        <time>2026-06-19T12:38:22.000Z</time>
        <extensions>
          <ns3:TrackPointExtension>
            <ns3:atemp>22.0</ns3:atemp>
          </ns3:TrackPointExtension>
        </extensions>
      </trkpt>
      <trkpt lat="42.56316994316875934600830078125" lon="20.0946088694036006927490234375">
        <ele>2010.4000244140625</ele>
        <time>2026-06-19T12:38:23.000Z</time>
        <extensions>
          <ns3:TrackPointExtension>
            <ns3:atemp>22.0</ns3:atemp>
          </ns3:TrackPointExtension>
        </extensions>
      </trkpt>
      <trkpt lat="42.56316994316875934600830078125" lon="20.0946088694036006927490234375">
        <ele>2010.4000244140625</ele>
        <time>2026-06-19T12:38:24.000Z</time>
        <extensions>
          <ns3:TrackPointExtension>
            <ns3:atemp>22.0</ns3:atemp>
          </ns3:TrackPointExtension>
        </extensions>
      </trkpt>
      <trkpt lat="42.56316994316875934600830078125" lon="20.0946088694036006927490234375">
        <ele>2010.4000244140625</ele>
        <time>2026-06-19T12:38:25.000Z</time>
        <extensions>
          <ns3:TrackPointExtension>
            <ns3:atemp>22.0</ns3:atemp>
          </ns3:TrackPointExtension>
        </extensions>
      </trkpt>
      <trkpt lat="42.56316994316875934600830078125" lon="20.0946088694036006927490234375">
        <ele>2010.4000244140625</ele>
        <time>2026-06-19T12:38:26.000Z</time>
        <extensions>
          <ns3:TrackPointExtension>
            <ns3:atemp>22.0</ns3:atemp>
          </ns3:TrackPointExtension>
        </extensions>
      </trkpt>
      <trkpt lat="42.56316994316875934600830078125" lon="20.0946088694036006927490234375">
        <ele>2010.4000244140625</ele>
        <time>2026-06-19T12:38:27.000Z</time>
        <extensions>
          <ns3:TrackPointExtension>
            <ns3:atemp>22.0</ns3:atemp>
          </ns3:TrackPointExtension>
        </extensions>
      </trkpt>
      <trkpt lat="42.56316994316875934600830078125" lon="20.0946088694036006927490234375">
        <ele>2010.4000244140625</ele>
        <time>2026-06-19T12:38:28.000Z</time>
        <extensions>
          <ns3:TrackPointExtension>
            <ns3:atemp>22.0</ns3:atemp>
          </ns3:TrackPointExtension>
        </extensions>
      </trkpt>
      <trkpt lat="42.56316994316875934600830078125" lon="20.0946088694036006927490234375">
        <ele>2010.4000244140625</ele>
        <time>2026-06-19T12:38:29.000Z</time>
        <extensions>
          <ns3:TrackPointExtension>
            <ns3:atemp>22.0</ns3:atemp>
          </ns3:TrackPointExtension>
        </extensions>
      </trkpt>
      <trkpt lat="42.56316994316875934600830078125" lon="20.0946088694036006927490234375">
        <ele>2010.4000244140625</ele>
        <time>2026-06-19T12:38:30.000Z</time>
        <extensions>
          <ns3:TrackPointExtension>
            <ns3:atemp>22.0</ns3:atemp>
          </ns3:TrackPointExtension>
        </extensions>
      </trkpt>
      <trkpt lat="42.56316994316875934600830078125" lon="20.0946088694036006927490234375">
        <ele>2010.4000244140625</ele>
        <time>2026-06-19T12:38:31.000Z</time>
        <extensions>
          <ns3:TrackPointExtension>
            <ns3:atemp>22.0</ns3:atemp>
          </ns3:TrackPointExtension>
        </extensions>
      </trkpt>
      <trkpt lat="42.56316994316875934600830078125" lon="20.0946088694036006927490234375">
        <ele>2010.4000244140625</ele>
        <time>2026-06-19T12:38:32.000Z</time>
        <extensions>
          <ns3:TrackPointExtension>
            <ns3:atemp>22.0</ns3:atemp>
          </ns3:TrackPointExtension>
        </extensions>
      </trkpt>
      <trkpt lat="42.56316994316875934600830078125" lon="20.0946088694036006927490234375">
        <ele>2010.4000244140625</ele>
        <time>2026-06-19T12:38:33.000Z</time>
        <extensions>
          <ns3:TrackPointExtension>
            <ns3:atemp>22.0</ns3:atemp>
          </ns3:TrackPointExtension>
        </extensions>
      </trkpt>
      <trkpt lat="42.56316994316875934600830078125" lon="20.0946088694036006927490234375">
        <ele>2010.4000244140625</ele>
        <time>2026-06-19T12:38:34.000Z</time>
        <extensions>
          <ns3:TrackPointExtension>
            <ns3:atemp>22.0</ns3:atemp>
          </ns3:TrackPointExtension>
        </extensions>
      </trkpt>
      <trkpt lat="42.56316994316875934600830078125" lon="20.0946088694036006927490234375">
        <ele>2010.4000244140625</ele>
        <time>2026-06-19T12:38:35.000Z</time>
        <extensions>
          <ns3:TrackPointExtension>
            <ns3:atemp>22.0</ns3:atemp>
          </ns3:TrackPointExtension>
        </extensions>
      </trkpt>
      <trkpt lat="42.56316994316875934600830078125" lon="20.0946088694036006927490234375">
        <ele>2010.4000244140625</ele>
        <time>2026-06-19T12:38:36.000Z</time>
        <extensions>
          <ns3:TrackPointExtension>
            <ns3:atemp>22.0</ns3:atemp>
          </ns3:TrackPointExtension>
        </extensions>
      </trkpt>
      <trkpt lat="42.56316994316875934600830078125" lon="20.0946088694036006927490234375">
        <ele>2010.4000244140625</ele>
        <time>2026-06-19T12:38:37.000Z</time>
        <extensions>
          <ns3:TrackPointExtension>
            <ns3:atemp>22.0</ns3:atemp>
          </ns3:TrackPointExtension>
        </extensions>
      </trkpt>
      <trkpt lat="42.56316994316875934600830078125" lon="20.0946088694036006927490234375">
        <ele>2010.4000244140625</ele>
        <time>2026-06-19T12:38:38.000Z</time>
        <extensions>
          <ns3:TrackPointExtension>
            <ns3:atemp>22.0</ns3:atemp>
          </ns3:TrackPointExtension>
        </extensions>
      </trkpt>
      <trkpt lat="42.56316994316875934600830078125" lon="20.0946088694036006927490234375">
        <ele>2010.4000244140625</ele>
        <time>2026-06-19T12:38:39.000Z</time>
        <extensions>
          <ns3:TrackPointExtension>
            <ns3:atemp>22.0</ns3:atemp>
          </ns3:TrackPointExtension>
        </extensions>
      </trkpt>
      <trkpt lat="42.56316994316875934600830078125" lon="20.0946088694036006927490234375">
        <ele>2010.4000244140625</ele>
        <time>2026-06-19T12:38:40.000Z</time>
        <extensions>
          <ns3:TrackPointExtension>
            <ns3:atemp>22.0</ns3:atemp>
          </ns3:TrackPointExtension>
        </extensions>
      </trkpt>
      <trkpt lat="42.56316994316875934600830078125" lon="20.0946088694036006927490234375">
        <ele>2010.4000244140625</ele>
        <time>2026-06-19T12:38:41.000Z</time>
        <extensions>
          <ns3:TrackPointExtension>
            <ns3:atemp>22.0</ns3:atemp>
          </ns3:TrackPointExtension>
        </extensions>
      </trkpt>
      <trkpt lat="42.56316994316875934600830078125" lon="20.0946088694036006927490234375">
        <ele>2010.4000244140625</ele>
        <time>2026-06-19T12:38:42.000Z</time>
        <extensions>
          <ns3:TrackPointExtension>
            <ns3:atemp>22.0</ns3:atemp>
          </ns3:TrackPointExtension>
        </extensions>
      </trkpt>
      <trkpt lat="42.56316994316875934600830078125" lon="20.0946088694036006927490234375">
        <ele>2010.4000244140625</ele>
        <time>2026-06-19T12:38:43.000Z</time>
        <extensions>
          <ns3:TrackPointExtension>
            <ns3:atemp>22.0</ns3:atemp>
          </ns3:TrackPointExtension>
        </extensions>
      </trkpt>
      <trkpt lat="42.56316994316875934600830078125" lon="20.0946088694036006927490234375">
        <ele>2010.4000244140625</ele>
        <time>2026-06-19T12:38:44.000Z</time>
        <extensions>
          <ns3:TrackPointExtension>
            <ns3:atemp>22.0</ns3:atemp>
          </ns3:TrackPointExtension>
        </extensions>
      </trkpt>
      <trkpt lat="42.56316994316875934600830078125" lon="20.0946088694036006927490234375">
        <ele>2010.4000244140625</ele>
        <time>2026-06-19T12:38:45.000Z</time>
        <extensions>
          <ns3:TrackPointExtension>
            <ns3:atemp>22.0</ns3:atemp>
          </ns3:TrackPointExtension>
        </extensions>
      </trkpt>
      <trkpt lat="42.56316994316875934600830078125" lon="20.0946088694036006927490234375">
        <ele>2010.4000244140625</ele>
        <time>2026-06-19T12:38:46.000Z</time>
        <extensions>
          <ns3:TrackPointExtension>
            <ns3:atemp>22.0</ns3:atemp>
          </ns3:TrackPointExtension>
        </extensions>
      </trkpt>
      <trkpt lat="42.56316994316875934600830078125" lon="20.0946088694036006927490234375">
        <ele>2010.4000244140625</ele>
        <time>2026-06-19T12:38:47.000Z</time>
        <extensions>
          <ns3:TrackPointExtension>
            <ns3:atemp>22.0</ns3:atemp>
          </ns3:TrackPointExtension>
        </extensions>
      </trkpt>
      <trkpt lat="42.56316994316875934600830078125" lon="20.0946088694036006927490234375">
        <ele>2010.4000244140625</ele>
        <time>2026-06-19T12:38:48.000Z</time>
        <extensions>
          <ns3:TrackPointExtension>
            <ns3:atemp>22.0</ns3:atemp>
          </ns3:TrackPointExtension>
        </extensions>
      </trkpt>
      <trkpt lat="42.56316994316875934600830078125" lon="20.0946088694036006927490234375">
        <ele>2010.4000244140625</ele>
        <time>2026-06-19T12:38:49.000Z</time>
        <extensions>
          <ns3:TrackPointExtension>
            <ns3:atemp>22.0</ns3:atemp>
          </ns3:TrackPointExtension>
        </extensions>
      </trkpt>
      <trkpt lat="42.56316994316875934600830078125" lon="20.0946088694036006927490234375">
        <ele>2010.4000244140625</ele>
        <time>2026-06-19T12:38:50.000Z</time>
        <extensions>
          <ns3:TrackPointExtension>
            <ns3:atemp>22.0</ns3:atemp>
          </ns3:TrackPointExtension>
        </extensions>
      </trkpt>
      <trkpt lat="42.56316994316875934600830078125" lon="20.0946088694036006927490234375">
        <ele>2010.4000244140625</ele>
        <time>2026-06-19T12:38:51.000Z</time>
        <extensions>
          <ns3:TrackPointExtension>
            <ns3:atemp>22.0</ns3:atemp>
          </ns3:TrackPointExtension>
        </extensions>
      </trkpt>
      <trkpt lat="42.56316994316875934600830078125" lon="20.0946088694036006927490234375">
        <ele>2010.4000244140625</ele>
        <time>2026-06-19T12:38:52.000Z</time>
        <extensions>
          <ns3:TrackPointExtension>
            <ns3:atemp>22.0</ns3:atemp>
          </ns3:TrackPointExtension>
        </extensions>
      </trkpt>
      <trkpt lat="42.56316994316875934600830078125" lon="20.0946088694036006927490234375">
        <ele>2010.4000244140625</ele>
        <time>2026-06-19T12:38:53.000Z</time>
        <extensions>
          <ns3:TrackPointExtension>
            <ns3:atemp>22.0</ns3:atemp>
          </ns3:TrackPointExtension>
        </extensions>
      </trkpt>
      <trkpt lat="42.56316994316875934600830078125" lon="20.0946088694036006927490234375">
        <ele>2010.4000244140625</ele>
        <time>2026-06-19T12:38:54.000Z</time>
        <extensions>
          <ns3:TrackPointExtension>
            <ns3:atemp>22.0</ns3:atemp>
          </ns3:TrackPointExtension>
        </extensions>
      </trkpt>
      <trkpt lat="42.56316994316875934600830078125" lon="20.0946088694036006927490234375">
        <ele>2010.4000244140625</ele>
        <time>2026-06-19T12:38:55.000Z</time>
        <extensions>
          <ns3:TrackPointExtension>
            <ns3:atemp>22.0</ns3:atemp>
          </ns3:TrackPointExtension>
        </extensions>
      </trkpt>
      <trkpt lat="42.56316994316875934600830078125" lon="20.0946088694036006927490234375">
        <ele>2010.4000244140625</ele>
        <time>2026-06-19T12:38:56.000Z</time>
        <extensions>
          <ns3:TrackPointExtension>
            <ns3:atemp>22.0</ns3:atemp>
          </ns3:TrackPointExtension>
        </extensions>
      </trkpt>
      <trkpt lat="42.56316994316875934600830078125" lon="20.0946088694036006927490234375">
        <ele>2010.4000244140625</ele>
        <time>2026-06-19T12:38:57.000Z</time>
        <extensions>
          <ns3:TrackPointExtension>
            <ns3:atemp>22.0</ns3:atemp>
          </ns3:TrackPointExtension>
        </extensions>
      </trkpt>
      <trkpt lat="42.56316994316875934600830078125" lon="20.0946088694036006927490234375">
        <ele>2010.4000244140625</ele>
        <time>2026-06-19T12:38:58.000Z</time>
        <extensions>
          <ns3:TrackPointExtension>
            <ns3:atemp>22.0</ns3:atemp>
          </ns3:TrackPointExtension>
        </extensions>
      </trkpt>
      <trkpt lat="42.56316994316875934600830078125" lon="20.0946088694036006927490234375">
        <ele>2010.4000244140625</ele>
        <time>2026-06-19T12:38:59.000Z</time>
        <extensions>
          <ns3:TrackPointExtension>
            <ns3:atemp>22.0</ns3:atemp>
          </ns3:TrackPointExtension>
        </extensions>
      </trkpt>
      <trkpt lat="42.56316994316875934600830078125" lon="20.0946088694036006927490234375">
        <ele>2010.4000244140625</ele>
        <time>2026-06-19T12:39:00.000Z</time>
        <extensions>
          <ns3:TrackPointExtension>
            <ns3:atemp>22.0</ns3:atemp>
          </ns3:TrackPointExtension>
        </extensions>
      </trkpt>
      <trkpt lat="42.56316994316875934600830078125" lon="20.0946088694036006927490234375">
        <ele>2010.4000244140625</ele>
        <time>2026-06-19T12:39:01.000Z</time>
        <extensions>
          <ns3:TrackPointExtension>
            <ns3:atemp>22.0</ns3:atemp>
          </ns3:TrackPointExtension>
        </extensions>
      </trkpt>
      <trkpt lat="42.56316994316875934600830078125" lon="20.0946088694036006927490234375">
        <ele>2010.4000244140625</ele>
        <time>2026-06-19T12:39:02.000Z</time>
        <extensions>
          <ns3:TrackPointExtension>
            <ns3:atemp>22.0</ns3:atemp>
          </ns3:TrackPointExtension>
        </extensions>
      </trkpt>
      <trkpt lat="42.56316994316875934600830078125" lon="20.0946088694036006927490234375">
        <ele>2010.4000244140625</ele>
        <time>2026-06-19T12:39:03.000Z</time>
        <extensions>
          <ns3:TrackPointExtension>
            <ns3:atemp>22.0</ns3:atemp>
          </ns3:TrackPointExtension>
        </extensions>
      </trkpt>
      <trkpt lat="42.56316994316875934600830078125" lon="20.0946088694036006927490234375">
        <ele>2010.4000244140625</ele>
        <time>2026-06-19T12:39:04.000Z</time>
        <extensions>
          <ns3:TrackPointExtension>
            <ns3:atemp>22.0</ns3:atemp>
          </ns3:TrackPointExtension>
        </extensions>
      </trkpt>
      <trkpt lat="42.56316994316875934600830078125" lon="20.0946088694036006927490234375">
        <ele>2010.4000244140625</ele>
        <time>2026-06-19T12:39:05.000Z</time>
        <extensions>
          <ns3:TrackPointExtension>
            <ns3:atemp>22.0</ns3:atemp>
          </ns3:TrackPointExtension>
        </extensions>
      </trkpt>
      <trkpt lat="42.56316994316875934600830078125" lon="20.0946088694036006927490234375">
        <ele>2010.4000244140625</ele>
        <time>2026-06-19T12:39:06.000Z</time>
        <extensions>
          <ns3:TrackPointExtension>
            <ns3:atemp>22.0</ns3:atemp>
          </ns3:TrackPointExtension>
        </extensions>
      </trkpt>
      <trkpt lat="42.56316994316875934600830078125" lon="20.0946088694036006927490234375">
        <ele>2010.4000244140625</ele>
        <time>2026-06-19T12:39:07.000Z</time>
        <extensions>
          <ns3:TrackPointExtension>
            <ns3:atemp>22.0</ns3:atemp>
          </ns3:TrackPointExtension>
        </extensions>
      </trkpt>
      <trkpt lat="42.56316994316875934600830078125" lon="20.0946088694036006927490234375">
        <ele>2010.4000244140625</ele>
        <time>2026-06-19T12:39:08.000Z</time>
        <extensions>
          <ns3:TrackPointExtension>
            <ns3:atemp>22.0</ns3:atemp>
          </ns3:TrackPointExtension>
        </extensions>
      </trkpt>
      <trkpt lat="42.56316994316875934600830078125" lon="20.0946088694036006927490234375">
        <ele>2010.4000244140625</ele>
        <time>2026-06-19T12:39:09.000Z</time>
        <extensions>
          <ns3:TrackPointExtension>
            <ns3:atemp>22.0</ns3:atemp>
          </ns3:TrackPointExtension>
        </extensions>
      </trkpt>
      <trkpt lat="42.56316994316875934600830078125" lon="20.0946088694036006927490234375">
        <ele>2010.4000244140625</ele>
        <time>2026-06-19T12:39:10.000Z</time>
        <extensions>
          <ns3:TrackPointExtension>
            <ns3:atemp>22.0</ns3:atemp>
          </ns3:TrackPointExtension>
        </extensions>
      </trkpt>
      <trkpt lat="42.56316994316875934600830078125" lon="20.0946088694036006927490234375">
        <ele>2010.4000244140625</ele>
        <time>2026-06-19T12:39:11.000Z</time>
        <extensions>
          <ns3:TrackPointExtension>
            <ns3:atemp>22.0</ns3:atemp>
          </ns3:TrackPointExtension>
        </extensions>
      </trkpt>
      <trkpt lat="42.56316994316875934600830078125" lon="20.0946088694036006927490234375">
        <ele>2010.4000244140625</ele>
        <time>2026-06-19T12:39:12.000Z</time>
        <extensions>
          <ns3:TrackPointExtension>
            <ns3:atemp>22.0</ns3:atemp>
          </ns3:TrackPointExtension>
        </extensions>
      </trkpt>
      <trkpt lat="42.56316994316875934600830078125" lon="20.0946088694036006927490234375">
        <ele>2010.4000244140625</ele>
        <time>2026-06-19T12:39:13.000Z</time>
        <extensions>
          <ns3:TrackPointExtension>
            <ns3:atemp>22.0</ns3:atemp>
          </ns3:TrackPointExtension>
        </extensions>
      </trkpt>
      <trkpt lat="42.56316994316875934600830078125" lon="20.0946088694036006927490234375">
        <ele>2010.4000244140625</ele>
        <time>2026-06-19T12:39:14.000Z</time>
        <extensions>
          <ns3:TrackPointExtension>
            <ns3:atemp>22.0</ns3:atemp>
          </ns3:TrackPointExtension>
        </extensions>
      </trkpt>
      <trkpt lat="42.56316994316875934600830078125" lon="20.0946088694036006927490234375">
        <ele>2010.4000244140625</ele>
        <time>2026-06-19T12:39:15.000Z</time>
        <extensions>
          <ns3:TrackPointExtension>
            <ns3:atemp>22.0</ns3:atemp>
          </ns3:TrackPointExtension>
        </extensions>
      </trkpt>
      <trkpt lat="42.56316994316875934600830078125" lon="20.0946088694036006927490234375">
        <ele>2010.4000244140625</ele>
        <time>2026-06-19T12:39:16.000Z</time>
        <extensions>
          <ns3:TrackPointExtension>
            <ns3:atemp>22.0</ns3:atemp>
          </ns3:TrackPointExtension>
        </extensions>
      </trkpt>
      <trkpt lat="42.56316994316875934600830078125" lon="20.0946088694036006927490234375">
        <ele>2010.4000244140625</ele>
        <time>2026-06-19T12:39:17.000Z</time>
        <extensions>
          <ns3:TrackPointExtension>
            <ns3:atemp>22.0</ns3:atemp>
          </ns3:TrackPointExtension>
        </extensions>
      </trkpt>
      <trkpt lat="42.56316994316875934600830078125" lon="20.0946088694036006927490234375">
        <ele>2010.4000244140625</ele>
        <time>2026-06-19T12:39:18.000Z</time>
        <extensions>
          <ns3:TrackPointExtension>
            <ns3:atemp>22.0</ns3:atemp>
          </ns3:TrackPointExtension>
        </extensions>
      </trkpt>
      <trkpt lat="42.56316994316875934600830078125" lon="20.0946088694036006927490234375">
        <ele>2010.4000244140625</ele>
        <time>2026-06-19T12:39:19.000Z</time>
        <extensions>
          <ns3:TrackPointExtension>
            <ns3:atemp>22.0</ns3:atemp>
          </ns3:TrackPointExtension>
        </extensions>
      </trkpt>
      <trkpt lat="42.56316994316875934600830078125" lon="20.0946088694036006927490234375">
        <ele>2010.4000244140625</ele>
        <time>2026-06-19T12:39:20.000Z</time>
        <extensions>
          <ns3:TrackPointExtension>
            <ns3:atemp>22.0</ns3:atemp>
          </ns3:TrackPointExtension>
        </extensions>
      </trkpt>
      <trkpt lat="42.56316994316875934600830078125" lon="20.0946088694036006927490234375">
        <ele>2010.4000244140625</ele>
        <time>2026-06-19T12:39:21.000Z</time>
        <extensions>
          <ns3:TrackPointExtension>
            <ns3:atemp>22.0</ns3:atemp>
          </ns3:TrackPointExtension>
        </extensions>
      </trkpt>
      <trkpt lat="42.56316994316875934600830078125" lon="20.0946088694036006927490234375">
        <ele>2010.4000244140625</ele>
        <time>2026-06-19T12:39:22.000Z</time>
        <extensions>
          <ns3:TrackPointExtension>
            <ns3:atemp>22.0</ns3:atemp>
          </ns3:TrackPointExtension>
        </extensions>
      </trkpt>
      <trkpt lat="42.56316994316875934600830078125" lon="20.0946088694036006927490234375">
        <ele>2010.4000244140625</ele>
        <time>2026-06-19T12:39:23.000Z</time>
        <extensions>
          <ns3:TrackPointExtension>
            <ns3:atemp>22.0</ns3:atemp>
          </ns3:TrackPointExtension>
        </extensions>
      </trkpt>
      <trkpt lat="42.56316994316875934600830078125" lon="20.0946088694036006927490234375">
        <ele>2010.4000244140625</ele>
        <time>2026-06-19T12:39:24.000Z</time>
        <extensions>
          <ns3:TrackPointExtension>
            <ns3:atemp>22.0</ns3:atemp>
          </ns3:TrackPointExtension>
        </extensions>
      </trkpt>
      <trkpt lat="42.56316994316875934600830078125" lon="20.0946088694036006927490234375">
        <ele>2010.4000244140625</ele>
        <time>2026-06-19T12:39:25.000Z</time>
        <extensions>
          <ns3:TrackPointExtension>
            <ns3:atemp>22.0</ns3:atemp>
          </ns3:TrackPointExtension>
        </extensions>
      </trkpt>
      <trkpt lat="42.56316994316875934600830078125" lon="20.0946088694036006927490234375">
        <ele>2010.4000244140625</ele>
        <time>2026-06-19T12:39:26.000Z</time>
        <extensions>
          <ns3:TrackPointExtension>
            <ns3:atemp>22.0</ns3:atemp>
          </ns3:TrackPointExtension>
        </extensions>
      </trkpt>
      <trkpt lat="42.56316994316875934600830078125" lon="20.0946088694036006927490234375">
        <ele>2010.4000244140625</ele>
        <time>2026-06-19T12:39:27.000Z</time>
        <extensions>
          <ns3:TrackPointExtension>
            <ns3:atemp>22.0</ns3:atemp>
          </ns3:TrackPointExtension>
        </extensions>
      </trkpt>
      <trkpt lat="42.56316994316875934600830078125" lon="20.0946088694036006927490234375">
        <ele>2010.4000244140625</ele>
        <time>2026-06-19T12:39:28.000Z</time>
        <extensions>
          <ns3:TrackPointExtension>
            <ns3:atemp>22.0</ns3:atemp>
          </ns3:TrackPointExtension>
        </extensions>
      </trkpt>
      <trkpt lat="42.56316994316875934600830078125" lon="20.0946088694036006927490234375">
        <ele>2010.4000244140625</ele>
        <time>2026-06-19T12:39:29.000Z</time>
        <extensions>
          <ns3:TrackPointExtension>
            <ns3:atemp>22.0</ns3:atemp>
          </ns3:TrackPointExtension>
        </extensions>
      </trkpt>
      <trkpt lat="42.56316994316875934600830078125" lon="20.0946088694036006927490234375">
        <ele>2010.4000244140625</ele>
        <time>2026-06-19T12:39:30.000Z</time>
        <extensions>
          <ns3:TrackPointExtension>
            <ns3:atemp>22.0</ns3:atemp>
          </ns3:TrackPointExtension>
        </extensions>
      </trkpt>
      <trkpt lat="42.56316994316875934600830078125" lon="20.0946088694036006927490234375">
        <ele>2010.4000244140625</ele>
        <time>2026-06-19T12:39:31.000Z</time>
        <extensions>
          <ns3:TrackPointExtension>
            <ns3:atemp>22.0</ns3:atemp>
          </ns3:TrackPointExtension>
        </extensions>
      </trkpt>
      <trkpt lat="42.56316994316875934600830078125" lon="20.0946088694036006927490234375">
        <ele>2010.4000244140625</ele>
        <time>2026-06-19T12:39:32.000Z</time>
        <extensions>
          <ns3:TrackPointExtension>
            <ns3:atemp>23.0</ns3:atemp>
          </ns3:TrackPointExtension>
        </extensions>
      </trkpt>
      <trkpt lat="42.56316994316875934600830078125" lon="20.0946088694036006927490234375">
        <ele>2010.4000244140625</ele>
        <time>2026-06-19T12:39:33.000Z</time>
        <extensions>
          <ns3:TrackPointExtension>
            <ns3:atemp>23.0</ns3:atemp>
          </ns3:TrackPointExtension>
        </extensions>
      </trkpt>
      <trkpt lat="42.56316994316875934600830078125" lon="20.0946088694036006927490234375">
        <ele>2010.4000244140625</ele>
        <time>2026-06-19T12:39:34.000Z</time>
        <extensions>
          <ns3:TrackPointExtension>
            <ns3:atemp>23.0</ns3:atemp>
          </ns3:TrackPointExtension>
        </extensions>
      </trkpt>
      <trkpt lat="42.56316994316875934600830078125" lon="20.0946088694036006927490234375">
        <ele>2010.4000244140625</ele>
        <time>2026-06-19T12:39:35.000Z</time>
        <extensions>
          <ns3:TrackPointExtension>
            <ns3:atemp>23.0</ns3:atemp>
          </ns3:TrackPointExtension>
        </extensions>
      </trkpt>
      <trkpt lat="42.56316994316875934600830078125" lon="20.0946088694036006927490234375">
        <ele>2010.4000244140625</ele>
        <time>2026-06-19T12:39:36.000Z</time>
        <extensions>
          <ns3:TrackPointExtension>
            <ns3:atemp>23.0</ns3:atemp>
          </ns3:TrackPointExtension>
        </extensions>
      </trkpt>
      <trkpt lat="42.56316994316875934600830078125" lon="20.0946088694036006927490234375">
        <ele>2010.4000244140625</ele>
        <time>2026-06-19T12:39:37.000Z</time>
        <extensions>
          <ns3:TrackPointExtension>
            <ns3:atemp>23.0</ns3:atemp>
          </ns3:TrackPointExtension>
        </extensions>
      </trkpt>
      <trkpt lat="42.56316994316875934600830078125" lon="20.0946088694036006927490234375">
        <ele>2010.4000244140625</ele>
        <time>2026-06-19T12:39:38.000Z</time>
        <extensions>
          <ns3:TrackPointExtension>
            <ns3:atemp>23.0</ns3:atemp>
          </ns3:TrackPointExtension>
        </extensions>
      </trkpt>
      <trkpt lat="42.56316994316875934600830078125" lon="20.0946088694036006927490234375">
        <ele>2010.4000244140625</ele>
        <time>2026-06-19T12:39:39.000Z</time>
        <extensions>
          <ns3:TrackPointExtension>
            <ns3:atemp>23.0</ns3:atemp>
          </ns3:TrackPointExtension>
        </extensions>
      </trkpt>
      <trkpt lat="42.56316994316875934600830078125" lon="20.0946088694036006927490234375">
        <ele>2010.4000244140625</ele>
        <time>2026-06-19T12:39:40.000Z</time>
        <extensions>
          <ns3:TrackPointExtension>
            <ns3:atemp>23.0</ns3:atemp>
          </ns3:TrackPointExtension>
        </extensions>
      </trkpt>
      <trkpt lat="42.56316994316875934600830078125" lon="20.0946088694036006927490234375">
        <ele>2010.4000244140625</ele>
        <time>2026-06-19T12:39:41.000Z</time>
        <extensions>
          <ns3:TrackPointExtension>
            <ns3:atemp>23.0</ns3:atemp>
          </ns3:TrackPointExtension>
        </extensions>
      </trkpt>
      <trkpt lat="42.56316994316875934600830078125" lon="20.0946088694036006927490234375">
        <ele>2010.4000244140625</ele>
        <time>2026-06-19T12:39:42.000Z</time>
        <extensions>
          <ns3:TrackPointExtension>
            <ns3:atemp>23.0</ns3:atemp>
          </ns3:TrackPointExtension>
        </extensions>
      </trkpt>
      <trkpt lat="42.56316994316875934600830078125" lon="20.0946088694036006927490234375">
        <ele>2010.4000244140625</ele>
        <time>2026-06-19T12:39:43.000Z</time>
        <extensions>
          <ns3:TrackPointExtension>
            <ns3:atemp>23.0</ns3:atemp>
          </ns3:TrackPointExtension>
        </extensions>
      </trkpt>
      <trkpt lat="42.56316994316875934600830078125" lon="20.0946088694036006927490234375">
        <ele>2010.4000244140625</ele>
        <time>2026-06-19T12:39:44.000Z</time>
        <extensions>
          <ns3:TrackPointExtension>
            <ns3:atemp>23.0</ns3:atemp>
          </ns3:TrackPointExtension>
        </extensions>
      </trkpt>
      <trkpt lat="42.56316994316875934600830078125" lon="20.0946088694036006927490234375">
        <ele>2010.4000244140625</ele>
        <time>2026-06-19T12:39:45.000Z</time>
        <extensions>
          <ns3:TrackPointExtension>
            <ns3:atemp>23.0</ns3:atemp>
          </ns3:TrackPointExtension>
        </extensions>
      </trkpt>
      <trkpt lat="42.56316994316875934600830078125" lon="20.0946088694036006927490234375">
        <ele>2010.4000244140625</ele>
        <time>2026-06-19T12:39:46.000Z</time>
        <extensions>
          <ns3:TrackPointExtension>
            <ns3:atemp>23.0</ns3:atemp>
          </ns3:TrackPointExtension>
        </extensions>
      </trkpt>
      <trkpt lat="42.56316994316875934600830078125" lon="20.0946088694036006927490234375">
        <ele>2010.4000244140625</ele>
        <time>2026-06-19T12:39:47.000Z</time>
        <extensions>
          <ns3:TrackPointExtension>
            <ns3:atemp>23.0</ns3:atemp>
          </ns3:TrackPointExtension>
        </extensions>
      </trkpt>
      <trkpt lat="42.56316994316875934600830078125" lon="20.0946088694036006927490234375">
        <ele>2010.4000244140625</ele>
        <time>2026-06-19T12:39:48.000Z</time>
        <extensions>
          <ns3:TrackPointExtension>
            <ns3:atemp>23.0</ns3:atemp>
          </ns3:TrackPointExtension>
        </extensions>
      </trkpt>
      <trkpt lat="42.56316994316875934600830078125" lon="20.0946088694036006927490234375">
        <ele>2010.4000244140625</ele>
        <time>2026-06-19T12:39:49.000Z</time>
        <extensions>
          <ns3:TrackPointExtension>
            <ns3:atemp>23.0</ns3:atemp>
          </ns3:TrackPointExtension>
        </extensions>
      </trkpt>
      <trkpt lat="42.56316994316875934600830078125" lon="20.0946088694036006927490234375">
        <ele>2010.4000244140625</ele>
        <time>2026-06-19T12:39:50.000Z</time>
        <extensions>
          <ns3:TrackPointExtension>
            <ns3:atemp>23.0</ns3:atemp>
          </ns3:TrackPointExtension>
        </extensions>
      </trkpt>
      <trkpt lat="42.56316994316875934600830078125" lon="20.0946088694036006927490234375">
        <ele>2010.4000244140625</ele>
        <time>2026-06-19T12:39:51.000Z</time>
        <extensions>
          <ns3:TrackPointExtension>
            <ns3:atemp>23.0</ns3:atemp>
          </ns3:TrackPointExtension>
        </extensions>
      </trkpt>
      <trkpt lat="42.56316994316875934600830078125" lon="20.0946088694036006927490234375">
        <ele>2010.4000244140625</ele>
        <time>2026-06-19T12:39:52.000Z</time>
        <extensions>
          <ns3:TrackPointExtension>
            <ns3:atemp>23.0</ns3:atemp>
          </ns3:TrackPointExtension>
        </extensions>
      </trkpt>
      <trkpt lat="42.56316994316875934600830078125" lon="20.0946088694036006927490234375">
        <ele>2010.4000244140625</ele>
        <time>2026-06-19T12:39:53.000Z</time>
        <extensions>
          <ns3:TrackPointExtension>
            <ns3:atemp>23.0</ns3:atemp>
          </ns3:TrackPointExtension>
        </extensions>
      </trkpt>
      <trkpt lat="42.56316994316875934600830078125" lon="20.0946088694036006927490234375">
        <ele>2010.4000244140625</ele>
        <time>2026-06-19T12:39:54.000Z</time>
        <extensions>
          <ns3:TrackPointExtension>
            <ns3:atemp>23.0</ns3:atemp>
          </ns3:TrackPointExtension>
        </extensions>
      </trkpt>
      <trkpt lat="42.56316994316875934600830078125" lon="20.0946088694036006927490234375">
        <ele>2010.4000244140625</ele>
        <time>2026-06-19T12:39:55.000Z</time>
        <extensions>
          <ns3:TrackPointExtension>
            <ns3:atemp>23.0</ns3:atemp>
          </ns3:TrackPointExtension>
        </extensions>
      </trkpt>
      <trkpt lat="42.56316994316875934600830078125" lon="20.0946088694036006927490234375">
        <ele>2010.4000244140625</ele>
        <time>2026-06-19T12:39:56.000Z</time>
        <extensions>
          <ns3:TrackPointExtension>
            <ns3:atemp>23.0</ns3:atemp>
          </ns3:TrackPointExtension>
        </extensions>
      </trkpt>
      <trkpt lat="42.56316994316875934600830078125" lon="20.0946088694036006927490234375">
        <ele>2010.4000244140625</ele>
        <time>2026-06-19T12:39:57.000Z</time>
        <extensions>
          <ns3:TrackPointExtension>
            <ns3:atemp>23.0</ns3:atemp>
          </ns3:TrackPointExtension>
        </extensions>
      </trkpt>
      <trkpt lat="42.56316994316875934600830078125" lon="20.0946088694036006927490234375">
        <ele>2010.4000244140625</ele>
        <time>2026-06-19T12:39:58.000Z</time>
        <extensions>
          <ns3:TrackPointExtension>
            <ns3:atemp>23.0</ns3:atemp>
          </ns3:TrackPointExtension>
        </extensions>
      </trkpt>
      <trkpt lat="42.56316994316875934600830078125" lon="20.0946088694036006927490234375">
        <ele>2010.4000244140625</ele>
        <time>2026-06-19T12:39:59.000Z</time>
        <extensions>
          <ns3:TrackPointExtension>
            <ns3:atemp>23.0</ns3:atemp>
          </ns3:TrackPointExtension>
        </extensions>
      </trkpt>
      <trkpt lat="42.56316994316875934600830078125" lon="20.0946088694036006927490234375">
        <ele>2010.4000244140625</ele>
        <time>2026-06-19T12:40:00.000Z</time>
        <extensions>
          <ns3:TrackPointExtension>
            <ns3:atemp>23.0</ns3:atemp>
          </ns3:TrackPointExtension>
        </extensions>
      </trkpt>
      <trkpt lat="42.56316994316875934600830078125" lon="20.0946088694036006927490234375">
        <ele>2010.4000244140625</ele>
        <time>2026-06-19T12:40:01.000Z</time>
        <extensions>
          <ns3:TrackPointExtension>
            <ns3:atemp>23.0</ns3:atemp>
          </ns3:TrackPointExtension>
        </extensions>
      </trkpt>
      <trkpt lat="42.56316994316875934600830078125" lon="20.0946088694036006927490234375">
        <ele>2010.4000244140625</ele>
        <time>2026-06-19T12:40:02.000Z</time>
        <extensions>
          <ns3:TrackPointExtension>
            <ns3:atemp>23.0</ns3:atemp>
          </ns3:TrackPointExtension>
        </extensions>
      </trkpt>
      <trkpt lat="42.56316994316875934600830078125" lon="20.0946088694036006927490234375">
        <ele>2010.4000244140625</ele>
        <time>2026-06-19T12:40:03.000Z</time>
        <extensions>
          <ns3:TrackPointExtension>
            <ns3:atemp>23.0</ns3:atemp>
          </ns3:TrackPointExtension>
        </extensions>
      </trkpt>
      <trkpt lat="42.56316994316875934600830078125" lon="20.0946088694036006927490234375">
        <ele>2010.4000244140625</ele>
        <time>2026-06-19T12:40:04.000Z</time>
        <extensions>
          <ns3:TrackPointExtension>
            <ns3:atemp>23.0</ns3:atemp>
          </ns3:TrackPointExtension>
        </extensions>
      </trkpt>
      <trkpt lat="42.56316994316875934600830078125" lon="20.0946088694036006927490234375">
        <ele>2010.4000244140625</ele>
        <time>2026-06-19T12:40:05.000Z</time>
        <extensions>
          <ns3:TrackPointExtension>
            <ns3:atemp>23.0</ns3:atemp>
          </ns3:TrackPointExtension>
        </extensions>
      </trkpt>
      <trkpt lat="42.56316994316875934600830078125" lon="20.0946088694036006927490234375">
        <ele>2010.4000244140625</ele>
        <time>2026-06-19T12:40:06.000Z</time>
        <extensions>
          <ns3:TrackPointExtension>
            <ns3:atemp>23.0</ns3:atemp>
          </ns3:TrackPointExtension>
        </extensions>
      </trkpt>
      <trkpt lat="42.56316994316875934600830078125" lon="20.0946088694036006927490234375">
        <ele>2010.4000244140625</ele>
        <time>2026-06-19T12:40:07.000Z</time>
        <extensions>
          <ns3:TrackPointExtension>
            <ns3:atemp>23.0</ns3:atemp>
          </ns3:TrackPointExtension>
        </extensions>
      </trkpt>
      <trkpt lat="42.56316994316875934600830078125" lon="20.0946088694036006927490234375">
        <ele>2010.4000244140625</ele>
        <time>2026-06-19T12:40:08.000Z</time>
        <extensions>
          <ns3:TrackPointExtension>
            <ns3:atemp>23.0</ns3:atemp>
          </ns3:TrackPointExtension>
        </extensions>
      </trkpt>
      <trkpt lat="42.56316994316875934600830078125" lon="20.0946088694036006927490234375">
        <ele>2010.4000244140625</ele>
        <time>2026-06-19T12:40:09.000Z</time>
        <extensions>
          <ns3:TrackPointExtension>
            <ns3:atemp>23.0</ns3:atemp>
          </ns3:TrackPointExtension>
        </extensions>
      </trkpt>
      <trkpt lat="42.56316994316875934600830078125" lon="20.0946088694036006927490234375">
        <ele>2010.4000244140625</ele>
        <time>2026-06-19T12:40:10.000Z</time>
        <extensions>
          <ns3:TrackPointExtension>
            <ns3:atemp>23.0</ns3:atemp>
          </ns3:TrackPointExtension>
        </extensions>
      </trkpt>
      <trkpt lat="42.56316994316875934600830078125" lon="20.0946088694036006927490234375">
        <ele>2010.4000244140625</ele>
        <time>2026-06-19T12:40:11.000Z</time>
        <extensions>
          <ns3:TrackPointExtension>
            <ns3:atemp>23.0</ns3:atemp>
          </ns3:TrackPointExtension>
        </extensions>
      </trkpt>
      <trkpt lat="42.56316994316875934600830078125" lon="20.0946088694036006927490234375">
        <ele>2010.4000244140625</ele>
        <time>2026-06-19T12:40:12.000Z</time>
        <extensions>
          <ns3:TrackPointExtension>
            <ns3:atemp>23.0</ns3:atemp>
          </ns3:TrackPointExtension>
        </extensions>
      </trkpt>
      <trkpt lat="42.56316994316875934600830078125" lon="20.0946088694036006927490234375">
        <ele>2010.4000244140625</ele>
        <time>2026-06-19T12:40:13.000Z</time>
        <extensions>
          <ns3:TrackPointExtension>
            <ns3:atemp>23.0</ns3:atemp>
          </ns3:TrackPointExtension>
        </extensions>
      </trkpt>
      <trkpt lat="42.56316994316875934600830078125" lon="20.0946088694036006927490234375">
        <ele>2010.4000244140625</ele>
        <time>2026-06-19T12:40:14.000Z</time>
        <extensions>
          <ns3:TrackPointExtension>
            <ns3:atemp>23.0</ns3:atemp>
          </ns3:TrackPointExtension>
        </extensions>
      </trkpt>
      <trkpt lat="42.56316994316875934600830078125" lon="20.0946088694036006927490234375">
        <ele>2010.4000244140625</ele>
        <time>2026-06-19T12:40:15.000Z</time>
        <extensions>
          <ns3:TrackPointExtension>
            <ns3:atemp>23.0</ns3:atemp>
          </ns3:TrackPointExtension>
        </extensions>
      </trkpt>
      <trkpt lat="42.56316994316875934600830078125" lon="20.0946088694036006927490234375">
        <ele>2010.4000244140625</ele>
        <time>2026-06-19T12:40:16.000Z</time>
        <extensions>
          <ns3:TrackPointExtension>
            <ns3:atemp>23.0</ns3:atemp>
          </ns3:TrackPointExtension>
        </extensions>
      </trkpt>
      <trkpt lat="42.56316994316875934600830078125" lon="20.0946088694036006927490234375">
        <ele>2010.4000244140625</ele>
        <time>2026-06-19T12:40:17.000Z</time>
        <extensions>
          <ns3:TrackPointExtension>
            <ns3:atemp>23.0</ns3:atemp>
          </ns3:TrackPointExtension>
        </extensions>
      </trkpt>
      <trkpt lat="42.56316994316875934600830078125" lon="20.0946088694036006927490234375">
        <ele>2010.4000244140625</ele>
        <time>2026-06-19T12:40:18.000Z</time>
        <extensions>
          <ns3:TrackPointExtension>
            <ns3:atemp>23.0</ns3:atemp>
          </ns3:TrackPointExtension>
        </extensions>
      </trkpt>
      <trkpt lat="42.56316994316875934600830078125" lon="20.0946088694036006927490234375">
        <ele>2010.4000244140625</ele>
        <time>2026-06-19T12:40:19.000Z</time>
        <extensions>
          <ns3:TrackPointExtension>
            <ns3:atemp>23.0</ns3:atemp>
          </ns3:TrackPointExtension>
        </extensions>
      </trkpt>
      <trkpt lat="42.56316994316875934600830078125" lon="20.0946088694036006927490234375">
        <ele>2010.4000244140625</ele>
        <time>2026-06-19T12:40:20.000Z</time>
        <extensions>
          <ns3:TrackPointExtension>
            <ns3:atemp>23.0</ns3:atemp>
          </ns3:TrackPointExtension>
        </extensions>
      </trkpt>
      <trkpt lat="42.56316994316875934600830078125" lon="20.0946088694036006927490234375">
        <ele>2010.4000244140625</ele>
        <time>2026-06-19T12:40:21.000Z</time>
        <extensions>
          <ns3:TrackPointExtension>
            <ns3:atemp>23.0</ns3:atemp>
          </ns3:TrackPointExtension>
        </extensions>
      </trkpt>
      <trkpt lat="42.56316994316875934600830078125" lon="20.0946088694036006927490234375">
        <ele>2010.4000244140625</ele>
        <time>2026-06-19T12:40:22.000Z</time>
        <extensions>
          <ns3:TrackPointExtension>
            <ns3:atemp>23.0</ns3:atemp>
          </ns3:TrackPointExtension>
        </extensions>
      </trkpt>
      <trkpt lat="42.56316994316875934600830078125" lon="20.0946088694036006927490234375">
        <ele>2010.4000244140625</ele>
        <time>2026-06-19T12:40:23.000Z</time>
        <extensions>
          <ns3:TrackPointExtension>
            <ns3:atemp>23.0</ns3:atemp>
          </ns3:TrackPointExtension>
        </extensions>
      </trkpt>
      <trkpt lat="42.56316994316875934600830078125" lon="20.0946088694036006927490234375">
        <ele>2010.4000244140625</ele>
        <time>2026-06-19T12:40:24.000Z</time>
        <extensions>
          <ns3:TrackPointExtension>
            <ns3:atemp>23.0</ns3:atemp>
          </ns3:TrackPointExtension>
        </extensions>
      </trkpt>
      <trkpt lat="42.56316994316875934600830078125" lon="20.0946088694036006927490234375">
        <ele>2010.4000244140625</ele>
        <time>2026-06-19T12:40:25.000Z</time>
        <extensions>
          <ns3:TrackPointExtension>
            <ns3:atemp>23.0</ns3:atemp>
          </ns3:TrackPointExtension>
        </extensions>
      </trkpt>
      <trkpt lat="42.56316994316875934600830078125" lon="20.0946088694036006927490234375">
        <ele>2010.4000244140625</ele>
        <time>2026-06-19T12:40:26.000Z</time>
        <extensions>
          <ns3:TrackPointExtension>
            <ns3:atemp>23.0</ns3:atemp>
          </ns3:TrackPointExtension>
        </extensions>
      </trkpt>
      <trkpt lat="42.56316994316875934600830078125" lon="20.0946088694036006927490234375">
        <ele>2010.4000244140625</ele>
        <time>2026-06-19T12:40:27.000Z</time>
        <extensions>
          <ns3:TrackPointExtension>
            <ns3:atemp>23.0</ns3:atemp>
          </ns3:TrackPointExtension>
        </extensions>
      </trkpt>
      <trkpt lat="42.56316994316875934600830078125" lon="20.0946088694036006927490234375">
        <ele>2010.4000244140625</ele>
        <time>2026-06-19T12:40:28.000Z</time>
        <extensions>
          <ns3:TrackPointExtension>
            <ns3:atemp>23.0</ns3:atemp>
          </ns3:TrackPointExtension>
        </extensions>
      </trkpt>
      <trkpt lat="42.56316994316875934600830078125" lon="20.0946088694036006927490234375">
        <ele>2010.4000244140625</ele>
        <time>2026-06-19T12:40:29.000Z</time>
        <extensions>
          <ns3:TrackPointExtension>
            <ns3:atemp>23.0</ns3:atemp>
          </ns3:TrackPointExtension>
        </extensions>
      </trkpt>
      <trkpt lat="42.56316994316875934600830078125" lon="20.0946088694036006927490234375">
        <ele>2010.4000244140625</ele>
        <time>2026-06-19T12:40:30.000Z</time>
        <extensions>
          <ns3:TrackPointExtension>
            <ns3:atemp>23.0</ns3:atemp>
          </ns3:TrackPointExtension>
        </extensions>
      </trkpt>
      <trkpt lat="42.56316994316875934600830078125" lon="20.0946088694036006927490234375">
        <ele>2010.4000244140625</ele>
        <time>2026-06-19T12:40:31.000Z</time>
        <extensions>
          <ns3:TrackPointExtension>
            <ns3:atemp>23.0</ns3:atemp>
          </ns3:TrackPointExtension>
        </extensions>
      </trkpt>
      <trkpt lat="42.56316994316875934600830078125" lon="20.0946088694036006927490234375">
        <ele>2010.4000244140625</ele>
        <time>2026-06-19T12:40:32.000Z</time>
        <extensions>
          <ns3:TrackPointExtension>
            <ns3:atemp>23.0</ns3:atemp>
          </ns3:TrackPointExtension>
        </extensions>
      </trkpt>
      <trkpt lat="42.56316994316875934600830078125" lon="20.0946088694036006927490234375">
        <ele>2010.4000244140625</ele>
        <time>2026-06-19T12:40:33.000Z</time>
        <extensions>
          <ns3:TrackPointExtension>
            <ns3:atemp>23.0</ns3:atemp>
          </ns3:TrackPointExtension>
        </extensions>
      </trkpt>
      <trkpt lat="42.56316994316875934600830078125" lon="20.0946088694036006927490234375">
        <ele>2010.4000244140625</ele>
        <time>2026-06-19T12:40:34.000Z</time>
        <extensions>
          <ns3:TrackPointExtension>
            <ns3:atemp>23.0</ns3:atemp>
          </ns3:TrackPointExtension>
        </extensions>
      </trkpt>
      <trkpt lat="42.56316994316875934600830078125" lon="20.0946088694036006927490234375">
        <ele>2010.4000244140625</ele>
        <time>2026-06-19T12:40:35.000Z</time>
        <extensions>
          <ns3:TrackPointExtension>
            <ns3:atemp>23.0</ns3:atemp>
          </ns3:TrackPointExtension>
        </extensions>
      </trkpt>
      <trkpt lat="42.56316994316875934600830078125" lon="20.0946088694036006927490234375">
        <ele>2010.4000244140625</ele>
        <time>2026-06-19T12:40:36.000Z</time>
        <extensions>
          <ns3:TrackPointExtension>
            <ns3:atemp>23.0</ns3:atemp>
          </ns3:TrackPointExtension>
        </extensions>
      </trkpt>
      <trkpt lat="42.56316994316875934600830078125" lon="20.0946088694036006927490234375">
        <ele>2010.4000244140625</ele>
        <time>2026-06-19T12:40:37.000Z</time>
        <extensions>
          <ns3:TrackPointExtension>
            <ns3:atemp>23.0</ns3:atemp>
          </ns3:TrackPointExtension>
        </extensions>
      </trkpt>
      <trkpt lat="42.56316994316875934600830078125" lon="20.0946088694036006927490234375">
        <ele>2010.4000244140625</ele>
        <time>2026-06-19T12:40:38.000Z</time>
        <extensions>
          <ns3:TrackPointExtension>
            <ns3:atemp>23.0</ns3:atemp>
          </ns3:TrackPointExtension>
        </extensions>
      </trkpt>
      <trkpt lat="42.56316994316875934600830078125" lon="20.0946088694036006927490234375">
        <ele>2010.4000244140625</ele>
        <time>2026-06-19T12:40:39.000Z</time>
        <extensions>
          <ns3:TrackPointExtension>
            <ns3:atemp>23.0</ns3:atemp>
          </ns3:TrackPointExtension>
        </extensions>
      </trkpt>
      <trkpt lat="42.56316994316875934600830078125" lon="20.0946088694036006927490234375">
        <ele>2010.4000244140625</ele>
        <time>2026-06-19T12:40:40.000Z</time>
        <extensions>
          <ns3:TrackPointExtension>
            <ns3:atemp>23.0</ns3:atemp>
          </ns3:TrackPointExtension>
        </extensions>
      </trkpt>
      <trkpt lat="42.56316994316875934600830078125" lon="20.0946088694036006927490234375">
        <ele>2010.4000244140625</ele>
        <time>2026-06-19T12:40:41.000Z</time>
        <extensions>
          <ns3:TrackPointExtension>
            <ns3:atemp>23.0</ns3:atemp>
          </ns3:TrackPointExtension>
        </extensions>
      </trkpt>
      <trkpt lat="42.56316994316875934600830078125" lon="20.0946088694036006927490234375">
        <ele>2010.4000244140625</ele>
        <time>2026-06-19T12:40:42.000Z</time>
        <extensions>
          <ns3:TrackPointExtension>
            <ns3:atemp>23.0</ns3:atemp>
          </ns3:TrackPointExtension>
        </extensions>
      </trkpt>
      <trkpt lat="42.56316994316875934600830078125" lon="20.0946088694036006927490234375">
        <ele>2010.4000244140625</ele>
        <time>2026-06-19T12:40:43.000Z</time>
        <extensions>
          <ns3:TrackPointExtension>
            <ns3:atemp>23.0</ns3:atemp>
          </ns3:TrackPointExtension>
        </extensions>
      </trkpt>
      <trkpt lat="42.56316994316875934600830078125" lon="20.0946088694036006927490234375">
        <ele>2010.4000244140625</ele>
        <time>2026-06-19T12:40:44.000Z</time>
        <extensions>
          <ns3:TrackPointExtension>
            <ns3:atemp>23.0</ns3:atemp>
          </ns3:TrackPointExtension>
        </extensions>
      </trkpt>
      <trkpt lat="42.56316994316875934600830078125" lon="20.0946088694036006927490234375">
        <ele>2010.4000244140625</ele>
        <time>2026-06-19T12:40:45.000Z</time>
        <extensions>
          <ns3:TrackPointExtension>
            <ns3:atemp>23.0</ns3:atemp>
          </ns3:TrackPointExtension>
        </extensions>
      </trkpt>
      <trkpt lat="42.56316994316875934600830078125" lon="20.0946088694036006927490234375">
        <ele>2010.4000244140625</ele>
        <time>2026-06-19T12:40:46.000Z</time>
        <extensions>
          <ns3:TrackPointExtension>
            <ns3:atemp>23.0</ns3:atemp>
          </ns3:TrackPointExtension>
        </extensions>
      </trkpt>
      <trkpt lat="42.56316994316875934600830078125" lon="20.0946088694036006927490234375">
        <ele>2010.4000244140625</ele>
        <time>2026-06-19T12:40:47.000Z</time>
        <extensions>
          <ns3:TrackPointExtension>
            <ns3:atemp>23.0</ns3:atemp>
          </ns3:TrackPointExtension>
        </extensions>
      </trkpt>
      <trkpt lat="42.56316994316875934600830078125" lon="20.0946088694036006927490234375">
        <ele>2010.4000244140625</ele>
        <time>2026-06-19T12:40:48.000Z</time>
        <extensions>
          <ns3:TrackPointExtension>
            <ns3:atemp>23.0</ns3:atemp>
          </ns3:TrackPointExtension>
        </extensions>
      </trkpt>
      <trkpt lat="42.56316994316875934600830078125" lon="20.0946088694036006927490234375">
        <ele>2010.4000244140625</ele>
        <time>2026-06-19T12:40:49.000Z</time>
        <extensions>
          <ns3:TrackPointExtension>
            <ns3:atemp>23.0</ns3:atemp>
          </ns3:TrackPointExtension>
        </extensions>
      </trkpt>
      <trkpt lat="42.56316994316875934600830078125" lon="20.0946088694036006927490234375">
        <ele>2010.4000244140625</ele>
        <time>2026-06-19T12:40:50.000Z</time>
        <extensions>
          <ns3:TrackPointExtension>
            <ns3:atemp>23.0</ns3:atemp>
          </ns3:TrackPointExtension>
        </extensions>
      </trkpt>
      <trkpt lat="42.56316994316875934600830078125" lon="20.0946088694036006927490234375">
        <ele>2010.4000244140625</ele>
        <time>2026-06-19T12:40:51.000Z</time>
        <extensions>
          <ns3:TrackPointExtension>
            <ns3:atemp>23.0</ns3:atemp>
          </ns3:TrackPointExtension>
        </extensions>
      </trkpt>
      <trkpt lat="42.56316994316875934600830078125" lon="20.0946088694036006927490234375">
        <ele>2010.4000244140625</ele>
        <time>2026-06-19T12:40:52.000Z</time>
        <extensions>
          <ns3:TrackPointExtension>
            <ns3:atemp>23.0</ns3:atemp>
          </ns3:TrackPointExtension>
        </extensions>
      </trkpt>
      <trkpt lat="42.56316994316875934600830078125" lon="20.0946088694036006927490234375">
        <ele>2010.4000244140625</ele>
        <time>2026-06-19T12:40:53.000Z</time>
        <extensions>
          <ns3:TrackPointExtension>
            <ns3:atemp>23.0</ns3:atemp>
          </ns3:TrackPointExtension>
        </extensions>
      </trkpt>
      <trkpt lat="42.56316994316875934600830078125" lon="20.0946088694036006927490234375">
        <ele>2010.4000244140625</ele>
        <time>2026-06-19T12:40:54.000Z</time>
        <extensions>
          <ns3:TrackPointExtension>
            <ns3:atemp>23.0</ns3:atemp>
          </ns3:TrackPointExtension>
        </extensions>
      </trkpt>
      <trkpt lat="42.56316994316875934600830078125" lon="20.0946088694036006927490234375">
        <ele>2010.4000244140625</ele>
        <time>2026-06-19T12:40:55.000Z</time>
        <extensions>
          <ns3:TrackPointExtension>
            <ns3:atemp>23.0</ns3:atemp>
          </ns3:TrackPointExtension>
        </extensions>
      </trkpt>
      <trkpt lat="42.56316994316875934600830078125" lon="20.0946088694036006927490234375">
        <ele>2010.4000244140625</ele>
        <time>2026-06-19T12:40:56.000Z</time>
        <extensions>
          <ns3:TrackPointExtension>
            <ns3:atemp>23.0</ns3:atemp>
          </ns3:TrackPointExtension>
        </extensions>
      </trkpt>
      <trkpt lat="42.56316994316875934600830078125" lon="20.0946088694036006927490234375">
        <ele>2010.4000244140625</ele>
        <time>2026-06-19T12:40:57.000Z</time>
        <extensions>
          <ns3:TrackPointExtension>
            <ns3:atemp>23.0</ns3:atemp>
          </ns3:TrackPointExtension>
        </extensions>
      </trkpt>
      <trkpt lat="42.56316994316875934600830078125" lon="20.0946088694036006927490234375">
        <ele>2010.4000244140625</ele>
        <time>2026-06-19T12:40:58.000Z</time>
        <extensions>
          <ns3:TrackPointExtension>
            <ns3:atemp>23.0</ns3:atemp>
          </ns3:TrackPointExtension>
        </extensions>
      </trkpt>
      <trkpt lat="42.56316994316875934600830078125" lon="20.0946088694036006927490234375">
        <ele>2010.4000244140625</ele>
        <time>2026-06-19T12:40:59.000Z</time>
        <extensions>
          <ns3:TrackPointExtension>
            <ns3:atemp>23.0</ns3:atemp>
          </ns3:TrackPointExtension>
        </extensions>
      </trkpt>
      <trkpt lat="42.56316994316875934600830078125" lon="20.0946088694036006927490234375">
        <ele>2010.4000244140625</ele>
        <time>2026-06-19T12:41:00.000Z</time>
        <extensions>
          <ns3:TrackPointExtension>
            <ns3:atemp>23.0</ns3:atemp>
          </ns3:TrackPointExtension>
        </extensions>
      </trkpt>
      <trkpt lat="42.56316994316875934600830078125" lon="20.0946088694036006927490234375">
        <ele>2010.4000244140625</ele>
        <time>2026-06-19T12:41:01.000Z</time>
        <extensions>
          <ns3:TrackPointExtension>
            <ns3:atemp>23.0</ns3:atemp>
          </ns3:TrackPointExtension>
        </extensions>
      </trkpt>
      <trkpt lat="42.56316994316875934600830078125" lon="20.0946088694036006927490234375">
        <ele>2010.4000244140625</ele>
        <time>2026-06-19T12:41:02.000Z</time>
        <extensions>
          <ns3:TrackPointExtension>
            <ns3:atemp>24.0</ns3:atemp>
          </ns3:TrackPointExtension>
        </extensions>
      </trkpt>
      <trkpt lat="42.56316994316875934600830078125" lon="20.0946088694036006927490234375">
        <ele>2010.4000244140625</ele>
        <time>2026-06-19T12:41:03.000Z</time>
        <extensions>
          <ns3:TrackPointExtension>
            <ns3:atemp>24.0</ns3:atemp>
          </ns3:TrackPointExtension>
        </extensions>
      </trkpt>
      <trkpt lat="42.56316994316875934600830078125" lon="20.0946088694036006927490234375">
        <ele>2010.4000244140625</ele>
        <time>2026-06-19T12:41:04.000Z</time>
        <extensions>
          <ns3:TrackPointExtension>
            <ns3:atemp>24.0</ns3:atemp>
          </ns3:TrackPointExtension>
        </extensions>
      </trkpt>
      <trkpt lat="42.56316994316875934600830078125" lon="20.0946088694036006927490234375">
        <ele>2010.4000244140625</ele>
        <time>2026-06-19T12:41:05.000Z</time>
        <extensions>
          <ns3:TrackPointExtension>
            <ns3:atemp>24.0</ns3:atemp>
          </ns3:TrackPointExtension>
        </extensions>
      </trkpt>
      <trkpt lat="42.56316994316875934600830078125" lon="20.0946088694036006927490234375">
        <ele>2010.4000244140625</ele>
        <time>2026-06-19T12:41:06.000Z</time>
        <extensions>
          <ns3:TrackPointExtension>
            <ns3:atemp>24.0</ns3:atemp>
          </ns3:TrackPointExtension>
        </extensions>
      </trkpt>
      <trkpt lat="42.56316994316875934600830078125" lon="20.0946088694036006927490234375">
        <ele>2010.4000244140625</ele>
        <time>2026-06-19T12:41:07.000Z</time>
        <extensions>
          <ns3:TrackPointExtension>
            <ns3:atemp>24.0</ns3:atemp>
          </ns3:TrackPointExtension>
        </extensions>
      </trkpt>
      <trkpt lat="42.56316994316875934600830078125" lon="20.0946088694036006927490234375">
        <ele>2010.4000244140625</ele>
        <time>2026-06-19T12:41:08.000Z</time>
        <extensions>
          <ns3:TrackPointExtension>
            <ns3:atemp>24.0</ns3:atemp>
          </ns3:TrackPointExtension>
        </extensions>
      </trkpt>
      <trkpt lat="42.56316994316875934600830078125" lon="20.0946088694036006927490234375">
        <ele>2010.4000244140625</ele>
        <time>2026-06-19T12:41:09.000Z</time>
        <extensions>
          <ns3:TrackPointExtension>
            <ns3:atemp>24.0</ns3:atemp>
          </ns3:TrackPointExtension>
        </extensions>
      </trkpt>
      <trkpt lat="42.56316994316875934600830078125" lon="20.0946088694036006927490234375">
        <ele>2010.4000244140625</ele>
        <time>2026-06-19T12:41:10.000Z</time>
        <extensions>
          <ns3:TrackPointExtension>
            <ns3:atemp>24.0</ns3:atemp>
          </ns3:TrackPointExtension>
        </extensions>
      </trkpt>
      <trkpt lat="42.56316994316875934600830078125" lon="20.0946088694036006927490234375">
        <ele>2010.4000244140625</ele>
        <time>2026-06-19T12:41:11.000Z</time>
        <extensions>
          <ns3:TrackPointExtension>
            <ns3:atemp>24.0</ns3:atemp>
          </ns3:TrackPointExtension>
        </extensions>
      </trkpt>
      <trkpt lat="42.56316994316875934600830078125" lon="20.0946088694036006927490234375">
        <ele>2010.4000244140625</ele>
        <time>2026-06-19T12:41:12.000Z</time>
        <extensions>
          <ns3:TrackPointExtension>
            <ns3:atemp>24.0</ns3:atemp>
          </ns3:TrackPointExtension>
        </extensions>
      </trkpt>
      <trkpt lat="42.56316994316875934600830078125" lon="20.0946088694036006927490234375">
        <ele>2010.4000244140625</ele>
        <time>2026-06-19T12:41:13.000Z</time>
        <extensions>
          <ns3:TrackPointExtension>
            <ns3:atemp>24.0</ns3:atemp>
          </ns3:TrackPointExtension>
        </extensions>
      </trkpt>
      <trkpt lat="42.56316994316875934600830078125" lon="20.0946088694036006927490234375">
        <ele>2010.4000244140625</ele>
        <time>2026-06-19T12:41:14.000Z</time>
        <extensions>
          <ns3:TrackPointExtension>
            <ns3:atemp>24.0</ns3:atemp>
          </ns3:TrackPointExtension>
        </extensions>
      </trkpt>
      <trkpt lat="42.56316994316875934600830078125" lon="20.0946088694036006927490234375">
        <ele>2010.4000244140625</ele>
        <time>2026-06-19T12:41:15.000Z</time>
        <extensions>
          <ns3:TrackPointExtension>
            <ns3:atemp>24.0</ns3:atemp>
          </ns3:TrackPointExtension>
        </extensions>
      </trkpt>
      <trkpt lat="42.56316994316875934600830078125" lon="20.0946088694036006927490234375">
        <ele>2010.4000244140625</ele>
        <time>2026-06-19T12:41:16.000Z</time>
        <extensions>
          <ns3:TrackPointExtension>
            <ns3:atemp>24.0</ns3:atemp>
          </ns3:TrackPointExtension>
        </extensions>
      </trkpt>
      <trkpt lat="42.56316994316875934600830078125" lon="20.0946088694036006927490234375">
        <ele>2010.4000244140625</ele>
        <time>2026-06-19T12:41:17.000Z</time>
        <extensions>
          <ns3:TrackPointExtension>
            <ns3:atemp>24.0</ns3:atemp>
          </ns3:TrackPointExtension>
        </extensions>
      </trkpt>
      <trkpt lat="42.56316994316875934600830078125" lon="20.0946088694036006927490234375">
        <ele>2010.4000244140625</ele>
        <time>2026-06-19T12:41:18.000Z</time>
        <extensions>
          <ns3:TrackPointExtension>
            <ns3:atemp>24.0</ns3:atemp>
          </ns3:TrackPointExtension>
        </extensions>
      </trkpt>
      <trkpt lat="42.56316994316875934600830078125" lon="20.0946088694036006927490234375">
        <ele>2010.4000244140625</ele>
        <time>2026-06-19T12:41:19.000Z</time>
        <extensions>
          <ns3:TrackPointExtension>
            <ns3:atemp>24.0</ns3:atemp>
          </ns3:TrackPointExtension>
        </extensions>
      </trkpt>
      <trkpt lat="42.56316994316875934600830078125" lon="20.0946088694036006927490234375">
        <ele>2010.4000244140625</ele>
        <time>2026-06-19T12:41:20.000Z</time>
        <extensions>
          <ns3:TrackPointExtension>
            <ns3:atemp>24.0</ns3:atemp>
          </ns3:TrackPointExtension>
        </extensions>
      </trkpt>
      <trkpt lat="42.56316994316875934600830078125" lon="20.0946088694036006927490234375">
        <ele>2010.4000244140625</ele>
        <time>2026-06-19T12:41:21.000Z</time>
        <extensions>
          <ns3:TrackPointExtension>
            <ns3:atemp>24.0</ns3:atemp>
          </ns3:TrackPointExtension>
        </extensions>
      </trkpt>
      <trkpt lat="42.56316994316875934600830078125" lon="20.0946088694036006927490234375">
        <ele>2010.4000244140625</ele>
        <time>2026-06-19T12:41:22.000Z</time>
        <extensions>
          <ns3:TrackPointExtension>
            <ns3:atemp>24.0</ns3:atemp>
          </ns3:TrackPointExtension>
        </extensions>
      </trkpt>
      <trkpt lat="42.56316994316875934600830078125" lon="20.0946088694036006927490234375">
        <ele>2010.4000244140625</ele>
        <time>2026-06-19T12:41:23.000Z</time>
        <extensions>
          <ns3:TrackPointExtension>
            <ns3:atemp>24.0</ns3:atemp>
          </ns3:TrackPointExtension>
        </extensions>
      </trkpt>
      <trkpt lat="42.56316994316875934600830078125" lon="20.0946088694036006927490234375">
        <ele>2010.4000244140625</ele>
        <time>2026-06-19T12:41:24.000Z</time>
        <extensions>
          <ns3:TrackPointExtension>
            <ns3:atemp>24.0</ns3:atemp>
          </ns3:TrackPointExtension>
        </extensions>
      </trkpt>
      <trkpt lat="42.56316994316875934600830078125" lon="20.0946088694036006927490234375">
        <ele>2010.4000244140625</ele>
        <time>2026-06-19T12:41:25.000Z</time>
        <extensions>
          <ns3:TrackPointExtension>
            <ns3:atemp>24.0</ns3:atemp>
          </ns3:TrackPointExtension>
        </extensions>
      </trkpt>
      <trkpt lat="42.56316994316875934600830078125" lon="20.0946088694036006927490234375">
        <ele>2010.4000244140625</ele>
        <time>2026-06-19T12:41:26.000Z</time>
        <extensions>
          <ns3:TrackPointExtension>
            <ns3:atemp>24.0</ns3:atemp>
          </ns3:TrackPointExtension>
        </extensions>
      </trkpt>
      <trkpt lat="42.56316994316875934600830078125" lon="20.0946088694036006927490234375">
        <ele>2010.4000244140625</ele>
        <time>2026-06-19T12:41:27.000Z</time>
        <extensions>
          <ns3:TrackPointExtension>
            <ns3:atemp>24.0</ns3:atemp>
          </ns3:TrackPointExtension>
        </extensions>
      </trkpt>
      <trkpt lat="42.56316994316875934600830078125" lon="20.0946088694036006927490234375">
        <ele>2010.4000244140625</ele>
        <time>2026-06-19T12:41:28.000Z</time>
        <extensions>
          <ns3:TrackPointExtension>
            <ns3:atemp>24.0</ns3:atemp>
          </ns3:TrackPointExtension>
        </extensions>
      </trkpt>
      <trkpt lat="42.56316994316875934600830078125" lon="20.0946088694036006927490234375">
        <ele>2010.4000244140625</ele>
        <time>2026-06-19T12:41:29.000Z</time>
        <extensions>
          <ns3:TrackPointExtension>
            <ns3:atemp>24.0</ns3:atemp>
          </ns3:TrackPointExtension>
        </extensions>
      </trkpt>
      <trkpt lat="42.56316994316875934600830078125" lon="20.0946088694036006927490234375">
        <ele>2010.4000244140625</ele>
        <time>2026-06-19T12:41:30.000Z</time>
        <extensions>
          <ns3:TrackPointExtension>
            <ns3:atemp>24.0</ns3:atemp>
          </ns3:TrackPointExtension>
        </extensions>
      </trkpt>
      <trkpt lat="42.56316994316875934600830078125" lon="20.0946088694036006927490234375">
        <ele>2010.4000244140625</ele>
        <time>2026-06-19T12:41:31.000Z</time>
        <extensions>
          <ns3:TrackPointExtension>
            <ns3:atemp>24.0</ns3:atemp>
          </ns3:TrackPointExtension>
        </extensions>
      </trkpt>
      <trkpt lat="42.56316994316875934600830078125" lon="20.0946088694036006927490234375">
        <ele>2010.4000244140625</ele>
        <time>2026-06-19T12:41:32.000Z</time>
        <extensions>
          <ns3:TrackPointExtension>
            <ns3:atemp>24.0</ns3:atemp>
          </ns3:TrackPointExtension>
        </extensions>
      </trkpt>
      <trkpt lat="42.56316994316875934600830078125" lon="20.0946088694036006927490234375">
        <ele>2010.4000244140625</ele>
        <time>2026-06-19T12:41:33.000Z</time>
        <extensions>
          <ns3:TrackPointExtension>
            <ns3:atemp>24.0</ns3:atemp>
          </ns3:TrackPointExtension>
        </extensions>
      </trkpt>
      <trkpt lat="42.56316994316875934600830078125" lon="20.0946088694036006927490234375">
        <ele>2010.4000244140625</ele>
        <time>2026-06-19T12:41:34.000Z</time>
        <extensions>
          <ns3:TrackPointExtension>
            <ns3:atemp>24.0</ns3:atemp>
          </ns3:TrackPointExtension>
        </extensions>
      </trkpt>
      <trkpt lat="42.56316994316875934600830078125" lon="20.0946088694036006927490234375">
        <ele>2010.4000244140625</ele>
        <time>2026-06-19T12:41:35.000Z</time>
        <extensions>
          <ns3:TrackPointExtension>
            <ns3:atemp>24.0</ns3:atemp>
          </ns3:TrackPointExtension>
        </extensions>
      </trkpt>
      <trkpt lat="42.56316994316875934600830078125" lon="20.0946088694036006927490234375">
        <ele>2010.4000244140625</ele>
        <time>2026-06-19T12:41:36.000Z</time>
        <extensions>
          <ns3:TrackPointExtension>
            <ns3:atemp>24.0</ns3:atemp>
          </ns3:TrackPointExtension>
        </extensions>
      </trkpt>
      <trkpt lat="42.56316994316875934600830078125" lon="20.0946088694036006927490234375">
        <ele>2010.4000244140625</ele>
        <time>2026-06-19T12:41:37.000Z</time>
        <extensions>
          <ns3:TrackPointExtension>
            <ns3:atemp>24.0</ns3:atemp>
          </ns3:TrackPointExtension>
        </extensions>
      </trkpt>
      <trkpt lat="42.56316994316875934600830078125" lon="20.0946088694036006927490234375">
        <ele>2010.4000244140625</ele>
        <time>2026-06-19T12:41:38.000Z</time>
        <extensions>
          <ns3:TrackPointExtension>
            <ns3:atemp>24.0</ns3:atemp>
          </ns3:TrackPointExtension>
        </extensions>
      </trkpt>
      <trkpt lat="42.56316994316875934600830078125" lon="20.0946088694036006927490234375">
        <ele>2010.4000244140625</ele>
        <time>2026-06-19T12:41:39.000Z</time>
        <extensions>
          <ns3:TrackPointExtension>
            <ns3:atemp>24.0</ns3:atemp>
          </ns3:TrackPointExtension>
        </extensions>
      </trkpt>
      <trkpt lat="42.56316994316875934600830078125" lon="20.0946088694036006927490234375">
        <ele>2010.4000244140625</ele>
        <time>2026-06-19T12:41:40.000Z</time>
        <extensions>
          <ns3:TrackPointExtension>
            <ns3:atemp>24.0</ns3:atemp>
          </ns3:TrackPointExtension>
        </extensions>
      </trkpt>
      <trkpt lat="42.56316994316875934600830078125" lon="20.0946088694036006927490234375">
        <ele>2010.4000244140625</ele>
        <time>2026-06-19T12:41:41.000Z</time>
        <extensions>
          <ns3:TrackPointExtension>
            <ns3:atemp>24.0</ns3:atemp>
          </ns3:TrackPointExtension>
        </extensions>
      </trkpt>
      <trkpt lat="42.56316994316875934600830078125" lon="20.0946088694036006927490234375">
        <ele>2010.4000244140625</ele>
        <time>2026-06-19T12:41:42.000Z</time>
        <extensions>
          <ns3:TrackPointExtension>
            <ns3:atemp>24.0</ns3:atemp>
          </ns3:TrackPointExtension>
        </extensions>
      </trkpt>
      <trkpt lat="42.56316994316875934600830078125" lon="20.0946088694036006927490234375">
        <ele>2010.4000244140625</ele>
        <time>2026-06-19T12:41:43.000Z</time>
        <extensions>
          <ns3:TrackPointExtension>
            <ns3:atemp>24.0</ns3:atemp>
          </ns3:TrackPointExtension>
        </extensions>
      </trkpt>
      <trkpt lat="42.56316994316875934600830078125" lon="20.0946088694036006927490234375">
        <ele>2010.4000244140625</ele>
        <time>2026-06-19T12:41:44.000Z</time>
        <extensions>
          <ns3:TrackPointExtension>
            <ns3:atemp>24.0</ns3:atemp>
          </ns3:TrackPointExtension>
        </extensions>
      </trkpt>
      <trkpt lat="42.56316994316875934600830078125" lon="20.0946088694036006927490234375">
        <ele>2010.4000244140625</ele>
        <time>2026-06-19T12:41:45.000Z</time>
        <extensions>
          <ns3:TrackPointExtension>
            <ns3:atemp>24.0</ns3:atemp>
          </ns3:TrackPointExtension>
        </extensions>
      </trkpt>
      <trkpt lat="42.56316994316875934600830078125" lon="20.0946088694036006927490234375">
        <ele>2010.4000244140625</ele>
        <time>2026-06-19T12:41:46.000Z</time>
        <extensions>
          <ns3:TrackPointExtension>
            <ns3:atemp>24.0</ns3:atemp>
          </ns3:TrackPointExtension>
        </extensions>
      </trkpt>
      <trkpt lat="42.56316994316875934600830078125" lon="20.0946088694036006927490234375">
        <ele>2010.4000244140625</ele>
        <time>2026-06-19T12:41:47.000Z</time>
        <extensions>
          <ns3:TrackPointExtension>
            <ns3:atemp>24.0</ns3:atemp>
          </ns3:TrackPointExtension>
        </extensions>
      </trkpt>
      <trkpt lat="42.56316994316875934600830078125" lon="20.0946088694036006927490234375">
        <ele>2010.4000244140625</ele>
        <time>2026-06-19T12:41:48.000Z</time>
        <extensions>
          <ns3:TrackPointExtension>
            <ns3:atemp>24.0</ns3:atemp>
          </ns3:TrackPointExtension>
        </extensions>
      </trkpt>
      <trkpt lat="42.56316994316875934600830078125" lon="20.0946088694036006927490234375">
        <ele>2010.4000244140625</ele>
        <time>2026-06-19T12:41:49.000Z</time>
        <extensions>
          <ns3:TrackPointExtension>
            <ns3:atemp>24.0</ns3:atemp>
          </ns3:TrackPointExtension>
        </extensions>
      </trkpt>
      <trkpt lat="42.56316994316875934600830078125" lon="20.0946088694036006927490234375">
        <ele>2010.4000244140625</ele>
        <time>2026-06-19T12:41:50.000Z</time>
        <extensions>
          <ns3:TrackPointExtension>
            <ns3:atemp>24.0</ns3:atemp>
          </ns3:TrackPointExtension>
        </extensions>
      </trkpt>
      <trkpt lat="42.56316994316875934600830078125" lon="20.0946088694036006927490234375">
        <ele>2010.4000244140625</ele>
        <time>2026-06-19T12:41:51.000Z</time>
        <extensions>
          <ns3:TrackPointExtension>
            <ns3:atemp>24.0</ns3:atemp>
          </ns3:TrackPointExtension>
        </extensions>
      </trkpt>
      <trkpt lat="42.56316994316875934600830078125" lon="20.0946088694036006927490234375">
        <ele>2010.4000244140625</ele>
        <time>2026-06-19T12:41:52.000Z</time>
        <extensions>
          <ns3:TrackPointExtension>
            <ns3:atemp>24.0</ns3:atemp>
          </ns3:TrackPointExtension>
        </extensions>
      </trkpt>
      <trkpt lat="42.56316994316875934600830078125" lon="20.0946088694036006927490234375">
        <ele>2010.4000244140625</ele>
        <time>2026-06-19T12:41:53.000Z</time>
        <extensions>
          <ns3:TrackPointExtension>
            <ns3:atemp>24.0</ns3:atemp>
          </ns3:TrackPointExtension>
        </extensions>
      </trkpt>
      <trkpt lat="42.56316994316875934600830078125" lon="20.0946088694036006927490234375">
        <ele>2010.4000244140625</ele>
        <time>2026-06-19T12:41:54.000Z</time>
        <extensions>
          <ns3:TrackPointExtension>
            <ns3:atemp>24.0</ns3:atemp>
          </ns3:TrackPointExtension>
        </extensions>
      </trkpt>
      <trkpt lat="42.56316994316875934600830078125" lon="20.0946088694036006927490234375">
        <ele>2010.4000244140625</ele>
        <time>2026-06-19T12:41:55.000Z</time>
        <extensions>
          <ns3:TrackPointExtension>
            <ns3:atemp>24.0</ns3:atemp>
          </ns3:TrackPointExtension>
        </extensions>
      </trkpt>
      <trkpt lat="42.56316994316875934600830078125" lon="20.0946088694036006927490234375">
        <ele>2010.4000244140625</ele>
        <time>2026-06-19T12:41:56.000Z</time>
        <extensions>
          <ns3:TrackPointExtension>
            <ns3:atemp>24.0</ns3:atemp>
          </ns3:TrackPointExtension>
        </extensions>
      </trkpt>
      <trkpt lat="42.56316994316875934600830078125" lon="20.0946088694036006927490234375">
        <ele>2010.4000244140625</ele>
        <time>2026-06-19T12:41:57.000Z</time>
        <extensions>
          <ns3:TrackPointExtension>
            <ns3:atemp>24.0</ns3:atemp>
          </ns3:TrackPointExtension>
        </extensions>
      </trkpt>
      <trkpt lat="42.56316994316875934600830078125" lon="20.0946088694036006927490234375">
        <ele>2010.4000244140625</ele>
        <time>2026-06-19T12:41:58.000Z</time>
        <extensions>
          <ns3:TrackPointExtension>
            <ns3:atemp>24.0</ns3:atemp>
          </ns3:TrackPointExtension>
        </extensions>
      </trkpt>
      <trkpt lat="42.56316994316875934600830078125" lon="20.0946088694036006927490234375">
        <ele>2010.4000244140625</ele>
        <time>2026-06-19T12:41:59.000Z</time>
        <extensions>
          <ns3:TrackPointExtension>
            <ns3:atemp>24.0</ns3:atemp>
          </ns3:TrackPointExtension>
        </extensions>
      </trkpt>
      <trkpt lat="42.56316994316875934600830078125" lon="20.0946088694036006927490234375">
        <ele>2010.4000244140625</ele>
        <time>2026-06-19T12:42:00.000Z</time>
        <extensions>
          <ns3:TrackPointExtension>
            <ns3:atemp>24.0</ns3:atemp>
          </ns3:TrackPointExtension>
        </extensions>
      </trkpt>
      <trkpt lat="42.56316994316875934600830078125" lon="20.0946088694036006927490234375">
        <ele>2010.4000244140625</ele>
        <time>2026-06-19T12:42:01.000Z</time>
        <extensions>
          <ns3:TrackPointExtension>
            <ns3:atemp>24.0</ns3:atemp>
          </ns3:TrackPointExtension>
        </extensions>
      </trkpt>
      <trkpt lat="42.56316994316875934600830078125" lon="20.0946088694036006927490234375">
        <ele>2010.4000244140625</ele>
        <time>2026-06-19T12:42:02.000Z</time>
        <extensions>
          <ns3:TrackPointExtension>
            <ns3:atemp>24.0</ns3:atemp>
          </ns3:TrackPointExtension>
        </extensions>
      </trkpt>
      <trkpt lat="42.56316994316875934600830078125" lon="20.0946088694036006927490234375">
        <ele>2010.4000244140625</ele>
        <time>2026-06-19T12:42:03.000Z</time>
        <extensions>
          <ns3:TrackPointExtension>
            <ns3:atemp>24.0</ns3:atemp>
          </ns3:TrackPointExtension>
        </extensions>
      </trkpt>
      <trkpt lat="42.56316994316875934600830078125" lon="20.0946088694036006927490234375">
        <ele>2010.4000244140625</ele>
        <time>2026-06-19T12:42:04.000Z</time>
        <extensions>
          <ns3:TrackPointExtension>
            <ns3:atemp>24.0</ns3:atemp>
          </ns3:TrackPointExtension>
        </extensions>
      </trkpt>
      <trkpt lat="42.56316994316875934600830078125" lon="20.0946088694036006927490234375">
        <ele>2010.4000244140625</ele>
        <time>2026-06-19T12:42:05.000Z</time>
        <extensions>
          <ns3:TrackPointExtension>
            <ns3:atemp>24.0</ns3:atemp>
          </ns3:TrackPointExtension>
        </extensions>
      </trkpt>
      <trkpt lat="42.56316994316875934600830078125" lon="20.0946088694036006927490234375">
        <ele>2010.4000244140625</ele>
        <time>2026-06-19T12:42:06.000Z</time>
        <extensions>
          <ns3:TrackPointExtension>
            <ns3:atemp>24.0</ns3:atemp>
          </ns3:TrackPointExtension>
        </extensions>
      </trkpt>
      <trkpt lat="42.56316994316875934600830078125" lon="20.0946088694036006927490234375">
        <ele>2010.4000244140625</ele>
        <time>2026-06-19T12:42:07.000Z</time>
        <extensions>
          <ns3:TrackPointExtension>
            <ns3:atemp>24.0</ns3:atemp>
          </ns3:TrackPointExtension>
        </extensions>
      </trkpt>
      <trkpt lat="42.56316994316875934600830078125" lon="20.0946088694036006927490234375">
        <ele>2010.4000244140625</ele>
        <time>2026-06-19T12:42:08.000Z</time>
        <extensions>
          <ns3:TrackPointExtension>
            <ns3:atemp>24.0</ns3:atemp>
          </ns3:TrackPointExtension>
        </extensions>
      </trkpt>
      <trkpt lat="42.56316994316875934600830078125" lon="20.0946088694036006927490234375">
        <ele>2010.4000244140625</ele>
        <time>2026-06-19T12:42:09.000Z</time>
        <extensions>
          <ns3:TrackPointExtension>
            <ns3:atemp>24.0</ns3:atemp>
          </ns3:TrackPointExtension>
        </extensions>
      </trkpt>
      <trkpt lat="42.56316994316875934600830078125" lon="20.0946088694036006927490234375">
        <ele>2010.4000244140625</ele>
        <time>2026-06-19T12:42:10.000Z</time>
        <extensions>
          <ns3:TrackPointExtension>
            <ns3:atemp>24.0</ns3:atemp>
          </ns3:TrackPointExtension>
        </extensions>
      </trkpt>
      <trkpt lat="42.56316994316875934600830078125" lon="20.0946088694036006927490234375">
        <ele>2010.4000244140625</ele>
        <time>2026-06-19T12:42:11.000Z</time>
        <extensions>
          <ns3:TrackPointExtension>
            <ns3:atemp>24.0</ns3:atemp>
          </ns3:TrackPointExtension>
        </extensions>
      </trkpt>
      <trkpt lat="42.56316994316875934600830078125" lon="20.0946088694036006927490234375">
        <ele>2010.4000244140625</ele>
        <time>2026-06-19T12:42:12.000Z</time>
        <extensions>
          <ns3:TrackPointExtension>
            <ns3:atemp>24.0</ns3:atemp>
          </ns3:TrackPointExtension>
        </extensions>
      </trkpt>
      <trkpt lat="42.56316994316875934600830078125" lon="20.0946088694036006927490234375">
        <ele>2010.4000244140625</ele>
        <time>2026-06-19T12:42:13.000Z</time>
        <extensions>
          <ns3:TrackPointExtension>
            <ns3:atemp>24.0</ns3:atemp>
          </ns3:TrackPointExtension>
        </extensions>
      </trkpt>
      <trkpt lat="42.56316994316875934600830078125" lon="20.0946088694036006927490234375">
        <ele>2010.4000244140625</ele>
        <time>2026-06-19T12:42:14.000Z</time>
        <extensions>
          <ns3:TrackPointExtension>
            <ns3:atemp>24.0</ns3:atemp>
          </ns3:TrackPointExtension>
        </extensions>
      </trkpt>
      <trkpt lat="42.56316994316875934600830078125" lon="20.0946088694036006927490234375">
        <ele>2010.4000244140625</ele>
        <time>2026-06-19T12:42:15.000Z</time>
        <extensions>
          <ns3:TrackPointExtension>
            <ns3:atemp>24.0</ns3:atemp>
          </ns3:TrackPointExtension>
        </extensions>
      </trkpt>
      <trkpt lat="42.56316994316875934600830078125" lon="20.0946088694036006927490234375">
        <ele>2010.4000244140625</ele>
        <time>2026-06-19T12:42:16.000Z</time>
        <extensions>
          <ns3:TrackPointExtension>
            <ns3:atemp>24.0</ns3:atemp>
          </ns3:TrackPointExtension>
        </extensions>
      </trkpt>
      <trkpt lat="42.56316994316875934600830078125" lon="20.0946088694036006927490234375">
        <ele>2010.4000244140625</ele>
        <time>2026-06-19T12:42:17.000Z</time>
        <extensions>
          <ns3:TrackPointExtension>
            <ns3:atemp>24.0</ns3:atemp>
          </ns3:TrackPointExtension>
        </extensions>
      </trkpt>
      <trkpt lat="42.56316994316875934600830078125" lon="20.0946088694036006927490234375">
        <ele>2010.4000244140625</ele>
        <time>2026-06-19T12:42:18.000Z</time>
        <extensions>
          <ns3:TrackPointExtension>
            <ns3:atemp>24.0</ns3:atemp>
          </ns3:TrackPointExtension>
        </extensions>
      </trkpt>
      <trkpt lat="42.56316994316875934600830078125" lon="20.0946088694036006927490234375">
        <ele>2010.4000244140625</ele>
        <time>2026-06-19T12:42:19.000Z</time>
        <extensions>
          <ns3:TrackPointExtension>
            <ns3:atemp>24.0</ns3:atemp>
          </ns3:TrackPointExtension>
        </extensions>
      </trkpt>
      <trkpt lat="42.56316994316875934600830078125" lon="20.0946088694036006927490234375">
        <ele>2010.4000244140625</ele>
        <time>2026-06-19T12:42:20.000Z</time>
        <extensions>
          <ns3:TrackPointExtension>
            <ns3:atemp>24.0</ns3:atemp>
          </ns3:TrackPointExtension>
        </extensions>
      </trkpt>
      <trkpt lat="42.56316994316875934600830078125" lon="20.0946088694036006927490234375">
        <ele>2010.4000244140625</ele>
        <time>2026-06-19T12:42:21.000Z</time>
        <extensions>
          <ns3:TrackPointExtension>
            <ns3:atemp>24.0</ns3:atemp>
          </ns3:TrackPointExtension>
        </extensions>
      </trkpt>
      <trkpt lat="42.56316994316875934600830078125" lon="20.0946088694036006927490234375">
        <ele>2010.4000244140625</ele>
        <time>2026-06-19T12:42:22.000Z</time>
        <extensions>
          <ns3:TrackPointExtension>
            <ns3:atemp>24.0</ns3:atemp>
          </ns3:TrackPointExtension>
        </extensions>
      </trkpt>
      <trkpt lat="42.56316994316875934600830078125" lon="20.0946088694036006927490234375">
        <ele>2010.4000244140625</ele>
        <time>2026-06-19T12:42:23.000Z</time>
        <extensions>
          <ns3:TrackPointExtension>
            <ns3:atemp>24.0</ns3:atemp>
          </ns3:TrackPointExtension>
        </extensions>
      </trkpt>
      <trkpt lat="42.56316994316875934600830078125" lon="20.0946088694036006927490234375">
        <ele>2010.4000244140625</ele>
        <time>2026-06-19T12:42:24.000Z</time>
        <extensions>
          <ns3:TrackPointExtension>
            <ns3:atemp>24.0</ns3:atemp>
          </ns3:TrackPointExtension>
        </extensions>
      </trkpt>
      <trkpt lat="42.56316994316875934600830078125" lon="20.0946088694036006927490234375">
        <ele>2010.4000244140625</ele>
        <time>2026-06-19T12:42:25.000Z</time>
        <extensions>
          <ns3:TrackPointExtension>
            <ns3:atemp>24.0</ns3:atemp>
          </ns3:TrackPointExtension>
        </extensions>
      </trkpt>
      <trkpt lat="42.56316994316875934600830078125" lon="20.0946088694036006927490234375">
        <ele>2010.4000244140625</ele>
        <time>2026-06-19T12:42:26.000Z</time>
        <extensions>
          <ns3:TrackPointExtension>
            <ns3:atemp>24.0</ns3:atemp>
          </ns3:TrackPointExtension>
        </extensions>
      </trkpt>
      <trkpt lat="42.56316994316875934600830078125" lon="20.0946088694036006927490234375">
        <ele>2010.4000244140625</ele>
        <time>2026-06-19T12:42:27.000Z</time>
        <extensions>
          <ns3:TrackPointExtension>
            <ns3:atemp>25.0</ns3:atemp>
          </ns3:TrackPointExtension>
        </extensions>
      </trkpt>
      <trkpt lat="42.56316994316875934600830078125" lon="20.0946088694036006927490234375">
        <ele>2010.4000244140625</ele>
        <time>2026-06-19T12:42:28.000Z</time>
        <extensions>
          <ns3:TrackPointExtension>
            <ns3:atemp>25.0</ns3:atemp>
          </ns3:TrackPointExtension>
        </extensions>
      </trkpt>
      <trkpt lat="42.56316994316875934600830078125" lon="20.0946088694036006927490234375">
        <ele>2010.4000244140625</ele>
        <time>2026-06-19T12:42:29.000Z</time>
        <extensions>
          <ns3:TrackPointExtension>
            <ns3:atemp>25.0</ns3:atemp>
          </ns3:TrackPointExtension>
        </extensions>
      </trkpt>
      <trkpt lat="42.56316994316875934600830078125" lon="20.0946088694036006927490234375">
        <ele>2010.4000244140625</ele>
        <time>2026-06-19T12:42:30.000Z</time>
        <extensions>
          <ns3:TrackPointExtension>
            <ns3:atemp>25.0</ns3:atemp>
          </ns3:TrackPointExtension>
        </extensions>
      </trkpt>
      <trkpt lat="42.56316994316875934600830078125" lon="20.0946088694036006927490234375">
        <ele>2010.4000244140625</ele>
        <time>2026-06-19T12:42:31.000Z</time>
        <extensions>
          <ns3:TrackPointExtension>
            <ns3:atemp>25.0</ns3:atemp>
          </ns3:TrackPointExtension>
        </extensions>
      </trkpt>
      <trkpt lat="42.56316994316875934600830078125" lon="20.0946088694036006927490234375">
        <ele>2010.4000244140625</ele>
        <time>2026-06-19T12:42:32.000Z</time>
        <extensions>
          <ns3:TrackPointExtension>
            <ns3:atemp>25.0</ns3:atemp>
          </ns3:TrackPointExtension>
        </extensions>
      </trkpt>
      <trkpt lat="42.56316994316875934600830078125" lon="20.0946088694036006927490234375">
        <ele>2010.4000244140625</ele>
        <time>2026-06-19T12:42:33.000Z</time>
        <extensions>
          <ns3:TrackPointExtension>
            <ns3:atemp>25.0</ns3:atemp>
          </ns3:TrackPointExtension>
        </extensions>
      </trkpt>
      <trkpt lat="42.56316994316875934600830078125" lon="20.0946088694036006927490234375">
        <ele>2010.4000244140625</ele>
        <time>2026-06-19T12:42:34.000Z</time>
        <extensions>
          <ns3:TrackPointExtension>
            <ns3:atemp>25.0</ns3:atemp>
          </ns3:TrackPointExtension>
        </extensions>
      </trkpt>
      <trkpt lat="42.56316994316875934600830078125" lon="20.0946088694036006927490234375">
        <ele>2010.4000244140625</ele>
        <time>2026-06-19T12:42:35.000Z</time>
        <extensions>
          <ns3:TrackPointExtension>
            <ns3:atemp>25.0</ns3:atemp>
          </ns3:TrackPointExtension>
        </extensions>
      </trkpt>
      <trkpt lat="42.56316994316875934600830078125" lon="20.0946088694036006927490234375">
        <ele>2010.4000244140625</ele>
        <time>2026-06-19T12:42:36.000Z</time>
        <extensions>
          <ns3:TrackPointExtension>
            <ns3:atemp>25.0</ns3:atemp>
          </ns3:TrackPointExtension>
        </extensions>
      </trkpt>
      <trkpt lat="42.56316994316875934600830078125" lon="20.0946088694036006927490234375">
        <ele>2010.4000244140625</ele>
        <time>2026-06-19T12:42:37.000Z</time>
        <extensions>
          <ns3:TrackPointExtension>
            <ns3:atemp>25.0</ns3:atemp>
          </ns3:TrackPointExtension>
        </extensions>
      </trkpt>
      <trkpt lat="42.56316994316875934600830078125" lon="20.0946088694036006927490234375">
        <ele>2010.4000244140625</ele>
        <time>2026-06-19T12:42:38.000Z</time>
        <extensions>
          <ns3:TrackPointExtension>
            <ns3:atemp>25.0</ns3:atemp>
          </ns3:TrackPointExtension>
        </extensions>
      </trkpt>
      <trkpt lat="42.56316994316875934600830078125" lon="20.0946088694036006927490234375">
        <ele>2010.4000244140625</ele>
        <time>2026-06-19T12:42:39.000Z</time>
        <extensions>
          <ns3:TrackPointExtension>
            <ns3:atemp>25.0</ns3:atemp>
          </ns3:TrackPointExtension>
        </extensions>
      </trkpt>
      <trkpt lat="42.56316994316875934600830078125" lon="20.0946088694036006927490234375">
        <ele>2010.4000244140625</ele>
        <time>2026-06-19T12:42:40.000Z</time>
        <extensions>
          <ns3:TrackPointExtension>
            <ns3:atemp>25.0</ns3:atemp>
          </ns3:TrackPointExtension>
        </extensions>
      </trkpt>
      <trkpt lat="42.56316994316875934600830078125" lon="20.0946088694036006927490234375">
        <ele>2010.4000244140625</ele>
        <time>2026-06-19T12:42:41.000Z</time>
        <extensions>
          <ns3:TrackPointExtension>
            <ns3:atemp>25.0</ns3:atemp>
          </ns3:TrackPointExtension>
        </extensions>
      </trkpt>
      <trkpt lat="42.56316994316875934600830078125" lon="20.0946088694036006927490234375">
        <ele>2010.4000244140625</ele>
        <time>2026-06-19T12:42:42.000Z</time>
        <extensions>
          <ns3:TrackPointExtension>
            <ns3:atemp>25.0</ns3:atemp>
          </ns3:TrackPointExtension>
        </extensions>
      </trkpt>
      <trkpt lat="42.56316994316875934600830078125" lon="20.0946088694036006927490234375">
        <ele>2010.4000244140625</ele>
        <time>2026-06-19T12:42:43.000Z</time>
        <extensions>
          <ns3:TrackPointExtension>
            <ns3:atemp>25.0</ns3:atemp>
          </ns3:TrackPointExtension>
        </extensions>
      </trkpt>
      <trkpt lat="42.56316994316875934600830078125" lon="20.0946088694036006927490234375">
        <ele>2010.4000244140625</ele>
        <time>2026-06-19T12:42:44.000Z</time>
        <extensions>
          <ns3:TrackPointExtension>
            <ns3:atemp>25.0</ns3:atemp>
          </ns3:TrackPointExtension>
        </extensions>
      </trkpt>
      <trkpt lat="42.56316994316875934600830078125" lon="20.0946088694036006927490234375">
        <ele>2010.4000244140625</ele>
        <time>2026-06-19T12:42:45.000Z</time>
        <extensions>
          <ns3:TrackPointExtension>
            <ns3:atemp>25.0</ns3:atemp>
          </ns3:TrackPointExtension>
        </extensions>
      </trkpt>
      <trkpt lat="42.56316994316875934600830078125" lon="20.0946088694036006927490234375">
        <ele>2010.4000244140625</ele>
        <time>2026-06-19T12:42:46.000Z</time>
        <extensions>
          <ns3:TrackPointExtension>
            <ns3:atemp>25.0</ns3:atemp>
          </ns3:TrackPointExtension>
        </extensions>
      </trkpt>
      <trkpt lat="42.56316994316875934600830078125" lon="20.0946088694036006927490234375">
        <ele>2010.4000244140625</ele>
        <time>2026-06-19T12:42:47.000Z</time>
        <extensions>
          <ns3:TrackPointExtension>
            <ns3:atemp>25.0</ns3:atemp>
          </ns3:TrackPointExtension>
        </extensions>
      </trkpt>
      <trkpt lat="42.56316994316875934600830078125" lon="20.0946088694036006927490234375">
        <ele>2010.4000244140625</ele>
        <time>2026-06-19T12:42:48.000Z</time>
        <extensions>
          <ns3:TrackPointExtension>
            <ns3:atemp>25.0</ns3:atemp>
          </ns3:TrackPointExtension>
        </extensions>
      </trkpt>
      <trkpt lat="42.56316994316875934600830078125" lon="20.0946088694036006927490234375">
        <ele>2010.4000244140625</ele>
        <time>2026-06-19T12:42:49.000Z</time>
        <extensions>
          <ns3:TrackPointExtension>
            <ns3:atemp>25.0</ns3:atemp>
          </ns3:TrackPointExtension>
        </extensions>
      </trkpt>
      <trkpt lat="42.56316994316875934600830078125" lon="20.0946088694036006927490234375">
        <ele>2010.4000244140625</ele>
        <time>2026-06-19T12:42:50.000Z</time>
        <extensions>
          <ns3:TrackPointExtension>
            <ns3:atemp>25.0</ns3:atemp>
          </ns3:TrackPointExtension>
        </extensions>
      </trkpt>
      <trkpt lat="42.56316994316875934600830078125" lon="20.0946088694036006927490234375">
        <ele>2010.4000244140625</ele>
        <time>2026-06-19T12:42:51.000Z</time>
        <extensions>
          <ns3:TrackPointExtension>
            <ns3:atemp>25.0</ns3:atemp>
          </ns3:TrackPointExtension>
        </extensions>
      </trkpt>
      <trkpt lat="42.56316994316875934600830078125" lon="20.0946088694036006927490234375">
        <ele>2010.4000244140625</ele>
        <time>2026-06-19T12:42:52.000Z</time>
        <extensions>
          <ns3:TrackPointExtension>
            <ns3:atemp>25.0</ns3:atemp>
          </ns3:TrackPointExtension>
        </extensions>
      </trkpt>
      <trkpt lat="42.56316994316875934600830078125" lon="20.0946088694036006927490234375">
        <ele>2010.4000244140625</ele>
        <time>2026-06-19T12:42:53.000Z</time>
        <extensions>
          <ns3:TrackPointExtension>
            <ns3:atemp>25.0</ns3:atemp>
          </ns3:TrackPointExtension>
        </extensions>
      </trkpt>
      <trkpt lat="42.56316994316875934600830078125" lon="20.0946088694036006927490234375">
        <ele>2010.4000244140625</ele>
        <time>2026-06-19T12:42:54.000Z</time>
        <extensions>
          <ns3:TrackPointExtension>
            <ns3:atemp>25.0</ns3:atemp>
          </ns3:TrackPointExtension>
        </extensions>
      </trkpt>
      <trkpt lat="42.56316994316875934600830078125" lon="20.0946088694036006927490234375">
        <ele>2010.4000244140625</ele>
        <time>2026-06-19T12:42:55.000Z</time>
        <extensions>
          <ns3:TrackPointExtension>
            <ns3:atemp>25.0</ns3:atemp>
          </ns3:TrackPointExtension>
        </extensions>
      </trkpt>
      <trkpt lat="42.56316994316875934600830078125" lon="20.0946088694036006927490234375">
        <ele>2010.4000244140625</ele>
        <time>2026-06-19T12:42:56.000Z</time>
        <extensions>
          <ns3:TrackPointExtension>
            <ns3:atemp>25.0</ns3:atemp>
          </ns3:TrackPointExtension>
        </extensions>
      </trkpt>
      <trkpt lat="42.56316994316875934600830078125" lon="20.0946088694036006927490234375">
        <ele>2010.4000244140625</ele>
        <time>2026-06-19T12:42:57.000Z</time>
        <extensions>
          <ns3:TrackPointExtension>
            <ns3:atemp>25.0</ns3:atemp>
          </ns3:TrackPointExtension>
        </extensions>
      </trkpt>
      <trkpt lat="42.56316994316875934600830078125" lon="20.0946088694036006927490234375">
        <ele>2010.4000244140625</ele>
        <time>2026-06-19T12:42:58.000Z</time>
        <extensions>
          <ns3:TrackPointExtension>
            <ns3:atemp>25.0</ns3:atemp>
          </ns3:TrackPointExtension>
        </extensions>
      </trkpt>
      <trkpt lat="42.56316994316875934600830078125" lon="20.0946088694036006927490234375">
        <ele>2010.4000244140625</ele>
        <time>2026-06-19T12:42:59.000Z</time>
        <extensions>
          <ns3:TrackPointExtension>
            <ns3:atemp>25.0</ns3:atemp>
          </ns3:TrackPointExtension>
        </extensions>
      </trkpt>
      <trkpt lat="42.56316994316875934600830078125" lon="20.0946088694036006927490234375">
        <ele>2010.4000244140625</ele>
        <time>2026-06-19T12:43:00.000Z</time>
        <extensions>
          <ns3:TrackPointExtension>
            <ns3:atemp>25.0</ns3:atemp>
          </ns3:TrackPointExtension>
        </extensions>
      </trkpt>
      <trkpt lat="42.56316994316875934600830078125" lon="20.0946088694036006927490234375">
        <ele>2010.4000244140625</ele>
        <time>2026-06-19T12:43:01.000Z</time>
        <extensions>
          <ns3:TrackPointExtension>
            <ns3:atemp>25.0</ns3:atemp>
          </ns3:TrackPointExtension>
        </extensions>
      </trkpt>
      <trkpt lat="42.56316994316875934600830078125" lon="20.0946088694036006927490234375">
        <ele>2010.4000244140625</ele>
        <time>2026-06-19T12:43:02.000Z</time>
        <extensions>
          <ns3:TrackPointExtension>
            <ns3:atemp>25.0</ns3:atemp>
          </ns3:TrackPointExtension>
        </extensions>
      </trkpt>
      <trkpt lat="42.56316994316875934600830078125" lon="20.0946088694036006927490234375">
        <ele>2010.4000244140625</ele>
        <time>2026-06-19T12:43:03.000Z</time>
        <extensions>
          <ns3:TrackPointExtension>
            <ns3:atemp>25.0</ns3:atemp>
          </ns3:TrackPointExtension>
        </extensions>
      </trkpt>
      <trkpt lat="42.56316994316875934600830078125" lon="20.0946088694036006927490234375">
        <ele>2010.4000244140625</ele>
        <time>2026-06-19T12:43:04.000Z</time>
        <extensions>
          <ns3:TrackPointExtension>
            <ns3:atemp>25.0</ns3:atemp>
          </ns3:TrackPointExtension>
        </extensions>
      </trkpt>
      <trkpt lat="42.56316994316875934600830078125" lon="20.0946088694036006927490234375">
        <ele>2010.4000244140625</ele>
        <time>2026-06-19T12:43:05.000Z</time>
        <extensions>
          <ns3:TrackPointExtension>
            <ns3:atemp>25.0</ns3:atemp>
          </ns3:TrackPointExtension>
        </extensions>
      </trkpt>
      <trkpt lat="42.56316994316875934600830078125" lon="20.0946088694036006927490234375">
        <ele>2010.4000244140625</ele>
        <time>2026-06-19T12:43:06.000Z</time>
        <extensions>
          <ns3:TrackPointExtension>
            <ns3:atemp>25.0</ns3:atemp>
          </ns3:TrackPointExtension>
        </extensions>
      </trkpt>
      <trkpt lat="42.56316994316875934600830078125" lon="20.0946088694036006927490234375">
        <ele>2010.4000244140625</ele>
        <time>2026-06-19T12:43:07.000Z</time>
        <extensions>
          <ns3:TrackPointExtension>
            <ns3:atemp>25.0</ns3:atemp>
          </ns3:TrackPointExtension>
        </extensions>
      </trkpt>
      <trkpt lat="42.56316994316875934600830078125" lon="20.0946088694036006927490234375">
        <ele>2010.4000244140625</ele>
        <time>2026-06-19T12:43:08.000Z</time>
        <extensions>
          <ns3:TrackPointExtension>
            <ns3:atemp>25.0</ns3:atemp>
          </ns3:TrackPointExtension>
        </extensions>
      </trkpt>
      <trkpt lat="42.56316994316875934600830078125" lon="20.0946088694036006927490234375">
        <ele>2010.4000244140625</ele>
        <time>2026-06-19T12:43:09.000Z</time>
        <extensions>
          <ns3:TrackPointExtension>
            <ns3:atemp>25.0</ns3:atemp>
          </ns3:TrackPointExtension>
        </extensions>
      </trkpt>
      <trkpt lat="42.56316994316875934600830078125" lon="20.0946088694036006927490234375">
        <ele>2010.4000244140625</ele>
        <time>2026-06-19T12:43:10.000Z</time>
        <extensions>
          <ns3:TrackPointExtension>
            <ns3:atemp>25.0</ns3:atemp>
          </ns3:TrackPointExtension>
        </extensions>
      </trkpt>
      <trkpt lat="42.56316994316875934600830078125" lon="20.0946088694036006927490234375">
        <ele>2010.4000244140625</ele>
        <time>2026-06-19T12:43:11.000Z</time>
        <extensions>
          <ns3:TrackPointExtension>
            <ns3:atemp>25.0</ns3:atemp>
          </ns3:TrackPointExtension>
        </extensions>
      </trkpt>
      <trkpt lat="42.56316994316875934600830078125" lon="20.0946088694036006927490234375">
        <ele>2010.4000244140625</ele>
        <time>2026-06-19T12:43:12.000Z</time>
        <extensions>
          <ns3:TrackPointExtension>
            <ns3:atemp>25.0</ns3:atemp>
          </ns3:TrackPointExtension>
        </extensions>
      </trkpt>
      <trkpt lat="42.56316994316875934600830078125" lon="20.0946088694036006927490234375">
        <ele>2010.4000244140625</ele>
        <time>2026-06-19T12:43:13.000Z</time>
        <extensions>
          <ns3:TrackPointExtension>
            <ns3:atemp>25.0</ns3:atemp>
          </ns3:TrackPointExtension>
        </extensions>
      </trkpt>
      <trkpt lat="42.56316994316875934600830078125" lon="20.0946088694036006927490234375">
        <ele>2010.4000244140625</ele>
        <time>2026-06-19T12:43:14.000Z</time>
        <extensions>
          <ns3:TrackPointExtension>
            <ns3:atemp>25.0</ns3:atemp>
          </ns3:TrackPointExtension>
        </extensions>
      </trkpt>
      <trkpt lat="42.56316994316875934600830078125" lon="20.0946088694036006927490234375">
        <ele>2010.4000244140625</ele>
        <time>2026-06-19T12:43:15.000Z</time>
        <extensions>
          <ns3:TrackPointExtension>
            <ns3:atemp>25.0</ns3:atemp>
          </ns3:TrackPointExtension>
        </extensions>
      </trkpt>
      <trkpt lat="42.56316994316875934600830078125" lon="20.0946088694036006927490234375">
        <ele>2010.4000244140625</ele>
        <time>2026-06-19T12:43:16.000Z</time>
        <extensions>
          <ns3:TrackPointExtension>
            <ns3:atemp>25.0</ns3:atemp>
          </ns3:TrackPointExtension>
        </extensions>
      </trkpt>
      <trkpt lat="42.56316994316875934600830078125" lon="20.0946088694036006927490234375">
        <ele>2010.4000244140625</ele>
        <time>2026-06-19T12:43:17.000Z</time>
        <extensions>
          <ns3:TrackPointExtension>
            <ns3:atemp>25.0</ns3:atemp>
          </ns3:TrackPointExtension>
        </extensions>
      </trkpt>
      <trkpt lat="42.56316994316875934600830078125" lon="20.0946088694036006927490234375">
        <ele>2010.4000244140625</ele>
        <time>2026-06-19T12:43:18.000Z</time>
        <extensions>
          <ns3:TrackPointExtension>
            <ns3:atemp>25.0</ns3:atemp>
          </ns3:TrackPointExtension>
        </extensions>
      </trkpt>
      <trkpt lat="42.56316994316875934600830078125" lon="20.0946088694036006927490234375">
        <ele>2010.4000244140625</ele>
        <time>2026-06-19T12:43:19.000Z</time>
        <extensions>
          <ns3:TrackPointExtension>
            <ns3:atemp>25.0</ns3:atemp>
          </ns3:TrackPointExtension>
        </extensions>
      </trkpt>
      <trkpt lat="42.56316994316875934600830078125" lon="20.0946088694036006927490234375">
        <ele>2010.4000244140625</ele>
        <time>2026-06-19T12:43:20.000Z</time>
        <extensions>
          <ns3:TrackPointExtension>
            <ns3:atemp>25.0</ns3:atemp>
          </ns3:TrackPointExtension>
        </extensions>
      </trkpt>
      <trkpt lat="42.56316994316875934600830078125" lon="20.0946088694036006927490234375">
        <ele>2010.4000244140625</ele>
        <time>2026-06-19T12:43:21.000Z</time>
        <extensions>
          <ns3:TrackPointExtension>
            <ns3:atemp>25.0</ns3:atemp>
          </ns3:TrackPointExtension>
        </extensions>
      </trkpt>
      <trkpt lat="42.56316994316875934600830078125" lon="20.0946088694036006927490234375">
        <ele>2010.4000244140625</ele>
        <time>2026-06-19T12:43:22.000Z</time>
        <extensions>
          <ns3:TrackPointExtension>
            <ns3:atemp>25.0</ns3:atemp>
          </ns3:TrackPointExtension>
        </extensions>
      </trkpt>
      <trkpt lat="42.56316994316875934600830078125" lon="20.0946088694036006927490234375">
        <ele>2010.4000244140625</ele>
        <time>2026-06-19T12:43:23.000Z</time>
        <extensions>
          <ns3:TrackPointExtension>
            <ns3:atemp>25.0</ns3:atemp>
          </ns3:TrackPointExtension>
        </extensions>
      </trkpt>
      <trkpt lat="42.56316994316875934600830078125" lon="20.0946088694036006927490234375">
        <ele>2010.4000244140625</ele>
        <time>2026-06-19T12:43:24.000Z</time>
        <extensions>
          <ns3:TrackPointExtension>
            <ns3:atemp>25.0</ns3:atemp>
          </ns3:TrackPointExtension>
        </extensions>
      </trkpt>
      <trkpt lat="42.56316994316875934600830078125" lon="20.0946088694036006927490234375">
        <ele>2010.4000244140625</ele>
        <time>2026-06-19T12:43:25.000Z</time>
        <extensions>
          <ns3:TrackPointExtension>
            <ns3:atemp>25.0</ns3:atemp>
          </ns3:TrackPointExtension>
        </extensions>
      </trkpt>
      <trkpt lat="42.5631717033684253692626953125" lon="20.09460627101361751556396484375">
        <ele>2010.4000244140625</ele>
        <time>2026-06-19T12:43:26.000Z</time>
        <extensions>
          <ns3:TrackPointExtension>
            <ns3:atemp>25.0</ns3:atemp>
          </ns3:TrackPointExtension>
        </extensions>
      </trkpt>
      <trkpt lat="42.5631720386445522308349609375" lon="20.09459562599658966064453125">
        <ele>2010.4000244140625</ele>
        <time>2026-06-19T12:43:27.000Z</time>
        <extensions>
          <ns3:TrackPointExtension>
            <ns3:atemp>25.0</ns3:atemp>
          </ns3:TrackPointExtension>
        </extensions>
      </trkpt>
      <trkpt lat="42.5631646625697612762451171875" lon="20.09458355605602264404296875">
        <ele>2010.4000244140625</ele>
        <time>2026-06-19T12:43:28.000Z</time>
        <extensions>
          <ns3:TrackPointExtension>
            <ns3:atemp>25.0</ns3:atemp>
          </ns3:TrackPointExtension>
        </extensions>
      </trkpt>
      <trkpt lat="42.56315535865724086761474609375" lon="20.0945694744586944580078125">
        <ele>2010.800048828125</ele>
        <time>2026-06-19T12:43:29.000Z</time>
        <extensions>
          <ns3:TrackPointExtension>
            <ns3:atemp>25.0</ns3:atemp>
          </ns3:TrackPointExtension>
        </extensions>
      </trkpt>
      <trkpt lat="42.5631472282111644744873046875" lon="20.0945659540593624114990234375">
        <ele>2010.5999755859375</ele>
        <time>2026-06-19T12:43:30.000Z</time>
        <extensions>
          <ns3:TrackPointExtension>
            <ns3:atemp>25.0</ns3:atemp>
          </ns3:TrackPointExtension>
        </extensions>
      </trkpt>
      <trkpt lat="42.56314161233603954315185546875" lon="20.0945579074323177337646484375">
        <ele>2010.4000244140625</ele>
        <time>2026-06-19T12:43:31.000Z</time>
        <extensions>
          <ns3:TrackPointExtension>
            <ns3:atemp>25.0</ns3:atemp>
          </ns3:TrackPointExtension>
        </extensions>
      </trkpt>
      <trkpt lat="42.5631381757557392120361328125" lon="20.09455480612814426422119140625">
        <ele>2010.4000244140625</ele>
        <time>2026-06-19T12:43:32.000Z</time>
        <extensions>
          <ns3:TrackPointExtension>
            <ns3:atemp>25.0</ns3:atemp>
          </ns3:TrackPointExtension>
        </extensions>
      </trkpt>
      <trkpt lat="42.56313825957477092742919921875" lon="20.094554722309112548828125">
        <ele>2010.4000244140625</ele>
        <time>2026-06-19T12:43:33.000Z</time>
        <extensions>
          <ns3:TrackPointExtension>
            <ns3:atemp>25.0</ns3:atemp>
          </ns3:TrackPointExtension>
        </extensions>
      </trkpt>
      <trkpt lat="42.56313825957477092742919921875" lon="20.094554722309112548828125">
        <ele>2010.199951171875</ele>
        <time>2026-06-19T12:43:34.000Z</time>
        <extensions>
          <ns3:TrackPointExtension>
            <ns3:atemp>25.0</ns3:atemp>
          </ns3:TrackPointExtension>
        </extensions>
      </trkpt>
      <trkpt lat="42.56313825957477092742919921875" lon="20.094554722309112548828125">
        <ele>2010.199951171875</ele>
        <time>2026-06-19T12:43:35.000Z</time>
        <extensions>
          <ns3:TrackPointExtension>
            <ns3:atemp>25.0</ns3:atemp>
          </ns3:TrackPointExtension>
        </extensions>
      </trkpt>
      <trkpt lat="42.5631388463079929351806640625" lon="20.09455480612814426422119140625">
        <ele>2010</ele>
        <time>2026-06-19T12:43:36.000Z</time>
        <extensions>
          <ns3:TrackPointExtension>
            <ns3:atemp>25.0</ns3:atemp>
          </ns3:TrackPointExtension>
        </extensions>
      </trkpt>
      <trkpt lat="42.56314513273537158966064453125" lon="20.094561092555522918701171875">
        <ele>2010</ele>
        <time>2026-06-19T12:43:37.000Z</time>
        <extensions>
          <ns3:TrackPointExtension>
            <ns3:atemp>25.0</ns3:atemp>
          </ns3:TrackPointExtension>
        </extensions>
      </trkpt>
      <trkpt lat="42.56313825957477092742919921875" lon="20.094554722309112548828125">
        <ele>2010.199951171875</ele>
        <time>2026-06-19T12:43:38.000Z</time>
        <extensions>
          <ns3:TrackPointExtension>
            <ns3:atemp>25.0</ns3:atemp>
          </ns3:TrackPointExtension>
        </extensions>
      </trkpt>
      <trkpt lat="42.56313825957477092742919921875" lon="20.094554722309112548828125">
        <ele>2010.199951171875</ele>
        <time>2026-06-19T12:43:39.000Z</time>
        <extensions>
          <ns3:TrackPointExtension>
            <ns3:atemp>25.0</ns3:atemp>
          </ns3:TrackPointExtension>
        </extensions>
      </trkpt>
      <trkpt lat="42.56313825957477092742919921875" lon="20.094554722309112548828125">
        <ele>2010.4000244140625</ele>
        <time>2026-06-19T12:43:40.000Z</time>
        <extensions>
          <ns3:TrackPointExtension>
            <ns3:atemp>25.0</ns3:atemp>
          </ns3:TrackPointExtension>
        </extensions>
      </trkpt>
      <trkpt lat="42.56313825957477092742919921875" lon="20.094554722309112548828125">
        <ele>2010.5999755859375</ele>
        <time>2026-06-19T12:43:41.000Z</time>
        <extensions>
          <ns3:TrackPointExtension>
            <ns3:atemp>25.0</ns3:atemp>
          </ns3:TrackPointExtension>
        </extensions>
      </trkpt>
      <trkpt lat="42.56313825957477092742919921875" lon="20.094554722309112548828125">
        <ele>2010.5999755859375</ele>
        <time>2026-06-19T12:43:42.000Z</time>
        <extensions>
          <ns3:TrackPointExtension>
            <ns3:atemp>25.0</ns3:atemp>
          </ns3:TrackPointExtension>
        </extensions>
      </trkpt>
      <trkpt lat="42.56313825957477092742919921875" lon="20.094554722309112548828125">
        <ele>2010.5999755859375</ele>
        <time>2026-06-19T12:43:43.000Z</time>
        <extensions>
          <ns3:TrackPointExtension>
            <ns3:atemp>25.0</ns3:atemp>
          </ns3:TrackPointExtension>
        </extensions>
      </trkpt>
      <trkpt lat="42.56313825957477092742919921875" lon="20.094554722309112548828125">
        <ele>2010.4000244140625</ele>
        <time>2026-06-19T12:43:44.000Z</time>
        <extensions>
          <ns3:TrackPointExtension>
            <ns3:atemp>25.0</ns3:atemp>
          </ns3:TrackPointExtension>
        </extensions>
      </trkpt>
      <trkpt lat="42.56313825957477092742919921875" lon="20.094554722309112548828125">
        <ele>2010.4000244140625</ele>
        <time>2026-06-19T12:43:45.000Z</time>
        <extensions>
          <ns3:TrackPointExtension>
            <ns3:atemp>25.0</ns3:atemp>
          </ns3:TrackPointExtension>
        </extensions>
      </trkpt>
      <trkpt lat="42.56313825957477092742919921875" lon="20.094554722309112548828125">
        <ele>2010.4000244140625</ele>
        <time>2026-06-19T12:43:46.000Z</time>
        <extensions>
          <ns3:TrackPointExtension>
            <ns3:atemp>25.0</ns3:atemp>
          </ns3:TrackPointExtension>
        </extensions>
      </trkpt>
      <trkpt lat="42.56313825957477092742919921875" lon="20.094554722309112548828125">
        <ele>2010.4000244140625</ele>
        <time>2026-06-19T12:43:47.000Z</time>
        <extensions>
          <ns3:TrackPointExtension>
            <ns3:atemp>25.0</ns3:atemp>
          </ns3:TrackPointExtension>
        </extensions>
      </trkpt>
      <trkpt lat="42.56313825957477092742919921875" lon="20.094554722309112548828125">
        <ele>2010.199951171875</ele>
        <time>2026-06-19T12:43:48.000Z</time>
        <extensions>
          <ns3:TrackPointExtension>
            <ns3:atemp>25.0</ns3:atemp>
          </ns3:TrackPointExtension>
        </extensions>
      </trkpt>
      <trkpt lat="42.56313825957477092742919921875" lon="20.094554722309112548828125">
        <ele>2010.199951171875</ele>
        <time>2026-06-19T12:43:49.000Z</time>
        <extensions>
          <ns3:TrackPointExtension>
            <ns3:atemp>25.0</ns3:atemp>
          </ns3:TrackPointExtension>
        </extensions>
      </trkpt>
      <trkpt lat="42.56313825957477092742919921875" lon="20.094554722309112548828125">
        <ele>2010.199951171875</ele>
        <time>2026-06-19T12:43:50.000Z</time>
        <extensions>
          <ns3:TrackPointExtension>
            <ns3:atemp>25.0</ns3:atemp>
          </ns3:TrackPointExtension>
        </extensions>
      </trkpt>
      <trkpt lat="42.56313825957477092742919921875" lon="20.094554722309112548828125">
        <ele>2010.199951171875</ele>
        <time>2026-06-19T12:43:51.000Z</time>
        <extensions>
          <ns3:TrackPointExtension>
            <ns3:atemp>25.0</ns3:atemp>
          </ns3:TrackPointExtension>
        </extensions>
      </trkpt>
      <trkpt lat="42.56313825957477092742919921875" lon="20.094554722309112548828125">
        <ele>2010.199951171875</ele>
        <time>2026-06-19T12:43:52.000Z</time>
        <extensions>
          <ns3:TrackPointExtension>
            <ns3:atemp>25.0</ns3:atemp>
          </ns3:TrackPointExtension>
        </extensions>
      </trkpt>
      <trkpt lat="42.56313825957477092742919921875" lon="20.094554722309112548828125">
        <ele>2010.4000244140625</ele>
        <time>2026-06-19T12:43:53.000Z</time>
        <extensions>
          <ns3:TrackPointExtension>
            <ns3:atemp>25.0</ns3:atemp>
          </ns3:TrackPointExtension>
        </extensions>
      </trkpt>
      <trkpt lat="42.56313825957477092742919921875" lon="20.094554722309112548828125">
        <ele>2010.4000244140625</ele>
        <time>2026-06-19T12:43:54.000Z</time>
        <extensions>
          <ns3:TrackPointExtension>
            <ns3:atemp>25.0</ns3:atemp>
          </ns3:TrackPointExtension>
        </extensions>
      </trkpt>
      <trkpt lat="42.56313825957477092742919921875" lon="20.094554722309112548828125">
        <ele>2010.4000244140625</ele>
        <time>2026-06-19T12:43:55.000Z</time>
        <extensions>
          <ns3:TrackPointExtension>
            <ns3:atemp>25.0</ns3:atemp>
          </ns3:TrackPointExtension>
        </extensions>
      </trkpt>
      <trkpt lat="42.56313825957477092742919921875" lon="20.094554722309112548828125">
        <ele>2010.4000244140625</ele>
        <time>2026-06-19T12:43:56.000Z</time>
        <extensions>
          <ns3:TrackPointExtension>
            <ns3:atemp>25.0</ns3:atemp>
          </ns3:TrackPointExtension>
        </extensions>
      </trkpt>
      <trkpt lat="42.56313825957477092742919921875" lon="20.094554722309112548828125">
        <ele>2010.4000244140625</ele>
        <time>2026-06-19T12:43:57.000Z</time>
        <extensions>
          <ns3:TrackPointExtension>
            <ns3:atemp>25.0</ns3:atemp>
          </ns3:TrackPointExtension>
        </extensions>
      </trkpt>
      <trkpt lat="42.56313825957477092742919921875" lon="20.094554722309112548828125">
        <ele>2010.199951171875</ele>
        <time>2026-06-19T12:43:58.000Z</time>
        <extensions>
          <ns3:TrackPointExtension>
            <ns3:atemp>25.0</ns3:atemp>
          </ns3:TrackPointExtension>
        </extensions>
      </trkpt>
      <trkpt lat="42.56313825957477092742919921875" lon="20.094554722309112548828125">
        <ele>2010.199951171875</ele>
        <time>2026-06-19T12:43:59.000Z</time>
        <extensions>
          <ns3:TrackPointExtension>
            <ns3:atemp>25.0</ns3:atemp>
          </ns3:TrackPointExtension>
        </extensions>
      </trkpt>
      <trkpt lat="42.56313825957477092742919921875" lon="20.094554722309112548828125">
        <ele>2010.4000244140625</ele>
        <time>2026-06-19T12:44:00.000Z</time>
        <extensions>
          <ns3:TrackPointExtension>
            <ns3:atemp>25.0</ns3:atemp>
          </ns3:TrackPointExtension>
        </extensions>
      </trkpt>
      <trkpt lat="42.56313825957477092742919921875" lon="20.094554722309112548828125">
        <ele>2010.4000244140625</ele>
        <time>2026-06-19T12:44:01.000Z</time>
        <extensions>
          <ns3:TrackPointExtension>
            <ns3:atemp>25.0</ns3:atemp>
          </ns3:TrackPointExtension>
        </extensions>
      </trkpt>
      <trkpt lat="42.56313825957477092742919921875" lon="20.094554722309112548828125">
        <ele>2010.4000244140625</ele>
        <time>2026-06-19T12:44:02.000Z</time>
        <extensions>
          <ns3:TrackPointExtension>
            <ns3:atemp>25.0</ns3:atemp>
          </ns3:TrackPointExtension>
        </extensions>
      </trkpt>
      <trkpt lat="42.56313825957477092742919921875" lon="20.094554722309112548828125">
        <ele>2010.4000244140625</ele>
        <time>2026-06-19T12:44:03.000Z</time>
        <extensions>
          <ns3:TrackPointExtension>
            <ns3:atemp>25.0</ns3:atemp>
          </ns3:TrackPointExtension>
        </extensions>
      </trkpt>
      <trkpt lat="42.56313825957477092742919921875" lon="20.094554722309112548828125">
        <ele>2010.5999755859375</ele>
        <time>2026-06-19T12:44:04.000Z</time>
        <extensions>
          <ns3:TrackPointExtension>
            <ns3:atemp>25.0</ns3:atemp>
          </ns3:TrackPointExtension>
        </extensions>
      </trkpt>
      <trkpt lat="42.56313825957477092742919921875" lon="20.094554722309112548828125">
        <ele>2010.5999755859375</ele>
        <time>2026-06-19T12:44:05.000Z</time>
        <extensions>
          <ns3:TrackPointExtension>
            <ns3:atemp>25.0</ns3:atemp>
          </ns3:TrackPointExtension>
        </extensions>
      </trkpt>
      <trkpt lat="42.56313825957477092742919921875" lon="20.094554722309112548828125">
        <ele>2010.5999755859375</ele>
        <time>2026-06-19T12:44:06.000Z</time>
        <extensions>
          <ns3:TrackPointExtension>
            <ns3:atemp>25.0</ns3:atemp>
          </ns3:TrackPointExtension>
        </extensions>
      </trkpt>
      <trkpt lat="42.56313825957477092742919921875" lon="20.094554722309112548828125">
        <ele>2010.800048828125</ele>
        <time>2026-06-19T12:44:07.000Z</time>
        <extensions>
          <ns3:TrackPointExtension>
            <ns3:atemp>25.0</ns3:atemp>
          </ns3:TrackPointExtension>
        </extensions>
      </trkpt>
      <trkpt lat="42.56313825957477092742919921875" lon="20.094554722309112548828125">
        <ele>2010.800048828125</ele>
        <time>2026-06-19T12:44:08.000Z</time>
        <extensions>
          <ns3:TrackPointExtension>
            <ns3:atemp>25.0</ns3:atemp>
          </ns3:TrackPointExtension>
        </extensions>
      </trkpt>
      <trkpt lat="42.56313825957477092742919921875" lon="20.094554722309112548828125">
        <ele>2010.800048828125</ele>
        <time>2026-06-19T12:44:09.000Z</time>
        <extensions>
          <ns3:TrackPointExtension>
            <ns3:atemp>25.0</ns3:atemp>
          </ns3:TrackPointExtension>
        </extensions>
      </trkpt>
      <trkpt lat="42.56313825957477092742919921875" lon="20.094554722309112548828125">
        <ele>2010.800048828125</ele>
        <time>2026-06-19T12:44:10.000Z</time>
        <extensions>
          <ns3:TrackPointExtension>
            <ns3:atemp>25.0</ns3:atemp>
          </ns3:TrackPointExtension>
        </extensions>
      </trkpt>
      <trkpt lat="42.56313825957477092742919921875" lon="20.094554722309112548828125">
        <ele>2010.800048828125</ele>
        <time>2026-06-19T12:44:11.000Z</time>
        <extensions>
          <ns3:TrackPointExtension>
            <ns3:atemp>25.0</ns3:atemp>
          </ns3:TrackPointExtension>
        </extensions>
      </trkpt>
      <trkpt lat="42.56313825957477092742919921875" lon="20.094554722309112548828125">
        <ele>2010.800048828125</ele>
        <time>2026-06-19T12:44:12.000Z</time>
        <extensions>
          <ns3:TrackPointExtension>
            <ns3:atemp>25.0</ns3:atemp>
          </ns3:TrackPointExtension>
        </extensions>
      </trkpt>
      <trkpt lat="42.56313825957477092742919921875" lon="20.094554722309112548828125">
        <ele>2010.800048828125</ele>
        <time>2026-06-19T12:44:13.000Z</time>
        <extensions>
          <ns3:TrackPointExtension>
            <ns3:atemp>25.0</ns3:atemp>
          </ns3:TrackPointExtension>
        </extensions>
      </trkpt>
      <trkpt lat="42.56313825957477092742919921875" lon="20.094554722309112548828125">
        <ele>2010.800048828125</ele>
        <time>2026-06-19T12:44:14.000Z</time>
        <extensions>
          <ns3:TrackPointExtension>
            <ns3:atemp>25.0</ns3:atemp>
          </ns3:TrackPointExtension>
        </extensions>
      </trkpt>
      <trkpt lat="42.56313825957477092742919921875" lon="20.094554722309112548828125">
        <ele>2011</ele>
        <time>2026-06-19T12:44:15.000Z</time>
        <extensions>
          <ns3:TrackPointExtension>
            <ns3:atemp>25.0</ns3:atemp>
          </ns3:TrackPointExtension>
        </extensions>
      </trkpt>
      <trkpt lat="42.56313825957477092742919921875" lon="20.094554722309112548828125">
        <ele>2011</ele>
        <time>2026-06-19T12:44:16.000Z</time>
        <extensions>
          <ns3:TrackPointExtension>
            <ns3:atemp>25.0</ns3:atemp>
          </ns3:TrackPointExtension>
        </extensions>
      </trkpt>
      <trkpt lat="42.56313825957477092742919921875" lon="20.094554722309112548828125">
        <ele>2011</ele>
        <time>2026-06-19T12:44:17.000Z</time>
        <extensions>
          <ns3:TrackPointExtension>
            <ns3:atemp>25.0</ns3:atemp>
          </ns3:TrackPointExtension>
        </extensions>
      </trkpt>
      <trkpt lat="42.56313825957477092742919921875" lon="20.094554722309112548828125">
        <ele>2011</ele>
        <time>2026-06-19T12:44:18.000Z</time>
        <extensions>
          <ns3:TrackPointExtension>
            <ns3:atemp>25.0</ns3:atemp>
          </ns3:TrackPointExtension>
        </extensions>
      </trkpt>
      <trkpt lat="42.56313825957477092742919921875" lon="20.094554722309112548828125">
        <ele>2011</ele>
        <time>2026-06-19T12:44:19.000Z</time>
        <extensions>
          <ns3:TrackPointExtension>
            <ns3:atemp>25.0</ns3:atemp>
          </ns3:TrackPointExtension>
        </extensions>
      </trkpt>
      <trkpt lat="42.56313825957477092742919921875" lon="20.094554722309112548828125">
        <ele>2011</ele>
        <time>2026-06-19T12:44:20.000Z</time>
        <extensions>
          <ns3:TrackPointExtension>
            <ns3:atemp>25.0</ns3:atemp>
          </ns3:TrackPointExtension>
        </extensions>
      </trkpt>
      <trkpt lat="42.56313825957477092742919921875" lon="20.094554722309112548828125">
        <ele>2011</ele>
        <time>2026-06-19T12:44:21.000Z</time>
        <extensions>
          <ns3:TrackPointExtension>
            <ns3:atemp>25.0</ns3:atemp>
          </ns3:TrackPointExtension>
        </extensions>
      </trkpt>
      <trkpt lat="42.56313825957477092742919921875" lon="20.094554722309112548828125">
        <ele>2011</ele>
        <time>2026-06-19T12:44:22.000Z</time>
        <extensions>
          <ns3:TrackPointExtension>
            <ns3:atemp>25.0</ns3:atemp>
          </ns3:TrackPointExtension>
        </extensions>
      </trkpt>
      <trkpt lat="42.56313825957477092742919921875" lon="20.094554722309112548828125">
        <ele>2011</ele>
        <time>2026-06-19T12:44:23.000Z</time>
        <extensions>
          <ns3:TrackPointExtension>
            <ns3:atemp>25.0</ns3:atemp>
          </ns3:TrackPointExtension>
        </extensions>
      </trkpt>
      <trkpt lat="42.56313825957477092742919921875" lon="20.094554722309112548828125">
        <ele>2011</ele>
        <time>2026-06-19T12:44:24.000Z</time>
        <extensions>
          <ns3:TrackPointExtension>
            <ns3:atemp>25.0</ns3:atemp>
          </ns3:TrackPointExtension>
        </extensions>
      </trkpt>
      <trkpt lat="42.56313825957477092742919921875" lon="20.094554722309112548828125">
        <ele>2011</ele>
        <time>2026-06-19T12:44:25.000Z</time>
        <extensions>
          <ns3:TrackPointExtension>
            <ns3:atemp>25.0</ns3:atemp>
          </ns3:TrackPointExtension>
        </extensions>
      </trkpt>
      <trkpt lat="42.56313825957477092742919921875" lon="20.094554722309112548828125">
        <ele>2011</ele>
        <time>2026-06-19T12:44:26.000Z</time>
        <extensions>
          <ns3:TrackPointExtension>
            <ns3:atemp>25.0</ns3:atemp>
          </ns3:TrackPointExtension>
        </extensions>
      </trkpt>
      <trkpt lat="42.56313825957477092742919921875" lon="20.094554722309112548828125">
        <ele>2011</ele>
        <time>2026-06-19T12:44:27.000Z</time>
        <extensions>
          <ns3:TrackPointExtension>
            <ns3:atemp>25.0</ns3:atemp>
          </ns3:TrackPointExtension>
        </extensions>
      </trkpt>
      <trkpt lat="42.56313825957477092742919921875" lon="20.094554722309112548828125">
        <ele>2011</ele>
        <time>2026-06-19T12:44:28.000Z</time>
        <extensions>
          <ns3:TrackPointExtension>
            <ns3:atemp>25.0</ns3:atemp>
          </ns3:TrackPointExtension>
        </extensions>
      </trkpt>
      <trkpt lat="42.56313825957477092742919921875" lon="20.094554722309112548828125">
        <ele>2011</ele>
        <time>2026-06-19T12:44:29.000Z</time>
        <extensions>
          <ns3:TrackPointExtension>
            <ns3:atemp>25.0</ns3:atemp>
          </ns3:TrackPointExtension>
        </extensions>
      </trkpt>
      <trkpt lat="42.56313825957477092742919921875" lon="20.094554722309112548828125">
        <ele>2011</ele>
        <time>2026-06-19T12:44:30.000Z</time>
        <extensions>
          <ns3:TrackPointExtension>
            <ns3:atemp>25.0</ns3:atemp>
          </ns3:TrackPointExtension>
        </extensions>
      </trkpt>
      <trkpt lat="42.56313825957477092742919921875" lon="20.094554722309112548828125">
        <ele>2011</ele>
        <time>2026-06-19T12:44:31.000Z</time>
        <extensions>
          <ns3:TrackPointExtension>
            <ns3:atemp>25.0</ns3:atemp>
          </ns3:TrackPointExtension>
        </extensions>
      </trkpt>
      <trkpt lat="42.56313825957477092742919921875" lon="20.094554722309112548828125">
        <ele>2011</ele>
        <time>2026-06-19T12:44:32.000Z</time>
        <extensions>
          <ns3:TrackPointExtension>
            <ns3:atemp>25.0</ns3:atemp>
          </ns3:TrackPointExtension>
        </extensions>
      </trkpt>
      <trkpt lat="42.56313825957477092742919921875" lon="20.094554722309112548828125">
        <ele>2011</ele>
        <time>2026-06-19T12:44:33.000Z</time>
        <extensions>
          <ns3:TrackPointExtension>
            <ns3:atemp>25.0</ns3:atemp>
          </ns3:TrackPointExtension>
        </extensions>
      </trkpt>
      <trkpt lat="42.56313825957477092742919921875" lon="20.094554722309112548828125">
        <ele>2011</ele>
        <time>2026-06-19T12:44:34.000Z</time>
        <extensions>
          <ns3:TrackPointExtension>
            <ns3:atemp>25.0</ns3:atemp>
          </ns3:TrackPointExtension>
        </extensions>
      </trkpt>
      <trkpt lat="42.56313825957477092742919921875" lon="20.094554722309112548828125">
        <ele>2011</ele>
        <time>2026-06-19T12:44:35.000Z</time>
        <extensions>
          <ns3:TrackPointExtension>
            <ns3:atemp>25.0</ns3:atemp>
          </ns3:TrackPointExtension>
        </extensions>
      </trkpt>
      <trkpt lat="42.56313825957477092742919921875" lon="20.094554722309112548828125">
        <ele>2011</ele>
        <time>2026-06-19T12:44:36.000Z</time>
        <extensions>
          <ns3:TrackPointExtension>
            <ns3:atemp>25.0</ns3:atemp>
          </ns3:TrackPointExtension>
        </extensions>
      </trkpt>
      <trkpt lat="42.56313825957477092742919921875" lon="20.094554722309112548828125">
        <ele>2011</ele>
        <time>2026-06-19T12:44:37.000Z</time>
        <extensions>
          <ns3:TrackPointExtension>
            <ns3:atemp>25.0</ns3:atemp>
          </ns3:TrackPointExtension>
        </extensions>
      </trkpt>
      <trkpt lat="42.56313825957477092742919921875" lon="20.094554722309112548828125">
        <ele>2010.800048828125</ele>
        <time>2026-06-19T12:44:38.000Z</time>
        <extensions>
          <ns3:TrackPointExtension>
            <ns3:atemp>25.0</ns3:atemp>
          </ns3:TrackPointExtension>
        </extensions>
      </trkpt>
      <trkpt lat="42.56313825957477092742919921875" lon="20.094554722309112548828125">
        <ele>2010.800048828125</ele>
        <time>2026-06-19T12:44:39.000Z</time>
        <extensions>
          <ns3:TrackPointExtension>
            <ns3:atemp>25.0</ns3:atemp>
          </ns3:TrackPointExtension>
        </extensions>
      </trkpt>
      <trkpt lat="42.56313825957477092742919921875" lon="20.094554722309112548828125">
        <ele>2010.800048828125</ele>
        <time>2026-06-19T12:44:40.000Z</time>
        <extensions>
          <ns3:TrackPointExtension>
            <ns3:atemp>25.0</ns3:atemp>
          </ns3:TrackPointExtension>
        </extensions>
      </trkpt>
      <trkpt lat="42.56313825957477092742919921875" lon="20.094554722309112548828125">
        <ele>2010.800048828125</ele>
        <time>2026-06-19T12:44:41.000Z</time>
        <extensions>
          <ns3:TrackPointExtension>
            <ns3:atemp>25.0</ns3:atemp>
          </ns3:TrackPointExtension>
        </extensions>
      </trkpt>
      <trkpt lat="42.56313825957477092742919921875" lon="20.094554722309112548828125">
        <ele>2010.800048828125</ele>
        <time>2026-06-19T12:44:42.000Z</time>
        <extensions>
          <ns3:TrackPointExtension>
            <ns3:atemp>25.0</ns3:atemp>
          </ns3:TrackPointExtension>
        </extensions>
      </trkpt>
      <trkpt lat="42.56313825957477092742919921875" lon="20.094554722309112548828125">
        <ele>2010.800048828125</ele>
        <time>2026-06-19T12:44:43.000Z</time>
        <extensions>
          <ns3:TrackPointExtension>
            <ns3:atemp>25.0</ns3:atemp>
          </ns3:TrackPointExtension>
        </extensions>
      </trkpt>
      <trkpt lat="42.56313825957477092742919921875" lon="20.094554722309112548828125">
        <ele>2010.5999755859375</ele>
        <time>2026-06-19T12:44:44.000Z</time>
        <extensions>
          <ns3:TrackPointExtension>
            <ns3:atemp>25.0</ns3:atemp>
          </ns3:TrackPointExtension>
        </extensions>
      </trkpt>
      <trkpt lat="42.56313825957477092742919921875" lon="20.094554722309112548828125">
        <ele>2010.5999755859375</ele>
        <time>2026-06-19T12:44:45.000Z</time>
        <extensions>
          <ns3:TrackPointExtension>
            <ns3:atemp>25.0</ns3:atemp>
          </ns3:TrackPointExtension>
        </extensions>
      </trkpt>
      <trkpt lat="42.56313825957477092742919921875" lon="20.094554722309112548828125">
        <ele>2010.5999755859375</ele>
        <time>2026-06-19T12:44:46.000Z</time>
        <extensions>
          <ns3:TrackPointExtension>
            <ns3:atemp>25.0</ns3:atemp>
          </ns3:TrackPointExtension>
        </extensions>
      </trkpt>
      <trkpt lat="42.56313825957477092742919921875" lon="20.094554722309112548828125">
        <ele>2010.5999755859375</ele>
        <time>2026-06-19T12:44:47.000Z</time>
        <extensions>
          <ns3:TrackPointExtension>
            <ns3:atemp>25.0</ns3:atemp>
          </ns3:TrackPointExtension>
        </extensions>
      </trkpt>
      <trkpt lat="42.56313825957477092742919921875" lon="20.094554722309112548828125">
        <ele>2010.4000244140625</ele>
        <time>2026-06-19T12:44:48.000Z</time>
        <extensions>
          <ns3:TrackPointExtension>
            <ns3:atemp>25.0</ns3:atemp>
          </ns3:TrackPointExtension>
        </extensions>
      </trkpt>
      <trkpt lat="42.56313825957477092742919921875" lon="20.094554722309112548828125">
        <ele>2010.4000244140625</ele>
        <time>2026-06-19T12:44:49.000Z</time>
        <extensions>
          <ns3:TrackPointExtension>
            <ns3:atemp>25.0</ns3:atemp>
          </ns3:TrackPointExtension>
        </extensions>
      </trkpt>
      <trkpt lat="42.56313825957477092742919921875" lon="20.094554722309112548828125">
        <ele>2010.4000244140625</ele>
        <time>2026-06-19T12:44:50.000Z</time>
        <extensions>
          <ns3:TrackPointExtension>
            <ns3:atemp>25.0</ns3:atemp>
          </ns3:TrackPointExtension>
        </extensions>
      </trkpt>
      <trkpt lat="42.56313825957477092742919921875" lon="20.094554722309112548828125">
        <ele>2010.4000244140625</ele>
        <time>2026-06-19T12:44:51.000Z</time>
        <extensions>
          <ns3:TrackPointExtension>
            <ns3:atemp>25.0</ns3:atemp>
          </ns3:TrackPointExtension>
        </extensions>
      </trkpt>
      <trkpt lat="42.56313825957477092742919921875" lon="20.094554722309112548828125">
        <ele>2010.4000244140625</ele>
        <time>2026-06-19T12:44:52.000Z</time>
        <extensions>
          <ns3:TrackPointExtension>
            <ns3:atemp>25.0</ns3:atemp>
          </ns3:TrackPointExtension>
        </extensions>
      </trkpt>
      <trkpt lat="42.56313825957477092742919921875" lon="20.094554722309112548828125">
        <ele>2010.4000244140625</ele>
        <time>2026-06-19T12:44:53.000Z</time>
        <extensions>
          <ns3:TrackPointExtension>
            <ns3:atemp>25.0</ns3:atemp>
          </ns3:TrackPointExtension>
        </extensions>
      </trkpt>
      <trkpt lat="42.56313825957477092742919921875" lon="20.094554722309112548828125">
        <ele>2010.4000244140625</ele>
        <time>2026-06-19T12:44:54.000Z</time>
        <extensions>
          <ns3:TrackPointExtension>
            <ns3:atemp>25.0</ns3:atemp>
          </ns3:TrackPointExtension>
        </extensions>
      </trkpt>
      <trkpt lat="42.56313825957477092742919921875" lon="20.094554722309112548828125">
        <ele>2010.4000244140625</ele>
        <time>2026-06-19T12:44:55.000Z</time>
        <extensions>
          <ns3:TrackPointExtension>
            <ns3:atemp>25.0</ns3:atemp>
          </ns3:TrackPointExtension>
        </extensions>
      </trkpt>
      <trkpt lat="42.56313825957477092742919921875" lon="20.094554722309112548828125">
        <ele>2010.5999755859375</ele>
        <time>2026-06-19T12:44:56.000Z</time>
        <extensions>
          <ns3:TrackPointExtension>
            <ns3:atemp>25.0</ns3:atemp>
          </ns3:TrackPointExtension>
        </extensions>
      </trkpt>
      <trkpt lat="42.56313825957477092742919921875" lon="20.094554722309112548828125">
        <ele>2010.5999755859375</ele>
        <time>2026-06-19T12:44:57.000Z</time>
        <extensions>
          <ns3:TrackPointExtension>
            <ns3:atemp>25.0</ns3:atemp>
          </ns3:TrackPointExtension>
        </extensions>
      </trkpt>
      <trkpt lat="42.56313825957477092742919921875" lon="20.094554722309112548828125">
        <ele>2010.5999755859375</ele>
        <time>2026-06-19T12:44:58.000Z</time>
        <extensions>
          <ns3:TrackPointExtension>
            <ns3:atemp>26.0</ns3:atemp>
          </ns3:TrackPointExtension>
        </extensions>
      </trkpt>
      <trkpt lat="42.56313825957477092742919921875" lon="20.094554722309112548828125">
        <ele>2010.5999755859375</ele>
        <time>2026-06-19T12:44:59.000Z</time>
        <extensions>
          <ns3:TrackPointExtension>
            <ns3:atemp>26.0</ns3:atemp>
          </ns3:TrackPointExtension>
        </extensions>
      </trkpt>
      <trkpt lat="42.56313825957477092742919921875" lon="20.094554722309112548828125">
        <ele>2010.5999755859375</ele>
        <time>2026-06-19T12:45:00.000Z</time>
        <extensions>
          <ns3:TrackPointExtension>
            <ns3:atemp>25.0</ns3:atemp>
          </ns3:TrackPointExtension>
        </extensions>
      </trkpt>
      <trkpt lat="42.56313825957477092742919921875" lon="20.094554722309112548828125">
        <ele>2010.5999755859375</ele>
        <time>2026-06-19T12:45:01.000Z</time>
        <extensions>
          <ns3:TrackPointExtension>
            <ns3:atemp>25.0</ns3:atemp>
          </ns3:TrackPointExtension>
        </extensions>
      </trkpt>
      <trkpt lat="42.56313825957477092742919921875" lon="20.094554722309112548828125">
        <ele>2010.5999755859375</ele>
        <time>2026-06-19T12:45:02.000Z</time>
        <extensions>
          <ns3:TrackPointExtension>
            <ns3:atemp>26.0</ns3:atemp>
          </ns3:TrackPointExtension>
        </extensions>
      </trkpt>
      <trkpt lat="42.56313825957477092742919921875" lon="20.094554722309112548828125">
        <ele>2010.5999755859375</ele>
        <time>2026-06-19T12:45:03.000Z</time>
        <extensions>
          <ns3:TrackPointExtension>
            <ns3:atemp>26.0</ns3:atemp>
          </ns3:TrackPointExtension>
        </extensions>
      </trkpt>
      <trkpt lat="42.56313825957477092742919921875" lon="20.094554722309112548828125">
        <ele>2010.5999755859375</ele>
        <time>2026-06-19T12:45:04.000Z</time>
        <extensions>
          <ns3:TrackPointExtension>
            <ns3:atemp>26.0</ns3:atemp>
          </ns3:TrackPointExtension>
        </extensions>
      </trkpt>
      <trkpt lat="42.56313825957477092742919921875" lon="20.094554722309112548828125">
        <ele>2010.5999755859375</ele>
        <time>2026-06-19T12:45:05.000Z</time>
        <extensions>
          <ns3:TrackPointExtension>
            <ns3:atemp>25.0</ns3:atemp>
          </ns3:TrackPointExtension>
        </extensions>
      </trkpt>
      <trkpt lat="42.56313825957477092742919921875" lon="20.094554722309112548828125">
        <ele>2010.5999755859375</ele>
        <time>2026-06-19T12:45:06.000Z</time>
        <extensions>
          <ns3:TrackPointExtension>
            <ns3:atemp>25.0</ns3:atemp>
          </ns3:TrackPointExtension>
        </extensions>
      </trkpt>
      <trkpt lat="42.56313825957477092742919921875" lon="20.094554722309112548828125">
        <ele>2010.800048828125</ele>
        <time>2026-06-19T12:45:07.000Z</time>
        <extensions>
          <ns3:TrackPointExtension>
            <ns3:atemp>25.0</ns3:atemp>
          </ns3:TrackPointExtension>
        </extensions>
      </trkpt>
      <trkpt lat="42.56313825957477092742919921875" lon="20.094554722309112548828125">
        <ele>2010.800048828125</ele>
        <time>2026-06-19T12:45:08.000Z</time>
        <extensions>
          <ns3:TrackPointExtension>
            <ns3:atemp>26.0</ns3:atemp>
          </ns3:TrackPointExtension>
        </extensions>
      </trkpt>
      <trkpt lat="42.56313825957477092742919921875" lon="20.094554722309112548828125">
        <ele>2010.800048828125</ele>
        <time>2026-06-19T12:45:09.000Z</time>
        <extensions>
          <ns3:TrackPointExtension>
            <ns3:atemp>25.0</ns3:atemp>
          </ns3:TrackPointExtension>
        </extensions>
      </trkpt>
      <trkpt lat="42.56313825957477092742919921875" lon="20.094554722309112548828125">
        <ele>2010.800048828125</ele>
        <time>2026-06-19T12:45:10.000Z</time>
        <extensions>
          <ns3:TrackPointExtension>
            <ns3:atemp>25.0</ns3:atemp>
          </ns3:TrackPointExtension>
        </extensions>
      </trkpt>
      <trkpt lat="42.56313825957477092742919921875" lon="20.094554722309112548828125">
        <ele>2010.800048828125</ele>
        <time>2026-06-19T12:45:11.000Z</time>
        <extensions>
          <ns3:TrackPointExtension>
            <ns3:atemp>26.0</ns3:atemp>
          </ns3:TrackPointExtension>
        </extensions>
      </trkpt>
      <trkpt lat="42.56313825957477092742919921875" lon="20.094554722309112548828125">
        <ele>2010.5999755859375</ele>
        <time>2026-06-19T12:45:12.000Z</time>
        <extensions>
          <ns3:TrackPointExtension>
            <ns3:atemp>26.0</ns3:atemp>
          </ns3:TrackPointExtension>
        </extensions>
      </trkpt>
      <trkpt lat="42.56313825957477092742919921875" lon="20.094554722309112548828125">
        <ele>2010.5999755859375</ele>
        <time>2026-06-19T12:45:13.000Z</time>
        <extensions>
          <ns3:TrackPointExtension>
            <ns3:atemp>26.0</ns3:atemp>
          </ns3:TrackPointExtension>
        </extensions>
      </trkpt>
      <trkpt lat="42.56313825957477092742919921875" lon="20.094554722309112548828125">
        <ele>2010.5999755859375</ele>
        <time>2026-06-19T12:45:14.000Z</time>
        <extensions>
          <ns3:TrackPointExtension>
            <ns3:atemp>26.0</ns3:atemp>
          </ns3:TrackPointExtension>
        </extensions>
      </trkpt>
      <trkpt lat="42.56313825957477092742919921875" lon="20.094554722309112548828125">
        <ele>2010.5999755859375</ele>
        <time>2026-06-19T12:45:15.000Z</time>
        <extensions>
          <ns3:TrackPointExtension>
            <ns3:atemp>26.0</ns3:atemp>
          </ns3:TrackPointExtension>
        </extensions>
      </trkpt>
      <trkpt lat="42.56313825957477092742919921875" lon="20.094554722309112548828125">
        <ele>2010.5999755859375</ele>
        <time>2026-06-19T12:45:16.000Z</time>
        <extensions>
          <ns3:TrackPointExtension>
            <ns3:atemp>26.0</ns3:atemp>
          </ns3:TrackPointExtension>
        </extensions>
      </trkpt>
      <trkpt lat="42.56313825957477092742919921875" lon="20.094554722309112548828125">
        <ele>2010.5999755859375</ele>
        <time>2026-06-19T12:45:17.000Z</time>
        <extensions>
          <ns3:TrackPointExtension>
            <ns3:atemp>26.0</ns3:atemp>
          </ns3:TrackPointExtension>
        </extensions>
      </trkpt>
      <trkpt lat="42.56313825957477092742919921875" lon="20.094554722309112548828125">
        <ele>2010.5999755859375</ele>
        <time>2026-06-19T12:45:18.000Z</time>
        <extensions>
          <ns3:TrackPointExtension>
            <ns3:atemp>26.0</ns3:atemp>
          </ns3:TrackPointExtension>
        </extensions>
      </trkpt>
      <trkpt lat="42.56313825957477092742919921875" lon="20.094554722309112548828125">
        <ele>2010.5999755859375</ele>
        <time>2026-06-19T12:45:19.000Z</time>
        <extensions>
          <ns3:TrackPointExtension>
            <ns3:atemp>26.0</ns3:atemp>
          </ns3:TrackPointExtension>
        </extensions>
      </trkpt>
      <trkpt lat="42.56313825957477092742919921875" lon="20.094554722309112548828125">
        <ele>2010.5999755859375</ele>
        <time>2026-06-19T12:45:20.000Z</time>
        <extensions>
          <ns3:TrackPointExtension>
            <ns3:atemp>26.0</ns3:atemp>
          </ns3:TrackPointExtension>
        </extensions>
      </trkpt>
      <trkpt lat="42.56313825957477092742919921875" lon="20.094554722309112548828125">
        <ele>2010.5999755859375</ele>
        <time>2026-06-19T12:45:21.000Z</time>
        <extensions>
          <ns3:TrackPointExtension>
            <ns3:atemp>26.0</ns3:atemp>
          </ns3:TrackPointExtension>
        </extensions>
      </trkpt>
      <trkpt lat="42.56313825957477092742919921875" lon="20.094554722309112548828125">
        <ele>2010.5999755859375</ele>
        <time>2026-06-19T12:45:22.000Z</time>
        <extensions>
          <ns3:TrackPointExtension>
            <ns3:atemp>26.0</ns3:atemp>
          </ns3:TrackPointExtension>
        </extensions>
      </trkpt>
      <trkpt lat="42.56313825957477092742919921875" lon="20.094554722309112548828125">
        <ele>2010.5999755859375</ele>
        <time>2026-06-19T12:45:23.000Z</time>
        <extensions>
          <ns3:TrackPointExtension>
            <ns3:atemp>26.0</ns3:atemp>
          </ns3:TrackPointExtension>
        </extensions>
      </trkpt>
      <trkpt lat="42.56313825957477092742919921875" lon="20.094554722309112548828125">
        <ele>2010.5999755859375</ele>
        <time>2026-06-19T12:45:24.000Z</time>
        <extensions>
          <ns3:TrackPointExtension>
            <ns3:atemp>26.0</ns3:atemp>
          </ns3:TrackPointExtension>
        </extensions>
      </trkpt>
      <trkpt lat="42.56313825957477092742919921875" lon="20.094554722309112548828125">
        <ele>2010.5999755859375</ele>
        <time>2026-06-19T12:45:25.000Z</time>
        <extensions>
          <ns3:TrackPointExtension>
            <ns3:atemp>26.0</ns3:atemp>
          </ns3:TrackPointExtension>
        </extensions>
      </trkpt>
      <trkpt lat="42.56313825957477092742919921875" lon="20.094554722309112548828125">
        <ele>2010.5999755859375</ele>
        <time>2026-06-19T12:45:26.000Z</time>
        <extensions>
          <ns3:TrackPointExtension>
            <ns3:atemp>26.0</ns3:atemp>
          </ns3:TrackPointExtension>
        </extensions>
      </trkpt>
      <trkpt lat="42.56313825957477092742919921875" lon="20.094554722309112548828125">
        <ele>2010.4000244140625</ele>
        <time>2026-06-19T12:45:27.000Z</time>
        <extensions>
          <ns3:TrackPointExtension>
            <ns3:atemp>26.0</ns3:atemp>
          </ns3:TrackPointExtension>
        </extensions>
      </trkpt>
      <trkpt lat="42.56313825957477092742919921875" lon="20.094554722309112548828125">
        <ele>2010.4000244140625</ele>
        <time>2026-06-19T12:45:28.000Z</time>
        <extensions>
          <ns3:TrackPointExtension>
            <ns3:atemp>26.0</ns3:atemp>
          </ns3:TrackPointExtension>
        </extensions>
      </trkpt>
      <trkpt lat="42.56313825957477092742919921875" lon="20.094554722309112548828125">
        <ele>2010.4000244140625</ele>
        <time>2026-06-19T12:45:29.000Z</time>
        <extensions>
          <ns3:TrackPointExtension>
            <ns3:atemp>26.0</ns3:atemp>
          </ns3:TrackPointExtension>
        </extensions>
      </trkpt>
      <trkpt lat="42.56313825957477092742919921875" lon="20.094554722309112548828125">
        <ele>2010.4000244140625</ele>
        <time>2026-06-19T12:45:30.000Z</time>
        <extensions>
          <ns3:TrackPointExtension>
            <ns3:atemp>26.0</ns3:atemp>
          </ns3:TrackPointExtension>
        </extensions>
      </trkpt>
      <trkpt lat="42.56313825957477092742919921875" lon="20.094554722309112548828125">
        <ele>2010.4000244140625</ele>
        <time>2026-06-19T12:45:31.000Z</time>
        <extensions>
          <ns3:TrackPointExtension>
            <ns3:atemp>26.0</ns3:atemp>
          </ns3:TrackPointExtension>
        </extensions>
      </trkpt>
      <trkpt lat="42.56313825957477092742919921875" lon="20.094554722309112548828125">
        <ele>2010.4000244140625</ele>
        <time>2026-06-19T12:45:32.000Z</time>
        <extensions>
          <ns3:TrackPointExtension>
            <ns3:atemp>26.0</ns3:atemp>
          </ns3:TrackPointExtension>
        </extensions>
      </trkpt>
      <trkpt lat="42.56313825957477092742919921875" lon="20.094554722309112548828125">
        <ele>2010.4000244140625</ele>
        <time>2026-06-19T12:45:33.000Z</time>
        <extensions>
          <ns3:TrackPointExtension>
            <ns3:atemp>26.0</ns3:atemp>
          </ns3:TrackPointExtension>
        </extensions>
      </trkpt>
      <trkpt lat="42.56313825957477092742919921875" lon="20.094554722309112548828125">
        <ele>2010.4000244140625</ele>
        <time>2026-06-19T12:45:34.000Z</time>
        <extensions>
          <ns3:TrackPointExtension>
            <ns3:atemp>26.0</ns3:atemp>
          </ns3:TrackPointExtension>
        </extensions>
      </trkpt>
      <trkpt lat="42.56313825957477092742919921875" lon="20.094554722309112548828125">
        <ele>2010.4000244140625</ele>
        <time>2026-06-19T12:45:35.000Z</time>
        <extensions>
          <ns3:TrackPointExtension>
            <ns3:atemp>26.0</ns3:atemp>
          </ns3:TrackPointExtension>
        </extensions>
      </trkpt>
      <trkpt lat="42.56313825957477092742919921875" lon="20.094554722309112548828125">
        <ele>2010.4000244140625</ele>
        <time>2026-06-19T12:45:36.000Z</time>
        <extensions>
          <ns3:TrackPointExtension>
            <ns3:atemp>26.0</ns3:atemp>
          </ns3:TrackPointExtension>
        </extensions>
      </trkpt>
      <trkpt lat="42.56313825957477092742919921875" lon="20.094554722309112548828125">
        <ele>2010.4000244140625</ele>
        <time>2026-06-19T12:45:37.000Z</time>
        <extensions>
          <ns3:TrackPointExtension>
            <ns3:atemp>26.0</ns3:atemp>
          </ns3:TrackPointExtension>
        </extensions>
      </trkpt>
      <trkpt lat="42.56313825957477092742919921875" lon="20.094554722309112548828125">
        <ele>2010.4000244140625</ele>
        <time>2026-06-19T12:45:38.000Z</time>
        <extensions>
          <ns3:TrackPointExtension>
            <ns3:atemp>26.0</ns3:atemp>
          </ns3:TrackPointExtension>
        </extensions>
      </trkpt>
      <trkpt lat="42.56313825957477092742919921875" lon="20.094554722309112548828125">
        <ele>2010.4000244140625</ele>
        <time>2026-06-19T12:45:39.000Z</time>
        <extensions>
          <ns3:TrackPointExtension>
            <ns3:atemp>26.0</ns3:atemp>
          </ns3:TrackPointExtension>
        </extensions>
      </trkpt>
      <trkpt lat="42.56313825957477092742919921875" lon="20.094554722309112548828125">
        <ele>2010.4000244140625</ele>
        <time>2026-06-19T12:45:40.000Z</time>
        <extensions>
          <ns3:TrackPointExtension>
            <ns3:atemp>26.0</ns3:atemp>
          </ns3:TrackPointExtension>
        </extensions>
      </trkpt>
      <trkpt lat="42.56313825957477092742919921875" lon="20.094554722309112548828125">
        <ele>2010.4000244140625</ele>
        <time>2026-06-19T12:45:41.000Z</time>
        <extensions>
          <ns3:TrackPointExtension>
            <ns3:atemp>26.0</ns3:atemp>
          </ns3:TrackPointExtension>
        </extensions>
      </trkpt>
      <trkpt lat="42.56313825957477092742919921875" lon="20.094554722309112548828125">
        <ele>2010.4000244140625</ele>
        <time>2026-06-19T12:45:42.000Z</time>
        <extensions>
          <ns3:TrackPointExtension>
            <ns3:atemp>26.0</ns3:atemp>
          </ns3:TrackPointExtension>
        </extensions>
      </trkpt>
      <trkpt lat="42.56313825957477092742919921875" lon="20.094554722309112548828125">
        <ele>2010.4000244140625</ele>
        <time>2026-06-19T12:45:43.000Z</time>
        <extensions>
          <ns3:TrackPointExtension>
            <ns3:atemp>26.0</ns3:atemp>
          </ns3:TrackPointExtension>
        </extensions>
      </trkpt>
      <trkpt lat="42.56313825957477092742919921875" lon="20.094554722309112548828125">
        <ele>2010.4000244140625</ele>
        <time>2026-06-19T12:45:44.000Z</time>
        <extensions>
          <ns3:TrackPointExtension>
            <ns3:atemp>26.0</ns3:atemp>
          </ns3:TrackPointExtension>
        </extensions>
      </trkpt>
      <trkpt lat="42.56313825957477092742919921875" lon="20.094554722309112548828125">
        <ele>2010.4000244140625</ele>
        <time>2026-06-19T12:45:45.000Z</time>
        <extensions>
          <ns3:TrackPointExtension>
            <ns3:atemp>26.0</ns3:atemp>
          </ns3:TrackPointExtension>
        </extensions>
      </trkpt>
      <trkpt lat="42.56313825957477092742919921875" lon="20.094554722309112548828125">
        <ele>2010.4000244140625</ele>
        <time>2026-06-19T12:45:46.000Z</time>
        <extensions>
          <ns3:TrackPointExtension>
            <ns3:atemp>26.0</ns3:atemp>
          </ns3:TrackPointExtension>
        </extensions>
      </trkpt>
      <trkpt lat="42.56313825957477092742919921875" lon="20.094554722309112548828125">
        <ele>2010.4000244140625</ele>
        <time>2026-06-19T12:45:47.000Z</time>
        <extensions>
          <ns3:TrackPointExtension>
            <ns3:atemp>26.0</ns3:atemp>
          </ns3:TrackPointExtension>
        </extensions>
      </trkpt>
      <trkpt lat="42.56313825957477092742919921875" lon="20.094554722309112548828125">
        <ele>2010.4000244140625</ele>
        <time>2026-06-19T12:45:48.000Z</time>
        <extensions>
          <ns3:TrackPointExtension>
            <ns3:atemp>26.0</ns3:atemp>
          </ns3:TrackPointExtension>
        </extensions>
      </trkpt>
      <trkpt lat="42.56313825957477092742919921875" lon="20.094554722309112548828125">
        <ele>2010.4000244140625</ele>
        <time>2026-06-19T12:45:49.000Z</time>
        <extensions>
          <ns3:TrackPointExtension>
            <ns3:atemp>26.0</ns3:atemp>
          </ns3:TrackPointExtension>
        </extensions>
      </trkpt>
      <trkpt lat="42.56313825957477092742919921875" lon="20.094554722309112548828125">
        <ele>2010.4000244140625</ele>
        <time>2026-06-19T12:45:50.000Z</time>
        <extensions>
          <ns3:TrackPointExtension>
            <ns3:atemp>26.0</ns3:atemp>
          </ns3:TrackPointExtension>
        </extensions>
      </trkpt>
      <trkpt lat="42.56313825957477092742919921875" lon="20.094554722309112548828125">
        <ele>2010.4000244140625</ele>
        <time>2026-06-19T12:45:51.000Z</time>
        <extensions>
          <ns3:TrackPointExtension>
            <ns3:atemp>26.0</ns3:atemp>
          </ns3:TrackPointExtension>
        </extensions>
      </trkpt>
      <trkpt lat="42.56313825957477092742919921875" lon="20.094554722309112548828125">
        <ele>2010.4000244140625</ele>
        <time>2026-06-19T12:45:52.000Z</time>
        <extensions>
          <ns3:TrackPointExtension>
            <ns3:atemp>26.0</ns3:atemp>
          </ns3:TrackPointExtension>
        </extensions>
      </trkpt>
      <trkpt lat="42.56313825957477092742919921875" lon="20.094554722309112548828125">
        <ele>2010.4000244140625</ele>
        <time>2026-06-19T12:45:53.000Z</time>
        <extensions>
          <ns3:TrackPointExtension>
            <ns3:atemp>26.0</ns3:atemp>
          </ns3:TrackPointExtension>
        </extensions>
      </trkpt>
      <trkpt lat="42.56313825957477092742919921875" lon="20.094554722309112548828125">
        <ele>2010.4000244140625</ele>
        <time>2026-06-19T12:45:54.000Z</time>
        <extensions>
          <ns3:TrackPointExtension>
            <ns3:atemp>26.0</ns3:atemp>
          </ns3:TrackPointExtension>
        </extensions>
      </trkpt>
      <trkpt lat="42.56313825957477092742919921875" lon="20.094554722309112548828125">
        <ele>2010.4000244140625</ele>
        <time>2026-06-19T12:45:55.000Z</time>
        <extensions>
          <ns3:TrackPointExtension>
            <ns3:atemp>26.0</ns3:atemp>
          </ns3:TrackPointExtension>
        </extensions>
      </trkpt>
      <trkpt lat="42.56313825957477092742919921875" lon="20.094554722309112548828125">
        <ele>2010.4000244140625</ele>
        <time>2026-06-19T12:45:56.000Z</time>
        <extensions>
          <ns3:TrackPointExtension>
            <ns3:atemp>26.0</ns3:atemp>
          </ns3:TrackPointExtension>
        </extensions>
      </trkpt>
      <trkpt lat="42.56313825957477092742919921875" lon="20.094554722309112548828125">
        <ele>2010.4000244140625</ele>
        <time>2026-06-19T12:45:57.000Z</time>
        <extensions>
          <ns3:TrackPointExtension>
            <ns3:atemp>26.0</ns3:atemp>
          </ns3:TrackPointExtension>
        </extensions>
      </trkpt>
      <trkpt lat="42.56313825957477092742919921875" lon="20.094554722309112548828125">
        <ele>2010.4000244140625</ele>
        <time>2026-06-19T12:45:58.000Z</time>
        <extensions>
          <ns3:TrackPointExtension>
            <ns3:atemp>26.0</ns3:atemp>
          </ns3:TrackPointExtension>
        </extensions>
      </trkpt>
      <trkpt lat="42.56313825957477092742919921875" lon="20.094554722309112548828125">
        <ele>2010.4000244140625</ele>
        <time>2026-06-19T12:45:59.000Z</time>
        <extensions>
          <ns3:TrackPointExtension>
            <ns3:atemp>26.0</ns3:atemp>
          </ns3:TrackPointExtension>
        </extensions>
      </trkpt>
      <trkpt lat="42.56313825957477092742919921875" lon="20.094554722309112548828125">
        <ele>2010.4000244140625</ele>
        <time>2026-06-19T12:46:00.000Z</time>
        <extensions>
          <ns3:TrackPointExtension>
            <ns3:atemp>26.0</ns3:atemp>
          </ns3:TrackPointExtension>
        </extensions>
      </trkpt>
      <trkpt lat="42.56313825957477092742919921875" lon="20.094554722309112548828125">
        <ele>2010.4000244140625</ele>
        <time>2026-06-19T12:46:01.000Z</time>
        <extensions>
          <ns3:TrackPointExtension>
            <ns3:atemp>26.0</ns3:atemp>
          </ns3:TrackPointExtension>
        </extensions>
      </trkpt>
      <trkpt lat="42.56313825957477092742919921875" lon="20.094554722309112548828125">
        <ele>2010.4000244140625</ele>
        <time>2026-06-19T12:46:02.000Z</time>
        <extensions>
          <ns3:TrackPointExtension>
            <ns3:atemp>26.0</ns3:atemp>
          </ns3:TrackPointExtension>
        </extensions>
      </trkpt>
      <trkpt lat="42.56313825957477092742919921875" lon="20.094554722309112548828125">
        <ele>2010.4000244140625</ele>
        <time>2026-06-19T12:46:03.000Z</time>
        <extensions>
          <ns3:TrackPointExtension>
            <ns3:atemp>26.0</ns3:atemp>
          </ns3:TrackPointExtension>
        </extensions>
      </trkpt>
      <trkpt lat="42.56313825957477092742919921875" lon="20.094554722309112548828125">
        <ele>2010.4000244140625</ele>
        <time>2026-06-19T12:46:04.000Z</time>
        <extensions>
          <ns3:TrackPointExtension>
            <ns3:atemp>26.0</ns3:atemp>
          </ns3:TrackPointExtension>
        </extensions>
      </trkpt>
      <trkpt lat="42.56313825957477092742919921875" lon="20.094554722309112548828125">
        <ele>2010.4000244140625</ele>
        <time>2026-06-19T12:46:05.000Z</time>
        <extensions>
          <ns3:TrackPointExtension>
            <ns3:atemp>26.0</ns3:atemp>
          </ns3:TrackPointExtension>
        </extensions>
      </trkpt>
      <trkpt lat="42.56313825957477092742919921875" lon="20.094554722309112548828125">
        <ele>2010.4000244140625</ele>
        <time>2026-06-19T12:46:06.000Z</time>
        <extensions>
          <ns3:TrackPointExtension>
            <ns3:atemp>26.0</ns3:atemp>
          </ns3:TrackPointExtension>
        </extensions>
      </trkpt>
      <trkpt lat="42.56313825957477092742919921875" lon="20.094554722309112548828125">
        <ele>2010.4000244140625</ele>
        <time>2026-06-19T12:46:07.000Z</time>
        <extensions>
          <ns3:TrackPointExtension>
            <ns3:atemp>26.0</ns3:atemp>
          </ns3:TrackPointExtension>
        </extensions>
      </trkpt>
      <trkpt lat="42.56313825957477092742919921875" lon="20.094554722309112548828125">
        <ele>2010.4000244140625</ele>
        <time>2026-06-19T12:46:08.000Z</time>
        <extensions>
          <ns3:TrackPointExtension>
            <ns3:atemp>26.0</ns3:atemp>
          </ns3:TrackPointExtension>
        </extensions>
      </trkpt>
      <trkpt lat="42.56313825957477092742919921875" lon="20.094554722309112548828125">
        <ele>2010.4000244140625</ele>
        <time>2026-06-19T12:46:09.000Z</time>
        <extensions>
          <ns3:TrackPointExtension>
            <ns3:atemp>26.0</ns3:atemp>
          </ns3:TrackPointExtension>
        </extensions>
      </trkpt>
      <trkpt lat="42.56313825957477092742919921875" lon="20.094554722309112548828125">
        <ele>2010.4000244140625</ele>
        <time>2026-06-19T12:46:10.000Z</time>
        <extensions>
          <ns3:TrackPointExtension>
            <ns3:atemp>26.0</ns3:atemp>
          </ns3:TrackPointExtension>
        </extensions>
      </trkpt>
      <trkpt lat="42.56313825957477092742919921875" lon="20.094554722309112548828125">
        <ele>2010.4000244140625</ele>
        <time>2026-06-19T12:46:11.000Z</time>
        <extensions>
          <ns3:TrackPointExtension>
            <ns3:atemp>26.0</ns3:atemp>
          </ns3:TrackPointExtension>
        </extensions>
      </trkpt>
      <trkpt lat="42.56313825957477092742919921875" lon="20.094554722309112548828125">
        <ele>2010.4000244140625</ele>
        <time>2026-06-19T12:46:12.000Z</time>
        <extensions>
          <ns3:TrackPointExtension>
            <ns3:atemp>26.0</ns3:atemp>
          </ns3:TrackPointExtension>
        </extensions>
      </trkpt>
      <trkpt lat="42.56313825957477092742919921875" lon="20.094554722309112548828125">
        <ele>2010.4000244140625</ele>
        <time>2026-06-19T12:46:13.000Z</time>
        <extensions>
          <ns3:TrackPointExtension>
            <ns3:atemp>26.0</ns3:atemp>
          </ns3:TrackPointExtension>
        </extensions>
      </trkpt>
      <trkpt lat="42.56313825957477092742919921875" lon="20.094554722309112548828125">
        <ele>2010.4000244140625</ele>
        <time>2026-06-19T12:46:14.000Z</time>
        <extensions>
          <ns3:TrackPointExtension>
            <ns3:atemp>26.0</ns3:atemp>
          </ns3:TrackPointExtension>
        </extensions>
      </trkpt>
      <trkpt lat="42.56313825957477092742919921875" lon="20.094554722309112548828125">
        <ele>2010.4000244140625</ele>
        <time>2026-06-19T12:46:15.000Z</time>
        <extensions>
          <ns3:TrackPointExtension>
            <ns3:atemp>26.0</ns3:atemp>
          </ns3:TrackPointExtension>
        </extensions>
      </trkpt>
      <trkpt lat="42.56313825957477092742919921875" lon="20.094554722309112548828125">
        <ele>2010.4000244140625</ele>
        <time>2026-06-19T12:46:16.000Z</time>
        <extensions>
          <ns3:TrackPointExtension>
            <ns3:atemp>26.0</ns3:atemp>
          </ns3:TrackPointExtension>
        </extensions>
      </trkpt>
      <trkpt lat="42.56313825957477092742919921875" lon="20.094554722309112548828125">
        <ele>2010.4000244140625</ele>
        <time>2026-06-19T12:46:17.000Z</time>
        <extensions>
          <ns3:TrackPointExtension>
            <ns3:atemp>26.0</ns3:atemp>
          </ns3:TrackPointExtension>
        </extensions>
      </trkpt>
      <trkpt lat="42.56313825957477092742919921875" lon="20.094554722309112548828125">
        <ele>2010.4000244140625</ele>
        <time>2026-06-19T12:46:18.000Z</time>
        <extensions>
          <ns3:TrackPointExtension>
            <ns3:atemp>26.0</ns3:atemp>
          </ns3:TrackPointExtension>
        </extensions>
      </trkpt>
      <trkpt lat="42.56313825957477092742919921875" lon="20.094554722309112548828125">
        <ele>2010.4000244140625</ele>
        <time>2026-06-19T12:46:19.000Z</time>
        <extensions>
          <ns3:TrackPointExtension>
            <ns3:atemp>26.0</ns3:atemp>
          </ns3:TrackPointExtension>
        </extensions>
      </trkpt>
      <trkpt lat="42.56313825957477092742919921875" lon="20.094554722309112548828125">
        <ele>2010.4000244140625</ele>
        <time>2026-06-19T12:46:20.000Z</time>
        <extensions>
          <ns3:TrackPointExtension>
            <ns3:atemp>26.0</ns3:atemp>
          </ns3:TrackPointExtension>
        </extensions>
      </trkpt>
      <trkpt lat="42.56313825957477092742919921875" lon="20.094554722309112548828125">
        <ele>2010.4000244140625</ele>
        <time>2026-06-19T12:46:21.000Z</time>
        <extensions>
          <ns3:TrackPointExtension>
            <ns3:atemp>26.0</ns3:atemp>
          </ns3:TrackPointExtension>
        </extensions>
      </trkpt>
      <trkpt lat="42.56313825957477092742919921875" lon="20.094554722309112548828125">
        <ele>2010.4000244140625</ele>
        <time>2026-06-19T12:46:22.000Z</time>
        <extensions>
          <ns3:TrackPointExtension>
            <ns3:atemp>26.0</ns3:atemp>
          </ns3:TrackPointExtension>
        </extensions>
      </trkpt>
      <trkpt lat="42.56313825957477092742919921875" lon="20.094554722309112548828125">
        <ele>2010.4000244140625</ele>
        <time>2026-06-19T12:46:23.000Z</time>
        <extensions>
          <ns3:TrackPointExtension>
            <ns3:atemp>26.0</ns3:atemp>
          </ns3:TrackPointExtension>
        </extensions>
      </trkpt>
      <trkpt lat="42.56313825957477092742919921875" lon="20.094554722309112548828125">
        <ele>2010.4000244140625</ele>
        <time>2026-06-19T12:46:24.000Z</time>
        <extensions>
          <ns3:TrackPointExtension>
            <ns3:atemp>26.0</ns3:atemp>
          </ns3:TrackPointExtension>
        </extensions>
      </trkpt>
      <trkpt lat="42.56313825957477092742919921875" lon="20.094554722309112548828125">
        <ele>2010.4000244140625</ele>
        <time>2026-06-19T12:46:25.000Z</time>
        <extensions>
          <ns3:TrackPointExtension>
            <ns3:atemp>26.0</ns3:atemp>
          </ns3:TrackPointExtension>
        </extensions>
      </trkpt>
      <trkpt lat="42.56313825957477092742919921875" lon="20.094554722309112548828125">
        <ele>2010.4000244140625</ele>
        <time>2026-06-19T12:46:26.000Z</time>
        <extensions>
          <ns3:TrackPointExtension>
            <ns3:atemp>26.0</ns3:atemp>
          </ns3:TrackPointExtension>
        </extensions>
      </trkpt>
      <trkpt lat="42.56313825957477092742919921875" lon="20.094554722309112548828125">
        <ele>2010.4000244140625</ele>
        <time>2026-06-19T12:46:27.000Z</time>
        <extensions>
          <ns3:TrackPointExtension>
            <ns3:atemp>26.0</ns3:atemp>
          </ns3:TrackPointExtension>
        </extensions>
      </trkpt>
      <trkpt lat="42.56313825957477092742919921875" lon="20.094554722309112548828125">
        <ele>2010.4000244140625</ele>
        <time>2026-06-19T12:46:28.000Z</time>
        <extensions>
          <ns3:TrackPointExtension>
            <ns3:atemp>26.0</ns3:atemp>
          </ns3:TrackPointExtension>
        </extensions>
      </trkpt>
      <trkpt lat="42.56313825957477092742919921875" lon="20.094554722309112548828125">
        <ele>2010.4000244140625</ele>
        <time>2026-06-19T12:46:29.000Z</time>
        <extensions>
          <ns3:TrackPointExtension>
            <ns3:atemp>26.0</ns3:atemp>
          </ns3:TrackPointExtension>
        </extensions>
      </trkpt>
      <trkpt lat="42.56313825957477092742919921875" lon="20.094554722309112548828125">
        <ele>2010.4000244140625</ele>
        <time>2026-06-19T12:46:30.000Z</time>
        <extensions>
          <ns3:TrackPointExtension>
            <ns3:atemp>26.0</ns3:atemp>
          </ns3:TrackPointExtension>
        </extensions>
      </trkpt>
      <trkpt lat="42.56313825957477092742919921875" lon="20.094554722309112548828125">
        <ele>2010.4000244140625</ele>
        <time>2026-06-19T12:46:31.000Z</time>
        <extensions>
          <ns3:TrackPointExtension>
            <ns3:atemp>26.0</ns3:atemp>
          </ns3:TrackPointExtension>
        </extensions>
      </trkpt>
      <trkpt lat="42.56313825957477092742919921875" lon="20.094554722309112548828125">
        <ele>2010.4000244140625</ele>
        <time>2026-06-19T12:46:32.000Z</time>
        <extensions>
          <ns3:TrackPointExtension>
            <ns3:atemp>26.0</ns3:atemp>
          </ns3:TrackPointExtension>
        </extensions>
      </trkpt>
      <trkpt lat="42.56313825957477092742919921875" lon="20.094554722309112548828125">
        <ele>2010.4000244140625</ele>
        <time>2026-06-19T12:46:33.000Z</time>
        <extensions>
          <ns3:TrackPointExtension>
            <ns3:atemp>26.0</ns3:atemp>
          </ns3:TrackPointExtension>
        </extensions>
      </trkpt>
      <trkpt lat="42.56313825957477092742919921875" lon="20.094554722309112548828125">
        <ele>2010.4000244140625</ele>
        <time>2026-06-19T12:46:34.000Z</time>
        <extensions>
          <ns3:TrackPointExtension>
            <ns3:atemp>26.0</ns3:atemp>
          </ns3:TrackPointExtension>
        </extensions>
      </trkpt>
      <trkpt lat="42.56313825957477092742919921875" lon="20.094554722309112548828125">
        <ele>2010.4000244140625</ele>
        <time>2026-06-19T12:46:35.000Z</time>
        <extensions>
          <ns3:TrackPointExtension>
            <ns3:atemp>26.0</ns3:atemp>
          </ns3:TrackPointExtension>
        </extensions>
      </trkpt>
      <trkpt lat="42.56313825957477092742919921875" lon="20.094554722309112548828125">
        <ele>2010.4000244140625</ele>
        <time>2026-06-19T12:46:36.000Z</time>
        <extensions>
          <ns3:TrackPointExtension>
            <ns3:atemp>26.0</ns3:atemp>
          </ns3:TrackPointExtension>
        </extensions>
      </trkpt>
      <trkpt lat="42.56313825957477092742919921875" lon="20.094554722309112548828125">
        <ele>2010.4000244140625</ele>
        <time>2026-06-19T12:46:37.000Z</time>
        <extensions>
          <ns3:TrackPointExtension>
            <ns3:atemp>26.0</ns3:atemp>
          </ns3:TrackPointExtension>
        </extensions>
      </trkpt>
      <trkpt lat="42.56313825957477092742919921875" lon="20.094554722309112548828125">
        <ele>2010.4000244140625</ele>
        <time>2026-06-19T12:46:38.000Z</time>
        <extensions>
          <ns3:TrackPointExtension>
            <ns3:atemp>26.0</ns3:atemp>
          </ns3:TrackPointExtension>
        </extensions>
      </trkpt>
      <trkpt lat="42.56313825957477092742919921875" lon="20.094554722309112548828125">
        <ele>2010.4000244140625</ele>
        <time>2026-06-19T12:46:39.000Z</time>
        <extensions>
          <ns3:TrackPointExtension>
            <ns3:atemp>26.0</ns3:atemp>
          </ns3:TrackPointExtension>
        </extensions>
      </trkpt>
      <trkpt lat="42.56313825957477092742919921875" lon="20.094554722309112548828125">
        <ele>2010.4000244140625</ele>
        <time>2026-06-19T12:46:40.000Z</time>
        <extensions>
          <ns3:TrackPointExtension>
            <ns3:atemp>26.0</ns3:atemp>
          </ns3:TrackPointExtension>
        </extensions>
      </trkpt>
      <trkpt lat="42.56313825957477092742919921875" lon="20.094554722309112548828125">
        <ele>2010.4000244140625</ele>
        <time>2026-06-19T12:46:41.000Z</time>
        <extensions>
          <ns3:TrackPointExtension>
            <ns3:atemp>26.0</ns3:atemp>
          </ns3:TrackPointExtension>
        </extensions>
      </trkpt>
      <trkpt lat="42.56313825957477092742919921875" lon="20.094554722309112548828125">
        <ele>2010.4000244140625</ele>
        <time>2026-06-19T12:46:42.000Z</time>
        <extensions>
          <ns3:TrackPointExtension>
            <ns3:atemp>26.0</ns3:atemp>
          </ns3:TrackPointExtension>
        </extensions>
      </trkpt>
      <trkpt lat="42.56313825957477092742919921875" lon="20.094554722309112548828125">
        <ele>2010.4000244140625</ele>
        <time>2026-06-19T12:46:43.000Z</time>
        <extensions>
          <ns3:TrackPointExtension>
            <ns3:atemp>26.0</ns3:atemp>
          </ns3:TrackPointExtension>
        </extensions>
      </trkpt>
      <trkpt lat="42.56313825957477092742919921875" lon="20.094554722309112548828125">
        <ele>2010.4000244140625</ele>
        <time>2026-06-19T12:46:44.000Z</time>
        <extensions>
          <ns3:TrackPointExtension>
            <ns3:atemp>26.0</ns3:atemp>
          </ns3:TrackPointExtension>
        </extensions>
      </trkpt>
      <trkpt lat="42.56313825957477092742919921875" lon="20.094554722309112548828125">
        <ele>2010.4000244140625</ele>
        <time>2026-06-19T12:46:45.000Z</time>
        <extensions>
          <ns3:TrackPointExtension>
            <ns3:atemp>26.0</ns3:atemp>
          </ns3:TrackPointExtension>
        </extensions>
      </trkpt>
      <trkpt lat="42.56313825957477092742919921875" lon="20.094554722309112548828125">
        <ele>2010.4000244140625</ele>
        <time>2026-06-19T12:46:46.000Z</time>
        <extensions>
          <ns3:TrackPointExtension>
            <ns3:atemp>26.0</ns3:atemp>
          </ns3:TrackPointExtension>
        </extensions>
      </trkpt>
      <trkpt lat="42.56313825957477092742919921875" lon="20.094554722309112548828125">
        <ele>2010.4000244140625</ele>
        <time>2026-06-19T12:46:47.000Z</time>
        <extensions>
          <ns3:TrackPointExtension>
            <ns3:atemp>26.0</ns3:atemp>
          </ns3:TrackPointExtension>
        </extensions>
      </trkpt>
      <trkpt lat="42.56313825957477092742919921875" lon="20.094554722309112548828125">
        <ele>2010.4000244140625</ele>
        <time>2026-06-19T12:46:48.000Z</time>
        <extensions>
          <ns3:TrackPointExtension>
            <ns3:atemp>26.0</ns3:atemp>
          </ns3:TrackPointExtension>
        </extensions>
      </trkpt>
      <trkpt lat="42.56313825957477092742919921875" lon="20.094554722309112548828125">
        <ele>2010.4000244140625</ele>
        <time>2026-06-19T12:46:49.000Z</time>
        <extensions>
          <ns3:TrackPointExtension>
            <ns3:atemp>26.0</ns3:atemp>
          </ns3:TrackPointExtension>
        </extensions>
      </trkpt>
      <trkpt lat="42.56313825957477092742919921875" lon="20.094554722309112548828125">
        <ele>2010.4000244140625</ele>
        <time>2026-06-19T12:46:50.000Z</time>
        <extensions>
          <ns3:TrackPointExtension>
            <ns3:atemp>26.0</ns3:atemp>
          </ns3:TrackPointExtension>
        </extensions>
      </trkpt>
      <trkpt lat="42.56313825957477092742919921875" lon="20.094554722309112548828125">
        <ele>2010.4000244140625</ele>
        <time>2026-06-19T12:46:51.000Z</time>
        <extensions>
          <ns3:TrackPointExtension>
            <ns3:atemp>26.0</ns3:atemp>
          </ns3:TrackPointExtension>
        </extensions>
      </trkpt>
      <trkpt lat="42.56313825957477092742919921875" lon="20.094554722309112548828125">
        <ele>2010.4000244140625</ele>
        <time>2026-06-19T12:46:52.000Z</time>
        <extensions>
          <ns3:TrackPointExtension>
            <ns3:atemp>26.0</ns3:atemp>
          </ns3:TrackPointExtension>
        </extensions>
      </trkpt>
      <trkpt lat="42.56313825957477092742919921875" lon="20.094554722309112548828125">
        <ele>2010.4000244140625</ele>
        <time>2026-06-19T12:46:53.000Z</time>
        <extensions>
          <ns3:TrackPointExtension>
            <ns3:atemp>26.0</ns3:atemp>
          </ns3:TrackPointExtension>
        </extensions>
      </trkpt>
      <trkpt lat="42.56313825957477092742919921875" lon="20.094554722309112548828125">
        <ele>2010.4000244140625</ele>
        <time>2026-06-19T12:46:54.000Z</time>
        <extensions>
          <ns3:TrackPointExtension>
            <ns3:atemp>26.0</ns3:atemp>
          </ns3:TrackPointExtension>
        </extensions>
      </trkpt>
      <trkpt lat="42.56313825957477092742919921875" lon="20.094554722309112548828125">
        <ele>2010.4000244140625</ele>
        <time>2026-06-19T12:46:55.000Z</time>
        <extensions>
          <ns3:TrackPointExtension>
            <ns3:atemp>26.0</ns3:atemp>
          </ns3:TrackPointExtension>
        </extensions>
      </trkpt>
      <trkpt lat="42.56313825957477092742919921875" lon="20.094554722309112548828125">
        <ele>2010.4000244140625</ele>
        <time>2026-06-19T12:46:56.000Z</time>
        <extensions>
          <ns3:TrackPointExtension>
            <ns3:atemp>26.0</ns3:atemp>
          </ns3:TrackPointExtension>
        </extensions>
      </trkpt>
      <trkpt lat="42.56313825957477092742919921875" lon="20.094554722309112548828125">
        <ele>2010.4000244140625</ele>
        <time>2026-06-19T12:46:57.000Z</time>
        <extensions>
          <ns3:TrackPointExtension>
            <ns3:atemp>26.0</ns3:atemp>
          </ns3:TrackPointExtension>
        </extensions>
      </trkpt>
      <trkpt lat="42.56313825957477092742919921875" lon="20.094554722309112548828125">
        <ele>2010.4000244140625</ele>
        <time>2026-06-19T12:46:58.000Z</time>
        <extensions>
          <ns3:TrackPointExtension>
            <ns3:atemp>26.0</ns3:atemp>
          </ns3:TrackPointExtension>
        </extensions>
      </trkpt>
      <trkpt lat="42.56313825957477092742919921875" lon="20.094554722309112548828125">
        <ele>2010.4000244140625</ele>
        <time>2026-06-19T12:46:59.000Z</time>
        <extensions>
          <ns3:TrackPointExtension>
            <ns3:atemp>26.0</ns3:atemp>
          </ns3:TrackPointExtension>
        </extensions>
      </trkpt>
      <trkpt lat="42.56313825957477092742919921875" lon="20.094554722309112548828125">
        <ele>2010.4000244140625</ele>
        <time>2026-06-19T12:47:00.000Z</time>
        <extensions>
          <ns3:TrackPointExtension>
            <ns3:atemp>26.0</ns3:atemp>
          </ns3:TrackPointExtension>
        </extensions>
      </trkpt>
      <trkpt lat="42.56313825957477092742919921875" lon="20.094554722309112548828125">
        <ele>2010.4000244140625</ele>
        <time>2026-06-19T12:47:01.000Z</time>
        <extensions>
          <ns3:TrackPointExtension>
            <ns3:atemp>26.0</ns3:atemp>
          </ns3:TrackPointExtension>
        </extensions>
      </trkpt>
      <trkpt lat="42.56313825957477092742919921875" lon="20.094554722309112548828125">
        <ele>2010.4000244140625</ele>
        <time>2026-06-19T12:47:02.000Z</time>
        <extensions>
          <ns3:TrackPointExtension>
            <ns3:atemp>26.0</ns3:atemp>
          </ns3:TrackPointExtension>
        </extensions>
      </trkpt>
      <trkpt lat="42.56313825957477092742919921875" lon="20.094554722309112548828125">
        <ele>2010.4000244140625</ele>
        <time>2026-06-19T12:47:03.000Z</time>
        <extensions>
          <ns3:TrackPointExtension>
            <ns3:atemp>26.0</ns3:atemp>
          </ns3:TrackPointExtension>
        </extensions>
      </trkpt>
      <trkpt lat="42.56313825957477092742919921875" lon="20.094554722309112548828125">
        <ele>2010.4000244140625</ele>
        <time>2026-06-19T12:47:04.000Z</time>
        <extensions>
          <ns3:TrackPointExtension>
            <ns3:atemp>26.0</ns3:atemp>
          </ns3:TrackPointExtension>
        </extensions>
      </trkpt>
      <trkpt lat="42.56313825957477092742919921875" lon="20.094554722309112548828125">
        <ele>2010.4000244140625</ele>
        <time>2026-06-19T12:47:05.000Z</time>
        <extensions>
          <ns3:TrackPointExtension>
            <ns3:atemp>26.0</ns3:atemp>
          </ns3:TrackPointExtension>
        </extensions>
      </trkpt>
      <trkpt lat="42.56313825957477092742919921875" lon="20.094554722309112548828125">
        <ele>2010.4000244140625</ele>
        <time>2026-06-19T12:47:06.000Z</time>
        <extensions>
          <ns3:TrackPointExtension>
            <ns3:atemp>26.0</ns3:atemp>
          </ns3:TrackPointExtension>
        </extensions>
      </trkpt>
      <trkpt lat="42.56313825957477092742919921875" lon="20.094554722309112548828125">
        <ele>2010.4000244140625</ele>
        <time>2026-06-19T12:47:07.000Z</time>
        <extensions>
          <ns3:TrackPointExtension>
            <ns3:atemp>26.0</ns3:atemp>
          </ns3:TrackPointExtension>
        </extensions>
      </trkpt>
      <trkpt lat="42.56313825957477092742919921875" lon="20.094554722309112548828125">
        <ele>2010.4000244140625</ele>
        <time>2026-06-19T12:47:08.000Z</time>
        <extensions>
          <ns3:TrackPointExtension>
            <ns3:atemp>26.0</ns3:atemp>
          </ns3:TrackPointExtension>
        </extensions>
      </trkpt>
      <trkpt lat="42.56313825957477092742919921875" lon="20.094554722309112548828125">
        <ele>2010.4000244140625</ele>
        <time>2026-06-19T12:47:09.000Z</time>
        <extensions>
          <ns3:TrackPointExtension>
            <ns3:atemp>26.0</ns3:atemp>
          </ns3:TrackPointExtension>
        </extensions>
      </trkpt>
      <trkpt lat="42.56313825957477092742919921875" lon="20.094554722309112548828125">
        <ele>2010.4000244140625</ele>
        <time>2026-06-19T12:47:10.000Z</time>
        <extensions>
          <ns3:TrackPointExtension>
            <ns3:atemp>26.0</ns3:atemp>
          </ns3:TrackPointExtension>
        </extensions>
      </trkpt>
      <trkpt lat="42.56313825957477092742919921875" lon="20.094554722309112548828125">
        <ele>2010.4000244140625</ele>
        <time>2026-06-19T12:47:11.000Z</time>
        <extensions>
          <ns3:TrackPointExtension>
            <ns3:atemp>26.0</ns3:atemp>
          </ns3:TrackPointExtension>
        </extensions>
      </trkpt>
      <trkpt lat="42.56313825957477092742919921875" lon="20.094554722309112548828125">
        <ele>2010.4000244140625</ele>
        <time>2026-06-19T12:47:12.000Z</time>
        <extensions>
          <ns3:TrackPointExtension>
            <ns3:atemp>26.0</ns3:atemp>
          </ns3:TrackPointExtension>
        </extensions>
      </trkpt>
      <trkpt lat="42.56313825957477092742919921875" lon="20.094554722309112548828125">
        <ele>2010.4000244140625</ele>
        <time>2026-06-19T12:47:13.000Z</time>
        <extensions>
          <ns3:TrackPointExtension>
            <ns3:atemp>26.0</ns3:atemp>
          </ns3:TrackPointExtension>
        </extensions>
      </trkpt>
      <trkpt lat="42.56313825957477092742919921875" lon="20.094554722309112548828125">
        <ele>2010.4000244140625</ele>
        <time>2026-06-19T12:47:14.000Z</time>
        <extensions>
          <ns3:TrackPointExtension>
            <ns3:atemp>26.0</ns3:atemp>
          </ns3:TrackPointExtension>
        </extensions>
      </trkpt>
      <trkpt lat="42.56313825957477092742919921875" lon="20.094554722309112548828125">
        <ele>2010.4000244140625</ele>
        <time>2026-06-19T12:47:15.000Z</time>
        <extensions>
          <ns3:TrackPointExtension>
            <ns3:atemp>26.0</ns3:atemp>
          </ns3:TrackPointExtension>
        </extensions>
      </trkpt>
      <trkpt lat="42.56313825957477092742919921875" lon="20.094554722309112548828125">
        <ele>2010.4000244140625</ele>
        <time>2026-06-19T12:47:16.000Z</time>
        <extensions>
          <ns3:TrackPointExtension>
            <ns3:atemp>26.0</ns3:atemp>
          </ns3:TrackPointExtension>
        </extensions>
      </trkpt>
      <trkpt lat="42.56313825957477092742919921875" lon="20.094554722309112548828125">
        <ele>2010.4000244140625</ele>
        <time>2026-06-19T12:47:17.000Z</time>
        <extensions>
          <ns3:TrackPointExtension>
            <ns3:atemp>26.0</ns3:atemp>
          </ns3:TrackPointExtension>
        </extensions>
      </trkpt>
      <trkpt lat="42.56313825957477092742919921875" lon="20.094554722309112548828125">
        <ele>2010.4000244140625</ele>
        <time>2026-06-19T12:47:18.000Z</time>
        <extensions>
          <ns3:TrackPointExtension>
            <ns3:atemp>26.0</ns3:atemp>
          </ns3:TrackPointExtension>
        </extensions>
      </trkpt>
      <trkpt lat="42.56313825957477092742919921875" lon="20.094554722309112548828125">
        <ele>2010.4000244140625</ele>
        <time>2026-06-19T12:47:19.000Z</time>
        <extensions>
          <ns3:TrackPointExtension>
            <ns3:atemp>26.0</ns3:atemp>
          </ns3:TrackPointExtension>
        </extensions>
      </trkpt>
      <trkpt lat="42.56313825957477092742919921875" lon="20.094554722309112548828125">
        <ele>2010.4000244140625</ele>
        <time>2026-06-19T12:47:20.000Z</time>
        <extensions>
          <ns3:TrackPointExtension>
            <ns3:atemp>26.0</ns3:atemp>
          </ns3:TrackPointExtension>
        </extensions>
      </trkpt>
      <trkpt lat="42.56313825957477092742919921875" lon="20.094554722309112548828125">
        <ele>2010.4000244140625</ele>
        <time>2026-06-19T12:47:21.000Z</time>
        <extensions>
          <ns3:TrackPointExtension>
            <ns3:atemp>26.0</ns3:atemp>
          </ns3:TrackPointExtension>
        </extensions>
      </trkpt>
      <trkpt lat="42.56313825957477092742919921875" lon="20.094554722309112548828125">
        <ele>2010.4000244140625</ele>
        <time>2026-06-19T12:47:22.000Z</time>
        <extensions>
          <ns3:TrackPointExtension>
            <ns3:atemp>26.0</ns3:atemp>
          </ns3:TrackPointExtension>
        </extensions>
      </trkpt>
      <trkpt lat="42.56313825957477092742919921875" lon="20.094554722309112548828125">
        <ele>2010.4000244140625</ele>
        <time>2026-06-19T12:47:23.000Z</time>
        <extensions>
          <ns3:TrackPointExtension>
            <ns3:atemp>26.0</ns3:atemp>
          </ns3:TrackPointExtension>
        </extensions>
      </trkpt>
      <trkpt lat="42.56313825957477092742919921875" lon="20.094554722309112548828125">
        <ele>2010.4000244140625</ele>
        <time>2026-06-19T12:47:24.000Z</time>
        <extensions>
          <ns3:TrackPointExtension>
            <ns3:atemp>26.0</ns3:atemp>
          </ns3:TrackPointExtension>
        </extensions>
      </trkpt>
      <trkpt lat="42.56313825957477092742919921875" lon="20.094554722309112548828125">
        <ele>2010.4000244140625</ele>
        <time>2026-06-19T12:47:25.000Z</time>
        <extensions>
          <ns3:TrackPointExtension>
            <ns3:atemp>26.0</ns3:atemp>
          </ns3:TrackPointExtension>
        </extensions>
      </trkpt>
      <trkpt lat="42.56313825957477092742919921875" lon="20.094554722309112548828125">
        <ele>2010.4000244140625</ele>
        <time>2026-06-19T12:47:26.000Z</time>
        <extensions>
          <ns3:TrackPointExtension>
            <ns3:atemp>26.0</ns3:atemp>
          </ns3:TrackPointExtension>
        </extensions>
      </trkpt>
      <trkpt lat="42.56313825957477092742919921875" lon="20.094554722309112548828125">
        <ele>2010.4000244140625</ele>
        <time>2026-06-19T12:47:27.000Z</time>
        <extensions>
          <ns3:TrackPointExtension>
            <ns3:atemp>26.0</ns3:atemp>
          </ns3:TrackPointExtension>
        </extensions>
      </trkpt>
      <trkpt lat="42.56313825957477092742919921875" lon="20.094554722309112548828125">
        <ele>2010.4000244140625</ele>
        <time>2026-06-19T12:47:28.000Z</time>
        <extensions>
          <ns3:TrackPointExtension>
            <ns3:atemp>26.0</ns3:atemp>
          </ns3:TrackPointExtension>
        </extensions>
      </trkpt>
      <trkpt lat="42.56313825957477092742919921875" lon="20.094554722309112548828125">
        <ele>2010.4000244140625</ele>
        <time>2026-06-19T12:47:29.000Z</time>
        <extensions>
          <ns3:TrackPointExtension>
            <ns3:atemp>26.0</ns3:atemp>
          </ns3:TrackPointExtension>
        </extensions>
      </trkpt>
      <trkpt lat="42.56313825957477092742919921875" lon="20.094554722309112548828125">
        <ele>2010.4000244140625</ele>
        <time>2026-06-19T12:47:30.000Z</time>
        <extensions>
          <ns3:TrackPointExtension>
            <ns3:atemp>26.0</ns3:atemp>
          </ns3:TrackPointExtension>
        </extensions>
      </trkpt>
      <trkpt lat="42.56313825957477092742919921875" lon="20.094554722309112548828125">
        <ele>2010.4000244140625</ele>
        <time>2026-06-19T12:47:31.000Z</time>
        <extensions>
          <ns3:TrackPointExtension>
            <ns3:atemp>26.0</ns3:atemp>
          </ns3:TrackPointExtension>
        </extensions>
      </trkpt>
      <trkpt lat="42.56313825957477092742919921875" lon="20.094554722309112548828125">
        <ele>2010.4000244140625</ele>
        <time>2026-06-19T12:47:32.000Z</time>
        <extensions>
          <ns3:TrackPointExtension>
            <ns3:atemp>26.0</ns3:atemp>
          </ns3:TrackPointExtension>
        </extensions>
      </trkpt>
      <trkpt lat="42.56313825957477092742919921875" lon="20.094554722309112548828125">
        <ele>2010.4000244140625</ele>
        <time>2026-06-19T12:47:33.000Z</time>
        <extensions>
          <ns3:TrackPointExtension>
            <ns3:atemp>26.0</ns3:atemp>
          </ns3:TrackPointExtension>
        </extensions>
      </trkpt>
      <trkpt lat="42.56313825957477092742919921875" lon="20.094554722309112548828125">
        <ele>2010.4000244140625</ele>
        <time>2026-06-19T12:47:34.000Z</time>
        <extensions>
          <ns3:TrackPointExtension>
            <ns3:atemp>26.0</ns3:atemp>
          </ns3:TrackPointExtension>
        </extensions>
      </trkpt>
      <trkpt lat="42.56313825957477092742919921875" lon="20.094554722309112548828125">
        <ele>2010.4000244140625</ele>
        <time>2026-06-19T12:47:35.000Z</time>
        <extensions>
          <ns3:TrackPointExtension>
            <ns3:atemp>26.0</ns3:atemp>
          </ns3:TrackPointExtension>
        </extensions>
      </trkpt>
      <trkpt lat="42.56313825957477092742919921875" lon="20.094554722309112548828125">
        <ele>2010.4000244140625</ele>
        <time>2026-06-19T12:47:36.000Z</time>
        <extensions>
          <ns3:TrackPointExtension>
            <ns3:atemp>26.0</ns3:atemp>
          </ns3:TrackPointExtension>
        </extensions>
      </trkpt>
      <trkpt lat="42.56313825957477092742919921875" lon="20.094554722309112548828125">
        <ele>2010.4000244140625</ele>
        <time>2026-06-19T12:47:37.000Z</time>
        <extensions>
          <ns3:TrackPointExtension>
            <ns3:atemp>26.0</ns3:atemp>
          </ns3:TrackPointExtension>
        </extensions>
      </trkpt>
      <trkpt lat="42.56313825957477092742919921875" lon="20.094554722309112548828125">
        <ele>2010.4000244140625</ele>
        <time>2026-06-19T12:47:38.000Z</time>
        <extensions>
          <ns3:TrackPointExtension>
            <ns3:atemp>26.0</ns3:atemp>
          </ns3:TrackPointExtension>
        </extensions>
      </trkpt>
      <trkpt lat="42.56313825957477092742919921875" lon="20.094554722309112548828125">
        <ele>2010.4000244140625</ele>
        <time>2026-06-19T12:47:39.000Z</time>
        <extensions>
          <ns3:TrackPointExtension>
            <ns3:atemp>26.0</ns3:atemp>
          </ns3:TrackPointExtension>
        </extensions>
      </trkpt>
      <trkpt lat="42.56313825957477092742919921875" lon="20.094554722309112548828125">
        <ele>2010.4000244140625</ele>
        <time>2026-06-19T12:47:40.000Z</time>
        <extensions>
          <ns3:TrackPointExtension>
            <ns3:atemp>26.0</ns3:atemp>
          </ns3:TrackPointExtension>
        </extensions>
      </trkpt>
      <trkpt lat="42.56313825957477092742919921875" lon="20.094554722309112548828125">
        <ele>2010.4000244140625</ele>
        <time>2026-06-19T12:47:41.000Z</time>
        <extensions>
          <ns3:TrackPointExtension>
            <ns3:atemp>26.0</ns3:atemp>
          </ns3:TrackPointExtension>
        </extensions>
      </trkpt>
      <trkpt lat="42.56313825957477092742919921875" lon="20.094554722309112548828125">
        <ele>2010.4000244140625</ele>
        <time>2026-06-19T12:47:42.000Z</time>
        <extensions>
          <ns3:TrackPointExtension>
            <ns3:atemp>26.0</ns3:atemp>
          </ns3:TrackPointExtension>
        </extensions>
      </trkpt>
      <trkpt lat="42.56313825957477092742919921875" lon="20.094554722309112548828125">
        <ele>2010.4000244140625</ele>
        <time>2026-06-19T12:47:43.000Z</time>
        <extensions>
          <ns3:TrackPointExtension>
            <ns3:atemp>26.0</ns3:atemp>
          </ns3:TrackPointExtension>
        </extensions>
      </trkpt>
      <trkpt lat="42.56313825957477092742919921875" lon="20.094554722309112548828125">
        <ele>2010.4000244140625</ele>
        <time>2026-06-19T12:47:44.000Z</time>
        <extensions>
          <ns3:TrackPointExtension>
            <ns3:atemp>26.0</ns3:atemp>
          </ns3:TrackPointExtension>
        </extensions>
      </trkpt>
      <trkpt lat="42.56313825957477092742919921875" lon="20.094554722309112548828125">
        <ele>2010.4000244140625</ele>
        <time>2026-06-19T12:47:45.000Z</time>
        <extensions>
          <ns3:TrackPointExtension>
            <ns3:atemp>26.0</ns3:atemp>
          </ns3:TrackPointExtension>
        </extensions>
      </trkpt>
      <trkpt lat="42.56313825957477092742919921875" lon="20.094554722309112548828125">
        <ele>2010.4000244140625</ele>
        <time>2026-06-19T12:47:46.000Z</time>
        <extensions>
          <ns3:TrackPointExtension>
            <ns3:atemp>26.0</ns3:atemp>
          </ns3:TrackPointExtension>
        </extensions>
      </trkpt>
      <trkpt lat="42.56313825957477092742919921875" lon="20.094554722309112548828125">
        <ele>2010.4000244140625</ele>
        <time>2026-06-19T12:47:47.000Z</time>
        <extensions>
          <ns3:TrackPointExtension>
            <ns3:atemp>26.0</ns3:atemp>
          </ns3:TrackPointExtension>
        </extensions>
      </trkpt>
      <trkpt lat="42.56313825957477092742919921875" lon="20.094554722309112548828125">
        <ele>2010.4000244140625</ele>
        <time>2026-06-19T12:47:48.000Z</time>
        <extensions>
          <ns3:TrackPointExtension>
            <ns3:atemp>26.0</ns3:atemp>
          </ns3:TrackPointExtension>
        </extensions>
      </trkpt>
      <trkpt lat="42.56313825957477092742919921875" lon="20.094554722309112548828125">
        <ele>2010.4000244140625</ele>
        <time>2026-06-19T12:47:49.000Z</time>
        <extensions>
          <ns3:TrackPointExtension>
            <ns3:atemp>26.0</ns3:atemp>
          </ns3:TrackPointExtension>
        </extensions>
      </trkpt>
      <trkpt lat="42.56313825957477092742919921875" lon="20.094554722309112548828125">
        <ele>2010.4000244140625</ele>
        <time>2026-06-19T12:47:50.000Z</time>
        <extensions>
          <ns3:TrackPointExtension>
            <ns3:atemp>26.0</ns3:atemp>
          </ns3:TrackPointExtension>
        </extensions>
      </trkpt>
      <trkpt lat="42.56313825957477092742919921875" lon="20.094554722309112548828125">
        <ele>2010.4000244140625</ele>
        <time>2026-06-19T12:47:51.000Z</time>
        <extensions>
          <ns3:TrackPointExtension>
            <ns3:atemp>26.0</ns3:atemp>
          </ns3:TrackPointExtension>
        </extensions>
      </trkpt>
      <trkpt lat="42.56313825957477092742919921875" lon="20.094554722309112548828125">
        <ele>2010.4000244140625</ele>
        <time>2026-06-19T12:47:52.000Z</time>
        <extensions>
          <ns3:TrackPointExtension>
            <ns3:atemp>26.0</ns3:atemp>
          </ns3:TrackPointExtension>
        </extensions>
      </trkpt>
      <trkpt lat="42.56313825957477092742919921875" lon="20.094554722309112548828125">
        <ele>2010.4000244140625</ele>
        <time>2026-06-19T12:47:53.000Z</time>
        <extensions>
          <ns3:TrackPointExtension>
            <ns3:atemp>26.0</ns3:atemp>
          </ns3:TrackPointExtension>
        </extensions>
      </trkpt>
      <trkpt lat="42.56313825957477092742919921875" lon="20.094554722309112548828125">
        <ele>2010.4000244140625</ele>
        <time>2026-06-19T12:47:54.000Z</time>
        <extensions>
          <ns3:TrackPointExtension>
            <ns3:atemp>26.0</ns3:atemp>
          </ns3:TrackPointExtension>
        </extensions>
      </trkpt>
      <trkpt lat="42.56313825957477092742919921875" lon="20.094554722309112548828125">
        <ele>2010.4000244140625</ele>
        <time>2026-06-19T12:47:55.000Z</time>
        <extensions>
          <ns3:TrackPointExtension>
            <ns3:atemp>26.0</ns3:atemp>
          </ns3:TrackPointExtension>
        </extensions>
      </trkpt>
      <trkpt lat="42.56313825957477092742919921875" lon="20.094554722309112548828125">
        <ele>2010.4000244140625</ele>
        <time>2026-06-19T12:47:56.000Z</time>
        <extensions>
          <ns3:TrackPointExtension>
            <ns3:atemp>26.0</ns3:atemp>
          </ns3:TrackPointExtension>
        </extensions>
      </trkpt>
      <trkpt lat="42.56313825957477092742919921875" lon="20.094554722309112548828125">
        <ele>2010.4000244140625</ele>
        <time>2026-06-19T12:47:57.000Z</time>
        <extensions>
          <ns3:TrackPointExtension>
            <ns3:atemp>26.0</ns3:atemp>
          </ns3:TrackPointExtension>
        </extensions>
      </trkpt>
      <trkpt lat="42.56313825957477092742919921875" lon="20.094554722309112548828125">
        <ele>2010.4000244140625</ele>
        <time>2026-06-19T12:47:58.000Z</time>
        <extensions>
          <ns3:TrackPointExtension>
            <ns3:atemp>26.0</ns3:atemp>
          </ns3:TrackPointExtension>
        </extensions>
      </trkpt>
      <trkpt lat="42.56313825957477092742919921875" lon="20.094554722309112548828125">
        <ele>2010.4000244140625</ele>
        <time>2026-06-19T12:47:59.000Z</time>
        <extensions>
          <ns3:TrackPointExtension>
            <ns3:atemp>26.0</ns3:atemp>
          </ns3:TrackPointExtension>
        </extensions>
      </trkpt>
      <trkpt lat="42.56313825957477092742919921875" lon="20.094554722309112548828125">
        <ele>2010.4000244140625</ele>
        <time>2026-06-19T12:48:00.000Z</time>
        <extensions>
          <ns3:TrackPointExtension>
            <ns3:atemp>26.0</ns3:atemp>
          </ns3:TrackPointExtension>
        </extensions>
      </trkpt>
      <trkpt lat="42.56313825957477092742919921875" lon="20.094554722309112548828125">
        <ele>2010.4000244140625</ele>
        <time>2026-06-19T12:48:01.000Z</time>
        <extensions>
          <ns3:TrackPointExtension>
            <ns3:atemp>26.0</ns3:atemp>
          </ns3:TrackPointExtension>
        </extensions>
      </trkpt>
      <trkpt lat="42.56313825957477092742919921875" lon="20.094554722309112548828125">
        <ele>2010.4000244140625</ele>
        <time>2026-06-19T12:48:02.000Z</time>
        <extensions>
          <ns3:TrackPointExtension>
            <ns3:atemp>26.0</ns3:atemp>
          </ns3:TrackPointExtension>
        </extensions>
      </trkpt>
      <trkpt lat="42.56313825957477092742919921875" lon="20.094554722309112548828125">
        <ele>2010.4000244140625</ele>
        <time>2026-06-19T12:48:03.000Z</time>
        <extensions>
          <ns3:TrackPointExtension>
            <ns3:atemp>26.0</ns3:atemp>
          </ns3:TrackPointExtension>
        </extensions>
      </trkpt>
      <trkpt lat="42.56313825957477092742919921875" lon="20.094554722309112548828125">
        <ele>2010.4000244140625</ele>
        <time>2026-06-19T12:48:04.000Z</time>
        <extensions>
          <ns3:TrackPointExtension>
            <ns3:atemp>26.0</ns3:atemp>
          </ns3:TrackPointExtension>
        </extensions>
      </trkpt>
      <trkpt lat="42.56313825957477092742919921875" lon="20.094554722309112548828125">
        <ele>2010.4000244140625</ele>
        <time>2026-06-19T12:48:05.000Z</time>
        <extensions>
          <ns3:TrackPointExtension>
            <ns3:atemp>26.0</ns3:atemp>
          </ns3:TrackPointExtension>
        </extensions>
      </trkpt>
      <trkpt lat="42.56313825957477092742919921875" lon="20.094554722309112548828125">
        <ele>2010.4000244140625</ele>
        <time>2026-06-19T12:48:06.000Z</time>
        <extensions>
          <ns3:TrackPointExtension>
            <ns3:atemp>26.0</ns3:atemp>
          </ns3:TrackPointExtension>
        </extensions>
      </trkpt>
      <trkpt lat="42.56313825957477092742919921875" lon="20.094554722309112548828125">
        <ele>2010.4000244140625</ele>
        <time>2026-06-19T12:48:07.000Z</time>
        <extensions>
          <ns3:TrackPointExtension>
            <ns3:atemp>26.0</ns3:atemp>
          </ns3:TrackPointExtension>
        </extensions>
      </trkpt>
      <trkpt lat="42.56313825957477092742919921875" lon="20.094554722309112548828125">
        <ele>2010.4000244140625</ele>
        <time>2026-06-19T12:48:08.000Z</time>
        <extensions>
          <ns3:TrackPointExtension>
            <ns3:atemp>26.0</ns3:atemp>
          </ns3:TrackPointExtension>
        </extensions>
      </trkpt>
      <trkpt lat="42.56313825957477092742919921875" lon="20.094554722309112548828125">
        <ele>2010.4000244140625</ele>
        <time>2026-06-19T12:48:09.000Z</time>
        <extensions>
          <ns3:TrackPointExtension>
            <ns3:atemp>26.0</ns3:atemp>
          </ns3:TrackPointExtension>
        </extensions>
      </trkpt>
      <trkpt lat="42.56313825957477092742919921875" lon="20.094554722309112548828125">
        <ele>2010.4000244140625</ele>
        <time>2026-06-19T12:48:10.000Z</time>
        <extensions>
          <ns3:TrackPointExtension>
            <ns3:atemp>26.0</ns3:atemp>
          </ns3:TrackPointExtension>
        </extensions>
      </trkpt>
      <trkpt lat="42.56313825957477092742919921875" lon="20.094554722309112548828125">
        <ele>2010.4000244140625</ele>
        <time>2026-06-19T12:48:11.000Z</time>
        <extensions>
          <ns3:TrackPointExtension>
            <ns3:atemp>26.0</ns3:atemp>
          </ns3:TrackPointExtension>
        </extensions>
      </trkpt>
      <trkpt lat="42.56313825957477092742919921875" lon="20.094554722309112548828125">
        <ele>2010.4000244140625</ele>
        <time>2026-06-19T12:48:12.000Z</time>
        <extensions>
          <ns3:TrackPointExtension>
            <ns3:atemp>26.0</ns3:atemp>
          </ns3:TrackPointExtension>
        </extensions>
      </trkpt>
      <trkpt lat="42.56313825957477092742919921875" lon="20.094554722309112548828125">
        <ele>2010.4000244140625</ele>
        <time>2026-06-19T12:48:13.000Z</time>
        <extensions>
          <ns3:TrackPointExtension>
            <ns3:atemp>26.0</ns3:atemp>
          </ns3:TrackPointExtension>
        </extensions>
      </trkpt>
      <trkpt lat="42.56313825957477092742919921875" lon="20.094554722309112548828125">
        <ele>2010.4000244140625</ele>
        <time>2026-06-19T12:48:14.000Z</time>
        <extensions>
          <ns3:TrackPointExtension>
            <ns3:atemp>26.0</ns3:atemp>
          </ns3:TrackPointExtension>
        </extensions>
      </trkpt>
      <trkpt lat="42.56313825957477092742919921875" lon="20.094554722309112548828125">
        <ele>2010.4000244140625</ele>
        <time>2026-06-19T12:48:15.000Z</time>
        <extensions>
          <ns3:TrackPointExtension>
            <ns3:atemp>26.0</ns3:atemp>
          </ns3:TrackPointExtension>
        </extensions>
      </trkpt>
      <trkpt lat="42.56313825957477092742919921875" lon="20.094554722309112548828125">
        <ele>2010.4000244140625</ele>
        <time>2026-06-19T12:48:16.000Z</time>
        <extensions>
          <ns3:TrackPointExtension>
            <ns3:atemp>26.0</ns3:atemp>
          </ns3:TrackPointExtension>
        </extensions>
      </trkpt>
      <trkpt lat="42.56313825957477092742919921875" lon="20.094554722309112548828125">
        <ele>2010.4000244140625</ele>
        <time>2026-06-19T12:48:17.000Z</time>
        <extensions>
          <ns3:TrackPointExtension>
            <ns3:atemp>26.0</ns3:atemp>
          </ns3:TrackPointExtension>
        </extensions>
      </trkpt>
      <trkpt lat="42.56313825957477092742919921875" lon="20.094554722309112548828125">
        <ele>2010.4000244140625</ele>
        <time>2026-06-19T12:48:18.000Z</time>
        <extensions>
          <ns3:TrackPointExtension>
            <ns3:atemp>26.0</ns3:atemp>
          </ns3:TrackPointExtension>
        </extensions>
      </trkpt>
      <trkpt lat="42.56313825957477092742919921875" lon="20.094554722309112548828125">
        <ele>2010.4000244140625</ele>
        <time>2026-06-19T12:48:19.000Z</time>
        <extensions>
          <ns3:TrackPointExtension>
            <ns3:atemp>26.0</ns3:atemp>
          </ns3:TrackPointExtension>
        </extensions>
      </trkpt>
      <trkpt lat="42.56313825957477092742919921875" lon="20.094554722309112548828125">
        <ele>2010.4000244140625</ele>
        <time>2026-06-19T12:48:20.000Z</time>
        <extensions>
          <ns3:TrackPointExtension>
            <ns3:atemp>26.0</ns3:atemp>
          </ns3:TrackPointExtension>
        </extensions>
      </trkpt>
      <trkpt lat="42.56313825957477092742919921875" lon="20.094554722309112548828125">
        <ele>2010.4000244140625</ele>
        <time>2026-06-19T12:48:21.000Z</time>
        <extensions>
          <ns3:TrackPointExtension>
            <ns3:atemp>26.0</ns3:atemp>
          </ns3:TrackPointExtension>
        </extensions>
      </trkpt>
      <trkpt lat="42.56313825957477092742919921875" lon="20.094554722309112548828125">
        <ele>2010.4000244140625</ele>
        <time>2026-06-19T12:48:22.000Z</time>
        <extensions>
          <ns3:TrackPointExtension>
            <ns3:atemp>26.0</ns3:atemp>
          </ns3:TrackPointExtension>
        </extensions>
      </trkpt>
      <trkpt lat="42.56313825957477092742919921875" lon="20.094554722309112548828125">
        <ele>2010.4000244140625</ele>
        <time>2026-06-19T12:48:23.000Z</time>
        <extensions>
          <ns3:TrackPointExtension>
            <ns3:atemp>26.0</ns3:atemp>
          </ns3:TrackPointExtension>
        </extensions>
      </trkpt>
      <trkpt lat="42.56313825957477092742919921875" lon="20.094554722309112548828125">
        <ele>2010.4000244140625</ele>
        <time>2026-06-19T12:48:24.000Z</time>
        <extensions>
          <ns3:TrackPointExtension>
            <ns3:atemp>26.0</ns3:atemp>
          </ns3:TrackPointExtension>
        </extensions>
      </trkpt>
      <trkpt lat="42.56313825957477092742919921875" lon="20.094554722309112548828125">
        <ele>2010.4000244140625</ele>
        <time>2026-06-19T12:48:25.000Z</time>
        <extensions>
          <ns3:TrackPointExtension>
            <ns3:atemp>26.0</ns3:atemp>
          </ns3:TrackPointExtension>
        </extensions>
      </trkpt>
      <trkpt lat="42.56313825957477092742919921875" lon="20.094554722309112548828125">
        <ele>2010.4000244140625</ele>
        <time>2026-06-19T12:48:26.000Z</time>
        <extensions>
          <ns3:TrackPointExtension>
            <ns3:atemp>26.0</ns3:atemp>
          </ns3:TrackPointExtension>
        </extensions>
      </trkpt>
      <trkpt lat="42.56313825957477092742919921875" lon="20.094554722309112548828125">
        <ele>2010.4000244140625</ele>
        <time>2026-06-19T12:48:27.000Z</time>
        <extensions>
          <ns3:TrackPointExtension>
            <ns3:atemp>26.0</ns3:atemp>
          </ns3:TrackPointExtension>
        </extensions>
      </trkpt>
      <trkpt lat="42.56313825957477092742919921875" lon="20.094554722309112548828125">
        <ele>2010.4000244140625</ele>
        <time>2026-06-19T12:48:28.000Z</time>
        <extensions>
          <ns3:TrackPointExtension>
            <ns3:atemp>26.0</ns3:atemp>
          </ns3:TrackPointExtension>
        </extensions>
      </trkpt>
      <trkpt lat="42.56313825957477092742919921875" lon="20.094554722309112548828125">
        <ele>2010.4000244140625</ele>
        <time>2026-06-19T12:48:29.000Z</time>
        <extensions>
          <ns3:TrackPointExtension>
            <ns3:atemp>26.0</ns3:atemp>
          </ns3:TrackPointExtension>
        </extensions>
      </trkpt>
      <trkpt lat="42.56313825957477092742919921875" lon="20.094554722309112548828125">
        <ele>2010.4000244140625</ele>
        <time>2026-06-19T12:48:30.000Z</time>
        <extensions>
          <ns3:TrackPointExtension>
            <ns3:atemp>26.0</ns3:atemp>
          </ns3:TrackPointExtension>
        </extensions>
      </trkpt>
      <trkpt lat="42.56313825957477092742919921875" lon="20.094554722309112548828125">
        <ele>2010.4000244140625</ele>
        <time>2026-06-19T12:48:31.000Z</time>
        <extensions>
          <ns3:TrackPointExtension>
            <ns3:atemp>26.0</ns3:atemp>
          </ns3:TrackPointExtension>
        </extensions>
      </trkpt>
      <trkpt lat="42.56313825957477092742919921875" lon="20.094554722309112548828125">
        <ele>2010.4000244140625</ele>
        <time>2026-06-19T12:48:32.000Z</time>
        <extensions>
          <ns3:TrackPointExtension>
            <ns3:atemp>26.0</ns3:atemp>
          </ns3:TrackPointExtension>
        </extensions>
      </trkpt>
      <trkpt lat="42.56313825957477092742919921875" lon="20.094554722309112548828125">
        <ele>2010.4000244140625</ele>
        <time>2026-06-19T12:48:33.000Z</time>
        <extensions>
          <ns3:TrackPointExtension>
            <ns3:atemp>26.0</ns3:atemp>
          </ns3:TrackPointExtension>
        </extensions>
      </trkpt>
      <trkpt lat="42.56313825957477092742919921875" lon="20.094554722309112548828125">
        <ele>2010.4000244140625</ele>
        <time>2026-06-19T12:48:34.000Z</time>
        <extensions>
          <ns3:TrackPointExtension>
            <ns3:atemp>26.0</ns3:atemp>
          </ns3:TrackPointExtension>
        </extensions>
      </trkpt>
      <trkpt lat="42.56313825957477092742919921875" lon="20.094554722309112548828125">
        <ele>2010.4000244140625</ele>
        <time>2026-06-19T12:48:35.000Z</time>
        <extensions>
          <ns3:TrackPointExtension>
            <ns3:atemp>26.0</ns3:atemp>
          </ns3:TrackPointExtension>
        </extensions>
      </trkpt>
      <trkpt lat="42.56313825957477092742919921875" lon="20.094554722309112548828125">
        <ele>2010.4000244140625</ele>
        <time>2026-06-19T12:48:36.000Z</time>
        <extensions>
          <ns3:TrackPointExtension>
            <ns3:atemp>26.0</ns3:atemp>
          </ns3:TrackPointExtension>
        </extensions>
      </trkpt>
      <trkpt lat="42.56313825957477092742919921875" lon="20.094554722309112548828125">
        <ele>2010.4000244140625</ele>
        <time>2026-06-19T12:48:37.000Z</time>
        <extensions>
          <ns3:TrackPointExtension>
            <ns3:atemp>26.0</ns3:atemp>
          </ns3:TrackPointExtension>
        </extensions>
      </trkpt>
      <trkpt lat="42.56313825957477092742919921875" lon="20.094554722309112548828125">
        <ele>2010.4000244140625</ele>
        <time>2026-06-19T12:48:38.000Z</time>
        <extensions>
          <ns3:TrackPointExtension>
            <ns3:atemp>26.0</ns3:atemp>
          </ns3:TrackPointExtension>
        </extensions>
      </trkpt>
      <trkpt lat="42.56313825957477092742919921875" lon="20.094554722309112548828125">
        <ele>2010.4000244140625</ele>
        <time>2026-06-19T12:48:39.000Z</time>
        <extensions>
          <ns3:TrackPointExtension>
            <ns3:atemp>26.0</ns3:atemp>
          </ns3:TrackPointExtension>
        </extensions>
      </trkpt>
      <trkpt lat="42.56313825957477092742919921875" lon="20.094554722309112548828125">
        <ele>2010.4000244140625</ele>
        <time>2026-06-19T12:48:40.000Z</time>
        <extensions>
          <ns3:TrackPointExtension>
            <ns3:atemp>26.0</ns3:atemp>
          </ns3:TrackPointExtension>
        </extensions>
      </trkpt>
      <trkpt lat="42.56313825957477092742919921875" lon="20.094554722309112548828125">
        <ele>2010.4000244140625</ele>
        <time>2026-06-19T12:48:41.000Z</time>
        <extensions>
          <ns3:TrackPointExtension>
            <ns3:atemp>26.0</ns3:atemp>
          </ns3:TrackPointExtension>
        </extensions>
      </trkpt>
      <trkpt lat="42.56313825957477092742919921875" lon="20.094554722309112548828125">
        <ele>2010.4000244140625</ele>
        <time>2026-06-19T12:48:42.000Z</time>
        <extensions>
          <ns3:TrackPointExtension>
            <ns3:atemp>26.0</ns3:atemp>
          </ns3:TrackPointExtension>
        </extensions>
      </trkpt>
      <trkpt lat="42.56313825957477092742919921875" lon="20.094554722309112548828125">
        <ele>2010.4000244140625</ele>
        <time>2026-06-19T12:48:43.000Z</time>
        <extensions>
          <ns3:TrackPointExtension>
            <ns3:atemp>26.0</ns3:atemp>
          </ns3:TrackPointExtension>
        </extensions>
      </trkpt>
      <trkpt lat="42.56313825957477092742919921875" lon="20.094554722309112548828125">
        <ele>2010.4000244140625</ele>
        <time>2026-06-19T12:48:44.000Z</time>
        <extensions>
          <ns3:TrackPointExtension>
            <ns3:atemp>26.0</ns3:atemp>
          </ns3:TrackPointExtension>
        </extensions>
      </trkpt>
      <trkpt lat="42.56313825957477092742919921875" lon="20.094554722309112548828125">
        <ele>2010.4000244140625</ele>
        <time>2026-06-19T12:48:45.000Z</time>
        <extensions>
          <ns3:TrackPointExtension>
            <ns3:atemp>26.0</ns3:atemp>
          </ns3:TrackPointExtension>
        </extensions>
      </trkpt>
      <trkpt lat="42.56313825957477092742919921875" lon="20.094554722309112548828125">
        <ele>2010.4000244140625</ele>
        <time>2026-06-19T12:48:46.000Z</time>
        <extensions>
          <ns3:TrackPointExtension>
            <ns3:atemp>26.0</ns3:atemp>
          </ns3:TrackPointExtension>
        </extensions>
      </trkpt>
      <trkpt lat="42.56313825957477092742919921875" lon="20.094554722309112548828125">
        <ele>2010.4000244140625</ele>
        <time>2026-06-19T12:48:47.000Z</time>
        <extensions>
          <ns3:TrackPointExtension>
            <ns3:atemp>26.0</ns3:atemp>
          </ns3:TrackPointExtension>
        </extensions>
      </trkpt>
      <trkpt lat="42.563144378364086151123046875" lon="20.09456369094550609588623046875">
        <ele>2010.4000244140625</ele>
        <time>2026-06-19T12:48:48.000Z</time>
        <extensions>
          <ns3:TrackPointExtension>
            <ns3:atemp>26.0</ns3:atemp>
          </ns3:TrackPointExtension>
        </extensions>
      </trkpt>
      <trkpt lat="42.56313825957477092742919921875" lon="20.094554722309112548828125">
        <ele>2010.4000244140625</ele>
        <time>2026-06-19T12:48:49.000Z</time>
        <extensions>
          <ns3:TrackPointExtension>
            <ns3:atemp>26.0</ns3:atemp>
          </ns3:TrackPointExtension>
        </extensions>
      </trkpt>
      <trkpt lat="42.56313825957477092742919921875" lon="20.094554722309112548828125">
        <ele>2010.4000244140625</ele>
        <time>2026-06-19T12:48:50.000Z</time>
        <extensions>
          <ns3:TrackPointExtension>
            <ns3:atemp>26.0</ns3:atemp>
          </ns3:TrackPointExtension>
        </extensions>
      </trkpt>
      <trkpt lat="42.56313825957477092742919921875" lon="20.094554722309112548828125">
        <ele>2010.4000244140625</ele>
        <time>2026-06-19T12:48:51.000Z</time>
        <extensions>
          <ns3:TrackPointExtension>
            <ns3:atemp>26.0</ns3:atemp>
          </ns3:TrackPointExtension>
        </extensions>
      </trkpt>
      <trkpt lat="42.56314094178378582000732421875" lon="20.0945626012980937957763671875">
        <ele>2010.4000244140625</ele>
        <time>2026-06-19T12:48:52.000Z</time>
        <extensions>
          <ns3:TrackPointExtension>
            <ns3:atemp>26.0</ns3:atemp>
          </ns3:TrackPointExtension>
        </extensions>
      </trkpt>
      <trkpt lat="42.56313825957477092742919921875" lon="20.094554722309112548828125">
        <ele>2010.4000244140625</ele>
        <time>2026-06-19T12:48:53.000Z</time>
        <extensions>
          <ns3:TrackPointExtension>
            <ns3:atemp>26.0</ns3:atemp>
          </ns3:TrackPointExtension>
        </extensions>
      </trkpt>
      <trkpt lat="42.56313825957477092742919921875" lon="20.094554722309112548828125">
        <ele>2010.4000244140625</ele>
        <time>2026-06-19T12:48:54.000Z</time>
        <extensions>
          <ns3:TrackPointExtension>
            <ns3:atemp>26.0</ns3:atemp>
          </ns3:TrackPointExtension>
        </extensions>
      </trkpt>
      <trkpt lat="42.56313825957477092742919921875" lon="20.094554722309112548828125">
        <ele>2010.4000244140625</ele>
        <time>2026-06-19T12:48:55.000Z</time>
        <extensions>
          <ns3:TrackPointExtension>
            <ns3:atemp>26.0</ns3:atemp>
          </ns3:TrackPointExtension>
        </extensions>
      </trkpt>
      <trkpt lat="42.56313825957477092742919921875" lon="20.094554722309112548828125">
        <ele>2010.4000244140625</ele>
        <time>2026-06-19T12:48:56.000Z</time>
        <extensions>
          <ns3:TrackPointExtension>
            <ns3:atemp>26.0</ns3:atemp>
          </ns3:TrackPointExtension>
        </extensions>
      </trkpt>
      <trkpt lat="42.56313825957477092742919921875" lon="20.094554722309112548828125">
        <ele>2010.4000244140625</ele>
        <time>2026-06-19T12:48:57.000Z</time>
        <extensions>
          <ns3:TrackPointExtension>
            <ns3:atemp>26.0</ns3:atemp>
          </ns3:TrackPointExtension>
        </extensions>
      </trkpt>
      <trkpt lat="42.56313825957477092742919921875" lon="20.094554722309112548828125">
        <ele>2010.4000244140625</ele>
        <time>2026-06-19T12:48:58.000Z</time>
        <extensions>
          <ns3:TrackPointExtension>
            <ns3:atemp>26.0</ns3:atemp>
          </ns3:TrackPointExtension>
        </extensions>
      </trkpt>
      <trkpt lat="42.56313825957477092742919921875" lon="20.094554722309112548828125">
        <ele>2010.4000244140625</ele>
        <time>2026-06-19T12:48:59.000Z</time>
        <extensions>
          <ns3:TrackPointExtension>
            <ns3:atemp>26.0</ns3:atemp>
          </ns3:TrackPointExtension>
        </extensions>
      </trkpt>
      <trkpt lat="42.56313825957477092742919921875" lon="20.094554722309112548828125">
        <ele>2010.4000244140625</ele>
        <time>2026-06-19T12:49:00.000Z</time>
        <extensions>
          <ns3:TrackPointExtension>
            <ns3:atemp>26.0</ns3:atemp>
          </ns3:TrackPointExtension>
        </extensions>
      </trkpt>
      <trkpt lat="42.56313825957477092742919921875" lon="20.094554722309112548828125">
        <ele>2010.4000244140625</ele>
        <time>2026-06-19T12:49:01.000Z</time>
        <extensions>
          <ns3:TrackPointExtension>
            <ns3:atemp>26.0</ns3:atemp>
          </ns3:TrackPointExtension>
        </extensions>
      </trkpt>
      <trkpt lat="42.56313825957477092742919921875" lon="20.094554722309112548828125">
        <ele>2010.4000244140625</ele>
        <time>2026-06-19T12:49:02.000Z</time>
        <extensions>
          <ns3:TrackPointExtension>
            <ns3:atemp>26.0</ns3:atemp>
          </ns3:TrackPointExtension>
        </extensions>
      </trkpt>
      <trkpt lat="42.56313825957477092742919921875" lon="20.094554722309112548828125">
        <ele>2010.4000244140625</ele>
        <time>2026-06-19T12:49:03.000Z</time>
        <extensions>
          <ns3:TrackPointExtension>
            <ns3:atemp>26.0</ns3:atemp>
          </ns3:TrackPointExtension>
        </extensions>
      </trkpt>
      <trkpt lat="42.56313825957477092742919921875" lon="20.094554722309112548828125">
        <ele>2010.4000244140625</ele>
        <time>2026-06-19T12:49:04.000Z</time>
        <extensions>
          <ns3:TrackPointExtension>
            <ns3:atemp>26.0</ns3:atemp>
          </ns3:TrackPointExtension>
        </extensions>
      </trkpt>
      <trkpt lat="42.56313825957477092742919921875" lon="20.094554722309112548828125">
        <ele>2010.4000244140625</ele>
        <time>2026-06-19T12:49:05.000Z</time>
        <extensions>
          <ns3:TrackPointExtension>
            <ns3:atemp>26.0</ns3:atemp>
          </ns3:TrackPointExtension>
        </extensions>
      </trkpt>
      <trkpt lat="42.56313825957477092742919921875" lon="20.094554722309112548828125">
        <ele>2010.4000244140625</ele>
        <time>2026-06-19T12:49:06.000Z</time>
        <extensions>
          <ns3:TrackPointExtension>
            <ns3:atemp>26.0</ns3:atemp>
          </ns3:TrackPointExtension>
        </extensions>
      </trkpt>
      <trkpt lat="42.56313825957477092742919921875" lon="20.094554722309112548828125">
        <ele>2010.4000244140625</ele>
        <time>2026-06-19T12:49:07.000Z</time>
        <extensions>
          <ns3:TrackPointExtension>
            <ns3:atemp>26.0</ns3:atemp>
          </ns3:TrackPointExtension>
        </extensions>
      </trkpt>
      <trkpt lat="42.56313825957477092742919921875" lon="20.094554722309112548828125">
        <ele>2010.4000244140625</ele>
        <time>2026-06-19T12:49:08.000Z</time>
        <extensions>
          <ns3:TrackPointExtension>
            <ns3:atemp>26.0</ns3:atemp>
          </ns3:TrackPointExtension>
        </extensions>
      </trkpt>
      <trkpt lat="42.56313825957477092742919921875" lon="20.094554722309112548828125">
        <ele>2010.4000244140625</ele>
        <time>2026-06-19T12:49:09.000Z</time>
        <extensions>
          <ns3:TrackPointExtension>
            <ns3:atemp>26.0</ns3:atemp>
          </ns3:TrackPointExtension>
        </extensions>
      </trkpt>
      <trkpt lat="42.56313825957477092742919921875" lon="20.094554722309112548828125">
        <ele>2010.4000244140625</ele>
        <time>2026-06-19T12:49:10.000Z</time>
        <extensions>
          <ns3:TrackPointExtension>
            <ns3:atemp>26.0</ns3:atemp>
          </ns3:TrackPointExtension>
        </extensions>
      </trkpt>
      <trkpt lat="42.56313825957477092742919921875" lon="20.094554722309112548828125">
        <ele>2010.4000244140625</ele>
        <time>2026-06-19T12:49:11.000Z</time>
        <extensions>
          <ns3:TrackPointExtension>
            <ns3:atemp>26.0</ns3:atemp>
          </ns3:TrackPointExtension>
        </extensions>
      </trkpt>
      <trkpt lat="42.56313825957477092742919921875" lon="20.094554722309112548828125">
        <ele>2010.4000244140625</ele>
        <time>2026-06-19T12:49:12.000Z</time>
        <extensions>
          <ns3:TrackPointExtension>
            <ns3:atemp>26.0</ns3:atemp>
          </ns3:TrackPointExtension>
        </extensions>
      </trkpt>
      <trkpt lat="42.56313825957477092742919921875" lon="20.094554722309112548828125">
        <ele>2010.4000244140625</ele>
        <time>2026-06-19T12:49:13.000Z</time>
        <extensions>
          <ns3:TrackPointExtension>
            <ns3:atemp>26.0</ns3:atemp>
          </ns3:TrackPointExtension>
        </extensions>
      </trkpt>
      <trkpt lat="42.56313825957477092742919921875" lon="20.094554722309112548828125">
        <ele>2010.4000244140625</ele>
        <time>2026-06-19T12:49:14.000Z</time>
        <extensions>
          <ns3:TrackPointExtension>
            <ns3:atemp>26.0</ns3:atemp>
          </ns3:TrackPointExtension>
        </extensions>
      </trkpt>
      <trkpt lat="42.56313825957477092742919921875" lon="20.094554722309112548828125">
        <ele>2010.4000244140625</ele>
        <time>2026-06-19T12:49:15.000Z</time>
        <extensions>
          <ns3:TrackPointExtension>
            <ns3:atemp>26.0</ns3:atemp>
          </ns3:TrackPointExtension>
        </extensions>
      </trkpt>
      <trkpt lat="42.56313825957477092742919921875" lon="20.094554722309112548828125">
        <ele>2010.4000244140625</ele>
        <time>2026-06-19T12:49:16.000Z</time>
        <extensions>
          <ns3:TrackPointExtension>
            <ns3:atemp>26.0</ns3:atemp>
          </ns3:TrackPointExtension>
        </extensions>
      </trkpt>
      <trkpt lat="42.56313825957477092742919921875" lon="20.094554722309112548828125">
        <ele>2010.4000244140625</ele>
        <time>2026-06-19T12:49:17.000Z</time>
        <extensions>
          <ns3:TrackPointExtension>
            <ns3:atemp>26.0</ns3:atemp>
          </ns3:TrackPointExtension>
        </extensions>
      </trkpt>
      <trkpt lat="42.56313825957477092742919921875" lon="20.094554722309112548828125">
        <ele>2010.4000244140625</ele>
        <time>2026-06-19T12:49:18.000Z</time>
        <extensions>
          <ns3:TrackPointExtension>
            <ns3:atemp>26.0</ns3:atemp>
          </ns3:TrackPointExtension>
        </extensions>
      </trkpt>
      <trkpt lat="42.56313825957477092742919921875" lon="20.094554722309112548828125">
        <ele>2010.4000244140625</ele>
        <time>2026-06-19T12:49:19.000Z</time>
        <extensions>
          <ns3:TrackPointExtension>
            <ns3:atemp>26.0</ns3:atemp>
          </ns3:TrackPointExtension>
        </extensions>
      </trkpt>
      <trkpt lat="42.56313825957477092742919921875" lon="20.094554722309112548828125">
        <ele>2010.4000244140625</ele>
        <time>2026-06-19T12:49:20.000Z</time>
        <extensions>
          <ns3:TrackPointExtension>
            <ns3:atemp>26.0</ns3:atemp>
          </ns3:TrackPointExtension>
        </extensions>
      </trkpt>
      <trkpt lat="42.56313825957477092742919921875" lon="20.094554722309112548828125">
        <ele>2010.4000244140625</ele>
        <time>2026-06-19T12:49:21.000Z</time>
        <extensions>
          <ns3:TrackPointExtension>
            <ns3:atemp>26.0</ns3:atemp>
          </ns3:TrackPointExtension>
        </extensions>
      </trkpt>
      <trkpt lat="42.56313825957477092742919921875" lon="20.094554722309112548828125">
        <ele>2010.4000244140625</ele>
        <time>2026-06-19T12:49:22.000Z</time>
        <extensions>
          <ns3:TrackPointExtension>
            <ns3:atemp>26.0</ns3:atemp>
          </ns3:TrackPointExtension>
        </extensions>
      </trkpt>
      <trkpt lat="42.56313825957477092742919921875" lon="20.094554722309112548828125">
        <ele>2010.4000244140625</ele>
        <time>2026-06-19T12:49:23.000Z</time>
        <extensions>
          <ns3:TrackPointExtension>
            <ns3:atemp>26.0</ns3:atemp>
          </ns3:TrackPointExtension>
        </extensions>
      </trkpt>
      <trkpt lat="42.56313825957477092742919921875" lon="20.094554722309112548828125">
        <ele>2010.4000244140625</ele>
        <time>2026-06-19T12:49:24.000Z</time>
        <extensions>
          <ns3:TrackPointExtension>
            <ns3:atemp>26.0</ns3:atemp>
          </ns3:TrackPointExtension>
        </extensions>
      </trkpt>
      <trkpt lat="42.56314211525022983551025390625" lon="20.0945723243057727813720703125">
        <ele>2010.4000244140625</ele>
        <time>2026-06-19T12:49:25.000Z</time>
        <extensions>
          <ns3:TrackPointExtension>
            <ns3:atemp>26.0</ns3:atemp>
          </ns3:TrackPointExtension>
        </extensions>
      </trkpt>
      <trkpt lat="42.56314211525022983551025390625" lon="20.094572491943836212158203125">
        <ele>2010.4000244140625</ele>
        <time>2026-06-19T12:49:26.000Z</time>
        <extensions>
          <ns3:TrackPointExtension>
            <ns3:atemp>26.0</ns3:atemp>
          </ns3:TrackPointExtension>
        </extensions>
      </trkpt>
      <trkpt lat="42.56314211525022983551025390625" lon="20.094572491943836212158203125">
        <ele>2010.4000244140625</ele>
        <time>2026-06-19T12:49:27.000Z</time>
        <extensions>
          <ns3:TrackPointExtension>
            <ns3:atemp>26.0</ns3:atemp>
          </ns3:TrackPointExtension>
        </extensions>
      </trkpt>
      <trkpt lat="42.56314211525022983551025390625" lon="20.094572491943836212158203125">
        <ele>2010.4000244140625</ele>
        <time>2026-06-19T12:49:28.000Z</time>
        <extensions>
          <ns3:TrackPointExtension>
            <ns3:atemp>26.0</ns3:atemp>
          </ns3:TrackPointExtension>
        </extensions>
      </trkpt>
      <trkpt lat="42.56314211525022983551025390625" lon="20.094572491943836212158203125">
        <ele>2010.4000244140625</ele>
        <time>2026-06-19T12:49:29.000Z</time>
        <extensions>
          <ns3:TrackPointExtension>
            <ns3:atemp>26.0</ns3:atemp>
          </ns3:TrackPointExtension>
        </extensions>
      </trkpt>
      <trkpt lat="42.56314211525022983551025390625" lon="20.094572491943836212158203125">
        <ele>2010.4000244140625</ele>
        <time>2026-06-19T12:49:30.000Z</time>
        <extensions>
          <ns3:TrackPointExtension>
            <ns3:atemp>26.0</ns3:atemp>
          </ns3:TrackPointExtension>
        </extensions>
      </trkpt>
      <trkpt lat="42.56314211525022983551025390625" lon="20.094572491943836212158203125">
        <ele>2010.4000244140625</ele>
        <time>2026-06-19T12:49:31.000Z</time>
        <extensions>
          <ns3:TrackPointExtension>
            <ns3:atemp>26.0</ns3:atemp>
          </ns3:TrackPointExtension>
        </extensions>
      </trkpt>
      <trkpt lat="42.56314211525022983551025390625" lon="20.094572491943836212158203125">
        <ele>2010.4000244140625</ele>
        <time>2026-06-19T12:49:32.000Z</time>
        <extensions>
          <ns3:TrackPointExtension>
            <ns3:atemp>26.0</ns3:atemp>
          </ns3:TrackPointExtension>
        </extensions>
      </trkpt>
      <trkpt lat="42.56314211525022983551025390625" lon="20.094572491943836212158203125">
        <ele>2010.4000244140625</ele>
        <time>2026-06-19T12:49:33.000Z</time>
        <extensions>
          <ns3:TrackPointExtension>
            <ns3:atemp>26.0</ns3:atemp>
          </ns3:TrackPointExtension>
        </extensions>
      </trkpt>
      <trkpt lat="42.56314211525022983551025390625" lon="20.094572491943836212158203125">
        <ele>2010.4000244140625</ele>
        <time>2026-06-19T12:49:34.000Z</time>
        <extensions>
          <ns3:TrackPointExtension>
            <ns3:atemp>26.0</ns3:atemp>
          </ns3:TrackPointExtension>
        </extensions>
      </trkpt>
      <trkpt lat="42.56314211525022983551025390625" lon="20.09457626380026340484619140625">
        <ele>2010.4000244140625</ele>
        <time>2026-06-19T12:49:35.000Z</time>
        <extensions>
          <ns3:TrackPointExtension>
            <ns3:atemp>26.0</ns3:atemp>
          </ns3:TrackPointExtension>
        </extensions>
      </trkpt>
      <trkpt lat="42.56314261816442012786865234375" lon="20.0946058519184589385986328125">
        <ele>2010.4000244140625</ele>
        <time>2026-06-19T12:49:36.000Z</time>
        <extensions>
          <ns3:TrackPointExtension>
            <ns3:atemp>26.0</ns3:atemp>
          </ns3:TrackPointExtension>
        </extensions>
      </trkpt>
      <trkpt lat="42.56314462982118129730224609375" lon="20.094607360661029815673828125">
        <ele>2010.4000244140625</ele>
        <time>2026-06-19T12:49:37.000Z</time>
        <extensions>
          <ns3:TrackPointExtension>
            <ns3:atemp>26.0</ns3:atemp>
          </ns3:TrackPointExtension>
        </extensions>
      </trkpt>
      <trkpt lat="42.56314462982118129730224609375" lon="20.0946071930229663848876953125">
        <ele>2010.4000244140625</ele>
        <time>2026-06-19T12:49:38.000Z</time>
        <extensions>
          <ns3:TrackPointExtension>
            <ns3:atemp>25.0</ns3:atemp>
          </ns3:TrackPointExtension>
        </extensions>
      </trkpt>
      <trkpt lat="42.56314462982118129730224609375" lon="20.0946071930229663848876953125">
        <ele>2010.4000244140625</ele>
        <time>2026-06-19T12:49:39.000Z</time>
        <extensions>
          <ns3:TrackPointExtension>
            <ns3:atemp>25.0</ns3:atemp>
          </ns3:TrackPointExtension>
        </extensions>
      </trkpt>
      <trkpt lat="42.56314462982118129730224609375" lon="20.0946071930229663848876953125">
        <ele>2010.4000244140625</ele>
        <time>2026-06-19T12:49:40.000Z</time>
        <extensions>
          <ns3:TrackPointExtension>
            <ns3:atemp>25.0</ns3:atemp>
          </ns3:TrackPointExtension>
        </extensions>
      </trkpt>
      <trkpt lat="42.56314462982118129730224609375" lon="20.0946071930229663848876953125">
        <ele>2010.4000244140625</ele>
        <time>2026-06-19T12:49:41.000Z</time>
        <extensions>
          <ns3:TrackPointExtension>
            <ns3:atemp>26.0</ns3:atemp>
          </ns3:TrackPointExtension>
        </extensions>
      </trkpt>
      <trkpt lat="42.56314462982118129730224609375" lon="20.0946071930229663848876953125">
        <ele>2010.4000244140625</ele>
        <time>2026-06-19T12:49:42.000Z</time>
        <extensions>
          <ns3:TrackPointExtension>
            <ns3:atemp>25.0</ns3:atemp>
          </ns3:TrackPointExtension>
        </extensions>
      </trkpt>
      <trkpt lat="42.56314462982118129730224609375" lon="20.0946071930229663848876953125">
        <ele>2010.4000244140625</ele>
        <time>2026-06-19T12:49:43.000Z</time>
        <extensions>
          <ns3:TrackPointExtension>
            <ns3:atemp>25.0</ns3:atemp>
          </ns3:TrackPointExtension>
        </extensions>
      </trkpt>
      <trkpt lat="42.56314462982118129730224609375" lon="20.0946071930229663848876953125">
        <ele>2010.4000244140625</ele>
        <time>2026-06-19T12:49:44.000Z</time>
        <extensions>
          <ns3:TrackPointExtension>
            <ns3:atemp>25.0</ns3:atemp>
          </ns3:TrackPointExtension>
        </extensions>
      </trkpt>
      <trkpt lat="42.56314462982118129730224609375" lon="20.0946071930229663848876953125">
        <ele>2010.4000244140625</ele>
        <time>2026-06-19T12:49:45.000Z</time>
        <extensions>
          <ns3:TrackPointExtension>
            <ns3:atemp>25.0</ns3:atemp>
          </ns3:TrackPointExtension>
        </extensions>
      </trkpt>
      <trkpt lat="42.56314462982118129730224609375" lon="20.0946071930229663848876953125">
        <ele>2010.4000244140625</ele>
        <time>2026-06-19T12:49:46.000Z</time>
        <extensions>
          <ns3:TrackPointExtension>
            <ns3:atemp>25.0</ns3:atemp>
          </ns3:TrackPointExtension>
        </extensions>
      </trkpt>
      <trkpt lat="42.56314462982118129730224609375" lon="20.0946071930229663848876953125">
        <ele>2010.4000244140625</ele>
        <time>2026-06-19T12:49:47.000Z</time>
        <extensions>
          <ns3:TrackPointExtension>
            <ns3:atemp>25.0</ns3:atemp>
          </ns3:TrackPointExtension>
        </extensions>
      </trkpt>
      <trkpt lat="42.56314462982118129730224609375" lon="20.0946071930229663848876953125">
        <ele>2010.4000244140625</ele>
        <time>2026-06-19T12:49:48.000Z</time>
        <extensions>
          <ns3:TrackPointExtension>
            <ns3:atemp>25.0</ns3:atemp>
          </ns3:TrackPointExtension>
        </extensions>
      </trkpt>
      <trkpt lat="42.56314462982118129730224609375" lon="20.0946071930229663848876953125">
        <ele>2010.4000244140625</ele>
        <time>2026-06-19T12:49:49.000Z</time>
        <extensions>
          <ns3:TrackPointExtension>
            <ns3:atemp>25.0</ns3:atemp>
          </ns3:TrackPointExtension>
        </extensions>
      </trkpt>
      <trkpt lat="42.56314462982118129730224609375" lon="20.0946071930229663848876953125">
        <ele>2010.4000244140625</ele>
        <time>2026-06-19T12:49:50.000Z</time>
        <extensions>
          <ns3:TrackPointExtension>
            <ns3:atemp>25.0</ns3:atemp>
          </ns3:TrackPointExtension>
        </extensions>
      </trkpt>
      <trkpt lat="42.56314462982118129730224609375" lon="20.0946071930229663848876953125">
        <ele>2010.4000244140625</ele>
        <time>2026-06-19T12:49:51.000Z</time>
        <extensions>
          <ns3:TrackPointExtension>
            <ns3:atemp>25.0</ns3:atemp>
          </ns3:TrackPointExtension>
        </extensions>
      </trkpt>
      <trkpt lat="42.56314462982118129730224609375" lon="20.0946071930229663848876953125">
        <ele>2010.4000244140625</ele>
        <time>2026-06-19T12:49:52.000Z</time>
        <extensions>
          <ns3:TrackPointExtension>
            <ns3:atemp>25.0</ns3:atemp>
          </ns3:TrackPointExtension>
        </extensions>
      </trkpt>
      <trkpt lat="42.56314462982118129730224609375" lon="20.0946071930229663848876953125">
        <ele>2010.4000244140625</ele>
        <time>2026-06-19T12:49:53.000Z</time>
        <extensions>
          <ns3:TrackPointExtension>
            <ns3:atemp>25.0</ns3:atemp>
          </ns3:TrackPointExtension>
        </extensions>
      </trkpt>
      <trkpt lat="42.56314462982118129730224609375" lon="20.0946071930229663848876953125">
        <ele>2010.4000244140625</ele>
        <time>2026-06-19T12:49:54.000Z</time>
        <extensions>
          <ns3:TrackPointExtension>
            <ns3:atemp>25.0</ns3:atemp>
          </ns3:TrackPointExtension>
        </extensions>
      </trkpt>
      <trkpt lat="42.56314462982118129730224609375" lon="20.0946071930229663848876953125">
        <ele>2010.4000244140625</ele>
        <time>2026-06-19T12:49:55.000Z</time>
        <extensions>
          <ns3:TrackPointExtension>
            <ns3:atemp>25.0</ns3:atemp>
          </ns3:TrackPointExtension>
        </extensions>
      </trkpt>
      <trkpt lat="42.56314462982118129730224609375" lon="20.0946071930229663848876953125">
        <ele>2010.4000244140625</ele>
        <time>2026-06-19T12:49:56.000Z</time>
        <extensions>
          <ns3:TrackPointExtension>
            <ns3:atemp>25.0</ns3:atemp>
          </ns3:TrackPointExtension>
        </extensions>
      </trkpt>
      <trkpt lat="42.56314462982118129730224609375" lon="20.0946071930229663848876953125">
        <ele>2010.4000244140625</ele>
        <time>2026-06-19T12:49:57.000Z</time>
        <extensions>
          <ns3:TrackPointExtension>
            <ns3:atemp>25.0</ns3:atemp>
          </ns3:TrackPointExtension>
        </extensions>
      </trkpt>
      <trkpt lat="42.56314462982118129730224609375" lon="20.0946071930229663848876953125">
        <ele>2010.4000244140625</ele>
        <time>2026-06-19T12:49:58.000Z</time>
        <extensions>
          <ns3:TrackPointExtension>
            <ns3:atemp>25.0</ns3:atemp>
          </ns3:TrackPointExtension>
        </extensions>
      </trkpt>
      <trkpt lat="42.56314462982118129730224609375" lon="20.0946071930229663848876953125">
        <ele>2010.4000244140625</ele>
        <time>2026-06-19T12:49:59.000Z</time>
        <extensions>
          <ns3:TrackPointExtension>
            <ns3:atemp>25.0</ns3:atemp>
          </ns3:TrackPointExtension>
        </extensions>
      </trkpt>
      <trkpt lat="42.56314462982118129730224609375" lon="20.0946071930229663848876953125">
        <ele>2010.4000244140625</ele>
        <time>2026-06-19T12:50:00.000Z</time>
        <extensions>
          <ns3:TrackPointExtension>
            <ns3:atemp>25.0</ns3:atemp>
          </ns3:TrackPointExtension>
        </extensions>
      </trkpt>
      <trkpt lat="42.56314462982118129730224609375" lon="20.0946071930229663848876953125">
        <ele>2010.4000244140625</ele>
        <time>2026-06-19T12:50:01.000Z</time>
        <extensions>
          <ns3:TrackPointExtension>
            <ns3:atemp>25.0</ns3:atemp>
          </ns3:TrackPointExtension>
        </extensions>
      </trkpt>
      <trkpt lat="42.56314462982118129730224609375" lon="20.0946071930229663848876953125">
        <ele>2010.4000244140625</ele>
        <time>2026-06-19T12:50:02.000Z</time>
        <extensions>
          <ns3:TrackPointExtension>
            <ns3:atemp>25.0</ns3:atemp>
          </ns3:TrackPointExtension>
        </extensions>
      </trkpt>
      <trkpt lat="42.56314462982118129730224609375" lon="20.0946071930229663848876953125">
        <ele>2010.4000244140625</ele>
        <time>2026-06-19T12:50:03.000Z</time>
        <extensions>
          <ns3:TrackPointExtension>
            <ns3:atemp>25.0</ns3:atemp>
          </ns3:TrackPointExtension>
        </extensions>
      </trkpt>
      <trkpt lat="42.563143037259578704833984375" lon="20.09460744448006153106689453125">
        <ele>2010.4000244140625</ele>
        <time>2026-06-19T12:50:04.000Z</time>
        <extensions>
          <ns3:TrackPointExtension>
            <ns3:atemp>25.0</ns3:atemp>
          </ns3:TrackPointExtension>
        </extensions>
      </trkpt>
      <trkpt lat="42.56314211525022983551025390625" lon="20.09461130015552043914794921875">
        <ele>2010.4000244140625</ele>
        <time>2026-06-19T12:50:05.000Z</time>
        <extensions>
          <ns3:TrackPointExtension>
            <ns3:atemp>25.0</ns3:atemp>
          </ns3:TrackPointExtension>
        </extensions>
      </trkpt>
      <trkpt lat="42.563147060573101043701171875" lon="20.0946249626576900482177734375">
        <ele>2010.4000244140625</ele>
        <time>2026-06-19T12:50:06.000Z</time>
        <extensions>
          <ns3:TrackPointExtension>
            <ns3:atemp>25.0</ns3:atemp>
          </ns3:TrackPointExtension>
        </extensions>
      </trkpt>
      <trkpt lat="42.56315468810498714447021484375" lon="20.09464063681662082672119140625">
        <ele>2010.4000244140625</ele>
        <time>2026-06-19T12:50:07.000Z</time>
        <extensions>
          <ns3:TrackPointExtension>
            <ns3:atemp>25.0</ns3:atemp>
          </ns3:TrackPointExtension>
        </extensions>
      </trkpt>
      <trkpt lat="42.56316390819847583770751953125" lon="20.094663687050342559814453125">
        <ele>2010.5999755859375</ele>
        <time>2026-06-19T12:50:08.000Z</time>
        <extensions>
          <ns3:TrackPointExtension>
            <ns3:atemp>25.0</ns3:atemp>
          </ns3:TrackPointExtension>
        </extensions>
      </trkpt>
      <trkpt lat="42.5631737150251865386962890625" lon="20.09468707256019115447998046875">
        <ele>2010.5999755859375</ele>
        <time>2026-06-19T12:50:09.000Z</time>
        <extensions>
          <ns3:TrackPointExtension>
            <ns3:atemp>25.0</ns3:atemp>
          </ns3:TrackPointExtension>
        </extensions>
      </trkpt>
      <trkpt lat="42.56318335421383380889892578125" lon="20.09470467455685138702392578125">
        <ele>2010.5999755859375</ele>
        <time>2026-06-19T12:50:10.000Z</time>
        <extensions>
          <ns3:TrackPointExtension>
            <ns3:atemp>25.0</ns3:atemp>
          </ns3:TrackPointExtension>
        </extensions>
      </trkpt>
      <trkpt lat="42.56319827400147914886474609375" lon="20.09472261182963848114013671875">
        <ele>2010.5999755859375</ele>
        <time>2026-06-19T12:50:11.000Z</time>
        <extensions>
          <ns3:TrackPointExtension>
            <ns3:atemp>25.0</ns3:atemp>
          </ns3:TrackPointExtension>
        </extensions>
      </trkpt>
      <trkpt lat="42.56321487016975879669189453125" lon="20.09473971091210842132568359375">
        <ele>2010.5999755859375</ele>
        <time>2026-06-19T12:50:12.000Z</time>
        <extensions>
          <ns3:TrackPointExtension>
            <ns3:atemp>25.0</ns3:atemp>
          </ns3:TrackPointExtension>
        </extensions>
      </trkpt>
      <trkpt lat="42.56323196925222873687744140625" lon="20.0947527028620243072509765625">
        <ele>2010.4000244140625</ele>
        <time>2026-06-19T12:50:13.000Z</time>
        <extensions>
          <ns3:TrackPointExtension>
            <ns3:atemp>25.0</ns3:atemp>
          </ns3:TrackPointExtension>
        </extensions>
      </trkpt>
      <trkpt lat="42.563247978687286376953125" lon="20.09477189742028713226318359375">
        <ele>2010.4000244140625</ele>
        <time>2026-06-19T12:50:14.000Z</time>
        <extensions>
          <ns3:TrackPointExtension>
            <ns3:atemp>25.0</ns3:atemp>
          </ns3:TrackPointExtension>
        </extensions>
      </trkpt>
      <trkpt lat="42.56325803697109222412109375" lon="20.09479142725467681884765625">
        <ele>2010.199951171875</ele>
        <time>2026-06-19T12:50:15.000Z</time>
        <extensions>
          <ns3:TrackPointExtension>
            <ns3:atemp>25.0</ns3:atemp>
          </ns3:TrackPointExtension>
        </extensions>
      </trkpt>
      <trkpt lat="42.563261725008487701416015625" lon="20.094809867441654205322265625">
        <ele>2010.199951171875</ele>
        <time>2026-06-19T12:50:16.000Z</time>
        <extensions>
          <ns3:TrackPointExtension>
            <ns3:atemp>25.0</ns3:atemp>
          </ns3:TrackPointExtension>
        </extensions>
      </trkpt>
      <trkpt lat="42.56325258873403072357177734375" lon="20.0948221050202846527099609375">
        <ele>2010.199951171875</ele>
        <time>2026-06-19T12:50:17.000Z</time>
        <extensions>
          <ns3:TrackPointExtension>
            <ns3:atemp>25.0</ns3:atemp>
          </ns3:TrackPointExtension>
        </extensions>
      </trkpt>
      <trkpt lat="42.563240267336368560791015625" lon="20.09483476169407367706298828125">
        <ele>2010.4000244140625</ele>
        <time>2026-06-19T12:50:18.000Z</time>
        <extensions>
          <ns3:TrackPointExtension>
            <ns3:atemp>25.0</ns3:atemp>
          </ns3:TrackPointExtension>
        </extensions>
      </trkpt>
      <trkpt lat="42.563237585127353668212890625" lon="20.09484968148171901702880859375">
        <ele>2010.4000244140625</ele>
        <time>2026-06-19T12:50:19.000Z</time>
        <extensions>
          <ns3:TrackPointExtension>
            <ns3:atemp>25.0</ns3:atemp>
          </ns3:TrackPointExtension>
        </extensions>
      </trkpt>
      <trkpt lat="42.5632337294518947601318359375" lon="20.0948713906109333038330078125">
        <ele>2010.4000244140625</ele>
        <time>2026-06-19T12:50:20.000Z</time>
        <extensions>
          <ns3:TrackPointExtension>
            <ns3:atemp>25.0</ns3:atemp>
          </ns3:TrackPointExtension>
        </extensions>
      </trkpt>
      <trkpt lat="42.56322895176708698272705078125" lon="20.09488396346569061279296875">
        <ele>2010.4000244140625</ele>
        <time>2026-06-19T12:50:21.000Z</time>
        <extensions>
          <ns3:TrackPointExtension>
            <ns3:atemp>25.0</ns3:atemp>
          </ns3:TrackPointExtension>
        </extensions>
      </trkpt>
      <trkpt lat="42.56322191096842288970947265625" lon="20.094903409481048583984375">
        <ele>2010.4000244140625</ele>
        <time>2026-06-19T12:50:22.000Z</time>
        <extensions>
          <ns3:TrackPointExtension>
            <ns3:atemp>25.0</ns3:atemp>
          </ns3:TrackPointExtension>
        </extensions>
      </trkpt>
      <trkpt lat="42.563214786350727081298828125" lon="20.09492327459156513214111328125">
        <ele>2010.4000244140625</ele>
        <time>2026-06-19T12:50:23.000Z</time>
        <extensions>
          <ns3:TrackPointExtension>
            <ns3:atemp>25.0</ns3:atemp>
          </ns3:TrackPointExtension>
        </extensions>
      </trkpt>
      <trkpt lat="42.56321118213236331939697265625" lon="20.0949417985975742340087890625">
        <ele>2010.5999755859375</ele>
        <time>2026-06-19T12:50:24.000Z</time>
        <extensions>
          <ns3:TrackPointExtension>
            <ns3:atemp>25.0</ns3:atemp>
          </ns3:TrackPointExtension>
        </extensions>
      </trkpt>
      <trkpt lat="42.56320481188595294952392578125" lon="20.09495864622294902801513671875">
        <ele>2010.800048828125</ele>
        <time>2026-06-19T12:50:25.000Z</time>
        <extensions>
          <ns3:TrackPointExtension>
            <ns3:atemp>25.0</ns3:atemp>
          </ns3:TrackPointExtension>
        </extensions>
      </trkpt>
      <trkpt lat="42.56320036947727203369140625" lon="20.0949793495237827301025390625">
        <ele>2011</ele>
        <time>2026-06-19T12:50:26.000Z</time>
        <extensions>
          <ns3:TrackPointExtension>
            <ns3:atemp>25.0</ns3:atemp>
          </ns3:TrackPointExtension>
        </extensions>
      </trkpt>
      <trkpt lat="42.5632012076675891876220703125" lon="20.09500105865299701690673828125">
        <ele>2011.199951171875</ele>
        <time>2026-06-19T12:50:27.000Z</time>
        <extensions>
          <ns3:TrackPointExtension>
            <ns3:atemp>25.0</ns3:atemp>
          </ns3:TrackPointExtension>
        </extensions>
      </trkpt>
      <trkpt lat="42.56320816464722156524658203125" lon="20.0950165651738643646240234375">
        <ele>2011.199951171875</ele>
        <time>2026-06-19T12:50:28.000Z</time>
        <extensions>
          <ns3:TrackPointExtension>
            <ns3:atemp>25.0</ns3:atemp>
          </ns3:TrackPointExtension>
        </extensions>
      </trkpt>
      <trkpt lat="42.56322777830064296722412109375" lon="20.09502419270575046539306640625">
        <ele>2011.199951171875</ele>
        <time>2026-06-19T12:50:29.000Z</time>
        <extensions>
          <ns3:TrackPointExtension>
            <ns3:atemp>25.0</ns3:atemp>
          </ns3:TrackPointExtension>
        </extensions>
      </trkpt>
      <trkpt lat="42.5632417760789394378662109375" lon="20.09501983411610126495361328125">
        <ele>2011.199951171875</ele>
        <time>2026-06-19T12:50:30.000Z</time>
        <extensions>
          <ns3:TrackPointExtension>
            <ns3:atemp>25.0</ns3:atemp>
          </ns3:TrackPointExtension>
        </extensions>
      </trkpt>
      <trkpt lat="42.56325267255306243896484375" lon="20.09500860236585140228271484375">
        <ele>2011</ele>
        <time>2026-06-19T12:50:31.000Z</time>
        <extensions>
          <ns3:TrackPointExtension>
            <ns3:atemp>25.0</ns3:atemp>
          </ns3:TrackPointExtension>
        </extensions>
      </trkpt>
      <trkpt lat="42.5632649101316928863525390625" lon="20.09499435313045978546142578125">
        <ele>2011</ele>
        <time>2026-06-19T12:50:32.000Z</time>
        <extensions>
          <ns3:TrackPointExtension>
            <ns3:atemp>25.0</ns3:atemp>
          </ns3:TrackPointExtension>
        </extensions>
      </trkpt>
      <trkpt lat="42.5632746331393718719482421875" lon="20.0949733145534992218017578125">
        <ele>2010.800048828125</ele>
        <time>2026-06-19T12:50:33.000Z</time>
        <extensions>
          <ns3:TrackPointExtension>
            <ns3:atemp>25.0</ns3:atemp>
          </ns3:TrackPointExtension>
        </extensions>
      </trkpt>
      <trkpt lat="42.563279829919338226318359375" lon="20.09495110251009464263916015625">
        <ele>2010.800048828125</ele>
        <time>2026-06-19T12:50:34.000Z</time>
        <extensions>
          <ns3:TrackPointExtension>
            <ns3:atemp>25.0</ns3:atemp>
          </ns3:TrackPointExtension>
        </extensions>
      </trkpt>
      <trkpt lat="42.56327957846224308013916015625" lon="20.09492696262896060943603515625">
        <ele>2010.5999755859375</ele>
        <time>2026-06-19T12:50:35.000Z</time>
        <extensions>
          <ns3:TrackPointExtension>
            <ns3:atemp>25.0</ns3:atemp>
          </ns3:TrackPointExtension>
        </extensions>
      </trkpt>
      <trkpt lat="42.56327404640614986419677734375" lon="20.094897709786891937255859375">
        <ele>2010.5999755859375</ele>
        <time>2026-06-19T12:50:36.000Z</time>
        <extensions>
          <ns3:TrackPointExtension>
            <ns3:atemp>25.0</ns3:atemp>
          </ns3:TrackPointExtension>
        </extensions>
      </trkpt>
      <trkpt lat="42.56327589042484760284423828125" lon="20.09486845694482326507568359375">
        <ele>2010.800048828125</ele>
        <time>2026-06-19T12:50:37.000Z</time>
        <extensions>
          <ns3:TrackPointExtension>
            <ns3:atemp>25.0</ns3:atemp>
          </ns3:TrackPointExtension>
        </extensions>
      </trkpt>
      <trkpt lat="42.5632830150425434112548828125" lon="20.094854123890399932861328125">
        <ele>2010.800048828125</ele>
        <time>2026-06-19T12:50:38.000Z</time>
        <extensions>
          <ns3:TrackPointExtension>
            <ns3:atemp>25.0</ns3:atemp>
          </ns3:TrackPointExtension>
        </extensions>
      </trkpt>
      <trkpt lat="42.56329667754471302032470703125" lon="20.09485588409006595611572265625">
        <ele>2011</ele>
        <time>2026-06-19T12:50:39.000Z</time>
        <extensions>
          <ns3:TrackPointExtension>
            <ns3:atemp>25.0</ns3:atemp>
          </ns3:TrackPointExtension>
        </extensions>
      </trkpt>
      <trkpt lat="42.56331277079880237579345703125" lon="20.09485973976552486419677734375">
        <ele>2011.199951171875</ele>
        <time>2026-06-19T12:50:40.000Z</time>
        <extensions>
          <ns3:TrackPointExtension>
            <ns3:atemp>25.0</ns3:atemp>
          </ns3:TrackPointExtension>
        </extensions>
      </trkpt>
      <trkpt lat="42.5633203983306884765625" lon="20.0948713906109333038330078125">
        <ele>2011.4000244140625</ele>
        <time>2026-06-19T12:50:41.000Z</time>
        <extensions>
          <ns3:TrackPointExtension>
            <ns3:atemp>25.0</ns3:atemp>
          </ns3:TrackPointExtension>
        </extensions>
      </trkpt>
      <trkpt lat="42.56332182325422763824462890625" lon="20.0948834605515003204345703125">
        <ele>2011.4000244140625</ele>
        <time>2026-06-19T12:50:42.000Z</time>
        <extensions>
          <ns3:TrackPointExtension>
            <ns3:atemp>25.0</ns3:atemp>
          </ns3:TrackPointExtension>
        </extensions>
      </trkpt>
      <trkpt lat="42.56331436336040496826171875" lon="20.09489678777754306793212890625">
        <ele>2011.4000244140625</ele>
        <time>2026-06-19T12:50:43.000Z</time>
        <extensions>
          <ns3:TrackPointExtension>
            <ns3:atemp>25.0</ns3:atemp>
          </ns3:TrackPointExtension>
        </extensions>
      </trkpt>
      <trkpt lat="42.5633091665804386138916015625" lon="20.09491204284131526947021484375">
        <ele>2011.199951171875</ele>
        <time>2026-06-19T12:50:44.000Z</time>
        <extensions>
          <ns3:TrackPointExtension>
            <ns3:atemp>25.0</ns3:atemp>
          </ns3:TrackPointExtension>
        </extensions>
      </trkpt>
      <trkpt lat="42.5633048079907894134521484375" lon="20.09493249468505382537841796875">
        <ele>2011</ele>
        <time>2026-06-19T12:50:45.000Z</time>
        <extensions>
          <ns3:TrackPointExtension>
            <ns3:atemp>25.0</ns3:atemp>
          </ns3:TrackPointExtension>
        </extensions>
      </trkpt>
      <trkpt lat="42.56329935975372791290283203125" lon="20.09495772421360015869140625">
        <ele>2010.800048828125</ele>
        <time>2026-06-19T12:50:46.000Z</time>
        <extensions>
          <ns3:TrackPointExtension>
            <ns3:atemp>25.0</ns3:atemp>
          </ns3:TrackPointExtension>
        </extensions>
      </trkpt>
      <trkpt lat="42.56329969502985477447509765625" lon="20.0949847139418125152587890625">
        <ele>2010.5999755859375</ele>
        <time>2026-06-19T12:50:47.000Z</time>
        <extensions>
          <ns3:TrackPointExtension>
            <ns3:atemp>25.0</ns3:atemp>
          </ns3:TrackPointExtension>
        </extensions>
      </trkpt>
      <trkpt lat="42.563301622867584228515625" lon="20.0950185768306255340576171875">
        <ele>2010.4000244140625</ele>
        <time>2026-06-19T12:50:48.000Z</time>
        <extensions>
          <ns3:TrackPointExtension>
            <ns3:atemp>25.0</ns3:atemp>
          </ns3:TrackPointExtension>
        </extensions>
      </trkpt>
      <trkpt lat="42.56329583935439586639404296875" lon="20.0950269587337970733642578125">
        <ele>2010.4000244140625</ele>
        <time>2026-06-19T12:50:49.000Z</time>
        <extensions>
          <ns3:TrackPointExtension>
            <ns3:atemp>25.0</ns3:atemp>
          </ns3:TrackPointExtension>
        </extensions>
      </trkpt>
      <trkpt lat="42.5632840208709239959716796875" lon="20.0950308144092559814453125">
        <ele>2010.4000244140625</ele>
        <time>2026-06-19T12:50:50.000Z</time>
        <extensions>
          <ns3:TrackPointExtension>
            <ns3:atemp>25.0</ns3:atemp>
          </ns3:TrackPointExtension>
        </extensions>
      </trkpt>
      <trkpt lat="42.563266754150390625" lon="20.09502167813479900360107421875">
        <ele>2010.4000244140625</ele>
        <time>2026-06-19T12:50:51.000Z</time>
        <extensions>
          <ns3:TrackPointExtension>
            <ns3:atemp>25.0</ns3:atemp>
          </ns3:TrackPointExtension>
        </extensions>
      </trkpt>
      <trkpt lat="42.5632511638104915618896484375" lon="20.09500441141426563262939453125">
        <ele>2010.4000244140625</ele>
        <time>2026-06-19T12:50:52.000Z</time>
        <extensions>
          <ns3:TrackPointExtension>
            <ns3:atemp>25.0</ns3:atemp>
          </ns3:TrackPointExtension>
        </extensions>
      </trkpt>
      <trkpt lat="42.56324940361082553863525390625" lon="20.0949790142476558685302734375">
        <ele>2010.199951171875</ele>
        <time>2026-06-19T12:50:53.000Z</time>
        <extensions>
          <ns3:TrackPointExtension>
            <ns3:atemp>25.0</ns3:atemp>
          </ns3:TrackPointExtension>
        </extensions>
      </trkpt>
      <trkpt lat="42.563255690038204193115234375" lon="20.09494473226368427276611328125">
        <ele>2010.199951171875</ele>
        <time>2026-06-19T12:50:54.000Z</time>
        <extensions>
          <ns3:TrackPointExtension>
            <ns3:atemp>25.0</ns3:atemp>
          </ns3:TrackPointExtension>
        </extensions>
      </trkpt>
      <trkpt lat="42.563263066112995147705078125" lon="20.09491221047937870025634765625">
        <ele>2010</ele>
        <time>2026-06-19T12:50:55.000Z</time>
        <extensions>
          <ns3:TrackPointExtension>
            <ns3:atemp>25.0</ns3:atemp>
          </ns3:TrackPointExtension>
        </extensions>
      </trkpt>
      <trkpt lat="42.56327320821583271026611328125" lon="20.09488404728472232818603515625">
        <ele>2010</ele>
        <time>2026-06-19T12:50:56.000Z</time>
        <extensions>
          <ns3:TrackPointExtension>
            <ns3:atemp>25.0</ns3:atemp>
          </ns3:TrackPointExtension>
        </extensions>
      </trkpt>
      <trkpt lat="42.56327790208160877227783203125" lon="20.09485051967203617095947265625">
        <ele>2010.199951171875</ele>
        <time>2026-06-19T12:50:57.000Z</time>
        <extensions>
          <ns3:TrackPointExtension>
            <ns3:atemp>25.0</ns3:atemp>
          </ns3:TrackPointExtension>
        </extensions>
      </trkpt>
      <trkpt lat="42.56328083574771881103515625" lon="20.09482051245868206024169921875">
        <ele>2010.4000244140625</ele>
        <time>2026-06-19T12:50:58.000Z</time>
        <extensions>
          <ns3:TrackPointExtension>
            <ns3:atemp>25.0</ns3:atemp>
          </ns3:TrackPointExtension>
        </extensions>
      </trkpt>
      <trkpt lat="42.563278488814830780029296875" lon="20.094797126948833465576171875">
        <ele>2010.4000244140625</ele>
        <time>2026-06-19T12:50:59.000Z</time>
        <extensions>
          <ns3:TrackPointExtension>
            <ns3:atemp>25.0</ns3:atemp>
          </ns3:TrackPointExtension>
        </extensions>
      </trkpt>
      <trkpt lat="42.56328284740447998046875" lon="20.09476770646870136260986328125">
        <ele>2010.5999755859375</ele>
        <time>2026-06-19T12:51:00.000Z</time>
        <extensions>
          <ns3:TrackPointExtension>
            <ns3:atemp>25.0</ns3:atemp>
          </ns3:TrackPointExtension>
        </extensions>
      </trkpt>
      <trkpt lat="42.56328376941382884979248046875" lon="20.094739459455013275146484375">
        <ele>2011</ele>
        <time>2026-06-19T12:51:01.000Z</time>
        <extensions>
          <ns3:TrackPointExtension>
            <ns3:atemp>25.0</ns3:atemp>
          </ns3:TrackPointExtension>
        </extensions>
      </trkpt>
      <trkpt lat="42.56328485906124114990234375" lon="20.09470970369875431060791015625">
        <ele>2011.199951171875</ele>
        <time>2026-06-19T12:51:02.000Z</time>
        <extensions>
          <ns3:TrackPointExtension>
            <ns3:atemp>25.0</ns3:atemp>
          </ns3:TrackPointExtension>
        </extensions>
      </trkpt>
      <trkpt lat="42.56328611634671688079833984375" lon="20.09467952884733676910400390625">
        <ele>2011.199951171875</ele>
        <time>2026-06-19T12:51:03.000Z</time>
        <extensions>
          <ns3:TrackPointExtension>
            <ns3:atemp>25.0</ns3:atemp>
          </ns3:TrackPointExtension>
        </extensions>
      </trkpt>
      <trkpt lat="42.56328209303319454193115234375" lon="20.09465035982429981231689453125">
        <ele>2011.4000244140625</ele>
        <time>2026-06-19T12:51:04.000Z</time>
        <extensions>
          <ns3:TrackPointExtension>
            <ns3:atemp>25.0</ns3:atemp>
          </ns3:TrackPointExtension>
        </extensions>
      </trkpt>
      <trkpt lat="42.56328024901449680328369140625" lon="20.09461666457355022430419921875">
        <ele>2011.5999755859375</ele>
        <time>2026-06-19T12:51:05.000Z</time>
        <extensions>
          <ns3:TrackPointExtension>
            <ns3:atemp>25.0</ns3:atemp>
          </ns3:TrackPointExtension>
        </extensions>
      </trkpt>
      <trkpt lat="42.5632788240909576416015625" lon="20.0945884175598621368408203125">
        <ele>2011.5999755859375</ele>
        <time>2026-06-19T12:51:06.000Z</time>
        <extensions>
          <ns3:TrackPointExtension>
            <ns3:atemp>25.0</ns3:atemp>
          </ns3:TrackPointExtension>
        </extensions>
      </trkpt>
      <trkpt lat="42.5632742978632450103759765625" lon="20.0945615954697132110595703125">
        <ele>2011.5999755859375</ele>
        <time>2026-06-19T12:51:07.000Z</time>
        <extensions>
          <ns3:TrackPointExtension>
            <ns3:atemp>25.0</ns3:atemp>
          </ns3:TrackPointExtension>
        </extensions>
      </trkpt>
      <trkpt lat="42.56326382048428058624267578125" lon="20.09453594684600830078125">
        <ele>2011.5999755859375</ele>
        <time>2026-06-19T12:51:08.000Z</time>
        <extensions>
          <ns3:TrackPointExtension>
            <ns3:atemp>25.0</ns3:atemp>
          </ns3:TrackPointExtension>
        </extensions>
      </trkpt>
      <trkpt lat="42.5632493197917938232421875" lon="20.09451675228774547576904296875">
        <ele>2011.5999755859375</ele>
        <time>2026-06-19T12:51:09.000Z</time>
        <extensions>
          <ns3:TrackPointExtension>
            <ns3:atemp>25.0</ns3:atemp>
          </ns3:TrackPointExtension>
        </extensions>
      </trkpt>
      <trkpt lat="42.56323113106191158294677734375" lon="20.094509124755859375">
        <ele>2011.5999755859375</ele>
        <time>2026-06-19T12:51:10.000Z</time>
        <extensions>
          <ns3:TrackPointExtension>
            <ns3:atemp>25.0</ns3:atemp>
          </ns3:TrackPointExtension>
        </extensions>
      </trkpt>
      <trkpt lat="42.56320615299046039581298828125" lon="20.0945086218416690826416015625">
        <ele>2011.5999755859375</ele>
        <time>2026-06-19T12:51:11.000Z</time>
        <extensions>
          <ns3:TrackPointExtension>
            <ns3:atemp>25.0</ns3:atemp>
          </ns3:TrackPointExtension>
        </extensions>
      </trkpt>
      <trkpt lat="42.56318620406091213226318359375" lon="20.0945104658603668212890625">
        <ele>2011.5999755859375</ele>
        <time>2026-06-19T12:51:12.000Z</time>
        <extensions>
          <ns3:TrackPointExtension>
            <ns3:atemp>25.0</ns3:atemp>
          </ns3:TrackPointExtension>
        </extensions>
      </trkpt>
      <trkpt lat="42.56316818296909332275390625" lon="20.09452044032514095306396484375">
        <ele>2011.4000244140625</ele>
        <time>2026-06-19T12:51:13.000Z</time>
        <extensions>
          <ns3:TrackPointExtension>
            <ns3:atemp>25.0</ns3:atemp>
          </ns3:TrackPointExtension>
        </extensions>
      </trkpt>
      <trkpt lat="42.56315477192401885986328125" lon="20.0945372879505157470703125">
        <ele>2011.4000244140625</ele>
        <time>2026-06-19T12:51:14.000Z</time>
        <extensions>
          <ns3:TrackPointExtension>
            <ns3:atemp>25.0</ns3:atemp>
          </ns3:TrackPointExtension>
        </extensions>
      </trkpt>
      <trkpt lat="42.56314731203019618988037109375" lon="20.0945585779845714569091796875">
        <ele>2011.199951171875</ele>
        <time>2026-06-19T12:51:15.000Z</time>
        <extensions>
          <ns3:TrackPointExtension>
            <ns3:atemp>25.0</ns3:atemp>
          </ns3:TrackPointExtension>
        </extensions>
      </trkpt>
      <trkpt lat="42.56314865313470363616943359375" lon="20.09459017775952816009521484375">
        <ele>2011</ele>
        <time>2026-06-19T12:51:16.000Z</time>
        <extensions>
          <ns3:TrackPointExtension>
            <ns3:atemp>25.0</ns3:atemp>
          </ns3:TrackPointExtension>
        </extensions>
      </trkpt>
      <trkpt lat="42.56315343081951141357421875" lon="20.09461699984967708587646484375">
        <ele>2011</ele>
        <time>2026-06-19T12:51:17.000Z</time>
        <extensions>
          <ns3:TrackPointExtension>
            <ns3:atemp>25.0</ns3:atemp>
          </ns3:TrackPointExtension>
        </extensions>
      </trkpt>
      <trkpt lat="42.56316055543720722198486328125" lon="20.09464231319725513458251953125">
        <ele>2010.800048828125</ele>
        <time>2026-06-19T12:51:18.000Z</time>
        <extensions>
          <ns3:TrackPointExtension>
            <ns3:atemp>25.0</ns3:atemp>
          </ns3:TrackPointExtension>
        </extensions>
      </trkpt>
      <trkpt lat="42.56316960789263248443603515625" lon="20.09467064402997493743896484375">
        <ele>2010.5999755859375</ele>
        <time>2026-06-19T12:51:19.000Z</time>
        <extensions>
          <ns3:TrackPointExtension>
            <ns3:atemp>25.0</ns3:atemp>
          </ns3:TrackPointExtension>
        </extensions>
      </trkpt>
      <trkpt lat="42.56318695843219757080078125" lon="20.09469193406403064727783203125">
        <ele>2010.5999755859375</ele>
        <time>2026-06-19T12:51:20.000Z</time>
        <extensions>
          <ns3:TrackPointExtension>
            <ns3:atemp>25.0</ns3:atemp>
          </ns3:TrackPointExtension>
        </extensions>
      </trkpt>
      <trkpt lat="42.56320682354271411895751953125" lon="20.0947138108313083648681640625">
        <ele>2010.5999755859375</ele>
        <time>2026-06-19T12:51:21.000Z</time>
        <extensions>
          <ns3:TrackPointExtension>
            <ns3:atemp>25.0</ns3:atemp>
          </ns3:TrackPointExtension>
        </extensions>
      </trkpt>
      <trkpt lat="42.56322383880615234375" lon="20.094730742275714874267578125">
        <ele>2010.5999755859375</ele>
        <time>2026-06-19T12:51:22.000Z</time>
        <extensions>
          <ns3:TrackPointExtension>
            <ns3:atemp>25.0</ns3:atemp>
          </ns3:TrackPointExtension>
        </extensions>
      </trkpt>
      <trkpt lat="42.56323968060314655303955078125" lon="20.09474809281527996063232421875">
        <ele>2010.800048828125</ele>
        <time>2026-06-19T12:51:23.000Z</time>
        <extensions>
          <ns3:TrackPointExtension>
            <ns3:atemp>25.0</ns3:atemp>
          </ns3:TrackPointExtension>
        </extensions>
      </trkpt>
      <trkpt lat="42.56324303336441516876220703125" lon="20.09476971812546253204345703125">
        <ele>2010.800048828125</ele>
        <time>2026-06-19T12:51:24.000Z</time>
        <extensions>
          <ns3:TrackPointExtension>
            <ns3:atemp>25.0</ns3:atemp>
          </ns3:TrackPointExtension>
        </extensions>
      </trkpt>
      <trkpt lat="42.5632421113550662994384765625" lon="20.09479519911110401153564453125">
        <ele>2010.800048828125</ele>
        <time>2026-06-19T12:51:25.000Z</time>
        <extensions>
          <ns3:TrackPointExtension>
            <ns3:atemp>25.0</ns3:atemp>
          </ns3:TrackPointExtension>
        </extensions>
      </trkpt>
      <trkpt lat="42.563239596784114837646484375" lon="20.09481615386903285980224609375">
        <ele>2011</ele>
        <time>2026-06-19T12:51:26.000Z</time>
        <extensions>
          <ns3:TrackPointExtension>
            <ns3:atemp>25.0</ns3:atemp>
          </ns3:TrackPointExtension>
        </extensions>
      </trkpt>
      <trkpt lat="42.56323565728962421417236328125" lon="20.09483828209340572357177734375">
        <ele>2011</ele>
        <time>2026-06-19T12:51:27.000Z</time>
        <extensions>
          <ns3:TrackPointExtension>
            <ns3:atemp>25.0</ns3:atemp>
          </ns3:TrackPointExtension>
        </extensions>
      </trkpt>
      <trkpt lat="42.5632310472428798675537109375" lon="20.094863511621952056884765625">
        <ele>2011</ele>
        <time>2026-06-19T12:51:28.000Z</time>
        <extensions>
          <ns3:TrackPointExtension>
            <ns3:atemp>25.0</ns3:atemp>
          </ns3:TrackPointExtension>
        </extensions>
      </trkpt>
      <trkpt lat="42.5632223300635814666748046875" lon="20.0948931835591793060302734375">
        <ele>2011</ele>
        <time>2026-06-19T12:51:29.000Z</time>
        <extensions>
          <ns3:TrackPointExtension>
            <ns3:atemp>25.0</ns3:atemp>
          </ns3:TrackPointExtension>
        </extensions>
      </trkpt>
      <trkpt lat="42.56321202032268047332763671875" lon="20.09492193348705768585205078125">
        <ele>2011</ele>
        <time>2026-06-19T12:51:30.000Z</time>
        <extensions>
          <ns3:TrackPointExtension>
            <ns3:atemp>25.0</ns3:atemp>
          </ns3:TrackPointExtension>
        </extensions>
      </trkpt>
      <trkpt lat="42.56320439279079437255859375" lon="20.0949448160827159881591796875">
        <ele>2011</ele>
        <time>2026-06-19T12:51:31.000Z</time>
        <extensions>
          <ns3:TrackPointExtension>
            <ns3:atemp>25.0</ns3:atemp>
          </ns3:TrackPointExtension>
        </extensions>
      </trkpt>
      <trkpt lat="42.56320112384855747222900390625" lon="20.0949759967625141143798828125">
        <ele>2011</ele>
        <time>2026-06-19T12:51:32.000Z</time>
        <extensions>
          <ns3:TrackPointExtension>
            <ns3:atemp>25.0</ns3:atemp>
          </ns3:TrackPointExtension>
        </extensions>
      </trkpt>
      <trkpt lat="42.56320246495306491851806640625" lon="20.09499401785433292388916015625">
        <ele>2011.199951171875</ele>
        <time>2026-06-19T12:51:33.000Z</time>
        <extensions>
          <ns3:TrackPointExtension>
            <ns3:atemp>25.0</ns3:atemp>
          </ns3:TrackPointExtension>
        </extensions>
      </trkpt>
      <trkpt lat="42.563212104141712188720703125" lon="20.0950148887932300567626953125">
        <ele>2011.4000244140625</ele>
        <time>2026-06-19T12:51:34.000Z</time>
        <extensions>
          <ns3:TrackPointExtension>
            <ns3:atemp>25.0</ns3:atemp>
          </ns3:TrackPointExtension>
        </extensions>
      </trkpt>
      <trkpt lat="42.56322626955807209014892578125" lon="20.09503290988504886627197265625">
        <ele>2011.5999755859375</ele>
        <time>2026-06-19T12:51:35.000Z</time>
        <extensions>
          <ns3:TrackPointExtension>
            <ns3:atemp>25.0</ns3:atemp>
          </ns3:TrackPointExtension>
        </extensions>
      </trkpt>
      <trkpt lat="42.56324470974504947662353515625" lon="20.0950480811297893524169921875">
        <ele>2011.5999755859375</ele>
        <time>2026-06-19T12:51:36.000Z</time>
        <extensions>
          <ns3:TrackPointExtension>
            <ns3:atemp>25.0</ns3:atemp>
          </ns3:TrackPointExtension>
        </extensions>
      </trkpt>
      <trkpt lat="42.5632565282285213470458984375" lon="20.09505788795650005340576171875">
        <ele>2011.5999755859375</ele>
        <time>2026-06-19T12:51:37.000Z</time>
        <extensions>
          <ns3:TrackPointExtension>
            <ns3:atemp>25.0</ns3:atemp>
          </ns3:TrackPointExtension>
        </extensions>
      </trkpt>
      <trkpt lat="42.56325828842818737030029296875" lon="20.09506702423095703125">
        <ele>2011.5999755859375</ele>
        <time>2026-06-19T12:51:38.000Z</time>
        <extensions>
          <ns3:TrackPointExtension>
            <ns3:atemp>25.0</ns3:atemp>
          </ns3:TrackPointExtension>
        </extensions>
      </trkpt>
      <trkpt lat="42.56325895898044109344482421875" lon="20.095082782208919525146484375">
        <ele>2011.4000244140625</ele>
        <time>2026-06-19T12:51:39.000Z</time>
        <extensions>
          <ns3:TrackPointExtension>
            <ns3:atemp>25.0</ns3:atemp>
          </ns3:TrackPointExtension>
        </extensions>
      </trkpt>
      <trkpt lat="42.56325912661850452423095703125" lon="20.09510197676718235015869140625">
        <ele>2011.199951171875</ele>
        <time>2026-06-19T12:51:40.000Z</time>
        <extensions>
          <ns3:TrackPointExtension>
            <ns3:atemp>25.0</ns3:atemp>
          </ns3:TrackPointExtension>
        </extensions>
      </trkpt>
      <trkpt lat="42.56325694732367992401123046875" lon="20.09512133896350860595703125">
        <ele>2011</ele>
        <time>2026-06-19T12:51:41.000Z</time>
        <extensions>
          <ns3:TrackPointExtension>
            <ns3:atemp>25.0</ns3:atemp>
          </ns3:TrackPointExtension>
        </extensions>
      </trkpt>
      <trkpt lat="42.56325074471533298492431640625" lon="20.09513718076050281524658203125">
        <ele>2010.800048828125</ele>
        <time>2026-06-19T12:51:42.000Z</time>
        <extensions>
          <ns3:TrackPointExtension>
            <ns3:atemp>25.0</ns3:atemp>
          </ns3:TrackPointExtension>
        </extensions>
      </trkpt>
      <trkpt lat="42.56324370391666889190673828125" lon="20.0951506756246089935302734375">
        <ele>2010.800048828125</ele>
        <time>2026-06-19T12:51:43.000Z</time>
        <extensions>
          <ns3:TrackPointExtension>
            <ns3:atemp>25.0</ns3:atemp>
          </ns3:TrackPointExtension>
        </extensions>
      </trkpt>
      <trkpt lat="42.56323481909930706024169921875" lon="20.0951684452593326568603515625">
        <ele>2010.5999755859375</ele>
        <time>2026-06-19T12:51:44.000Z</time>
        <extensions>
          <ns3:TrackPointExtension>
            <ns3:atemp>25.0</ns3:atemp>
          </ns3:TrackPointExtension>
        </extensions>
      </trkpt>
      <trkpt lat="42.56322191096842288970947265625" lon="20.09518814273178577423095703125">
        <ele>2010.5999755859375</ele>
        <time>2026-06-19T12:51:45.000Z</time>
        <extensions>
          <ns3:TrackPointExtension>
            <ns3:atemp>25.0</ns3:atemp>
          </ns3:TrackPointExtension>
        </extensions>
      </trkpt>
      <trkpt lat="42.56320799700915813446044921875" lon="20.09520071558654308319091796875">
        <ele>2010.5999755859375</ele>
        <time>2026-06-19T12:51:46.000Z</time>
        <extensions>
          <ns3:TrackPointExtension>
            <ns3:atemp>25.0</ns3:atemp>
          </ns3:TrackPointExtension>
        </extensions>
      </trkpt>
      <trkpt lat="42.5631971843540668487548828125" lon="20.09520490653812885284423828125">
        <ele>2010.5999755859375</ele>
        <time>2026-06-19T12:51:47.000Z</time>
        <extensions>
          <ns3:TrackPointExtension>
            <ns3:atemp>25.0</ns3:atemp>
          </ns3:TrackPointExtension>
        </extensions>
      </trkpt>
      <trkpt lat="42.5631857849657535552978515625" lon="20.09521412663161754608154296875">
        <ele>2010.5999755859375</ele>
        <time>2026-06-19T12:51:48.000Z</time>
        <extensions>
          <ns3:TrackPointExtension>
            <ns3:atemp>25.0</ns3:atemp>
          </ns3:TrackPointExtension>
        </extensions>
      </trkpt>
      <trkpt lat="42.56317446939647197723388671875" lon="20.09522996842861175537109375">
        <ele>2010.800048828125</ele>
        <time>2026-06-19T12:51:49.000Z</time>
        <extensions>
          <ns3:TrackPointExtension>
            <ns3:atemp>25.0</ns3:atemp>
          </ns3:TrackPointExtension>
        </extensions>
      </trkpt>
      <trkpt lat="42.5631656683981418609619140625" lon="20.095252431929111480712890625">
        <ele>2010.800048828125</ele>
        <time>2026-06-19T12:51:50.000Z</time>
        <extensions>
          <ns3:TrackPointExtension>
            <ns3:atemp>25.0</ns3:atemp>
          </ns3:TrackPointExtension>
        </extensions>
      </trkpt>
      <trkpt lat="42.56315468810498714447021484375" lon="20.09527028538286685943603515625">
        <ele>2011</ele>
        <time>2026-06-19T12:51:51.000Z</time>
        <extensions>
          <ns3:TrackPointExtension>
            <ns3:atemp>25.0</ns3:atemp>
          </ns3:TrackPointExtension>
        </extensions>
      </trkpt>
      <trkpt lat="42.5631415285170078277587890625" lon="20.09529425762593746185302734375">
        <ele>2011.199951171875</ele>
        <time>2026-06-19T12:51:52.000Z</time>
        <extensions>
          <ns3:TrackPointExtension>
            <ns3:atemp>25.0</ns3:atemp>
          </ns3:TrackPointExtension>
        </extensions>
      </trkpt>
      <trkpt lat="42.5631259381771087646484375" lon="20.095311105251312255859375">
        <ele>2011.5999755859375</ele>
        <time>2026-06-19T12:51:53.000Z</time>
        <extensions>
          <ns3:TrackPointExtension>
            <ns3:atemp>25.0</ns3:atemp>
          </ns3:TrackPointExtension>
        </extensions>
      </trkpt>
      <trkpt lat="42.5631098449230194091796875" lon="20.0953273661434650421142578125">
        <ele>2011.800048828125</ele>
        <time>2026-06-19T12:51:54.000Z</time>
        <extensions>
          <ns3:TrackPointExtension>
            <ns3:atemp>25.0</ns3:atemp>
          </ns3:TrackPointExtension>
        </extensions>
      </trkpt>
      <trkpt lat="42.5630964338779449462890625" lon="20.095348991453647613525390625">
        <ele>2012</ele>
        <time>2026-06-19T12:51:55.000Z</time>
        <extensions>
          <ns3:TrackPointExtension>
            <ns3:atemp>25.0</ns3:atemp>
          </ns3:TrackPointExtension>
        </extensions>
      </trkpt>
      <trkpt lat="42.563084699213504791259765625" lon="20.095370113849639892578125">
        <ele>2012.199951171875</ele>
        <time>2026-06-19T12:51:56.000Z</time>
        <extensions>
          <ns3:TrackPointExtension>
            <ns3:atemp>25.0</ns3:atemp>
          </ns3:TrackPointExtension>
        </extensions>
      </trkpt>
      <trkpt lat="42.563070952892303466796875" lon="20.0953848659992218017578125">
        <ele>2012.5999755859375</ele>
        <time>2026-06-19T12:51:57.000Z</time>
        <extensions>
          <ns3:TrackPointExtension>
            <ns3:atemp>25.0</ns3:atemp>
          </ns3:TrackPointExtension>
        </extensions>
      </trkpt>
      <trkpt lat="42.56305997259914875030517578125" lon="20.0954031385481357574462890625">
        <ele>2013</ele>
        <time>2026-06-19T12:51:58.000Z</time>
        <extensions>
          <ns3:TrackPointExtension>
            <ns3:atemp>25.0</ns3:atemp>
          </ns3:TrackPointExtension>
        </extensions>
      </trkpt>
      <trkpt lat="42.56304790265858173370361328125" lon="20.09542065672576427459716796875">
        <ele>2013.199951171875</ele>
        <time>2026-06-19T12:51:59.000Z</time>
        <extensions>
          <ns3:TrackPointExtension>
            <ns3:atemp>25.0</ns3:atemp>
          </ns3:TrackPointExtension>
        </extensions>
      </trkpt>
      <trkpt lat="42.563037760555744171142578125" lon="20.09543624706566333770751953125">
        <ele>2013.5999755859375</ele>
        <time>2026-06-19T12:52:00.000Z</time>
        <extensions>
          <ns3:TrackPointExtension>
            <ns3:atemp>25.0</ns3:atemp>
          </ns3:TrackPointExtension>
        </extensions>
      </trkpt>
      <trkpt lat="42.5630228407680988311767578125" lon="20.09545971639454364776611328125">
        <ele>2013.800048828125</ele>
        <time>2026-06-19T12:52:01.000Z</time>
        <extensions>
          <ns3:TrackPointExtension>
            <ns3:atemp>25.0</ns3:atemp>
          </ns3:TrackPointExtension>
        </extensions>
      </trkpt>
      <trkpt lat="42.56301286630332469940185546875" lon="20.09548117406666278839111328125">
        <ele>2014.199951171875</ele>
        <time>2026-06-19T12:52:02.000Z</time>
        <extensions>
          <ns3:TrackPointExtension>
            <ns3:atemp>25.0</ns3:atemp>
          </ns3:TrackPointExtension>
        </extensions>
      </trkpt>
      <trkpt lat="42.56300389766693115234375" lon="20.0955082476139068603515625">
        <ele>2014.4000244140625</ele>
        <time>2026-06-19T12:52:03.000Z</time>
        <extensions>
          <ns3:TrackPointExtension>
            <ns3:atemp>25.0</ns3:atemp>
          </ns3:TrackPointExtension>
        </extensions>
      </trkpt>
      <trkpt lat="42.56299425847828388214111328125" lon="20.09552710689604282379150390625">
        <ele>2014.800048828125</ele>
        <time>2026-06-19T12:52:04.000Z</time>
        <extensions>
          <ns3:TrackPointExtension>
            <ns3:atemp>25.0</ns3:atemp>
          </ns3:TrackPointExtension>
        </extensions>
      </trkpt>
      <trkpt lat="42.56297640502452850341796875" lon="20.09554420597851276397705078125">
        <ele>2015.199951171875</ele>
        <time>2026-06-19T12:52:05.000Z</time>
        <extensions>
          <ns3:TrackPointExtension>
            <ns3:atemp>25.0</ns3:atemp>
          </ns3:TrackPointExtension>
        </extensions>
      </trkpt>
      <trkpt lat="42.56295922212302684783935546875" lon="20.09556390345096588134765625">
        <ele>2015.199951171875</ele>
        <time>2026-06-19T12:52:06.000Z</time>
        <extensions>
          <ns3:TrackPointExtension>
            <ns3:atemp>25.0</ns3:atemp>
          </ns3:TrackPointExtension>
        </extensions>
      </trkpt>
      <trkpt lat="42.5629430450499057769775390625" lon="20.09558427147567272186279296875">
        <ele>2015.4000244140625</ele>
        <time>2026-06-19T12:52:07.000Z</time>
        <extensions>
          <ns3:TrackPointExtension>
            <ns3:atemp>25.0</ns3:atemp>
          </ns3:TrackPointExtension>
        </extensions>
      </trkpt>
      <trkpt lat="42.56292636506259441375732421875" lon="20.0956048071384429931640625">
        <ele>2015.5999755859375</ele>
        <time>2026-06-19T12:52:08.000Z</time>
        <extensions>
          <ns3:TrackPointExtension>
            <ns3:atemp>25.0</ns3:atemp>
          </ns3:TrackPointExtension>
        </extensions>
      </trkpt>
      <trkpt lat="42.56291010417044162750244140625" lon="20.09562618099153041839599609375">
        <ele>2015.800048828125</ele>
        <time>2026-06-19T12:52:09.000Z</time>
        <extensions>
          <ns3:TrackPointExtension>
            <ns3:atemp>25.0</ns3:atemp>
          </ns3:TrackPointExtension>
        </extensions>
      </trkpt>
      <trkpt lat="42.562894932925701141357421875" lon="20.09564931504428386688232421875">
        <ele>2015.800048828125</ele>
        <time>2026-06-19T12:52:10.000Z</time>
        <extensions>
          <ns3:TrackPointExtension>
            <ns3:atemp>25.0</ns3:atemp>
          </ns3:TrackPointExtension>
        </extensions>
      </trkpt>
      <trkpt lat="42.56288160569965839385986328125" lon="20.09567379020154476165771484375">
        <ele>2016</ele>
        <time>2026-06-19T12:52:11.000Z</time>
        <extensions>
          <ns3:TrackPointExtension>
            <ns3:atemp>25.0</ns3:atemp>
          </ns3:TrackPointExtension>
        </extensions>
      </trkpt>
      <trkpt lat="42.562873475253582000732421875" lon="20.09569223038852214813232421875">
        <ele>2016</ele>
        <time>2026-06-19T12:52:12.000Z</time>
        <extensions>
          <ns3:TrackPointExtension>
            <ns3:atemp>25.0</ns3:atemp>
          </ns3:TrackPointExtension>
        </extensions>
      </trkpt>
      <trkpt lat="42.56286375224590301513671875" lon="20.09571284987032413482666015625">
        <ele>2016</ele>
        <time>2026-06-19T12:52:13.000Z</time>
        <extensions>
          <ns3:TrackPointExtension>
            <ns3:atemp>25.0</ns3:atemp>
          </ns3:TrackPointExtension>
        </extensions>
      </trkpt>
      <trkpt lat="42.5628488324582576751708984375" lon="20.09573514573276042938232421875">
        <ele>2016</ele>
        <time>2026-06-19T12:52:14.000Z</time>
        <extensions>
          <ns3:TrackPointExtension>
            <ns3:atemp>25.0</ns3:atemp>
          </ns3:TrackPointExtension>
        </extensions>
      </trkpt>
      <trkpt lat="42.56283416412770748138427734375" lon="20.095752663910388946533203125">
        <ele>2016.199951171875</ele>
        <time>2026-06-19T12:52:15.000Z</time>
        <extensions>
          <ns3:TrackPointExtension>
            <ns3:atemp>25.0</ns3:atemp>
          </ns3:TrackPointExtension>
        </extensions>
      </trkpt>
      <trkpt lat="42.56281790323555469512939453125" lon="20.09577051736414432525634765625">
        <ele>2016.4000244140625</ele>
        <time>2026-06-19T12:52:16.000Z</time>
        <extensions>
          <ns3:TrackPointExtension>
            <ns3:atemp>25.0</ns3:atemp>
          </ns3:TrackPointExtension>
        </extensions>
      </trkpt>
      <trkpt lat="42.56280499510467052459716796875" lon="20.0957873649895191192626953125">
        <ele>2016.5999755859375</ele>
        <time>2026-06-19T12:52:17.000Z</time>
        <extensions>
          <ns3:TrackPointExtension>
            <ns3:atemp>25.0</ns3:atemp>
          </ns3:TrackPointExtension>
        </extensions>
      </trkpt>
      <trkpt lat="42.56279761902987957000732421875" lon="20.09580857120454311370849609375">
        <ele>2016.800048828125</ele>
        <time>2026-06-19T12:52:18.000Z</time>
        <extensions>
          <ns3:TrackPointExtension>
            <ns3:atemp>25.0</ns3:atemp>
          </ns3:TrackPointExtension>
        </extensions>
      </trkpt>
      <trkpt lat="42.56279535591602325439453125" lon="20.09583078324794769287109375">
        <ele>2016.800048828125</ele>
        <time>2026-06-19T12:52:19.000Z</time>
        <extensions>
          <ns3:TrackPointExtension>
            <ns3:atemp>25.0</ns3:atemp>
          </ns3:TrackPointExtension>
        </extensions>
      </trkpt>
      <trkpt lat="42.562788315117359161376953125" lon="20.095855928957462310791015625">
        <ele>2017</ele>
        <time>2026-06-19T12:52:20.000Z</time>
        <extensions>
          <ns3:TrackPointExtension>
            <ns3:atemp>25.0</ns3:atemp>
          </ns3:TrackPointExtension>
        </extensions>
      </trkpt>
      <trkpt lat="42.56278001703321933746337890625" lon="20.0958799012005329132080078125">
        <ele>2017.199951171875</ele>
        <time>2026-06-19T12:52:21.000Z</time>
        <extensions>
          <ns3:TrackPointExtension>
            <ns3:atemp>25.0</ns3:atemp>
          </ns3:TrackPointExtension>
        </extensions>
      </trkpt>
      <trkpt lat="42.56277658045291900634765625" lon="20.09591166861355304718017578125">
        <ele>2017.4000244140625</ele>
        <time>2026-06-19T12:52:22.000Z</time>
        <extensions>
          <ns3:TrackPointExtension>
            <ns3:atemp>25.0</ns3:atemp>
          </ns3:TrackPointExtension>
        </extensions>
      </trkpt>
      <trkpt lat="42.56277482025325298309326171875" lon="20.09594217874109745025634765625">
        <ele>2018</ele>
        <time>2026-06-19T12:52:23.000Z</time>
        <extensions>
          <ns3:TrackPointExtension>
            <ns3:atemp>25.0</ns3:atemp>
          </ns3:TrackPointExtension>
        </extensions>
      </trkpt>
      <trkpt lat="42.5627640075981616973876953125" lon="20.0959687493741512298583984375">
        <ele>2018</ele>
        <time>2026-06-19T12:52:24.000Z</time>
        <extensions>
          <ns3:TrackPointExtension>
            <ns3:atemp>25.0</ns3:atemp>
          </ns3:TrackPointExtension>
        </extensions>
      </trkpt>
      <trkpt lat="42.562750093638896942138671875" lon="20.09599163196980953216552734375">
        <ele>2018.199951171875</ele>
        <time>2026-06-19T12:52:25.000Z</time>
        <extensions>
          <ns3:TrackPointExtension>
            <ns3:atemp>25.0</ns3:atemp>
          </ns3:TrackPointExtension>
        </extensions>
      </trkpt>
      <trkpt lat="42.562729977071285247802734375" lon="20.09600915014743804931640625">
        <ele>2018.4000244140625</ele>
        <time>2026-06-19T12:52:26.000Z</time>
        <extensions>
          <ns3:TrackPointExtension>
            <ns3:atemp>25.0</ns3:atemp>
          </ns3:TrackPointExtension>
        </extensions>
      </trkpt>
      <trkpt lat="42.56272167898714542388916015625" lon="20.0960339605808258056640625">
        <ele>2018.4000244140625</ele>
        <time>2026-06-19T12:52:27.000Z</time>
        <extensions>
          <ns3:TrackPointExtension>
            <ns3:atemp>25.0</ns3:atemp>
          </ns3:TrackPointExtension>
        </extensions>
      </trkpt>
      <trkpt lat="42.56271078251302242279052734375" lon="20.0960589386522769927978515625">
        <ele>2018.4000244140625</ele>
        <time>2026-06-19T12:52:28.000Z</time>
        <extensions>
          <ns3:TrackPointExtension>
            <ns3:atemp>25.0</ns3:atemp>
          </ns3:TrackPointExtension>
        </extensions>
      </trkpt>
      <trkpt lat="42.5626999698579311370849609375" lon="20.09608752094209194183349609375">
        <ele>2018.4000244140625</ele>
        <time>2026-06-19T12:52:29.000Z</time>
        <extensions>
          <ns3:TrackPointExtension>
            <ns3:atemp>25.0</ns3:atemp>
          </ns3:TrackPointExtension>
        </extensions>
      </trkpt>
      <trkpt lat="42.56269074976444244384765625" lon="20.09610830806195735931396484375">
        <ele>2018.4000244140625</ele>
        <time>2026-06-19T12:52:30.000Z</time>
        <extensions>
          <ns3:TrackPointExtension>
            <ns3:atemp>25.0</ns3:atemp>
          </ns3:TrackPointExtension>
        </extensions>
      </trkpt>
      <trkpt lat="42.562677003443241119384765625" lon="20.0961333699524402618408203125">
        <ele>2018.4000244140625</ele>
        <time>2026-06-19T12:52:31.000Z</time>
        <extensions>
          <ns3:TrackPointExtension>
            <ns3:atemp>25.0</ns3:atemp>
          </ns3:TrackPointExtension>
        </extensions>
      </trkpt>
      <trkpt lat="42.5626573897898197174072265625" lon="20.0961615331470966339111328125">
        <ele>2018</ele>
        <time>2026-06-19T12:52:32.000Z</time>
        <extensions>
          <ns3:TrackPointExtension>
            <ns3:atemp>25.0</ns3:atemp>
          </ns3:TrackPointExtension>
        </extensions>
      </trkpt>
      <trkpt lat="42.5626282207667827606201171875" lon="20.09618617594242095947265625">
        <ele>2017.800048828125</ele>
        <time>2026-06-19T12:52:33.000Z</time>
        <extensions>
          <ns3:TrackPointExtension>
            <ns3:atemp>25.0</ns3:atemp>
          </ns3:TrackPointExtension>
        </extensions>
      </trkpt>
      <trkpt lat="42.56259812973439693450927734375" lon="20.09621165692806243896484375">
        <ele>2017.5999755859375</ele>
        <time>2026-06-19T12:52:34.000Z</time>
        <extensions>
          <ns3:TrackPointExtension>
            <ns3:atemp>25.0</ns3:atemp>
          </ns3:TrackPointExtension>
        </extensions>
      </trkpt>
      <trkpt lat="42.562579773366451263427734375" lon="20.0962423346936702728271484375">
        <ele>2017.4000244140625</ele>
        <time>2026-06-19T12:52:35.000Z</time>
        <extensions>
          <ns3:TrackPointExtension>
            <ns3:atemp>25.0</ns3:atemp>
          </ns3:TrackPointExtension>
        </extensions>
      </trkpt>
      <trkpt lat="42.56256108172237873077392578125" lon="20.0962738506495952606201171875">
        <ele>2017</ele>
        <time>2026-06-19T12:52:36.000Z</time>
        <extensions>
          <ns3:TrackPointExtension>
            <ns3:atemp>25.0</ns3:atemp>
          </ns3:TrackPointExtension>
        </extensions>
      </trkpt>
      <trkpt lat="42.56254515610635280609130859375" lon="20.09629824198782444000244140625">
        <ele>2016.5999755859375</ele>
        <time>2026-06-19T12:52:37.000Z</time>
        <extensions>
          <ns3:TrackPointExtension>
            <ns3:atemp>25.0</ns3:atemp>
          </ns3:TrackPointExtension>
        </extensions>
      </trkpt>
      <trkpt lat="42.5625251233577728271484375" lon="20.096327997744083404541015625">
        <ele>2016.4000244140625</ele>
        <time>2026-06-19T12:52:38.000Z</time>
        <extensions>
          <ns3:TrackPointExtension>
            <ns3:atemp>25.0</ns3:atemp>
          </ns3:TrackPointExtension>
        </extensions>
      </trkpt>
      <trkpt lat="42.56251414306461811065673828125" lon="20.09634979069232940673828125">
        <ele>2016.199951171875</ele>
        <time>2026-06-19T12:52:39.000Z</time>
        <extensions>
          <ns3:TrackPointExtension>
            <ns3:atemp>25.0</ns3:atemp>
          </ns3:TrackPointExtension>
        </extensions>
      </trkpt>
      <trkpt lat="42.56250877864658832550048828125" lon="20.09636714123189449310302734375">
        <ele>2016</ele>
        <time>2026-06-19T12:52:40.000Z</time>
        <extensions>
          <ns3:TrackPointExtension>
            <ns3:atemp>25.0</ns3:atemp>
          </ns3:TrackPointExtension>
        </extensions>
      </trkpt>
      <trkpt lat="42.56250056438148021697998046875" lon="20.0963844917714595794677734375">
        <ele>2015.800048828125</ele>
        <time>2026-06-19T12:52:41.000Z</time>
        <extensions>
          <ns3:TrackPointExtension>
            <ns3:atemp>25.0</ns3:atemp>
          </ns3:TrackPointExtension>
        </extensions>
      </trkpt>
      <trkpt lat="42.5624947808682918548583984375" lon="20.0964121520519256591796875">
        <ele>2015.5999755859375</ele>
        <time>2026-06-19T12:52:42.000Z</time>
        <extensions>
          <ns3:TrackPointExtension>
            <ns3:atemp>25.0</ns3:atemp>
          </ns3:TrackPointExtension>
        </extensions>
      </trkpt>
      <trkpt lat="42.5624894164502620697021484375" lon="20.09643754921853542327880859375">
        <ele>2015.4000244140625</ele>
        <time>2026-06-19T12:52:43.000Z</time>
        <extensions>
          <ns3:TrackPointExtension>
            <ns3:atemp>25.0</ns3:atemp>
          </ns3:TrackPointExtension>
        </extensions>
      </trkpt>
      <trkpt lat="42.5624770112335681915283203125" lon="20.09647191502153873443603515625">
        <ele>2015.199951171875</ele>
        <time>2026-06-19T12:52:44.000Z</time>
        <extensions>
          <ns3:TrackPointExtension>
            <ns3:atemp>25.0</ns3:atemp>
          </ns3:TrackPointExtension>
        </extensions>
      </trkpt>
      <trkpt lat="42.56247206591069698333740234375" lon="20.0964947976171970367431640625">
        <ele>2015</ele>
        <time>2026-06-19T12:52:45.000Z</time>
        <extensions>
          <ns3:TrackPointExtension>
            <ns3:atemp>25.0</ns3:atemp>
          </ns3:TrackPointExtension>
        </extensions>
      </trkpt>
      <trkpt lat="42.5624629296362400054931640625" lon="20.09652187116444110870361328125">
        <ele>2015</ele>
        <time>2026-06-19T12:52:46.000Z</time>
        <extensions>
          <ns3:TrackPointExtension>
            <ns3:atemp>25.0</ns3:atemp>
          </ns3:TrackPointExtension>
        </extensions>
      </trkpt>
      <trkpt lat="42.56245672702789306640625" lon="20.09653528220951557159423828125">
        <ele>2015</ele>
        <time>2026-06-19T12:52:47.000Z</time>
        <extensions>
          <ns3:TrackPointExtension>
            <ns3:atemp>25.0</ns3:atemp>
          </ns3:TrackPointExtension>
        </extensions>
      </trkpt>
      <trkpt lat="42.5624532066285610198974609375" lon="20.0965585000813007354736328125">
        <ele>2015.199951171875</ele>
        <time>2026-06-19T12:52:48.000Z</time>
        <extensions>
          <ns3:TrackPointExtension>
            <ns3:atemp>24.0</ns3:atemp>
          </ns3:TrackPointExtension>
        </extensions>
      </trkpt>
      <trkpt lat="42.56244775839149951934814453125" lon="20.09658121503889560699462890625">
        <ele>2015.4000244140625</ele>
        <time>2026-06-19T12:52:49.000Z</time>
        <extensions>
          <ns3:TrackPointExtension>
            <ns3:atemp>24.0</ns3:atemp>
          </ns3:TrackPointExtension>
        </extensions>
      </trkpt>
      <trkpt lat="42.562440969049930572509765625" lon="20.09660996496677398681640625">
        <ele>2015.5999755859375</ele>
        <time>2026-06-19T12:52:50.000Z</time>
        <extensions>
          <ns3:TrackPointExtension>
            <ns3:atemp>24.0</ns3:atemp>
          </ns3:TrackPointExtension>
        </extensions>
      </trkpt>
      <trkpt lat="42.562432251870632171630859375" lon="20.096636116504669189453125">
        <ele>2015.800048828125</ele>
        <time>2026-06-19T12:52:51.000Z</time>
        <extensions>
          <ns3:TrackPointExtension>
            <ns3:atemp>24.0</ns3:atemp>
          </ns3:TrackPointExtension>
        </extensions>
      </trkpt>
      <trkpt lat="42.56243082694709300994873046875" lon="20.09666754864156246185302734375">
        <ele>2015.800048828125</ele>
        <time>2026-06-19T12:52:52.000Z</time>
        <extensions>
          <ns3:TrackPointExtension>
            <ns3:atemp>24.0</ns3:atemp>
          </ns3:TrackPointExtension>
        </extensions>
      </trkpt>
      <trkpt lat="42.56242730654776096343994140625" lon="20.096697472035884857177734375">
        <ele>2016.199951171875</ele>
        <time>2026-06-19T12:52:53.000Z</time>
        <extensions>
          <ns3:TrackPointExtension>
            <ns3:atemp>24.0</ns3:atemp>
          </ns3:TrackPointExtension>
        </extensions>
      </trkpt>
      <trkpt lat="42.562418840825557708740234375" lon="20.0967288203537464141845703125">
        <ele>2016.4000244140625</ele>
        <time>2026-06-19T12:52:54.000Z</time>
        <extensions>
          <ns3:TrackPointExtension>
            <ns3:atemp>25.0</ns3:atemp>
          </ns3:TrackPointExtension>
        </extensions>
      </trkpt>
      <trkpt lat="42.5624044239521026611328125" lon="20.09675346314907073974609375">
        <ele>2016.5999755859375</ele>
        <time>2026-06-19T12:52:55.000Z</time>
        <extensions>
          <ns3:TrackPointExtension>
            <ns3:atemp>24.0</ns3:atemp>
          </ns3:TrackPointExtension>
        </extensions>
      </trkpt>
      <trkpt lat="42.56239143200218677520751953125" lon="20.0967688858509063720703125">
        <ele>2016.800048828125</ele>
        <time>2026-06-19T12:52:56.000Z</time>
        <extensions>
          <ns3:TrackPointExtension>
            <ns3:atemp>24.0</ns3:atemp>
          </ns3:TrackPointExtension>
        </extensions>
      </trkpt>
      <trkpt lat="42.5623851455748081207275390625" lon="20.09678137488663196563720703125">
        <ele>2017</ele>
        <time>2026-06-19T12:52:57.000Z</time>
        <extensions>
          <ns3:TrackPointExtension>
            <ns3:atemp>24.0</ns3:atemp>
          </ns3:TrackPointExtension>
        </extensions>
      </trkpt>
      <trkpt lat="42.56238003261387348175048828125" lon="20.09678573347628116607666015625">
        <ele>2017.199951171875</ele>
        <time>2026-06-19T12:52:58.000Z</time>
        <extensions>
          <ns3:TrackPointExtension>
            <ns3:atemp>24.0</ns3:atemp>
          </ns3:TrackPointExtension>
        </extensions>
      </trkpt>
      <trkpt lat="42.562379948794841766357421875" lon="20.0967858172953128814697265625">
        <ele>2017.5999755859375</ele>
        <time>2026-06-19T12:52:59.000Z</time>
        <extensions>
          <ns3:TrackPointExtension>
            <ns3:atemp>24.0</ns3:atemp>
          </ns3:TrackPointExtension>
        </extensions>
      </trkpt>
      <trkpt lat="42.56237030960619449615478515625" lon="20.0968032516539096832275390625">
        <ele>2017.800048828125</ele>
        <time>2026-06-19T12:53:00.000Z</time>
        <extensions>
          <ns3:TrackPointExtension>
            <ns3:atemp>24.0</ns3:atemp>
          </ns3:TrackPointExtension>
        </extensions>
      </trkpt>
      <trkpt lat="42.5623683817684650421142578125" lon="20.09681875817477703094482421875">
        <ele>2018</ele>
        <time>2026-06-19T12:53:01.000Z</time>
        <extensions>
          <ns3:TrackPointExtension>
            <ns3:atemp>24.0</ns3:atemp>
          </ns3:TrackPointExtension>
        </extensions>
      </trkpt>
      <trkpt lat="42.56236276589334011077880859375" lon="20.09683636017143726348876953125">
        <ele>2018.199951171875</ele>
        <time>2026-06-19T12:53:02.000Z</time>
        <extensions>
          <ns3:TrackPointExtension>
            <ns3:atemp>24.0</ns3:atemp>
          </ns3:TrackPointExtension>
        </extensions>
      </trkpt>
      <trkpt lat="42.562347091734409332275390625" lon="20.09685597382485866546630859375">
        <ele>2018.4000244140625</ele>
        <time>2026-06-19T12:53:03.000Z</time>
        <extensions>
          <ns3:TrackPointExtension>
            <ns3:atemp>24.0</ns3:atemp>
          </ns3:TrackPointExtension>
        </extensions>
      </trkpt>
      <trkpt lat="42.562336027622222900390625" lon="20.096873156726360321044921875">
        <ele>2018.4000244140625</ele>
        <time>2026-06-19T12:53:04.000Z</time>
        <extensions>
          <ns3:TrackPointExtension>
            <ns3:atemp>24.0</ns3:atemp>
          </ns3:TrackPointExtension>
        </extensions>
      </trkpt>
      <trkpt lat="42.56231792271137237548828125" lon="20.096889920532703399658203125">
        <ele>2018.4000244140625</ele>
        <time>2026-06-19T12:53:05.000Z</time>
        <extensions>
          <ns3:TrackPointExtension>
            <ns3:atemp>24.0</ns3:atemp>
          </ns3:TrackPointExtension>
        </extensions>
      </trkpt>
      <trkpt lat="42.56230409257113933563232421875" lon="20.09691112674772739410400390625">
        <ele>2018.199951171875</ele>
        <time>2026-06-19T12:53:06.000Z</time>
        <extensions>
          <ns3:TrackPointExtension>
            <ns3:atemp>24.0</ns3:atemp>
          </ns3:TrackPointExtension>
        </extensions>
      </trkpt>
      <trkpt lat="42.5622905977070331573486328125" lon="20.09693308733403682708740234375">
        <ele>2018.199951171875</ele>
        <time>2026-06-19T12:53:07.000Z</time>
        <extensions>
          <ns3:TrackPointExtension>
            <ns3:atemp>24.0</ns3:atemp>
          </ns3:TrackPointExtension>
        </extensions>
      </trkpt>
      <trkpt lat="42.56227006204426288604736328125" lon="20.09695865213871002197265625">
        <ele>2018.199951171875</ele>
        <time>2026-06-19T12:53:08.000Z</time>
        <extensions>
          <ns3:TrackPointExtension>
            <ns3:atemp>24.0</ns3:atemp>
          </ns3:TrackPointExtension>
        </extensions>
      </trkpt>
      <trkpt lat="42.5622493587434291839599609375" lon="20.096982456743717193603515625">
        <ele>2018.199951171875</ele>
        <time>2026-06-19T12:53:09.000Z</time>
        <extensions>
          <ns3:TrackPointExtension>
            <ns3:atemp>24.0</ns3:atemp>
          </ns3:TrackPointExtension>
        </extensions>
      </trkpt>
      <trkpt lat="42.5622329302132129669189453125" lon="20.09700483642518520355224609375">
        <ele>2018.199951171875</ele>
        <time>2026-06-19T12:53:10.000Z</time>
        <extensions>
          <ns3:TrackPointExtension>
            <ns3:atemp>24.0</ns3:atemp>
          </ns3:TrackPointExtension>
        </extensions>
      </trkpt>
      <trkpt lat="42.5622191838920116424560546875" lon="20.09702729992568492889404296875">
        <ele>2018.4000244140625</ele>
        <time>2026-06-19T12:53:11.000Z</time>
        <extensions>
          <ns3:TrackPointExtension>
            <ns3:atemp>24.0</ns3:atemp>
          </ns3:TrackPointExtension>
        </extensions>
      </trkpt>
      <trkpt lat="42.562207281589508056640625" lon="20.09705227799713611602783203125">
        <ele>2018.4000244140625</ele>
        <time>2026-06-19T12:53:12.000Z</time>
        <extensions>
          <ns3:TrackPointExtension>
            <ns3:atemp>24.0</ns3:atemp>
          </ns3:TrackPointExtension>
        </extensions>
      </trkpt>
      <trkpt lat="42.56219127215445041656494140625" lon="20.09708027355372905731201171875">
        <ele>2018.4000244140625</ele>
        <time>2026-06-19T12:53:13.000Z</time>
        <extensions>
          <ns3:TrackPointExtension>
            <ns3:atemp>24.0</ns3:atemp>
          </ns3:TrackPointExtension>
        </extensions>
      </trkpt>
      <trkpt lat="42.562173418700695037841796875" lon="20.0971106998622417449951171875">
        <ele>2018.4000244140625</ele>
        <time>2026-06-19T12:53:14.000Z</time>
        <extensions>
          <ns3:TrackPointExtension>
            <ns3:atemp>24.0</ns3:atemp>
          </ns3:TrackPointExtension>
        </extensions>
      </trkpt>
      <trkpt lat="42.56215891800820827484130859375" lon="20.0971418805420398712158203125">
        <ele>2018.5999755859375</ele>
        <time>2026-06-19T12:53:15.000Z</time>
        <extensions>
          <ns3:TrackPointExtension>
            <ns3:atemp>24.0</ns3:atemp>
          </ns3:TrackPointExtension>
        </extensions>
      </trkpt>
      <trkpt lat="42.562147937715053558349609375" lon="20.09717188775539398193359375">
        <ele>2018.5999755859375</ele>
        <time>2026-06-19T12:53:16.000Z</time>
        <extensions>
          <ns3:TrackPointExtension>
            <ns3:atemp>24.0</ns3:atemp>
          </ns3:TrackPointExtension>
        </extensions>
      </trkpt>
      <trkpt lat="42.5621390528976917266845703125" lon="20.09720499627292156219482421875">
        <ele>2018.5999755859375</ele>
        <time>2026-06-19T12:53:17.000Z</time>
        <extensions>
          <ns3:TrackPointExtension>
            <ns3:atemp>24.0</ns3:atemp>
          </ns3:TrackPointExtension>
        </extensions>
      </trkpt>
      <trkpt lat="42.5621281564235687255859375" lon="20.0972381047904491424560546875">
        <ele>2018.800048828125</ele>
        <time>2026-06-19T12:53:18.000Z</time>
        <extensions>
          <ns3:TrackPointExtension>
            <ns3:atemp>24.0</ns3:atemp>
          </ns3:TrackPointExtension>
        </extensions>
      </trkpt>
      <trkpt lat="42.5621162541210651397705078125" lon="20.09727322496473789215087890625">
        <ele>2019</ele>
        <time>2026-06-19T12:53:19.000Z</time>
        <extensions>
          <ns3:TrackPointExtension>
            <ns3:atemp>24.0</ns3:atemp>
          </ns3:TrackPointExtension>
        </extensions>
      </trkpt>
      <trkpt lat="42.562107704579830169677734375" lon="20.09730574674904346466064453125">
        <ele>2019.199951171875</ele>
        <time>2026-06-19T12:53:20.000Z</time>
        <extensions>
          <ns3:TrackPointExtension>
            <ns3:atemp>24.0</ns3:atemp>
          </ns3:TrackPointExtension>
        </extensions>
      </trkpt>
      <trkpt lat="42.56210510618984699249267578125" lon="20.09733910672366619110107421875">
        <ele>2019.199951171875</ele>
        <time>2026-06-19T12:53:21.000Z</time>
        <extensions>
          <ns3:TrackPointExtension>
            <ns3:atemp>24.0</ns3:atemp>
          </ns3:TrackPointExtension>
        </extensions>
      </trkpt>
      <trkpt lat="42.56210410036146640777587890625" lon="20.09736710228025913238525390625">
        <ele>2019.4000244140625</ele>
        <time>2026-06-19T12:53:22.000Z</time>
        <extensions>
          <ns3:TrackPointExtension>
            <ns3:atemp>24.0</ns3:atemp>
          </ns3:TrackPointExtension>
        </extensions>
      </trkpt>
      <trkpt lat="42.5621045194566249847412109375" lon="20.09739744476974010467529296875">
        <ele>2019.4000244140625</ele>
        <time>2026-06-19T12:53:23.000Z</time>
        <extensions>
          <ns3:TrackPointExtension>
            <ns3:atemp>24.0</ns3:atemp>
          </ns3:TrackPointExtension>
        </extensions>
      </trkpt>
      <trkpt lat="42.562103010714054107666015625" lon="20.09742795489728450775146484375">
        <ele>2019.5999755859375</ele>
        <time>2026-06-19T12:53:24.000Z</time>
        <extensions>
          <ns3:TrackPointExtension>
            <ns3:atemp>24.0</ns3:atemp>
          </ns3:TrackPointExtension>
        </extensions>
      </trkpt>
      <trkpt lat="42.56210259161889553070068359375" lon="20.09745628573000431060791015625">
        <ele>2019.800048828125</ele>
        <time>2026-06-19T12:53:25.000Z</time>
        <extensions>
          <ns3:TrackPointExtension>
            <ns3:atemp>24.0</ns3:atemp>
          </ns3:TrackPointExtension>
        </extensions>
      </trkpt>
      <trkpt lat="42.56210091523826122283935546875" lon="20.0974848680198192596435546875">
        <ele>2020</ele>
        <time>2026-06-19T12:53:26.000Z</time>
        <extensions>
          <ns3:TrackPointExtension>
            <ns3:atemp>24.0</ns3:atemp>
          </ns3:TrackPointExtension>
        </extensions>
      </trkpt>
      <trkpt lat="42.56210225634276866912841796875" lon="20.09751831181347370147705078125">
        <ele>2020.199951171875</ele>
        <time>2026-06-19T12:53:27.000Z</time>
        <extensions>
          <ns3:TrackPointExtension>
            <ns3:atemp>24.0</ns3:atemp>
          </ns3:TrackPointExtension>
        </extensions>
      </trkpt>
      <trkpt lat="42.5621028430759906768798828125" lon="20.0975574553012847900390625">
        <ele>2020.4000244140625</ele>
        <time>2026-06-19T12:53:28.000Z</time>
        <extensions>
          <ns3:TrackPointExtension>
            <ns3:atemp>24.0</ns3:atemp>
          </ns3:TrackPointExtension>
        </extensions>
      </trkpt>
      <trkpt lat="42.56210359744727611541748046875" lon="20.0975857861340045928955078125">
        <ele>2020.800048828125</ele>
        <time>2026-06-19T12:53:29.000Z</time>
        <extensions>
          <ns3:TrackPointExtension>
            <ns3:atemp>24.0</ns3:atemp>
          </ns3:TrackPointExtension>
        </extensions>
      </trkpt>
      <trkpt lat="42.56210108287632465362548828125" lon="20.0976176373660564422607421875">
        <ele>2021</ele>
        <time>2026-06-19T12:53:30.000Z</time>
        <extensions>
          <ns3:TrackPointExtension>
            <ns3:atemp>24.0</ns3:atemp>
          </ns3:TrackPointExtension>
        </extensions>
      </trkpt>
      <trkpt lat="42.56209789775311946868896484375" lon="20.09764420799911022186279296875">
        <ele>2021.199951171875</ele>
        <time>2026-06-19T12:53:31.000Z</time>
        <extensions>
          <ns3:TrackPointExtension>
            <ns3:atemp>24.0</ns3:atemp>
          </ns3:TrackPointExtension>
        </extensions>
      </trkpt>
      <trkpt lat="42.56209219805896282196044921875" lon="20.097677148878574371337890625">
        <ele>2021.4000244140625</ele>
        <time>2026-06-19T12:53:32.000Z</time>
        <extensions>
          <ns3:TrackPointExtension>
            <ns3:atemp>24.0</ns3:atemp>
          </ns3:TrackPointExtension>
        </extensions>
      </trkpt>
      <trkpt lat="42.56208716891705989837646484375" lon="20.0977101735770702362060546875">
        <ele>2021.4000244140625</ele>
        <time>2026-06-19T12:53:33.000Z</time>
        <extensions>
          <ns3:TrackPointExtension>
            <ns3:atemp>24.0</ns3:atemp>
          </ns3:TrackPointExtension>
        </extensions>
      </trkpt>
      <trkpt lat="42.56208247505128383636474609375" lon="20.0977410189807415008544921875">
        <ele>2021.5999755859375</ele>
        <time>2026-06-19T12:53:34.000Z</time>
        <extensions>
          <ns3:TrackPointExtension>
            <ns3:atemp>24.0</ns3:atemp>
          </ns3:TrackPointExtension>
        </extensions>
      </trkpt>
      <trkpt lat="42.56207509897649288177490234375" lon="20.09776423685252666473388671875">
        <ele>2021.5999755859375</ele>
        <time>2026-06-19T12:53:35.000Z</time>
        <extensions>
          <ns3:TrackPointExtension>
            <ns3:atemp>24.0</ns3:atemp>
          </ns3:TrackPointExtension>
        </extensions>
      </trkpt>
      <trkpt lat="42.56206981837749481201171875" lon="20.09779659099876880645751953125">
        <ele>2021.5999755859375</ele>
        <time>2026-06-19T12:53:36.000Z</time>
        <extensions>
          <ns3:TrackPointExtension>
            <ns3:atemp>24.0</ns3:atemp>
          </ns3:TrackPointExtension>
        </extensions>
      </trkpt>
      <trkpt lat="42.56206202320754528045654296875" lon="20.0978234969079494476318359375">
        <ele>2021.5999755859375</ele>
        <time>2026-06-19T12:53:37.000Z</time>
        <extensions>
          <ns3:TrackPointExtension>
            <ns3:atemp>24.0</ns3:atemp>
          </ns3:TrackPointExtension>
        </extensions>
      </trkpt>
      <trkpt lat="42.562064789235591888427734375" lon="20.0978496484458446502685546875">
        <ele>2021.800048828125</ele>
        <time>2026-06-19T12:53:38.000Z</time>
        <extensions>
          <ns3:TrackPointExtension>
            <ns3:atemp>24.0</ns3:atemp>
          </ns3:TrackPointExtension>
        </extensions>
      </trkpt>
      <trkpt lat="42.5620691478252410888671875" lon="20.09787705726921558380126953125">
        <ele>2021.800048828125</ele>
        <time>2026-06-19T12:53:39.000Z</time>
        <extensions>
          <ns3:TrackPointExtension>
            <ns3:atemp>24.0</ns3:atemp>
          </ns3:TrackPointExtension>
        </extensions>
      </trkpt>
      <trkpt lat="42.56207023747265338897705078125" lon="20.0979029573500156402587890625">
        <ele>2022</ele>
        <time>2026-06-19T12:53:40.000Z</time>
        <extensions>
          <ns3:TrackPointExtension>
            <ns3:atemp>24.0</ns3:atemp>
          </ns3:TrackPointExtension>
        </extensions>
      </trkpt>
      <trkpt lat="42.56206889636814594268798828125" lon="20.097923241555690765380859375">
        <ele>2022.199951171875</ele>
        <time>2026-06-19T12:53:41.000Z</time>
        <extensions>
          <ns3:TrackPointExtension>
            <ns3:atemp>24.0</ns3:atemp>
          </ns3:TrackPointExtension>
        </extensions>
      </trkpt>
      <trkpt lat="42.56206487305462360382080078125" lon="20.09795375168323516845703125">
        <ele>2022.199951171875</ele>
        <time>2026-06-19T12:53:42.000Z</time>
        <extensions>
          <ns3:TrackPointExtension>
            <ns3:atemp>24.0</ns3:atemp>
          </ns3:TrackPointExtension>
        </extensions>
      </trkpt>
      <trkpt lat="42.5620612688362598419189453125" lon="20.097986944019794464111328125">
        <ele>2022.199951171875</ele>
        <time>2026-06-19T12:53:43.000Z</time>
        <extensions>
          <ns3:TrackPointExtension>
            <ns3:atemp>24.0</ns3:atemp>
          </ns3:TrackPointExtension>
        </extensions>
      </trkpt>
      <trkpt lat="42.56205313839018344879150390625" lon="20.09803346358239650726318359375">
        <ele>2022.199951171875</ele>
        <time>2026-06-19T12:53:44.000Z</time>
        <extensions>
          <ns3:TrackPointExtension>
            <ns3:atemp>24.0</ns3:atemp>
          </ns3:TrackPointExtension>
        </extensions>
      </trkpt>
      <trkpt lat="42.56204299628734588623046875" lon="20.098084174096584320068359375">
        <ele>2021.800048828125</ele>
        <time>2026-06-19T12:53:45.000Z</time>
        <extensions>
          <ns3:TrackPointExtension>
            <ns3:atemp>24.0</ns3:atemp>
          </ns3:TrackPointExtension>
        </extensions>
      </trkpt>
      <trkpt lat="42.56203201599419116973876953125" lon="20.09814460761845111846923828125">
        <ele>2021.4000244140625</ele>
        <time>2026-06-19T12:53:46.000Z</time>
        <extensions>
          <ns3:TrackPointExtension>
            <ns3:atemp>24.0</ns3:atemp>
          </ns3:TrackPointExtension>
        </extensions>
      </trkpt>
      <trkpt lat="42.5620155036449432373046875" lon="20.0982119143009185791015625">
        <ele>2021</ele>
        <time>2026-06-19T12:53:47.000Z</time>
        <extensions>
          <ns3:TrackPointExtension>
            <ns3:atemp>24.0</ns3:atemp>
          </ns3:TrackPointExtension>
        </extensions>
      </trkpt>
      <trkpt lat="42.56200033240020275115966796875" lon="20.09828341193497180938720703125">
        <ele>2020.5999755859375</ele>
        <time>2026-06-19T12:53:48.000Z</time>
        <extensions>
          <ns3:TrackPointExtension>
            <ns3:atemp>24.0</ns3:atemp>
          </ns3:TrackPointExtension>
        </extensions>
      </trkpt>
      <trkpt lat="42.5619922019541263580322265625" lon="20.09835314936935901641845703125">
        <ele>2020.199951171875</ele>
        <time>2026-06-19T12:53:49.000Z</time>
        <extensions>
          <ns3:TrackPointExtension>
            <ns3:atemp>24.0</ns3:atemp>
          </ns3:TrackPointExtension>
        </extensions>
      </trkpt>
      <trkpt lat="42.56199312396347522735595703125" lon="20.09841777384281158447265625">
        <ele>2020</ele>
        <time>2026-06-19T12:53:50.000Z</time>
        <extensions>
          <ns3:TrackPointExtension>
            <ns3:atemp>24.0</ns3:atemp>
          </ns3:TrackPointExtension>
        </extensions>
      </trkpt>
      <trkpt lat="42.561998069286346435546875" lon="20.09847099892795085906982421875">
        <ele>2019.800048828125</ele>
        <time>2026-06-19T12:53:51.000Z</time>
        <extensions>
          <ns3:TrackPointExtension>
            <ns3:atemp>24.0</ns3:atemp>
          </ns3:TrackPointExtension>
        </extensions>
      </trkpt>
      <trkpt lat="42.5619999133050441741943359375" lon="20.09850821457803249359130859375">
        <ele>2019.800048828125</ele>
        <time>2026-06-19T12:53:52.000Z</time>
        <extensions>
          <ns3:TrackPointExtension>
            <ns3:atemp>24.0</ns3:atemp>
          </ns3:TrackPointExtension>
        </extensions>
      </trkpt>
      <trkpt lat="42.56200100295245647430419921875" lon="20.098545514047145843505859375">
        <ele>2019.800048828125</ele>
        <time>2026-06-19T12:53:53.000Z</time>
        <extensions>
          <ns3:TrackPointExtension>
            <ns3:atemp>24.0</ns3:atemp>
          </ns3:TrackPointExtension>
        </extensions>
      </trkpt>
      <trkpt lat="42.56200083531439304351806640625" lon="20.09858214296400547027587890625">
        <ele>2020</ele>
        <time>2026-06-19T12:53:54.000Z</time>
        <extensions>
          <ns3:TrackPointExtension>
            <ns3:atemp>24.0</ns3:atemp>
          </ns3:TrackPointExtension>
        </extensions>
      </trkpt>
      <trkpt lat="42.56199798546731472015380859375" lon="20.0986174307763576507568359375">
        <ele>2020</ele>
        <time>2026-06-19T12:53:55.000Z</time>
        <extensions>
          <ns3:TrackPointExtension>
            <ns3:atemp>24.0</ns3:atemp>
          </ns3:TrackPointExtension>
        </extensions>
      </trkpt>
      <trkpt lat="42.56198524497449398040771484375" lon="20.0986415706574916839599609375">
        <ele>2020</ele>
        <time>2026-06-19T12:53:56.000Z</time>
        <extensions>
          <ns3:TrackPointExtension>
            <ns3:atemp>24.0</ns3:atemp>
          </ns3:TrackPointExtension>
        </extensions>
      </trkpt>
      <trkpt lat="42.56197032518684864044189453125" lon="20.098665542900562286376953125">
        <ele>2020.199951171875</ele>
        <time>2026-06-19T12:53:57.000Z</time>
        <extensions>
          <ns3:TrackPointExtension>
            <ns3:atemp>24.0</ns3:atemp>
          </ns3:TrackPointExtension>
        </extensions>
      </trkpt>
      <trkpt lat="42.56195205263793468475341796875" lon="20.09869781322777271270751953125">
        <ele>2020.199951171875</ele>
        <time>2026-06-19T12:53:58.000Z</time>
        <extensions>
          <ns3:TrackPointExtension>
            <ns3:atemp>24.0</ns3:atemp>
          </ns3:TrackPointExtension>
        </extensions>
      </trkpt>
      <trkpt lat="42.5619323551654815673828125" lon="20.09873335249722003936767578125">
        <ele>2020.199951171875</ele>
        <time>2026-06-19T12:53:59.000Z</time>
        <extensions>
          <ns3:TrackPointExtension>
            <ns3:atemp>24.0</ns3:atemp>
          </ns3:TrackPointExtension>
        </extensions>
      </trkpt>
      <trkpt lat="42.56191215477883815765380859375" lon="20.09877190925180912017822265625">
        <ele>2020.199951171875</ele>
        <time>2026-06-19T12:54:00.000Z</time>
        <extensions>
          <ns3:TrackPointExtension>
            <ns3:atemp>24.0</ns3:atemp>
          </ns3:TrackPointExtension>
        </extensions>
      </trkpt>
      <trkpt lat="42.56189388222992420196533203125" lon="20.09881013073027133941650390625">
        <ele>2020.199951171875</ele>
        <time>2026-06-19T12:54:01.000Z</time>
        <extensions>
          <ns3:TrackPointExtension>
            <ns3:atemp>24.0</ns3:atemp>
          </ns3:TrackPointExtension>
        </extensions>
      </trkpt>
      <trkpt lat="42.5618768669664859771728515625" lon="20.09884499944746494293212890625">
        <ele>2020.199951171875</ele>
        <time>2026-06-19T12:54:02.000Z</time>
        <extensions>
          <ns3:TrackPointExtension>
            <ns3:atemp>24.0</ns3:atemp>
          </ns3:TrackPointExtension>
        </extensions>
      </trkpt>
      <trkpt lat="42.56186286918818950653076171875" lon="20.09887643158435821533203125">
        <ele>2020</ele>
        <time>2026-06-19T12:54:03.000Z</time>
        <extensions>
          <ns3:TrackPointExtension>
            <ns3:atemp>24.0</ns3:atemp>
          </ns3:TrackPointExtension>
        </extensions>
      </trkpt>
      <trkpt lat="42.561851553618907928466796875" lon="20.0989017449319362640380859375">
        <ele>2020</ele>
        <time>2026-06-19T12:54:04.000Z</time>
        <extensions>
          <ns3:TrackPointExtension>
            <ns3:atemp>24.0</ns3:atemp>
          </ns3:TrackPointExtension>
        </extensions>
      </trkpt>
      <trkpt lat="42.56183780729770660400390625" lon="20.09892798028886318206787109375">
        <ele>2020</ele>
        <time>2026-06-19T12:54:05.000Z</time>
        <extensions>
          <ns3:TrackPointExtension>
            <ns3:atemp>24.0</ns3:atemp>
          </ns3:TrackPointExtension>
        </extensions>
      </trkpt>
      <trkpt lat="42.56181693635880947113037109375" lon="20.09895329363644123077392578125">
        <ele>2020</ele>
        <time>2026-06-19T12:54:06.000Z</time>
        <extensions>
          <ns3:TrackPointExtension>
            <ns3:atemp>24.0</ns3:atemp>
          </ns3:TrackPointExtension>
        </extensions>
      </trkpt>
      <trkpt lat="42.56180704571306705474853515625" lon="20.09897458367049694061279296875">
        <ele>2019.800048828125</ele>
        <time>2026-06-19T12:54:07.000Z</time>
        <extensions>
          <ns3:TrackPointExtension>
            <ns3:atemp>24.0</ns3:atemp>
          </ns3:TrackPointExtension>
        </extensions>
      </trkpt>
      <trkpt lat="42.56179430522024631500244140625" lon="20.09899553842842578887939453125">
        <ele>2019.800048828125</ele>
        <time>2026-06-19T12:54:08.000Z</time>
        <extensions>
          <ns3:TrackPointExtension>
            <ns3:atemp>24.0</ns3:atemp>
          </ns3:TrackPointExtension>
        </extensions>
      </trkpt>
      <trkpt lat="42.56177821196615695953369140625" lon="20.099023617804050445556640625">
        <ele>2019.800048828125</ele>
        <time>2026-06-19T12:54:09.000Z</time>
        <extensions>
          <ns3:TrackPointExtension>
            <ns3:atemp>24.0</ns3:atemp>
          </ns3:TrackPointExtension>
        </extensions>
      </trkpt>
      <trkpt lat="42.56175993941724300384521484375" lon="20.0990559719502925872802734375">
        <ele>2019.800048828125</ele>
        <time>2026-06-19T12:54:10.000Z</time>
        <extensions>
          <ns3:TrackPointExtension>
            <ns3:atemp>24.0</ns3:atemp>
          </ns3:TrackPointExtension>
        </extensions>
      </trkpt>
      <trkpt lat="42.56174216978251934051513671875" lon="20.0990884937345981597900390625">
        <ele>2019.5999755859375</ele>
        <time>2026-06-19T12:54:11.000Z</time>
        <extensions>
          <ns3:TrackPointExtension>
            <ns3:atemp>24.0</ns3:atemp>
          </ns3:TrackPointExtension>
        </extensions>
      </trkpt>
      <trkpt lat="42.56172020919620990753173828125" lon="20.0991139747202396392822265625">
        <ele>2019.5999755859375</ele>
        <time>2026-06-19T12:54:12.000Z</time>
        <extensions>
          <ns3:TrackPointExtension>
            <ns3:atemp>24.0</ns3:atemp>
          </ns3:TrackPointExtension>
        </extensions>
      </trkpt>
      <trkpt lat="42.56169489584863185882568359375" lon="20.0991372764110565185546875">
        <ele>2019.4000244140625</ele>
        <time>2026-06-19T12:54:13.000Z</time>
        <extensions>
          <ns3:TrackPointExtension>
            <ns3:atemp>24.0</ns3:atemp>
          </ns3:TrackPointExtension>
        </extensions>
      </trkpt>
      <trkpt lat="42.5616790540516376495361328125" lon="20.0991501845419406890869140625">
        <ele>2019.4000244140625</ele>
        <time>2026-06-19T12:54:14.000Z</time>
        <extensions>
          <ns3:TrackPointExtension>
            <ns3:atemp>24.0</ns3:atemp>
          </ns3:TrackPointExtension>
        </extensions>
      </trkpt>
      <trkpt lat="42.56166857667267322540283203125" lon="20.0991614162921905517578125">
        <ele>2019.199951171875</ele>
        <time>2026-06-19T12:54:15.000Z</time>
        <extensions>
          <ns3:TrackPointExtension>
            <ns3:atemp>24.0</ns3:atemp>
          </ns3:TrackPointExtension>
        </extensions>
      </trkpt>
      <trkpt lat="42.56165868602693080902099609375" lon="20.0991853885352611541748046875">
        <ele>2019.199951171875</ele>
        <time>2026-06-19T12:54:16.000Z</time>
        <extensions>
          <ns3:TrackPointExtension>
            <ns3:atemp>24.0</ns3:atemp>
          </ns3:TrackPointExtension>
        </extensions>
      </trkpt>
      <trkpt lat="42.5616488792002201080322265625" lon="20.0992162339389324188232421875">
        <ele>2019.199951171875</ele>
        <time>2026-06-19T12:54:17.000Z</time>
        <extensions>
          <ns3:TrackPointExtension>
            <ns3:atemp>24.0</ns3:atemp>
          </ns3:TrackPointExtension>
        </extensions>
      </trkpt>
      <trkpt lat="42.561641000211238861083984375" lon="20.09925269521772861480712890625">
        <ele>2019.199951171875</ele>
        <time>2026-06-19T12:54:18.000Z</time>
        <extensions>
          <ns3:TrackPointExtension>
            <ns3:atemp>24.0</ns3:atemp>
          </ns3:TrackPointExtension>
        </extensions>
      </trkpt>
      <trkpt lat="42.5616373121738433837890625" lon="20.09929485619068145751953125">
        <ele>2019</ele>
        <time>2026-06-19T12:54:19.000Z</time>
        <extensions>
          <ns3:TrackPointExtension>
            <ns3:atemp>24.0</ns3:atemp>
          </ns3:TrackPointExtension>
        </extensions>
      </trkpt>
      <trkpt lat="42.5616260804235935211181640625" lon="20.09934288449585437774658203125">
        <ele>2018.800048828125</ele>
        <time>2026-06-19T12:54:20.000Z</time>
        <extensions>
          <ns3:TrackPointExtension>
            <ns3:atemp>24.0</ns3:atemp>
          </ns3:TrackPointExtension>
        </extensions>
      </trkpt>
      <trkpt lat="42.56161526776850223541259765625" lon="20.0993919186294078826904296875">
        <ele>2018.4000244140625</ele>
        <time>2026-06-19T12:54:21.000Z</time>
        <extensions>
          <ns3:TrackPointExtension>
            <ns3:atemp>24.0</ns3:atemp>
          </ns3:TrackPointExtension>
        </extensions>
      </trkpt>
      <trkpt lat="42.56161778233945369720458984375" lon="20.0994455628097057342529296875">
        <ele>2018</ele>
        <time>2026-06-19T12:54:22.000Z</time>
        <extensions>
          <ns3:TrackPointExtension>
            <ns3:atemp>24.0</ns3:atemp>
          </ns3:TrackPointExtension>
        </extensions>
      </trkpt>
      <trkpt lat="42.561629600822925567626953125" lon="20.09948705323040485382080078125">
        <ele>2017.4000244140625</ele>
        <time>2026-06-19T12:54:23.000Z</time>
        <extensions>
          <ns3:TrackPointExtension>
            <ns3:atemp>24.0</ns3:atemp>
          </ns3:TrackPointExtension>
        </extensions>
      </trkpt>
      <trkpt lat="42.561645694077014923095703125" lon="20.09951840154826641082763671875">
        <ele>2017.199951171875</ele>
        <time>2026-06-19T12:54:24.000Z</time>
        <extensions>
          <ns3:TrackPointExtension>
            <ns3:atemp>24.0</ns3:atemp>
          </ns3:TrackPointExtension>
        </extensions>
      </trkpt>
      <trkpt lat="42.56165675818920135498046875" lon="20.09954405017197132110595703125">
        <ele>2016.800048828125</ele>
        <time>2026-06-19T12:54:25.000Z</time>
        <extensions>
          <ns3:TrackPointExtension>
            <ns3:atemp>24.0</ns3:atemp>
          </ns3:TrackPointExtension>
        </extensions>
      </trkpt>
      <trkpt lat="42.56166455335915088653564453125" lon="20.09955595247447490692138671875">
        <ele>2016.4000244140625</ele>
        <time>2026-06-19T12:54:26.000Z</time>
        <extensions>
          <ns3:TrackPointExtension>
            <ns3:atemp>24.0</ns3:atemp>
          </ns3:TrackPointExtension>
        </extensions>
      </trkpt>
      <trkpt lat="42.56166279315948486328125" lon="20.09956064634025096893310546875">
        <ele>2016.199951171875</ele>
        <time>2026-06-19T12:54:27.000Z</time>
        <extensions>
          <ns3:TrackPointExtension>
            <ns3:atemp>24.0</ns3:atemp>
          </ns3:TrackPointExtension>
        </extensions>
      </trkpt>
      <trkpt lat="42.561665140092372894287109375" lon="20.099558047950267791748046875">
        <ele>2016</ele>
        <time>2026-06-19T12:54:28.000Z</time>
        <extensions>
          <ns3:TrackPointExtension>
            <ns3:atemp>24.0</ns3:atemp>
          </ns3:TrackPointExtension>
        </extensions>
      </trkpt>
      <trkpt lat="42.561665140092372894287109375" lon="20.099558047950267791748046875">
        <ele>2015.800048828125</ele>
        <time>2026-06-19T12:54:29.000Z</time>
        <extensions>
          <ns3:TrackPointExtension>
            <ns3:atemp>24.0</ns3:atemp>
          </ns3:TrackPointExtension>
        </extensions>
      </trkpt>
      <trkpt lat="42.561665140092372894287109375" lon="20.099558047950267791748046875">
        <ele>2015.5999755859375</ele>
        <time>2026-06-19T12:54:30.000Z</time>
        <extensions>
          <ns3:TrackPointExtension>
            <ns3:atemp>24.0</ns3:atemp>
          </ns3:TrackPointExtension>
        </extensions>
      </trkpt>
      <trkpt lat="42.561665140092372894287109375" lon="20.099558047950267791748046875">
        <ele>2015.5999755859375</ele>
        <time>2026-06-19T12:54:31.000Z</time>
        <extensions>
          <ns3:TrackPointExtension>
            <ns3:atemp>24.0</ns3:atemp>
          </ns3:TrackPointExtension>
        </extensions>
      </trkpt>
      <trkpt lat="42.561665140092372894287109375" lon="20.099558047950267791748046875">
        <ele>2015.4000244140625</ele>
        <time>2026-06-19T12:54:32.000Z</time>
        <extensions>
          <ns3:TrackPointExtension>
            <ns3:atemp>24.0</ns3:atemp>
          </ns3:TrackPointExtension>
        </extensions>
      </trkpt>
      <trkpt lat="42.561665140092372894287109375" lon="20.099558047950267791748046875">
        <ele>2015.4000244140625</ele>
        <time>2026-06-19T12:54:33.000Z</time>
        <extensions>
          <ns3:TrackPointExtension>
            <ns3:atemp>24.0</ns3:atemp>
          </ns3:TrackPointExtension>
        </extensions>
      </trkpt>
      <trkpt lat="42.561665140092372894287109375" lon="20.099558047950267791748046875">
        <ele>2015.4000244140625</ele>
        <time>2026-06-19T12:54:34.000Z</time>
        <extensions>
          <ns3:TrackPointExtension>
            <ns3:atemp>24.0</ns3:atemp>
          </ns3:TrackPointExtension>
        </extensions>
      </trkpt>
      <trkpt lat="42.561665140092372894287109375" lon="20.099558047950267791748046875">
        <ele>2015.199951171875</ele>
        <time>2026-06-19T12:54:35.000Z</time>
        <extensions>
          <ns3:TrackPointExtension>
            <ns3:atemp>24.0</ns3:atemp>
          </ns3:TrackPointExtension>
        </extensions>
      </trkpt>
      <trkpt lat="42.561665140092372894287109375" lon="20.099558047950267791748046875">
        <ele>2015</ele>
        <time>2026-06-19T12:54:36.000Z</time>
        <extensions>
          <ns3:TrackPointExtension>
            <ns3:atemp>24.0</ns3:atemp>
          </ns3:TrackPointExtension>
        </extensions>
      </trkpt>
      <trkpt lat="42.561665140092372894287109375" lon="20.099558047950267791748046875">
        <ele>2015</ele>
        <time>2026-06-19T12:54:37.000Z</time>
        <extensions>
          <ns3:TrackPointExtension>
            <ns3:atemp>24.0</ns3:atemp>
          </ns3:TrackPointExtension>
        </extensions>
      </trkpt>
      <trkpt lat="42.561665140092372894287109375" lon="20.099558047950267791748046875">
        <ele>2014.800048828125</ele>
        <time>2026-06-19T12:54:38.000Z</time>
        <extensions>
          <ns3:TrackPointExtension>
            <ns3:atemp>24.0</ns3:atemp>
          </ns3:TrackPointExtension>
        </extensions>
      </trkpt>
      <trkpt lat="42.561665140092372894287109375" lon="20.099558047950267791748046875">
        <ele>2014.800048828125</ele>
        <time>2026-06-19T12:54:39.000Z</time>
        <extensions>
          <ns3:TrackPointExtension>
            <ns3:atemp>24.0</ns3:atemp>
          </ns3:TrackPointExtension>
        </extensions>
      </trkpt>
      <trkpt lat="42.561665140092372894287109375" lon="20.099558047950267791748046875">
        <ele>2014.5999755859375</ele>
        <time>2026-06-19T12:54:40.000Z</time>
        <extensions>
          <ns3:TrackPointExtension>
            <ns3:atemp>24.0</ns3:atemp>
          </ns3:TrackPointExtension>
        </extensions>
      </trkpt>
      <trkpt lat="42.561665140092372894287109375" lon="20.099558047950267791748046875">
        <ele>2014.5999755859375</ele>
        <time>2026-06-19T12:54:41.000Z</time>
        <extensions>
          <ns3:TrackPointExtension>
            <ns3:atemp>24.0</ns3:atemp>
          </ns3:TrackPointExtension>
        </extensions>
      </trkpt>
      <trkpt lat="42.561665140092372894287109375" lon="20.099558047950267791748046875">
        <ele>2014.4000244140625</ele>
        <time>2026-06-19T12:54:42.000Z</time>
        <extensions>
          <ns3:TrackPointExtension>
            <ns3:atemp>24.0</ns3:atemp>
          </ns3:TrackPointExtension>
        </extensions>
      </trkpt>
      <trkpt lat="42.561665140092372894287109375" lon="20.099558047950267791748046875">
        <ele>2014.4000244140625</ele>
        <time>2026-06-19T12:54:43.000Z</time>
        <extensions>
          <ns3:TrackPointExtension>
            <ns3:atemp>24.0</ns3:atemp>
          </ns3:TrackPointExtension>
        </extensions>
      </trkpt>
      <trkpt lat="42.561665140092372894287109375" lon="20.099558047950267791748046875">
        <ele>2014.4000244140625</ele>
        <time>2026-06-19T12:54:44.000Z</time>
        <extensions>
          <ns3:TrackPointExtension>
            <ns3:atemp>24.0</ns3:atemp>
          </ns3:TrackPointExtension>
        </extensions>
      </trkpt>
      <trkpt lat="42.561665140092372894287109375" lon="20.099558047950267791748046875">
        <ele>2014.199951171875</ele>
        <time>2026-06-19T12:54:45.000Z</time>
        <extensions>
          <ns3:TrackPointExtension>
            <ns3:atemp>24.0</ns3:atemp>
          </ns3:TrackPointExtension>
        </extensions>
      </trkpt>
      <trkpt lat="42.561665140092372894287109375" lon="20.099558047950267791748046875">
        <ele>2014.199951171875</ele>
        <time>2026-06-19T12:54:46.000Z</time>
        <extensions>
          <ns3:TrackPointExtension>
            <ns3:atemp>24.0</ns3:atemp>
          </ns3:TrackPointExtension>
        </extensions>
      </trkpt>
      <trkpt lat="42.561665140092372894287109375" lon="20.099558047950267791748046875">
        <ele>2014.199951171875</ele>
        <time>2026-06-19T12:54:47.000Z</time>
        <extensions>
          <ns3:TrackPointExtension>
            <ns3:atemp>24.0</ns3:atemp>
          </ns3:TrackPointExtension>
        </extensions>
      </trkpt>
      <trkpt lat="42.561665140092372894287109375" lon="20.099558047950267791748046875">
        <ele>2014.199951171875</ele>
        <time>2026-06-19T12:54:48.000Z</time>
        <extensions>
          <ns3:TrackPointExtension>
            <ns3:atemp>24.0</ns3:atemp>
          </ns3:TrackPointExtension>
        </extensions>
      </trkpt>
      <trkpt lat="42.561665140092372894287109375" lon="20.099558047950267791748046875">
        <ele>2014</ele>
        <time>2026-06-19T12:54:49.000Z</time>
        <extensions>
          <ns3:TrackPointExtension>
            <ns3:atemp>24.0</ns3:atemp>
          </ns3:TrackPointExtension>
        </extensions>
      </trkpt>
      <trkpt lat="42.561665140092372894287109375" lon="20.099558047950267791748046875">
        <ele>2014</ele>
        <time>2026-06-19T12:54:50.000Z</time>
        <extensions>
          <ns3:TrackPointExtension>
            <ns3:atemp>24.0</ns3:atemp>
          </ns3:TrackPointExtension>
        </extensions>
      </trkpt>
      <trkpt lat="42.561665140092372894287109375" lon="20.099558047950267791748046875">
        <ele>2014</ele>
        <time>2026-06-19T12:54:51.000Z</time>
        <extensions>
          <ns3:TrackPointExtension>
            <ns3:atemp>24.0</ns3:atemp>
          </ns3:TrackPointExtension>
        </extensions>
      </trkpt>
      <trkpt lat="42.561665140092372894287109375" lon="20.099558047950267791748046875">
        <ele>2014</ele>
        <time>2026-06-19T12:54:52.000Z</time>
        <extensions>
          <ns3:TrackPointExtension>
            <ns3:atemp>24.0</ns3:atemp>
          </ns3:TrackPointExtension>
        </extensions>
      </trkpt>
      <trkpt lat="42.561665140092372894287109375" lon="20.099558047950267791748046875">
        <ele>2014</ele>
        <time>2026-06-19T12:54:53.000Z</time>
        <extensions>
          <ns3:TrackPointExtension>
            <ns3:atemp>24.0</ns3:atemp>
          </ns3:TrackPointExtension>
        </extensions>
      </trkpt>
      <trkpt lat="42.561665810644626617431640625" lon="20.09956148453056812286376953125">
        <ele>2013.800048828125</ele>
        <time>2026-06-19T12:54:54.000Z</time>
        <extensions>
          <ns3:TrackPointExtension>
            <ns3:atemp>24.0</ns3:atemp>
          </ns3:TrackPointExtension>
        </extensions>
      </trkpt>
      <trkpt lat="42.5616810657083988189697265625" lon="20.09958294220268726348876953125">
        <ele>2013.800048828125</ele>
        <time>2026-06-19T12:54:55.000Z</time>
        <extensions>
          <ns3:TrackPointExtension>
            <ns3:atemp>24.0</ns3:atemp>
          </ns3:TrackPointExtension>
        </extensions>
      </trkpt>
      <trkpt lat="42.56168416701257228851318359375" lon="20.09958847425878047943115234375">
        <ele>2013.5999755859375</ele>
        <time>2026-06-19T12:54:56.000Z</time>
        <extensions>
          <ns3:TrackPointExtension>
            <ns3:atemp>24.0</ns3:atemp>
          </ns3:TrackPointExtension>
        </extensions>
      </trkpt>
      <trkpt lat="42.561693973839282989501953125" lon="20.0995937548577785491943359375">
        <ele>2013.5999755859375</ele>
        <time>2026-06-19T12:54:57.000Z</time>
        <extensions>
          <ns3:TrackPointExtension>
            <ns3:atemp>24.0</ns3:atemp>
          </ns3:TrackPointExtension>
        </extensions>
      </trkpt>
      <trkpt lat="42.56169238127768039703369140625" lon="20.09959333576261997222900390625">
        <ele>2013.5999755859375</ele>
        <time>2026-06-19T12:54:58.000Z</time>
        <extensions>
          <ns3:TrackPointExtension>
            <ns3:atemp>24.0</ns3:atemp>
          </ns3:TrackPointExtension>
        </extensions>
      </trkpt>
      <trkpt lat="42.56169238127768039703369140625" lon="20.09959350340068340301513671875">
        <ele>2013.4000244140625</ele>
        <time>2026-06-19T12:54:59.000Z</time>
        <extensions>
          <ns3:TrackPointExtension>
            <ns3:atemp>24.0</ns3:atemp>
          </ns3:TrackPointExtension>
        </extensions>
      </trkpt>
      <trkpt lat="42.5616924650967121124267578125" lon="20.09959367103874683380126953125">
        <ele>2013.4000244140625</ele>
        <time>2026-06-19T12:55:00.000Z</time>
        <extensions>
          <ns3:TrackPointExtension>
            <ns3:atemp>24.0</ns3:atemp>
          </ns3:TrackPointExtension>
        </extensions>
      </trkpt>
      <trkpt lat="42.5617068819701671600341796875" lon="20.09961127303540706634521484375">
        <ele>2013.4000244140625</ele>
        <time>2026-06-19T12:55:01.000Z</time>
        <extensions>
          <ns3:TrackPointExtension>
            <ns3:atemp>24.0</ns3:atemp>
          </ns3:TrackPointExtension>
        </extensions>
      </trkpt>
      <trkpt lat="42.56172372959554195404052734375" lon="20.0996138714253902435302734375">
        <ele>2013.199951171875</ele>
        <time>2026-06-19T12:55:02.000Z</time>
        <extensions>
          <ns3:TrackPointExtension>
            <ns3:atemp>24.0</ns3:atemp>
          </ns3:TrackPointExtension>
        </extensions>
      </trkpt>
      <trkpt lat="42.56174921058118343353271484375" lon="20.0996242649853229522705078125">
        <ele>2013</ele>
        <time>2026-06-19T12:55:03.000Z</time>
        <extensions>
          <ns3:TrackPointExtension>
            <ns3:atemp>24.0</ns3:atemp>
          </ns3:TrackPointExtension>
        </extensions>
      </trkpt>
      <trkpt lat="42.56176060996949672698974609375" lon="20.09963641874492168426513671875">
        <ele>2012.800048828125</ele>
        <time>2026-06-19T12:55:04.000Z</time>
        <extensions>
          <ns3:TrackPointExtension>
            <ns3:atemp>24.0</ns3:atemp>
          </ns3:TrackPointExtension>
        </extensions>
      </trkpt>
      <trkpt lat="42.561767734587192535400390625" lon="20.09965100325644016265869140625">
        <ele>2012.4000244140625</ele>
        <time>2026-06-19T12:55:05.000Z</time>
        <extensions>
          <ns3:TrackPointExtension>
            <ns3:atemp>24.0</ns3:atemp>
          </ns3:TrackPointExtension>
        </extensions>
      </trkpt>
      <trkpt lat="42.5617816485464572906494140625" lon="20.099664665758609771728515625">
        <ele>2012.199951171875</ele>
        <time>2026-06-19T12:55:06.000Z</time>
        <extensions>
          <ns3:TrackPointExtension>
            <ns3:atemp>24.0</ns3:atemp>
          </ns3:TrackPointExtension>
        </extensions>
      </trkpt>
      <trkpt lat="42.56179883144795894622802734375" lon="20.09968570433557033538818359375">
        <ele>2011.800048828125</ele>
        <time>2026-06-19T12:55:07.000Z</time>
        <extensions>
          <ns3:TrackPointExtension>
            <ns3:atemp>24.0</ns3:atemp>
          </ns3:TrackPointExtension>
        </extensions>
      </trkpt>
      <trkpt lat="42.5618155114352703094482421875" lon="20.09969609789550304412841796875">
        <ele>2011.4000244140625</ele>
        <time>2026-06-19T12:55:08.000Z</time>
        <extensions>
          <ns3:TrackPointExtension>
            <ns3:atemp>24.0</ns3:atemp>
          </ns3:TrackPointExtension>
        </extensions>
      </trkpt>
      <trkpt lat="42.56182515062391757965087890625" lon="20.099712945520877838134765625">
        <ele>2011</ele>
        <time>2026-06-19T12:55:09.000Z</time>
        <extensions>
          <ns3:TrackPointExtension>
            <ns3:atemp>24.0</ns3:atemp>
          </ns3:TrackPointExtension>
        </extensions>
      </trkpt>
      <trkpt lat="42.5618262402713298797607421875" lon="20.09972744621336460113525390625">
        <ele>2010.5999755859375</ele>
        <time>2026-06-19T12:55:10.000Z</time>
        <extensions>
          <ns3:TrackPointExtension>
            <ns3:atemp>24.0</ns3:atemp>
          </ns3:TrackPointExtension>
        </extensions>
      </trkpt>
      <trkpt lat="42.56182062439620494842529296875" lon="20.0997392646968364715576171875">
        <ele>2010</ele>
        <time>2026-06-19T12:55:11.000Z</time>
        <extensions>
          <ns3:TrackPointExtension>
            <ns3:atemp>24.0</ns3:atemp>
          </ns3:TrackPointExtension>
        </extensions>
      </trkpt>
      <trkpt lat="42.5618121586740016937255859375" lon="20.09975024498999118804931640625">
        <ele>2009.5999755859375</ele>
        <time>2026-06-19T12:55:12.000Z</time>
        <extensions>
          <ns3:TrackPointExtension>
            <ns3:atemp>24.0</ns3:atemp>
          </ns3:TrackPointExtension>
        </extensions>
      </trkpt>
      <trkpt lat="42.56180486641824245452880859375" lon="20.0997553579509258270263671875">
        <ele>2009.199951171875</ele>
        <time>2026-06-19T12:55:13.000Z</time>
        <extensions>
          <ns3:TrackPointExtension>
            <ns3:atemp>23.0</ns3:atemp>
          </ns3:TrackPointExtension>
        </extensions>
      </trkpt>
      <trkpt lat="42.56180386058986186981201171875" lon="20.0997540168464183807373046875">
        <ele>2009</ele>
        <time>2026-06-19T12:55:14.000Z</time>
        <extensions>
          <ns3:TrackPointExtension>
            <ns3:atemp>23.0</ns3:atemp>
          </ns3:TrackPointExtension>
        </extensions>
      </trkpt>
      <trkpt lat="42.561802603304386138916015625" lon="20.0997533462941646575927734375">
        <ele>2008.800048828125</ele>
        <time>2026-06-19T12:55:15.000Z</time>
        <extensions>
          <ns3:TrackPointExtension>
            <ns3:atemp>23.0</ns3:atemp>
          </ns3:TrackPointExtension>
        </extensions>
      </trkpt>
      <trkpt lat="42.56180268712341785430908203125" lon="20.09975326247513294219970703125">
        <ele>2008.5999755859375</ele>
        <time>2026-06-19T12:55:16.000Z</time>
        <extensions>
          <ns3:TrackPointExtension>
            <ns3:atemp>23.0</ns3:atemp>
          </ns3:TrackPointExtension>
        </extensions>
      </trkpt>
      <trkpt lat="42.5618027709424495697021484375" lon="20.09975309483706951141357421875">
        <ele>2008.4000244140625</ele>
        <time>2026-06-19T12:55:17.000Z</time>
        <extensions>
          <ns3:TrackPointExtension>
            <ns3:atemp>23.0</ns3:atemp>
          </ns3:TrackPointExtension>
        </extensions>
      </trkpt>
      <trkpt lat="42.561807967722415924072265625" lon="20.0997446291148662567138671875">
        <ele>2008.199951171875</ele>
        <time>2026-06-19T12:55:18.000Z</time>
        <extensions>
          <ns3:TrackPointExtension>
            <ns3:atemp>23.0</ns3:atemp>
          </ns3:TrackPointExtension>
        </extensions>
      </trkpt>
      <trkpt lat="42.56180939264595508575439453125" lon="20.09974303655326366424560546875">
        <ele>2008.199951171875</ele>
        <time>2026-06-19T12:55:19.000Z</time>
        <extensions>
          <ns3:TrackPointExtension>
            <ns3:atemp>23.0</ns3:atemp>
          </ns3:TrackPointExtension>
        </extensions>
      </trkpt>
      <trkpt lat="42.56180805154144763946533203125" lon="20.09973867796361446380615234375">
        <ele>2008.199951171875</ele>
        <time>2026-06-19T12:55:20.000Z</time>
        <extensions>
          <ns3:TrackPointExtension>
            <ns3:atemp>23.0</ns3:atemp>
          </ns3:TrackPointExtension>
        </extensions>
      </trkpt>
      <trkpt lat="42.56179832853376865386962890625" lon="20.09973599575459957122802734375">
        <ele>2008.4000244140625</ele>
        <time>2026-06-19T12:55:21.000Z</time>
        <extensions>
          <ns3:TrackPointExtension>
            <ns3:atemp>23.0</ns3:atemp>
          </ns3:TrackPointExtension>
        </extensions>
      </trkpt>
      <trkpt lat="42.56179363466799259185791015625" lon="20.09973633103072643280029296875">
        <ele>2008.4000244140625</ele>
        <time>2026-06-19T12:55:22.000Z</time>
        <extensions>
          <ns3:TrackPointExtension>
            <ns3:atemp>23.0</ns3:atemp>
          </ns3:TrackPointExtension>
        </extensions>
      </trkpt>
      <trkpt lat="42.56179363466799259185791015625" lon="20.099736414849758148193359375">
        <ele>2008.4000244140625</ele>
        <time>2026-06-19T12:55:23.000Z</time>
        <extensions>
          <ns3:TrackPointExtension>
            <ns3:atemp>23.0</ns3:atemp>
          </ns3:TrackPointExtension>
        </extensions>
      </trkpt>
      <trkpt lat="42.561789192259311676025390625" lon="20.09973867796361446380615234375">
        <ele>2008.4000244140625</ele>
        <time>2026-06-19T12:55:24.000Z</time>
        <extensions>
          <ns3:TrackPointExtension>
            <ns3:atemp>23.0</ns3:atemp>
          </ns3:TrackPointExtension>
        </extensions>
      </trkpt>
      <trkpt lat="42.56178156472742557525634765625" lon="20.0997345708310604095458984375">
        <ele>2008.199951171875</ele>
        <time>2026-06-19T12:55:25.000Z</time>
        <extensions>
          <ns3:TrackPointExtension>
            <ns3:atemp>23.0</ns3:atemp>
          </ns3:TrackPointExtension>
        </extensions>
      </trkpt>
      <trkpt lat="42.56177879869937896728515625" lon="20.0997328944504261016845703125">
        <ele>2008.199951171875</ele>
        <time>2026-06-19T12:55:26.000Z</time>
        <extensions>
          <ns3:TrackPointExtension>
            <ns3:atemp>23.0</ns3:atemp>
          </ns3:TrackPointExtension>
        </extensions>
      </trkpt>
      <trkpt lat="42.56177879869937896728515625" lon="20.0997328944504261016845703125">
        <ele>2008.199951171875</ele>
        <time>2026-06-19T12:55:27.000Z</time>
        <extensions>
          <ns3:TrackPointExtension>
            <ns3:atemp>23.0</ns3:atemp>
          </ns3:TrackPointExtension>
        </extensions>
      </trkpt>
      <trkpt lat="42.56177879869937896728515625" lon="20.09973264299333095550537109375">
        <ele>2008.199951171875</ele>
        <time>2026-06-19T12:55:28.000Z</time>
        <extensions>
          <ns3:TrackPointExtension>
            <ns3:atemp>23.0</ns3:atemp>
          </ns3:TrackPointExtension>
        </extensions>
      </trkpt>
      <trkpt lat="42.56176312454044818878173828125" lon="20.0997218303382396697998046875">
        <ele>2008</ele>
        <time>2026-06-19T12:55:29.000Z</time>
        <extensions>
          <ns3:TrackPointExtension>
            <ns3:atemp>23.0</ns3:atemp>
          </ns3:TrackPointExtension>
        </extensions>
      </trkpt>
      <trkpt lat="42.56174795329570770263671875" lon="20.099714286625385284423828125">
        <ele>2008</ele>
        <time>2026-06-19T12:55:30.000Z</time>
        <extensions>
          <ns3:TrackPointExtension>
            <ns3:atemp>23.0</ns3:atemp>
          </ns3:TrackPointExtension>
        </extensions>
      </trkpt>
      <trkpt lat="42.56172657944262027740478515625" lon="20.099718309938907623291015625">
        <ele>2007.800048828125</ele>
        <time>2026-06-19T12:55:31.000Z</time>
        <extensions>
          <ns3:TrackPointExtension>
            <ns3:atemp>23.0</ns3:atemp>
          </ns3:TrackPointExtension>
        </extensions>
      </trkpt>
      <trkpt lat="42.56170143373310565948486328125" lon="20.09973029606044292449951171875">
        <ele>2007.5999755859375</ele>
        <time>2026-06-19T12:55:32.000Z</time>
        <extensions>
          <ns3:TrackPointExtension>
            <ns3:atemp>23.0</ns3:atemp>
          </ns3:TrackPointExtension>
        </extensions>
      </trkpt>
      <trkpt lat="42.56167729385197162628173828125" lon="20.09973281063139438629150390625">
        <ele>2007.199951171875</ele>
        <time>2026-06-19T12:55:33.000Z</time>
        <extensions>
          <ns3:TrackPointExtension>
            <ns3:atemp>23.0</ns3:atemp>
          </ns3:TrackPointExtension>
        </extensions>
      </trkpt>
      <trkpt lat="42.561661787331104278564453125" lon="20.09972727857530117034912109375">
        <ele>2006.800048828125</ele>
        <time>2026-06-19T12:55:34.000Z</time>
        <extensions>
          <ns3:TrackPointExtension>
            <ns3:atemp>23.0</ns3:atemp>
          </ns3:TrackPointExtension>
        </extensions>
      </trkpt>
      <trkpt lat="42.561652399599552154541015625" lon="20.09972509928047657012939453125">
        <ele>2006.4000244140625</ele>
        <time>2026-06-19T12:55:35.000Z</time>
        <extensions>
          <ns3:TrackPointExtension>
            <ns3:atemp>23.0</ns3:atemp>
          </ns3:TrackPointExtension>
        </extensions>
      </trkpt>
      <trkpt lat="42.561638653278350830078125" lon="20.099725015461444854736328125">
        <ele>2006</ele>
        <time>2026-06-19T12:55:36.000Z</time>
        <extensions>
          <ns3:TrackPointExtension>
            <ns3:atemp>23.0</ns3:atemp>
          </ns3:TrackPointExtension>
        </extensions>
      </trkpt>
      <trkpt lat="42.56162180565297603607177734375" lon="20.09973607957363128662109375">
        <ele>2005.5999755859375</ele>
        <time>2026-06-19T12:55:37.000Z</time>
        <extensions>
          <ns3:TrackPointExtension>
            <ns3:atemp>23.0</ns3:atemp>
          </ns3:TrackPointExtension>
        </extensions>
      </trkpt>
      <trkpt lat="42.56159749813377857208251953125" lon="20.0997488200664520263671875">
        <ele>2005.199951171875</ele>
        <time>2026-06-19T12:55:38.000Z</time>
        <extensions>
          <ns3:TrackPointExtension>
            <ns3:atemp>23.0</ns3:atemp>
          </ns3:TrackPointExtension>
        </extensions>
      </trkpt>
      <trkpt lat="42.5615784712135791778564453125" lon="20.09975460357964038848876953125">
        <ele>2004.4000244140625</ele>
        <time>2026-06-19T12:55:39.000Z</time>
        <extensions>
          <ns3:TrackPointExtension>
            <ns3:atemp>23.0</ns3:atemp>
          </ns3:TrackPointExtension>
        </extensions>
      </trkpt>
      <trkpt lat="42.56155550479888916015625" lon="20.09975896216928958892822265625">
        <ele>2003.800048828125</ele>
        <time>2026-06-19T12:55:40.000Z</time>
        <extensions>
          <ns3:TrackPointExtension>
            <ns3:atemp>23.0</ns3:atemp>
          </ns3:TrackPointExtension>
        </extensions>
      </trkpt>
      <trkpt lat="42.56153337657451629638671875" lon="20.0997701101005077362060546875">
        <ele>2003.199951171875</ele>
        <time>2026-06-19T12:55:41.000Z</time>
        <extensions>
          <ns3:TrackPointExtension>
            <ns3:atemp>23.0</ns3:atemp>
          </ns3:TrackPointExtension>
        </extensions>
      </trkpt>
      <trkpt lat="42.56151703186333179473876953125" lon="20.0997731275856494903564453125">
        <ele>2002.5999755859375</ele>
        <time>2026-06-19T12:55:42.000Z</time>
        <extensions>
          <ns3:TrackPointExtension>
            <ns3:atemp>23.0</ns3:atemp>
          </ns3:TrackPointExtension>
        </extensions>
      </trkpt>
      <trkpt lat="42.561509907245635986328125" lon="20.0997729599475860595703125">
        <ele>2002</ele>
        <time>2026-06-19T12:55:43.000Z</time>
        <extensions>
          <ns3:TrackPointExtension>
            <ns3:atemp>23.0</ns3:atemp>
          </ns3:TrackPointExtension>
        </extensions>
      </trkpt>
      <trkpt lat="42.56151183508336544036865234375" lon="20.09977036155760288238525390625">
        <ele>2001.5999755859375</ele>
        <time>2026-06-19T12:55:44.000Z</time>
        <extensions>
          <ns3:TrackPointExtension>
            <ns3:atemp>23.0</ns3:atemp>
          </ns3:TrackPointExtension>
        </extensions>
      </trkpt>
      <trkpt lat="42.56151183508336544036865234375" lon="20.09977036155760288238525390625">
        <ele>2001.199951171875</ele>
        <time>2026-06-19T12:55:45.000Z</time>
        <extensions>
          <ns3:TrackPointExtension>
            <ns3:atemp>23.0</ns3:atemp>
          </ns3:TrackPointExtension>
        </extensions>
      </trkpt>
      <trkpt lat="42.56151183508336544036865234375" lon="20.09977036155760288238525390625">
        <ele>2001</ele>
        <time>2026-06-19T12:55:46.000Z</time>
        <extensions>
          <ns3:TrackPointExtension>
            <ns3:atemp>23.0</ns3:atemp>
          </ns3:TrackPointExtension>
        </extensions>
      </trkpt>
      <trkpt lat="42.56151183508336544036865234375" lon="20.09977036155760288238525390625">
        <ele>2000.800048828125</ele>
        <time>2026-06-19T12:55:47.000Z</time>
        <extensions>
          <ns3:TrackPointExtension>
            <ns3:atemp>23.0</ns3:atemp>
          </ns3:TrackPointExtension>
        </extensions>
      </trkpt>
      <trkpt lat="42.56151183508336544036865234375" lon="20.09977036155760288238525390625">
        <ele>2000.5999755859375</ele>
        <time>2026-06-19T12:55:48.000Z</time>
        <extensions>
          <ns3:TrackPointExtension>
            <ns3:atemp>23.0</ns3:atemp>
          </ns3:TrackPointExtension>
        </extensions>
      </trkpt>
      <trkpt lat="42.56151183508336544036865234375" lon="20.09977036155760288238525390625">
        <ele>2000.199951171875</ele>
        <time>2026-06-19T12:55:49.000Z</time>
        <extensions>
          <ns3:TrackPointExtension>
            <ns3:atemp>23.0</ns3:atemp>
          </ns3:TrackPointExtension>
        </extensions>
      </trkpt>
      <trkpt lat="42.56151183508336544036865234375" lon="20.09977036155760288238525390625">
        <ele>2000.199951171875</ele>
        <time>2026-06-19T12:55:50.000Z</time>
        <extensions>
          <ns3:TrackPointExtension>
            <ns3:atemp>23.0</ns3:atemp>
          </ns3:TrackPointExtension>
        </extensions>
      </trkpt>
      <trkpt lat="42.56151183508336544036865234375" lon="20.09977036155760288238525390625">
        <ele>2000</ele>
        <time>2026-06-19T12:55:51.000Z</time>
        <extensions>
          <ns3:TrackPointExtension>
            <ns3:atemp>23.0</ns3:atemp>
          </ns3:TrackPointExtension>
        </extensions>
      </trkpt>
      <trkpt lat="42.56151183508336544036865234375" lon="20.09977036155760288238525390625">
        <ele>1999.800048828125</ele>
        <time>2026-06-19T12:55:52.000Z</time>
        <extensions>
          <ns3:TrackPointExtension>
            <ns3:atemp>23.0</ns3:atemp>
          </ns3:TrackPointExtension>
        </extensions>
      </trkpt>
      <trkpt lat="42.56151183508336544036865234375" lon="20.09977036155760288238525390625">
        <ele>1999.800048828125</ele>
        <time>2026-06-19T12:55:53.000Z</time>
        <extensions>
          <ns3:TrackPointExtension>
            <ns3:atemp>23.0</ns3:atemp>
          </ns3:TrackPointExtension>
        </extensions>
      </trkpt>
      <trkpt lat="42.56151183508336544036865234375" lon="20.09977036155760288238525390625">
        <ele>1999.800048828125</ele>
        <time>2026-06-19T12:55:54.000Z</time>
        <extensions>
          <ns3:TrackPointExtension>
            <ns3:atemp>23.0</ns3:atemp>
          </ns3:TrackPointExtension>
        </extensions>
      </trkpt>
      <trkpt lat="42.56151183508336544036865234375" lon="20.09977036155760288238525390625">
        <ele>1999.800048828125</ele>
        <time>2026-06-19T12:55:55.000Z</time>
        <extensions>
          <ns3:TrackPointExtension>
            <ns3:atemp>23.0</ns3:atemp>
          </ns3:TrackPointExtension>
        </extensions>
      </trkpt>
      <trkpt lat="42.56151183508336544036865234375" lon="20.09977036155760288238525390625">
        <ele>1999.5999755859375</ele>
        <time>2026-06-19T12:55:56.000Z</time>
        <extensions>
          <ns3:TrackPointExtension>
            <ns3:atemp>23.0</ns3:atemp>
          </ns3:TrackPointExtension>
        </extensions>
      </trkpt>
      <trkpt lat="42.56151183508336544036865234375" lon="20.09977036155760288238525390625">
        <ele>1999.5999755859375</ele>
        <time>2026-06-19T12:55:57.000Z</time>
        <extensions>
          <ns3:TrackPointExtension>
            <ns3:atemp>23.0</ns3:atemp>
          </ns3:TrackPointExtension>
        </extensions>
      </trkpt>
      <trkpt lat="42.56151183508336544036865234375" lon="20.09977036155760288238525390625">
        <ele>1999.4000244140625</ele>
        <time>2026-06-19T12:55:58.000Z</time>
        <extensions>
          <ns3:TrackPointExtension>
            <ns3:atemp>23.0</ns3:atemp>
          </ns3:TrackPointExtension>
        </extensions>
      </trkpt>
      <trkpt lat="42.56151183508336544036865234375" lon="20.09977036155760288238525390625">
        <ele>1999.199951171875</ele>
        <time>2026-06-19T12:55:59.000Z</time>
        <extensions>
          <ns3:TrackPointExtension>
            <ns3:atemp>23.0</ns3:atemp>
          </ns3:TrackPointExtension>
        </extensions>
      </trkpt>
      <trkpt lat="42.56151183508336544036865234375" lon="20.09977036155760288238525390625">
        <ele>1999.199951171875</ele>
        <time>2026-06-19T12:56:00.000Z</time>
        <extensions>
          <ns3:TrackPointExtension>
            <ns3:atemp>23.0</ns3:atemp>
          </ns3:TrackPointExtension>
        </extensions>
      </trkpt>
      <trkpt lat="42.56151183508336544036865234375" lon="20.09977036155760288238525390625">
        <ele>1999.199951171875</ele>
        <time>2026-06-19T12:56:01.000Z</time>
        <extensions>
          <ns3:TrackPointExtension>
            <ns3:atemp>23.0</ns3:atemp>
          </ns3:TrackPointExtension>
        </extensions>
      </trkpt>
      <trkpt lat="42.56151183508336544036865234375" lon="20.09977036155760288238525390625">
        <ele>1999.199951171875</ele>
        <time>2026-06-19T12:56:02.000Z</time>
        <extensions>
          <ns3:TrackPointExtension>
            <ns3:atemp>23.0</ns3:atemp>
          </ns3:TrackPointExtension>
        </extensions>
      </trkpt>
      <trkpt lat="42.56151183508336544036865234375" lon="20.09977036155760288238525390625">
        <ele>1999.199951171875</ele>
        <time>2026-06-19T12:56:03.000Z</time>
        <extensions>
          <ns3:TrackPointExtension>
            <ns3:atemp>23.0</ns3:atemp>
          </ns3:TrackPointExtension>
        </extensions>
      </trkpt>
      <trkpt lat="42.56151183508336544036865234375" lon="20.09977036155760288238525390625">
        <ele>1999.199951171875</ele>
        <time>2026-06-19T12:56:04.000Z</time>
        <extensions>
          <ns3:TrackPointExtension>
            <ns3:atemp>23.0</ns3:atemp>
          </ns3:TrackPointExtension>
        </extensions>
      </trkpt>
      <trkpt lat="42.56151183508336544036865234375" lon="20.09977036155760288238525390625">
        <ele>1999</ele>
        <time>2026-06-19T12:56:05.000Z</time>
        <extensions>
          <ns3:TrackPointExtension>
            <ns3:atemp>23.0</ns3:atemp>
          </ns3:TrackPointExtension>
        </extensions>
      </trkpt>
      <trkpt lat="42.56151183508336544036865234375" lon="20.09977036155760288238525390625">
        <ele>1999</ele>
        <time>2026-06-19T12:56:06.000Z</time>
        <extensions>
          <ns3:TrackPointExtension>
            <ns3:atemp>23.0</ns3:atemp>
          </ns3:TrackPointExtension>
        </extensions>
      </trkpt>
      <trkpt lat="42.56151183508336544036865234375" lon="20.09977036155760288238525390625">
        <ele>1999</ele>
        <time>2026-06-19T12:56:07.000Z</time>
        <extensions>
          <ns3:TrackPointExtension>
            <ns3:atemp>23.0</ns3:atemp>
          </ns3:TrackPointExtension>
        </extensions>
      </trkpt>
      <trkpt lat="42.56151183508336544036865234375" lon="20.09977036155760288238525390625">
        <ele>1999</ele>
        <time>2026-06-19T12:56:08.000Z</time>
        <extensions>
          <ns3:TrackPointExtension>
            <ns3:atemp>23.0</ns3:atemp>
          </ns3:TrackPointExtension>
        </extensions>
      </trkpt>
      <trkpt lat="42.56151183508336544036865234375" lon="20.09977036155760288238525390625">
        <ele>1999</ele>
        <time>2026-06-19T12:56:09.000Z</time>
        <extensions>
          <ns3:TrackPointExtension>
            <ns3:atemp>23.0</ns3:atemp>
          </ns3:TrackPointExtension>
        </extensions>
      </trkpt>
      <trkpt lat="42.56151183508336544036865234375" lon="20.09977036155760288238525390625">
        <ele>1998.800048828125</ele>
        <time>2026-06-19T12:56:10.000Z</time>
        <extensions>
          <ns3:TrackPointExtension>
            <ns3:atemp>23.0</ns3:atemp>
          </ns3:TrackPointExtension>
        </extensions>
      </trkpt>
      <trkpt lat="42.56151183508336544036865234375" lon="20.09977036155760288238525390625">
        <ele>1998.800048828125</ele>
        <time>2026-06-19T12:56:11.000Z</time>
        <extensions>
          <ns3:TrackPointExtension>
            <ns3:atemp>23.0</ns3:atemp>
          </ns3:TrackPointExtension>
        </extensions>
      </trkpt>
      <trkpt lat="42.56151183508336544036865234375" lon="20.09977036155760288238525390625">
        <ele>1998.800048828125</ele>
        <time>2026-06-19T12:56:12.000Z</time>
        <extensions>
          <ns3:TrackPointExtension>
            <ns3:atemp>23.0</ns3:atemp>
          </ns3:TrackPointExtension>
        </extensions>
      </trkpt>
      <trkpt lat="42.56151183508336544036865234375" lon="20.09977036155760288238525390625">
        <ele>1998.800048828125</ele>
        <time>2026-06-19T12:56:13.000Z</time>
        <extensions>
          <ns3:TrackPointExtension>
            <ns3:atemp>23.0</ns3:atemp>
          </ns3:TrackPointExtension>
        </extensions>
      </trkpt>
      <trkpt lat="42.56151183508336544036865234375" lon="20.09977036155760288238525390625">
        <ele>1998.800048828125</ele>
        <time>2026-06-19T12:56:14.000Z</time>
        <extensions>
          <ns3:TrackPointExtension>
            <ns3:atemp>23.0</ns3:atemp>
          </ns3:TrackPointExtension>
        </extensions>
      </trkpt>
      <trkpt lat="42.56151183508336544036865234375" lon="20.09977036155760288238525390625">
        <ele>1998.800048828125</ele>
        <time>2026-06-19T12:56:15.000Z</time>
        <extensions>
          <ns3:TrackPointExtension>
            <ns3:atemp>23.0</ns3:atemp>
          </ns3:TrackPointExtension>
        </extensions>
      </trkpt>
      <trkpt lat="42.56151183508336544036865234375" lon="20.09977036155760288238525390625">
        <ele>1999</ele>
        <time>2026-06-19T12:56:16.000Z</time>
        <extensions>
          <ns3:TrackPointExtension>
            <ns3:atemp>23.0</ns3:atemp>
          </ns3:TrackPointExtension>
        </extensions>
      </trkpt>
      <trkpt lat="42.56151183508336544036865234375" lon="20.09977036155760288238525390625">
        <ele>1999</ele>
        <time>2026-06-19T12:56:17.000Z</time>
        <extensions>
          <ns3:TrackPointExtension>
            <ns3:atemp>23.0</ns3:atemp>
          </ns3:TrackPointExtension>
        </extensions>
      </trkpt>
      <trkpt lat="42.56151183508336544036865234375" lon="20.09977036155760288238525390625">
        <ele>1999</ele>
        <time>2026-06-19T12:56:18.000Z</time>
        <extensions>
          <ns3:TrackPointExtension>
            <ns3:atemp>23.0</ns3:atemp>
          </ns3:TrackPointExtension>
        </extensions>
      </trkpt>
      <trkpt lat="42.56151183508336544036865234375" lon="20.09977036155760288238525390625">
        <ele>1999</ele>
        <time>2026-06-19T12:56:19.000Z</time>
        <extensions>
          <ns3:TrackPointExtension>
            <ns3:atemp>23.0</ns3:atemp>
          </ns3:TrackPointExtension>
        </extensions>
      </trkpt>
      <trkpt lat="42.56151183508336544036865234375" lon="20.09977036155760288238525390625">
        <ele>1999</ele>
        <time>2026-06-19T12:56:20.000Z</time>
        <extensions>
          <ns3:TrackPointExtension>
            <ns3:atemp>23.0</ns3:atemp>
          </ns3:TrackPointExtension>
        </extensions>
      </trkpt>
      <trkpt lat="42.56151183508336544036865234375" lon="20.09977036155760288238525390625">
        <ele>1999</ele>
        <time>2026-06-19T12:56:21.000Z</time>
        <extensions>
          <ns3:TrackPointExtension>
            <ns3:atemp>23.0</ns3:atemp>
          </ns3:TrackPointExtension>
        </extensions>
      </trkpt>
      <trkpt lat="42.56151183508336544036865234375" lon="20.09977036155760288238525390625">
        <ele>1999</ele>
        <time>2026-06-19T12:56:22.000Z</time>
        <extensions>
          <ns3:TrackPointExtension>
            <ns3:atemp>23.0</ns3:atemp>
          </ns3:TrackPointExtension>
        </extensions>
      </trkpt>
      <trkpt lat="42.56151183508336544036865234375" lon="20.09977036155760288238525390625">
        <ele>1999</ele>
        <time>2026-06-19T12:56:23.000Z</time>
        <extensions>
          <ns3:TrackPointExtension>
            <ns3:atemp>23.0</ns3:atemp>
          </ns3:TrackPointExtension>
        </extensions>
      </trkpt>
      <trkpt lat="42.56151183508336544036865234375" lon="20.09977036155760288238525390625">
        <ele>1998.800048828125</ele>
        <time>2026-06-19T12:56:24.000Z</time>
        <extensions>
          <ns3:TrackPointExtension>
            <ns3:atemp>23.0</ns3:atemp>
          </ns3:TrackPointExtension>
        </extensions>
      </trkpt>
      <trkpt lat="42.56151183508336544036865234375" lon="20.09977036155760288238525390625">
        <ele>1998.800048828125</ele>
        <time>2026-06-19T12:56:25.000Z</time>
        <extensions>
          <ns3:TrackPointExtension>
            <ns3:atemp>23.0</ns3:atemp>
          </ns3:TrackPointExtension>
        </extensions>
      </trkpt>
      <trkpt lat="42.56151183508336544036865234375" lon="20.09977036155760288238525390625">
        <ele>1998.800048828125</ele>
        <time>2026-06-19T12:56:26.000Z</time>
        <extensions>
          <ns3:TrackPointExtension>
            <ns3:atemp>23.0</ns3:atemp>
          </ns3:TrackPointExtension>
        </extensions>
      </trkpt>
      <trkpt lat="42.56151183508336544036865234375" lon="20.09977036155760288238525390625">
        <ele>1998.800048828125</ele>
        <time>2026-06-19T12:56:27.000Z</time>
        <extensions>
          <ns3:TrackPointExtension>
            <ns3:atemp>23.0</ns3:atemp>
          </ns3:TrackPointExtension>
        </extensions>
      </trkpt>
      <trkpt lat="42.56151183508336544036865234375" lon="20.09977036155760288238525390625">
        <ele>1998.800048828125</ele>
        <time>2026-06-19T12:56:28.000Z</time>
        <extensions>
          <ns3:TrackPointExtension>
            <ns3:atemp>23.0</ns3:atemp>
          </ns3:TrackPointExtension>
        </extensions>
      </trkpt>
      <trkpt lat="42.56151183508336544036865234375" lon="20.09977036155760288238525390625">
        <ele>1998.800048828125</ele>
        <time>2026-06-19T12:56:29.000Z</time>
        <extensions>
          <ns3:TrackPointExtension>
            <ns3:atemp>23.0</ns3:atemp>
          </ns3:TrackPointExtension>
        </extensions>
      </trkpt>
      <trkpt lat="42.56151183508336544036865234375" lon="20.09977036155760288238525390625">
        <ele>1998.800048828125</ele>
        <time>2026-06-19T12:56:30.000Z</time>
        <extensions>
          <ns3:TrackPointExtension>
            <ns3:atemp>23.0</ns3:atemp>
          </ns3:TrackPointExtension>
        </extensions>
      </trkpt>
      <trkpt lat="42.56151183508336544036865234375" lon="20.09977036155760288238525390625">
        <ele>1998.800048828125</ele>
        <time>2026-06-19T12:56:31.000Z</time>
        <extensions>
          <ns3:TrackPointExtension>
            <ns3:atemp>23.0</ns3:atemp>
          </ns3:TrackPointExtension>
        </extensions>
      </trkpt>
      <trkpt lat="42.56151183508336544036865234375" lon="20.09977036155760288238525390625">
        <ele>1998.800048828125</ele>
        <time>2026-06-19T12:56:32.000Z</time>
        <extensions>
          <ns3:TrackPointExtension>
            <ns3:atemp>23.0</ns3:atemp>
          </ns3:TrackPointExtension>
        </extensions>
      </trkpt>
      <trkpt lat="42.56151183508336544036865234375" lon="20.09977036155760288238525390625">
        <ele>1998.800048828125</ele>
        <time>2026-06-19T12:56:33.000Z</time>
        <extensions>
          <ns3:TrackPointExtension>
            <ns3:atemp>23.0</ns3:atemp>
          </ns3:TrackPointExtension>
        </extensions>
      </trkpt>
      <trkpt lat="42.56151183508336544036865234375" lon="20.09977036155760288238525390625">
        <ele>1998.800048828125</ele>
        <time>2026-06-19T12:56:34.000Z</time>
        <extensions>
          <ns3:TrackPointExtension>
            <ns3:atemp>23.0</ns3:atemp>
          </ns3:TrackPointExtension>
        </extensions>
      </trkpt>
      <trkpt lat="42.56151183508336544036865234375" lon="20.09977036155760288238525390625">
        <ele>1998.800048828125</ele>
        <time>2026-06-19T12:56:35.000Z</time>
        <extensions>
          <ns3:TrackPointExtension>
            <ns3:atemp>23.0</ns3:atemp>
          </ns3:TrackPointExtension>
        </extensions>
      </trkpt>
      <trkpt lat="42.56151183508336544036865234375" lon="20.09977036155760288238525390625">
        <ele>1998.800048828125</ele>
        <time>2026-06-19T12:56:36.000Z</time>
        <extensions>
          <ns3:TrackPointExtension>
            <ns3:atemp>23.0</ns3:atemp>
          </ns3:TrackPointExtension>
        </extensions>
      </trkpt>
      <trkpt lat="42.56151183508336544036865234375" lon="20.09977036155760288238525390625">
        <ele>1998.5999755859375</ele>
        <time>2026-06-19T12:56:37.000Z</time>
        <extensions>
          <ns3:TrackPointExtension>
            <ns3:atemp>23.0</ns3:atemp>
          </ns3:TrackPointExtension>
        </extensions>
      </trkpt>
      <trkpt lat="42.56151183508336544036865234375" lon="20.09977036155760288238525390625">
        <ele>1998.5999755859375</ele>
        <time>2026-06-19T12:56:38.000Z</time>
        <extensions>
          <ns3:TrackPointExtension>
            <ns3:atemp>23.0</ns3:atemp>
          </ns3:TrackPointExtension>
        </extensions>
      </trkpt>
      <trkpt lat="42.56151183508336544036865234375" lon="20.09977036155760288238525390625">
        <ele>1998.5999755859375</ele>
        <time>2026-06-19T12:56:39.000Z</time>
        <extensions>
          <ns3:TrackPointExtension>
            <ns3:atemp>23.0</ns3:atemp>
          </ns3:TrackPointExtension>
        </extensions>
      </trkpt>
      <trkpt lat="42.56151183508336544036865234375" lon="20.09977036155760288238525390625">
        <ele>1998.5999755859375</ele>
        <time>2026-06-19T12:56:40.000Z</time>
        <extensions>
          <ns3:TrackPointExtension>
            <ns3:atemp>23.0</ns3:atemp>
          </ns3:TrackPointExtension>
        </extensions>
      </trkpt>
      <trkpt lat="42.56151183508336544036865234375" lon="20.09977036155760288238525390625">
        <ele>1998.5999755859375</ele>
        <time>2026-06-19T12:56:41.000Z</time>
        <extensions>
          <ns3:TrackPointExtension>
            <ns3:atemp>23.0</ns3:atemp>
          </ns3:TrackPointExtension>
        </extensions>
      </trkpt>
      <trkpt lat="42.56151183508336544036865234375" lon="20.09977036155760288238525390625">
        <ele>1998.5999755859375</ele>
        <time>2026-06-19T12:56:42.000Z</time>
        <extensions>
          <ns3:TrackPointExtension>
            <ns3:atemp>23.0</ns3:atemp>
          </ns3:TrackPointExtension>
        </extensions>
      </trkpt>
      <trkpt lat="42.56151183508336544036865234375" lon="20.09977036155760288238525390625">
        <ele>1998.5999755859375</ele>
        <time>2026-06-19T12:56:43.000Z</time>
        <extensions>
          <ns3:TrackPointExtension>
            <ns3:atemp>23.0</ns3:atemp>
          </ns3:TrackPointExtension>
        </extensions>
      </trkpt>
      <trkpt lat="42.56151183508336544036865234375" lon="20.09977036155760288238525390625">
        <ele>1998.800048828125</ele>
        <time>2026-06-19T12:56:44.000Z</time>
        <extensions>
          <ns3:TrackPointExtension>
            <ns3:atemp>23.0</ns3:atemp>
          </ns3:TrackPointExtension>
        </extensions>
      </trkpt>
      <trkpt lat="42.56151183508336544036865234375" lon="20.09977036155760288238525390625">
        <ele>1998.800048828125</ele>
        <time>2026-06-19T12:56:45.000Z</time>
        <extensions>
          <ns3:TrackPointExtension>
            <ns3:atemp>23.0</ns3:atemp>
          </ns3:TrackPointExtension>
        </extensions>
      </trkpt>
      <trkpt lat="42.56151183508336544036865234375" lon="20.09977036155760288238525390625">
        <ele>1998.5999755859375</ele>
        <time>2026-06-19T12:56:46.000Z</time>
        <extensions>
          <ns3:TrackPointExtension>
            <ns3:atemp>23.0</ns3:atemp>
          </ns3:TrackPointExtension>
        </extensions>
      </trkpt>
      <trkpt lat="42.56151183508336544036865234375" lon="20.09977036155760288238525390625">
        <ele>1998.5999755859375</ele>
        <time>2026-06-19T12:56:47.000Z</time>
        <extensions>
          <ns3:TrackPointExtension>
            <ns3:atemp>23.0</ns3:atemp>
          </ns3:TrackPointExtension>
        </extensions>
      </trkpt>
      <trkpt lat="42.56151183508336544036865234375" lon="20.09977036155760288238525390625">
        <ele>1998.5999755859375</ele>
        <time>2026-06-19T12:56:48.000Z</time>
        <extensions>
          <ns3:TrackPointExtension>
            <ns3:atemp>23.0</ns3:atemp>
          </ns3:TrackPointExtension>
        </extensions>
      </trkpt>
      <trkpt lat="42.56151183508336544036865234375" lon="20.09977036155760288238525390625">
        <ele>1998.5999755859375</ele>
        <time>2026-06-19T12:56:49.000Z</time>
        <extensions>
          <ns3:TrackPointExtension>
            <ns3:atemp>23.0</ns3:atemp>
          </ns3:TrackPointExtension>
        </extensions>
      </trkpt>
      <trkpt lat="42.56151183508336544036865234375" lon="20.09977036155760288238525390625">
        <ele>1998.5999755859375</ele>
        <time>2026-06-19T12:56:50.000Z</time>
        <extensions>
          <ns3:TrackPointExtension>
            <ns3:atemp>23.0</ns3:atemp>
          </ns3:TrackPointExtension>
        </extensions>
      </trkpt>
      <trkpt lat="42.56151183508336544036865234375" lon="20.09977036155760288238525390625">
        <ele>1998.5999755859375</ele>
        <time>2026-06-19T12:56:51.000Z</time>
        <extensions>
          <ns3:TrackPointExtension>
            <ns3:atemp>23.0</ns3:atemp>
          </ns3:TrackPointExtension>
        </extensions>
      </trkpt>
      <trkpt lat="42.56151183508336544036865234375" lon="20.09977036155760288238525390625">
        <ele>1998.5999755859375</ele>
        <time>2026-06-19T12:56:52.000Z</time>
        <extensions>
          <ns3:TrackPointExtension>
            <ns3:atemp>23.0</ns3:atemp>
          </ns3:TrackPointExtension>
        </extensions>
      </trkpt>
      <trkpt lat="42.56151183508336544036865234375" lon="20.09977036155760288238525390625">
        <ele>1998.5999755859375</ele>
        <time>2026-06-19T12:56:53.000Z</time>
        <extensions>
          <ns3:TrackPointExtension>
            <ns3:atemp>23.0</ns3:atemp>
          </ns3:TrackPointExtension>
        </extensions>
      </trkpt>
      <trkpt lat="42.56151183508336544036865234375" lon="20.09977036155760288238525390625">
        <ele>1998.800048828125</ele>
        <time>2026-06-19T12:56:54.000Z</time>
        <extensions>
          <ns3:TrackPointExtension>
            <ns3:atemp>23.0</ns3:atemp>
          </ns3:TrackPointExtension>
        </extensions>
      </trkpt>
      <trkpt lat="42.56151183508336544036865234375" lon="20.09977036155760288238525390625">
        <ele>1998.800048828125</ele>
        <time>2026-06-19T12:56:55.000Z</time>
        <extensions>
          <ns3:TrackPointExtension>
            <ns3:atemp>23.0</ns3:atemp>
          </ns3:TrackPointExtension>
        </extensions>
      </trkpt>
      <trkpt lat="42.56151183508336544036865234375" lon="20.09977036155760288238525390625">
        <ele>1998.800048828125</ele>
        <time>2026-06-19T12:56:56.000Z</time>
        <extensions>
          <ns3:TrackPointExtension>
            <ns3:atemp>23.0</ns3:atemp>
          </ns3:TrackPointExtension>
        </extensions>
      </trkpt>
      <trkpt lat="42.56151183508336544036865234375" lon="20.09977036155760288238525390625">
        <ele>1998.800048828125</ele>
        <time>2026-06-19T12:56:57.000Z</time>
        <extensions>
          <ns3:TrackPointExtension>
            <ns3:atemp>23.0</ns3:atemp>
          </ns3:TrackPointExtension>
        </extensions>
      </trkpt>
      <trkpt lat="42.56151183508336544036865234375" lon="20.09977036155760288238525390625">
        <ele>1998.800048828125</ele>
        <time>2026-06-19T12:56:58.000Z</time>
        <extensions>
          <ns3:TrackPointExtension>
            <ns3:atemp>23.0</ns3:atemp>
          </ns3:TrackPointExtension>
        </extensions>
      </trkpt>
      <trkpt lat="42.56151183508336544036865234375" lon="20.09977036155760288238525390625">
        <ele>1998.800048828125</ele>
        <time>2026-06-19T12:56:59.000Z</time>
        <extensions>
          <ns3:TrackPointExtension>
            <ns3:atemp>23.0</ns3:atemp>
          </ns3:TrackPointExtension>
        </extensions>
      </trkpt>
      <trkpt lat="42.56151183508336544036865234375" lon="20.09977036155760288238525390625">
        <ele>1998.800048828125</ele>
        <time>2026-06-19T12:57:00.000Z</time>
        <extensions>
          <ns3:TrackPointExtension>
            <ns3:atemp>23.0</ns3:atemp>
          </ns3:TrackPointExtension>
        </extensions>
      </trkpt>
      <trkpt lat="42.56151183508336544036865234375" lon="20.09977036155760288238525390625">
        <ele>1998.800048828125</ele>
        <time>2026-06-19T12:57:01.000Z</time>
        <extensions>
          <ns3:TrackPointExtension>
            <ns3:atemp>23.0</ns3:atemp>
          </ns3:TrackPointExtension>
        </extensions>
      </trkpt>
      <trkpt lat="42.56151183508336544036865234375" lon="20.09977036155760288238525390625">
        <ele>1998.800048828125</ele>
        <time>2026-06-19T12:57:02.000Z</time>
        <extensions>
          <ns3:TrackPointExtension>
            <ns3:atemp>23.0</ns3:atemp>
          </ns3:TrackPointExtension>
        </extensions>
      </trkpt>
      <trkpt lat="42.56151183508336544036865234375" lon="20.09977036155760288238525390625">
        <ele>1998.800048828125</ele>
        <time>2026-06-19T12:57:03.000Z</time>
        <extensions>
          <ns3:TrackPointExtension>
            <ns3:atemp>23.0</ns3:atemp>
          </ns3:TrackPointExtension>
        </extensions>
      </trkpt>
      <trkpt lat="42.56151183508336544036865234375" lon="20.09977036155760288238525390625">
        <ele>1998.5999755859375</ele>
        <time>2026-06-19T12:57:04.000Z</time>
        <extensions>
          <ns3:TrackPointExtension>
            <ns3:atemp>23.0</ns3:atemp>
          </ns3:TrackPointExtension>
        </extensions>
      </trkpt>
      <trkpt lat="42.56151183508336544036865234375" lon="20.09977036155760288238525390625">
        <ele>1998.5999755859375</ele>
        <time>2026-06-19T12:57:05.000Z</time>
        <extensions>
          <ns3:TrackPointExtension>
            <ns3:atemp>23.0</ns3:atemp>
          </ns3:TrackPointExtension>
        </extensions>
      </trkpt>
      <trkpt lat="42.56151183508336544036865234375" lon="20.09977036155760288238525390625">
        <ele>1998.5999755859375</ele>
        <time>2026-06-19T12:57:06.000Z</time>
        <extensions>
          <ns3:TrackPointExtension>
            <ns3:atemp>23.0</ns3:atemp>
          </ns3:TrackPointExtension>
        </extensions>
      </trkpt>
      <trkpt lat="42.56151183508336544036865234375" lon="20.09977036155760288238525390625">
        <ele>1998.5999755859375</ele>
        <time>2026-06-19T12:57:07.000Z</time>
        <extensions>
          <ns3:TrackPointExtension>
            <ns3:atemp>23.0</ns3:atemp>
          </ns3:TrackPointExtension>
        </extensions>
      </trkpt>
      <trkpt lat="42.56151183508336544036865234375" lon="20.09977036155760288238525390625">
        <ele>1998.5999755859375</ele>
        <time>2026-06-19T12:57:08.000Z</time>
        <extensions>
          <ns3:TrackPointExtension>
            <ns3:atemp>23.0</ns3:atemp>
          </ns3:TrackPointExtension>
        </extensions>
      </trkpt>
      <trkpt lat="42.56151183508336544036865234375" lon="20.09977036155760288238525390625">
        <ele>1998.5999755859375</ele>
        <time>2026-06-19T12:57:09.000Z</time>
        <extensions>
          <ns3:TrackPointExtension>
            <ns3:atemp>23.0</ns3:atemp>
          </ns3:TrackPointExtension>
        </extensions>
      </trkpt>
      <trkpt lat="42.56151183508336544036865234375" lon="20.09977036155760288238525390625">
        <ele>1998.5999755859375</ele>
        <time>2026-06-19T12:57:10.000Z</time>
        <extensions>
          <ns3:TrackPointExtension>
            <ns3:atemp>23.0</ns3:atemp>
          </ns3:TrackPointExtension>
        </extensions>
      </trkpt>
      <trkpt lat="42.56151183508336544036865234375" lon="20.09977036155760288238525390625">
        <ele>1998.5999755859375</ele>
        <time>2026-06-19T12:57:11.000Z</time>
        <extensions>
          <ns3:TrackPointExtension>
            <ns3:atemp>23.0</ns3:atemp>
          </ns3:TrackPointExtension>
        </extensions>
      </trkpt>
      <trkpt lat="42.56151183508336544036865234375" lon="20.09977036155760288238525390625">
        <ele>1998.5999755859375</ele>
        <time>2026-06-19T12:57:12.000Z</time>
        <extensions>
          <ns3:TrackPointExtension>
            <ns3:atemp>23.0</ns3:atemp>
          </ns3:TrackPointExtension>
        </extensions>
      </trkpt>
      <trkpt lat="42.56151183508336544036865234375" lon="20.09977036155760288238525390625">
        <ele>1998.5999755859375</ele>
        <time>2026-06-19T12:57:13.000Z</time>
        <extensions>
          <ns3:TrackPointExtension>
            <ns3:atemp>23.0</ns3:atemp>
          </ns3:TrackPointExtension>
        </extensions>
      </trkpt>
      <trkpt lat="42.56151183508336544036865234375" lon="20.09977036155760288238525390625">
        <ele>1998.5999755859375</ele>
        <time>2026-06-19T12:57:14.000Z</time>
        <extensions>
          <ns3:TrackPointExtension>
            <ns3:atemp>23.0</ns3:atemp>
          </ns3:TrackPointExtension>
        </extensions>
      </trkpt>
      <trkpt lat="42.56151183508336544036865234375" lon="20.09977036155760288238525390625">
        <ele>1998.5999755859375</ele>
        <time>2026-06-19T12:57:15.000Z</time>
        <extensions>
          <ns3:TrackPointExtension>
            <ns3:atemp>23.0</ns3:atemp>
          </ns3:TrackPointExtension>
        </extensions>
      </trkpt>
      <trkpt lat="42.56151183508336544036865234375" lon="20.09977036155760288238525390625">
        <ele>1998.5999755859375</ele>
        <time>2026-06-19T12:57:16.000Z</time>
        <extensions>
          <ns3:TrackPointExtension>
            <ns3:atemp>23.0</ns3:atemp>
          </ns3:TrackPointExtension>
        </extensions>
      </trkpt>
      <trkpt lat="42.56151183508336544036865234375" lon="20.09977036155760288238525390625">
        <ele>1998.5999755859375</ele>
        <time>2026-06-19T12:57:17.000Z</time>
        <extensions>
          <ns3:TrackPointExtension>
            <ns3:atemp>23.0</ns3:atemp>
          </ns3:TrackPointExtension>
        </extensions>
      </trkpt>
      <trkpt lat="42.56151183508336544036865234375" lon="20.09977036155760288238525390625">
        <ele>1998.5999755859375</ele>
        <time>2026-06-19T12:57:18.000Z</time>
        <extensions>
          <ns3:TrackPointExtension>
            <ns3:atemp>23.0</ns3:atemp>
          </ns3:TrackPointExtension>
        </extensions>
      </trkpt>
      <trkpt lat="42.56151183508336544036865234375" lon="20.09977036155760288238525390625">
        <ele>1998.5999755859375</ele>
        <time>2026-06-19T12:57:19.000Z</time>
        <extensions>
          <ns3:TrackPointExtension>
            <ns3:atemp>23.0</ns3:atemp>
          </ns3:TrackPointExtension>
        </extensions>
      </trkpt>
      <trkpt lat="42.56151183508336544036865234375" lon="20.09977036155760288238525390625">
        <ele>1998.5999755859375</ele>
        <time>2026-06-19T12:57:20.000Z</time>
        <extensions>
          <ns3:TrackPointExtension>
            <ns3:atemp>23.0</ns3:atemp>
          </ns3:TrackPointExtension>
        </extensions>
      </trkpt>
      <trkpt lat="42.56151183508336544036865234375" lon="20.09977036155760288238525390625">
        <ele>1998.5999755859375</ele>
        <time>2026-06-19T12:57:21.000Z</time>
        <extensions>
          <ns3:TrackPointExtension>
            <ns3:atemp>23.0</ns3:atemp>
          </ns3:TrackPointExtension>
        </extensions>
      </trkpt>
      <trkpt lat="42.56151183508336544036865234375" lon="20.09977036155760288238525390625">
        <ele>1998.5999755859375</ele>
        <time>2026-06-19T12:57:22.000Z</time>
        <extensions>
          <ns3:TrackPointExtension>
            <ns3:atemp>23.0</ns3:atemp>
          </ns3:TrackPointExtension>
        </extensions>
      </trkpt>
      <trkpt lat="42.56151183508336544036865234375" lon="20.09977036155760288238525390625">
        <ele>1998.5999755859375</ele>
        <time>2026-06-19T12:57:23.000Z</time>
        <extensions>
          <ns3:TrackPointExtension>
            <ns3:atemp>23.0</ns3:atemp>
          </ns3:TrackPointExtension>
        </extensions>
      </trkpt>
      <trkpt lat="42.56151183508336544036865234375" lon="20.09977036155760288238525390625">
        <ele>1998.5999755859375</ele>
        <time>2026-06-19T12:57:24.000Z</time>
        <extensions>
          <ns3:TrackPointExtension>
            <ns3:atemp>23.0</ns3:atemp>
          </ns3:TrackPointExtension>
        </extensions>
      </trkpt>
      <trkpt lat="42.56151183508336544036865234375" lon="20.09977036155760288238525390625">
        <ele>1998.5999755859375</ele>
        <time>2026-06-19T12:57:25.000Z</time>
        <extensions>
          <ns3:TrackPointExtension>
            <ns3:atemp>23.0</ns3:atemp>
          </ns3:TrackPointExtension>
        </extensions>
      </trkpt>
      <trkpt lat="42.56151183508336544036865234375" lon="20.09977036155760288238525390625">
        <ele>1998.5999755859375</ele>
        <time>2026-06-19T12:57:26.000Z</time>
        <extensions>
          <ns3:TrackPointExtension>
            <ns3:atemp>23.0</ns3:atemp>
          </ns3:TrackPointExtension>
        </extensions>
      </trkpt>
      <trkpt lat="42.56151183508336544036865234375" lon="20.09977036155760288238525390625">
        <ele>1998.5999755859375</ele>
        <time>2026-06-19T12:57:27.000Z</time>
        <extensions>
          <ns3:TrackPointExtension>
            <ns3:atemp>23.0</ns3:atemp>
          </ns3:TrackPointExtension>
        </extensions>
      </trkpt>
      <trkpt lat="42.56151183508336544036865234375" lon="20.09977036155760288238525390625">
        <ele>1998.5999755859375</ele>
        <time>2026-06-19T12:57:28.000Z</time>
        <extensions>
          <ns3:TrackPointExtension>
            <ns3:atemp>23.0</ns3:atemp>
          </ns3:TrackPointExtension>
        </extensions>
      </trkpt>
      <trkpt lat="42.56151183508336544036865234375" lon="20.09977036155760288238525390625">
        <ele>1998.5999755859375</ele>
        <time>2026-06-19T12:57:29.000Z</time>
        <extensions>
          <ns3:TrackPointExtension>
            <ns3:atemp>23.0</ns3:atemp>
          </ns3:TrackPointExtension>
        </extensions>
      </trkpt>
      <trkpt lat="42.56151183508336544036865234375" lon="20.09977036155760288238525390625">
        <ele>1998.5999755859375</ele>
        <time>2026-06-19T12:57:30.000Z</time>
        <extensions>
          <ns3:TrackPointExtension>
            <ns3:atemp>23.0</ns3:atemp>
          </ns3:TrackPointExtension>
        </extensions>
      </trkpt>
      <trkpt lat="42.56151183508336544036865234375" lon="20.09977036155760288238525390625">
        <ele>1998.5999755859375</ele>
        <time>2026-06-19T12:57:31.000Z</time>
        <extensions>
          <ns3:TrackPointExtension>
            <ns3:atemp>23.0</ns3:atemp>
          </ns3:TrackPointExtension>
        </extensions>
      </trkpt>
      <trkpt lat="42.56151183508336544036865234375" lon="20.09977036155760288238525390625">
        <ele>1998.5999755859375</ele>
        <time>2026-06-19T12:57:32.000Z</time>
        <extensions>
          <ns3:TrackPointExtension>
            <ns3:atemp>23.0</ns3:atemp>
          </ns3:TrackPointExtension>
        </extensions>
      </trkpt>
      <trkpt lat="42.56151183508336544036865234375" lon="20.09977036155760288238525390625">
        <ele>1998.5999755859375</ele>
        <time>2026-06-19T12:57:33.000Z</time>
        <extensions>
          <ns3:TrackPointExtension>
            <ns3:atemp>23.0</ns3:atemp>
          </ns3:TrackPointExtension>
        </extensions>
      </trkpt>
      <trkpt lat="42.56151183508336544036865234375" lon="20.09977036155760288238525390625">
        <ele>1998.5999755859375</ele>
        <time>2026-06-19T12:57:34.000Z</time>
        <extensions>
          <ns3:TrackPointExtension>
            <ns3:atemp>23.0</ns3:atemp>
          </ns3:TrackPointExtension>
        </extensions>
      </trkpt>
      <trkpt lat="42.56151183508336544036865234375" lon="20.09977036155760288238525390625">
        <ele>1998.5999755859375</ele>
        <time>2026-06-19T12:57:35.000Z</time>
        <extensions>
          <ns3:TrackPointExtension>
            <ns3:atemp>23.0</ns3:atemp>
          </ns3:TrackPointExtension>
        </extensions>
      </trkpt>
      <trkpt lat="42.56151183508336544036865234375" lon="20.09977036155760288238525390625">
        <ele>1998.5999755859375</ele>
        <time>2026-06-19T12:57:36.000Z</time>
        <extensions>
          <ns3:TrackPointExtension>
            <ns3:atemp>23.0</ns3:atemp>
          </ns3:TrackPointExtension>
        </extensions>
      </trkpt>
      <trkpt lat="42.56151183508336544036865234375" lon="20.09977036155760288238525390625">
        <ele>1998.5999755859375</ele>
        <time>2026-06-19T12:57:37.000Z</time>
        <extensions>
          <ns3:TrackPointExtension>
            <ns3:atemp>23.0</ns3:atemp>
          </ns3:TrackPointExtension>
        </extensions>
      </trkpt>
      <trkpt lat="42.56151183508336544036865234375" lon="20.09977036155760288238525390625">
        <ele>1998.5999755859375</ele>
        <time>2026-06-19T12:57:38.000Z</time>
        <extensions>
          <ns3:TrackPointExtension>
            <ns3:atemp>23.0</ns3:atemp>
          </ns3:TrackPointExtension>
        </extensions>
      </trkpt>
      <trkpt lat="42.56151183508336544036865234375" lon="20.09977036155760288238525390625">
        <ele>1998.5999755859375</ele>
        <time>2026-06-19T12:57:39.000Z</time>
        <extensions>
          <ns3:TrackPointExtension>
            <ns3:atemp>23.0</ns3:atemp>
          </ns3:TrackPointExtension>
        </extensions>
      </trkpt>
      <trkpt lat="42.56151183508336544036865234375" lon="20.09977036155760288238525390625">
        <ele>1998.5999755859375</ele>
        <time>2026-06-19T12:57:40.000Z</time>
        <extensions>
          <ns3:TrackPointExtension>
            <ns3:atemp>23.0</ns3:atemp>
          </ns3:TrackPointExtension>
        </extensions>
      </trkpt>
      <trkpt lat="42.56151183508336544036865234375" lon="20.09977036155760288238525390625">
        <ele>1998.5999755859375</ele>
        <time>2026-06-19T12:57:41.000Z</time>
        <extensions>
          <ns3:TrackPointExtension>
            <ns3:atemp>23.0</ns3:atemp>
          </ns3:TrackPointExtension>
        </extensions>
      </trkpt>
      <trkpt lat="42.56151183508336544036865234375" lon="20.09977036155760288238525390625">
        <ele>1998.5999755859375</ele>
        <time>2026-06-19T12:57:42.000Z</time>
        <extensions>
          <ns3:TrackPointExtension>
            <ns3:atemp>23.0</ns3:atemp>
          </ns3:TrackPointExtension>
        </extensions>
      </trkpt>
      <trkpt lat="42.56151183508336544036865234375" lon="20.09977036155760288238525390625">
        <ele>1998.5999755859375</ele>
        <time>2026-06-19T12:57:43.000Z</time>
        <extensions>
          <ns3:TrackPointExtension>
            <ns3:atemp>23.0</ns3:atemp>
          </ns3:TrackPointExtension>
        </extensions>
      </trkpt>
      <trkpt lat="42.56151183508336544036865234375" lon="20.09977036155760288238525390625">
        <ele>1998.5999755859375</ele>
        <time>2026-06-19T12:57:44.000Z</time>
        <extensions>
          <ns3:TrackPointExtension>
            <ns3:atemp>23.0</ns3:atemp>
          </ns3:TrackPointExtension>
        </extensions>
      </trkpt>
      <trkpt lat="42.56151183508336544036865234375" lon="20.09977036155760288238525390625">
        <ele>1998.5999755859375</ele>
        <time>2026-06-19T12:57:45.000Z</time>
        <extensions>
          <ns3:TrackPointExtension>
            <ns3:atemp>23.0</ns3:atemp>
          </ns3:TrackPointExtension>
        </extensions>
      </trkpt>
      <trkpt lat="42.56151183508336544036865234375" lon="20.09977036155760288238525390625">
        <ele>1998.5999755859375</ele>
        <time>2026-06-19T12:57:46.000Z</time>
        <extensions>
          <ns3:TrackPointExtension>
            <ns3:atemp>23.0</ns3:atemp>
          </ns3:TrackPointExtension>
        </extensions>
      </trkpt>
      <trkpt lat="42.56151183508336544036865234375" lon="20.09977036155760288238525390625">
        <ele>1998.5999755859375</ele>
        <time>2026-06-19T12:57:47.000Z</time>
        <extensions>
          <ns3:TrackPointExtension>
            <ns3:atemp>23.0</ns3:atemp>
          </ns3:TrackPointExtension>
        </extensions>
      </trkpt>
      <trkpt lat="42.56151183508336544036865234375" lon="20.09977036155760288238525390625">
        <ele>1998.5999755859375</ele>
        <time>2026-06-19T12:57:48.000Z</time>
        <extensions>
          <ns3:TrackPointExtension>
            <ns3:atemp>23.0</ns3:atemp>
          </ns3:TrackPointExtension>
        </extensions>
      </trkpt>
      <trkpt lat="42.56151183508336544036865234375" lon="20.09977036155760288238525390625">
        <ele>1998.5999755859375</ele>
        <time>2026-06-19T12:57:49.000Z</time>
        <extensions>
          <ns3:TrackPointExtension>
            <ns3:atemp>23.0</ns3:atemp>
          </ns3:TrackPointExtension>
        </extensions>
      </trkpt>
      <trkpt lat="42.56151183508336544036865234375" lon="20.09977036155760288238525390625">
        <ele>1998.5999755859375</ele>
        <time>2026-06-19T12:57:50.000Z</time>
        <extensions>
          <ns3:TrackPointExtension>
            <ns3:atemp>23.0</ns3:atemp>
          </ns3:TrackPointExtension>
        </extensions>
      </trkpt>
      <trkpt lat="42.56151183508336544036865234375" lon="20.09977036155760288238525390625">
        <ele>1998.5999755859375</ele>
        <time>2026-06-19T12:57:51.000Z</time>
        <extensions>
          <ns3:TrackPointExtension>
            <ns3:atemp>23.0</ns3:atemp>
          </ns3:TrackPointExtension>
        </extensions>
      </trkpt>
      <trkpt lat="42.56151183508336544036865234375" lon="20.09977036155760288238525390625">
        <ele>1998.5999755859375</ele>
        <time>2026-06-19T12:57:52.000Z</time>
        <extensions>
          <ns3:TrackPointExtension>
            <ns3:atemp>23.0</ns3:atemp>
          </ns3:TrackPointExtension>
        </extensions>
      </trkpt>
      <trkpt lat="42.56151183508336544036865234375" lon="20.09977036155760288238525390625">
        <ele>1998.5999755859375</ele>
        <time>2026-06-19T12:57:53.000Z</time>
        <extensions>
          <ns3:TrackPointExtension>
            <ns3:atemp>23.0</ns3:atemp>
          </ns3:TrackPointExtension>
        </extensions>
      </trkpt>
      <trkpt lat="42.56151183508336544036865234375" lon="20.09977036155760288238525390625">
        <ele>1998.5999755859375</ele>
        <time>2026-06-19T12:57:54.000Z</time>
        <extensions>
          <ns3:TrackPointExtension>
            <ns3:atemp>23.0</ns3:atemp>
          </ns3:TrackPointExtension>
        </extensions>
      </trkpt>
      <trkpt lat="42.56151183508336544036865234375" lon="20.09977036155760288238525390625">
        <ele>1998.5999755859375</ele>
        <time>2026-06-19T12:57:55.000Z</time>
        <extensions>
          <ns3:TrackPointExtension>
            <ns3:atemp>23.0</ns3:atemp>
          </ns3:TrackPointExtension>
        </extensions>
      </trkpt>
      <trkpt lat="42.56151183508336544036865234375" lon="20.09977036155760288238525390625">
        <ele>1998.5999755859375</ele>
        <time>2026-06-19T12:57:56.000Z</time>
        <extensions>
          <ns3:TrackPointExtension>
            <ns3:atemp>23.0</ns3:atemp>
          </ns3:TrackPointExtension>
        </extensions>
      </trkpt>
      <trkpt lat="42.56151183508336544036865234375" lon="20.09977036155760288238525390625">
        <ele>1998.5999755859375</ele>
        <time>2026-06-19T12:57:57.000Z</time>
        <extensions>
          <ns3:TrackPointExtension>
            <ns3:atemp>23.0</ns3:atemp>
          </ns3:TrackPointExtension>
        </extensions>
      </trkpt>
      <trkpt lat="42.56151183508336544036865234375" lon="20.09977036155760288238525390625">
        <ele>1998.5999755859375</ele>
        <time>2026-06-19T12:57:58.000Z</time>
        <extensions>
          <ns3:TrackPointExtension>
            <ns3:atemp>23.0</ns3:atemp>
          </ns3:TrackPointExtension>
        </extensions>
      </trkpt>
      <trkpt lat="42.56151183508336544036865234375" lon="20.09977036155760288238525390625">
        <ele>1998.5999755859375</ele>
        <time>2026-06-19T12:57:59.000Z</time>
        <extensions>
          <ns3:TrackPointExtension>
            <ns3:atemp>23.0</ns3:atemp>
          </ns3:TrackPointExtension>
        </extensions>
      </trkpt>
      <trkpt lat="42.56151183508336544036865234375" lon="20.09977036155760288238525390625">
        <ele>1998.5999755859375</ele>
        <time>2026-06-19T12:58:00.000Z</time>
        <extensions>
          <ns3:TrackPointExtension>
            <ns3:atemp>23.0</ns3:atemp>
          </ns3:TrackPointExtension>
        </extensions>
      </trkpt>
      <trkpt lat="42.56151183508336544036865234375" lon="20.09977036155760288238525390625">
        <ele>1998.5999755859375</ele>
        <time>2026-06-19T12:58:01.000Z</time>
        <extensions>
          <ns3:TrackPointExtension>
            <ns3:atemp>23.0</ns3:atemp>
          </ns3:TrackPointExtension>
        </extensions>
      </trkpt>
      <trkpt lat="42.56151183508336544036865234375" lon="20.09977036155760288238525390625">
        <ele>1998.5999755859375</ele>
        <time>2026-06-19T12:58:02.000Z</time>
        <extensions>
          <ns3:TrackPointExtension>
            <ns3:atemp>23.0</ns3:atemp>
          </ns3:TrackPointExtension>
        </extensions>
      </trkpt>
      <trkpt lat="42.56151183508336544036865234375" lon="20.09977036155760288238525390625">
        <ele>1998.5999755859375</ele>
        <time>2026-06-19T12:58:03.000Z</time>
        <extensions>
          <ns3:TrackPointExtension>
            <ns3:atemp>23.0</ns3:atemp>
          </ns3:TrackPointExtension>
        </extensions>
      </trkpt>
      <trkpt lat="42.56151183508336544036865234375" lon="20.09977036155760288238525390625">
        <ele>1998.5999755859375</ele>
        <time>2026-06-19T12:58:04.000Z</time>
        <extensions>
          <ns3:TrackPointExtension>
            <ns3:atemp>23.0</ns3:atemp>
          </ns3:TrackPointExtension>
        </extensions>
      </trkpt>
      <trkpt lat="42.56151183508336544036865234375" lon="20.09977036155760288238525390625">
        <ele>1998.5999755859375</ele>
        <time>2026-06-19T12:58:05.000Z</time>
        <extensions>
          <ns3:TrackPointExtension>
            <ns3:atemp>23.0</ns3:atemp>
          </ns3:TrackPointExtension>
        </extensions>
      </trkpt>
      <trkpt lat="42.56151183508336544036865234375" lon="20.09977036155760288238525390625">
        <ele>1998.5999755859375</ele>
        <time>2026-06-19T12:58:06.000Z</time>
        <extensions>
          <ns3:TrackPointExtension>
            <ns3:atemp>23.0</ns3:atemp>
          </ns3:TrackPointExtension>
        </extensions>
      </trkpt>
      <trkpt lat="42.56151183508336544036865234375" lon="20.09977036155760288238525390625">
        <ele>1998.5999755859375</ele>
        <time>2026-06-19T12:58:07.000Z</time>
        <extensions>
          <ns3:TrackPointExtension>
            <ns3:atemp>23.0</ns3:atemp>
          </ns3:TrackPointExtension>
        </extensions>
      </trkpt>
      <trkpt lat="42.56151183508336544036865234375" lon="20.09977036155760288238525390625">
        <ele>1998.5999755859375</ele>
        <time>2026-06-19T12:58:08.000Z</time>
        <extensions>
          <ns3:TrackPointExtension>
            <ns3:atemp>23.0</ns3:atemp>
          </ns3:TrackPointExtension>
        </extensions>
      </trkpt>
      <trkpt lat="42.56151183508336544036865234375" lon="20.09977036155760288238525390625">
        <ele>1998.5999755859375</ele>
        <time>2026-06-19T12:58:09.000Z</time>
        <extensions>
          <ns3:TrackPointExtension>
            <ns3:atemp>23.0</ns3:atemp>
          </ns3:TrackPointExtension>
        </extensions>
      </trkpt>
      <trkpt lat="42.56151183508336544036865234375" lon="20.09977036155760288238525390625">
        <ele>1998.5999755859375</ele>
        <time>2026-06-19T12:58:10.000Z</time>
        <extensions>
          <ns3:TrackPointExtension>
            <ns3:atemp>23.0</ns3:atemp>
          </ns3:TrackPointExtension>
        </extensions>
      </trkpt>
      <trkpt lat="42.56151183508336544036865234375" lon="20.09977036155760288238525390625">
        <ele>1998.5999755859375</ele>
        <time>2026-06-19T12:58:11.000Z</time>
        <extensions>
          <ns3:TrackPointExtension>
            <ns3:atemp>23.0</ns3:atemp>
          </ns3:TrackPointExtension>
        </extensions>
      </trkpt>
      <trkpt lat="42.56151183508336544036865234375" lon="20.09977036155760288238525390625">
        <ele>1998.5999755859375</ele>
        <time>2026-06-19T12:58:12.000Z</time>
        <extensions>
          <ns3:TrackPointExtension>
            <ns3:atemp>23.0</ns3:atemp>
          </ns3:TrackPointExtension>
        </extensions>
      </trkpt>
      <trkpt lat="42.56151183508336544036865234375" lon="20.09977036155760288238525390625">
        <ele>1998.5999755859375</ele>
        <time>2026-06-19T12:58:13.000Z</time>
        <extensions>
          <ns3:TrackPointExtension>
            <ns3:atemp>23.0</ns3:atemp>
          </ns3:TrackPointExtension>
        </extensions>
      </trkpt>
      <trkpt lat="42.56151183508336544036865234375" lon="20.09977036155760288238525390625">
        <ele>1998.5999755859375</ele>
        <time>2026-06-19T12:58:14.000Z</time>
        <extensions>
          <ns3:TrackPointExtension>
            <ns3:atemp>23.0</ns3:atemp>
          </ns3:TrackPointExtension>
        </extensions>
      </trkpt>
      <trkpt lat="42.56151183508336544036865234375" lon="20.09977036155760288238525390625">
        <ele>1998.5999755859375</ele>
        <time>2026-06-19T12:58:15.000Z</time>
        <extensions>
          <ns3:TrackPointExtension>
            <ns3:atemp>23.0</ns3:atemp>
          </ns3:TrackPointExtension>
        </extensions>
      </trkpt>
      <trkpt lat="42.56151183508336544036865234375" lon="20.09977036155760288238525390625">
        <ele>1998.5999755859375</ele>
        <time>2026-06-19T12:58:16.000Z</time>
        <extensions>
          <ns3:TrackPointExtension>
            <ns3:atemp>23.0</ns3:atemp>
          </ns3:TrackPointExtension>
        </extensions>
      </trkpt>
      <trkpt lat="42.56151183508336544036865234375" lon="20.09977036155760288238525390625">
        <ele>1998.5999755859375</ele>
        <time>2026-06-19T12:58:17.000Z</time>
        <extensions>
          <ns3:TrackPointExtension>
            <ns3:atemp>23.0</ns3:atemp>
          </ns3:TrackPointExtension>
        </extensions>
      </trkpt>
      <trkpt lat="42.56151183508336544036865234375" lon="20.09977036155760288238525390625">
        <ele>1998.5999755859375</ele>
        <time>2026-06-19T12:58:18.000Z</time>
        <extensions>
          <ns3:TrackPointExtension>
            <ns3:atemp>23.0</ns3:atemp>
          </ns3:TrackPointExtension>
        </extensions>
      </trkpt>
      <trkpt lat="42.56151183508336544036865234375" lon="20.09977036155760288238525390625">
        <ele>1998.5999755859375</ele>
        <time>2026-06-19T12:58:19.000Z</time>
        <extensions>
          <ns3:TrackPointExtension>
            <ns3:atemp>23.0</ns3:atemp>
          </ns3:TrackPointExtension>
        </extensions>
      </trkpt>
      <trkpt lat="42.56151183508336544036865234375" lon="20.09977036155760288238525390625">
        <ele>1998.5999755859375</ele>
        <time>2026-06-19T12:58:20.000Z</time>
        <extensions>
          <ns3:TrackPointExtension>
            <ns3:atemp>23.0</ns3:atemp>
          </ns3:TrackPointExtension>
        </extensions>
      </trkpt>
      <trkpt lat="42.56151183508336544036865234375" lon="20.09977036155760288238525390625">
        <ele>1998.5999755859375</ele>
        <time>2026-06-19T12:58:21.000Z</time>
        <extensions>
          <ns3:TrackPointExtension>
            <ns3:atemp>23.0</ns3:atemp>
          </ns3:TrackPointExtension>
        </extensions>
      </trkpt>
      <trkpt lat="42.56151183508336544036865234375" lon="20.09977036155760288238525390625">
        <ele>1998.5999755859375</ele>
        <time>2026-06-19T12:58:22.000Z</time>
        <extensions>
          <ns3:TrackPointExtension>
            <ns3:atemp>23.0</ns3:atemp>
          </ns3:TrackPointExtension>
        </extensions>
      </trkpt>
      <trkpt lat="42.56151183508336544036865234375" lon="20.09977036155760288238525390625">
        <ele>1998.5999755859375</ele>
        <time>2026-06-19T12:58:23.000Z</time>
        <extensions>
          <ns3:TrackPointExtension>
            <ns3:atemp>23.0</ns3:atemp>
          </ns3:TrackPointExtension>
        </extensions>
      </trkpt>
      <trkpt lat="42.56151183508336544036865234375" lon="20.09977036155760288238525390625">
        <ele>1998.5999755859375</ele>
        <time>2026-06-19T12:58:24.000Z</time>
        <extensions>
          <ns3:TrackPointExtension>
            <ns3:atemp>23.0</ns3:atemp>
          </ns3:TrackPointExtension>
        </extensions>
      </trkpt>
      <trkpt lat="42.56151183508336544036865234375" lon="20.09977036155760288238525390625">
        <ele>1998.5999755859375</ele>
        <time>2026-06-19T12:58:25.000Z</time>
        <extensions>
          <ns3:TrackPointExtension>
            <ns3:atemp>23.0</ns3:atemp>
          </ns3:TrackPointExtension>
        </extensions>
      </trkpt>
      <trkpt lat="42.56151183508336544036865234375" lon="20.09977036155760288238525390625">
        <ele>1998.5999755859375</ele>
        <time>2026-06-19T12:58:26.000Z</time>
        <extensions>
          <ns3:TrackPointExtension>
            <ns3:atemp>23.0</ns3:atemp>
          </ns3:TrackPointExtension>
        </extensions>
      </trkpt>
      <trkpt lat="42.56151183508336544036865234375" lon="20.09977036155760288238525390625">
        <ele>1998.5999755859375</ele>
        <time>2026-06-19T12:58:27.000Z</time>
        <extensions>
          <ns3:TrackPointExtension>
            <ns3:atemp>23.0</ns3:atemp>
          </ns3:TrackPointExtension>
        </extensions>
      </trkpt>
      <trkpt lat="42.56151183508336544036865234375" lon="20.09977036155760288238525390625">
        <ele>1998.5999755859375</ele>
        <time>2026-06-19T12:58:28.000Z</time>
        <extensions>
          <ns3:TrackPointExtension>
            <ns3:atemp>23.0</ns3:atemp>
          </ns3:TrackPointExtension>
        </extensions>
      </trkpt>
      <trkpt lat="42.56151183508336544036865234375" lon="20.09977036155760288238525390625">
        <ele>1998.5999755859375</ele>
        <time>2026-06-19T12:58:29.000Z</time>
        <extensions>
          <ns3:TrackPointExtension>
            <ns3:atemp>23.0</ns3:atemp>
          </ns3:TrackPointExtension>
        </extensions>
      </trkpt>
      <trkpt lat="42.56151183508336544036865234375" lon="20.09977036155760288238525390625">
        <ele>1998.5999755859375</ele>
        <time>2026-06-19T12:58:30.000Z</time>
        <extensions>
          <ns3:TrackPointExtension>
            <ns3:atemp>23.0</ns3:atemp>
          </ns3:TrackPointExtension>
        </extensions>
      </trkpt>
      <trkpt lat="42.56151183508336544036865234375" lon="20.09977036155760288238525390625">
        <ele>1998.5999755859375</ele>
        <time>2026-06-19T12:58:31.000Z</time>
        <extensions>
          <ns3:TrackPointExtension>
            <ns3:atemp>23.0</ns3:atemp>
          </ns3:TrackPointExtension>
        </extensions>
      </trkpt>
      <trkpt lat="42.56151183508336544036865234375" lon="20.09977036155760288238525390625">
        <ele>1998.5999755859375</ele>
        <time>2026-06-19T12:58:32.000Z</time>
        <extensions>
          <ns3:TrackPointExtension>
            <ns3:atemp>23.0</ns3:atemp>
          </ns3:TrackPointExtension>
        </extensions>
      </trkpt>
      <trkpt lat="42.56151183508336544036865234375" lon="20.09977036155760288238525390625">
        <ele>1998.5999755859375</ele>
        <time>2026-06-19T12:58:33.000Z</time>
        <extensions>
          <ns3:TrackPointExtension>
            <ns3:atemp>23.0</ns3:atemp>
          </ns3:TrackPointExtension>
        </extensions>
      </trkpt>
      <trkpt lat="42.56151183508336544036865234375" lon="20.09977036155760288238525390625">
        <ele>1998.5999755859375</ele>
        <time>2026-06-19T12:58:34.000Z</time>
        <extensions>
          <ns3:TrackPointExtension>
            <ns3:atemp>23.0</ns3:atemp>
          </ns3:TrackPointExtension>
        </extensions>
      </trkpt>
      <trkpt lat="42.56151183508336544036865234375" lon="20.09977036155760288238525390625">
        <ele>1998.5999755859375</ele>
        <time>2026-06-19T12:58:35.000Z</time>
        <extensions>
          <ns3:TrackPointExtension>
            <ns3:atemp>23.0</ns3:atemp>
          </ns3:TrackPointExtension>
        </extensions>
      </trkpt>
      <trkpt lat="42.56151183508336544036865234375" lon="20.09977036155760288238525390625">
        <ele>1998.5999755859375</ele>
        <time>2026-06-19T12:58:36.000Z</time>
        <extensions>
          <ns3:TrackPointExtension>
            <ns3:atemp>23.0</ns3:atemp>
          </ns3:TrackPointExtension>
        </extensions>
      </trkpt>
      <trkpt lat="42.56151183508336544036865234375" lon="20.09977036155760288238525390625">
        <ele>1998.5999755859375</ele>
        <time>2026-06-19T12:58:37.000Z</time>
        <extensions>
          <ns3:TrackPointExtension>
            <ns3:atemp>23.0</ns3:atemp>
          </ns3:TrackPointExtension>
        </extensions>
      </trkpt>
      <trkpt lat="42.56151183508336544036865234375" lon="20.09977036155760288238525390625">
        <ele>1998.5999755859375</ele>
        <time>2026-06-19T12:58:38.000Z</time>
        <extensions>
          <ns3:TrackPointExtension>
            <ns3:atemp>23.0</ns3:atemp>
          </ns3:TrackPointExtension>
        </extensions>
      </trkpt>
      <trkpt lat="42.56151183508336544036865234375" lon="20.09977036155760288238525390625">
        <ele>1998.5999755859375</ele>
        <time>2026-06-19T12:58:39.000Z</time>
        <extensions>
          <ns3:TrackPointExtension>
            <ns3:atemp>23.0</ns3:atemp>
          </ns3:TrackPointExtension>
        </extensions>
      </trkpt>
      <trkpt lat="42.56151183508336544036865234375" lon="20.09977036155760288238525390625">
        <ele>1998.5999755859375</ele>
        <time>2026-06-19T12:58:40.000Z</time>
        <extensions>
          <ns3:TrackPointExtension>
            <ns3:atemp>23.0</ns3:atemp>
          </ns3:TrackPointExtension>
        </extensions>
      </trkpt>
      <trkpt lat="42.56151183508336544036865234375" lon="20.09977036155760288238525390625">
        <ele>1998.5999755859375</ele>
        <time>2026-06-19T12:58:41.000Z</time>
        <extensions>
          <ns3:TrackPointExtension>
            <ns3:atemp>23.0</ns3:atemp>
          </ns3:TrackPointExtension>
        </extensions>
      </trkpt>
      <trkpt lat="42.56151183508336544036865234375" lon="20.09977036155760288238525390625">
        <ele>1998.5999755859375</ele>
        <time>2026-06-19T12:58:42.000Z</time>
        <extensions>
          <ns3:TrackPointExtension>
            <ns3:atemp>23.0</ns3:atemp>
          </ns3:TrackPointExtension>
        </extensions>
      </trkpt>
      <trkpt lat="42.56151183508336544036865234375" lon="20.09977036155760288238525390625">
        <ele>1998.5999755859375</ele>
        <time>2026-06-19T12:58:43.000Z</time>
        <extensions>
          <ns3:TrackPointExtension>
            <ns3:atemp>23.0</ns3:atemp>
          </ns3:TrackPointExtension>
        </extensions>
      </trkpt>
      <trkpt lat="42.56151183508336544036865234375" lon="20.09977036155760288238525390625">
        <ele>1998.5999755859375</ele>
        <time>2026-06-19T12:58:44.000Z</time>
        <extensions>
          <ns3:TrackPointExtension>
            <ns3:atemp>23.0</ns3:atemp>
          </ns3:TrackPointExtension>
        </extensions>
      </trkpt>
      <trkpt lat="42.56151183508336544036865234375" lon="20.09977036155760288238525390625">
        <ele>1998.5999755859375</ele>
        <time>2026-06-19T12:58:45.000Z</time>
        <extensions>
          <ns3:TrackPointExtension>
            <ns3:atemp>23.0</ns3:atemp>
          </ns3:TrackPointExtension>
        </extensions>
      </trkpt>
      <trkpt lat="42.56151183508336544036865234375" lon="20.09977036155760288238525390625">
        <ele>1998.5999755859375</ele>
        <time>2026-06-19T12:58:46.000Z</time>
        <extensions>
          <ns3:TrackPointExtension>
            <ns3:atemp>23.0</ns3:atemp>
          </ns3:TrackPointExtension>
        </extensions>
      </trkpt>
      <trkpt lat="42.56151183508336544036865234375" lon="20.09977036155760288238525390625">
        <ele>1998.5999755859375</ele>
        <time>2026-06-19T12:58:47.000Z</time>
        <extensions>
          <ns3:TrackPointExtension>
            <ns3:atemp>23.0</ns3:atemp>
          </ns3:TrackPointExtension>
        </extensions>
      </trkpt>
      <trkpt lat="42.56151183508336544036865234375" lon="20.09977036155760288238525390625">
        <ele>1998.5999755859375</ele>
        <time>2026-06-19T12:58:48.000Z</time>
        <extensions>
          <ns3:TrackPointExtension>
            <ns3:atemp>23.0</ns3:atemp>
          </ns3:TrackPointExtension>
        </extensions>
      </trkpt>
      <trkpt lat="42.56151183508336544036865234375" lon="20.09977036155760288238525390625">
        <ele>1998.5999755859375</ele>
        <time>2026-06-19T12:58:49.000Z</time>
        <extensions>
          <ns3:TrackPointExtension>
            <ns3:atemp>23.0</ns3:atemp>
          </ns3:TrackPointExtension>
        </extensions>
      </trkpt>
      <trkpt lat="42.56151183508336544036865234375" lon="20.09977036155760288238525390625">
        <ele>1998.5999755859375</ele>
        <time>2026-06-19T12:58:50.000Z</time>
        <extensions>
          <ns3:TrackPointExtension>
            <ns3:atemp>23.0</ns3:atemp>
          </ns3:TrackPointExtension>
        </extensions>
      </trkpt>
      <trkpt lat="42.56151183508336544036865234375" lon="20.09977036155760288238525390625">
        <ele>1998.5999755859375</ele>
        <time>2026-06-19T12:58:51.000Z</time>
        <extensions>
          <ns3:TrackPointExtension>
            <ns3:atemp>23.0</ns3:atemp>
          </ns3:TrackPointExtension>
        </extensions>
      </trkpt>
      <trkpt lat="42.56151183508336544036865234375" lon="20.09977036155760288238525390625">
        <ele>1998.5999755859375</ele>
        <time>2026-06-19T12:58:52.000Z</time>
        <extensions>
          <ns3:TrackPointExtension>
            <ns3:atemp>23.0</ns3:atemp>
          </ns3:TrackPointExtension>
        </extensions>
      </trkpt>
      <trkpt lat="42.56151183508336544036865234375" lon="20.09977036155760288238525390625">
        <ele>1998.5999755859375</ele>
        <time>2026-06-19T12:58:53.000Z</time>
        <extensions>
          <ns3:TrackPointExtension>
            <ns3:atemp>23.0</ns3:atemp>
          </ns3:TrackPointExtension>
        </extensions>
      </trkpt>
      <trkpt lat="42.56151183508336544036865234375" lon="20.09977036155760288238525390625">
        <ele>1998.5999755859375</ele>
        <time>2026-06-19T12:58:54.000Z</time>
        <extensions>
          <ns3:TrackPointExtension>
            <ns3:atemp>23.0</ns3:atemp>
          </ns3:TrackPointExtension>
        </extensions>
      </trkpt>
      <trkpt lat="42.56151183508336544036865234375" lon="20.09977036155760288238525390625">
        <ele>1998.5999755859375</ele>
        <time>2026-06-19T12:58:55.000Z</time>
        <extensions>
          <ns3:TrackPointExtension>
            <ns3:atemp>23.0</ns3:atemp>
          </ns3:TrackPointExtension>
        </extensions>
      </trkpt>
      <trkpt lat="42.56151183508336544036865234375" lon="20.09977036155760288238525390625">
        <ele>1998.5999755859375</ele>
        <time>2026-06-19T12:58:56.000Z</time>
        <extensions>
          <ns3:TrackPointExtension>
            <ns3:atemp>23.0</ns3:atemp>
          </ns3:TrackPointExtension>
        </extensions>
      </trkpt>
      <trkpt lat="42.56151183508336544036865234375" lon="20.09977036155760288238525390625">
        <ele>1998.5999755859375</ele>
        <time>2026-06-19T12:58:57.000Z</time>
        <extensions>
          <ns3:TrackPointExtension>
            <ns3:atemp>23.0</ns3:atemp>
          </ns3:TrackPointExtension>
        </extensions>
      </trkpt>
      <trkpt lat="42.56151183508336544036865234375" lon="20.09977036155760288238525390625">
        <ele>1998.5999755859375</ele>
        <time>2026-06-19T12:58:58.000Z</time>
        <extensions>
          <ns3:TrackPointExtension>
            <ns3:atemp>23.0</ns3:atemp>
          </ns3:TrackPointExtension>
        </extensions>
      </trkpt>
      <trkpt lat="42.56151183508336544036865234375" lon="20.09977036155760288238525390625">
        <ele>1998.5999755859375</ele>
        <time>2026-06-19T12:58:59.000Z</time>
        <extensions>
          <ns3:TrackPointExtension>
            <ns3:atemp>23.0</ns3:atemp>
          </ns3:TrackPointExtension>
        </extensions>
      </trkpt>
      <trkpt lat="42.56151183508336544036865234375" lon="20.09977036155760288238525390625">
        <ele>1998.5999755859375</ele>
        <time>2026-06-19T12:59:00.000Z</time>
        <extensions>
          <ns3:TrackPointExtension>
            <ns3:atemp>23.0</ns3:atemp>
          </ns3:TrackPointExtension>
        </extensions>
      </trkpt>
      <trkpt lat="42.56151183508336544036865234375" lon="20.09977036155760288238525390625">
        <ele>1998.5999755859375</ele>
        <time>2026-06-19T12:59:01.000Z</time>
        <extensions>
          <ns3:TrackPointExtension>
            <ns3:atemp>23.0</ns3:atemp>
          </ns3:TrackPointExtension>
        </extensions>
      </trkpt>
      <trkpt lat="42.56151183508336544036865234375" lon="20.09977036155760288238525390625">
        <ele>1998.5999755859375</ele>
        <time>2026-06-19T12:59:02.000Z</time>
        <extensions>
          <ns3:TrackPointExtension>
            <ns3:atemp>23.0</ns3:atemp>
          </ns3:TrackPointExtension>
        </extensions>
      </trkpt>
      <trkpt lat="42.56151183508336544036865234375" lon="20.09977036155760288238525390625">
        <ele>1998.5999755859375</ele>
        <time>2026-06-19T12:59:03.000Z</time>
        <extensions>
          <ns3:TrackPointExtension>
            <ns3:atemp>23.0</ns3:atemp>
          </ns3:TrackPointExtension>
        </extensions>
      </trkpt>
      <trkpt lat="42.56151183508336544036865234375" lon="20.09977036155760288238525390625">
        <ele>1998.5999755859375</ele>
        <time>2026-06-19T12:59:04.000Z</time>
        <extensions>
          <ns3:TrackPointExtension>
            <ns3:atemp>23.0</ns3:atemp>
          </ns3:TrackPointExtension>
        </extensions>
      </trkpt>
      <trkpt lat="42.56151183508336544036865234375" lon="20.09977036155760288238525390625">
        <ele>1998.5999755859375</ele>
        <time>2026-06-19T12:59:05.000Z</time>
        <extensions>
          <ns3:TrackPointExtension>
            <ns3:atemp>23.0</ns3:atemp>
          </ns3:TrackPointExtension>
        </extensions>
      </trkpt>
      <trkpt lat="42.56151183508336544036865234375" lon="20.09977036155760288238525390625">
        <ele>1998.5999755859375</ele>
        <time>2026-06-19T12:59:06.000Z</time>
        <extensions>
          <ns3:TrackPointExtension>
            <ns3:atemp>23.0</ns3:atemp>
          </ns3:TrackPointExtension>
        </extensions>
      </trkpt>
      <trkpt lat="42.56151183508336544036865234375" lon="20.09977036155760288238525390625">
        <ele>1998.5999755859375</ele>
        <time>2026-06-19T12:59:07.000Z</time>
        <extensions>
          <ns3:TrackPointExtension>
            <ns3:atemp>23.0</ns3:atemp>
          </ns3:TrackPointExtension>
        </extensions>
      </trkpt>
      <trkpt lat="42.56151183508336544036865234375" lon="20.09977036155760288238525390625">
        <ele>1998.5999755859375</ele>
        <time>2026-06-19T12:59:08.000Z</time>
        <extensions>
          <ns3:TrackPointExtension>
            <ns3:atemp>23.0</ns3:atemp>
          </ns3:TrackPointExtension>
        </extensions>
      </trkpt>
      <trkpt lat="42.56151183508336544036865234375" lon="20.09977036155760288238525390625">
        <ele>1998.5999755859375</ele>
        <time>2026-06-19T12:59:09.000Z</time>
        <extensions>
          <ns3:TrackPointExtension>
            <ns3:atemp>23.0</ns3:atemp>
          </ns3:TrackPointExtension>
        </extensions>
      </trkpt>
      <trkpt lat="42.56150831468403339385986328125" lon="20.09977119974792003631591796875">
        <ele>1998.5999755859375</ele>
        <time>2026-06-19T12:59:10.000Z</time>
        <extensions>
          <ns3:TrackPointExtension>
            <ns3:atemp>23.0</ns3:atemp>
          </ns3:TrackPointExtension>
        </extensions>
      </trkpt>
      <trkpt lat="42.5614969991147518157958984375" lon="20.09977505542337894439697265625">
        <ele>1998.5999755859375</ele>
        <time>2026-06-19T12:59:11.000Z</time>
        <extensions>
          <ns3:TrackPointExtension>
            <ns3:atemp>23.0</ns3:atemp>
          </ns3:TrackPointExtension>
        </extensions>
      </trkpt>
      <trkpt lat="42.56149121560156345367431640625" lon="20.0997778214514255523681640625">
        <ele>1998.5999755859375</ele>
        <time>2026-06-19T12:59:12.000Z</time>
        <extensions>
          <ns3:TrackPointExtension>
            <ns3:atemp>23.0</ns3:atemp>
          </ns3:TrackPointExtension>
        </extensions>
      </trkpt>
      <trkpt lat="42.56147763691842555999755859375" lon="20.099784694612026214599609375">
        <ele>1998.5999755859375</ele>
        <time>2026-06-19T12:59:13.000Z</time>
        <extensions>
          <ns3:TrackPointExtension>
            <ns3:atemp>23.0</ns3:atemp>
          </ns3:TrackPointExtension>
        </extensions>
      </trkpt>
      <trkpt lat="42.561455257236957550048828125" lon="20.0998002849519252777099609375">
        <ele>1998.800048828125</ele>
        <time>2026-06-19T12:59:14.000Z</time>
        <extensions>
          <ns3:TrackPointExtension>
            <ns3:atemp>23.0</ns3:atemp>
          </ns3:TrackPointExtension>
        </extensions>
      </trkpt>
      <trkpt lat="42.56143220700323581695556640625" lon="20.0998113490641117095947265625">
        <ele>1998.5999755859375</ele>
        <time>2026-06-19T12:59:15.000Z</time>
        <extensions>
          <ns3:TrackPointExtension>
            <ns3:atemp>23.0</ns3:atemp>
          </ns3:TrackPointExtension>
        </extensions>
      </trkpt>
      <trkpt lat="42.56141393445432186126708984375" lon="20.0998197309672832489013671875">
        <ele>1998.199951171875</ele>
        <time>2026-06-19T12:59:16.000Z</time>
        <extensions>
          <ns3:TrackPointExtension>
            <ns3:atemp>23.0</ns3:atemp>
          </ns3:TrackPointExtension>
        </extensions>
      </trkpt>
      <trkpt lat="42.5614014454185962677001953125" lon="20.09982551448047161102294921875">
        <ele>1997.5999755859375</ele>
        <time>2026-06-19T12:59:17.000Z</time>
        <extensions>
          <ns3:TrackPointExtension>
            <ns3:atemp>23.0</ns3:atemp>
          </ns3:TrackPointExtension>
        </extensions>
      </trkpt>
      <trkpt lat="42.56138811819255352020263671875" lon="20.09982115589082241058349609375">
        <ele>1997.199951171875</ele>
        <time>2026-06-19T12:59:18.000Z</time>
        <extensions>
          <ns3:TrackPointExtension>
            <ns3:atemp>23.0</ns3:atemp>
          </ns3:TrackPointExtension>
        </extensions>
      </trkpt>
      <trkpt lat="42.5613659061491489410400390625" lon="20.09982769377529621124267578125">
        <ele>1996.5999755859375</ele>
        <time>2026-06-19T12:59:19.000Z</time>
        <extensions>
          <ns3:TrackPointExtension>
            <ns3:atemp>23.0</ns3:atemp>
          </ns3:TrackPointExtension>
        </extensions>
      </trkpt>
      <trkpt lat="42.561339251697063446044921875" lon="20.09984412230551242828369140625">
        <ele>1996.199951171875</ele>
        <time>2026-06-19T12:59:20.000Z</time>
        <extensions>
          <ns3:TrackPointExtension>
            <ns3:atemp>23.0</ns3:atemp>
          </ns3:TrackPointExtension>
        </extensions>
      </trkpt>
      <trkpt lat="42.56130547262728214263916015625" lon="20.099852085113525390625">
        <ele>1995.5999755859375</ele>
        <time>2026-06-19T12:59:21.000Z</time>
        <extensions>
          <ns3:TrackPointExtension>
            <ns3:atemp>23.0</ns3:atemp>
          </ns3:TrackPointExtension>
        </extensions>
      </trkpt>
      <trkpt lat="42.56127060391008853912353515625" lon="20.09985920973122119903564453125">
        <ele>1995</ele>
        <time>2026-06-19T12:59:22.000Z</time>
        <extensions>
          <ns3:TrackPointExtension>
            <ns3:atemp>23.0</ns3:atemp>
          </ns3:TrackPointExtension>
        </extensions>
      </trkpt>
      <trkpt lat="42.56124042905867099761962890625" lon="20.09987211786210536956787109375">
        <ele>1994.4000244140625</ele>
        <time>2026-06-19T12:59:23.000Z</time>
        <extensions>
          <ns3:TrackPointExtension>
            <ns3:atemp>23.0</ns3:atemp>
          </ns3:TrackPointExtension>
        </extensions>
      </trkpt>
      <trkpt lat="42.56120857782661914825439453125" lon="20.099881254136562347412109375">
        <ele>1993.800048828125</ele>
        <time>2026-06-19T12:59:24.000Z</time>
        <extensions>
          <ns3:TrackPointExtension>
            <ns3:atemp>23.0</ns3:atemp>
          </ns3:TrackPointExtension>
        </extensions>
      </trkpt>
      <trkpt lat="42.56117873825132846832275390625" lon="20.09989701211452484130859375">
        <ele>1993.5999755859375</ele>
        <time>2026-06-19T12:59:25.000Z</time>
        <extensions>
          <ns3:TrackPointExtension>
            <ns3:atemp>23.0</ns3:atemp>
          </ns3:TrackPointExtension>
        </extensions>
      </trkpt>
      <trkpt lat="42.56115241907536983489990234375" lon="20.0999112613499164581298828125">
        <ele>1993</ele>
        <time>2026-06-19T12:59:26.000Z</time>
        <extensions>
          <ns3:TrackPointExtension>
            <ns3:atemp>23.0</ns3:atemp>
          </ns3:TrackPointExtension>
        </extensions>
      </trkpt>
      <trkpt lat="42.56113112904131412506103515625" lon="20.09991310536861419677734375">
        <ele>1992.4000244140625</ele>
        <time>2026-06-19T12:59:27.000Z</time>
        <extensions>
          <ns3:TrackPointExtension>
            <ns3:atemp>23.0</ns3:atemp>
          </ns3:TrackPointExtension>
        </extensions>
      </trkpt>
      <trkpt lat="42.56110983900725841522216796875" lon="20.0999112613499164581298828125">
        <ele>1992</ele>
        <time>2026-06-19T12:59:28.000Z</time>
        <extensions>
          <ns3:TrackPointExtension>
            <ns3:atemp>23.0</ns3:atemp>
          </ns3:TrackPointExtension>
        </extensions>
      </trkpt>
      <trkpt lat="42.56108536384999752044677734375" lon="20.09991310536861419677734375">
        <ele>1991.5999755859375</ele>
        <time>2026-06-19T12:59:29.000Z</time>
        <extensions>
          <ns3:TrackPointExtension>
            <ns3:atemp>23.0</ns3:atemp>
          </ns3:TrackPointExtension>
        </extensions>
      </trkpt>
      <trkpt lat="42.561063654720783233642578125" lon="20.09991310536861419677734375">
        <ele>1991</ele>
        <time>2026-06-19T12:59:30.000Z</time>
        <extensions>
          <ns3:TrackPointExtension>
            <ns3:atemp>23.0</ns3:atemp>
          </ns3:TrackPointExtension>
        </extensions>
      </trkpt>
      <trkpt lat="42.56104781292378902435302734375" lon="20.09990916587412357330322265625">
        <ele>1990.800048828125</ele>
        <time>2026-06-19T12:59:31.000Z</time>
        <extensions>
          <ns3:TrackPointExtension>
            <ns3:atemp>23.0</ns3:atemp>
          </ns3:TrackPointExtension>
        </extensions>
      </trkpt>
      <trkpt lat="42.56103121675550937652587890625" lon="20.0999052263796329498291015625">
        <ele>1990.4000244140625</ele>
        <time>2026-06-19T12:59:32.000Z</time>
        <extensions>
          <ns3:TrackPointExtension>
            <ns3:atemp>23.0</ns3:atemp>
          </ns3:TrackPointExtension>
        </extensions>
      </trkpt>
      <trkpt lat="42.56102467887103557586669921875" lon="20.09990061633288860321044921875">
        <ele>1990.199951171875</ele>
        <time>2026-06-19T12:59:33.000Z</time>
        <extensions>
          <ns3:TrackPointExtension>
            <ns3:atemp>23.0</ns3:atemp>
          </ns3:TrackPointExtension>
        </extensions>
      </trkpt>
      <trkpt lat="42.561025433242321014404296875" lon="20.099899359047412872314453125">
        <ele>1990</ele>
        <time>2026-06-19T12:59:34.000Z</time>
        <extensions>
          <ns3:TrackPointExtension>
            <ns3:atemp>23.0</ns3:atemp>
          </ns3:TrackPointExtension>
        </extensions>
      </trkpt>
      <trkpt lat="42.56102501414716243743896484375" lon="20.09990103542804718017578125">
        <ele>1990</ele>
        <time>2026-06-19T12:59:35.000Z</time>
        <extensions>
          <ns3:TrackPointExtension>
            <ns3:atemp>23.0</ns3:atemp>
          </ns3:TrackPointExtension>
        </extensions>
      </trkpt>
      <trkpt lat="42.56102501414716243743896484375" lon="20.09990111924707889556884765625">
        <ele>1990</ele>
        <time>2026-06-19T12:59:36.000Z</time>
        <extensions>
          <ns3:TrackPointExtension>
            <ns3:atemp>23.0</ns3:atemp>
          </ns3:TrackPointExtension>
        </extensions>
      </trkpt>
      <trkpt lat="42.56102501414716243743896484375" lon="20.09990111924707889556884765625">
        <ele>1990</ele>
        <time>2026-06-19T12:59:37.000Z</time>
        <extensions>
          <ns3:TrackPointExtension>
            <ns3:atemp>23.0</ns3:atemp>
          </ns3:TrackPointExtension>
        </extensions>
      </trkpt>
      <trkpt lat="42.56102501414716243743896484375" lon="20.09990111924707889556884765625">
        <ele>1989.800048828125</ele>
        <time>2026-06-19T12:59:38.000Z</time>
        <extensions>
          <ns3:TrackPointExtension>
            <ns3:atemp>23.0</ns3:atemp>
          </ns3:TrackPointExtension>
        </extensions>
      </trkpt>
      <trkpt lat="42.56102501414716243743896484375" lon="20.09990111924707889556884765625">
        <ele>1989.5999755859375</ele>
        <time>2026-06-19T12:59:39.000Z</time>
        <extensions>
          <ns3:TrackPointExtension>
            <ns3:atemp>23.0</ns3:atemp>
          </ns3:TrackPointExtension>
        </extensions>
      </trkpt>
      <trkpt lat="42.56102501414716243743896484375" lon="20.09990111924707889556884765625">
        <ele>1989.4000244140625</ele>
        <time>2026-06-19T12:59:40.000Z</time>
        <extensions>
          <ns3:TrackPointExtension>
            <ns3:atemp>23.0</ns3:atemp>
          </ns3:TrackPointExtension>
        </extensions>
      </trkpt>
      <trkpt lat="42.56102501414716243743896484375" lon="20.09990111924707889556884765625">
        <ele>1989.199951171875</ele>
        <time>2026-06-19T12:59:41.000Z</time>
        <extensions>
          <ns3:TrackPointExtension>
            <ns3:atemp>23.0</ns3:atemp>
          </ns3:TrackPointExtension>
        </extensions>
      </trkpt>
      <trkpt lat="42.56102501414716243743896484375" lon="20.09990111924707889556884765625">
        <ele>1989</ele>
        <time>2026-06-19T12:59:42.000Z</time>
        <extensions>
          <ns3:TrackPointExtension>
            <ns3:atemp>23.0</ns3:atemp>
          </ns3:TrackPointExtension>
        </extensions>
      </trkpt>
      <trkpt lat="42.56102501414716243743896484375" lon="20.09990111924707889556884765625">
        <ele>1988.800048828125</ele>
        <time>2026-06-19T12:59:43.000Z</time>
        <extensions>
          <ns3:TrackPointExtension>
            <ns3:atemp>23.0</ns3:atemp>
          </ns3:TrackPointExtension>
        </extensions>
      </trkpt>
      <trkpt lat="42.56102501414716243743896484375" lon="20.09990111924707889556884765625">
        <ele>1988.800048828125</ele>
        <time>2026-06-19T12:59:44.000Z</time>
        <extensions>
          <ns3:TrackPointExtension>
            <ns3:atemp>23.0</ns3:atemp>
          </ns3:TrackPointExtension>
        </extensions>
      </trkpt>
      <trkpt lat="42.56102501414716243743896484375" lon="20.09990111924707889556884765625">
        <ele>1988.800048828125</ele>
        <time>2026-06-19T12:59:45.000Z</time>
        <extensions>
          <ns3:TrackPointExtension>
            <ns3:atemp>23.0</ns3:atemp>
          </ns3:TrackPointExtension>
        </extensions>
      </trkpt>
      <trkpt lat="42.56102501414716243743896484375" lon="20.09990111924707889556884765625">
        <ele>1988.800048828125</ele>
        <time>2026-06-19T12:59:46.000Z</time>
        <extensions>
          <ns3:TrackPointExtension>
            <ns3:atemp>23.0</ns3:atemp>
          </ns3:TrackPointExtension>
        </extensions>
      </trkpt>
      <trkpt lat="42.56102501414716243743896484375" lon="20.09990111924707889556884765625">
        <ele>1988.800048828125</ele>
        <time>2026-06-19T12:59:47.000Z</time>
        <extensions>
          <ns3:TrackPointExtension>
            <ns3:atemp>23.0</ns3:atemp>
          </ns3:TrackPointExtension>
        </extensions>
      </trkpt>
      <trkpt lat="42.56102501414716243743896484375" lon="20.09990111924707889556884765625">
        <ele>1988.800048828125</ele>
        <time>2026-06-19T12:59:48.000Z</time>
        <extensions>
          <ns3:TrackPointExtension>
            <ns3:atemp>23.0</ns3:atemp>
          </ns3:TrackPointExtension>
        </extensions>
      </trkpt>
      <trkpt lat="42.56102501414716243743896484375" lon="20.09990111924707889556884765625">
        <ele>1988.800048828125</ele>
        <time>2026-06-19T12:59:49.000Z</time>
        <extensions>
          <ns3:TrackPointExtension>
            <ns3:atemp>23.0</ns3:atemp>
          </ns3:TrackPointExtension>
        </extensions>
      </trkpt>
      <trkpt lat="42.56102501414716243743896484375" lon="20.09990111924707889556884765625">
        <ele>1988.800048828125</ele>
        <time>2026-06-19T12:59:50.000Z</time>
        <extensions>
          <ns3:TrackPointExtension>
            <ns3:atemp>23.0</ns3:atemp>
          </ns3:TrackPointExtension>
        </extensions>
      </trkpt>
      <trkpt lat="42.56102501414716243743896484375" lon="20.09990111924707889556884765625">
        <ele>1988.800048828125</ele>
        <time>2026-06-19T12:59:51.000Z</time>
        <extensions>
          <ns3:TrackPointExtension>
            <ns3:atemp>23.0</ns3:atemp>
          </ns3:TrackPointExtension>
        </extensions>
      </trkpt>
      <trkpt lat="42.56102501414716243743896484375" lon="20.09990111924707889556884765625">
        <ele>1988.800048828125</ele>
        <time>2026-06-19T12:59:52.000Z</time>
        <extensions>
          <ns3:TrackPointExtension>
            <ns3:atemp>23.0</ns3:atemp>
          </ns3:TrackPointExtension>
        </extensions>
      </trkpt>
      <trkpt lat="42.56102501414716243743896484375" lon="20.09990111924707889556884765625">
        <ele>1988.800048828125</ele>
        <time>2026-06-19T12:59:53.000Z</time>
        <extensions>
          <ns3:TrackPointExtension>
            <ns3:atemp>23.0</ns3:atemp>
          </ns3:TrackPointExtension>
        </extensions>
      </trkpt>
      <trkpt lat="42.56102501414716243743896484375" lon="20.09990111924707889556884765625">
        <ele>1988.800048828125</ele>
        <time>2026-06-19T12:59:54.000Z</time>
        <extensions>
          <ns3:TrackPointExtension>
            <ns3:atemp>23.0</ns3:atemp>
          </ns3:TrackPointExtension>
        </extensions>
      </trkpt>
      <trkpt lat="42.56102501414716243743896484375" lon="20.09990111924707889556884765625">
        <ele>1988.800048828125</ele>
        <time>2026-06-19T12:59:55.000Z</time>
        <extensions>
          <ns3:TrackPointExtension>
            <ns3:atemp>23.0</ns3:atemp>
          </ns3:TrackPointExtension>
        </extensions>
      </trkpt>
      <trkpt lat="42.56102501414716243743896484375" lon="20.09990111924707889556884765625">
        <ele>1988.800048828125</ele>
        <time>2026-06-19T12:59:56.000Z</time>
        <extensions>
          <ns3:TrackPointExtension>
            <ns3:atemp>23.0</ns3:atemp>
          </ns3:TrackPointExtension>
        </extensions>
      </trkpt>
      <trkpt lat="42.56102501414716243743896484375" lon="20.09990111924707889556884765625">
        <ele>1988.800048828125</ele>
        <time>2026-06-19T12:59:57.000Z</time>
        <extensions>
          <ns3:TrackPointExtension>
            <ns3:atemp>23.0</ns3:atemp>
          </ns3:TrackPointExtension>
        </extensions>
      </trkpt>
      <trkpt lat="42.56102501414716243743896484375" lon="20.09990111924707889556884765625">
        <ele>1988.5999755859375</ele>
        <time>2026-06-19T12:59:58.000Z</time>
        <extensions>
          <ns3:TrackPointExtension>
            <ns3:atemp>23.0</ns3:atemp>
          </ns3:TrackPointExtension>
        </extensions>
      </trkpt>
      <trkpt lat="42.56102501414716243743896484375" lon="20.09990111924707889556884765625">
        <ele>1988.5999755859375</ele>
        <time>2026-06-19T12:59:59.000Z</time>
        <extensions>
          <ns3:TrackPointExtension>
            <ns3:atemp>23.0</ns3:atemp>
          </ns3:TrackPointExtension>
        </extensions>
      </trkpt>
      <trkpt lat="42.56102501414716243743896484375" lon="20.09990111924707889556884765625">
        <ele>1988.5999755859375</ele>
        <time>2026-06-19T13:00:00.000Z</time>
        <extensions>
          <ns3:TrackPointExtension>
            <ns3:atemp>23.0</ns3:atemp>
          </ns3:TrackPointExtension>
        </extensions>
      </trkpt>
      <trkpt lat="42.56102501414716243743896484375" lon="20.09990111924707889556884765625">
        <ele>1988.5999755859375</ele>
        <time>2026-06-19T13:00:01.000Z</time>
        <extensions>
          <ns3:TrackPointExtension>
            <ns3:atemp>23.0</ns3:atemp>
          </ns3:TrackPointExtension>
        </extensions>
      </trkpt>
      <trkpt lat="42.56102501414716243743896484375" lon="20.09990111924707889556884765625">
        <ele>1988.5999755859375</ele>
        <time>2026-06-19T13:00:02.000Z</time>
        <extensions>
          <ns3:TrackPointExtension>
            <ns3:atemp>23.0</ns3:atemp>
          </ns3:TrackPointExtension>
        </extensions>
      </trkpt>
      <trkpt lat="42.56102501414716243743896484375" lon="20.09990111924707889556884765625">
        <ele>1988.5999755859375</ele>
        <time>2026-06-19T13:00:03.000Z</time>
        <extensions>
          <ns3:TrackPointExtension>
            <ns3:atemp>23.0</ns3:atemp>
          </ns3:TrackPointExtension>
        </extensions>
      </trkpt>
      <trkpt lat="42.56102501414716243743896484375" lon="20.09990111924707889556884765625">
        <ele>1988.5999755859375</ele>
        <time>2026-06-19T13:00:04.000Z</time>
        <extensions>
          <ns3:TrackPointExtension>
            <ns3:atemp>23.0</ns3:atemp>
          </ns3:TrackPointExtension>
        </extensions>
      </trkpt>
      <trkpt lat="42.56102501414716243743896484375" lon="20.09990111924707889556884765625">
        <ele>1988.5999755859375</ele>
        <time>2026-06-19T13:00:05.000Z</time>
        <extensions>
          <ns3:TrackPointExtension>
            <ns3:atemp>23.0</ns3:atemp>
          </ns3:TrackPointExtension>
        </extensions>
      </trkpt>
      <trkpt lat="42.56102501414716243743896484375" lon="20.09990111924707889556884765625">
        <ele>1988.5999755859375</ele>
        <time>2026-06-19T13:00:06.000Z</time>
        <extensions>
          <ns3:TrackPointExtension>
            <ns3:atemp>23.0</ns3:atemp>
          </ns3:TrackPointExtension>
        </extensions>
      </trkpt>
      <trkpt lat="42.56102501414716243743896484375" lon="20.09990111924707889556884765625">
        <ele>1988.5999755859375</ele>
        <time>2026-06-19T13:00:07.000Z</time>
        <extensions>
          <ns3:TrackPointExtension>
            <ns3:atemp>23.0</ns3:atemp>
          </ns3:TrackPointExtension>
        </extensions>
      </trkpt>
      <trkpt lat="42.56102501414716243743896484375" lon="20.09990111924707889556884765625">
        <ele>1988.5999755859375</ele>
        <time>2026-06-19T13:00:08.000Z</time>
        <extensions>
          <ns3:TrackPointExtension>
            <ns3:atemp>23.0</ns3:atemp>
          </ns3:TrackPointExtension>
        </extensions>
      </trkpt>
      <trkpt lat="42.56102501414716243743896484375" lon="20.09990111924707889556884765625">
        <ele>1988.4000244140625</ele>
        <time>2026-06-19T13:00:09.000Z</time>
        <extensions>
          <ns3:TrackPointExtension>
            <ns3:atemp>23.0</ns3:atemp>
          </ns3:TrackPointExtension>
        </extensions>
      </trkpt>
      <trkpt lat="42.56102501414716243743896484375" lon="20.09990111924707889556884765625">
        <ele>1988.4000244140625</ele>
        <time>2026-06-19T13:00:10.000Z</time>
        <extensions>
          <ns3:TrackPointExtension>
            <ns3:atemp>23.0</ns3:atemp>
          </ns3:TrackPointExtension>
        </extensions>
      </trkpt>
      <trkpt lat="42.56102501414716243743896484375" lon="20.09990111924707889556884765625">
        <ele>1988.4000244140625</ele>
        <time>2026-06-19T13:00:11.000Z</time>
        <extensions>
          <ns3:TrackPointExtension>
            <ns3:atemp>23.0</ns3:atemp>
          </ns3:TrackPointExtension>
        </extensions>
      </trkpt>
      <trkpt lat="42.56102501414716243743896484375" lon="20.09990111924707889556884765625">
        <ele>1988.4000244140625</ele>
        <time>2026-06-19T13:00:12.000Z</time>
        <extensions>
          <ns3:TrackPointExtension>
            <ns3:atemp>23.0</ns3:atemp>
          </ns3:TrackPointExtension>
        </extensions>
      </trkpt>
      <trkpt lat="42.56102501414716243743896484375" lon="20.09990111924707889556884765625">
        <ele>1988.4000244140625</ele>
        <time>2026-06-19T13:00:13.000Z</time>
        <extensions>
          <ns3:TrackPointExtension>
            <ns3:atemp>23.0</ns3:atemp>
          </ns3:TrackPointExtension>
        </extensions>
      </trkpt>
      <trkpt lat="42.56102501414716243743896484375" lon="20.09990111924707889556884765625">
        <ele>1988.5999755859375</ele>
        <time>2026-06-19T13:00:14.000Z</time>
        <extensions>
          <ns3:TrackPointExtension>
            <ns3:atemp>23.0</ns3:atemp>
          </ns3:TrackPointExtension>
        </extensions>
      </trkpt>
      <trkpt lat="42.56102501414716243743896484375" lon="20.09990111924707889556884765625">
        <ele>1988.5999755859375</ele>
        <time>2026-06-19T13:00:15.000Z</time>
        <extensions>
          <ns3:TrackPointExtension>
            <ns3:atemp>23.0</ns3:atemp>
          </ns3:TrackPointExtension>
        </extensions>
      </trkpt>
      <trkpt lat="42.56102501414716243743896484375" lon="20.09990111924707889556884765625">
        <ele>1988.5999755859375</ele>
        <time>2026-06-19T13:00:16.000Z</time>
        <extensions>
          <ns3:TrackPointExtension>
            <ns3:atemp>23.0</ns3:atemp>
          </ns3:TrackPointExtension>
        </extensions>
      </trkpt>
      <trkpt lat="42.56102501414716243743896484375" lon="20.09990111924707889556884765625">
        <ele>1988.5999755859375</ele>
        <time>2026-06-19T13:00:17.000Z</time>
        <extensions>
          <ns3:TrackPointExtension>
            <ns3:atemp>23.0</ns3:atemp>
          </ns3:TrackPointExtension>
        </extensions>
      </trkpt>
      <trkpt lat="42.56102501414716243743896484375" lon="20.09990111924707889556884765625">
        <ele>1988.4000244140625</ele>
        <time>2026-06-19T13:00:18.000Z</time>
        <extensions>
          <ns3:TrackPointExtension>
            <ns3:atemp>23.0</ns3:atemp>
          </ns3:TrackPointExtension>
        </extensions>
      </trkpt>
      <trkpt lat="42.56102501414716243743896484375" lon="20.09990111924707889556884765625">
        <ele>1988.4000244140625</ele>
        <time>2026-06-19T13:00:19.000Z</time>
        <extensions>
          <ns3:TrackPointExtension>
            <ns3:atemp>23.0</ns3:atemp>
          </ns3:TrackPointExtension>
        </extensions>
      </trkpt>
      <trkpt lat="42.5610252656042575836181640625" lon="20.09990262798964977264404296875">
        <ele>1988.199951171875</ele>
        <time>2026-06-19T13:00:20.000Z</time>
        <extensions>
          <ns3:TrackPointExtension>
            <ns3:atemp>23.0</ns3:atemp>
          </ns3:TrackPointExtension>
        </extensions>
      </trkpt>
      <trkpt lat="42.56101696752011775970458984375" lon="20.09990095160901546478271484375">
        <ele>1988.199951171875</ele>
        <time>2026-06-19T13:00:21.000Z</time>
        <extensions>
          <ns3:TrackPointExtension>
            <ns3:atemp>23.0</ns3:atemp>
          </ns3:TrackPointExtension>
        </extensions>
      </trkpt>
      <trkpt lat="42.56100757978856563568115234375" lon="20.099912099540233612060546875">
        <ele>1988.199951171875</ele>
        <time>2026-06-19T13:00:22.000Z</time>
        <extensions>
          <ns3:TrackPointExtension>
            <ns3:atemp>23.0</ns3:atemp>
          </ns3:TrackPointExtension>
        </extensions>
      </trkpt>
      <trkpt lat="42.5609977729618549346923828125" lon="20.09992710314691066741943359375">
        <ele>1988.199951171875</ele>
        <time>2026-06-19T13:00:23.000Z</time>
        <extensions>
          <ns3:TrackPointExtension>
            <ns3:atemp>23.0</ns3:atemp>
          </ns3:TrackPointExtension>
        </extensions>
      </trkpt>
      <trkpt lat="42.5609903968870639801025390625" lon="20.09994135238230228424072265625">
        <ele>1988.199951171875</ele>
        <time>2026-06-19T13:00:24.000Z</time>
        <extensions>
          <ns3:TrackPointExtension>
            <ns3:atemp>23.0</ns3:atemp>
          </ns3:TrackPointExtension>
        </extensions>
      </trkpt>
      <trkpt lat="42.56098486483097076416015625" lon="20.09994688443839550018310546875">
        <ele>1988.4000244140625</ele>
        <time>2026-06-19T13:00:25.000Z</time>
        <extensions>
          <ns3:TrackPointExtension>
            <ns3:atemp>23.0</ns3:atemp>
          </ns3:TrackPointExtension>
        </extensions>
      </trkpt>
      <trkpt lat="42.56098511628806591033935546875" lon="20.09995057247579097747802734375">
        <ele>1988.5999755859375</ele>
        <time>2026-06-19T13:00:26.000Z</time>
        <extensions>
          <ns3:TrackPointExtension>
            <ns3:atemp>23.0</ns3:atemp>
          </ns3:TrackPointExtension>
        </extensions>
      </trkpt>
      <trkpt lat="42.56098394282162189483642578125" lon="20.09995426051318645477294921875">
        <ele>1988.800048828125</ele>
        <time>2026-06-19T13:00:27.000Z</time>
        <extensions>
          <ns3:TrackPointExtension>
            <ns3:atemp>23.0</ns3:atemp>
          </ns3:TrackPointExtension>
        </extensions>
      </trkpt>
      <trkpt lat="42.56098218262195587158203125" lon="20.09996079839766025543212890625">
        <ele>1989</ele>
        <time>2026-06-19T13:00:28.000Z</time>
        <extensions>
          <ns3:TrackPointExtension>
            <ns3:atemp>23.0</ns3:atemp>
          </ns3:TrackPointExtension>
        </extensions>
      </trkpt>
      <trkpt lat="42.5609815120697021484375" lon="20.09996850974857807159423828125">
        <ele>1989.199951171875</ele>
        <time>2026-06-19T13:00:29.000Z</time>
        <extensions>
          <ns3:TrackPointExtension>
            <ns3:atemp>23.0</ns3:atemp>
          </ns3:TrackPointExtension>
        </extensions>
      </trkpt>
      <trkpt lat="42.56097757257521152496337890625" lon="20.09997638873755931854248046875">
        <ele>1989.4000244140625</ele>
        <time>2026-06-19T13:00:30.000Z</time>
        <extensions>
          <ns3:TrackPointExtension>
            <ns3:atemp>23.0</ns3:atemp>
          </ns3:TrackPointExtension>
        </extensions>
      </trkpt>
      <trkpt lat="42.560973130166530609130859375" lon="20.0999823398888111114501953125">
        <ele>1989.5999755859375</ele>
        <time>2026-06-19T13:00:31.000Z</time>
        <extensions>
          <ns3:TrackPointExtension>
            <ns3:atemp>23.0</ns3:atemp>
          </ns3:TrackPointExtension>
        </extensions>
      </trkpt>
      <trkpt lat="42.56097136996686458587646484375" lon="20.0999902188777923583984375">
        <ele>1989.800048828125</ele>
        <time>2026-06-19T13:00:32.000Z</time>
        <extensions>
          <ns3:TrackPointExtension>
            <ns3:atemp>23.0</ns3:atemp>
          </ns3:TrackPointExtension>
        </extensions>
      </trkpt>
      <trkpt lat="42.56096877157688140869140625" lon="20.09999767877161502838134765625">
        <ele>1989.800048828125</ele>
        <time>2026-06-19T13:00:33.000Z</time>
        <extensions>
          <ns3:TrackPointExtension>
            <ns3:atemp>23.0</ns3:atemp>
          </ns3:TrackPointExtension>
        </extensions>
      </trkpt>
      <trkpt lat="42.560967765748500823974609375" lon="20.10000430047512054443359375">
        <ele>1990</ele>
        <time>2026-06-19T13:00:34.000Z</time>
        <extensions>
          <ns3:TrackPointExtension>
            <ns3:atemp>23.0</ns3:atemp>
          </ns3:TrackPointExtension>
        </extensions>
      </trkpt>
      <trkpt lat="42.56096466444432735443115234375" lon="20.10001058690249919891357421875">
        <ele>1990.5999755859375</ele>
        <time>2026-06-19T13:00:35.000Z</time>
        <extensions>
          <ns3:TrackPointExtension>
            <ns3:atemp>23.0</ns3:atemp>
          </ns3:TrackPointExtension>
        </extensions>
      </trkpt>
      <trkpt lat="42.5609602220356464385986328125" lon="20.10001234710216522216796875">
        <ele>1990.5999755859375</ele>
        <time>2026-06-19T13:00:36.000Z</time>
        <extensions>
          <ns3:TrackPointExtension>
            <ns3:atemp>23.0</ns3:atemp>
          </ns3:TrackPointExtension>
        </extensions>
      </trkpt>
      <trkpt lat="42.56096013821661472320556640625" lon="20.1000125147402286529541015625">
        <ele>1990.5999755859375</ele>
        <time>2026-06-19T13:00:37.000Z</time>
        <extensions>
          <ns3:TrackPointExtension>
            <ns3:atemp>23.0</ns3:atemp>
          </ns3:TrackPointExtension>
        </extensions>
      </trkpt>
      <trkpt lat="42.56096013821661472320556640625" lon="20.1000125147402286529541015625">
        <ele>1990.5999755859375</ele>
        <time>2026-06-19T13:00:38.000Z</time>
        <extensions>
          <ns3:TrackPointExtension>
            <ns3:atemp>23.0</ns3:atemp>
          </ns3:TrackPointExtension>
        </extensions>
      </trkpt>
      <trkpt lat="42.56096013821661472320556640625" lon="20.1000125147402286529541015625">
        <ele>1990.5999755859375</ele>
        <time>2026-06-19T13:00:39.000Z</time>
        <extensions>
          <ns3:TrackPointExtension>
            <ns3:atemp>23.0</ns3:atemp>
          </ns3:TrackPointExtension>
        </extensions>
      </trkpt>
      <trkpt lat="42.56096013821661472320556640625" lon="20.1000125147402286529541015625">
        <ele>1990.5999755859375</ele>
        <time>2026-06-19T13:00:40.000Z</time>
        <extensions>
          <ns3:TrackPointExtension>
            <ns3:atemp>23.0</ns3:atemp>
          </ns3:TrackPointExtension>
        </extensions>
      </trkpt>
      <trkpt lat="42.56096013821661472320556640625" lon="20.1000125147402286529541015625">
        <ele>1990.5999755859375</ele>
        <time>2026-06-19T13:00:41.000Z</time>
        <extensions>
          <ns3:TrackPointExtension>
            <ns3:atemp>23.0</ns3:atemp>
          </ns3:TrackPointExtension>
        </extensions>
      </trkpt>
      <trkpt lat="42.56096013821661472320556640625" lon="20.1000125147402286529541015625">
        <ele>1990.5999755859375</ele>
        <time>2026-06-19T13:00:42.000Z</time>
        <extensions>
          <ns3:TrackPointExtension>
            <ns3:atemp>23.0</ns3:atemp>
          </ns3:TrackPointExtension>
        </extensions>
      </trkpt>
      <trkpt lat="42.5609592162072658538818359375" lon="20.1000143587589263916015625">
        <ele>1990.5999755859375</ele>
        <time>2026-06-19T13:00:43.000Z</time>
        <extensions>
          <ns3:TrackPointExtension>
            <ns3:atemp>23.0</ns3:atemp>
          </ns3:TrackPointExtension>
        </extensions>
      </trkpt>
      <trkpt lat="42.56094622425734996795654296875" lon="20.100040845572948455810546875">
        <ele>1990.5999755859375</ele>
        <time>2026-06-19T13:00:44.000Z</time>
        <extensions>
          <ns3:TrackPointExtension>
            <ns3:atemp>23.0</ns3:atemp>
          </ns3:TrackPointExtension>
        </extensions>
      </trkpt>
      <trkpt lat="42.5609411112964153289794921875" lon="20.1000450365245342254638671875">
        <ele>1990.5999755859375</ele>
        <time>2026-06-19T13:00:45.000Z</time>
        <extensions>
          <ns3:TrackPointExtension>
            <ns3:atemp>23.0</ns3:atemp>
          </ns3:TrackPointExtension>
        </extensions>
      </trkpt>
      <trkpt lat="42.56093935109674930572509765625" lon="20.1000450365245342254638671875">
        <ele>1990.5999755859375</ele>
        <time>2026-06-19T13:00:46.000Z</time>
        <extensions>
          <ns3:TrackPointExtension>
            <ns3:atemp>23.0</ns3:atemp>
          </ns3:TrackPointExtension>
        </extensions>
      </trkpt>
      <trkpt lat="42.56093935109674930572509765625" lon="20.1000450365245342254638671875">
        <ele>1990.5999755859375</ele>
        <time>2026-06-19T13:00:47.000Z</time>
        <extensions>
          <ns3:TrackPointExtension>
            <ns3:atemp>23.0</ns3:atemp>
          </ns3:TrackPointExtension>
        </extensions>
      </trkpt>
      <trkpt lat="42.5609320588409900665283203125" lon="20.1000654883682727813720703125">
        <ele>1990.800048828125</ele>
        <time>2026-06-19T13:00:48.000Z</time>
        <extensions>
          <ns3:TrackPointExtension>
            <ns3:atemp>23.0</ns3:atemp>
          </ns3:TrackPointExtension>
        </extensions>
      </trkpt>
      <trkpt lat="42.5609260238707065582275390625" lon="20.10008585639297962188720703125">
        <ele>1990.5999755859375</ele>
        <time>2026-06-19T13:00:49.000Z</time>
        <extensions>
          <ns3:TrackPointExtension>
            <ns3:atemp>23.0</ns3:atemp>
          </ns3:TrackPointExtension>
        </extensions>
      </trkpt>
      <trkpt lat="42.56091353483498096466064453125" lon="20.10010463185608386993408203125">
        <ele>1990.4000244140625</ele>
        <time>2026-06-19T13:00:50.000Z</time>
        <extensions>
          <ns3:TrackPointExtension>
            <ns3:atemp>23.0</ns3:atemp>
          </ns3:TrackPointExtension>
        </extensions>
      </trkpt>
      <trkpt lat="42.5608998723328113555908203125" lon="20.1001201383769512176513671875">
        <ele>1990.199951171875</ele>
        <time>2026-06-19T13:00:51.000Z</time>
        <extensions>
          <ns3:TrackPointExtension>
            <ns3:atemp>23.0</ns3:atemp>
          </ns3:TrackPointExtension>
        </extensions>
      </trkpt>
      <trkpt lat="42.56087883375585079193115234375" lon="20.10012407787144184112548828125">
        <ele>1989.800048828125</ele>
        <time>2026-06-19T13:00:52.000Z</time>
        <extensions>
          <ns3:TrackPointExtension>
            <ns3:atemp>23.0</ns3:atemp>
          </ns3:TrackPointExtension>
        </extensions>
      </trkpt>
      <trkpt lat="42.5608566217124462127685546875" lon="20.1001291908323764801025390625">
        <ele>1989.4000244140625</ele>
        <time>2026-06-19T13:00:53.000Z</time>
        <extensions>
          <ns3:TrackPointExtension>
            <ns3:atemp>23.0</ns3:atemp>
          </ns3:TrackPointExtension>
        </extensions>
      </trkpt>
      <trkpt lat="42.5608368404209613800048828125" lon="20.10013103485107421875">
        <ele>1989</ele>
        <time>2026-06-19T13:00:54.000Z</time>
        <extensions>
          <ns3:TrackPointExtension>
            <ns3:atemp>23.0</ns3:atemp>
          </ns3:TrackPointExtension>
        </extensions>
      </trkpt>
      <trkpt lat="42.5608157180249691009521484375" lon="20.1001285202801227569580078125">
        <ele>1988.800048828125</ele>
        <time>2026-06-19T13:00:55.000Z</time>
        <extensions>
          <ns3:TrackPointExtension>
            <ns3:atemp>23.0</ns3:atemp>
          </ns3:TrackPointExtension>
        </extensions>
      </trkpt>
      <trkpt lat="42.56079585291445255279541015625" lon="20.10014201514422893524169921875">
        <ele>1988.4000244140625</ele>
        <time>2026-06-19T13:00:56.000Z</time>
        <extensions>
          <ns3:TrackPointExtension>
            <ns3:atemp>23.0</ns3:atemp>
          </ns3:TrackPointExtension>
        </extensions>
      </trkpt>
      <trkpt lat="42.56077489815652370452880859375" lon="20.10015509091317653656005859375">
        <ele>1988.199951171875</ele>
        <time>2026-06-19T13:00:57.000Z</time>
        <extensions>
          <ns3:TrackPointExtension>
            <ns3:atemp>23.0</ns3:atemp>
          </ns3:TrackPointExtension>
        </extensions>
      </trkpt>
      <trkpt lat="42.560749836266040802001953125" lon="20.10017068125307559967041015625">
        <ele>1988</ele>
        <time>2026-06-19T13:00:58.000Z</time>
        <extensions>
          <ns3:TrackPointExtension>
            <ns3:atemp>23.0</ns3:atemp>
          </ns3:TrackPointExtension>
        </extensions>
      </trkpt>
      <trkpt lat="42.560723684728145599365234375" lon="20.10019465349614620208740234375">
        <ele>1987.4000244140625</ele>
        <time>2026-06-19T13:00:59.000Z</time>
        <extensions>
          <ns3:TrackPointExtension>
            <ns3:atemp>23.0</ns3:atemp>
          </ns3:TrackPointExtension>
        </extensions>
      </trkpt>
      <trkpt lat="42.5606973655521869659423828125" lon="20.1002086512744426727294921875">
        <ele>1986.800048828125</ele>
        <time>2026-06-19T13:01:00.000Z</time>
        <extensions>
          <ns3:TrackPointExtension>
            <ns3:atemp>23.0</ns3:atemp>
          </ns3:TrackPointExtension>
        </extensions>
      </trkpt>
      <trkpt lat="42.5606702081859111785888671875" lon="20.1002381555736064910888671875">
        <ele>1986.4000244140625</ele>
        <time>2026-06-19T13:01:01.000Z</time>
        <extensions>
          <ns3:TrackPointExtension>
            <ns3:atemp>23.0</ns3:atemp>
          </ns3:TrackPointExtension>
        </extensions>
      </trkpt>
      <trkpt lat="42.56064355373382568359375" lon="20.100267492234706878662109375">
        <ele>1985.800048828125</ele>
        <time>2026-06-19T13:01:02.000Z</time>
        <extensions>
          <ns3:TrackPointExtension>
            <ns3:atemp>23.0</ns3:atemp>
          </ns3:TrackPointExtension>
        </extensions>
      </trkpt>
      <trkpt lat="42.56062167696654796600341796875" lon="20.1002959907054901123046875">
        <ele>1985.199951171875</ele>
        <time>2026-06-19T13:01:03.000Z</time>
        <extensions>
          <ns3:TrackPointExtension>
            <ns3:atemp>23.0</ns3:atemp>
          </ns3:TrackPointExtension>
        </extensions>
      </trkpt>
      <trkpt lat="42.560600973665714263916015625" lon="20.10032021440565586090087890625">
        <ele>1984.5999755859375</ele>
        <time>2026-06-19T13:01:04.000Z</time>
        <extensions>
          <ns3:TrackPointExtension>
            <ns3:atemp>23.0</ns3:atemp>
          </ns3:TrackPointExtension>
        </extensions>
      </trkpt>
      <trkpt lat="42.56058429367840290069580078125" lon="20.100350640714168548583984375">
        <ele>1984.199951171875</ele>
        <time>2026-06-19T13:01:05.000Z</time>
        <extensions>
          <ns3:TrackPointExtension>
            <ns3:atemp>23.0</ns3:atemp>
          </ns3:TrackPointExtension>
        </extensions>
      </trkpt>
      <trkpt lat="42.56057490594685077667236328125" lon="20.100384838879108428955078125">
        <ele>1984</ele>
        <time>2026-06-19T13:01:06.000Z</time>
        <extensions>
          <ns3:TrackPointExtension>
            <ns3:atemp>23.0</ns3:atemp>
          </ns3:TrackPointExtension>
        </extensions>
      </trkpt>
      <trkpt lat="42.5605669431388378143310546875" lon="20.10041601955890655517578125">
        <ele>1983.800048828125</ele>
        <time>2026-06-19T13:01:07.000Z</time>
        <extensions>
          <ns3:TrackPointExtension>
            <ns3:atemp>23.0</ns3:atemp>
          </ns3:TrackPointExtension>
        </extensions>
      </trkpt>
      <trkpt lat="42.56056266836822032928466796875" lon="20.10044284164905548095703125">
        <ele>1983.5999755859375</ele>
        <time>2026-06-19T13:01:08.000Z</time>
        <extensions>
          <ns3:TrackPointExtension>
            <ns3:atemp>23.0</ns3:atemp>
          </ns3:TrackPointExtension>
        </extensions>
      </trkpt>
      <trkpt lat="42.560561411082744598388671875" lon="20.100481398403644561767578125">
        <ele>1983.5999755859375</ele>
        <time>2026-06-19T13:01:09.000Z</time>
        <extensions>
          <ns3:TrackPointExtension>
            <ns3:atemp>23.0</ns3:atemp>
          </ns3:TrackPointExtension>
        </extensions>
      </trkpt>
      <trkpt lat="42.5605545379221439361572265625" lon="20.1005157642066478729248046875">
        <ele>1983.4000244140625</ele>
        <time>2026-06-19T13:01:10.000Z</time>
        <extensions>
          <ns3:TrackPointExtension>
            <ns3:atemp>23.0</ns3:atemp>
          </ns3:TrackPointExtension>
        </extensions>
      </trkpt>
      <trkpt lat="42.56054674275219440460205078125" lon="20.10054568760097026824951171875">
        <ele>1983.199951171875</ele>
        <time>2026-06-19T13:01:11.000Z</time>
        <extensions>
          <ns3:TrackPointExtension>
            <ns3:atemp>23.0</ns3:atemp>
          </ns3:TrackPointExtension>
        </extensions>
      </trkpt>
      <trkpt lat="42.5605448149144649505615234375" lon="20.10058038868010044097900390625">
        <ele>1983.199951171875</ele>
        <time>2026-06-19T13:01:12.000Z</time>
        <extensions>
          <ns3:TrackPointExtension>
            <ns3:atemp>23.0</ns3:atemp>
          </ns3:TrackPointExtension>
        </extensions>
      </trkpt>
      <trkpt lat="42.56054355762898921966552734375" lon="20.10062120854854583740234375">
        <ele>1983</ele>
        <time>2026-06-19T13:01:13.000Z</time>
        <extensions>
          <ns3:TrackPointExtension>
            <ns3:atemp>23.0</ns3:atemp>
          </ns3:TrackPointExtension>
        </extensions>
      </trkpt>
      <trkpt lat="42.56054204888641834259033203125" lon="20.10065984912216663360595703125">
        <ele>1982.800048828125</ele>
        <time>2026-06-19T13:01:14.000Z</time>
        <extensions>
          <ns3:TrackPointExtension>
            <ns3:atemp>23.0</ns3:atemp>
          </ns3:TrackPointExtension>
        </extensions>
      </trkpt>
      <trkpt lat="42.5605371035635471343994140625" lon="20.10068801231682300567626953125">
        <ele>1982.800048828125</ele>
        <time>2026-06-19T13:01:15.000Z</time>
        <extensions>
          <ns3:TrackPointExtension>
            <ns3:atemp>23.0</ns3:atemp>
          </ns3:TrackPointExtension>
        </extensions>
      </trkpt>
      <trkpt lat="42.56053869612514972686767578125" lon="20.10072388686239719390869140625">
        <ele>1982.800048828125</ele>
        <time>2026-06-19T13:01:16.000Z</time>
        <extensions>
          <ns3:TrackPointExtension>
            <ns3:atemp>23.0</ns3:atemp>
          </ns3:TrackPointExtension>
        </extensions>
      </trkpt>
      <trkpt lat="42.56053735502064228057861328125" lon="20.1007578335702419281005859375">
        <ele>1982.5999755859375</ele>
        <time>2026-06-19T13:01:17.000Z</time>
        <extensions>
          <ns3:TrackPointExtension>
            <ns3:atemp>23.0</ns3:atemp>
          </ns3:TrackPointExtension>
        </extensions>
      </trkpt>
      <trkpt lat="42.56053132005035877227783203125" lon="20.10078976862132549285888671875">
        <ele>1982.800048828125</ele>
        <time>2026-06-19T13:01:18.000Z</time>
        <extensions>
          <ns3:TrackPointExtension>
            <ns3:atemp>23.0</ns3:atemp>
          </ns3:TrackPointExtension>
        </extensions>
      </trkpt>
      <trkpt lat="42.560530565679073333740234375" lon="20.10082145221531391143798828125">
        <ele>1982.5999755859375</ele>
        <time>2026-06-19T13:01:19.000Z</time>
        <extensions>
          <ns3:TrackPointExtension>
            <ns3:atemp>23.0</ns3:atemp>
          </ns3:TrackPointExtension>
        </extensions>
      </trkpt>
      <trkpt lat="42.56052888929843902587890625" lon="20.10086168535053730010986328125">
        <ele>1982.5999755859375</ele>
        <time>2026-06-19T13:01:20.000Z</time>
        <extensions>
          <ns3:TrackPointExtension>
            <ns3:atemp>23.0</ns3:atemp>
          </ns3:TrackPointExtension>
        </extensions>
      </trkpt>
      <trkpt lat="42.56053031422197818756103515625" lon="20.10090141557157039642333984375">
        <ele>1982.4000244140625</ele>
        <time>2026-06-19T13:01:21.000Z</time>
        <extensions>
          <ns3:TrackPointExtension>
            <ns3:atemp>23.0</ns3:atemp>
          </ns3:TrackPointExtension>
        </extensions>
      </trkpt>
      <trkpt lat="42.56053626537322998046875" lon="20.10094298981130123138427734375">
        <ele>1982.4000244140625</ele>
        <time>2026-06-19T13:01:22.000Z</time>
        <extensions>
          <ns3:TrackPointExtension>
            <ns3:atemp>23.0</ns3:atemp>
          </ns3:TrackPointExtension>
        </extensions>
      </trkpt>
      <trkpt lat="42.56054137833416461944580078125" lon="20.100978277623653411865234375">
        <ele>1982.4000244140625</ele>
        <time>2026-06-19T13:01:23.000Z</time>
        <extensions>
          <ns3:TrackPointExtension>
            <ns3:atemp>23.0</ns3:atemp>
          </ns3:TrackPointExtension>
        </extensions>
      </trkpt>
      <trkpt lat="42.56053651683032512664794921875" lon="20.1010121405124664306640625">
        <ele>1982.199951171875</ele>
        <time>2026-06-19T13:01:24.000Z</time>
        <extensions>
          <ns3:TrackPointExtension>
            <ns3:atemp>23.0</ns3:atemp>
          </ns3:TrackPointExtension>
        </extensions>
      </trkpt>
      <trkpt lat="42.5605309009552001953125" lon="20.101045668125152587890625">
        <ele>1982.199951171875</ele>
        <time>2026-06-19T13:01:25.000Z</time>
        <extensions>
          <ns3:TrackPointExtension>
            <ns3:atemp>23.0</ns3:atemp>
          </ns3:TrackPointExtension>
        </extensions>
      </trkpt>
      <trkpt lat="42.560528218746185302734375" lon="20.1010746695101261138916015625">
        <ele>1982</ele>
        <time>2026-06-19T13:01:26.000Z</time>
        <extensions>
          <ns3:TrackPointExtension>
            <ns3:atemp>23.0</ns3:atemp>
          </ns3:TrackPointExtension>
        </extensions>
      </trkpt>
      <trkpt lat="42.56053199060261249542236328125" lon="20.10110425762832164764404296875">
        <ele>1982</ele>
        <time>2026-06-19T13:01:27.000Z</time>
        <extensions>
          <ns3:TrackPointExtension>
            <ns3:atemp>23.0</ns3:atemp>
          </ns3:TrackPointExtension>
        </extensions>
      </trkpt>
      <trkpt lat="42.56053031422197818756103515625" lon="20.101134516298770904541015625">
        <ele>1981.800048828125</ele>
        <time>2026-06-19T13:01:28.000Z</time>
        <extensions>
          <ns3:TrackPointExtension>
            <ns3:atemp>23.0</ns3:atemp>
          </ns3:TrackPointExtension>
        </extensions>
      </trkpt>
      <trkpt lat="42.560525871813297271728515625" lon="20.10115907527506351470947265625">
        <ele>1981.800048828125</ele>
        <time>2026-06-19T13:01:29.000Z</time>
        <extensions>
          <ns3:TrackPointExtension>
            <ns3:atemp>23.0</ns3:atemp>
          </ns3:TrackPointExtension>
        </extensions>
      </trkpt>
      <trkpt lat="42.5605176575481891632080078125" lon="20.10118271224200725555419921875">
        <ele>1981.4000244140625</ele>
        <time>2026-06-19T13:01:30.000Z</time>
        <extensions>
          <ns3:TrackPointExtension>
            <ns3:atemp>23.0</ns3:atemp>
          </ns3:TrackPointExtension>
        </extensions>
      </trkpt>
      <trkpt lat="42.56050902418792247772216796875" lon="20.10120802558958530426025390625">
        <ele>1981.199951171875</ele>
        <time>2026-06-19T13:01:31.000Z</time>
        <extensions>
          <ns3:TrackPointExtension>
            <ns3:atemp>23.0</ns3:atemp>
          </ns3:TrackPointExtension>
        </extensions>
      </trkpt>
      <trkpt lat="42.56050013937056064605712890625" lon="20.10123250074684619903564453125">
        <ele>1981</ele>
        <time>2026-06-19T13:01:32.000Z</time>
        <extensions>
          <ns3:TrackPointExtension>
            <ns3:atemp>23.0</ns3:atemp>
          </ns3:TrackPointExtension>
        </extensions>
      </trkpt>
      <trkpt lat="42.5604958645999431610107421875" lon="20.10126133449375629425048828125">
        <ele>1980.800048828125</ele>
        <time>2026-06-19T13:01:33.000Z</time>
        <extensions>
          <ns3:TrackPointExtension>
            <ns3:atemp>23.0</ns3:atemp>
          </ns3:TrackPointExtension>
        </extensions>
      </trkpt>
      <trkpt lat="42.5604861415922641754150390625" lon="20.10128279216587543487548828125">
        <ele>1980.5999755859375</ele>
        <time>2026-06-19T13:01:34.000Z</time>
        <extensions>
          <ns3:TrackPointExtension>
            <ns3:atemp>23.0</ns3:atemp>
          </ns3:TrackPointExtension>
        </extensions>
      </trkpt>
      <trkpt lat="42.56047524511814117431640625" lon="20.1013004779815673828125">
        <ele>1980.4000244140625</ele>
        <time>2026-06-19T13:01:35.000Z</time>
        <extensions>
          <ns3:TrackPointExtension>
            <ns3:atemp>23.0</ns3:atemp>
          </ns3:TrackPointExtension>
        </extensions>
      </trkpt>
      <trkpt lat="42.56046988070011138916015625" lon="20.10131648741662502288818359375">
        <ele>1980.199951171875</ele>
        <time>2026-06-19T13:01:36.000Z</time>
        <extensions>
          <ns3:TrackPointExtension>
            <ns3:atemp>23.0</ns3:atemp>
          </ns3:TrackPointExtension>
        </extensions>
      </trkpt>
      <trkpt lat="42.56046661175787448883056640625" lon="20.10131724178791046142578125">
        <ele>1980.199951171875</ele>
        <time>2026-06-19T13:01:37.000Z</time>
        <extensions>
          <ns3:TrackPointExtension>
            <ns3:atemp>23.0</ns3:atemp>
          </ns3:TrackPointExtension>
        </extensions>
      </trkpt>
      <trkpt lat="42.5604653544723987579345703125" lon="20.1013217680156230926513671875">
        <ele>1980.199951171875</ele>
        <time>2026-06-19T13:01:38.000Z</time>
        <extensions>
          <ns3:TrackPointExtension>
            <ns3:atemp>23.0</ns3:atemp>
          </ns3:TrackPointExtension>
        </extensions>
      </trkpt>
      <trkpt lat="42.56046543829143047332763671875" lon="20.10132201947271823883056640625">
        <ele>1980.4000244140625</ele>
        <time>2026-06-19T13:01:39.000Z</time>
        <extensions>
          <ns3:TrackPointExtension>
            <ns3:atemp>23.0</ns3:atemp>
          </ns3:TrackPointExtension>
        </extensions>
      </trkpt>
      <trkpt lat="42.5604660250246524810791015625" lon="20.1013512723147869110107421875">
        <ele>1980.4000244140625</ele>
        <time>2026-06-19T13:01:40.000Z</time>
        <extensions>
          <ns3:TrackPointExtension>
            <ns3:atemp>23.0</ns3:atemp>
          </ns3:TrackPointExtension>
        </extensions>
      </trkpt>
      <trkpt lat="42.56046577356755733489990234375" lon="20.10137029923498630523681640625">
        <ele>1980.4000244140625</ele>
        <time>2026-06-19T13:01:41.000Z</time>
        <extensions>
          <ns3:TrackPointExtension>
            <ns3:atemp>22.0</ns3:atemp>
          </ns3:TrackPointExtension>
        </extensions>
      </trkpt>
      <trkpt lat="42.56045957095921039581298828125" lon="20.10139879770576953887939453125">
        <ele>1980.199951171875</ele>
        <time>2026-06-19T13:01:42.000Z</time>
        <extensions>
          <ns3:TrackPointExtension>
            <ns3:atemp>22.0</ns3:atemp>
          </ns3:TrackPointExtension>
        </extensions>
      </trkpt>
      <trkpt lat="42.560453116893768310546875" lon="20.101430900394916534423828125">
        <ele>1980</ele>
        <time>2026-06-19T13:01:43.000Z</time>
        <extensions>
          <ns3:TrackPointExtension>
            <ns3:atemp>22.0</ns3:atemp>
          </ns3:TrackPointExtension>
        </extensions>
      </trkpt>
      <trkpt lat="42.560448087751865386962890625" lon="20.101463086903095245361328125">
        <ele>1979.5999755859375</ele>
        <time>2026-06-19T13:01:44.000Z</time>
        <extensions>
          <ns3:TrackPointExtension>
            <ns3:atemp>22.0</ns3:atemp>
          </ns3:TrackPointExtension>
        </extensions>
      </trkpt>
      <trkpt lat="42.5604449026286602020263671875" lon="20.10149049572646617889404296875">
        <ele>1979.199951171875</ele>
        <time>2026-06-19T13:01:45.000Z</time>
        <extensions>
          <ns3:TrackPointExtension>
            <ns3:atemp>22.0</ns3:atemp>
          </ns3:TrackPointExtension>
        </extensions>
      </trkpt>
      <trkpt lat="42.56044347770512104034423828125" lon="20.10151983238756656646728515625">
        <ele>1979</ele>
        <time>2026-06-19T13:01:46.000Z</time>
        <extensions>
          <ns3:TrackPointExtension>
            <ns3:atemp>22.0</ns3:atemp>
          </ns3:TrackPointExtension>
        </extensions>
      </trkpt>
      <trkpt lat="42.56044230423867702484130859375" lon="20.10154179297387599945068359375">
        <ele>1978.800048828125</ele>
        <time>2026-06-19T13:01:47.000Z</time>
        <extensions>
          <ns3:TrackPointExtension>
            <ns3:atemp>22.0</ns3:atemp>
          </ns3:TrackPointExtension>
        </extensions>
      </trkpt>
      <trkpt lat="42.5604415498673915863037109375" lon="20.1015695370733737945556640625">
        <ele>1978.5999755859375</ele>
        <time>2026-06-19T13:01:48.000Z</time>
        <extensions>
          <ns3:TrackPointExtension>
            <ns3:atemp>22.0</ns3:atemp>
          </ns3:TrackPointExtension>
        </extensions>
      </trkpt>
      <trkpt lat="42.56044364534318447113037109375" lon="20.10158940218389034271240234375">
        <ele>1978.4000244140625</ele>
        <time>2026-06-19T13:01:49.000Z</time>
        <extensions>
          <ns3:TrackPointExtension>
            <ns3:atemp>22.0</ns3:atemp>
          </ns3:TrackPointExtension>
        </extensions>
      </trkpt>
      <trkpt lat="42.56044280715286731719970703125" lon="20.10161454789340496063232421875">
        <ele>1978.199951171875</ele>
        <time>2026-06-19T13:01:50.000Z</time>
        <extensions>
          <ns3:TrackPointExtension>
            <ns3:atemp>23.0</ns3:atemp>
          </ns3:TrackPointExtension>
        </extensions>
      </trkpt>
      <trkpt lat="42.560440711677074432373046875" lon="20.10163902305066585540771484375">
        <ele>1978</ele>
        <time>2026-06-19T13:01:51.000Z</time>
        <extensions>
          <ns3:TrackPointExtension>
            <ns3:atemp>22.0</ns3:atemp>
          </ns3:TrackPointExtension>
        </extensions>
      </trkpt>
      <trkpt lat="42.56044431589543819427490234375" lon="20.10166299529373645782470703125">
        <ele>1977.800048828125</ele>
        <time>2026-06-19T13:01:52.000Z</time>
        <extensions>
          <ns3:TrackPointExtension>
            <ns3:atemp>22.0</ns3:atemp>
          </ns3:TrackPointExtension>
        </extensions>
      </trkpt>
      <trkpt lat="42.560444064438343048095703125" lon="20.10168612934648990631103515625">
        <ele>1977.4000244140625</ele>
        <time>2026-06-19T13:01:53.000Z</time>
        <extensions>
          <ns3:TrackPointExtension>
            <ns3:atemp>22.0</ns3:atemp>
          </ns3:TrackPointExtension>
        </extensions>
      </trkpt>
      <trkpt lat="42.56043794564902782440185546875" lon="20.10170674882829189300537109375">
        <ele>1977.199951171875</ele>
        <time>2026-06-19T13:01:54.000Z</time>
        <extensions>
          <ns3:TrackPointExtension>
            <ns3:atemp>22.0</ns3:atemp>
          </ns3:TrackPointExtension>
        </extensions>
      </trkpt>
      <trkpt lat="42.5604398734867572784423828125" lon="20.101715885102748870849609375">
        <ele>1977</ele>
        <time>2026-06-19T13:01:55.000Z</time>
        <extensions>
          <ns3:TrackPointExtension>
            <ns3:atemp>22.0</ns3:atemp>
          </ns3:TrackPointExtension>
        </extensions>
      </trkpt>
      <trkpt lat="42.5604412145912647247314453125" lon="20.101711191236972808837890625">
        <ele>1976.800048828125</ele>
        <time>2026-06-19T13:01:56.000Z</time>
        <extensions>
          <ns3:TrackPointExtension>
            <ns3:atemp>22.0</ns3:atemp>
          </ns3:TrackPointExtension>
        </extensions>
      </trkpt>
      <trkpt lat="42.5604412145912647247314453125" lon="20.10171110741794109344482421875">
        <ele>1976.5999755859375</ele>
        <time>2026-06-19T13:01:57.000Z</time>
        <extensions>
          <ns3:TrackPointExtension>
            <ns3:atemp>22.0</ns3:atemp>
          </ns3:TrackPointExtension>
        </extensions>
      </trkpt>
      <trkpt lat="42.5604412145912647247314453125" lon="20.10171110741794109344482421875">
        <ele>1976.199951171875</ele>
        <time>2026-06-19T13:01:58.000Z</time>
        <extensions>
          <ns3:TrackPointExtension>
            <ns3:atemp>22.0</ns3:atemp>
          </ns3:TrackPointExtension>
        </extensions>
      </trkpt>
      <trkpt lat="42.5604412145912647247314453125" lon="20.10171110741794109344482421875">
        <ele>1976</ele>
        <time>2026-06-19T13:01:59.000Z</time>
        <extensions>
          <ns3:TrackPointExtension>
            <ns3:atemp>22.0</ns3:atemp>
          </ns3:TrackPointExtension>
        </extensions>
      </trkpt>
      <trkpt lat="42.5604412145912647247314453125" lon="20.10171110741794109344482421875">
        <ele>1975.800048828125</ele>
        <time>2026-06-19T13:02:00.000Z</time>
        <extensions>
          <ns3:TrackPointExtension>
            <ns3:atemp>22.0</ns3:atemp>
          </ns3:TrackPointExtension>
        </extensions>
      </trkpt>
      <trkpt lat="42.5604412145912647247314453125" lon="20.10171110741794109344482421875">
        <ele>1975.5999755859375</ele>
        <time>2026-06-19T13:02:01.000Z</time>
        <extensions>
          <ns3:TrackPointExtension>
            <ns3:atemp>22.0</ns3:atemp>
          </ns3:TrackPointExtension>
        </extensions>
      </trkpt>
      <trkpt lat="42.5604412145912647247314453125" lon="20.10171110741794109344482421875">
        <ele>1975.5999755859375</ele>
        <time>2026-06-19T13:02:02.000Z</time>
        <extensions>
          <ns3:TrackPointExtension>
            <ns3:atemp>22.0</ns3:atemp>
          </ns3:TrackPointExtension>
        </extensions>
      </trkpt>
      <trkpt lat="42.5604412145912647247314453125" lon="20.10171110741794109344482421875">
        <ele>1975.4000244140625</ele>
        <time>2026-06-19T13:02:03.000Z</time>
        <extensions>
          <ns3:TrackPointExtension>
            <ns3:atemp>22.0</ns3:atemp>
          </ns3:TrackPointExtension>
        </extensions>
      </trkpt>
      <trkpt lat="42.5604412145912647247314453125" lon="20.10171110741794109344482421875">
        <ele>1975.199951171875</ele>
        <time>2026-06-19T13:02:04.000Z</time>
        <extensions>
          <ns3:TrackPointExtension>
            <ns3:atemp>22.0</ns3:atemp>
          </ns3:TrackPointExtension>
        </extensions>
      </trkpt>
      <trkpt lat="42.5604412145912647247314453125" lon="20.10171110741794109344482421875">
        <ele>1975.199951171875</ele>
        <time>2026-06-19T13:02:05.000Z</time>
        <extensions>
          <ns3:TrackPointExtension>
            <ns3:atemp>22.0</ns3:atemp>
          </ns3:TrackPointExtension>
        </extensions>
      </trkpt>
      <trkpt lat="42.5604412145912647247314453125" lon="20.10171110741794109344482421875">
        <ele>1975.199951171875</ele>
        <time>2026-06-19T13:02:06.000Z</time>
        <extensions>
          <ns3:TrackPointExtension>
            <ns3:atemp>22.0</ns3:atemp>
          </ns3:TrackPointExtension>
        </extensions>
      </trkpt>
      <trkpt lat="42.5604412145912647247314453125" lon="20.10171110741794109344482421875">
        <ele>1975</ele>
        <time>2026-06-19T13:02:07.000Z</time>
        <extensions>
          <ns3:TrackPointExtension>
            <ns3:atemp>22.0</ns3:atemp>
          </ns3:TrackPointExtension>
        </extensions>
      </trkpt>
      <trkpt lat="42.5604412145912647247314453125" lon="20.10171110741794109344482421875">
        <ele>1975</ele>
        <time>2026-06-19T13:02:08.000Z</time>
        <extensions>
          <ns3:TrackPointExtension>
            <ns3:atemp>22.0</ns3:atemp>
          </ns3:TrackPointExtension>
        </extensions>
      </trkpt>
      <trkpt lat="42.5604412145912647247314453125" lon="20.10171110741794109344482421875">
        <ele>1975</ele>
        <time>2026-06-19T13:02:09.000Z</time>
        <extensions>
          <ns3:TrackPointExtension>
            <ns3:atemp>22.0</ns3:atemp>
          </ns3:TrackPointExtension>
        </extensions>
      </trkpt>
      <trkpt lat="42.5604412145912647247314453125" lon="20.10171110741794109344482421875">
        <ele>1975</ele>
        <time>2026-06-19T13:02:10.000Z</time>
        <extensions>
          <ns3:TrackPointExtension>
            <ns3:atemp>22.0</ns3:atemp>
          </ns3:TrackPointExtension>
        </extensions>
      </trkpt>
      <trkpt lat="42.5604412145912647247314453125" lon="20.10171110741794109344482421875">
        <ele>1975</ele>
        <time>2026-06-19T13:02:11.000Z</time>
        <extensions>
          <ns3:TrackPointExtension>
            <ns3:atemp>22.0</ns3:atemp>
          </ns3:TrackPointExtension>
        </extensions>
      </trkpt>
      <trkpt lat="42.5604402087628841400146484375" lon="20.1017133705317974090576171875">
        <ele>1975</ele>
        <time>2026-06-19T13:02:12.000Z</time>
        <extensions>
          <ns3:TrackPointExtension>
            <ns3:atemp>22.0</ns3:atemp>
          </ns3:TrackPointExtension>
        </extensions>
      </trkpt>
      <trkpt lat="42.56043098866939544677734375" lon="20.101715885102748870849609375">
        <ele>1975</ele>
        <time>2026-06-19T13:02:13.000Z</time>
        <extensions>
          <ns3:TrackPointExtension>
            <ns3:atemp>22.0</ns3:atemp>
          </ns3:TrackPointExtension>
        </extensions>
      </trkpt>
      <trkpt lat="42.560418583452701568603515625" lon="20.10171194560825824737548828125">
        <ele>1975.199951171875</ele>
        <time>2026-06-19T13:02:14.000Z</time>
        <extensions>
          <ns3:TrackPointExtension>
            <ns3:atemp>22.0</ns3:atemp>
          </ns3:TrackPointExtension>
        </extensions>
      </trkpt>
      <trkpt lat="42.5604023225605487823486328125" lon="20.101710520684719085693359375">
        <ele>1975</ele>
        <time>2026-06-19T13:02:15.000Z</time>
        <extensions>
          <ns3:TrackPointExtension>
            <ns3:atemp>22.0</ns3:atemp>
          </ns3:TrackPointExtension>
        </extensions>
      </trkpt>
      <trkpt lat="42.5603805296123027801513671875" lon="20.1017130352556705474853515625">
        <ele>1974.800048828125</ele>
        <time>2026-06-19T13:02:16.000Z</time>
        <extensions>
          <ns3:TrackPointExtension>
            <ns3:atemp>22.0</ns3:atemp>
          </ns3:TrackPointExtension>
        </extensions>
      </trkpt>
      <trkpt lat="42.560361586511135101318359375" lon="20.10171261616051197052001953125">
        <ele>1974.800048828125</ele>
        <time>2026-06-19T13:02:17.000Z</time>
        <extensions>
          <ns3:TrackPointExtension>
            <ns3:atemp>22.0</ns3:atemp>
          </ns3:TrackPointExtension>
        </extensions>
      </trkpt>
      <trkpt lat="42.56034188903868198394775390625" lon="20.101723931729793548583984375">
        <ele>1974.5999755859375</ele>
        <time>2026-06-19T13:02:18.000Z</time>
        <extensions>
          <ns3:TrackPointExtension>
            <ns3:atemp>22.0</ns3:atemp>
          </ns3:TrackPointExtension>
        </extensions>
      </trkpt>
      <trkpt lat="42.56032814271748065948486328125" lon="20.10174773633480072021484375">
        <ele>1974.4000244140625</ele>
        <time>2026-06-19T13:02:19.000Z</time>
        <extensions>
          <ns3:TrackPointExtension>
            <ns3:atemp>22.0</ns3:atemp>
          </ns3:TrackPointExtension>
        </extensions>
      </trkpt>
      <trkpt lat="42.560322023928165435791015625" lon="20.10178922675549983978271484375">
        <ele>1974.199951171875</ele>
        <time>2026-06-19T13:02:20.000Z</time>
        <extensions>
          <ns3:TrackPointExtension>
            <ns3:atemp>22.0</ns3:atemp>
          </ns3:TrackPointExtension>
        </extensions>
      </trkpt>
      <trkpt lat="42.56032395176589488983154296875" lon="20.10183700360357761383056640625">
        <ele>1974</ele>
        <time>2026-06-19T13:02:21.000Z</time>
        <extensions>
          <ns3:TrackPointExtension>
            <ns3:atemp>22.0</ns3:atemp>
          </ns3:TrackPointExtension>
        </extensions>
      </trkpt>
      <trkpt lat="42.560329735279083251953125" lon="20.10188545100390911102294921875">
        <ele>1973.800048828125</ele>
        <time>2026-06-19T13:02:22.000Z</time>
        <extensions>
          <ns3:TrackPointExtension>
            <ns3:atemp>22.0</ns3:atemp>
          </ns3:TrackPointExtension>
        </extensions>
      </trkpt>
      <trkpt lat="42.56033032201230525970458984375" lon="20.101933814585208892822265625">
        <ele>1973.5999755859375</ele>
        <time>2026-06-19T13:02:23.000Z</time>
        <extensions>
          <ns3:TrackPointExtension>
            <ns3:atemp>22.0</ns3:atemp>
          </ns3:TrackPointExtension>
        </extensions>
      </trkpt>
      <trkpt lat="42.5603295676410198211669921875" lon="20.101980753242969512939453125">
        <ele>1973.4000244140625</ele>
        <time>2026-06-19T13:02:24.000Z</time>
        <extensions>
          <ns3:TrackPointExtension>
            <ns3:atemp>22.0</ns3:atemp>
          </ns3:TrackPointExtension>
        </extensions>
      </trkpt>
      <trkpt lat="42.56032596342265605926513671875" lon="20.1020221598446369171142578125">
        <ele>1973.199951171875</ele>
        <time>2026-06-19T13:02:25.000Z</time>
        <extensions>
          <ns3:TrackPointExtension>
            <ns3:atemp>22.0</ns3:atemp>
          </ns3:TrackPointExtension>
        </extensions>
      </trkpt>
      <trkpt lat="42.56031473167240619659423828125" lon="20.10206281207501888275146484375">
        <ele>1972.800048828125</ele>
        <time>2026-06-19T13:02:26.000Z</time>
        <extensions>
          <ns3:TrackPointExtension>
            <ns3:atemp>22.0</ns3:atemp>
          </ns3:TrackPointExtension>
        </extensions>
      </trkpt>
      <trkpt lat="42.560302913188934326171875" lon="20.10210053063929080963134765625">
        <ele>1972.5999755859375</ele>
        <time>2026-06-19T13:02:27.000Z</time>
        <extensions>
          <ns3:TrackPointExtension>
            <ns3:atemp>22.0</ns3:atemp>
          </ns3:TrackPointExtension>
        </extensions>
      </trkpt>
      <trkpt lat="42.560284473001956939697265625" lon="20.10213556699454784393310546875">
        <ele>1972.4000244140625</ele>
        <time>2026-06-19T13:02:28.000Z</time>
        <extensions>
          <ns3:TrackPointExtension>
            <ns3:atemp>22.0</ns3:atemp>
          </ns3:TrackPointExtension>
        </extensions>
      </trkpt>
      <trkpt lat="42.56026645191013813018798828125" lon="20.1021628081798553466796875">
        <ele>1972.199951171875</ele>
        <time>2026-06-19T13:02:29.000Z</time>
        <extensions>
          <ns3:TrackPointExtension>
            <ns3:atemp>22.0</ns3:atemp>
          </ns3:TrackPointExtension>
        </extensions>
      </trkpt>
      <trkpt lat="42.56025932729244232177734375" lon="20.10219323448836803436279296875">
        <ele>1972.199951171875</ele>
        <time>2026-06-19T13:02:30.000Z</time>
        <extensions>
          <ns3:TrackPointExtension>
            <ns3:atemp>22.0</ns3:atemp>
          </ns3:TrackPointExtension>
        </extensions>
      </trkpt>
      <trkpt lat="42.5602501071989536285400390625" lon="20.10222491808235645294189453125">
        <ele>1972.199951171875</ele>
        <time>2026-06-19T13:02:31.000Z</time>
        <extensions>
          <ns3:TrackPointExtension>
            <ns3:atemp>22.0</ns3:atemp>
          </ns3:TrackPointExtension>
        </extensions>
      </trkpt>
      <trkpt lat="42.56024801172316074371337890625" lon="20.102256350219249725341796875">
        <ele>1972.199951171875</ele>
        <time>2026-06-19T13:02:32.000Z</time>
        <extensions>
          <ns3:TrackPointExtension>
            <ns3:atemp>22.0</ns3:atemp>
          </ns3:TrackPointExtension>
        </extensions>
      </trkpt>
      <trkpt lat="42.56024315021932125091552734375" lon="20.10228208266198635101318359375">
        <ele>1972.199951171875</ele>
        <time>2026-06-19T13:02:33.000Z</time>
        <extensions>
          <ns3:TrackPointExtension>
            <ns3:atemp>22.0</ns3:atemp>
          </ns3:TrackPointExtension>
        </extensions>
      </trkpt>
      <trkpt lat="42.5602460838854312896728515625" lon="20.10230856947600841522216796875">
        <ele>1972.199951171875</ele>
        <time>2026-06-19T13:02:34.000Z</time>
        <extensions>
          <ns3:TrackPointExtension>
            <ns3:atemp>22.0</ns3:atemp>
          </ns3:TrackPointExtension>
        </extensions>
      </trkpt>
      <trkpt lat="42.5602437369525432586669921875" lon="20.10234075598418712615966796875">
        <ele>1972</ele>
        <time>2026-06-19T13:02:35.000Z</time>
        <extensions>
          <ns3:TrackPointExtension>
            <ns3:atemp>22.0</ns3:atemp>
          </ns3:TrackPointExtension>
        </extensions>
      </trkpt>
      <trkpt lat="42.56024231202900409698486328125" lon="20.10238333605229854583740234375">
        <ele>1971.800048828125</ele>
        <time>2026-06-19T13:02:36.000Z</time>
        <extensions>
          <ns3:TrackPointExtension>
            <ns3:atemp>22.0</ns3:atemp>
          </ns3:TrackPointExtension>
        </extensions>
      </trkpt>
      <trkpt lat="42.5602413900196552276611328125" lon="20.10242189280688762664794921875">
        <ele>1971.5999755859375</ele>
        <time>2026-06-19T13:02:37.000Z</time>
        <extensions>
          <ns3:TrackPointExtension>
            <ns3:atemp>22.0</ns3:atemp>
          </ns3:TrackPointExtension>
        </extensions>
      </trkpt>
      <trkpt lat="42.560241557657718658447265625" lon="20.10245709680020809173583984375">
        <ele>1971.4000244140625</ele>
        <time>2026-06-19T13:02:38.000Z</time>
        <extensions>
          <ns3:TrackPointExtension>
            <ns3:atemp>22.0</ns3:atemp>
          </ns3:TrackPointExtension>
        </extensions>
      </trkpt>
      <trkpt lat="42.56024365313351154327392578125" lon="20.10248542763292789459228515625">
        <ele>1971.199951171875</ele>
        <time>2026-06-19T13:02:39.000Z</time>
        <extensions>
          <ns3:TrackPointExtension>
            <ns3:atemp>22.0</ns3:atemp>
          </ns3:TrackPointExtension>
        </extensions>
      </trkpt>
      <trkpt lat="42.5602464191615581512451171875" lon="20.102507807314395904541015625">
        <ele>1971</ele>
        <time>2026-06-19T13:02:40.000Z</time>
        <extensions>
          <ns3:TrackPointExtension>
            <ns3:atemp>22.0</ns3:atemp>
          </ns3:TrackPointExtension>
        </extensions>
      </trkpt>
      <trkpt lat="42.56025186739861965179443359375" lon="20.10253119282424449920654296875">
        <ele>1970.800048828125</ele>
        <time>2026-06-19T13:02:41.000Z</time>
        <extensions>
          <ns3:TrackPointExtension>
            <ns3:atemp>22.0</ns3:atemp>
          </ns3:TrackPointExtension>
        </extensions>
      </trkpt>
      <trkpt lat="42.56025941111147403717041015625" lon="20.10255449451506137847900390625">
        <ele>1970.800048828125</ele>
        <time>2026-06-19T13:02:42.000Z</time>
        <extensions>
          <ns3:TrackPointExtension>
            <ns3:atemp>22.0</ns3:atemp>
          </ns3:TrackPointExtension>
        </extensions>
      </trkpt>
      <trkpt lat="42.56026611663401126861572265625" lon="20.10257427580654621124267578125">
        <ele>1970.800048828125</ele>
        <time>2026-06-19T13:02:43.000Z</time>
        <extensions>
          <ns3:TrackPointExtension>
            <ns3:atemp>22.0</ns3:atemp>
          </ns3:TrackPointExtension>
        </extensions>
      </trkpt>
      <trkpt lat="42.56027013994753360748291015625" lon="20.1025850884616374969482421875">
        <ele>1970.800048828125</ele>
        <time>2026-06-19T13:02:44.000Z</time>
        <extensions>
          <ns3:TrackPointExtension>
            <ns3:atemp>22.0</ns3:atemp>
          </ns3:TrackPointExtension>
        </extensions>
      </trkpt>
      <trkpt lat="42.56026527844369411468505859375" lon="20.1025981642305850982666015625">
        <ele>1970.5999755859375</ele>
        <time>2026-06-19T13:02:45.000Z</time>
        <extensions>
          <ns3:TrackPointExtension>
            <ns3:atemp>22.0</ns3:atemp>
          </ns3:TrackPointExtension>
        </extensions>
      </trkpt>
      <trkpt lat="42.56026024930179119110107421875" lon="20.10262523777782917022705078125">
        <ele>1970.5999755859375</ele>
        <time>2026-06-19T13:02:46.000Z</time>
        <extensions>
          <ns3:TrackPointExtension>
            <ns3:atemp>22.0</ns3:atemp>
          </ns3:TrackPointExtension>
        </extensions>
      </trkpt>
      <trkpt lat="42.560260333120822906494140625" lon="20.10265172459185123443603515625">
        <ele>1970.5999755859375</ele>
        <time>2026-06-19T13:02:47.000Z</time>
        <extensions>
          <ns3:TrackPointExtension>
            <ns3:atemp>22.0</ns3:atemp>
          </ns3:TrackPointExtension>
        </extensions>
      </trkpt>
      <trkpt lat="42.5602678768336772918701171875" lon="20.1026819832623004913330078125">
        <ele>1970.4000244140625</ele>
        <time>2026-06-19T13:02:48.000Z</time>
        <extensions>
          <ns3:TrackPointExtension>
            <ns3:atemp>22.0</ns3:atemp>
          </ns3:TrackPointExtension>
        </extensions>
      </trkpt>
      <trkpt lat="42.56028371863067150115966796875" lon="20.1027121581137180328369140625">
        <ele>1970.199951171875</ele>
        <time>2026-06-19T13:02:49.000Z</time>
        <extensions>
          <ns3:TrackPointExtension>
            <ns3:atemp>22.0</ns3:atemp>
          </ns3:TrackPointExtension>
        </extensions>
      </trkpt>
      <trkpt lat="42.56030500866472721099853515625" lon="20.1027403213083744049072265625">
        <ele>1969.800048828125</ele>
        <time>2026-06-19T13:02:50.000Z</time>
        <extensions>
          <ns3:TrackPointExtension>
            <ns3:atemp>22.0</ns3:atemp>
          </ns3:TrackPointExtension>
        </extensions>
      </trkpt>
      <trkpt lat="42.5603176653385162353515625" lon="20.102764628827571868896484375">
        <ele>1969.4000244140625</ele>
        <time>2026-06-19T13:02:51.000Z</time>
        <extensions>
          <ns3:TrackPointExtension>
            <ns3:atemp>22.0</ns3:atemp>
          </ns3:TrackPointExtension>
        </extensions>
      </trkpt>
      <trkpt lat="42.56032093428075313568115234375" lon="20.10279052890837192535400390625">
        <ele>1969.199951171875</ele>
        <time>2026-06-19T13:02:52.000Z</time>
        <extensions>
          <ns3:TrackPointExtension>
            <ns3:atemp>22.0</ns3:atemp>
          </ns3:TrackPointExtension>
        </extensions>
      </trkpt>
      <trkpt lat="42.56031942553818225860595703125" lon="20.1028120703995227813720703125">
        <ele>1968.800048828125</ele>
        <time>2026-06-19T13:02:53.000Z</time>
        <extensions>
          <ns3:TrackPointExtension>
            <ns3:atemp>22.0</ns3:atemp>
          </ns3:TrackPointExtension>
        </extensions>
      </trkpt>
      <trkpt lat="42.56032881326973438262939453125" lon="20.10283797048032283782958984375">
        <ele>1968.4000244140625</ele>
        <time>2026-06-19T13:02:54.000Z</time>
        <extensions>
          <ns3:TrackPointExtension>
            <ns3:atemp>22.0</ns3:atemp>
          </ns3:TrackPointExtension>
        </extensions>
      </trkpt>
      <trkpt lat="42.56034649908542633056640625" lon="20.10287418030202388763427734375">
        <ele>1968</ele>
        <time>2026-06-19T13:02:55.000Z</time>
        <extensions>
          <ns3:TrackPointExtension>
            <ns3:atemp>22.0</ns3:atemp>
          </ns3:TrackPointExtension>
        </extensions>
      </trkpt>
      <trkpt lat="42.56037105806171894073486328125" lon="20.1029146648943424224853515625">
        <ele>1967.5999755859375</ele>
        <time>2026-06-19T13:02:56.000Z</time>
        <extensions>
          <ns3:TrackPointExtension>
            <ns3:atemp>22.0</ns3:atemp>
          </ns3:TrackPointExtension>
        </extensions>
      </trkpt>
      <trkpt lat="42.5603912584483623504638671875" lon="20.10295414365828037261962890625">
        <ele>1967</ele>
        <time>2026-06-19T13:02:57.000Z</time>
        <extensions>
          <ns3:TrackPointExtension>
            <ns3:atemp>22.0</ns3:atemp>
          </ns3:TrackPointExtension>
        </extensions>
      </trkpt>
      <trkpt lat="42.5604137219488620758056640625" lon="20.10298934765160083770751953125">
        <ele>1966.4000244140625</ele>
        <time>2026-06-19T13:02:58.000Z</time>
        <extensions>
          <ns3:TrackPointExtension>
            <ns3:atemp>22.0</ns3:atemp>
          </ns3:TrackPointExtension>
        </extensions>
      </trkpt>
      <trkpt lat="42.56042352877557277679443359375" lon="20.1030276529490947723388671875">
        <ele>1966</ele>
        <time>2026-06-19T13:02:59.000Z</time>
        <extensions>
          <ns3:TrackPointExtension>
            <ns3:atemp>22.0</ns3:atemp>
          </ns3:TrackPointExtension>
        </extensions>
      </trkpt>
      <trkpt lat="42.56044146604835987091064453125" lon="20.1030586659908294677734375">
        <ele>1965.5999755859375</ele>
        <time>2026-06-19T13:03:00.000Z</time>
        <extensions>
          <ns3:TrackPointExtension>
            <ns3:atemp>22.0</ns3:atemp>
          </ns3:TrackPointExtension>
        </extensions>
      </trkpt>
      <trkpt lat="42.56045035086572170257568359375" lon="20.1030967198312282562255859375">
        <ele>1965.199951171875</ele>
        <time>2026-06-19T13:03:01.000Z</time>
        <extensions>
          <ns3:TrackPointExtension>
            <ns3:atemp>22.0</ns3:atemp>
          </ns3:TrackPointExtension>
        </extensions>
      </trkpt>
      <trkpt lat="42.56047197617590427398681640625" lon="20.10312848724424839019775390625">
        <ele>1964.800048828125</ele>
        <time>2026-06-19T13:03:02.000Z</time>
        <extensions>
          <ns3:TrackPointExtension>
            <ns3:atemp>22.0</ns3:atemp>
          </ns3:TrackPointExtension>
        </extensions>
      </trkpt>
      <trkpt lat="42.56048924289643764495849609375" lon="20.10315723717212677001953125">
        <ele>1964.5999755859375</ele>
        <time>2026-06-19T13:03:03.000Z</time>
        <extensions>
          <ns3:TrackPointExtension>
            <ns3:atemp>22.0</ns3:atemp>
          </ns3:TrackPointExtension>
        </extensions>
      </trkpt>
      <trkpt lat="42.56050198338925838470458984375" lon="20.1031848974525928497314453125">
        <ele>1964.199951171875</ele>
        <time>2026-06-19T13:03:04.000Z</time>
        <extensions>
          <ns3:TrackPointExtension>
            <ns3:atemp>22.0</ns3:atemp>
          </ns3:TrackPointExtension>
        </extensions>
      </trkpt>
      <trkpt lat="42.560520172119140625" lon="20.1032090373337268829345703125">
        <ele>1964</ele>
        <time>2026-06-19T13:03:05.000Z</time>
        <extensions>
          <ns3:TrackPointExtension>
            <ns3:atemp>22.0</ns3:atemp>
          </ns3:TrackPointExtension>
        </extensions>
      </trkpt>
      <trkpt lat="42.560540623962879180908203125" lon="20.1032341830432415008544921875">
        <ele>1963.5999755859375</ele>
        <time>2026-06-19T13:03:06.000Z</time>
        <extensions>
          <ns3:TrackPointExtension>
            <ns3:atemp>22.0</ns3:atemp>
          </ns3:TrackPointExtension>
        </extensions>
      </trkpt>
      <trkpt lat="42.56056183017790317535400390625" lon="20.10325245559215545654296875">
        <ele>1963.4000244140625</ele>
        <time>2026-06-19T13:03:07.000Z</time>
        <extensions>
          <ns3:TrackPointExtension>
            <ns3:atemp>22.0</ns3:atemp>
          </ns3:TrackPointExtension>
        </extensions>
      </trkpt>
      <trkpt lat="42.5605816952884197235107421875" lon="20.1032680459320545196533203125">
        <ele>1963.199951171875</ele>
        <time>2026-06-19T13:03:08.000Z</time>
        <extensions>
          <ns3:TrackPointExtension>
            <ns3:atemp>22.0</ns3:atemp>
          </ns3:TrackPointExtension>
        </extensions>
      </trkpt>
      <trkpt lat="42.560596279799938201904296875" lon="20.10328673757612705230712890625">
        <ele>1963.199951171875</ele>
        <time>2026-06-19T13:03:09.000Z</time>
        <extensions>
          <ns3:TrackPointExtension>
            <ns3:atemp>22.0</ns3:atemp>
          </ns3:TrackPointExtension>
        </extensions>
      </trkpt>
      <trkpt lat="42.56061195395886898040771484375" lon="20.10330551303923130035400390625">
        <ele>1963.199951171875</ele>
        <time>2026-06-19T13:03:10.000Z</time>
        <extensions>
          <ns3:TrackPointExtension>
            <ns3:atemp>22.0</ns3:atemp>
          </ns3:TrackPointExtension>
        </extensions>
      </trkpt>
      <trkpt lat="42.56062855012714862823486328125" lon="20.1033126376569271087646484375">
        <ele>1963</ele>
        <time>2026-06-19T13:03:11.000Z</time>
        <extensions>
          <ns3:TrackPointExtension>
            <ns3:atemp>22.0</ns3:atemp>
          </ns3:TrackPointExtension>
        </extensions>
      </trkpt>
      <trkpt lat="42.5606500916182994842529296875" lon="20.103315822780132293701171875">
        <ele>1962.800048828125</ele>
        <time>2026-06-19T13:03:12.000Z</time>
        <extensions>
          <ns3:TrackPointExtension>
            <ns3:atemp>22.0</ns3:atemp>
          </ns3:TrackPointExtension>
        </extensions>
      </trkpt>
      <trkpt lat="42.56067641079425811767578125" lon="20.10332462377846240997314453125">
        <ele>1962.5999755859375</ele>
        <time>2026-06-19T13:03:13.000Z</time>
        <extensions>
          <ns3:TrackPointExtension>
            <ns3:atemp>22.0</ns3:atemp>
          </ns3:TrackPointExtension>
        </extensions>
      </trkpt>
      <trkpt lat="42.5607121177017688751220703125" lon="20.10334071703255176544189453125">
        <ele>1962.4000244140625</ele>
        <time>2026-06-19T13:03:14.000Z</time>
        <extensions>
          <ns3:TrackPointExtension>
            <ns3:atemp>22.0</ns3:atemp>
          </ns3:TrackPointExtension>
        </extensions>
      </trkpt>
      <trkpt lat="42.56075377576053142547607421875" lon="20.103371143341064453125">
        <ele>1961.5999755859375</ele>
        <time>2026-06-19T13:03:15.000Z</time>
        <extensions>
          <ns3:TrackPointExtension>
            <ns3:atemp>22.0</ns3:atemp>
          </ns3:TrackPointExtension>
        </extensions>
      </trkpt>
      <trkpt lat="42.56079166196286678314208984375" lon="20.1034034974873065948486328125">
        <ele>1961</ele>
        <time>2026-06-19T13:03:16.000Z</time>
        <extensions>
          <ns3:TrackPointExtension>
            <ns3:atemp>22.0</ns3:atemp>
          </ns3:TrackPointExtension>
        </extensions>
      </trkpt>
      <trkpt lat="42.56083072163164615631103515625" lon="20.10343409143388271331787109375">
        <ele>1960.5999755859375</ele>
        <time>2026-06-19T13:03:17.000Z</time>
        <extensions>
          <ns3:TrackPointExtension>
            <ns3:atemp>22.0</ns3:atemp>
          </ns3:TrackPointExtension>
        </extensions>
      </trkpt>
      <trkpt lat="42.560863494873046875" lon="20.1034544594585895538330078125">
        <ele>1960.199951171875</ele>
        <time>2026-06-19T13:03:18.000Z</time>
        <extensions>
          <ns3:TrackPointExtension>
            <ns3:atemp>22.0</ns3:atemp>
          </ns3:TrackPointExtension>
        </extensions>
      </trkpt>
      <trkpt lat="42.5608889758586883544921875" lon="20.10347717441618442535400390625">
        <ele>1959.800048828125</ele>
        <time>2026-06-19T13:03:19.000Z</time>
        <extensions>
          <ns3:TrackPointExtension>
            <ns3:atemp>22.0</ns3:atemp>
          </ns3:TrackPointExtension>
        </extensions>
      </trkpt>
      <trkpt lat="42.56091470830142498016357421875" lon="20.10350399650633335113525390625">
        <ele>1959.5999755859375</ele>
        <time>2026-06-19T13:03:20.000Z</time>
        <extensions>
          <ns3:TrackPointExtension>
            <ns3:atemp>22.0</ns3:atemp>
          </ns3:TrackPointExtension>
        </extensions>
      </trkpt>
      <trkpt lat="42.56094060838222503662109375" lon="20.1035221852362155914306640625">
        <ele>1959.199951171875</ele>
        <time>2026-06-19T13:03:21.000Z</time>
        <extensions>
          <ns3:TrackPointExtension>
            <ns3:atemp>22.0</ns3:atemp>
          </ns3:TrackPointExtension>
        </extensions>
      </trkpt>
      <trkpt lat="42.560970447957515716552734375" lon="20.1035372726619243621826171875">
        <ele>1959</ele>
        <time>2026-06-19T13:03:22.000Z</time>
        <extensions>
          <ns3:TrackPointExtension>
            <ns3:atemp>22.0</ns3:atemp>
          </ns3:TrackPointExtension>
        </extensions>
      </trkpt>
      <trkpt lat="42.5609954260289669036865234375" lon="20.10355311445891857147216796875">
        <ele>1958.4000244140625</ele>
        <time>2026-06-19T13:03:23.000Z</time>
        <extensions>
          <ns3:TrackPointExtension>
            <ns3:atemp>22.0</ns3:atemp>
          </ns3:TrackPointExtension>
        </extensions>
      </trkpt>
      <trkpt lat="42.561012692749500274658203125" lon="20.10358094237744808197021484375">
        <ele>1958</ele>
        <time>2026-06-19T13:03:24.000Z</time>
        <extensions>
          <ns3:TrackPointExtension>
            <ns3:atemp>22.0</ns3:atemp>
          </ns3:TrackPointExtension>
        </extensions>
      </trkpt>
      <trkpt lat="42.56103205494582653045654296875" lon="20.1036137156188488006591796875">
        <ele>1957.199951171875</ele>
        <time>2026-06-19T13:03:25.000Z</time>
        <extensions>
          <ns3:TrackPointExtension>
            <ns3:atemp>22.0</ns3:atemp>
          </ns3:TrackPointExtension>
        </extensions>
      </trkpt>
      <trkpt lat="42.56105116568505764007568359375" lon="20.103655122220516204833984375">
        <ele>1956.5999755859375</ele>
        <time>2026-06-19T13:03:26.000Z</time>
        <extensions>
          <ns3:TrackPointExtension>
            <ns3:atemp>22.0</ns3:atemp>
          </ns3:TrackPointExtension>
        </extensions>
      </trkpt>
      <trkpt lat="42.56106474436819553375244140625" lon="20.10370080359280109405517578125">
        <ele>1956</ele>
        <time>2026-06-19T13:03:27.000Z</time>
        <extensions>
          <ns3:TrackPointExtension>
            <ns3:atemp>22.0</ns3:atemp>
          </ns3:TrackPointExtension>
        </extensions>
      </trkpt>
      <trkpt lat="42.5610822625458240509033203125" lon="20.1037575490772724151611328125">
        <ele>1955.199951171875</ele>
        <time>2026-06-19T13:03:28.000Z</time>
        <extensions>
          <ns3:TrackPointExtension>
            <ns3:atemp>22.0</ns3:atemp>
          </ns3:TrackPointExtension>
        </extensions>
      </trkpt>
      <trkpt lat="42.56110011599957942962646484375" lon="20.10382334701716899871826171875">
        <ele>1954.5999755859375</ele>
        <time>2026-06-19T13:03:29.000Z</time>
        <extensions>
          <ns3:TrackPointExtension>
            <ns3:atemp>22.0</ns3:atemp>
          </ns3:TrackPointExtension>
        </extensions>
      </trkpt>
      <trkpt lat="42.56109961308538913726806640625" lon="20.103888474404811859130859375">
        <ele>1953.800048828125</ele>
        <time>2026-06-19T13:03:30.000Z</time>
        <extensions>
          <ns3:TrackPointExtension>
            <ns3:atemp>22.0</ns3:atemp>
          </ns3:TrackPointExtension>
        </extensions>
      </trkpt>
      <trkpt lat="42.56110489368438720703125" lon="20.1039375923573970794677734375">
        <ele>1953</ele>
        <time>2026-06-19T13:03:31.000Z</time>
        <extensions>
          <ns3:TrackPointExtension>
            <ns3:atemp>22.0</ns3:atemp>
          </ns3:TrackPointExtension>
        </extensions>
      </trkpt>
      <trkpt lat="42.561113946139812469482421875" lon="20.1039774902164936065673828125">
        <ele>1952.5999755859375</ele>
        <time>2026-06-19T13:03:32.000Z</time>
        <extensions>
          <ns3:TrackPointExtension>
            <ns3:atemp>22.0</ns3:atemp>
          </ns3:TrackPointExtension>
        </extensions>
      </trkpt>
      <trkpt lat="42.56111168302595615386962890625" lon="20.10401294566690921783447265625">
        <ele>1952</ele>
        <time>2026-06-19T13:03:33.000Z</time>
        <extensions>
          <ns3:TrackPointExtension>
            <ns3:atemp>22.0</ns3:atemp>
          </ns3:TrackPointExtension>
        </extensions>
      </trkpt>
      <trkpt lat="42.5611104257404804229736328125" lon="20.10405066423118114471435546875">
        <ele>1951.5999755859375</ele>
        <time>2026-06-19T13:03:34.000Z</time>
        <extensions>
          <ns3:TrackPointExtension>
            <ns3:atemp>22.0</ns3:atemp>
          </ns3:TrackPointExtension>
        </extensions>
      </trkpt>
      <trkpt lat="42.56110698916018009185791015625" lon="20.1040891371667385101318359375">
        <ele>1951.199951171875</ele>
        <time>2026-06-19T13:03:35.000Z</time>
        <extensions>
          <ns3:TrackPointExtension>
            <ns3:atemp>22.0</ns3:atemp>
          </ns3:TrackPointExtension>
        </extensions>
      </trkpt>
      <trkpt lat="42.5610986910760402679443359375" lon="20.10412492789328098297119140625">
        <ele>1950.5999755859375</ele>
        <time>2026-06-19T13:03:36.000Z</time>
        <extensions>
          <ns3:TrackPointExtension>
            <ns3:atemp>22.0</ns3:atemp>
          </ns3:TrackPointExtension>
        </extensions>
      </trkpt>
      <trkpt lat="42.56110078655183315277099609375" lon="20.1041716150939464569091796875">
        <ele>1950.199951171875</ele>
        <time>2026-06-19T13:03:37.000Z</time>
        <extensions>
          <ns3:TrackPointExtension>
            <ns3:atemp>22.0</ns3:atemp>
          </ns3:TrackPointExtension>
        </extensions>
      </trkpt>
      <trkpt lat="42.5610970146954059600830078125" lon="20.10421427898108959197998046875">
        <ele>1949.4000244140625</ele>
        <time>2026-06-19T13:03:38.000Z</time>
        <extensions>
          <ns3:TrackPointExtension>
            <ns3:atemp>22.0</ns3:atemp>
          </ns3:TrackPointExtension>
        </extensions>
      </trkpt>
      <trkpt lat="42.56108838133513927459716796875" lon="20.10425501503050327301025390625">
        <ele>1948.800048828125</ele>
        <time>2026-06-19T13:03:39.000Z</time>
        <extensions>
          <ns3:TrackPointExtension>
            <ns3:atemp>22.0</ns3:atemp>
          </ns3:TrackPointExtension>
        </extensions>
      </trkpt>
      <trkpt lat="42.56107765249907970428466796875" lon="20.10428954847157001495361328125">
        <ele>1948</ele>
        <time>2026-06-19T13:03:40.000Z</time>
        <extensions>
          <ns3:TrackPointExtension>
            <ns3:atemp>22.0</ns3:atemp>
          </ns3:TrackPointExtension>
        </extensions>
      </trkpt>
      <trkpt lat="42.5610641576349735260009765625" lon="20.10432357899844646453857421875">
        <ele>1947.199951171875</ele>
        <time>2026-06-19T13:03:41.000Z</time>
        <extensions>
          <ns3:TrackPointExtension>
            <ns3:atemp>22.0</ns3:atemp>
          </ns3:TrackPointExtension>
        </extensions>
      </trkpt>
      <trkpt lat="42.56106155924499034881591796875" lon="20.10434009134769439697265625">
        <ele>1946.4000244140625</ele>
        <time>2026-06-19T13:03:42.000Z</time>
        <extensions>
          <ns3:TrackPointExtension>
            <ns3:atemp>22.0</ns3:atemp>
          </ns3:TrackPointExtension>
        </extensions>
      </trkpt>
      <trkpt lat="42.56105954758822917938232421875" lon="20.104367248713970184326171875">
        <ele>1945.800048828125</ele>
        <time>2026-06-19T13:03:43.000Z</time>
        <extensions>
          <ns3:TrackPointExtension>
            <ns3:atemp>22.0</ns3:atemp>
          </ns3:TrackPointExtension>
        </extensions>
      </trkpt>
      <trkpt lat="42.56105585955083370208740234375" lon="20.1043788157403469085693359375">
        <ele>1945.4000244140625</ele>
        <time>2026-06-19T13:03:44.000Z</time>
        <extensions>
          <ns3:TrackPointExtension>
            <ns3:atemp>22.0</ns3:atemp>
          </ns3:TrackPointExtension>
        </extensions>
      </trkpt>
      <trkpt lat="42.56104932166635990142822265625" lon="20.1043778099119663238525390625">
        <ele>1944.800048828125</ele>
        <time>2026-06-19T13:03:45.000Z</time>
        <extensions>
          <ns3:TrackPointExtension>
            <ns3:atemp>22.0</ns3:atemp>
          </ns3:TrackPointExtension>
        </extensions>
      </trkpt>
      <trkpt lat="42.56103758700191974639892578125" lon="20.1043804921209812164306640625">
        <ele>1944.4000244140625</ele>
        <time>2026-06-19T13:03:46.000Z</time>
        <extensions>
          <ns3:TrackPointExtension>
            <ns3:atemp>22.0</ns3:atemp>
          </ns3:TrackPointExtension>
        </extensions>
      </trkpt>
      <trkpt lat="42.56101881153881549835205078125" lon="20.10437889955937862396240234375">
        <ele>1943.800048828125</ele>
        <time>2026-06-19T13:03:47.000Z</time>
        <extensions>
          <ns3:TrackPointExtension>
            <ns3:atemp>22.0</ns3:atemp>
          </ns3:TrackPointExtension>
        </extensions>
      </trkpt>
      <trkpt lat="42.56099886260926723480224609375" lon="20.10436682961881160736083984375">
        <ele>1943.199951171875</ele>
        <time>2026-06-19T13:03:48.000Z</time>
        <extensions>
          <ns3:TrackPointExtension>
            <ns3:atemp>22.0</ns3:atemp>
          </ns3:TrackPointExtension>
        </extensions>
      </trkpt>
      <trkpt lat="42.56097757257521152496337890625" lon="20.10435727424919605255126953125">
        <ele>1942.5999755859375</ele>
        <time>2026-06-19T13:03:49.000Z</time>
        <extensions>
          <ns3:TrackPointExtension>
            <ns3:atemp>22.0</ns3:atemp>
          </ns3:TrackPointExtension>
        </extensions>
      </trkpt>
      <trkpt lat="42.56094672717154026031494140625" lon="20.10435710661113262176513671875">
        <ele>1942</ele>
        <time>2026-06-19T13:03:50.000Z</time>
        <extensions>
          <ns3:TrackPointExtension>
            <ns3:atemp>22.0</ns3:atemp>
          </ns3:TrackPointExtension>
        </extensions>
      </trkpt>
      <trkpt lat="42.5609131157398223876953125" lon="20.10435828007757663726806640625">
        <ele>1941.4000244140625</ele>
        <time>2026-06-19T13:03:51.000Z</time>
        <extensions>
          <ns3:TrackPointExtension>
            <ns3:atemp>22.0</ns3:atemp>
          </ns3:TrackPointExtension>
        </extensions>
      </trkpt>
      <trkpt lat="42.5608767382800579071044921875" lon="20.10434302501380443572998046875">
        <ele>1940.4000244140625</ele>
        <time>2026-06-19T13:03:52.000Z</time>
        <extensions>
          <ns3:TrackPointExtension>
            <ns3:atemp>22.0</ns3:atemp>
          </ns3:TrackPointExtension>
        </extensions>
      </trkpt>
      <trkpt lat="42.56084413267672061920166015625" lon="20.10432894341647624969482421875">
        <ele>1940</ele>
        <time>2026-06-19T13:03:53.000Z</time>
        <extensions>
          <ns3:TrackPointExtension>
            <ns3:atemp>22.0</ns3:atemp>
          </ns3:TrackPointExtension>
        </extensions>
      </trkpt>
      <trkpt lat="42.5608039833605289459228515625" lon="20.10432441718876361846923828125">
        <ele>1939.5999755859375</ele>
        <time>2026-06-19T13:03:54.000Z</time>
        <extensions>
          <ns3:TrackPointExtension>
            <ns3:atemp>22.0</ns3:atemp>
          </ns3:TrackPointExtension>
        </extensions>
      </trkpt>
      <trkpt lat="42.56077724508941173553466796875" lon="20.10431134141981601715087890625">
        <ele>1939</ele>
        <time>2026-06-19T13:03:55.000Z</time>
        <extensions>
          <ns3:TrackPointExtension>
            <ns3:atemp>22.0</ns3:atemp>
          </ns3:TrackPointExtension>
        </extensions>
      </trkpt>
      <trkpt lat="42.5607660971581935882568359375" lon="20.1043033786118030548095703125">
        <ele>1938.5999755859375</ele>
        <time>2026-06-19T13:03:56.000Z</time>
        <extensions>
          <ns3:TrackPointExtension>
            <ns3:atemp>22.0</ns3:atemp>
          </ns3:TrackPointExtension>
        </extensions>
      </trkpt>
      <trkpt lat="42.56076601333916187286376953125" lon="20.104303546249866485595703125">
        <ele>1938.4000244140625</ele>
        <time>2026-06-19T13:03:57.000Z</time>
        <extensions>
          <ns3:TrackPointExtension>
            <ns3:atemp>22.0</ns3:atemp>
          </ns3:TrackPointExtension>
        </extensions>
      </trkpt>
      <trkpt lat="42.560765929520130157470703125" lon="20.10430346243083477020263671875">
        <ele>1938.199951171875</ele>
        <time>2026-06-19T13:03:58.000Z</time>
        <extensions>
          <ns3:TrackPointExtension>
            <ns3:atemp>22.0</ns3:atemp>
          </ns3:TrackPointExtension>
        </extensions>
      </trkpt>
      <trkpt lat="42.56076601333916187286376953125" lon="20.104303546249866485595703125">
        <ele>1938</ele>
        <time>2026-06-19T13:03:59.000Z</time>
        <extensions>
          <ns3:TrackPointExtension>
            <ns3:atemp>22.0</ns3:atemp>
          </ns3:TrackPointExtension>
        </extensions>
      </trkpt>
      <trkpt lat="42.56076601333916187286376953125" lon="20.104303546249866485595703125">
        <ele>1938</ele>
        <time>2026-06-19T13:04:00.000Z</time>
        <extensions>
          <ns3:TrackPointExtension>
            <ns3:atemp>22.0</ns3:atemp>
          </ns3:TrackPointExtension>
        </extensions>
      </trkpt>
      <trkpt lat="42.56076601333916187286376953125" lon="20.104303546249866485595703125">
        <ele>1938</ele>
        <time>2026-06-19T13:04:01.000Z</time>
        <extensions>
          <ns3:TrackPointExtension>
            <ns3:atemp>22.0</ns3:atemp>
          </ns3:TrackPointExtension>
        </extensions>
      </trkpt>
      <trkpt lat="42.56076601333916187286376953125" lon="20.104303546249866485595703125">
        <ele>1937.800048828125</ele>
        <time>2026-06-19T13:04:02.000Z</time>
        <extensions>
          <ns3:TrackPointExtension>
            <ns3:atemp>22.0</ns3:atemp>
          </ns3:TrackPointExtension>
        </extensions>
      </trkpt>
      <trkpt lat="42.56076601333916187286376953125" lon="20.104303546249866485595703125">
        <ele>1937.800048828125</ele>
        <time>2026-06-19T13:04:03.000Z</time>
        <extensions>
          <ns3:TrackPointExtension>
            <ns3:atemp>22.0</ns3:atemp>
          </ns3:TrackPointExtension>
        </extensions>
      </trkpt>
      <trkpt lat="42.56076601333916187286376953125" lon="20.104303546249866485595703125">
        <ele>1937.800048828125</ele>
        <time>2026-06-19T13:04:04.000Z</time>
        <extensions>
          <ns3:TrackPointExtension>
            <ns3:atemp>22.0</ns3:atemp>
          </ns3:TrackPointExtension>
        </extensions>
      </trkpt>
      <trkpt lat="42.56076601333916187286376953125" lon="20.104303546249866485595703125">
        <ele>1937.800048828125</ele>
        <time>2026-06-19T13:04:05.000Z</time>
        <extensions>
          <ns3:TrackPointExtension>
            <ns3:atemp>22.0</ns3:atemp>
          </ns3:TrackPointExtension>
        </extensions>
      </trkpt>
      <trkpt lat="42.56076601333916187286376953125" lon="20.104303546249866485595703125">
        <ele>1937.800048828125</ele>
        <time>2026-06-19T13:04:06.000Z</time>
        <extensions>
          <ns3:TrackPointExtension>
            <ns3:atemp>22.0</ns3:atemp>
          </ns3:TrackPointExtension>
        </extensions>
      </trkpt>
      <trkpt lat="42.56076601333916187286376953125" lon="20.104303546249866485595703125">
        <ele>1937.5999755859375</ele>
        <time>2026-06-19T13:04:07.000Z</time>
        <extensions>
          <ns3:TrackPointExtension>
            <ns3:atemp>22.0</ns3:atemp>
          </ns3:TrackPointExtension>
        </extensions>
      </trkpt>
      <trkpt lat="42.56076601333916187286376953125" lon="20.104303546249866485595703125">
        <ele>1937.5999755859375</ele>
        <time>2026-06-19T13:04:08.000Z</time>
        <extensions>
          <ns3:TrackPointExtension>
            <ns3:atemp>22.0</ns3:atemp>
          </ns3:TrackPointExtension>
        </extensions>
      </trkpt>
      <trkpt lat="42.56076601333916187286376953125" lon="20.104303546249866485595703125">
        <ele>1937.5999755859375</ele>
        <time>2026-06-19T13:04:09.000Z</time>
        <extensions>
          <ns3:TrackPointExtension>
            <ns3:atemp>22.0</ns3:atemp>
          </ns3:TrackPointExtension>
        </extensions>
      </trkpt>
      <trkpt lat="42.56076601333916187286376953125" lon="20.104303546249866485595703125">
        <ele>1937.5999755859375</ele>
        <time>2026-06-19T13:04:10.000Z</time>
        <extensions>
          <ns3:TrackPointExtension>
            <ns3:atemp>22.0</ns3:atemp>
          </ns3:TrackPointExtension>
        </extensions>
      </trkpt>
      <trkpt lat="42.56076601333916187286376953125" lon="20.104303546249866485595703125">
        <ele>1937.5999755859375</ele>
        <time>2026-06-19T13:04:11.000Z</time>
        <extensions>
          <ns3:TrackPointExtension>
            <ns3:atemp>22.0</ns3:atemp>
          </ns3:TrackPointExtension>
        </extensions>
      </trkpt>
      <trkpt lat="42.56076601333916187286376953125" lon="20.104303546249866485595703125">
        <ele>1937.4000244140625</ele>
        <time>2026-06-19T13:04:12.000Z</time>
        <extensions>
          <ns3:TrackPointExtension>
            <ns3:atemp>22.0</ns3:atemp>
          </ns3:TrackPointExtension>
        </extensions>
      </trkpt>
      <trkpt lat="42.5607548654079437255859375" lon="20.10429675690829753875732421875">
        <ele>1937.4000244140625</ele>
        <time>2026-06-19T13:04:13.000Z</time>
        <extensions>
          <ns3:TrackPointExtension>
            <ns3:atemp>22.0</ns3:atemp>
          </ns3:TrackPointExtension>
        </extensions>
      </trkpt>
      <trkpt lat="42.56075360812246799468994140625" lon="20.1042953319847583770751953125">
        <ele>1937.4000244140625</ele>
        <time>2026-06-19T13:04:14.000Z</time>
        <extensions>
          <ns3:TrackPointExtension>
            <ns3:atemp>22.0</ns3:atemp>
          </ns3:TrackPointExtension>
        </extensions>
      </trkpt>
      <trkpt lat="42.56075360812246799468994140625" lon="20.10429524816572666168212890625">
        <ele>1937.4000244140625</ele>
        <time>2026-06-19T13:04:15.000Z</time>
        <extensions>
          <ns3:TrackPointExtension>
            <ns3:atemp>22.0</ns3:atemp>
          </ns3:TrackPointExtension>
        </extensions>
      </trkpt>
      <trkpt lat="42.560748159885406494140625" lon="20.10428971610963344573974609375">
        <ele>1937.4000244140625</ele>
        <time>2026-06-19T13:04:16.000Z</time>
        <extensions>
          <ns3:TrackPointExtension>
            <ns3:atemp>22.0</ns3:atemp>
          </ns3:TrackPointExtension>
        </extensions>
      </trkpt>
      <trkpt lat="42.5607392750680446624755859375" lon="20.10429357178509235382080078125">
        <ele>1937.199951171875</ele>
        <time>2026-06-19T13:04:17.000Z</time>
        <extensions>
          <ns3:TrackPointExtension>
            <ns3:atemp>22.0</ns3:atemp>
          </ns3:TrackPointExtension>
        </extensions>
      </trkpt>
      <trkpt lat="42.5607171468436717987060546875" lon="20.1042896322906017303466796875">
        <ele>1937.199951171875</ele>
        <time>2026-06-19T13:04:18.000Z</time>
        <extensions>
          <ns3:TrackPointExtension>
            <ns3:atemp>22.0</ns3:atemp>
          </ns3:TrackPointExtension>
        </extensions>
      </trkpt>
      <trkpt lat="42.56070147268474102020263671875" lon="20.10427412576973438262939453125">
        <ele>1937</ele>
        <time>2026-06-19T13:04:19.000Z</time>
        <extensions>
          <ns3:TrackPointExtension>
            <ns3:atemp>22.0</ns3:atemp>
          </ns3:TrackPointExtension>
        </extensions>
      </trkpt>
      <trkpt lat="42.560673058032989501953125" lon="20.104272030293941497802734375">
        <ele>1936.800048828125</ele>
        <time>2026-06-19T13:04:20.000Z</time>
        <extensions>
          <ns3:TrackPointExtension>
            <ns3:atemp>22.0</ns3:atemp>
          </ns3:TrackPointExtension>
        </extensions>
      </trkpt>
      <trkpt lat="42.5606443919241428375244140625" lon="20.10425954125821590423583984375">
        <ele>1936.4000244140625</ele>
        <time>2026-06-19T13:04:21.000Z</time>
        <extensions>
          <ns3:TrackPointExtension>
            <ns3:atemp>22.0</ns3:atemp>
          </ns3:TrackPointExtension>
        </extensions>
      </trkpt>
      <trkpt lat="42.5606132112443447113037109375" lon="20.1042373292148113250732421875">
        <ele>1936.199951171875</ele>
        <time>2026-06-19T13:04:22.000Z</time>
        <extensions>
          <ns3:TrackPointExtension>
            <ns3:atemp>22.0</ns3:atemp>
          </ns3:TrackPointExtension>
        </extensions>
      </trkpt>
      <trkpt lat="42.56057909689843654632568359375" lon="20.10422064922749996185302734375">
        <ele>1936</ele>
        <time>2026-06-19T13:04:23.000Z</time>
        <extensions>
          <ns3:TrackPointExtension>
            <ns3:atemp>22.0</ns3:atemp>
          </ns3:TrackPointExtension>
        </extensions>
      </trkpt>
      <trkpt lat="42.5605376064777374267578125" lon="20.1042007841169834136962890625">
        <ele>1935.5999755859375</ele>
        <time>2026-06-19T13:04:24.000Z</time>
        <extensions>
          <ns3:TrackPointExtension>
            <ns3:atemp>22.0</ns3:atemp>
          </ns3:TrackPointExtension>
        </extensions>
      </trkpt>
      <trkpt lat="42.56049343384802341461181640625" lon="20.104173459112644195556640625">
        <ele>1935</ele>
        <time>2026-06-19T13:04:25.000Z</time>
        <extensions>
          <ns3:TrackPointExtension>
            <ns3:atemp>22.0</ns3:atemp>
          </ns3:TrackPointExtension>
        </extensions>
      </trkpt>
      <trkpt lat="42.560454793274402618408203125" lon="20.1041531749069690704345703125">
        <ele>1934.5999755859375</ele>
        <time>2026-06-19T13:04:26.000Z</time>
        <extensions>
          <ns3:TrackPointExtension>
            <ns3:atemp>22.0</ns3:atemp>
          </ns3:TrackPointExtension>
        </extensions>
      </trkpt>
      <trkpt lat="42.5604033283889293670654296875" lon="20.104140937328338623046875">
        <ele>1933.800048828125</ele>
        <time>2026-06-19T13:04:27.000Z</time>
        <extensions>
          <ns3:TrackPointExtension>
            <ns3:atemp>22.0</ns3:atemp>
          </ns3:TrackPointExtension>
        </extensions>
      </trkpt>
      <trkpt lat="42.56034641526639461517333984375" lon="20.10412308387458324432373046875">
        <ele>1933</ele>
        <time>2026-06-19T13:04:28.000Z</time>
        <extensions>
          <ns3:TrackPointExtension>
            <ns3:atemp>22.0</ns3:atemp>
          </ns3:TrackPointExtension>
        </extensions>
      </trkpt>
      <trkpt lat="42.5602933578193187713623046875" lon="20.10409106500446796417236328125">
        <ele>1932.4000244140625</ele>
        <time>2026-06-19T13:04:29.000Z</time>
        <extensions>
          <ns3:TrackPointExtension>
            <ns3:atemp>22.0</ns3:atemp>
          </ns3:TrackPointExtension>
        </extensions>
      </trkpt>
      <trkpt lat="42.560249269008636474609375" lon="20.1040542684495449066162109375">
        <ele>1931.5999755859375</ele>
        <time>2026-06-19T13:04:30.000Z</time>
        <extensions>
          <ns3:TrackPointExtension>
            <ns3:atemp>22.0</ns3:atemp>
          </ns3:TrackPointExtension>
        </extensions>
      </trkpt>
      <trkpt lat="42.56021783687174320220947265625" lon="20.10401059873402118682861328125">
        <ele>1931.199951171875</ele>
        <time>2026-06-19T13:04:31.000Z</time>
        <extensions>
          <ns3:TrackPointExtension>
            <ns3:atemp>22.0</ns3:atemp>
          </ns3:TrackPointExtension>
        </extensions>
      </trkpt>
      <trkpt lat="42.56018011830747127532958984375" lon="20.1039778254926204681396484375">
        <ele>1930.800048828125</ele>
        <time>2026-06-19T13:04:32.000Z</time>
        <extensions>
          <ns3:TrackPointExtension>
            <ns3:atemp>22.0</ns3:atemp>
          </ns3:TrackPointExtension>
        </extensions>
      </trkpt>
      <trkpt lat="42.5601475127041339874267578125" lon="20.10395678691565990447998046875">
        <ele>1930.199951171875</ele>
        <time>2026-06-19T13:04:33.000Z</time>
        <extensions>
          <ns3:TrackPointExtension>
            <ns3:atemp>22.0</ns3:atemp>
          </ns3:TrackPointExtension>
        </extensions>
      </trkpt>
      <trkpt lat="42.56012513302266597747802734375" lon="20.103929378092288970947265625">
        <ele>1929.800048828125</ele>
        <time>2026-06-19T13:04:34.000Z</time>
        <extensions>
          <ns3:TrackPointExtension>
            <ns3:atemp>22.0</ns3:atemp>
          </ns3:TrackPointExtension>
        </extensions>
      </trkpt>
      <trkpt lat="42.5601049326360225677490234375" lon="20.1039147935807704925537109375">
        <ele>1929.199951171875</ele>
        <time>2026-06-19T13:04:35.000Z</time>
        <extensions>
          <ns3:TrackPointExtension>
            <ns3:atemp>22.0</ns3:atemp>
          </ns3:TrackPointExtension>
        </extensions>
      </trkpt>
      <trkpt lat="42.56008900701999664306640625" lon="20.1039067469537258148193359375">
        <ele>1929</ele>
        <time>2026-06-19T13:04:36.000Z</time>
        <extensions>
          <ns3:TrackPointExtension>
            <ns3:atemp>22.0</ns3:atemp>
          </ns3:TrackPointExtension>
        </extensions>
      </trkpt>
      <trkpt lat="42.56007903255522251129150390625" lon="20.10390163399279117584228515625">
        <ele>1928.5999755859375</ele>
        <time>2026-06-19T13:04:37.000Z</time>
        <extensions>
          <ns3:TrackPointExtension>
            <ns3:atemp>22.0</ns3:atemp>
          </ns3:TrackPointExtension>
        </extensions>
      </trkpt>
      <trkpt lat="42.56006352603435516357421875" lon="20.10389207862317562103271484375">
        <ele>1928.4000244140625</ele>
        <time>2026-06-19T13:04:38.000Z</time>
        <extensions>
          <ns3:TrackPointExtension>
            <ns3:atemp>22.0</ns3:atemp>
          </ns3:TrackPointExtension>
        </extensions>
      </trkpt>
      <trkpt lat="42.5600445829331874847412109375" lon="20.1038794219493865966796875">
        <ele>1928.199951171875</ele>
        <time>2026-06-19T13:04:39.000Z</time>
        <extensions>
          <ns3:TrackPointExtension>
            <ns3:atemp>22.0</ns3:atemp>
          </ns3:TrackPointExtension>
        </extensions>
      </trkpt>
      <trkpt lat="42.56002756766974925994873046875" lon="20.10387162677943706512451171875">
        <ele>1927.5999755859375</ele>
        <time>2026-06-19T13:04:40.000Z</time>
        <extensions>
          <ns3:TrackPointExtension>
            <ns3:atemp>22.0</ns3:atemp>
          </ns3:TrackPointExtension>
        </extensions>
      </trkpt>
      <trkpt lat="42.56000393070280551910400390625" lon="20.1038767397403717041015625">
        <ele>1927</ele>
        <time>2026-06-19T13:04:41.000Z</time>
        <extensions>
          <ns3:TrackPointExtension>
            <ns3:atemp>22.0</ns3:atemp>
          </ns3:TrackPointExtension>
        </extensions>
      </trkpt>
      <trkpt lat="42.559989430010318756103515625" lon="20.103887133300304412841796875">
        <ele>1926.4000244140625</ele>
        <time>2026-06-19T13:04:42.000Z</time>
        <extensions>
          <ns3:TrackPointExtension>
            <ns3:atemp>22.0</ns3:atemp>
          </ns3:TrackPointExtension>
        </extensions>
      </trkpt>
      <trkpt lat="42.55998800508677959442138671875" lon="20.1038896478712558746337890625">
        <ele>1925.800048828125</ele>
        <time>2026-06-19T13:04:43.000Z</time>
        <extensions>
          <ns3:TrackPointExtension>
            <ns3:atemp>22.0</ns3:atemp>
          </ns3:TrackPointExtension>
        </extensions>
      </trkpt>
      <trkpt lat="42.55998783744871616363525390625" lon="20.1038896478712558746337890625">
        <ele>1925.4000244140625</ele>
        <time>2026-06-19T13:04:44.000Z</time>
        <extensions>
          <ns3:TrackPointExtension>
            <ns3:atemp>22.0</ns3:atemp>
          </ns3:TrackPointExtension>
        </extensions>
      </trkpt>
      <trkpt lat="42.55998783744871616363525390625" lon="20.10390666313469409942626953125">
        <ele>1925</ele>
        <time>2026-06-19T13:04:45.000Z</time>
        <extensions>
          <ns3:TrackPointExtension>
            <ns3:atemp>22.0</ns3:atemp>
          </ns3:TrackPointExtension>
        </extensions>
      </trkpt>
      <trkpt lat="42.55999018438160419464111328125" lon="20.10393373668193817138671875">
        <ele>1924.5999755859375</ele>
        <time>2026-06-19T13:04:46.000Z</time>
        <extensions>
          <ns3:TrackPointExtension>
            <ns3:atemp>22.0</ns3:atemp>
          </ns3:TrackPointExtension>
        </extensions>
      </trkpt>
      <trkpt lat="42.55999353714287281036376953125" lon="20.1039503328502178192138671875">
        <ele>1924.199951171875</ele>
        <time>2026-06-19T13:04:47.000Z</time>
        <extensions>
          <ns3:TrackPointExtension>
            <ns3:atemp>22.0</ns3:atemp>
          </ns3:TrackPointExtension>
        </extensions>
      </trkpt>
      <trkpt lat="42.559992782771587371826171875" lon="20.103972293436527252197265625">
        <ele>1923.800048828125</ele>
        <time>2026-06-19T13:04:48.000Z</time>
        <extensions>
          <ns3:TrackPointExtension>
            <ns3:atemp>22.0</ns3:atemp>
          </ns3:TrackPointExtension>
        </extensions>
      </trkpt>
      <trkpt lat="42.5599919445812702178955078125" lon="20.10399215854704380035400390625">
        <ele>1923.199951171875</ele>
        <time>2026-06-19T13:04:49.000Z</time>
        <extensions>
          <ns3:TrackPointExtension>
            <ns3:atemp>22.0</ns3:atemp>
          </ns3:TrackPointExtension>
        </extensions>
      </trkpt>
      <trkpt lat="42.5599916093051433563232421875" lon="20.10399886406958103179931640625">
        <ele>1922.800048828125</ele>
        <time>2026-06-19T13:04:50.000Z</time>
        <extensions>
          <ns3:TrackPointExtension>
            <ns3:atemp>22.0</ns3:atemp>
          </ns3:TrackPointExtension>
        </extensions>
      </trkpt>
      <trkpt lat="42.55999806337058544158935546875" lon="20.1040006242692470550537109375">
        <ele>1922.4000244140625</ele>
        <time>2026-06-19T13:04:51.000Z</time>
        <extensions>
          <ns3:TrackPointExtension>
            <ns3:atemp>22.0</ns3:atemp>
          </ns3:TrackPointExtension>
        </extensions>
      </trkpt>
      <trkpt lat="42.56000292487442493438720703125" lon="20.1040086708962917327880859375">
        <ele>1922</ele>
        <time>2026-06-19T13:04:52.000Z</time>
        <extensions>
          <ns3:TrackPointExtension>
            <ns3:atemp>22.0</ns3:atemp>
          </ns3:TrackPointExtension>
        </extensions>
      </trkpt>
      <trkpt lat="42.56000292487442493438720703125" lon="20.10400883853435516357421875">
        <ele>1921.800048828125</ele>
        <time>2026-06-19T13:04:53.000Z</time>
        <extensions>
          <ns3:TrackPointExtension>
            <ns3:atemp>22.0</ns3:atemp>
          </ns3:TrackPointExtension>
        </extensions>
      </trkpt>
      <trkpt lat="42.56000292487442493438720703125" lon="20.10400883853435516357421875">
        <ele>1921.5999755859375</ele>
        <time>2026-06-19T13:04:54.000Z</time>
        <extensions>
          <ns3:TrackPointExtension>
            <ns3:atemp>22.0</ns3:atemp>
          </ns3:TrackPointExtension>
        </extensions>
      </trkpt>
      <trkpt lat="42.56000292487442493438720703125" lon="20.10400883853435516357421875">
        <ele>1921.4000244140625</ele>
        <time>2026-06-19T13:04:55.000Z</time>
        <extensions>
          <ns3:TrackPointExtension>
            <ns3:atemp>22.0</ns3:atemp>
          </ns3:TrackPointExtension>
        </extensions>
      </trkpt>
      <trkpt lat="42.56000292487442493438720703125" lon="20.10400883853435516357421875">
        <ele>1921.199951171875</ele>
        <time>2026-06-19T13:04:56.000Z</time>
        <extensions>
          <ns3:TrackPointExtension>
            <ns3:atemp>22.0</ns3:atemp>
          </ns3:TrackPointExtension>
        </extensions>
      </trkpt>
      <trkpt lat="42.56000292487442493438720703125" lon="20.10400883853435516357421875">
        <ele>1921</ele>
        <time>2026-06-19T13:04:57.000Z</time>
        <extensions>
          <ns3:TrackPointExtension>
            <ns3:atemp>22.0</ns3:atemp>
          </ns3:TrackPointExtension>
        </extensions>
      </trkpt>
      <trkpt lat="42.56000292487442493438720703125" lon="20.10400883853435516357421875">
        <ele>1921</ele>
        <time>2026-06-19T13:04:58.000Z</time>
        <extensions>
          <ns3:TrackPointExtension>
            <ns3:atemp>22.0</ns3:atemp>
          </ns3:TrackPointExtension>
        </extensions>
      </trkpt>
      <trkpt lat="42.56000292487442493438720703125" lon="20.10400883853435516357421875">
        <ele>1920.800048828125</ele>
        <time>2026-06-19T13:04:59.000Z</time>
        <extensions>
          <ns3:TrackPointExtension>
            <ns3:atemp>22.0</ns3:atemp>
          </ns3:TrackPointExtension>
        </extensions>
      </trkpt>
      <trkpt lat="42.56000292487442493438720703125" lon="20.10400883853435516357421875">
        <ele>1920.5999755859375</ele>
        <time>2026-06-19T13:05:00.000Z</time>
        <extensions>
          <ns3:TrackPointExtension>
            <ns3:atemp>22.0</ns3:atemp>
          </ns3:TrackPointExtension>
        </extensions>
      </trkpt>
      <trkpt lat="42.56000292487442493438720703125" lon="20.10400883853435516357421875">
        <ele>1920.5999755859375</ele>
        <time>2026-06-19T13:05:01.000Z</time>
        <extensions>
          <ns3:TrackPointExtension>
            <ns3:atemp>22.0</ns3:atemp>
          </ns3:TrackPointExtension>
        </extensions>
      </trkpt>
      <trkpt lat="42.56000292487442493438720703125" lon="20.10400883853435516357421875">
        <ele>1920.5999755859375</ele>
        <time>2026-06-19T13:05:02.000Z</time>
        <extensions>
          <ns3:TrackPointExtension>
            <ns3:atemp>22.0</ns3:atemp>
          </ns3:TrackPointExtension>
        </extensions>
      </trkpt>
      <trkpt lat="42.56000292487442493438720703125" lon="20.10400883853435516357421875">
        <ele>1920.5999755859375</ele>
        <time>2026-06-19T13:05:03.000Z</time>
        <extensions>
          <ns3:TrackPointExtension>
            <ns3:atemp>22.0</ns3:atemp>
          </ns3:TrackPointExtension>
        </extensions>
      </trkpt>
      <trkpt lat="42.56000292487442493438720703125" lon="20.10400883853435516357421875">
        <ele>1920.5999755859375</ele>
        <time>2026-06-19T13:05:04.000Z</time>
        <extensions>
          <ns3:TrackPointExtension>
            <ns3:atemp>22.0</ns3:atemp>
          </ns3:TrackPointExtension>
        </extensions>
      </trkpt>
      <trkpt lat="42.56000292487442493438720703125" lon="20.10400883853435516357421875">
        <ele>1920.5999755859375</ele>
        <time>2026-06-19T13:05:05.000Z</time>
        <extensions>
          <ns3:TrackPointExtension>
            <ns3:atemp>22.0</ns3:atemp>
          </ns3:TrackPointExtension>
        </extensions>
      </trkpt>
      <trkpt lat="42.56000292487442493438720703125" lon="20.10400883853435516357421875">
        <ele>1920.5999755859375</ele>
        <time>2026-06-19T13:05:06.000Z</time>
        <extensions>
          <ns3:TrackPointExtension>
            <ns3:atemp>22.0</ns3:atemp>
          </ns3:TrackPointExtension>
        </extensions>
      </trkpt>
      <trkpt lat="42.56000292487442493438720703125" lon="20.10400883853435516357421875">
        <ele>1920.4000244140625</ele>
        <time>2026-06-19T13:05:07.000Z</time>
        <extensions>
          <ns3:TrackPointExtension>
            <ns3:atemp>22.0</ns3:atemp>
          </ns3:TrackPointExtension>
        </extensions>
      </trkpt>
      <trkpt lat="42.56000292487442493438720703125" lon="20.10400883853435516357421875">
        <ele>1920.4000244140625</ele>
        <time>2026-06-19T13:05:08.000Z</time>
        <extensions>
          <ns3:TrackPointExtension>
            <ns3:atemp>22.0</ns3:atemp>
          </ns3:TrackPointExtension>
        </extensions>
      </trkpt>
      <trkpt lat="42.56000292487442493438720703125" lon="20.10400883853435516357421875">
        <ele>1920.4000244140625</ele>
        <time>2026-06-19T13:05:09.000Z</time>
        <extensions>
          <ns3:TrackPointExtension>
            <ns3:atemp>22.0</ns3:atemp>
          </ns3:TrackPointExtension>
        </extensions>
      </trkpt>
      <trkpt lat="42.56000292487442493438720703125" lon="20.10400883853435516357421875">
        <ele>1920.4000244140625</ele>
        <time>2026-06-19T13:05:10.000Z</time>
        <extensions>
          <ns3:TrackPointExtension>
            <ns3:atemp>22.0</ns3:atemp>
          </ns3:TrackPointExtension>
        </extensions>
      </trkpt>
      <trkpt lat="42.56000292487442493438720703125" lon="20.10400883853435516357421875">
        <ele>1920.4000244140625</ele>
        <time>2026-06-19T13:05:11.000Z</time>
        <extensions>
          <ns3:TrackPointExtension>
            <ns3:atemp>22.0</ns3:atemp>
          </ns3:TrackPointExtension>
        </extensions>
      </trkpt>
      <trkpt lat="42.5600030086934566497802734375" lon="20.1040043123066425323486328125">
        <ele>1920.4000244140625</ele>
        <time>2026-06-19T13:05:12.000Z</time>
        <extensions>
          <ns3:TrackPointExtension>
            <ns3:atemp>22.0</ns3:atemp>
          </ns3:TrackPointExtension>
        </extensions>
      </trkpt>
      <trkpt lat="42.56000326015055179595947265625" lon="20.10401956737041473388671875">
        <ele>1920.4000244140625</ele>
        <time>2026-06-19T13:05:13.000Z</time>
        <extensions>
          <ns3:TrackPointExtension>
            <ns3:atemp>22.0</ns3:atemp>
          </ns3:TrackPointExtension>
        </extensions>
      </trkpt>
      <trkpt lat="42.560010217130184173583984375" lon="20.10404236614704132080078125">
        <ele>1920.199951171875</ele>
        <time>2026-06-19T13:05:14.000Z</time>
        <extensions>
          <ns3:TrackPointExtension>
            <ns3:atemp>22.0</ns3:atemp>
          </ns3:TrackPointExtension>
        </extensions>
      </trkpt>
      <trkpt lat="42.56001130677759647369384765625" lon="20.1040626503527164459228515625">
        <ele>1920</ele>
        <time>2026-06-19T13:05:15.000Z</time>
        <extensions>
          <ns3:TrackPointExtension>
            <ns3:atemp>22.0</ns3:atemp>
          </ns3:TrackPointExtension>
        </extensions>
      </trkpt>
      <trkpt lat="42.56001566536724567413330078125" lon="20.104095004498958587646484375">
        <ele>1919.800048828125</ele>
        <time>2026-06-19T13:05:16.000Z</time>
        <extensions>
          <ns3:TrackPointExtension>
            <ns3:atemp>22.0</ns3:atemp>
          </ns3:TrackPointExtension>
        </extensions>
      </trkpt>
      <trkpt lat="42.560026645660400390625" lon="20.10411956347525119781494140625">
        <ele>1919.4000244140625</ele>
        <time>2026-06-19T13:05:17.000Z</time>
        <extensions>
          <ns3:TrackPointExtension>
            <ns3:atemp>22.0</ns3:atemp>
          </ns3:TrackPointExtension>
        </extensions>
      </trkpt>
      <trkpt lat="42.56003578193485736846923828125" lon="20.1041230000555515289306640625">
        <ele>1919</ele>
        <time>2026-06-19T13:05:18.000Z</time>
        <extensions>
          <ns3:TrackPointExtension>
            <ns3:atemp>22.0</ns3:atemp>
          </ns3:TrackPointExtension>
        </extensions>
      </trkpt>
      <trkpt lat="42.56003879941999912261962890625" lon="20.10412224568426609039306640625">
        <ele>1918.5999755859375</ele>
        <time>2026-06-19T13:05:19.000Z</time>
        <extensions>
          <ns3:TrackPointExtension>
            <ns3:atemp>22.0</ns3:atemp>
          </ns3:TrackPointExtension>
        </extensions>
      </trkpt>
      <trkpt lat="42.5600388832390308380126953125" lon="20.10412224568426609039306640625">
        <ele>1918.199951171875</ele>
        <time>2026-06-19T13:05:20.000Z</time>
        <extensions>
          <ns3:TrackPointExtension>
            <ns3:atemp>22.0</ns3:atemp>
          </ns3:TrackPointExtension>
        </extensions>
      </trkpt>
      <trkpt lat="42.56003896705806255340576171875" lon="20.10412241332232952117919921875">
        <ele>1918</ele>
        <time>2026-06-19T13:05:21.000Z</time>
        <extensions>
          <ns3:TrackPointExtension>
            <ns3:atemp>22.0</ns3:atemp>
          </ns3:TrackPointExtension>
        </extensions>
      </trkpt>
      <trkpt lat="42.5600388832390308380126953125" lon="20.10412224568426609039306640625">
        <ele>1917.800048828125</ele>
        <time>2026-06-19T13:05:22.000Z</time>
        <extensions>
          <ns3:TrackPointExtension>
            <ns3:atemp>22.0</ns3:atemp>
          </ns3:TrackPointExtension>
        </extensions>
      </trkpt>
      <trkpt lat="42.5600388832390308380126953125" lon="20.10412224568426609039306640625">
        <ele>1917.5999755859375</ele>
        <time>2026-06-19T13:05:23.000Z</time>
        <extensions>
          <ns3:TrackPointExtension>
            <ns3:atemp>22.0</ns3:atemp>
          </ns3:TrackPointExtension>
        </extensions>
      </trkpt>
      <trkpt lat="42.56004332564771175384521484375" lon="20.10413129813969135284423828125">
        <ele>1917.4000244140625</ele>
        <time>2026-06-19T13:05:24.000Z</time>
        <extensions>
          <ns3:TrackPointExtension>
            <ns3:atemp>22.0</ns3:atemp>
          </ns3:TrackPointExtension>
        </extensions>
      </trkpt>
      <trkpt lat="42.560045756399631500244140625" lon="20.10414588265120983123779296875">
        <ele>1917.199951171875</ele>
        <time>2026-06-19T13:05:25.000Z</time>
        <extensions>
          <ns3:TrackPointExtension>
            <ns3:atemp>22.0</ns3:atemp>
          </ns3:TrackPointExtension>
        </extensions>
      </trkpt>
      <trkpt lat="42.5600442476570606231689453125" lon="20.1041625626385211944580078125">
        <ele>1917</ele>
        <time>2026-06-19T13:05:26.000Z</time>
        <extensions>
          <ns3:TrackPointExtension>
            <ns3:atemp>22.0</ns3:atemp>
          </ns3:TrackPointExtension>
        </extensions>
      </trkpt>
      <trkpt lat="42.56004148162901401519775390625" lon="20.10418678633868694305419921875">
        <ele>1916.800048828125</ele>
        <time>2026-06-19T13:05:27.000Z</time>
        <extensions>
          <ns3:TrackPointExtension>
            <ns3:atemp>22.0</ns3:atemp>
          </ns3:TrackPointExtension>
        </extensions>
      </trkpt>
      <trkpt lat="42.5600512884557247161865234375" lon="20.104204975068569183349609375">
        <ele>1916.4000244140625</ele>
        <time>2026-06-19T13:05:28.000Z</time>
        <extensions>
          <ns3:TrackPointExtension>
            <ns3:atemp>22.0</ns3:atemp>
          </ns3:TrackPointExtension>
        </extensions>
      </trkpt>
      <trkpt lat="42.56005589850246906280517578125" lon="20.10422903113067150115966796875">
        <ele>1916.199951171875</ele>
        <time>2026-06-19T13:05:29.000Z</time>
        <extensions>
          <ns3:TrackPointExtension>
            <ns3:atemp>22.0</ns3:atemp>
          </ns3:TrackPointExtension>
        </extensions>
      </trkpt>
      <trkpt lat="42.5600529648363590240478515625" lon="20.1042561046779155731201171875">
        <ele>1915.5999755859375</ele>
        <time>2026-06-19T13:05:30.000Z</time>
        <extensions>
          <ns3:TrackPointExtension>
            <ns3:atemp>22.0</ns3:atemp>
          </ns3:TrackPointExtension>
        </extensions>
      </trkpt>
      <trkpt lat="42.56005405448377132415771484375" lon="20.10427177883684635162353515625">
        <ele>1915</ele>
        <time>2026-06-19T13:05:31.000Z</time>
        <extensions>
          <ns3:TrackPointExtension>
            <ns3:atemp>22.0</ns3:atemp>
          </ns3:TrackPointExtension>
        </extensions>
      </trkpt>
      <trkpt lat="42.56005656905472278594970703125" lon="20.10428451932966709136962890625">
        <ele>1914.5999755859375</ele>
        <time>2026-06-19T13:05:32.000Z</time>
        <extensions>
          <ns3:TrackPointExtension>
            <ns3:atemp>22.0</ns3:atemp>
          </ns3:TrackPointExtension>
        </extensions>
      </trkpt>
      <trkpt lat="42.56006126292049884796142578125" lon="20.10430547408759593963623046875">
        <ele>1914.4000244140625</ele>
        <time>2026-06-19T13:05:33.000Z</time>
        <extensions>
          <ns3:TrackPointExtension>
            <ns3:atemp>22.0</ns3:atemp>
          </ns3:TrackPointExtension>
        </extensions>
      </trkpt>
      <trkpt lat="42.56006486713886260986328125" lon="20.104304216802120208740234375">
        <ele>1914</ele>
        <time>2026-06-19T13:05:34.000Z</time>
        <extensions>
          <ns3:TrackPointExtension>
            <ns3:atemp>22.0</ns3:atemp>
          </ns3:TrackPointExtension>
        </extensions>
      </trkpt>
      <trkpt lat="42.56006495095789432525634765625" lon="20.1043045520782470703125">
        <ele>1913.5999755859375</ele>
        <time>2026-06-19T13:05:35.000Z</time>
        <extensions>
          <ns3:TrackPointExtension>
            <ns3:atemp>22.0</ns3:atemp>
          </ns3:TrackPointExtension>
        </extensions>
      </trkpt>
      <trkpt lat="42.56006495095789432525634765625" lon="20.1043045520782470703125">
        <ele>1913.4000244140625</ele>
        <time>2026-06-19T13:05:36.000Z</time>
        <extensions>
          <ns3:TrackPointExtension>
            <ns3:atemp>22.0</ns3:atemp>
          </ns3:TrackPointExtension>
        </extensions>
      </trkpt>
      <trkpt lat="42.56006495095789432525634765625" lon="20.1043045520782470703125">
        <ele>1913.199951171875</ele>
        <time>2026-06-19T13:05:37.000Z</time>
        <extensions>
          <ns3:TrackPointExtension>
            <ns3:atemp>22.0</ns3:atemp>
          </ns3:TrackPointExtension>
        </extensions>
      </trkpt>
      <trkpt lat="42.56006495095789432525634765625" lon="20.1043045520782470703125">
        <ele>1913</ele>
        <time>2026-06-19T13:05:38.000Z</time>
        <extensions>
          <ns3:TrackPointExtension>
            <ns3:atemp>22.0</ns3:atemp>
          </ns3:TrackPointExtension>
        </extensions>
      </trkpt>
      <trkpt lat="42.56006495095789432525634765625" lon="20.1043045520782470703125">
        <ele>1913</ele>
        <time>2026-06-19T13:05:39.000Z</time>
        <extensions>
          <ns3:TrackPointExtension>
            <ns3:atemp>22.0</ns3:atemp>
          </ns3:TrackPointExtension>
        </extensions>
      </trkpt>
      <trkpt lat="42.56006495095789432525634765625" lon="20.1043045520782470703125">
        <ele>1913</ele>
        <time>2026-06-19T13:05:40.000Z</time>
        <extensions>
          <ns3:TrackPointExtension>
            <ns3:atemp>22.0</ns3:atemp>
          </ns3:TrackPointExtension>
        </extensions>
      </trkpt>
      <trkpt lat="42.56006495095789432525634765625" lon="20.1043045520782470703125">
        <ele>1912.800048828125</ele>
        <time>2026-06-19T13:05:41.000Z</time>
        <extensions>
          <ns3:TrackPointExtension>
            <ns3:atemp>22.0</ns3:atemp>
          </ns3:TrackPointExtension>
        </extensions>
      </trkpt>
      <trkpt lat="42.56006495095789432525634765625" lon="20.1043045520782470703125">
        <ele>1912.800048828125</ele>
        <time>2026-06-19T13:05:42.000Z</time>
        <extensions>
          <ns3:TrackPointExtension>
            <ns3:atemp>21.0</ns3:atemp>
          </ns3:TrackPointExtension>
        </extensions>
      </trkpt>
      <trkpt lat="42.56006629206240177154541015625" lon="20.1043047197163105010986328125">
        <ele>1912.800048828125</ele>
        <time>2026-06-19T13:05:43.000Z</time>
        <extensions>
          <ns3:TrackPointExtension>
            <ns3:atemp>21.0</ns3:atemp>
          </ns3:TrackPointExtension>
        </extensions>
      </trkpt>
      <trkpt lat="42.56007651798427104949951171875" lon="20.10432676412165164947509765625">
        <ele>1912.800048828125</ele>
        <time>2026-06-19T13:05:44.000Z</time>
        <extensions>
          <ns3:TrackPointExtension>
            <ns3:atemp>21.0</ns3:atemp>
          </ns3:TrackPointExtension>
        </extensions>
      </trkpt>
      <trkpt lat="42.56007450632750988006591796875" lon="20.10433615185320377349853515625">
        <ele>1912.5999755859375</ele>
        <time>2026-06-19T13:05:45.000Z</time>
        <extensions>
          <ns3:TrackPointExtension>
            <ns3:atemp>21.0</ns3:atemp>
          </ns3:TrackPointExtension>
        </extensions>
      </trkpt>
      <trkpt lat="42.56007517687976360321044921875" lon="20.10434570722281932830810546875">
        <ele>1912.5999755859375</ele>
        <time>2026-06-19T13:05:46.000Z</time>
        <extensions>
          <ns3:TrackPointExtension>
            <ns3:atemp>21.0</ns3:atemp>
          </ns3:TrackPointExtension>
        </extensions>
      </trkpt>
      <trkpt lat="42.560066543519496917724609375" lon="20.104358196258544921875">
        <ele>1912.4000244140625</ele>
        <time>2026-06-19T13:05:47.000Z</time>
        <extensions>
          <ns3:TrackPointExtension>
            <ns3:atemp>21.0</ns3:atemp>
          </ns3:TrackPointExtension>
        </extensions>
      </trkpt>
      <trkpt lat="42.56005589850246906280517578125" lon="20.10436716489493846893310546875">
        <ele>1912.199951171875</ele>
        <time>2026-06-19T13:05:48.000Z</time>
        <extensions>
          <ns3:TrackPointExtension>
            <ns3:atemp>21.0</ns3:atemp>
          </ns3:TrackPointExtension>
        </extensions>
      </trkpt>
      <trkpt lat="42.56004919297993183135986328125" lon="20.10436682961881160736083984375">
        <ele>1911.800048828125</ele>
        <time>2026-06-19T13:05:49.000Z</time>
        <extensions>
          <ns3:TrackPointExtension>
            <ns3:atemp>21.0</ns3:atemp>
          </ns3:TrackPointExtension>
        </extensions>
      </trkpt>
      <trkpt lat="42.56004215218126773834228515625" lon="20.10435618460178375244140625">
        <ele>1911.5999755859375</ele>
        <time>2026-06-19T13:05:50.000Z</time>
        <extensions>
          <ns3:TrackPointExtension>
            <ns3:atemp>21.0</ns3:atemp>
          </ns3:TrackPointExtension>
        </extensions>
      </trkpt>
      <trkpt lat="42.56004030816256999969482421875" lon="20.10434017516672611236572265625">
        <ele>1911.4000244140625</ele>
        <time>2026-06-19T13:05:51.000Z</time>
        <extensions>
          <ns3:TrackPointExtension>
            <ns3:atemp>21.0</ns3:atemp>
          </ns3:TrackPointExtension>
        </extensions>
      </trkpt>
      <trkpt lat="42.56003494374454021453857421875" lon="20.10433204472064971923828125">
        <ele>1911.199951171875</ele>
        <time>2026-06-19T13:05:52.000Z</time>
        <extensions>
          <ns3:TrackPointExtension>
            <ns3:atemp>21.0</ns3:atemp>
          </ns3:TrackPointExtension>
        </extensions>
      </trkpt>
      <trkpt lat="42.56002287380397319793701171875" lon="20.104328356683254241943359375">
        <ele>1910.800048828125</ele>
        <time>2026-06-19T13:05:53.000Z</time>
        <extensions>
          <ns3:TrackPointExtension>
            <ns3:atemp>21.0</ns3:atemp>
          </ns3:TrackPointExtension>
        </extensions>
      </trkpt>
      <trkpt lat="42.56000912748277187347412109375" lon="20.1043295301496982574462890625">
        <ele>1910.4000244140625</ele>
        <time>2026-06-19T13:05:54.000Z</time>
        <extensions>
          <ns3:TrackPointExtension>
            <ns3:atemp>21.0</ns3:atemp>
          </ns3:TrackPointExtension>
        </extensions>
      </trkpt>
      <trkpt lat="42.55999781191349029541015625" lon="20.10433346964418888092041015625">
        <ele>1910</ele>
        <time>2026-06-19T13:05:55.000Z</time>
        <extensions>
          <ns3:TrackPointExtension>
            <ns3:atemp>21.0</ns3:atemp>
          </ns3:TrackPointExtension>
        </extensions>
      </trkpt>
      <trkpt lat="42.55999269895255565643310546875" lon="20.10434302501380443572998046875">
        <ele>1909.800048828125</ele>
        <time>2026-06-19T13:05:56.000Z</time>
        <extensions>
          <ns3:TrackPointExtension>
            <ns3:atemp>21.0</ns3:atemp>
          </ns3:TrackPointExtension>
        </extensions>
      </trkpt>
      <trkpt lat="42.5599916093051433563232421875" lon="20.10434654541313648223876953125">
        <ele>1909.4000244140625</ele>
        <time>2026-06-19T13:05:57.000Z</time>
        <extensions>
          <ns3:TrackPointExtension>
            <ns3:atemp>21.0</ns3:atemp>
          </ns3:TrackPointExtension>
        </extensions>
      </trkpt>
      <trkpt lat="42.55999186076223850250244140625" lon="20.1043466292321681976318359375">
        <ele>1909</ele>
        <time>2026-06-19T13:05:58.000Z</time>
        <extensions>
          <ns3:TrackPointExtension>
            <ns3:atemp>21.0</ns3:atemp>
          </ns3:TrackPointExtension>
        </extensions>
      </trkpt>
      <trkpt lat="42.5599902682006359100341796875" lon="20.104358196258544921875">
        <ele>1908.800048828125</ele>
        <time>2026-06-19T13:05:59.000Z</time>
        <extensions>
          <ns3:TrackPointExtension>
            <ns3:atemp>21.0</ns3:atemp>
          </ns3:TrackPointExtension>
        </extensions>
      </trkpt>
      <trkpt lat="42.55998180247843265533447265625" lon="20.1043643988668918609619140625">
        <ele>1908.5999755859375</ele>
        <time>2026-06-19T13:06:00.000Z</time>
        <extensions>
          <ns3:TrackPointExtension>
            <ns3:atemp>21.0</ns3:atemp>
          </ns3:TrackPointExtension>
        </extensions>
      </trkpt>
      <trkpt lat="42.5599704869091510772705078125" lon="20.104366242885589599609375">
        <ele>1908.4000244140625</ele>
        <time>2026-06-19T13:06:01.000Z</time>
        <extensions>
          <ns3:TrackPointExtension>
            <ns3:atemp>21.0</ns3:atemp>
          </ns3:TrackPointExtension>
        </extensions>
      </trkpt>
      <trkpt lat="42.55996084772050380706787109375" lon="20.104362554848194122314453125">
        <ele>1908</ele>
        <time>2026-06-19T13:06:02.000Z</time>
        <extensions>
          <ns3:TrackPointExtension>
            <ns3:atemp>21.0</ns3:atemp>
          </ns3:TrackPointExtension>
        </extensions>
      </trkpt>
      <trkpt lat="42.55993612110614776611328125" lon="20.1043707691133022308349609375">
        <ele>1907.5999755859375</ele>
        <time>2026-06-19T13:06:03.000Z</time>
        <extensions>
          <ns3:TrackPointExtension>
            <ns3:atemp>21.0</ns3:atemp>
          </ns3:TrackPointExtension>
        </extensions>
      </trkpt>
      <trkpt lat="42.55992011167109012603759765625" lon="20.10436867363750934600830078125">
        <ele>1907</ele>
        <time>2026-06-19T13:06:04.000Z</time>
        <extensions>
          <ns3:TrackPointExtension>
            <ns3:atemp>21.0</ns3:atemp>
          </ns3:TrackPointExtension>
        </extensions>
      </trkpt>
      <trkpt lat="42.55990334786474704742431640625" lon="20.1043694280087947845458984375">
        <ele>1906.800048828125</ele>
        <time>2026-06-19T13:06:05.000Z</time>
        <extensions>
          <ns3:TrackPointExtension>
            <ns3:atemp>21.0</ns3:atemp>
          </ns3:TrackPointExtension>
        </extensions>
      </trkpt>
      <trkpt lat="42.5598826445639133453369140625" lon="20.1043700985610485076904296875">
        <ele>1906.4000244140625</ele>
        <time>2026-06-19T13:06:06.000Z</time>
        <extensions>
          <ns3:TrackPointExtension>
            <ns3:atemp>21.0</ns3:atemp>
          </ns3:TrackPointExtension>
        </extensions>
      </trkpt>
      <trkpt lat="42.5598625279963016510009765625" lon="20.10436884127557277679443359375">
        <ele>1906.199951171875</ele>
        <time>2026-06-19T13:06:07.000Z</time>
        <extensions>
          <ns3:TrackPointExtension>
            <ns3:atemp>21.0</ns3:atemp>
          </ns3:TrackPointExtension>
        </extensions>
      </trkpt>
      <trkpt lat="42.55984065122902393341064453125" lon="20.10436582379043102264404296875">
        <ele>1906</ele>
        <time>2026-06-19T13:06:08.000Z</time>
        <extensions>
          <ns3:TrackPointExtension>
            <ns3:atemp>21.0</ns3:atemp>
          </ns3:TrackPointExtension>
        </extensions>
      </trkpt>
      <trkpt lat="42.55981802009046077728271484375" lon="20.10436096228659152984619140625">
        <ele>1905.800048828125</ele>
        <time>2026-06-19T13:06:09.000Z</time>
        <extensions>
          <ns3:TrackPointExtension>
            <ns3:atemp>21.0</ns3:atemp>
          </ns3:TrackPointExtension>
        </extensions>
      </trkpt>
      <trkpt lat="42.55979723297059535980224609375" lon="20.1043560169637203216552734375">
        <ele>1905.5999755859375</ele>
        <time>2026-06-19T13:06:10.000Z</time>
        <extensions>
          <ns3:TrackPointExtension>
            <ns3:atemp>21.0</ns3:atemp>
          </ns3:TrackPointExtension>
        </extensions>
      </trkpt>
      <trkpt lat="42.5597740150988101959228515625" lon="20.10435727424919605255126953125">
        <ele>1905.4000244140625</ele>
        <time>2026-06-19T13:06:11.000Z</time>
        <extensions>
          <ns3:TrackPointExtension>
            <ns3:atemp>21.0</ns3:atemp>
          </ns3:TrackPointExtension>
        </extensions>
      </trkpt>
      <trkpt lat="42.559750713407993316650390625" lon="20.104372613131999969482421875">
        <ele>1905.4000244140625</ele>
        <time>2026-06-19T13:06:12.000Z</time>
        <extensions>
          <ns3:TrackPointExtension>
            <ns3:atemp>21.0</ns3:atemp>
          </ns3:TrackPointExtension>
        </extensions>
      </trkpt>
      <trkpt lat="42.55971743725240230560302734375" lon="20.10439231060445308685302734375">
        <ele>1905</ele>
        <time>2026-06-19T13:06:13.000Z</time>
        <extensions>
          <ns3:TrackPointExtension>
            <ns3:atemp>21.0</ns3:atemp>
          </ns3:TrackPointExtension>
        </extensions>
      </trkpt>
      <trkpt lat="42.55968675948679447174072265625" lon="20.10441075079143047332763671875">
        <ele>1904.800048828125</ele>
        <time>2026-06-19T13:06:14.000Z</time>
        <extensions>
          <ns3:TrackPointExtension>
            <ns3:atemp>21.0</ns3:atemp>
          </ns3:TrackPointExtension>
        </extensions>
      </trkpt>
      <trkpt lat="42.55965725518763065338134765625" lon="20.10442382656037807464599609375">
        <ele>1904.4000244140625</ele>
        <time>2026-06-19T13:06:15.000Z</time>
        <extensions>
          <ns3:TrackPointExtension>
            <ns3:atemp>21.0</ns3:atemp>
          </ns3:TrackPointExtension>
        </extensions>
      </trkpt>
      <trkpt lat="42.5596264936029911041259765625" lon="20.10443639941513538360595703125">
        <ele>1904.199951171875</ele>
        <time>2026-06-19T13:06:16.000Z</time>
        <extensions>
          <ns3:TrackPointExtension>
            <ns3:atemp>21.0</ns3:atemp>
          </ns3:TrackPointExtension>
        </extensions>
      </trkpt>
      <trkpt lat="42.559597827494144439697265625" lon="20.10444494895637035369873046875">
        <ele>1903.800048828125</ele>
        <time>2026-06-19T13:06:17.000Z</time>
        <extensions>
          <ns3:TrackPointExtension>
            <ns3:atemp>21.0</ns3:atemp>
          </ns3:TrackPointExtension>
        </extensions>
      </trkpt>
      <trkpt lat="42.55958617664873600006103515625" lon="20.10444696061313152313232421875">
        <ele>1903.800048828125</ele>
        <time>2026-06-19T13:06:18.000Z</time>
        <extensions>
          <ns3:TrackPointExtension>
            <ns3:atemp>21.0</ns3:atemp>
          </ns3:TrackPointExtension>
        </extensions>
      </trkpt>
      <trkpt lat="42.55958315916359424591064453125" lon="20.104445703327655792236328125">
        <ele>1903.800048828125</ele>
        <time>2026-06-19T13:06:19.000Z</time>
        <extensions>
          <ns3:TrackPointExtension>
            <ns3:atemp>21.0</ns3:atemp>
          </ns3:TrackPointExtension>
        </extensions>
      </trkpt>
      <trkpt lat="42.55958315916359424591064453125" lon="20.104445703327655792236328125">
        <ele>1903.800048828125</ele>
        <time>2026-06-19T13:06:20.000Z</time>
        <extensions>
          <ns3:TrackPointExtension>
            <ns3:atemp>21.0</ns3:atemp>
          </ns3:TrackPointExtension>
        </extensions>
      </trkpt>
      <trkpt lat="42.55958315916359424591064453125" lon="20.104445703327655792236328125">
        <ele>1903.800048828125</ele>
        <time>2026-06-19T13:06:21.000Z</time>
        <extensions>
          <ns3:TrackPointExtension>
            <ns3:atemp>21.0</ns3:atemp>
          </ns3:TrackPointExtension>
        </extensions>
      </trkpt>
      <trkpt lat="42.55958315916359424591064453125" lon="20.104445703327655792236328125">
        <ele>1903.800048828125</ele>
        <time>2026-06-19T13:06:22.000Z</time>
        <extensions>
          <ns3:TrackPointExtension>
            <ns3:atemp>21.0</ns3:atemp>
          </ns3:TrackPointExtension>
        </extensions>
      </trkpt>
      <trkpt lat="42.55958315916359424591064453125" lon="20.104445703327655792236328125">
        <ele>1903.800048828125</ele>
        <time>2026-06-19T13:06:23.000Z</time>
        <extensions>
          <ns3:TrackPointExtension>
            <ns3:atemp>21.0</ns3:atemp>
          </ns3:TrackPointExtension>
        </extensions>
      </trkpt>
      <trkpt lat="42.55958315916359424591064453125" lon="20.104445703327655792236328125">
        <ele>1903.800048828125</ele>
        <time>2026-06-19T13:06:24.000Z</time>
        <extensions>
          <ns3:TrackPointExtension>
            <ns3:atemp>21.0</ns3:atemp>
          </ns3:TrackPointExtension>
        </extensions>
      </trkpt>
      <trkpt lat="42.55958315916359424591064453125" lon="20.104445703327655792236328125">
        <ele>1903.5999755859375</ele>
        <time>2026-06-19T13:06:25.000Z</time>
        <extensions>
          <ns3:TrackPointExtension>
            <ns3:atemp>21.0</ns3:atemp>
          </ns3:TrackPointExtension>
        </extensions>
      </trkpt>
      <trkpt lat="42.55958315916359424591064453125" lon="20.104445703327655792236328125">
        <ele>1903.4000244140625</ele>
        <time>2026-06-19T13:06:26.000Z</time>
        <extensions>
          <ns3:TrackPointExtension>
            <ns3:atemp>21.0</ns3:atemp>
          </ns3:TrackPointExtension>
        </extensions>
      </trkpt>
      <trkpt lat="42.55958315916359424591064453125" lon="20.104445703327655792236328125">
        <ele>1903.4000244140625</ele>
        <time>2026-06-19T13:06:27.000Z</time>
        <extensions>
          <ns3:TrackPointExtension>
            <ns3:atemp>21.0</ns3:atemp>
          </ns3:TrackPointExtension>
        </extensions>
      </trkpt>
      <trkpt lat="42.55958315916359424591064453125" lon="20.104445703327655792236328125">
        <ele>1903.199951171875</ele>
        <time>2026-06-19T13:06:28.000Z</time>
        <extensions>
          <ns3:TrackPointExtension>
            <ns3:atemp>21.0</ns3:atemp>
          </ns3:TrackPointExtension>
        </extensions>
      </trkpt>
      <trkpt lat="42.55958315916359424591064453125" lon="20.104445703327655792236328125">
        <ele>1903.199951171875</ele>
        <time>2026-06-19T13:06:29.000Z</time>
        <extensions>
          <ns3:TrackPointExtension>
            <ns3:atemp>21.0</ns3:atemp>
          </ns3:TrackPointExtension>
        </extensions>
      </trkpt>
      <trkpt lat="42.55958315916359424591064453125" lon="20.104445703327655792236328125">
        <ele>1903.199951171875</ele>
        <time>2026-06-19T13:06:30.000Z</time>
        <extensions>
          <ns3:TrackPointExtension>
            <ns3:atemp>21.0</ns3:atemp>
          </ns3:TrackPointExtension>
        </extensions>
      </trkpt>
      <trkpt lat="42.55958315916359424591064453125" lon="20.104445703327655792236328125">
        <ele>1903.199951171875</ele>
        <time>2026-06-19T13:06:31.000Z</time>
        <extensions>
          <ns3:TrackPointExtension>
            <ns3:atemp>21.0</ns3:atemp>
          </ns3:TrackPointExtension>
        </extensions>
      </trkpt>
      <trkpt lat="42.55958315916359424591064453125" lon="20.104445703327655792236328125">
        <ele>1903.199951171875</ele>
        <time>2026-06-19T13:06:32.000Z</time>
        <extensions>
          <ns3:TrackPointExtension>
            <ns3:atemp>21.0</ns3:atemp>
          </ns3:TrackPointExtension>
        </extensions>
      </trkpt>
      <trkpt lat="42.55958315916359424591064453125" lon="20.104445703327655792236328125">
        <ele>1903</ele>
        <time>2026-06-19T13:06:33.000Z</time>
        <extensions>
          <ns3:TrackPointExtension>
            <ns3:atemp>21.0</ns3:atemp>
          </ns3:TrackPointExtension>
        </extensions>
      </trkpt>
      <trkpt lat="42.55958315916359424591064453125" lon="20.104445703327655792236328125">
        <ele>1903</ele>
        <time>2026-06-19T13:06:34.000Z</time>
        <extensions>
          <ns3:TrackPointExtension>
            <ns3:atemp>21.0</ns3:atemp>
          </ns3:TrackPointExtension>
        </extensions>
      </trkpt>
      <trkpt lat="42.55958315916359424591064453125" lon="20.104445703327655792236328125">
        <ele>1903</ele>
        <time>2026-06-19T13:06:35.000Z</time>
        <extensions>
          <ns3:TrackPointExtension>
            <ns3:atemp>21.0</ns3:atemp>
          </ns3:TrackPointExtension>
        </extensions>
      </trkpt>
      <trkpt lat="42.55958315916359424591064453125" lon="20.104445703327655792236328125">
        <ele>1903</ele>
        <time>2026-06-19T13:06:36.000Z</time>
        <extensions>
          <ns3:TrackPointExtension>
            <ns3:atemp>21.0</ns3:atemp>
          </ns3:TrackPointExtension>
        </extensions>
      </trkpt>
      <trkpt lat="42.55958315916359424591064453125" lon="20.104445703327655792236328125">
        <ele>1903</ele>
        <time>2026-06-19T13:06:37.000Z</time>
        <extensions>
          <ns3:TrackPointExtension>
            <ns3:atemp>21.0</ns3:atemp>
          </ns3:TrackPointExtension>
        </extensions>
      </trkpt>
      <trkpt lat="42.55958315916359424591064453125" lon="20.104445703327655792236328125">
        <ele>1903</ele>
        <time>2026-06-19T13:06:38.000Z</time>
        <extensions>
          <ns3:TrackPointExtension>
            <ns3:atemp>21.0</ns3:atemp>
          </ns3:TrackPointExtension>
        </extensions>
      </trkpt>
      <trkpt lat="42.55958315916359424591064453125" lon="20.104445703327655792236328125">
        <ele>1903</ele>
        <time>2026-06-19T13:06:39.000Z</time>
        <extensions>
          <ns3:TrackPointExtension>
            <ns3:atemp>21.0</ns3:atemp>
          </ns3:TrackPointExtension>
        </extensions>
      </trkpt>
      <trkpt lat="42.55958315916359424591064453125" lon="20.104445703327655792236328125">
        <ele>1903</ele>
        <time>2026-06-19T13:06:40.000Z</time>
        <extensions>
          <ns3:TrackPointExtension>
            <ns3:atemp>21.0</ns3:atemp>
          </ns3:TrackPointExtension>
        </extensions>
      </trkpt>
      <trkpt lat="42.55958315916359424591064453125" lon="20.104445703327655792236328125">
        <ele>1902.800048828125</ele>
        <time>2026-06-19T13:06:41.000Z</time>
        <extensions>
          <ns3:TrackPointExtension>
            <ns3:atemp>21.0</ns3:atemp>
          </ns3:TrackPointExtension>
        </extensions>
      </trkpt>
      <trkpt lat="42.55958315916359424591064453125" lon="20.104445703327655792236328125">
        <ele>1902.800048828125</ele>
        <time>2026-06-19T13:06:42.000Z</time>
        <extensions>
          <ns3:TrackPointExtension>
            <ns3:atemp>21.0</ns3:atemp>
          </ns3:TrackPointExtension>
        </extensions>
      </trkpt>
      <trkpt lat="42.55958315916359424591064453125" lon="20.104445703327655792236328125">
        <ele>1902.800048828125</ele>
        <time>2026-06-19T13:06:43.000Z</time>
        <extensions>
          <ns3:TrackPointExtension>
            <ns3:atemp>21.0</ns3:atemp>
          </ns3:TrackPointExtension>
        </extensions>
      </trkpt>
      <trkpt lat="42.55958315916359424591064453125" lon="20.104445703327655792236328125">
        <ele>1902.800048828125</ele>
        <time>2026-06-19T13:06:44.000Z</time>
        <extensions>
          <ns3:TrackPointExtension>
            <ns3:atemp>21.0</ns3:atemp>
          </ns3:TrackPointExtension>
        </extensions>
      </trkpt>
      <trkpt lat="42.55958315916359424591064453125" lon="20.104445703327655792236328125">
        <ele>1902.800048828125</ele>
        <time>2026-06-19T13:06:45.000Z</time>
        <extensions>
          <ns3:TrackPointExtension>
            <ns3:atemp>21.0</ns3:atemp>
          </ns3:TrackPointExtension>
        </extensions>
      </trkpt>
      <trkpt lat="42.55958315916359424591064453125" lon="20.104445703327655792236328125">
        <ele>1902.800048828125</ele>
        <time>2026-06-19T13:06:46.000Z</time>
        <extensions>
          <ns3:TrackPointExtension>
            <ns3:atemp>21.0</ns3:atemp>
          </ns3:TrackPointExtension>
        </extensions>
      </trkpt>
      <trkpt lat="42.55958315916359424591064453125" lon="20.104445703327655792236328125">
        <ele>1902.800048828125</ele>
        <time>2026-06-19T13:06:47.000Z</time>
        <extensions>
          <ns3:TrackPointExtension>
            <ns3:atemp>21.0</ns3:atemp>
          </ns3:TrackPointExtension>
        </extensions>
      </trkpt>
      <trkpt lat="42.55958315916359424591064453125" lon="20.104445703327655792236328125">
        <ele>1902.800048828125</ele>
        <time>2026-06-19T13:06:48.000Z</time>
        <extensions>
          <ns3:TrackPointExtension>
            <ns3:atemp>21.0</ns3:atemp>
          </ns3:TrackPointExtension>
        </extensions>
      </trkpt>
      <trkpt lat="42.55958315916359424591064453125" lon="20.104445703327655792236328125">
        <ele>1902.800048828125</ele>
        <time>2026-06-19T13:06:49.000Z</time>
        <extensions>
          <ns3:TrackPointExtension>
            <ns3:atemp>21.0</ns3:atemp>
          </ns3:TrackPointExtension>
        </extensions>
      </trkpt>
      <trkpt lat="42.55958315916359424591064453125" lon="20.104445703327655792236328125">
        <ele>1902.5999755859375</ele>
        <time>2026-06-19T13:06:50.000Z</time>
        <extensions>
          <ns3:TrackPointExtension>
            <ns3:atemp>21.0</ns3:atemp>
          </ns3:TrackPointExtension>
        </extensions>
      </trkpt>
      <trkpt lat="42.55958315916359424591064453125" lon="20.104445703327655792236328125">
        <ele>1902.5999755859375</ele>
        <time>2026-06-19T13:06:51.000Z</time>
        <extensions>
          <ns3:TrackPointExtension>
            <ns3:atemp>21.0</ns3:atemp>
          </ns3:TrackPointExtension>
        </extensions>
      </trkpt>
      <trkpt lat="42.55958315916359424591064453125" lon="20.104445703327655792236328125">
        <ele>1902.5999755859375</ele>
        <time>2026-06-19T13:06:52.000Z</time>
        <extensions>
          <ns3:TrackPointExtension>
            <ns3:atemp>21.0</ns3:atemp>
          </ns3:TrackPointExtension>
        </extensions>
      </trkpt>
      <trkpt lat="42.55958315916359424591064453125" lon="20.104445703327655792236328125">
        <ele>1902.5999755859375</ele>
        <time>2026-06-19T13:06:53.000Z</time>
        <extensions>
          <ns3:TrackPointExtension>
            <ns3:atemp>21.0</ns3:atemp>
          </ns3:TrackPointExtension>
        </extensions>
      </trkpt>
      <trkpt lat="42.55958315916359424591064453125" lon="20.104445703327655792236328125">
        <ele>1902.5999755859375</ele>
        <time>2026-06-19T13:06:54.000Z</time>
        <extensions>
          <ns3:TrackPointExtension>
            <ns3:atemp>21.0</ns3:atemp>
          </ns3:TrackPointExtension>
        </extensions>
      </trkpt>
      <trkpt lat="42.55958315916359424591064453125" lon="20.104445703327655792236328125">
        <ele>1902.5999755859375</ele>
        <time>2026-06-19T13:06:55.000Z</time>
        <extensions>
          <ns3:TrackPointExtension>
            <ns3:atemp>21.0</ns3:atemp>
          </ns3:TrackPointExtension>
        </extensions>
      </trkpt>
      <trkpt lat="42.55958315916359424591064453125" lon="20.104445703327655792236328125">
        <ele>1902.5999755859375</ele>
        <time>2026-06-19T13:06:56.000Z</time>
        <extensions>
          <ns3:TrackPointExtension>
            <ns3:atemp>21.0</ns3:atemp>
          </ns3:TrackPointExtension>
        </extensions>
      </trkpt>
      <trkpt lat="42.55958315916359424591064453125" lon="20.104445703327655792236328125">
        <ele>1902.5999755859375</ele>
        <time>2026-06-19T13:06:57.000Z</time>
        <extensions>
          <ns3:TrackPointExtension>
            <ns3:atemp>21.0</ns3:atemp>
          </ns3:TrackPointExtension>
        </extensions>
      </trkpt>
      <trkpt lat="42.55958064459264278411865234375" lon="20.10444645769894123077392578125">
        <ele>1902.5999755859375</ele>
        <time>2026-06-19T13:06:58.000Z</time>
        <extensions>
          <ns3:TrackPointExtension>
            <ns3:atemp>21.0</ns3:atemp>
          </ns3:TrackPointExtension>
        </extensions>
      </trkpt>
      <trkpt lat="42.559573017060756683349609375" lon="20.10444737970829010009765625">
        <ele>1902.5999755859375</ele>
        <time>2026-06-19T13:06:59.000Z</time>
        <extensions>
          <ns3:TrackPointExtension>
            <ns3:atemp>21.0</ns3:atemp>
          </ns3:TrackPointExtension>
        </extensions>
      </trkpt>
      <trkpt lat="42.559565640985965728759765625" lon="20.10445718653500080108642578125">
        <ele>1902.4000244140625</ele>
        <time>2026-06-19T13:07:00.000Z</time>
        <extensions>
          <ns3:TrackPointExtension>
            <ns3:atemp>21.0</ns3:atemp>
          </ns3:TrackPointExtension>
        </extensions>
      </trkpt>
      <trkpt lat="42.55954795517027378082275390625" lon="20.1044639758765697479248046875">
        <ele>1902.4000244140625</ele>
        <time>2026-06-19T13:07:01.000Z</time>
        <extensions>
          <ns3:TrackPointExtension>
            <ns3:atemp>21.0</ns3:atemp>
          </ns3:TrackPointExtension>
        </extensions>
      </trkpt>
      <trkpt lat="42.55952574312686920166015625" lon="20.10448518209159374237060546875">
        <ele>1902.199951171875</ele>
        <time>2026-06-19T13:07:02.000Z</time>
        <extensions>
          <ns3:TrackPointExtension>
            <ns3:atemp>21.0</ns3:atemp>
          </ns3:TrackPointExtension>
        </extensions>
      </trkpt>
      <trkpt lat="42.5595007650554180145263671875" lon="20.10452155955135822296142578125">
        <ele>1901.800048828125</ele>
        <time>2026-06-19T13:07:03.000Z</time>
        <extensions>
          <ns3:TrackPointExtension>
            <ns3:atemp>21.0</ns3:atemp>
          </ns3:TrackPointExtension>
        </extensions>
      </trkpt>
      <trkpt lat="42.55947000347077846527099609375" lon="20.10455039329826831817626953125">
        <ele>1901.4000244140625</ele>
        <time>2026-06-19T13:07:04.000Z</time>
        <extensions>
          <ns3:TrackPointExtension>
            <ns3:atemp>21.0</ns3:atemp>
          </ns3:TrackPointExtension>
        </extensions>
      </trkpt>
      <trkpt lat="42.5594420917332172393798828125" lon="20.104557015001773834228515625">
        <ele>1901</ele>
        <time>2026-06-19T13:07:05.000Z</time>
        <extensions>
          <ns3:TrackPointExtension>
            <ns3:atemp>21.0</ns3:atemp>
          </ns3:TrackPointExtension>
        </extensions>
      </trkpt>
      <trkpt lat="42.55942918360233306884765625" lon="20.104565732181072235107421875">
        <ele>1900.5999755859375</ele>
        <time>2026-06-19T13:07:06.000Z</time>
        <extensions>
          <ns3:TrackPointExtension>
            <ns3:atemp>21.0</ns3:atemp>
          </ns3:TrackPointExtension>
        </extensions>
      </trkpt>
      <trkpt lat="42.559411413967609405517578125" lon="20.1045816577970981597900390625">
        <ele>1899.800048828125</ele>
        <time>2026-06-19T13:07:07.000Z</time>
        <extensions>
          <ns3:TrackPointExtension>
            <ns3:atemp>21.0</ns3:atemp>
          </ns3:TrackPointExtension>
        </extensions>
      </trkpt>
      <trkpt lat="42.55938920192420482635498046875" lon="20.1045994274318218231201171875">
        <ele>1899.199951171875</ele>
        <time>2026-06-19T13:07:08.000Z</time>
        <extensions>
          <ns3:TrackPointExtension>
            <ns3:atemp>21.0</ns3:atemp>
          </ns3:TrackPointExtension>
        </extensions>
      </trkpt>
      <trkpt lat="42.55935802124440670013427734375" lon="20.1045984216034412384033203125">
        <ele>1898.800048828125</ele>
        <time>2026-06-19T13:07:09.000Z</time>
        <extensions>
          <ns3:TrackPointExtension>
            <ns3:atemp>21.0</ns3:atemp>
          </ns3:TrackPointExtension>
        </extensions>
      </trkpt>
      <trkpt lat="42.55932868458330631256103515625" lon="20.10459548793733119964599609375">
        <ele>1898.199951171875</ele>
        <time>2026-06-19T13:07:10.000Z</time>
        <extensions>
          <ns3:TrackPointExtension>
            <ns3:atemp>21.0</ns3:atemp>
          </ns3:TrackPointExtension>
        </extensions>
      </trkpt>
      <trkpt lat="42.55930840037763118743896484375" lon="20.10458358563482761383056640625">
        <ele>1897.800048828125</ele>
        <time>2026-06-19T13:07:11.000Z</time>
        <extensions>
          <ns3:TrackPointExtension>
            <ns3:atemp>21.0</ns3:atemp>
          </ns3:TrackPointExtension>
        </extensions>
      </trkpt>
      <trkpt lat="42.55929281003773212432861328125" lon="20.10457050986588001251220703125">
        <ele>1897.4000244140625</ele>
        <time>2026-06-19T13:07:12.000Z</time>
        <extensions>
          <ns3:TrackPointExtension>
            <ns3:atemp>21.0</ns3:atemp>
          </ns3:TrackPointExtension>
        </extensions>
      </trkpt>
      <trkpt lat="42.5592714361846446990966796875" lon="20.10455441661179065704345703125">
        <ele>1897</ele>
        <time>2026-06-19T13:07:13.000Z</time>
        <extensions>
          <ns3:TrackPointExtension>
            <ns3:atemp>21.0</ns3:atemp>
          </ns3:TrackPointExtension>
        </extensions>
      </trkpt>
      <trkpt lat="42.559243105351924896240234375" lon="20.1045528240501880645751953125">
        <ele>1897</ele>
        <time>2026-06-19T13:07:14.000Z</time>
        <extensions>
          <ns3:TrackPointExtension>
            <ns3:atemp>21.0</ns3:atemp>
          </ns3:TrackPointExtension>
        </extensions>
      </trkpt>
      <trkpt lat="42.55920865572988986968994140625" lon="20.10454754345118999481201171875">
        <ele>1896.800048828125</ele>
        <time>2026-06-19T13:07:15.000Z</time>
        <extensions>
          <ns3:TrackPointExtension>
            <ns3:atemp>21.0</ns3:atemp>
          </ns3:TrackPointExtension>
        </extensions>
      </trkpt>
      <trkpt lat="42.55917378701269626617431640625" lon="20.1045602001249790191650390625">
        <ele>1896.4000244140625</ele>
        <time>2026-06-19T13:07:16.000Z</time>
        <extensions>
          <ns3:TrackPointExtension>
            <ns3:atemp>21.0</ns3:atemp>
          </ns3:TrackPointExtension>
        </extensions>
      </trkpt>
      <trkpt lat="42.55914746783673763275146484375" lon="20.1045578531920909881591796875">
        <ele>1895.800048828125</ele>
        <time>2026-06-19T13:07:17.000Z</time>
        <extensions>
          <ns3:TrackPointExtension>
            <ns3:atemp>21.0</ns3:atemp>
          </ns3:TrackPointExtension>
        </extensions>
      </trkpt>
      <trkpt lat="42.55911729298532009124755859375" lon="20.1045472919940948486328125">
        <ele>1895.4000244140625</ele>
        <time>2026-06-19T13:07:18.000Z</time>
        <extensions>
          <ns3:TrackPointExtension>
            <ns3:atemp>21.0</ns3:atemp>
          </ns3:TrackPointExtension>
        </extensions>
      </trkpt>
      <trkpt lat="42.55908720195293426513671875" lon="20.1045420952141284942626953125">
        <ele>1894.800048828125</ele>
        <time>2026-06-19T13:07:19.000Z</time>
        <extensions>
          <ns3:TrackPointExtension>
            <ns3:atemp>21.0</ns3:atemp>
          </ns3:TrackPointExtension>
        </extensions>
      </trkpt>
      <trkpt lat="42.55906431935727596282958984375" lon="20.1045327074825763702392578125">
        <ele>1894.4000244140625</ele>
        <time>2026-06-19T13:07:20.000Z</time>
        <extensions>
          <ns3:TrackPointExtension>
            <ns3:atemp>21.0</ns3:atemp>
          </ns3:TrackPointExtension>
        </extensions>
      </trkpt>
      <trkpt lat="42.55904554389417171478271484375" lon="20.1045156084001064300537109375">
        <ele>1894.199951171875</ele>
        <time>2026-06-19T13:07:21.000Z</time>
        <extensions>
          <ns3:TrackPointExtension>
            <ns3:atemp>21.0</ns3:atemp>
          </ns3:TrackPointExtension>
        </extensions>
      </trkpt>
      <trkpt lat="42.55903179757297039031982421875" lon="20.104493983089923858642578125">
        <ele>1893.800048828125</ele>
        <time>2026-06-19T13:07:22.000Z</time>
        <extensions>
          <ns3:TrackPointExtension>
            <ns3:atemp>21.0</ns3:atemp>
          </ns3:TrackPointExtension>
        </extensions>
      </trkpt>
      <trkpt lat="42.55901813507080078125" lon="20.104478560388088226318359375">
        <ele>1893.4000244140625</ele>
        <time>2026-06-19T13:07:23.000Z</time>
        <extensions>
          <ns3:TrackPointExtension>
            <ns3:atemp>21.0</ns3:atemp>
          </ns3:TrackPointExtension>
        </extensions>
      </trkpt>
      <trkpt lat="42.5589998625218868255615234375" lon="20.1044666580855846405029296875">
        <ele>1893.4000244140625</ele>
        <time>2026-06-19T13:07:24.000Z</time>
        <extensions>
          <ns3:TrackPointExtension>
            <ns3:atemp>21.0</ns3:atemp>
          </ns3:TrackPointExtension>
        </extensions>
      </trkpt>
      <trkpt lat="42.55897731520235538482666015625" lon="20.10444897226989269256591796875">
        <ele>1893</ele>
        <time>2026-06-19T13:07:25.000Z</time>
        <extensions>
          <ns3:TrackPointExtension>
            <ns3:atemp>21.0</ns3:atemp>
          </ns3:TrackPointExtension>
        </extensions>
      </trkpt>
      <trkpt lat="42.55895040929317474365234375" lon="20.1044492237269878387451171875">
        <ele>1892.4000244140625</ele>
        <time>2026-06-19T13:07:26.000Z</time>
        <extensions>
          <ns3:TrackPointExtension>
            <ns3:atemp>21.0</ns3:atemp>
          </ns3:TrackPointExtension>
        </extensions>
      </trkpt>
      <trkpt lat="42.55892769433557987213134765625" lon="20.10444930754601955413818359375">
        <ele>1891.800048828125</ele>
        <time>2026-06-19T13:07:27.000Z</time>
        <extensions>
          <ns3:TrackPointExtension>
            <ns3:atemp>21.0</ns3:atemp>
          </ns3:TrackPointExtension>
        </extensions>
      </trkpt>
      <trkpt lat="42.5589053146541118621826171875" lon="20.10444645769894123077392578125">
        <ele>1891</ele>
        <time>2026-06-19T13:07:28.000Z</time>
        <extensions>
          <ns3:TrackPointExtension>
            <ns3:atemp>21.0</ns3:atemp>
          </ns3:TrackPointExtension>
        </extensions>
      </trkpt>
      <trkpt lat="42.5588895566761493682861328125" lon="20.10443422012031078338623046875">
        <ele>1890.4000244140625</ele>
        <time>2026-06-19T13:07:29.000Z</time>
        <extensions>
          <ns3:TrackPointExtension>
            <ns3:atemp>21.0</ns3:atemp>
          </ns3:TrackPointExtension>
        </extensions>
      </trkpt>
      <trkpt lat="42.558866925537586212158203125" lon="20.1044244132936000823974609375">
        <ele>1889.800048828125</ele>
        <time>2026-06-19T13:07:30.000Z</time>
        <extensions>
          <ns3:TrackPointExtension>
            <ns3:atemp>21.0</ns3:atemp>
          </ns3:TrackPointExtension>
        </extensions>
      </trkpt>
      <trkpt lat="42.5588560290634632110595703125" lon="20.10441930033266544342041015625">
        <ele>1889.199951171875</ele>
        <time>2026-06-19T13:07:31.000Z</time>
        <extensions>
          <ns3:TrackPointExtension>
            <ns3:atemp>21.0</ns3:atemp>
          </ns3:TrackPointExtension>
        </extensions>
      </trkpt>
      <trkpt lat="42.5588563643395900726318359375" lon="20.104420222342014312744140625">
        <ele>1888.800048828125</ele>
        <time>2026-06-19T13:07:32.000Z</time>
        <extensions>
          <ns3:TrackPointExtension>
            <ns3:atemp>21.0</ns3:atemp>
          </ns3:TrackPointExtension>
        </extensions>
      </trkpt>
      <trkpt lat="42.5588563643395900726318359375" lon="20.1044203899800777435302734375">
        <ele>1888.4000244140625</ele>
        <time>2026-06-19T13:07:33.000Z</time>
        <extensions>
          <ns3:TrackPointExtension>
            <ns3:atemp>21.0</ns3:atemp>
          </ns3:TrackPointExtension>
        </extensions>
      </trkpt>
      <trkpt lat="42.5588563643395900726318359375" lon="20.1044203899800777435302734375">
        <ele>1888</ele>
        <time>2026-06-19T13:07:34.000Z</time>
        <extensions>
          <ns3:TrackPointExtension>
            <ns3:atemp>21.0</ns3:atemp>
          </ns3:TrackPointExtension>
        </extensions>
      </trkpt>
      <trkpt lat="42.5588563643395900726318359375" lon="20.1044203899800777435302734375">
        <ele>1887.800048828125</ele>
        <time>2026-06-19T13:07:35.000Z</time>
        <extensions>
          <ns3:TrackPointExtension>
            <ns3:atemp>21.0</ns3:atemp>
          </ns3:TrackPointExtension>
        </extensions>
      </trkpt>
      <trkpt lat="42.5588563643395900726318359375" lon="20.1044203899800777435302734375">
        <ele>1887.5999755859375</ele>
        <time>2026-06-19T13:07:36.000Z</time>
        <extensions>
          <ns3:TrackPointExtension>
            <ns3:atemp>21.0</ns3:atemp>
          </ns3:TrackPointExtension>
        </extensions>
      </trkpt>
      <trkpt lat="42.5588563643395900726318359375" lon="20.1044203899800777435302734375">
        <ele>1887.5999755859375</ele>
        <time>2026-06-19T13:07:37.000Z</time>
        <extensions>
          <ns3:TrackPointExtension>
            <ns3:atemp>21.0</ns3:atemp>
          </ns3:TrackPointExtension>
        </extensions>
      </trkpt>
      <trkpt lat="42.5588563643395900726318359375" lon="20.1044203899800777435302734375">
        <ele>1887.4000244140625</ele>
        <time>2026-06-19T13:07:38.000Z</time>
        <extensions>
          <ns3:TrackPointExtension>
            <ns3:atemp>21.0</ns3:atemp>
          </ns3:TrackPointExtension>
        </extensions>
      </trkpt>
      <trkpt lat="42.5588563643395900726318359375" lon="20.1044203899800777435302734375">
        <ele>1887.199951171875</ele>
        <time>2026-06-19T13:07:39.000Z</time>
        <extensions>
          <ns3:TrackPointExtension>
            <ns3:atemp>21.0</ns3:atemp>
          </ns3:TrackPointExtension>
        </extensions>
      </trkpt>
      <trkpt lat="42.5588563643395900726318359375" lon="20.1044203899800777435302734375">
        <ele>1887.199951171875</ele>
        <time>2026-06-19T13:07:40.000Z</time>
        <extensions>
          <ns3:TrackPointExtension>
            <ns3:atemp>21.0</ns3:atemp>
          </ns3:TrackPointExtension>
        </extensions>
      </trkpt>
      <trkpt lat="42.5588563643395900726318359375" lon="20.1044203899800777435302734375">
        <ele>1887.199951171875</ele>
        <time>2026-06-19T13:07:41.000Z</time>
        <extensions>
          <ns3:TrackPointExtension>
            <ns3:atemp>21.0</ns3:atemp>
          </ns3:TrackPointExtension>
        </extensions>
      </trkpt>
      <trkpt lat="42.5588563643395900726318359375" lon="20.1044203899800777435302734375">
        <ele>1887.199951171875</ele>
        <time>2026-06-19T13:07:42.000Z</time>
        <extensions>
          <ns3:TrackPointExtension>
            <ns3:atemp>21.0</ns3:atemp>
          </ns3:TrackPointExtension>
        </extensions>
      </trkpt>
      <trkpt lat="42.5588563643395900726318359375" lon="20.1044203899800777435302734375">
        <ele>1887.199951171875</ele>
        <time>2026-06-19T13:07:43.000Z</time>
        <extensions>
          <ns3:TrackPointExtension>
            <ns3:atemp>21.0</ns3:atemp>
          </ns3:TrackPointExtension>
        </extensions>
      </trkpt>
      <trkpt lat="42.5588563643395900726318359375" lon="20.1044203899800777435302734375">
        <ele>1887.199951171875</ele>
        <time>2026-06-19T13:07:44.000Z</time>
        <extensions>
          <ns3:TrackPointExtension>
            <ns3:atemp>21.0</ns3:atemp>
          </ns3:TrackPointExtension>
        </extensions>
      </trkpt>
      <trkpt lat="42.5588563643395900726318359375" lon="20.1044203899800777435302734375">
        <ele>1887.199951171875</ele>
        <time>2026-06-19T13:07:45.000Z</time>
        <extensions>
          <ns3:TrackPointExtension>
            <ns3:atemp>21.0</ns3:atemp>
          </ns3:TrackPointExtension>
        </extensions>
      </trkpt>
      <trkpt lat="42.5588563643395900726318359375" lon="20.1044203899800777435302734375">
        <ele>1887.199951171875</ele>
        <time>2026-06-19T13:07:46.000Z</time>
        <extensions>
          <ns3:TrackPointExtension>
            <ns3:atemp>21.0</ns3:atemp>
          </ns3:TrackPointExtension>
        </extensions>
      </trkpt>
      <trkpt lat="42.5588563643395900726318359375" lon="20.1044203899800777435302734375">
        <ele>1887.199951171875</ele>
        <time>2026-06-19T13:07:47.000Z</time>
        <extensions>
          <ns3:TrackPointExtension>
            <ns3:atemp>21.0</ns3:atemp>
          </ns3:TrackPointExtension>
        </extensions>
      </trkpt>
      <trkpt lat="42.5588563643395900726318359375" lon="20.1044203899800777435302734375">
        <ele>1887</ele>
        <time>2026-06-19T13:07:48.000Z</time>
        <extensions>
          <ns3:TrackPointExtension>
            <ns3:atemp>21.0</ns3:atemp>
          </ns3:TrackPointExtension>
        </extensions>
      </trkpt>
      <trkpt lat="42.5588563643395900726318359375" lon="20.1044203899800777435302734375">
        <ele>1887</ele>
        <time>2026-06-19T13:07:49.000Z</time>
        <extensions>
          <ns3:TrackPointExtension>
            <ns3:atemp>21.0</ns3:atemp>
          </ns3:TrackPointExtension>
        </extensions>
      </trkpt>
      <trkpt lat="42.5588563643395900726318359375" lon="20.1044203899800777435302734375">
        <ele>1886.800048828125</ele>
        <time>2026-06-19T13:07:50.000Z</time>
        <extensions>
          <ns3:TrackPointExtension>
            <ns3:atemp>21.0</ns3:atemp>
          </ns3:TrackPointExtension>
        </extensions>
      </trkpt>
      <trkpt lat="42.5588563643395900726318359375" lon="20.1044203899800777435302734375">
        <ele>1886.800048828125</ele>
        <time>2026-06-19T13:07:51.000Z</time>
        <extensions>
          <ns3:TrackPointExtension>
            <ns3:atemp>21.0</ns3:atemp>
          </ns3:TrackPointExtension>
        </extensions>
      </trkpt>
      <trkpt lat="42.5588563643395900726318359375" lon="20.1044203899800777435302734375">
        <ele>1886.800048828125</ele>
        <time>2026-06-19T13:07:52.000Z</time>
        <extensions>
          <ns3:TrackPointExtension>
            <ns3:atemp>21.0</ns3:atemp>
          </ns3:TrackPointExtension>
        </extensions>
      </trkpt>
      <trkpt lat="42.5588563643395900726318359375" lon="20.1044203899800777435302734375">
        <ele>1886.800048828125</ele>
        <time>2026-06-19T13:07:53.000Z</time>
        <extensions>
          <ns3:TrackPointExtension>
            <ns3:atemp>21.0</ns3:atemp>
          </ns3:TrackPointExtension>
        </extensions>
      </trkpt>
      <trkpt lat="42.5588563643395900726318359375" lon="20.1044203899800777435302734375">
        <ele>1886.5999755859375</ele>
        <time>2026-06-19T13:07:54.000Z</time>
        <extensions>
          <ns3:TrackPointExtension>
            <ns3:atemp>21.0</ns3:atemp>
          </ns3:TrackPointExtension>
        </extensions>
      </trkpt>
      <trkpt lat="42.5588563643395900726318359375" lon="20.1044203899800777435302734375">
        <ele>1886.5999755859375</ele>
        <time>2026-06-19T13:07:55.000Z</time>
        <extensions>
          <ns3:TrackPointExtension>
            <ns3:atemp>21.0</ns3:atemp>
          </ns3:TrackPointExtension>
        </extensions>
      </trkpt>
      <trkpt lat="42.5588563643395900726318359375" lon="20.1044203899800777435302734375">
        <ele>1886.5999755859375</ele>
        <time>2026-06-19T13:07:56.000Z</time>
        <extensions>
          <ns3:TrackPointExtension>
            <ns3:atemp>21.0</ns3:atemp>
          </ns3:TrackPointExtension>
        </extensions>
      </trkpt>
      <trkpt lat="42.5588563643395900726318359375" lon="20.1044203899800777435302734375">
        <ele>1886.5999755859375</ele>
        <time>2026-06-19T13:07:57.000Z</time>
        <extensions>
          <ns3:TrackPointExtension>
            <ns3:atemp>21.0</ns3:atemp>
          </ns3:TrackPointExtension>
        </extensions>
      </trkpt>
      <trkpt lat="42.5588563643395900726318359375" lon="20.1044203899800777435302734375">
        <ele>1886.5999755859375</ele>
        <time>2026-06-19T13:07:58.000Z</time>
        <extensions>
          <ns3:TrackPointExtension>
            <ns3:atemp>21.0</ns3:atemp>
          </ns3:TrackPointExtension>
        </extensions>
      </trkpt>
      <trkpt lat="42.5588563643395900726318359375" lon="20.1044203899800777435302734375">
        <ele>1886.5999755859375</ele>
        <time>2026-06-19T13:07:59.000Z</time>
        <extensions>
          <ns3:TrackPointExtension>
            <ns3:atemp>21.0</ns3:atemp>
          </ns3:TrackPointExtension>
        </extensions>
      </trkpt>
      <trkpt lat="42.5588563643395900726318359375" lon="20.1044203899800777435302734375">
        <ele>1886.5999755859375</ele>
        <time>2026-06-19T13:08:00.000Z</time>
        <extensions>
          <ns3:TrackPointExtension>
            <ns3:atemp>21.0</ns3:atemp>
          </ns3:TrackPointExtension>
        </extensions>
      </trkpt>
      <trkpt lat="42.5588563643395900726318359375" lon="20.1044203899800777435302734375">
        <ele>1886.5999755859375</ele>
        <time>2026-06-19T13:08:01.000Z</time>
        <extensions>
          <ns3:TrackPointExtension>
            <ns3:atemp>21.0</ns3:atemp>
          </ns3:TrackPointExtension>
        </extensions>
      </trkpt>
      <trkpt lat="42.5588563643395900726318359375" lon="20.1044203899800777435302734375">
        <ele>1886.4000244140625</ele>
        <time>2026-06-19T13:08:02.000Z</time>
        <extensions>
          <ns3:TrackPointExtension>
            <ns3:atemp>21.0</ns3:atemp>
          </ns3:TrackPointExtension>
        </extensions>
      </trkpt>
      <trkpt lat="42.5588563643395900726318359375" lon="20.1044203899800777435302734375">
        <ele>1886.4000244140625</ele>
        <time>2026-06-19T13:08:03.000Z</time>
        <extensions>
          <ns3:TrackPointExtension>
            <ns3:atemp>21.0</ns3:atemp>
          </ns3:TrackPointExtension>
        </extensions>
      </trkpt>
      <trkpt lat="42.5588563643395900726318359375" lon="20.1044203899800777435302734375">
        <ele>1886.4000244140625</ele>
        <time>2026-06-19T13:08:04.000Z</time>
        <extensions>
          <ns3:TrackPointExtension>
            <ns3:atemp>21.0</ns3:atemp>
          </ns3:TrackPointExtension>
        </extensions>
      </trkpt>
      <trkpt lat="42.5588563643395900726318359375" lon="20.1044203899800777435302734375">
        <ele>1886.199951171875</ele>
        <time>2026-06-19T13:08:05.000Z</time>
        <extensions>
          <ns3:TrackPointExtension>
            <ns3:atemp>21.0</ns3:atemp>
          </ns3:TrackPointExtension>
        </extensions>
      </trkpt>
      <trkpt lat="42.5588563643395900726318359375" lon="20.1044203899800777435302734375">
        <ele>1886.199951171875</ele>
        <time>2026-06-19T13:08:06.000Z</time>
        <extensions>
          <ns3:TrackPointExtension>
            <ns3:atemp>21.0</ns3:atemp>
          </ns3:TrackPointExtension>
        </extensions>
      </trkpt>
      <trkpt lat="42.5588563643395900726318359375" lon="20.1044203899800777435302734375">
        <ele>1886.199951171875</ele>
        <time>2026-06-19T13:08:07.000Z</time>
        <extensions>
          <ns3:TrackPointExtension>
            <ns3:atemp>21.0</ns3:atemp>
          </ns3:TrackPointExtension>
        </extensions>
      </trkpt>
      <trkpt lat="42.5588563643395900726318359375" lon="20.1044203899800777435302734375">
        <ele>1886</ele>
        <time>2026-06-19T13:08:08.000Z</time>
        <extensions>
          <ns3:TrackPointExtension>
            <ns3:atemp>21.0</ns3:atemp>
          </ns3:TrackPointExtension>
        </extensions>
      </trkpt>
      <trkpt lat="42.5588563643395900726318359375" lon="20.1044203899800777435302734375">
        <ele>1886</ele>
        <time>2026-06-19T13:08:09.000Z</time>
        <extensions>
          <ns3:TrackPointExtension>
            <ns3:atemp>21.0</ns3:atemp>
          </ns3:TrackPointExtension>
        </extensions>
      </trkpt>
      <trkpt lat="42.5588563643395900726318359375" lon="20.1044203899800777435302734375">
        <ele>1886.199951171875</ele>
        <time>2026-06-19T13:08:10.000Z</time>
        <extensions>
          <ns3:TrackPointExtension>
            <ns3:atemp>21.0</ns3:atemp>
          </ns3:TrackPointExtension>
        </extensions>
      </trkpt>
      <trkpt lat="42.5588563643395900726318359375" lon="20.1044203899800777435302734375">
        <ele>1886.199951171875</ele>
        <time>2026-06-19T13:08:11.000Z</time>
        <extensions>
          <ns3:TrackPointExtension>
            <ns3:atemp>21.0</ns3:atemp>
          </ns3:TrackPointExtension>
        </extensions>
      </trkpt>
      <trkpt lat="42.5588563643395900726318359375" lon="20.1044203899800777435302734375">
        <ele>1886.199951171875</ele>
        <time>2026-06-19T13:08:12.000Z</time>
        <extensions>
          <ns3:TrackPointExtension>
            <ns3:atemp>21.0</ns3:atemp>
          </ns3:TrackPointExtension>
        </extensions>
      </trkpt>
      <trkpt lat="42.5588563643395900726318359375" lon="20.1044203899800777435302734375">
        <ele>1886.199951171875</ele>
        <time>2026-06-19T13:08:13.000Z</time>
        <extensions>
          <ns3:TrackPointExtension>
            <ns3:atemp>21.0</ns3:atemp>
          </ns3:TrackPointExtension>
        </extensions>
      </trkpt>
      <trkpt lat="42.5588563643395900726318359375" lon="20.1044203899800777435302734375">
        <ele>1886</ele>
        <time>2026-06-19T13:08:14.000Z</time>
        <extensions>
          <ns3:TrackPointExtension>
            <ns3:atemp>21.0</ns3:atemp>
          </ns3:TrackPointExtension>
        </extensions>
      </trkpt>
      <trkpt lat="42.5588563643395900726318359375" lon="20.1044203899800777435302734375">
        <ele>1886</ele>
        <time>2026-06-19T13:08:15.000Z</time>
        <extensions>
          <ns3:TrackPointExtension>
            <ns3:atemp>21.0</ns3:atemp>
          </ns3:TrackPointExtension>
        </extensions>
      </trkpt>
      <trkpt lat="42.5588563643395900726318359375" lon="20.1044203899800777435302734375">
        <ele>1886</ele>
        <time>2026-06-19T13:08:16.000Z</time>
        <extensions>
          <ns3:TrackPointExtension>
            <ns3:atemp>21.0</ns3:atemp>
          </ns3:TrackPointExtension>
        </extensions>
      </trkpt>
      <trkpt lat="42.5588563643395900726318359375" lon="20.1044203899800777435302734375">
        <ele>1886</ele>
        <time>2026-06-19T13:08:17.000Z</time>
        <extensions>
          <ns3:TrackPointExtension>
            <ns3:atemp>21.0</ns3:atemp>
          </ns3:TrackPointExtension>
        </extensions>
      </trkpt>
      <trkpt lat="42.5588563643395900726318359375" lon="20.1044203899800777435302734375">
        <ele>1886</ele>
        <time>2026-06-19T13:08:18.000Z</time>
        <extensions>
          <ns3:TrackPointExtension>
            <ns3:atemp>21.0</ns3:atemp>
          </ns3:TrackPointExtension>
        </extensions>
      </trkpt>
      <trkpt lat="42.5588563643395900726318359375" lon="20.1044203899800777435302734375">
        <ele>1886</ele>
        <time>2026-06-19T13:08:19.000Z</time>
        <extensions>
          <ns3:TrackPointExtension>
            <ns3:atemp>21.0</ns3:atemp>
          </ns3:TrackPointExtension>
        </extensions>
      </trkpt>
      <trkpt lat="42.5588563643395900726318359375" lon="20.1044203899800777435302734375">
        <ele>1886</ele>
        <time>2026-06-19T13:08:20.000Z</time>
        <extensions>
          <ns3:TrackPointExtension>
            <ns3:atemp>21.0</ns3:atemp>
          </ns3:TrackPointExtension>
        </extensions>
      </trkpt>
      <trkpt lat="42.5588563643395900726318359375" lon="20.1044203899800777435302734375">
        <ele>1886</ele>
        <time>2026-06-19T13:08:21.000Z</time>
        <extensions>
          <ns3:TrackPointExtension>
            <ns3:atemp>21.0</ns3:atemp>
          </ns3:TrackPointExtension>
        </extensions>
      </trkpt>
      <trkpt lat="42.5588563643395900726318359375" lon="20.1044203899800777435302734375">
        <ele>1886</ele>
        <time>2026-06-19T13:08:22.000Z</time>
        <extensions>
          <ns3:TrackPointExtension>
            <ns3:atemp>21.0</ns3:atemp>
          </ns3:TrackPointExtension>
        </extensions>
      </trkpt>
      <trkpt lat="42.5588563643395900726318359375" lon="20.1044203899800777435302734375">
        <ele>1886</ele>
        <time>2026-06-19T13:08:23.000Z</time>
        <extensions>
          <ns3:TrackPointExtension>
            <ns3:atemp>21.0</ns3:atemp>
          </ns3:TrackPointExtension>
        </extensions>
      </trkpt>
      <trkpt lat="42.5588563643395900726318359375" lon="20.1044203899800777435302734375">
        <ele>1886</ele>
        <time>2026-06-19T13:08:24.000Z</time>
        <extensions>
          <ns3:TrackPointExtension>
            <ns3:atemp>21.0</ns3:atemp>
          </ns3:TrackPointExtension>
        </extensions>
      </trkpt>
      <trkpt lat="42.5588563643395900726318359375" lon="20.1044203899800777435302734375">
        <ele>1886</ele>
        <time>2026-06-19T13:08:25.000Z</time>
        <extensions>
          <ns3:TrackPointExtension>
            <ns3:atemp>21.0</ns3:atemp>
          </ns3:TrackPointExtension>
        </extensions>
      </trkpt>
      <trkpt lat="42.5588563643395900726318359375" lon="20.1044203899800777435302734375">
        <ele>1886.199951171875</ele>
        <time>2026-06-19T13:08:26.000Z</time>
        <extensions>
          <ns3:TrackPointExtension>
            <ns3:atemp>21.0</ns3:atemp>
          </ns3:TrackPointExtension>
        </extensions>
      </trkpt>
      <trkpt lat="42.5588563643395900726318359375" lon="20.1044203899800777435302734375">
        <ele>1886.199951171875</ele>
        <time>2026-06-19T13:08:27.000Z</time>
        <extensions>
          <ns3:TrackPointExtension>
            <ns3:atemp>21.0</ns3:atemp>
          </ns3:TrackPointExtension>
        </extensions>
      </trkpt>
      <trkpt lat="42.5588563643395900726318359375" lon="20.1044203899800777435302734375">
        <ele>1886.4000244140625</ele>
        <time>2026-06-19T13:08:28.000Z</time>
        <extensions>
          <ns3:TrackPointExtension>
            <ns3:atemp>21.0</ns3:atemp>
          </ns3:TrackPointExtension>
        </extensions>
      </trkpt>
      <trkpt lat="42.5588563643395900726318359375" lon="20.1044203899800777435302734375">
        <ele>1886.4000244140625</ele>
        <time>2026-06-19T13:08:29.000Z</time>
        <extensions>
          <ns3:TrackPointExtension>
            <ns3:atemp>21.0</ns3:atemp>
          </ns3:TrackPointExtension>
        </extensions>
      </trkpt>
      <trkpt lat="42.5588563643395900726318359375" lon="20.1044203899800777435302734375">
        <ele>1886.5999755859375</ele>
        <time>2026-06-19T13:08:30.000Z</time>
        <extensions>
          <ns3:TrackPointExtension>
            <ns3:atemp>21.0</ns3:atemp>
          </ns3:TrackPointExtension>
        </extensions>
      </trkpt>
      <trkpt lat="42.5588563643395900726318359375" lon="20.1044203899800777435302734375">
        <ele>1886.5999755859375</ele>
        <time>2026-06-19T13:08:31.000Z</time>
        <extensions>
          <ns3:TrackPointExtension>
            <ns3:atemp>21.0</ns3:atemp>
          </ns3:TrackPointExtension>
        </extensions>
      </trkpt>
      <trkpt lat="42.5588563643395900726318359375" lon="20.1044203899800777435302734375">
        <ele>1886.5999755859375</ele>
        <time>2026-06-19T13:08:32.000Z</time>
        <extensions>
          <ns3:TrackPointExtension>
            <ns3:atemp>21.0</ns3:atemp>
          </ns3:TrackPointExtension>
        </extensions>
      </trkpt>
      <trkpt lat="42.5588563643395900726318359375" lon="20.1044203899800777435302734375">
        <ele>1886.800048828125</ele>
        <time>2026-06-19T13:08:33.000Z</time>
        <extensions>
          <ns3:TrackPointExtension>
            <ns3:atemp>21.0</ns3:atemp>
          </ns3:TrackPointExtension>
        </extensions>
      </trkpt>
      <trkpt lat="42.5588563643395900726318359375" lon="20.1044203899800777435302734375">
        <ele>1886.800048828125</ele>
        <time>2026-06-19T13:08:34.000Z</time>
        <extensions>
          <ns3:TrackPointExtension>
            <ns3:atemp>21.0</ns3:atemp>
          </ns3:TrackPointExtension>
        </extensions>
      </trkpt>
      <trkpt lat="42.5588563643395900726318359375" lon="20.1044203899800777435302734375">
        <ele>1886.800048828125</ele>
        <time>2026-06-19T13:08:35.000Z</time>
        <extensions>
          <ns3:TrackPointExtension>
            <ns3:atemp>21.0</ns3:atemp>
          </ns3:TrackPointExtension>
        </extensions>
      </trkpt>
      <trkpt lat="42.5588563643395900726318359375" lon="20.1044203899800777435302734375">
        <ele>1887</ele>
        <time>2026-06-19T13:08:36.000Z</time>
        <extensions>
          <ns3:TrackPointExtension>
            <ns3:atemp>21.0</ns3:atemp>
          </ns3:TrackPointExtension>
        </extensions>
      </trkpt>
      <trkpt lat="42.5588563643395900726318359375" lon="20.1044203899800777435302734375">
        <ele>1887</ele>
        <time>2026-06-19T13:08:37.000Z</time>
        <extensions>
          <ns3:TrackPointExtension>
            <ns3:atemp>21.0</ns3:atemp>
          </ns3:TrackPointExtension>
        </extensions>
      </trkpt>
      <trkpt lat="42.5588563643395900726318359375" lon="20.1044203899800777435302734375">
        <ele>1887</ele>
        <time>2026-06-19T13:08:38.000Z</time>
        <extensions>
          <ns3:TrackPointExtension>
            <ns3:atemp>21.0</ns3:atemp>
          </ns3:TrackPointExtension>
        </extensions>
      </trkpt>
      <trkpt lat="42.5588563643395900726318359375" lon="20.1044203899800777435302734375">
        <ele>1887.199951171875</ele>
        <time>2026-06-19T13:08:39.000Z</time>
        <extensions>
          <ns3:TrackPointExtension>
            <ns3:atemp>21.0</ns3:atemp>
          </ns3:TrackPointExtension>
        </extensions>
      </trkpt>
      <trkpt lat="42.5588563643395900726318359375" lon="20.1044203899800777435302734375">
        <ele>1887.199951171875</ele>
        <time>2026-06-19T13:08:40.000Z</time>
        <extensions>
          <ns3:TrackPointExtension>
            <ns3:atemp>21.0</ns3:atemp>
          </ns3:TrackPointExtension>
        </extensions>
      </trkpt>
      <trkpt lat="42.5588563643395900726318359375" lon="20.1044203899800777435302734375">
        <ele>1887.4000244140625</ele>
        <time>2026-06-19T13:08:41.000Z</time>
        <extensions>
          <ns3:TrackPointExtension>
            <ns3:atemp>21.0</ns3:atemp>
          </ns3:TrackPointExtension>
        </extensions>
      </trkpt>
      <trkpt lat="42.5588563643395900726318359375" lon="20.1044203899800777435302734375">
        <ele>1887.4000244140625</ele>
        <time>2026-06-19T13:08:42.000Z</time>
        <extensions>
          <ns3:TrackPointExtension>
            <ns3:atemp>21.0</ns3:atemp>
          </ns3:TrackPointExtension>
        </extensions>
      </trkpt>
      <trkpt lat="42.5588563643395900726318359375" lon="20.1044203899800777435302734375">
        <ele>1887.5999755859375</ele>
        <time>2026-06-19T13:08:43.000Z</time>
        <extensions>
          <ns3:TrackPointExtension>
            <ns3:atemp>21.0</ns3:atemp>
          </ns3:TrackPointExtension>
        </extensions>
      </trkpt>
      <trkpt lat="42.5588563643395900726318359375" lon="20.1044203899800777435302734375">
        <ele>1887.5999755859375</ele>
        <time>2026-06-19T13:08:44.000Z</time>
        <extensions>
          <ns3:TrackPointExtension>
            <ns3:atemp>21.0</ns3:atemp>
          </ns3:TrackPointExtension>
        </extensions>
      </trkpt>
      <trkpt lat="42.5588563643395900726318359375" lon="20.1044203899800777435302734375">
        <ele>1887.800048828125</ele>
        <time>2026-06-19T13:08:45.000Z</time>
        <extensions>
          <ns3:TrackPointExtension>
            <ns3:atemp>21.0</ns3:atemp>
          </ns3:TrackPointExtension>
        </extensions>
      </trkpt>
      <trkpt lat="42.5588563643395900726318359375" lon="20.1044203899800777435302734375">
        <ele>1887.800048828125</ele>
        <time>2026-06-19T13:08:46.000Z</time>
        <extensions>
          <ns3:TrackPointExtension>
            <ns3:atemp>21.0</ns3:atemp>
          </ns3:TrackPointExtension>
        </extensions>
      </trkpt>
      <trkpt lat="42.5588563643395900726318359375" lon="20.1044203899800777435302734375">
        <ele>1887.800048828125</ele>
        <time>2026-06-19T13:08:47.000Z</time>
        <extensions>
          <ns3:TrackPointExtension>
            <ns3:atemp>21.0</ns3:atemp>
          </ns3:TrackPointExtension>
        </extensions>
      </trkpt>
      <trkpt lat="42.5588563643395900726318359375" lon="20.1044203899800777435302734375">
        <ele>1888</ele>
        <time>2026-06-19T13:08:48.000Z</time>
        <extensions>
          <ns3:TrackPointExtension>
            <ns3:atemp>21.0</ns3:atemp>
          </ns3:TrackPointExtension>
        </extensions>
      </trkpt>
      <trkpt lat="42.5588563643395900726318359375" lon="20.1044203899800777435302734375">
        <ele>1888</ele>
        <time>2026-06-19T13:08:49.000Z</time>
        <extensions>
          <ns3:TrackPointExtension>
            <ns3:atemp>21.0</ns3:atemp>
          </ns3:TrackPointExtension>
        </extensions>
      </trkpt>
      <trkpt lat="42.5588563643395900726318359375" lon="20.1044203899800777435302734375">
        <ele>1888</ele>
        <time>2026-06-19T13:08:50.000Z</time>
        <extensions>
          <ns3:TrackPointExtension>
            <ns3:atemp>21.0</ns3:atemp>
          </ns3:TrackPointExtension>
        </extensions>
      </trkpt>
      <trkpt lat="42.5588563643395900726318359375" lon="20.1044203899800777435302734375">
        <ele>1888.199951171875</ele>
        <time>2026-06-19T13:08:51.000Z</time>
        <extensions>
          <ns3:TrackPointExtension>
            <ns3:atemp>21.0</ns3:atemp>
          </ns3:TrackPointExtension>
        </extensions>
      </trkpt>
      <trkpt lat="42.5588563643395900726318359375" lon="20.1044203899800777435302734375">
        <ele>1888.199951171875</ele>
        <time>2026-06-19T13:08:52.000Z</time>
        <extensions>
          <ns3:TrackPointExtension>
            <ns3:atemp>21.0</ns3:atemp>
          </ns3:TrackPointExtension>
        </extensions>
      </trkpt>
      <trkpt lat="42.5588563643395900726318359375" lon="20.1044203899800777435302734375">
        <ele>1888.4000244140625</ele>
        <time>2026-06-19T13:08:53.000Z</time>
        <extensions>
          <ns3:TrackPointExtension>
            <ns3:atemp>21.0</ns3:atemp>
          </ns3:TrackPointExtension>
        </extensions>
      </trkpt>
      <trkpt lat="42.5588563643395900726318359375" lon="20.1044203899800777435302734375">
        <ele>1888.4000244140625</ele>
        <time>2026-06-19T13:08:54.000Z</time>
        <extensions>
          <ns3:TrackPointExtension>
            <ns3:atemp>21.0</ns3:atemp>
          </ns3:TrackPointExtension>
        </extensions>
      </trkpt>
      <trkpt lat="42.5588563643395900726318359375" lon="20.1044203899800777435302734375">
        <ele>1888.5999755859375</ele>
        <time>2026-06-19T13:08:55.000Z</time>
        <extensions>
          <ns3:TrackPointExtension>
            <ns3:atemp>21.0</ns3:atemp>
          </ns3:TrackPointExtension>
        </extensions>
      </trkpt>
      <trkpt lat="42.5588563643395900726318359375" lon="20.1044203899800777435302734375">
        <ele>1888.5999755859375</ele>
        <time>2026-06-19T13:08:56.000Z</time>
        <extensions>
          <ns3:TrackPointExtension>
            <ns3:atemp>21.0</ns3:atemp>
          </ns3:TrackPointExtension>
        </extensions>
      </trkpt>
      <trkpt lat="42.5588563643395900726318359375" lon="20.1044203899800777435302734375">
        <ele>1888.5999755859375</ele>
        <time>2026-06-19T13:08:57.000Z</time>
        <extensions>
          <ns3:TrackPointExtension>
            <ns3:atemp>21.0</ns3:atemp>
          </ns3:TrackPointExtension>
        </extensions>
      </trkpt>
      <trkpt lat="42.5588563643395900726318359375" lon="20.1044203899800777435302734375">
        <ele>1888.5999755859375</ele>
        <time>2026-06-19T13:08:58.000Z</time>
        <extensions>
          <ns3:TrackPointExtension>
            <ns3:atemp>21.0</ns3:atemp>
          </ns3:TrackPointExtension>
        </extensions>
      </trkpt>
      <trkpt lat="42.5588563643395900726318359375" lon="20.1044203899800777435302734375">
        <ele>1888.5999755859375</ele>
        <time>2026-06-19T13:08:59.000Z</time>
        <extensions>
          <ns3:TrackPointExtension>
            <ns3:atemp>21.0</ns3:atemp>
          </ns3:TrackPointExtension>
        </extensions>
      </trkpt>
      <trkpt lat="42.5588563643395900726318359375" lon="20.1044203899800777435302734375">
        <ele>1888.5999755859375</ele>
        <time>2026-06-19T13:09:00.000Z</time>
        <extensions>
          <ns3:TrackPointExtension>
            <ns3:atemp>21.0</ns3:atemp>
          </ns3:TrackPointExtension>
        </extensions>
      </trkpt>
      <trkpt lat="42.5588563643395900726318359375" lon="20.1044203899800777435302734375">
        <ele>1888.800048828125</ele>
        <time>2026-06-19T13:09:01.000Z</time>
        <extensions>
          <ns3:TrackPointExtension>
            <ns3:atemp>21.0</ns3:atemp>
          </ns3:TrackPointExtension>
        </extensions>
      </trkpt>
      <trkpt lat="42.5588563643395900726318359375" lon="20.1044203899800777435302734375">
        <ele>1888.800048828125</ele>
        <time>2026-06-19T13:09:02.000Z</time>
        <extensions>
          <ns3:TrackPointExtension>
            <ns3:atemp>21.0</ns3:atemp>
          </ns3:TrackPointExtension>
        </extensions>
      </trkpt>
      <trkpt lat="42.5588563643395900726318359375" lon="20.1044203899800777435302734375">
        <ele>1888.800048828125</ele>
        <time>2026-06-19T13:09:03.000Z</time>
        <extensions>
          <ns3:TrackPointExtension>
            <ns3:atemp>21.0</ns3:atemp>
          </ns3:TrackPointExtension>
        </extensions>
      </trkpt>
      <trkpt lat="42.5588563643395900726318359375" lon="20.1044203899800777435302734375">
        <ele>1888.800048828125</ele>
        <time>2026-06-19T13:09:04.000Z</time>
        <extensions>
          <ns3:TrackPointExtension>
            <ns3:atemp>21.0</ns3:atemp>
          </ns3:TrackPointExtension>
        </extensions>
      </trkpt>
      <trkpt lat="42.5588563643395900726318359375" lon="20.1044203899800777435302734375">
        <ele>1888.800048828125</ele>
        <time>2026-06-19T13:09:05.000Z</time>
        <extensions>
          <ns3:TrackPointExtension>
            <ns3:atemp>21.0</ns3:atemp>
          </ns3:TrackPointExtension>
        </extensions>
      </trkpt>
      <trkpt lat="42.5588563643395900726318359375" lon="20.1044203899800777435302734375">
        <ele>1888.800048828125</ele>
        <time>2026-06-19T13:09:06.000Z</time>
        <extensions>
          <ns3:TrackPointExtension>
            <ns3:atemp>21.0</ns3:atemp>
          </ns3:TrackPointExtension>
        </extensions>
      </trkpt>
      <trkpt lat="42.5588563643395900726318359375" lon="20.1044203899800777435302734375">
        <ele>1888.5999755859375</ele>
        <time>2026-06-19T13:09:07.000Z</time>
        <extensions>
          <ns3:TrackPointExtension>
            <ns3:atemp>21.0</ns3:atemp>
          </ns3:TrackPointExtension>
        </extensions>
      </trkpt>
      <trkpt lat="42.5588563643395900726318359375" lon="20.1044203899800777435302734375">
        <ele>1888.5999755859375</ele>
        <time>2026-06-19T13:09:08.000Z</time>
        <extensions>
          <ns3:TrackPointExtension>
            <ns3:atemp>21.0</ns3:atemp>
          </ns3:TrackPointExtension>
        </extensions>
      </trkpt>
      <trkpt lat="42.5588563643395900726318359375" lon="20.1044203899800777435302734375">
        <ele>1888.5999755859375</ele>
        <time>2026-06-19T13:09:09.000Z</time>
        <extensions>
          <ns3:TrackPointExtension>
            <ns3:atemp>21.0</ns3:atemp>
          </ns3:TrackPointExtension>
        </extensions>
      </trkpt>
      <trkpt lat="42.5588563643395900726318359375" lon="20.1044203899800777435302734375">
        <ele>1888.5999755859375</ele>
        <time>2026-06-19T13:09:10.000Z</time>
        <extensions>
          <ns3:TrackPointExtension>
            <ns3:atemp>21.0</ns3:atemp>
          </ns3:TrackPointExtension>
        </extensions>
      </trkpt>
      <trkpt lat="42.5588563643395900726318359375" lon="20.1044203899800777435302734375">
        <ele>1888.5999755859375</ele>
        <time>2026-06-19T13:09:11.000Z</time>
        <extensions>
          <ns3:TrackPointExtension>
            <ns3:atemp>21.0</ns3:atemp>
          </ns3:TrackPointExtension>
        </extensions>
      </trkpt>
      <trkpt lat="42.5588563643395900726318359375" lon="20.1044203899800777435302734375">
        <ele>1888.5999755859375</ele>
        <time>2026-06-19T13:09:12.000Z</time>
        <extensions>
          <ns3:TrackPointExtension>
            <ns3:atemp>21.0</ns3:atemp>
          </ns3:TrackPointExtension>
        </extensions>
      </trkpt>
      <trkpt lat="42.5588563643395900726318359375" lon="20.1044203899800777435302734375">
        <ele>1888.800048828125</ele>
        <time>2026-06-19T13:09:13.000Z</time>
        <extensions>
          <ns3:TrackPointExtension>
            <ns3:atemp>21.0</ns3:atemp>
          </ns3:TrackPointExtension>
        </extensions>
      </trkpt>
      <trkpt lat="42.5588563643395900726318359375" lon="20.1044203899800777435302734375">
        <ele>1888.800048828125</ele>
        <time>2026-06-19T13:09:14.000Z</time>
        <extensions>
          <ns3:TrackPointExtension>
            <ns3:atemp>21.0</ns3:atemp>
          </ns3:TrackPointExtension>
        </extensions>
      </trkpt>
      <trkpt lat="42.5588563643395900726318359375" lon="20.1044203899800777435302734375">
        <ele>1888.800048828125</ele>
        <time>2026-06-19T13:09:15.000Z</time>
        <extensions>
          <ns3:TrackPointExtension>
            <ns3:atemp>21.0</ns3:atemp>
          </ns3:TrackPointExtension>
        </extensions>
      </trkpt>
      <trkpt lat="42.5588563643395900726318359375" lon="20.1044203899800777435302734375">
        <ele>1888.800048828125</ele>
        <time>2026-06-19T13:09:16.000Z</time>
        <extensions>
          <ns3:TrackPointExtension>
            <ns3:atemp>21.0</ns3:atemp>
          </ns3:TrackPointExtension>
        </extensions>
      </trkpt>
      <trkpt lat="42.5588563643395900726318359375" lon="20.1044203899800777435302734375">
        <ele>1888.800048828125</ele>
        <time>2026-06-19T13:09:17.000Z</time>
        <extensions>
          <ns3:TrackPointExtension>
            <ns3:atemp>21.0</ns3:atemp>
          </ns3:TrackPointExtension>
        </extensions>
      </trkpt>
      <trkpt lat="42.5588563643395900726318359375" lon="20.1044203899800777435302734375">
        <ele>1888.800048828125</ele>
        <time>2026-06-19T13:09:18.000Z</time>
        <extensions>
          <ns3:TrackPointExtension>
            <ns3:atemp>21.0</ns3:atemp>
          </ns3:TrackPointExtension>
        </extensions>
      </trkpt>
      <trkpt lat="42.55885175429284572601318359375" lon="20.10441913269460201263427734375">
        <ele>1888.800048828125</ele>
        <time>2026-06-19T13:09:19.000Z</time>
        <extensions>
          <ns3:TrackPointExtension>
            <ns3:atemp>21.0</ns3:atemp>
          </ns3:TrackPointExtension>
        </extensions>
      </trkpt>
      <trkpt lat="42.55882979370653629302978515625" lon="20.104411505162715911865234375">
        <ele>1888.800048828125</ele>
        <time>2026-06-19T13:09:20.000Z</time>
        <extensions>
          <ns3:TrackPointExtension>
            <ns3:atemp>21.0</ns3:atemp>
          </ns3:TrackPointExtension>
        </extensions>
      </trkpt>
      <trkpt lat="42.55880280397832393646240234375" lon="20.10440404526889324188232421875">
        <ele>1888.5999755859375</ele>
        <time>2026-06-19T13:09:21.000Z</time>
        <extensions>
          <ns3:TrackPointExtension>
            <ns3:atemp>21.0</ns3:atemp>
          </ns3:TrackPointExtension>
        </extensions>
      </trkpt>
      <trkpt lat="42.55877614952623844146728515625" lon="20.10440052486956119537353515625">
        <ele>1888.4000244140625</ele>
        <time>2026-06-19T13:09:22.000Z</time>
        <extensions>
          <ns3:TrackPointExtension>
            <ns3:atemp>21.0</ns3:atemp>
          </ns3:TrackPointExtension>
        </extensions>
      </trkpt>
      <trkpt lat="42.55875653587281703948974609375" lon="20.1044022850692272186279296875">
        <ele>1888.199951171875</ele>
        <time>2026-06-19T13:09:23.000Z</time>
        <extensions>
          <ns3:TrackPointExtension>
            <ns3:atemp>21.0</ns3:atemp>
          </ns3:TrackPointExtension>
        </extensions>
      </trkpt>
      <trkpt lat="42.55874513648450374603271484375" lon="20.1044103316962718963623046875">
        <ele>1887.800048828125</ele>
        <time>2026-06-19T13:09:24.000Z</time>
        <extensions>
          <ns3:TrackPointExtension>
            <ns3:atemp>21.0</ns3:atemp>
          </ns3:TrackPointExtension>
        </extensions>
      </trkpt>
      <trkpt lat="42.55873491056263446807861328125" lon="20.10441946797072887420654296875">
        <ele>1887.5999755859375</ele>
        <time>2026-06-19T13:09:25.000Z</time>
        <extensions>
          <ns3:TrackPointExtension>
            <ns3:atemp>21.0</ns3:atemp>
          </ns3:TrackPointExtension>
        </extensions>
      </trkpt>
      <trkpt lat="42.55872736684978008270263671875" lon="20.10443128645420074462890625">
        <ele>1887.199951171875</ele>
        <time>2026-06-19T13:09:26.000Z</time>
        <extensions>
          <ns3:TrackPointExtension>
            <ns3:atemp>21.0</ns3:atemp>
          </ns3:TrackPointExtension>
        </extensions>
      </trkpt>
      <trkpt lat="42.55871512927114963531494140625" lon="20.1044468767940998077392578125">
        <ele>1887</ele>
        <time>2026-06-19T13:09:27.000Z</time>
        <extensions>
          <ns3:TrackPointExtension>
            <ns3:atemp>21.0</ns3:atemp>
          </ns3:TrackPointExtension>
        </extensions>
      </trkpt>
      <trkpt lat="42.5587075017392635345458984375" lon="20.10445433668792247772216796875">
        <ele>1886.800048828125</ele>
        <time>2026-06-19T13:09:28.000Z</time>
        <extensions>
          <ns3:TrackPointExtension>
            <ns3:atemp>21.0</ns3:atemp>
          </ns3:TrackPointExtension>
        </extensions>
      </trkpt>
      <trkpt lat="42.55869065411388874053955078125" lon="20.104457437992095947265625">
        <ele>1886.800048828125</ele>
        <time>2026-06-19T13:09:29.000Z</time>
        <extensions>
          <ns3:TrackPointExtension>
            <ns3:atemp>21.0</ns3:atemp>
          </ns3:TrackPointExtension>
        </extensions>
      </trkpt>
      <trkpt lat="42.55867422558367252349853515625" lon="20.10445953346788883209228515625">
        <ele>1886.5999755859375</ele>
        <time>2026-06-19T13:09:30.000Z</time>
        <extensions>
          <ns3:TrackPointExtension>
            <ns3:atemp>21.0</ns3:atemp>
          </ns3:TrackPointExtension>
        </extensions>
      </trkpt>
      <trkpt lat="42.55865662358701229095458984375" lon="20.10446372441947460174560546875">
        <ele>1886.4000244140625</ele>
        <time>2026-06-19T13:09:31.000Z</time>
        <extensions>
          <ns3:TrackPointExtension>
            <ns3:atemp>21.0</ns3:atemp>
          </ns3:TrackPointExtension>
        </extensions>
      </trkpt>
      <trkpt lat="42.55863399244844913482666015625" lon="20.1044721901416778564453125">
        <ele>1886.199951171875</ele>
        <time>2026-06-19T13:09:32.000Z</time>
        <extensions>
          <ns3:TrackPointExtension>
            <ns3:atemp>21.0</ns3:atemp>
          </ns3:TrackPointExtension>
        </extensions>
      </trkpt>
      <trkpt lat="42.55861722864210605621337890625" lon="20.104481242597103118896484375">
        <ele>1885.800048828125</ele>
        <time>2026-06-19T13:09:33.000Z</time>
        <extensions>
          <ns3:TrackPointExtension>
            <ns3:atemp>21.0</ns3:atemp>
          </ns3:TrackPointExtension>
        </extensions>
      </trkpt>
      <trkpt lat="42.55859225057065486907958984375" lon="20.10449641384184360504150390625">
        <ele>1885.4000244140625</ele>
        <time>2026-06-19T13:09:34.000Z</time>
        <extensions>
          <ns3:TrackPointExtension>
            <ns3:atemp>21.0</ns3:atemp>
          </ns3:TrackPointExtension>
        </extensions>
      </trkpt>
      <trkpt lat="42.55856894887983798980712890625" lon="20.10451116599142551422119140625">
        <ele>1885.199951171875</ele>
        <time>2026-06-19T13:09:35.000Z</time>
        <extensions>
          <ns3:TrackPointExtension>
            <ns3:atemp>21.0</ns3:atemp>
          </ns3:TrackPointExtension>
        </extensions>
      </trkpt>
      <trkpt lat="42.55854330025613307952880859375" lon="20.10452860035002231597900390625">
        <ele>1885</ele>
        <time>2026-06-19T13:09:36.000Z</time>
        <extensions>
          <ns3:TrackPointExtension>
            <ns3:atemp>21.0</ns3:atemp>
          </ns3:TrackPointExtension>
        </extensions>
      </trkpt>
      <trkpt lat="42.55851848982274532318115234375" lon="20.10454536415636539459228515625">
        <ele>1884.5999755859375</ele>
        <time>2026-06-19T13:09:37.000Z</time>
        <extensions>
          <ns3:TrackPointExtension>
            <ns3:atemp>21.0</ns3:atemp>
          </ns3:TrackPointExtension>
        </extensions>
      </trkpt>
      <trkpt lat="42.55850172601640224456787109375" lon="20.10455475188791751861572265625">
        <ele>1884.4000244140625</ele>
        <time>2026-06-19T13:09:38.000Z</time>
        <extensions>
          <ns3:TrackPointExtension>
            <ns3:atemp>21.0</ns3:atemp>
          </ns3:TrackPointExtension>
        </extensions>
      </trkpt>
      <trkpt lat="42.55848965607583522796630859375" lon="20.10455458424985408782958984375">
        <ele>1884</ele>
        <time>2026-06-19T13:09:39.000Z</time>
        <extensions>
          <ns3:TrackPointExtension>
            <ns3:atemp>21.0</ns3:atemp>
          </ns3:TrackPointExtension>
        </extensions>
      </trkpt>
      <trkpt lat="42.55848697386682033538818359375" lon="20.10455324314534664154052734375">
        <ele>1883.800048828125</ele>
        <time>2026-06-19T13:09:40.000Z</time>
        <extensions>
          <ns3:TrackPointExtension>
            <ns3:atemp>21.0</ns3:atemp>
          </ns3:TrackPointExtension>
        </extensions>
      </trkpt>
      <trkpt lat="42.55848362110555171966552734375" lon="20.10455374605953693389892578125">
        <ele>1883.5999755859375</ele>
        <time>2026-06-19T13:09:41.000Z</time>
        <extensions>
          <ns3:TrackPointExtension>
            <ns3:atemp>21.0</ns3:atemp>
          </ns3:TrackPointExtension>
        </extensions>
      </trkpt>
      <trkpt lat="42.55848370492458343505859375" lon="20.1045538298785686492919921875">
        <ele>1883.4000244140625</ele>
        <time>2026-06-19T13:09:42.000Z</time>
        <extensions>
          <ns3:TrackPointExtension>
            <ns3:atemp>21.0</ns3:atemp>
          </ns3:TrackPointExtension>
        </extensions>
      </trkpt>
      <trkpt lat="42.55848370492458343505859375" lon="20.1045538298785686492919921875">
        <ele>1883.199951171875</ele>
        <time>2026-06-19T13:09:43.000Z</time>
        <extensions>
          <ns3:TrackPointExtension>
            <ns3:atemp>22.0</ns3:atemp>
          </ns3:TrackPointExtension>
        </extensions>
      </trkpt>
      <trkpt lat="42.55848370492458343505859375" lon="20.1045538298785686492919921875">
        <ele>1883</ele>
        <time>2026-06-19T13:09:44.000Z</time>
        <extensions>
          <ns3:TrackPointExtension>
            <ns3:atemp>22.0</ns3:atemp>
          </ns3:TrackPointExtension>
        </extensions>
      </trkpt>
      <trkpt lat="42.55848370492458343505859375" lon="20.1045538298785686492919921875">
        <ele>1883</ele>
        <time>2026-06-19T13:09:45.000Z</time>
        <extensions>
          <ns3:TrackPointExtension>
            <ns3:atemp>22.0</ns3:atemp>
          </ns3:TrackPointExtension>
        </extensions>
      </trkpt>
      <trkpt lat="42.55848370492458343505859375" lon="20.1045538298785686492919921875">
        <ele>1882.800048828125</ele>
        <time>2026-06-19T13:09:46.000Z</time>
        <extensions>
          <ns3:TrackPointExtension>
            <ns3:atemp>22.0</ns3:atemp>
          </ns3:TrackPointExtension>
        </extensions>
      </trkpt>
      <trkpt lat="42.55848370492458343505859375" lon="20.1045538298785686492919921875">
        <ele>1882.800048828125</ele>
        <time>2026-06-19T13:09:47.000Z</time>
        <extensions>
          <ns3:TrackPointExtension>
            <ns3:atemp>22.0</ns3:atemp>
          </ns3:TrackPointExtension>
        </extensions>
      </trkpt>
      <trkpt lat="42.55848370492458343505859375" lon="20.1045538298785686492919921875">
        <ele>1882.800048828125</ele>
        <time>2026-06-19T13:09:48.000Z</time>
        <extensions>
          <ns3:TrackPointExtension>
            <ns3:atemp>21.0</ns3:atemp>
          </ns3:TrackPointExtension>
        </extensions>
      </trkpt>
      <trkpt lat="42.55848370492458343505859375" lon="20.1045538298785686492919921875">
        <ele>1882.800048828125</ele>
        <time>2026-06-19T13:09:49.000Z</time>
        <extensions>
          <ns3:TrackPointExtension>
            <ns3:atemp>22.0</ns3:atemp>
          </ns3:TrackPointExtension>
        </extensions>
      </trkpt>
      <trkpt lat="42.55848370492458343505859375" lon="20.1045538298785686492919921875">
        <ele>1882.800048828125</ele>
        <time>2026-06-19T13:09:50.000Z</time>
        <extensions>
          <ns3:TrackPointExtension>
            <ns3:atemp>21.0</ns3:atemp>
          </ns3:TrackPointExtension>
        </extensions>
      </trkpt>
      <trkpt lat="42.55848370492458343505859375" lon="20.1045538298785686492919921875">
        <ele>1882.800048828125</ele>
        <time>2026-06-19T13:09:51.000Z</time>
        <extensions>
          <ns3:TrackPointExtension>
            <ns3:atemp>21.0</ns3:atemp>
          </ns3:TrackPointExtension>
        </extensions>
      </trkpt>
      <trkpt lat="42.55848370492458343505859375" lon="20.1045538298785686492919921875">
        <ele>1882.800048828125</ele>
        <time>2026-06-19T13:09:52.000Z</time>
        <extensions>
          <ns3:TrackPointExtension>
            <ns3:atemp>21.0</ns3:atemp>
          </ns3:TrackPointExtension>
        </extensions>
      </trkpt>
      <trkpt lat="42.55848370492458343505859375" lon="20.1045538298785686492919921875">
        <ele>1882.800048828125</ele>
        <time>2026-06-19T13:09:53.000Z</time>
        <extensions>
          <ns3:TrackPointExtension>
            <ns3:atemp>22.0</ns3:atemp>
          </ns3:TrackPointExtension>
        </extensions>
      </trkpt>
      <trkpt lat="42.55848370492458343505859375" lon="20.1045538298785686492919921875">
        <ele>1882.800048828125</ele>
        <time>2026-06-19T13:09:54.000Z</time>
        <extensions>
          <ns3:TrackPointExtension>
            <ns3:atemp>22.0</ns3:atemp>
          </ns3:TrackPointExtension>
        </extensions>
      </trkpt>
      <trkpt lat="42.55848370492458343505859375" lon="20.1045538298785686492919921875">
        <ele>1882.800048828125</ele>
        <time>2026-06-19T13:09:55.000Z</time>
        <extensions>
          <ns3:TrackPointExtension>
            <ns3:atemp>22.0</ns3:atemp>
          </ns3:TrackPointExtension>
        </extensions>
      </trkpt>
      <trkpt lat="42.55848370492458343505859375" lon="20.1045538298785686492919921875">
        <ele>1882.800048828125</ele>
        <time>2026-06-19T13:09:56.000Z</time>
        <extensions>
          <ns3:TrackPointExtension>
            <ns3:atemp>22.0</ns3:atemp>
          </ns3:TrackPointExtension>
        </extensions>
      </trkpt>
      <trkpt lat="42.55848311819136142730712890625" lon="20.1045568473637104034423828125">
        <ele>1882.800048828125</ele>
        <time>2026-06-19T13:09:57.000Z</time>
        <extensions>
          <ns3:TrackPointExtension>
            <ns3:atemp>22.0</ns3:atemp>
          </ns3:TrackPointExtension>
        </extensions>
      </trkpt>
      <trkpt lat="42.55846383981406688690185546875" lon="20.1045565120875835418701171875">
        <ele>1882.800048828125</ele>
        <time>2026-06-19T13:09:58.000Z</time>
        <extensions>
          <ns3:TrackPointExtension>
            <ns3:atemp>22.0</ns3:atemp>
          </ns3:TrackPointExtension>
        </extensions>
      </trkpt>
      <trkpt lat="42.5584446452558040618896484375" lon="20.10454930365085601806640625">
        <ele>1882.5999755859375</ele>
        <time>2026-06-19T13:09:59.000Z</time>
        <extensions>
          <ns3:TrackPointExtension>
            <ns3:atemp>21.0</ns3:atemp>
          </ns3:TrackPointExtension>
        </extensions>
      </trkpt>
      <trkpt lat="42.5584225170314311981201171875" lon="20.10454335249960422515869140625">
        <ele>1882.4000244140625</ele>
        <time>2026-06-19T13:10:00.000Z</time>
        <extensions>
          <ns3:TrackPointExtension>
            <ns3:atemp>22.0</ns3:atemp>
          </ns3:TrackPointExtension>
        </extensions>
      </trkpt>
      <trkpt lat="42.558397538959980010986328125" lon="20.10454720817506313323974609375">
        <ele>1882.199951171875</ele>
        <time>2026-06-19T13:10:01.000Z</time>
        <extensions>
          <ns3:TrackPointExtension>
            <ns3:atemp>22.0</ns3:atemp>
          </ns3:TrackPointExtension>
        </extensions>
      </trkpt>
      <trkpt lat="42.55837105214595794677734375" lon="20.10455324314534664154052734375">
        <ele>1881.800048828125</ele>
        <time>2026-06-19T13:10:02.000Z</time>
        <extensions>
          <ns3:TrackPointExtension>
            <ns3:atemp>21.0</ns3:atemp>
          </ns3:TrackPointExtension>
        </extensions>
      </trkpt>
      <trkpt lat="42.55834129638969898223876953125" lon="20.1045612059533596038818359375">
        <ele>1881.199951171875</ele>
        <time>2026-06-19T13:10:03.000Z</time>
        <extensions>
          <ns3:TrackPointExtension>
            <ns3:atemp>21.0</ns3:atemp>
          </ns3:TrackPointExtension>
        </extensions>
      </trkpt>
      <trkpt lat="42.55830491892993450164794921875" lon="20.1045699231326580047607421875">
        <ele>1880.800048828125</ele>
        <time>2026-06-19T13:10:04.000Z</time>
        <extensions>
          <ns3:TrackPointExtension>
            <ns3:atemp>21.0</ns3:atemp>
          </ns3:TrackPointExtension>
        </extensions>
      </trkpt>
      <trkpt lat="42.55826921202242374420166015625" lon="20.10457755066454410552978515625">
        <ele>1880.199951171875</ele>
        <time>2026-06-19T13:10:05.000Z</time>
        <extensions>
          <ns3:TrackPointExtension>
            <ns3:atemp>21.0</ns3:atemp>
          </ns3:TrackPointExtension>
        </extensions>
      </trkpt>
      <trkpt lat="42.55823400802910327911376953125" lon="20.1045762933790683746337890625">
        <ele>1879.5999755859375</ele>
        <time>2026-06-19T13:10:06.000Z</time>
        <extensions>
          <ns3:TrackPointExtension>
            <ns3:atemp>21.0</ns3:atemp>
          </ns3:TrackPointExtension>
        </extensions>
      </trkpt>
      <trkpt lat="42.55819209851324558258056640625" lon="20.10456833057105541229248046875">
        <ele>1879</ele>
        <time>2026-06-19T13:10:07.000Z</time>
        <extensions>
          <ns3:TrackPointExtension>
            <ns3:atemp>21.0</ns3:atemp>
          </ns3:TrackPointExtension>
        </extensions>
      </trkpt>
      <trkpt lat="42.5581504404544830322265625" lon="20.10455726645886898040771484375">
        <ele>1878.4000244140625</ele>
        <time>2026-06-19T13:10:08.000Z</time>
        <extensions>
          <ns3:TrackPointExtension>
            <ns3:atemp>21.0</ns3:atemp>
          </ns3:TrackPointExtension>
        </extensions>
      </trkpt>
      <trkpt lat="42.55811330862343311309814453125" lon="20.10454871691763401031494140625">
        <ele>1877.800048828125</ele>
        <time>2026-06-19T13:10:09.000Z</time>
        <extensions>
          <ns3:TrackPointExtension>
            <ns3:atemp>21.0</ns3:atemp>
          </ns3:TrackPointExtension>
        </extensions>
      </trkpt>
      <trkpt lat="42.5580726563930511474609375" lon="20.1045461185276508331298828125">
        <ele>1877.4000244140625</ele>
        <time>2026-06-19T13:10:10.000Z</time>
        <extensions>
          <ns3:TrackPointExtension>
            <ns3:atemp>21.0</ns3:atemp>
          </ns3:TrackPointExtension>
        </extensions>
      </trkpt>
      <trkpt lat="42.55803711712360382080078125" lon="20.1045575179159641265869140625">
        <ele>1876.5999755859375</ele>
        <time>2026-06-19T13:10:11.000Z</time>
        <extensions>
          <ns3:TrackPointExtension>
            <ns3:atemp>21.0</ns3:atemp>
          </ns3:TrackPointExtension>
        </extensions>
      </trkpt>
      <trkpt lat="42.5580029189586639404296875" lon="20.1045860163867473602294921875">
        <ele>1876.199951171875</ele>
        <time>2026-06-19T13:10:12.000Z</time>
        <extensions>
          <ns3:TrackPointExtension>
            <ns3:atemp>22.0</ns3:atemp>
          </ns3:TrackPointExtension>
        </extensions>
      </trkpt>
      <trkpt lat="42.557981126010417938232421875" lon="20.10461325757205486297607421875">
        <ele>1875.800048828125</ele>
        <time>2026-06-19T13:10:13.000Z</time>
        <extensions>
          <ns3:TrackPointExtension>
            <ns3:atemp>22.0</ns3:atemp>
          </ns3:TrackPointExtension>
        </extensions>
      </trkpt>
      <trkpt lat="42.55797182209789752960205078125" lon="20.104640163481235504150390625">
        <ele>1875.4000244140625</ele>
        <time>2026-06-19T13:10:14.000Z</time>
        <extensions>
          <ns3:TrackPointExtension>
            <ns3:atemp>22.0</ns3:atemp>
          </ns3:TrackPointExtension>
        </extensions>
      </trkpt>
      <trkpt lat="42.5579695589840412139892578125" lon="20.10467226617038249969482421875">
        <ele>1875</ele>
        <time>2026-06-19T13:10:15.000Z</time>
        <extensions>
          <ns3:TrackPointExtension>
            <ns3:atemp>22.0</ns3:atemp>
          </ns3:TrackPointExtension>
        </extensions>
      </trkpt>
      <trkpt lat="42.557969391345977783203125" lon="20.10471132583916187286376953125">
        <ele>1874.800048828125</ele>
        <time>2026-06-19T13:10:16.000Z</time>
        <extensions>
          <ns3:TrackPointExtension>
            <ns3:atemp>22.0</ns3:atemp>
          </ns3:TrackPointExtension>
        </extensions>
      </trkpt>
      <trkpt lat="42.557956315577030181884765625" lon="20.10475449264049530029296875">
        <ele>1874.4000244140625</ele>
        <time>2026-06-19T13:10:17.000Z</time>
        <extensions>
          <ns3:TrackPointExtension>
            <ns3:atemp>22.0</ns3:atemp>
          </ns3:TrackPointExtension>
        </extensions>
      </trkpt>
      <trkpt lat="42.55794080905616283416748046875" lon="20.1047895289957523345947265625">
        <ele>1874.4000244140625</ele>
        <time>2026-06-19T13:10:18.000Z</time>
        <extensions>
          <ns3:TrackPointExtension>
            <ns3:atemp>22.0</ns3:atemp>
          </ns3:TrackPointExtension>
        </extensions>
      </trkpt>
      <trkpt lat="42.5579289905726909637451171875" lon="20.10481475852429866790771484375">
        <ele>1874.199951171875</ele>
        <time>2026-06-19T13:10:19.000Z</time>
        <extensions>
          <ns3:TrackPointExtension>
            <ns3:atemp>22.0</ns3:atemp>
          </ns3:TrackPointExtension>
        </extensions>
      </trkpt>
      <trkpt lat="42.557918094098567962646484375" lon="20.1048337854444980621337890625">
        <ele>1874.199951171875</ele>
        <time>2026-06-19T13:10:20.000Z</time>
        <extensions>
          <ns3:TrackPointExtension>
            <ns3:atemp>22.0</ns3:atemp>
          </ns3:TrackPointExtension>
        </extensions>
      </trkpt>
      <trkpt lat="42.55790694616734981536865234375" lon="20.10485172271728515625">
        <ele>1874.4000244140625</ele>
        <time>2026-06-19T13:10:21.000Z</time>
        <extensions>
          <ns3:TrackPointExtension>
            <ns3:atemp>22.0</ns3:atemp>
          </ns3:TrackPointExtension>
        </extensions>
      </trkpt>
      <trkpt lat="42.55789739079773426055908203125" lon="20.10487108491361141204833984375">
        <ele>1874.4000244140625</ele>
        <time>2026-06-19T13:10:22.000Z</time>
        <extensions>
          <ns3:TrackPointExtension>
            <ns3:atemp>22.0</ns3:atemp>
          </ns3:TrackPointExtension>
        </extensions>
      </trkpt>
      <trkpt lat="42.5578827224671840667724609375" lon="20.104886591434478759765625">
        <ele>1874.5999755859375</ele>
        <time>2026-06-19T13:10:23.000Z</time>
        <extensions>
          <ns3:TrackPointExtension>
            <ns3:atemp>22.0</ns3:atemp>
          </ns3:TrackPointExtension>
        </extensions>
      </trkpt>
      <trkpt lat="42.55787123925983905792236328125" lon="20.10489572770893573760986328125">
        <ele>1874.5999755859375</ele>
        <time>2026-06-19T13:10:24.000Z</time>
        <extensions>
          <ns3:TrackPointExtension>
            <ns3:atemp>22.0</ns3:atemp>
          </ns3:TrackPointExtension>
        </extensions>
      </trkpt>
      <trkpt lat="42.55786721594631671905517578125" lon="20.104893632233142852783203125">
        <ele>1874.5999755859375</ele>
        <time>2026-06-19T13:10:25.000Z</time>
        <extensions>
          <ns3:TrackPointExtension>
            <ns3:atemp>22.0</ns3:atemp>
          </ns3:TrackPointExtension>
        </extensions>
      </trkpt>
      <trkpt lat="42.5578646175563335418701171875" lon="20.1048914529383182525634765625">
        <ele>1874.5999755859375</ele>
        <time>2026-06-19T13:10:26.000Z</time>
        <extensions>
          <ns3:TrackPointExtension>
            <ns3:atemp>22.0</ns3:atemp>
          </ns3:TrackPointExtension>
        </extensions>
      </trkpt>
      <trkpt lat="42.5578646175563335418701171875" lon="20.10489153675734996795654296875">
        <ele>1874.5999755859375</ele>
        <time>2026-06-19T13:10:27.000Z</time>
        <extensions>
          <ns3:TrackPointExtension>
            <ns3:atemp>22.0</ns3:atemp>
          </ns3:TrackPointExtension>
        </extensions>
      </trkpt>
      <trkpt lat="42.5578646175563335418701171875" lon="20.10489153675734996795654296875">
        <ele>1874.5999755859375</ele>
        <time>2026-06-19T13:10:28.000Z</time>
        <extensions>
          <ns3:TrackPointExtension>
            <ns3:atemp>22.0</ns3:atemp>
          </ns3:TrackPointExtension>
        </extensions>
      </trkpt>
      <trkpt lat="42.5578646175563335418701171875" lon="20.10489153675734996795654296875">
        <ele>1874.5999755859375</ele>
        <time>2026-06-19T13:10:29.000Z</time>
        <extensions>
          <ns3:TrackPointExtension>
            <ns3:atemp>22.0</ns3:atemp>
          </ns3:TrackPointExtension>
        </extensions>
      </trkpt>
      <trkpt lat="42.5578646175563335418701171875" lon="20.10489153675734996795654296875">
        <ele>1874.5999755859375</ele>
        <time>2026-06-19T13:10:30.000Z</time>
        <extensions>
          <ns3:TrackPointExtension>
            <ns3:atemp>21.0</ns3:atemp>
          </ns3:TrackPointExtension>
        </extensions>
      </trkpt>
      <trkpt lat="42.5578646175563335418701171875" lon="20.10489153675734996795654296875">
        <ele>1874.5999755859375</ele>
        <time>2026-06-19T13:10:31.000Z</time>
        <extensions>
          <ns3:TrackPointExtension>
            <ns3:atemp>21.0</ns3:atemp>
          </ns3:TrackPointExtension>
        </extensions>
      </trkpt>
      <trkpt lat="42.5578646175563335418701171875" lon="20.10489153675734996795654296875">
        <ele>1874.5999755859375</ele>
        <time>2026-06-19T13:10:32.000Z</time>
        <extensions>
          <ns3:TrackPointExtension>
            <ns3:atemp>22.0</ns3:atemp>
          </ns3:TrackPointExtension>
        </extensions>
      </trkpt>
      <trkpt lat="42.5578646175563335418701171875" lon="20.10489153675734996795654296875">
        <ele>1874.4000244140625</ele>
        <time>2026-06-19T13:10:33.000Z</time>
        <extensions>
          <ns3:TrackPointExtension>
            <ns3:atemp>22.0</ns3:atemp>
          </ns3:TrackPointExtension>
        </extensions>
      </trkpt>
      <trkpt lat="42.5578646175563335418701171875" lon="20.10489153675734996795654296875">
        <ele>1874.4000244140625</ele>
        <time>2026-06-19T13:10:34.000Z</time>
        <extensions>
          <ns3:TrackPointExtension>
            <ns3:atemp>21.0</ns3:atemp>
          </ns3:TrackPointExtension>
        </extensions>
      </trkpt>
      <trkpt lat="42.5578646175563335418701171875" lon="20.10489203967154026031494140625">
        <ele>1874.4000244140625</ele>
        <time>2026-06-19T13:10:35.000Z</time>
        <extensions>
          <ns3:TrackPointExtension>
            <ns3:atemp>22.0</ns3:atemp>
          </ns3:TrackPointExtension>
        </extensions>
      </trkpt>
      <trkpt lat="42.55785816349089145660400390625" lon="20.10490980930626392364501953125">
        <ele>1874.199951171875</ele>
        <time>2026-06-19T13:10:36.000Z</time>
        <extensions>
          <ns3:TrackPointExtension>
            <ns3:atemp>21.0</ns3:atemp>
          </ns3:TrackPointExtension>
        </extensions>
      </trkpt>
      <trkpt lat="42.55785279907286167144775390625" lon="20.104937888681888580322265625">
        <ele>1874</ele>
        <time>2026-06-19T13:10:37.000Z</time>
        <extensions>
          <ns3:TrackPointExtension>
            <ns3:atemp>21.0</ns3:atemp>
          </ns3:TrackPointExtension>
        </extensions>
      </trkpt>
      <trkpt lat="42.55784709937870502471923828125" lon="20.1049719192087650299072265625">
        <ele>1874</ele>
        <time>2026-06-19T13:10:38.000Z</time>
        <extensions>
          <ns3:TrackPointExtension>
            <ns3:atemp>21.0</ns3:atemp>
          </ns3:TrackPointExtension>
        </extensions>
      </trkpt>
      <trkpt lat="42.5578419864177703857421875" lon="20.10500620119273662567138671875">
        <ele>1873.800048828125</ele>
        <time>2026-06-19T13:10:39.000Z</time>
        <extensions>
          <ns3:TrackPointExtension>
            <ns3:atemp>21.0</ns3:atemp>
          </ns3:TrackPointExtension>
        </extensions>
      </trkpt>
      <trkpt lat="42.557837963104248046875" lon="20.105045847594738006591796875">
        <ele>1873.5999755859375</ele>
        <time>2026-06-19T13:10:40.000Z</time>
        <extensions>
          <ns3:TrackPointExtension>
            <ns3:atemp>21.0</ns3:atemp>
          </ns3:TrackPointExtension>
        </extensions>
      </trkpt>
      <trkpt lat="42.55783771164715290069580078125" lon="20.10509236715734004974365234375">
        <ele>1873.4000244140625</ele>
        <time>2026-06-19T13:10:41.000Z</time>
        <extensions>
          <ns3:TrackPointExtension>
            <ns3:atemp>21.0</ns3:atemp>
          </ns3:TrackPointExtension>
        </extensions>
      </trkpt>
      <trkpt lat="42.55784475244581699371337890625" lon="20.1051398925483226776123046875">
        <ele>1873.199951171875</ele>
        <time>2026-06-19T13:10:42.000Z</time>
        <extensions>
          <ns3:TrackPointExtension>
            <ns3:atemp>21.0</ns3:atemp>
          </ns3:TrackPointExtension>
        </extensions>
      </trkpt>
      <trkpt lat="42.557856738567352294921875" lon="20.10519395582377910614013671875">
        <ele>1873</ele>
        <time>2026-06-19T13:10:43.000Z</time>
        <extensions>
          <ns3:TrackPointExtension>
            <ns3:atemp>21.0</ns3:atemp>
          </ns3:TrackPointExtension>
        </extensions>
      </trkpt>
      <trkpt lat="42.5578642822802066802978515625" lon="20.10524265468120574951171875">
        <ele>1872.800048828125</ele>
        <time>2026-06-19T13:10:44.000Z</time>
        <extensions>
          <ns3:TrackPointExtension>
            <ns3:atemp>21.0</ns3:atemp>
          </ns3:TrackPointExtension>
        </extensions>
      </trkpt>
      <trkpt lat="42.55787258036434650421142578125" lon="20.10529386810958385467529296875">
        <ele>1872.4000244140625</ele>
        <time>2026-06-19T13:10:45.000Z</time>
        <extensions>
          <ns3:TrackPointExtension>
            <ns3:atemp>21.0</ns3:atemp>
          </ns3:TrackPointExtension>
        </extensions>
      </trkpt>
      <trkpt lat="42.55788867361843585968017578125" lon="20.10534449480473995208740234375">
        <ele>1872.199951171875</ele>
        <time>2026-06-19T13:10:46.000Z</time>
        <extensions>
          <ns3:TrackPointExtension>
            <ns3:atemp>21.0</ns3:atemp>
          </ns3:TrackPointExtension>
        </extensions>
      </trkpt>
      <trkpt lat="42.55791868083178997039794921875" lon="20.10539042763411998748779296875">
        <ele>1871.5999755859375</ele>
        <time>2026-06-19T13:10:47.000Z</time>
        <extensions>
          <ns3:TrackPointExtension>
            <ns3:atemp>21.0</ns3:atemp>
          </ns3:TrackPointExtension>
        </extensions>
      </trkpt>
      <trkpt lat="42.5579544715583324432373046875" lon="20.1054198481142520904541015625">
        <ele>1871.4000244140625</ele>
        <time>2026-06-19T13:10:48.000Z</time>
        <extensions>
          <ns3:TrackPointExtension>
            <ns3:atemp>21.0</ns3:atemp>
          </ns3:TrackPointExtension>
        </extensions>
      </trkpt>
      <trkpt lat="42.55798808299005031585693359375" lon="20.1054446585476398468017578125">
        <ele>1871.199951171875</ele>
        <time>2026-06-19T13:10:49.000Z</time>
        <extensions>
          <ns3:TrackPointExtension>
            <ns3:atemp>21.0</ns3:atemp>
          </ns3:TrackPointExtension>
        </extensions>
      </trkpt>
      <trkpt lat="42.55801825784146785736083984375" lon="20.10547223500907421112060546875">
        <ele>1871</ele>
        <time>2026-06-19T13:10:50.000Z</time>
        <extensions>
          <ns3:TrackPointExtension>
            <ns3:atemp>21.0</ns3:atemp>
          </ns3:TrackPointExtension>
        </extensions>
      </trkpt>
      <trkpt lat="42.5580510310828685760498046875" lon="20.1055130548775196075439453125">
        <ele>1870.800048828125</ele>
        <time>2026-06-19T13:10:51.000Z</time>
        <extensions>
          <ns3:TrackPointExtension>
            <ns3:atemp>21.0</ns3:atemp>
          </ns3:TrackPointExtension>
        </extensions>
      </trkpt>
      <trkpt lat="42.55807399749755859375" lon="20.10557130910456180572509765625">
        <ele>1870.5999755859375</ele>
        <time>2026-06-19T13:10:52.000Z</time>
        <extensions>
          <ns3:TrackPointExtension>
            <ns3:atemp>21.0</ns3:atemp>
          </ns3:TrackPointExtension>
        </extensions>
      </trkpt>
      <trkpt lat="42.5580862350761890411376953125" lon="20.10563333518803119659423828125">
        <ele>1870.199951171875</ele>
        <time>2026-06-19T13:10:53.000Z</time>
        <extensions>
          <ns3:TrackPointExtension>
            <ns3:atemp>21.0</ns3:atemp>
          </ns3:TrackPointExtension>
        </extensions>
      </trkpt>
      <trkpt lat="42.558095119893550872802734375" lon="20.105704329907894134521484375">
        <ele>1869.800048828125</ele>
        <time>2026-06-19T13:10:54.000Z</time>
        <extensions>
          <ns3:TrackPointExtension>
            <ns3:atemp>21.0</ns3:atemp>
          </ns3:TrackPointExtension>
        </extensions>
      </trkpt>
      <trkpt lat="42.55808363668620586395263671875" lon="20.105762667953968048095703125">
        <ele>1869.4000244140625</ele>
        <time>2026-06-19T13:10:55.000Z</time>
        <extensions>
          <ns3:TrackPointExtension>
            <ns3:atemp>21.0</ns3:atemp>
          </ns3:TrackPointExtension>
        </extensions>
      </trkpt>
      <trkpt lat="42.558064945042133331298828125" lon="20.1058171503245830535888671875">
        <ele>1869.199951171875</ele>
        <time>2026-06-19T13:10:56.000Z</time>
        <extensions>
          <ns3:TrackPointExtension>
            <ns3:atemp>21.0</ns3:atemp>
          </ns3:TrackPointExtension>
        </extensions>
      </trkpt>
      <trkpt lat="42.5580490194261074066162109375" lon="20.10585847310721874237060546875">
        <ele>1869</ele>
        <time>2026-06-19T13:10:57.000Z</time>
        <extensions>
          <ns3:TrackPointExtension>
            <ns3:atemp>21.0</ns3:atemp>
          </ns3:TrackPointExtension>
        </extensions>
      </trkpt>
      <trkpt lat="42.55804122425615787506103515625" lon="20.10590071789920330047607421875">
        <ele>1868.800048828125</ele>
        <time>2026-06-19T13:10:58.000Z</time>
        <extensions>
          <ns3:TrackPointExtension>
            <ns3:atemp>21.0</ns3:atemp>
          </ns3:TrackPointExtension>
        </extensions>
      </trkpt>
      <trkpt lat="42.55803300999104976654052734375" lon="20.105935670435428619384765625">
        <ele>1868.800048828125</ele>
        <time>2026-06-19T13:10:59.000Z</time>
        <extensions>
          <ns3:TrackPointExtension>
            <ns3:atemp>21.0</ns3:atemp>
          </ns3:TrackPointExtension>
        </extensions>
      </trkpt>
      <trkpt lat="42.55802865140140056610107421875" lon="20.10597364045679569244384765625">
        <ele>1868.800048828125</ele>
        <time>2026-06-19T13:11:00.000Z</time>
        <extensions>
          <ns3:TrackPointExtension>
            <ns3:atemp>21.0</ns3:atemp>
          </ns3:TrackPointExtension>
        </extensions>
      </trkpt>
      <trkpt lat="42.5580175034701824188232421875" lon="20.10601756162941455841064453125">
        <ele>1868.800048828125</ele>
        <time>2026-06-19T13:11:01.000Z</time>
        <extensions>
          <ns3:TrackPointExtension>
            <ns3:atemp>21.0</ns3:atemp>
          </ns3:TrackPointExtension>
        </extensions>
      </trkpt>
      <trkpt lat="42.55800065584480762481689453125" lon="20.10604538954794406890869140625">
        <ele>1868.800048828125</ele>
        <time>2026-06-19T13:11:02.000Z</time>
        <extensions>
          <ns3:TrackPointExtension>
            <ns3:atemp>21.0</ns3:atemp>
          </ns3:TrackPointExtension>
        </extensions>
      </trkpt>
      <trkpt lat="42.55799311213195323944091796875" lon="20.1060676015913486480712890625">
        <ele>1868.800048828125</ele>
        <time>2026-06-19T13:11:03.000Z</time>
        <extensions>
          <ns3:TrackPointExtension>
            <ns3:atemp>21.0</ns3:atemp>
          </ns3:TrackPointExtension>
        </extensions>
      </trkpt>
      <trkpt lat="42.55798556841909885406494140625" lon="20.1060841977596282958984375">
        <ele>1868.800048828125</ele>
        <time>2026-06-19T13:11:04.000Z</time>
        <extensions>
          <ns3:TrackPointExtension>
            <ns3:atemp>21.0</ns3:atemp>
          </ns3:TrackPointExtension>
        </extensions>
      </trkpt>
      <trkpt lat="42.55798238329589366912841796875" lon="20.10609735734760761260986328125">
        <ele>1868.800048828125</ele>
        <time>2026-06-19T13:11:05.000Z</time>
        <extensions>
          <ns3:TrackPointExtension>
            <ns3:atemp>21.0</ns3:atemp>
          </ns3:TrackPointExtension>
        </extensions>
      </trkpt>
      <trkpt lat="42.55797433666884899139404296875" lon="20.1061034761369228363037109375">
        <ele>1868.800048828125</ele>
        <time>2026-06-19T13:11:06.000Z</time>
        <extensions>
          <ns3:TrackPointExtension>
            <ns3:atemp>21.0</ns3:atemp>
          </ns3:TrackPointExtension>
        </extensions>
      </trkpt>
      <trkpt lat="42.55797266028821468353271484375" lon="20.10610473342239856719970703125">
        <ele>1868.800048828125</ele>
        <time>2026-06-19T13:11:07.000Z</time>
        <extensions>
          <ns3:TrackPointExtension>
            <ns3:atemp>21.0</ns3:atemp>
          </ns3:TrackPointExtension>
        </extensions>
      </trkpt>
      <trkpt lat="42.55797869525849819183349609375" lon="20.1061021350324153900146484375">
        <ele>1868.800048828125</ele>
        <time>2026-06-19T13:11:08.000Z</time>
        <extensions>
          <ns3:TrackPointExtension>
            <ns3:atemp>21.0</ns3:atemp>
          </ns3:TrackPointExtension>
        </extensions>
      </trkpt>
      <trkpt lat="42.55797852762043476104736328125" lon="20.10610230267047882080078125">
        <ele>1868.800048828125</ele>
        <time>2026-06-19T13:11:09.000Z</time>
        <extensions>
          <ns3:TrackPointExtension>
            <ns3:atemp>21.0</ns3:atemp>
          </ns3:TrackPointExtension>
        </extensions>
      </trkpt>
      <trkpt lat="42.55797852762043476104736328125" lon="20.10610230267047882080078125">
        <ele>1868.800048828125</ele>
        <time>2026-06-19T13:11:10.000Z</time>
        <extensions>
          <ns3:TrackPointExtension>
            <ns3:atemp>21.0</ns3:atemp>
          </ns3:TrackPointExtension>
        </extensions>
      </trkpt>
      <trkpt lat="42.55797852762043476104736328125" lon="20.10610230267047882080078125">
        <ele>1868.800048828125</ele>
        <time>2026-06-19T13:11:11.000Z</time>
        <extensions>
          <ns3:TrackPointExtension>
            <ns3:atemp>21.0</ns3:atemp>
          </ns3:TrackPointExtension>
        </extensions>
      </trkpt>
      <trkpt lat="42.55797852762043476104736328125" lon="20.10610230267047882080078125">
        <ele>1868.5999755859375</ele>
        <time>2026-06-19T13:11:12.000Z</time>
        <extensions>
          <ns3:TrackPointExtension>
            <ns3:atemp>21.0</ns3:atemp>
          </ns3:TrackPointExtension>
        </extensions>
      </trkpt>
      <trkpt lat="42.55797852762043476104736328125" lon="20.10610230267047882080078125">
        <ele>1868.5999755859375</ele>
        <time>2026-06-19T13:11:13.000Z</time>
        <extensions>
          <ns3:TrackPointExtension>
            <ns3:atemp>21.0</ns3:atemp>
          </ns3:TrackPointExtension>
        </extensions>
      </trkpt>
      <trkpt lat="42.55797852762043476104736328125" lon="20.10610230267047882080078125">
        <ele>1868.5999755859375</ele>
        <time>2026-06-19T13:11:14.000Z</time>
        <extensions>
          <ns3:TrackPointExtension>
            <ns3:atemp>21.0</ns3:atemp>
          </ns3:TrackPointExtension>
        </extensions>
      </trkpt>
      <trkpt lat="42.55797852762043476104736328125" lon="20.10610230267047882080078125">
        <ele>1868.4000244140625</ele>
        <time>2026-06-19T13:11:15.000Z</time>
        <extensions>
          <ns3:TrackPointExtension>
            <ns3:atemp>21.0</ns3:atemp>
          </ns3:TrackPointExtension>
        </extensions>
      </trkpt>
      <trkpt lat="42.55797852762043476104736328125" lon="20.10610230267047882080078125">
        <ele>1868.4000244140625</ele>
        <time>2026-06-19T13:11:16.000Z</time>
        <extensions>
          <ns3:TrackPointExtension>
            <ns3:atemp>21.0</ns3:atemp>
          </ns3:TrackPointExtension>
        </extensions>
      </trkpt>
      <trkpt lat="42.55797852762043476104736328125" lon="20.10610230267047882080078125">
        <ele>1868.4000244140625</ele>
        <time>2026-06-19T13:11:17.000Z</time>
        <extensions>
          <ns3:TrackPointExtension>
            <ns3:atemp>21.0</ns3:atemp>
          </ns3:TrackPointExtension>
        </extensions>
      </trkpt>
      <trkpt lat="42.55797852762043476104736328125" lon="20.10610230267047882080078125">
        <ele>1868.199951171875</ele>
        <time>2026-06-19T13:11:18.000Z</time>
        <extensions>
          <ns3:TrackPointExtension>
            <ns3:atemp>21.0</ns3:atemp>
          </ns3:TrackPointExtension>
        </extensions>
      </trkpt>
      <trkpt lat="42.55797852762043476104736328125" lon="20.10610230267047882080078125">
        <ele>1868.199951171875</ele>
        <time>2026-06-19T13:11:19.000Z</time>
        <extensions>
          <ns3:TrackPointExtension>
            <ns3:atemp>21.0</ns3:atemp>
          </ns3:TrackPointExtension>
        </extensions>
      </trkpt>
      <trkpt lat="42.55797852762043476104736328125" lon="20.10610230267047882080078125">
        <ele>1868.199951171875</ele>
        <time>2026-06-19T13:11:20.000Z</time>
        <extensions>
          <ns3:TrackPointExtension>
            <ns3:atemp>21.0</ns3:atemp>
          </ns3:TrackPointExtension>
        </extensions>
      </trkpt>
      <trkpt lat="42.557977773249149322509765625" lon="20.10610288940370082855224609375">
        <ele>1868.199951171875</ele>
        <time>2026-06-19T13:11:21.000Z</time>
        <extensions>
          <ns3:TrackPointExtension>
            <ns3:atemp>21.0</ns3:atemp>
          </ns3:TrackPointExtension>
        </extensions>
      </trkpt>
      <trkpt lat="42.55796913988888263702392578125" lon="20.106118060648441314697265625">
        <ele>1868</ele>
        <time>2026-06-19T13:11:22.000Z</time>
        <extensions>
          <ns3:TrackPointExtension>
            <ns3:atemp>21.0</ns3:atemp>
          </ns3:TrackPointExtension>
        </extensions>
      </trkpt>
      <trkpt lat="42.5579561479389667510986328125" lon="20.1061432063579559326171875">
        <ele>1868</ele>
        <time>2026-06-19T13:11:23.000Z</time>
        <extensions>
          <ns3:TrackPointExtension>
            <ns3:atemp>21.0</ns3:atemp>
          </ns3:TrackPointExtension>
        </extensions>
      </trkpt>
      <trkpt lat="42.55794784985482692718505859375" lon="20.10617128573358058929443359375">
        <ele>1868</ele>
        <time>2026-06-19T13:11:24.000Z</time>
        <extensions>
          <ns3:TrackPointExtension>
            <ns3:atemp>21.0</ns3:atemp>
          </ns3:TrackPointExtension>
        </extensions>
      </trkpt>
      <trkpt lat="42.5579380430281162261962890625" lon="20.10620146058499813079833984375">
        <ele>1868</ele>
        <time>2026-06-19T13:11:25.000Z</time>
        <extensions>
          <ns3:TrackPointExtension>
            <ns3:atemp>21.0</ns3:atemp>
          </ns3:TrackPointExtension>
        </extensions>
      </trkpt>
      <trkpt lat="42.55792957730591297149658203125" lon="20.106234736740589141845703125">
        <ele>1868</ele>
        <time>2026-06-19T13:11:26.000Z</time>
        <extensions>
          <ns3:TrackPointExtension>
            <ns3:atemp>21.0</ns3:atemp>
          </ns3:TrackPointExtension>
        </extensions>
      </trkpt>
      <trkpt lat="42.55792086012661457061767578125" lon="20.1062744669616222381591796875">
        <ele>1868</ele>
        <time>2026-06-19T13:11:27.000Z</time>
        <extensions>
          <ns3:TrackPointExtension>
            <ns3:atemp>21.0</ns3:atemp>
          </ns3:TrackPointExtension>
        </extensions>
      </trkpt>
      <trkpt lat="42.5579090416431427001953125" lon="20.10631629265844821929931640625">
        <ele>1868</ele>
        <time>2026-06-19T13:11:28.000Z</time>
        <extensions>
          <ns3:TrackPointExtension>
            <ns3:atemp>21.0</ns3:atemp>
          </ns3:TrackPointExtension>
        </extensions>
      </trkpt>
      <trkpt lat="42.55789705552160739898681640625" lon="20.10636390186846256256103515625">
        <ele>1868</ele>
        <time>2026-06-19T13:11:29.000Z</time>
        <extensions>
          <ns3:TrackPointExtension>
            <ns3:atemp>21.0</ns3:atemp>
          </ns3:TrackPointExtension>
        </extensions>
      </trkpt>
      <trkpt lat="42.55788381211459636688232421875" lon="20.10640480555593967437744140625">
        <ele>1868</ele>
        <time>2026-06-19T13:11:30.000Z</time>
        <extensions>
          <ns3:TrackPointExtension>
            <ns3:atemp>21.0</ns3:atemp>
          </ns3:TrackPointExtension>
        </extensions>
      </trkpt>
      <trkpt lat="42.55787375383079051971435546875" lon="20.10644688270986080169677734375">
        <ele>1868</ele>
        <time>2026-06-19T13:11:31.000Z</time>
        <extensions>
          <ns3:TrackPointExtension>
            <ns3:atemp>21.0</ns3:atemp>
          </ns3:TrackPointExtension>
        </extensions>
      </trkpt>
      <trkpt lat="42.5578616000711917877197265625" lon="20.1064892113208770751953125">
        <ele>1868</ele>
        <time>2026-06-19T13:11:32.000Z</time>
        <extensions>
          <ns3:TrackPointExtension>
            <ns3:atemp>21.0</ns3:atemp>
          </ns3:TrackPointExtension>
        </extensions>
      </trkpt>
      <trkpt lat="42.55785095505416393280029296875" lon="20.10652818717062473297119140625">
        <ele>1868</ele>
        <time>2026-06-19T13:11:33.000Z</time>
        <extensions>
          <ns3:TrackPointExtension>
            <ns3:atemp>21.0</ns3:atemp>
          </ns3:TrackPointExtension>
        </extensions>
      </trkpt>
      <trkpt lat="42.55784022621810436248779296875" lon="20.106563977897167205810546875">
        <ele>1868</ele>
        <time>2026-06-19T13:11:34.000Z</time>
        <extensions>
          <ns3:TrackPointExtension>
            <ns3:atemp>21.0</ns3:atemp>
          </ns3:TrackPointExtension>
        </extensions>
      </trkpt>
      <trkpt lat="42.5578310899436473846435546875" lon="20.10660463012754917144775390625">
        <ele>1868</ele>
        <time>2026-06-19T13:11:35.000Z</time>
        <extensions>
          <ns3:TrackPointExtension>
            <ns3:atemp>21.0</ns3:atemp>
          </ns3:TrackPointExtension>
        </extensions>
      </trkpt>
      <trkpt lat="42.557821534574031829833984375" lon="20.10664436034858226776123046875">
        <ele>1868</ele>
        <time>2026-06-19T13:11:36.000Z</time>
        <extensions>
          <ns3:TrackPointExtension>
            <ns3:atemp>21.0</ns3:atemp>
          </ns3:TrackPointExtension>
        </extensions>
      </trkpt>
      <trkpt lat="42.5578109733760356903076171875" lon="20.1066808216273784637451171875">
        <ele>1868</ele>
        <time>2026-06-19T13:11:37.000Z</time>
        <extensions>
          <ns3:TrackPointExtension>
            <ns3:atemp>21.0</ns3:atemp>
          </ns3:TrackPointExtension>
        </extensions>
      </trkpt>
      <trkpt lat="42.5578017532825469970703125" lon="20.1067113317549228668212890625">
        <ele>1868</ele>
        <time>2026-06-19T13:11:38.000Z</time>
        <extensions>
          <ns3:TrackPointExtension>
            <ns3:atemp>21.0</ns3:atemp>
          </ns3:TrackPointExtension>
        </extensions>
      </trkpt>
      <trkpt lat="42.55779831670224666595458984375" lon="20.1067394949495792388916015625">
        <ele>1868.199951171875</ele>
        <time>2026-06-19T13:11:39.000Z</time>
        <extensions>
          <ns3:TrackPointExtension>
            <ns3:atemp>21.0</ns3:atemp>
          </ns3:TrackPointExtension>
        </extensions>
      </trkpt>
      <trkpt lat="42.55779563449323177337646484375" lon="20.1067726872861385345458984375">
        <ele>1868.199951171875</ele>
        <time>2026-06-19T13:11:40.000Z</time>
        <extensions>
          <ns3:TrackPointExtension>
            <ns3:atemp>21.0</ns3:atemp>
          </ns3:TrackPointExtension>
        </extensions>
      </trkpt>
      <trkpt lat="42.55779546685516834259033203125" lon="20.106804035604000091552734375">
        <ele>1868.4000244140625</ele>
        <time>2026-06-19T13:11:41.000Z</time>
        <extensions>
          <ns3:TrackPointExtension>
            <ns3:atemp>21.0</ns3:atemp>
          </ns3:TrackPointExtension>
        </extensions>
      </trkpt>
      <trkpt lat="42.55779697559773921966552734375" lon="20.10684116743505001068115234375">
        <ele>1868.4000244140625</ele>
        <time>2026-06-19T13:11:42.000Z</time>
        <extensions>
          <ns3:TrackPointExtension>
            <ns3:atemp>21.0</ns3:atemp>
          </ns3:TrackPointExtension>
        </extensions>
      </trkpt>
      <trkpt lat="42.55779563449323177337646484375" lon="20.10687352158129215240478515625">
        <ele>1868.4000244140625</ele>
        <time>2026-06-19T13:11:43.000Z</time>
        <extensions>
          <ns3:TrackPointExtension>
            <ns3:atemp>21.0</ns3:atemp>
          </ns3:TrackPointExtension>
        </extensions>
      </trkpt>
      <trkpt lat="42.55779613740742206573486328125" lon="20.1069024391472339630126953125">
        <ele>1868.5999755859375</ele>
        <time>2026-06-19T13:11:44.000Z</time>
        <extensions>
          <ns3:TrackPointExtension>
            <ns3:atemp>21.0</ns3:atemp>
          </ns3:TrackPointExtension>
        </extensions>
      </trkpt>
      <trkpt lat="42.55779974162578582763671875" lon="20.10692917741835117340087890625">
        <ele>1868.800048828125</ele>
        <time>2026-06-19T13:11:45.000Z</time>
        <extensions>
          <ns3:TrackPointExtension>
            <ns3:atemp>21.0</ns3:atemp>
          </ns3:TrackPointExtension>
        </extensions>
      </trkpt>
      <trkpt lat="42.55779965780675411224365234375" lon="20.106948204338550567626953125">
        <ele>1869.199951171875</ele>
        <time>2026-06-19T13:11:46.000Z</time>
        <extensions>
          <ns3:TrackPointExtension>
            <ns3:atemp>21.0</ns3:atemp>
          </ns3:TrackPointExtension>
        </extensions>
      </trkpt>
      <trkpt lat="42.55780083127319812774658203125" lon="20.106969662010669708251953125">
        <ele>1869.5999755859375</ele>
        <time>2026-06-19T13:11:47.000Z</time>
        <extensions>
          <ns3:TrackPointExtension>
            <ns3:atemp>21.0</ns3:atemp>
          </ns3:TrackPointExtension>
        </extensions>
      </trkpt>
      <trkpt lat="42.5578012503683567047119140625" lon="20.10698743164539337158203125">
        <ele>1869.800048828125</ele>
        <time>2026-06-19T13:11:48.000Z</time>
        <extensions>
          <ns3:TrackPointExtension>
            <ns3:atemp>21.0</ns3:atemp>
          </ns3:TrackPointExtension>
        </extensions>
      </trkpt>
      <trkpt lat="42.55780242383480072021484375" lon="20.1070067100226879119873046875">
        <ele>1869.800048828125</ele>
        <time>2026-06-19T13:11:49.000Z</time>
        <extensions>
          <ns3:TrackPointExtension>
            <ns3:atemp>21.0</ns3:atemp>
          </ns3:TrackPointExtension>
        </extensions>
      </trkpt>
      <trkpt lat="42.55780636332929134368896484375" lon="20.10702841915190219879150390625">
        <ele>1870</ele>
        <time>2026-06-19T13:11:50.000Z</time>
        <extensions>
          <ns3:TrackPointExtension>
            <ns3:atemp>21.0</ns3:atemp>
          </ns3:TrackPointExtension>
        </extensions>
      </trkpt>
      <trkpt lat="42.55781315267086029052734375" lon="20.1070492900907993316650390625">
        <ele>1870</ele>
        <time>2026-06-19T13:11:51.000Z</time>
        <extensions>
          <ns3:TrackPointExtension>
            <ns3:atemp>21.0</ns3:atemp>
          </ns3:TrackPointExtension>
        </extensions>
      </trkpt>
      <trkpt lat="42.55781977437436580657958984375" lon="20.107072256505489349365234375">
        <ele>1870</ele>
        <time>2026-06-19T13:11:52.000Z</time>
        <extensions>
          <ns3:TrackPointExtension>
            <ns3:atemp>21.0</ns3:atemp>
          </ns3:TrackPointExtension>
        </extensions>
      </trkpt>
      <trkpt lat="42.55782765336334705352783203125" lon="20.107090361416339874267578125">
        <ele>1870</ele>
        <time>2026-06-19T13:11:53.000Z</time>
        <extensions>
          <ns3:TrackPointExtension>
            <ns3:atemp>21.0</ns3:atemp>
          </ns3:TrackPointExtension>
        </extensions>
      </trkpt>
      <trkpt lat="42.557832933962345123291015625" lon="20.1071072928607463836669921875">
        <ele>1870</ele>
        <time>2026-06-19T13:11:54.000Z</time>
        <extensions>
          <ns3:TrackPointExtension>
            <ns3:atemp>21.0</ns3:atemp>
          </ns3:TrackPointExtension>
        </extensions>
      </trkpt>
      <trkpt lat="42.55784106440842151641845703125" lon="20.107127241790294647216796875">
        <ele>1870</ele>
        <time>2026-06-19T13:11:55.000Z</time>
        <extensions>
          <ns3:TrackPointExtension>
            <ns3:atemp>21.0</ns3:atemp>
          </ns3:TrackPointExtension>
        </extensions>
      </trkpt>
      <trkpt lat="42.55784743465483188629150390625" lon="20.10714459232985973358154296875">
        <ele>1870</ele>
        <time>2026-06-19T13:11:56.000Z</time>
        <extensions>
          <ns3:TrackPointExtension>
            <ns3:atemp>21.0</ns3:atemp>
          </ns3:TrackPointExtension>
        </extensions>
      </trkpt>
      <trkpt lat="42.55785196088254451751708984375" lon="20.10714836418628692626953125">
        <ele>1870</ele>
        <time>2026-06-19T13:11:57.000Z</time>
        <extensions>
          <ns3:TrackPointExtension>
            <ns3:atemp>21.0</ns3:atemp>
          </ns3:TrackPointExtension>
        </extensions>
      </trkpt>
      <trkpt lat="42.55784743465483188629150390625" lon="20.10715750046074390411376953125">
        <ele>1870</ele>
        <time>2026-06-19T13:11:58.000Z</time>
        <extensions>
          <ns3:TrackPointExtension>
            <ns3:atemp>21.0</ns3:atemp>
          </ns3:TrackPointExtension>
        </extensions>
      </trkpt>
      <trkpt lat="42.55784693174064159393310546875" lon="20.1071689836680889129638671875">
        <ele>1870</ele>
        <time>2026-06-19T13:11:59.000Z</time>
        <extensions>
          <ns3:TrackPointExtension>
            <ns3:atemp>21.0</ns3:atemp>
          </ns3:TrackPointExtension>
        </extensions>
      </trkpt>
      <trkpt lat="42.55784860812127590179443359375" lon="20.1071740128099918365478515625">
        <ele>1870</ele>
        <time>2026-06-19T13:12:00.000Z</time>
        <extensions>
          <ns3:TrackPointExtension>
            <ns3:atemp>21.0</ns3:atemp>
          </ns3:TrackPointExtension>
        </extensions>
      </trkpt>
      <trkpt lat="42.55784911103546619415283203125" lon="20.1071760244667530059814453125">
        <ele>1870</ele>
        <time>2026-06-19T13:12:01.000Z</time>
        <extensions>
          <ns3:TrackPointExtension>
            <ns3:atemp>21.0</ns3:atemp>
          </ns3:TrackPointExtension>
        </extensions>
      </trkpt>
      <trkpt lat="42.55784911103546619415283203125" lon="20.1071763597428798675537109375">
        <ele>1870</ele>
        <time>2026-06-19T13:12:02.000Z</time>
        <extensions>
          <ns3:TrackPointExtension>
            <ns3:atemp>21.0</ns3:atemp>
          </ns3:TrackPointExtension>
        </extensions>
      </trkpt>
      <trkpt lat="42.55784911103546619415283203125" lon="20.10717661119997501373291015625">
        <ele>1870</ele>
        <time>2026-06-19T13:12:03.000Z</time>
        <extensions>
          <ns3:TrackPointExtension>
            <ns3:atemp>21.0</ns3:atemp>
          </ns3:TrackPointExtension>
        </extensions>
      </trkpt>
      <trkpt lat="42.55784978158771991729736328125" lon="20.1072001643478870391845703125">
        <ele>1870</ele>
        <time>2026-06-19T13:12:04.000Z</time>
        <extensions>
          <ns3:TrackPointExtension>
            <ns3:atemp>21.0</ns3:atemp>
          </ns3:TrackPointExtension>
        </extensions>
      </trkpt>
      <trkpt lat="42.55785179324448108673095703125" lon="20.10720963589847087860107421875">
        <ele>1870</ele>
        <time>2026-06-19T13:12:05.000Z</time>
        <extensions>
          <ns3:TrackPointExtension>
            <ns3:atemp>21.0</ns3:atemp>
          </ns3:TrackPointExtension>
        </extensions>
      </trkpt>
      <trkpt lat="42.55785447545349597930908203125" lon="20.1072216220200061798095703125">
        <ele>1870</ele>
        <time>2026-06-19T13:12:06.000Z</time>
        <extensions>
          <ns3:TrackPointExtension>
            <ns3:atemp>21.0</ns3:atemp>
          </ns3:TrackPointExtension>
        </extensions>
      </trkpt>
      <trkpt lat="42.55785799585282802581787109375" lon="20.10722237639129161834716796875">
        <ele>1870</ele>
        <time>2026-06-19T13:12:07.000Z</time>
        <extensions>
          <ns3:TrackPointExtension>
            <ns3:atemp>21.0</ns3:atemp>
          </ns3:TrackPointExtension>
        </extensions>
      </trkpt>
      <trkpt lat="42.557861767709255218505859375" lon="20.1072227954864501953125">
        <ele>1870</ele>
        <time>2026-06-19T13:12:08.000Z</time>
        <extensions>
          <ns3:TrackPointExtension>
            <ns3:atemp>21.0</ns3:atemp>
          </ns3:TrackPointExtension>
        </extensions>
      </trkpt>
      <trkpt lat="42.557861767709255218505859375" lon="20.1072227954864501953125">
        <ele>1870</ele>
        <time>2026-06-19T13:12:09.000Z</time>
        <extensions>
          <ns3:TrackPointExtension>
            <ns3:atemp>21.0</ns3:atemp>
          </ns3:TrackPointExtension>
        </extensions>
      </trkpt>
      <trkpt lat="42.557861767709255218505859375" lon="20.1072227954864501953125">
        <ele>1870</ele>
        <time>2026-06-19T13:12:10.000Z</time>
        <extensions>
          <ns3:TrackPointExtension>
            <ns3:atemp>21.0</ns3:atemp>
          </ns3:TrackPointExtension>
        </extensions>
      </trkpt>
      <trkpt lat="42.557861767709255218505859375" lon="20.1072227954864501953125">
        <ele>1869.800048828125</ele>
        <time>2026-06-19T13:12:11.000Z</time>
        <extensions>
          <ns3:TrackPointExtension>
            <ns3:atemp>21.0</ns3:atemp>
          </ns3:TrackPointExtension>
        </extensions>
      </trkpt>
      <trkpt lat="42.557861767709255218505859375" lon="20.1072227954864501953125">
        <ele>1869.800048828125</ele>
        <time>2026-06-19T13:12:12.000Z</time>
        <extensions>
          <ns3:TrackPointExtension>
            <ns3:atemp>21.0</ns3:atemp>
          </ns3:TrackPointExtension>
        </extensions>
      </trkpt>
      <trkpt lat="42.557861767709255218505859375" lon="20.1072227954864501953125">
        <ele>1869.800048828125</ele>
        <time>2026-06-19T13:12:13.000Z</time>
        <extensions>
          <ns3:TrackPointExtension>
            <ns3:atemp>21.0</ns3:atemp>
          </ns3:TrackPointExtension>
        </extensions>
      </trkpt>
      <trkpt lat="42.557861767709255218505859375" lon="20.1072227954864501953125">
        <ele>1869.800048828125</ele>
        <time>2026-06-19T13:12:14.000Z</time>
        <extensions>
          <ns3:TrackPointExtension>
            <ns3:atemp>21.0</ns3:atemp>
          </ns3:TrackPointExtension>
        </extensions>
      </trkpt>
      <trkpt lat="42.557861767709255218505859375" lon="20.1072227954864501953125">
        <ele>1869.5999755859375</ele>
        <time>2026-06-19T13:12:15.000Z</time>
        <extensions>
          <ns3:TrackPointExtension>
            <ns3:atemp>21.0</ns3:atemp>
          </ns3:TrackPointExtension>
        </extensions>
      </trkpt>
      <trkpt lat="42.557861767709255218505859375" lon="20.1072227954864501953125">
        <ele>1869.5999755859375</ele>
        <time>2026-06-19T13:12:16.000Z</time>
        <extensions>
          <ns3:TrackPointExtension>
            <ns3:atemp>21.0</ns3:atemp>
          </ns3:TrackPointExtension>
        </extensions>
      </trkpt>
      <trkpt lat="42.557861767709255218505859375" lon="20.1072227954864501953125">
        <ele>1869.5999755859375</ele>
        <time>2026-06-19T13:12:17.000Z</time>
        <extensions>
          <ns3:TrackPointExtension>
            <ns3:atemp>21.0</ns3:atemp>
          </ns3:TrackPointExtension>
        </extensions>
      </trkpt>
      <trkpt lat="42.557861767709255218505859375" lon="20.1072227954864501953125">
        <ele>1869.5999755859375</ele>
        <time>2026-06-19T13:12:18.000Z</time>
        <extensions>
          <ns3:TrackPointExtension>
            <ns3:atemp>21.0</ns3:atemp>
          </ns3:TrackPointExtension>
        </extensions>
      </trkpt>
      <trkpt lat="42.557861767709255218505859375" lon="20.1072227954864501953125">
        <ele>1869.5999755859375</ele>
        <time>2026-06-19T13:12:19.000Z</time>
        <extensions>
          <ns3:TrackPointExtension>
            <ns3:atemp>21.0</ns3:atemp>
          </ns3:TrackPointExtension>
        </extensions>
      </trkpt>
      <trkpt lat="42.557861767709255218505859375" lon="20.1072227954864501953125">
        <ele>1869.5999755859375</ele>
        <time>2026-06-19T13:12:20.000Z</time>
        <extensions>
          <ns3:TrackPointExtension>
            <ns3:atemp>21.0</ns3:atemp>
          </ns3:TrackPointExtension>
        </extensions>
      </trkpt>
      <trkpt lat="42.557861767709255218505859375" lon="20.1072227954864501953125">
        <ele>1869.4000244140625</ele>
        <time>2026-06-19T13:12:21.000Z</time>
        <extensions>
          <ns3:TrackPointExtension>
            <ns3:atemp>21.0</ns3:atemp>
          </ns3:TrackPointExtension>
        </extensions>
      </trkpt>
      <trkpt lat="42.557861767709255218505859375" lon="20.1072227954864501953125">
        <ele>1869.4000244140625</ele>
        <time>2026-06-19T13:12:22.000Z</time>
        <extensions>
          <ns3:TrackPointExtension>
            <ns3:atemp>21.0</ns3:atemp>
          </ns3:TrackPointExtension>
        </extensions>
      </trkpt>
      <trkpt lat="42.557861767709255218505859375" lon="20.1072227954864501953125">
        <ele>1869.4000244140625</ele>
        <time>2026-06-19T13:12:23.000Z</time>
        <extensions>
          <ns3:TrackPointExtension>
            <ns3:atemp>21.0</ns3:atemp>
          </ns3:TrackPointExtension>
        </extensions>
      </trkpt>
      <trkpt lat="42.557861767709255218505859375" lon="20.1072227954864501953125">
        <ele>1869.4000244140625</ele>
        <time>2026-06-19T13:12:24.000Z</time>
        <extensions>
          <ns3:TrackPointExtension>
            <ns3:atemp>21.0</ns3:atemp>
          </ns3:TrackPointExtension>
        </extensions>
      </trkpt>
    </trkseg>
  </trk>
</gpx>
